<?xml version="1.0" encoding="UTF-8"?>
<TrainingCenterDatabase xmlns="http://www.garmin.com/xmlschemas/TrainingCenterDatabase/v2" xmlns:xsi="http://www.w3.org/2001/XMLSchema-instance" xsi:schemaLocation="http://www.garmin.com/xmlschemas/TrainingCenterDatabase/v2 http://www.garmin.com/xmlschemas/TrainingCenterDatabasev2.xsd">
  <Activities>
    <Activity Sport="Other">
      <Id>2019-08-01T10:02:27.000Z</Id>
      <Lap StartTime="2019-08-01T10:02:27.000Z">
        <TotalTimeSeconds>14076</TotalTimeSeconds>
        <DistanceMeters>100380</DistanceMeters>
        <Track>
          <Trackpoint>
            <Time>2019-08-01T10:02:27.000Z</Time>
            <Position>
              <LatitudeDegrees>40.4467047750949859619140625</LatitudeDegrees>
              <LongitudeDegrees>-4.00171293877065181732177734375</LongitudeDegrees>
            </Position>
            <AltitudeMeters>661.20001220703125</AltitudeMeters>
            <DistanceMeters>0</DistanceMeters>
          </Trackpoint>
          <Trackpoint>
            <Time>2019-08-01T10:02:28.000Z</Time>
            <Position>
              <LatitudeDegrees>40.4467315971851348876953125</LatitudeDegrees>
              <LongitudeDegrees>-4.0017302893102169036865234375</LongitudeDegrees>
            </Position>
            <AltitudeMeters>661.4000244140625</AltitudeMeters>
            <DistanceMeters>3.3272922505076</DistanceMeters>
          </Trackpoint>
          <Trackpoint>
            <Time>2019-08-01T10:02:29.000Z</Time>
            <Position>
              <LatitudeDegrees>40.44676319696009159088134765625</LatitudeDegrees>
              <LongitudeDegrees>-4.00174328126013278961181640625</LongitudeDegrees>
            </Position>
            <AltitudeMeters>661.4000244140625</AltitudeMeters>
            <DistanceMeters>7.0125649638503</DistanceMeters>
          </Trackpoint>
          <Trackpoint>
            <Time>2019-08-01T10:02:30.000Z</Time>
            <Position>
              <LatitudeDegrees>40.4468018375337123870849609375</LatitudeDegrees>
              <LongitudeDegrees>-4.0017443709075450897216796875</LongitudeDegrees>
            </Position>
            <AltitudeMeters>661.4000244140625</AltitudeMeters>
            <DistanceMeters>11.31508244901</DistanceMeters>
          </Trackpoint>
          <Trackpoint>
            <Time>2019-08-01T10:02:31.000Z</Time>
            <Position>
              <LatitudeDegrees>40.44683880172669887542724609375</LatitudeDegrees>
              <LongitudeDegrees>-4.0017445385456085205078125</LongitudeDegrees>
            </Position>
            <AltitudeMeters>661.4000244140625</AltitudeMeters>
            <DistanceMeters>15.428762462814</DistanceMeters>
          </Trackpoint>
          <Trackpoint>
            <Time>2019-08-01T10:02:32.000Z</Time>
            <Position>
              <LatitudeDegrees>40.44688071124255657196044921875</LatitudeDegrees>
              <LongitudeDegrees>-4.001744873821735382080078125</LongitudeDegrees>
            </Position>
            <AltitudeMeters>661.4000244140625</AltitudeMeters>
            <DistanceMeters>20.09379024729</DistanceMeters>
          </Trackpoint>
          <Trackpoint>
            <Time>2019-08-01T10:02:33.000Z</Time>
            <Position>
              <LatitudeDegrees>40.4469057731330394744873046875</LatitudeDegrees>
              <LongitudeDegrees>-4.00173456408083438873291015625</LongitudeDegrees>
            </Position>
            <AltitudeMeters>661.4000244140625</AltitudeMeters>
            <DistanceMeters>23.018082023503</DistanceMeters>
          </Trackpoint>
          <Trackpoint>
            <Time>2019-08-01T10:02:34.000Z</Time>
            <Position>
              <LatitudeDegrees>40.44693938456475734710693359375</LatitudeDegrees>
              <LongitudeDegrees>-4.001745879650115966796875</LongitudeDegrees>
            </Position>
            <AltitudeMeters>661.20001220703125</AltitudeMeters>
            <DistanceMeters>26.880424096056</DistanceMeters>
          </Trackpoint>
          <Trackpoint>
            <Time>2019-08-01T10:02:35.000Z</Time>
            <Position>
              <LatitudeDegrees>40.4469781927764415740966796875</LatitudeDegrees>
              <LongitudeDegrees>-4.00175585411489009857177734375</LongitudeDegrees>
            </Position>
            <AltitudeMeters>661.20001220703125</AltitudeMeters>
            <DistanceMeters>31.280479083876</DistanceMeters>
          </Trackpoint>
          <Trackpoint>
            <Time>2019-08-01T10:02:36.000Z</Time>
            <Position>
              <LatitudeDegrees>40.4470207728445529937744140625</LatitudeDegrees>
              <LongitudeDegrees>-4.00176289491355419158935546875</LongitudeDegrees>
            </Position>
            <AltitudeMeters>661.20001220703125</AltitudeMeters>
            <DistanceMeters>36.057403112356</DistanceMeters>
          </Trackpoint>
          <Trackpoint>
            <Time>2019-08-01T10:02:37.000Z</Time>
            <Position>
              <LatitudeDegrees>40.4470722377300262451171875</LatitudeDegrees>
              <LongitudeDegrees>-4.00176138617098331451416015625</LongitudeDegrees>
            </Position>
            <AltitudeMeters>661.20001220703125</AltitudeMeters>
            <DistanceMeters>41.787443072969</DistanceMeters>
          </Trackpoint>
          <Trackpoint>
            <Time>2019-08-01T10:02:38.000Z</Time>
            <Position>
              <LatitudeDegrees>40.44712445698678493499755859375</LatitudeDegrees>
              <LongitudeDegrees>-4.0017659962177276611328125</LongitudeDegrees>
            </Position>
            <AltitudeMeters>661.20001220703125</AltitudeMeters>
            <DistanceMeters>47.612820938514</DistanceMeters>
          </Trackpoint>
          <Trackpoint>
            <Time>2019-08-01T10:02:39.000Z</Time>
            <Position>
              <LatitudeDegrees>40.4471783526241779327392578125</LatitudeDegrees>
              <LongitudeDegrees>-4.00178133510053157806396484375</LongitudeDegrees>
            </Position>
            <AltitudeMeters>661.20001220703125</AltitudeMeters>
            <DistanceMeters>53.750693446491</DistanceMeters>
          </Trackpoint>
          <Trackpoint>
            <Time>2019-08-01T10:02:40.000Z</Time>
            <Position>
              <LatitudeDegrees>40.44723493047058582305908203125</LatitudeDegrees>
              <LongitudeDegrees>-4.00179860182106494903564453125</LongitudeDegrees>
            </Position>
            <AltitudeMeters>661</AltitudeMeters>
            <DistanceMeters>60.215304322841</DistanceMeters>
          </Trackpoint>
          <Trackpoint>
            <Time>2019-08-01T10:02:41.000Z</Time>
            <Position>
              <LatitudeDegrees>40.44729284942150115966796875</LatitudeDegrees>
              <LongitudeDegrees>-4.0018131025135517120361328125</LongitudeDegrees>
            </Position>
            <AltitudeMeters>661</AltitudeMeters>
            <DistanceMeters>66.777654097215</DistanceMeters>
          </Trackpoint>
          <Trackpoint>
            <Time>2019-08-01T10:02:42.000Z</Time>
            <Position>
              <LatitudeDegrees>40.44735160656273365020751953125</LatitudeDegrees>
              <LongitudeDegrees>-4.0018268488347530364990234375</LongitudeDegrees>
            </Position>
            <AltitudeMeters>660.79998779296875</AltitudeMeters>
            <DistanceMeters>73.42001463434</DistanceMeters>
          </Trackpoint>
          <Trackpoint>
            <Time>2019-08-01T10:02:43.000Z</Time>
            <Position>
              <LatitudeDegrees>40.44740759767591953277587890625</LatitudeDegrees>
              <LongitudeDegrees>-4.00183212943375110626220703125</LongitudeDegrees>
            </Position>
            <AltitudeMeters>660.5999755859375</AltitudeMeters>
            <DistanceMeters>79.667975939216</DistanceMeters>
          </Trackpoint>
          <Trackpoint>
            <Time>2019-08-01T10:02:44.000Z</Time>
            <Position>
              <LatitudeDegrees>40.4474609903991222381591796875</LatitudeDegrees>
              <LongitudeDegrees>-4.0018395893275737762451171875</LongitudeDegrees>
            </Position>
            <AltitudeMeters>660.4000244140625</AltitudeMeters>
            <DistanceMeters>85.643335531692</DistanceMeters>
          </Trackpoint>
          <Trackpoint>
            <Time>2019-08-01T10:02:45.000Z</Time>
            <Position>
              <LatitudeDegrees>40.44752008281648159027099609375</LatitudeDegrees>
              <LongitudeDegrees>-4.00184906087815761566162109375</LongitudeDegrees>
            </Position>
            <AltitudeMeters>660.20001220703125</AltitudeMeters>
            <DistanceMeters>92.268680926014</DistanceMeters>
          </Trackpoint>
          <Trackpoint>
            <Time>2019-08-01T10:02:46.000Z</Time>
            <Position>
              <LatitudeDegrees>40.4475759901106357574462890625</LatitudeDegrees>
              <LongitudeDegrees>-4.001853503286838531494140625</LongitudeDegrees>
            </Position>
            <AltitudeMeters>660</AltitudeMeters>
            <DistanceMeters>98.5028969164</DistanceMeters>
          </Trackpoint>
          <Trackpoint>
            <Time>2019-08-01T10:02:47.000Z</Time>
            <Position>
              <LatitudeDegrees>40.44763340614736080169677734375</LatitudeDegrees>
              <LongitudeDegrees>-4.00183883495628833770751953125</LongitudeDegrees>
            </Position>
            <AltitudeMeters>660</AltitudeMeters>
            <DistanceMeters>105.0127470492</DistanceMeters>
          </Trackpoint>
          <Trackpoint>
            <Time>2019-08-01T10:02:49.000Z</Time>
            <Position>
              <LatitudeDegrees>40.44776491820812225341796875</LatitudeDegrees>
              <LongitudeDegrees>-4.0017839334905147552490234375</LongitudeDegrees>
            </Position>
            <AltitudeMeters>659.79998779296875</AltitudeMeters>
            <DistanceMeters>120.37125143176</DistanceMeters>
          </Trackpoint>
          <Trackpoint>
            <Time>2019-08-01T10:02:50.000Z</Time>
            <Position>
              <LatitudeDegrees>40.4478368349373340606689453125</LatitudeDegrees>
              <LongitudeDegrees>-4.0017745457589626312255859375</LongitudeDegrees>
            </Position>
            <AltitudeMeters>659.79998779296875</AltitudeMeters>
            <DistanceMeters>128.41547468807</DistanceMeters>
          </Trackpoint>
          <Trackpoint>
            <Time>2019-08-01T10:02:51.000Z</Time>
            <Position>
              <LatitudeDegrees>40.44790531508624553680419921875</LatitudeDegrees>
              <LongitudeDegrees>-4.00178141891956329345703125</LongitudeDegrees>
            </Position>
            <AltitudeMeters>659.5999755859375</AltitudeMeters>
            <DistanceMeters>136.06025426274</DistanceMeters>
          </Trackpoint>
          <Trackpoint>
            <Time>2019-08-01T10:02:52.000Z</Time>
            <Position>
              <LatitudeDegrees>40.44797622598707675933837890625</LatitudeDegrees>
              <LongitudeDegrees>-4.00179759599268436431884765625</LongitudeDegrees>
            </Position>
            <AltitudeMeters>659.5999755859375</AltitudeMeters>
            <DistanceMeters>144.07073010446</DistanceMeters>
          </Trackpoint>
          <Trackpoint>
            <Time>2019-08-01T10:02:53.000Z</Time>
            <Position>
              <LatitudeDegrees>40.44804328121244907379150390625</LatitudeDegrees>
              <LongitudeDegrees>-4.00182793848216533660888671875</LongitudeDegrees>
            </Position>
            <AltitudeMeters>659.20001220703125</AltitudeMeters>
            <DistanceMeters>151.96424183646</DistanceMeters>
          </Trackpoint>
          <Trackpoint>
            <Time>2019-08-01T10:02:54.000Z</Time>
            <Position>
              <LatitudeDegrees>40.448112599551677703857421875</LatitudeDegrees>
              <LongitudeDegrees>-4.00186465121805667877197265625</LongitudeDegrees>
            </Position>
            <AltitudeMeters>659</AltitudeMeters>
            <DistanceMeters>160.28274385245</DistanceMeters>
          </Trackpoint>
          <Trackpoint>
            <Time>2019-08-01T10:02:55.000Z</Time>
            <Position>
              <LatitudeDegrees>40.44818334281444549560546875</LatitudeDegrees>
              <LongitudeDegrees>-4.00189281441271305084228515625</LongitudeDegrees>
            </Position>
            <AltitudeMeters>658.79998779296875</AltitudeMeters>
            <DistanceMeters>168.5095550784</DistanceMeters>
          </Trackpoint>
          <Trackpoint>
            <Time>2019-08-01T10:02:56.000Z</Time>
            <Position>
              <LatitudeDegrees>40.4482572712004184722900390625</LatitudeDegrees>
              <LongitudeDegrees>-4.00191728956997394561767578125</LongitudeDegrees>
            </Position>
            <AltitudeMeters>658.4000244140625</AltitudeMeters>
            <DistanceMeters>176.99517995605</DistanceMeters>
          </Trackpoint>
          <Trackpoint>
            <Time>2019-08-01T10:02:57.000Z</Time>
            <Position>
              <LatitudeDegrees>40.4483340494334697723388671875</LatitudeDegrees>
              <LongitudeDegrees>-4.00194101035594940185546875</LongitudeDegrees>
            </Position>
            <AltitudeMeters>657.79998779296875</AltitudeMeters>
            <DistanceMeters>185.77422901897</DistanceMeters>
          </Trackpoint>
          <Trackpoint>
            <Time>2019-08-01T10:02:58.000Z</Time>
            <Position>
              <LatitudeDegrees>40.44841468334197998046875</LatitudeDegrees>
              <LongitudeDegrees>-4.001967497169971466064453125</LongitudeDegrees>
            </Position>
            <AltitudeMeters>657.5999755859375</AltitudeMeters>
            <DistanceMeters>195.02458060055</DistanceMeters>
          </Trackpoint>
          <Trackpoint>
            <Time>2019-08-01T10:02:59.000Z</Time>
            <Position>
              <LatitudeDegrees>40.448504872620105743408203125</LatitudeDegrees>
              <LongitudeDegrees>-4.00200546719133853912353515625</LongitudeDegrees>
            </Position>
            <AltitudeMeters>657.4000244140625</AltitudeMeters>
            <DistanceMeters>205.56526656335</DistanceMeters>
          </Trackpoint>
          <Trackpoint>
            <Time>2019-08-01T10:03:00.000Z</Time>
            <Position>
              <LatitudeDegrees>40.4485932178795337677001953125</LatitudeDegrees>
              <LongitudeDegrees>-4.00203916244208812713623046875</LongitudeDegrees>
            </Position>
            <AltitudeMeters>657.4000244140625</AltitudeMeters>
            <DistanceMeters>215.80436747673</DistanceMeters>
          </Trackpoint>
          <Trackpoint>
            <Time>2019-08-01T10:03:01.000Z</Time>
            <Position>
              <LatitudeDegrees>40.44868290424346923828125</LatitudeDegrees>
              <LongitudeDegrees>-4.0020793117582798004150390625</LongitudeDegrees>
            </Position>
            <AltitudeMeters>657.20001220703125</AltitudeMeters>
            <DistanceMeters>226.34976416948</DistanceMeters>
          </Trackpoint>
          <Trackpoint>
            <Time>2019-08-01T10:03:02.000Z</Time>
            <Position>
              <LatitudeDegrees>40.448773764073848724365234375</LatitudeDegrees>
              <LongitudeDegrees>-4.00212046690285205841064453125</LongitudeDegrees>
            </Position>
            <AltitudeMeters>657</AltitudeMeters>
            <DistanceMeters>237.04691933792</DistanceMeters>
          </Trackpoint>
          <Trackpoint>
            <Time>2019-08-01T10:03:03.000Z</Time>
            <Position>
              <LatitudeDegrees>40.4488654620945453643798828125</LatitudeDegrees>
              <LongitudeDegrees>-4.00215717963874340057373046875</LongitudeDegrees>
            </Position>
            <AltitudeMeters>656.79998779296875</AltitudeMeters>
            <DistanceMeters>247.71618096432</DistanceMeters>
          </Trackpoint>
          <Trackpoint>
            <Time>2019-08-01T10:03:04.000Z</Time>
            <Position>
              <LatitudeDegrees>40.44895850121974945068359375</LatitudeDegrees>
              <LongitudeDegrees>-4.00218768976628780364990234375</LongitudeDegrees>
            </Position>
            <AltitudeMeters>656.79998779296875</AltitudeMeters>
            <DistanceMeters>258.38967357063</DistanceMeters>
          </Trackpoint>
          <Trackpoint>
            <Time>2019-08-01T10:03:05.000Z</Time>
            <Position>
              <LatitudeDegrees>40.44904642738401889801025390625</LatitudeDegrees>
              <LongitudeDegrees>-4.00221233256161212921142578125</LongitudeDegrees>
            </Position>
            <AltitudeMeters>656.79998779296875</AltitudeMeters>
            <DistanceMeters>268.395945984</DistanceMeters>
          </Trackpoint>
          <Trackpoint>
            <Time>2019-08-01T10:03:06.000Z</Time>
            <Position>
              <LatitudeDegrees>40.44913443736732006072998046875</LatitudeDegrees>
              <LongitudeDegrees>-4.00223932228982448577880859375</LongitudeDegrees>
            </Position>
            <AltitudeMeters>656.5999755859375</AltitudeMeters>
            <DistanceMeters>278.4553215427</DistanceMeters>
          </Trackpoint>
          <Trackpoint>
            <Time>2019-08-01T10:03:07.000Z</Time>
            <Position>
              <LatitudeDegrees>40.44922110624611377716064453125</LatitudeDegrees>
              <LongitudeDegrees>-4.00226891040802001953125</LongitudeDegrees>
            </Position>
            <AltitudeMeters>656.20001220703125</AltitudeMeters>
            <DistanceMeters>288.42180742708</DistanceMeters>
          </Trackpoint>
          <Trackpoint>
            <Time>2019-08-01T10:03:08.000Z</Time>
            <Position>
              <LatitudeDegrees>40.449309535324573516845703125</LatitudeDegrees>
              <LongitudeDegrees>-4.00230067782104015350341796875</LongitudeDegrees>
            </Position>
            <AltitudeMeters>655.4000244140625</AltitudeMeters>
            <DistanceMeters>298.62468551348</DistanceMeters>
          </Trackpoint>
          <Trackpoint>
            <Time>2019-08-01T10:03:09.000Z</Time>
            <Position>
              <LatitudeDegrees>40.449399389326572418212890625</LatitudeDegrees>
              <LongitudeDegrees>-4.00233663618564605712890625</LongitudeDegrees>
            </Position>
            <AltitudeMeters>654.5999755859375</AltitudeMeters>
            <DistanceMeters>309.07935170985</DistanceMeters>
          </Trackpoint>
          <Trackpoint>
            <Time>2019-08-01T10:03:10.000Z</Time>
            <Position>
              <LatitudeDegrees>40.4494860582053661346435546875</LatitudeDegrees>
              <LongitudeDegrees>-4.00237360037863254547119140625</LongitudeDegrees>
            </Position>
            <AltitudeMeters>654.20001220703125</AltitudeMeters>
            <DistanceMeters>319.22097735354</DistanceMeters>
          </Trackpoint>
          <Trackpoint>
            <Time>2019-08-01T10:03:11.000Z</Time>
            <Position>
              <LatitudeDegrees>40.44957448728382587432861328125</LatitudeDegrees>
              <LongitudeDegrees>-4.00240427814424037933349609375</LongitudeDegrees>
            </Position>
            <AltitudeMeters>654</AltitudeMeters>
            <DistanceMeters>329.40037454563</DistanceMeters>
          </Trackpoint>
          <Trackpoint>
            <Time>2019-08-01T10:03:12.000Z</Time>
            <Position>
              <LatitudeDegrees>40.44967154972255229949951171875</LatitudeDegrees>
              <LongitudeDegrees>-4.00243780575692653656005859375</LongitudeDegrees>
            </Position>
            <AltitudeMeters>654</AltitudeMeters>
            <DistanceMeters>340.57035960498</DistanceMeters>
          </Trackpoint>
          <Trackpoint>
            <Time>2019-08-01T10:03:13.000Z</Time>
            <Position>
              <LatitudeDegrees>40.44976945035159587860107421875</LatitudeDegrees>
              <LongitudeDegrees>-4.00246345438063144683837890625</LongitudeDegrees>
            </Position>
            <AltitudeMeters>653.5999755859375</AltitudeMeters>
            <DistanceMeters>351.68157939139</DistanceMeters>
          </Trackpoint>
          <Trackpoint>
            <Time>2019-08-01T10:03:14.000Z</Time>
            <Position>
              <LatitudeDegrees>40.44987757690250873565673828125</LatitudeDegrees>
              <LongitudeDegrees>-4.00249061174690723419189453125</LongitudeDegrees>
            </Position>
            <AltitudeMeters>653.4000244140625</AltitudeMeters>
            <DistanceMeters>363.93413099833</DistanceMeters>
          </Trackpoint>
          <Trackpoint>
            <Time>2019-08-01T10:03:15.000Z</Time>
            <Position>
              <LatitudeDegrees>40.449971370398998260498046875</LatitudeDegrees>
              <LongitudeDegrees>-4.00251005776226520538330078125</LongitudeDegrees>
            </Position>
            <AltitudeMeters>653.20001220703125</AltitudeMeters>
            <DistanceMeters>374.50262263788</DistanceMeters>
          </Trackpoint>
          <Trackpoint>
            <Time>2019-08-01T10:03:16.000Z</Time>
            <Position>
              <LatitudeDegrees>40.4500583745539188385009765625</LatitudeDegrees>
              <LongitudeDegrees>-4.0025322698056697845458984375</LongitudeDegrees>
            </Position>
            <AltitudeMeters>652.79998779296875</AltitudeMeters>
            <DistanceMeters>384.36710963722</DistanceMeters>
          </Trackpoint>
          <Trackpoint>
            <Time>2019-08-01T10:03:17.000Z</Time>
            <Position>
              <LatitudeDegrees>40.4501364938914775848388671875</LatitudeDegrees>
              <LongitudeDegrees>-4.0025624446570873260498046875</LongitudeDegrees>
            </Position>
            <AltitudeMeters>652.5999755859375</AltitudeMeters>
            <DistanceMeters>393.42958972039</DistanceMeters>
          </Trackpoint>
          <Trackpoint>
            <Time>2019-08-01T10:03:18.000Z</Time>
            <Position>
              <LatitudeDegrees>40.45021285302937030792236328125</LatitudeDegrees>
              <LongitudeDegrees>-4.00260091759264469146728515625</LongitudeDegrees>
            </Position>
            <AltitudeMeters>652.5999755859375</AltitudeMeters>
            <DistanceMeters>402.53183951773</DistanceMeters>
          </Trackpoint>
          <Trackpoint>
            <Time>2019-08-01T10:03:19.000Z</Time>
            <Position>
              <LatitudeDegrees>40.450286529958248138427734375</LatitudeDegrees>
              <LongitudeDegrees>-4.00264777243137359619140625</LongitudeDegrees>
            </Position>
            <AltitudeMeters>652.4000244140625</AltitudeMeters>
            <DistanceMeters>411.64202242459</DistanceMeters>
          </Trackpoint>
          <Trackpoint>
            <Time>2019-08-01T10:03:20.000Z</Time>
            <Position>
              <LatitudeDegrees>40.45036674477159976959228515625</LatitudeDegrees>
              <LongitudeDegrees>-4.00270300917327404022216796875</LongitudeDegrees>
            </Position>
            <AltitudeMeters>652.20001220703125</AltitudeMeters>
            <DistanceMeters>421.72202342396</DistanceMeters>
          </Trackpoint>
          <Trackpoint>
            <Time>2019-08-01T10:03:21.000Z</Time>
            <Position>
              <LatitudeDegrees>40.45044184662401676177978515625</LatitudeDegrees>
              <LongitudeDegrees>-4.00275346823036670684814453125</LongitudeDegrees>
            </Position>
            <AltitudeMeters>652.20001220703125</AltitudeMeters>
            <DistanceMeters>431.11093210634</DistanceMeters>
          </Trackpoint>
          <Trackpoint>
            <Time>2019-08-01T10:03:22.000Z</Time>
            <Position>
              <LatitudeDegrees>40.45052331872284412384033203125</LatitudeDegrees>
              <LongitudeDegrees>-4.00280694477260112762451171875</LongitudeDegrees>
            </Position>
            <AltitudeMeters>652.20001220703125</AltitudeMeters>
            <DistanceMeters>441.24721395815</DistanceMeters>
          </Trackpoint>
          <Trackpoint>
            <Time>2019-08-01T10:03:23.000Z</Time>
            <Position>
              <LatitudeDegrees>40.45059959404170513153076171875</LatitudeDegrees>
              <LongitudeDegrees>-4.00285908021032810211181640625</LongitudeDegrees>
            </Position>
            <AltitudeMeters>652</AltitudeMeters>
            <DistanceMeters>450.81617289534</DistanceMeters>
          </Trackpoint>
          <Trackpoint>
            <Time>2019-08-01T10:03:24.000Z</Time>
            <Position>
              <LatitudeDegrees>40.45067301951348781585693359375</LatitudeDegrees>
              <LongitudeDegrees>-4.00290836580097675323486328125</LongitudeDegrees>
            </Position>
            <AltitudeMeters>651.79998779296875</AltitudeMeters>
            <DistanceMeters>459.99252635627</DistanceMeters>
          </Trackpoint>
          <Trackpoint>
            <Time>2019-08-01T10:03:25.000Z</Time>
            <Position>
              <LatitudeDegrees>40.4507493786513805389404296875</LatitudeDegrees>
              <LongitudeDegrees>-4.002959914505481719970703125</LongitudeDegrees>
            </Position>
            <AltitudeMeters>651.5999755859375</AltitudeMeters>
            <DistanceMeters>469.54731954338</DistanceMeters>
          </Trackpoint>
          <Trackpoint>
            <Time>2019-08-01T10:03:26.000Z</Time>
            <Position>
              <LatitudeDegrees>40.45082590542733669281005859375</LatitudeDegrees>
              <LongitudeDegrees>-4.00301246903836727142333984375</LongitudeDegrees>
            </Position>
            <AltitudeMeters>651.5999755859375</AltitudeMeters>
            <DistanceMeters>479.15818068821</DistanceMeters>
          </Trackpoint>
          <Trackpoint>
            <Time>2019-08-01T10:03:27.000Z</Time>
            <Position>
              <LatitudeDegrees>40.45090083964169025421142578125</LatitudeDegrees>
              <LongitudeDegrees>-4.0030646882951259613037109375</LongitudeDegrees>
            </Position>
            <AltitudeMeters>651.5999755859375</AltitudeMeters>
            <DistanceMeters>488.5984044369</DistanceMeters>
          </Trackpoint>
          <Trackpoint>
            <Time>2019-08-01T10:03:28.000Z</Time>
            <Position>
              <LatitudeDegrees>40.45097342692315578460693359375</LatitudeDegrees>
              <LongitudeDegrees>-4.00311581790447235107421875</LongitudeDegrees>
            </Position>
            <AltitudeMeters>651.79998779296875</AltitudeMeters>
            <DistanceMeters>497.76441945077</DistanceMeters>
          </Trackpoint>
          <Trackpoint>
            <Time>2019-08-01T10:03:29.000Z</Time>
            <Position>
              <LatitudeDegrees>40.45104324817657470703125</LatitudeDegrees>
              <LongitudeDegrees>-4.00316518731415271759033203125</LongitudeDegrees>
            </Position>
            <AltitudeMeters>651.79998779296875</AltitudeMeters>
            <DistanceMeters>506.58912223629</DistanceMeters>
          </Trackpoint>
          <Trackpoint>
            <Time>2019-08-01T10:03:30.000Z</Time>
            <Position>
              <LatitudeDegrees>40.45111340470612049102783203125</LatitudeDegrees>
              <LongitudeDegrees>-4.003216065466403961181640625</LongitudeDegrees>
            </Position>
            <AltitudeMeters>652</AltitudeMeters>
            <DistanceMeters>515.50746924223</DistanceMeters>
          </Trackpoint>
          <Trackpoint>
            <Time>2019-08-01T10:03:31.000Z</Time>
            <Position>
              <LatitudeDegrees>40.45118062756955623626708984375</LatitudeDegrees>
              <LongitudeDegrees>-4.0032625012099742889404296875</LongitudeDegrees>
            </Position>
            <AltitudeMeters>652</AltitudeMeters>
            <DistanceMeters>523.96004073406</DistanceMeters>
          </Trackpoint>
          <Trackpoint>
            <Time>2019-08-01T10:03:32.000Z</Time>
            <Position>
              <LatitudeDegrees>40.45124567113816738128662109375</LatitudeDegrees>
              <LongitudeDegrees>-4.0033084340393543243408203125</LongitudeDegrees>
            </Position>
            <AltitudeMeters>652.20001220703125</AltitudeMeters>
            <DistanceMeters>532.17861553757</DistanceMeters>
          </Trackpoint>
          <Trackpoint>
            <Time>2019-08-01T10:03:33.000Z</Time>
            <Position>
              <LatitudeDegrees>40.45131591148674488067626953125</LatitudeDegrees>
              <LongitudeDegrees>-4.00335830636322498321533203125</LongitudeDegrees>
            </Position>
            <AltitudeMeters>652.20001220703125</AltitudeMeters>
            <DistanceMeters>541.0645025741</DistanceMeters>
          </Trackpoint>
          <Trackpoint>
            <Time>2019-08-01T10:03:35.000Z</Time>
            <Position>
              <LatitudeDegrees>40.45144951902329921722412109375</LatitudeDegrees>
              <LongitudeDegrees>-4.003454782068729400634765625</LongitudeDegrees>
            </Position>
            <AltitudeMeters>652.4000244140625</AltitudeMeters>
            <DistanceMeters>558.0322934516</DistanceMeters>
          </Trackpoint>
          <Trackpoint>
            <Time>2019-08-01T10:03:36.000Z</Time>
            <Position>
              <LatitudeDegrees>40.451515652239322662353515625</LatitudeDegrees>
              <LongitudeDegrees>-4.0035022236406803131103515625</LongitudeDegrees>
            </Position>
            <AltitudeMeters>652.4000244140625</AltitudeMeters>
            <DistanceMeters>566.418367345</DistanceMeters>
          </Trackpoint>
          <Trackpoint>
            <Time>2019-08-01T10:03:37.000Z</Time>
            <Position>
              <LatitudeDegrees>40.4515805281698703765869140625</LatitudeDegrees>
              <LongitudeDegrees>-4.003549329936504364013671875</LongitudeDegrees>
            </Position>
            <AltitudeMeters>652.4000244140625</AltitudeMeters>
            <DistanceMeters>574.66764950054</DistanceMeters>
          </Trackpoint>
          <Trackpoint>
            <Time>2019-08-01T10:03:38.000Z</Time>
            <Position>
              <LatitudeDegrees>40.4516435600817203521728515625</LatitudeDegrees>
              <LongitudeDegrees>-4.00359534658491611480712890625</LongitudeDegrees>
            </Position>
            <AltitudeMeters>652.79998779296875</AltitudeMeters>
            <DistanceMeters>582.69332923964</DistanceMeters>
          </Trackpoint>
          <Trackpoint>
            <Time>2019-08-01T10:03:39.000Z</Time>
            <Position>
              <LatitudeDegrees>40.45170533470809459686279296875</LatitudeDegrees>
              <LongitudeDegrees>-4.00363993830978870391845703125</LongitudeDegrees>
            </Position>
            <AltitudeMeters>653</AltitudeMeters>
            <DistanceMeters>590.53864638059</DistanceMeters>
          </Trackpoint>
          <Trackpoint>
            <Time>2019-08-01T10:03:40.000Z</Time>
            <Position>
              <LatitudeDegrees>40.4517645947635173797607421875</LatitudeDegrees>
              <LongitudeDegrees>-4.0036812610924243927001953125</LongitudeDegrees>
            </Position>
            <AltitudeMeters>653.20001220703125</AltitudeMeters>
            <DistanceMeters>598.00535194362</DistanceMeters>
          </Trackpoint>
          <Trackpoint>
            <Time>2019-08-01T10:03:41.000Z</Time>
            <Position>
              <LatitudeDegrees>40.45182402245700359344482421875</LatitudeDegrees>
              <LongitudeDegrees>-4.00371990166604518890380859375</LongitudeDegrees>
            </Position>
            <AltitudeMeters>653.4000244140625</AltitudeMeters>
            <DistanceMeters>605.38446848675</DistanceMeters>
          </Trackpoint>
          <Trackpoint>
            <Time>2019-08-01T10:03:42.000Z</Time>
            <Position>
              <LatitudeDegrees>40.45188219286501407623291015625</LatitudeDegrees>
              <LongitudeDegrees>-4.003757201135158538818359375</LongitudeDegrees>
            </Position>
            <AltitudeMeters>653.5999755859375</AltitudeMeters>
            <DistanceMeters>612.58897259181</DistanceMeters>
          </Trackpoint>
          <Trackpoint>
            <Time>2019-08-01T10:03:43.000Z</Time>
            <Position>
              <LatitudeDegrees>40.451940111815929412841796875</LatitudeDegrees>
              <LongitudeDegrees>-4.0037942491471767425537109375</LongitudeDegrees>
            </Position>
            <AltitudeMeters>654</AltitudeMeters>
            <DistanceMeters>619.75829578992</DistanceMeters>
          </Trackpoint>
          <Trackpoint>
            <Time>2019-08-01T10:03:44.000Z</Time>
            <Position>
              <LatitudeDegrees>40.4519989527761936187744140625</LatitudeDegrees>
              <LongitudeDegrees>-4.00383188389241695404052734375</LongitudeDegrees>
            </Position>
            <AltitudeMeters>654.20001220703125</AltitudeMeters>
            <DistanceMeters>627.04133561075</DistanceMeters>
          </Trackpoint>
          <Trackpoint>
            <Time>2019-08-01T10:03:45.000Z</Time>
            <Position>
              <LatitudeDegrees>40.45205787755548954010009765625</LatitudeDegrees>
              <LongitudeDegrees>-4.0038716979324817657470703125</LongitudeDegrees>
            </Position>
            <AltitudeMeters>654.4000244140625</AltitudeMeters>
            <DistanceMeters>634.41555559292</DistanceMeters>
          </Trackpoint>
          <Trackpoint>
            <Time>2019-08-01T10:03:46.000Z</Time>
            <Position>
              <LatitudeDegrees>40.4521142877638339996337890625</LatitudeDegrees>
              <LongitudeDegrees>-4.00391109287738800048828125</LongitudeDegrees>
            </Position>
            <AltitudeMeters>654.4000244140625</AltitudeMeters>
            <DistanceMeters>641.5260687959</DistanceMeters>
          </Trackpoint>
          <Trackpoint>
            <Time>2019-08-01T10:03:47.000Z</Time>
            <Position>
              <LatitudeDegrees>40.4521706141531467437744140625</LatitudeDegrees>
              <LongitudeDegrees>-4.003952331840991973876953125</LongitudeDegrees>
            </Position>
            <AltitudeMeters>654.5999755859375</AltitudeMeters>
            <DistanceMeters>648.70231614113</DistanceMeters>
          </Trackpoint>
          <Trackpoint>
            <Time>2019-08-01T10:03:48.000Z</Time>
            <Position>
              <LatitudeDegrees>40.452225096523761749267578125</LatitudeDegrees>
              <LongitudeDegrees>-4.00399248115718364715576171875</LongitudeDegrees>
            </Position>
            <AltitudeMeters>654.79998779296875</AltitudeMeters>
            <DistanceMeters>655.65422013414</DistanceMeters>
          </Trackpoint>
          <Trackpoint>
            <Time>2019-08-01T10:03:49.000Z</Time>
            <Position>
              <LatitudeDegrees>40.45227530412375926971435546875</LatitudeDegrees>
              <LongitudeDegrees>-4.0040336363017559051513671875</LongitudeDegrees>
            </Position>
            <AltitudeMeters>655.20001220703125</AltitudeMeters>
            <DistanceMeters>662.24060664244</DistanceMeters>
          </Trackpoint>
          <Trackpoint>
            <Time>2019-08-01T10:03:50.000Z</Time>
            <Position>
              <LatitudeDegrees>40.45231704600155353546142578125</LatitudeDegrees>
              <LongitudeDegrees>-4.00406976230442523956298828125</LongitudeDegrees>
            </Position>
            <AltitudeMeters>655.4000244140625</AltitudeMeters>
            <DistanceMeters>667.80271432721</DistanceMeters>
          </Trackpoint>
          <Trackpoint>
            <Time>2019-08-01T10:03:51.000Z</Time>
            <Position>
              <LatitudeDegrees>40.45235526748001575469970703125</LatitudeDegrees>
              <LongitudeDegrees>-4.00410446338355541229248046875</LongitudeDegrees>
            </Position>
            <AltitudeMeters>655.5999755859375</AltitudeMeters>
            <DistanceMeters>672.9744728702</DistanceMeters>
          </Trackpoint>
          <Trackpoint>
            <Time>2019-08-01T10:03:52.000Z</Time>
            <Position>
              <LatitudeDegrees>40.45239499770104885101318359375</LatitudeDegrees>
              <LongitudeDegrees>-4.0041409246623516082763671875</LongitudeDegrees>
            </Position>
            <AltitudeMeters>655.79998779296875</AltitudeMeters>
            <DistanceMeters>678.36844230861</DistanceMeters>
          </Trackpoint>
          <Trackpoint>
            <Time>2019-08-01T10:03:53.000Z</Time>
            <Position>
              <LatitudeDegrees>40.45243640430271625518798828125</LatitudeDegrees>
              <LongitudeDegrees>-4.00417956523597240447998046875</LongitudeDegrees>
            </Position>
            <AltitudeMeters>656</AltitudeMeters>
            <DistanceMeters>684.02073480446</DistanceMeters>
          </Trackpoint>
          <Trackpoint>
            <Time>2019-08-01T10:03:54.000Z</Time>
            <Position>
              <LatitudeDegrees>40.45248602516949176788330078125</LatitudeDegrees>
              <LongitudeDegrees>-4.00421057827770709991455078125</LongitudeDegrees>
            </Position>
            <AltitudeMeters>656</AltitudeMeters>
            <DistanceMeters>690.13576109667</DistanceMeters>
          </Trackpoint>
          <Trackpoint>
            <Time>2019-08-01T10:03:55.000Z</Time>
            <Position>
              <LatitudeDegrees>40.45253983698785305023193359375</LatitudeDegrees>
              <LongitudeDegrees>-4.00423907674849033355712890625</LongitudeDegrees>
            </Position>
            <AltitudeMeters>656</AltitudeMeters>
            <DistanceMeters>696.59198544727</DistanceMeters>
          </Trackpoint>
          <Trackpoint>
            <Time>2019-08-01T10:03:56.000Z</Time>
            <Position>
              <LatitudeDegrees>40.45259348116815090179443359375</LatitudeDegrees>
              <LongitudeDegrees>-4.00426707230508327484130859375</LongitudeDegrees>
            </Position>
            <AltitudeMeters>656</AltitudeMeters>
            <DistanceMeters>703.01596002295</DistanceMeters>
          </Trackpoint>
          <Trackpoint>
            <Time>2019-08-01T10:03:57.000Z</Time>
            <Position>
              <LatitudeDegrees>40.4526480473577976226806640625</LatitudeDegrees>
              <LongitudeDegrees>-4.004293642938137054443359375</LongitudeDegrees>
            </Position>
            <AltitudeMeters>656</AltitudeMeters>
            <DistanceMeters>709.49313032784</DistanceMeters>
          </Trackpoint>
          <Trackpoint>
            <Time>2019-08-01T10:03:58.000Z</Time>
            <Position>
              <LatitudeDegrees>40.4527026973664760589599609375</LatitudeDegrees>
              <LongitudeDegrees>-4.00431367568671703338623046875</LongitudeDegrees>
            </Position>
            <AltitudeMeters>656</AltitudeMeters>
            <DistanceMeters>715.80793971344</DistanceMeters>
          </Trackpoint>
          <Trackpoint>
            <Time>2019-08-01T10:03:59.000Z</Time>
            <Position>
              <LatitudeDegrees>40.4527623765170574188232421875</LatitudeDegrees>
              <LongitudeDegrees>-4.0043296851217746734619140625</LongitudeDegrees>
            </Position>
            <AltitudeMeters>656</AltitudeMeters>
            <DistanceMeters>722.58688203679</DistanceMeters>
          </Trackpoint>
          <Trackpoint>
            <Time>2019-08-01T10:04:00.000Z</Time>
            <Position>
              <LatitudeDegrees>40.452825911343097686767578125</LatitudeDegrees>
              <LongitudeDegrees>-4.004345275461673736572265625</LongitudeDegrees>
            </Position>
            <AltitudeMeters>656</AltitudeMeters>
            <DistanceMeters>729.78009675789</DistanceMeters>
          </Trackpoint>
          <Trackpoint>
            <Time>2019-08-01T10:04:01.000Z</Time>
            <Position>
              <LatitudeDegrees>40.45289204455912113189697265625</LatitudeDegrees>
              <LongitudeDegrees>-4.00436245836317539215087890625</LongitudeDegrees>
            </Position>
            <AltitudeMeters>656</AltitudeMeters>
            <DistanceMeters>737.28419941607</DistanceMeters>
          </Trackpoint>
          <Trackpoint>
            <Time>2019-08-01T10:04:02.000Z</Time>
            <Position>
              <LatitudeDegrees>40.4529554955661296844482421875</LatitudeDegrees>
              <LongitudeDegrees>-4.0043704211711883544921875</LongitudeDegrees>
            </Position>
            <AltitudeMeters>656</AltitudeMeters>
            <DistanceMeters>744.37882034313</DistanceMeters>
          </Trackpoint>
          <Trackpoint>
            <Time>2019-08-01T10:04:03.000Z</Time>
            <Position>
              <LatitudeDegrees>40.45301592908799648284912109375</LatitudeDegrees>
              <LongitudeDegrees>-4.00437436066567897796630859375</LongitudeDegrees>
            </Position>
            <AltitudeMeters>656</AltitudeMeters>
            <DistanceMeters>751.11299021785</DistanceMeters>
          </Trackpoint>
          <Trackpoint>
            <Time>2019-08-01T10:04:04.000Z</Time>
            <Position>
              <LatitudeDegrees>40.4530825652182102203369140625</LatitudeDegrees>
              <LongitudeDegrees>-4.00438039563596248626708984375</LongitudeDegrees>
            </Position>
            <AltitudeMeters>655.79998779296875</AltitudeMeters>
            <DistanceMeters>758.5469708364</DistanceMeters>
          </Trackpoint>
          <Trackpoint>
            <Time>2019-08-01T10:04:05.000Z</Time>
            <Position>
              <LatitudeDegrees>40.4531492851674556732177734375</LatitudeDegrees>
              <LongitudeDegrees>-4.00437972508370876312255859375</LongitudeDegrees>
            </Position>
            <AltitudeMeters>655.79998779296875</AltitudeMeters>
            <DistanceMeters>765.9736596625</DistanceMeters>
          </Trackpoint>
          <Trackpoint>
            <Time>2019-08-01T10:04:06.000Z</Time>
            <Position>
              <LatitudeDegrees>40.45321474783122539520263671875</LatitudeDegrees>
              <LongitudeDegrees>-4.00437519885599613189697265625</LongitudeDegrees>
            </Position>
            <AltitudeMeters>655.5999755859375</AltitudeMeters>
            <DistanceMeters>773.26970658101</DistanceMeters>
          </Trackpoint>
          <Trackpoint>
            <Time>2019-08-01T10:04:07.000Z</Time>
            <Position>
              <LatitudeDegrees>40.453285239636898040771484375</LatitudeDegrees>
              <LongitudeDegrees>-4.004363715648651123046875</LongitudeDegrees>
            </Position>
            <AltitudeMeters>655.4000244140625</AltitudeMeters>
            <DistanceMeters>781.17579215764</DistanceMeters>
          </Trackpoint>
          <Trackpoint>
            <Time>2019-08-01T10:04:08.000Z</Time>
            <Position>
              <LatitudeDegrees>40.453354306519031524658203125</LatitudeDegrees>
              <LongitudeDegrees>-4.00434502400457859039306640625</LongitudeDegrees>
            </Position>
            <AltitudeMeters>655.4000244140625</AltitudeMeters>
            <DistanceMeters>789.02341099062</DistanceMeters>
          </Trackpoint>
          <Trackpoint>
            <Time>2019-08-01T10:04:09.000Z</Time>
            <Position>
              <LatitudeDegrees>40.4534237086772918701171875</LatitudeDegrees>
              <LongitudeDegrees>-4.00432792492210865020751953125</LongitudeDegrees>
            </Position>
            <AltitudeMeters>655.20001220703125</AltitudeMeters>
            <DistanceMeters>796.88252817238</DistanceMeters>
          </Trackpoint>
          <Trackpoint>
            <Time>2019-08-01T10:04:10.000Z</Time>
            <Position>
              <LatitudeDegrees>40.45349679887294769287109375</LatitudeDegrees>
              <LongitudeDegrees>-4.00431233458220958709716796875</LongitudeDegrees>
            </Position>
            <AltitudeMeters>655</AltitudeMeters>
            <DistanceMeters>805.12414421606</DistanceMeters>
          </Trackpoint>
          <Trackpoint>
            <Time>2019-08-01T10:04:11.000Z</Time>
            <Position>
              <LatitudeDegrees>40.4535690508782863616943359375</LatitudeDegrees>
              <LongitudeDegrees>-4.00429339148104190826416015625</LongitudeDegrees>
            </Position>
            <AltitudeMeters>654.79998779296875</AltitudeMeters>
            <DistanceMeters>813.32512033812</DistanceMeters>
          </Trackpoint>
          <Trackpoint>
            <Time>2019-08-01T10:04:12.000Z</Time>
            <Position>
              <LatitudeDegrees>40.4536387883126735687255859375</LatitudeDegrees>
              <LongitudeDegrees>-4.004284925758838653564453125</LongitudeDegrees>
            </Position>
            <AltitudeMeters>654.79998779296875</AltitudeMeters>
            <DistanceMeters>821.12078672836</DistanceMeters>
          </Trackpoint>
          <Trackpoint>
            <Time>2019-08-01T10:04:13.000Z</Time>
            <Position>
              <LatitudeDegrees>40.4537112079560756683349609375</LatitudeDegrees>
              <LongitudeDegrees>-4.004274196922779083251953125</LongitudeDegrees>
            </Position>
            <AltitudeMeters>654.5999755859375</AltitudeMeters>
            <DistanceMeters>829.23208360189</DistanceMeters>
          </Trackpoint>
          <Trackpoint>
            <Time>2019-08-01T10:04:14.000Z</Time>
            <Position>
              <LatitudeDegrees>40.453782118856906890869140625</LatitudeDegrees>
              <LongitudeDegrees>-4.0042663179337978363037109375</LongitudeDegrees>
            </Position>
            <AltitudeMeters>654.4000244140625</AltitudeMeters>
            <DistanceMeters>837.15243340832</DistanceMeters>
          </Trackpoint>
          <Trackpoint>
            <Time>2019-08-01T10:04:15.000Z</Time>
            <Position>
              <LatitudeDegrees>40.453857220709323883056640625</LatitudeDegrees>
              <LongitudeDegrees>-4.0042673237621784210205078125</LongitudeDegrees>
            </Position>
            <AltitudeMeters>654.20001220703125</AltitudeMeters>
            <DistanceMeters>845.51154409806</DistanceMeters>
          </Trackpoint>
          <Trackpoint>
            <Time>2019-08-01T10:04:16.000Z</Time>
            <Position>
              <LatitudeDegrees>40.4539405368268489837646484375</LatitudeDegrees>
              <LongitudeDegrees>-4.004282243549823760986328125</LongitudeDegrees>
            </Position>
            <AltitudeMeters>654</AltitudeMeters>
            <DistanceMeters>854.87059007008</DistanceMeters>
          </Trackpoint>
          <Trackpoint>
            <Time>2019-08-01T10:04:17.000Z</Time>
            <Position>
              <LatitudeDegrees>40.45402192510664463043212890625</LatitudeDegrees>
              <LongitudeDegrees>-4.00430864654481410980224609375</LongitudeDegrees>
            </Position>
            <AltitudeMeters>653.5999755859375</AltitudeMeters>
            <DistanceMeters>864.20161343693</DistanceMeters>
          </Trackpoint>
          <Trackpoint>
            <Time>2019-08-01T10:04:18.000Z</Time>
            <Position>
              <LatitudeDegrees>40.45409618876874446868896484375</LatitudeDegrees>
              <LongitudeDegrees>-4.0043451078236103057861328125</LongitudeDegrees>
            </Position>
            <AltitudeMeters>653.4000244140625</AltitudeMeters>
            <DistanceMeters>873.02529289052</DistanceMeters>
          </Trackpoint>
          <Trackpoint>
            <Time>2019-08-01T10:04:19.000Z</Time>
            <Position>
              <LatitudeDegrees>40.454163663089275360107421875</LatitudeDegrees>
              <LongitudeDegrees>-4.0043796412646770477294921875</LongitudeDegrees>
            </Position>
            <AltitudeMeters>653.20001220703125</AltitudeMeters>
            <DistanceMeters>881.08409613821</DistanceMeters>
          </Trackpoint>
          <Trackpoint>
            <Time>2019-08-01T10:04:20.000Z</Time>
            <Position>
              <LatitudeDegrees>40.45423666946589946746826171875</LatitudeDegrees>
              <LongitudeDegrees>-4.00441995821893215179443359375</LongitudeDegrees>
            </Position>
            <AltitudeMeters>652.5999755859375</AltitudeMeters>
            <DistanceMeters>889.89753573753</DistanceMeters>
          </Trackpoint>
          <Trackpoint>
            <Time>2019-08-01T10:04:21.000Z</Time>
            <Position>
              <LatitudeDegrees>40.45431663282215595245361328125</LatitudeDegrees>
              <LongitudeDegrees>-4.0044594369828701019287109375</LongitudeDegrees>
            </Position>
            <AltitudeMeters>652.4000244140625</AltitudeMeters>
            <DistanceMeters>899.40448241496</DistanceMeters>
          </Trackpoint>
          <Trackpoint>
            <Time>2019-08-01T10:04:22.000Z</Time>
            <Position>
              <LatitudeDegrees>40.45439667999744415283203125</LatitudeDegrees>
              <LongitudeDegrees>-4.00449522770941257476806640625</LongitudeDegrees>
            </Position>
            <AltitudeMeters>652.4000244140625</AltitudeMeters>
            <DistanceMeters>908.81452649613</DistanceMeters>
          </Trackpoint>
          <Trackpoint>
            <Time>2019-08-01T10:04:23.000Z</Time>
            <Position>
              <LatitudeDegrees>40.4544818401336669921875</LatitudeDegrees>
              <LongitudeDegrees>-4.0045342035591602325439453125</LongitudeDegrees>
            </Position>
            <AltitudeMeters>652</AltitudeMeters>
            <DistanceMeters>918.85143502459</DistanceMeters>
          </Trackpoint>
          <Trackpoint>
            <Time>2019-08-01T10:04:24.000Z</Time>
            <Position>
              <LatitudeDegrees>40.45456306077539920806884765625</LatitudeDegrees>
              <LongitudeDegrees>-4.00456815026700496673583984375</LongitudeDegrees>
            </Position>
            <AltitudeMeters>651.79998779296875</AltitudeMeters>
            <DistanceMeters>928.33793816539</DistanceMeters>
          </Trackpoint>
          <Trackpoint>
            <Time>2019-08-01T10:04:25.000Z</Time>
            <Position>
              <LatitudeDegrees>40.4546419344842433929443359375</LatitudeDegrees>
              <LongitudeDegrees>-4.00460100732743740081787109375</LongitudeDegrees>
            </Position>
            <AltitudeMeters>651.5999755859375</AltitudeMeters>
            <DistanceMeters>937.54719861136</DistanceMeters>
          </Trackpoint>
          <Trackpoint>
            <Time>2019-08-01T10:04:26.000Z</Time>
            <Position>
              <LatitudeDegrees>40.45470924116671085357666015625</LatitudeDegrees>
              <LongitudeDegrees>-4.0046404860913753509521484375</LongitudeDegrees>
            </Position>
            <AltitudeMeters>651.5999755859375</AltitudeMeters>
            <DistanceMeters>945.75092701598</DistanceMeters>
          </Trackpoint>
          <Trackpoint>
            <Time>2019-08-01T10:04:27.000Z</Time>
            <Position>
              <LatitudeDegrees>40.45477143488824367523193359375</LatitudeDegrees>
              <LongitudeDegrees>-4.00468046776950359344482421875</LongitudeDegrees>
            </Position>
            <AltitudeMeters>651.4000244140625</AltitudeMeters>
            <DistanceMeters>953.45688462652</DistanceMeters>
          </Trackpoint>
          <Trackpoint>
            <Time>2019-08-01T10:04:28.000Z</Time>
            <Position>
              <LatitudeDegrees>40.4548246599733829498291015625</LatitudeDegrees>
              <LongitudeDegrees>-4.00471181608736515045166015625</LongitudeDegrees>
            </Position>
            <AltitudeMeters>651.4000244140625</AltitudeMeters>
            <DistanceMeters>959.94798135107</DistanceMeters>
          </Trackpoint>
          <Trackpoint>
            <Time>2019-08-01T10:04:29.000Z</Time>
            <Position>
              <LatitudeDegrees>40.4548806510865688323974609375</LatitudeDegrees>
              <LongitudeDegrees>-4.0047333575785160064697265625</LongitudeDegrees>
            </Position>
            <AltitudeMeters>651.4000244140625</AltitudeMeters>
            <DistanceMeters>966.44185977566</DistanceMeters>
          </Trackpoint>
          <Trackpoint>
            <Time>2019-08-01T10:04:30.000Z</Time>
            <Position>
              <LatitudeDegrees>40.45491560362279415130615234375</LatitudeDegrees>
              <LongitudeDegrees>-4.00474249385297298431396484375</LongitudeDegrees>
            </Position>
            <AltitudeMeters>651.4000244140625</AltitudeMeters>
            <DistanceMeters>970.40801574402</DistanceMeters>
          </Trackpoint>
          <Trackpoint>
            <Time>2019-08-01T10:04:31.000Z</Time>
            <Position>
              <LatitudeDegrees>40.4549498856067657470703125</LatitudeDegrees>
              <LongitudeDegrees>-4.00475288741290569305419921875</LongitudeDegrees>
            </Position>
            <AltitudeMeters>651.4000244140625</AltitudeMeters>
            <DistanceMeters>974.32376213543</DistanceMeters>
          </Trackpoint>
          <Trackpoint>
            <Time>2019-08-01T10:04:32.000Z</Time>
            <Position>
              <LatitudeDegrees>40.45497897081077098846435546875</LatitudeDegrees>
              <LongitudeDegrees>-4.00477300398051738739013671875</LongitudeDegrees>
            </Position>
            <AltitudeMeters>651.4000244140625</AltitudeMeters>
            <DistanceMeters>977.98198209737</DistanceMeters>
          </Trackpoint>
          <Trackpoint>
            <Time>2019-08-01T10:04:33.000Z</Time>
            <Position>
              <LatitudeDegrees>40.45500227250158786773681640625</LatitudeDegrees>
              <LongitudeDegrees>-4.00481524877250194549560546875</LongitudeDegrees>
            </Position>
            <AltitudeMeters>651.4000244140625</AltitudeMeters>
            <DistanceMeters>982.40046886003</DistanceMeters>
          </Trackpoint>
          <Trackpoint>
            <Time>2019-08-01T10:04:34.000Z</Time>
            <Position>
              <LatitudeDegrees>40.4550104029476642608642578125</LatitudeDegrees>
              <LongitudeDegrees>-4.0048706531524658203125</LongitudeDegrees>
            </Position>
            <AltitudeMeters>651.4000244140625</AltitudeMeters>
            <DistanceMeters>987.18022757813</DistanceMeters>
          </Trackpoint>
          <Trackpoint>
            <Time>2019-08-01T10:04:35.000Z</Time>
            <Position>
              <LatitudeDegrees>40.4550114087760448455810546875</LatitudeDegrees>
              <LongitudeDegrees>-4.00493695400655269622802734375</LongitudeDegrees>
            </Position>
            <AltitudeMeters>651.4000244140625</AltitudeMeters>
            <DistanceMeters>992.79565516134</DistanceMeters>
          </Trackpoint>
          <Trackpoint>
            <Time>2019-08-01T10:04:36.000Z</Time>
            <Position>
              <LatitudeDegrees>40.4550070501863956451416015625</LatitudeDegrees>
              <LongitudeDegrees>-4.00501079857349395751953125</LongitudeDegrees>
            </Position>
            <AltitudeMeters>651.4000244140625</AltitudeMeters>
            <DistanceMeters>999.0681381678</DistanceMeters>
          </Trackpoint>
          <Trackpoint>
            <Time>2019-08-01T10:04:37.000Z</Time>
            <Position>
              <LatitudeDegrees>40.4549954831600189208984375</LatitudeDegrees>
              <LongitudeDegrees>-4.0050852298736572265625</LongitudeDegrees>
            </Position>
            <AltitudeMeters>651.4000244140625</AltitudeMeters>
            <DistanceMeters>1005.5019450051</DistanceMeters>
          </Trackpoint>
          <Trackpoint>
            <Time>2019-08-01T10:04:38.000Z</Time>
            <Position>
              <LatitudeDegrees>40.4549829103052616119384765625</LatitudeDegrees>
              <LongitudeDegrees>-4.00515924207866191864013671875</LongitudeDegrees>
            </Position>
            <AltitudeMeters>651.5999755859375</AltitudeMeters>
            <DistanceMeters>1011.9245137432</DistanceMeters>
          </Trackpoint>
          <Trackpoint>
            <Time>2019-08-01T10:04:39.000Z</Time>
            <Position>
              <LatitudeDegrees>40.45496874488890171051025390625</LatitudeDegrees>
              <LongitudeDegrees>-4.0052322484552860260009765625</LongitudeDegrees>
            </Position>
            <AltitudeMeters>651.79998779296875</AltitudeMeters>
            <DistanceMeters>1018.3054709352</DistanceMeters>
          </Trackpoint>
          <Trackpoint>
            <Time>2019-08-01T10:04:40.000Z</Time>
            <Position>
              <LatitudeDegrees>40.4549540765583515167236328125</LatitudeDegrees>
              <LongitudeDegrees>-4.00530584156513214111328125</LongitudeDegrees>
            </Position>
            <AltitudeMeters>652</AltitudeMeters>
            <DistanceMeters>1024.7490950311</DistanceMeters>
          </Trackpoint>
          <Trackpoint>
            <Time>2019-08-01T10:04:41.000Z</Time>
            <Position>
              <LatitudeDegrees>40.4549376480281352996826171875</LatitudeDegrees>
              <LongitudeDegrees>-4.00537918321788311004638671875</LongitudeDegrees>
            </Position>
            <AltitudeMeters>652.20001220703125</AltitudeMeters>
            <DistanceMeters>1031.2234764573</DistanceMeters>
          </Trackpoint>
          <Trackpoint>
            <Time>2019-08-01T10:04:42.000Z</Time>
            <Position>
              <LatitudeDegrees>40.45492012985050678253173828125</LatitudeDegrees>
              <LongitudeDegrees>-4.00545411743223667144775390625</LongitudeDegrees>
            </Position>
            <AltitudeMeters>652.20001220703125</AltitudeMeters>
            <DistanceMeters>1037.8617573377</DistanceMeters>
          </Trackpoint>
          <Trackpoint>
            <Time>2019-08-01T10:04:43.000Z</Time>
            <Position>
              <LatitudeDegrees>40.454901941120624542236328125</LatitudeDegrees>
              <LongitudeDegrees>-4.00552854873239994049072265625</LongitudeDegrees>
            </Position>
            <AltitudeMeters>652.4000244140625</AltitudeMeters>
            <DistanceMeters>1044.4823306557</DistanceMeters>
          </Trackpoint>
          <Trackpoint>
            <Time>2019-08-01T10:04:44.000Z</Time>
            <Position>
              <LatitudeDegrees>40.4548836685717105865478515625</LatitudeDegrees>
              <LongitudeDegrees>-4.00560356676578521728515625</LongitudeDegrees>
            </Position>
            <AltitudeMeters>652.4000244140625</AltitudeMeters>
            <DistanceMeters>1051.1531789313</DistanceMeters>
          </Trackpoint>
          <Trackpoint>
            <Time>2019-08-01T10:04:45.000Z</Time>
            <Position>
              <LatitudeDegrees>40.4548648931086063385009765625</LatitudeDegrees>
              <LongitudeDegrees>-4.00567824952304363250732421875</LongitudeDegrees>
            </Position>
            <AltitudeMeters>652.4000244140625</AltitudeMeters>
            <DistanceMeters>1057.8145448307</DistanceMeters>
          </Trackpoint>
          <Trackpoint>
            <Time>2019-08-01T10:04:46.000Z</Time>
            <Position>
              <LatitudeDegrees>40.45484553091228008270263671875</LatitudeDegrees>
              <LongitudeDegrees>-4.00575335137546062469482421875</LongitudeDegrees>
            </Position>
            <AltitudeMeters>652.4000244140625</AltitudeMeters>
            <DistanceMeters>1064.5299153909</DistanceMeters>
          </Trackpoint>
          <Trackpoint>
            <Time>2019-08-01T10:04:47.000Z</Time>
            <Position>
              <LatitudeDegrees>40.454826168715953826904296875</LatitudeDegrees>
              <LongitudeDegrees>-4.0058290399610996246337890625</LongitudeDegrees>
            </Position>
            <AltitudeMeters>652.5999755859375</AltitudeMeters>
            <DistanceMeters>1071.2928538934</DistanceMeters>
          </Trackpoint>
          <Trackpoint>
            <Time>2019-08-01T10:04:48.000Z</Time>
            <Position>
              <LatitudeDegrees>40.4548065550625324249267578125</LatitudeDegrees>
              <LongitudeDegrees>-4.0059044770896434783935546875</LongitudeDegrees>
            </Position>
            <AltitudeMeters>652.4000244140625</AltitudeMeters>
            <DistanceMeters>1078.0444334041</DistanceMeters>
          </Trackpoint>
          <Trackpoint>
            <Time>2019-08-01T10:04:49.000Z</Time>
            <Position>
              <LatitudeDegrees>40.45478501357138156890869140625</LatitudeDegrees>
              <LongitudeDegrees>-4.00598150677978992462158203125</LongitudeDegrees>
            </Position>
            <AltitudeMeters>652.4000244140625</AltitudeMeters>
            <DistanceMeters>1084.99503834</DistanceMeters>
          </Trackpoint>
          <Trackpoint>
            <Time>2019-08-01T10:04:50.000Z</Time>
            <Position>
              <LatitudeDegrees>40.45476322062313556671142578125</LatitudeDegrees>
              <LongitudeDegrees>-4.0060590393841266632080078125</LongitudeDegrees>
            </Position>
            <AltitudeMeters>652.4000244140625</AltitudeMeters>
            <DistanceMeters>1091.9954829588</DistanceMeters>
          </Trackpoint>
          <Trackpoint>
            <Time>2019-08-01T10:04:51.000Z</Time>
            <Position>
              <LatitudeDegrees>40.45474176295101642608642578125</LatitudeDegrees>
              <LongitudeDegrees>-4.00613640435039997100830078125</LongitudeDegrees>
            </Position>
            <AltitudeMeters>652.5999755859375</AltitudeMeters>
            <DistanceMeters>1098.9694338998</DistanceMeters>
          </Trackpoint>
          <Trackpoint>
            <Time>2019-08-01T10:04:52.000Z</Time>
            <Position>
              <LatitudeDegrees>40.45472013764083385467529296875</LatitudeDegrees>
              <LongitudeDegrees>-4.006214775145053863525390625</LongitudeDegrees>
            </Position>
            <AltitudeMeters>652.5999755859375</AltitudeMeters>
            <DistanceMeters>1106.0302449047</DistanceMeters>
          </Trackpoint>
          <Trackpoint>
            <Time>2019-08-01T10:04:53.000Z</Time>
            <Position>
              <LatitudeDegrees>40.454699099063873291015625</LatitudeDegrees>
              <LongitudeDegrees>-4.0062935650348663330078125</LongitudeDegrees>
            </Position>
            <AltitudeMeters>652.5999755859375</AltitudeMeters>
            <DistanceMeters>1113.10255665</DistanceMeters>
          </Trackpoint>
          <Trackpoint>
            <Time>2019-08-01T10:04:54.000Z</Time>
            <Position>
              <LatitudeDegrees>40.45467772521078586578369140625</LatitudeDegrees>
              <LongitudeDegrees>-4.0063728578388690948486328125</LongitudeDegrees>
            </Position>
            <AltitudeMeters>652.5999755859375</AltitudeMeters>
            <DistanceMeters>1120.2263919664</DistanceMeters>
          </Trackpoint>
          <Trackpoint>
            <Time>2019-08-01T10:04:55.000Z</Time>
            <Position>
              <LatitudeDegrees>40.45465609990060329437255859375</LatitudeDegrees>
              <LongitudeDegrees>-4.006450809538364410400390625</LongitudeDegrees>
            </Position>
            <AltitudeMeters>652.5999755859375</AltitudeMeters>
            <DistanceMeters>1127.2532303732</DistanceMeters>
          </Trackpoint>
          <Trackpoint>
            <Time>2019-08-01T10:04:56.000Z</Time>
            <Position>
              <LatitudeDegrees>40.4546342231333255767822265625</LatitudeDegrees>
              <LongitudeDegrees>-4.0065307728946208953857421875</LongitudeDegrees>
            </Position>
            <AltitudeMeters>652.79998779296875</AltitudeMeters>
            <DistanceMeters>1134.45021019</DistanceMeters>
          </Trackpoint>
          <Trackpoint>
            <Time>2019-08-01T10:04:57.000Z</Time>
            <Position>
              <LatitudeDegrees>40.4546131007373332977294921875</LatitudeDegrees>
              <LongitudeDegrees>-4.00661048479378223419189453125</LongitudeDegrees>
            </Position>
            <AltitudeMeters>652.79998779296875</AltitudeMeters>
            <DistanceMeters>1141.5987207059</DistanceMeters>
          </Trackpoint>
          <Trackpoint>
            <Time>2019-08-01T10:04:58.000Z</Time>
            <Position>
              <LatitudeDegrees>40.4545909725129604339599609375</LatitudeDegrees>
              <LongitudeDegrees>-4.00669061578810214996337890625</LongitudeDegrees>
            </Position>
            <AltitudeMeters>652.79998779296875</AltitudeMeters>
            <DistanceMeters>1148.8182498619</DistanceMeters>
          </Trackpoint>
          <Trackpoint>
            <Time>2019-08-01T10:04:59.000Z</Time>
            <Position>
              <LatitudeDegrees>40.45456926338374614715576171875</LatitudeDegrees>
              <LongitudeDegrees>-4.00676990859210491180419921875</LongitudeDegrees>
            </Position>
            <AltitudeMeters>652.79998779296875</AltitudeMeters>
            <DistanceMeters>1155.9547497844</DistanceMeters>
          </Trackpoint>
          <Trackpoint>
            <Time>2019-08-01T10:05:00.000Z</Time>
            <Position>
              <LatitudeDegrees>40.45454679988324642181396484375</LatitudeDegrees>
              <LongitudeDegrees>-4.00684920139610767364501953125</LongitudeDegrees>
            </Position>
            <AltitudeMeters>652.79998779296875</AltitudeMeters>
            <DistanceMeters>1163.1196632231</DistanceMeters>
          </Trackpoint>
          <Trackpoint>
            <Time>2019-08-01T10:05:01.000Z</Time>
            <Position>
              <LatitudeDegrees>40.45452433638274669647216796875</LatitudeDegrees>
              <LongitudeDegrees>-4.0069280751049518585205078125</LongitudeDegrees>
            </Position>
            <AltitudeMeters>653</AltitudeMeters>
            <DistanceMeters>1170.2523661249</DistanceMeters>
          </Trackpoint>
          <Trackpoint>
            <Time>2019-08-01T10:05:02.000Z</Time>
            <Position>
              <LatitudeDegrees>40.45450354926288127899169921875</LatitudeDegrees>
              <LongitudeDegrees>-4.00700661353766918182373046875</LongitudeDegrees>
            </Position>
            <AltitudeMeters>653</AltitudeMeters>
            <DistanceMeters>1177.2952497606</DistanceMeters>
          </Trackpoint>
          <Trackpoint>
            <Time>2019-08-01T10:05:03.000Z</Time>
            <Position>
              <LatitudeDegrees>40.45448410324752330780029296875</LatitudeDegrees>
              <LongitudeDegrees>-4.00708339177072048187255859375</LongitudeDegrees>
            </Position>
            <AltitudeMeters>653</AltitudeMeters>
            <DistanceMeters>1184.1490412414</DistanceMeters>
          </Trackpoint>
          <Trackpoint>
            <Time>2019-08-01T10:05:04.000Z</Time>
            <Position>
              <LatitudeDegrees>40.45444118790328502655029296875</LatitudeDegrees>
              <LongitudeDegrees>-4.00724231265485286712646484375</LongitudeDegrees>
            </Position>
            <AltitudeMeters>653</AltitudeMeters>
            <DistanceMeters>1198.4305795563</DistanceMeters>
          </Trackpoint>
          <Trackpoint>
            <Time>2019-08-01T10:05:05.000Z</Time>
            <Position>
              <LatitudeDegrees>40.45444118790328502655029296875</LatitudeDegrees>
              <LongitudeDegrees>-4.00724231265485286712646484375</LongitudeDegrees>
            </Position>
            <AltitudeMeters>653</AltitudeMeters>
            <DistanceMeters>NAN</DistanceMeters>
          </Trackpoint>
          <Trackpoint>
            <Time>2019-08-01T10:05:06.000Z</Time>
            <Position>
              <LatitudeDegrees>40.454419814050197601318359375</LatitudeDegrees>
              <LongitudeDegrees>-4.00731992907822132110595703125</LongitudeDegrees>
            </Position>
            <AltitudeMeters>653.20001220703125</AltitudeMeters>
            <DistanceMeters>NAN</DistanceMeters>
          </Trackpoint>
          <Trackpoint>
            <Time>2019-08-01T10:05:07.000Z</Time>
            <Position>
              <LatitudeDegrees>40.45439860783517360687255859375</LatitudeDegrees>
              <LongitudeDegrees>-4.007396958768367767333984375</LongitudeDegrees>
            </Position>
            <AltitudeMeters>653.20001220703125</AltitudeMeters>
            <DistanceMeters>NAN</DistanceMeters>
          </Trackpoint>
          <Trackpoint>
            <Time>2019-08-01T10:05:08.000Z</Time>
            <Position>
              <LatitudeDegrees>40.45437782071530818939208984375</LatitudeDegrees>
              <LongitudeDegrees>-4.00747298263013362884521484375</LongitudeDegrees>
            </Position>
            <AltitudeMeters>653.20001220703125</AltitudeMeters>
            <DistanceMeters>NAN</DistanceMeters>
          </Trackpoint>
          <Trackpoint>
            <Time>2019-08-01T10:05:09.000Z</Time>
            <Position>
              <LatitudeDegrees>40.45435569249093532562255859375</LatitudeDegrees>
              <LongitudeDegrees>-4.0075490064918994903564453125</LongitudeDegrees>
            </Position>
            <AltitudeMeters>653.4000244140625</AltitudeMeters>
            <DistanceMeters>NAN</DistanceMeters>
          </Trackpoint>
          <Trackpoint>
            <Time>2019-08-01T10:05:10.000Z</Time>
            <Position>
              <LatitudeDegrees>40.45433306135237216949462890625</LatitudeDegrees>
              <LongitudeDegrees>-4.007625281810760498046875</LongitudeDegrees>
            </Position>
            <AltitudeMeters>653.5999755859375</AltitudeMeters>
            <DistanceMeters>NAN</DistanceMeters>
          </Trackpoint>
          <Trackpoint>
            <Time>2019-08-01T10:05:11.000Z</Time>
            <Position>
              <LatitudeDegrees>40.454310514032840728759765625</LatitudeDegrees>
              <LongitudeDegrees>-4.00770214386284351348876953125</LongitudeDegrees>
            </Position>
            <AltitudeMeters>653.79998779296875</AltitudeMeters>
            <DistanceMeters>NAN</DistanceMeters>
          </Trackpoint>
          <Trackpoint>
            <Time>2019-08-01T10:05:12.000Z</Time>
            <Position>
              <LatitudeDegrees>40.45428830198943614959716796875</LatitudeDegrees>
              <LongitudeDegrees>-4.0077806822955608367919921875</LongitudeDegrees>
            </Position>
            <AltitudeMeters>654</AltitudeMeters>
            <DistanceMeters>NAN</DistanceMeters>
          </Trackpoint>
          <Trackpoint>
            <Time>2019-08-01T10:05:13.000Z</Time>
            <Position>
              <LatitudeDegrees>40.45427237637341022491455078125</LatitudeDegrees>
              <LongitudeDegrees>-4.0078618191182613372802734375</LongitudeDegrees>
            </Position>
            <AltitudeMeters>654</AltitudeMeters>
            <DistanceMeters>NAN</DistanceMeters>
          </Trackpoint>
          <Trackpoint>
            <Time>2019-08-01T10:05:14.000Z</Time>
            <Position>
              <LatitudeDegrees>40.45427086763083934783935546875</LatitudeDegrees>
              <LongitudeDegrees>-4.00794303975999355316162109375</LongitudeDegrees>
            </Position>
            <AltitudeMeters>654.4000244140625</AltitudeMeters>
            <DistanceMeters>NAN</DistanceMeters>
          </Trackpoint>
          <Trackpoint>
            <Time>2019-08-01T10:05:15.000Z</Time>
            <Position>
              <LatitudeDegrees>40.4542909003794193267822265625</LatitudeDegrees>
              <LongitudeDegrees>-4.00801814161241054534912109375</LongitudeDegrees>
            </Position>
            <AltitudeMeters>654.5999755859375</AltitudeMeters>
            <DistanceMeters>NAN</DistanceMeters>
          </Trackpoint>
          <Trackpoint>
            <Time>2019-08-01T10:05:16.000Z</Time>
            <Position>
              <LatitudeDegrees>40.45432694256305694580078125</LatitudeDegrees>
              <LongitudeDegrees>-4.00808620266616344451904296875</LongitudeDegrees>
            </Position>
            <AltitudeMeters>654.5999755859375</AltitudeMeters>
            <DistanceMeters>NAN</DistanceMeters>
          </Trackpoint>
          <Trackpoint>
            <Time>2019-08-01T10:05:17.000Z</Time>
            <Position>
              <LatitudeDegrees>40.45437010936439037322998046875</LatitudeDegrees>
              <LongitudeDegrees>-4.00815007276833057403564453125</LongitudeDegrees>
            </Position>
            <AltitudeMeters>654.79998779296875</AltitudeMeters>
            <DistanceMeters>NAN</DistanceMeters>
          </Trackpoint>
          <Trackpoint>
            <Time>2019-08-01T10:05:18.000Z</Time>
            <Position>
              <LatitudeDegrees>40.454419814050197601318359375</LatitudeDegrees>
              <LongitudeDegrees>-4.00820807553827762603759765625</LongitudeDegrees>
            </Position>
            <AltitudeMeters>654.79998779296875</AltitudeMeters>
            <DistanceMeters>NAN</DistanceMeters>
          </Trackpoint>
          <Trackpoint>
            <Time>2019-08-01T10:05:19.000Z</Time>
            <Position>
              <LatitudeDegrees>40.4544769786298274993896484375</LatitudeDegrees>
              <LongitudeDegrees>-4.00825568474829196929931640625</LongitudeDegrees>
            </Position>
            <AltitudeMeters>655</AltitudeMeters>
            <DistanceMeters>NAN</DistanceMeters>
          </Trackpoint>
          <Trackpoint>
            <Time>2019-08-01T10:05:20.000Z</Time>
            <Position>
              <LatitudeDegrees>40.4545395076274871826171875</LatitudeDegrees>
              <LongitudeDegrees>-4.00829357095062732696533203125</LongitudeDegrees>
            </Position>
            <AltitudeMeters>655</AltitudeMeters>
            <DistanceMeters>NAN</DistanceMeters>
          </Trackpoint>
          <Trackpoint>
            <Time>2019-08-01T10:05:21.000Z</Time>
            <Position>
              <LatitudeDegrees>40.45460513792932033538818359375</LatitudeDegrees>
              <LongitudeDegrees>-4.008324332535266876220703125</LongitudeDegrees>
            </Position>
            <AltitudeMeters>655</AltitudeMeters>
            <DistanceMeters>NAN</DistanceMeters>
          </Trackpoint>
          <Trackpoint>
            <Time>2019-08-01T10:05:22.000Z</Time>
            <Position>
              <LatitudeDegrees>40.454671941697597503662109375</LatitudeDegrees>
              <LongitudeDegrees>-4.00835392065346240997314453125</LongitudeDegrees>
            </Position>
            <AltitudeMeters>655</AltitudeMeters>
            <DistanceMeters>NAN</DistanceMeters>
          </Trackpoint>
          <Trackpoint>
            <Time>2019-08-01T10:05:23.000Z</Time>
            <Position>
              <LatitudeDegrees>40.454739667475223541259765625</LatitudeDegrees>
              <LongitudeDegrees>-4.00838409550487995147705078125</LongitudeDegrees>
            </Position>
            <AltitudeMeters>655.20001220703125</AltitudeMeters>
            <DistanceMeters>NAN</DistanceMeters>
          </Trackpoint>
          <Trackpoint>
            <Time>2019-08-01T10:05:24.000Z</Time>
            <Position>
              <LatitudeDegrees>40.4548082314431667327880859375</LatitudeDegrees>
              <LongitudeDegrees>-4.0084151923656463623046875</LongitudeDegrees>
            </Position>
            <AltitudeMeters>655.20001220703125</AltitudeMeters>
            <DistanceMeters>NAN</DistanceMeters>
          </Trackpoint>
          <Trackpoint>
            <Time>2019-08-01T10:05:25.000Z</Time>
            <Position>
              <LatitudeDegrees>40.454877130687236785888671875</LatitudeDegrees>
              <LongitudeDegrees>-4.008447714149951934814453125</LongitudeDegrees>
            </Position>
            <AltitudeMeters>655.20001220703125</AltitudeMeters>
            <DistanceMeters>NAN</DistanceMeters>
          </Trackpoint>
          <Trackpoint>
            <Time>2019-08-01T10:05:26.000Z</Time>
            <Position>
              <LatitudeDegrees>40.45494678430259227752685546875</LatitudeDegrees>
              <LongitudeDegrees>-4.0084790624678134918212890625</LongitudeDegrees>
            </Position>
            <AltitudeMeters>655.20001220703125</AltitudeMeters>
            <DistanceMeters>NAN</DistanceMeters>
          </Trackpoint>
          <Trackpoint>
            <Time>2019-08-01T10:05:27.000Z</Time>
            <Position>
              <LatitudeDegrees>40.4550164379179477691650390625</LatitudeDegrees>
              <LongitudeDegrees>-4.00851032696664333343505859375</LongitudeDegrees>
            </Position>
            <AltitudeMeters>655.20001220703125</AltitudeMeters>
            <DistanceMeters>NAN</DistanceMeters>
          </Trackpoint>
          <Trackpoint>
            <Time>2019-08-01T10:05:28.000Z</Time>
            <Position>
              <LatitudeDegrees>40.4550866782665252685546875</LatitudeDegrees>
              <LongitudeDegrees>-4.00854301638901233673095703125</LongitudeDegrees>
            </Position>
            <AltitudeMeters>655.20001220703125</AltitudeMeters>
            <DistanceMeters>NAN</DistanceMeters>
          </Trackpoint>
          <Trackpoint>
            <Time>2019-08-01T10:05:29.000Z</Time>
            <Position>
              <LatitudeDegrees>40.4550866782665252685546875</LatitudeDegrees>
              <LongitudeDegrees>-4.00854301638901233673095703125</LongitudeDegrees>
            </Position>
            <AltitudeMeters>655.20001220703125</AltitudeMeters>
            <DistanceMeters>NAN</DistanceMeters>
          </Trackpoint>
          <Trackpoint>
            <Time>2019-08-01T10:05:30.000Z</Time>
            <Position>
              <LatitudeDegrees>40.45522623695433139801025390625</LatitudeDegrees>
              <LongitudeDegrees>-4.00861124508082866668701171875</LongitudeDegrees>
            </Position>
            <AltitudeMeters>655.20001220703125</AltitudeMeters>
            <DistanceMeters>NAN</DistanceMeters>
          </Trackpoint>
          <Trackpoint>
            <Time>2019-08-01T10:05:31.000Z</Time>
            <Position>
              <LatitudeDegrees>40.455298908054828643798828125</LatitudeDegrees>
              <LongitudeDegrees>-4.00864661671221256256103515625</LongitudeDegrees>
            </Position>
            <AltitudeMeters>655.4000244140625</AltitudeMeters>
            <DistanceMeters>NAN</DistanceMeters>
          </Trackpoint>
          <Trackpoint>
            <Time>2019-08-01T10:05:32.000Z</Time>
            <Position>
              <LatitudeDegrees>40.455369651317596435546875</LatitudeDegrees>
              <LongitudeDegrees>-4.00868232361972332000732421875</LongitudeDegrees>
            </Position>
            <AltitudeMeters>655.4000244140625</AltitudeMeters>
            <DistanceMeters>NAN</DistanceMeters>
          </Trackpoint>
          <Trackpoint>
            <Time>2019-08-01T10:05:33.000Z</Time>
            <Position>
              <LatitudeDegrees>40.455369651317596435546875</LatitudeDegrees>
              <LongitudeDegrees>-4.00868232361972332000732421875</LongitudeDegrees>
            </Position>
            <AltitudeMeters>655.4000244140625</AltitudeMeters>
            <DistanceMeters>NAN</DistanceMeters>
          </Trackpoint>
          <Trackpoint>
            <Time>2019-08-01T10:05:34.000Z</Time>
            <Position>
              <LatitudeDegrees>40.45551122166216373443603515625</LatitudeDegrees>
              <LongitudeDegrees>-4.0087529830634593963623046875</LongitudeDegrees>
            </Position>
            <AltitudeMeters>655.4000244140625</AltitudeMeters>
            <DistanceMeters>NAN</DistanceMeters>
          </Trackpoint>
          <Trackpoint>
            <Time>2019-08-01T10:05:35.000Z</Time>
            <Position>
              <LatitudeDegrees>40.45558213256299495697021484375</LatitudeDegrees>
              <LongitudeDegrees>-4.00878776796162128448486328125</LongitudeDegrees>
            </Position>
            <AltitudeMeters>655.4000244140625</AltitudeMeters>
            <DistanceMeters>NAN</DistanceMeters>
          </Trackpoint>
          <Trackpoint>
            <Time>2019-08-01T10:05:36.000Z</Time>
            <Position>
              <LatitudeDegrees>40.4556541331112384796142578125</LatitudeDegrees>
              <LongitudeDegrees>-4.00882297195494174957275390625</LongitudeDegrees>
            </Position>
            <AltitudeMeters>655.20001220703125</AltitudeMeters>
            <DistanceMeters>NAN</DistanceMeters>
          </Trackpoint>
          <Trackpoint>
            <Time>2019-08-01T10:05:37.000Z</Time>
            <Position>
              <LatitudeDegrees>40.4557262174785137176513671875</LatitudeDegrees>
              <LongitudeDegrees>-4.008859097957611083984375</LongitudeDegrees>
            </Position>
            <AltitudeMeters>655.20001220703125</AltitudeMeters>
            <DistanceMeters>NAN</DistanceMeters>
          </Trackpoint>
          <Trackpoint>
            <Time>2019-08-01T10:05:38.000Z</Time>
            <Position>
              <LatitudeDegrees>40.45579872094094753265380859375</LatitudeDegrees>
              <LongitudeDegrees>-4.00889455340802669525146484375</LongitudeDegrees>
            </Position>
            <AltitudeMeters>655.20001220703125</AltitudeMeters>
            <DistanceMeters>NAN</DistanceMeters>
          </Trackpoint>
          <Trackpoint>
            <Time>2019-08-01T10:05:39.000Z</Time>
            <Position>
              <LatitudeDegrees>40.45587189495563507080078125</LatitudeDegrees>
              <LongitudeDegrees>-4.008929841220378875732421875</LongitudeDegrees>
            </Position>
            <AltitudeMeters>655.20001220703125</AltitudeMeters>
            <DistanceMeters>NAN</DistanceMeters>
          </Trackpoint>
          <Trackpoint>
            <Time>2019-08-01T10:05:40.000Z</Time>
            <Position>
              <LatitudeDegrees>40.45594473369419574737548828125</LatitudeDegrees>
              <LongitudeDegrees>-4.00896546430885791778564453125</LongitudeDegrees>
            </Position>
            <AltitudeMeters>655.20001220703125</AltitudeMeters>
            <DistanceMeters>NAN</DistanceMeters>
          </Trackpoint>
          <Trackpoint>
            <Time>2019-08-01T10:05:41.000Z</Time>
            <Position>
              <LatitudeDegrees>40.45601715333759784698486328125</LatitudeDegrees>
              <LongitudeDegrees>-4.0090010873973369598388671875</LongitudeDegrees>
            </Position>
            <AltitudeMeters>655.20001220703125</AltitudeMeters>
            <DistanceMeters>NAN</DistanceMeters>
          </Trackpoint>
          <Trackpoint>
            <Time>2019-08-01T10:05:42.000Z</Time>
            <Position>
              <LatitudeDegrees>40.4560898244380950927734375</LatitudeDegrees>
              <LongitudeDegrees>-4.00903687812387943267822265625</LongitudeDegrees>
            </Position>
            <AltitudeMeters>655.20001220703125</AltitudeMeters>
            <DistanceMeters>NAN</DistanceMeters>
          </Trackpoint>
          <Trackpoint>
            <Time>2019-08-01T10:05:43.000Z</Time>
            <Position>
              <LatitudeDegrees>40.45616291463375091552734375</LatitudeDegrees>
              <LongitudeDegrees>-4.00907342322170734405517578125</LongitudeDegrees>
            </Position>
            <AltitudeMeters>655.20001220703125</AltitudeMeters>
            <DistanceMeters>NAN</DistanceMeters>
          </Trackpoint>
          <Trackpoint>
            <Time>2019-08-01T10:05:44.000Z</Time>
            <Position>
              <LatitudeDegrees>40.456237010657787322998046875</LatitudeDegrees>
              <LongitudeDegrees>-4.00910946540534496307373046875</LongitudeDegrees>
            </Position>
            <AltitudeMeters>655.20001220703125</AltitudeMeters>
            <DistanceMeters>NAN</DistanceMeters>
          </Trackpoint>
          <Trackpoint>
            <Time>2019-08-01T10:05:45.000Z</Time>
            <Position>
              <LatitudeDegrees>40.4563112743198871612548828125</LatitudeDegrees>
              <LongitudeDegrees>-4.00914517231285572052001953125</LongitudeDegrees>
            </Position>
            <AltitudeMeters>655.20001220703125</AltitudeMeters>
            <DistanceMeters>NAN</DistanceMeters>
          </Trackpoint>
          <Trackpoint>
            <Time>2019-08-01T10:05:46.000Z</Time>
            <Position>
              <LatitudeDegrees>40.4563857056200504302978515625</LatitudeDegrees>
              <LongitudeDegrees>-4.00918104685842990875244140625</LongitudeDegrees>
            </Position>
            <AltitudeMeters>655.20001220703125</AltitudeMeters>
            <DistanceMeters>NAN</DistanceMeters>
          </Trackpoint>
          <Trackpoint>
            <Time>2019-08-01T10:05:47.000Z</Time>
            <Position>
              <LatitudeDegrees>40.45646038837730884552001953125</LatitudeDegrees>
              <LongitudeDegrees>-4.0092180110514163970947265625</LongitudeDegrees>
            </Position>
            <AltitudeMeters>655.20001220703125</AltitudeMeters>
            <DistanceMeters>NAN</DistanceMeters>
          </Trackpoint>
          <Trackpoint>
            <Time>2019-08-01T10:05:48.000Z</Time>
            <Position>
              <LatitudeDegrees>40.45646038837730884552001953125</LatitudeDegrees>
              <LongitudeDegrees>-4.0092180110514163970947265625</LongitudeDegrees>
            </Position>
            <AltitudeMeters>655.20001220703125</AltitudeMeters>
            <DistanceMeters>NAN</DistanceMeters>
          </Trackpoint>
          <Trackpoint>
            <Time>2019-08-01T10:05:49.000Z</Time>
            <Position>
              <LatitudeDegrees>40.45661042444407939910888671875</LatitudeDegrees>
              <LongitudeDegrees>-4.0092941187322139739990234375</LongitudeDegrees>
            </Position>
            <AltitudeMeters>655.20001220703125</AltitudeMeters>
            <DistanceMeters>NAN</DistanceMeters>
          </Trackpoint>
          <Trackpoint>
            <Time>2019-08-01T10:05:50.000Z</Time>
            <Position>
              <LatitudeDegrees>40.45668594539165496826171875</LatitudeDegrees>
              <LongitudeDegrees>-4.00933208875358104705810546875</LongitudeDegrees>
            </Position>
            <AltitudeMeters>655.4000244140625</AltitudeMeters>
            <DistanceMeters>NAN</DistanceMeters>
          </Trackpoint>
          <Trackpoint>
            <Time>2019-08-01T10:05:51.000Z</Time>
            <Position>
              <LatitudeDegrees>40.45676230452954769134521484375</LatitudeDegrees>
              <LongitudeDegrees>-4.00937014259397983551025390625</LongitudeDegrees>
            </Position>
            <AltitudeMeters>655.4000244140625</AltitudeMeters>
            <DistanceMeters>NAN</DistanceMeters>
          </Trackpoint>
          <Trackpoint>
            <Time>2019-08-01T10:05:52.000Z</Time>
            <Position>
              <LatitudeDegrees>40.4568393342196941375732421875</LatitudeDegrees>
              <LongitudeDegrees>-4.009407944977283477783203125</LongitudeDegrees>
            </Position>
            <AltitudeMeters>655.4000244140625</AltitudeMeters>
            <DistanceMeters>NAN</DistanceMeters>
          </Trackpoint>
          <Trackpoint>
            <Time>2019-08-01T10:05:53.000Z</Time>
            <Position>
              <LatitudeDegrees>40.45691720210015773773193359375</LatitudeDegrees>
              <LongitudeDegrees>-4.0094473399221897125244140625</LongitudeDegrees>
            </Position>
            <AltitudeMeters>655.4000244140625</AltitudeMeters>
            <DistanceMeters>NAN</DistanceMeters>
          </Trackpoint>
          <Trackpoint>
            <Time>2019-08-01T10:05:54.000Z</Time>
            <Position>
              <LatitudeDegrees>40.45699481852352619171142578125</LatitudeDegrees>
              <LongitudeDegrees>-4.0094889141619205474853515625</LongitudeDegrees>
            </Position>
            <AltitudeMeters>655.4000244140625</AltitudeMeters>
            <DistanceMeters>NAN</DistanceMeters>
          </Trackpoint>
          <Trackpoint>
            <Time>2019-08-01T10:05:55.000Z</Time>
            <Position>
              <LatitudeDegrees>40.457073859870433807373046875</LatitudeDegrees>
              <LongitudeDegrees>-4.00952990166842937469482421875</LongitudeDegrees>
            </Position>
            <AltitudeMeters>655.4000244140625</AltitudeMeters>
            <DistanceMeters>NAN</DistanceMeters>
          </Trackpoint>
          <Trackpoint>
            <Time>2019-08-01T10:05:56.000Z</Time>
            <Position>
              <LatitudeDegrees>40.45715642161667346954345703125</LatitudeDegrees>
              <LongitudeDegrees>-4.0095700509846210479736328125</LongitudeDegrees>
            </Position>
            <AltitudeMeters>655.4000244140625</AltitudeMeters>
            <DistanceMeters>NAN</DistanceMeters>
          </Trackpoint>
          <Trackpoint>
            <Time>2019-08-01T10:05:57.000Z</Time>
            <Position>
              <LatitudeDegrees>40.45724116265773773193359375</LatitudeDegrees>
              <LongitudeDegrees>-4.0096109546720981597900390625</LongitudeDegrees>
            </Position>
            <AltitudeMeters>655.4000244140625</AltitudeMeters>
            <DistanceMeters>NAN</DistanceMeters>
          </Trackpoint>
          <Trackpoint>
            <Time>2019-08-01T10:05:58.000Z</Time>
            <Position>
              <LatitudeDegrees>40.45732657425105571746826171875</LatitudeDegrees>
              <LongitudeDegrees>-4.00965278036892414093017578125</LongitudeDegrees>
            </Position>
            <AltitudeMeters>655.4000244140625</AltitudeMeters>
            <DistanceMeters>NAN</DistanceMeters>
          </Trackpoint>
          <Trackpoint>
            <Time>2019-08-01T10:05:59.000Z</Time>
            <Position>
              <LatitudeDegrees>40.45741274021565914154052734375</LatitudeDegrees>
              <LongitudeDegrees>-4.009695947170257568359375</LongitudeDegrees>
            </Position>
            <AltitudeMeters>655.4000244140625</AltitudeMeters>
            <DistanceMeters>NAN</DistanceMeters>
          </Trackpoint>
          <Trackpoint>
            <Time>2019-08-01T10:06:00.000Z</Time>
            <Position>
              <LatitudeDegrees>40.45749924145638942718505859375</LatitudeDegrees>
              <LongitudeDegrees>-4.009738862514495849609375</LongitudeDegrees>
            </Position>
            <AltitudeMeters>655.4000244140625</AltitudeMeters>
            <DistanceMeters>NAN</DistanceMeters>
          </Trackpoint>
          <Trackpoint>
            <Time>2019-08-01T10:06:01.000Z</Time>
            <Position>
              <LatitudeDegrees>40.457585491240024566650390625</LatitudeDegrees>
              <LongitudeDegrees>-4.00978102348744869232177734375</LongitudeDegrees>
            </Position>
            <AltitudeMeters>655.4000244140625</AltitudeMeters>
            <DistanceMeters>NAN</DistanceMeters>
          </Trackpoint>
          <Trackpoint>
            <Time>2019-08-01T10:06:02.000Z</Time>
            <Position>
              <LatitudeDegrees>40.457671321928501129150390625</LatitudeDegrees>
              <LongitudeDegrees>-4.009823687374591827392578125</LongitudeDegrees>
            </Position>
            <AltitudeMeters>655.4000244140625</AltitudeMeters>
            <DistanceMeters>NAN</DistanceMeters>
          </Trackpoint>
          <Trackpoint>
            <Time>2019-08-01T10:06:03.000Z</Time>
            <Position>
              <LatitudeDegrees>40.45775723643600940704345703125</LatitudeDegrees>
              <LongitudeDegrees>-4.009867608547210693359375</LongitudeDegrees>
            </Position>
            <AltitudeMeters>655.4000244140625</AltitudeMeters>
            <DistanceMeters>NAN</DistanceMeters>
          </Trackpoint>
          <Trackpoint>
            <Time>2019-08-01T10:06:04.000Z</Time>
            <Position>
              <LatitudeDegrees>40.4578434862196445465087890625</LatitudeDegrees>
              <LongitudeDegrees>-4.0099110268056392669677734375</LongitudeDegrees>
            </Position>
            <AltitudeMeters>655.4000244140625</AltitudeMeters>
            <DistanceMeters>NAN</DistanceMeters>
          </Trackpoint>
          <Trackpoint>
            <Time>2019-08-01T10:06:05.000Z</Time>
            <Position>
              <LatitudeDegrees>40.4579306580126285552978515625</LatitudeDegrees>
              <LongitudeDegrees>-4.00995410978794097900390625</LongitudeDegrees>
            </Position>
            <AltitudeMeters>655.20001220703125</AltitudeMeters>
            <DistanceMeters>NAN</DistanceMeters>
          </Trackpoint>
          <Trackpoint>
            <Time>2019-08-01T10:06:06.000Z</Time>
            <Position>
              <LatitudeDegrees>40.45801657252013683319091796875</LatitudeDegrees>
              <LongitudeDegrees>-4.00999660603702068328857421875</LongitudeDegrees>
            </Position>
            <AltitudeMeters>655.20001220703125</AltitudeMeters>
            <DistanceMeters>NAN</DistanceMeters>
          </Trackpoint>
          <Trackpoint>
            <Time>2019-08-01T10:06:07.000Z</Time>
            <Position>
              <LatitudeDegrees>40.4581036604940891265869140625</LatitudeDegrees>
              <LongitudeDegrees>-4.01003918610513210296630859375</LongitudeDegrees>
            </Position>
            <AltitudeMeters>655</AltitudeMeters>
            <DistanceMeters>NAN</DistanceMeters>
          </Trackpoint>
          <Trackpoint>
            <Time>2019-08-01T10:06:08.000Z</Time>
            <Position>
              <LatitudeDegrees>40.458190329372882843017578125</LatitudeDegrees>
              <LongitudeDegrees>-4.01008126325905323028564453125</LongitudeDegrees>
            </Position>
            <AltitudeMeters>655</AltitudeMeters>
            <DistanceMeters>NAN</DistanceMeters>
          </Trackpoint>
          <Trackpoint>
            <Time>2019-08-01T10:06:09.000Z</Time>
            <Position>
              <LatitudeDegrees>40.458277501165866851806640625</LatitudeDegrees>
              <LongitudeDegrees>-4.01012308895587921142578125</LongitudeDegrees>
            </Position>
            <AltitudeMeters>654.79998779296875</AltitudeMeters>
            <DistanceMeters>NAN</DistanceMeters>
          </Trackpoint>
          <Trackpoint>
            <Time>2019-08-01T10:06:10.000Z</Time>
            <Position>
              <LatitudeDegrees>40.458364672958850860595703125</LatitudeDegrees>
              <LongitudeDegrees>-4.01016541756689548492431640625</LongitudeDegrees>
            </Position>
            <AltitudeMeters>654.4000244140625</AltitudeMeters>
            <DistanceMeters>NAN</DistanceMeters>
          </Trackpoint>
          <Trackpoint>
            <Time>2019-08-01T10:06:11.000Z</Time>
            <Position>
              <LatitudeDegrees>40.458364672958850860595703125</LatitudeDegrees>
              <LongitudeDegrees>-4.01016541756689548492431640625</LongitudeDegrees>
            </Position>
            <AltitudeMeters>654.20001220703125</AltitudeMeters>
            <DistanceMeters>NAN</DistanceMeters>
          </Trackpoint>
          <Trackpoint>
            <Time>2019-08-01T10:06:12.000Z</Time>
            <Position>
              <LatitudeDegrees>40.45853801071643829345703125</LatitudeDegrees>
              <LongitudeDegrees>-4.0102509967982769012451171875</LongitudeDegrees>
            </Position>
            <AltitudeMeters>654</AltitudeMeters>
            <DistanceMeters>NAN</DistanceMeters>
          </Trackpoint>
          <Trackpoint>
            <Time>2019-08-01T10:06:13.000Z</Time>
            <Position>
              <LatitudeDegrees>40.45862426050007343292236328125</LatitudeDegrees>
              <LongitudeDegrees>-4.01029315777122974395751953125</LongitudeDegrees>
            </Position>
            <AltitudeMeters>653.79998779296875</AltitudeMeters>
            <DistanceMeters>NAN</DistanceMeters>
          </Trackpoint>
          <Trackpoint>
            <Time>2019-08-01T10:06:14.000Z</Time>
            <Position>
              <LatitudeDegrees>40.45870967209339141845703125</LatitudeDegrees>
              <LongitudeDegrees>-4.01033523492515087127685546875</LongitudeDegrees>
            </Position>
            <AltitudeMeters>653.79998779296875</AltitudeMeters>
            <DistanceMeters>NAN</DistanceMeters>
          </Trackpoint>
          <Trackpoint>
            <Time>2019-08-01T10:06:15.000Z</Time>
            <Position>
              <LatitudeDegrees>40.458795167505741119384765625</LatitudeDegrees>
              <LongitudeDegrees>-4.01037747971713542938232421875</LongitudeDegrees>
            </Position>
            <AltitudeMeters>653.5999755859375</AltitudeMeters>
            <DistanceMeters>NAN</DistanceMeters>
          </Trackpoint>
          <Trackpoint>
            <Time>2019-08-01T10:06:16.000Z</Time>
            <Position>
              <LatitudeDegrees>40.458880998194217681884765625</LatitudeDegrees>
              <LongitudeDegrees>-4.010420143604278564453125</LongitudeDegrees>
            </Position>
            <AltitudeMeters>653.5999755859375</AltitudeMeters>
            <DistanceMeters>NAN</DistanceMeters>
          </Trackpoint>
          <Trackpoint>
            <Time>2019-08-01T10:06:17.000Z</Time>
            <Position>
              <LatitudeDegrees>40.4589676670730113983154296875</LatitudeDegrees>
              <LongitudeDegrees>-4.010463058948516845703125</LongitudeDegrees>
            </Position>
            <AltitudeMeters>653.5999755859375</AltitudeMeters>
            <DistanceMeters>NAN</DistanceMeters>
          </Trackpoint>
          <Trackpoint>
            <Time>2019-08-01T10:06:18.000Z</Time>
            <Position>
              <LatitudeDegrees>40.45905408449470996856689453125</LatitudeDegrees>
              <LongitudeDegrees>-4.01050572283565998077392578125</LongitudeDegrees>
            </Position>
            <AltitudeMeters>653.4000244140625</AltitudeMeters>
            <DistanceMeters>NAN</DistanceMeters>
          </Trackpoint>
          <Trackpoint>
            <Time>2019-08-01T10:06:19.000Z</Time>
            <Position>
              <LatitudeDegrees>40.45914008282124996185302734375</LatitudeDegrees>
              <LongitudeDegrees>-4.010548889636993408203125</LongitudeDegrees>
            </Position>
            <AltitudeMeters>653.4000244140625</AltitudeMeters>
            <DistanceMeters>NAN</DistanceMeters>
          </Trackpoint>
          <Trackpoint>
            <Time>2019-08-01T10:06:20.000Z</Time>
            <Position>
              <LatitudeDegrees>40.45922574587166309356689453125</LatitudeDegrees>
              <LongitudeDegrees>-4.0105919726192951202392578125</LongitudeDegrees>
            </Position>
            <AltitudeMeters>653.4000244140625</AltitudeMeters>
            <DistanceMeters>NAN</DistanceMeters>
          </Trackpoint>
          <Trackpoint>
            <Time>2019-08-01T10:06:21.000Z</Time>
            <Position>
              <LatitudeDegrees>40.45931107364594936370849609375</LatitudeDegrees>
              <LongitudeDegrees>-4.01063446886837482452392578125</LongitudeDegrees>
            </Position>
            <AltitudeMeters>653.4000244140625</AltitudeMeters>
            <DistanceMeters>NAN</DistanceMeters>
          </Trackpoint>
          <Trackpoint>
            <Time>2019-08-01T10:06:22.000Z</Time>
            <Position>
              <LatitudeDegrees>40.45939623378217220306396484375</LatitudeDegrees>
              <LongitudeDegrees>-4.01067654602229595184326171875</LongitudeDegrees>
            </Position>
            <AltitudeMeters>653.4000244140625</AltitudeMeters>
            <DistanceMeters>NAN</DistanceMeters>
          </Trackpoint>
          <Trackpoint>
            <Time>2019-08-01T10:06:23.000Z</Time>
            <Position>
              <LatitudeDegrees>40.4594836570322513580322265625</LatitudeDegrees>
              <LongitudeDegrees>-4.010718874633312225341796875</LongitudeDegrees>
            </Position>
            <AltitudeMeters>653.4000244140625</AltitudeMeters>
            <DistanceMeters>NAN</DistanceMeters>
          </Trackpoint>
          <Trackpoint>
            <Time>2019-08-01T10:06:24.000Z</Time>
            <Position>
              <LatitudeDegrees>40.4595686495304107666015625</LatitudeDegrees>
              <LongitudeDegrees>-4.01076086796820163726806640625</LongitudeDegrees>
            </Position>
            <AltitudeMeters>653.4000244140625</AltitudeMeters>
            <DistanceMeters>NAN</DistanceMeters>
          </Trackpoint>
          <Trackpoint>
            <Time>2019-08-01T10:06:25.000Z</Time>
            <Position>
              <LatitudeDegrees>40.45965305529534816741943359375</LatitudeDegrees>
              <LongitudeDegrees>-4.010802023112773895263671875</LongitudeDegrees>
            </Position>
            <AltitudeMeters>653.4000244140625</AltitudeMeters>
            <DistanceMeters>NAN</DistanceMeters>
          </Trackpoint>
          <Trackpoint>
            <Time>2019-08-01T10:06:26.000Z</Time>
            <Position>
              <LatitudeDegrees>40.45973695814609527587890625</LatitudeDegrees>
              <LongitudeDegrees>-4.0108430944383144378662109375</LongitudeDegrees>
            </Position>
            <AltitudeMeters>653.4000244140625</AltitudeMeters>
            <DistanceMeters>NAN</DistanceMeters>
          </Trackpoint>
          <Trackpoint>
            <Time>2019-08-01T10:06:27.000Z</Time>
            <Position>
              <LatitudeDegrees>40.45973695814609527587890625</LatitudeDegrees>
              <LongitudeDegrees>-4.0108430944383144378662109375</LongitudeDegrees>
            </Position>
            <AltitudeMeters>653.4000244140625</AltitudeMeters>
            <DistanceMeters>NAN</DistanceMeters>
          </Trackpoint>
          <Trackpoint>
            <Time>2019-08-01T10:06:28.000Z</Time>
            <Position>
              <LatitudeDegrees>40.4599039256572723388671875</LatitudeDegrees>
              <LongitudeDegrees>-4.01092498563230037689208984375</LongitudeDegrees>
            </Position>
            <AltitudeMeters>653.4000244140625</AltitudeMeters>
            <DistanceMeters>NAN</DistanceMeters>
          </Trackpoint>
          <Trackpoint>
            <Time>2019-08-01T10:06:29.000Z</Time>
            <Position>
              <LatitudeDegrees>40.4599039256572723388671875</LatitudeDegrees>
              <LongitudeDegrees>-4.01092498563230037689208984375</LongitudeDegrees>
            </Position>
            <AltitudeMeters>653.4000244140625</AltitudeMeters>
            <DistanceMeters>NAN</DistanceMeters>
          </Trackpoint>
          <Trackpoint>
            <Time>2019-08-01T10:06:30.000Z</Time>
            <Position>
              <LatitudeDegrees>40.46006879769265651702880859375</LatitudeDegrees>
              <LongitudeDegrees>-4.011007212102413177490234375</LongitudeDegrees>
            </Position>
            <AltitudeMeters>653.4000244140625</AltitudeMeters>
            <DistanceMeters>NAN</DistanceMeters>
          </Trackpoint>
          <Trackpoint>
            <Time>2019-08-01T10:06:31.000Z</Time>
            <Position>
              <LatitudeDegrees>40.46015060506761074066162109375</LatitudeDegrees>
              <LongitudeDegrees>-4.01104819960892200469970703125</LongitudeDegrees>
            </Position>
            <AltitudeMeters>653.20001220703125</AltitudeMeters>
            <DistanceMeters>NAN</DistanceMeters>
          </Trackpoint>
          <Trackpoint>
            <Time>2019-08-01T10:06:32.000Z</Time>
            <Position>
              <LatitudeDegrees>40.46023140661418437957763671875</LatitudeDegrees>
              <LongitudeDegrees>-4.01108826510608196258544921875</LongitudeDegrees>
            </Position>
            <AltitudeMeters>653.20001220703125</AltitudeMeters>
            <DistanceMeters>NAN</DistanceMeters>
          </Trackpoint>
          <Trackpoint>
            <Time>2019-08-01T10:06:33.000Z</Time>
            <Position>
              <LatitudeDegrees>40.4603114537894725799560546875</LatitudeDegrees>
              <LongitudeDegrees>-4.01112782768905162811279296875</LongitudeDegrees>
            </Position>
            <AltitudeMeters>653.5999755859375</AltitudeMeters>
            <DistanceMeters>NAN</DistanceMeters>
          </Trackpoint>
          <Trackpoint>
            <Time>2019-08-01T10:06:34.000Z</Time>
            <Position>
              <LatitudeDegrees>40.46039015986025333404541015625</LatitudeDegrees>
              <LongitudeDegrees>-4.01116739027202129364013671875</LongitudeDegrees>
            </Position>
            <AltitudeMeters>653.5999755859375</AltitudeMeters>
            <DistanceMeters>NAN</DistanceMeters>
          </Trackpoint>
          <Trackpoint>
            <Time>2019-08-01T10:06:35.000Z</Time>
            <Position>
              <LatitudeDegrees>40.46039015986025333404541015625</LatitudeDegrees>
              <LongitudeDegrees>-4.01116739027202129364013671875</LongitudeDegrees>
            </Position>
            <AltitudeMeters>653.5999755859375</AltitudeMeters>
            <DistanceMeters>NAN</DistanceMeters>
          </Trackpoint>
          <Trackpoint>
            <Time>2019-08-01T10:06:36.000Z</Time>
            <Position>
              <LatitudeDegrees>40.4605444706976413726806640625</LatitudeDegrees>
              <LongitudeDegrees>-4.01124550960958003997802734375</LongitudeDegrees>
            </Position>
            <AltitudeMeters>653.5999755859375</AltitudeMeters>
            <DistanceMeters>NAN</DistanceMeters>
          </Trackpoint>
          <Trackpoint>
            <Time>2019-08-01T10:06:37.000Z</Time>
            <Position>
              <LatitudeDegrees>40.46061999164521694183349609375</LatitudeDegrees>
              <LongitudeDegrees>-4.01128314435482025146484375</LongitudeDegrees>
            </Position>
            <AltitudeMeters>653.5999755859375</AltitudeMeters>
            <DistanceMeters>NAN</DistanceMeters>
          </Trackpoint>
          <Trackpoint>
            <Time>2019-08-01T10:06:38.000Z</Time>
            <Position>
              <LatitudeDegrees>40.46069626696407794952392578125</LatitudeDegrees>
              <LongitudeDegrees>-4.0113208629190921783447265625</LongitudeDegrees>
            </Position>
            <AltitudeMeters>653.5999755859375</AltitudeMeters>
            <DistanceMeters>NAN</DistanceMeters>
          </Trackpoint>
          <Trackpoint>
            <Time>2019-08-01T10:06:39.000Z</Time>
            <Position>
              <LatitudeDegrees>40.46077187173068523406982421875</LatitudeDegrees>
              <LongitudeDegrees>-4.011358581483364105224609375</LongitudeDegrees>
            </Position>
            <AltitudeMeters>653.5999755859375</AltitudeMeters>
            <DistanceMeters>NAN</DistanceMeters>
          </Trackpoint>
          <Trackpoint>
            <Time>2019-08-01T10:06:40.000Z</Time>
            <Position>
              <LatitudeDegrees>40.46084864996373653411865234375</LatitudeDegrees>
              <LongitudeDegrees>-4.0113959647715091705322265625</LongitudeDegrees>
            </Position>
            <AltitudeMeters>653.5999755859375</AltitudeMeters>
            <DistanceMeters>NAN</DistanceMeters>
          </Trackpoint>
          <Trackpoint>
            <Time>2019-08-01T10:06:41.000Z</Time>
            <Position>
              <LatitudeDegrees>40.46092526055872440338134765625</LatitudeDegrees>
              <LongitudeDegrees>-4.01143376715481281280517578125</LongitudeDegrees>
            </Position>
            <AltitudeMeters>653.5999755859375</AltitudeMeters>
            <DistanceMeters>NAN</DistanceMeters>
          </Trackpoint>
          <Trackpoint>
            <Time>2019-08-01T10:06:42.000Z</Time>
            <Position>
              <LatitudeDegrees>40.46100120060145854949951171875</LatitudeDegrees>
              <LongitudeDegrees>-4.01147249154746532440185546875</LongitudeDegrees>
            </Position>
            <AltitudeMeters>653.79998779296875</AltitudeMeters>
            <DistanceMeters>NAN</DistanceMeters>
          </Trackpoint>
          <Trackpoint>
            <Time>2019-08-01T10:06:43.000Z</Time>
            <Position>
              <LatitudeDegrees>40.46107730828225612640380859375</LatitudeDegrees>
              <LongitudeDegrees>-4.01151104830205440521240234375</LongitudeDegrees>
            </Position>
            <AltitudeMeters>653.79998779296875</AltitudeMeters>
            <DistanceMeters>NAN</DistanceMeters>
          </Trackpoint>
          <Trackpoint>
            <Time>2019-08-01T10:06:44.000Z</Time>
            <Position>
              <LatitudeDegrees>40.46115358360111713409423828125</LatitudeDegrees>
              <LongitudeDegrees>-4.01154859922826290130615234375</LongitudeDegrees>
            </Position>
            <AltitudeMeters>654.20001220703125</AltitudeMeters>
            <DistanceMeters>NAN</DistanceMeters>
          </Trackpoint>
          <Trackpoint>
            <Time>2019-08-01T10:06:45.000Z</Time>
            <Position>
              <LatitudeDegrees>40.46115358360111713409423828125</LatitudeDegrees>
              <LongitudeDegrees>-4.01154859922826290130615234375</LongitudeDegrees>
            </Position>
            <AltitudeMeters>654.4000244140625</AltitudeMeters>
            <DistanceMeters>NAN</DistanceMeters>
          </Trackpoint>
          <Trackpoint>
            <Time>2019-08-01T10:06:46.000Z</Time>
            <Position>
              <LatitudeDegrees>40.46130512841045856475830078125</LatitudeDegrees>
              <LongitudeDegrees>-4.01162470690906047821044921875</LongitudeDegrees>
            </Position>
            <AltitudeMeters>654.5999755859375</AltitudeMeters>
            <DistanceMeters>NAN</DistanceMeters>
          </Trackpoint>
          <Trackpoint>
            <Time>2019-08-01T10:06:47.000Z</Time>
            <Position>
              <LatitudeDegrees>40.46138115227222442626953125</LatitudeDegrees>
              <LongitudeDegrees>-4.01166267693042755126953125</LongitudeDegrees>
            </Position>
            <AltitudeMeters>654.5999755859375</AltitudeMeters>
            <DistanceMeters>NAN</DistanceMeters>
          </Trackpoint>
          <Trackpoint>
            <Time>2019-08-01T10:06:48.000Z</Time>
            <Position>
              <LatitudeDegrees>40.4614569246768951416015625</LatitudeDegrees>
              <LongitudeDegrees>-4.01170014403760433197021484375</LongitudeDegrees>
            </Position>
            <AltitudeMeters>654.79998779296875</AltitudeMeters>
            <DistanceMeters>NAN</DistanceMeters>
          </Trackpoint>
          <Trackpoint>
            <Time>2019-08-01T10:06:49.000Z</Time>
            <Position>
              <LatitudeDegrees>40.46153278090059757232666015625</LatitudeDegrees>
              <LongitudeDegrees>-4.011738114058971405029296875</LongitudeDegrees>
            </Position>
            <AltitudeMeters>655</AltitudeMeters>
            <DistanceMeters>NAN</DistanceMeters>
          </Trackpoint>
          <Trackpoint>
            <Time>2019-08-01T10:06:50.000Z</Time>
            <Position>
              <LatitudeDegrees>40.4616086371243000030517578125</LatitudeDegrees>
              <LongitudeDegrees>-4.0117765031754970550537109375</LongitudeDegrees>
            </Position>
            <AltitudeMeters>655</AltitudeMeters>
            <DistanceMeters>NAN</DistanceMeters>
          </Trackpoint>
          <Trackpoint>
            <Time>2019-08-01T10:06:51.000Z</Time>
            <Position>
              <LatitudeDegrees>40.46168449334800243377685546875</LatitudeDegrees>
              <LongitudeDegrees>-4.01181464083492755889892578125</LongitudeDegrees>
            </Position>
            <AltitudeMeters>655.20001220703125</AltitudeMeters>
            <DistanceMeters>NAN</DistanceMeters>
          </Trackpoint>
          <Trackpoint>
            <Time>2019-08-01T10:06:52.000Z</Time>
            <Position>
              <LatitudeDegrees>40.46176026575267314910888671875</LatitudeDegrees>
              <LongitudeDegrees>-4.01185252703726291656494140625</LongitudeDegrees>
            </Position>
            <AltitudeMeters>655.20001220703125</AltitudeMeters>
            <DistanceMeters>NAN</DistanceMeters>
          </Trackpoint>
          <Trackpoint>
            <Time>2019-08-01T10:06:53.000Z</Time>
            <Position>
              <LatitudeDegrees>40.46183553524315357208251953125</LatitudeDegrees>
              <LongitudeDegrees>-4.0118898265063762664794921875</LongitudeDegrees>
            </Position>
            <AltitudeMeters>655.20001220703125</AltitudeMeters>
            <DistanceMeters>NAN</DistanceMeters>
          </Trackpoint>
          <Trackpoint>
            <Time>2019-08-01T10:06:54.000Z</Time>
            <Position>
              <LatitudeDegrees>40.46191080473363399505615234375</LatitudeDegrees>
              <LongitudeDegrees>-4.01192695833742618560791015625</LongitudeDegrees>
            </Position>
            <AltitudeMeters>655.20001220703125</AltitudeMeters>
            <DistanceMeters>NAN</DistanceMeters>
          </Trackpoint>
          <Trackpoint>
            <Time>2019-08-01T10:06:55.000Z</Time>
            <Position>
              <LatitudeDegrees>40.46198657713830471038818359375</LatitudeDegrees>
              <LongitudeDegrees>-4.0119645930826663970947265625</LongitudeDegrees>
            </Position>
            <AltitudeMeters>655.20001220703125</AltitudeMeters>
            <DistanceMeters>NAN</DistanceMeters>
          </Trackpoint>
          <Trackpoint>
            <Time>2019-08-01T10:06:56.000Z</Time>
            <Position>
              <LatitudeDegrees>40.46206176280975341796875</LatitudeDegrees>
              <LongitudeDegrees>-4.0120021440088748931884765625</LongitudeDegrees>
            </Position>
            <AltitudeMeters>655.20001220703125</AltitudeMeters>
            <DistanceMeters>NAN</DistanceMeters>
          </Trackpoint>
          <Trackpoint>
            <Time>2019-08-01T10:06:57.000Z</Time>
            <Position>
              <LatitudeDegrees>40.462136529386043548583984375</LatitudeDegrees>
              <LongitudeDegrees>-4.012039862573146820068359375</LongitudeDegrees>
            </Position>
            <AltitudeMeters>655.20001220703125</AltitudeMeters>
            <DistanceMeters>NAN</DistanceMeters>
          </Trackpoint>
          <Trackpoint>
            <Time>2019-08-01T10:06:58.000Z</Time>
            <Position>
              <LatitudeDegrees>40.46221087686717510223388671875</LatitudeDegrees>
              <LongitudeDegrees>-4.01207783259451389312744140625</LongitudeDegrees>
            </Position>
            <AltitudeMeters>655.20001220703125</AltitudeMeters>
            <DistanceMeters>NAN</DistanceMeters>
          </Trackpoint>
          <Trackpoint>
            <Time>2019-08-01T10:06:59.000Z</Time>
            <Position>
              <LatitudeDegrees>40.4622855596244335174560546875</LatitudeDegrees>
              <LongitudeDegrees>-4.0121158026158809661865234375</LongitudeDegrees>
            </Position>
            <AltitudeMeters>655.20001220703125</AltitudeMeters>
            <DistanceMeters>NAN</DistanceMeters>
          </Trackpoint>
          <Trackpoint>
            <Time>2019-08-01T10:07:00.000Z</Time>
            <Position>
              <LatitudeDegrees>40.46236041001975536346435546875</LatitudeDegrees>
              <LongitudeDegrees>-4.01215326972305774688720703125</LongitudeDegrees>
            </Position>
            <AltitudeMeters>655.20001220703125</AltitudeMeters>
            <DistanceMeters>NAN</DistanceMeters>
          </Trackpoint>
          <Trackpoint>
            <Time>2019-08-01T10:07:01.000Z</Time>
            <Position>
              <LatitudeDegrees>40.46243500895798206329345703125</LatitudeDegrees>
              <LongitudeDegrees>-4.01219132356345653533935546875</LongitudeDegrees>
            </Position>
            <AltitudeMeters>655.4000244140625</AltitudeMeters>
            <DistanceMeters>NAN</DistanceMeters>
          </Trackpoint>
          <Trackpoint>
            <Time>2019-08-01T10:07:02.000Z</Time>
            <Position>
              <LatitudeDegrees>40.462509691715240478515625</LatitudeDegrees>
              <LongitudeDegrees>-4.01222904212772846221923828125</LongitudeDegrees>
            </Position>
            <AltitudeMeters>655.4000244140625</AltitudeMeters>
            <DistanceMeters>NAN</DistanceMeters>
          </Trackpoint>
          <Trackpoint>
            <Time>2019-08-01T10:07:03.000Z</Time>
            <Position>
              <LatitudeDegrees>40.46258454211056232452392578125</LatitudeDegrees>
              <LongitudeDegrees>-4.01226625777781009674072265625</LongitudeDegrees>
            </Position>
            <AltitudeMeters>655.4000244140625</AltitudeMeters>
            <DistanceMeters>NAN</DistanceMeters>
          </Trackpoint>
          <Trackpoint>
            <Time>2019-08-01T10:07:04.000Z</Time>
            <Position>
              <LatitudeDegrees>40.46258454211056232452392578125</LatitudeDegrees>
              <LongitudeDegrees>-4.01226625777781009674072265625</LongitudeDegrees>
            </Position>
            <AltitudeMeters>655.4000244140625</AltitudeMeters>
            <DistanceMeters>NAN</DistanceMeters>
          </Trackpoint>
          <Trackpoint>
            <Time>2019-08-01T10:07:05.000Z</Time>
            <Position>
              <LatitudeDegrees>40.46273441053926944732666015625</LatitudeDegrees>
              <LongitudeDegrees>-4.01234035380184650421142578125</LongitudeDegrees>
            </Position>
            <AltitudeMeters>655.4000244140625</AltitudeMeters>
            <DistanceMeters>NAN</DistanceMeters>
          </Trackpoint>
          <Trackpoint>
            <Time>2019-08-01T10:07:06.000Z</Time>
            <Position>
              <LatitudeDegrees>40.46280968002974987030029296875</LatitudeDegrees>
              <LongitudeDegrees>-4.01237555779516696929931640625</LongitudeDegrees>
            </Position>
            <AltitudeMeters>655.4000244140625</AltitudeMeters>
            <DistanceMeters>NAN</DistanceMeters>
          </Trackpoint>
          <Trackpoint>
            <Time>2019-08-01T10:07:07.000Z</Time>
            <Position>
              <LatitudeDegrees>40.46288595534861087799072265625</LatitudeDegrees>
              <LongitudeDegrees>-4.012407325208187103271484375</LongitudeDegrees>
            </Position>
            <AltitudeMeters>655.4000244140625</AltitudeMeters>
            <DistanceMeters>NAN</DistanceMeters>
          </Trackpoint>
          <Trackpoint>
            <Time>2019-08-01T10:07:08.000Z</Time>
            <Position>
              <LatitudeDegrees>40.46296323649585247039794921875</LatitudeDegrees>
              <LongitudeDegrees>-4.01243356056511402130126953125</LongitudeDegrees>
            </Position>
            <AltitudeMeters>655.4000244140625</AltitudeMeters>
            <DistanceMeters>NAN</DistanceMeters>
          </Trackpoint>
          <Trackpoint>
            <Time>2019-08-01T10:07:09.000Z</Time>
            <Position>
              <LatitudeDegrees>40.46304118819534778594970703125</LatitudeDegrees>
              <LongitudeDegrees>-4.0124537609517574310302734375</LongitudeDegrees>
            </Position>
            <AltitudeMeters>655.5999755859375</AltitudeMeters>
            <DistanceMeters>NAN</DistanceMeters>
          </Trackpoint>
          <Trackpoint>
            <Time>2019-08-01T10:07:10.000Z</Time>
            <Position>
              <LatitudeDegrees>40.4631197266280651092529296875</LatitudeDegrees>
              <LongitudeDegrees>-4.01246809400618076324462890625</LongitudeDegrees>
            </Position>
            <AltitudeMeters>655.5999755859375</AltitudeMeters>
            <DistanceMeters>NAN</DistanceMeters>
          </Trackpoint>
          <Trackpoint>
            <Time>2019-08-01T10:07:11.000Z</Time>
            <Position>
              <LatitudeDegrees>40.463199354708194732666015625</LatitudeDegrees>
              <LongitudeDegrees>-4.01247010566294193267822265625</LongitudeDegrees>
            </Position>
            <AltitudeMeters>655.5999755859375</AltitudeMeters>
            <DistanceMeters>NAN</DistanceMeters>
          </Trackpoint>
          <Trackpoint>
            <Time>2019-08-01T10:07:12.000Z</Time>
            <Position>
              <LatitudeDegrees>40.463199354708194732666015625</LatitudeDegrees>
              <LongitudeDegrees>-4.01247010566294193267822265625</LongitudeDegrees>
            </Position>
            <AltitudeMeters>655.5999755859375</AltitudeMeters>
            <DistanceMeters>NAN</DistanceMeters>
          </Trackpoint>
          <Trackpoint>
            <Time>2019-08-01T10:07:13.000Z</Time>
            <Position>
              <LatitudeDegrees>40.4633567668497562408447265625</LatitudeDegrees>
              <LongitudeDegrees>-4.01242668740451335906982421875</LongitudeDegrees>
            </Position>
            <AltitudeMeters>655.5999755859375</AltitudeMeters>
            <DistanceMeters>NAN</DistanceMeters>
          </Trackpoint>
          <Trackpoint>
            <Time>2019-08-01T10:07:14.000Z</Time>
            <Position>
              <LatitudeDegrees>40.46343681402504444122314453125</LatitudeDegrees>
              <LongitudeDegrees>-4.01240942068397998809814453125</LongitudeDegrees>
            </Position>
            <AltitudeMeters>655.79998779296875</AltitudeMeters>
            <DistanceMeters>NAN</DistanceMeters>
          </Trackpoint>
          <Trackpoint>
            <Time>2019-08-01T10:07:15.000Z</Time>
            <Position>
              <LatitudeDegrees>40.4635143466293811798095703125</LatitudeDegrees>
              <LongitudeDegrees>-4.01241101324558258056640625</LongitudeDegrees>
            </Position>
            <AltitudeMeters>655.79998779296875</AltitudeMeters>
            <DistanceMeters>NAN</DistanceMeters>
          </Trackpoint>
          <Trackpoint>
            <Time>2019-08-01T10:07:16.000Z</Time>
            <Position>
              <LatitudeDegrees>40.4635894484817981719970703125</LatitudeDegrees>
              <LongitudeDegrees>-4.01243741624057292938232421875</LongitudeDegrees>
            </Position>
            <AltitudeMeters>655.79998779296875</AltitudeMeters>
            <DistanceMeters>NAN</DistanceMeters>
          </Trackpoint>
          <Trackpoint>
            <Time>2019-08-01T10:07:18.000Z</Time>
            <Position>
              <LatitudeDegrees>40.46370386146008968353271484375</LatitudeDegrees>
              <LongitudeDegrees>-4.0125699341297149658203125</LongitudeDegrees>
            </Position>
            <AltitudeMeters>656</AltitudeMeters>
            <DistanceMeters>NAN</DistanceMeters>
          </Trackpoint>
          <Trackpoint>
            <Time>2019-08-01T10:07:19.000Z</Time>
            <Position>
              <LatitudeDegrees>40.46374644152820110321044921875</LatitudeDegrees>
              <LongitudeDegrees>-4.0126592852175235748291015625</LongitudeDegrees>
            </Position>
            <AltitudeMeters>656</AltitudeMeters>
            <DistanceMeters>NAN</DistanceMeters>
          </Trackpoint>
          <Trackpoint>
            <Time>2019-08-01T10:07:20.000Z</Time>
            <Position>
              <LatitudeDegrees>40.46379019506275653839111328125</LatitudeDegrees>
              <LongitudeDegrees>-4.012746624648571014404296875</LongitudeDegrees>
            </Position>
            <AltitudeMeters>656.20001220703125</AltitudeMeters>
            <DistanceMeters>NAN</DistanceMeters>
          </Trackpoint>
          <Trackpoint>
            <Time>2019-08-01T10:07:21.000Z</Time>
            <Position>
              <LatitudeDegrees>40.4638439230620861053466796875</LatitudeDegrees>
              <LongitudeDegrees>-4.01282331906259059906005859375</LongitudeDegrees>
            </Position>
            <AltitudeMeters>656.20001220703125</AltitudeMeters>
            <DistanceMeters>NAN</DistanceMeters>
          </Trackpoint>
          <Trackpoint>
            <Time>2019-08-01T10:07:22.000Z</Time>
            <Position>
              <LatitudeDegrees>40.4639089666306972503662109375</LatitudeDegrees>
              <LongitudeDegrees>-4.0128862671554088592529296875</LongitudeDegrees>
            </Position>
            <AltitudeMeters>656.4000244140625</AltitudeMeters>
            <DistanceMeters>NAN</DistanceMeters>
          </Trackpoint>
          <Trackpoint>
            <Time>2019-08-01T10:07:23.000Z</Time>
            <Position>
              <LatitudeDegrees>40.46398046426475048065185546875</LatitudeDegrees>
              <LongitudeDegrees>-4.01293681003153324127197265625</LongitudeDegrees>
            </Position>
            <AltitudeMeters>656.5999755859375</AltitudeMeters>
            <DistanceMeters>NAN</DistanceMeters>
          </Trackpoint>
          <Trackpoint>
            <Time>2019-08-01T10:07:24.000Z</Time>
            <Position>
              <LatitudeDegrees>40.46405422501266002655029296875</LatitudeDegrees>
              <LongitudeDegrees>-4.01297905482351779937744140625</LongitudeDegrees>
            </Position>
            <AltitudeMeters>656.5999755859375</AltitudeMeters>
            <DistanceMeters>NAN</DistanceMeters>
          </Trackpoint>
          <Trackpoint>
            <Time>2019-08-01T10:07:25.000Z</Time>
            <Position>
              <LatitudeDegrees>40.4641289077699184417724609375</LatitudeDegrees>
              <LongitudeDegrees>-4.01302046142518520355224609375</LongitudeDegrees>
            </Position>
            <AltitudeMeters>656.5999755859375</AltitudeMeters>
            <DistanceMeters>NAN</DistanceMeters>
          </Trackpoint>
          <Trackpoint>
            <Time>2019-08-01T10:07:26.000Z</Time>
            <Position>
              <LatitudeDegrees>40.4641289077699184417724609375</LatitudeDegrees>
              <LongitudeDegrees>-4.01302046142518520355224609375</LongitudeDegrees>
            </Position>
            <AltitudeMeters>656.5999755859375</AltitudeMeters>
            <DistanceMeters>NAN</DistanceMeters>
          </Trackpoint>
          <Trackpoint>
            <Time>2019-08-01T10:07:27.000Z</Time>
            <Position>
              <LatitudeDegrees>40.46428020112216472625732421875</LatitudeDegrees>
              <LongitudeDegrees>-4.01310008950531482696533203125</LongitudeDegrees>
            </Position>
            <AltitudeMeters>656.5999755859375</AltitudeMeters>
            <DistanceMeters>NAN</DistanceMeters>
          </Trackpoint>
          <Trackpoint>
            <Time>2019-08-01T10:07:28.000Z</Time>
            <Position>
              <LatitudeDegrees>40.4643555544316768646240234375</LatitudeDegrees>
              <LongitudeDegrees>-4.013139568269252777099609375</LongitudeDegrees>
            </Position>
            <AltitudeMeters>656.5999755859375</AltitudeMeters>
            <DistanceMeters>NAN</DistanceMeters>
          </Trackpoint>
          <Trackpoint>
            <Time>2019-08-01T10:07:29.000Z</Time>
            <Position>
              <LatitudeDegrees>40.4644306562840938568115234375</LatitudeDegrees>
              <LongitudeDegrees>-4.013179801404476165771484375</LongitudeDegrees>
            </Position>
            <AltitudeMeters>656.5999755859375</AltitudeMeters>
            <DistanceMeters>NAN</DistanceMeters>
          </Trackpoint>
          <Trackpoint>
            <Time>2019-08-01T10:07:30.000Z</Time>
            <Position>
              <LatitudeDegrees>40.46450718306005001068115234375</LatitudeDegrees>
              <LongitudeDegrees>-4.01322028599679470062255859375</LongitudeDegrees>
            </Position>
            <AltitudeMeters>656.5999755859375</AltitudeMeters>
            <DistanceMeters>NAN</DistanceMeters>
          </Trackpoint>
          <Trackpoint>
            <Time>2019-08-01T10:07:31.000Z</Time>
            <Position>
              <LatitudeDegrees>40.464583374559879302978515625</LatitudeDegrees>
              <LongitudeDegrees>-4.0132590942084789276123046875</LongitudeDegrees>
            </Position>
            <AltitudeMeters>656.4000244140625</AltitudeMeters>
            <DistanceMeters>NAN</DistanceMeters>
          </Trackpoint>
          <Trackpoint>
            <Time>2019-08-01T10:07:32.000Z</Time>
            <Position>
              <LatitudeDegrees>40.46465973369777202606201171875</LatitudeDegrees>
              <LongitudeDegrees>-4.01329807005822658538818359375</LongitudeDegrees>
            </Position>
            <AltitudeMeters>656.4000244140625</AltitudeMeters>
            <DistanceMeters>NAN</DistanceMeters>
          </Trackpoint>
          <Trackpoint>
            <Time>2019-08-01T10:07:33.000Z</Time>
            <Position>
              <LatitudeDegrees>40.4647364281117916107177734375</LatitudeDegrees>
              <LongitudeDegrees>-4.01333662681281566619873046875</LongitudeDegrees>
            </Position>
            <AltitudeMeters>656.4000244140625</AltitudeMeters>
            <DistanceMeters>NAN</DistanceMeters>
          </Trackpoint>
          <Trackpoint>
            <Time>2019-08-01T10:07:34.000Z</Time>
            <Position>
              <LatitudeDegrees>40.46481303870677947998046875</LatitudeDegrees>
              <LongitudeDegrees>-4.01337568648159503936767578125</LongitudeDegrees>
            </Position>
            <AltitudeMeters>656.5999755859375</AltitudeMeters>
            <DistanceMeters>NAN</DistanceMeters>
          </Trackpoint>
          <Trackpoint>
            <Time>2019-08-01T10:07:35.000Z</Time>
            <Position>
              <LatitudeDegrees>40.4648896493017673492431640625</LatitudeDegrees>
              <LongitudeDegrees>-4.01341424323618412017822265625</LongitudeDegrees>
            </Position>
            <AltitudeMeters>656.5999755859375</AltitudeMeters>
            <DistanceMeters>NAN</DistanceMeters>
          </Trackpoint>
          <Trackpoint>
            <Time>2019-08-01T10:07:36.000Z</Time>
            <Position>
              <LatitudeDegrees>40.46496617607772350311279296875</LatitudeDegrees>
              <LongitudeDegrees>-4.013452045619487762451171875</LongitudeDegrees>
            </Position>
            <AltitudeMeters>656.5999755859375</AltitudeMeters>
            <DistanceMeters>NAN</DistanceMeters>
          </Trackpoint>
          <Trackpoint>
            <Time>2019-08-01T10:07:37.000Z</Time>
            <Position>
              <LatitudeDegrees>40.4650425352156162261962890625</LatitudeDegrees>
              <LongitudeDegrees>-4.01349001564085483551025390625</LongitudeDegrees>
            </Position>
            <AltitudeMeters>656.5999755859375</AltitudeMeters>
            <DistanceMeters>NAN</DistanceMeters>
          </Trackpoint>
          <Trackpoint>
            <Time>2019-08-01T10:07:38.000Z</Time>
            <Position>
              <LatitudeDegrees>40.46511872671544551849365234375</LatitudeDegrees>
              <LongitudeDegrees>-4.01352840475738048553466796875</LongitudeDegrees>
            </Position>
            <AltitudeMeters>656.5999755859375</AltitudeMeters>
            <DistanceMeters>NAN</DistanceMeters>
          </Trackpoint>
          <Trackpoint>
            <Time>2019-08-01T10:07:39.000Z</Time>
            <Position>
              <LatitudeDegrees>40.46519458293914794921875</LatitudeDegrees>
              <LongitudeDegrees>-4.01356696151196956634521484375</LongitudeDegrees>
            </Position>
            <AltitudeMeters>656.5999755859375</AltitudeMeters>
            <DistanceMeters>NAN</DistanceMeters>
          </Trackpoint>
          <Trackpoint>
            <Time>2019-08-01T10:07:40.000Z</Time>
            <Position>
              <LatitudeDegrees>40.4652705229818820953369140625</LatitudeDegrees>
              <LongitudeDegrees>-4.013606272637844085693359375</LongitudeDegrees>
            </Position>
            <AltitudeMeters>656.5999755859375</AltitudeMeters>
            <DistanceMeters>NAN</DistanceMeters>
          </Trackpoint>
          <Trackpoint>
            <Time>2019-08-01T10:07:41.000Z</Time>
            <Position>
              <LatitudeDegrees>40.4653466306626796722412109375</LatitudeDegrees>
              <LongitudeDegrees>-4.0136446617543697357177734375</LongitudeDegrees>
            </Position>
            <AltitudeMeters>656.5999755859375</AltitudeMeters>
            <DistanceMeters>NAN</DistanceMeters>
          </Trackpoint>
          <Trackpoint>
            <Time>2019-08-01T10:07:42.000Z</Time>
            <Position>
              <LatitudeDegrees>40.4654227383434772491455078125</LatitudeDegrees>
              <LongitudeDegrees>-4.01368330232799053192138671875</LongitudeDegrees>
            </Position>
            <AltitudeMeters>656.5999755859375</AltitudeMeters>
            <DistanceMeters>NAN</DistanceMeters>
          </Trackpoint>
          <Trackpoint>
            <Time>2019-08-01T10:07:43.000Z</Time>
            <Position>
              <LatitudeDegrees>40.46549825929105281829833984375</LatitudeDegrees>
              <LongitudeDegrees>-4.0137231163680553436279296875</LongitudeDegrees>
            </Position>
            <AltitudeMeters>656.79998779296875</AltitudeMeters>
            <DistanceMeters>NAN</DistanceMeters>
          </Trackpoint>
          <Trackpoint>
            <Time>2019-08-01T10:07:44.000Z</Time>
            <Position>
              <LatitudeDegrees>40.4655746184289455413818359375</LatitudeDegrees>
              <LongitudeDegrees>-4.01376150548458099365234375</LongitudeDegrees>
            </Position>
            <AltitudeMeters>656.79998779296875</AltitudeMeters>
            <DistanceMeters>NAN</DistanceMeters>
          </Trackpoint>
          <Trackpoint>
            <Time>2019-08-01T10:07:45.000Z</Time>
            <Position>
              <LatitudeDegrees>40.46565131284296512603759765625</LatitudeDegrees>
              <LongitudeDegrees>-4.01379846967756748199462890625</LongitudeDegrees>
            </Position>
            <AltitudeMeters>656.79998779296875</AltitudeMeters>
            <DistanceMeters>NAN</DistanceMeters>
          </Trackpoint>
          <Trackpoint>
            <Time>2019-08-01T10:07:46.000Z</Time>
            <Position>
              <LatitudeDegrees>40.46572792343795299530029296875</LatitudeDegrees>
              <LongitudeDegrees>-4.01383551768958568572998046875</LongitudeDegrees>
            </Position>
            <AltitudeMeters>656.79998779296875</AltitudeMeters>
            <DistanceMeters>NAN</DistanceMeters>
          </Trackpoint>
          <Trackpoint>
            <Time>2019-08-01T10:07:47.000Z</Time>
            <Position>
              <LatitudeDegrees>40.46580419875681400299072265625</LatitudeDegrees>
              <LongitudeDegrees>-4.0138721466064453125</LongitudeDegrees>
            </Position>
            <AltitudeMeters>657</AltitudeMeters>
            <DistanceMeters>NAN</DistanceMeters>
          </Trackpoint>
          <Trackpoint>
            <Time>2019-08-01T10:07:48.000Z</Time>
            <Position>
              <LatitudeDegrees>40.46588013879954814910888671875</LatitudeDegrees>
              <LongitudeDegrees>-4.01390969753265380859375</LongitudeDegrees>
            </Position>
            <AltitudeMeters>657</AltitudeMeters>
            <DistanceMeters>NAN</DistanceMeters>
          </Trackpoint>
          <Trackpoint>
            <Time>2019-08-01T10:07:49.000Z</Time>
            <Position>
              <LatitudeDegrees>40.4659554921090602874755859375</LatitudeDegrees>
              <LongitudeDegrees>-4.01394800283014774322509765625</LongitudeDegrees>
            </Position>
            <AltitudeMeters>657.20001220703125</AltitudeMeters>
            <DistanceMeters>NAN</DistanceMeters>
          </Trackpoint>
          <Trackpoint>
            <Time>2019-08-01T10:07:50.000Z</Time>
            <Position>
              <LatitudeDegrees>40.46603034250438213348388671875</LatitudeDegrees>
              <LongitudeDegrees>-4.01398605667054653167724609375</LongitudeDegrees>
            </Position>
            <AltitudeMeters>657.20001220703125</AltitudeMeters>
            <DistanceMeters>NAN</DistanceMeters>
          </Trackpoint>
          <Trackpoint>
            <Time>2019-08-01T10:07:51.000Z</Time>
            <Position>
              <LatitudeDegrees>40.46610494144260883331298828125</LatitudeDegrees>
              <LongitudeDegrees>-4.01402427814900875091552734375</LongitudeDegrees>
            </Position>
            <AltitudeMeters>657.4000244140625</AltitudeMeters>
            <DistanceMeters>NAN</DistanceMeters>
          </Trackpoint>
          <Trackpoint>
            <Time>2019-08-01T10:07:52.000Z</Time>
            <Position>
              <LatitudeDegrees>40.46610494144260883331298828125</LatitudeDegrees>
              <LongitudeDegrees>-4.01402427814900875091552734375</LongitudeDegrees>
            </Position>
            <AltitudeMeters>657.4000244140625</AltitudeMeters>
            <DistanceMeters>NAN</DistanceMeters>
          </Trackpoint>
          <Trackpoint>
            <Time>2019-08-01T10:07:53.000Z</Time>
            <Position>
              <LatitudeDegrees>40.46625397168099880218505859375</LatitudeDegrees>
              <LongitudeDegrees>-4.01409954763948917388916015625</LongitudeDegrees>
            </Position>
            <AltitudeMeters>657.4000244140625</AltitudeMeters>
            <DistanceMeters>NAN</DistanceMeters>
          </Trackpoint>
          <Trackpoint>
            <Time>2019-08-01T10:07:54.000Z</Time>
            <Position>
              <LatitudeDegrees>40.46632857061922550201416015625</LatitudeDegrees>
              <LongitudeDegrees>-4.014136008918285369873046875</LongitudeDegrees>
            </Position>
            <AltitudeMeters>657.4000244140625</AltitudeMeters>
            <DistanceMeters>NAN</DistanceMeters>
          </Trackpoint>
          <Trackpoint>
            <Time>2019-08-01T10:07:55.000Z</Time>
            <Position>
              <LatitudeDegrees>40.466403923928737640380859375</LatitudeDegrees>
              <LongitudeDegrees>-4.014172889292240142822265625</LongitudeDegrees>
            </Position>
            <AltitudeMeters>657.4000244140625</AltitudeMeters>
            <DistanceMeters>NAN</DistanceMeters>
          </Trackpoint>
          <Trackpoint>
            <Time>2019-08-01T10:07:56.000Z</Time>
            <Position>
              <LatitudeDegrees>40.466479361057281494140625</LatitudeDegrees>
              <LongitudeDegrees>-4.01420951820909976959228515625</LongitudeDegrees>
            </Position>
            <AltitudeMeters>657.5999755859375</AltitudeMeters>
            <DistanceMeters>NAN</DistanceMeters>
          </Trackpoint>
          <Trackpoint>
            <Time>2019-08-01T10:07:57.000Z</Time>
            <Position>
              <LatitudeDegrees>40.46655521728098392486572265625</LatitudeDegrees>
              <LongitudeDegrees>-4.01424556039273738861083984375</LongitudeDegrees>
            </Position>
            <AltitudeMeters>657.5999755859375</AltitudeMeters>
            <DistanceMeters>NAN</DistanceMeters>
          </Trackpoint>
          <Trackpoint>
            <Time>2019-08-01T10:07:58.000Z</Time>
            <Position>
              <LatitudeDegrees>40.46663098968565464019775390625</LatitudeDegrees>
              <LongitudeDegrees>-4.014281518757343292236328125</LongitudeDegrees>
            </Position>
            <AltitudeMeters>657.5999755859375</AltitudeMeters>
            <DistanceMeters>NAN</DistanceMeters>
          </Trackpoint>
          <Trackpoint>
            <Time>2019-08-01T10:07:59.000Z</Time>
            <Position>
              <LatitudeDegrees>40.46670676209032535552978515625</LatitudeDegrees>
              <LongitudeDegrees>-4.01431697420775890350341796875</LongitudeDegrees>
            </Position>
            <AltitudeMeters>657.79998779296875</AltitudeMeters>
            <DistanceMeters>NAN</DistanceMeters>
          </Trackpoint>
          <Trackpoint>
            <Time>2019-08-01T10:08:00.000Z</Time>
            <Position>
              <LatitudeDegrees>40.46678253449499607086181640625</LatitudeDegrees>
              <LongitudeDegrees>-4.0143510885536670684814453125</LongitudeDegrees>
            </Position>
            <AltitudeMeters>658</AltitudeMeters>
            <DistanceMeters>NAN</DistanceMeters>
          </Trackpoint>
          <Trackpoint>
            <Time>2019-08-01T10:08:01.000Z</Time>
            <Position>
              <LatitudeDegrees>40.46685797162353992462158203125</LatitudeDegrees>
              <LongitudeDegrees>-4.014384448528289794921875</LongitudeDegrees>
            </Position>
            <AltitudeMeters>657.79998779296875</AltitudeMeters>
            <DistanceMeters>NAN</DistanceMeters>
          </Trackpoint>
          <Trackpoint>
            <Time>2019-08-01T10:08:02.000Z</Time>
            <Position>
              <LatitudeDegrees>40.4669328220188617706298828125</LatitudeDegrees>
              <LongitudeDegrees>-4.014416970312595367431640625</LongitudeDegrees>
            </Position>
            <AltitudeMeters>657.79998779296875</AltitudeMeters>
            <DistanceMeters>NAN</DistanceMeters>
          </Trackpoint>
          <Trackpoint>
            <Time>2019-08-01T10:08:03.000Z</Time>
            <Position>
              <LatitudeDegrees>40.467007420957088470458984375</LatitudeDegrees>
              <LongitudeDegrees>-4.01444789953529834747314453125</LongitudeDegrees>
            </Position>
            <AltitudeMeters>658.20001220703125</AltitudeMeters>
            <DistanceMeters>NAN</DistanceMeters>
          </Trackpoint>
          <Trackpoint>
            <Time>2019-08-01T10:08:04.000Z</Time>
            <Position>
              <LatitudeDegrees>40.46708176843822002410888671875</LatitudeDegrees>
              <LongitudeDegrees>-4.01447639800608158111572265625</LongitudeDegrees>
            </Position>
            <AltitudeMeters>658.20001220703125</AltitudeMeters>
            <DistanceMeters>NAN</DistanceMeters>
          </Trackpoint>
          <Trackpoint>
            <Time>2019-08-01T10:08:05.000Z</Time>
            <Position>
              <LatitudeDegrees>40.46715569682419300079345703125</LatitudeDegrees>
              <LongitudeDegrees>-4.01450179517269134521484375</LongitudeDegrees>
            </Position>
            <AltitudeMeters>658.20001220703125</AltitudeMeters>
            <DistanceMeters>NAN</DistanceMeters>
          </Trackpoint>
          <Trackpoint>
            <Time>2019-08-01T10:08:06.000Z</Time>
            <Position>
              <LatitudeDegrees>40.46722895465791225433349609375</LatitudeDegrees>
              <LongitudeDegrees>-4.0145261026918888092041015625</LongitudeDegrees>
            </Position>
            <AltitudeMeters>658.20001220703125</AltitudeMeters>
            <DistanceMeters>NAN</DistanceMeters>
          </Trackpoint>
          <Trackpoint>
            <Time>2019-08-01T10:08:07.000Z</Time>
            <Position>
              <LatitudeDegrees>40.467301122844219207763671875</LatitudeDegrees>
              <LongitudeDegrees>-4.0145482309162616729736328125</LongitudeDegrees>
            </Position>
            <AltitudeMeters>658.20001220703125</AltitudeMeters>
            <DistanceMeters>NAN</DistanceMeters>
          </Trackpoint>
          <Trackpoint>
            <Time>2019-08-01T10:08:08.000Z</Time>
            <Position>
              <LatitudeDegrees>40.467301122844219207763671875</LatitudeDegrees>
              <LongitudeDegrees>-4.0145482309162616729736328125</LongitudeDegrees>
            </Position>
            <AltitudeMeters>658.4000244140625</AltitudeMeters>
            <DistanceMeters>NAN</DistanceMeters>
          </Trackpoint>
          <Trackpoint>
            <Time>2019-08-01T10:08:09.000Z</Time>
            <Position>
              <LatitudeDegrees>40.46744286082684993743896484375</LatitudeDegrees>
              <LongitudeDegrees>-4.0145884640514850616455078125</LongitudeDegrees>
            </Position>
            <AltitudeMeters>658.4000244140625</AltitudeMeters>
            <DistanceMeters>NAN</DistanceMeters>
          </Trackpoint>
          <Trackpoint>
            <Time>2019-08-01T10:08:10.000Z</Time>
            <Position>
              <LatitudeDegrees>40.46751259826123714447021484375</LatitudeDegrees>
              <LongitudeDegrees>-4.01460698805749416351318359375</LongitudeDegrees>
            </Position>
            <AltitudeMeters>658.5999755859375</AltitudeMeters>
            <DistanceMeters>NAN</DistanceMeters>
          </Trackpoint>
          <Trackpoint>
            <Time>2019-08-01T10:08:11.000Z</Time>
            <Position>
              <LatitudeDegrees>40.46758132986724376678466796875</LatitudeDegrees>
              <LongitudeDegrees>-4.01462375186383724212646484375</LongitudeDegrees>
            </Position>
            <AltitudeMeters>658.5999755859375</AltitudeMeters>
            <DistanceMeters>NAN</DistanceMeters>
          </Trackpoint>
          <Trackpoint>
            <Time>2019-08-01T10:08:12.000Z</Time>
            <Position>
              <LatitudeDegrees>40.467648804187774658203125</LatitudeDegrees>
              <LongitudeDegrees>-4.01463749818503856658935546875</LongitudeDegrees>
            </Position>
            <AltitudeMeters>658.79998779296875</AltitudeMeters>
            <DistanceMeters>NAN</DistanceMeters>
          </Trackpoint>
          <Trackpoint>
            <Time>2019-08-01T10:08:13.000Z</Time>
            <Position>
              <LatitudeDegrees>40.46771510504186153411865234375</LatitudeDegrees>
              <LongitudeDegrees>-4.0146504901349544525146484375</LongitudeDegrees>
            </Position>
            <AltitudeMeters>659</AltitudeMeters>
            <DistanceMeters>NAN</DistanceMeters>
          </Trackpoint>
          <Trackpoint>
            <Time>2019-08-01T10:08:14.000Z</Time>
            <Position>
              <LatitudeDegrees>40.4677807353436946868896484375</LatitudeDegrees>
              <LongitudeDegrees>-4.01466364972293376922607421875</LongitudeDegrees>
            </Position>
            <AltitudeMeters>659.20001220703125</AltitudeMeters>
            <DistanceMeters>NAN</DistanceMeters>
          </Trackpoint>
          <Trackpoint>
            <Time>2019-08-01T10:08:15.000Z</Time>
            <Position>
              <LatitudeDegrees>40.46784569509327411651611328125</LatitudeDegrees>
              <LongitudeDegrees>-4.01467773132026195526123046875</LongitudeDegrees>
            </Position>
            <AltitudeMeters>659.5999755859375</AltitudeMeters>
            <DistanceMeters>NAN</DistanceMeters>
          </Trackpoint>
          <Trackpoint>
            <Time>2019-08-01T10:08:16.000Z</Time>
            <Position>
              <LatitudeDegrees>40.4679103195667266845703125</LatitudeDegrees>
              <LongitudeDegrees>-4.01469164527952671051025390625</LongitudeDegrees>
            </Position>
            <AltitudeMeters>660</AltitudeMeters>
            <DistanceMeters>NAN</DistanceMeters>
          </Trackpoint>
          <Trackpoint>
            <Time>2019-08-01T10:08:17.000Z</Time>
            <Position>
              <LatitudeDegrees>40.4679746925830841064453125</LatitudeDegrees>
              <LongitudeDegrees>-4.01470472104847431182861328125</LongitudeDegrees>
            </Position>
            <AltitudeMeters>660.20001220703125</AltitudeMeters>
            <DistanceMeters>NAN</DistanceMeters>
          </Trackpoint>
          <Trackpoint>
            <Time>2019-08-01T10:08:18.000Z</Time>
            <Position>
              <LatitudeDegrees>40.46803881414234638214111328125</LatitudeDegrees>
              <LongitudeDegrees>-4.0147168748080730438232421875</LongitudeDegrees>
            </Position>
            <AltitudeMeters>660.4000244140625</AltitudeMeters>
            <DistanceMeters>NAN</DistanceMeters>
          </Trackpoint>
          <Trackpoint>
            <Time>2019-08-01T10:08:19.000Z</Time>
            <Position>
              <LatitudeDegrees>40.46810276806354522705078125</LatitudeDegrees>
              <LongitudeDegrees>-4.0147296153008937835693359375</LongitudeDegrees>
            </Position>
            <AltitudeMeters>660.79998779296875</AltitudeMeters>
            <DistanceMeters>NAN</DistanceMeters>
          </Trackpoint>
          <Trackpoint>
            <Time>2019-08-01T10:08:20.000Z</Time>
            <Position>
              <LatitudeDegrees>40.46816579997539520263671875</LatitudeDegrees>
              <LongitudeDegrees>-4.0147436968982219696044921875</LongitudeDegrees>
            </Position>
            <AltitudeMeters>661.20001220703125</AltitudeMeters>
            <DistanceMeters>NAN</DistanceMeters>
          </Trackpoint>
          <Trackpoint>
            <Time>2019-08-01T10:08:21.000Z</Time>
            <Position>
              <LatitudeDegrees>40.4682286642491817474365234375</LatitudeDegrees>
              <LongitudeDegrees>-4.014758281409740447998046875</LongitudeDegrees>
            </Position>
            <AltitudeMeters>661.4000244140625</AltitudeMeters>
            <DistanceMeters>NAN</DistanceMeters>
          </Trackpoint>
          <Trackpoint>
            <Time>2019-08-01T10:08:22.000Z</Time>
            <Position>
              <LatitudeDegrees>40.46829161234200000762939453125</LatitudeDegrees>
              <LongitudeDegrees>-4.01477244682610034942626953125</LongitudeDegrees>
            </Position>
            <AltitudeMeters>661.79998779296875</AltitudeMeters>
            <DistanceMeters>NAN</DistanceMeters>
          </Trackpoint>
          <Trackpoint>
            <Time>2019-08-01T10:08:23.000Z</Time>
            <Position>
              <LatitudeDegrees>40.4683543927967548370361328125</LatitudeDegrees>
              <LongitudeDegrees>-4.0147862769663333892822265625</LongitudeDegrees>
            </Position>
            <AltitudeMeters>662.20001220703125</AltitudeMeters>
            <DistanceMeters>NAN</DistanceMeters>
          </Trackpoint>
          <Trackpoint>
            <Time>2019-08-01T10:08:24.000Z</Time>
            <Position>
              <LatitudeDegrees>40.4684170894324779510498046875</LatitudeDegrees>
              <LongitudeDegrees>-4.014799855649471282958984375</LongitudeDegrees>
            </Position>
            <AltitudeMeters>662.4000244140625</AltitudeMeters>
            <DistanceMeters>NAN</DistanceMeters>
          </Trackpoint>
          <Trackpoint>
            <Time>2019-08-01T10:08:25.000Z</Time>
            <Position>
              <LatitudeDegrees>40.46847961843013763427734375</LatitudeDegrees>
              <LongitudeDegrees>-4.01481234468519687652587890625</LongitudeDegrees>
            </Position>
            <AltitudeMeters>662.79998779296875</AltitudeMeters>
            <DistanceMeters>NAN</DistanceMeters>
          </Trackpoint>
          <Trackpoint>
            <Time>2019-08-01T10:08:26.000Z</Time>
            <Position>
              <LatitudeDegrees>40.4685406386852264404296875</LatitudeDegrees>
              <LongitudeDegrees>-4.0148244984447956085205078125</LongitudeDegrees>
            </Position>
            <AltitudeMeters>662.79998779296875</AltitudeMeters>
            <DistanceMeters>NAN</DistanceMeters>
          </Trackpoint>
          <Trackpoint>
            <Time>2019-08-01T10:08:27.000Z</Time>
            <Position>
              <LatitudeDegrees>40.46860056929290294647216796875</LatitudeDegrees>
              <LongitudeDegrees>-4.01483631692826747894287109375</LongitudeDegrees>
            </Position>
            <AltitudeMeters>663</AltitudeMeters>
            <DistanceMeters>NAN</DistanceMeters>
          </Trackpoint>
          <Trackpoint>
            <Time>2019-08-01T10:08:28.000Z</Time>
            <Position>
              <LatitudeDegrees>40.46866066753864288330078125</LatitudeDegrees>
              <LongitudeDegrees>-4.01484771631658077239990234375</LongitudeDegrees>
            </Position>
            <AltitudeMeters>663.20001220703125</AltitudeMeters>
            <DistanceMeters>NAN</DistanceMeters>
          </Trackpoint>
          <Trackpoint>
            <Time>2019-08-01T10:08:29.000Z</Time>
            <Position>
              <LatitudeDegrees>40.46872059814631938934326171875</LatitudeDegrees>
              <LongitudeDegrees>-4.01485911570489406585693359375</LongitudeDegrees>
            </Position>
            <AltitudeMeters>663.4000244140625</AltitudeMeters>
            <DistanceMeters>NAN</DistanceMeters>
          </Trackpoint>
          <Trackpoint>
            <Time>2019-08-01T10:08:30.000Z</Time>
            <Position>
              <LatitudeDegrees>40.46878044493496417999267578125</LatitudeDegrees>
              <LongitudeDegrees>-4.01486984454095363616943359375</LongitudeDegrees>
            </Position>
            <AltitudeMeters>663.5999755859375</AltitudeMeters>
            <DistanceMeters>NAN</DistanceMeters>
          </Trackpoint>
          <Trackpoint>
            <Time>2019-08-01T10:08:31.000Z</Time>
            <Position>
              <LatitudeDegrees>40.46883995644748210906982421875</LatitudeDegrees>
              <LongitudeDegrees>-4.01488107629120349884033203125</LongitudeDegrees>
            </Position>
            <AltitudeMeters>664</AltitudeMeters>
            <DistanceMeters>NAN</DistanceMeters>
          </Trackpoint>
          <Trackpoint>
            <Time>2019-08-01T10:08:32.000Z</Time>
            <Position>
              <LatitudeDegrees>40.46889896504580974578857421875</LatitudeDegrees>
              <LongitudeDegrees>-4.01489331386983394622802734375</LongitudeDegrees>
            </Position>
            <AltitudeMeters>664</AltitudeMeters>
            <DistanceMeters>NAN</DistanceMeters>
          </Trackpoint>
          <Trackpoint>
            <Time>2019-08-01T10:08:33.000Z</Time>
            <Position>
              <LatitudeDegrees>40.46895797364413738250732421875</LatitudeDegrees>
              <LongitudeDegrees>-4.0149059705436229705810546875</LongitudeDegrees>
            </Position>
            <AltitudeMeters>664.20001220703125</AltitudeMeters>
            <DistanceMeters>NAN</DistanceMeters>
          </Trackpoint>
          <Trackpoint>
            <Time>2019-08-01T10:08:34.000Z</Time>
            <Position>
              <LatitudeDegrees>40.46901664696633815765380859375</LatitudeDegrees>
              <LongitudeDegrees>-4.0149193815886974334716796875</LongitudeDegrees>
            </Position>
            <AltitudeMeters>664.5999755859375</AltitudeMeters>
            <DistanceMeters>NAN</DistanceMeters>
          </Trackpoint>
          <Trackpoint>
            <Time>2019-08-01T10:08:35.000Z</Time>
            <Position>
              <LatitudeDegrees>40.46907515265047550201416015625</LatitudeDegrees>
              <LongitudeDegrees>-4.014931954443454742431640625</LongitudeDegrees>
            </Position>
            <AltitudeMeters>664.79998779296875</AltitudeMeters>
            <DistanceMeters>NAN</DistanceMeters>
          </Trackpoint>
          <Trackpoint>
            <Time>2019-08-01T10:08:36.000Z</Time>
            <Position>
              <LatitudeDegrees>40.46913332305848598480224609375</LatitudeDegrees>
              <LongitudeDegrees>-4.01494427584111690521240234375</LongitudeDegrees>
            </Position>
            <AltitudeMeters>665</AltitudeMeters>
            <DistanceMeters>NAN</DistanceMeters>
          </Trackpoint>
          <Trackpoint>
            <Time>2019-08-01T10:08:37.000Z</Time>
            <Position>
              <LatitudeDegrees>40.46919166110455989837646484375</LatitudeDegrees>
              <LongitudeDegrees>-4.0149571001529693603515625</LongitudeDegrees>
            </Position>
            <AltitudeMeters>665.20001220703125</AltitudeMeters>
            <DistanceMeters>NAN</DistanceMeters>
          </Trackpoint>
          <Trackpoint>
            <Time>2019-08-01T10:08:38.000Z</Time>
            <Position>
              <LatitudeDegrees>40.46924966387450695037841796875</LatitudeDegrees>
              <LongitudeDegrees>-4.01496975682675838470458984375</LongitudeDegrees>
            </Position>
            <AltitudeMeters>665.4000244140625</AltitudeMeters>
            <DistanceMeters>NAN</DistanceMeters>
          </Trackpoint>
          <Trackpoint>
            <Time>2019-08-01T10:08:39.000Z</Time>
            <Position>
              <LatitudeDegrees>40.4693079181015491485595703125</LatitudeDegrees>
              <LongitudeDegrees>-4.0149820782244205474853515625</LongitudeDegrees>
            </Position>
            <AltitudeMeters>665.5999755859375</AltitudeMeters>
            <DistanceMeters>NAN</DistanceMeters>
          </Trackpoint>
          <Trackpoint>
            <Time>2019-08-01T10:08:40.000Z</Time>
            <Position>
              <LatitudeDegrees>40.46936617232859134674072265625</LatitudeDegrees>
              <LongitudeDegrees>-4.01499389670789241790771484375</LongitudeDegrees>
            </Position>
            <AltitudeMeters>665.5999755859375</AltitudeMeters>
            <DistanceMeters>NAN</DistanceMeters>
          </Trackpoint>
          <Trackpoint>
            <Time>2019-08-01T10:08:41.000Z</Time>
            <Position>
              <LatitudeDegrees>40.46942451037466526031494140625</LatitudeDegrees>
              <LongitudeDegrees>-4.01500496082007884979248046875</LongitudeDegrees>
            </Position>
            <AltitudeMeters>665.79998779296875</AltitudeMeters>
            <DistanceMeters>NAN</DistanceMeters>
          </Trackpoint>
          <Trackpoint>
            <Time>2019-08-01T10:08:42.000Z</Time>
            <Position>
              <LatitudeDegrees>40.46948301605880260467529296875</LatitudeDegrees>
              <LongitudeDegrees>-4.01501619257032871246337890625</LongitudeDegrees>
            </Position>
            <AltitudeMeters>665.79998779296875</AltitudeMeters>
            <DistanceMeters>NAN</DistanceMeters>
          </Trackpoint>
          <Trackpoint>
            <Time>2019-08-01T10:08:43.000Z</Time>
            <Position>
              <LatitudeDegrees>40.46954185701906681060791015625</LatitudeDegrees>
              <LongitudeDegrees>-4.01502356864511966705322265625</LongitudeDegrees>
            </Position>
            <AltitudeMeters>666.20001220703125</AltitudeMeters>
            <DistanceMeters>NAN</DistanceMeters>
          </Trackpoint>
          <Trackpoint>
            <Time>2019-08-01T10:08:44.000Z</Time>
            <Position>
              <LatitudeDegrees>40.46954185701906681060791015625</LatitudeDegrees>
              <LongitudeDegrees>-4.01502356864511966705322265625</LongitudeDegrees>
            </Position>
            <AltitudeMeters>666.4000244140625</AltitudeMeters>
            <DistanceMeters>NAN</DistanceMeters>
          </Trackpoint>
          <Trackpoint>
            <Time>2019-08-01T10:08:45.000Z</Time>
            <Position>
              <LatitudeDegrees>40.46966188587248325347900390625</LatitudeDegrees>
              <LongitudeDegrees>-4.01502306573092937469482421875</LongitudeDegrees>
            </Position>
            <AltitudeMeters>666.79998779296875</AltitudeMeters>
            <DistanceMeters>NAN</DistanceMeters>
          </Trackpoint>
          <Trackpoint>
            <Time>2019-08-01T10:08:46.000Z</Time>
            <Position>
              <LatitudeDegrees>40.4697234928607940673828125</LatitudeDegrees>
              <LongitudeDegrees>-4.01502608321607112884521484375</LongitudeDegrees>
            </Position>
            <AltitudeMeters>667</AltitudeMeters>
            <DistanceMeters>NAN</DistanceMeters>
          </Trackpoint>
          <Trackpoint>
            <Time>2019-08-01T10:08:47.000Z</Time>
            <Position>
              <LatitudeDegrees>40.46978577040135860443115234375</LatitudeDegrees>
              <LongitudeDegrees>-4.01503396220505237579345703125</LongitudeDegrees>
            </Position>
            <AltitudeMeters>667.20001220703125</AltitudeMeters>
            <DistanceMeters>NAN</DistanceMeters>
          </Trackpoint>
          <Trackpoint>
            <Time>2019-08-01T10:08:48.000Z</Time>
            <Position>
              <LatitudeDegrees>40.46985022723674774169921875</LatitudeDegrees>
              <LongitudeDegrees>-4.01504351757466793060302734375</LongitudeDegrees>
            </Position>
            <AltitudeMeters>667.4000244140625</AltitudeMeters>
            <DistanceMeters>NAN</DistanceMeters>
          </Trackpoint>
          <Trackpoint>
            <Time>2019-08-01T10:08:49.000Z</Time>
            <Position>
              <LatitudeDegrees>40.4699161089956760406494140625</LatitudeDegrees>
              <LongitudeDegrees>-4.01505273766815662384033203125</LongitudeDegrees>
            </Position>
            <AltitudeMeters>667.5999755859375</AltitudeMeters>
            <DistanceMeters>NAN</DistanceMeters>
          </Trackpoint>
          <Trackpoint>
            <Time>2019-08-01T10:08:50.000Z</Time>
            <Position>
              <LatitudeDegrees>40.46998475678265094757080078125</LatitudeDegrees>
              <LongitudeDegrees>-4.0150612033903598785400390625</LongitudeDegrees>
            </Position>
            <AltitudeMeters>667.79998779296875</AltitudeMeters>
            <DistanceMeters>NAN</DistanceMeters>
          </Trackpoint>
          <Trackpoint>
            <Time>2019-08-01T10:08:51.000Z</Time>
            <Position>
              <LatitudeDegrees>40.47005432657897472381591796875</LatitudeDegrees>
              <LongitudeDegrees>-4.01506681926548480987548828125</LongitudeDegrees>
            </Position>
            <AltitudeMeters>667.79998779296875</AltitudeMeters>
            <DistanceMeters>NAN</DistanceMeters>
          </Trackpoint>
          <Trackpoint>
            <Time>2019-08-01T10:08:52.000Z</Time>
            <Position>
              <LatitudeDegrees>40.47012456692755222320556640625</LatitudeDegrees>
              <LongitudeDegrees>-4.015068747103214263916015625</LongitudeDegrees>
            </Position>
            <AltitudeMeters>668</AltitudeMeters>
            <DistanceMeters>NAN</DistanceMeters>
          </Trackpoint>
          <Trackpoint>
            <Time>2019-08-01T10:08:53.000Z</Time>
            <Position>
              <LatitudeDegrees>40.470195896923542022705078125</LatitudeDegrees>
              <LongitudeDegrees>-4.01506564579904079437255859375</LongitudeDegrees>
            </Position>
            <AltitudeMeters>668</AltitudeMeters>
            <DistanceMeters>NAN</DistanceMeters>
          </Trackpoint>
          <Trackpoint>
            <Time>2019-08-01T10:08:54.000Z</Time>
            <Position>
              <LatitudeDegrees>40.470195896923542022705078125</LatitudeDegrees>
              <LongitudeDegrees>-4.01506564579904079437255859375</LongitudeDegrees>
            </Position>
            <AltitudeMeters>668</AltitudeMeters>
            <DistanceMeters>NAN</DistanceMeters>
          </Trackpoint>
          <Trackpoint>
            <Time>2019-08-01T10:08:55.000Z</Time>
            <Position>
              <LatitudeDegrees>40.4703398980200290679931640625</LatitudeDegrees>
              <LongitudeDegrees>-4.015038907527923583984375</LongitudeDegrees>
            </Position>
            <AltitudeMeters>668</AltitudeMeters>
            <DistanceMeters>NAN</DistanceMeters>
          </Trackpoint>
          <Trackpoint>
            <Time>2019-08-01T10:08:56.000Z</Time>
            <Position>
              <LatitudeDegrees>40.470411814749240875244140625</LatitudeDegrees>
              <LongitudeDegrees>-4.01501535438001155853271484375</LongitudeDegrees>
            </Position>
            <AltitudeMeters>668</AltitudeMeters>
            <DistanceMeters>NAN</DistanceMeters>
          </Trackpoint>
          <Trackpoint>
            <Time>2019-08-01T10:08:57.000Z</Time>
            <Position>
              <LatitudeDegrees>40.47048180364072322845458984375</LatitudeDegrees>
              <LongitudeDegrees>-4.01498367078602313995361328125</LongitudeDegrees>
            </Position>
            <AltitudeMeters>668</AltitudeMeters>
            <DistanceMeters>NAN</DistanceMeters>
          </Trackpoint>
          <Trackpoint>
            <Time>2019-08-01T10:08:58.000Z</Time>
            <Position>
              <LatitudeDegrees>40.47054852358996868133544921875</LatitudeDegrees>
              <LongitudeDegrees>-4.0149425156414508819580078125</LongitudeDegrees>
            </Position>
            <AltitudeMeters>668</AltitudeMeters>
            <DistanceMeters>NAN</DistanceMeters>
          </Trackpoint>
          <Trackpoint>
            <Time>2019-08-01T10:08:59.000Z</Time>
            <Position>
              <LatitudeDegrees>40.47061054967343807220458984375</LatitudeDegrees>
              <LongitudeDegrees>-4.01489113457500934600830078125</LongitudeDegrees>
            </Position>
            <AltitudeMeters>667.79998779296875</AltitudeMeters>
            <DistanceMeters>NAN</DistanceMeters>
          </Trackpoint>
          <Trackpoint>
            <Time>2019-08-01T10:09:00.000Z</Time>
            <Position>
              <LatitudeDegrees>40.47061054967343807220458984375</LatitudeDegrees>
              <LongitudeDegrees>-4.01489113457500934600830078125</LongitudeDegrees>
            </Position>
            <AltitudeMeters>667.79998779296875</AltitudeMeters>
            <DistanceMeters>NAN</DistanceMeters>
          </Trackpoint>
          <Trackpoint>
            <Time>2019-08-01T10:09:01.000Z</Time>
            <Position>
              <LatitudeDegrees>40.47061054967343807220458984375</LatitudeDegrees>
              <LongitudeDegrees>-4.01489113457500934600830078125</LongitudeDegrees>
            </Position>
            <AltitudeMeters>667.5999755859375</AltitudeMeters>
            <DistanceMeters>NAN</DistanceMeters>
          </Trackpoint>
          <Trackpoint>
            <Time>2019-08-01T10:09:02.000Z</Time>
            <Position>
              <LatitudeDegrees>40.47073175199329853057861328125</LatitudeDegrees>
              <LongitudeDegrees>-4.0146618895232677459716796875</LongitudeDegrees>
            </Position>
            <AltitudeMeters>667.4000244140625</AltitudeMeters>
            <DistanceMeters>NAN</DistanceMeters>
          </Trackpoint>
          <Trackpoint>
            <Time>2019-08-01T10:09:03.000Z</Time>
            <Position>
              <LatitudeDegrees>40.4707472585141658782958984375</LatitudeDegrees>
              <LongitudeDegrees>-4.014571197330951690673828125</LongitudeDegrees>
            </Position>
            <AltitudeMeters>667.20001220703125</AltitudeMeters>
            <DistanceMeters>NAN</DistanceMeters>
          </Trackpoint>
          <Trackpoint>
            <Time>2019-08-01T10:09:04.000Z</Time>
            <Position>
              <LatitudeDegrees>40.47076343558728694915771484375</LatitudeDegrees>
              <LongitudeDegrees>-4.0144808404147624969482421875</LongitudeDegrees>
            </Position>
            <AltitudeMeters>667</AltitudeMeters>
            <DistanceMeters>NAN</DistanceMeters>
          </Trackpoint>
          <Trackpoint>
            <Time>2019-08-01T10:09:05.000Z</Time>
            <Position>
              <LatitudeDegrees>40.4707905091345310211181640625</LatitudeDegrees>
              <LongitudeDegrees>-4.0143946744501590728759765625</LongitudeDegrees>
            </Position>
            <AltitudeMeters>667</AltitudeMeters>
            <DistanceMeters>NAN</DistanceMeters>
          </Trackpoint>
          <Trackpoint>
            <Time>2019-08-01T10:09:06.000Z</Time>
            <Position>
              <LatitudeDegrees>40.47083065845072269439697265625</LatitudeDegrees>
              <LongitudeDegrees>-4.0143175609409809112548828125</LongitudeDegrees>
            </Position>
            <AltitudeMeters>666.79998779296875</AltitudeMeters>
            <DistanceMeters>NAN</DistanceMeters>
          </Trackpoint>
          <Trackpoint>
            <Time>2019-08-01T10:09:07.000Z</Time>
            <Position>
              <LatitudeDegrees>40.470881201326847076416015625</LatitudeDegrees>
              <LongitudeDegrees>-4.0142516791820526123046875</LongitudeDegrees>
            </Position>
            <AltitudeMeters>666.5999755859375</AltitudeMeters>
            <DistanceMeters>NAN</DistanceMeters>
          </Trackpoint>
          <Trackpoint>
            <Time>2019-08-01T10:09:08.000Z</Time>
            <Position>
              <LatitudeDegrees>40.4709403775632381439208984375</LatitudeDegrees>
              <LongitudeDegrees>-4.01419811882078647613525390625</LongitudeDegrees>
            </Position>
            <AltitudeMeters>666.5999755859375</AltitudeMeters>
            <DistanceMeters>NAN</DistanceMeters>
          </Trackpoint>
          <Trackpoint>
            <Time>2019-08-01T10:09:09.000Z</Time>
            <Position>
              <LatitudeDegrees>40.47100617550313472747802734375</LatitudeDegrees>
              <LongitudeDegrees>-4.0141596458852291107177734375</LongitudeDegrees>
            </Position>
            <AltitudeMeters>666.5999755859375</AltitudeMeters>
            <DistanceMeters>NAN</DistanceMeters>
          </Trackpoint>
          <Trackpoint>
            <Time>2019-08-01T10:09:10.000Z</Time>
            <Position>
              <LatitudeDegrees>40.47107641585171222686767578125</LatitudeDegrees>
              <LongitudeDegrees>-4.01413726620376110076904296875</LongitudeDegrees>
            </Position>
            <AltitudeMeters>666.5999755859375</AltitudeMeters>
            <DistanceMeters>NAN</DistanceMeters>
          </Trackpoint>
          <Trackpoint>
            <Time>2019-08-01T10:09:11.000Z</Time>
            <Position>
              <LatitudeDegrees>40.47114850021898746490478515625</LatitudeDegrees>
              <LongitudeDegrees>-4.01413290761411190032958984375</LongitudeDegrees>
            </Position>
            <AltitudeMeters>666.5999755859375</AltitudeMeters>
            <DistanceMeters>NAN</DistanceMeters>
          </Trackpoint>
          <Trackpoint>
            <Time>2019-08-01T10:09:12.000Z</Time>
            <Position>
              <LatitudeDegrees>40.47121974639594554901123046875</LatitudeDegrees>
              <LongitudeDegrees>-4.01414983905851840972900390625</LongitudeDegrees>
            </Position>
            <AltitudeMeters>666.5999755859375</AltitudeMeters>
            <DistanceMeters>NAN</DistanceMeters>
          </Trackpoint>
          <Trackpoint>
            <Time>2019-08-01T10:09:13.000Z</Time>
            <Position>
              <LatitudeDegrees>40.47128596343100070953369140625</LatitudeDegrees>
              <LongitudeDegrees>-4.0141874738037586212158203125</LongitudeDegrees>
            </Position>
            <AltitudeMeters>666.5999755859375</AltitudeMeters>
            <DistanceMeters>NAN</DistanceMeters>
          </Trackpoint>
          <Trackpoint>
            <Time>2019-08-01T10:09:14.000Z</Time>
            <Position>
              <LatitudeDegrees>40.471345223486423492431640625</LatitudeDegrees>
              <LongitudeDegrees>-4.01424254290759563446044921875</LongitudeDegrees>
            </Position>
            <AltitudeMeters>666.4000244140625</AltitudeMeters>
            <DistanceMeters>NAN</DistanceMeters>
          </Trackpoint>
          <Trackpoint>
            <Time>2019-08-01T10:09:15.000Z</Time>
            <Position>
              <LatitudeDegrees>40.47139693982899188995361328125</LatitudeDegrees>
              <LongitudeDegrees>-4.0143108554184436798095703125</LongitudeDegrees>
            </Position>
            <AltitudeMeters>666.4000244140625</AltitudeMeters>
            <DistanceMeters>NAN</DistanceMeters>
          </Trackpoint>
          <Trackpoint>
            <Time>2019-08-01T10:09:16.000Z</Time>
            <Position>
              <LatitudeDegrees>40.4714392684400081634521484375</LatitudeDegrees>
              <LongitudeDegrees>-4.01439207606017589569091796875</LongitudeDegrees>
            </Position>
            <AltitudeMeters>666.4000244140625</AltitudeMeters>
            <DistanceMeters>NAN</DistanceMeters>
          </Trackpoint>
          <Trackpoint>
            <Time>2019-08-01T10:09:17.000Z</Time>
            <Position>
              <LatitudeDegrees>40.471469946205615997314453125</LatitudeDegrees>
              <LongitudeDegrees>-4.0144835226237773895263671875</LongitudeDegrees>
            </Position>
            <AltitudeMeters>666.4000244140625</AltitudeMeters>
            <DistanceMeters>NAN</DistanceMeters>
          </Trackpoint>
          <Trackpoint>
            <Time>2019-08-01T10:09:18.000Z</Time>
            <Position>
              <LatitudeDegrees>40.47148880548775196075439453125</LatitudeDegrees>
              <LongitudeDegrees>-4.01458150707185268402099609375</LongitudeDegrees>
            </Position>
            <AltitudeMeters>666.4000244140625</AltitudeMeters>
            <DistanceMeters>NAN</DistanceMeters>
          </Trackpoint>
          <Trackpoint>
            <Time>2019-08-01T10:09:19.000Z</Time>
            <Position>
              <LatitudeDegrees>40.47149467281997203826904296875</LatitudeDegrees>
              <LongitudeDegrees>-4.01468175463378429412841796875</LongitudeDegrees>
            </Position>
            <AltitudeMeters>666.4000244140625</AltitudeMeters>
            <DistanceMeters>NAN</DistanceMeters>
          </Trackpoint>
          <Trackpoint>
            <Time>2019-08-01T10:09:20.000Z</Time>
            <Position>
              <LatitudeDegrees>40.47148813493549823760986328125</LatitudeDegrees>
              <LongitudeDegrees>-4.0147832594811916351318359375</LongitudeDegrees>
            </Position>
            <AltitudeMeters>666.4000244140625</AltitudeMeters>
            <DistanceMeters>NAN</DistanceMeters>
          </Trackpoint>
          <Trackpoint>
            <Time>2019-08-01T10:09:21.000Z</Time>
            <Position>
              <LatitudeDegrees>40.47148327343165874481201171875</LatitudeDegrees>
              <LongitudeDegrees>-4.0148814953863620758056640625</LongitudeDegrees>
            </Position>
            <AltitudeMeters>666.4000244140625</AltitudeMeters>
            <DistanceMeters>NAN</DistanceMeters>
          </Trackpoint>
          <Trackpoint>
            <Time>2019-08-01T10:09:22.000Z</Time>
            <Position>
              <LatitudeDegrees>40.4714919067919254302978515625</LatitudeDegrees>
              <LongitudeDegrees>-4.01497847400605678558349609375</LongitudeDegrees>
            </Position>
            <AltitudeMeters>666.4000244140625</AltitudeMeters>
            <DistanceMeters>NAN</DistanceMeters>
          </Trackpoint>
          <Trackpoint>
            <Time>2019-08-01T10:09:23.000Z</Time>
            <Position>
              <LatitudeDegrees>40.47151990234851837158203125</LatitudeDegrees>
              <LongitudeDegrees>-4.01506950147449970245361328125</LongitudeDegrees>
            </Position>
            <AltitudeMeters>666.4000244140625</AltitudeMeters>
            <DistanceMeters>NAN</DistanceMeters>
          </Trackpoint>
          <Trackpoint>
            <Time>2019-08-01T10:09:24.000Z</Time>
            <Position>
              <LatitudeDegrees>40.47156491316854953765869140625</LatitudeDegrees>
              <LongitudeDegrees>-4.0151507221162319183349609375</LongitudeDegrees>
            </Position>
            <AltitudeMeters>666.4000244140625</AltitudeMeters>
            <DistanceMeters>NAN</DistanceMeters>
          </Trackpoint>
          <Trackpoint>
            <Time>2019-08-01T10:09:25.000Z</Time>
            <Position>
              <LatitudeDegrees>40.47161780297756195068359375</LatitudeDegrees>
              <LongitudeDegrees>-4.01522557251155376434326171875</LongitudeDegrees>
            </Position>
            <AltitudeMeters>666.4000244140625</AltitudeMeters>
            <DistanceMeters>NAN</DistanceMeters>
          </Trackpoint>
          <Trackpoint>
            <Time>2019-08-01T10:09:26.000Z</Time>
            <Position>
              <LatitudeDegrees>40.47167505137622356414794921875</LatitudeDegrees>
              <LongitudeDegrees>-4.01529631577432155609130859375</LongitudeDegrees>
            </Position>
            <AltitudeMeters>666.5999755859375</AltitudeMeters>
            <DistanceMeters>NAN</DistanceMeters>
          </Trackpoint>
          <Trackpoint>
            <Time>2019-08-01T10:09:27.000Z</Time>
            <Position>
              <LatitudeDegrees>40.471733473241329193115234375</LatitudeDegrees>
              <LongitudeDegrees>-4.0153659693896770477294921875</LongitudeDegrees>
            </Position>
            <AltitudeMeters>666.4000244140625</AltitudeMeters>
            <DistanceMeters>NAN</DistanceMeters>
          </Trackpoint>
          <Trackpoint>
            <Time>2019-08-01T10:09:28.000Z</Time>
            <Position>
              <LatitudeDegrees>40.4717914760112762451171875</LatitudeDegrees>
              <LongitudeDegrees>-4.01543654501438140869140625</LongitudeDegrees>
            </Position>
            <AltitudeMeters>666.4000244140625</AltitudeMeters>
            <DistanceMeters>NAN</DistanceMeters>
          </Trackpoint>
          <Trackpoint>
            <Time>2019-08-01T10:09:29.000Z</Time>
            <Position>
              <LatitudeDegrees>40.471849478781223297119140625</LatitudeDegrees>
              <LongitudeDegrees>-4.0155067853629589080810546875</LongitudeDegrees>
            </Position>
            <AltitudeMeters>666.4000244140625</AltitudeMeters>
            <DistanceMeters>NAN</DistanceMeters>
          </Trackpoint>
          <Trackpoint>
            <Time>2019-08-01T10:09:30.000Z</Time>
            <Position>
              <LatitudeDegrees>40.47190689481794834136962890625</LatitudeDegrees>
              <LongitudeDegrees>-4.01557895354926586151123046875</LongitudeDegrees>
            </Position>
            <AltitudeMeters>666.4000244140625</AltitudeMeters>
            <DistanceMeters>NAN</DistanceMeters>
          </Trackpoint>
          <Trackpoint>
            <Time>2019-08-01T10:09:31.000Z</Time>
            <Position>
              <LatitudeDegrees>40.4719631373882293701171875</LatitudeDegrees>
              <LongitudeDegrees>-4.01565338484942913055419921875</LongitudeDegrees>
            </Position>
            <AltitudeMeters>666.4000244140625</AltitudeMeters>
            <DistanceMeters>NAN</DistanceMeters>
          </Trackpoint>
          <Trackpoint>
            <Time>2019-08-01T10:09:33.000Z</Time>
            <Position>
              <LatitudeDegrees>40.47207302413880825042724609375</LatitudeDegrees>
              <LongitudeDegrees>-4.01580895297229290008544921875</LongitudeDegrees>
            </Position>
            <AltitudeMeters>666.4000244140625</AltitudeMeters>
            <DistanceMeters>NAN</DistanceMeters>
          </Trackpoint>
          <Trackpoint>
            <Time>2019-08-01T10:09:35.000Z</Time>
            <Position>
              <LatitudeDegrees>40.472182743251323699951171875</LatitudeDegrees>
              <LongitudeDegrees>-4.01597089134156703948974609375</LongitudeDegrees>
            </Position>
            <AltitudeMeters>666.20001220703125</AltitudeMeters>
            <DistanceMeters>NAN</DistanceMeters>
          </Trackpoint>
          <Trackpoint>
            <Time>2019-08-01T10:09:36.000Z</Time>
            <Position>
              <LatitudeDegrees>40.47223747707903385162353515625</LatitudeDegrees>
              <LongitudeDegrees>-4.0160526148974895477294921875</LongitudeDegrees>
            </Position>
            <AltitudeMeters>666.20001220703125</AltitudeMeters>
            <DistanceMeters>NAN</DistanceMeters>
          </Trackpoint>
          <Trackpoint>
            <Time>2019-08-01T10:09:37.000Z</Time>
            <Position>
              <LatitudeDegrees>40.47229330055415630340576171875</LatitudeDegrees>
              <LongitudeDegrees>-4.0161334164440631866455078125</LongitudeDegrees>
            </Position>
            <AltitudeMeters>666.20001220703125</AltitudeMeters>
            <DistanceMeters>NAN</DistanceMeters>
          </Trackpoint>
          <Trackpoint>
            <Time>2019-08-01T10:09:38.000Z</Time>
            <Position>
              <LatitudeDegrees>40.472349710762500762939453125</LatitudeDegrees>
              <LongitudeDegrees>-4.016213715076446533203125</LongitudeDegrees>
            </Position>
            <AltitudeMeters>666.20001220703125</AltitudeMeters>
            <DistanceMeters>NAN</DistanceMeters>
          </Trackpoint>
          <Trackpoint>
            <Time>2019-08-01T10:09:40.000Z</Time>
            <Position>
              <LatitudeDegrees>40.47246663831174373626708984375</LatitudeDegrees>
              <LongitudeDegrees>-4.01636986993253231048583984375</LongitudeDegrees>
            </Position>
            <AltitudeMeters>666</AltitudeMeters>
            <DistanceMeters>NAN</DistanceMeters>
          </Trackpoint>
          <Trackpoint>
            <Time>2019-08-01T10:09:41.000Z</Time>
            <Position>
              <LatitudeDegrees>40.4725269041955471038818359375</LatitudeDegrees>
              <LongitudeDegrees>-4.01644547469913959503173828125</LongitudeDegrees>
            </Position>
            <AltitudeMeters>665.79998779296875</AltitudeMeters>
            <DistanceMeters>NAN</DistanceMeters>
          </Trackpoint>
          <Trackpoint>
            <Time>2019-08-01T10:09:42.000Z</Time>
            <Position>
              <LatitudeDegrees>40.47258901409804821014404296875</LatitudeDegrees>
              <LongitudeDegrees>-4.01651940308511257171630859375</LongitudeDegrees>
            </Position>
            <AltitudeMeters>665.79998779296875</AltitudeMeters>
            <DistanceMeters>NAN</DistanceMeters>
          </Trackpoint>
          <Trackpoint>
            <Time>2019-08-01T10:09:43.000Z</Time>
            <Position>
              <LatitudeDegrees>40.47265338711440563201904296875</LatitudeDegrees>
              <LongitudeDegrees>-4.01659048162400722503662109375</LongitudeDegrees>
            </Position>
            <AltitudeMeters>665.79998779296875</AltitudeMeters>
            <DistanceMeters>NAN</DistanceMeters>
          </Trackpoint>
          <Trackpoint>
            <Time>2019-08-01T10:09:44.000Z</Time>
            <Position>
              <LatitudeDegrees>40.47272010706365108489990234375</LatitudeDegrees>
              <LongitudeDegrees>-4.01665820740163326263427734375</LongitudeDegrees>
            </Position>
            <AltitudeMeters>665.5999755859375</AltitudeMeters>
            <DistanceMeters>NAN</DistanceMeters>
          </Trackpoint>
          <Trackpoint>
            <Time>2019-08-01T10:09:45.000Z</Time>
            <Position>
              <LatitudeDegrees>40.47278950922191143035888671875</LatitudeDegrees>
              <LongitudeDegrees>-4.01672274805605411529541015625</LongitudeDegrees>
            </Position>
            <AltitudeMeters>665.5999755859375</AltitudeMeters>
            <DistanceMeters>NAN</DistanceMeters>
          </Trackpoint>
          <Trackpoint>
            <Time>2019-08-01T10:09:46.000Z</Time>
            <Position>
              <LatitudeDegrees>40.47286142595112323760986328125</LatitudeDegrees>
              <LongitudeDegrees>-4.01678678579628467559814453125</LongitudeDegrees>
            </Position>
            <AltitudeMeters>665.5999755859375</AltitudeMeters>
            <DistanceMeters>NAN</DistanceMeters>
          </Trackpoint>
          <Trackpoint>
            <Time>2019-08-01T10:09:47.000Z</Time>
            <Position>
              <LatitudeDegrees>40.47293585725128650665283203125</LatitudeDegrees>
              <LongitudeDegrees>-4.01685099117457866668701171875</LongitudeDegrees>
            </Position>
            <AltitudeMeters>665.5999755859375</AltitudeMeters>
            <DistanceMeters>NAN</DistanceMeters>
          </Trackpoint>
          <Trackpoint>
            <Time>2019-08-01T10:09:48.000Z</Time>
            <Position>
              <LatitudeDegrees>40.47301246784627437591552734375</LatitudeDegrees>
              <LongitudeDegrees>-4.0169151127338409423828125</LongitudeDegrees>
            </Position>
            <AltitudeMeters>665.5999755859375</AltitudeMeters>
            <DistanceMeters>NAN</DistanceMeters>
          </Trackpoint>
          <Trackpoint>
            <Time>2019-08-01T10:09:49.000Z</Time>
            <Position>
              <LatitudeDegrees>40.47309075482189655303955078125</LatitudeDegrees>
              <LongitudeDegrees>-4.01698040775954723358154296875</LongitudeDegrees>
            </Position>
            <AltitudeMeters>665.4000244140625</AltitudeMeters>
            <DistanceMeters>NAN</DistanceMeters>
          </Trackpoint>
          <Trackpoint>
            <Time>2019-08-01T10:09:50.000Z</Time>
            <Position>
              <LatitudeDegrees>40.473170466721057891845703125</LatitudeDegrees>
              <LongitudeDegrees>-4.01704763062298297882080078125</LongitudeDegrees>
            </Position>
            <AltitudeMeters>665.4000244140625</AltitudeMeters>
            <DistanceMeters>NAN</DistanceMeters>
          </Trackpoint>
          <Trackpoint>
            <Time>2019-08-01T10:09:51.000Z</Time>
            <Position>
              <LatitudeDegrees>40.47325168736279010772705078125</LatitudeDegrees>
              <LongitudeDegrees>-4.01711426675319671630859375</LongitudeDegrees>
            </Position>
            <AltitudeMeters>665.4000244140625</AltitudeMeters>
            <DistanceMeters>NAN</DistanceMeters>
          </Trackpoint>
          <Trackpoint>
            <Time>2019-08-01T10:09:52.000Z</Time>
            <Position>
              <LatitudeDegrees>40.47333441674709320068359375</LatitudeDegrees>
              <LongitudeDegrees>-4.0171806514263153076171875</LongitudeDegrees>
            </Position>
            <AltitudeMeters>665.4000244140625</AltitudeMeters>
            <DistanceMeters>NAN</DistanceMeters>
          </Trackpoint>
          <Trackpoint>
            <Time>2019-08-01T10:09:53.000Z</Time>
            <Position>
              <LatitudeDegrees>40.4734177328646183013916015625</LatitudeDegrees>
              <LongitudeDegrees>-4.01724913157522678375244140625</LongitudeDegrees>
            </Position>
            <AltitudeMeters>665.20001220703125</AltitudeMeters>
            <DistanceMeters>NAN</DistanceMeters>
          </Trackpoint>
          <Trackpoint>
            <Time>2019-08-01T10:09:54.000Z</Time>
            <Position>
              <LatitudeDegrees>40.4735025577247142791748046875</LatitudeDegrees>
              <LongitudeDegrees>-4.0173201262950897216796875</LongitudeDegrees>
            </Position>
            <AltitudeMeters>665.20001220703125</AltitudeMeters>
            <DistanceMeters>NAN</DistanceMeters>
          </Trackpoint>
          <Trackpoint>
            <Time>2019-08-01T10:09:55.000Z</Time>
            <Position>
              <LatitudeDegrees>40.4735025577247142791748046875</LatitudeDegrees>
              <LongitudeDegrees>-4.0173201262950897216796875</LongitudeDegrees>
            </Position>
            <AltitudeMeters>665</AltitudeMeters>
            <DistanceMeters>NAN</DistanceMeters>
          </Trackpoint>
          <Trackpoint>
            <Time>2019-08-01T10:09:56.000Z</Time>
            <Position>
              <LatitudeDegrees>40.4735025577247142791748046875</LatitudeDegrees>
              <LongitudeDegrees>-4.0173201262950897216796875</LongitudeDegrees>
            </Position>
            <AltitudeMeters>664.79998779296875</AltitudeMeters>
            <DistanceMeters>NAN</DistanceMeters>
          </Trackpoint>
          <Trackpoint>
            <Time>2019-08-01T10:09:57.000Z</Time>
            <Position>
              <LatitudeDegrees>40.47376449219882488250732421875</LatitudeDegrees>
              <LongitudeDegrees>-4.0175419114530086517333984375</LongitudeDegrees>
            </Position>
            <AltitudeMeters>664.5999755859375</AltitudeMeters>
            <DistanceMeters>NAN</DistanceMeters>
          </Trackpoint>
          <Trackpoint>
            <Time>2019-08-01T10:09:58.000Z</Time>
            <Position>
              <LatitudeDegrees>40.47385283745825290679931640625</LatitudeDegrees>
              <LongitudeDegrees>-4.0176170133054256439208984375</LongitudeDegrees>
            </Position>
            <AltitudeMeters>664</AltitudeMeters>
            <DistanceMeters>NAN</DistanceMeters>
          </Trackpoint>
          <Trackpoint>
            <Time>2019-08-01T10:09:59.000Z</Time>
            <Position>
              <LatitudeDegrees>40.47394118271768093109130859375</LatitudeDegrees>
              <LongitudeDegrees>-4.01769228279590606689453125</LongitudeDegrees>
            </Position>
            <AltitudeMeters>663.5999755859375</AltitudeMeters>
            <DistanceMeters>NAN</DistanceMeters>
          </Trackpoint>
          <Trackpoint>
            <Time>2019-08-01T10:10:00.000Z</Time>
            <Position>
              <LatitudeDegrees>40.47403036616742610931396484375</LatitudeDegrees>
              <LongitudeDegrees>-4.01776562444865703582763671875</LongitudeDegrees>
            </Position>
            <AltitudeMeters>663.20001220703125</AltitudeMeters>
            <DistanceMeters>NAN</DistanceMeters>
          </Trackpoint>
          <Trackpoint>
            <Time>2019-08-01T10:10:01.000Z</Time>
            <Position>
              <LatitudeDegrees>40.47411896288394927978515625</LatitudeDegrees>
              <LongitudeDegrees>-4.0178377926349639892578125</LongitudeDegrees>
            </Position>
            <AltitudeMeters>663</AltitudeMeters>
            <DistanceMeters>NAN</DistanceMeters>
          </Trackpoint>
          <Trackpoint>
            <Time>2019-08-01T10:10:02.000Z</Time>
            <Position>
              <LatitudeDegrees>40.47420672141015529632568359375</LatitudeDegrees>
              <LongitudeDegrees>-4.01790878735482692718505859375</LongitudeDegrees>
            </Position>
            <AltitudeMeters>662.5999755859375</AltitudeMeters>
            <DistanceMeters>NAN</DistanceMeters>
          </Trackpoint>
          <Trackpoint>
            <Time>2019-08-01T10:10:03.000Z</Time>
            <Position>
              <LatitudeDegrees>40.474294312298297882080078125</LatitudeDegrees>
              <LongitudeDegrees>-4.01797785423696041107177734375</LongitudeDegrees>
            </Position>
            <AltitudeMeters>662</AltitudeMeters>
            <DistanceMeters>NAN</DistanceMeters>
          </Trackpoint>
          <Trackpoint>
            <Time>2019-08-01T10:10:04.000Z</Time>
            <Position>
              <LatitudeDegrees>40.4743809811770915985107421875</LatitudeDegrees>
              <LongitudeDegrees>-4.01804608292877674102783203125</LongitudeDegrees>
            </Position>
            <AltitudeMeters>661.79998779296875</AltitudeMeters>
            <DistanceMeters>NAN</DistanceMeters>
          </Trackpoint>
          <Trackpoint>
            <Time>2019-08-01T10:10:05.000Z</Time>
            <Position>
              <LatitudeDegrees>40.47446672804653644561767578125</LatitudeDegrees>
              <LongitudeDegrees>-4.01811473071575164794921875</LongitudeDegrees>
            </Position>
            <AltitudeMeters>661.79998779296875</AltitudeMeters>
            <DistanceMeters>NAN</DistanceMeters>
          </Trackpoint>
          <Trackpoint>
            <Time>2019-08-01T10:10:06.000Z</Time>
            <Position>
              <LatitudeDegrees>40.47455121763050556182861328125</LatitudeDegrees>
              <LongitudeDegrees>-4.01818203739821910858154296875</LongitudeDegrees>
            </Position>
            <AltitudeMeters>661.5999755859375</AltitudeMeters>
            <DistanceMeters>NAN</DistanceMeters>
          </Trackpoint>
          <Trackpoint>
            <Time>2019-08-01T10:10:07.000Z</Time>
            <Position>
              <LatitudeDegrees>40.4746341146528720855712890625</LatitudeDegrees>
              <LongitudeDegrees>-4.01824791915714740753173828125</LongitudeDegrees>
            </Position>
            <AltitudeMeters>661.5999755859375</AltitudeMeters>
            <DistanceMeters>NAN</DistanceMeters>
          </Trackpoint>
          <Trackpoint>
            <Time>2019-08-01T10:10:09.000Z</Time>
            <Position>
              <LatitudeDegrees>40.4747940413653850555419921875</LatitudeDegrees>
              <LongitudeDegrees>-4.01837700046598911285400390625</LongitudeDegrees>
            </Position>
            <AltitudeMeters>661.5999755859375</AltitudeMeters>
            <DistanceMeters>NAN</DistanceMeters>
          </Trackpoint>
          <Trackpoint>
            <Time>2019-08-01T10:10:10.000Z</Time>
            <Position>
              <LatitudeDegrees>40.4748724959790706634521484375</LatitudeDegrees>
              <LongitudeDegrees>-4.0184397809207439422607421875</LongitudeDegrees>
            </Position>
            <AltitudeMeters>661.5999755859375</AltitudeMeters>
            <DistanceMeters>NAN</DistanceMeters>
          </Trackpoint>
          <Trackpoint>
            <Time>2019-08-01T10:10:11.000Z</Time>
            <Position>
              <LatitudeDegrees>40.47495002858340740203857421875</LatitudeDegrees>
              <LongitudeDegrees>-4.0185018070042133331298828125</LongitudeDegrees>
            </Position>
            <AltitudeMeters>661.5999755859375</AltitudeMeters>
            <DistanceMeters>NAN</DistanceMeters>
          </Trackpoint>
          <Trackpoint>
            <Time>2019-08-01T10:10:12.000Z</Time>
            <Position>
              <LatitudeDegrees>40.47502689063549041748046875</LatitudeDegrees>
              <LongitudeDegrees>-4.0185628272593021392822265625</LongitudeDegrees>
            </Position>
            <AltitudeMeters>661.5999755859375</AltitudeMeters>
            <DistanceMeters>NAN</DistanceMeters>
          </Trackpoint>
          <Trackpoint>
            <Time>2019-08-01T10:10:13.000Z</Time>
            <Position>
              <LatitudeDegrees>40.47510241158306598663330078125</LatitudeDegrees>
              <LongitudeDegrees>-4.018622674047946929931640625</LongitudeDegrees>
            </Position>
            <AltitudeMeters>661.5999755859375</AltitudeMeters>
            <DistanceMeters>NAN</DistanceMeters>
          </Trackpoint>
          <Trackpoint>
            <Time>2019-08-01T10:10:14.000Z</Time>
            <Position>
              <LatitudeDegrees>40.4751764237880706787109375</LatitudeDegrees>
              <LongitudeDegrees>-4.01868226937949657440185546875</LongitudeDegrees>
            </Position>
            <AltitudeMeters>661.5999755859375</AltitudeMeters>
            <DistanceMeters>NAN</DistanceMeters>
          </Trackpoint>
          <Trackpoint>
            <Time>2019-08-01T10:10:15.000Z</Time>
            <Position>
              <LatitudeDegrees>40.4752486757934093475341796875</LatitudeDegrees>
              <LongitudeDegrees>-4.018740355968475341796875</LongitudeDegrees>
            </Position>
            <AltitudeMeters>661.79998779296875</AltitudeMeters>
            <DistanceMeters>NAN</DistanceMeters>
          </Trackpoint>
          <Trackpoint>
            <Time>2019-08-01T10:10:16.000Z</Time>
            <Position>
              <LatitudeDegrees>40.47531866468489170074462890625</LatitudeDegrees>
              <LongitudeDegrees>-4.018796347081661224365234375</LongitudeDegrees>
            </Position>
            <AltitudeMeters>661.79998779296875</AltitudeMeters>
            <DistanceMeters>NAN</DistanceMeters>
          </Trackpoint>
          <Trackpoint>
            <Time>2019-08-01T10:10:17.000Z</Time>
            <Position>
              <LatitudeDegrees>40.4753868095576763153076171875</LatitudeDegrees>
              <LongitudeDegrees>-4.01885091327130794525146484375</LongitudeDegrees>
            </Position>
            <AltitudeMeters>662</AltitudeMeters>
            <DistanceMeters>NAN</DistanceMeters>
          </Trackpoint>
          <Trackpoint>
            <Time>2019-08-01T10:10:18.000Z</Time>
            <Position>
              <LatitudeDegrees>40.47545277513563632965087890625</LatitudeDegrees>
              <LongitudeDegrees>-4.01890455745160579681396484375</LongitudeDegrees>
            </Position>
            <AltitudeMeters>662</AltitudeMeters>
            <DistanceMeters>NAN</DistanceMeters>
          </Trackpoint>
          <Trackpoint>
            <Time>2019-08-01T10:10:19.000Z</Time>
            <Position>
              <LatitudeDegrees>40.475516729056835174560546875</LatitudeDegrees>
              <LongitudeDegrees>-4.0189564414322376251220703125</LongitudeDegrees>
            </Position>
            <AltitudeMeters>662</AltitudeMeters>
            <DistanceMeters>NAN</DistanceMeters>
          </Trackpoint>
          <Trackpoint>
            <Time>2019-08-01T10:10:20.000Z</Time>
            <Position>
              <LatitudeDegrees>40.475579090416431427001953125</LatitudeDegrees>
              <LongitudeDegrees>-4.019006229937076568603515625</LongitudeDegrees>
            </Position>
            <AltitudeMeters>662.20001220703125</AltitudeMeters>
            <DistanceMeters>NAN</DistanceMeters>
          </Trackpoint>
          <Trackpoint>
            <Time>2019-08-01T10:10:21.000Z</Time>
            <Position>
              <LatitudeDegrees>40.4756396077573299407958984375</LatitudeDegrees>
              <LongitudeDegrees>-4.01905509643256664276123046875</LongitudeDegrees>
            </Position>
            <AltitudeMeters>662.20001220703125</AltitudeMeters>
            <DistanceMeters>NAN</DistanceMeters>
          </Trackpoint>
          <Trackpoint>
            <Time>2019-08-01T10:10:22.000Z</Time>
            <Position>
              <LatitudeDegrees>40.47569802962243556976318359375</LatitudeDegrees>
              <LongitudeDegrees>-4.01910253800451755523681640625</LongitudeDegrees>
            </Position>
            <AltitudeMeters>662.4000244140625</AltitudeMeters>
            <DistanceMeters>NAN</DistanceMeters>
          </Trackpoint>
          <Trackpoint>
            <Time>2019-08-01T10:10:23.000Z</Time>
            <Position>
              <LatitudeDegrees>40.47575511038303375244140625</LatitudeDegrees>
              <LongitudeDegrees>-4.01914872229099273681640625</LongitudeDegrees>
            </Position>
            <AltitudeMeters>662.4000244140625</AltitudeMeters>
            <DistanceMeters>NAN</DistanceMeters>
          </Trackpoint>
          <Trackpoint>
            <Time>2019-08-01T10:10:24.000Z</Time>
            <Position>
              <LatitudeDegrees>40.475811101496219635009765625</LatitudeDegrees>
              <LongitudeDegrees>-4.01919473893940448760986328125</LongitudeDegrees>
            </Position>
            <AltitudeMeters>662.4000244140625</AltitudeMeters>
            <DistanceMeters>NAN</DistanceMeters>
          </Trackpoint>
          <Trackpoint>
            <Time>2019-08-01T10:10:25.000Z</Time>
            <Position>
              <LatitudeDegrees>40.47586600296199321746826171875</LatitudeDegrees>
              <LongitudeDegrees>-4.01924000121653079986572265625</LongitudeDegrees>
            </Position>
            <AltitudeMeters>662.5999755859375</AltitudeMeters>
            <DistanceMeters>NAN</DistanceMeters>
          </Trackpoint>
          <Trackpoint>
            <Time>2019-08-01T10:10:26.000Z</Time>
            <Position>
              <LatitudeDegrees>40.4759202338755130767822265625</LatitudeDegrees>
              <LongitudeDegrees>-4.019283168017864227294921875</LongitudeDegrees>
            </Position>
            <AltitudeMeters>662.79998779296875</AltitudeMeters>
            <DistanceMeters>NAN</DistanceMeters>
          </Trackpoint>
          <Trackpoint>
            <Time>2019-08-01T10:10:27.000Z</Time>
            <Position>
              <LatitudeDegrees>40.47597329132258892059326171875</LatitudeDegrees>
              <LongitudeDegrees>-4.01932449080049991607666015625</LongitudeDegrees>
            </Position>
            <AltitudeMeters>663.20001220703125</AltitudeMeters>
            <DistanceMeters>NAN</DistanceMeters>
          </Trackpoint>
          <Trackpoint>
            <Time>2019-08-01T10:10:28.000Z</Time>
            <Position>
              <LatitudeDegrees>40.4760253429412841796875</LatitudeDegrees>
              <LongitudeDegrees>-4.0193661488592624664306640625</LongitudeDegrees>
            </Position>
            <AltitudeMeters>663.5999755859375</AltitudeMeters>
            <DistanceMeters>NAN</DistanceMeters>
          </Trackpoint>
          <Trackpoint>
            <Time>2019-08-01T10:10:29.000Z</Time>
            <Position>
              <LatitudeDegrees>40.47607655636966228485107421875</LatitudeDegrees>
              <LongitudeDegrees>-4.01940822601318359375</LongitudeDegrees>
            </Position>
            <AltitudeMeters>664</AltitudeMeters>
            <DistanceMeters>NAN</DistanceMeters>
          </Trackpoint>
          <Trackpoint>
            <Time>2019-08-01T10:10:30.000Z</Time>
            <Position>
              <LatitudeDegrees>40.47612718306481838226318359375</LatitudeDegrees>
              <LongitudeDegrees>-4.01945021934807300567626953125</LongitudeDegrees>
            </Position>
            <AltitudeMeters>664.4000244140625</AltitudeMeters>
            <DistanceMeters>NAN</DistanceMeters>
          </Trackpoint>
          <Trackpoint>
            <Time>2019-08-01T10:10:31.000Z</Time>
            <Position>
              <LatitudeDegrees>40.47617780975997447967529296875</LatitudeDegrees>
              <LongitudeDegrees>-4.01949070394039154052734375</LongitudeDegrees>
            </Position>
            <AltitudeMeters>664.79998779296875</AltitudeMeters>
            <DistanceMeters>NAN</DistanceMeters>
          </Trackpoint>
          <Trackpoint>
            <Time>2019-08-01T10:10:32.000Z</Time>
            <Position>
              <LatitudeDegrees>40.4762278497219085693359375</LatitudeDegrees>
              <LongitudeDegrees>-4.01953035034239292144775390625</LongitudeDegrees>
            </Position>
            <AltitudeMeters>665.20001220703125</AltitudeMeters>
            <DistanceMeters>NAN</DistanceMeters>
          </Trackpoint>
          <Trackpoint>
            <Time>2019-08-01T10:10:33.000Z</Time>
            <Position>
              <LatitudeDegrees>40.47627705149352550506591796875</LatitudeDegrees>
              <LongitudeDegrees>-4.0195696614682674407958984375</LongitudeDegrees>
            </Position>
            <AltitudeMeters>665.4000244140625</AltitudeMeters>
            <DistanceMeters>NAN</DistanceMeters>
          </Trackpoint>
          <Trackpoint>
            <Time>2019-08-01T10:10:34.000Z</Time>
            <Position>
              <LatitudeDegrees>40.476324744522571563720703125</LatitudeDegrees>
              <LongitudeDegrees>-4.0196085534989833831787109375</LongitudeDegrees>
            </Position>
            <AltitudeMeters>665.4000244140625</AltitudeMeters>
            <DistanceMeters>NAN</DistanceMeters>
          </Trackpoint>
          <Trackpoint>
            <Time>2019-08-01T10:10:36.000Z</Time>
            <Position>
              <LatitudeDegrees>40.47641635872423648834228515625</LatitudeDegrees>
              <LongitudeDegrees>-4.01968340389430522918701171875</LongitudeDegrees>
            </Position>
            <AltitudeMeters>666.20001220703125</AltitudeMeters>
            <DistanceMeters>NAN</DistanceMeters>
          </Trackpoint>
          <Trackpoint>
            <Time>2019-08-01T10:10:37.000Z</Time>
            <Position>
              <LatitudeDegrees>40.47646178863942623138427734375</LatitudeDegrees>
              <LongitudeDegrees>-4.0197198651731014251708984375</LongitudeDegrees>
            </Position>
            <AltitudeMeters>666.4000244140625</AltitudeMeters>
            <DistanceMeters>NAN</DistanceMeters>
          </Trackpoint>
          <Trackpoint>
            <Time>2019-08-01T10:10:38.000Z</Time>
            <Position>
              <LatitudeDegrees>40.4765066318213939666748046875</LatitudeDegrees>
              <LongitudeDegrees>-4.0197570808231830596923828125</LongitudeDegrees>
            </Position>
            <AltitudeMeters>666.5999755859375</AltitudeMeters>
            <DistanceMeters>NAN</DistanceMeters>
          </Trackpoint>
          <Trackpoint>
            <Time>2019-08-01T10:10:39.000Z</Time>
            <Position>
              <LatitudeDegrees>40.47655147500336170196533203125</LatitudeDegrees>
              <LongitudeDegrees>-4.01979379355907440185546875</LongitudeDegrees>
            </Position>
            <AltitudeMeters>666.79998779296875</AltitudeMeters>
            <DistanceMeters>NAN</DistanceMeters>
          </Trackpoint>
          <Trackpoint>
            <Time>2019-08-01T10:10:40.000Z</Time>
            <Position>
              <LatitudeDegrees>40.47659656964242458343505859375</LatitudeDegrees>
              <LongitudeDegrees>-4.01982908137142658233642578125</LongitudeDegrees>
            </Position>
            <AltitudeMeters>666.79998779296875</AltitudeMeters>
            <DistanceMeters>NAN</DistanceMeters>
          </Trackpoint>
          <Trackpoint>
            <Time>2019-08-01T10:10:41.000Z</Time>
            <Position>
              <LatitudeDegrees>40.476641245186328887939453125</LatitudeDegrees>
              <LongitudeDegrees>-4.01986428536474704742431640625</LongitudeDegrees>
            </Position>
            <AltitudeMeters>666.79998779296875</AltitudeMeters>
            <DistanceMeters>NAN</DistanceMeters>
          </Trackpoint>
          <Trackpoint>
            <Time>2019-08-01T10:10:42.000Z</Time>
            <Position>
              <LatitudeDegrees>40.47668583691120147705078125</LatitudeDegrees>
              <LongitudeDegrees>-4.01989982463419437408447265625</LongitudeDegrees>
            </Position>
            <AltitudeMeters>666.79998779296875</AltitudeMeters>
            <DistanceMeters>NAN</DistanceMeters>
          </Trackpoint>
          <Trackpoint>
            <Time>2019-08-01T10:10:43.000Z</Time>
            <Position>
              <LatitudeDegrees>40.476730428636074066162109375</LatitudeDegrees>
              <LongitudeDegrees>-4.01993536390364170074462890625</LongitudeDegrees>
            </Position>
            <AltitudeMeters>667</AltitudeMeters>
            <DistanceMeters>NAN</DistanceMeters>
          </Trackpoint>
          <Trackpoint>
            <Time>2019-08-01T10:10:44.000Z</Time>
            <Position>
              <LatitudeDegrees>40.47677476890385150909423828125</LatitudeDegrees>
              <LongitudeDegrees>-4.01997107081115245819091796875</LongitudeDegrees>
            </Position>
            <AltitudeMeters>667.5999755859375</AltitudeMeters>
            <DistanceMeters>NAN</DistanceMeters>
          </Trackpoint>
          <Trackpoint>
            <Time>2019-08-01T10:10:45.000Z</Time>
            <Position>
              <LatitudeDegrees>40.4768187738955020904541015625</LatitudeDegrees>
              <LongitudeDegrees>-4.02000661008059978485107421875</LongitudeDegrees>
            </Position>
            <AltitudeMeters>668</AltitudeMeters>
            <DistanceMeters>NAN</DistanceMeters>
          </Trackpoint>
          <Trackpoint>
            <Time>2019-08-01T10:10:46.000Z</Time>
            <Position>
              <LatitudeDegrees>40.47686286270618438720703125</LatitudeDegrees>
              <LongitudeDegrees>-4.02004189789295196533203125</LongitudeDegrees>
            </Position>
            <AltitudeMeters>668.4000244140625</AltitudeMeters>
            <DistanceMeters>NAN</DistanceMeters>
          </Trackpoint>
          <Trackpoint>
            <Time>2019-08-01T10:10:47.000Z</Time>
            <Position>
              <LatitudeDegrees>40.4769066162407398223876953125</LatitudeDegrees>
              <LongitudeDegrees>-4.02007676661014556884765625</LongitudeDegrees>
            </Position>
            <AltitudeMeters>668.5999755859375</AltitudeMeters>
            <DistanceMeters>NAN</DistanceMeters>
          </Trackpoint>
          <Trackpoint>
            <Time>2019-08-01T10:10:48.000Z</Time>
            <Position>
              <LatitudeDegrees>40.47694995068013668060302734375</LatitudeDegrees>
              <LongitudeDegrees>-4.02011188678443431854248046875</LongitudeDegrees>
            </Position>
            <AltitudeMeters>668.79998779296875</AltitudeMeters>
            <DistanceMeters>NAN</DistanceMeters>
          </Trackpoint>
          <Trackpoint>
            <Time>2019-08-01T10:10:49.000Z</Time>
            <Position>
              <LatitudeDegrees>40.47699387185275554656982421875</LatitudeDegrees>
              <LongitudeDegrees>-4.0201470069587230682373046875</LongitudeDegrees>
            </Position>
            <AltitudeMeters>669</AltitudeMeters>
            <DistanceMeters>NAN</DistanceMeters>
          </Trackpoint>
          <Trackpoint>
            <Time>2019-08-01T10:10:50.000Z</Time>
            <Position>
              <LatitudeDegrees>40.47703779302537441253662109375</LatitudeDegrees>
              <LongitudeDegrees>-4.02018179185688495635986328125</LongitudeDegrees>
            </Position>
            <AltitudeMeters>669</AltitudeMeters>
            <DistanceMeters>NAN</DistanceMeters>
          </Trackpoint>
          <Trackpoint>
            <Time>2019-08-01T10:10:51.000Z</Time>
            <Position>
              <LatitudeDegrees>40.47708137892186641693115234375</LatitudeDegrees>
              <LongitudeDegrees>-4.020216576755046844482421875</LongitudeDegrees>
            </Position>
            <AltitudeMeters>669</AltitudeMeters>
            <DistanceMeters>NAN</DistanceMeters>
          </Trackpoint>
          <Trackpoint>
            <Time>2019-08-01T10:10:52.000Z</Time>
            <Position>
              <LatitudeDegrees>40.477124713361263275146484375</LatitudeDegrees>
              <LongitudeDegrees>-4.0202516131103038787841796875</LongitudeDegrees>
            </Position>
            <AltitudeMeters>669.20001220703125</AltitudeMeters>
            <DistanceMeters>NAN</DistanceMeters>
          </Trackpoint>
          <Trackpoint>
            <Time>2019-08-01T10:10:53.000Z</Time>
            <Position>
              <LatitudeDegrees>40.47716804780066013336181640625</LatitudeDegrees>
              <LongitudeDegrees>-4.0202866494655609130859375</LongitudeDegrees>
            </Position>
            <AltitudeMeters>669.4000244140625</AltitudeMeters>
            <DistanceMeters>NAN</DistanceMeters>
          </Trackpoint>
          <Trackpoint>
            <Time>2019-08-01T10:10:54.000Z</Time>
            <Position>
              <LatitudeDegrees>40.477211214601993560791015625</LatitudeDegrees>
              <LongitudeDegrees>-4.020321853458881378173828125</LongitudeDegrees>
            </Position>
            <AltitudeMeters>670</AltitudeMeters>
            <DistanceMeters>NAN</DistanceMeters>
          </Trackpoint>
          <Trackpoint>
            <Time>2019-08-01T10:10:55.000Z</Time>
            <Position>
              <LatitudeDegrees>40.47725438140332698822021484375</LatitudeDegrees>
              <LongitudeDegrees>-4.02035772800445556640625</LongitudeDegrees>
            </Position>
            <AltitudeMeters>670.20001220703125</AltitudeMeters>
            <DistanceMeters>NAN</DistanceMeters>
          </Trackpoint>
          <Trackpoint>
            <Time>2019-08-01T10:10:56.000Z</Time>
            <Position>
              <LatitudeDegrees>40.47729746438562870025634765625</LatitudeDegrees>
              <LongitudeDegrees>-4.02039368636906147003173828125</LongitudeDegrees>
            </Position>
            <AltitudeMeters>670.5999755859375</AltitudeMeters>
            <DistanceMeters>NAN</DistanceMeters>
          </Trackpoint>
          <Trackpoint>
            <Time>2019-08-01T10:10:57.000Z</Time>
            <Position>
              <LatitudeDegrees>40.47734121792018413543701171875</LatitudeDegrees>
              <LongitudeDegrees>-4.02042989619076251983642578125</LongitudeDegrees>
            </Position>
            <AltitudeMeters>670.79998779296875</AltitudeMeters>
            <DistanceMeters>NAN</DistanceMeters>
          </Trackpoint>
          <Trackpoint>
            <Time>2019-08-01T10:10:58.000Z</Time>
            <Position>
              <LatitudeDegrees>40.47738589346408843994140625</LatitudeDegrees>
              <LongitudeDegrees>-4.02046543546020984649658203125</LongitudeDegrees>
            </Position>
            <AltitudeMeters>671.20001220703125</AltitudeMeters>
            <DistanceMeters>NAN</DistanceMeters>
          </Trackpoint>
          <Trackpoint>
            <Time>2019-08-01T10:10:59.000Z</Time>
            <Position>
              <LatitudeDegrees>40.47743040136992931365966796875</LatitudeDegrees>
              <LongitudeDegrees>-4.02050030417740345001220703125</LongitudeDegrees>
            </Position>
            <AltitudeMeters>671.5999755859375</AltitudeMeters>
            <DistanceMeters>NAN</DistanceMeters>
          </Trackpoint>
          <Trackpoint>
            <Time>2019-08-01T10:11:00.000Z</Time>
            <Position>
              <LatitudeDegrees>40.4774745739996433258056640625</LatitudeDegrees>
              <LongitudeDegrees>-4.02053500525653362274169921875</LongitudeDegrees>
            </Position>
            <AltitudeMeters>672</AltitudeMeters>
            <DistanceMeters>NAN</DistanceMeters>
          </Trackpoint>
          <Trackpoint>
            <Time>2019-08-01T10:11:01.000Z</Time>
            <Position>
              <LatitudeDegrees>40.47751891426742076873779296875</LatitudeDegrees>
              <LongitudeDegrees>-4.02056937105953693389892578125</LongitudeDegrees>
            </Position>
            <AltitudeMeters>672</AltitudeMeters>
            <DistanceMeters>NAN</DistanceMeters>
          </Trackpoint>
          <Trackpoint>
            <Time>2019-08-01T10:11:02.000Z</Time>
            <Position>
              <LatitudeDegrees>40.4775635898113250732421875</LatitudeDegrees>
              <LongitudeDegrees>-4.02060449123382568359375</LongitudeDegrees>
            </Position>
            <AltitudeMeters>672.20001220703125</AltitudeMeters>
            <DistanceMeters>NAN</DistanceMeters>
          </Trackpoint>
          <Trackpoint>
            <Time>2019-08-01T10:11:03.000Z</Time>
            <Position>
              <LatitudeDegrees>40.47760851681232452392578125</LatitudeDegrees>
              <LongitudeDegrees>-4.020640365779399871826171875</LongitudeDegrees>
            </Position>
            <AltitudeMeters>672.4000244140625</AltitudeMeters>
            <DistanceMeters>NAN</DistanceMeters>
          </Trackpoint>
          <Trackpoint>
            <Time>2019-08-01T10:11:04.000Z</Time>
            <Position>
              <LatitudeDegrees>40.4776542820036411285400390625</LatitudeDegrees>
              <LongitudeDegrees>-4.02067766524851322174072265625</LongitudeDegrees>
            </Position>
            <AltitudeMeters>672.5999755859375</AltitudeMeters>
            <DistanceMeters>NAN</DistanceMeters>
          </Trackpoint>
          <Trackpoint>
            <Time>2019-08-01T10:11:05.000Z</Time>
            <Position>
              <LatitudeDegrees>40.47770080156624317169189453125</LatitudeDegrees>
              <LongitudeDegrees>-4.02071513235569000244140625</LongitudeDegrees>
            </Position>
            <AltitudeMeters>672.79998779296875</AltitudeMeters>
            <DistanceMeters>NAN</DistanceMeters>
          </Trackpoint>
          <Trackpoint>
            <Time>2019-08-01T10:11:06.000Z</Time>
            <Position>
              <LatitudeDegrees>40.47774799168109893798828125</LatitudeDegrees>
              <LongitudeDegrees>-4.02075310237705707550048828125</LongitudeDegrees>
            </Position>
            <AltitudeMeters>673</AltitudeMeters>
            <DistanceMeters>NAN</DistanceMeters>
          </Trackpoint>
          <Trackpoint>
            <Time>2019-08-01T10:11:07.000Z</Time>
            <Position>
              <LatitudeDegrees>40.477795265614986419677734375</LatitudeDegrees>
              <LongitudeDegrees>-4.02079132385551929473876953125</LongitudeDegrees>
            </Position>
            <AltitudeMeters>673.20001220703125</AltitudeMeters>
            <DistanceMeters>NAN</DistanceMeters>
          </Trackpoint>
          <Trackpoint>
            <Time>2019-08-01T10:11:08.000Z</Time>
            <Position>
              <LatitudeDegrees>40.47784388065338134765625</LatitudeDegrees>
              <LongitudeDegrees>-4.020830132067203521728515625</LongitudeDegrees>
            </Position>
            <AltitudeMeters>673.4000244140625</AltitudeMeters>
            <DistanceMeters>NAN</DistanceMeters>
          </Trackpoint>
          <Trackpoint>
            <Time>2019-08-01T10:11:09.000Z</Time>
            <Position>
              <LatitudeDegrees>40.47789341770112514495849609375</LatitudeDegrees>
              <LongitudeDegrees>-4.0208701975643634796142578125</LongitudeDegrees>
            </Position>
            <AltitudeMeters>673.79998779296875</AltitudeMeters>
            <DistanceMeters>NAN</DistanceMeters>
          </Trackpoint>
          <Trackpoint>
            <Time>2019-08-01T10:11:10.000Z</Time>
            <Position>
              <LatitudeDegrees>40.47794370912015438079833984375</LatitudeDegrees>
              <LongitudeDegrees>-4.020911268889904022216796875</LongitudeDegrees>
            </Position>
            <AltitudeMeters>674</AltitudeMeters>
            <DistanceMeters>NAN</DistanceMeters>
          </Trackpoint>
          <Trackpoint>
            <Time>2019-08-01T10:11:11.000Z</Time>
            <Position>
              <LatitudeDegrees>40.47799475491046905517578125</LatitudeDegrees>
              <LongitudeDegrees>-4.0209520049393177032470703125</LongitudeDegrees>
            </Position>
            <AltitudeMeters>674</AltitudeMeters>
            <DistanceMeters>NAN</DistanceMeters>
          </Trackpoint>
          <Trackpoint>
            <Time>2019-08-01T10:11:13.000Z</Time>
            <Position>
              <LatitudeDegrees>40.47809801995754241943359375</LatitudeDegrees>
              <LongitudeDegrees>-4.0210338123142719268798828125</LongitudeDegrees>
            </Position>
            <AltitudeMeters>674.20001220703125</AltitudeMeters>
            <DistanceMeters>NAN</DistanceMeters>
          </Trackpoint>
          <Trackpoint>
            <Time>2019-08-01T10:11:14.000Z</Time>
            <Position>
              <LatitudeDegrees>40.4781494848430156707763671875</LatitudeDegrees>
              <LongitudeDegrees>-4.02107563801109790802001953125</LongitudeDegrees>
            </Position>
            <AltitudeMeters>674.4000244140625</AltitudeMeters>
            <DistanceMeters>NAN</DistanceMeters>
          </Trackpoint>
          <Trackpoint>
            <Time>2019-08-01T10:11:15.000Z</Time>
            <Position>
              <LatitudeDegrees>40.478200949728488922119140625</LatitudeDegrees>
              <LongitudeDegrees>-4.021117128431797027587890625</LongitudeDegrees>
            </Position>
            <AltitudeMeters>674.5999755859375</AltitudeMeters>
            <DistanceMeters>NAN</DistanceMeters>
          </Trackpoint>
          <Trackpoint>
            <Time>2019-08-01T10:11:16.000Z</Time>
            <Position>
              <LatitudeDegrees>40.47825233079493045806884765625</LatitudeDegrees>
              <LongitudeDegrees>-4.021158702671527862548828125</LongitudeDegrees>
            </Position>
            <AltitudeMeters>674.5999755859375</AltitudeMeters>
            <DistanceMeters>NAN</DistanceMeters>
          </Trackpoint>
          <Trackpoint>
            <Time>2019-08-01T10:11:18.000Z</Time>
            <Position>
              <LatitudeDegrees>40.47835660167038440704345703125</LatitudeDegrees>
              <LongitudeDegrees>-4.02124210260808467864990234375</LongitudeDegrees>
            </Position>
            <AltitudeMeters>674.79998779296875</AltitudeMeters>
            <DistanceMeters>NAN</DistanceMeters>
          </Trackpoint>
          <Trackpoint>
            <Time>2019-08-01T10:11:19.000Z</Time>
            <Position>
              <LatitudeDegrees>40.4784093238413333892822265625</LatitudeDegrees>
              <LongitudeDegrees>-4.02128367684781551361083984375</LongitudeDegrees>
            </Position>
            <AltitudeMeters>675</AltitudeMeters>
            <DistanceMeters>NAN</DistanceMeters>
          </Trackpoint>
          <Trackpoint>
            <Time>2019-08-01T10:11:21.000Z</Time>
            <Position>
              <LatitudeDegrees>40.47851284034550189971923828125</LatitudeDegrees>
              <LongitudeDegrees>-4.021366573870182037353515625</LongitudeDegrees>
            </Position>
            <AltitudeMeters>675</AltitudeMeters>
            <DistanceMeters>NAN</DistanceMeters>
          </Trackpoint>
          <Trackpoint>
            <Time>2019-08-01T10:11:22.000Z</Time>
            <Position>
              <LatitudeDegrees>40.47856329940259456634521484375</LatitudeDegrees>
              <LongitudeDegrees>-4.02140739373862743377685546875</LongitudeDegrees>
            </Position>
            <AltitudeMeters>675.20001220703125</AltitudeMeters>
            <DistanceMeters>NAN</DistanceMeters>
          </Trackpoint>
          <Trackpoint>
            <Time>2019-08-01T10:11:23.000Z</Time>
            <Position>
              <LatitudeDegrees>40.4786131717264652252197265625</LatitudeDegrees>
              <LongitudeDegrees>-4.0214472077786922454833984375</LongitudeDegrees>
            </Position>
            <AltitudeMeters>675.20001220703125</AltitudeMeters>
            <DistanceMeters>NAN</DistanceMeters>
          </Trackpoint>
          <Trackpoint>
            <Time>2019-08-01T10:11:24.000Z</Time>
            <Position>
              <LatitudeDegrees>40.47866136766970157623291015625</LatitudeDegrees>
              <LongitudeDegrees>-4.0214864350855350494384765625</LongitudeDegrees>
            </Position>
            <AltitudeMeters>675.20001220703125</AltitudeMeters>
            <DistanceMeters>NAN</DistanceMeters>
          </Trackpoint>
          <Trackpoint>
            <Time>2019-08-01T10:11:25.000Z</Time>
            <Position>
              <LatitudeDegrees>40.4787083901464939117431640625</LatitudeDegrees>
              <LongitudeDegrees>-4.0215246565639972686767578125</LongitudeDegrees>
            </Position>
            <AltitudeMeters>675.4000244140625</AltitudeMeters>
            <DistanceMeters>NAN</DistanceMeters>
          </Trackpoint>
          <Trackpoint>
            <Time>2019-08-01T10:11:26.000Z</Time>
            <Position>
              <LatitudeDegrees>40.47875390388071537017822265625</LatitudeDegrees>
              <LongitudeDegrees>-4.02156178839504718780517578125</LongitudeDegrees>
            </Position>
            <AltitudeMeters>675.4000244140625</AltitudeMeters>
            <DistanceMeters>NAN</DistanceMeters>
          </Trackpoint>
          <Trackpoint>
            <Time>2019-08-01T10:11:27.000Z</Time>
            <Position>
              <LatitudeDegrees>40.47879816032946109771728515625</LatitudeDegrees>
              <LongitudeDegrees>-4.021597914397716522216796875</LongitudeDegrees>
            </Position>
            <AltitudeMeters>675.4000244140625</AltitudeMeters>
            <DistanceMeters>NAN</DistanceMeters>
          </Trackpoint>
          <Trackpoint>
            <Time>2019-08-01T10:11:28.000Z</Time>
            <Position>
              <LatitudeDegrees>40.47884233295917510986328125</LatitudeDegrees>
              <LongitudeDegrees>-4.02163253165781497955322265625</LongitudeDegrees>
            </Position>
            <AltitudeMeters>675.4000244140625</AltitudeMeters>
            <DistanceMeters>NAN</DistanceMeters>
          </Trackpoint>
          <Trackpoint>
            <Time>2019-08-01T10:11:29.000Z</Time>
            <Position>
              <LatitudeDegrees>40.4788860864937305450439453125</LatitudeDegrees>
              <LongitudeDegrees>-4.0216671489179134368896484375</LongitudeDegrees>
            </Position>
            <AltitudeMeters>675.5999755859375</AltitudeMeters>
            <DistanceMeters>NAN</DistanceMeters>
          </Trackpoint>
          <Trackpoint>
            <Time>2019-08-01T10:11:30.000Z</Time>
            <Position>
              <LatitudeDegrees>40.47892858274281024932861328125</LatitudeDegrees>
              <LongitudeDegrees>-4.021701514720916748046875</LongitudeDegrees>
            </Position>
            <AltitudeMeters>675.5999755859375</AltitudeMeters>
            <DistanceMeters>NAN</DistanceMeters>
          </Trackpoint>
          <Trackpoint>
            <Time>2019-08-01T10:11:31.000Z</Time>
            <Position>
              <LatitudeDegrees>40.4789702408015727996826171875</LatitudeDegrees>
              <LongitudeDegrees>-4.0217348746955394744873046875</LongitudeDegrees>
            </Position>
            <AltitudeMeters>676</AltitudeMeters>
            <DistanceMeters>NAN</DistanceMeters>
          </Trackpoint>
          <Trackpoint>
            <Time>2019-08-01T10:11:32.000Z</Time>
            <Position>
              <LatitudeDegrees>40.4790111444890499114990234375</LatitudeDegrees>
              <LongitudeDegrees>-4.0217672288417816162109375</LongitudeDegrees>
            </Position>
            <AltitudeMeters>676.20001220703125</AltitudeMeters>
            <DistanceMeters>NAN</DistanceMeters>
          </Trackpoint>
          <Trackpoint>
            <Time>2019-08-01T10:11:33.000Z</Time>
            <Position>
              <LatitudeDegrees>40.47905112616717815399169921875</LatitudeDegrees>
              <LongitudeDegrees>-4.02179899625480175018310546875</LongitudeDegrees>
            </Position>
            <AltitudeMeters>676.5999755859375</AltitudeMeters>
            <DistanceMeters>NAN</DistanceMeters>
          </Trackpoint>
          <Trackpoint>
            <Time>2019-08-01T10:11:34.000Z</Time>
            <Position>
              <LatitudeDegrees>40.4790902696549892425537109375</LatitudeDegrees>
              <LongitudeDegrees>-4.02183034457266330718994140625</LongitudeDegrees>
            </Position>
            <AltitudeMeters>677</AltitudeMeters>
            <DistanceMeters>NAN</DistanceMeters>
          </Trackpoint>
          <Trackpoint>
            <Time>2019-08-01T10:11:35.000Z</Time>
            <Position>
              <LatitudeDegrees>40.479128994047641754150390625</LatitudeDegrees>
              <LongitudeDegrees>-4.02186186052858829498291015625</LongitudeDegrees>
            </Position>
            <AltitudeMeters>677.20001220703125</AltitudeMeters>
            <DistanceMeters>NAN</DistanceMeters>
          </Trackpoint>
          <Trackpoint>
            <Time>2019-08-01T10:11:36.000Z</Time>
            <Position>
              <LatitudeDegrees>40.4791677184402942657470703125</LatitudeDegrees>
              <LongitudeDegrees>-4.0218924544751644134521484375</LongitudeDegrees>
            </Position>
            <AltitudeMeters>677.5999755859375</AltitudeMeters>
            <DistanceMeters>NAN</DistanceMeters>
          </Trackpoint>
          <Trackpoint>
            <Time>2019-08-01T10:11:37.000Z</Time>
            <Position>
              <LatitudeDegrees>40.479206107556819915771484375</LatitudeDegrees>
              <LongitudeDegrees>-4.02192304842174053192138671875</LongitudeDegrees>
            </Position>
            <AltitudeMeters>678</AltitudeMeters>
            <DistanceMeters>NAN</DistanceMeters>
          </Trackpoint>
          <Trackpoint>
            <Time>2019-08-01T10:11:38.000Z</Time>
            <Position>
              <LatitudeDegrees>40.479244329035282135009765625</LatitudeDegrees>
              <LongitudeDegrees>-4.021953307092189788818359375</LongitudeDegrees>
            </Position>
            <AltitudeMeters>678.20001220703125</AltitudeMeters>
            <DistanceMeters>NAN</DistanceMeters>
          </Trackpoint>
          <Trackpoint>
            <Time>2019-08-01T10:11:39.000Z</Time>
            <Position>
              <LatitudeDegrees>40.47928229905664920806884765625</LatitudeDegrees>
              <LongitudeDegrees>-4.02198314666748046875</LongitudeDegrees>
            </Position>
            <AltitudeMeters>678.4000244140625</AltitudeMeters>
            <DistanceMeters>NAN</DistanceMeters>
          </Trackpoint>
          <Trackpoint>
            <Time>2019-08-01T10:11:40.000Z</Time>
            <Position>
              <LatitudeDegrees>40.479319430887699127197265625</LatitudeDegrees>
              <LongitudeDegrees>-4.022012315690517425537109375</LongitudeDegrees>
            </Position>
            <AltitudeMeters>678.79998779296875</AltitudeMeters>
            <DistanceMeters>NAN</DistanceMeters>
          </Trackpoint>
          <Trackpoint>
            <Time>2019-08-01T10:11:41.000Z</Time>
            <Position>
              <LatitudeDegrees>40.47935589216649532318115234375</LatitudeDegrees>
              <LongitudeDegrees>-4.02204207144677639007568359375</LongitudeDegrees>
            </Position>
            <AltitudeMeters>679.20001220703125</AltitudeMeters>
            <DistanceMeters>NAN</DistanceMeters>
          </Trackpoint>
          <Trackpoint>
            <Time>2019-08-01T10:11:42.000Z</Time>
            <Position>
              <LatitudeDegrees>40.47939243726432323455810546875</LatitudeDegrees>
              <LongitudeDegrees>-4.0220721624791622161865234375</LongitudeDegrees>
            </Position>
            <AltitudeMeters>679.4000244140625</AltitudeMeters>
            <DistanceMeters>NAN</DistanceMeters>
          </Trackpoint>
          <Trackpoint>
            <Time>2019-08-01T10:11:43.000Z</Time>
            <Position>
              <LatitudeDegrees>40.47942898236215114593505859375</LatitudeDegrees>
              <LongitudeDegrees>-4.0221020020544528961181640625</LongitudeDegrees>
            </Position>
            <AltitudeMeters>679.79998779296875</AltitudeMeters>
            <DistanceMeters>NAN</DistanceMeters>
          </Trackpoint>
          <Trackpoint>
            <Time>2019-08-01T10:11:44.000Z</Time>
            <Position>
              <LatitudeDegrees>40.47946594655513763427734375</LatitudeDegrees>
              <LongitudeDegrees>-4.02213091962039470672607421875</LongitudeDegrees>
            </Position>
            <AltitudeMeters>680.20001220703125</AltitudeMeters>
            <DistanceMeters>NAN</DistanceMeters>
          </Trackpoint>
          <Trackpoint>
            <Time>2019-08-01T10:11:45.000Z</Time>
            <Position>
              <LatitudeDegrees>40.47950324602425098419189453125</LatitudeDegrees>
              <LongitudeDegrees>-4.0221589989960193634033203125</LongitudeDegrees>
            </Position>
            <AltitudeMeters>680.4000244140625</AltitudeMeters>
            <DistanceMeters>NAN</DistanceMeters>
          </Trackpoint>
          <Trackpoint>
            <Time>2019-08-01T10:11:46.000Z</Time>
            <Position>
              <LatitudeDegrees>40.47954029403626918792724609375</LatitudeDegrees>
              <LongitudeDegrees>-4.02218791656196117401123046875</LongitudeDegrees>
            </Position>
            <AltitudeMeters>680.5999755859375</AltitudeMeters>
            <DistanceMeters>NAN</DistanceMeters>
          </Trackpoint>
          <Trackpoint>
            <Time>2019-08-01T10:11:47.000Z</Time>
            <Position>
              <LatitudeDegrees>40.47957700677216053009033203125</LatitudeDegrees>
              <LongitudeDegrees>-4.0222170017659664154052734375</LongitudeDegrees>
            </Position>
            <AltitudeMeters>680.79998779296875</AltitudeMeters>
            <DistanceMeters>NAN</DistanceMeters>
          </Trackpoint>
          <Trackpoint>
            <Time>2019-08-01T10:11:48.000Z</Time>
            <Position>
              <LatitudeDegrees>40.47961371950805187225341796875</LatitudeDegrees>
              <LongitudeDegrees>-4.02224508114159107208251953125</LongitudeDegrees>
            </Position>
            <AltitudeMeters>681.20001220703125</AltitudeMeters>
            <DistanceMeters>NAN</DistanceMeters>
          </Trackpoint>
          <Trackpoint>
            <Time>2019-08-01T10:11:49.000Z</Time>
            <Position>
              <LatitudeDegrees>40.4796503484249114990234375</LatitudeDegrees>
              <LongitudeDegrees>-4.0222736634314060211181640625</LongitudeDegrees>
            </Position>
            <AltitudeMeters>681.4000244140625</AltitudeMeters>
            <DistanceMeters>NAN</DistanceMeters>
          </Trackpoint>
          <Trackpoint>
            <Time>2019-08-01T10:11:50.000Z</Time>
            <Position>
              <LatitudeDegrees>40.47968714497983455657958984375</LatitudeDegrees>
              <LongitudeDegrees>-4.02230241335928440093994140625</LongitudeDegrees>
            </Position>
            <AltitudeMeters>681.5999755859375</AltitudeMeters>
            <DistanceMeters>NAN</DistanceMeters>
          </Trackpoint>
          <Trackpoint>
            <Time>2019-08-01T10:11:51.000Z</Time>
            <Position>
              <LatitudeDegrees>40.47972385771572589874267578125</LatitudeDegrees>
              <LongitudeDegrees>-4.02233250439167022705078125</LongitudeDegrees>
            </Position>
            <AltitudeMeters>682.20001220703125</AltitudeMeters>
            <DistanceMeters>NAN</DistanceMeters>
          </Trackpoint>
          <Trackpoint>
            <Time>2019-08-01T10:11:52.000Z</Time>
            <Position>
              <LatitudeDegrees>40.4797608219087123870849609375</LatitudeDegrees>
              <LongitudeDegrees>-4.02236242778599262237548828125</LongitudeDegrees>
            </Position>
            <AltitudeMeters>682.5999755859375</AltitudeMeters>
            <DistanceMeters>NAN</DistanceMeters>
          </Trackpoint>
          <Trackpoint>
            <Time>2019-08-01T10:11:53.000Z</Time>
            <Position>
              <LatitudeDegrees>40.47979778610169887542724609375</LatitudeDegrees>
              <LongitudeDegrees>-4.02239226736128330230712890625</LongitudeDegrees>
            </Position>
            <AltitudeMeters>682.79998779296875</AltitudeMeters>
            <DistanceMeters>NAN</DistanceMeters>
          </Trackpoint>
          <Trackpoint>
            <Time>2019-08-01T10:11:54.000Z</Time>
            <Position>
              <LatitudeDegrees>40.47983466647565364837646484375</LatitudeDegrees>
              <LongitudeDegrees>-4.0224221907556056976318359375</LongitudeDegrees>
            </Position>
            <AltitudeMeters>683</AltitudeMeters>
            <DistanceMeters>NAN</DistanceMeters>
          </Trackpoint>
          <Trackpoint>
            <Time>2019-08-01T10:11:55.000Z</Time>
            <Position>
              <LatitudeDegrees>40.4798714630305767059326171875</LatitudeDegrees>
              <LongitudeDegrees>-4.0224527008831501007080078125</LongitudeDegrees>
            </Position>
            <AltitudeMeters>683.20001220703125</AltitudeMeters>
            <DistanceMeters>NAN</DistanceMeters>
          </Trackpoint>
          <Trackpoint>
            <Time>2019-08-01T10:11:56.000Z</Time>
            <Position>
              <LatitudeDegrees>40.4799083434045314788818359375</LatitudeDegrees>
              <LongitudeDegrees>-4.02248312719166278839111328125</LongitudeDegrees>
            </Position>
            <AltitudeMeters>683.4000244140625</AltitudeMeters>
            <DistanceMeters>NAN</DistanceMeters>
          </Trackpoint>
          <Trackpoint>
            <Time>2019-08-01T10:11:57.000Z</Time>
            <Position>
              <LatitudeDegrees>40.4799453914165496826171875</LatitudeDegrees>
              <LongitudeDegrees>-4.02251263149082660675048828125</LongitudeDegrees>
            </Position>
            <AltitudeMeters>683.79998779296875</AltitudeMeters>
            <DistanceMeters>NAN</DistanceMeters>
          </Trackpoint>
          <Trackpoint>
            <Time>2019-08-01T10:11:58.000Z</Time>
            <Position>
              <LatitudeDegrees>40.479982607066631317138671875</LatitudeDegrees>
              <LongitudeDegrees>-4.0225418843328952789306640625</LongitudeDegrees>
            </Position>
            <AltitudeMeters>684</AltitudeMeters>
            <DistanceMeters>NAN</DistanceMeters>
          </Trackpoint>
          <Trackpoint>
            <Time>2019-08-01T10:11:59.000Z</Time>
            <Position>
              <LatitudeDegrees>40.48001940362155437469482421875</LatitudeDegrees>
              <LongitudeDegrees>-4.02257197536528110504150390625</LongitudeDegrees>
            </Position>
            <AltitudeMeters>684</AltitudeMeters>
            <DistanceMeters>NAN</DistanceMeters>
          </Trackpoint>
          <Trackpoint>
            <Time>2019-08-01T10:12:00.000Z</Time>
            <Position>
              <LatitudeDegrees>40.480056367814540863037109375</LatitudeDegrees>
              <LongitudeDegrees>-4.02260198257863521575927734375</LongitudeDegrees>
            </Position>
            <AltitudeMeters>684.4000244140625</AltitudeMeters>
            <DistanceMeters>NAN</DistanceMeters>
          </Trackpoint>
          <Trackpoint>
            <Time>2019-08-01T10:12:01.000Z</Time>
            <Position>
              <LatitudeDegrees>40.4800934158265590667724609375</LatitudeDegrees>
              <LongitudeDegrees>-4.02263224124908447265625</LongitudeDegrees>
            </Position>
            <AltitudeMeters>684.79998779296875</AltitudeMeters>
            <DistanceMeters>NAN</DistanceMeters>
          </Trackpoint>
          <Trackpoint>
            <Time>2019-08-01T10:12:02.000Z</Time>
            <Position>
              <LatitudeDegrees>40.48013088293373584747314453125</LatitudeDegrees>
              <LongitudeDegrees>-4.02266216464340686798095703125</LongitudeDegrees>
            </Position>
            <AltitudeMeters>685</AltitudeMeters>
            <DistanceMeters>NAN</DistanceMeters>
          </Trackpoint>
          <Trackpoint>
            <Time>2019-08-01T10:12:03.000Z</Time>
            <Position>
              <LatitudeDegrees>40.48016893677413463592529296875</LatitudeDegrees>
              <LongitudeDegrees>-4.0226910822093486785888671875</LongitudeDegrees>
            </Position>
            <AltitudeMeters>685</AltitudeMeters>
            <DistanceMeters>NAN</DistanceMeters>
          </Trackpoint>
          <Trackpoint>
            <Time>2019-08-01T10:12:04.000Z</Time>
            <Position>
              <LatitudeDegrees>40.48020782880485057830810546875</LatitudeDegrees>
              <LongitudeDegrees>-4.02271807193756103515625</LongitudeDegrees>
            </Position>
            <AltitudeMeters>685.20001220703125</AltitudeMeters>
            <DistanceMeters>NAN</DistanceMeters>
          </Trackpoint>
          <Trackpoint>
            <Time>2019-08-01T10:12:05.000Z</Time>
            <Position>
              <LatitudeDegrees>40.48024781048297882080078125</LatitudeDegrees>
              <LongitudeDegrees>-4.02274413965642452239990234375</LongitudeDegrees>
            </Position>
            <AltitudeMeters>685.4000244140625</AltitudeMeters>
            <DistanceMeters>NAN</DistanceMeters>
          </Trackpoint>
          <Trackpoint>
            <Time>2019-08-01T10:12:06.000Z</Time>
            <Position>
              <LatitudeDegrees>40.48028812743723392486572265625</LatitudeDegrees>
              <LongitudeDegrees>-4.0227678604423999786376953125</LongitudeDegrees>
            </Position>
            <AltitudeMeters>685.79998779296875</AltitudeMeters>
            <DistanceMeters>NAN</DistanceMeters>
          </Trackpoint>
          <Trackpoint>
            <Time>2019-08-01T10:12:07.000Z</Time>
            <Position>
              <LatitudeDegrees>40.4803287796676158905029296875</LatitudeDegrees>
              <LongitudeDegrees>-4.02279024012386798858642578125</LongitudeDegrees>
            </Position>
            <AltitudeMeters>686</AltitudeMeters>
            <DistanceMeters>NAN</DistanceMeters>
          </Trackpoint>
          <Trackpoint>
            <Time>2019-08-01T10:12:08.000Z</Time>
            <Position>
              <LatitudeDegrees>40.48036985099315643310546875</LatitudeDegrees>
              <LongitudeDegrees>-4.02281186543405055999755859375</LongitudeDegrees>
            </Position>
            <AltitudeMeters>686.4000244140625</AltitudeMeters>
            <DistanceMeters>NAN</DistanceMeters>
          </Trackpoint>
          <Trackpoint>
            <Time>2019-08-01T10:12:09.000Z</Time>
            <Position>
              <LatitudeDegrees>40.480411089956760406494140625</LatitudeDegrees>
              <LongitudeDegrees>-4.0228320658206939697265625</LongitudeDegrees>
            </Position>
            <AltitudeMeters>686.5999755859375</AltitudeMeters>
            <DistanceMeters>NAN</DistanceMeters>
          </Trackpoint>
          <Trackpoint>
            <Time>2019-08-01T10:12:10.000Z</Time>
            <Position>
              <LatitudeDegrees>40.480452664196491241455078125</LatitudeDegrees>
              <LongitudeDegrees>-4.02285008691251277923583984375</LongitudeDegrees>
            </Position>
            <AltitudeMeters>686.79998779296875</AltitudeMeters>
            <DistanceMeters>NAN</DistanceMeters>
          </Trackpoint>
          <Trackpoint>
            <Time>2019-08-01T10:12:11.000Z</Time>
            <Position>
              <LatitudeDegrees>40.48049516044557094573974609375</LatitudeDegrees>
              <LongitudeDegrees>-4.02286500670015811920166015625</LongitudeDegrees>
            </Position>
            <AltitudeMeters>687</AltitudeMeters>
            <DistanceMeters>NAN</DistanceMeters>
          </Trackpoint>
          <Trackpoint>
            <Time>2019-08-01T10:12:12.000Z</Time>
            <Position>
              <LatitudeDegrees>40.48053807578980922698974609375</LatitudeDegrees>
              <LongitudeDegrees>-4.022877998650074005126953125</LongitudeDegrees>
            </Position>
            <AltitudeMeters>687.20001220703125</AltitudeMeters>
            <DistanceMeters>NAN</DistanceMeters>
          </Trackpoint>
          <Trackpoint>
            <Time>2019-08-01T10:12:13.000Z</Time>
            <Position>
              <LatitudeDegrees>40.4805812425911426544189453125</LatitudeDegrees>
              <LongitudeDegrees>-4.02289099059998989105224609375</LongitudeDegrees>
            </Position>
            <AltitudeMeters>687.4000244140625</AltitudeMeters>
            <DistanceMeters>NAN</DistanceMeters>
          </Trackpoint>
          <Trackpoint>
            <Time>2019-08-01T10:12:15.000Z</Time>
            <Position>
              <LatitudeDegrees>40.48066816292703151702880859375</LatitudeDegrees>
              <LongitudeDegrees>-4.02291362173855304718017578125</LongitudeDegrees>
            </Position>
            <AltitudeMeters>687.79998779296875</AltitudeMeters>
            <DistanceMeters>NAN</DistanceMeters>
          </Trackpoint>
          <Trackpoint>
            <Time>2019-08-01T10:12:16.000Z</Time>
            <Position>
              <LatitudeDegrees>40.4807116650044918060302734375</LatitudeDegrees>
              <LongitudeDegrees>-4.02292502112686634063720703125</LongitudeDegrees>
            </Position>
            <AltitudeMeters>688.20001220703125</AltitudeMeters>
            <DistanceMeters>NAN</DistanceMeters>
          </Trackpoint>
          <Trackpoint>
            <Time>2019-08-01T10:12:17.000Z</Time>
            <Position>
              <LatitudeDegrees>40.48075466416776180267333984375</LatitudeDegrees>
              <LongitudeDegrees>-4.0229368396103382110595703125</LongitudeDegrees>
            </Position>
            <AltitudeMeters>688.4000244140625</AltitudeMeters>
            <DistanceMeters>NAN</DistanceMeters>
          </Trackpoint>
          <Trackpoint>
            <Time>2019-08-01T10:12:18.000Z</Time>
            <Position>
              <LatitudeDegrees>40.4807983338832855224609375</LatitudeDegrees>
              <LongitudeDegrees>-4.02294781990349292755126953125</LongitudeDegrees>
            </Position>
            <AltitudeMeters>688.5999755859375</AltitudeMeters>
            <DistanceMeters>NAN</DistanceMeters>
          </Trackpoint>
          <Trackpoint>
            <Time>2019-08-01T10:12:20.000Z</Time>
            <Position>
              <LatitudeDegrees>40.4808880202472209930419921875</LatitudeDegrees>
              <LongitudeDegrees>-4.0229690261185169219970703125</LongitudeDegrees>
            </Position>
            <AltitudeMeters>689.20001220703125</AltitudeMeters>
            <DistanceMeters>NAN</DistanceMeters>
          </Trackpoint>
          <Trackpoint>
            <Time>2019-08-01T10:12:21.000Z</Time>
            <Position>
              <LatitudeDegrees>40.48093420453369617462158203125</LatitudeDegrees>
              <LongitudeDegrees>-4.02298117987811565399169921875</LongitudeDegrees>
            </Position>
            <AltitudeMeters>689.4000244140625</AltitudeMeters>
            <DistanceMeters>NAN</DistanceMeters>
          </Trackpoint>
          <Trackpoint>
            <Time>2019-08-01T10:12:22.000Z</Time>
            <Position>
              <LatitudeDegrees>40.4809815622866153717041015625</LatitudeDegrees>
              <LongitudeDegrees>-4.02299475856125354766845703125</LongitudeDegrees>
            </Position>
            <AltitudeMeters>689.5999755859375</AltitudeMeters>
            <DistanceMeters>NAN</DistanceMeters>
          </Trackpoint>
          <Trackpoint>
            <Time>2019-08-01T10:12:23.000Z</Time>
            <Position>
              <LatitudeDegrees>40.48103009350597858428955078125</LatitudeDegrees>
              <LongitudeDegrees>-4.0230095945298671722412109375</LongitudeDegrees>
            </Position>
            <AltitudeMeters>689.79998779296875</AltitudeMeters>
            <DistanceMeters>NAN</DistanceMeters>
          </Trackpoint>
          <Trackpoint>
            <Time>2019-08-01T10:12:24.000Z</Time>
            <Position>
              <LatitudeDegrees>40.4810804687440395355224609375</LatitudeDegrees>
              <LongitudeDegrees>-4.0230238437652587890625</LongitudeDegrees>
            </Position>
            <AltitudeMeters>690</AltitudeMeters>
            <DistanceMeters>NAN</DistanceMeters>
          </Trackpoint>
          <Trackpoint>
            <Time>2019-08-01T10:12:25.000Z</Time>
            <Position>
              <LatitudeDegrees>40.4811321012675762176513671875</LatitudeDegrees>
              <LongitudeDegrees>-4.02303750626742839813232421875</LongitudeDegrees>
            </Position>
            <AltitudeMeters>690.4000244140625</AltitudeMeters>
            <DistanceMeters>NAN</DistanceMeters>
          </Trackpoint>
          <Trackpoint>
            <Time>2019-08-01T10:12:26.000Z</Time>
            <Position>
              <LatitudeDegrees>40.48118499107658863067626953125</LatitudeDegrees>
              <LongitudeDegrees>-4.02305142022669315338134765625</LongitudeDegrees>
            </Position>
            <AltitudeMeters>690.5999755859375</AltitudeMeters>
            <DistanceMeters>NAN</DistanceMeters>
          </Trackpoint>
          <Trackpoint>
            <Time>2019-08-01T10:12:27.000Z</Time>
            <Position>
              <LatitudeDegrees>40.48123880289494991302490234375</LatitudeDegrees>
              <LongitudeDegrees>-4.02306550182402133941650390625</LongitudeDegrees>
            </Position>
            <AltitudeMeters>690.5999755859375</AltitudeMeters>
            <DistanceMeters>NAN</DistanceMeters>
          </Trackpoint>
          <Trackpoint>
            <Time>2019-08-01T10:12:28.000Z</Time>
            <Position>
              <LatitudeDegrees>40.4812930338084697723388671875</LatitudeDegrees>
              <LongitudeDegrees>-4.0230788290500640869140625</LongitudeDegrees>
            </Position>
            <AltitudeMeters>691</AltitudeMeters>
            <DistanceMeters>NAN</DistanceMeters>
          </Trackpoint>
          <Trackpoint>
            <Time>2019-08-01T10:12:29.000Z</Time>
            <Position>
              <LatitudeDegrees>40.4812930338084697723388671875</LatitudeDegrees>
              <LongitudeDegrees>-4.0230788290500640869140625</LongitudeDegrees>
            </Position>
            <AltitudeMeters>690.79998779296875</AltitudeMeters>
            <DistanceMeters>NAN</DistanceMeters>
          </Trackpoint>
          <Trackpoint>
            <Time>2019-08-01T10:12:30.000Z</Time>
            <Position>
              <LatitudeDegrees>40.4812930338084697723388671875</LatitudeDegrees>
              <LongitudeDegrees>-4.0230788290500640869140625</LongitudeDegrees>
            </Position>
            <AltitudeMeters>691</AltitudeMeters>
            <DistanceMeters>NAN</DistanceMeters>
          </Trackpoint>
          <Trackpoint>
            <Time>2019-08-01T10:12:31.000Z</Time>
            <Position>
              <LatitudeDegrees>40.48145991750061511993408203125</LatitudeDegrees>
              <LongitudeDegrees>-4.023120403289794921875</LongitudeDegrees>
            </Position>
            <AltitudeMeters>691</AltitudeMeters>
            <DistanceMeters>NAN</DistanceMeters>
          </Trackpoint>
          <Trackpoint>
            <Time>2019-08-01T10:12:32.000Z</Time>
            <Position>
              <LatitudeDegrees>40.48151691444218158721923828125</LatitudeDegrees>
              <LongitudeDegrees>-4.0231346525251865386962890625</LongitudeDegrees>
            </Position>
            <AltitudeMeters>691</AltitudeMeters>
            <DistanceMeters>NAN</DistanceMeters>
          </Trackpoint>
          <Trackpoint>
            <Time>2019-08-01T10:12:33.000Z</Time>
            <Position>
              <LatitudeDegrees>40.48157441429793834686279296875</LatitudeDegrees>
              <LongitudeDegrees>-4.02314898557960987091064453125</LongitudeDegrees>
            </Position>
            <AltitudeMeters>691.20001220703125</AltitudeMeters>
            <DistanceMeters>NAN</DistanceMeters>
          </Trackpoint>
          <Trackpoint>
            <Time>2019-08-01T10:12:34.000Z</Time>
            <Position>
              <LatitudeDegrees>40.48163308762013912200927734375</LatitudeDegrees>
              <LongitudeDegrees>-4.023163653910160064697265625</LongitudeDegrees>
            </Position>
            <AltitudeMeters>691.20001220703125</AltitudeMeters>
            <DistanceMeters>NAN</DistanceMeters>
          </Trackpoint>
          <Trackpoint>
            <Time>2019-08-01T10:12:35.000Z</Time>
            <Position>
              <LatitudeDegrees>40.4816933535039424896240234375</LatitudeDegrees>
              <LongitudeDegrees>-4.023179076611995697021484375</LongitudeDegrees>
            </Position>
            <AltitudeMeters>691.4000244140625</AltitudeMeters>
            <DistanceMeters>NAN</DistanceMeters>
          </Trackpoint>
          <Trackpoint>
            <Time>2019-08-01T10:12:36.000Z</Time>
            <Position>
              <LatitudeDegrees>40.4817547090351581573486328125</LatitudeDegrees>
              <LongitudeDegrees>-4.02319458313286304473876953125</LongitudeDegrees>
            </Position>
            <AltitudeMeters>691.4000244140625</AltitudeMeters>
            <DistanceMeters>NAN</DistanceMeters>
          </Trackpoint>
          <Trackpoint>
            <Time>2019-08-01T10:12:37.000Z</Time>
            <Position>
              <LatitudeDegrees>40.48181631602346897125244140625</LatitudeDegrees>
              <LongitudeDegrees>-4.0232104249298572540283203125</LongitudeDegrees>
            </Position>
            <AltitudeMeters>691.4000244140625</AltitudeMeters>
            <DistanceMeters>NAN</DistanceMeters>
          </Trackpoint>
          <Trackpoint>
            <Time>2019-08-01T10:12:38.000Z</Time>
            <Position>
              <LatitudeDegrees>40.4818774200975894927978515625</LatitudeDegrees>
              <LongitudeDegrees>-4.02322760783135890960693359375</LongitudeDegrees>
            </Position>
            <AltitudeMeters>691.5999755859375</AltitudeMeters>
            <DistanceMeters>NAN</DistanceMeters>
          </Trackpoint>
          <Trackpoint>
            <Time>2019-08-01T10:12:39.000Z</Time>
            <Position>
              <LatitudeDegrees>40.48193869180977344512939453125</LatitudeDegrees>
              <LongitudeDegrees>-4.0232449583709239959716796875</LongitudeDegrees>
            </Position>
            <AltitudeMeters>691.5999755859375</AltitudeMeters>
            <DistanceMeters>NAN</DistanceMeters>
          </Trackpoint>
          <Trackpoint>
            <Time>2019-08-01T10:12:40.000Z</Time>
            <Position>
              <LatitudeDegrees>40.48199954442679882049560546875</LatitudeDegrees>
              <LongitudeDegrees>-4.02326281182467937469482421875</LongitudeDegrees>
            </Position>
            <AltitudeMeters>691.5999755859375</AltitudeMeters>
            <DistanceMeters>NAN</DistanceMeters>
          </Trackpoint>
          <Trackpoint>
            <Time>2019-08-01T10:12:41.000Z</Time>
            <Position>
              <LatitudeDegrees>40.4820589721202850341796875</LatitudeDegrees>
              <LongitudeDegrees>-4.023283012211322784423828125</LongitudeDegrees>
            </Position>
            <AltitudeMeters>691.5999755859375</AltitudeMeters>
            <DistanceMeters>NAN</DistanceMeters>
          </Trackpoint>
          <Trackpoint>
            <Time>2019-08-01T10:12:42.000Z</Time>
            <Position>
              <LatitudeDegrees>40.4821178130805492401123046875</LatitudeDegrees>
              <LongitudeDegrees>-4.02330757118761539459228515625</LongitudeDegrees>
            </Position>
            <AltitudeMeters>691.5999755859375</AltitudeMeters>
            <DistanceMeters>NAN</DistanceMeters>
          </Trackpoint>
          <Trackpoint>
            <Time>2019-08-01T10:12:43.000Z</Time>
            <Position>
              <LatitudeDegrees>40.48217589966952800750732421875</LatitudeDegrees>
              <LongitudeDegrees>-4.023334980010986328125</LongitudeDegrees>
            </Position>
            <AltitudeMeters>691.5999755859375</AltitudeMeters>
            <DistanceMeters>NAN</DistanceMeters>
          </Trackpoint>
          <Trackpoint>
            <Time>2019-08-01T10:12:44.000Z</Time>
            <Position>
              <LatitudeDegrees>40.482230298221111297607421875</LatitudeDegrees>
              <LongitudeDegrees>-4.02336875908076763153076171875</LongitudeDegrees>
            </Position>
            <AltitudeMeters>691.5999755859375</AltitudeMeters>
            <DistanceMeters>NAN</DistanceMeters>
          </Trackpoint>
          <Trackpoint>
            <Time>2019-08-01T10:12:45.000Z</Time>
            <Position>
              <LatitudeDegrees>40.4822800867259502410888671875</LatitudeDegrees>
              <LongitudeDegrees>-4.023411758244037628173828125</LongitudeDegrees>
            </Position>
            <AltitudeMeters>691.5999755859375</AltitudeMeters>
            <DistanceMeters>NAN</DistanceMeters>
          </Trackpoint>
          <Trackpoint>
            <Time>2019-08-01T10:12:46.000Z</Time>
            <Position>
              <LatitudeDegrees>40.48232710920274257659912109375</LatitudeDegrees>
              <LongitudeDegrees>-4.02346280403435230255126953125</LongitudeDegrees>
            </Position>
            <AltitudeMeters>691.5999755859375</AltitudeMeters>
            <DistanceMeters>NAN</DistanceMeters>
          </Trackpoint>
          <Trackpoint>
            <Time>2019-08-01T10:12:47.000Z</Time>
            <Position>
              <LatitudeDegrees>40.48237035982310771942138671875</LatitudeDegrees>
              <LongitudeDegrees>-4.02351938188076019287109375</LongitudeDegrees>
            </Position>
            <AltitudeMeters>691.5999755859375</AltitudeMeters>
            <DistanceMeters>NAN</DistanceMeters>
          </Trackpoint>
          <Trackpoint>
            <Time>2019-08-01T10:12:48.000Z</Time>
            <Position>
              <LatitudeDegrees>40.48240874893963336944580078125</LatitudeDegrees>
              <LongitudeDegrees>-4.02358249761164188385009765625</LongitudeDegrees>
            </Position>
            <AltitudeMeters>692</AltitudeMeters>
            <DistanceMeters>NAN</DistanceMeters>
          </Trackpoint>
          <Trackpoint>
            <Time>2019-08-01T10:12:49.000Z</Time>
            <Position>
              <LatitudeDegrees>40.48243976198136806488037109375</LatitudeDegrees>
              <LongitudeDegrees>-4.0236519835889339447021484375</LongitudeDegrees>
            </Position>
            <AltitudeMeters>692</AltitudeMeters>
            <DistanceMeters>NAN</DistanceMeters>
          </Trackpoint>
          <Trackpoint>
            <Time>2019-08-01T10:12:50.000Z</Time>
            <Position>
              <LatitudeDegrees>40.4824654944241046905517578125</LatitudeDegrees>
              <LongitudeDegrees>-4.023724906146526336669921875</LongitudeDegrees>
            </Position>
            <AltitudeMeters>692</AltitudeMeters>
            <DistanceMeters>NAN</DistanceMeters>
          </Trackpoint>
          <Trackpoint>
            <Time>2019-08-01T10:12:51.000Z</Time>
            <Position>
              <LatitudeDegrees>40.4824842698872089385986328125</LatitudeDegrees>
              <LongitudeDegrees>-4.02380227111279964447021484375</LongitudeDegrees>
            </Position>
            <AltitudeMeters>692</AltitudeMeters>
            <DistanceMeters>NAN</DistanceMeters>
          </Trackpoint>
          <Trackpoint>
            <Time>2019-08-01T10:12:52.000Z</Time>
            <Position>
              <LatitudeDegrees>40.4824976809322834014892578125</LatitudeDegrees>
              <LongitudeDegrees>-4.02388055808842182159423828125</LongitudeDegrees>
            </Position>
            <AltitudeMeters>692</AltitudeMeters>
            <DistanceMeters>NAN</DistanceMeters>
          </Trackpoint>
          <Trackpoint>
            <Time>2019-08-01T10:12:53.000Z</Time>
            <Position>
              <LatitudeDegrees>40.4825067333877086639404296875</LatitudeDegrees>
              <LongitudeDegrees>-4.02395750395953655242919921875</LongitudeDegrees>
            </Position>
            <AltitudeMeters>692.20001220703125</AltitudeMeters>
            <DistanceMeters>NAN</DistanceMeters>
          </Trackpoint>
          <Trackpoint>
            <Time>2019-08-01T10:12:54.000Z</Time>
            <Position>
              <LatitudeDegrees>40.482512600719928741455078125</LatitudeDegrees>
              <LongitudeDegrees>-4.024034701287746429443359375</LongitudeDegrees>
            </Position>
            <AltitudeMeters>692.20001220703125</AltitudeMeters>
            <DistanceMeters>NAN</DistanceMeters>
          </Trackpoint>
          <Trackpoint>
            <Time>2019-08-01T10:12:55.000Z</Time>
            <Position>
              <LatitudeDegrees>40.4825174622237682342529296875</LatitudeDegrees>
              <LongitudeDegrees>-4.02411139570176601409912109375</LongitudeDegrees>
            </Position>
            <AltitudeMeters>692.4000244140625</AltitudeMeters>
            <DistanceMeters>NAN</DistanceMeters>
          </Trackpoint>
          <Trackpoint>
            <Time>2019-08-01T10:12:56.000Z</Time>
            <Position>
              <LatitudeDegrees>40.48252307809889316558837890625</LatitudeDegrees>
              <LongitudeDegrees>-4.0241880901157855987548828125</LongitudeDegrees>
            </Position>
            <AltitudeMeters>692.5999755859375</AltitudeMeters>
            <DistanceMeters>NAN</DistanceMeters>
          </Trackpoint>
          <Trackpoint>
            <Time>2019-08-01T10:12:57.000Z</Time>
            <Position>
              <LatitudeDegrees>40.4825285263359546661376953125</LatitudeDegrees>
              <LongitudeDegrees>-4.0242628566920757293701171875</LongitudeDegrees>
            </Position>
            <AltitudeMeters>692.5999755859375</AltitudeMeters>
            <DistanceMeters>NAN</DistanceMeters>
          </Trackpoint>
          <Trackpoint>
            <Time>2019-08-01T10:12:58.000Z</Time>
            <Position>
              <LatitudeDegrees>40.482532717287540435791015625</LatitudeDegrees>
              <LongitudeDegrees>-4.0243367850780487060546875</LongitudeDegrees>
            </Position>
            <AltitudeMeters>692.79998779296875</AltitudeMeters>
            <DistanceMeters>NAN</DistanceMeters>
          </Trackpoint>
          <Trackpoint>
            <Time>2019-08-01T10:12:59.000Z</Time>
            <Position>
              <LatitudeDegrees>40.482532717287540435791015625</LatitudeDegrees>
              <LongitudeDegrees>-4.0243367850780487060546875</LongitudeDegrees>
            </Position>
            <AltitudeMeters>693</AltitudeMeters>
            <DistanceMeters>NAN</DistanceMeters>
          </Trackpoint>
          <Trackpoint>
            <Time>2019-08-01T10:13:00.000Z</Time>
            <Position>
              <LatitudeDegrees>40.48254244029521942138671875</LatitudeDegrees>
              <LongitudeDegrees>-4.0244797803461551666259765625</LongitudeDegrees>
            </Position>
            <AltitudeMeters>693.20001220703125</AltitudeMeters>
            <DistanceMeters>NAN</DistanceMeters>
          </Trackpoint>
          <Trackpoint>
            <Time>2019-08-01T10:13:01.000Z</Time>
            <Position>
              <LatitudeDegrees>40.48254244029521942138671875</LatitudeDegrees>
              <LongitudeDegrees>-4.0244797803461551666259765625</LongitudeDegrees>
            </Position>
            <AltitudeMeters>693.4000244140625</AltitudeMeters>
            <DistanceMeters>NAN</DistanceMeters>
          </Trackpoint>
          <Trackpoint>
            <Time>2019-08-01T10:13:02.000Z</Time>
            <Position>
              <LatitudeDegrees>40.4825540073215961456298828125</LatitudeDegrees>
              <LongitudeDegrees>-4.02462252415716648101806640625</LongitudeDegrees>
            </Position>
            <AltitudeMeters>693.5999755859375</AltitudeMeters>
            <DistanceMeters>NAN</DistanceMeters>
          </Trackpoint>
          <Trackpoint>
            <Time>2019-08-01T10:13:03.000Z</Time>
            <Position>
              <LatitudeDegrees>40.48256264068186283111572265625</LatitudeDegrees>
              <LongitudeDegrees>-4.0246933512389659881591796875</LongitudeDegrees>
            </Position>
            <AltitudeMeters>693.79998779296875</AltitudeMeters>
            <DistanceMeters>NAN</DistanceMeters>
          </Trackpoint>
          <Trackpoint>
            <Time>2019-08-01T10:13:04.000Z</Time>
            <Position>
              <LatitudeDegrees>40.48257303424179553985595703125</LatitudeDegrees>
              <LongitudeDegrees>-4.02476334013044834136962890625</LongitudeDegrees>
            </Position>
            <AltitudeMeters>694</AltitudeMeters>
            <DistanceMeters>NAN</DistanceMeters>
          </Trackpoint>
          <Trackpoint>
            <Time>2019-08-01T10:13:05.000Z</Time>
            <Position>
              <LatitudeDegrees>40.48258535563945770263671875</LatitudeDegrees>
              <LongitudeDegrees>-4.02483240701258182525634765625</LongitudeDegrees>
            </Position>
            <AltitudeMeters>694.4000244140625</AltitudeMeters>
            <DistanceMeters>NAN</DistanceMeters>
          </Trackpoint>
          <Trackpoint>
            <Time>2019-08-01T10:13:06.000Z</Time>
            <Position>
              <LatitudeDegrees>40.48260144889354705810546875</LatitudeDegrees>
              <LongitudeDegrees>-4.024899043142795562744140625</LongitudeDegrees>
            </Position>
            <AltitudeMeters>694.5999755859375</AltitudeMeters>
            <DistanceMeters>NAN</DistanceMeters>
          </Trackpoint>
          <Trackpoint>
            <Time>2019-08-01T10:13:07.000Z</Time>
            <Position>
              <LatitudeDegrees>40.48262064345180988311767578125</LatitudeDegrees>
              <LongitudeDegrees>-4.02496500872075557708740234375</LongitudeDegrees>
            </Position>
            <AltitudeMeters>694.79998779296875</AltitudeMeters>
            <DistanceMeters>NAN</DistanceMeters>
          </Trackpoint>
          <Trackpoint>
            <Time>2019-08-01T10:13:08.000Z</Time>
            <Position>
              <LatitudeDegrees>40.48264109529554843902587890625</LatitudeDegrees>
              <LongitudeDegrees>-4.02503156103193759918212890625</LongitudeDegrees>
            </Position>
            <AltitudeMeters>695</AltitudeMeters>
            <DistanceMeters>NAN</DistanceMeters>
          </Trackpoint>
          <Trackpoint>
            <Time>2019-08-01T10:13:09.000Z</Time>
            <Position>
              <LatitudeDegrees>40.482663810253143310546875</LatitudeDegrees>
              <LongitudeDegrees>-4.02509576641023159027099609375</LongitudeDegrees>
            </Position>
            <AltitudeMeters>695.20001220703125</AltitudeMeters>
            <DistanceMeters>NAN</DistanceMeters>
          </Trackpoint>
          <Trackpoint>
            <Time>2019-08-01T10:13:10.000Z</Time>
            <Position>
              <LatitudeDegrees>40.4826907999813556671142578125</LatitudeDegrees>
              <LongitudeDegrees>-4.0251556970179080963134765625</LongitudeDegrees>
            </Position>
            <AltitudeMeters>695.4000244140625</AltitudeMeters>
            <DistanceMeters>NAN</DistanceMeters>
          </Trackpoint>
          <Trackpoint>
            <Time>2019-08-01T10:13:11.000Z</Time>
            <Position>
              <LatitudeDegrees>40.48271904699504375457763671875</LatitudeDegrees>
              <LongitudeDegrees>-4.02521512471139430999755859375</LongitudeDegrees>
            </Position>
            <AltitudeMeters>695.5999755859375</AltitudeMeters>
            <DistanceMeters>NAN</DistanceMeters>
          </Trackpoint>
          <Trackpoint>
            <Time>2019-08-01T10:13:12.000Z</Time>
            <Position>
              <LatitudeDegrees>40.48274938948452472686767578125</LatitudeDegrees>
              <LongitudeDegrees>-4.025273211300373077392578125</LongitudeDegrees>
            </Position>
            <AltitudeMeters>695.79998779296875</AltitudeMeters>
            <DistanceMeters>NAN</DistanceMeters>
          </Trackpoint>
          <Trackpoint>
            <Time>2019-08-01T10:13:13.000Z</Time>
            <Position>
              <LatitudeDegrees>40.48278023488819599151611328125</LatitudeDegrees>
              <LongitudeDegrees>-4.02533163316547870635986328125</LongitudeDegrees>
            </Position>
            <AltitudeMeters>696</AltitudeMeters>
            <DistanceMeters>NAN</DistanceMeters>
          </Trackpoint>
          <Trackpoint>
            <Time>2019-08-01T10:13:14.000Z</Time>
            <Position>
              <LatitudeDegrees>40.48281175084412097930908203125</LatitudeDegrees>
              <LongitudeDegrees>-4.02538863010704517364501953125</LongitudeDegrees>
            </Position>
            <AltitudeMeters>696.4000244140625</AltitudeMeters>
            <DistanceMeters>NAN</DistanceMeters>
          </Trackpoint>
          <Trackpoint>
            <Time>2019-08-01T10:13:15.000Z</Time>
            <Position>
              <LatitudeDegrees>40.48284276388585567474365234375</LatitudeDegrees>
              <LongitudeDegrees>-4.02544579468667507171630859375</LongitudeDegrees>
            </Position>
            <AltitudeMeters>696.5999755859375</AltitudeMeters>
            <DistanceMeters>NAN</DistanceMeters>
          </Trackpoint>
          <Trackpoint>
            <Time>2019-08-01T10:13:16.000Z</Time>
            <Position>
              <LatitudeDegrees>40.48287277109920978546142578125</LatitudeDegrees>
              <LongitudeDegrees>-4.0255033783614635467529296875</LongitudeDegrees>
            </Position>
            <AltitudeMeters>696.79998779296875</AltitudeMeters>
            <DistanceMeters>NAN</DistanceMeters>
          </Trackpoint>
          <Trackpoint>
            <Time>2019-08-01T10:13:17.000Z</Time>
            <Position>
              <LatitudeDegrees>40.482903532683849334716796875</LatitudeDegrees>
              <LongitudeDegrees>-4.02555878274142742156982421875</LongitudeDegrees>
            </Position>
            <AltitudeMeters>697</AltitudeMeters>
            <DistanceMeters>NAN</DistanceMeters>
          </Trackpoint>
          <Trackpoint>
            <Time>2019-08-01T10:13:18.000Z</Time>
            <Position>
              <LatitudeDegrees>40.4829347133636474609375</LatitudeDegrees>
              <LongitudeDegrees>-4.02561485767364501953125</LongitudeDegrees>
            </Position>
            <AltitudeMeters>697.20001220703125</AltitudeMeters>
            <DistanceMeters>NAN</DistanceMeters>
          </Trackpoint>
          <Trackpoint>
            <Time>2019-08-01T10:13:19.000Z</Time>
            <Position>
              <LatitudeDegrees>40.48296564258635044097900390625</LatitudeDegrees>
              <LongitudeDegrees>-4.0256710164248943328857421875</LongitudeDegrees>
            </Position>
            <AltitudeMeters>697.4000244140625</AltitudeMeters>
            <DistanceMeters>NAN</DistanceMeters>
          </Trackpoint>
          <Trackpoint>
            <Time>2019-08-01T10:13:20.000Z</Time>
            <Position>
              <LatitudeDegrees>40.48299632035195827484130859375</LatitudeDegrees>
              <LongitudeDegrees>-4.02572776190936565399169921875</LongitudeDegrees>
            </Position>
            <AltitudeMeters>697.5999755859375</AltitudeMeters>
            <DistanceMeters>NAN</DistanceMeters>
          </Trackpoint>
          <Trackpoint>
            <Time>2019-08-01T10:13:21.000Z</Time>
            <Position>
              <LatitudeDegrees>40.48302632756531238555908203125</LatitudeDegrees>
              <LongitudeDegrees>-4.02578492648899555206298828125</LongitudeDegrees>
            </Position>
            <AltitudeMeters>697.79998779296875</AltitudeMeters>
            <DistanceMeters>NAN</DistanceMeters>
          </Trackpoint>
          <Trackpoint>
            <Time>2019-08-01T10:13:22.000Z</Time>
            <Position>
              <LatitudeDegrees>40.48305633477866649627685546875</LatitudeDegrees>
              <LongitudeDegrees>-4.02584091760218143463134765625</LongitudeDegrees>
            </Position>
            <AltitudeMeters>698.20001220703125</AltitudeMeters>
            <DistanceMeters>NAN</DistanceMeters>
          </Trackpoint>
          <Trackpoint>
            <Time>2019-08-01T10:13:23.000Z</Time>
            <Position>
              <LatitudeDegrees>40.48308667726814746856689453125</LatitudeDegrees>
              <LongitudeDegrees>-4.0258951485157012939453125</LongitudeDegrees>
            </Position>
            <AltitudeMeters>698.4000244140625</AltitudeMeters>
            <DistanceMeters>NAN</DistanceMeters>
          </Trackpoint>
          <Trackpoint>
            <Time>2019-08-01T10:13:24.000Z</Time>
            <Position>
              <LatitudeDegrees>40.4831162653863430023193359375</LatitudeDegrees>
              <LongitudeDegrees>-4.02594770304858684539794921875</LongitudeDegrees>
            </Position>
            <AltitudeMeters>698.5999755859375</AltitudeMeters>
            <DistanceMeters>NAN</DistanceMeters>
          </Trackpoint>
          <Trackpoint>
            <Time>2019-08-01T10:13:25.000Z</Time>
            <Position>
              <LatitudeDegrees>40.48314518295228481292724609375</LatitudeDegrees>
              <LongitudeDegrees>-4.02599883265793323516845703125</LongitudeDegrees>
            </Position>
            <AltitudeMeters>698.79998779296875</AltitudeMeters>
            <DistanceMeters>NAN</DistanceMeters>
          </Trackpoint>
          <Trackpoint>
            <Time>2019-08-01T10:13:26.000Z</Time>
            <Position>
              <LatitudeDegrees>40.4831735976040363311767578125</LatitudeDegrees>
              <LongitudeDegrees>-4.02604878880083560943603515625</LongitudeDegrees>
            </Position>
            <AltitudeMeters>699</AltitudeMeters>
            <DistanceMeters>NAN</DistanceMeters>
          </Trackpoint>
          <Trackpoint>
            <Time>2019-08-01T10:13:27.000Z</Time>
            <Position>
              <LatitudeDegrees>40.48320100642740726470947265625</LatitudeDegrees>
              <LongitudeDegrees>-4.02609698474407196044921875</LongitudeDegrees>
            </Position>
            <AltitudeMeters>699</AltitudeMeters>
            <DistanceMeters>NAN</DistanceMeters>
          </Trackpoint>
          <Trackpoint>
            <Time>2019-08-01T10:13:28.000Z</Time>
            <Position>
              <LatitudeDegrees>40.4832275770604610443115234375</LatitudeDegrees>
              <LongitudeDegrees>-4.02614526450634002685546875</LongitudeDegrees>
            </Position>
            <AltitudeMeters>699.20001220703125</AltitudeMeters>
            <DistanceMeters>NAN</DistanceMeters>
          </Trackpoint>
          <Trackpoint>
            <Time>2019-08-01T10:13:29.000Z</Time>
            <Position>
              <LatitudeDegrees>40.48325431533157825469970703125</LatitudeDegrees>
              <LongitudeDegrees>-4.02619220316410064697265625</LongitudeDegrees>
            </Position>
            <AltitudeMeters>699.4000244140625</AltitudeMeters>
            <DistanceMeters>NAN</DistanceMeters>
          </Trackpoint>
          <Trackpoint>
            <Time>2019-08-01T10:13:30.000Z</Time>
            <Position>
              <LatitudeDegrees>40.48328046686947345733642578125</LatitudeDegrees>
              <LongitudeDegrees>-4.0262383036315441131591796875</LongitudeDegrees>
            </Position>
            <AltitudeMeters>699.5999755859375</AltitudeMeters>
            <DistanceMeters>NAN</DistanceMeters>
          </Trackpoint>
          <Trackpoint>
            <Time>2019-08-01T10:13:31.000Z</Time>
            <Position>
              <LatitudeDegrees>40.48330628313124179840087890625</LatitudeDegrees>
              <LongitudeDegrees>-4.02628348208963871002197265625</LongitudeDegrees>
            </Position>
            <AltitudeMeters>699.79998779296875</AltitudeMeters>
            <DistanceMeters>NAN</DistanceMeters>
          </Trackpoint>
          <Trackpoint>
            <Time>2019-08-01T10:13:32.000Z</Time>
            <Position>
              <LatitudeDegrees>40.4833315126597881317138671875</LatitudeDegrees>
              <LongitudeDegrees>-4.0263274870812892913818359375</LongitudeDegrees>
            </Position>
            <AltitudeMeters>700</AltitudeMeters>
            <DistanceMeters>NAN</DistanceMeters>
          </Trackpoint>
          <Trackpoint>
            <Time>2019-08-01T10:13:33.000Z</Time>
            <Position>
              <LatitudeDegrees>40.48335640691220760345458984375</LatitudeDegrees>
              <LongitudeDegrees>-4.02637082152068614959716796875</LongitudeDegrees>
            </Position>
            <AltitudeMeters>700.20001220703125</AltitudeMeters>
            <DistanceMeters>NAN</DistanceMeters>
          </Trackpoint>
          <Trackpoint>
            <Time>2019-08-01T10:13:34.000Z</Time>
            <Position>
              <LatitudeDegrees>40.48338071443140506744384765625</LatitudeDegrees>
              <LongitudeDegrees>-4.02641390450298786163330078125</LongitudeDegrees>
            </Position>
            <AltitudeMeters>700.5999755859375</AltitudeMeters>
            <DistanceMeters>NAN</DistanceMeters>
          </Trackpoint>
          <Trackpoint>
            <Time>2019-08-01T10:13:35.000Z</Time>
            <Position>
              <LatitudeDegrees>40.48340535722672939300537109375</LatitudeDegrees>
              <LongitudeDegrees>-4.02645547874271869659423828125</LongitudeDegrees>
            </Position>
            <AltitudeMeters>700.79998779296875</AltitudeMeters>
            <DistanceMeters>NAN</DistanceMeters>
          </Trackpoint>
          <Trackpoint>
            <Time>2019-08-01T10:13:36.000Z</Time>
            <Position>
              <LatitudeDegrees>40.48343050293624401092529296875</LatitudeDegrees>
              <LongitudeDegrees>-4.02649571187794208526611328125</LongitudeDegrees>
            </Position>
            <AltitudeMeters>701.20001220703125</AltitudeMeters>
            <DistanceMeters>NAN</DistanceMeters>
          </Trackpoint>
          <Trackpoint>
            <Time>2019-08-01T10:13:37.000Z</Time>
            <Position>
              <LatitudeDegrees>40.4834552295506000518798828125</LatitudeDegrees>
              <LongitudeDegrees>-4.02653544209897518157958984375</LongitudeDegrees>
            </Position>
            <AltitudeMeters>701.4000244140625</AltitudeMeters>
            <DistanceMeters>NAN</DistanceMeters>
          </Trackpoint>
          <Trackpoint>
            <Time>2019-08-01T10:13:38.000Z</Time>
            <Position>
              <LatitudeDegrees>40.48347978852689266204833984375</LatitudeDegrees>
              <LongitudeDegrees>-4.02657332830131053924560546875</LongitudeDegrees>
            </Position>
            <AltitudeMeters>701.79998779296875</AltitudeMeters>
            <DistanceMeters>NAN</DistanceMeters>
          </Trackpoint>
          <Trackpoint>
            <Time>2019-08-01T10:13:39.000Z</Time>
            <Position>
              <LatitudeDegrees>40.48350577242672443389892578125</LatitudeDegrees>
              <LongitudeDegrees>-4.026607610285282135009765625</LongitudeDegrees>
            </Position>
            <AltitudeMeters>702.20001220703125</AltitudeMeters>
            <DistanceMeters>NAN</DistanceMeters>
          </Trackpoint>
          <Trackpoint>
            <Time>2019-08-01T10:13:40.000Z</Time>
            <Position>
              <LatitudeDegrees>40.48350577242672443389892578125</LatitudeDegrees>
              <LongitudeDegrees>-4.026607610285282135009765625</LongitudeDegrees>
            </Position>
            <AltitudeMeters>702.20001220703125</AltitudeMeters>
            <DistanceMeters>NAN</DistanceMeters>
          </Trackpoint>
          <Trackpoint>
            <Time>2019-08-01T10:13:41.000Z</Time>
            <Position>
              <LatitudeDegrees>40.48355908133089542388916015625</LatitudeDegrees>
              <LongitudeDegrees>-4.0266751684248447418212890625</LongitudeDegrees>
            </Position>
            <AltitudeMeters>702.4000244140625</AltitudeMeters>
            <DistanceMeters>NAN</DistanceMeters>
          </Trackpoint>
          <Trackpoint>
            <Time>2019-08-01T10:13:42.000Z</Time>
            <Position>
              <LatitudeDegrees>40.48358623869717121124267578125</LatitudeDegrees>
              <LongitudeDegrees>-4.02670861221849918365478515625</LongitudeDegrees>
            </Position>
            <AltitudeMeters>702.79998779296875</AltitudeMeters>
            <DistanceMeters>NAN</DistanceMeters>
          </Trackpoint>
          <Trackpoint>
            <Time>2019-08-01T10:13:43.000Z</Time>
            <Position>
              <LatitudeDegrees>40.48361440189182758331298828125</LatitudeDegrees>
              <LongitudeDegrees>-4.02674012817442417144775390625</LongitudeDegrees>
            </Position>
            <AltitudeMeters>702.79998779296875</AltitudeMeters>
            <DistanceMeters>NAN</DistanceMeters>
          </Trackpoint>
          <Trackpoint>
            <Time>2019-08-01T10:13:44.000Z</Time>
            <Position>
              <LatitudeDegrees>40.48361440189182758331298828125</LatitudeDegrees>
              <LongitudeDegrees>-4.02674012817442417144775390625</LongitudeDegrees>
            </Position>
            <AltitudeMeters>703.20001220703125</AltitudeMeters>
            <DistanceMeters>NAN</DistanceMeters>
          </Trackpoint>
          <Trackpoint>
            <Time>2019-08-01T10:13:45.000Z</Time>
            <Position>
              <LatitudeDegrees>40.4836731590330600738525390625</LatitudeDegrees>
              <LongitudeDegrees>-4.02679913677275180816650390625</LongitudeDegrees>
            </Position>
            <AltitudeMeters>703.4000244140625</AltitudeMeters>
            <DistanceMeters>NAN</DistanceMeters>
          </Trackpoint>
          <Trackpoint>
            <Time>2019-08-01T10:13:46.000Z</Time>
            <Position>
              <LatitudeDegrees>40.4837043397128582000732421875</LatitudeDegrees>
              <LongitudeDegrees>-4.0268253721296787261962890625</LongitudeDegrees>
            </Position>
            <AltitudeMeters>703.79998779296875</AltitudeMeters>
            <DistanceMeters>NAN</DistanceMeters>
          </Trackpoint>
          <Trackpoint>
            <Time>2019-08-01T10:13:47.000Z</Time>
            <Position>
              <LatitudeDegrees>40.483735688030719757080078125</LatitudeDegrees>
              <LongitudeDegrees>-4.02685060165822505950927734375</LongitudeDegrees>
            </Position>
            <AltitudeMeters>704.20001220703125</AltitudeMeters>
            <DistanceMeters>NAN</DistanceMeters>
          </Trackpoint>
          <Trackpoint>
            <Time>2019-08-01T10:13:48.000Z</Time>
            <Position>
              <LatitudeDegrees>40.48376820981502532958984375</LatitudeDegrees>
              <LongitudeDegrees>-4.0268739871680736541748046875</LongitudeDegrees>
            </Position>
            <AltitudeMeters>704.4000244140625</AltitudeMeters>
            <DistanceMeters>NAN</DistanceMeters>
          </Trackpoint>
          <Trackpoint>
            <Time>2019-08-01T10:13:49.000Z</Time>
            <Position>
              <LatitudeDegrees>40.4838002286851406097412109375</LatitudeDegrees>
              <LongitudeDegrees>-4.0268964506685733795166015625</LongitudeDegrees>
            </Position>
            <AltitudeMeters>704.79998779296875</AltitudeMeters>
            <DistanceMeters>NAN</DistanceMeters>
          </Trackpoint>
          <Trackpoint>
            <Time>2019-08-01T10:13:50.000Z</Time>
            <Position>
              <LatitudeDegrees>40.4838320799171924591064453125</LatitudeDegrees>
              <LongitudeDegrees>-4.026917405426502227783203125</LongitudeDegrees>
            </Position>
            <AltitudeMeters>705</AltitudeMeters>
            <DistanceMeters>NAN</DistanceMeters>
          </Trackpoint>
          <Trackpoint>
            <Time>2019-08-01T10:13:51.000Z</Time>
            <Position>
              <LatitudeDegrees>40.48386535607278347015380859375</LatitudeDegrees>
              <LongitudeDegrees>-4.02693626470863819122314453125</LongitudeDegrees>
            </Position>
            <AltitudeMeters>705.4000244140625</AltitudeMeters>
            <DistanceMeters>NAN</DistanceMeters>
          </Trackpoint>
          <Trackpoint>
            <Time>2019-08-01T10:13:52.000Z</Time>
            <Position>
              <LatitudeDegrees>40.48390005715191364288330078125</LatitudeDegrees>
              <LongitudeDegrees>-4.02695185504853725433349609375</LongitudeDegrees>
            </Position>
            <AltitudeMeters>705.5999755859375</AltitudeMeters>
            <DistanceMeters>NAN</DistanceMeters>
          </Trackpoint>
          <Trackpoint>
            <Time>2019-08-01T10:13:53.000Z</Time>
            <Position>
              <LatitudeDegrees>40.48393559642136096954345703125</LatitudeDegrees>
              <LongitudeDegrees>-4.02696459554135799407958984375</LongitudeDegrees>
            </Position>
            <AltitudeMeters>706</AltitudeMeters>
            <DistanceMeters>NAN</DistanceMeters>
          </Trackpoint>
          <Trackpoint>
            <Time>2019-08-01T10:13:54.000Z</Time>
            <Position>
              <LatitudeDegrees>40.48397197388112545013427734375</LatitudeDegrees>
              <LongitudeDegrees>-4.02697565965354442596435546875</LongitudeDegrees>
            </Position>
            <AltitudeMeters>706.4000244140625</AltitudeMeters>
            <DistanceMeters>NAN</DistanceMeters>
          </Trackpoint>
          <Trackpoint>
            <Time>2019-08-01T10:13:55.000Z</Time>
            <Position>
              <LatitudeDegrees>40.4840091057121753692626953125</LatitudeDegrees>
              <LongitudeDegrees>-4.02698504738509654998779296875</LongitudeDegrees>
            </Position>
            <AltitudeMeters>706.5999755859375</AltitudeMeters>
            <DistanceMeters>NAN</DistanceMeters>
          </Trackpoint>
          <Trackpoint>
            <Time>2019-08-01T10:13:56.000Z</Time>
            <Position>
              <LatitudeDegrees>40.484046153724193572998046875</LatitudeDegrees>
              <LongitudeDegrees>-4.02699225582182407379150390625</LongitudeDegrees>
            </Position>
            <AltitudeMeters>707</AltitudeMeters>
            <DistanceMeters>NAN</DistanceMeters>
          </Trackpoint>
          <Trackpoint>
            <Time>2019-08-01T10:13:57.000Z</Time>
            <Position>
              <LatitudeDegrees>40.48408345319330692291259765625</LatitudeDegrees>
              <LongitudeDegrees>-4.0269960276782512664794921875</LongitudeDegrees>
            </Position>
            <AltitudeMeters>707</AltitudeMeters>
            <DistanceMeters>NAN</DistanceMeters>
          </Trackpoint>
          <Trackpoint>
            <Time>2019-08-01T10:13:58.000Z</Time>
            <Position>
              <LatitudeDegrees>40.48412092030048370361328125</LatitudeDegrees>
              <LongitudeDegrees>-4.02699778787791728973388671875</LongitudeDegrees>
            </Position>
            <AltitudeMeters>707.20001220703125</AltitudeMeters>
            <DistanceMeters>NAN</DistanceMeters>
          </Trackpoint>
          <Trackpoint>
            <Time>2019-08-01T10:13:59.000Z</Time>
            <Position>
              <LatitudeDegrees>40.48412092030048370361328125</LatitudeDegrees>
              <LongitudeDegrees>-4.02699778787791728973388671875</LongitudeDegrees>
            </Position>
            <AltitudeMeters>707.4000244140625</AltitudeMeters>
            <DistanceMeters>NAN</DistanceMeters>
          </Trackpoint>
          <Trackpoint>
            <Time>2019-08-01T10:14:00.000Z</Time>
            <Position>
              <LatitudeDegrees>40.48419610597193241119384765625</LatitudeDegrees>
              <LongitudeDegrees>-4.0269977040588855743408203125</LongitudeDegrees>
            </Position>
            <AltitudeMeters>707.79998779296875</AltitudeMeters>
            <DistanceMeters>NAN</DistanceMeters>
          </Trackpoint>
          <Trackpoint>
            <Time>2019-08-01T10:14:01.000Z</Time>
            <Position>
              <LatitudeDegrees>40.4842337407171726226806640625</LatitudeDegrees>
              <LongitudeDegrees>-4.0269963629543781280517578125</LongitudeDegrees>
            </Position>
            <AltitudeMeters>708.20001220703125</AltitudeMeters>
            <DistanceMeters>NAN</DistanceMeters>
          </Trackpoint>
          <Trackpoint>
            <Time>2019-08-01T10:14:02.000Z</Time>
            <Position>
              <LatitudeDegrees>40.48427137546241283416748046875</LatitudeDegrees>
              <LongitudeDegrees>-4.02699552476406097412109375</LongitudeDegrees>
            </Position>
            <AltitudeMeters>708.5999755859375</AltitudeMeters>
            <DistanceMeters>NAN</DistanceMeters>
          </Trackpoint>
          <Trackpoint>
            <Time>2019-08-01T10:14:03.000Z</Time>
            <Position>
              <LatitudeDegrees>40.484309010207653045654296875</LatitudeDegrees>
              <LongitudeDegrees>-4.02699426747858524322509765625</LongitudeDegrees>
            </Position>
            <AltitudeMeters>708.79998779296875</AltitudeMeters>
            <DistanceMeters>NAN</DistanceMeters>
          </Trackpoint>
          <Trackpoint>
            <Time>2019-08-01T10:14:04.000Z</Time>
            <Position>
              <LatitudeDegrees>40.484345890581607818603515625</LatitudeDegrees>
              <LongitudeDegrees>-4.02699242345988750457763671875</LongitudeDegrees>
            </Position>
            <AltitudeMeters>709</AltitudeMeters>
            <DistanceMeters>NAN</DistanceMeters>
          </Trackpoint>
          <Trackpoint>
            <Time>2019-08-01T10:14:05.000Z</Time>
            <Position>
              <LatitudeDegrees>40.48438335768878459930419921875</LatitudeDegrees>
              <LongitudeDegrees>-4.0269903279840946197509765625</LongitudeDegrees>
            </Position>
            <AltitudeMeters>709.20001220703125</AltitudeMeters>
            <DistanceMeters>NAN</DistanceMeters>
          </Trackpoint>
          <Trackpoint>
            <Time>2019-08-01T10:14:06.000Z</Time>
            <Position>
              <LatitudeDegrees>40.48442023806273937225341796875</LatitudeDegrees>
              <LongitudeDegrees>-4.02698814868927001953125</LongitudeDegrees>
            </Position>
            <AltitudeMeters>709.4000244140625</AltitudeMeters>
            <DistanceMeters>NAN</DistanceMeters>
          </Trackpoint>
          <Trackpoint>
            <Time>2019-08-01T10:14:07.000Z</Time>
            <Position>
              <LatitudeDegrees>40.484457202255725860595703125</LatitudeDegrees>
              <LongitudeDegrees>-4.02698504738509654998779296875</LongitudeDegrees>
            </Position>
            <AltitudeMeters>709.5999755859375</AltitudeMeters>
            <DistanceMeters>NAN</DistanceMeters>
          </Trackpoint>
          <Trackpoint>
            <Time>2019-08-01T10:14:08.000Z</Time>
            <Position>
              <LatitudeDegrees>40.4844942502677440643310546875</LatitudeDegrees>
              <LongitudeDegrees>-4.02698219753801822662353515625</LongitudeDegrees>
            </Position>
            <AltitudeMeters>709.79998779296875</AltitudeMeters>
            <DistanceMeters>NAN</DistanceMeters>
          </Trackpoint>
          <Trackpoint>
            <Time>2019-08-01T10:14:09.000Z</Time>
            <Position>
              <LatitudeDegrees>40.4844942502677440643310546875</LatitudeDegrees>
              <LongitudeDegrees>-4.02698219753801822662353515625</LongitudeDegrees>
            </Position>
            <AltitudeMeters>710.20001220703125</AltitudeMeters>
            <DistanceMeters>NAN</DistanceMeters>
          </Trackpoint>
          <Trackpoint>
            <Time>2019-08-01T10:14:10.000Z</Time>
            <Position>
              <LatitudeDegrees>40.4845683462917804718017578125</LatitudeDegrees>
              <LongitudeDegrees>-4.02697666548192501068115234375</LongitudeDegrees>
            </Position>
            <AltitudeMeters>710.4000244140625</AltitudeMeters>
            <DistanceMeters>NAN</DistanceMeters>
          </Trackpoint>
          <Trackpoint>
            <Time>2019-08-01T10:14:11.000Z</Time>
            <Position>
              <LatitudeDegrees>40.48460531048476696014404296875</LatitudeDegrees>
              <LongitudeDegrees>-4.02697314508259296417236328125</LongitudeDegrees>
            </Position>
            <AltitudeMeters>710.79998779296875</AltitudeMeters>
            <DistanceMeters>NAN</DistanceMeters>
          </Trackpoint>
          <Trackpoint>
            <Time>2019-08-01T10:14:12.000Z</Time>
            <Position>
              <LatitudeDegrees>40.48460531048476696014404296875</LatitudeDegrees>
              <LongitudeDegrees>-4.02697314508259296417236328125</LongitudeDegrees>
            </Position>
            <AltitudeMeters>711.4000244140625</AltitudeMeters>
            <DistanceMeters>NAN</DistanceMeters>
          </Trackpoint>
          <Trackpoint>
            <Time>2019-08-01T10:14:13.000Z</Time>
            <Position>
              <LatitudeDegrees>40.4846789874136447906494140625</LatitudeDegrees>
              <LongitudeDegrees>-4.02696627192199230194091796875</LongitudeDegrees>
            </Position>
            <AltitudeMeters>711.5999755859375</AltitudeMeters>
            <DistanceMeters>NAN</DistanceMeters>
          </Trackpoint>
          <Trackpoint>
            <Time>2019-08-01T10:14:14.000Z</Time>
            <Position>
              <LatitudeDegrees>40.48471595160663127899169921875</LatitudeDegrees>
              <LongitudeDegrees>-4.0269626677036285400390625</LongitudeDegrees>
            </Position>
            <AltitudeMeters>711.79998779296875</AltitudeMeters>
            <DistanceMeters>NAN</DistanceMeters>
          </Trackpoint>
          <Trackpoint>
            <Time>2019-08-01T10:14:15.000Z</Time>
            <Position>
              <LatitudeDegrees>40.48475232906639575958251953125</LatitudeDegrees>
              <LongitudeDegrees>-4.026958644390106201171875</LongitudeDegrees>
            </Position>
            <AltitudeMeters>712</AltitudeMeters>
            <DistanceMeters>NAN</DistanceMeters>
          </Trackpoint>
          <Trackpoint>
            <Time>2019-08-01T10:14:16.000Z</Time>
            <Position>
              <LatitudeDegrees>40.4847892932593822479248046875</LatitudeDegrees>
              <LongitudeDegrees>-4.02695436961948871612548828125</LongitudeDegrees>
            </Position>
            <AltitudeMeters>712.4000244140625</AltitudeMeters>
            <DistanceMeters>NAN</DistanceMeters>
          </Trackpoint>
          <Trackpoint>
            <Time>2019-08-01T10:14:17.000Z</Time>
            <Position>
              <LatitudeDegrees>40.48482558690011501312255859375</LatitudeDegrees>
              <LongitudeDegrees>-4.0269511006772518157958984375</LongitudeDegrees>
            </Position>
            <AltitudeMeters>712.79998779296875</AltitudeMeters>
            <DistanceMeters>NAN</DistanceMeters>
          </Trackpoint>
          <Trackpoint>
            <Time>2019-08-01T10:14:18.000Z</Time>
            <Position>
              <LatitudeDegrees>40.4848620481789112091064453125</LatitudeDegrees>
              <LongitudeDegrees>-4.02694732882082462310791015625</LongitudeDegrees>
            </Position>
            <AltitudeMeters>713</AltitudeMeters>
            <DistanceMeters>NAN</DistanceMeters>
          </Trackpoint>
          <Trackpoint>
            <Time>2019-08-01T10:14:19.000Z</Time>
            <Position>
              <LatitudeDegrees>40.4848975874483585357666015625</LatitudeDegrees>
              <LongitudeDegrees>-4.02694188058376312255859375</LongitudeDegrees>
            </Position>
            <AltitudeMeters>713.4000244140625</AltitudeMeters>
            <DistanceMeters>NAN</DistanceMeters>
          </Trackpoint>
          <Trackpoint>
            <Time>2019-08-01T10:14:20.000Z</Time>
            <Position>
              <LatitudeDegrees>40.48493371345102787017822265625</LatitudeDegrees>
              <LongitudeDegrees>-4.02693743817508220672607421875</LongitudeDegrees>
            </Position>
            <AltitudeMeters>713.5999755859375</AltitudeMeters>
            <DistanceMeters>NAN</DistanceMeters>
          </Trackpoint>
          <Trackpoint>
            <Time>2019-08-01T10:14:21.000Z</Time>
            <Position>
              <LatitudeDegrees>40.48497042618691921234130859375</LatitudeDegrees>
              <LongitudeDegrees>-4.026932828128337860107421875</LongitudeDegrees>
            </Position>
            <AltitudeMeters>713.79998779296875</AltitudeMeters>
            <DistanceMeters>NAN</DistanceMeters>
          </Trackpoint>
          <Trackpoint>
            <Time>2019-08-01T10:14:22.000Z</Time>
            <Position>
              <LatitudeDegrees>40.4850068874657154083251953125</LatitudeDegrees>
              <LongitudeDegrees>-4.02692712843418121337890625</LongitudeDegrees>
            </Position>
            <AltitudeMeters>714.20001220703125</AltitudeMeters>
            <DistanceMeters>NAN</DistanceMeters>
          </Trackpoint>
          <Trackpoint>
            <Time>2019-08-01T10:14:23.000Z</Time>
            <Position>
              <LatitudeDegrees>40.485043264925479888916015625</LatitudeDegrees>
              <LongitudeDegrees>-4.02692050673067569732666015625</LongitudeDegrees>
            </Position>
            <AltitudeMeters>714.4000244140625</AltitudeMeters>
            <DistanceMeters>NAN</DistanceMeters>
          </Trackpoint>
          <Trackpoint>
            <Time>2019-08-01T10:14:24.000Z</Time>
            <Position>
              <LatitudeDegrees>40.4850793071091175079345703125</LatitudeDegrees>
              <LongitudeDegrees>-4.02691363357007503509521484375</LongitudeDegrees>
            </Position>
            <AltitudeMeters>714.5999755859375</AltitudeMeters>
            <DistanceMeters>NAN</DistanceMeters>
          </Trackpoint>
          <Trackpoint>
            <Time>2019-08-01T10:14:25.000Z</Time>
            <Position>
              <LatitudeDegrees>40.485115349292755126953125</LatitudeDegrees>
              <LongitudeDegrees>-4.02690567076206207275390625</LongitudeDegrees>
            </Position>
            <AltitudeMeters>714.79998779296875</AltitudeMeters>
            <DistanceMeters>NAN</DistanceMeters>
          </Trackpoint>
          <Trackpoint>
            <Time>2019-08-01T10:14:26.000Z</Time>
            <Position>
              <LatitudeDegrees>40.48515097238123416900634765625</LatitudeDegrees>
              <LongitudeDegrees>-4.0268971212208271026611328125</LongitudeDegrees>
            </Position>
            <AltitudeMeters>715.20001220703125</AltitudeMeters>
            <DistanceMeters>NAN</DistanceMeters>
          </Trackpoint>
          <Trackpoint>
            <Time>2019-08-01T10:14:27.000Z</Time>
            <Position>
              <LatitudeDegrees>40.4851859249174594879150390625</LatitudeDegrees>
              <LongitudeDegrees>-4.0268880687654018402099609375</LongitudeDegrees>
            </Position>
            <AltitudeMeters>715.4000244140625</AltitudeMeters>
            <DistanceMeters>NAN</DistanceMeters>
          </Trackpoint>
          <Trackpoint>
            <Time>2019-08-01T10:14:28.000Z</Time>
            <Position>
              <LatitudeDegrees>40.48522104509174823760986328125</LatitudeDegrees>
              <LongitudeDegrees>-4.02688010595738887786865234375</LongitudeDegrees>
            </Position>
            <AltitudeMeters>715.5999755859375</AltitudeMeters>
            <DistanceMeters>NAN</DistanceMeters>
          </Trackpoint>
          <Trackpoint>
            <Time>2019-08-01T10:14:29.000Z</Time>
            <Position>
              <LatitudeDegrees>40.48525960184633731842041015625</LatitudeDegrees>
              <LongitudeDegrees>-4.026872478425502777099609375</LongitudeDegrees>
            </Position>
            <AltitudeMeters>716</AltitudeMeters>
            <DistanceMeters>NAN</DistanceMeters>
          </Trackpoint>
          <Trackpoint>
            <Time>2019-08-01T10:14:30.000Z</Time>
            <Position>
              <LatitudeDegrees>40.48529614694416522979736328125</LatitudeDegrees>
              <LongitudeDegrees>-4.026865102350711822509765625</LongitudeDegrees>
            </Position>
            <AltitudeMeters>716.20001220703125</AltitudeMeters>
            <DistanceMeters>NAN</DistanceMeters>
          </Trackpoint>
          <Trackpoint>
            <Time>2019-08-01T10:14:31.000Z</Time>
            <Position>
              <LatitudeDegrees>40.485332272946834564208984375</LatitudeDegrees>
              <LongitudeDegrees>-4.02686049230396747589111328125</LongitudeDegrees>
            </Position>
            <AltitudeMeters>716.5999755859375</AltitudeMeters>
            <DistanceMeters>NAN</DistanceMeters>
          </Trackpoint>
          <Trackpoint>
            <Time>2019-08-01T10:14:32.000Z</Time>
            <Position>
              <LatitudeDegrees>40.48536856658756732940673828125</LatitudeDegrees>
              <LongitudeDegrees>-4.02686082758009433746337890625</LongitudeDegrees>
            </Position>
            <AltitudeMeters>716.79998779296875</AltitudeMeters>
            <DistanceMeters>NAN</DistanceMeters>
          </Trackpoint>
          <Trackpoint>
            <Time>2019-08-01T10:14:33.000Z</Time>
            <Position>
              <LatitudeDegrees>40.485404692590236663818359375</LatitudeDegrees>
              <LongitudeDegrees>-4.02686552144587039947509765625</LongitudeDegrees>
            </Position>
            <AltitudeMeters>717</AltitudeMeters>
            <DistanceMeters>NAN</DistanceMeters>
          </Trackpoint>
          <Trackpoint>
            <Time>2019-08-01T10:14:34.000Z</Time>
            <Position>
              <LatitudeDegrees>40.4854400642216205596923828125</LatitudeDegrees>
              <LongitudeDegrees>-4.02687658555805683135986328125</LongitudeDegrees>
            </Position>
            <AltitudeMeters>717.20001220703125</AltitudeMeters>
            <DistanceMeters>NAN</DistanceMeters>
          </Trackpoint>
          <Trackpoint>
            <Time>2019-08-01T10:14:35.000Z</Time>
            <Position>
              <LatitudeDegrees>40.48547417856752872467041015625</LatitudeDegrees>
              <LongitudeDegrees>-4.02689368464052677154541015625</LongitudeDegrees>
            </Position>
            <AltitudeMeters>717.4000244140625</AltitudeMeters>
            <DistanceMeters>NAN</DistanceMeters>
          </Trackpoint>
          <Trackpoint>
            <Time>2019-08-01T10:14:36.000Z</Time>
            <Position>
              <LatitudeDegrees>40.4855064488947391510009765625</LatitudeDegrees>
              <LongitudeDegrees>-4.02691648341715335845947265625</LongitudeDegrees>
            </Position>
            <AltitudeMeters>717.79998779296875</AltitudeMeters>
            <DistanceMeters>NAN</DistanceMeters>
          </Trackpoint>
          <Trackpoint>
            <Time>2019-08-01T10:14:37.000Z</Time>
            <Position>
              <LatitudeDegrees>40.48553503118455410003662109375</LatitudeDegrees>
              <LongitudeDegrees>-4.0269440598785877227783203125</LongitudeDegrees>
            </Position>
            <AltitudeMeters>717.79998779296875</AltitudeMeters>
            <DistanceMeters>NAN</DistanceMeters>
          </Trackpoint>
          <Trackpoint>
            <Time>2019-08-01T10:14:38.000Z</Time>
            <Position>
              <LatitudeDegrees>40.485560931265354156494140625</LatitudeDegrees>
              <LongitudeDegrees>-4.0269775874912738800048828125</LongitudeDegrees>
            </Position>
            <AltitudeMeters>718.20001220703125</AltitudeMeters>
            <DistanceMeters>NAN</DistanceMeters>
          </Trackpoint>
          <Trackpoint>
            <Time>2019-08-01T10:14:39.000Z</Time>
            <Position>
              <LatitudeDegrees>40.4855845682322978973388671875</LatitudeDegrees>
              <LongitudeDegrees>-4.02701589278876781463623046875</LongitudeDegrees>
            </Position>
            <AltitudeMeters>718.4000244140625</AltitudeMeters>
            <DistanceMeters>NAN</DistanceMeters>
          </Trackpoint>
          <Trackpoint>
            <Time>2019-08-01T10:14:40.000Z</Time>
            <Position>
              <LatitudeDegrees>40.4856033436954021453857421875</LatitudeDegrees>
              <LongitudeDegrees>-4.02705864049494266510009765625</LongitudeDegrees>
            </Position>
            <AltitudeMeters>718.79998779296875</AltitudeMeters>
            <DistanceMeters>NAN</DistanceMeters>
          </Trackpoint>
          <Trackpoint>
            <Time>2019-08-01T10:14:41.000Z</Time>
            <Position>
              <LatitudeDegrees>40.48561667092144489288330078125</LatitudeDegrees>
              <LongitudeDegrees>-4.0271048247814178466796875</LongitudeDegrees>
            </Position>
            <AltitudeMeters>719</AltitudeMeters>
            <DistanceMeters>NAN</DistanceMeters>
          </Trackpoint>
          <Trackpoint>
            <Time>2019-08-01T10:14:42.000Z</Time>
            <Position>
              <LatitudeDegrees>40.48562538810074329376220703125</LatitudeDegrees>
              <LongitudeDegrees>-4.027154110372066497802734375</LongitudeDegrees>
            </Position>
            <AltitudeMeters>719.4000244140625</AltitudeMeters>
            <DistanceMeters>NAN</DistanceMeters>
          </Trackpoint>
          <Trackpoint>
            <Time>2019-08-01T10:14:43.000Z</Time>
            <Position>
              <LatitudeDegrees>40.48563008196651935577392578125</LatitudeDegrees>
              <LongitudeDegrees>-4.02720339596271514892578125</LongitudeDegrees>
            </Position>
            <AltitudeMeters>719.5999755859375</AltitudeMeters>
            <DistanceMeters>NAN</DistanceMeters>
          </Trackpoint>
          <Trackpoint>
            <Time>2019-08-01T10:14:44.000Z</Time>
            <Position>
              <LatitudeDegrees>40.48563192598521709442138671875</LatitudeDegrees>
              <LongitudeDegrees>-4.0272531844675540924072265625</LongitudeDegrees>
            </Position>
            <AltitudeMeters>719.79998779296875</AltitudeMeters>
            <DistanceMeters>NAN</DistanceMeters>
          </Trackpoint>
          <Trackpoint>
            <Time>2019-08-01T10:14:45.000Z</Time>
            <Position>
              <LatitudeDegrees>40.485632009804248809814453125</LatitudeDegrees>
              <LongitudeDegrees>-4.02730464935302734375</LongitudeDegrees>
            </Position>
            <AltitudeMeters>720.20001220703125</AltitudeMeters>
            <DistanceMeters>NAN</DistanceMeters>
          </Trackpoint>
          <Trackpoint>
            <Time>2019-08-01T10:14:46.000Z</Time>
            <Position>
              <LatitudeDegrees>40.485629998147487640380859375</LatitudeDegrees>
              <LongitudeDegrees>-4.027355946600437164306640625</LongitudeDegrees>
            </Position>
            <AltitudeMeters>720.4000244140625</AltitudeMeters>
            <DistanceMeters>NAN</DistanceMeters>
          </Trackpoint>
          <Trackpoint>
            <Time>2019-08-01T10:14:47.000Z</Time>
            <Position>
              <LatitudeDegrees>40.485629998147487640380859375</LatitudeDegrees>
              <LongitudeDegrees>-4.027355946600437164306640625</LongitudeDegrees>
            </Position>
            <AltitudeMeters>720.79998779296875</AltitudeMeters>
            <DistanceMeters>NAN</DistanceMeters>
          </Trackpoint>
          <Trackpoint>
            <Time>2019-08-01T10:14:48.000Z</Time>
            <Position>
              <LatitudeDegrees>40.48562136478722095489501953125</LatitudeDegrees>
              <LongitudeDegrees>-4.0274566970765590667724609375</LongitudeDegrees>
            </Position>
            <AltitudeMeters>721.20001220703125</AltitudeMeters>
            <DistanceMeters>NAN</DistanceMeters>
          </Trackpoint>
          <Trackpoint>
            <Time>2019-08-01T10:14:49.000Z</Time>
            <Position>
              <LatitudeDegrees>40.48561449162662029266357421875</LatitudeDegrees>
              <LongitudeDegrees>-4.0275079943239688873291015625</LongitudeDegrees>
            </Position>
            <AltitudeMeters>721.4000244140625</AltitudeMeters>
            <DistanceMeters>NAN</DistanceMeters>
          </Trackpoint>
          <Trackpoint>
            <Time>2019-08-01T10:14:50.000Z</Time>
            <Position>
              <LatitudeDegrees>40.48560912720859050750732421875</LatitudeDegrees>
              <LongitudeDegrees>-4.02755803428590297698974609375</LongitudeDegrees>
            </Position>
            <AltitudeMeters>721.79998779296875</AltitudeMeters>
            <DistanceMeters>NAN</DistanceMeters>
          </Trackpoint>
          <Trackpoint>
            <Time>2019-08-01T10:14:51.000Z</Time>
            <Position>
              <LatitudeDegrees>40.485603846609592437744140625</LatitudeDegrees>
              <LongitudeDegrees>-4.027607403695583343505859375</LongitudeDegrees>
            </Position>
            <AltitudeMeters>722</AltitudeMeters>
            <DistanceMeters>NAN</DistanceMeters>
          </Trackpoint>
          <Trackpoint>
            <Time>2019-08-01T10:14:52.000Z</Time>
            <Position>
              <LatitudeDegrees>40.4855976440012454986572265625</LatitudeDegrees>
              <LongitudeDegrees>-4.02765744365751743316650390625</LongitudeDegrees>
            </Position>
            <AltitudeMeters>722.20001220703125</AltitudeMeters>
            <DistanceMeters>NAN</DistanceMeters>
          </Trackpoint>
          <Trackpoint>
            <Time>2019-08-01T10:14:53.000Z</Time>
            <Position>
              <LatitudeDegrees>40.48559085465967655181884765625</LatitudeDegrees>
              <LongitudeDegrees>-4.027707315981388092041015625</LongitudeDegrees>
            </Position>
            <AltitudeMeters>722.20001220703125</AltitudeMeters>
            <DistanceMeters>NAN</DistanceMeters>
          </Trackpoint>
          <Trackpoint>
            <Time>2019-08-01T10:14:54.000Z</Time>
            <Position>
              <LatitudeDegrees>40.485584400594234466552734375</LatitudeDegrees>
              <LongitudeDegrees>-4.02775668539106845855712890625</LongitudeDegrees>
            </Position>
            <AltitudeMeters>722.4000244140625</AltitudeMeters>
            <DistanceMeters>NAN</DistanceMeters>
          </Trackpoint>
          <Trackpoint>
            <Time>2019-08-01T10:14:55.000Z</Time>
            <Position>
              <LatitudeDegrees>40.485584400594234466552734375</LatitudeDegrees>
              <LongitudeDegrees>-4.02775668539106845855712890625</LongitudeDegrees>
            </Position>
            <AltitudeMeters>722.5999755859375</AltitudeMeters>
            <DistanceMeters>NAN</DistanceMeters>
          </Trackpoint>
          <Trackpoint>
            <Time>2019-08-01T10:14:56.000Z</Time>
            <Position>
              <LatitudeDegrees>40.48557258211076259613037109375</LatitudeDegrees>
              <LongitudeDegrees>-4.0278560109436511993408203125</LongitudeDegrees>
            </Position>
            <AltitudeMeters>722.5999755859375</AltitudeMeters>
            <DistanceMeters>NAN</DistanceMeters>
          </Trackpoint>
          <Trackpoint>
            <Time>2019-08-01T10:14:57.000Z</Time>
            <Position>
              <LatitudeDegrees>40.48556637950241565704345703125</LatitudeDegrees>
              <LongitudeDegrees>-4.02790605090558528900146484375</LongitudeDegrees>
            </Position>
            <AltitudeMeters>723</AltitudeMeters>
            <DistanceMeters>NAN</DistanceMeters>
          </Trackpoint>
          <Trackpoint>
            <Time>2019-08-01T10:14:58.000Z</Time>
            <Position>
              <LatitudeDegrees>40.48556084744632244110107421875</LatitudeDegrees>
              <LongitudeDegrees>-4.027956426143646240234375</LongitudeDegrees>
            </Position>
            <AltitudeMeters>723.4000244140625</AltitudeMeters>
            <DistanceMeters>NAN</DistanceMeters>
          </Trackpoint>
          <Trackpoint>
            <Time>2019-08-01T10:14:59.000Z</Time>
            <Position>
              <LatitudeDegrees>40.48555498011410236358642578125</LatitudeDegrees>
              <LongitudeDegrees>-4.0280055440962314605712890625</LongitudeDegrees>
            </Position>
            <AltitudeMeters>723.79998779296875</AltitudeMeters>
            <DistanceMeters>NAN</DistanceMeters>
          </Trackpoint>
          <Trackpoint>
            <Time>2019-08-01T10:15:00.000Z</Time>
            <Position>
              <LatitudeDegrees>40.48554844222962856292724609375</LatitudeDegrees>
              <LongitudeDegrees>-4.0280565060675144195556640625</LongitudeDegrees>
            </Position>
            <AltitudeMeters>724</AltitudeMeters>
            <DistanceMeters>NAN</DistanceMeters>
          </Trackpoint>
          <Trackpoint>
            <Time>2019-08-01T10:15:01.000Z</Time>
            <Position>
              <LatitudeDegrees>40.48554173670709133148193359375</LatitudeDegrees>
              <LongitudeDegrees>-4.0281081385910511016845703125</LongitudeDegrees>
            </Position>
            <AltitudeMeters>724.20001220703125</AltitudeMeters>
            <DistanceMeters>NAN</DistanceMeters>
          </Trackpoint>
          <Trackpoint>
            <Time>2019-08-01T10:15:02.000Z</Time>
            <Position>
              <LatitudeDegrees>40.48553419299423694610595703125</LatitudeDegrees>
              <LongitudeDegrees>-4.02815935201942920684814453125</LongitudeDegrees>
            </Position>
            <AltitudeMeters>724.5999755859375</AltitudeMeters>
            <DistanceMeters>NAN</DistanceMeters>
          </Trackpoint>
          <Trackpoint>
            <Time>2019-08-01T10:15:03.000Z</Time>
            <Position>
              <LatitudeDegrees>40.4855285771191120147705078125</LatitudeDegrees>
              <LongitudeDegrees>-4.02820846997201442718505859375</LongitudeDegrees>
            </Position>
            <AltitudeMeters>724.79998779296875</AltitudeMeters>
            <DistanceMeters>NAN</DistanceMeters>
          </Trackpoint>
          <Trackpoint>
            <Time>2019-08-01T10:15:04.000Z</Time>
            <Position>
              <LatitudeDegrees>40.48552430234849452972412109375</LatitudeDegrees>
              <LongitudeDegrees>-4.02825775556266307830810546875</LongitudeDegrees>
            </Position>
            <AltitudeMeters>725</AltitudeMeters>
            <DistanceMeters>NAN</DistanceMeters>
          </Trackpoint>
          <Trackpoint>
            <Time>2019-08-01T10:15:05.000Z</Time>
            <Position>
              <LatitudeDegrees>40.48552430234849452972412109375</LatitudeDegrees>
              <LongitudeDegrees>-4.02825775556266307830810546875</LongitudeDegrees>
            </Position>
            <AltitudeMeters>725.20001220703125</AltitudeMeters>
            <DistanceMeters>NAN</DistanceMeters>
          </Trackpoint>
          <Trackpoint>
            <Time>2019-08-01T10:15:06.000Z</Time>
            <Position>
              <LatitudeDegrees>40.48551893793046474456787109375</LatitudeDegrees>
              <LongitudeDegrees>-4.028355740010738372802734375</LongitudeDegrees>
            </Position>
            <AltitudeMeters>725.4000244140625</AltitudeMeters>
            <DistanceMeters>NAN</DistanceMeters>
          </Trackpoint>
          <Trackpoint>
            <Time>2019-08-01T10:15:07.000Z</Time>
            <Position>
              <LatitudeDegrees>40.48551809974014759063720703125</LatitudeDegrees>
              <LongitudeDegrees>-4.0284048579633235931396484375</LongitudeDegrees>
            </Position>
            <AltitudeMeters>725.5999755859375</AltitudeMeters>
            <DistanceMeters>NAN</DistanceMeters>
          </Trackpoint>
          <Trackpoint>
            <Time>2019-08-01T10:15:08.000Z</Time>
            <Position>
              <LatitudeDegrees>40.4855190217494964599609375</LatitudeDegrees>
              <LongitudeDegrees>-4.02845322154462337493896484375</LongitudeDegrees>
            </Position>
            <AltitudeMeters>726.4000244140625</AltitudeMeters>
            <DistanceMeters>NAN</DistanceMeters>
          </Trackpoint>
          <Trackpoint>
            <Time>2019-08-01T10:15:09.000Z</Time>
            <Position>
              <LatitudeDegrees>40.4855222068727016448974609375</LatitudeDegrees>
              <LongitudeDegrees>-4.02849982492625713348388671875</LongitudeDegrees>
            </Position>
            <AltitudeMeters>727</AltitudeMeters>
            <DistanceMeters>NAN</DistanceMeters>
          </Trackpoint>
          <Trackpoint>
            <Time>2019-08-01T10:15:10.000Z</Time>
            <Position>
              <LatitudeDegrees>40.4855222068727016448974609375</LatitudeDegrees>
              <LongitudeDegrees>-4.02849982492625713348388671875</LongitudeDegrees>
            </Position>
            <AltitudeMeters>727.20001220703125</AltitudeMeters>
            <DistanceMeters>NAN</DistanceMeters>
          </Trackpoint>
          <Trackpoint>
            <Time>2019-08-01T10:15:11.000Z</Time>
            <Position>
              <LatitudeDegrees>40.485533438622951507568359375</LatitudeDegrees>
              <LongitudeDegrees>-4.028592444956302642822265625</LongitudeDegrees>
            </Position>
            <AltitudeMeters>727.4000244140625</AltitudeMeters>
            <DistanceMeters>NAN</DistanceMeters>
          </Trackpoint>
          <Trackpoint>
            <Time>2019-08-01T10:15:12.000Z</Time>
            <Position>
              <LatitudeDegrees>40.48553989268839359283447265625</LatitudeDegrees>
              <LongitudeDegrees>-4.028639383614063262939453125</LongitudeDegrees>
            </Position>
            <AltitudeMeters>727.4000244140625</AltitudeMeters>
            <DistanceMeters>NAN</DistanceMeters>
          </Trackpoint>
          <Trackpoint>
            <Time>2019-08-01T10:15:13.000Z</Time>
            <Position>
              <LatitudeDegrees>40.4855486936867237091064453125</LatitudeDegrees>
              <LongitudeDegrees>-4.02868556790053844451904296875</LongitudeDegrees>
            </Position>
            <AltitudeMeters>727.5999755859375</AltitudeMeters>
            <DistanceMeters>NAN</DistanceMeters>
          </Trackpoint>
          <Trackpoint>
            <Time>2019-08-01T10:15:14.000Z</Time>
            <Position>
              <LatitudeDegrees>40.48555816523730754852294921875</LatitudeDegrees>
              <LongitudeDegrees>-4.0287320874631404876708984375</LongitudeDegrees>
            </Position>
            <AltitudeMeters>727.5999755859375</AltitudeMeters>
            <DistanceMeters>NAN</DistanceMeters>
          </Trackpoint>
          <Trackpoint>
            <Time>2019-08-01T10:15:15.000Z</Time>
            <Position>
              <LatitudeDegrees>40.48555816523730754852294921875</LatitudeDegrees>
              <LongitudeDegrees>-4.0287320874631404876708984375</LongitudeDegrees>
            </Position>
            <AltitudeMeters>727.79998779296875</AltitudeMeters>
            <DistanceMeters>NAN</DistanceMeters>
          </Trackpoint>
          <Trackpoint>
            <Time>2019-08-01T10:15:16.000Z</Time>
            <Position>
              <LatitudeDegrees>40.48558146692812442779541015625</LatitudeDegrees>
              <LongitudeDegrees>-4.0288236178457736968994140625</LongitudeDegrees>
            </Position>
            <AltitudeMeters>728</AltitudeMeters>
            <DistanceMeters>NAN</DistanceMeters>
          </Trackpoint>
          <Trackpoint>
            <Time>2019-08-01T10:15:17.000Z</Time>
            <Position>
              <LatitudeDegrees>40.48559538088738918304443359375</LatitudeDegrees>
              <LongitudeDegrees>-4.0288688801229000091552734375</LongitudeDegrees>
            </Position>
            <AltitudeMeters>728.4000244140625</AltitudeMeters>
            <DistanceMeters>NAN</DistanceMeters>
          </Trackpoint>
          <Trackpoint>
            <Time>2019-08-01T10:15:18.000Z</Time>
            <Position>
              <LatitudeDegrees>40.48561113886535167694091796875</LatitudeDegrees>
              <LongitudeDegrees>-4.0289134718477725982666015625</LongitudeDegrees>
            </Position>
            <AltitudeMeters>728.5999755859375</AltitudeMeters>
            <DistanceMeters>NAN</DistanceMeters>
          </Trackpoint>
          <Trackpoint>
            <Time>2019-08-01T10:15:19.000Z</Time>
            <Position>
              <LatitudeDegrees>40.48562857322394847869873046875</LatitudeDegrees>
              <LongitudeDegrees>-4.0289580635726451873779296875</LongitudeDegrees>
            </Position>
            <AltitudeMeters>728.79998779296875</AltitudeMeters>
            <DistanceMeters>NAN</DistanceMeters>
          </Trackpoint>
          <Trackpoint>
            <Time>2019-08-01T10:15:20.000Z</Time>
            <Position>
              <LatitudeDegrees>40.4856469295918941497802734375</LatitudeDegrees>
              <LongitudeDegrees>-4.029002822935581207275390625</LongitudeDegrees>
            </Position>
            <AltitudeMeters>729.20001220703125</AltitudeMeters>
            <DistanceMeters>NAN</DistanceMeters>
          </Trackpoint>
          <Trackpoint>
            <Time>2019-08-01T10:15:21.000Z</Time>
            <Position>
              <LatitudeDegrees>40.48566578887403011322021484375</LatitudeDegrees>
              <LongitudeDegrees>-4.02904741466045379638671875</LongitudeDegrees>
            </Position>
            <AltitudeMeters>729.5999755859375</AltitudeMeters>
            <DistanceMeters>NAN</DistanceMeters>
          </Trackpoint>
          <Trackpoint>
            <Time>2019-08-01T10:15:22.000Z</Time>
            <Position>
              <LatitudeDegrees>40.4856853187084197998046875</LatitudeDegrees>
              <LongitudeDegrees>-4.02909100055694580078125</LongitudeDegrees>
            </Position>
            <AltitudeMeters>729.79998779296875</AltitudeMeters>
            <DistanceMeters>NAN</DistanceMeters>
          </Trackpoint>
          <Trackpoint>
            <Time>2019-08-01T10:15:23.000Z</Time>
            <Position>
              <LatitudeDegrees>40.48570501618087291717529296875</LatitudeDegrees>
              <LongitudeDegrees>-4.0291347540915012359619140625</LongitudeDegrees>
            </Position>
            <AltitudeMeters>730</AltitudeMeters>
            <DistanceMeters>NAN</DistanceMeters>
          </Trackpoint>
          <Trackpoint>
            <Time>2019-08-01T10:15:24.000Z</Time>
            <Position>
              <LatitudeDegrees>40.48572563566267490386962890625</LatitudeDegrees>
              <LongitudeDegrees>-4.02917808853089809417724609375</LongitudeDegrees>
            </Position>
            <AltitudeMeters>730.4000244140625</AltitudeMeters>
            <DistanceMeters>NAN</DistanceMeters>
          </Trackpoint>
          <Trackpoint>
            <Time>2019-08-01T10:15:25.000Z</Time>
            <Position>
              <LatitudeDegrees>40.48574608750641345977783203125</LatitudeDegrees>
              <LongitudeDegrees>-4.0292215906083583831787109375</LongitudeDegrees>
            </Position>
            <AltitudeMeters>730.5999755859375</AltitudeMeters>
            <DistanceMeters>NAN</DistanceMeters>
          </Trackpoint>
          <Trackpoint>
            <Time>2019-08-01T10:15:26.000Z</Time>
            <Position>
              <LatitudeDegrees>40.48576804809272289276123046875</LatitudeDegrees>
              <LongitudeDegrees>-4.02926308102905750274658203125</LongitudeDegrees>
            </Position>
            <AltitudeMeters>730.79998779296875</AltitudeMeters>
            <DistanceMeters>NAN</DistanceMeters>
          </Trackpoint>
          <Trackpoint>
            <Time>2019-08-01T10:15:27.000Z</Time>
            <Position>
              <LatitudeDegrees>40.485790930688381195068359375</LatitudeDegrees>
              <LongitudeDegrees>-4.0293033979833126068115234375</LongitudeDegrees>
            </Position>
            <AltitudeMeters>731</AltitudeMeters>
            <DistanceMeters>NAN</DistanceMeters>
          </Trackpoint>
          <Trackpoint>
            <Time>2019-08-01T10:15:28.000Z</Time>
            <Position>
              <LatitudeDegrees>40.485814400017261505126953125</LatitudeDegrees>
              <LongitudeDegrees>-4.0293429605662822723388671875</LongitudeDegrees>
            </Position>
            <AltitudeMeters>731.20001220703125</AltitudeMeters>
            <DistanceMeters>NAN</DistanceMeters>
          </Trackpoint>
          <Trackpoint>
            <Time>2019-08-01T10:15:29.000Z</Time>
            <Position>
              <LatitudeDegrees>40.4858370311558246612548828125</LatitudeDegrees>
              <LongitudeDegrees>-4.029383696615695953369140625</LongitudeDegrees>
            </Position>
            <AltitudeMeters>731.4000244140625</AltitudeMeters>
            <DistanceMeters>NAN</DistanceMeters>
          </Trackpoint>
          <Trackpoint>
            <Time>2019-08-01T10:15:30.000Z</Time>
            <Position>
              <LatitudeDegrees>40.48586058430373668670654296875</LatitudeDegrees>
              <LongitudeDegrees>-4.02942292392253875732421875</LongitudeDegrees>
            </Position>
            <AltitudeMeters>731.79998779296875</AltitudeMeters>
            <DistanceMeters>NAN</DistanceMeters>
          </Trackpoint>
          <Trackpoint>
            <Time>2019-08-01T10:15:31.000Z</Time>
            <Position>
              <LatitudeDegrees>40.4858856461942195892333984375</LatitudeDegrees>
              <LongitudeDegrees>-4.0294606424868106842041015625</LongitudeDegrees>
            </Position>
            <AltitudeMeters>732</AltitudeMeters>
            <DistanceMeters>NAN</DistanceMeters>
          </Trackpoint>
          <Trackpoint>
            <Time>2019-08-01T10:15:32.000Z</Time>
            <Position>
              <LatitudeDegrees>40.485911630094051361083984375</LatitudeDegrees>
              <LongitudeDegrees>-4.0294971875846385955810546875</LongitudeDegrees>
            </Position>
            <AltitudeMeters>732.4000244140625</AltitudeMeters>
            <DistanceMeters>NAN</DistanceMeters>
          </Trackpoint>
          <Trackpoint>
            <Time>2019-08-01T10:15:33.000Z</Time>
            <Position>
              <LatitudeDegrees>40.48593820072710514068603515625</LatitudeDegrees>
              <LongitudeDegrees>-4.02953063137829303741455078125</LongitudeDegrees>
            </Position>
            <AltitudeMeters>732.79998779296875</AltitudeMeters>
            <DistanceMeters>NAN</DistanceMeters>
          </Trackpoint>
          <Trackpoint>
            <Time>2019-08-01T10:15:34.000Z</Time>
            <Position>
              <LatitudeDegrees>40.48596560955047607421875</LatitudeDegrees>
              <LongitudeDegrees>-4.02956382371485233306884765625</LongitudeDegrees>
            </Position>
            <AltitudeMeters>733</AltitudeMeters>
            <DistanceMeters>NAN</DistanceMeters>
          </Trackpoint>
          <Trackpoint>
            <Time>2019-08-01T10:15:35.000Z</Time>
            <Position>
              <LatitudeDegrees>40.4859932698309421539306640625</LatitudeDegrees>
              <LongitudeDegrees>-4.02959617786109447479248046875</LongitudeDegrees>
            </Position>
            <AltitudeMeters>733</AltitudeMeters>
            <DistanceMeters>NAN</DistanceMeters>
          </Trackpoint>
          <Trackpoint>
            <Time>2019-08-01T10:15:36.000Z</Time>
            <Position>
              <LatitudeDegrees>40.4860214330255985260009765625</LatitudeDegrees>
              <LongitudeDegrees>-4.02962618507444858551025390625</LongitudeDegrees>
            </Position>
            <AltitudeMeters>733.5999755859375</AltitudeMeters>
            <DistanceMeters>NAN</DistanceMeters>
          </Trackpoint>
          <Trackpoint>
            <Time>2019-08-01T10:15:37.000Z</Time>
            <Position>
              <LatitudeDegrees>40.48604942858219146728515625</LatitudeDegrees>
              <LongitudeDegrees>-4.02965351007878780364990234375</LongitudeDegrees>
            </Position>
            <AltitudeMeters>733.79998779296875</AltitudeMeters>
            <DistanceMeters>NAN</DistanceMeters>
          </Trackpoint>
          <Trackpoint>
            <Time>2019-08-01T10:15:38.000Z</Time>
            <Position>
              <LatitudeDegrees>40.48607767559587955474853515625</LatitudeDegrees>
              <LongitudeDegrees>-4.0296785719692707061767578125</LongitudeDegrees>
            </Position>
            <AltitudeMeters>734</AltitudeMeters>
            <DistanceMeters>NAN</DistanceMeters>
          </Trackpoint>
          <Trackpoint>
            <Time>2019-08-01T10:15:39.000Z</Time>
            <Position>
              <LatitudeDegrees>40.48610667698085308074951171875</LatitudeDegrees>
              <LongitudeDegrees>-4.0297010354697704315185546875</LongitudeDegrees>
            </Position>
            <AltitudeMeters>734.4000244140625</AltitudeMeters>
            <DistanceMeters>NAN</DistanceMeters>
          </Trackpoint>
          <Trackpoint>
            <Time>2019-08-01T10:15:40.000Z</Time>
            <Position>
              <LatitudeDegrees>40.48613601364195346832275390625</LatitudeDegrees>
              <LongitudeDegrees>-4.02972199022769927978515625</LongitudeDegrees>
            </Position>
            <AltitudeMeters>734.79998779296875</AltitudeMeters>
            <DistanceMeters>NAN</DistanceMeters>
          </Trackpoint>
          <Trackpoint>
            <Time>2019-08-01T10:15:41.000Z</Time>
            <Position>
              <LatitudeDegrees>40.4861659370362758636474609375</LatitudeDegrees>
              <LongitudeDegrees>-4.0297432802617549896240234375</LongitudeDegrees>
            </Position>
            <AltitudeMeters>735</AltitudeMeters>
            <DistanceMeters>NAN</DistanceMeters>
          </Trackpoint>
          <Trackpoint>
            <Time>2019-08-01T10:15:42.000Z</Time>
            <Position>
              <LatitudeDegrees>40.48619653098285198211669921875</LatitudeDegrees>
              <LongitudeDegrees>-4.0297628939151763916015625</LongitudeDegrees>
            </Position>
            <AltitudeMeters>735.20001220703125</AltitudeMeters>
            <DistanceMeters>NAN</DistanceMeters>
          </Trackpoint>
          <Trackpoint>
            <Time>2019-08-01T10:15:43.000Z</Time>
            <Position>
              <LatitudeDegrees>40.48622779548168182373046875</LatitudeDegrees>
              <LongitudeDegrees>-4.02978057973086833953857421875</LongitudeDegrees>
            </Position>
            <AltitudeMeters>735.4000244140625</AltitudeMeters>
            <DistanceMeters>NAN</DistanceMeters>
          </Trackpoint>
          <Trackpoint>
            <Time>2019-08-01T10:15:44.000Z</Time>
            <Position>
              <LatitudeDegrees>40.48626023344695568084716796875</LatitudeDegrees>
              <LongitudeDegrees>-4.0297969244420528411865234375</LongitudeDegrees>
            </Position>
            <AltitudeMeters>735.79998779296875</AltitudeMeters>
            <DistanceMeters>NAN</DistanceMeters>
          </Trackpoint>
          <Trackpoint>
            <Time>2019-08-01T10:15:45.000Z</Time>
            <Position>
              <LatitudeDegrees>40.48629376105964183807373046875</LatitudeDegrees>
              <LongitudeDegrees>-4.0298130176961421966552734375</LongitudeDegrees>
            </Position>
            <AltitudeMeters>736</AltitudeMeters>
            <DistanceMeters>NAN</DistanceMeters>
          </Trackpoint>
          <Trackpoint>
            <Time>2019-08-01T10:15:46.000Z</Time>
            <Position>
              <LatitudeDegrees>40.486327372491359710693359375</LatitudeDegrees>
              <LongitudeDegrees>-4.02982793748378753662109375</LongitudeDegrees>
            </Position>
            <AltitudeMeters>736.4000244140625</AltitudeMeters>
            <DistanceMeters>NAN</DistanceMeters>
          </Trackpoint>
          <Trackpoint>
            <Time>2019-08-01T10:15:47.000Z</Time>
            <Position>
              <LatitudeDegrees>40.48636148683726787567138671875</LatitudeDegrees>
              <LongitudeDegrees>-4.029842354357242584228515625</LongitudeDegrees>
            </Position>
            <AltitudeMeters>736.5999755859375</AltitudeMeters>
            <DistanceMeters>NAN</DistanceMeters>
          </Trackpoint>
          <Trackpoint>
            <Time>2019-08-01T10:15:48.000Z</Time>
            <Position>
              <LatitudeDegrees>40.48639635555446147918701171875</LatitudeDegrees>
              <LongitudeDegrees>-4.02985668741166591644287109375</LongitudeDegrees>
            </Position>
            <AltitudeMeters>736.79998779296875</AltitudeMeters>
            <DistanceMeters>NAN</DistanceMeters>
          </Trackpoint>
          <Trackpoint>
            <Time>2019-08-01T10:15:49.000Z</Time>
            <Position>
              <LatitudeDegrees>40.48643105663359165191650390625</LatitudeDegrees>
              <LongitudeDegrees>-4.0298710204660892486572265625</LongitudeDegrees>
            </Position>
            <AltitudeMeters>737.20001220703125</AltitudeMeters>
            <DistanceMeters>NAN</DistanceMeters>
          </Trackpoint>
          <Trackpoint>
            <Time>2019-08-01T10:15:50.000Z</Time>
            <Position>
              <LatitudeDegrees>40.48646542243659496307373046875</LatitudeDegrees>
              <LongitudeDegrees>-4.02988518588244915008544921875</LongitudeDegrees>
            </Position>
            <AltitudeMeters>737.5999755859375</AltitudeMeters>
            <DistanceMeters>NAN</DistanceMeters>
          </Trackpoint>
          <Trackpoint>
            <Time>2019-08-01T10:15:51.000Z</Time>
            <Position>
              <LatitudeDegrees>40.486500374972820281982421875</LatitudeDegrees>
              <LongitudeDegrees>-4.02989792637526988983154296875</LongitudeDegrees>
            </Position>
            <AltitudeMeters>738</AltitudeMeters>
            <DistanceMeters>NAN</DistanceMeters>
          </Trackpoint>
          <Trackpoint>
            <Time>2019-08-01T10:15:52.000Z</Time>
            <Position>
              <LatitudeDegrees>40.4865364171564579010009765625</LatitudeDegrees>
              <LongitudeDegrees>-4.0299092419445514678955078125</LongitudeDegrees>
            </Position>
            <AltitudeMeters>738.4000244140625</AltitudeMeters>
            <DistanceMeters>NAN</DistanceMeters>
          </Trackpoint>
          <Trackpoint>
            <Time>2019-08-01T10:15:53.000Z</Time>
            <Position>
              <LatitudeDegrees>40.4865726269781589508056640625</LatitudeDegrees>
              <LongitudeDegrees>-4.029920138418674468994140625</LongitudeDegrees>
            </Position>
            <AltitudeMeters>738.5999755859375</AltitudeMeters>
            <DistanceMeters>NAN</DistanceMeters>
          </Trackpoint>
          <Trackpoint>
            <Time>2019-08-01T10:15:54.000Z</Time>
            <Position>
              <LatitudeDegrees>40.486607663333415985107421875</LatitudeDegrees>
              <LongitudeDegrees>-4.0299313701689243316650390625</LongitudeDegrees>
            </Position>
            <AltitudeMeters>739</AltitudeMeters>
            <DistanceMeters>NAN</DistanceMeters>
          </Trackpoint>
          <Trackpoint>
            <Time>2019-08-01T10:15:55.000Z</Time>
            <Position>
              <LatitudeDegrees>40.48664261586964130401611328125</LatitudeDegrees>
              <LongitudeDegrees>-4.029941596090793609619140625</LongitudeDegrees>
            </Position>
            <AltitudeMeters>739.20001220703125</AltitudeMeters>
            <DistanceMeters>NAN</DistanceMeters>
          </Trackpoint>
          <Trackpoint>
            <Time>2019-08-01T10:15:56.000Z</Time>
            <Position>
              <LatitudeDegrees>40.4866765625774860382080078125</LatitudeDegrees>
              <LongitudeDegrees>-4.0299534983932971954345703125</LongitudeDegrees>
            </Position>
            <AltitudeMeters>739.4000244140625</AltitudeMeters>
            <DistanceMeters>NAN</DistanceMeters>
          </Trackpoint>
          <Trackpoint>
            <Time>2019-08-01T10:15:57.000Z</Time>
            <Position>
              <LatitudeDegrees>40.4866765625774860382080078125</LatitudeDegrees>
              <LongitudeDegrees>-4.0299534983932971954345703125</LongitudeDegrees>
            </Position>
            <AltitudeMeters>739.5999755859375</AltitudeMeters>
            <DistanceMeters>NAN</DistanceMeters>
          </Trackpoint>
          <Trackpoint>
            <Time>2019-08-01T10:15:58.000Z</Time>
            <Position>
              <LatitudeDegrees>40.48674412071704864501953125</LatitudeDegrees>
              <LongitudeDegrees>-4.0299786441028118133544921875</LongitudeDegrees>
            </Position>
            <AltitudeMeters>740</AltitudeMeters>
            <DistanceMeters>NAN</DistanceMeters>
          </Trackpoint>
          <Trackpoint>
            <Time>2019-08-01T10:15:59.000Z</Time>
            <Position>
              <LatitudeDegrees>40.48677857033908367156982421875</LatitudeDegrees>
              <LongitudeDegrees>-4.02999113313853740692138671875</LongitudeDegrees>
            </Position>
            <AltitudeMeters>740.20001220703125</AltitudeMeters>
            <DistanceMeters>NAN</DistanceMeters>
          </Trackpoint>
          <Trackpoint>
            <Time>2019-08-01T10:16:00.000Z</Time>
            <Position>
              <LatitudeDegrees>40.4868130199611186981201171875</LatitudeDegrees>
              <LongitudeDegrees>-4.03000270016491413116455078125</LongitudeDegrees>
            </Position>
            <AltitudeMeters>740.20001220703125</AltitudeMeters>
            <DistanceMeters>NAN</DistanceMeters>
          </Trackpoint>
          <Trackpoint>
            <Time>2019-08-01T10:16:01.000Z</Time>
            <Position>
              <LatitudeDegrees>40.48684763722121715545654296875</LatitudeDegrees>
              <LongitudeDegrees>-4.030014015734195709228515625</LongitudeDegrees>
            </Position>
            <AltitudeMeters>740.5999755859375</AltitudeMeters>
            <DistanceMeters>NAN</DistanceMeters>
          </Trackpoint>
          <Trackpoint>
            <Time>2019-08-01T10:16:02.000Z</Time>
            <Position>
              <LatitudeDegrees>40.48688200302422046661376953125</LatitudeDegrees>
              <LongitudeDegrees>-4.0300252474844455718994140625</LongitudeDegrees>
            </Position>
            <AltitudeMeters>740.79998779296875</AltitudeMeters>
            <DistanceMeters>NAN</DistanceMeters>
          </Trackpoint>
          <Trackpoint>
            <Time>2019-08-01T10:16:03.000Z</Time>
            <Position>
              <LatitudeDegrees>40.48691636882722377777099609375</LatitudeDegrees>
              <LongitudeDegrees>-4.03003740124404430389404296875</LongitudeDegrees>
            </Position>
            <AltitudeMeters>741.20001220703125</AltitudeMeters>
            <DistanceMeters>NAN</DistanceMeters>
          </Trackpoint>
          <Trackpoint>
            <Time>2019-08-01T10:16:04.000Z</Time>
            <Position>
              <LatitudeDegrees>40.48695090226829051971435546875</LatitudeDegrees>
              <LongitudeDegrees>-4.03005081228911876678466796875</LongitudeDegrees>
            </Position>
            <AltitudeMeters>741.5999755859375</AltitudeMeters>
            <DistanceMeters>NAN</DistanceMeters>
          </Trackpoint>
          <Trackpoint>
            <Time>2019-08-01T10:16:05.000Z</Time>
            <Position>
              <LatitudeDegrees>40.486985184252262115478515625</LatitudeDegrees>
              <LongitudeDegrees>-4.03006422333419322967529296875</LongitudeDegrees>
            </Position>
            <AltitudeMeters>741.79998779296875</AltitudeMeters>
            <DistanceMeters>NAN</DistanceMeters>
          </Trackpoint>
          <Trackpoint>
            <Time>2019-08-01T10:16:06.000Z</Time>
            <Position>
              <LatitudeDegrees>40.4870192147791385650634765625</LatitudeDegrees>
              <LongitudeDegrees>-4.03007729910314083099365234375</LongitudeDegrees>
            </Position>
            <AltitudeMeters>742</AltitudeMeters>
            <DistanceMeters>NAN</DistanceMeters>
          </Trackpoint>
          <Trackpoint>
            <Time>2019-08-01T10:16:07.000Z</Time>
            <Position>
              <LatitudeDegrees>40.48705332912504673004150390625</LatitudeDegrees>
              <LongitudeDegrees>-4.0300892852246761322021484375</LongitudeDegrees>
            </Position>
            <AltitudeMeters>742.20001220703125</AltitudeMeters>
            <DistanceMeters>NAN</DistanceMeters>
          </Trackpoint>
          <Trackpoint>
            <Time>2019-08-01T10:16:08.000Z</Time>
            <Position>
              <LatitudeDegrees>40.4870876111090183258056640625</LatitudeDegrees>
              <LongitudeDegrees>-4.0301003493368625640869140625</LongitudeDegrees>
            </Position>
            <AltitudeMeters>742.4000244140625</AltitudeMeters>
            <DistanceMeters>NAN</DistanceMeters>
          </Trackpoint>
          <Trackpoint>
            <Time>2019-08-01T10:16:09.000Z</Time>
            <Position>
              <LatitudeDegrees>40.4870876111090183258056640625</LatitudeDegrees>
              <LongitudeDegrees>-4.0301003493368625640869140625</LongitudeDegrees>
            </Position>
            <AltitudeMeters>742.5999755859375</AltitudeMeters>
            <DistanceMeters>NAN</DistanceMeters>
          </Trackpoint>
          <Trackpoint>
            <Time>2019-08-01T10:16:10.000Z</Time>
            <Position>
              <LatitudeDegrees>40.48715592361986637115478515625</LatitudeDegrees>
              <LongitudeDegrees>-4.030123315751552581787109375</LongitudeDegrees>
            </Position>
            <AltitudeMeters>743</AltitudeMeters>
            <DistanceMeters>NAN</DistanceMeters>
          </Trackpoint>
          <Trackpoint>
            <Time>2019-08-01T10:16:11.000Z</Time>
            <Position>
              <LatitudeDegrees>40.48718945123255252838134765625</LatitudeDegrees>
              <LongitudeDegrees>-4.03013614006340503692626953125</LongitudeDegrees>
            </Position>
            <AltitudeMeters>743.20001220703125</AltitudeMeters>
            <DistanceMeters>NAN</DistanceMeters>
          </Trackpoint>
          <Trackpoint>
            <Time>2019-08-01T10:16:12.000Z</Time>
            <Position>
              <LatitudeDegrees>40.487223565578460693359375</LatitudeDegrees>
              <LongitudeDegrees>-4.03014904819428920745849609375</LongitudeDegrees>
            </Position>
            <AltitudeMeters>743.4000244140625</AltitudeMeters>
            <DistanceMeters>NAN</DistanceMeters>
          </Trackpoint>
          <Trackpoint>
            <Time>2019-08-01T10:16:13.000Z</Time>
            <Position>
              <LatitudeDegrees>40.48725851811468601226806640625</LatitudeDegrees>
              <LongitudeDegrees>-4.0301613695919513702392578125</LongitudeDegrees>
            </Position>
            <AltitudeMeters>743.5999755859375</AltitudeMeters>
            <DistanceMeters>NAN</DistanceMeters>
          </Trackpoint>
          <Trackpoint>
            <Time>2019-08-01T10:16:14.000Z</Time>
            <Position>
              <LatitudeDegrees>40.48729422502219676971435546875</LatitudeDegrees>
              <LongitudeDegrees>-4.03017394244670867919921875</LongitudeDegrees>
            </Position>
            <AltitudeMeters>743.79998779296875</AltitudeMeters>
            <DistanceMeters>NAN</DistanceMeters>
          </Trackpoint>
          <Trackpoint>
            <Time>2019-08-01T10:16:15.000Z</Time>
            <Position>
              <LatitudeDegrees>40.4873296804726123809814453125</LatitudeDegrees>
              <LongitudeDegrees>-4.030186347663402557373046875</LongitudeDegrees>
            </Position>
            <AltitudeMeters>744</AltitudeMeters>
            <DistanceMeters>NAN</DistanceMeters>
          </Trackpoint>
          <Trackpoint>
            <Time>2019-08-01T10:16:16.000Z</Time>
            <Position>
              <LatitudeDegrees>40.48736513592302799224853515625</LatitudeDegrees>
              <LongitudeDegrees>-4.03020034544169902801513671875</LongitudeDegrees>
            </Position>
            <AltitudeMeters>744.20001220703125</AltitudeMeters>
            <DistanceMeters>NAN</DistanceMeters>
          </Trackpoint>
          <Trackpoint>
            <Time>2019-08-01T10:16:17.000Z</Time>
            <Position>
              <LatitudeDegrees>40.48740184865891933441162109375</LatitudeDegrees>
              <LongitudeDegrees>-4.03021476231515407562255859375</LongitudeDegrees>
            </Position>
            <AltitudeMeters>744.4000244140625</AltitudeMeters>
            <DistanceMeters>NAN</DistanceMeters>
          </Trackpoint>
          <Trackpoint>
            <Time>2019-08-01T10:16:18.000Z</Time>
            <Position>
              <LatitudeDegrees>40.4874383099377155303955078125</LatitudeDegrees>
              <LongitudeDegrees>-4.03022884391248226165771484375</LongitudeDegrees>
            </Position>
            <AltitudeMeters>744.79998779296875</AltitudeMeters>
            <DistanceMeters>NAN</DistanceMeters>
          </Trackpoint>
          <Trackpoint>
            <Time>2019-08-01T10:16:19.000Z</Time>
            <Position>
              <LatitudeDegrees>40.48747544176876544952392578125</LatitudeDegrees>
              <LongitudeDegrees>-4.03024367988109588623046875</LongitudeDegrees>
            </Position>
            <AltitudeMeters>745.20001220703125</AltitudeMeters>
            <DistanceMeters>NAN</DistanceMeters>
          </Trackpoint>
          <Trackpoint>
            <Time>2019-08-01T10:16:20.000Z</Time>
            <Position>
              <LatitudeDegrees>40.48751332797110080718994140625</LatitudeDegrees>
              <LongitudeDegrees>-4.030258096754550933837890625</LongitudeDegrees>
            </Position>
            <AltitudeMeters>745.20001220703125</AltitudeMeters>
            <DistanceMeters>NAN</DistanceMeters>
          </Trackpoint>
          <Trackpoint>
            <Time>2019-08-01T10:16:21.000Z</Time>
            <Position>
              <LatitudeDegrees>40.487551130354404449462890625</LatitudeDegrees>
              <LongitudeDegrees>-4.030271507799625396728515625</LongitudeDegrees>
            </Position>
            <AltitudeMeters>745.5999755859375</AltitudeMeters>
            <DistanceMeters>NAN</DistanceMeters>
          </Trackpoint>
          <Trackpoint>
            <Time>2019-08-01T10:16:22.000Z</Time>
            <Position>
              <LatitudeDegrees>40.48758759163320064544677734375</LatitudeDegrees>
              <LongitudeDegrees>-4.030285589396953582763671875</LongitudeDegrees>
            </Position>
            <AltitudeMeters>745.79998779296875</AltitudeMeters>
            <DistanceMeters>NAN</DistanceMeters>
          </Trackpoint>
          <Trackpoint>
            <Time>2019-08-01T10:16:23.000Z</Time>
            <Position>
              <LatitudeDegrees>40.487624891102313995361328125</LatitudeDegrees>
              <LongitudeDegrees>-4.0302995033562183380126953125</LongitudeDegrees>
            </Position>
            <AltitudeMeters>746</AltitudeMeters>
            <DistanceMeters>NAN</DistanceMeters>
          </Trackpoint>
          <Trackpoint>
            <Time>2019-08-01T10:16:24.000Z</Time>
            <Position>
              <LatitudeDegrees>40.48766252584755420684814453125</LatitudeDegrees>
              <LongitudeDegrees>-4.03031333349645137786865234375</LongitudeDegrees>
            </Position>
            <AltitudeMeters>746.20001220703125</AltitudeMeters>
            <DistanceMeters>NAN</DistanceMeters>
          </Trackpoint>
          <Trackpoint>
            <Time>2019-08-01T10:16:25.000Z</Time>
            <Position>
              <LatitudeDegrees>40.48770007677376270294189453125</LatitudeDegrees>
              <LongitudeDegrees>-4.03032682836055755615234375</LongitudeDegrees>
            </Position>
            <AltitudeMeters>746.4000244140625</AltitudeMeters>
            <DistanceMeters>NAN</DistanceMeters>
          </Trackpoint>
          <Trackpoint>
            <Time>2019-08-01T10:16:26.000Z</Time>
            <Position>
              <LatitudeDegrees>40.48773746006190776824951171875</LatitudeDegrees>
              <LongitudeDegrees>-4.0303407423198223114013671875</LongitudeDegrees>
            </Position>
            <AltitudeMeters>746.79998779296875</AltitudeMeters>
            <DistanceMeters>NAN</DistanceMeters>
          </Trackpoint>
          <Trackpoint>
            <Time>2019-08-01T10:16:27.000Z</Time>
            <Position>
              <LatitudeDegrees>40.4877739213407039642333984375</LatitudeDegrees>
              <LongitudeDegrees>-4.03035474009811878204345703125</LongitudeDegrees>
            </Position>
            <AltitudeMeters>747.20001220703125</AltitudeMeters>
            <DistanceMeters>NAN</DistanceMeters>
          </Trackpoint>
          <Trackpoint>
            <Time>2019-08-01T10:16:28.000Z</Time>
            <Position>
              <LatitudeDegrees>40.48781122080981731414794921875</LatitudeDegrees>
              <LongitudeDegrees>-4.0303690731525421142578125</LongitudeDegrees>
            </Position>
            <AltitudeMeters>747.4000244140625</AltitudeMeters>
            <DistanceMeters>NAN</DistanceMeters>
          </Trackpoint>
          <Trackpoint>
            <Time>2019-08-01T10:16:29.000Z</Time>
            <Position>
              <LatitudeDegrees>40.4878476820886135101318359375</LatitudeDegrees>
              <LongitudeDegrees>-4.0303843282163143157958984375</LongitudeDegrees>
            </Position>
            <AltitudeMeters>747.79998779296875</AltitudeMeters>
            <DistanceMeters>NAN</DistanceMeters>
          </Trackpoint>
          <Trackpoint>
            <Time>2019-08-01T10:16:30.000Z</Time>
            <Position>
              <LatitudeDegrees>40.4878476820886135101318359375</LatitudeDegrees>
              <LongitudeDegrees>-4.0303843282163143157958984375</LongitudeDegrees>
            </Position>
            <AltitudeMeters>748</AltitudeMeters>
            <DistanceMeters>NAN</DistanceMeters>
          </Trackpoint>
          <Trackpoint>
            <Time>2019-08-01T10:16:31.000Z</Time>
            <Position>
              <LatitudeDegrees>40.48791700042784214019775390625</LatitudeDegrees>
              <LongitudeDegrees>-4.03041944839060306549072265625</LongitudeDegrees>
            </Position>
            <AltitudeMeters>748.4000244140625</AltitudeMeters>
            <DistanceMeters>NAN</DistanceMeters>
          </Trackpoint>
          <Trackpoint>
            <Time>2019-08-01T10:16:32.000Z</Time>
            <Position>
              <LatitudeDegrees>40.48795153386890888214111328125</LatitudeDegrees>
              <LongitudeDegrees>-4.0304389782249927520751953125</LongitudeDegrees>
            </Position>
            <AltitudeMeters>749</AltitudeMeters>
            <DistanceMeters>NAN</DistanceMeters>
          </Trackpoint>
          <Trackpoint>
            <Time>2019-08-01T10:16:33.000Z</Time>
            <Position>
              <LatitudeDegrees>40.487984977662563323974609375</LatitudeDegrees>
              <LongitudeDegrees>-4.030461609363555908203125</LongitudeDegrees>
            </Position>
            <AltitudeMeters>749.20001220703125</AltitudeMeters>
            <DistanceMeters>NAN</DistanceMeters>
          </Trackpoint>
          <Trackpoint>
            <Time>2019-08-01T10:16:34.000Z</Time>
            <Position>
              <LatitudeDegrees>40.48801775090396404266357421875</LatitudeDegrees>
              <LongitudeDegrees>-4.0304870903491973876953125</LongitudeDegrees>
            </Position>
            <AltitudeMeters>749.5999755859375</AltitudeMeters>
            <DistanceMeters>NAN</DistanceMeters>
          </Trackpoint>
          <Trackpoint>
            <Time>2019-08-01T10:16:35.000Z</Time>
            <Position>
              <LatitudeDegrees>40.488049350678920745849609375</LatitudeDegrees>
              <LongitudeDegrees>-4.03051516972482204437255859375</LongitudeDegrees>
            </Position>
            <AltitudeMeters>749.79998779296875</AltitudeMeters>
            <DistanceMeters>NAN</DistanceMeters>
          </Trackpoint>
          <Trackpoint>
            <Time>2019-08-01T10:16:36.000Z</Time>
            <Position>
              <LatitudeDegrees>40.48807977698743343353271484375</LatitudeDegrees>
              <LongitudeDegrees>-4.03054467402398586273193359375</LongitudeDegrees>
            </Position>
            <AltitudeMeters>750.20001220703125</AltitudeMeters>
            <DistanceMeters>NAN</DistanceMeters>
          </Trackpoint>
          <Trackpoint>
            <Time>2019-08-01T10:16:37.000Z</Time>
            <Position>
              <LatitudeDegrees>40.4881100356578826904296875</LatitudeDegrees>
              <LongitudeDegrees>-4.030575938522815704345703125</LongitudeDegrees>
            </Position>
            <AltitudeMeters>750.4000244140625</AltitudeMeters>
            <DistanceMeters>NAN</DistanceMeters>
          </Trackpoint>
          <Trackpoint>
            <Time>2019-08-01T10:16:38.000Z</Time>
            <Position>
              <LatitudeDegrees>40.48814230598509311676025390625</LatitudeDegrees>
              <LongitudeDegrees>-4.03060938231647014617919921875</LongitudeDegrees>
            </Position>
            <AltitudeMeters>750.79998779296875</AltitudeMeters>
            <DistanceMeters>NAN</DistanceMeters>
          </Trackpoint>
          <Trackpoint>
            <Time>2019-08-01T10:16:39.000Z</Time>
            <Position>
              <LatitudeDegrees>40.48814230598509311676025390625</LatitudeDegrees>
              <LongitudeDegrees>-4.03060938231647014617919921875</LongitudeDegrees>
            </Position>
            <AltitudeMeters>751</AltitudeMeters>
            <DistanceMeters>NAN</DistanceMeters>
          </Trackpoint>
          <Trackpoint>
            <Time>2019-08-01T10:16:40.000Z</Time>
            <Position>
              <LatitudeDegrees>40.4882024042308330535888671875</LatitudeDegrees>
              <LongitudeDegrees>-4.03068196959793567657470703125</LongitudeDegrees>
            </Position>
            <AltitudeMeters>751.20001220703125</AltitudeMeters>
            <DistanceMeters>NAN</DistanceMeters>
          </Trackpoint>
          <Trackpoint>
            <Time>2019-08-01T10:16:41.000Z</Time>
            <Position>
              <LatitudeDegrees>40.48823215998709201812744140625</LatitudeDegrees>
              <LongitudeDegrees>-4.030719436705112457275390625</LongitudeDegrees>
            </Position>
            <AltitudeMeters>751.20001220703125</AltitudeMeters>
            <DistanceMeters>NAN</DistanceMeters>
          </Trackpoint>
          <Trackpoint>
            <Time>2019-08-01T10:16:42.000Z</Time>
            <Position>
              <LatitudeDegrees>40.48826225101947784423828125</LatitudeDegrees>
              <LongitudeDegrees>-4.03075790964066982269287109375</LongitudeDegrees>
            </Position>
            <AltitudeMeters>751.4000244140625</AltitudeMeters>
            <DistanceMeters>NAN</DistanceMeters>
          </Trackpoint>
          <Trackpoint>
            <Time>2019-08-01T10:16:43.000Z</Time>
            <Position>
              <LatitudeDegrees>40.48829284496605396270751953125</LatitudeDegrees>
              <LongitudeDegrees>-4.030797220766544342041015625</LongitudeDegrees>
            </Position>
            <AltitudeMeters>751.79998779296875</AltitudeMeters>
            <DistanceMeters>NAN</DistanceMeters>
          </Trackpoint>
          <Trackpoint>
            <Time>2019-08-01T10:16:44.000Z</Time>
            <Position>
              <LatitudeDegrees>40.48829284496605396270751953125</LatitudeDegrees>
              <LongitudeDegrees>-4.030797220766544342041015625</LongitudeDegrees>
            </Position>
            <AltitudeMeters>752.20001220703125</AltitudeMeters>
            <DistanceMeters>NAN</DistanceMeters>
          </Trackpoint>
          <Trackpoint>
            <Time>2019-08-01T10:16:45.000Z</Time>
            <Position>
              <LatitudeDegrees>40.4883549548685550689697265625</LatitudeDegrees>
              <LongitudeDegrees>-4.03087894432246685028076171875</LongitudeDegrees>
            </Position>
            <AltitudeMeters>752.20001220703125</AltitudeMeters>
            <DistanceMeters>NAN</DistanceMeters>
          </Trackpoint>
          <Trackpoint>
            <Time>2019-08-01T10:16:46.000Z</Time>
            <Position>
              <LatitudeDegrees>40.48838588409125804901123046875</LatitudeDegrees>
              <LongitudeDegrees>-4.030920602381229400634765625</LongitudeDegrees>
            </Position>
            <AltitudeMeters>752.5999755859375</AltitudeMeters>
            <DistanceMeters>NAN</DistanceMeters>
          </Trackpoint>
          <Trackpoint>
            <Time>2019-08-01T10:16:47.000Z</Time>
            <Position>
              <LatitudeDegrees>40.48841639421880245208740234375</LatitudeDegrees>
              <LongitudeDegrees>-4.03096242807805538177490234375</LongitudeDegrees>
            </Position>
            <AltitudeMeters>752.79998779296875</AltitudeMeters>
            <DistanceMeters>NAN</DistanceMeters>
          </Trackpoint>
          <Trackpoint>
            <Time>2019-08-01T10:16:48.000Z</Time>
            <Position>
              <LatitudeDegrees>40.48841639421880245208740234375</LatitudeDegrees>
              <LongitudeDegrees>-4.03096242807805538177490234375</LongitudeDegrees>
            </Position>
            <AltitudeMeters>753.20001220703125</AltitudeMeters>
            <DistanceMeters>NAN</DistanceMeters>
          </Trackpoint>
          <Trackpoint>
            <Time>2019-08-01T10:16:49.000Z</Time>
            <Position>
              <LatitudeDegrees>40.48847339116036891937255859375</LatitudeDegrees>
              <LongitudeDegrees>-4.03105060569941997528076171875</LongitudeDegrees>
            </Position>
            <AltitudeMeters>753.4000244140625</AltitudeMeters>
            <DistanceMeters>NAN</DistanceMeters>
          </Trackpoint>
          <Trackpoint>
            <Time>2019-08-01T10:16:50.000Z</Time>
            <Position>
              <LatitudeDegrees>40.48849954269826412200927734375</LatitudeDegrees>
              <LongitudeDegrees>-4.0310977958142757415771484375</LongitudeDegrees>
            </Position>
            <AltitudeMeters>753.5999755859375</AltitudeMeters>
            <DistanceMeters>NAN</DistanceMeters>
          </Trackpoint>
          <Trackpoint>
            <Time>2019-08-01T10:16:51.000Z</Time>
            <Position>
              <LatitudeDegrees>40.48852250911295413970947265625</LatitudeDegrees>
              <LongitudeDegrees>-4.031147249042987823486328125</LongitudeDegrees>
            </Position>
            <AltitudeMeters>753.79998779296875</AltitudeMeters>
            <DistanceMeters>NAN</DistanceMeters>
          </Trackpoint>
          <Trackpoint>
            <Time>2019-08-01T10:16:52.000Z</Time>
            <Position>
              <LatitudeDegrees>40.4885457269847393035888671875</LatitudeDegrees>
              <LongitudeDegrees>-4.0311978757381439208984375</LongitudeDegrees>
            </Position>
            <AltitudeMeters>754</AltitudeMeters>
            <DistanceMeters>NAN</DistanceMeters>
          </Trackpoint>
          <Trackpoint>
            <Time>2019-08-01T10:16:53.000Z</Time>
            <Position>
              <LatitudeDegrees>40.4885457269847393035888671875</LatitudeDegrees>
              <LongitudeDegrees>-4.0311978757381439208984375</LongitudeDegrees>
            </Position>
            <AltitudeMeters>754</AltitudeMeters>
            <DistanceMeters>NAN</DistanceMeters>
          </Trackpoint>
          <Trackpoint>
            <Time>2019-08-01T10:16:54.000Z</Time>
            <Position>
              <LatitudeDegrees>40.48858688212931156158447265625</LatitudeDegrees>
              <LongitudeDegrees>-4.03130625374615192413330078125</LongitudeDegrees>
            </Position>
            <AltitudeMeters>754.20001220703125</AltitudeMeters>
            <DistanceMeters>NAN</DistanceMeters>
          </Trackpoint>
          <Trackpoint>
            <Time>2019-08-01T10:16:55.000Z</Time>
            <Position>
              <LatitudeDegrees>40.4886054061353206634521484375</LatitudeDegrees>
              <LongitudeDegrees>-4.03136123903095722198486328125</LongitudeDegrees>
            </Position>
            <AltitudeMeters>754.4000244140625</AltitudeMeters>
            <DistanceMeters>NAN</DistanceMeters>
          </Trackpoint>
          <Trackpoint>
            <Time>2019-08-01T10:16:56.000Z</Time>
            <Position>
              <LatitudeDegrees>40.4886235110461711883544921875</LatitudeDegrees>
              <LongitudeDegrees>-4.031417481601238250732421875</LongitudeDegrees>
            </Position>
            <AltitudeMeters>754.5999755859375</AltitudeMeters>
            <DistanceMeters>NAN</DistanceMeters>
          </Trackpoint>
          <Trackpoint>
            <Time>2019-08-01T10:16:57.000Z</Time>
            <Position>
              <LatitudeDegrees>40.488642118871212005615234375</LatitudeDegrees>
              <LongitudeDegrees>-4.0314741432666778564453125</LongitudeDegrees>
            </Position>
            <AltitudeMeters>755</AltitudeMeters>
            <DistanceMeters>NAN</DistanceMeters>
          </Trackpoint>
          <Trackpoint>
            <Time>2019-08-01T10:16:58.000Z</Time>
            <Position>
              <LatitudeDegrees>40.488642118871212005615234375</LatitudeDegrees>
              <LongitudeDegrees>-4.0314741432666778564453125</LongitudeDegrees>
            </Position>
            <AltitudeMeters>755.20001220703125</AltitudeMeters>
            <DistanceMeters>NAN</DistanceMeters>
          </Trackpoint>
          <Trackpoint>
            <Time>2019-08-01T10:16:59.000Z</Time>
            <Position>
              <LatitudeDegrees>40.4886791668832302093505859375</LatitudeDegrees>
              <LongitudeDegrees>-4.03159174136817455291748046875</LongitudeDegrees>
            </Position>
            <AltitudeMeters>755.5999755859375</AltitudeMeters>
            <DistanceMeters>NAN</DistanceMeters>
          </Trackpoint>
          <Trackpoint>
            <Time>2019-08-01T10:17:00.000Z</Time>
            <Position>
              <LatitudeDegrees>40.48869869671761989593505859375</LatitudeDegrees>
              <LongitudeDegrees>-4.03165142051875591278076171875</LongitudeDegrees>
            </Position>
            <AltitudeMeters>755.79998779296875</AltitudeMeters>
            <DistanceMeters>NAN</DistanceMeters>
          </Trackpoint>
          <Trackpoint>
            <Time>2019-08-01T10:17:01.000Z</Time>
            <Position>
              <LatitudeDegrees>40.48871730454266071319580078125</LatitudeDegrees>
              <LongitudeDegrees>-4.03171059675514698028564453125</LongitudeDegrees>
            </Position>
            <AltitudeMeters>756</AltitudeMeters>
            <DistanceMeters>NAN</DistanceMeters>
          </Trackpoint>
          <Trackpoint>
            <Time>2019-08-01T10:17:02.000Z</Time>
            <Position>
              <LatitudeDegrees>40.48873557709157466888427734375</LatitudeDegrees>
              <LongitudeDegrees>-4.03176985681056976318359375</LongitudeDegrees>
            </Position>
            <AltitudeMeters>756.20001220703125</AltitudeMeters>
            <DistanceMeters>NAN</DistanceMeters>
          </Trackpoint>
          <Trackpoint>
            <Time>2019-08-01T10:17:03.000Z</Time>
            <Position>
              <LatitudeDegrees>40.48875267617404460906982421875</LatitudeDegrees>
              <LongitudeDegrees>-4.03182945214211940765380859375</LongitudeDegrees>
            </Position>
            <AltitudeMeters>756.4000244140625</AltitudeMeters>
            <DistanceMeters>NAN</DistanceMeters>
          </Trackpoint>
          <Trackpoint>
            <Time>2019-08-01T10:17:04.000Z</Time>
            <Position>
              <LatitudeDegrees>40.48876625485718250274658203125</LatitudeDegrees>
              <LongitudeDegrees>-4.03188980184495449066162109375</LongitudeDegrees>
            </Position>
            <AltitudeMeters>756.79998779296875</AltitudeMeters>
            <DistanceMeters>NAN</DistanceMeters>
          </Trackpoint>
          <Trackpoint>
            <Time>2019-08-01T10:17:05.000Z</Time>
            <Position>
              <LatitudeDegrees>40.48877430148422718048095703125</LatitudeDegrees>
              <LongitudeDegrees>-4.03195199556648731231689453125</LongitudeDegrees>
            </Position>
            <AltitudeMeters>756.79998779296875</AltitudeMeters>
            <DistanceMeters>NAN</DistanceMeters>
          </Trackpoint>
          <Trackpoint>
            <Time>2019-08-01T10:17:06.000Z</Time>
            <Position>
              <LatitudeDegrees>40.48877631314098834991455078125</LatitudeDegrees>
              <LongitudeDegrees>-4.03201620094478130340576171875</LongitudeDegrees>
            </Position>
            <AltitudeMeters>757</AltitudeMeters>
            <DistanceMeters>NAN</DistanceMeters>
          </Trackpoint>
          <Trackpoint>
            <Time>2019-08-01T10:17:07.000Z</Time>
            <Position>
              <LatitudeDegrees>40.48877178691327571868896484375</LatitudeDegrees>
              <LongitudeDegrees>-4.0320789813995361328125</LongitudeDegrees>
            </Position>
            <AltitudeMeters>757.20001220703125</AltitudeMeters>
            <DistanceMeters>NAN</DistanceMeters>
          </Trackpoint>
          <Trackpoint>
            <Time>2019-08-01T10:17:08.000Z</Time>
            <Position>
              <LatitudeDegrees>40.488760471343994140625</LatitudeDegrees>
              <LongitudeDegrees>-4.0321398340165615081787109375</LongitudeDegrees>
            </Position>
            <AltitudeMeters>757.20001220703125</AltitudeMeters>
            <DistanceMeters>NAN</DistanceMeters>
          </Trackpoint>
          <Trackpoint>
            <Time>2019-08-01T10:17:09.000Z</Time>
            <Position>
              <LatitudeDegrees>40.48874496482312679290771484375</LatitudeDegrees>
              <LongitudeDegrees>-4.03219725005328655242919921875</LongitudeDegrees>
            </Position>
            <AltitudeMeters>757.4000244140625</AltitudeMeters>
            <DistanceMeters>NAN</DistanceMeters>
          </Trackpoint>
          <Trackpoint>
            <Time>2019-08-01T10:17:10.000Z</Time>
            <Position>
              <LatitudeDegrees>40.48872199840843677520751953125</LatitudeDegrees>
              <LongitudeDegrees>-4.032254330813884735107421875</LongitudeDegrees>
            </Position>
            <AltitudeMeters>757.79998779296875</AltitudeMeters>
            <DistanceMeters>NAN</DistanceMeters>
          </Trackpoint>
          <Trackpoint>
            <Time>2019-08-01T10:17:11.000Z</Time>
            <Position>
              <LatitudeDegrees>40.4886932484805583953857421875</LatitudeDegrees>
              <LongitudeDegrees>-4.0323094837367534637451171875</LongitudeDegrees>
            </Position>
            <AltitudeMeters>758</AltitudeMeters>
            <DistanceMeters>NAN</DistanceMeters>
          </Trackpoint>
          <Trackpoint>
            <Time>2019-08-01T10:17:12.000Z</Time>
            <Position>
              <LatitudeDegrees>40.488661229610443115234375</LatitudeDegrees>
              <LongitudeDegrees>-4.03235902078449726104736328125</LongitudeDegrees>
            </Position>
            <AltitudeMeters>758</AltitudeMeters>
            <DistanceMeters>NAN</DistanceMeters>
          </Trackpoint>
          <Trackpoint>
            <Time>2019-08-01T10:17:13.000Z</Time>
            <Position>
              <LatitudeDegrees>40.48862493596971035003662109375</LatitudeDegrees>
              <LongitudeDegrees>-4.03240310959517955780029296875</LongitudeDegrees>
            </Position>
            <AltitudeMeters>758.20001220703125</AltitudeMeters>
            <DistanceMeters>NAN</DistanceMeters>
          </Trackpoint>
          <Trackpoint>
            <Time>2019-08-01T10:17:14.000Z</Time>
            <Position>
              <LatitudeDegrees>40.4885846190154552459716796875</LatitudeDegrees>
              <LongitudeDegrees>-4.0324419178068637847900390625</LongitudeDegrees>
            </Position>
            <AltitudeMeters>758.20001220703125</AltitudeMeters>
            <DistanceMeters>NAN</DistanceMeters>
          </Trackpoint>
          <Trackpoint>
            <Time>2019-08-01T10:17:15.000Z</Time>
            <Position>
              <LatitudeDegrees>40.488540865480899810791015625</LatitudeDegrees>
              <LongitudeDegrees>-4.03247569687664508819580078125</LongitudeDegrees>
            </Position>
            <AltitudeMeters>758.4000244140625</AltitudeMeters>
            <DistanceMeters>NAN</DistanceMeters>
          </Trackpoint>
          <Trackpoint>
            <Time>2019-08-01T10:17:16.000Z</Time>
            <Position>
              <LatitudeDegrees>40.4884937591850757598876953125</LatitudeDegrees>
              <LongitudeDegrees>-4.03250101022422313690185546875</LongitudeDegrees>
            </Position>
            <AltitudeMeters>758.5999755859375</AltitudeMeters>
            <DistanceMeters>NAN</DistanceMeters>
          </Trackpoint>
          <Trackpoint>
            <Time>2019-08-01T10:17:17.000Z</Time>
            <Position>
              <LatitudeDegrees>40.48844464123249053955078125</LatitudeDegrees>
              <LongitudeDegrees>-4.03251685202121734619140625</LongitudeDegrees>
            </Position>
            <AltitudeMeters>758.5999755859375</AltitudeMeters>
            <DistanceMeters>NAN</DistanceMeters>
          </Trackpoint>
          <Trackpoint>
            <Time>2019-08-01T10:17:18.000Z</Time>
            <Position>
              <LatitudeDegrees>40.488394685089588165283203125</LatitudeDegrees>
              <LongitudeDegrees>-4.0325277484953403472900390625</LongitudeDegrees>
            </Position>
            <AltitudeMeters>758.79998779296875</AltitudeMeters>
            <DistanceMeters>NAN</DistanceMeters>
          </Trackpoint>
          <Trackpoint>
            <Time>2019-08-01T10:17:19.000Z</Time>
            <Position>
              <LatitudeDegrees>40.48834447748959064483642578125</LatitudeDegrees>
              <LongitudeDegrees>-4.03253495693206787109375</LongitudeDegrees>
            </Position>
            <AltitudeMeters>758.79998779296875</AltitudeMeters>
            <DistanceMeters>NAN</DistanceMeters>
          </Trackpoint>
          <Trackpoint>
            <Time>2019-08-01T10:17:20.000Z</Time>
            <Position>
              <LatitudeDegrees>40.488294102251529693603515625</LatitudeDegrees>
              <LongitudeDegrees>-4.03254090808331966400146484375</LongitudeDegrees>
            </Position>
            <AltitudeMeters>759</AltitudeMeters>
            <DistanceMeters>NAN</DistanceMeters>
          </Trackpoint>
          <Trackpoint>
            <Time>2019-08-01T10:17:21.000Z</Time>
            <Position>
              <LatitudeDegrees>40.4882436431944370269775390625</LatitudeDegrees>
              <LongitudeDegrees>-4.0325470268726348876953125</LongitudeDegrees>
            </Position>
            <AltitudeMeters>759</AltitudeMeters>
            <DistanceMeters>NAN</DistanceMeters>
          </Trackpoint>
          <Trackpoint>
            <Time>2019-08-01T10:17:22.000Z</Time>
            <Position>
              <LatitudeDegrees>40.48819360323250293731689453125</LatitudeDegrees>
              <LongitudeDegrees>-4.03255566023290157318115234375</LongitudeDegrees>
            </Position>
            <AltitudeMeters>759</AltitudeMeters>
            <DistanceMeters>NAN</DistanceMeters>
          </Trackpoint>
          <Trackpoint>
            <Time>2019-08-01T10:17:23.000Z</Time>
            <Position>
              <LatitudeDegrees>40.488144569098949432373046875</LatitudeDegrees>
              <LongitudeDegrees>-4.03256856836378574371337890625</LongitudeDegrees>
            </Position>
            <AltitudeMeters>759</AltitudeMeters>
            <DistanceMeters>NAN</DistanceMeters>
          </Trackpoint>
          <Trackpoint>
            <Time>2019-08-01T10:17:24.000Z</Time>
            <Position>
              <LatitudeDegrees>40.48809670843183994293212890625</LatitudeDegrees>
              <LongitudeDegrees>-4.03258717618882656097412109375</LongitudeDegrees>
            </Position>
            <AltitudeMeters>759.20001220703125</AltitudeMeters>
            <DistanceMeters>NAN</DistanceMeters>
          </Trackpoint>
          <Trackpoint>
            <Time>2019-08-01T10:17:25.000Z</Time>
            <Position>
              <LatitudeDegrees>40.488050021231174468994140625</LatitudeDegrees>
              <LongitudeDegrees>-4.03261014260351657867431640625</LongitudeDegrees>
            </Position>
            <AltitudeMeters>759.4000244140625</AltitudeMeters>
            <DistanceMeters>NAN</DistanceMeters>
          </Trackpoint>
          <Trackpoint>
            <Time>2019-08-01T10:17:26.000Z</Time>
            <Position>
              <LatitudeDegrees>40.4880042560398578643798828125</LatitudeDegrees>
              <LongitudeDegrees>-4.03263629414141178131103515625</LongitudeDegrees>
            </Position>
            <AltitudeMeters>759.5999755859375</AltitudeMeters>
            <DistanceMeters>NAN</DistanceMeters>
          </Trackpoint>
          <Trackpoint>
            <Time>2019-08-01T10:17:27.000Z</Time>
            <Position>
              <LatitudeDegrees>40.4879593290388584136962890625</LatitudeDegrees>
              <LongitudeDegrees>-4.03266512788832187652587890625</LongitudeDegrees>
            </Position>
            <AltitudeMeters>759.79998779296875</AltitudeMeters>
            <DistanceMeters>NAN</DistanceMeters>
          </Trackpoint>
          <Trackpoint>
            <Time>2019-08-01T10:17:28.000Z</Time>
            <Position>
              <LatitudeDegrees>40.48791624605655670166015625</LatitudeDegrees>
              <LongitudeDegrees>-4.0326960571110248565673828125</LongitudeDegrees>
            </Position>
            <AltitudeMeters>760.4000244140625</AltitudeMeters>
            <DistanceMeters>NAN</DistanceMeters>
          </Trackpoint>
          <Trackpoint>
            <Time>2019-08-01T10:17:29.000Z</Time>
            <Position>
              <LatitudeDegrees>40.48791624605655670166015625</LatitudeDegrees>
              <LongitudeDegrees>-4.0326960571110248565673828125</LongitudeDegrees>
            </Position>
            <AltitudeMeters>760.5999755859375</AltitudeMeters>
            <DistanceMeters>NAN</DistanceMeters>
          </Trackpoint>
          <Trackpoint>
            <Time>2019-08-01T10:17:30.000Z</Time>
            <Position>
              <LatitudeDegrees>40.4878352768719196319580078125</LatitudeDegrees>
              <LongitudeDegrees>-4.03275665827095508575439453125</LongitudeDegrees>
            </Position>
            <AltitudeMeters>760.79998779296875</AltitudeMeters>
            <DistanceMeters>NAN</DistanceMeters>
          </Trackpoint>
          <Trackpoint>
            <Time>2019-08-01T10:17:31.000Z</Time>
            <Position>
              <LatitudeDegrees>40.4877957142889499664306640625</LatitudeDegrees>
              <LongitudeDegrees>-4.03278867714107036590576171875</LongitudeDegrees>
            </Position>
            <AltitudeMeters>761</AltitudeMeters>
            <DistanceMeters>NAN</DistanceMeters>
          </Trackpoint>
          <Trackpoint>
            <Time>2019-08-01T10:17:32.000Z</Time>
            <Position>
              <LatitudeDegrees>40.48775690607726573944091796875</LatitudeDegrees>
              <LongitudeDegrees>-4.03282237239181995391845703125</LongitudeDegrees>
            </Position>
            <AltitudeMeters>761.5999755859375</AltitudeMeters>
            <DistanceMeters>NAN</DistanceMeters>
          </Trackpoint>
          <Trackpoint>
            <Time>2019-08-01T10:17:33.000Z</Time>
            <Position>
              <LatitudeDegrees>40.48771918751299381256103515625</LatitudeDegrees>
              <LongitudeDegrees>-4.032857827842235565185546875</LongitudeDegrees>
            </Position>
            <AltitudeMeters>761.79998779296875</AltitudeMeters>
            <DistanceMeters>NAN</DistanceMeters>
          </Trackpoint>
          <Trackpoint>
            <Time>2019-08-01T10:17:34.000Z</Time>
            <Position>
              <LatitudeDegrees>40.4876817204058170318603515625</LatitudeDegrees>
              <LongitudeDegrees>-4.03289831243455410003662109375</LongitudeDegrees>
            </Position>
            <AltitudeMeters>762</AltitudeMeters>
            <DistanceMeters>NAN</DistanceMeters>
          </Trackpoint>
          <Trackpoint>
            <Time>2019-08-01T10:17:35.000Z</Time>
            <Position>
              <LatitudeDegrees>40.48764534294605255126953125</LatitudeDegrees>
              <LongitudeDegrees>-4.03294256888329982757568359375</LongitudeDegrees>
            </Position>
            <AltitudeMeters>762.20001220703125</AltitudeMeters>
            <DistanceMeters>NAN</DistanceMeters>
          </Trackpoint>
          <Trackpoint>
            <Time>2019-08-01T10:17:36.000Z</Time>
            <Position>
              <LatitudeDegrees>40.4876113124191761016845703125</LatitudeDegrees>
              <LongitudeDegrees>-4.03298866935074329376220703125</LongitudeDegrees>
            </Position>
            <AltitudeMeters>762.4000244140625</AltitudeMeters>
            <DistanceMeters>NAN</DistanceMeters>
          </Trackpoint>
          <Trackpoint>
            <Time>2019-08-01T10:17:37.000Z</Time>
            <Position>
              <LatitudeDegrees>40.48757501877844333648681640625</LatitudeDegrees>
              <LongitudeDegrees>-4.03304256498813629150390625</LongitudeDegrees>
            </Position>
            <AltitudeMeters>762.5999755859375</AltitudeMeters>
            <DistanceMeters>NAN</DistanceMeters>
          </Trackpoint>
          <Trackpoint>
            <Time>2019-08-01T10:17:38.000Z</Time>
            <Position>
              <LatitudeDegrees>40.48757501877844333648681640625</LatitudeDegrees>
              <LongitudeDegrees>-4.03304256498813629150390625</LongitudeDegrees>
            </Position>
            <AltitudeMeters>762.79998779296875</AltitudeMeters>
            <DistanceMeters>NAN</DistanceMeters>
          </Trackpoint>
          <Trackpoint>
            <Time>2019-08-01T10:17:39.000Z</Time>
            <Position>
              <LatitudeDegrees>40.48757501877844333648681640625</LatitudeDegrees>
              <LongitudeDegrees>-4.03304256498813629150390625</LongitudeDegrees>
            </Position>
            <AltitudeMeters>763</AltitudeMeters>
            <DistanceMeters>NAN</DistanceMeters>
          </Trackpoint>
          <Trackpoint>
            <Time>2019-08-01T10:17:40.000Z</Time>
            <Position>
              <LatitudeDegrees>40.48748533241450786590576171875</LatitudeDegrees>
              <LongitudeDegrees>-4.03321363963186740875244140625</LongitudeDegrees>
            </Position>
            <AltitudeMeters>763.20001220703125</AltitudeMeters>
            <DistanceMeters>NAN</DistanceMeters>
          </Trackpoint>
          <Trackpoint>
            <Time>2019-08-01T10:17:41.000Z</Time>
            <Position>
              <LatitudeDegrees>40.48746119253337383270263671875</LatitudeDegrees>
              <LongitudeDegrees>-4.033278934657573699951171875</LongitudeDegrees>
            </Position>
            <AltitudeMeters>763.20001220703125</AltitudeMeters>
            <DistanceMeters>NAN</DistanceMeters>
          </Trackpoint>
          <Trackpoint>
            <Time>2019-08-01T10:17:42.000Z</Time>
            <Position>
              <LatitudeDegrees>40.48744007013738155364990234375</LatitudeDegrees>
              <LongitudeDegrees>-4.03334833681583404541015625</LongitudeDegrees>
            </Position>
            <AltitudeMeters>763.4000244140625</AltitudeMeters>
            <DistanceMeters>NAN</DistanceMeters>
          </Trackpoint>
          <Trackpoint>
            <Time>2019-08-01T10:17:43.000Z</Time>
            <Position>
              <LatitudeDegrees>40.487421713769435882568359375</LatitudeDegrees>
              <LongitudeDegrees>-4.0334192477166652679443359375</LongitudeDegrees>
            </Position>
            <AltitudeMeters>763.5999755859375</AltitudeMeters>
            <DistanceMeters>NAN</DistanceMeters>
          </Trackpoint>
          <Trackpoint>
            <Time>2019-08-01T10:17:44.000Z</Time>
            <Position>
              <LatitudeDegrees>40.4874051176011562347412109375</LatitudeDegrees>
              <LongitudeDegrees>-4.03349225409328937530517578125</LongitudeDegrees>
            </Position>
            <AltitudeMeters>763.79998779296875</AltitudeMeters>
            <DistanceMeters>NAN</DistanceMeters>
          </Trackpoint>
          <Trackpoint>
            <Time>2019-08-01T10:17:45.000Z</Time>
            <Position>
              <LatitudeDegrees>40.4873880185186862945556640625</LatitudeDegrees>
              <LongitudeDegrees>-4.0335681103169918060302734375</LongitudeDegrees>
            </Position>
            <AltitudeMeters>764</AltitudeMeters>
            <DistanceMeters>NAN</DistanceMeters>
          </Trackpoint>
          <Trackpoint>
            <Time>2019-08-01T10:17:46.000Z</Time>
            <Position>
              <LatitudeDegrees>40.4873880185186862945556640625</LatitudeDegrees>
              <LongitudeDegrees>-4.0335681103169918060302734375</LongitudeDegrees>
            </Position>
            <AltitudeMeters>764</AltitudeMeters>
            <DistanceMeters>NAN</DistanceMeters>
          </Trackpoint>
          <Trackpoint>
            <Time>2019-08-01T10:17:47.000Z</Time>
            <Position>
              <LatitudeDegrees>40.487351305782794952392578125</LatitudeDegrees>
              <LongitudeDegrees>-4.03372325934469699859619140625</LongitudeDegrees>
            </Position>
            <AltitudeMeters>764.20001220703125</AltitudeMeters>
            <DistanceMeters>NAN</DistanceMeters>
          </Trackpoint>
          <Trackpoint>
            <Time>2019-08-01T10:17:48.000Z</Time>
            <Position>
              <LatitudeDegrees>40.4873321950435638427734375</LatitudeDegrees>
              <LongitudeDegrees>-4.0338011272251605987548828125</LongitudeDegrees>
            </Position>
            <AltitudeMeters>764.20001220703125</AltitudeMeters>
            <DistanceMeters>NAN</DistanceMeters>
          </Trackpoint>
          <Trackpoint>
            <Time>2019-08-01T10:17:49.000Z</Time>
            <Position>
              <LatitudeDegrees>40.48731367103755474090576171875</LatitudeDegrees>
              <LongitudeDegrees>-4.03387983329594135284423828125</LongitudeDegrees>
            </Position>
            <AltitudeMeters>764.4000244140625</AltitudeMeters>
            <DistanceMeters>NAN</DistanceMeters>
          </Trackpoint>
          <Trackpoint>
            <Time>2019-08-01T10:17:50.000Z</Time>
            <Position>
              <LatitudeDegrees>40.48729606904089450836181640625</LatitudeDegrees>
              <LongitudeDegrees>-4.03395778499543666839599609375</LongitudeDegrees>
            </Position>
            <AltitudeMeters>764.4000244140625</AltitudeMeters>
            <DistanceMeters>NAN</DistanceMeters>
          </Trackpoint>
          <Trackpoint>
            <Time>2019-08-01T10:17:51.000Z</Time>
            <Position>
              <LatitudeDegrees>40.48727788031101226806640625</LatitudeDegrees>
              <LongitudeDegrees>-4.03403707779943943023681640625</LongitudeDegrees>
            </Position>
            <AltitudeMeters>764.4000244140625</AltitudeMeters>
            <DistanceMeters>NAN</DistanceMeters>
          </Trackpoint>
          <Trackpoint>
            <Time>2019-08-01T10:17:52.000Z</Time>
            <Position>
              <LatitudeDegrees>40.4872575961053371429443359375</LatitudeDegrees>
              <LongitudeDegrees>-4.034117124974727630615234375</LongitudeDegrees>
            </Position>
            <AltitudeMeters>764.5999755859375</AltitudeMeters>
            <DistanceMeters>NAN</DistanceMeters>
          </Trackpoint>
          <Trackpoint>
            <Time>2019-08-01T10:17:53.000Z</Time>
            <Position>
              <LatitudeDegrees>40.4872575961053371429443359375</LatitudeDegrees>
              <LongitudeDegrees>-4.034117124974727630615234375</LongitudeDegrees>
            </Position>
            <AltitudeMeters>764.5999755859375</AltitudeMeters>
            <DistanceMeters>NAN</DistanceMeters>
          </Trackpoint>
          <Trackpoint>
            <Time>2019-08-01T10:17:54.000Z</Time>
            <Position>
              <LatitudeDegrees>40.4872168600559234619140625</LatitudeDegrees>
              <LongitudeDegrees>-4.03427260927855968475341796875</LongitudeDegrees>
            </Position>
            <AltitudeMeters>764.79998779296875</AltitudeMeters>
            <DistanceMeters>NAN</DistanceMeters>
          </Trackpoint>
          <Trackpoint>
            <Time>2019-08-01T10:17:55.000Z</Time>
            <Position>
              <LatitudeDegrees>40.48719615675508975982666015625</LatitudeDegrees>
              <LongitudeDegrees>-4.03435106389224529266357421875</LongitudeDegrees>
            </Position>
            <AltitudeMeters>764.79998779296875</AltitudeMeters>
            <DistanceMeters>NAN</DistanceMeters>
          </Trackpoint>
          <Trackpoint>
            <Time>2019-08-01T10:17:56.000Z</Time>
            <Position>
              <LatitudeDegrees>40.487175621092319488525390625</LatitudeDegrees>
              <LongitudeDegrees>-4.03442935086786746978759765625</LongitudeDegrees>
            </Position>
            <AltitudeMeters>764.79998779296875</AltitudeMeters>
            <DistanceMeters>NAN</DistanceMeters>
          </Trackpoint>
          <Trackpoint>
            <Time>2019-08-01T10:17:57.000Z</Time>
            <Position>
              <LatitudeDegrees>40.48715525306761264801025390625</LatitudeDegrees>
              <LongitudeDegrees>-4.03450814075767993927001953125</LongitudeDegrees>
            </Position>
            <AltitudeMeters>764.79998779296875</AltitudeMeters>
            <DistanceMeters>NAN</DistanceMeters>
          </Trackpoint>
          <Trackpoint>
            <Time>2019-08-01T10:17:58.000Z</Time>
            <Position>
              <LatitudeDegrees>40.48713396303355693817138671875</LatitudeDegrees>
              <LongitudeDegrees>-4.0345883555710315704345703125</LongitudeDegrees>
            </Position>
            <AltitudeMeters>764.79998779296875</AltitudeMeters>
            <DistanceMeters>NAN</DistanceMeters>
          </Trackpoint>
          <Trackpoint>
            <Time>2019-08-01T10:17:59.000Z</Time>
            <Position>
              <LatitudeDegrees>40.487113259732723236083984375</LatitudeDegrees>
              <LongitudeDegrees>-4.0346668101847171783447265625</LongitudeDegrees>
            </Position>
            <AltitudeMeters>764.79998779296875</AltitudeMeters>
            <DistanceMeters>NAN</DistanceMeters>
          </Trackpoint>
          <Trackpoint>
            <Time>2019-08-01T10:18:00.000Z</Time>
            <Position>
              <LatitudeDegrees>40.48709305934607982635498046875</LatitudeDegrees>
              <LongitudeDegrees>-4.034744761884212493896484375</LongitudeDegrees>
            </Position>
            <AltitudeMeters>764.79998779296875</AltitudeMeters>
            <DistanceMeters>NAN</DistanceMeters>
          </Trackpoint>
          <Trackpoint>
            <Time>2019-08-01T10:18:01.000Z</Time>
            <Position>
              <LatitudeDegrees>40.48707403242588043212890625</LatitudeDegrees>
              <LongitudeDegrees>-4.0348203666508197784423828125</LongitudeDegrees>
            </Position>
            <AltitudeMeters>764.79998779296875</AltitudeMeters>
            <DistanceMeters>NAN</DistanceMeters>
          </Trackpoint>
          <Trackpoint>
            <Time>2019-08-01T10:18:02.000Z</Time>
            <Position>
              <LatitudeDegrees>40.48705525696277618408203125</LatitudeDegrees>
              <LongitudeDegrees>-4.03489320538938045501708984375</LongitudeDegrees>
            </Position>
            <AltitudeMeters>765</AltitudeMeters>
            <DistanceMeters>NAN</DistanceMeters>
          </Trackpoint>
          <Trackpoint>
            <Time>2019-08-01T10:18:03.000Z</Time>
            <Position>
              <LatitudeDegrees>40.4870373196899890899658203125</LatitudeDegrees>
              <LongitudeDegrees>-4.0349645353853702545166015625</LongitudeDegrees>
            </Position>
            <AltitudeMeters>765.20001220703125</AltitudeMeters>
            <DistanceMeters>NAN</DistanceMeters>
          </Trackpoint>
          <Trackpoint>
            <Time>2019-08-01T10:18:04.000Z</Time>
            <Position>
              <LatitudeDegrees>40.48702030442655086517333984375</LatitudeDegrees>
              <LongitudeDegrees>-4.0350349433720111846923828125</LongitudeDegrees>
            </Position>
            <AltitudeMeters>765.4000244140625</AltitudeMeters>
            <DistanceMeters>NAN</DistanceMeters>
          </Trackpoint>
          <Trackpoint>
            <Time>2019-08-01T10:18:05.000Z</Time>
            <Position>
              <LatitudeDegrees>40.487004630267620086669921875</LatitudeDegrees>
              <LongitudeDegrees>-4.0351036749780178070068359375</LongitudeDegrees>
            </Position>
            <AltitudeMeters>765.79998779296875</AltitudeMeters>
            <DistanceMeters>NAN</DistanceMeters>
          </Trackpoint>
          <Trackpoint>
            <Time>2019-08-01T10:18:06.000Z</Time>
            <Position>
              <LatitudeDegrees>40.486989207565784454345703125</LatitudeDegrees>
              <LongitudeDegrees>-4.03517114929854869842529296875</LongitudeDegrees>
            </Position>
            <AltitudeMeters>766</AltitudeMeters>
            <DistanceMeters>NAN</DistanceMeters>
          </Trackpoint>
          <Trackpoint>
            <Time>2019-08-01T10:18:07.000Z</Time>
            <Position>
              <LatitudeDegrees>40.4869727790355682373046875</LatitudeDegrees>
              <LongitudeDegrees>-4.0352361090481281280517578125</LongitudeDegrees>
            </Position>
            <AltitudeMeters>766.20001220703125</AltitudeMeters>
            <DistanceMeters>NAN</DistanceMeters>
          </Trackpoint>
          <Trackpoint>
            <Time>2019-08-01T10:18:08.000Z</Time>
            <Position>
              <LatitudeDegrees>40.48695643432438373565673828125</LatitudeDegrees>
              <LongitudeDegrees>-4.03529939241707324981689453125</LongitudeDegrees>
            </Position>
            <AltitudeMeters>766.4000244140625</AltitudeMeters>
            <DistanceMeters>NAN</DistanceMeters>
          </Trackpoint>
          <Trackpoint>
            <Time>2019-08-01T10:18:09.000Z</Time>
            <Position>
              <LatitudeDegrees>40.48694000579416751861572265625</LatitudeDegrees>
              <LongitudeDegrees>-4.03536175377666950225830078125</LongitudeDegrees>
            </Position>
            <AltitudeMeters>766.4000244140625</AltitudeMeters>
            <DistanceMeters>NAN</DistanceMeters>
          </Trackpoint>
          <Trackpoint>
            <Time>2019-08-01T10:18:10.000Z</Time>
            <Position>
              <LatitudeDegrees>40.48692424781620502471923828125</LatitudeDegrees>
              <LongitudeDegrees>-4.0354238636791706085205078125</LongitudeDegrees>
            </Position>
            <AltitudeMeters>766.4000244140625</AltitudeMeters>
            <DistanceMeters>NAN</DistanceMeters>
          </Trackpoint>
          <Trackpoint>
            <Time>2019-08-01T10:18:11.000Z</Time>
            <Position>
              <LatitudeDegrees>40.48690932802855968475341796875</LatitudeDegrees>
              <LongitudeDegrees>-4.03548471629619598388671875</LongitudeDegrees>
            </Position>
            <AltitudeMeters>766.4000244140625</AltitudeMeters>
            <DistanceMeters>NAN</DistanceMeters>
          </Trackpoint>
          <Trackpoint>
            <Time>2019-08-01T10:18:12.000Z</Time>
            <Position>
              <LatitudeDegrees>40.4868938215076923370361328125</LatitudeDegrees>
              <LongitudeDegrees>-4.03554431162774562835693359375</LongitudeDegrees>
            </Position>
            <AltitudeMeters>766.5999755859375</AltitudeMeters>
            <DistanceMeters>NAN</DistanceMeters>
          </Trackpoint>
          <Trackpoint>
            <Time>2019-08-01T10:18:13.000Z</Time>
            <Position>
              <LatitudeDegrees>40.48687898553907871246337890625</LatitudeDegrees>
              <LongitudeDegrees>-4.03560273349285125732421875</LongitudeDegrees>
            </Position>
            <AltitudeMeters>767.20001220703125</AltitudeMeters>
            <DistanceMeters>NAN</DistanceMeters>
          </Trackpoint>
          <Trackpoint>
            <Time>2019-08-01T10:18:14.000Z</Time>
            <Position>
              <LatitudeDegrees>40.48687898553907871246337890625</LatitudeDegrees>
              <LongitudeDegrees>-4.03560273349285125732421875</LongitudeDegrees>
            </Position>
            <AltitudeMeters>767.5999755859375</AltitudeMeters>
            <DistanceMeters>NAN</DistanceMeters>
          </Trackpoint>
          <Trackpoint>
            <Time>2019-08-01T10:18:15.000Z</Time>
            <Position>
              <LatitudeDegrees>40.48684738576412200927734375</LatitudeDegrees>
              <LongitudeDegrees>-4.03571538627147674560546875</LongitudeDegrees>
            </Position>
            <AltitudeMeters>767.79998779296875</AltitudeMeters>
            <DistanceMeters>NAN</DistanceMeters>
          </Trackpoint>
          <Trackpoint>
            <Time>2019-08-01T10:18:16.000Z</Time>
            <Position>
              <LatitudeDegrees>40.48683171160519123077392578125</LatitudeDegrees>
              <LongitudeDegrees>-4.03577079065144062042236328125</LongitudeDegrees>
            </Position>
            <AltitudeMeters>768</AltitudeMeters>
            <DistanceMeters>NAN</DistanceMeters>
          </Trackpoint>
          <Trackpoint>
            <Time>2019-08-01T10:18:17.000Z</Time>
            <Position>
              <LatitudeDegrees>40.48681679181754589080810546875</LatitudeDegrees>
              <LongitudeDegrees>-4.0358265303075313568115234375</LongitudeDegrees>
            </Position>
            <AltitudeMeters>768.4000244140625</AltitudeMeters>
            <DistanceMeters>NAN</DistanceMeters>
          </Trackpoint>
          <Trackpoint>
            <Time>2019-08-01T10:18:18.000Z</Time>
            <Position>
              <LatitudeDegrees>40.48680271022021770477294921875</LatitudeDegrees>
              <LongitudeDegrees>-4.035882018506526947021484375</LongitudeDegrees>
            </Position>
            <AltitudeMeters>768.79998779296875</AltitudeMeters>
            <DistanceMeters>NAN</DistanceMeters>
          </Trackpoint>
          <Trackpoint>
            <Time>2019-08-01T10:18:19.000Z</Time>
            <Position>
              <LatitudeDegrees>40.48678879626095294952392578125</LatitudeDegrees>
              <LongitudeDegrees>-4.03593775816261768341064453125</LongitudeDegrees>
            </Position>
            <AltitudeMeters>769.20001220703125</AltitudeMeters>
            <DistanceMeters>NAN</DistanceMeters>
          </Trackpoint>
          <Trackpoint>
            <Time>2019-08-01T10:18:20.000Z</Time>
            <Position>
              <LatitudeDegrees>40.48677471466362476348876953125</LatitudeDegrees>
              <LongitudeDegrees>-4.0359934978187084197998046875</LongitudeDegrees>
            </Position>
            <AltitudeMeters>769.4000244140625</AltitudeMeters>
            <DistanceMeters>NAN</DistanceMeters>
          </Trackpoint>
          <Trackpoint>
            <Time>2019-08-01T10:18:21.000Z</Time>
            <Position>
              <LatitudeDegrees>40.48676096834242343902587890625</LatitudeDegrees>
              <LongitudeDegrees>-4.0360486507415771484375</LongitudeDegrees>
            </Position>
            <AltitudeMeters>769.5999755859375</AltitudeMeters>
            <DistanceMeters>NAN</DistanceMeters>
          </Trackpoint>
          <Trackpoint>
            <Time>2019-08-01T10:18:22.000Z</Time>
            <Position>
              <LatitudeDegrees>40.48674688674509525299072265625</LatitudeDegrees>
              <LongitudeDegrees>-4.03610321693122386932373046875</LongitudeDegrees>
            </Position>
            <AltitudeMeters>769.79998779296875</AltitudeMeters>
            <DistanceMeters>NAN</DistanceMeters>
          </Trackpoint>
          <Trackpoint>
            <Time>2019-08-01T10:18:23.000Z</Time>
            <Position>
              <LatitudeDegrees>40.486732386052608489990234375</LatitudeDegrees>
              <LongitudeDegrees>-4.0361564420163631439208984375</LongitudeDegrees>
            </Position>
            <AltitudeMeters>770.4000244140625</AltitudeMeters>
            <DistanceMeters>NAN</DistanceMeters>
          </Trackpoint>
          <Trackpoint>
            <Time>2019-08-01T10:18:24.000Z</Time>
            <Position>
              <LatitudeDegrees>40.4867167957127094268798828125</LatitudeDegrees>
              <LongitudeDegrees>-4.03621025383472442626953125</LongitudeDegrees>
            </Position>
            <AltitudeMeters>770.79998779296875</AltitudeMeters>
            <DistanceMeters>NAN</DistanceMeters>
          </Trackpoint>
          <Trackpoint>
            <Time>2019-08-01T10:18:25.000Z</Time>
            <Position>
              <LatitudeDegrees>40.4867023788392543792724609375</LatitudeDegrees>
              <LongitudeDegrees>-4.0362645685672760009765625</LongitudeDegrees>
            </Position>
            <AltitudeMeters>771.4000244140625</AltitudeMeters>
            <DistanceMeters>NAN</DistanceMeters>
          </Trackpoint>
          <Trackpoint>
            <Time>2019-08-01T10:18:26.000Z</Time>
            <Position>
              <LatitudeDegrees>40.48668821342289447784423828125</LatitudeDegrees>
              <LongitudeDegrees>-4.03632014058530330657958984375</LongitudeDegrees>
            </Position>
            <AltitudeMeters>771.5999755859375</AltitudeMeters>
            <DistanceMeters>NAN</DistanceMeters>
          </Trackpoint>
          <Trackpoint>
            <Time>2019-08-01T10:18:27.000Z</Time>
            <Position>
              <LatitudeDegrees>40.486674048006534576416015625</LatitudeDegrees>
              <LongitudeDegrees>-4.03637546114623546600341796875</LongitudeDegrees>
            </Position>
            <AltitudeMeters>771.79998779296875</AltitudeMeters>
            <DistanceMeters>NAN</DistanceMeters>
          </Trackpoint>
          <Trackpoint>
            <Time>2019-08-01T10:18:28.000Z</Time>
            <Position>
              <LatitudeDegrees>40.486660301685333251953125</LatitudeDegrees>
              <LongitudeDegrees>-4.0364303626120090484619140625</LongitudeDegrees>
            </Position>
            <AltitudeMeters>772.20001220703125</AltitudeMeters>
            <DistanceMeters>NAN</DistanceMeters>
          </Trackpoint>
          <Trackpoint>
            <Time>2019-08-01T10:18:29.000Z</Time>
            <Position>
              <LatitudeDegrees>40.48664596863090991973876953125</LatitudeDegrees>
              <LongitudeDegrees>-4.0364850126206874847412109375</LongitudeDegrees>
            </Position>
            <AltitudeMeters>772.4000244140625</AltitudeMeters>
            <DistanceMeters>NAN</DistanceMeters>
          </Trackpoint>
          <Trackpoint>
            <Time>2019-08-01T10:18:30.000Z</Time>
            <Position>
              <LatitudeDegrees>40.48663146793842315673828125</LatitudeDegrees>
              <LongitudeDegrees>-4.0365399979054927825927734375</LongitudeDegrees>
            </Position>
            <AltitudeMeters>772.5999755859375</AltitudeMeters>
            <DistanceMeters>NAN</DistanceMeters>
          </Trackpoint>
          <Trackpoint>
            <Time>2019-08-01T10:18:31.000Z</Time>
            <Position>
              <LatitudeDegrees>40.486617051064968109130859375</LatitudeDegrees>
              <LongitudeDegrees>-4.036595486104488372802734375</LongitudeDegrees>
            </Position>
            <AltitudeMeters>773</AltitudeMeters>
            <DistanceMeters>NAN</DistanceMeters>
          </Trackpoint>
          <Trackpoint>
            <Time>2019-08-01T10:18:32.000Z</Time>
            <Position>
              <LatitudeDegrees>40.48660238273441791534423828125</LatitudeDegrees>
              <LongitudeDegrees>-4.03665256686508655548095703125</LongitudeDegrees>
            </Position>
            <AltitudeMeters>773.4000244140625</AltitudeMeters>
            <DistanceMeters>NAN</DistanceMeters>
          </Trackpoint>
          <Trackpoint>
            <Time>2019-08-01T10:18:33.000Z</Time>
            <Position>
              <LatitudeDegrees>40.48658729530870914459228515625</LatitudeDegrees>
              <LongitudeDegrees>-4.0367119945585727691650390625</LongitudeDegrees>
            </Position>
            <AltitudeMeters>773.5999755859375</AltitudeMeters>
            <DistanceMeters>NAN</DistanceMeters>
          </Trackpoint>
          <Trackpoint>
            <Time>2019-08-01T10:18:34.000Z</Time>
            <Position>
              <LatitudeDegrees>40.4865716211497783660888671875</LatitudeDegrees>
              <LongitudeDegrees>-4.03677527792751789093017578125</LongitudeDegrees>
            </Position>
            <AltitudeMeters>773.79998779296875</AltitudeMeters>
            <DistanceMeters>NAN</DistanceMeters>
          </Trackpoint>
          <Trackpoint>
            <Time>2019-08-01T10:18:35.000Z</Time>
            <Position>
              <LatitudeDegrees>40.4865545220673084259033203125</LatitudeDegrees>
              <LongitudeDegrees>-4.03684099204838275909423828125</LongitudeDegrees>
            </Position>
            <AltitudeMeters>773.79998779296875</AltitudeMeters>
            <DistanceMeters>NAN</DistanceMeters>
          </Trackpoint>
          <Trackpoint>
            <Time>2019-08-01T10:18:36.000Z</Time>
            <Position>
              <LatitudeDegrees>40.48653624951839447021484375</LatitudeDegrees>
              <LongitudeDegrees>-4.03690938837826251983642578125</LongitudeDegrees>
            </Position>
            <AltitudeMeters>774</AltitudeMeters>
            <DistanceMeters>NAN</DistanceMeters>
          </Trackpoint>
          <Trackpoint>
            <Time>2019-08-01T10:18:37.000Z</Time>
            <Position>
              <LatitudeDegrees>40.4865179769694805145263671875</LatitudeDegrees>
              <LongitudeDegrees>-4.03698080219328403472900390625</LongitudeDegrees>
            </Position>
            <AltitudeMeters>774</AltitudeMeters>
            <DistanceMeters>NAN</DistanceMeters>
          </Trackpoint>
          <Trackpoint>
            <Time>2019-08-01T10:18:38.000Z</Time>
            <Position>
              <LatitudeDegrees>40.4864988662302494049072265625</LatitudeDegrees>
              <LongitudeDegrees>-4.03705540113151073455810546875</LongitudeDegrees>
            </Position>
            <AltitudeMeters>774</AltitudeMeters>
            <DistanceMeters>NAN</DistanceMeters>
          </Trackpoint>
          <Trackpoint>
            <Time>2019-08-01T10:18:39.000Z</Time>
            <Position>
              <LatitudeDegrees>40.4864777438342571258544921875</LatitudeDegrees>
              <LongitudeDegrees>-4.03713385574519634246826171875</LongitudeDegrees>
            </Position>
            <AltitudeMeters>774</AltitudeMeters>
            <DistanceMeters>NAN</DistanceMeters>
          </Trackpoint>
          <Trackpoint>
            <Time>2019-08-01T10:18:40.000Z</Time>
            <Position>
              <LatitudeDegrees>40.48645653761923313140869140625</LatitudeDegrees>
              <LongitudeDegrees>-4.0372162498533725738525390625</LongitudeDegrees>
            </Position>
            <AltitudeMeters>774</AltitudeMeters>
            <DistanceMeters>NAN</DistanceMeters>
          </Trackpoint>
          <Trackpoint>
            <Time>2019-08-01T10:18:41.000Z</Time>
            <Position>
              <LatitudeDegrees>40.48645653761923313140869140625</LatitudeDegrees>
              <LongitudeDegrees>-4.0372162498533725738525390625</LongitudeDegrees>
            </Position>
            <AltitudeMeters>774</AltitudeMeters>
            <DistanceMeters>NAN</DistanceMeters>
          </Trackpoint>
          <Trackpoint>
            <Time>2019-08-01T10:18:42.000Z</Time>
            <Position>
              <LatitudeDegrees>40.48641278408467769622802734375</LatitudeDegrees>
              <LongitudeDegrees>-4.03739042580127716064453125</LongitudeDegrees>
            </Position>
            <AltitudeMeters>774</AltitudeMeters>
            <DistanceMeters>NAN</DistanceMeters>
          </Trackpoint>
          <Trackpoint>
            <Time>2019-08-01T10:18:43.000Z</Time>
            <Position>
              <LatitudeDegrees>40.4863893985748291015625</LatitudeDegrees>
              <LongitudeDegrees>-4.03748069889843463897705078125</LongitudeDegrees>
            </Position>
            <AltitudeMeters>774</AltitudeMeters>
            <DistanceMeters>NAN</DistanceMeters>
          </Trackpoint>
          <Trackpoint>
            <Time>2019-08-01T10:18:44.000Z</Time>
            <Position>
              <LatitudeDegrees>40.4863654263317584991455078125</LatitudeDegrees>
              <LongitudeDegrees>-4.037571139633655548095703125</LongitudeDegrees>
            </Position>
            <AltitudeMeters>774</AltitudeMeters>
            <DistanceMeters>NAN</DistanceMeters>
          </Trackpoint>
          <Trackpoint>
            <Time>2019-08-01T10:18:45.000Z</Time>
            <Position>
              <LatitudeDegrees>40.48634170554578304290771484375</LatitudeDegrees>
              <LongitudeDegrees>-4.03766225092113018035888671875</LongitudeDegrees>
            </Position>
            <AltitudeMeters>774</AltitudeMeters>
            <DistanceMeters>NAN</DistanceMeters>
          </Trackpoint>
          <Trackpoint>
            <Time>2019-08-01T10:18:46.000Z</Time>
            <Position>
              <LatitudeDegrees>40.48631806857883930206298828125</LatitudeDegrees>
              <LongitudeDegrees>-4.03775294311344623565673828125</LongitudeDegrees>
            </Position>
            <AltitudeMeters>773.79998779296875</AltitudeMeters>
            <DistanceMeters>NAN</DistanceMeters>
          </Trackpoint>
          <Trackpoint>
            <Time>2019-08-01T10:18:47.000Z</Time>
            <Position>
              <LatitudeDegrees>40.48629577271640300750732421875</LatitudeDegrees>
              <LongitudeDegrees>-4.03784237802028656005859375</LongitudeDegrees>
            </Position>
            <AltitudeMeters>773.79998779296875</AltitudeMeters>
            <DistanceMeters>NAN</DistanceMeters>
          </Trackpoint>
          <Trackpoint>
            <Time>2019-08-01T10:18:48.000Z</Time>
            <Position>
              <LatitudeDegrees>40.4862749017775058746337890625</LatitudeDegrees>
              <LongitudeDegrees>-4.03793156147003173828125</LongitudeDegrees>
            </Position>
            <AltitudeMeters>773.5999755859375</AltitudeMeters>
            <DistanceMeters>NAN</DistanceMeters>
          </Trackpoint>
          <Trackpoint>
            <Time>2019-08-01T10:18:49.000Z</Time>
            <Position>
              <LatitudeDegrees>40.486254952847957611083984375</LatitudeDegrees>
              <LongitudeDegrees>-4.038019739091396331787109375</LongitudeDegrees>
            </Position>
            <AltitudeMeters>773.4000244140625</AltitudeMeters>
            <DistanceMeters>NAN</DistanceMeters>
          </Trackpoint>
          <Trackpoint>
            <Time>2019-08-01T10:18:50.000Z</Time>
            <Position>
              <LatitudeDegrees>40.48623642884194850921630859375</LatitudeDegrees>
              <LongitudeDegrees>-4.0381070785224437713623046875</LongitudeDegrees>
            </Position>
            <AltitudeMeters>773.4000244140625</AltitudeMeters>
            <DistanceMeters>NAN</DistanceMeters>
          </Trackpoint>
          <Trackpoint>
            <Time>2019-08-01T10:18:51.000Z</Time>
            <Position>
              <LatitudeDegrees>40.48621916212141513824462890625</LatitudeDegrees>
              <LongitudeDegrees>-4.03819416649639606475830078125</LongitudeDegrees>
            </Position>
            <AltitudeMeters>773.4000244140625</AltitudeMeters>
            <DistanceMeters>NAN</DistanceMeters>
          </Trackpoint>
          <Trackpoint>
            <Time>2019-08-01T10:18:52.000Z</Time>
            <Position>
              <LatitudeDegrees>40.48620365560054779052734375</LatitudeDegrees>
              <LongitudeDegrees>-4.03828091919422149658203125</LongitudeDegrees>
            </Position>
            <AltitudeMeters>773.4000244140625</AltitudeMeters>
            <DistanceMeters>NAN</DistanceMeters>
          </Trackpoint>
          <Trackpoint>
            <Time>2019-08-01T10:18:53.000Z</Time>
            <Position>
              <LatitudeDegrees>40.486191920936107635498046875</LatitudeDegrees>
              <LongitudeDegrees>-4.0383675880730152130126953125</LongitudeDegrees>
            </Position>
            <AltitudeMeters>773.4000244140625</AltitudeMeters>
            <DistanceMeters>NAN</DistanceMeters>
          </Trackpoint>
          <Trackpoint>
            <Time>2019-08-01T10:18:54.000Z</Time>
            <Position>
              <LatitudeDegrees>40.48618488013744354248046875</LatitudeDegrees>
              <LongitudeDegrees>-4.0384527482092380523681640625</LongitudeDegrees>
            </Position>
            <AltitudeMeters>773.4000244140625</AltitudeMeters>
            <DistanceMeters>NAN</DistanceMeters>
          </Trackpoint>
          <Trackpoint>
            <Time>2019-08-01T10:18:55.000Z</Time>
            <Position>
              <LatitudeDegrees>40.48617876134812831878662109375</LatitudeDegrees>
              <LongitudeDegrees>-4.038539417088031768798828125</LongitudeDegrees>
            </Position>
            <AltitudeMeters>773.4000244140625</AltitudeMeters>
            <DistanceMeters>NAN</DistanceMeters>
          </Trackpoint>
          <Trackpoint>
            <Time>2019-08-01T10:18:56.000Z</Time>
            <Position>
              <LatitudeDegrees>40.486173816025257110595703125</LatitudeDegrees>
              <LongitudeDegrees>-4.03862558305263519287109375</LongitudeDegrees>
            </Position>
            <AltitudeMeters>773.4000244140625</AltitudeMeters>
            <DistanceMeters>NAN</DistanceMeters>
          </Trackpoint>
          <Trackpoint>
            <Time>2019-08-01T10:18:57.000Z</Time>
            <Position>
              <LatitudeDegrees>40.48616820015013217926025390625</LatitudeDegrees>
              <LongitudeDegrees>-4.03871350921690464019775390625</LongitudeDegrees>
            </Position>
            <AltitudeMeters>773.5999755859375</AltitudeMeters>
            <DistanceMeters>NAN</DistanceMeters>
          </Trackpoint>
          <Trackpoint>
            <Time>2019-08-01T10:18:58.000Z</Time>
            <Position>
              <LatitudeDegrees>40.4861635901033878326416015625</LatitudeDegrees>
              <LongitudeDegrees>-4.038800932466983795166015625</LongitudeDegrees>
            </Position>
            <AltitudeMeters>773.5999755859375</AltitudeMeters>
            <DistanceMeters>NAN</DistanceMeters>
          </Trackpoint>
          <Trackpoint>
            <Time>2019-08-01T10:18:59.000Z</Time>
            <Position>
              <LatitudeDegrees>40.486159063875675201416015625</LatitudeDegrees>
              <LongitudeDegrees>-4.038889110088348388671875</LongitudeDegrees>
            </Position>
            <AltitudeMeters>774</AltitudeMeters>
            <DistanceMeters>NAN</DistanceMeters>
          </Trackpoint>
          <Trackpoint>
            <Time>2019-08-01T10:19:00.000Z</Time>
            <Position>
              <LatitudeDegrees>40.48615411855280399322509765625</LatitudeDegrees>
              <LongitudeDegrees>-4.0389771200716495513916015625</LongitudeDegrees>
            </Position>
            <AltitudeMeters>774.4000244140625</AltitudeMeters>
            <DistanceMeters>NAN</DistanceMeters>
          </Trackpoint>
          <Trackpoint>
            <Time>2019-08-01T10:19:01.000Z</Time>
            <Position>
              <LatitudeDegrees>40.4861495085060596466064453125</LatitudeDegrees>
              <LongitudeDegrees>-4.03906538151204586029052734375</LongitudeDegrees>
            </Position>
            <AltitudeMeters>774.5999755859375</AltitudeMeters>
            <DistanceMeters>NAN</DistanceMeters>
          </Trackpoint>
          <Trackpoint>
            <Time>2019-08-01T10:19:02.000Z</Time>
            <Position>
              <LatitudeDegrees>40.48614473082125186920166015625</LatitudeDegrees>
              <LongitudeDegrees>-4.03915372677147388458251953125</LongitudeDegrees>
            </Position>
            <AltitudeMeters>774.79998779296875</AltitudeMeters>
            <DistanceMeters>NAN</DistanceMeters>
          </Trackpoint>
          <Trackpoint>
            <Time>2019-08-01T10:19:03.000Z</Time>
            <Position>
              <LatitudeDegrees>40.48614037223160266876220703125</LatitudeDegrees>
              <LongitudeDegrees>-4.0392418205738067626953125</LongitudeDegrees>
            </Position>
            <AltitudeMeters>775</AltitudeMeters>
            <DistanceMeters>NAN</DistanceMeters>
          </Trackpoint>
          <Trackpoint>
            <Time>2019-08-01T10:19:04.000Z</Time>
            <Position>
              <LatitudeDegrees>40.48613525927066802978515625</LatitudeDegrees>
              <LongitudeDegrees>-4.03933041729032993316650390625</LongitudeDegrees>
            </Position>
            <AltitudeMeters>775.20001220703125</AltitudeMeters>
            <DistanceMeters>NAN</DistanceMeters>
          </Trackpoint>
          <Trackpoint>
            <Time>2019-08-01T10:19:05.000Z</Time>
            <Position>
              <LatitudeDegrees>40.48612997867166996002197265625</LatitudeDegrees>
              <LongitudeDegrees>-4.03941909782588481903076171875</LongitudeDegrees>
            </Position>
            <AltitudeMeters>775.20001220703125</AltitudeMeters>
            <DistanceMeters>NAN</DistanceMeters>
          </Trackpoint>
          <Trackpoint>
            <Time>2019-08-01T10:19:06.000Z</Time>
            <Position>
              <LatitudeDegrees>40.48612478189170360565185546875</LatitudeDegrees>
              <LongitudeDegrees>-4.039507694542407989501953125</LongitudeDegrees>
            </Position>
            <AltitudeMeters>775.4000244140625</AltitudeMeters>
            <DistanceMeters>NAN</DistanceMeters>
          </Trackpoint>
          <Trackpoint>
            <Time>2019-08-01T10:19:07.000Z</Time>
            <Position>
              <LatitudeDegrees>40.48612008802592754364013671875</LatitudeDegrees>
              <LongitudeDegrees>-4.03959478251636028289794921875</LongitudeDegrees>
            </Position>
            <AltitudeMeters>775.4000244140625</AltitudeMeters>
            <DistanceMeters>NAN</DistanceMeters>
          </Trackpoint>
          <Trackpoint>
            <Time>2019-08-01T10:19:08.000Z</Time>
            <Position>
              <LatitudeDegrees>40.4861163161695003509521484375</LatitudeDegrees>
              <LongitudeDegrees>-4.03967960737645626068115234375</LongitudeDegrees>
            </Position>
            <AltitudeMeters>775.79998779296875</AltitudeMeters>
            <DistanceMeters>NAN</DistanceMeters>
          </Trackpoint>
          <Trackpoint>
            <Time>2019-08-01T10:19:09.000Z</Time>
            <Position>
              <LatitudeDegrees>40.48611321486532688140869140625</LatitudeDegrees>
              <LongitudeDegrees>-4.03975973837077617645263671875</LongitudeDegrees>
            </Position>
            <AltitudeMeters>776</AltitudeMeters>
            <DistanceMeters>NAN</DistanceMeters>
          </Trackpoint>
          <Trackpoint>
            <Time>2019-08-01T10:19:10.000Z</Time>
            <Position>
              <LatitudeDegrees>40.4861096106469631195068359375</LatitudeDegrees>
              <LongitudeDegrees>-4.0398381091654300689697265625</LongitudeDegrees>
            </Position>
            <AltitudeMeters>776</AltitudeMeters>
            <DistanceMeters>NAN</DistanceMeters>
          </Trackpoint>
          <Trackpoint>
            <Time>2019-08-01T10:19:11.000Z</Time>
            <Position>
              <LatitudeDegrees>40.48610617406666278839111328125</LatitudeDegrees>
              <LongitudeDegrees>-4.03991463594138622283935546875</LongitudeDegrees>
            </Position>
            <AltitudeMeters>776.4000244140625</AltitudeMeters>
            <DistanceMeters>NAN</DistanceMeters>
          </Trackpoint>
          <Trackpoint>
            <Time>2019-08-01T10:19:12.000Z</Time>
            <Position>
              <LatitudeDegrees>40.48610282130539417266845703125</LatitudeDegrees>
              <LongitudeDegrees>-4.03998856432735919952392578125</LongitudeDegrees>
            </Position>
            <AltitudeMeters>776.4000244140625</AltitudeMeters>
            <DistanceMeters>NAN</DistanceMeters>
          </Trackpoint>
          <Trackpoint>
            <Time>2019-08-01T10:19:13.000Z</Time>
            <Position>
              <LatitudeDegrees>40.48610282130539417266845703125</LatitudeDegrees>
              <LongitudeDegrees>-4.03998856432735919952392578125</LongitudeDegrees>
            </Position>
            <AltitudeMeters>776.79998779296875</AltitudeMeters>
            <DistanceMeters>NAN</DistanceMeters>
          </Trackpoint>
          <Trackpoint>
            <Time>2019-08-01T10:19:14.000Z</Time>
            <Position>
              <LatitudeDegrees>40.48610282130539417266845703125</LatitudeDegrees>
              <LongitudeDegrees>-4.03998856432735919952392578125</LongitudeDegrees>
            </Position>
            <AltitudeMeters>777</AltitudeMeters>
            <DistanceMeters>NAN</DistanceMeters>
          </Trackpoint>
          <Trackpoint>
            <Time>2019-08-01T10:19:15.000Z</Time>
            <Position>
              <LatitudeDegrees>40.486094020307064056396484375</LatitudeDegrees>
              <LongitudeDegrees>-4.0402018837630748748779296875</LongitudeDegrees>
            </Position>
            <AltitudeMeters>777.4000244140625</AltitudeMeters>
            <DistanceMeters>NAN</DistanceMeters>
          </Trackpoint>
          <Trackpoint>
            <Time>2019-08-01T10:19:16.000Z</Time>
            <Position>
              <LatitudeDegrees>40.4860904999077320098876953125</LatitudeDegrees>
              <LongitudeDegrees>-4.04027069918811321258544921875</LongitudeDegrees>
            </Position>
            <AltitudeMeters>777.5999755859375</AltitudeMeters>
            <DistanceMeters>NAN</DistanceMeters>
          </Trackpoint>
          <Trackpoint>
            <Time>2019-08-01T10:19:17.000Z</Time>
            <Position>
              <LatitudeDegrees>40.48608840443193912506103515625</LatitudeDegrees>
              <LongitudeDegrees>-4.04033674858510494232177734375</LongitudeDegrees>
            </Position>
            <AltitudeMeters>777.79998779296875</AltitudeMeters>
            <DistanceMeters>NAN</DistanceMeters>
          </Trackpoint>
          <Trackpoint>
            <Time>2019-08-01T10:19:18.000Z</Time>
            <Position>
              <LatitudeDegrees>40.4860849678516387939453125</LatitudeDegrees>
              <LongitudeDegrees>-4.0404032170772552490234375</LongitudeDegrees>
            </Position>
            <AltitudeMeters>778</AltitudeMeters>
            <DistanceMeters>NAN</DistanceMeters>
          </Trackpoint>
          <Trackpoint>
            <Time>2019-08-01T10:19:19.000Z</Time>
            <Position>
              <LatitudeDegrees>40.4860821180045604705810546875</LatitudeDegrees>
              <LongitudeDegrees>-4.04046683572232723236083984375</LongitudeDegrees>
            </Position>
            <AltitudeMeters>778.5999755859375</AltitudeMeters>
            <DistanceMeters>NAN</DistanceMeters>
          </Trackpoint>
          <Trackpoint>
            <Time>2019-08-01T10:19:20.000Z</Time>
            <Position>
              <LatitudeDegrees>40.48607817851006984710693359375</LatitudeDegrees>
              <LongitudeDegrees>-4.0405307896435260772705078125</LongitudeDegrees>
            </Position>
            <AltitudeMeters>778.79998779296875</AltitudeMeters>
            <DistanceMeters>NAN</DistanceMeters>
          </Trackpoint>
          <Trackpoint>
            <Time>2019-08-01T10:19:21.000Z</Time>
            <Position>
              <LatitudeDegrees>40.48607432283461093902587890625</LatitudeDegrees>
              <LongitudeDegrees>-4.04059424065053462982177734375</LongitudeDegrees>
            </Position>
            <AltitudeMeters>779.4000244140625</AltitudeMeters>
            <DistanceMeters>NAN</DistanceMeters>
          </Trackpoint>
          <Trackpoint>
            <Time>2019-08-01T10:19:22.000Z</Time>
            <Position>
              <LatitudeDegrees>40.48606996424496173858642578125</LatitudeDegrees>
              <LongitudeDegrees>-4.04065861366689205169677734375</LongitudeDegrees>
            </Position>
            <AltitudeMeters>779.5999755859375</AltitudeMeters>
            <DistanceMeters>NAN</DistanceMeters>
          </Trackpoint>
          <Trackpoint>
            <Time>2019-08-01T10:19:23.000Z</Time>
            <Position>
              <LatitudeDegrees>40.48606560565531253814697265625</LatitudeDegrees>
              <LongitudeDegrees>-4.0407229028642177581787109375</LongitudeDegrees>
            </Position>
            <AltitudeMeters>779.79998779296875</AltitudeMeters>
            <DistanceMeters>NAN</DistanceMeters>
          </Trackpoint>
          <Trackpoint>
            <Time>2019-08-01T10:19:24.000Z</Time>
            <Position>
              <LatitudeDegrees>40.48606174997985363006591796875</LatitudeDegrees>
              <LongitudeDegrees>-4.04078668914735317230224609375</LongitudeDegrees>
            </Position>
            <AltitudeMeters>780</AltitudeMeters>
            <DistanceMeters>NAN</DistanceMeters>
          </Trackpoint>
          <Trackpoint>
            <Time>2019-08-01T10:19:25.000Z</Time>
            <Position>
              <LatitudeDegrees>40.4860581457614898681640625</LatitudeDegrees>
              <LongitudeDegrees>-4.04085072688758373260498046875</LongitudeDegrees>
            </Position>
            <AltitudeMeters>780.4000244140625</AltitudeMeters>
            <DistanceMeters>NAN</DistanceMeters>
          </Trackpoint>
          <Trackpoint>
            <Time>2019-08-01T10:19:26.000Z</Time>
            <Position>
              <LatitudeDegrees>40.4860554635524749755859375</LatitudeDegrees>
              <LongitudeDegrees>-4.0409130044281482696533203125</LongitudeDegrees>
            </Position>
            <AltitudeMeters>780.79998779296875</AltitudeMeters>
            <DistanceMeters>NAN</DistanceMeters>
          </Trackpoint>
          <Trackpoint>
            <Time>2019-08-01T10:19:27.000Z</Time>
            <Position>
              <LatitudeDegrees>40.48605169169604778289794921875</LatitudeDegrees>
              <LongitudeDegrees>-4.04097595252096652984619140625</LongitudeDegrees>
            </Position>
            <AltitudeMeters>781</AltitudeMeters>
            <DistanceMeters>NAN</DistanceMeters>
          </Trackpoint>
          <Trackpoint>
            <Time>2019-08-01T10:19:28.000Z</Time>
            <Position>
              <LatitudeDegrees>40.4860479198396205902099609375</LatitudeDegrees>
              <LongitudeDegrees>-4.04103864915668964385986328125</LongitudeDegrees>
            </Position>
            <AltitudeMeters>781</AltitudeMeters>
            <DistanceMeters>NAN</DistanceMeters>
          </Trackpoint>
          <Trackpoint>
            <Time>2019-08-01T10:19:29.000Z</Time>
            <Position>
              <LatitudeDegrees>40.48604515381157398223876953125</LatitudeDegrees>
              <LongitudeDegrees>-4.04110017232596874237060546875</LongitudeDegrees>
            </Position>
            <AltitudeMeters>781.20001220703125</AltitudeMeters>
            <DistanceMeters>NAN</DistanceMeters>
          </Trackpoint>
          <Trackpoint>
            <Time>2019-08-01T10:19:30.000Z</Time>
            <Position>
              <LatitudeDegrees>40.48604012466967105865478515625</LatitudeDegrees>
              <LongitudeDegrees>-4.041164629161357879638671875</LongitudeDegrees>
            </Position>
            <AltitudeMeters>781.5999755859375</AltitudeMeters>
            <DistanceMeters>NAN</DistanceMeters>
          </Trackpoint>
          <Trackpoint>
            <Time>2019-08-01T10:19:31.000Z</Time>
            <Position>
              <LatitudeDegrees>40.48603593371808528900146484375</LatitudeDegrees>
              <LongitudeDegrees>-4.04122757725417613983154296875</LongitudeDegrees>
            </Position>
            <AltitudeMeters>781.79998779296875</AltitudeMeters>
            <DistanceMeters>NAN</DistanceMeters>
          </Trackpoint>
          <Trackpoint>
            <Time>2019-08-01T10:19:32.000Z</Time>
            <Position>
              <LatitudeDegrees>40.4860321618616580963134765625</LatitudeDegrees>
              <LongitudeDegrees>-4.04128943569958209991455078125</LongitudeDegrees>
            </Position>
            <AltitudeMeters>782</AltitudeMeters>
            <DistanceMeters>NAN</DistanceMeters>
          </Trackpoint>
          <Trackpoint>
            <Time>2019-08-01T10:19:33.000Z</Time>
            <Position>
              <LatitudeDegrees>40.4860321618616580963134765625</LatitudeDegrees>
              <LongitudeDegrees>-4.04128943569958209991455078125</LongitudeDegrees>
            </Position>
            <AltitudeMeters>782.4000244140625</AltitudeMeters>
            <DistanceMeters>NAN</DistanceMeters>
          </Trackpoint>
          <Trackpoint>
            <Time>2019-08-01T10:19:34.000Z</Time>
            <Position>
              <LatitudeDegrees>40.48602470196783542633056640625</LatitudeDegrees>
              <LongitudeDegrees>-4.04141181148588657379150390625</LongitudeDegrees>
            </Position>
            <AltitudeMeters>782.5999755859375</AltitudeMeters>
            <DistanceMeters>NAN</DistanceMeters>
          </Trackpoint>
          <Trackpoint>
            <Time>2019-08-01T10:19:35.000Z</Time>
            <Position>
              <LatitudeDegrees>40.486021935939788818359375</LatitudeDegrees>
              <LongitudeDegrees>-4.04147065244615077972412109375</LongitudeDegrees>
            </Position>
            <AltitudeMeters>782.79998779296875</AltitudeMeters>
            <DistanceMeters>NAN</DistanceMeters>
          </Trackpoint>
          <Trackpoint>
            <Time>2019-08-01T10:19:36.000Z</Time>
            <Position>
              <LatitudeDegrees>40.48601833172142505645751953125</LatitudeDegrees>
              <LongitudeDegrees>-4.0415297448635101318359375</LongitudeDegrees>
            </Position>
            <AltitudeMeters>783.20001220703125</AltitudeMeters>
            <DistanceMeters>NAN</DistanceMeters>
          </Trackpoint>
          <Trackpoint>
            <Time>2019-08-01T10:19:37.000Z</Time>
            <Position>
              <LatitudeDegrees>40.48601397313177585601806640625</LatitudeDegrees>
              <LongitudeDegrees>-4.0415889210999011993408203125</LongitudeDegrees>
            </Position>
            <AltitudeMeters>783.4000244140625</AltitudeMeters>
            <DistanceMeters>NAN</DistanceMeters>
          </Trackpoint>
          <Trackpoint>
            <Time>2019-08-01T10:19:38.000Z</Time>
            <Position>
              <LatitudeDegrees>40.48601397313177585601806640625</LatitudeDegrees>
              <LongitudeDegrees>-4.0415889210999011993408203125</LongitudeDegrees>
            </Position>
            <AltitudeMeters>783.5999755859375</AltitudeMeters>
            <DistanceMeters>NAN</DistanceMeters>
          </Trackpoint>
          <Trackpoint>
            <Time>2019-08-01T10:19:39.000Z</Time>
            <Position>
              <LatitudeDegrees>40.48600659705698490142822265625</LatitudeDegrees>
              <LongitudeDegrees>-4.04170702211558818817138671875</LongitudeDegrees>
            </Position>
            <AltitudeMeters>784</AltitudeMeters>
            <DistanceMeters>NAN</DistanceMeters>
          </Trackpoint>
          <Trackpoint>
            <Time>2019-08-01T10:19:40.000Z</Time>
            <Position>
              <LatitudeDegrees>40.486003495752811431884765625</LatitudeDegrees>
              <LongitudeDegrees>-4.04176351614296436309814453125</LongitudeDegrees>
            </Position>
            <AltitudeMeters>784.20001220703125</AltitudeMeters>
            <DistanceMeters>NAN</DistanceMeters>
          </Trackpoint>
          <Trackpoint>
            <Time>2019-08-01T10:19:41.000Z</Time>
            <Position>
              <LatitudeDegrees>40.4859996400773525238037109375</LatitudeDegrees>
              <LongitudeDegrees>-4.0418216027319431304931640625</LongitudeDegrees>
            </Position>
            <AltitudeMeters>784.4000244140625</AltitudeMeters>
            <DistanceMeters>NAN</DistanceMeters>
          </Trackpoint>
          <Trackpoint>
            <Time>2019-08-01T10:19:42.000Z</Time>
            <Position>
              <LatitudeDegrees>40.48599737696349620819091796875</LatitudeDegrees>
              <LongitudeDegrees>-4.041878096759319305419921875</LongitudeDegrees>
            </Position>
            <AltitudeMeters>784.79998779296875</AltitudeMeters>
            <DistanceMeters>NAN</DistanceMeters>
          </Trackpoint>
          <Trackpoint>
            <Time>2019-08-01T10:19:43.000Z</Time>
            <Position>
              <LatitudeDegrees>40.485994778573513031005859375</LatitudeDegrees>
              <LongitudeDegrees>-4.04193568043410778045654296875</LongitudeDegrees>
            </Position>
            <AltitudeMeters>785.4000244140625</AltitudeMeters>
            <DistanceMeters>NAN</DistanceMeters>
          </Trackpoint>
          <Trackpoint>
            <Time>2019-08-01T10:19:44.000Z</Time>
            <Position>
              <LatitudeDegrees>40.48599218018352985382080078125</LatitudeDegrees>
              <LongitudeDegrees>-4.04199318028986454010009765625</LongitudeDegrees>
            </Position>
            <AltitudeMeters>785.79998779296875</AltitudeMeters>
            <DistanceMeters>NAN</DistanceMeters>
          </Trackpoint>
          <Trackpoint>
            <Time>2019-08-01T10:19:45.000Z</Time>
            <Position>
              <LatitudeDegrees>40.485988743603229522705078125</LatitudeDegrees>
              <LongitudeDegrees>-4.04205143451690673828125</LongitudeDegrees>
            </Position>
            <AltitudeMeters>786.20001220703125</AltitudeMeters>
            <DistanceMeters>NAN</DistanceMeters>
          </Trackpoint>
          <Trackpoint>
            <Time>2019-08-01T10:19:46.000Z</Time>
            <Position>
              <LatitudeDegrees>40.48598664812743663787841796875</LatitudeDegrees>
              <LongitudeDegrees>-4.04210818000137805938720703125</LongitudeDegrees>
            </Position>
            <AltitudeMeters>786.5999755859375</AltitudeMeters>
            <DistanceMeters>NAN</DistanceMeters>
          </Trackpoint>
          <Trackpoint>
            <Time>2019-08-01T10:19:47.000Z</Time>
            <Position>
              <LatitudeDegrees>40.48598698340356349945068359375</LatitudeDegrees>
              <LongitudeDegrees>-4.0421635843813419342041015625</LongitudeDegrees>
            </Position>
            <AltitudeMeters>787</AltitudeMeters>
            <DistanceMeters>NAN</DistanceMeters>
          </Trackpoint>
          <Trackpoint>
            <Time>2019-08-01T10:19:48.000Z</Time>
            <Position>
              <LatitudeDegrees>40.485994108021259307861328125</LatitudeDegrees>
              <LongitudeDegrees>-4.04221714474260807037353515625</LongitudeDegrees>
            </Position>
            <AltitudeMeters>787.4000244140625</AltitudeMeters>
            <DistanceMeters>NAN</DistanceMeters>
          </Trackpoint>
          <Trackpoint>
            <Time>2019-08-01T10:19:49.000Z</Time>
            <Position>
              <LatitudeDegrees>40.48600760288536548614501953125</LatitudeDegrees>
              <LongitudeDegrees>-4.042270369827747344970703125</LongitudeDegrees>
            </Position>
            <AltitudeMeters>787.5999755859375</AltitudeMeters>
            <DistanceMeters>NAN</DistanceMeters>
          </Trackpoint>
          <Trackpoint>
            <Time>2019-08-01T10:19:50.000Z</Time>
            <Position>
              <LatitudeDegrees>40.48602369613945484161376953125</LatitudeDegrees>
              <LongitudeDegrees>-4.04232309199869632720947265625</LongitudeDegrees>
            </Position>
            <AltitudeMeters>787.79998779296875</AltitudeMeters>
            <DistanceMeters>NAN</DistanceMeters>
          </Trackpoint>
          <Trackpoint>
            <Time>2019-08-01T10:19:51.000Z</Time>
            <Position>
              <LatitudeDegrees>40.4860408790409564971923828125</LatitudeDegrees>
              <LongitudeDegrees>-4.042375981807708740234375</LongitudeDegrees>
            </Position>
            <AltitudeMeters>788.20001220703125</AltitudeMeters>
            <DistanceMeters>NAN</DistanceMeters>
          </Trackpoint>
          <Trackpoint>
            <Time>2019-08-01T10:19:52.000Z</Time>
            <Position>
              <LatitudeDegrees>40.4860589839518070220947265625</LatitudeDegrees>
              <LongitudeDegrees>-4.04243004508316516876220703125</LongitudeDegrees>
            </Position>
            <AltitudeMeters>788.5999755859375</AltitudeMeters>
            <DistanceMeters>NAN</DistanceMeters>
          </Trackpoint>
          <Trackpoint>
            <Time>2019-08-01T10:19:53.000Z</Time>
            <Position>
              <LatitudeDegrees>40.4860589839518070220947265625</LatitudeDegrees>
              <LongitudeDegrees>-4.04243004508316516876220703125</LongitudeDegrees>
            </Position>
            <AltitudeMeters>788.79998779296875</AltitudeMeters>
            <DistanceMeters>NAN</DistanceMeters>
          </Trackpoint>
          <Trackpoint>
            <Time>2019-08-01T10:19:54.000Z</Time>
            <Position>
              <LatitudeDegrees>40.4860938526690006256103515625</LatitudeDegrees>
              <LongitudeDegrees>-4.0425411053001880645751953125</LongitudeDegrees>
            </Position>
            <AltitudeMeters>789</AltitudeMeters>
            <DistanceMeters>NAN</DistanceMeters>
          </Trackpoint>
          <Trackpoint>
            <Time>2019-08-01T10:19:55.000Z</Time>
            <Position>
              <LatitudeDegrees>40.4861104488372802734375</LatitudeDegrees>
              <LongitudeDegrees>-4.04259701259434223175048828125</LongitudeDegrees>
            </Position>
            <AltitudeMeters>789.20001220703125</AltitudeMeters>
            <DistanceMeters>NAN</DistanceMeters>
          </Trackpoint>
          <Trackpoint>
            <Time>2019-08-01T10:19:56.000Z</Time>
            <Position>
              <LatitudeDegrees>40.48612813465297222137451171875</LatitudeDegrees>
              <LongitudeDegrees>-4.04265216551721096038818359375</LongitudeDegrees>
            </Position>
            <AltitudeMeters>789.5999755859375</AltitudeMeters>
            <DistanceMeters>NAN</DistanceMeters>
          </Trackpoint>
          <Trackpoint>
            <Time>2019-08-01T10:19:57.000Z</Time>
            <Position>
              <LatitudeDegrees>40.48612813465297222137451171875</LatitudeDegrees>
              <LongitudeDegrees>-4.04265216551721096038818359375</LongitudeDegrees>
            </Position>
            <AltitudeMeters>789.79998779296875</AltitudeMeters>
            <DistanceMeters>NAN</DistanceMeters>
          </Trackpoint>
          <Trackpoint>
            <Time>2019-08-01T10:19:58.000Z</Time>
            <Position>
              <LatitudeDegrees>40.48616585321724414825439453125</LatitudeDegrees>
              <LongitudeDegrees>-4.0427643992006778717041015625</LongitudeDegrees>
            </Position>
            <AltitudeMeters>789.79998779296875</AltitudeMeters>
            <DistanceMeters>NAN</DistanceMeters>
          </Trackpoint>
          <Trackpoint>
            <Time>2019-08-01T10:19:59.000Z</Time>
            <Position>
              <LatitudeDegrees>40.48618580214679241180419921875</LatitudeDegrees>
              <LongitudeDegrees>-4.04282131232321262359619140625</LongitudeDegrees>
            </Position>
            <AltitudeMeters>790.20001220703125</AltitudeMeters>
            <DistanceMeters>NAN</DistanceMeters>
          </Trackpoint>
          <Trackpoint>
            <Time>2019-08-01T10:20:00.000Z</Time>
            <Position>
              <LatitudeDegrees>40.48618580214679241180419921875</LatitudeDegrees>
              <LongitudeDegrees>-4.04282131232321262359619140625</LongitudeDegrees>
            </Position>
            <AltitudeMeters>790.4000244140625</AltitudeMeters>
            <DistanceMeters>NAN</DistanceMeters>
          </Trackpoint>
          <Trackpoint>
            <Time>2019-08-01T10:20:01.000Z</Time>
            <Position>
              <LatitudeDegrees>40.4862272925674915313720703125</LatitudeDegrees>
              <LongitudeDegrees>-4.04293497093021869659423828125</LongitudeDegrees>
            </Position>
            <AltitudeMeters>790.5999755859375</AltitudeMeters>
            <DistanceMeters>NAN</DistanceMeters>
          </Trackpoint>
          <Trackpoint>
            <Time>2019-08-01T10:20:02.000Z</Time>
            <Position>
              <LatitudeDegrees>40.48624715767800807952880859375</LatitudeDegrees>
              <LongitudeDegrees>-4.04299364425241947174072265625</LongitudeDegrees>
            </Position>
            <AltitudeMeters>790.79998779296875</AltitudeMeters>
            <DistanceMeters>NAN</DistanceMeters>
          </Trackpoint>
          <Trackpoint>
            <Time>2019-08-01T10:20:03.000Z</Time>
            <Position>
              <LatitudeDegrees>40.48626710660755634307861328125</LatitudeDegrees>
              <LongitudeDegrees>-4.0430530719459056854248046875</LongitudeDegrees>
            </Position>
            <AltitudeMeters>791</AltitudeMeters>
            <DistanceMeters>NAN</DistanceMeters>
          </Trackpoint>
          <Trackpoint>
            <Time>2019-08-01T10:20:04.000Z</Time>
            <Position>
              <LatitudeDegrees>40.486287809908390045166015625</LatitudeDegrees>
              <LongitudeDegrees>-4.04311233200132846832275390625</LongitudeDegrees>
            </Position>
            <AltitudeMeters>791.20001220703125</AltitudeMeters>
            <DistanceMeters>NAN</DistanceMeters>
          </Trackpoint>
          <Trackpoint>
            <Time>2019-08-01T10:20:05.000Z</Time>
            <Position>
              <LatitudeDegrees>40.48630851320922374725341796875</LatitudeDegrees>
              <LongitudeDegrees>-4.04317167587578296661376953125</LongitudeDegrees>
            </Position>
            <AltitudeMeters>791.4000244140625</AltitudeMeters>
            <DistanceMeters>NAN</DistanceMeters>
          </Trackpoint>
          <Trackpoint>
            <Time>2019-08-01T10:20:06.000Z</Time>
            <Position>
              <LatitudeDegrees>40.48630851320922374725341796875</LatitudeDegrees>
              <LongitudeDegrees>-4.04317167587578296661376953125</LongitudeDegrees>
            </Position>
            <AltitudeMeters>791.5999755859375</AltitudeMeters>
            <DistanceMeters>NAN</DistanceMeters>
          </Trackpoint>
          <Trackpoint>
            <Time>2019-08-01T10:20:07.000Z</Time>
            <Position>
              <LatitudeDegrees>40.48634790815412998199462890625</LatitudeDegrees>
              <LongitudeDegrees>-4.0432921238243579864501953125</LongitudeDegrees>
            </Position>
            <AltitudeMeters>791.79998779296875</AltitudeMeters>
            <DistanceMeters>NAN</DistanceMeters>
          </Trackpoint>
          <Trackpoint>
            <Time>2019-08-01T10:20:08.000Z</Time>
            <Position>
              <LatitudeDegrees>40.48636701889336109161376953125</LatitudeDegrees>
              <LongitudeDegrees>-4.04335255734622478485107421875</LongitudeDegrees>
            </Position>
            <AltitudeMeters>792</AltitudeMeters>
            <DistanceMeters>NAN</DistanceMeters>
          </Trackpoint>
          <Trackpoint>
            <Time>2019-08-01T10:20:09.000Z</Time>
            <Position>
              <LatitudeDegrees>40.486385039985179901123046875</LatitudeDegrees>
              <LongitudeDegrees>-4.0434138290584087371826171875</LongitudeDegrees>
            </Position>
            <AltitudeMeters>792.20001220703125</AltitudeMeters>
            <DistanceMeters>NAN</DistanceMeters>
          </Trackpoint>
          <Trackpoint>
            <Time>2019-08-01T10:20:10.000Z</Time>
            <Position>
              <LatitudeDegrees>40.4864023067057132720947265625</LatitudeDegrees>
              <LongitudeDegrees>-4.04347560368478298187255859375</LongitudeDegrees>
            </Position>
            <AltitudeMeters>792.20001220703125</AltitudeMeters>
            <DistanceMeters>NAN</DistanceMeters>
          </Trackpoint>
          <Trackpoint>
            <Time>2019-08-01T10:20:11.000Z</Time>
            <Position>
              <LatitudeDegrees>40.48641965724527835845947265625</LatitudeDegrees>
              <LongitudeDegrees>-4.043536372482776641845703125</LongitudeDegrees>
            </Position>
            <AltitudeMeters>792.4000244140625</AltitudeMeters>
            <DistanceMeters>NAN</DistanceMeters>
          </Trackpoint>
          <Trackpoint>
            <Time>2019-08-01T10:20:12.000Z</Time>
            <Position>
              <LatitudeDegrees>40.4864365048706531524658203125</LatitudeDegrees>
              <LongitudeDegrees>-4.0435975603759288787841796875</LongitudeDegrees>
            </Position>
            <AltitudeMeters>792.4000244140625</AltitudeMeters>
            <DistanceMeters>NAN</DistanceMeters>
          </Trackpoint>
          <Trackpoint>
            <Time>2019-08-01T10:20:13.000Z</Time>
            <Position>
              <LatitudeDegrees>40.48645234666764736175537109375</LatitudeDegrees>
              <LongitudeDegrees>-4.04366017319262027740478515625</LongitudeDegrees>
            </Position>
            <AltitudeMeters>792.79998779296875</AltitudeMeters>
            <DistanceMeters>NAN</DistanceMeters>
          </Trackpoint>
          <Trackpoint>
            <Time>2019-08-01T10:20:14.000Z</Time>
            <Position>
              <LatitudeDegrees>40.48646793700754642486572265625</LatitudeDegrees>
              <LongitudeDegrees>-4.043722115457057952880859375</LongitudeDegrees>
            </Position>
            <AltitudeMeters>793.20001220703125</AltitudeMeters>
            <DistanceMeters>NAN</DistanceMeters>
          </Trackpoint>
          <Trackpoint>
            <Time>2019-08-01T10:20:15.000Z</Time>
            <Position>
              <LatitudeDegrees>40.4864819347858428955078125</LatitudeDegrees>
              <LongitudeDegrees>-4.0437859855592250823974609375</LongitudeDegrees>
            </Position>
            <AltitudeMeters>793.20001220703125</AltitudeMeters>
            <DistanceMeters>NAN</DistanceMeters>
          </Trackpoint>
          <Trackpoint>
            <Time>2019-08-01T10:20:16.000Z</Time>
            <Position>
              <LatitudeDegrees>40.48649777658283710479736328125</LatitudeDegrees>
              <LongitudeDegrees>-4.04384876601397991180419921875</LongitudeDegrees>
            </Position>
            <AltitudeMeters>793.5999755859375</AltitudeMeters>
            <DistanceMeters>NAN</DistanceMeters>
          </Trackpoint>
          <Trackpoint>
            <Time>2019-08-01T10:20:17.000Z</Time>
            <Position>
              <LatitudeDegrees>40.48651504330337047576904296875</LatitudeDegrees>
              <LongitudeDegrees>-4.043912552297115325927734375</LongitudeDegrees>
            </Position>
            <AltitudeMeters>794</AltitudeMeters>
            <DistanceMeters>NAN</DistanceMeters>
          </Trackpoint>
          <Trackpoint>
            <Time>2019-08-01T10:20:18.000Z</Time>
            <Position>
              <LatitudeDegrees>40.48653490841388702392578125</LatitudeDegrees>
              <LongitudeDegrees>-4.04397516511380672454833984375</LongitudeDegrees>
            </Position>
            <AltitudeMeters>794.20001220703125</AltitudeMeters>
            <DistanceMeters>NAN</DistanceMeters>
          </Trackpoint>
          <Trackpoint>
            <Time>2019-08-01T10:20:19.000Z</Time>
            <Position>
              <LatitudeDegrees>40.48655477352440357208251953125</LatitudeDegrees>
              <LongitudeDegrees>-4.04403819702565670013427734375</LongitudeDegrees>
            </Position>
            <AltitudeMeters>794.4000244140625</AltitudeMeters>
            <DistanceMeters>NAN</DistanceMeters>
          </Trackpoint>
          <Trackpoint>
            <Time>2019-08-01T10:20:20.000Z</Time>
            <Position>
              <LatitudeDegrees>40.48657589592039585113525390625</LatitudeDegrees>
              <LongitudeDegrees>-4.044098295271396636962890625</LongitudeDegrees>
            </Position>
            <AltitudeMeters>794.5999755859375</AltitudeMeters>
            <DistanceMeters>NAN</DistanceMeters>
          </Trackpoint>
          <Trackpoint>
            <Time>2019-08-01T10:20:21.000Z</Time>
            <Position>
              <LatitudeDegrees>40.48659584484994411468505859375</LatitudeDegrees>
              <LongitudeDegrees>-4.0441604889929294586181640625</LongitudeDegrees>
            </Position>
            <AltitudeMeters>794.79998779296875</AltitudeMeters>
            <DistanceMeters>NAN</DistanceMeters>
          </Trackpoint>
          <Trackpoint>
            <Time>2019-08-01T10:20:22.000Z</Time>
            <Position>
              <LatitudeDegrees>40.48661671578884124755859375</LatitudeDegrees>
              <LongitudeDegrees>-4.0442226827144622802734375</LongitudeDegrees>
            </Position>
            <AltitudeMeters>794.79998779296875</AltitudeMeters>
            <DistanceMeters>NAN</DistanceMeters>
          </Trackpoint>
          <Trackpoint>
            <Time>2019-08-01T10:20:23.000Z</Time>
            <Position>
              <LatitudeDegrees>40.48663691617548465728759765625</LatitudeDegrees>
              <LongitudeDegrees>-4.04428630135953426361083984375</LongitudeDegrees>
            </Position>
            <AltitudeMeters>795.20001220703125</AltitudeMeters>
            <DistanceMeters>NAN</DistanceMeters>
          </Trackpoint>
          <Trackpoint>
            <Time>2019-08-01T10:20:24.000Z</Time>
            <Position>
              <LatitudeDegrees>40.48665803857147693634033203125</LatitudeDegrees>
              <LongitudeDegrees>-4.04434807598590850830078125</LongitudeDegrees>
            </Position>
            <AltitudeMeters>795.5999755859375</AltitudeMeters>
            <DistanceMeters>NAN</DistanceMeters>
          </Trackpoint>
          <Trackpoint>
            <Time>2019-08-01T10:20:25.000Z</Time>
            <Position>
              <LatitudeDegrees>40.48667899332940578460693359375</LatitudeDegrees>
              <LongitudeDegrees>-4.04441052116453647613525390625</LongitudeDegrees>
            </Position>
            <AltitudeMeters>795.79998779296875</AltitudeMeters>
            <DistanceMeters>NAN</DistanceMeters>
          </Trackpoint>
          <Trackpoint>
            <Time>2019-08-01T10:20:26.000Z</Time>
            <Position>
              <LatitudeDegrees>40.4866993613541126251220703125</LatitudeDegrees>
              <LongitudeDegrees>-4.0444743074476718902587890625</LongitudeDegrees>
            </Position>
            <AltitudeMeters>795.79998779296875</AltitudeMeters>
            <DistanceMeters>NAN</DistanceMeters>
          </Trackpoint>
          <Trackpoint>
            <Time>2019-08-01T10:20:27.000Z</Time>
            <Position>
              <LatitudeDegrees>40.4867194779217243194580078125</LatitudeDegrees>
              <LongitudeDegrees>-4.04453826136887073516845703125</LongitudeDegrees>
            </Position>
            <AltitudeMeters>796.20001220703125</AltitudeMeters>
            <DistanceMeters>NAN</DistanceMeters>
          </Trackpoint>
          <Trackpoint>
            <Time>2019-08-01T10:20:28.000Z</Time>
            <Position>
              <LatitudeDegrees>40.48673934303224086761474609375</LatitudeDegrees>
              <LongitudeDegrees>-4.044603221118450164794921875</LongitudeDegrees>
            </Position>
            <AltitudeMeters>796.4000244140625</AltitudeMeters>
            <DistanceMeters>NAN</DistanceMeters>
          </Trackpoint>
          <Trackpoint>
            <Time>2019-08-01T10:20:29.000Z</Time>
            <Position>
              <LatitudeDegrees>40.48675895668566226959228515625</LatitudeDegrees>
              <LongitudeDegrees>-4.04466952197253704071044921875</LongitudeDegrees>
            </Position>
            <AltitudeMeters>796.79998779296875</AltitudeMeters>
            <DistanceMeters>NAN</DistanceMeters>
          </Trackpoint>
          <Trackpoint>
            <Time>2019-08-01T10:20:30.000Z</Time>
            <Position>
              <LatitudeDegrees>40.48675895668566226959228515625</LatitudeDegrees>
              <LongitudeDegrees>-4.04466952197253704071044921875</LongitudeDegrees>
            </Position>
            <AltitudeMeters>796.79998779296875</AltitudeMeters>
            <DistanceMeters>NAN</DistanceMeters>
          </Trackpoint>
          <Trackpoint>
            <Time>2019-08-01T10:20:31.000Z</Time>
            <Position>
              <LatitudeDegrees>40.486799776554107666015625</LatitudeDegrees>
              <LongitudeDegrees>-4.0448025427758693695068359375</LongitudeDegrees>
            </Position>
            <AltitudeMeters>797</AltitudeMeters>
            <DistanceMeters>NAN</DistanceMeters>
          </Trackpoint>
          <Trackpoint>
            <Time>2019-08-01T10:20:32.000Z</Time>
            <Position>
              <LatitudeDegrees>40.48682115040719509124755859375</LatitudeDegrees>
              <LongitudeDegrees>-4.0448706038296222686767578125</LongitudeDegrees>
            </Position>
            <AltitudeMeters>797.20001220703125</AltitudeMeters>
            <DistanceMeters>NAN</DistanceMeters>
          </Trackpoint>
          <Trackpoint>
            <Time>2019-08-01T10:20:33.000Z</Time>
            <Position>
              <LatitudeDegrees>40.486843027174472808837890625</LatitudeDegrees>
              <LongitudeDegrees>-4.04493925161659717559814453125</LongitudeDegrees>
            </Position>
            <AltitudeMeters>797.4000244140625</AltitudeMeters>
            <DistanceMeters>NAN</DistanceMeters>
          </Trackpoint>
          <Trackpoint>
            <Time>2019-08-01T10:20:34.000Z</Time>
            <Position>
              <LatitudeDegrees>40.4868659935891628265380859375</LatitudeDegrees>
              <LongitudeDegrees>-4.04500789940357208251953125</LongitudeDegrees>
            </Position>
            <AltitudeMeters>797.5999755859375</AltitudeMeters>
            <DistanceMeters>NAN</DistanceMeters>
          </Trackpoint>
          <Trackpoint>
            <Time>2019-08-01T10:20:35.000Z</Time>
            <Position>
              <LatitudeDegrees>40.4868896305561065673828125</LatitudeDegrees>
              <LongitudeDegrees>-4.04507705010473728179931640625</LongitudeDegrees>
            </Position>
            <AltitudeMeters>797.79998779296875</AltitudeMeters>
            <DistanceMeters>NAN</DistanceMeters>
          </Trackpoint>
          <Trackpoint>
            <Time>2019-08-01T10:20:36.000Z</Time>
            <Position>
              <LatitudeDegrees>40.48691335134208202362060546875</LatitudeDegrees>
              <LongitudeDegrees>-4.04514779336750507354736328125</LongitudeDegrees>
            </Position>
            <AltitudeMeters>797.79998779296875</AltitudeMeters>
            <DistanceMeters>NAN</DistanceMeters>
          </Trackpoint>
          <Trackpoint>
            <Time>2019-08-01T10:20:37.000Z</Time>
            <Position>
              <LatitudeDegrees>40.4869374074041843414306640625</LatitudeDegrees>
              <LongitudeDegrees>-4.0452199615538120269775390625</LongitudeDegrees>
            </Position>
            <AltitudeMeters>798.20001220703125</AltitudeMeters>
            <DistanceMeters>NAN</DistanceMeters>
          </Trackpoint>
          <Trackpoint>
            <Time>2019-08-01T10:20:38.000Z</Time>
            <Position>
              <LatitudeDegrees>40.4869615472853183746337890625</LatitudeDegrees>
              <LongitudeDegrees>-4.045293219387531280517578125</LongitudeDegrees>
            </Position>
            <AltitudeMeters>798.4000244140625</AltitudeMeters>
            <DistanceMeters>NAN</DistanceMeters>
          </Trackpoint>
          <Trackpoint>
            <Time>2019-08-01T10:20:39.000Z</Time>
            <Position>
              <LatitudeDegrees>40.4869853518903255462646484375</LatitudeDegrees>
              <LongitudeDegrees>-4.04536739923059940338134765625</LongitudeDegrees>
            </Position>
            <AltitudeMeters>798.5999755859375</AltitudeMeters>
            <DistanceMeters>NAN</DistanceMeters>
          </Trackpoint>
          <Trackpoint>
            <Time>2019-08-01T10:20:40.000Z</Time>
            <Position>
              <LatitudeDegrees>40.48700907267630100250244140625</LatitudeDegrees>
              <LongitudeDegrees>-4.0454425849020481109619140625</LongitudeDegrees>
            </Position>
            <AltitudeMeters>798.5999755859375</AltitudeMeters>
            <DistanceMeters>NAN</DistanceMeters>
          </Trackpoint>
          <Trackpoint>
            <Time>2019-08-01T10:20:41.000Z</Time>
            <Position>
              <LatitudeDegrees>40.48700907267630100250244140625</LatitudeDegrees>
              <LongitudeDegrees>-4.0454425849020481109619140625</LongitudeDegrees>
            </Position>
            <AltitudeMeters>798.79998779296875</AltitudeMeters>
            <DistanceMeters>NAN</DistanceMeters>
          </Trackpoint>
          <Trackpoint>
            <Time>2019-08-01T10:20:42.000Z</Time>
            <Position>
              <LatitudeDegrees>40.4870591126382350921630859375</LatitudeDegrees>
              <LongitudeDegrees>-4.045594297349452972412109375</LongitudeDegrees>
            </Position>
            <AltitudeMeters>798.79998779296875</AltitudeMeters>
            <DistanceMeters>NAN</DistanceMeters>
          </Trackpoint>
          <Trackpoint>
            <Time>2019-08-01T10:20:43.000Z</Time>
            <Position>
              <LatitudeDegrees>40.487084425985813140869140625</LatitudeDegrees>
              <LongitudeDegrees>-4.04567115940153598785400390625</LongitudeDegrees>
            </Position>
            <AltitudeMeters>798.79998779296875</AltitudeMeters>
            <DistanceMeters>NAN</DistanceMeters>
          </Trackpoint>
          <Trackpoint>
            <Time>2019-08-01T10:20:44.000Z</Time>
            <Position>
              <LatitudeDegrees>40.4871094040572643280029296875</LatitudeDegrees>
              <LongitudeDegrees>-4.04574810527265071868896484375</LongitudeDegrees>
            </Position>
            <AltitudeMeters>798.79998779296875</AltitudeMeters>
            <DistanceMeters>NAN</DistanceMeters>
          </Trackpoint>
          <Trackpoint>
            <Time>2019-08-01T10:20:45.000Z</Time>
            <Position>
              <LatitudeDegrees>40.48713463358581066131591796875</LatitudeDegrees>
              <LongitudeDegrees>-4.0458247996866703033447265625</LongitudeDegrees>
            </Position>
            <AltitudeMeters>798.79998779296875</AltitudeMeters>
            <DistanceMeters>NAN</DistanceMeters>
          </Trackpoint>
          <Trackpoint>
            <Time>2019-08-01T10:20:46.000Z</Time>
            <Position>
              <LatitudeDegrees>40.4871580190956592559814453125</LatitudeDegrees>
              <LongitudeDegrees>-4.04590107500553131103515625</LongitudeDegrees>
            </Position>
            <AltitudeMeters>799</AltitudeMeters>
            <DistanceMeters>NAN</DistanceMeters>
          </Trackpoint>
          <Trackpoint>
            <Time>2019-08-01T10:20:47.000Z</Time>
            <Position>
              <LatitudeDegrees>40.48718132078647613525390625</LatitudeDegrees>
              <LongitudeDegrees>-4.0459766797721385955810546875</LongitudeDegrees>
            </Position>
            <AltitudeMeters>799</AltitudeMeters>
            <DistanceMeters>NAN</DistanceMeters>
          </Trackpoint>
          <Trackpoint>
            <Time>2019-08-01T10:20:48.000Z</Time>
            <Position>
              <LatitudeDegrees>40.48720537684857845306396484375</LatitudeDegrees>
              <LongitudeDegrees>-4.04605002142488956451416015625</LongitudeDegrees>
            </Position>
            <AltitudeMeters>799</AltitudeMeters>
            <DistanceMeters>NAN</DistanceMeters>
          </Trackpoint>
          <Trackpoint>
            <Time>2019-08-01T10:20:49.000Z</Time>
            <Position>
              <LatitudeDegrees>40.487228929996490478515625</LatitudeDegrees>
              <LongitudeDegrees>-4.046123027801513671875</LongitudeDegrees>
            </Position>
            <AltitudeMeters>799</AltitudeMeters>
            <DistanceMeters>NAN</DistanceMeters>
          </Trackpoint>
          <Trackpoint>
            <Time>2019-08-01T10:20:50.000Z</Time>
            <Position>
              <LatitudeDegrees>40.48725281842052936553955078125</LatitudeDegrees>
              <LongitudeDegrees>-4.04619284905493259429931640625</LongitudeDegrees>
            </Position>
            <AltitudeMeters>799.20001220703125</AltitudeMeters>
            <DistanceMeters>NAN</DistanceMeters>
          </Trackpoint>
          <Trackpoint>
            <Time>2019-08-01T10:20:51.000Z</Time>
            <Position>
              <LatitudeDegrees>40.48725281842052936553955078125</LatitudeDegrees>
              <LongitudeDegrees>-4.04619284905493259429931640625</LongitudeDegrees>
            </Position>
            <AltitudeMeters>799.20001220703125</AltitudeMeters>
            <DistanceMeters>NAN</DistanceMeters>
          </Trackpoint>
          <Trackpoint>
            <Time>2019-08-01T10:20:52.000Z</Time>
            <Position>
              <LatitudeDegrees>40.4872988350689411163330078125</LatitudeDegrees>
              <LongitudeDegrees>-4.0463282167911529541015625</LongitudeDegrees>
            </Position>
            <AltitudeMeters>799.20001220703125</AltitudeMeters>
            <DistanceMeters>NAN</DistanceMeters>
          </Trackpoint>
          <Trackpoint>
            <Time>2019-08-01T10:20:53.000Z</Time>
            <Position>
              <LatitudeDegrees>40.48732188530266284942626953125</LatitudeDegrees>
              <LongitudeDegrees>-4.04639267362654209136962890625</LongitudeDegrees>
            </Position>
            <AltitudeMeters>799.4000244140625</AltitudeMeters>
            <DistanceMeters>NAN</DistanceMeters>
          </Trackpoint>
          <Trackpoint>
            <Time>2019-08-01T10:20:54.000Z</Time>
            <Position>
              <LatitudeDegrees>40.48734493553638458251953125</LatitudeDegrees>
              <LongitudeDegrees>-4.04645805247128009796142578125</LongitudeDegrees>
            </Position>
            <AltitudeMeters>799.4000244140625</AltitudeMeters>
            <DistanceMeters>NAN</DistanceMeters>
          </Trackpoint>
          <Trackpoint>
            <Time>2019-08-01T10:20:55.000Z</Time>
            <Position>
              <LatitudeDegrees>40.48737100325524806976318359375</LatitudeDegrees>
              <LongitudeDegrees>-4.0465208329260349273681640625</LongitudeDegrees>
            </Position>
            <AltitudeMeters>799.5999755859375</AltitudeMeters>
            <DistanceMeters>NAN</DistanceMeters>
          </Trackpoint>
          <Trackpoint>
            <Time>2019-08-01T10:20:56.000Z</Time>
            <Position>
              <LatitudeDegrees>40.487397573888301849365234375</LatitudeDegrees>
              <LongitudeDegrees>-4.04658277519047260284423828125</LongitudeDegrees>
            </Position>
            <AltitudeMeters>799.79998779296875</AltitudeMeters>
            <DistanceMeters>NAN</DistanceMeters>
          </Trackpoint>
          <Trackpoint>
            <Time>2019-08-01T10:20:57.000Z</Time>
            <Position>
              <LatitudeDegrees>40.487397573888301849365234375</LatitudeDegrees>
              <LongitudeDegrees>-4.04658277519047260284423828125</LongitudeDegrees>
            </Position>
            <AltitudeMeters>800</AltitudeMeters>
            <DistanceMeters>NAN</DistanceMeters>
          </Trackpoint>
          <Trackpoint>
            <Time>2019-08-01T10:20:58.000Z</Time>
            <Position>
              <LatitudeDegrees>40.487454570829868316650390625</LatitudeDegrees>
              <LongitudeDegrees>-4.04670313932001590728759765625</LongitudeDegrees>
            </Position>
            <AltitudeMeters>800.20001220703125</AltitudeMeters>
            <DistanceMeters>NAN</DistanceMeters>
          </Trackpoint>
          <Trackpoint>
            <Time>2019-08-01T10:20:59.000Z</Time>
            <Position>
              <LatitudeDegrees>40.487484745681285858154296875</LatitudeDegrees>
              <LongitudeDegrees>-4.046762399375438690185546875</LongitudeDegrees>
            </Position>
            <AltitudeMeters>800.5999755859375</AltitudeMeters>
            <DistanceMeters>NAN</DistanceMeters>
          </Trackpoint>
          <Trackpoint>
            <Time>2019-08-01T10:21:00.000Z</Time>
            <Position>
              <LatitudeDegrees>40.4875154234468936920166015625</LatitudeDegrees>
              <LongitudeDegrees>-4.046820737421512603759765625</LongitudeDegrees>
            </Position>
            <AltitudeMeters>801</AltitudeMeters>
            <DistanceMeters>NAN</DistanceMeters>
          </Trackpoint>
          <Trackpoint>
            <Time>2019-08-01T10:21:01.000Z</Time>
            <Position>
              <LatitudeDegrees>40.48754702322185039520263671875</LatitudeDegrees>
              <LongitudeDegrees>-4.0468780696392059326171875</LongitudeDegrees>
            </Position>
            <AltitudeMeters>801.4000244140625</AltitudeMeters>
            <DistanceMeters>NAN</DistanceMeters>
          </Trackpoint>
          <Trackpoint>
            <Time>2019-08-01T10:21:02.000Z</Time>
            <Position>
              <LatitudeDegrees>40.48758029937744140625</LatitudeDegrees>
              <LongitudeDegrees>-4.04693464748561382293701171875</LongitudeDegrees>
            </Position>
            <AltitudeMeters>801.79998779296875</AltitudeMeters>
            <DistanceMeters>NAN</DistanceMeters>
          </Trackpoint>
          <Trackpoint>
            <Time>2019-08-01T10:21:03.000Z</Time>
            <Position>
              <LatitudeDegrees>40.48758029937744140625</LatitudeDegrees>
              <LongitudeDegrees>-4.04693464748561382293701171875</LongitudeDegrees>
            </Position>
            <AltitudeMeters>802.20001220703125</AltitudeMeters>
            <DistanceMeters>NAN</DistanceMeters>
          </Trackpoint>
          <Trackpoint>
            <Time>2019-08-01T10:21:04.000Z</Time>
            <Position>
              <LatitudeDegrees>40.48765062354505062103271484375</LatitudeDegrees>
              <LongitudeDegrees>-4.04704562388360500335693359375</LongitudeDegrees>
            </Position>
            <AltitudeMeters>802.5999755859375</AltitudeMeters>
            <DistanceMeters>NAN</DistanceMeters>
          </Trackpoint>
          <Trackpoint>
            <Time>2019-08-01T10:21:05.000Z</Time>
            <Position>
              <LatitudeDegrees>40.4876884259283542633056640625</LatitudeDegrees>
              <LongitudeDegrees>-4.047097675502300262451171875</LongitudeDegrees>
            </Position>
            <AltitudeMeters>803</AltitudeMeters>
            <DistanceMeters>NAN</DistanceMeters>
          </Trackpoint>
          <Trackpoint>
            <Time>2019-08-01T10:21:06.000Z</Time>
            <Position>
              <LatitudeDegrees>40.48772715032100677490234375</LatitudeDegrees>
              <LongitudeDegrees>-4.04714955948293209075927734375</LongitudeDegrees>
            </Position>
            <AltitudeMeters>803.20001220703125</AltitudeMeters>
            <DistanceMeters>NAN</DistanceMeters>
          </Trackpoint>
          <Trackpoint>
            <Time>2019-08-01T10:21:07.000Z</Time>
            <Position>
              <LatitudeDegrees>40.487767718732357025146484375</LatitudeDegrees>
              <LongitudeDegrees>-4.04719985090196132659912109375</LongitudeDegrees>
            </Position>
            <AltitudeMeters>803.5999755859375</AltitudeMeters>
            <DistanceMeters>NAN</DistanceMeters>
          </Trackpoint>
          <Trackpoint>
            <Time>2019-08-01T10:21:08.000Z</Time>
            <Position>
              <LatitudeDegrees>40.48780904151499271392822265625</LatitudeDegrees>
              <LongitudeDegrees>-4.04724947176873683929443359375</LongitudeDegrees>
            </Position>
            <AltitudeMeters>803.5999755859375</AltitudeMeters>
            <DistanceMeters>NAN</DistanceMeters>
          </Trackpoint>
          <Trackpoint>
            <Time>2019-08-01T10:21:09.000Z</Time>
            <Position>
              <LatitudeDegrees>40.48785195685923099517822265625</LatitudeDegrees>
              <LongitudeDegrees>-4.04729892499744892120361328125</LongitudeDegrees>
            </Position>
            <AltitudeMeters>804</AltitudeMeters>
            <DistanceMeters>NAN</DistanceMeters>
          </Trackpoint>
          <Trackpoint>
            <Time>2019-08-01T10:21:10.000Z</Time>
            <Position>
              <LatitudeDegrees>40.4878959618508815765380859375</LatitudeDegrees>
              <LongitudeDegrees>-4.047348797321319580078125</LongitudeDegrees>
            </Position>
            <AltitudeMeters>804.20001220703125</AltitudeMeters>
            <DistanceMeters>NAN</DistanceMeters>
          </Trackpoint>
          <Trackpoint>
            <Time>2019-08-01T10:21:11.000Z</Time>
            <Position>
              <LatitudeDegrees>40.487942062318325042724609375</LatitudeDegrees>
              <LongitudeDegrees>-4.0473985858261585235595703125</LongitudeDegrees>
            </Position>
            <AltitudeMeters>804.4000244140625</AltitudeMeters>
            <DistanceMeters>NAN</DistanceMeters>
          </Trackpoint>
          <Trackpoint>
            <Time>2019-08-01T10:21:12.000Z</Time>
            <Position>
              <LatitudeDegrees>40.4879908449947834014892578125</LatitudeDegrees>
              <LongitudeDegrees>-4.04744896106421947479248046875</LongitudeDegrees>
            </Position>
            <AltitudeMeters>804.5999755859375</AltitudeMeters>
            <DistanceMeters>NAN</DistanceMeters>
          </Trackpoint>
          <Trackpoint>
            <Time>2019-08-01T10:21:13.000Z</Time>
            <Position>
              <LatitudeDegrees>40.48804230988025665283203125</LatitudeDegrees>
              <LongitudeDegrees>-4.0474981628358364105224609375</LongitudeDegrees>
            </Position>
            <AltitudeMeters>805</AltitudeMeters>
            <DistanceMeters>NAN</DistanceMeters>
          </Trackpoint>
          <Trackpoint>
            <Time>2019-08-01T10:21:14.000Z</Time>
            <Position>
              <LatitudeDegrees>40.4880966246128082275390625</LatitudeDegrees>
              <LongitudeDegrees>-4.04754401184618473052978515625</LongitudeDegrees>
            </Position>
            <AltitudeMeters>805.20001220703125</AltitudeMeters>
            <DistanceMeters>NAN</DistanceMeters>
          </Trackpoint>
          <Trackpoint>
            <Time>2019-08-01T10:21:15.000Z</Time>
            <Position>
              <LatitudeDegrees>40.48815320245921611785888671875</LatitudeDegrees>
              <LongitudeDegrees>-4.0475870110094547271728515625</LongitudeDegrees>
            </Position>
            <AltitudeMeters>805.4000244140625</AltitudeMeters>
            <DistanceMeters>NAN</DistanceMeters>
          </Trackpoint>
          <Trackpoint>
            <Time>2019-08-01T10:21:16.000Z</Time>
            <Position>
              <LatitudeDegrees>40.48821170814335346221923828125</LatitudeDegrees>
              <LongitudeDegrees>-4.04762900434434413909912109375</LongitudeDegrees>
            </Position>
            <AltitudeMeters>805.4000244140625</AltitudeMeters>
            <DistanceMeters>NAN</DistanceMeters>
          </Trackpoint>
          <Trackpoint>
            <Time>2019-08-01T10:21:17.000Z</Time>
            <Position>
              <LatitudeDegrees>40.48827163875102996826171875</LatitudeDegrees>
              <LongitudeDegrees>-4.04766974039375782012939453125</LongitudeDegrees>
            </Position>
            <AltitudeMeters>805.5999755859375</AltitudeMeters>
            <DistanceMeters>NAN</DistanceMeters>
          </Trackpoint>
          <Trackpoint>
            <Time>2019-08-01T10:21:18.000Z</Time>
            <Position>
              <LatitudeDegrees>40.4883331619203090667724609375</LatitudeDegrees>
              <LongitudeDegrees>-4.0477100573480129241943359375</LongitudeDegrees>
            </Position>
            <AltitudeMeters>805.5999755859375</AltitudeMeters>
            <DistanceMeters>NAN</DistanceMeters>
          </Trackpoint>
          <Trackpoint>
            <Time>2019-08-01T10:21:19.000Z</Time>
            <Position>
              <LatitudeDegrees>40.48839543946087360382080078125</LatitudeDegrees>
              <LongitudeDegrees>-4.0477496199309825897216796875</LongitudeDegrees>
            </Position>
            <AltitudeMeters>805.79998779296875</AltitudeMeters>
            <DistanceMeters>NAN</DistanceMeters>
          </Trackpoint>
          <Trackpoint>
            <Time>2019-08-01T10:21:20.000Z</Time>
            <Position>
              <LatitudeDegrees>40.4884585551917552947998046875</LatitudeDegrees>
              <LongitudeDegrees>-4.0477885119616985321044921875</LongitudeDegrees>
            </Position>
            <AltitudeMeters>805.79998779296875</AltitudeMeters>
            <DistanceMeters>NAN</DistanceMeters>
          </Trackpoint>
          <Trackpoint>
            <Time>2019-08-01T10:21:21.000Z</Time>
            <Position>
              <LatitudeDegrees>40.48852234147489070892333984375</LatitudeDegrees>
              <LongitudeDegrees>-4.047826565802097320556640625</LongitudeDegrees>
            </Position>
            <AltitudeMeters>805.79998779296875</AltitudeMeters>
            <DistanceMeters>NAN</DistanceMeters>
          </Trackpoint>
          <Trackpoint>
            <Time>2019-08-01T10:21:22.000Z</Time>
            <Position>
              <LatitudeDegrees>40.4885869659483432769775390625</LatitudeDegrees>
              <LongitudeDegrees>-4.04786369763314723968505859375</LongitudeDegrees>
            </Position>
            <AltitudeMeters>806</AltitudeMeters>
            <DistanceMeters>NAN</DistanceMeters>
          </Trackpoint>
          <Trackpoint>
            <Time>2019-08-01T10:21:23.000Z</Time>
            <Position>
              <LatitudeDegrees>40.48865125514566898345947265625</LatitudeDegrees>
              <LongitudeDegrees>-4.04790200293064117431640625</LongitudeDegrees>
            </Position>
            <AltitudeMeters>806</AltitudeMeters>
            <DistanceMeters>NAN</DistanceMeters>
          </Trackpoint>
          <Trackpoint>
            <Time>2019-08-01T10:21:24.000Z</Time>
            <Position>
              <LatitudeDegrees>40.48871596343815326690673828125</LatitudeDegrees>
              <LongitudeDegrees>-4.04794164933264255523681640625</LongitudeDegrees>
            </Position>
            <AltitudeMeters>806</AltitudeMeters>
            <DistanceMeters>NAN</DistanceMeters>
          </Trackpoint>
          <Trackpoint>
            <Time>2019-08-01T10:21:25.000Z</Time>
            <Position>
              <LatitudeDegrees>40.4887805879116058349609375</LatitudeDegrees>
              <LongitudeDegrees>-4.04798238538205623626708984375</LongitudeDegrees>
            </Position>
            <AltitudeMeters>806</AltitudeMeters>
            <DistanceMeters>NAN</DistanceMeters>
          </Trackpoint>
          <Trackpoint>
            <Time>2019-08-01T10:21:26.000Z</Time>
            <Position>
              <LatitudeDegrees>40.4888451285660266876220703125</LatitudeDegrees>
              <LongitudeDegrees>-4.04802295379340648651123046875</LongitudeDegrees>
            </Position>
            <AltitudeMeters>806</AltitudeMeters>
            <DistanceMeters>NAN</DistanceMeters>
          </Trackpoint>
          <Trackpoint>
            <Time>2019-08-01T10:21:27.000Z</Time>
            <Position>
              <LatitudeDegrees>40.4889108426868915557861328125</LatitudeDegrees>
              <LongitudeDegrees>-4.0480624325573444366455078125</LongitudeDegrees>
            </Position>
            <AltitudeMeters>806</AltitudeMeters>
            <DistanceMeters>NAN</DistanceMeters>
          </Trackpoint>
          <Trackpoint>
            <Time>2019-08-01T10:21:28.000Z</Time>
            <Position>
              <LatitudeDegrees>40.4889775626361370086669921875</LatitudeDegrees>
              <LongitudeDegrees>-4.04810174368321895599365234375</LongitudeDegrees>
            </Position>
            <AltitudeMeters>806</AltitudeMeters>
            <DistanceMeters>NAN</DistanceMeters>
          </Trackpoint>
          <Trackpoint>
            <Time>2019-08-01T10:21:29.000Z</Time>
            <Position>
              <LatitudeDegrees>40.48904403112828731536865234375</LatitudeDegrees>
              <LongitudeDegrees>-4.04814206063747406005859375</LongitudeDegrees>
            </Position>
            <AltitudeMeters>806</AltitudeMeters>
            <DistanceMeters>NAN</DistanceMeters>
          </Trackpoint>
          <Trackpoint>
            <Time>2019-08-01T10:21:30.000Z</Time>
            <Position>
              <LatitudeDegrees>40.48911041580140590667724609375</LatitudeDegrees>
              <LongitudeDegrees>-4.04818137176334857940673828125</LongitudeDegrees>
            </Position>
            <AltitudeMeters>806</AltitudeMeters>
            <DistanceMeters>NAN</DistanceMeters>
          </Trackpoint>
          <Trackpoint>
            <Time>2019-08-01T10:21:31.000Z</Time>
            <Position>
              <LatitudeDegrees>40.48917696811258792877197265625</LatitudeDegrees>
              <LongitudeDegrees>-4.0482193417847156524658203125</LongitudeDegrees>
            </Position>
            <AltitudeMeters>806</AltitudeMeters>
            <DistanceMeters>NAN</DistanceMeters>
          </Trackpoint>
          <Trackpoint>
            <Time>2019-08-01T10:21:32.000Z</Time>
            <Position>
              <LatitudeDegrees>40.48924335278570652008056640625</LatitudeDegrees>
              <LongitudeDegrees>-4.04825697652995586395263671875</LongitudeDegrees>
            </Position>
            <AltitudeMeters>806</AltitudeMeters>
            <DistanceMeters>NAN</DistanceMeters>
          </Trackpoint>
          <Trackpoint>
            <Time>2019-08-01T10:21:33.000Z</Time>
            <Position>
              <LatitudeDegrees>40.48930923454463481903076171875</LatitudeDegrees>
              <LongitudeDegrees>-4.0482954494655132293701171875</LongitudeDegrees>
            </Position>
            <AltitudeMeters>806.20001220703125</AltitudeMeters>
            <DistanceMeters>NAN</DistanceMeters>
          </Trackpoint>
          <Trackpoint>
            <Time>2019-08-01T10:21:34.000Z</Time>
            <Position>
              <LatitudeDegrees>40.48937444575130939483642578125</LatitudeDegrees>
              <LongitudeDegrees>-4.0483353473246097564697265625</LongitudeDegrees>
            </Position>
            <AltitudeMeters>806.20001220703125</AltitudeMeters>
            <DistanceMeters>NAN</DistanceMeters>
          </Trackpoint>
          <Trackpoint>
            <Time>2019-08-01T10:21:35.000Z</Time>
            <Position>
              <LatitudeDegrees>40.48943999223411083221435546875</LatitudeDegrees>
              <LongitudeDegrees>-4.04837549664080142974853515625</LongitudeDegrees>
            </Position>
            <AltitudeMeters>806.20001220703125</AltitudeMeters>
            <DistanceMeters>NAN</DistanceMeters>
          </Trackpoint>
          <Trackpoint>
            <Time>2019-08-01T10:21:36.000Z</Time>
            <Position>
              <LatitudeDegrees>40.48950545489788055419921875</LatitudeDegrees>
              <LongitudeDegrees>-4.0484161488711833953857421875</LongitudeDegrees>
            </Position>
            <AltitudeMeters>806.20001220703125</AltitudeMeters>
            <DistanceMeters>NAN</DistanceMeters>
          </Trackpoint>
          <Trackpoint>
            <Time>2019-08-01T10:21:37.000Z</Time>
            <Position>
              <LatitudeDegrees>40.48957091756165027618408203125</LatitudeDegrees>
              <LongitudeDegrees>-4.04845646582543849945068359375</LongitudeDegrees>
            </Position>
            <AltitudeMeters>806.20001220703125</AltitudeMeters>
            <DistanceMeters>NAN</DistanceMeters>
          </Trackpoint>
          <Trackpoint>
            <Time>2019-08-01T10:21:38.000Z</Time>
            <Position>
              <LatitudeDegrees>40.48963696695864200592041015625</LatitudeDegrees>
              <LongitudeDegrees>-4.04849611222743988037109375</LongitudeDegrees>
            </Position>
            <AltitudeMeters>806.4000244140625</AltitudeMeters>
            <DistanceMeters>NAN</DistanceMeters>
          </Trackpoint>
          <Trackpoint>
            <Time>2019-08-01T10:21:39.000Z</Time>
            <Position>
              <LatitudeDegrees>40.48970368690788745880126953125</LatitudeDegrees>
              <LongitudeDegrees>-4.04853542335331439971923828125</LongitudeDegrees>
            </Position>
            <AltitudeMeters>806.4000244140625</AltitudeMeters>
            <DistanceMeters>NAN</DistanceMeters>
          </Trackpoint>
          <Trackpoint>
            <Time>2019-08-01T10:21:40.000Z</Time>
            <Position>
              <LatitudeDegrees>40.48977007158100605010986328125</LatitudeDegrees>
              <LongitudeDegrees>-4.04857599176466464996337890625</LongitudeDegrees>
            </Position>
            <AltitudeMeters>806.4000244140625</AltitudeMeters>
            <DistanceMeters>NAN</DistanceMeters>
          </Trackpoint>
          <Trackpoint>
            <Time>2019-08-01T10:21:41.000Z</Time>
            <Position>
              <LatitudeDegrees>40.48983662389218807220458984375</LatitudeDegrees>
              <LongitudeDegrees>-4.04861823655664920806884765625</LongitudeDegrees>
            </Position>
            <AltitudeMeters>806.5999755859375</AltitudeMeters>
            <DistanceMeters>NAN</DistanceMeters>
          </Trackpoint>
          <Trackpoint>
            <Time>2019-08-01T10:21:42.000Z</Time>
            <Position>
              <LatitudeDegrees>40.48990376293659210205078125</LatitudeDegrees>
              <LongitudeDegrees>-4.0486598946154117584228515625</LongitudeDegrees>
            </Position>
            <AltitudeMeters>806.79998779296875</AltitudeMeters>
            <DistanceMeters>NAN</DistanceMeters>
          </Trackpoint>
          <Trackpoint>
            <Time>2019-08-01T10:21:43.000Z</Time>
            <Position>
              <LatitudeDegrees>40.48997106961905956268310546875</LatitudeDegrees>
              <LongitudeDegrees>-4.04870155267417430877685546875</LongitudeDegrees>
            </Position>
            <AltitudeMeters>807</AltitudeMeters>
            <DistanceMeters>NAN</DistanceMeters>
          </Trackpoint>
          <Trackpoint>
            <Time>2019-08-01T10:21:44.000Z</Time>
            <Position>
              <LatitudeDegrees>40.4900387115776538848876953125</LatitudeDegrees>
              <LongitudeDegrees>-4.04874312691390514373779296875</LongitudeDegrees>
            </Position>
            <AltitudeMeters>807.20001220703125</AltitudeMeters>
            <DistanceMeters>NAN</DistanceMeters>
          </Trackpoint>
          <Trackpoint>
            <Time>2019-08-01T10:21:45.000Z</Time>
            <Position>
              <LatitudeDegrees>40.49010694026947021484375</LatitudeDegrees>
              <LongitudeDegrees>-4.04878403060138225555419921875</LongitudeDegrees>
            </Position>
            <AltitudeMeters>807.4000244140625</AltitudeMeters>
            <DistanceMeters>NAN</DistanceMeters>
          </Trackpoint>
          <Trackpoint>
            <Time>2019-08-01T10:21:46.000Z</Time>
            <Position>
              <LatitudeDegrees>40.4901751689612865447998046875</LatitudeDegrees>
              <LongitudeDegrees>-4.0488255210220813751220703125</LongitudeDegrees>
            </Position>
            <AltitudeMeters>807.4000244140625</AltitudeMeters>
            <DistanceMeters>NAN</DistanceMeters>
          </Trackpoint>
          <Trackpoint>
            <Time>2019-08-01T10:21:47.000Z</Time>
            <Position>
              <LatitudeDegrees>40.49024431966245174407958984375</LatitudeDegrees>
              <LongitudeDegrees>-4.0488674305379390716552734375</LongitudeDegrees>
            </Position>
            <AltitudeMeters>807.4000244140625</AltitudeMeters>
            <DistanceMeters>NAN</DistanceMeters>
          </Trackpoint>
          <Trackpoint>
            <Time>2019-08-01T10:21:48.000Z</Time>
            <Position>
              <LatitudeDegrees>40.49031355418264865875244140625</LatitudeDegrees>
              <LongitudeDegrees>-4.04890975914895534515380859375</LongitudeDegrees>
            </Position>
            <AltitudeMeters>807.5999755859375</AltitudeMeters>
            <DistanceMeters>NAN</DistanceMeters>
          </Trackpoint>
          <Trackpoint>
            <Time>2019-08-01T10:21:49.000Z</Time>
            <Position>
              <LatitudeDegrees>40.49038295634090900421142578125</LatitudeDegrees>
              <LongitudeDegrees>-4.04895200394093990325927734375</LongitudeDegrees>
            </Position>
            <AltitudeMeters>807.5999755859375</AltitudeMeters>
            <DistanceMeters>NAN</DistanceMeters>
          </Trackpoint>
          <Trackpoint>
            <Time>2019-08-01T10:21:50.000Z</Time>
            <Position>
              <LatitudeDegrees>40.49045252613723278045654296875</LatitudeDegrees>
              <LongitudeDegrees>-4.04899491928517818450927734375</LongitudeDegrees>
            </Position>
            <AltitudeMeters>807.79998779296875</AltitudeMeters>
            <DistanceMeters>NAN</DistanceMeters>
          </Trackpoint>
          <Trackpoint>
            <Time>2019-08-01T10:21:51.000Z</Time>
            <Position>
              <LatitudeDegrees>40.4905218444764614105224609375</LatitudeDegrees>
              <LongitudeDegrees>-4.04903833754360675811767578125</LongitudeDegrees>
            </Position>
            <AltitudeMeters>807.79998779296875</AltitudeMeters>
            <DistanceMeters>NAN</DistanceMeters>
          </Trackpoint>
          <Trackpoint>
            <Time>2019-08-01T10:21:52.000Z</Time>
            <Position>
              <LatitudeDegrees>40.4905912466347217559814453125</LatitudeDegrees>
              <LongitudeDegrees>-4.04908209107816219329833984375</LongitudeDegrees>
            </Position>
            <AltitudeMeters>807.79998779296875</AltitudeMeters>
            <DistanceMeters>NAN</DistanceMeters>
          </Trackpoint>
          <Trackpoint>
            <Time>2019-08-01T10:21:53.000Z</Time>
            <Position>
              <LatitudeDegrees>40.4906616546213626861572265625</LatitudeDegrees>
              <LongitudeDegrees>-4.04912467114627361297607421875</LongitudeDegrees>
            </Position>
            <AltitudeMeters>807.79998779296875</AltitudeMeters>
            <DistanceMeters>NAN</DistanceMeters>
          </Trackpoint>
          <Trackpoint>
            <Time>2019-08-01T10:21:54.000Z</Time>
            <Position>
              <LatitudeDegrees>40.49073214642703533172607421875</LatitudeDegrees>
              <LongitudeDegrees>-4.04916725121438503265380859375</LongitudeDegrees>
            </Position>
            <AltitudeMeters>807.79998779296875</AltitudeMeters>
            <DistanceMeters>NAN</DistanceMeters>
          </Trackpoint>
          <Trackpoint>
            <Time>2019-08-01T10:21:55.000Z</Time>
            <Position>
              <LatitudeDegrees>40.4908028058707714080810546875</LatitudeDegrees>
              <LongitudeDegrees>-4.04921050183475017547607421875</LongitudeDegrees>
            </Position>
            <AltitudeMeters>808</AltitudeMeters>
            <DistanceMeters>NAN</DistanceMeters>
          </Trackpoint>
          <Trackpoint>
            <Time>2019-08-01T10:21:56.000Z</Time>
            <Position>
              <LatitudeDegrees>40.49087497405707836151123046875</LatitudeDegrees>
              <LongitudeDegrees>-4.0492543391883373260498046875</LongitudeDegrees>
            </Position>
            <AltitudeMeters>808</AltitudeMeters>
            <DistanceMeters>NAN</DistanceMeters>
          </Trackpoint>
          <Trackpoint>
            <Time>2019-08-01T10:21:57.000Z</Time>
            <Position>
              <LatitudeDegrees>40.49094873480498790740966796875</LatitudeDegrees>
              <LongitudeDegrees>-4.04929817654192447662353515625</LongitudeDegrees>
            </Position>
            <AltitudeMeters>808</AltitudeMeters>
            <DistanceMeters>NAN</DistanceMeters>
          </Trackpoint>
          <Trackpoint>
            <Time>2019-08-01T10:21:58.000Z</Time>
            <Position>
              <LatitudeDegrees>40.491023249924182891845703125</LatitudeDegrees>
              <LongitudeDegrees>-4.0493430197238922119140625</LongitudeDegrees>
            </Position>
            <AltitudeMeters>808</AltitudeMeters>
            <DistanceMeters>NAN</DistanceMeters>
          </Trackpoint>
          <Trackpoint>
            <Time>2019-08-01T10:21:59.000Z</Time>
            <Position>
              <LatitudeDegrees>40.49109810031950473785400390625</LatitudeDegrees>
              <LongitudeDegrees>-4.04938719235360622406005859375</LongitudeDegrees>
            </Position>
            <AltitudeMeters>808</AltitudeMeters>
            <DistanceMeters>NAN</DistanceMeters>
          </Trackpoint>
          <Trackpoint>
            <Time>2019-08-01T10:22:00.000Z</Time>
            <Position>
              <LatitudeDegrees>40.49117320217192173004150390625</LatitudeDegrees>
              <LongitudeDegrees>-4.04943077825009822845458984375</LongitudeDegrees>
            </Position>
            <AltitudeMeters>808</AltitudeMeters>
            <DistanceMeters>NAN</DistanceMeters>
          </Trackpoint>
          <Trackpoint>
            <Time>2019-08-01T10:22:01.000Z</Time>
            <Position>
              <LatitudeDegrees>40.4912483878433704376220703125</LatitudeDegrees>
              <LongitudeDegrees>-4.04947503469884395599365234375</LongitudeDegrees>
            </Position>
            <AltitudeMeters>807.79998779296875</AltitudeMeters>
            <DistanceMeters>NAN</DistanceMeters>
          </Trackpoint>
          <Trackpoint>
            <Time>2019-08-01T10:22:02.000Z</Time>
            <Position>
              <LatitudeDegrees>40.49132357351481914520263671875</LatitudeDegrees>
              <LongitudeDegrees>-4.04951962642371654510498046875</LongitudeDegrees>
            </Position>
            <AltitudeMeters>807.79998779296875</AltitudeMeters>
            <DistanceMeters>NAN</DistanceMeters>
          </Trackpoint>
          <Trackpoint>
            <Time>2019-08-01T10:22:03.000Z</Time>
            <Position>
              <LatitudeDegrees>40.4913992621004581451416015625</LatitudeDegrees>
              <LongitudeDegrees>-4.0495637990534305572509765625</LongitudeDegrees>
            </Position>
            <AltitudeMeters>807.79998779296875</AltitudeMeters>
            <DistanceMeters>NAN</DistanceMeters>
          </Trackpoint>
          <Trackpoint>
            <Time>2019-08-01T10:22:04.000Z</Time>
            <Position>
              <LatitudeDegrees>40.49147645942866802215576171875</LatitudeDegrees>
              <LongitudeDegrees>-4.04960646294057369232177734375</LongitudeDegrees>
            </Position>
            <AltitudeMeters>808</AltitudeMeters>
            <DistanceMeters>NAN</DistanceMeters>
          </Trackpoint>
          <Trackpoint>
            <Time>2019-08-01T10:22:05.000Z</Time>
            <Position>
              <LatitudeDegrees>40.49155466258525848388671875</LatitudeDegrees>
              <LongitudeDegrees>-4.04964703135192394256591796875</LongitudeDegrees>
            </Position>
            <AltitudeMeters>807.79998779296875</AltitudeMeters>
            <DistanceMeters>NAN</DistanceMeters>
          </Trackpoint>
          <Trackpoint>
            <Time>2019-08-01T10:22:06.000Z</Time>
            <Position>
              <LatitudeDegrees>40.49155466258525848388671875</LatitudeDegrees>
              <LongitudeDegrees>-4.04964703135192394256591796875</LongitudeDegrees>
            </Position>
            <AltitudeMeters>807.79998779296875</AltitudeMeters>
            <DistanceMeters>NAN</DistanceMeters>
          </Trackpoint>
          <Trackpoint>
            <Time>2019-08-01T10:22:07.000Z</Time>
            <Position>
              <LatitudeDegrees>40.49171425402164459228515625</LatitudeDegrees>
              <LongitudeDegrees>-4.04972724616527557373046875</LongitudeDegrees>
            </Position>
            <AltitudeMeters>807.79998779296875</AltitudeMeters>
            <DistanceMeters>NAN</DistanceMeters>
          </Trackpoint>
          <Trackpoint>
            <Time>2019-08-01T10:22:08.000Z</Time>
            <Position>
              <LatitudeDegrees>40.4917958937585353851318359375</LatitudeDegrees>
              <LongitudeDegrees>-4.049765132367610931396484375</LongitudeDegrees>
            </Position>
            <AltitudeMeters>807.79998779296875</AltitudeMeters>
            <DistanceMeters>NAN</DistanceMeters>
          </Trackpoint>
          <Trackpoint>
            <Time>2019-08-01T10:22:09.000Z</Time>
            <Position>
              <LatitudeDegrees>40.49187920987606048583984375</LatitudeDegrees>
              <LongitudeDegrees>-4.0498030185699462890625</LongitudeDegrees>
            </Position>
            <AltitudeMeters>807.79998779296875</AltitudeMeters>
            <DistanceMeters>NAN</DistanceMeters>
          </Trackpoint>
          <Trackpoint>
            <Time>2019-08-01T10:22:10.000Z</Time>
            <Position>
              <LatitudeDegrees>40.4919635318219661712646484375</LatitudeDegrees>
              <LongitudeDegrees>-4.04984165914356708526611328125</LongitudeDegrees>
            </Position>
            <AltitudeMeters>807.79998779296875</AltitudeMeters>
            <DistanceMeters>NAN</DistanceMeters>
          </Trackpoint>
          <Trackpoint>
            <Time>2019-08-01T10:22:11.000Z</Time>
            <Position>
              <LatitudeDegrees>40.49204944632947444915771484375</LatitudeDegrees>
              <LongitudeDegrees>-4.04987770132720470428466796875</LongitudeDegrees>
            </Position>
            <AltitudeMeters>807.79998779296875</AltitudeMeters>
            <DistanceMeters>NAN</DistanceMeters>
          </Trackpoint>
          <Trackpoint>
            <Time>2019-08-01T10:22:12.000Z</Time>
            <Position>
              <LatitudeDegrees>40.4921358637511730194091796875</LatitudeDegrees>
              <LongitudeDegrees>-4.04991097748279571533203125</LongitudeDegrees>
            </Position>
            <AltitudeMeters>807.4000244140625</AltitudeMeters>
            <DistanceMeters>NAN</DistanceMeters>
          </Trackpoint>
          <Trackpoint>
            <Time>2019-08-01T10:22:13.000Z</Time>
            <Position>
              <LatitudeDegrees>40.492222867906093597412109375</LatitudeDegrees>
              <LongitudeDegrees>-4.0499413199722766876220703125</LongitudeDegrees>
            </Position>
            <AltitudeMeters>807.20001220703125</AltitudeMeters>
            <DistanceMeters>NAN</DistanceMeters>
          </Trackpoint>
          <Trackpoint>
            <Time>2019-08-01T10:22:14.000Z</Time>
            <Position>
              <LatitudeDegrees>40.49231029115617275238037109375</LatitudeDegrees>
              <LongitudeDegrees>-4.049968309700489044189453125</LongitudeDegrees>
            </Position>
            <AltitudeMeters>807.20001220703125</AltitudeMeters>
            <DistanceMeters>NAN</DistanceMeters>
          </Trackpoint>
          <Trackpoint>
            <Time>2019-08-01T10:22:15.000Z</Time>
            <Position>
              <LatitudeDegrees>40.49231029115617275238037109375</LatitudeDegrees>
              <LongitudeDegrees>-4.049968309700489044189453125</LongitudeDegrees>
            </Position>
            <AltitudeMeters>806.79998779296875</AltitudeMeters>
            <DistanceMeters>NAN</DistanceMeters>
          </Trackpoint>
          <Trackpoint>
            <Time>2019-08-01T10:22:16.000Z</Time>
            <Position>
              <LatitudeDegrees>40.49248513765633106231689453125</LatitudeDegrees>
              <LongitudeDegrees>-4.05002019368112087249755859375</LongitudeDegrees>
            </Position>
            <AltitudeMeters>806.5999755859375</AltitudeMeters>
            <DistanceMeters>NAN</DistanceMeters>
          </Trackpoint>
          <Trackpoint>
            <Time>2019-08-01T10:22:17.000Z</Time>
            <Position>
              <LatitudeDegrees>40.49257013015449047088623046875</LatitudeDegrees>
              <LongitudeDegrees>-4.0500465966761112213134765625</LongitudeDegrees>
            </Position>
            <AltitudeMeters>806.4000244140625</AltitudeMeters>
            <DistanceMeters>NAN</DistanceMeters>
          </Trackpoint>
          <Trackpoint>
            <Time>2019-08-01T10:22:18.000Z</Time>
            <Position>
              <LatitudeDegrees>40.4926555417478084564208984375</LatitudeDegrees>
              <LongitudeDegrees>-4.050070233643054962158203125</LongitudeDegrees>
            </Position>
            <AltitudeMeters>806</AltitudeMeters>
            <DistanceMeters>NAN</DistanceMeters>
          </Trackpoint>
          <Trackpoint>
            <Time>2019-08-01T10:22:19.000Z</Time>
            <Position>
              <LatitudeDegrees>40.4927403666079044342041015625</LatitudeDegrees>
              <LongitudeDegrees>-4.0500932000577449798583984375</LongitudeDegrees>
            </Position>
            <AltitudeMeters>806</AltitudeMeters>
            <DistanceMeters>NAN</DistanceMeters>
          </Trackpoint>
          <Trackpoint>
            <Time>2019-08-01T10:22:20.000Z</Time>
            <Position>
              <LatitudeDegrees>40.49282393418252468109130859375</LatitudeDegrees>
              <LongitudeDegrees>-4.05011692084372043609619140625</LongitudeDegrees>
            </Position>
            <AltitudeMeters>806</AltitudeMeters>
            <DistanceMeters>NAN</DistanceMeters>
          </Trackpoint>
          <Trackpoint>
            <Time>2019-08-01T10:22:21.000Z</Time>
            <Position>
              <LatitudeDegrees>40.49290590919554233551025390625</LatitudeDegrees>
              <LongitudeDegrees>-4.05014164745807647705078125</LongitudeDegrees>
            </Position>
            <AltitudeMeters>806</AltitudeMeters>
            <DistanceMeters>NAN</DistanceMeters>
          </Trackpoint>
          <Trackpoint>
            <Time>2019-08-01T10:22:22.000Z</Time>
            <Position>
              <LatitudeDegrees>40.492987297475337982177734375</LatitudeDegrees>
              <LongitudeDegrees>-4.0501656197011470794677734375</LongitudeDegrees>
            </Position>
            <AltitudeMeters>806</AltitudeMeters>
            <DistanceMeters>NAN</DistanceMeters>
          </Trackpoint>
          <Trackpoint>
            <Time>2019-08-01T10:22:23.000Z</Time>
            <Position>
              <LatitudeDegrees>40.49306742846965789794921875</LatitudeDegrees>
              <LongitudeDegrees>-4.05018950812518596649169921875</LongitudeDegrees>
            </Position>
            <AltitudeMeters>806</AltitudeMeters>
            <DistanceMeters>NAN</DistanceMeters>
          </Trackpoint>
          <Trackpoint>
            <Time>2019-08-01T10:22:24.000Z</Time>
            <Position>
              <LatitudeDegrees>40.493146888911724090576171875</LatitudeDegrees>
              <LongitudeDegrees>-4.050212390720844268798828125</LongitudeDegrees>
            </Position>
            <AltitudeMeters>806</AltitudeMeters>
            <DistanceMeters>NAN</DistanceMeters>
          </Trackpoint>
          <Trackpoint>
            <Time>2019-08-01T10:22:25.000Z</Time>
            <Position>
              <LatitudeDegrees>40.4932251758873462677001953125</LatitudeDegrees>
              <LongitudeDegrees>-4.05023493804037570953369140625</LongitudeDegrees>
            </Position>
            <AltitudeMeters>806</AltitudeMeters>
            <DistanceMeters>NAN</DistanceMeters>
          </Trackpoint>
          <Trackpoint>
            <Time>2019-08-01T10:22:26.000Z</Time>
            <Position>
              <LatitudeDegrees>40.4933022893965244293212890625</LatitudeDegrees>
              <LongitudeDegrees>-4.0502568148076534271240234375</LongitudeDegrees>
            </Position>
            <AltitudeMeters>806</AltitudeMeters>
            <DistanceMeters>NAN</DistanceMeters>
          </Trackpoint>
          <Trackpoint>
            <Time>2019-08-01T10:22:27.000Z</Time>
            <Position>
              <LatitudeDegrees>40.4933777265250682830810546875</LatitudeDegrees>
              <LongitudeDegrees>-4.0502789430320262908935546875</LongitudeDegrees>
            </Position>
            <AltitudeMeters>806</AltitudeMeters>
            <DistanceMeters>NAN</DistanceMeters>
          </Trackpoint>
          <Trackpoint>
            <Time>2019-08-01T10:22:28.000Z</Time>
            <Position>
              <LatitudeDegrees>40.493451990187168121337890625</LatitudeDegrees>
              <LongitudeDegrees>-4.05030149035155773162841796875</LongitudeDegrees>
            </Position>
            <AltitudeMeters>806</AltitudeMeters>
            <DistanceMeters>NAN</DistanceMeters>
          </Trackpoint>
          <Trackpoint>
            <Time>2019-08-01T10:22:29.000Z</Time>
            <Position>
              <LatitudeDegrees>40.49352617003023624420166015625</LatitudeDegrees>
              <LongitudeDegrees>-4.05032311566174030303955078125</LongitudeDegrees>
            </Position>
            <AltitudeMeters>806</AltitudeMeters>
            <DistanceMeters>NAN</DistanceMeters>
          </Trackpoint>
          <Trackpoint>
            <Time>2019-08-01T10:22:30.000Z</Time>
            <Position>
              <LatitudeDegrees>40.493599511682987213134765625</LatitudeDegrees>
              <LongitudeDegrees>-4.0503446571528911590576171875</LongitudeDegrees>
            </Position>
            <AltitudeMeters>806.5999755859375</AltitudeMeters>
            <DistanceMeters>NAN</DistanceMeters>
          </Trackpoint>
          <Trackpoint>
            <Time>2019-08-01T10:22:31.000Z</Time>
            <Position>
              <LatitudeDegrees>40.49367268569767475128173828125</LatitudeDegrees>
              <LongitudeDegrees>-4.05036619864404201507568359375</LongitudeDegrees>
            </Position>
            <AltitudeMeters>806.5999755859375</AltitudeMeters>
            <DistanceMeters>NAN</DistanceMeters>
          </Trackpoint>
          <Trackpoint>
            <Time>2019-08-01T10:22:32.000Z</Time>
            <Position>
              <LatitudeDegrees>40.4937458597123622894287109375</LatitudeDegrees>
              <LongitudeDegrees>-4.05038732104003429412841796875</LongitudeDegrees>
            </Position>
            <AltitudeMeters>806.5999755859375</AltitudeMeters>
            <DistanceMeters>NAN</DistanceMeters>
          </Trackpoint>
          <Trackpoint>
            <Time>2019-08-01T10:22:33.000Z</Time>
            <Position>
              <LatitudeDegrees>40.49381836317479610443115234375</LatitudeDegrees>
              <LongitudeDegrees>-4.05040794052183628082275390625</LongitudeDegrees>
            </Position>
            <AltitudeMeters>806.79998779296875</AltitudeMeters>
            <DistanceMeters>NAN</DistanceMeters>
          </Trackpoint>
          <Trackpoint>
            <Time>2019-08-01T10:22:34.000Z</Time>
            <Position>
              <LatitudeDegrees>40.493889860808849334716796875</LatitudeDegrees>
              <LongitudeDegrees>-4.05043023638427257537841796875</LongitudeDegrees>
            </Position>
            <AltitudeMeters>807.20001220703125</AltitudeMeters>
            <DistanceMeters>NAN</DistanceMeters>
          </Trackpoint>
          <Trackpoint>
            <Time>2019-08-01T10:22:35.000Z</Time>
            <Position>
              <LatitudeDegrees>40.49396135844290256500244140625</LatitudeDegrees>
              <LongitudeDegrees>-4.05045286752283573150634765625</LongitudeDegrees>
            </Position>
            <AltitudeMeters>807.79998779296875</AltitudeMeters>
            <DistanceMeters>NAN</DistanceMeters>
          </Trackpoint>
          <Trackpoint>
            <Time>2019-08-01T10:22:36.000Z</Time>
            <Position>
              <LatitudeDegrees>40.49403327517211437225341796875</LatitudeDegrees>
              <LongitudeDegrees>-4.05047516338527202606201171875</LongitudeDegrees>
            </Position>
            <AltitudeMeters>808</AltitudeMeters>
            <DistanceMeters>NAN</DistanceMeters>
          </Trackpoint>
          <Trackpoint>
            <Time>2019-08-01T10:22:37.000Z</Time>
            <Position>
              <LatitudeDegrees>40.49410544335842132568359375</LatitudeDegrees>
              <LongitudeDegrees>-4.0504958666861057281494140625</LongitudeDegrees>
            </Position>
            <AltitudeMeters>808.4000244140625</AltitudeMeters>
            <DistanceMeters>NAN</DistanceMeters>
          </Trackpoint>
          <Trackpoint>
            <Time>2019-08-01T10:22:38.000Z</Time>
            <Position>
              <LatitudeDegrees>40.49417777918279170989990234375</LatitudeDegrees>
              <LongitudeDegrees>-4.05051539652049541473388671875</LongitudeDegrees>
            </Position>
            <AltitudeMeters>808.5999755859375</AltitudeMeters>
            <DistanceMeters>NAN</DistanceMeters>
          </Trackpoint>
          <Trackpoint>
            <Time>2019-08-01T10:22:39.000Z</Time>
            <Position>
              <LatitudeDegrees>40.49424936063587665557861328125</LatitudeDegrees>
              <LongitudeDegrees>-4.05053593218326568603515625</LongitudeDegrees>
            </Position>
            <AltitudeMeters>808.5999755859375</AltitudeMeters>
            <DistanceMeters>NAN</DistanceMeters>
          </Trackpoint>
          <Trackpoint>
            <Time>2019-08-01T10:22:40.000Z</Time>
            <Position>
              <LatitudeDegrees>40.4943198524415493011474609375</LatitudeDegrees>
              <LongitudeDegrees>-4.050557054579257965087890625</LongitudeDegrees>
            </Position>
            <AltitudeMeters>808.79998779296875</AltitudeMeters>
            <DistanceMeters>NAN</DistanceMeters>
          </Trackpoint>
          <Trackpoint>
            <Time>2019-08-01T10:22:41.000Z</Time>
            <Position>
              <LatitudeDegrees>40.4943902604281902313232421875</LatitudeDegrees>
              <LongitudeDegrees>-4.05057884752750396728515625</LongitudeDegrees>
            </Position>
            <AltitudeMeters>808.79998779296875</AltitudeMeters>
            <DistanceMeters>NAN</DistanceMeters>
          </Trackpoint>
          <Trackpoint>
            <Time>2019-08-01T10:22:42.000Z</Time>
            <Position>
              <LatitudeDegrees>40.49446008168160915374755859375</LatitudeDegrees>
              <LongitudeDegrees>-4.0506004728376865386962890625</LongitudeDegrees>
            </Position>
            <AltitudeMeters>808.79998779296875</AltitudeMeters>
            <DistanceMeters>NAN</DistanceMeters>
          </Trackpoint>
          <Trackpoint>
            <Time>2019-08-01T10:22:43.000Z</Time>
            <Position>
              <LatitudeDegrees>40.494529567658901214599609375</LatitudeDegrees>
              <LongitudeDegrees>-4.0506209246814250946044921875</LongitudeDegrees>
            </Position>
            <AltitudeMeters>809</AltitudeMeters>
            <DistanceMeters>NAN</DistanceMeters>
          </Trackpoint>
          <Trackpoint>
            <Time>2019-08-01T10:22:44.000Z</Time>
            <Position>
              <LatitudeDegrees>40.4945984669029712677001953125</LatitudeDegrees>
              <LongitudeDegrees>-4.05064045451581478118896484375</LongitudeDegrees>
            </Position>
            <AltitudeMeters>809</AltitudeMeters>
            <DistanceMeters>NAN</DistanceMeters>
          </Trackpoint>
          <Trackpoint>
            <Time>2019-08-01T10:22:45.000Z</Time>
            <Position>
              <LatitudeDegrees>40.49466728232800960540771484375</LatitudeDegrees>
              <LongitudeDegrees>-4.050659649074077606201171875</LongitudeDegrees>
            </Position>
            <AltitudeMeters>809</AltitudeMeters>
            <DistanceMeters>NAN</DistanceMeters>
          </Trackpoint>
          <Trackpoint>
            <Time>2019-08-01T10:22:46.000Z</Time>
            <Position>
              <LatitudeDegrees>40.49473701976239681243896484375</LatitudeDegrees>
              <LongitudeDegrees>-4.05067867599427700042724609375</LongitudeDegrees>
            </Position>
            <AltitudeMeters>809</AltitudeMeters>
            <DistanceMeters>NAN</DistanceMeters>
          </Trackpoint>
          <Trackpoint>
            <Time>2019-08-01T10:22:47.000Z</Time>
            <Position>
              <LatitudeDegrees>40.49480826593935489654541015625</LatitudeDegrees>
              <LongitudeDegrees>-4.05069543980062007904052734375</LongitudeDegrees>
            </Position>
            <AltitudeMeters>809.20001220703125</AltitudeMeters>
            <DistanceMeters>NAN</DistanceMeters>
          </Trackpoint>
          <Trackpoint>
            <Time>2019-08-01T10:22:48.000Z</Time>
            <Position>
              <LatitudeDegrees>40.4948807694017887115478515625</LatitudeDegrees>
              <LongitudeDegrees>-4.05071203596889972686767578125</LongitudeDegrees>
            </Position>
            <AltitudeMeters>809.20001220703125</AltitudeMeters>
            <DistanceMeters>NAN</DistanceMeters>
          </Trackpoint>
          <Trackpoint>
            <Time>2019-08-01T10:22:49.000Z</Time>
            <Position>
              <LatitudeDegrees>40.49495444633066654205322265625</LatitudeDegrees>
              <LongitudeDegrees>-4.05072745867073535919189453125</LongitudeDegrees>
            </Position>
            <AltitudeMeters>809.20001220703125</AltitudeMeters>
            <DistanceMeters>NAN</DistanceMeters>
          </Trackpoint>
          <Trackpoint>
            <Time>2019-08-01T10:22:50.000Z</Time>
            <Position>
              <LatitudeDegrees>40.49502946436405181884765625</LatitudeDegrees>
              <LongitudeDegrees>-4.05074254609644412994384765625</LongitudeDegrees>
            </Position>
            <AltitudeMeters>809.20001220703125</AltitudeMeters>
            <DistanceMeters>NAN</DistanceMeters>
          </Trackpoint>
          <Trackpoint>
            <Time>2019-08-01T10:22:51.000Z</Time>
            <Position>
              <LatitudeDegrees>40.495105572044849395751953125</LatitudeDegrees>
              <LongitudeDegrees>-4.05075780116021633148193359375</LongitudeDegrees>
            </Position>
            <AltitudeMeters>809.4000244140625</AltitudeMeters>
            <DistanceMeters>NAN</DistanceMeters>
          </Trackpoint>
          <Trackpoint>
            <Time>2019-08-01T10:22:52.000Z</Time>
            <Position>
              <LatitudeDegrees>40.49518260173499584197998046875</LatitudeDegrees>
              <LongitudeDegrees>-4.050772972404956817626953125</LongitudeDegrees>
            </Position>
            <AltitudeMeters>809.4000244140625</AltitudeMeters>
            <DistanceMeters>NAN</DistanceMeters>
          </Trackpoint>
          <Trackpoint>
            <Time>2019-08-01T10:22:53.000Z</Time>
            <Position>
              <LatitudeDegrees>40.49526222981512546539306640625</LatitudeDegrees>
              <LongitudeDegrees>-4.05078831128776073455810546875</LongitudeDegrees>
            </Position>
            <AltitudeMeters>809.5999755859375</AltitudeMeters>
            <DistanceMeters>NAN</DistanceMeters>
          </Trackpoint>
          <Trackpoint>
            <Time>2019-08-01T10:22:54.000Z</Time>
            <Position>
              <LatitudeDegrees>40.49534336663782596588134765625</LatitudeDegrees>
              <LongitudeDegrees>-4.05080507509410381317138671875</LongitudeDegrees>
            </Position>
            <AltitudeMeters>809.79998779296875</AltitudeMeters>
            <DistanceMeters>NAN</DistanceMeters>
          </Trackpoint>
          <Trackpoint>
            <Time>2019-08-01T10:22:55.000Z</Time>
            <Position>
              <LatitudeDegrees>40.49542651511728763580322265625</LatitudeDegrees>
              <LongitudeDegrees>-4.05082167126238346099853515625</LongitudeDegrees>
            </Position>
            <AltitudeMeters>809.79998779296875</AltitudeMeters>
            <DistanceMeters>NAN</DistanceMeters>
          </Trackpoint>
          <Trackpoint>
            <Time>2019-08-01T10:22:56.000Z</Time>
            <Position>
              <LatitudeDegrees>40.49551092088222503662109375</LatitudeDegrees>
              <LongitudeDegrees>-4.0508378483355045318603515625</LongitudeDegrees>
            </Position>
            <AltitudeMeters>809.79998779296875</AltitudeMeters>
            <DistanceMeters>NAN</DistanceMeters>
          </Trackpoint>
          <Trackpoint>
            <Time>2019-08-01T10:22:57.000Z</Time>
            <Position>
              <LatitudeDegrees>40.49559650011360645294189453125</LatitudeDegrees>
              <LongitudeDegrees>-4.05085452832281589508056640625</LongitudeDegrees>
            </Position>
            <AltitudeMeters>809.79998779296875</AltitudeMeters>
            <DistanceMeters>NAN</DistanceMeters>
          </Trackpoint>
          <Trackpoint>
            <Time>2019-08-01T10:22:58.000Z</Time>
            <Position>
              <LatitudeDegrees>40.49568350426852703094482421875</LatitudeDegrees>
              <LongitudeDegrees>-4.0508723817765712738037109375</LongitudeDegrees>
            </Position>
            <AltitudeMeters>809.79998779296875</AltitudeMeters>
            <DistanceMeters>NAN</DistanceMeters>
          </Trackpoint>
          <Trackpoint>
            <Time>2019-08-01T10:22:59.000Z</Time>
            <Position>
              <LatitudeDegrees>40.49577109515666961669921875</LatitudeDegrees>
              <LongitudeDegrees>-4.0508904866874217987060546875</LongitudeDegrees>
            </Position>
            <AltitudeMeters>809.79998779296875</AltitudeMeters>
            <DistanceMeters>NAN</DistanceMeters>
          </Trackpoint>
          <Trackpoint>
            <Time>2019-08-01T10:23:00.000Z</Time>
            <Position>
              <LatitudeDegrees>40.4958597756922245025634765625</LatitudeDegrees>
              <LongitudeDegrees>-4.050907753407955169677734375</LongitudeDegrees>
            </Position>
            <AltitudeMeters>809.79998779296875</AltitudeMeters>
            <DistanceMeters>NAN</DistanceMeters>
          </Trackpoint>
          <Trackpoint>
            <Time>2019-08-01T10:23:01.000Z</Time>
            <Position>
              <LatitudeDegrees>40.49594904296100139617919921875</LatitudeDegrees>
              <LongitudeDegrees>-4.0509263612329959869384765625</LongitudeDegrees>
            </Position>
            <AltitudeMeters>809.79998779296875</AltitudeMeters>
            <DistanceMeters>NAN</DistanceMeters>
          </Trackpoint>
          <Trackpoint>
            <Time>2019-08-01T10:23:02.000Z</Time>
            <Position>
              <LatitudeDegrees>40.49603889696300029754638671875</LatitudeDegrees>
              <LongitudeDegrees>-4.0509454719722270965576171875</LongitudeDegrees>
            </Position>
            <AltitudeMeters>809.79998779296875</AltitudeMeters>
            <DistanceMeters>NAN</DistanceMeters>
          </Trackpoint>
          <Trackpoint>
            <Time>2019-08-01T10:23:03.000Z</Time>
            <Position>
              <LatitudeDegrees>40.496128499507904052734375</LatitudeDegrees>
              <LongitudeDegrees>-4.05096399597823619842529296875</LongitudeDegrees>
            </Position>
            <AltitudeMeters>809.79998779296875</AltitudeMeters>
            <DistanceMeters>NAN</DistanceMeters>
          </Trackpoint>
          <Trackpoint>
            <Time>2019-08-01T10:23:04.000Z</Time>
            <Position>
              <LatitudeDegrees>40.496217347681522369384765625</LatitudeDegrees>
              <LongitudeDegrees>-4.0509816817939281463623046875</LongitudeDegrees>
            </Position>
            <AltitudeMeters>809.79998779296875</AltitudeMeters>
            <DistanceMeters>NAN</DistanceMeters>
          </Trackpoint>
          <Trackpoint>
            <Time>2019-08-01T10:23:05.000Z</Time>
            <Position>
              <LatitudeDegrees>40.49630544148385524749755859375</LatitudeDegrees>
              <LongitudeDegrees>-4.05099727213382720947265625</LongitudeDegrees>
            </Position>
            <AltitudeMeters>809.5999755859375</AltitudeMeters>
            <DistanceMeters>NAN</DistanceMeters>
          </Trackpoint>
          <Trackpoint>
            <Time>2019-08-01T10:23:06.000Z</Time>
            <Position>
              <LatitudeDegrees>40.49639227800071239471435546875</LatitudeDegrees>
              <LongitudeDegrees>-4.051013030111789703369140625</LongitudeDegrees>
            </Position>
            <AltitudeMeters>809.5999755859375</AltitudeMeters>
            <DistanceMeters>NAN</DistanceMeters>
          </Trackpoint>
          <Trackpoint>
            <Time>2019-08-01T10:23:07.000Z</Time>
            <Position>
              <LatitudeDegrees>40.496477521955966949462890625</LatitudeDegrees>
              <LongitudeDegrees>-4.0510266087949275970458984375</LongitudeDegrees>
            </Position>
            <AltitudeMeters>809.5999755859375</AltitudeMeters>
            <DistanceMeters>NAN</DistanceMeters>
          </Trackpoint>
          <Trackpoint>
            <Time>2019-08-01T10:23:08.000Z</Time>
            <Position>
              <LatitudeDegrees>40.496560670435428619384765625</LatitudeDegrees>
              <LongitudeDegrees>-4.0510393492877483367919921875</LongitudeDegrees>
            </Position>
            <AltitudeMeters>809.4000244140625</AltitudeMeters>
            <DistanceMeters>NAN</DistanceMeters>
          </Trackpoint>
          <Trackpoint>
            <Time>2019-08-01T10:23:09.000Z</Time>
            <Position>
              <LatitudeDegrees>40.4966413043439388275146484375</LatitudeDegrees>
              <LongitudeDegrees>-4.05105167068541049957275390625</LongitudeDegrees>
            </Position>
            <AltitudeMeters>809.4000244140625</AltitudeMeters>
            <DistanceMeters>NAN</DistanceMeters>
          </Trackpoint>
          <Trackpoint>
            <Time>2019-08-01T10:23:10.000Z</Time>
            <Position>
              <LatitudeDegrees>40.496722273528575897216796875</LatitudeDegrees>
              <LongitudeDegrees>-4.05106424354016780853271484375</LongitudeDegrees>
            </Position>
            <AltitudeMeters>809.4000244140625</AltitudeMeters>
            <DistanceMeters>NAN</DistanceMeters>
          </Trackpoint>
          <Trackpoint>
            <Time>2019-08-01T10:23:11.000Z</Time>
            <Position>
              <LatitudeDegrees>40.496802069246768951416015625</LatitudeDegrees>
              <LongitudeDegrees>-4.05107798986136913299560546875</LongitudeDegrees>
            </Position>
            <AltitudeMeters>809.4000244140625</AltitudeMeters>
            <DistanceMeters>NAN</DistanceMeters>
          </Trackpoint>
          <Trackpoint>
            <Time>2019-08-01T10:23:12.000Z</Time>
            <Position>
              <LatitudeDegrees>40.49688018858432769775390625</LatitudeDegrees>
              <LongitudeDegrees>-4.0510906465351581573486328125</LongitudeDegrees>
            </Position>
            <AltitudeMeters>809.4000244140625</AltitudeMeters>
            <DistanceMeters>NAN</DistanceMeters>
          </Trackpoint>
          <Trackpoint>
            <Time>2019-08-01T10:23:13.000Z</Time>
            <Position>
              <LatitudeDegrees>40.49695688299834728240966796875</LatitudeDegrees>
              <LongitudeDegrees>-4.05110246501863002777099609375</LongitudeDegrees>
            </Position>
            <AltitudeMeters>809.4000244140625</AltitudeMeters>
            <DistanceMeters>NAN</DistanceMeters>
          </Trackpoint>
          <Trackpoint>
            <Time>2019-08-01T10:23:14.000Z</Time>
            <Position>
              <LatitudeDegrees>40.497032068669795989990234375</LatitudeDegrees>
              <LongitudeDegrees>-4.05111487023532390594482421875</LongitudeDegrees>
            </Position>
            <AltitudeMeters>809.4000244140625</AltitudeMeters>
            <DistanceMeters>NAN</DistanceMeters>
          </Trackpoint>
          <Trackpoint>
            <Time>2019-08-01T10:23:15.000Z</Time>
            <Position>
              <LatitudeDegrees>40.49710507504642009735107421875</LatitudeDegrees>
              <LongitudeDegrees>-4.05112844891846179962158203125</LongitudeDegrees>
            </Position>
            <AltitudeMeters>809.4000244140625</AltitudeMeters>
            <DistanceMeters>NAN</DistanceMeters>
          </Trackpoint>
          <Trackpoint>
            <Time>2019-08-01T10:23:16.000Z</Time>
            <Position>
              <LatitudeDegrees>40.497177578508853912353515625</LatitudeDegrees>
              <LongitudeDegrees>-4.051142446696758270263671875</LongitudeDegrees>
            </Position>
            <AltitudeMeters>809.5999755859375</AltitudeMeters>
            <DistanceMeters>NAN</DistanceMeters>
          </Trackpoint>
          <Trackpoint>
            <Time>2019-08-01T10:23:17.000Z</Time>
            <Position>
              <LatitudeDegrees>40.4972501657903194427490234375</LatitudeDegrees>
              <LongitudeDegrees>-4.05115577392280101776123046875</LongitudeDegrees>
            </Position>
            <AltitudeMeters>809.5999755859375</AltitudeMeters>
            <DistanceMeters>NAN</DistanceMeters>
          </Trackpoint>
          <Trackpoint>
            <Time>2019-08-01T10:23:18.000Z</Time>
            <Position>
              <LatitudeDegrees>40.4973222501575946807861328125</LatitudeDegrees>
              <LongitudeDegrees>-4.0511687658727169036865234375</LongitudeDegrees>
            </Position>
            <AltitudeMeters>809.5999755859375</AltitudeMeters>
            <DistanceMeters>NAN</DistanceMeters>
          </Trackpoint>
          <Trackpoint>
            <Time>2019-08-01T10:23:19.000Z</Time>
            <Position>
              <LatitudeDegrees>40.4973222501575946807861328125</LatitudeDegrees>
              <LongitudeDegrees>-4.0511687658727169036865234375</LongitudeDegrees>
            </Position>
            <AltitudeMeters>809.79998779296875</AltitudeMeters>
            <DistanceMeters>NAN</DistanceMeters>
          </Trackpoint>
          <Trackpoint>
            <Time>2019-08-01T10:23:20.000Z</Time>
            <Position>
              <LatitudeDegrees>40.49746599979698657989501953125</LatitudeDegrees>
              <LongitudeDegrees>-4.051195420324802398681640625</LongitudeDegrees>
            </Position>
            <AltitudeMeters>809.79998779296875</AltitudeMeters>
            <DistanceMeters>NAN</DistanceMeters>
          </Trackpoint>
          <Trackpoint>
            <Time>2019-08-01T10:23:21.000Z</Time>
            <Position>
              <LatitudeDegrees>40.497537665069103240966796875</LatitudeDegrees>
              <LongitudeDegrees>-4.05121042393147945404052734375</LongitudeDegrees>
            </Position>
            <AltitudeMeters>810</AltitudeMeters>
            <DistanceMeters>NAN</DistanceMeters>
          </Trackpoint>
          <Trackpoint>
            <Time>2019-08-01T10:23:22.000Z</Time>
            <Position>
              <LatitudeDegrees>40.49760949797928333282470703125</LatitudeDegrees>
              <LongitudeDegrees>-4.05122567899525165557861328125</LongitudeDegrees>
            </Position>
            <AltitudeMeters>810</AltitudeMeters>
            <DistanceMeters>NAN</DistanceMeters>
          </Trackpoint>
          <Trackpoint>
            <Time>2019-08-01T10:23:23.000Z</Time>
            <Position>
              <LatitudeDegrees>40.49760949797928333282470703125</LatitudeDegrees>
              <LongitudeDegrees>-4.05122567899525165557861328125</LongitudeDegrees>
            </Position>
            <AltitudeMeters>810.4000244140625</AltitudeMeters>
            <DistanceMeters>NAN</DistanceMeters>
          </Trackpoint>
          <Trackpoint>
            <Time>2019-08-01T10:23:24.000Z</Time>
            <Position>
              <LatitudeDegrees>40.4977540858089923858642578125</LatitudeDegrees>
              <LongitudeDegrees>-4.0512535907328128814697265625</LongitudeDegrees>
            </Position>
            <AltitudeMeters>810.5999755859375</AltitudeMeters>
            <DistanceMeters>NAN</DistanceMeters>
          </Trackpoint>
          <Trackpoint>
            <Time>2019-08-01T10:23:25.000Z</Time>
            <Position>
              <LatitudeDegrees>40.4978265054523944854736328125</LatitudeDegrees>
              <LongitudeDegrees>-4.051265157759189605712890625</LongitudeDegrees>
            </Position>
            <AltitudeMeters>811</AltitudeMeters>
            <DistanceMeters>NAN</DistanceMeters>
          </Trackpoint>
          <Trackpoint>
            <Time>2019-08-01T10:23:26.000Z</Time>
            <Position>
              <LatitudeDegrees>40.4978985898196697235107421875</LatitudeDegrees>
              <LongitudeDegrees>-4.05127513222396373748779296875</LongitudeDegrees>
            </Position>
            <AltitudeMeters>811.4000244140625</AltitudeMeters>
            <DistanceMeters>NAN</DistanceMeters>
          </Trackpoint>
          <Trackpoint>
            <Time>2019-08-01T10:23:27.000Z</Time>
            <Position>
              <LatitudeDegrees>40.4979706741869449615478515625</LatitudeDegrees>
              <LongitudeDegrees>-4.0512841008603572845458984375</LongitudeDegrees>
            </Position>
            <AltitudeMeters>811.79998779296875</AltitudeMeters>
            <DistanceMeters>NAN</DistanceMeters>
          </Trackpoint>
          <Trackpoint>
            <Time>2019-08-01T10:23:28.000Z</Time>
            <Position>
              <LatitudeDegrees>40.49804217182099819183349609375</LatitudeDegrees>
              <LongitudeDegrees>-4.051293991506099700927734375</LongitudeDegrees>
            </Position>
            <AltitudeMeters>812</AltitudeMeters>
            <DistanceMeters>NAN</DistanceMeters>
          </Trackpoint>
          <Trackpoint>
            <Time>2019-08-01T10:23:29.000Z</Time>
            <Position>
              <LatitudeDegrees>40.49811274744570255279541015625</LatitudeDegrees>
              <LongitudeDegrees>-4.05130396597087383270263671875</LongitudeDegrees>
            </Position>
            <AltitudeMeters>812.4000244140625</AltitudeMeters>
            <DistanceMeters>NAN</DistanceMeters>
          </Trackpoint>
          <Trackpoint>
            <Time>2019-08-01T10:23:30.000Z</Time>
            <Position>
              <LatitudeDegrees>40.49811274744570255279541015625</LatitudeDegrees>
              <LongitudeDegrees>-4.05130396597087383270263671875</LongitudeDegrees>
            </Position>
            <AltitudeMeters>812.5999755859375</AltitudeMeters>
            <DistanceMeters>NAN</DistanceMeters>
          </Trackpoint>
          <Trackpoint>
            <Time>2019-08-01T10:23:31.000Z</Time>
            <Position>
              <LatitudeDegrees>40.49825255759060382843017578125</LatitudeDegrees>
              <LongitudeDegrees>-4.05132810585200786590576171875</LongitudeDegrees>
            </Position>
            <AltitudeMeters>812.79998779296875</AltitudeMeters>
            <DistanceMeters>NAN</DistanceMeters>
          </Trackpoint>
          <Trackpoint>
            <Time>2019-08-01T10:23:32.000Z</Time>
            <Position>
              <LatitudeDegrees>40.49832145683467388153076171875</LatitudeDegrees>
              <LongitudeDegrees>-4.051344282925128936767578125</LongitudeDegrees>
            </Position>
            <AltitudeMeters>813</AltitudeMeters>
            <DistanceMeters>NAN</DistanceMeters>
          </Trackpoint>
          <Trackpoint>
            <Time>2019-08-01T10:23:33.000Z</Time>
            <Position>
              <LatitudeDegrees>40.49838968552649021148681640625</LatitudeDegrees>
              <LongitudeDegrees>-4.0513605438172817230224609375</LongitudeDegrees>
            </Position>
            <AltitudeMeters>813.20001220703125</AltitudeMeters>
            <DistanceMeters>NAN</DistanceMeters>
          </Trackpoint>
          <Trackpoint>
            <Time>2019-08-01T10:23:34.000Z</Time>
            <Position>
              <LatitudeDegrees>40.498457662761211395263671875</LatitudeDegrees>
              <LongitudeDegrees>-4.05137621797621250152587890625</LongitudeDegrees>
            </Position>
            <AltitudeMeters>813.20001220703125</AltitudeMeters>
            <DistanceMeters>NAN</DistanceMeters>
          </Trackpoint>
          <Trackpoint>
            <Time>2019-08-01T10:23:35.000Z</Time>
            <Position>
              <LatitudeDegrees>40.49852580763399600982666015625</LatitudeDegrees>
              <LongitudeDegrees>-4.05139130540192127227783203125</LongitudeDegrees>
            </Position>
            <AltitudeMeters>813.20001220703125</AltitudeMeters>
            <DistanceMeters>NAN</DistanceMeters>
          </Trackpoint>
          <Trackpoint>
            <Time>2019-08-01T10:23:36.000Z</Time>
            <Position>
              <LatitudeDegrees>40.49859470687806606292724609375</LatitudeDegrees>
              <LongitudeDegrees>-4.05140454880893230438232421875</LongitudeDegrees>
            </Position>
            <AltitudeMeters>813.4000244140625</AltitudeMeters>
            <DistanceMeters>NAN</DistanceMeters>
          </Trackpoint>
          <Trackpoint>
            <Time>2019-08-01T10:23:37.000Z</Time>
            <Position>
              <LatitudeDegrees>40.49866477958858013153076171875</LatitudeDegrees>
              <LongitudeDegrees>-4.05141703784465789794921875</LongitudeDegrees>
            </Position>
            <AltitudeMeters>813.4000244140625</AltitudeMeters>
            <DistanceMeters>NAN</DistanceMeters>
          </Trackpoint>
          <Trackpoint>
            <Time>2019-08-01T10:23:38.000Z</Time>
            <Position>
              <LatitudeDegrees>40.4987347684800624847412109375</LatitudeDegrees>
              <LongitudeDegrees>-4.05143070034682750701904296875</LongitudeDegrees>
            </Position>
            <AltitudeMeters>813.5999755859375</AltitudeMeters>
            <DistanceMeters>NAN</DistanceMeters>
          </Trackpoint>
          <Trackpoint>
            <Time>2019-08-01T10:23:39.000Z</Time>
            <Position>
              <LatitudeDegrees>40.4987347684800624847412109375</LatitudeDegrees>
              <LongitudeDegrees>-4.05143070034682750701904296875</LongitudeDegrees>
            </Position>
            <AltitudeMeters>813.79998779296875</AltitudeMeters>
            <DistanceMeters>NAN</DistanceMeters>
          </Trackpoint>
          <Trackpoint>
            <Time>2019-08-01T10:23:40.000Z</Time>
            <Position>
              <LatitudeDegrees>40.4988769255578517913818359375</LatitudeDegrees>
              <LongitudeDegrees>-4.051463641226291656494140625</LongitudeDegrees>
            </Position>
            <AltitudeMeters>814</AltitudeMeters>
            <DistanceMeters>NAN</DistanceMeters>
          </Trackpoint>
          <Trackpoint>
            <Time>2019-08-01T10:23:41.000Z</Time>
            <Position>
              <LatitudeDegrees>40.4989483393728733062744140625</LatitudeDegrees>
              <LongitudeDegrees>-4.0514819137752056121826171875</LongitudeDegrees>
            </Position>
            <AltitudeMeters>814.20001220703125</AltitudeMeters>
            <DistanceMeters>NAN</DistanceMeters>
          </Trackpoint>
          <Trackpoint>
            <Time>2019-08-01T10:23:42.000Z</Time>
            <Position>
              <LatitudeDegrees>40.49902033992111682891845703125</LatitudeDegrees>
              <LongitudeDegrees>-4.05149993486702442169189453125</LongitudeDegrees>
            </Position>
            <AltitudeMeters>814.4000244140625</AltitudeMeters>
            <DistanceMeters>NAN</DistanceMeters>
          </Trackpoint>
          <Trackpoint>
            <Time>2019-08-01T10:23:43.000Z</Time>
            <Position>
              <LatitudeDegrees>40.49902033992111682891845703125</LatitudeDegrees>
              <LongitudeDegrees>-4.05149993486702442169189453125</LongitudeDegrees>
            </Position>
            <AltitudeMeters>814.4000244140625</AltitudeMeters>
            <DistanceMeters>NAN</DistanceMeters>
          </Trackpoint>
          <Trackpoint>
            <Time>2019-08-01T10:23:44.000Z</Time>
            <Position>
              <LatitudeDegrees>40.499165095388889312744140625</LatitudeDegrees>
              <LongitudeDegrees>-4.05152843333780765533447265625</LongitudeDegrees>
            </Position>
            <AltitudeMeters>814.4000244140625</AltitudeMeters>
            <DistanceMeters>NAN</DistanceMeters>
          </Trackpoint>
          <Trackpoint>
            <Time>2019-08-01T10:23:45.000Z</Time>
            <Position>
              <LatitudeDegrees>40.4992385208606719970703125</LatitudeDegrees>
              <LongitudeDegrees>-4.05153748579323291778564453125</LongitudeDegrees>
            </Position>
            <AltitudeMeters>814.5999755859375</AltitudeMeters>
            <DistanceMeters>NAN</DistanceMeters>
          </Trackpoint>
          <Trackpoint>
            <Time>2019-08-01T10:23:46.000Z</Time>
            <Position>
              <LatitudeDegrees>40.49931152723729610443115234375</LatitudeDegrees>
              <LongitudeDegrees>-4.05154712498188018798828125</LongitudeDegrees>
            </Position>
            <AltitudeMeters>814.5999755859375</AltitudeMeters>
            <DistanceMeters>NAN</DistanceMeters>
          </Trackpoint>
          <Trackpoint>
            <Time>2019-08-01T10:23:47.000Z</Time>
            <Position>
              <LatitudeDegrees>40.49938403069972991943359375</LatitudeDegrees>
              <LongitudeDegrees>-4.0515570156276226043701171875</LongitudeDegrees>
            </Position>
            <AltitudeMeters>814.79998779296875</AltitudeMeters>
            <DistanceMeters>NAN</DistanceMeters>
          </Trackpoint>
          <Trackpoint>
            <Time>2019-08-01T10:23:48.000Z</Time>
            <Position>
              <LatitudeDegrees>40.499456115067005157470703125</LatitudeDegrees>
              <LongitudeDegrees>-4.05156682245433330535888671875</LongitudeDegrees>
            </Position>
            <AltitudeMeters>814.79998779296875</AltitudeMeters>
            <DistanceMeters>NAN</DistanceMeters>
          </Trackpoint>
          <Trackpoint>
            <Time>2019-08-01T10:23:49.000Z</Time>
            <Position>
              <LatitudeDegrees>40.499456115067005157470703125</LatitudeDegrees>
              <LongitudeDegrees>-4.05156682245433330535888671875</LongitudeDegrees>
            </Position>
            <AltitudeMeters>814.79998779296875</AltitudeMeters>
            <DistanceMeters>NAN</DistanceMeters>
          </Trackpoint>
          <Trackpoint>
            <Time>2019-08-01T10:23:50.000Z</Time>
            <Position>
              <LatitudeDegrees>40.4996004514396190643310546875</LatitudeDegrees>
              <LongitudeDegrees>-4.05158794485032558441162109375</LongitudeDegrees>
            </Position>
            <AltitudeMeters>814.79998779296875</AltitudeMeters>
            <DistanceMeters>NAN</DistanceMeters>
          </Trackpoint>
          <Trackpoint>
            <Time>2019-08-01T10:23:51.000Z</Time>
            <Position>
              <LatitudeDegrees>40.49967194907367229461669921875</LatitudeDegrees>
              <LongitudeDegrees>-4.05159582383930683135986328125</LongitudeDegrees>
            </Position>
            <AltitudeMeters>815</AltitudeMeters>
            <DistanceMeters>NAN</DistanceMeters>
          </Trackpoint>
          <Trackpoint>
            <Time>2019-08-01T10:23:52.000Z</Time>
            <Position>
              <LatitudeDegrees>40.49974218942224979400634765625</LatitudeDegrees>
              <LongitudeDegrees>-4.051600433886051177978515625</LongitudeDegrees>
            </Position>
            <AltitudeMeters>815</AltitudeMeters>
            <DistanceMeters>NAN</DistanceMeters>
          </Trackpoint>
          <Trackpoint>
            <Time>2019-08-01T10:23:53.000Z</Time>
            <Position>
              <LatitudeDegrees>40.49981318414211273193359375</LatitudeDegrees>
              <LongitudeDegrees>-4.05160286463797092437744140625</LongitudeDegrees>
            </Position>
            <AltitudeMeters>815</AltitudeMeters>
            <DistanceMeters>NAN</DistanceMeters>
          </Trackpoint>
          <Trackpoint>
            <Time>2019-08-01T10:23:54.000Z</Time>
            <Position>
              <LatitudeDegrees>40.4998830892145633697509765625</LatitudeDegrees>
              <LongitudeDegrees>-4.05160345137119293212890625</LongitudeDegrees>
            </Position>
            <AltitudeMeters>815</AltitudeMeters>
            <DistanceMeters>NAN</DistanceMeters>
          </Trackpoint>
          <Trackpoint>
            <Time>2019-08-01T10:23:55.000Z</Time>
            <Position>
              <LatitudeDegrees>40.499952323734760284423828125</LatitudeDegrees>
              <LongitudeDegrees>-4.0516032837331295013427734375</LongitudeDegrees>
            </Position>
            <AltitudeMeters>815</AltitudeMeters>
            <DistanceMeters>NAN</DistanceMeters>
          </Trackpoint>
          <Trackpoint>
            <Time>2019-08-01T10:23:56.000Z</Time>
            <Position>
              <LatitudeDegrees>40.50001996569335460662841796875</LatitudeDegrees>
              <LongitudeDegrees>-4.05160211026668548583984375</LongitudeDegrees>
            </Position>
            <AltitudeMeters>815</AltitudeMeters>
            <DistanceMeters>NAN</DistanceMeters>
          </Trackpoint>
          <Trackpoint>
            <Time>2019-08-01T10:23:57.000Z</Time>
            <Position>
              <LatitudeDegrees>40.500087440013885498046875</LatitudeDegrees>
              <LongitudeDegrees>-4.05160211026668548583984375</LongitudeDegrees>
            </Position>
            <AltitudeMeters>815.20001220703125</AltitudeMeters>
            <DistanceMeters>NAN</DistanceMeters>
          </Trackpoint>
          <Trackpoint>
            <Time>2019-08-01T10:23:58.000Z</Time>
            <Position>
              <LatitudeDegrees>40.50015390850603580474853515625</LatitudeDegrees>
              <LongitudeDegrees>-4.0516016073524951934814453125</LongitudeDegrees>
            </Position>
            <AltitudeMeters>815.20001220703125</AltitudeMeters>
            <DistanceMeters>NAN</DistanceMeters>
          </Trackpoint>
          <Trackpoint>
            <Time>2019-08-01T10:23:59.000Z</Time>
            <Position>
              <LatitudeDegrees>40.50015390850603580474853515625</LatitudeDegrees>
              <LongitudeDegrees>-4.0516016073524951934814453125</LongitudeDegrees>
            </Position>
            <AltitudeMeters>815.4000244140625</AltitudeMeters>
            <DistanceMeters>NAN</DistanceMeters>
          </Trackpoint>
          <Trackpoint>
            <Time>2019-08-01T10:24:00.000Z</Time>
            <Position>
              <LatitudeDegrees>40.50028667785227298736572265625</LatitudeDegrees>
              <LongitudeDegrees>-4.0515987575054168701171875</LongitudeDegrees>
            </Position>
            <AltitudeMeters>815.4000244140625</AltitudeMeters>
            <DistanceMeters>NAN</DistanceMeters>
          </Trackpoint>
          <Trackpoint>
            <Time>2019-08-01T10:24:01.000Z</Time>
            <Position>
              <LatitudeDegrees>40.50035255961120128631591796875</LatitudeDegrees>
              <LongitudeDegrees>-4.05159850604832172393798828125</LongitudeDegrees>
            </Position>
            <AltitudeMeters>815.4000244140625</AltitudeMeters>
            <DistanceMeters>NAN</DistanceMeters>
          </Trackpoint>
          <Trackpoint>
            <Time>2019-08-01T10:24:02.000Z</Time>
            <Position>
              <LatitudeDegrees>40.50041760317981243133544921875</LatitudeDegrees>
              <LongitudeDegrees>-4.051599763333797454833984375</LongitudeDegrees>
            </Position>
            <AltitudeMeters>815.79998779296875</AltitudeMeters>
            <DistanceMeters>NAN</DistanceMeters>
          </Trackpoint>
          <Trackpoint>
            <Time>2019-08-01T10:24:03.000Z</Time>
            <Position>
              <LatitudeDegrees>40.50048314966261386871337890625</LatitudeDegrees>
              <LongitudeDegrees>-4.05160211026668548583984375</LongitudeDegrees>
            </Position>
            <AltitudeMeters>816</AltitudeMeters>
            <DistanceMeters>NAN</DistanceMeters>
          </Trackpoint>
          <Trackpoint>
            <Time>2019-08-01T10:24:04.000Z</Time>
            <Position>
              <LatitudeDegrees>40.50054819323122501373291015625</LatitudeDegrees>
              <LongitudeDegrees>-4.0516046248376369476318359375</LongitudeDegrees>
            </Position>
            <AltitudeMeters>816.20001220703125</AltitudeMeters>
            <DistanceMeters>NAN</DistanceMeters>
          </Trackpoint>
          <Trackpoint>
            <Time>2019-08-01T10:24:05.000Z</Time>
            <Position>
              <LatitudeDegrees>40.500614158809185028076171875</LatitudeDegrees>
              <LongitudeDegrees>-4.0516079775989055633544921875</LongitudeDegrees>
            </Position>
            <AltitudeMeters>816.4000244140625</AltitudeMeters>
            <DistanceMeters>NAN</DistanceMeters>
          </Trackpoint>
          <Trackpoint>
            <Time>2019-08-01T10:24:06.000Z</Time>
            <Position>
              <LatitudeDegrees>40.500614158809185028076171875</LatitudeDegrees>
              <LongitudeDegrees>-4.0516079775989055633544921875</LongitudeDegrees>
            </Position>
            <AltitudeMeters>816.5999755859375</AltitudeMeters>
            <DistanceMeters>NAN</DistanceMeters>
          </Trackpoint>
          <Trackpoint>
            <Time>2019-08-01T10:24:07.000Z</Time>
            <Position>
              <LatitudeDegrees>40.500740893185138702392578125</LatitudeDegrees>
              <LongitudeDegrees>-4.05162381939589977264404296875</LongitudeDegrees>
            </Position>
            <AltitudeMeters>817</AltitudeMeters>
            <DistanceMeters>NAN</DistanceMeters>
          </Trackpoint>
          <Trackpoint>
            <Time>2019-08-01T10:24:08.000Z</Time>
            <Position>
              <LatitudeDegrees>40.500805266201496124267578125</LatitudeDegrees>
              <LongitudeDegrees>-4.0516358055174350738525390625</LongitudeDegrees>
            </Position>
            <AltitudeMeters>817</AltitudeMeters>
            <DistanceMeters>NAN</DistanceMeters>
          </Trackpoint>
          <Trackpoint>
            <Time>2019-08-01T10:24:09.000Z</Time>
            <Position>
              <LatitudeDegrees>40.5008691363036632537841796875</LatitudeDegrees>
              <LongitudeDegrees>-4.05164896510541439056396484375</LongitudeDegrees>
            </Position>
            <AltitudeMeters>817.20001220703125</AltitudeMeters>
            <DistanceMeters>NAN</DistanceMeters>
          </Trackpoint>
          <Trackpoint>
            <Time>2019-08-01T10:24:10.000Z</Time>
            <Position>
              <LatitudeDegrees>40.50093376077711582183837890625</LatitudeDegrees>
              <LongitudeDegrees>-4.0516659803688526153564453125</LongitudeDegrees>
            </Position>
            <AltitudeMeters>817</AltitudeMeters>
            <DistanceMeters>NAN</DistanceMeters>
          </Trackpoint>
          <Trackpoint>
            <Time>2019-08-01T10:24:11.000Z</Time>
            <Position>
              <LatitudeDegrees>40.5009978823363780975341796875</LatitudeDegrees>
              <LongitudeDegrees>-4.05168551020324230194091796875</LongitudeDegrees>
            </Position>
            <AltitudeMeters>817.20001220703125</AltitudeMeters>
            <DistanceMeters>NAN</DistanceMeters>
          </Trackpoint>
          <Trackpoint>
            <Time>2019-08-01T10:24:12.000Z</Time>
            <Position>
              <LatitudeDegrees>40.50106175243854522705078125</LatitudeDegrees>
              <LongitudeDegrees>-4.05170629732310771942138671875</LongitudeDegrees>
            </Position>
            <AltitudeMeters>817.4000244140625</AltitudeMeters>
            <DistanceMeters>NAN</DistanceMeters>
          </Trackpoint>
          <Trackpoint>
            <Time>2019-08-01T10:24:13.000Z</Time>
            <Position>
              <LatitudeDegrees>40.5011256225407123565673828125</LatitudeDegrees>
              <LongitudeDegrees>-4.05172909609973430633544921875</LongitudeDegrees>
            </Position>
            <AltitudeMeters>817.5999755859375</AltitudeMeters>
            <DistanceMeters>NAN</DistanceMeters>
          </Trackpoint>
          <Trackpoint>
            <Time>2019-08-01T10:24:14.000Z</Time>
            <Position>
              <LatitudeDegrees>40.50118924118578433990478515625</LatitudeDegrees>
              <LongitudeDegrees>-4.05175357125699520111083984375</LongitudeDegrees>
            </Position>
            <AltitudeMeters>817.5999755859375</AltitudeMeters>
            <DistanceMeters>NAN</DistanceMeters>
          </Trackpoint>
          <Trackpoint>
            <Time>2019-08-01T10:24:15.000Z</Time>
            <Position>
              <LatitudeDegrees>40.50118924118578433990478515625</LatitudeDegrees>
              <LongitudeDegrees>-4.05175357125699520111083984375</LongitudeDegrees>
            </Position>
            <AltitudeMeters>817.79998779296875</AltitudeMeters>
            <DistanceMeters>NAN</DistanceMeters>
          </Trackpoint>
          <Trackpoint>
            <Time>2019-08-01T10:24:16.000Z</Time>
            <Position>
              <LatitudeDegrees>40.50131849013268947601318359375</LatitudeDegrees>
              <LongitudeDegrees>-4.05180755071341991424560546875</LongitudeDegrees>
            </Position>
            <AltitudeMeters>818</AltitudeMeters>
            <DistanceMeters>NAN</DistanceMeters>
          </Trackpoint>
          <Trackpoint>
            <Time>2019-08-01T10:24:17.000Z</Time>
            <Position>
              <LatitudeDegrees>40.501380264759063720703125</LatitudeDegrees>
              <LongitudeDegrees>-4.05183655209839344024658203125</LongitudeDegrees>
            </Position>
            <AltitudeMeters>818</AltitudeMeters>
            <DistanceMeters>NAN</DistanceMeters>
          </Trackpoint>
          <Trackpoint>
            <Time>2019-08-01T10:24:18.000Z</Time>
            <Position>
              <LatitudeDegrees>40.501380264759063720703125</LatitudeDegrees>
              <LongitudeDegrees>-4.05183655209839344024658203125</LongitudeDegrees>
            </Position>
            <AltitudeMeters>818</AltitudeMeters>
            <DistanceMeters>NAN</DistanceMeters>
          </Trackpoint>
          <Trackpoint>
            <Time>2019-08-01T10:24:19.000Z</Time>
            <Position>
              <LatitudeDegrees>40.50150163471698760986328125</LatitudeDegrees>
              <LongitudeDegrees>-4.05189824290573596954345703125</LongitudeDegrees>
            </Position>
            <AltitudeMeters>818</AltitudeMeters>
            <DistanceMeters>NAN</DistanceMeters>
          </Trackpoint>
          <Trackpoint>
            <Time>2019-08-01T10:24:20.000Z</Time>
            <Position>
              <LatitudeDegrees>40.5015611462295055389404296875</LatitudeDegrees>
              <LongitudeDegrees>-4.05193042941391468048095703125</LongitudeDegrees>
            </Position>
            <AltitudeMeters>818</AltitudeMeters>
            <DistanceMeters>NAN</DistanceMeters>
          </Trackpoint>
          <Trackpoint>
            <Time>2019-08-01T10:24:21.000Z</Time>
            <Position>
              <LatitudeDegrees>40.5015611462295055389404296875</LatitudeDegrees>
              <LongitudeDegrees>-4.05193042941391468048095703125</LongitudeDegrees>
            </Position>
            <AltitudeMeters>818.20001220703125</AltitudeMeters>
            <DistanceMeters>NAN</DistanceMeters>
          </Trackpoint>
          <Trackpoint>
            <Time>2019-08-01T10:24:22.000Z</Time>
            <Position>
              <LatitudeDegrees>40.50168243236839771270751953125</LatitudeDegrees>
              <LongitudeDegrees>-4.0519989095628261566162109375</LongitudeDegrees>
            </Position>
            <AltitudeMeters>818.20001220703125</AltitudeMeters>
            <DistanceMeters>NAN</DistanceMeters>
          </Trackpoint>
          <Trackpoint>
            <Time>2019-08-01T10:24:23.000Z</Time>
            <Position>
              <LatitudeDegrees>40.50174261443316936492919921875</LatitudeDegrees>
              <LongitudeDegrees>-4.0520344488322734832763671875</LongitudeDegrees>
            </Position>
            <AltitudeMeters>818.4000244140625</AltitudeMeters>
            <DistanceMeters>NAN</DistanceMeters>
          </Trackpoint>
          <Trackpoint>
            <Time>2019-08-01T10:24:24.000Z</Time>
            <Position>
              <LatitudeDegrees>40.50180338323116302490234375</LatitudeDegrees>
              <LongitudeDegrees>-4.05206906609237194061279296875</LongitudeDegrees>
            </Position>
            <AltitudeMeters>818.4000244140625</AltitudeMeters>
            <DistanceMeters>NAN</DistanceMeters>
          </Trackpoint>
          <Trackpoint>
            <Time>2019-08-01T10:24:25.000Z</Time>
            <Position>
              <LatitudeDegrees>40.50186549313366413116455078125</LatitudeDegrees>
              <LongitudeDegrees>-4.0521030128002166748046875</LongitudeDegrees>
            </Position>
            <AltitudeMeters>818.5999755859375</AltitudeMeters>
            <DistanceMeters>NAN</DistanceMeters>
          </Trackpoint>
          <Trackpoint>
            <Time>2019-08-01T10:24:26.000Z</Time>
            <Position>
              <LatitudeDegrees>40.501927770674228668212890625</LatitudeDegrees>
              <LongitudeDegrees>-4.05213796533644199371337890625</LongitudeDegrees>
            </Position>
            <AltitudeMeters>818.79998779296875</AltitudeMeters>
            <DistanceMeters>NAN</DistanceMeters>
          </Trackpoint>
          <Trackpoint>
            <Time>2019-08-01T10:24:27.000Z</Time>
            <Position>
              <LatitudeDegrees>40.5019896291196346282958984375</LatitudeDegrees>
              <LongitudeDegrees>-4.052174091339111328125</LongitudeDegrees>
            </Position>
            <AltitudeMeters>818.79998779296875</AltitudeMeters>
            <DistanceMeters>NAN</DistanceMeters>
          </Trackpoint>
          <Trackpoint>
            <Time>2019-08-01T10:24:28.000Z</Time>
            <Position>
              <LatitudeDegrees>40.50205207429826259613037109375</LatitudeDegrees>
              <LongitudeDegrees>-4.05220820568501949310302734375</LongitudeDegrees>
            </Position>
            <AltitudeMeters>819</AltitudeMeters>
            <DistanceMeters>NAN</DistanceMeters>
          </Trackpoint>
          <Trackpoint>
            <Time>2019-08-01T10:24:29.000Z</Time>
            <Position>
              <LatitudeDegrees>40.50211410038173198699951171875</LatitudeDegrees>
              <LongitudeDegrees>-4.05224206857383251190185546875</LongitudeDegrees>
            </Position>
            <AltitudeMeters>819.20001220703125</AltitudeMeters>
            <DistanceMeters>NAN</DistanceMeters>
          </Trackpoint>
          <Trackpoint>
            <Time>2019-08-01T10:24:30.000Z</Time>
            <Position>
              <LatitudeDegrees>40.50211410038173198699951171875</LatitudeDegrees>
              <LongitudeDegrees>-4.05224206857383251190185546875</LongitudeDegrees>
            </Position>
            <AltitudeMeters>819.20001220703125</AltitudeMeters>
            <DistanceMeters>NAN</DistanceMeters>
          </Trackpoint>
          <Trackpoint>
            <Time>2019-08-01T10:24:31.000Z</Time>
            <Position>
              <LatitudeDegrees>40.5022372305393218994140625</LatitudeDegrees>
              <LongitudeDegrees>-4.05231264419853687286376953125</LongitudeDegrees>
            </Position>
            <AltitudeMeters>819.4000244140625</AltitudeMeters>
            <DistanceMeters>NAN</DistanceMeters>
          </Trackpoint>
          <Trackpoint>
            <Time>2019-08-01T10:24:32.000Z</Time>
            <Position>
              <LatitudeDegrees>40.50229900516569614410400390625</LatitudeDegrees>
              <LongitudeDegrees>-4.05234768055379390716552734375</LongitudeDegrees>
            </Position>
            <AltitudeMeters>819.4000244140625</AltitudeMeters>
            <DistanceMeters>NAN</DistanceMeters>
          </Trackpoint>
          <Trackpoint>
            <Time>2019-08-01T10:24:33.000Z</Time>
            <Position>
              <LatitudeDegrees>40.50235994160175323486328125</LatitudeDegrees>
              <LongitudeDegrees>-4.05238321982324123382568359375</LongitudeDegrees>
            </Position>
            <AltitudeMeters>819.4000244140625</AltitudeMeters>
            <DistanceMeters>NAN</DistanceMeters>
          </Trackpoint>
          <Trackpoint>
            <Time>2019-08-01T10:24:34.000Z</Time>
            <Position>
              <LatitudeDegrees>40.50242154859006404876708984375</LatitudeDegrees>
              <LongitudeDegrees>-4.0524195134639739990234375</LongitudeDegrees>
            </Position>
            <AltitudeMeters>819.5999755859375</AltitudeMeters>
            <DistanceMeters>NAN</DistanceMeters>
          </Trackpoint>
          <Trackpoint>
            <Time>2019-08-01T10:24:35.000Z</Time>
            <Position>
              <LatitudeDegrees>40.50248332321643829345703125</LatitudeDegrees>
              <LongitudeDegrees>-4.05245698057115077972412109375</LongitudeDegrees>
            </Position>
            <AltitudeMeters>819.5999755859375</AltitudeMeters>
            <DistanceMeters>NAN</DistanceMeters>
          </Trackpoint>
          <Trackpoint>
            <Time>2019-08-01T10:24:36.000Z</Time>
            <Position>
              <LatitudeDegrees>40.50254476256668567657470703125</LatitudeDegrees>
              <LongitudeDegrees>-4.05249520204961299896240234375</LongitudeDegrees>
            </Position>
            <AltitudeMeters>819.5999755859375</AltitudeMeters>
            <DistanceMeters>NAN</DistanceMeters>
          </Trackpoint>
          <Trackpoint>
            <Time>2019-08-01T10:24:37.000Z</Time>
            <Position>
              <LatitudeDegrees>40.50260595045983791351318359375</LatitudeDegrees>
              <LongitudeDegrees>-4.05253258533775806427001953125</LongitudeDegrees>
            </Position>
            <AltitudeMeters>819.79998779296875</AltitudeMeters>
            <DistanceMeters>NAN</DistanceMeters>
          </Trackpoint>
          <Trackpoint>
            <Time>2019-08-01T10:24:38.000Z</Time>
            <Position>
              <LatitudeDegrees>40.50260595045983791351318359375</LatitudeDegrees>
              <LongitudeDegrees>-4.05253258533775806427001953125</LongitudeDegrees>
            </Position>
            <AltitudeMeters>820</AltitudeMeters>
            <DistanceMeters>NAN</DistanceMeters>
          </Trackpoint>
          <Trackpoint>
            <Time>2019-08-01T10:24:39.000Z</Time>
            <Position>
              <LatitudeDegrees>40.50272815860807895660400390625</LatitudeDegrees>
              <LongitudeDegrees>-4.05260659754276275634765625</LongitudeDegrees>
            </Position>
            <AltitudeMeters>820.4000244140625</AltitudeMeters>
            <DistanceMeters>NAN</DistanceMeters>
          </Trackpoint>
          <Trackpoint>
            <Time>2019-08-01T10:24:40.000Z</Time>
            <Position>
              <LatitudeDegrees>40.5027895979583263397216796875</LatitudeDegrees>
              <LongitudeDegrees>-4.0526436455547809600830078125</LongitudeDegrees>
            </Position>
            <AltitudeMeters>821</AltitudeMeters>
            <DistanceMeters>NAN</DistanceMeters>
          </Trackpoint>
          <Trackpoint>
            <Time>2019-08-01T10:24:41.000Z</Time>
            <Position>
              <LatitudeDegrees>40.50285154022276401519775390625</LatitudeDegrees>
              <LongitudeDegrees>-4.0526795201003551483154296875</LongitudeDegrees>
            </Position>
            <AltitudeMeters>821.20001220703125</AltitudeMeters>
            <DistanceMeters>NAN</DistanceMeters>
          </Trackpoint>
          <Trackpoint>
            <Time>2019-08-01T10:24:42.000Z</Time>
            <Position>
              <LatitudeDegrees>40.50291323103010654449462890625</LatitudeDegrees>
              <LongitudeDegrees>-4.05271514318883419036865234375</LongitudeDegrees>
            </Position>
            <AltitudeMeters>821.4000244140625</AltitudeMeters>
            <DistanceMeters>NAN</DistanceMeters>
          </Trackpoint>
          <Trackpoint>
            <Time>2019-08-01T10:24:43.000Z</Time>
            <Position>
              <LatitudeDegrees>40.5029753409326076507568359375</LatitudeDegrees>
              <LongitudeDegrees>-4.052750431001186370849609375</LongitudeDegrees>
            </Position>
            <AltitudeMeters>821.4000244140625</AltitudeMeters>
            <DistanceMeters>NAN</DistanceMeters>
          </Trackpoint>
          <Trackpoint>
            <Time>2019-08-01T10:24:44.000Z</Time>
            <Position>
              <LatitudeDegrees>40.5030373670160770416259765625</LatitudeDegrees>
              <LongitudeDegrees>-4.052785970270633697509765625</LongitudeDegrees>
            </Position>
            <AltitudeMeters>821.5999755859375</AltitudeMeters>
            <DistanceMeters>NAN</DistanceMeters>
          </Trackpoint>
          <Trackpoint>
            <Time>2019-08-01T10:24:45.000Z</Time>
            <Position>
              <LatitudeDegrees>40.50309813581407070159912109375</LatitudeDegrees>
              <LongitudeDegrees>-4.05282159335911273956298828125</LongitudeDegrees>
            </Position>
            <AltitudeMeters>821.5999755859375</AltitudeMeters>
            <DistanceMeters>NAN</DistanceMeters>
          </Trackpoint>
          <Trackpoint>
            <Time>2019-08-01T10:24:46.000Z</Time>
            <Position>
              <LatitudeDegrees>40.5031594075262546539306640625</LatitudeDegrees>
              <LongitudeDegrees>-4.05285612680017948150634765625</LongitudeDegrees>
            </Position>
            <AltitudeMeters>821.79998779296875</AltitudeMeters>
            <DistanceMeters>NAN</DistanceMeters>
          </Trackpoint>
          <Trackpoint>
            <Time>2019-08-01T10:24:47.000Z</Time>
            <Position>
              <LatitudeDegrees>40.50322134979069232940673828125</LatitudeDegrees>
              <LongitudeDegrees>-4.0528897382318973541259765625</LongitudeDegrees>
            </Position>
            <AltitudeMeters>821.79998779296875</AltitudeMeters>
            <DistanceMeters>NAN</DistanceMeters>
          </Trackpoint>
          <Trackpoint>
            <Time>2019-08-01T10:24:48.000Z</Time>
            <Position>
              <LatitudeDegrees>40.50328287295997142791748046875</LatitudeDegrees>
              <LongitudeDegrees>-4.0529236011207103729248046875</LongitudeDegrees>
            </Position>
            <AltitudeMeters>821.79998779296875</AltitudeMeters>
            <DistanceMeters>NAN</DistanceMeters>
          </Trackpoint>
          <Trackpoint>
            <Time>2019-08-01T10:24:49.000Z</Time>
            <Position>
              <LatitudeDegrees>40.50334439612925052642822265625</LatitudeDegrees>
              <LongitudeDegrees>-4.05295536853373050689697265625</LongitudeDegrees>
            </Position>
            <AltitudeMeters>822</AltitudeMeters>
            <DistanceMeters>NAN</DistanceMeters>
          </Trackpoint>
          <Trackpoint>
            <Time>2019-08-01T10:24:50.000Z</Time>
            <Position>
              <LatitudeDegrees>40.50340508110821247100830078125</LatitudeDegrees>
              <LongitudeDegrees>-4.05298789031803607940673828125</LongitudeDegrees>
            </Position>
            <AltitudeMeters>822.20001220703125</AltitudeMeters>
            <DistanceMeters>NAN</DistanceMeters>
          </Trackpoint>
          <Trackpoint>
            <Time>2019-08-01T10:24:51.000Z</Time>
            <Position>
              <LatitudeDegrees>40.5034665204584598541259765625</LatitudeDegrees>
              <LongitudeDegrees>-4.053018651902675628662109375</LongitudeDegrees>
            </Position>
            <AltitudeMeters>822.20001220703125</AltitudeMeters>
            <DistanceMeters>NAN</DistanceMeters>
          </Trackpoint>
          <Trackpoint>
            <Time>2019-08-01T10:24:52.000Z</Time>
            <Position>
              <LatitudeDegrees>40.50352846272289752960205078125</LatitudeDegrees>
              <LongitudeDegrees>-4.05304849147796630859375</LongitudeDegrees>
            </Position>
            <AltitudeMeters>822.20001220703125</AltitudeMeters>
            <DistanceMeters>NAN</DistanceMeters>
          </Trackpoint>
          <Trackpoint>
            <Time>2019-08-01T10:24:53.000Z</Time>
            <Position>
              <LatitudeDegrees>40.5035895667970180511474609375</LatitudeDegrees>
              <LongitudeDegrees>-4.05307958833873271942138671875</LongitudeDegrees>
            </Position>
            <AltitudeMeters>822.4000244140625</AltitudeMeters>
            <DistanceMeters>NAN</DistanceMeters>
          </Trackpoint>
          <Trackpoint>
            <Time>2019-08-01T10:24:54.000Z</Time>
            <Position>
              <LatitudeDegrees>40.50365008413791656494140625</LatitudeDegrees>
              <LongitudeDegrees>-4.053110182285308837890625</LongitudeDegrees>
            </Position>
            <AltitudeMeters>822.79998779296875</AltitudeMeters>
            <DistanceMeters>NAN</DistanceMeters>
          </Trackpoint>
          <Trackpoint>
            <Time>2019-08-01T10:24:55.000Z</Time>
            <Position>
              <LatitudeDegrees>40.5037102662026882171630859375</LatitudeDegrees>
              <LongitudeDegrees>-4.05313859693706035614013671875</LongitudeDegrees>
            </Position>
            <AltitudeMeters>823</AltitudeMeters>
            <DistanceMeters>NAN</DistanceMeters>
          </Trackpoint>
          <Trackpoint>
            <Time>2019-08-01T10:24:56.000Z</Time>
            <Position>
              <LatitudeDegrees>40.503769777715206146240234375</LatitudeDegrees>
              <LongitudeDegrees>-4.0531649999320507049560546875</LongitudeDegrees>
            </Position>
            <AltitudeMeters>823</AltitudeMeters>
            <DistanceMeters>NAN</DistanceMeters>
          </Trackpoint>
          <Trackpoint>
            <Time>2019-08-01T10:24:57.000Z</Time>
            <Position>
              <LatitudeDegrees>40.5038282833993434906005859375</LatitudeDegrees>
              <LongitudeDegrees>-4.05319123528897762298583984375</LongitudeDegrees>
            </Position>
            <AltitudeMeters>823.20001220703125</AltitudeMeters>
            <DistanceMeters>NAN</DistanceMeters>
          </Trackpoint>
          <Trackpoint>
            <Time>2019-08-01T10:24:58.000Z</Time>
            <Position>
              <LatitudeDegrees>40.503885112702846527099609375</LatitudeDegrees>
              <LongitudeDegrees>-4.05321621336042881011962890625</LongitudeDegrees>
            </Position>
            <AltitudeMeters>823.4000244140625</AltitudeMeters>
            <DistanceMeters>NAN</DistanceMeters>
          </Trackpoint>
          <Trackpoint>
            <Time>2019-08-01T10:24:59.000Z</Time>
            <Position>
              <LatitudeDegrees>40.5039417743682861328125</LatitudeDegrees>
              <LongitudeDegrees>-4.05323884449899196624755859375</LongitudeDegrees>
            </Position>
            <AltitudeMeters>823.79998779296875</AltitudeMeters>
            <DistanceMeters>NAN</DistanceMeters>
          </Trackpoint>
          <Trackpoint>
            <Time>2019-08-01T10:25:00.000Z</Time>
            <Position>
              <LatitudeDegrees>40.50399902276694774627685546875</LatitudeDegrees>
              <LongitudeDegrees>-4.05325946398079395294189453125</LongitudeDegrees>
            </Position>
            <AltitudeMeters>824</AltitudeMeters>
            <DistanceMeters>NAN</DistanceMeters>
          </Trackpoint>
          <Trackpoint>
            <Time>2019-08-01T10:25:01.000Z</Time>
            <Position>
              <LatitudeDegrees>40.50405484624207019805908203125</LatitudeDegrees>
              <LongitudeDegrees>-4.0532791614532470703125</LongitudeDegrees>
            </Position>
            <AltitudeMeters>824.20001220703125</AltitudeMeters>
            <DistanceMeters>NAN</DistanceMeters>
          </Trackpoint>
          <Trackpoint>
            <Time>2019-08-01T10:25:02.000Z</Time>
            <Position>
              <LatitudeDegrees>40.504109077155590057373046875</LatitudeDegrees>
              <LongitudeDegrees>-4.0532994456589221954345703125</LongitudeDegrees>
            </Position>
            <AltitudeMeters>824.20001220703125</AltitudeMeters>
            <DistanceMeters>NAN</DistanceMeters>
          </Trackpoint>
          <Trackpoint>
            <Time>2019-08-01T10:25:03.000Z</Time>
            <Position>
              <LatitudeDegrees>40.50416196696460247039794921875</LatitudeDegrees>
              <LongitudeDegrees>-4.05332098715007305145263671875</LongitudeDegrees>
            </Position>
            <AltitudeMeters>824.4000244140625</AltitudeMeters>
            <DistanceMeters>NAN</DistanceMeters>
          </Trackpoint>
          <Trackpoint>
            <Time>2019-08-01T10:25:04.000Z</Time>
            <Position>
              <LatitudeDegrees>40.50421410240232944488525390625</LatitudeDegrees>
              <LongitudeDegrees>-4.0533420257270336151123046875</LongitudeDegrees>
            </Position>
            <AltitudeMeters>824.5999755859375</AltitudeMeters>
            <DistanceMeters>NAN</DistanceMeters>
          </Trackpoint>
          <Trackpoint>
            <Time>2019-08-01T10:25:05.000Z</Time>
            <Position>
              <LatitudeDegrees>40.50426565110683441162109375</LatitudeDegrees>
              <LongitudeDegrees>-4.05336163938045501708984375</LongitudeDegrees>
            </Position>
            <AltitudeMeters>824.79998779296875</AltitudeMeters>
            <DistanceMeters>NAN</DistanceMeters>
          </Trackpoint>
          <Trackpoint>
            <Time>2019-08-01T10:25:06.000Z</Time>
            <Position>
              <LatitudeDegrees>40.50431736744940280914306640625</LatitudeDegrees>
              <LongitudeDegrees>-4.0533792413771152496337890625</LongitudeDegrees>
            </Position>
            <AltitudeMeters>825</AltitudeMeters>
            <DistanceMeters>NAN</DistanceMeters>
          </Trackpoint>
          <Trackpoint>
            <Time>2019-08-01T10:25:07.000Z</Time>
            <Position>
              <LatitudeDegrees>40.50436916761100292205810546875</LatitudeDegrees>
              <LongitudeDegrees>-4.053397513926029205322265625</LongitudeDegrees>
            </Position>
            <AltitudeMeters>825</AltitudeMeters>
            <DistanceMeters>NAN</DistanceMeters>
          </Trackpoint>
          <Trackpoint>
            <Time>2019-08-01T10:25:08.000Z</Time>
            <Position>
              <LatitudeDegrees>40.50442046485841274261474609375</LatitudeDegrees>
              <LongitudeDegrees>-4.0534172952175140380859375</LongitudeDegrees>
            </Position>
            <AltitudeMeters>825.4000244140625</AltitudeMeters>
            <DistanceMeters>NAN</DistanceMeters>
          </Trackpoint>
          <Trackpoint>
            <Time>2019-08-01T10:25:09.000Z</Time>
            <Position>
              <LatitudeDegrees>40.5044720135629177093505859375</LatitudeDegrees>
              <LongitudeDegrees>-4.05343514867126941680908203125</LongitudeDegrees>
            </Position>
            <AltitudeMeters>825.5999755859375</AltitudeMeters>
            <DistanceMeters>NAN</DistanceMeters>
          </Trackpoint>
          <Trackpoint>
            <Time>2019-08-01T10:25:10.000Z</Time>
            <Position>
              <LatitudeDegrees>40.50452322699129581451416015625</LatitudeDegrees>
              <LongitudeDegrees>-4.0534543432295322418212890625</LongitudeDegrees>
            </Position>
            <AltitudeMeters>826</AltitudeMeters>
            <DistanceMeters>NAN</DistanceMeters>
          </Trackpoint>
          <Trackpoint>
            <Time>2019-08-01T10:25:11.000Z</Time>
            <Position>
              <LatitudeDegrees>40.5045749433338642120361328125</LatitudeDegrees>
              <LongitudeDegrees>-4.0534717775881290435791015625</LongitudeDegrees>
            </Position>
            <AltitudeMeters>826.20001220703125</AltitudeMeters>
            <DistanceMeters>NAN</DistanceMeters>
          </Trackpoint>
          <Trackpoint>
            <Time>2019-08-01T10:25:12.000Z</Time>
            <Position>
              <LatitudeDegrees>40.504626072943210601806640625</LatitudeDegrees>
              <LongitudeDegrees>-4.0534895472228527069091796875</LongitudeDegrees>
            </Position>
            <AltitudeMeters>826.5999755859375</AltitudeMeters>
            <DistanceMeters>NAN</DistanceMeters>
          </Trackpoint>
          <Trackpoint>
            <Time>2019-08-01T10:25:13.000Z</Time>
            <Position>
              <LatitudeDegrees>40.504677034914493560791015625</LatitudeDegrees>
              <LongitudeDegrees>-4.0535073168575763702392578125</LongitudeDegrees>
            </Position>
            <AltitudeMeters>826.79998779296875</AltitudeMeters>
            <DistanceMeters>NAN</DistanceMeters>
          </Trackpoint>
          <Trackpoint>
            <Time>2019-08-01T10:25:14.000Z</Time>
            <Position>
              <LatitudeDegrees>40.504727996885776519775390625</LatitudeDegrees>
              <LongitudeDegrees>-4.05352517031133174896240234375</LongitudeDegrees>
            </Position>
            <AltitudeMeters>827</AltitudeMeters>
            <DistanceMeters>NAN</DistanceMeters>
          </Trackpoint>
          <Trackpoint>
            <Time>2019-08-01T10:25:15.000Z</Time>
            <Position>
              <LatitudeDegrees>40.5047786235809326171875</LatitudeDegrees>
              <LongitudeDegrees>-4.05354310758411884307861328125</LongitudeDegrees>
            </Position>
            <AltitudeMeters>827.20001220703125</AltitudeMeters>
            <DistanceMeters>NAN</DistanceMeters>
          </Trackpoint>
          <Trackpoint>
            <Time>2019-08-01T10:25:16.000Z</Time>
            <Position>
              <LatitudeDegrees>40.50482916645705699920654296875</LatitudeDegrees>
              <LongitudeDegrees>-4.05356070958077907562255859375</LongitudeDegrees>
            </Position>
            <AltitudeMeters>827.5999755859375</AltitudeMeters>
            <DistanceMeters>NAN</DistanceMeters>
          </Trackpoint>
          <Trackpoint>
            <Time>2019-08-01T10:25:17.000Z</Time>
            <Position>
              <LatitudeDegrees>40.50487987697124481201171875</LatitudeDegrees>
              <LongitudeDegrees>-4.05357747338712215423583984375</LongitudeDegrees>
            </Position>
            <AltitudeMeters>827.79998779296875</AltitudeMeters>
            <DistanceMeters>NAN</DistanceMeters>
          </Trackpoint>
          <Trackpoint>
            <Time>2019-08-01T10:25:18.000Z</Time>
            <Position>
              <LatitudeDegrees>40.50493025220930576324462890625</LatitudeDegrees>
              <LongitudeDegrees>-4.0535948239266872406005859375</LongitudeDegrees>
            </Position>
            <AltitudeMeters>828</AltitudeMeters>
            <DistanceMeters>NAN</DistanceMeters>
          </Trackpoint>
          <Trackpoint>
            <Time>2019-08-01T10:25:19.000Z</Time>
            <Position>
              <LatitudeDegrees>40.50498037599027156829833984375</LatitudeDegrees>
              <LongitudeDegrees>-4.05361334793269634246826171875</LongitudeDegrees>
            </Position>
            <AltitudeMeters>828.20001220703125</AltitudeMeters>
            <DistanceMeters>NAN</DistanceMeters>
          </Trackpoint>
          <Trackpoint>
            <Time>2019-08-01T10:25:20.000Z</Time>
            <Position>
              <LatitudeDegrees>40.5050309188663959503173828125</LatitudeDegrees>
              <LongitudeDegrees>-4.05363195575773715972900390625</LongitudeDegrees>
            </Position>
            <AltitudeMeters>828.4000244140625</AltitudeMeters>
            <DistanceMeters>NAN</DistanceMeters>
          </Trackpoint>
          <Trackpoint>
            <Time>2019-08-01T10:25:21.000Z</Time>
            <Position>
              <LatitudeDegrees>40.50508179701864719390869140625</LatitudeDegrees>
              <LongitudeDegrees>-4.0536491386592388153076171875</LongitudeDegrees>
            </Position>
            <AltitudeMeters>829</AltitudeMeters>
            <DistanceMeters>NAN</DistanceMeters>
          </Trackpoint>
          <Trackpoint>
            <Time>2019-08-01T10:25:22.000Z</Time>
            <Position>
              <LatitudeDegrees>40.5051326751708984375</LatitudeDegrees>
              <LongitudeDegrees>-4.05366665683686733245849609375</LongitudeDegrees>
            </Position>
            <AltitudeMeters>829.20001220703125</AltitudeMeters>
            <DistanceMeters>NAN</DistanceMeters>
          </Trackpoint>
          <Trackpoint>
            <Time>2019-08-01T10:25:23.000Z</Time>
            <Position>
              <LatitudeDegrees>40.5051834695041179656982421875</LatitudeDegrees>
              <LongitudeDegrees>-4.05368509702384471893310546875</LongitudeDegrees>
            </Position>
            <AltitudeMeters>829.5999755859375</AltitudeMeters>
            <DistanceMeters>NAN</DistanceMeters>
          </Trackpoint>
          <Trackpoint>
            <Time>2019-08-01T10:25:24.000Z</Time>
            <Position>
              <LatitudeDegrees>40.50523367710411548614501953125</LatitudeDegrees>
              <LongitudeDegrees>-4.05370437540113925933837890625</LongitudeDegrees>
            </Position>
            <AltitudeMeters>830</AltitudeMeters>
            <DistanceMeters>NAN</DistanceMeters>
          </Trackpoint>
          <Trackpoint>
            <Time>2019-08-01T10:25:25.000Z</Time>
            <Position>
              <LatitudeDegrees>40.50528413616120815277099609375</LatitudeDegrees>
              <LongitudeDegrees>-4.053723402321338653564453125</LongitudeDegrees>
            </Position>
            <AltitudeMeters>830.20001220703125</AltitudeMeters>
            <DistanceMeters>NAN</DistanceMeters>
          </Trackpoint>
          <Trackpoint>
            <Time>2019-08-01T10:25:26.000Z</Time>
            <Position>
              <LatitudeDegrees>40.5053346790373325347900390625</LatitudeDegrees>
              <LongitudeDegrees>-4.0537413395941257476806640625</LongitudeDegrees>
            </Position>
            <AltitudeMeters>830.4000244140625</AltitudeMeters>
            <DistanceMeters>NAN</DistanceMeters>
          </Trackpoint>
          <Trackpoint>
            <Time>2019-08-01T10:25:27.000Z</Time>
            <Position>
              <LatitudeDegrees>40.5053346790373325347900390625</LatitudeDegrees>
              <LongitudeDegrees>-4.0537413395941257476806640625</LongitudeDegrees>
            </Position>
            <AltitudeMeters>830.5999755859375</AltitudeMeters>
            <DistanceMeters>NAN</DistanceMeters>
          </Trackpoint>
          <Trackpoint>
            <Time>2019-08-01T10:25:28.000Z</Time>
            <Position>
              <LatitudeDegrees>40.505435764789581298828125</LatitudeDegrees>
              <LongitudeDegrees>-4.05377595685422420501708984375</LongitudeDegrees>
            </Position>
            <AltitudeMeters>830.5999755859375</AltitudeMeters>
            <DistanceMeters>NAN</DistanceMeters>
          </Trackpoint>
          <Trackpoint>
            <Time>2019-08-01T10:25:29.000Z</Time>
            <Position>
              <LatitudeDegrees>40.50548647530376911163330078125</LatitudeDegrees>
              <LongitudeDegrees>-4.05379339121282100677490234375</LongitudeDegrees>
            </Position>
            <AltitudeMeters>830.79998779296875</AltitudeMeters>
            <DistanceMeters>NAN</DistanceMeters>
          </Trackpoint>
          <Trackpoint>
            <Time>2019-08-01T10:25:30.000Z</Time>
            <Position>
              <LatitudeDegrees>40.5055368505418300628662109375</LatitudeDegrees>
              <LongitudeDegrees>-4.053811244666576385498046875</LongitudeDegrees>
            </Position>
            <AltitudeMeters>831.20001220703125</AltitudeMeters>
            <DistanceMeters>NAN</DistanceMeters>
          </Trackpoint>
          <Trackpoint>
            <Time>2019-08-01T10:25:31.000Z</Time>
            <Position>
              <LatitudeDegrees>40.505586974322795867919921875</LatitudeDegrees>
              <LongitudeDegrees>-4.05382926575839519500732421875</LongitudeDegrees>
            </Position>
            <AltitudeMeters>831.4000244140625</AltitudeMeters>
            <DistanceMeters>NAN</DistanceMeters>
          </Trackpoint>
          <Trackpoint>
            <Time>2019-08-01T10:25:32.000Z</Time>
            <Position>
              <LatitudeDegrees>40.50563718192279338836669921875</LatitudeDegrees>
              <LongitudeDegrees>-4.053847789764404296875</LongitudeDegrees>
            </Position>
            <AltitudeMeters>831.5999755859375</AltitudeMeters>
            <DistanceMeters>NAN</DistanceMeters>
          </Trackpoint>
          <Trackpoint>
            <Time>2019-08-01T10:25:33.000Z</Time>
            <Position>
              <LatitudeDegrees>40.50568747334182262420654296875</LatitudeDegrees>
              <LongitudeDegrees>-4.053865559399127960205078125</LongitudeDegrees>
            </Position>
            <AltitudeMeters>831.79998779296875</AltitudeMeters>
            <DistanceMeters>NAN</DistanceMeters>
          </Trackpoint>
          <Trackpoint>
            <Time>2019-08-01T10:25:34.000Z</Time>
            <Position>
              <LatitudeDegrees>40.5057373456656932830810546875</LatitudeDegrees>
              <LongitudeDegrees>-4.0538839995861053466796875</LongitudeDegrees>
            </Position>
            <AltitudeMeters>832</AltitudeMeters>
            <DistanceMeters>NAN</DistanceMeters>
          </Trackpoint>
          <Trackpoint>
            <Time>2019-08-01T10:25:35.000Z</Time>
            <Position>
              <LatitudeDegrees>40.5057871341705322265625</LatitudeDegrees>
              <LongitudeDegrees>-4.0539032779633998870849609375</LongitudeDegrees>
            </Position>
            <AltitudeMeters>832.20001220703125</AltitudeMeters>
            <DistanceMeters>NAN</DistanceMeters>
          </Trackpoint>
          <Trackpoint>
            <Time>2019-08-01T10:25:36.000Z</Time>
            <Position>
              <LatitudeDegrees>40.50583700649440288543701171875</LatitudeDegrees>
              <LongitudeDegrees>-4.05392146669328212738037109375</LongitudeDegrees>
            </Position>
            <AltitudeMeters>832.4000244140625</AltitudeMeters>
            <DistanceMeters>NAN</DistanceMeters>
          </Trackpoint>
          <Trackpoint>
            <Time>2019-08-01T10:25:37.000Z</Time>
            <Position>
              <LatitudeDegrees>40.505886711180210113525390625</LatitudeDegrees>
              <LongitudeDegrees>-4.05393940396606922149658203125</LongitudeDegrees>
            </Position>
            <AltitudeMeters>832.5999755859375</AltitudeMeters>
            <DistanceMeters>NAN</DistanceMeters>
          </Trackpoint>
          <Trackpoint>
            <Time>2019-08-01T10:25:38.000Z</Time>
            <Position>
              <LatitudeDegrees>40.50593666732311248779296875</LatitudeDegrees>
              <LongitudeDegrees>-4.05395734123885631561279296875</LongitudeDegrees>
            </Position>
            <AltitudeMeters>832.79998779296875</AltitudeMeters>
            <DistanceMeters>NAN</DistanceMeters>
          </Trackpoint>
          <Trackpoint>
            <Time>2019-08-01T10:25:39.000Z</Time>
            <Position>
              <LatitudeDegrees>40.50598704256117343902587890625</LatitudeDegrees>
              <LongitudeDegrees>-4.0539743565022945404052734375</LongitudeDegrees>
            </Position>
            <AltitudeMeters>833</AltitudeMeters>
            <DistanceMeters>NAN</DistanceMeters>
          </Trackpoint>
          <Trackpoint>
            <Time>2019-08-01T10:25:40.000Z</Time>
            <Position>
              <LatitudeDegrees>40.50603725016117095947265625</LatitudeDegrees>
              <LongitudeDegrees>-4.05399061739444732666015625</LongitudeDegrees>
            </Position>
            <AltitudeMeters>833.20001220703125</AltitudeMeters>
            <DistanceMeters>NAN</DistanceMeters>
          </Trackpoint>
          <Trackpoint>
            <Time>2019-08-01T10:25:41.000Z</Time>
            <Position>
              <LatitudeDegrees>40.50608745776116847991943359375</LatitudeDegrees>
              <LongitudeDegrees>-4.05400914140045642852783203125</LongitudeDegrees>
            </Position>
            <AltitudeMeters>833.4000244140625</AltitudeMeters>
            <DistanceMeters>NAN</DistanceMeters>
          </Trackpoint>
          <Trackpoint>
            <Time>2019-08-01T10:25:42.000Z</Time>
            <Position>
              <LatitudeDegrees>40.50613741390407085418701171875</LatitudeDegrees>
              <LongitudeDegrees>-4.0540286712348461151123046875</LongitudeDegrees>
            </Position>
            <AltitudeMeters>833.5999755859375</AltitudeMeters>
            <DistanceMeters>NAN</DistanceMeters>
          </Trackpoint>
          <Trackpoint>
            <Time>2019-08-01T10:25:43.000Z</Time>
            <Position>
              <LatitudeDegrees>40.506187118589878082275390625</LatitudeDegrees>
              <LongitudeDegrees>-4.054048620164394378662109375</LongitudeDegrees>
            </Position>
            <AltitudeMeters>833.79998779296875</AltitudeMeters>
            <DistanceMeters>NAN</DistanceMeters>
          </Trackpoint>
          <Trackpoint>
            <Time>2019-08-01T10:25:44.000Z</Time>
            <Position>
              <LatitudeDegrees>40.506236739456653594970703125</LatitudeDegrees>
              <LongitudeDegrees>-4.05406781472265720367431640625</LongitudeDegrees>
            </Position>
            <AltitudeMeters>834</AltitudeMeters>
            <DistanceMeters>NAN</DistanceMeters>
          </Trackpoint>
          <Trackpoint>
            <Time>2019-08-01T10:25:45.000Z</Time>
            <Position>
              <LatitudeDegrees>40.506286360323429107666015625</LatitudeDegrees>
              <LongitudeDegrees>-4.05408491380512714385986328125</LongitudeDegrees>
            </Position>
            <AltitudeMeters>834</AltitudeMeters>
            <DistanceMeters>NAN</DistanceMeters>
          </Trackpoint>
          <Trackpoint>
            <Time>2019-08-01T10:25:46.000Z</Time>
            <Position>
              <LatitudeDegrees>40.50633572973310947418212890625</LatitudeDegrees>
              <LongitudeDegrees>-4.0541007556021213531494140625</LongitudeDegrees>
            </Position>
            <AltitudeMeters>834.4000244140625</AltitudeMeters>
            <DistanceMeters>NAN</DistanceMeters>
          </Trackpoint>
          <Trackpoint>
            <Time>2019-08-01T10:25:47.000Z</Time>
            <Position>
              <LatitudeDegrees>40.5063847638666629791259765625</LatitudeDegrees>
              <LongitudeDegrees>-4.0541173517704010009765625</LongitudeDegrees>
            </Position>
            <AltitudeMeters>834.5999755859375</AltitudeMeters>
            <DistanceMeters>NAN</DistanceMeters>
          </Trackpoint>
          <Trackpoint>
            <Time>2019-08-01T10:25:48.000Z</Time>
            <Position>
              <LatitudeDegrees>40.506433881819248199462890625</LatitudeDegrees>
              <LongitudeDegrees>-4.0541359595954418182373046875</LongitudeDegrees>
            </Position>
            <AltitudeMeters>835.20001220703125</AltitudeMeters>
            <DistanceMeters>NAN</DistanceMeters>
          </Trackpoint>
          <Trackpoint>
            <Time>2019-08-01T10:25:49.000Z</Time>
            <Position>
              <LatitudeDegrees>40.50648258067667484283447265625</LatitudeDegrees>
              <LongitudeDegrees>-4.05415465123951435089111328125</LongitudeDegrees>
            </Position>
            <AltitudeMeters>835.4000244140625</AltitudeMeters>
            <DistanceMeters>NAN</DistanceMeters>
          </Trackpoint>
          <Trackpoint>
            <Time>2019-08-01T10:25:50.000Z</Time>
            <Position>
              <LatitudeDegrees>40.50653102807700634002685546875</LatitudeDegrees>
              <LongitudeDegrees>-4.0541728399693965911865234375</LongitudeDegrees>
            </Position>
            <AltitudeMeters>835.5999755859375</AltitudeMeters>
            <DistanceMeters>NAN</DistanceMeters>
          </Trackpoint>
          <Trackpoint>
            <Time>2019-08-01T10:25:51.000Z</Time>
            <Position>
              <LatitudeDegrees>40.5065795592963695526123046875</LatitudeDegrees>
              <LongitudeDegrees>-4.05419153161346912384033203125</LongitudeDegrees>
            </Position>
            <AltitudeMeters>835.79998779296875</AltitudeMeters>
            <DistanceMeters>NAN</DistanceMeters>
          </Trackpoint>
          <Trackpoint>
            <Time>2019-08-01T10:25:52.000Z</Time>
            <Position>
              <LatitudeDegrees>40.5065795592963695526123046875</LatitudeDegrees>
              <LongitudeDegrees>-4.05419153161346912384033203125</LongitudeDegrees>
            </Position>
            <AltitudeMeters>835.79998779296875</AltitudeMeters>
            <DistanceMeters>NAN</DistanceMeters>
          </Trackpoint>
          <Trackpoint>
            <Time>2019-08-01T10:25:53.000Z</Time>
            <Position>
              <LatitudeDegrees>40.50667569972574710845947265625</LatitudeDegrees>
              <LongitudeDegrees>-4.05423159711062908172607421875</LongitudeDegrees>
            </Position>
            <AltitudeMeters>836.20001220703125</AltitudeMeters>
            <DistanceMeters>NAN</DistanceMeters>
          </Trackpoint>
          <Trackpoint>
            <Time>2019-08-01T10:25:54.000Z</Time>
            <Position>
              <LatitudeDegrees>40.5067243985831737518310546875</LatitudeDegrees>
              <LongitudeDegrees>-4.0542523004114627838134765625</LongitudeDegrees>
            </Position>
            <AltitudeMeters>836.20001220703125</AltitudeMeters>
            <DistanceMeters>NAN</DistanceMeters>
          </Trackpoint>
          <Trackpoint>
            <Time>2019-08-01T10:25:55.000Z</Time>
            <Position>
              <LatitudeDegrees>40.5067730136215686798095703125</LatitudeDegrees>
              <LongitudeDegrees>-4.05427350662648677825927734375</LongitudeDegrees>
            </Position>
            <AltitudeMeters>836.4000244140625</AltitudeMeters>
            <DistanceMeters>NAN</DistanceMeters>
          </Trackpoint>
          <Trackpoint>
            <Time>2019-08-01T10:25:56.000Z</Time>
            <Position>
              <LatitudeDegrees>40.5068209581077098846435546875</LatitudeDegrees>
              <LongitudeDegrees>-4.05429496429860591888427734375</LongitudeDegrees>
            </Position>
            <AltitudeMeters>836.4000244140625</AltitudeMeters>
            <DistanceMeters>NAN</DistanceMeters>
          </Trackpoint>
          <Trackpoint>
            <Time>2019-08-01T10:25:57.000Z</Time>
            <Position>
              <LatitudeDegrees>40.50686865113675594329833984375</LatitudeDegrees>
              <LongitudeDegrees>-4.054317511618137359619140625</LongitudeDegrees>
            </Position>
            <AltitudeMeters>836.5999755859375</AltitudeMeters>
            <DistanceMeters>NAN</DistanceMeters>
          </Trackpoint>
          <Trackpoint>
            <Time>2019-08-01T10:25:58.000Z</Time>
            <Position>
              <LatitudeDegrees>40.50691575743257999420166015625</LatitudeDegrees>
              <LongitudeDegrees>-4.0543414838612079620361328125</LongitudeDegrees>
            </Position>
            <AltitudeMeters>837</AltitudeMeters>
            <DistanceMeters>NAN</DistanceMeters>
          </Trackpoint>
          <Trackpoint>
            <Time>2019-08-01T10:25:59.000Z</Time>
            <Position>
              <LatitudeDegrees>40.50696303136646747589111328125</LatitudeDegrees>
              <LongitudeDegrees>-4.05436671338975429534912109375</LongitudeDegrees>
            </Position>
            <AltitudeMeters>837.4000244140625</AltitudeMeters>
            <DistanceMeters>NAN</DistanceMeters>
          </Trackpoint>
          <Trackpoint>
            <Time>2019-08-01T10:26:00.000Z</Time>
            <Position>
              <LatitudeDegrees>40.50701030530035495758056640625</LatitudeDegrees>
              <LongitudeDegrees>-4.054392278194427490234375</LongitudeDegrees>
            </Position>
            <AltitudeMeters>837.5999755859375</AltitudeMeters>
            <DistanceMeters>NAN</DistanceMeters>
          </Trackpoint>
          <Trackpoint>
            <Time>2019-08-01T10:26:01.000Z</Time>
            <Position>
              <LatitudeDegrees>40.5070576630532741546630859375</LatitudeDegrees>
              <LongitudeDegrees>-4.054419100284576416015625</LongitudeDegrees>
            </Position>
            <AltitudeMeters>838</AltitudeMeters>
            <DistanceMeters>NAN</DistanceMeters>
          </Trackpoint>
          <Trackpoint>
            <Time>2019-08-01T10:26:02.000Z</Time>
            <Position>
              <LatitudeDegrees>40.5071042664349079132080078125</LatitudeDegrees>
              <LongitudeDegrees>-4.05444734729826450347900390625</LongitudeDegrees>
            </Position>
            <AltitudeMeters>838.4000244140625</AltitudeMeters>
            <DistanceMeters>NAN</DistanceMeters>
          </Trackpoint>
          <Trackpoint>
            <Time>2019-08-01T10:26:03.000Z</Time>
            <Position>
              <LatitudeDegrees>40.5071501992642879486083984375</LatitudeDegrees>
              <LongitudeDegrees>-4.05447743833065032958984375</LongitudeDegrees>
            </Position>
            <AltitudeMeters>838.79998779296875</AltitudeMeters>
            <DistanceMeters>NAN</DistanceMeters>
          </Trackpoint>
          <Trackpoint>
            <Time>2019-08-01T10:26:04.000Z</Time>
            <Position>
              <LatitudeDegrees>40.50719596445560455322265625</LatitudeDegrees>
              <LongitudeDegrees>-4.05450937338173389434814453125</LongitudeDegrees>
            </Position>
            <AltitudeMeters>839</AltitudeMeters>
            <DistanceMeters>NAN</DistanceMeters>
          </Trackpoint>
          <Trackpoint>
            <Time>2019-08-01T10:26:05.000Z</Time>
            <Position>
              <LatitudeDegrees>40.507241897284984588623046875</LatitudeDegrees>
              <LongitudeDegrees>-4.054543487727642059326171875</LongitudeDegrees>
            </Position>
            <AltitudeMeters>839.20001220703125</AltitudeMeters>
            <DistanceMeters>NAN</DistanceMeters>
          </Trackpoint>
          <Trackpoint>
            <Time>2019-08-01T10:26:06.000Z</Time>
            <Position>
              <LatitudeDegrees>40.50728774629533290863037109375</LatitudeDegrees>
              <LongitudeDegrees>-4.05457877553999423980712890625</LongitudeDegrees>
            </Position>
            <AltitudeMeters>839.4000244140625</AltitudeMeters>
            <DistanceMeters>NAN</DistanceMeters>
          </Trackpoint>
          <Trackpoint>
            <Time>2019-08-01T10:26:07.000Z</Time>
            <Position>
              <LatitudeDegrees>40.50733267329633235931396484375</LatitudeDegrees>
              <LongitudeDegrees>-4.054615236818790435791015625</LongitudeDegrees>
            </Position>
            <AltitudeMeters>839.5999755859375</AltitudeMeters>
            <DistanceMeters>NAN</DistanceMeters>
          </Trackpoint>
          <Trackpoint>
            <Time>2019-08-01T10:26:08.000Z</Time>
            <Position>
              <LatitudeDegrees>40.50737743265926837921142578125</LatitudeDegrees>
              <LongitudeDegrees>-4.0546529553830623626708984375</LongitudeDegrees>
            </Position>
            <AltitudeMeters>839.79998779296875</AltitudeMeters>
            <DistanceMeters>NAN</DistanceMeters>
          </Trackpoint>
          <Trackpoint>
            <Time>2019-08-01T10:26:09.000Z</Time>
            <Position>
              <LatitudeDegrees>40.50742152146995067596435546875</LatitudeDegrees>
              <LongitudeDegrees>-4.0546918474137783050537109375</LongitudeDegrees>
            </Position>
            <AltitudeMeters>840</AltitudeMeters>
            <DistanceMeters>NAN</DistanceMeters>
          </Trackpoint>
          <Trackpoint>
            <Time>2019-08-01T10:26:10.000Z</Time>
            <Position>
              <LatitudeDegrees>40.5074648559093475341796875</LatitudeDegrees>
              <LongitudeDegrees>-4.05473182909190654754638671875</LongitudeDegrees>
            </Position>
            <AltitudeMeters>840.20001220703125</AltitudeMeters>
            <DistanceMeters>NAN</DistanceMeters>
          </Trackpoint>
          <Trackpoint>
            <Time>2019-08-01T10:26:11.000Z</Time>
            <Position>
              <LatitudeDegrees>40.50750718452036380767822265625</LatitudeDegrees>
              <LongitudeDegrees>-4.054773487150669097900390625</LongitudeDegrees>
            </Position>
            <AltitudeMeters>840.20001220703125</AltitudeMeters>
            <DistanceMeters>NAN</DistanceMeters>
          </Trackpoint>
          <Trackpoint>
            <Time>2019-08-01T10:26:12.000Z</Time>
            <Position>
              <LatitudeDegrees>40.50754993222653865814208984375</LatitudeDegrees>
              <LongitudeDegrees>-4.05481598339974880218505859375</LongitudeDegrees>
            </Position>
            <AltitudeMeters>840.4000244140625</AltitudeMeters>
            <DistanceMeters>NAN</DistanceMeters>
          </Trackpoint>
          <Trackpoint>
            <Time>2019-08-01T10:26:13.000Z</Time>
            <Position>
              <LatitudeDegrees>40.507592596113681793212890625</LatitudeDegrees>
              <LongitudeDegrees>-4.05485873110592365264892578125</LongitudeDegrees>
            </Position>
            <AltitudeMeters>840.5999755859375</AltitudeMeters>
            <DistanceMeters>NAN</DistanceMeters>
          </Trackpoint>
          <Trackpoint>
            <Time>2019-08-01T10:26:14.000Z</Time>
            <Position>
              <LatitudeDegrees>40.50763458944857120513916015625</LatitudeDegrees>
              <LongitudeDegrees>-4.05490265227854251861572265625</LongitudeDegrees>
            </Position>
            <AltitudeMeters>841</AltitudeMeters>
            <DistanceMeters>NAN</DistanceMeters>
          </Trackpoint>
          <Trackpoint>
            <Time>2019-08-01T10:26:15.000Z</Time>
            <Position>
              <LatitudeDegrees>40.50767549313604831695556640625</LatitudeDegrees>
              <LongitudeDegrees>-4.05494816601276397705078125</LongitudeDegrees>
            </Position>
            <AltitudeMeters>841</AltitudeMeters>
            <DistanceMeters>NAN</DistanceMeters>
          </Trackpoint>
          <Trackpoint>
            <Time>2019-08-01T10:26:16.000Z</Time>
            <Position>
              <LatitudeDegrees>40.50771572627127170562744140625</LatitudeDegrees>
              <LongitudeDegrees>-4.05499569140374660491943359375</LongitudeDegrees>
            </Position>
            <AltitudeMeters>841.4000244140625</AltitudeMeters>
            <DistanceMeters>NAN</DistanceMeters>
          </Trackpoint>
          <Trackpoint>
            <Time>2019-08-01T10:26:17.000Z</Time>
            <Position>
              <LatitudeDegrees>40.50775612704455852508544921875</LatitudeDegrees>
              <LongitudeDegrees>-4.0550435520708560943603515625</LongitudeDegrees>
            </Position>
            <AltitudeMeters>841.4000244140625</AltitudeMeters>
            <DistanceMeters>NAN</DistanceMeters>
          </Trackpoint>
          <Trackpoint>
            <Time>2019-08-01T10:26:18.000Z</Time>
            <Position>
              <LatitudeDegrees>40.50779585726559162139892578125</LatitudeDegrees>
              <LongitudeDegrees>-4.0550921671092510223388671875</LongitudeDegrees>
            </Position>
            <AltitudeMeters>841.5999755859375</AltitudeMeters>
            <DistanceMeters>NAN</DistanceMeters>
          </Trackpoint>
          <Trackpoint>
            <Time>2019-08-01T10:26:19.000Z</Time>
            <Position>
              <LatitudeDegrees>40.50783508457243442535400390625</LatitudeDegrees>
              <LongitudeDegrees>-4.05514086596667766571044921875</LongitudeDegrees>
            </Position>
            <AltitudeMeters>842</AltitudeMeters>
            <DistanceMeters>NAN</DistanceMeters>
          </Trackpoint>
          <Trackpoint>
            <Time>2019-08-01T10:26:20.000Z</Time>
            <Position>
              <LatitudeDegrees>40.507873557507991790771484375</LatitudeDegrees>
              <LongitudeDegrees>-4.0551910735666751861572265625</LongitudeDegrees>
            </Position>
            <AltitudeMeters>842.20001220703125</AltitudeMeters>
            <DistanceMeters>NAN</DistanceMeters>
          </Trackpoint>
          <Trackpoint>
            <Time>2019-08-01T10:26:21.000Z</Time>
            <Position>
              <LatitudeDegrees>40.50791152752935886383056640625</LatitudeDegrees>
              <LongitudeDegrees>-4.055240191519260406494140625</LongitudeDegrees>
            </Position>
            <AltitudeMeters>842.5999755859375</AltitudeMeters>
            <DistanceMeters>NAN</DistanceMeters>
          </Trackpoint>
          <Trackpoint>
            <Time>2019-08-01T10:26:22.000Z</Time>
            <Position>
              <LatitudeDegrees>40.5079501681029796600341796875</LatitudeDegrees>
              <LongitudeDegrees>-4.0552893094718456268310546875</LongitudeDegrees>
            </Position>
            <AltitudeMeters>842.79998779296875</AltitudeMeters>
            <DistanceMeters>NAN</DistanceMeters>
          </Trackpoint>
          <Trackpoint>
            <Time>2019-08-01T10:26:23.000Z</Time>
            <Position>
              <LatitudeDegrees>40.50799266435205936431884765625</LatitudeDegrees>
              <LongitudeDegrees>-4.055335409939289093017578125</LongitudeDegrees>
            </Position>
            <AltitudeMeters>842.79998779296875</AltitudeMeters>
            <DistanceMeters>NAN</DistanceMeters>
          </Trackpoint>
          <Trackpoint>
            <Time>2019-08-01T10:26:24.000Z</Time>
            <Position>
              <LatitudeDegrees>40.50803943537175655364990234375</LatitudeDegrees>
              <LongitudeDegrees>-4.0553764812648296356201171875</LongitudeDegrees>
            </Position>
            <AltitudeMeters>843.20001220703125</AltitudeMeters>
            <DistanceMeters>NAN</DistanceMeters>
          </Trackpoint>
          <Trackpoint>
            <Time>2019-08-01T10:26:25.000Z</Time>
            <Position>
              <LatitudeDegrees>40.50809056498110294342041015625</LatitudeDegrees>
              <LongitudeDegrees>-4.0554090030491352081298828125</LongitudeDegrees>
            </Position>
            <AltitudeMeters>843</AltitudeMeters>
            <DistanceMeters>NAN</DistanceMeters>
          </Trackpoint>
          <Trackpoint>
            <Time>2019-08-01T10:26:26.000Z</Time>
            <Position>
              <LatitudeDegrees>40.5081436224281787872314453125</LatitudeDegrees>
              <LongitudeDegrees>-4.05543557368218898773193359375</LongitudeDegrees>
            </Position>
            <AltitudeMeters>843.4000244140625</AltitudeMeters>
            <DistanceMeters>NAN</DistanceMeters>
          </Trackpoint>
          <Trackpoint>
            <Time>2019-08-01T10:26:27.000Z</Time>
            <Position>
              <LatitudeDegrees>40.50819768570363521575927734375</LatitudeDegrees>
              <LongitudeDegrees>-4.05545703135430812835693359375</LongitudeDegrees>
            </Position>
            <AltitudeMeters>843.5999755859375</AltitudeMeters>
            <DistanceMeters>NAN</DistanceMeters>
          </Trackpoint>
          <Trackpoint>
            <Time>2019-08-01T10:26:28.000Z</Time>
            <Position>
              <LatitudeDegrees>40.5082495696842670440673828125</LatitudeDegrees>
              <LongitudeDegrees>-4.05547731555998325347900390625</LongitudeDegrees>
            </Position>
            <AltitudeMeters>844</AltitudeMeters>
            <DistanceMeters>NAN</DistanceMeters>
          </Trackpoint>
          <Trackpoint>
            <Time>2019-08-01T10:26:29.000Z</Time>
            <Position>
              <LatitudeDegrees>40.5082990229129791259765625</LatitudeDegrees>
              <LongitudeDegrees>-4.055501706898212432861328125</LongitudeDegrees>
            </Position>
            <AltitudeMeters>844.20001220703125</AltitudeMeters>
            <DistanceMeters>NAN</DistanceMeters>
          </Trackpoint>
          <Trackpoint>
            <Time>2019-08-01T10:26:30.000Z</Time>
            <Position>
              <LatitudeDegrees>40.50834520719945430755615234375</LatitudeDegrees>
              <LongitudeDegrees>-4.0555340610444545745849609375</LongitudeDegrees>
            </Position>
            <AltitudeMeters>844.4000244140625</AltitudeMeters>
            <DistanceMeters>NAN</DistanceMeters>
          </Trackpoint>
          <Trackpoint>
            <Time>2019-08-01T10:26:31.000Z</Time>
            <Position>
              <LatitudeDegrees>40.50838879309594631195068359375</LatitudeDegrees>
              <LongitudeDegrees>-4.055572450160980224609375</LongitudeDegrees>
            </Position>
            <AltitudeMeters>844.5999755859375</AltitudeMeters>
            <DistanceMeters>NAN</DistanceMeters>
          </Trackpoint>
          <Trackpoint>
            <Time>2019-08-01T10:26:32.000Z</Time>
            <Position>
              <LatitudeDegrees>40.50843405537307262420654296875</LatitudeDegrees>
              <LongitudeDegrees>-4.055608995258808135986328125</LongitudeDegrees>
            </Position>
            <AltitudeMeters>845</AltitudeMeters>
            <DistanceMeters>NAN</DistanceMeters>
          </Trackpoint>
          <Trackpoint>
            <Time>2019-08-01T10:26:33.000Z</Time>
            <Position>
              <LatitudeDegrees>40.50848216749727725982666015625</LatitudeDegrees>
              <LongitudeDegrees>-4.05564009211957454681396484375</LongitudeDegrees>
            </Position>
            <AltitudeMeters>845.20001220703125</AltitudeMeters>
            <DistanceMeters>NAN</DistanceMeters>
          </Trackpoint>
          <Trackpoint>
            <Time>2019-08-01T10:26:34.000Z</Time>
            <Position>
              <LatitudeDegrees>40.508532710373401641845703125</LatitudeDegrees>
              <LongitudeDegrees>-4.0556607954204082489013671875</LongitudeDegrees>
            </Position>
            <AltitudeMeters>845.4000244140625</AltitudeMeters>
            <DistanceMeters>NAN</DistanceMeters>
          </Trackpoint>
          <Trackpoint>
            <Time>2019-08-01T10:26:35.000Z</Time>
            <Position>
              <LatitudeDegrees>40.5085860192775726318359375</LatitudeDegrees>
              <LongitudeDegrees>-4.05566741712391376495361328125</LongitudeDegrees>
            </Position>
            <AltitudeMeters>845.5999755859375</AltitudeMeters>
            <DistanceMeters>NAN</DistanceMeters>
          </Trackpoint>
          <Trackpoint>
            <Time>2019-08-01T10:26:36.000Z</Time>
            <Position>
              <LatitudeDegrees>40.50863941200077533721923828125</LatitudeDegrees>
              <LongitudeDegrees>-4.05566322617232799530029296875</LongitudeDegrees>
            </Position>
            <AltitudeMeters>845.79998779296875</AltitudeMeters>
            <DistanceMeters>NAN</DistanceMeters>
          </Trackpoint>
          <Trackpoint>
            <Time>2019-08-01T10:26:37.000Z</Time>
            <Position>
              <LatitudeDegrees>40.5086928047239780426025390625</LatitudeDegrees>
              <LongitudeDegrees>-4.0556520782411098480224609375</LongitudeDegrees>
            </Position>
            <AltitudeMeters>846</AltitudeMeters>
            <DistanceMeters>NAN</DistanceMeters>
          </Trackpoint>
          <Trackpoint>
            <Time>2019-08-01T10:26:38.000Z</Time>
            <Position>
              <LatitudeDegrees>40.5086928047239780426025390625</LatitudeDegrees>
              <LongitudeDegrees>-4.0556520782411098480224609375</LongitudeDegrees>
            </Position>
            <AltitudeMeters>846</AltitudeMeters>
            <DistanceMeters>NAN</DistanceMeters>
          </Trackpoint>
          <Trackpoint>
            <Time>2019-08-01T10:26:39.000Z</Time>
            <Position>
              <LatitudeDegrees>40.50879917107522487640380859375</LatitudeDegrees>
              <LongitudeDegrees>-4.05562684871256351470947265625</LongitudeDegrees>
            </Position>
            <AltitudeMeters>846.4000244140625</AltitudeMeters>
            <DistanceMeters>NAN</DistanceMeters>
          </Trackpoint>
          <Trackpoint>
            <Time>2019-08-01T10:26:40.000Z</Time>
            <Position>
              <LatitudeDegrees>40.508852899074554443359375</LatitudeDegrees>
              <LongitudeDegrees>-4.05561343766748905181884765625</LongitudeDegrees>
            </Position>
            <AltitudeMeters>846.5999755859375</AltitudeMeters>
            <DistanceMeters>NAN</DistanceMeters>
          </Trackpoint>
          <Trackpoint>
            <Time>2019-08-01T10:26:41.000Z</Time>
            <Position>
              <LatitudeDegrees>40.50890696235001087188720703125</LatitudeDegrees>
              <LongitudeDegrees>-4.05559935607016086578369140625</LongitudeDegrees>
            </Position>
            <AltitudeMeters>846.79998779296875</AltitudeMeters>
            <DistanceMeters>NAN</DistanceMeters>
          </Trackpoint>
          <Trackpoint>
            <Time>2019-08-01T10:26:42.000Z</Time>
            <Position>
              <LatitudeDegrees>40.50896127708256244659423828125</LatitudeDegrees>
              <LongitudeDegrees>-4.05558359809219837188720703125</LongitudeDegrees>
            </Position>
            <AltitudeMeters>847</AltitudeMeters>
            <DistanceMeters>NAN</DistanceMeters>
          </Trackpoint>
          <Trackpoint>
            <Time>2019-08-01T10:26:43.000Z</Time>
            <Position>
              <LatitudeDegrees>40.5090160109102725982666015625</LatitudeDegrees>
              <LongitudeDegrees>-4.0555679239332675933837890625</LongitudeDegrees>
            </Position>
            <AltitudeMeters>847</AltitudeMeters>
            <DistanceMeters>NAN</DistanceMeters>
          </Trackpoint>
          <Trackpoint>
            <Time>2019-08-01T10:26:44.000Z</Time>
            <Position>
              <LatitudeDegrees>40.50907158292829990386962890625</LatitudeDegrees>
              <LongitudeDegrees>-4.0555535070598125457763671875</LongitudeDegrees>
            </Position>
            <AltitudeMeters>847.20001220703125</AltitudeMeters>
            <DistanceMeters>NAN</DistanceMeters>
          </Trackpoint>
          <Trackpoint>
            <Time>2019-08-01T10:26:45.000Z</Time>
            <Position>
              <LatitudeDegrees>40.50912690348923206329345703125</LatitudeDegrees>
              <LongitudeDegrees>-4.05553867109119892120361328125</LongitudeDegrees>
            </Position>
            <AltitudeMeters>847.20001220703125</AltitudeMeters>
            <DistanceMeters>NAN</DistanceMeters>
          </Trackpoint>
          <Trackpoint>
            <Time>2019-08-01T10:26:46.000Z</Time>
            <Position>
              <LatitudeDegrees>40.50918205641210079193115234375</LatitudeDegrees>
              <LongitudeDegrees>-4.05552241019904613494873046875</LongitudeDegrees>
            </Position>
            <AltitudeMeters>847.4000244140625</AltitudeMeters>
            <DistanceMeters>NAN</DistanceMeters>
          </Trackpoint>
          <Trackpoint>
            <Time>2019-08-01T10:26:47.000Z</Time>
            <Position>
              <LatitudeDegrees>40.50923737697303295135498046875</LatitudeDegrees>
              <LongitudeDegrees>-4.05550514347851276397705078125</LongitudeDegrees>
            </Position>
            <AltitudeMeters>847.4000244140625</AltitudeMeters>
            <DistanceMeters>NAN</DistanceMeters>
          </Trackpoint>
          <Trackpoint>
            <Time>2019-08-01T10:26:48.000Z</Time>
            <Position>
              <LatitudeDegrees>40.50929269753396511077880859375</LatitudeDegrees>
              <LongitudeDegrees>-4.055487625300884246826171875</LongitudeDegrees>
            </Position>
            <AltitudeMeters>847.5999755859375</AltitudeMeters>
            <DistanceMeters>NAN</DistanceMeters>
          </Trackpoint>
          <Trackpoint>
            <Time>2019-08-01T10:26:49.000Z</Time>
            <Position>
              <LatitudeDegrees>40.50934835337102413177490234375</LatitudeDegrees>
              <LongitudeDegrees>-4.05547077767550945281982421875</LongitudeDegrees>
            </Position>
            <AltitudeMeters>847.5999755859375</AltitudeMeters>
            <DistanceMeters>NAN</DistanceMeters>
          </Trackpoint>
          <Trackpoint>
            <Time>2019-08-01T10:26:50.000Z</Time>
            <Position>
              <LatitudeDegrees>40.5094045959413051605224609375</LatitudeDegrees>
              <LongitudeDegrees>-4.055454432964324951171875</LongitudeDegrees>
            </Position>
            <AltitudeMeters>847.5999755859375</AltitudeMeters>
            <DistanceMeters>NAN</DistanceMeters>
          </Trackpoint>
          <Trackpoint>
            <Time>2019-08-01T10:26:51.000Z</Time>
            <Position>
              <LatitudeDegrees>40.5094629339873790740966796875</LatitudeDegrees>
              <LongitudeDegrees>-4.05543792061507701873779296875</LongitudeDegrees>
            </Position>
            <AltitudeMeters>847.5999755859375</AltitudeMeters>
            <DistanceMeters>NAN</DistanceMeters>
          </Trackpoint>
          <Trackpoint>
            <Time>2019-08-01T10:26:52.000Z</Time>
            <Position>
              <LatitudeDegrees>40.509520433843135833740234375</LatitudeDegrees>
              <LongitudeDegrees>-4.05542023479938507080078125</LongitudeDegrees>
            </Position>
            <AltitudeMeters>847.79998779296875</AltitudeMeters>
            <DistanceMeters>NAN</DistanceMeters>
          </Trackpoint>
          <Trackpoint>
            <Time>2019-08-01T10:26:53.000Z</Time>
            <Position>
              <LatitudeDegrees>40.5095782689750194549560546875</LatitudeDegrees>
              <LongitudeDegrees>-4.05540254898369312286376953125</LongitudeDegrees>
            </Position>
            <AltitudeMeters>848</AltitudeMeters>
            <DistanceMeters>NAN</DistanceMeters>
          </Trackpoint>
          <Trackpoint>
            <Time>2019-08-01T10:26:54.000Z</Time>
            <Position>
              <LatitudeDegrees>40.50963677465915679931640625</LatitudeDegrees>
              <LongitudeDegrees>-4.0553851984441280364990234375</LongitudeDegrees>
            </Position>
            <AltitudeMeters>848</AltitudeMeters>
            <DistanceMeters>NAN</DistanceMeters>
          </Trackpoint>
          <Trackpoint>
            <Time>2019-08-01T10:26:55.000Z</Time>
            <Position>
              <LatitudeDegrees>40.50969536416232585906982421875</LatitudeDegrees>
              <LongitudeDegrees>-4.05536851845681667327880859375</LongitudeDegrees>
            </Position>
            <AltitudeMeters>848</AltitudeMeters>
            <DistanceMeters>NAN</DistanceMeters>
          </Trackpoint>
          <Trackpoint>
            <Time>2019-08-01T10:26:56.000Z</Time>
            <Position>
              <LatitudeDegrees>40.50975454039871692657470703125</LatitudeDegrees>
              <LongitudeDegrees>-4.05535225756466388702392578125</LongitudeDegrees>
            </Position>
            <AltitudeMeters>848.20001220703125</AltitudeMeters>
            <DistanceMeters>NAN</DistanceMeters>
          </Trackpoint>
          <Trackpoint>
            <Time>2019-08-01T10:26:57.000Z</Time>
            <Position>
              <LatitudeDegrees>40.50981388427317142486572265625</LatitudeDegrees>
              <LongitudeDegrees>-4.055336080491542816162109375</LongitudeDegrees>
            </Position>
            <AltitudeMeters>848.4000244140625</AltitudeMeters>
            <DistanceMeters>NAN</DistanceMeters>
          </Trackpoint>
          <Trackpoint>
            <Time>2019-08-01T10:26:58.000Z</Time>
            <Position>
              <LatitudeDegrees>40.5098736472427845001220703125</LatitudeDegrees>
              <LongitudeDegrees>-4.0553211607038974761962890625</LongitudeDegrees>
            </Position>
            <AltitudeMeters>848.4000244140625</AltitudeMeters>
            <DistanceMeters>NAN</DistanceMeters>
          </Trackpoint>
          <Trackpoint>
            <Time>2019-08-01T10:26:59.000Z</Time>
            <Position>
              <LatitudeDegrees>40.50993382930755615234375</LatitudeDegrees>
              <LongitudeDegrees>-4.05530733056366443634033203125</LongitudeDegrees>
            </Position>
            <AltitudeMeters>848.4000244140625</AltitudeMeters>
            <DistanceMeters>NAN</DistanceMeters>
          </Trackpoint>
          <Trackpoint>
            <Time>2019-08-01T10:27:00.000Z</Time>
            <Position>
              <LatitudeDegrees>40.5099941790103912353515625</LatitudeDegrees>
              <LongitudeDegrees>-4.05529241077601909637451171875</LongitudeDegrees>
            </Position>
            <AltitudeMeters>848.4000244140625</AltitudeMeters>
            <DistanceMeters>NAN</DistanceMeters>
          </Trackpoint>
          <Trackpoint>
            <Time>2019-08-01T10:27:02.000Z</Time>
            <Position>
              <LatitudeDegrees>40.5101148784160614013671875</LatitudeDegrees>
              <LongitudeDegrees>-4.0552611462771892547607421875</LongitudeDegrees>
            </Position>
            <AltitudeMeters>849</AltitudeMeters>
            <DistanceMeters>NAN</DistanceMeters>
          </Trackpoint>
          <Trackpoint>
            <Time>2019-08-01T10:27:03.000Z</Time>
            <Position>
              <LatitudeDegrees>40.51017589867115020751953125</LatitudeDegrees>
              <LongitudeDegrees>-4.055245555937290191650390625</LongitudeDegrees>
            </Position>
            <AltitudeMeters>849.20001220703125</AltitudeMeters>
            <DistanceMeters>NAN</DistanceMeters>
          </Trackpoint>
          <Trackpoint>
            <Time>2019-08-01T10:27:04.000Z</Time>
            <Position>
              <LatitudeDegrees>40.5102354101836681365966796875</LatitudeDegrees>
              <LongitudeDegrees>-4.05523004941642284393310546875</LongitudeDegrees>
            </Position>
            <AltitudeMeters>849.20001220703125</AltitudeMeters>
            <DistanceMeters>NAN</DistanceMeters>
          </Trackpoint>
          <Trackpoint>
            <Time>2019-08-01T10:27:05.000Z</Time>
            <Position>
              <LatitudeDegrees>40.51029651425778865814208984375</LatitudeDegrees>
              <LongitudeDegrees>-4.0552155487239360809326171875</LongitudeDegrees>
            </Position>
            <AltitudeMeters>849.20001220703125</AltitudeMeters>
            <DistanceMeters>NAN</DistanceMeters>
          </Trackpoint>
          <Trackpoint>
            <Time>2019-08-01T10:27:06.000Z</Time>
            <Position>
              <LatitudeDegrees>40.51035828888416290283203125</LatitudeDegrees>
              <LongitudeDegrees>-4.05520188622176647186279296875</LongitudeDegrees>
            </Position>
            <AltitudeMeters>849.4000244140625</AltitudeMeters>
            <DistanceMeters>NAN</DistanceMeters>
          </Trackpoint>
          <Trackpoint>
            <Time>2019-08-01T10:27:07.000Z</Time>
            <Position>
              <LatitudeDegrees>40.51041956059634685516357421875</LatitudeDegrees>
              <LongitudeDegrees>-4.0551875531673431396484375</LongitudeDegrees>
            </Position>
            <AltitudeMeters>849.4000244140625</AltitudeMeters>
            <DistanceMeters>NAN</DistanceMeters>
          </Trackpoint>
          <Trackpoint>
            <Time>2019-08-01T10:27:09.000Z</Time>
            <Position>
              <LatitudeDegrees>40.510541684925556182861328125</LatitudeDegrees>
              <LongitudeDegrees>-4.05515737831592559814453125</LongitudeDegrees>
            </Position>
            <AltitudeMeters>849.5999755859375</AltitudeMeters>
            <DistanceMeters>NAN</DistanceMeters>
          </Trackpoint>
          <Trackpoint>
            <Time>2019-08-01T10:27:10.000Z</Time>
            <Position>
              <LatitudeDegrees>40.51060262136161327362060546875</LatitudeDegrees>
              <LongitudeDegrees>-4.0551417879760265350341796875</LongitudeDegrees>
            </Position>
            <AltitudeMeters>849.5999755859375</AltitudeMeters>
            <DistanceMeters>NAN</DistanceMeters>
          </Trackpoint>
          <Trackpoint>
            <Time>2019-08-01T10:27:11.000Z</Time>
            <Position>
              <LatitudeDegrees>40.51066330634057521820068359375</LatitudeDegrees>
              <LongitudeDegrees>-4.0551263652741909027099609375</LongitudeDegrees>
            </Position>
            <AltitudeMeters>849.5999755859375</AltitudeMeters>
            <DistanceMeters>NAN</DistanceMeters>
          </Trackpoint>
          <Trackpoint>
            <Time>2019-08-01T10:27:12.000Z</Time>
            <Position>
              <LatitudeDegrees>40.51072348840534687042236328125</LatitudeDegrees>
              <LongitudeDegrees>-4.05511236749589443206787109375</LongitudeDegrees>
            </Position>
            <AltitudeMeters>849.79998779296875</AltitudeMeters>
            <DistanceMeters>NAN</DistanceMeters>
          </Trackpoint>
          <Trackpoint>
            <Time>2019-08-01T10:27:13.000Z</Time>
            <Position>
              <LatitudeDegrees>40.5107829160988330841064453125</LatitudeDegrees>
              <LongitudeDegrees>-4.055098704993724822998046875</LongitudeDegrees>
            </Position>
            <AltitudeMeters>849.79998779296875</AltitudeMeters>
            <DistanceMeters>NAN</DistanceMeters>
          </Trackpoint>
          <Trackpoint>
            <Time>2019-08-01T10:27:15.000Z</Time>
            <Position>
              <LatitudeDegrees>40.5109034478664398193359375</LatitudeDegrees>
              <LongitudeDegrees>-4.05507096089422702789306640625</LongitudeDegrees>
            </Position>
            <AltitudeMeters>850</AltitudeMeters>
            <DistanceMeters>NAN</DistanceMeters>
          </Trackpoint>
          <Trackpoint>
            <Time>2019-08-01T10:27:16.000Z</Time>
            <Position>
              <LatitudeDegrees>40.51096580922603607177734375</LatitudeDegrees>
              <LongitudeDegrees>-4.0550566278398036956787109375</LongitudeDegrees>
            </Position>
            <AltitudeMeters>850.20001220703125</AltitudeMeters>
            <DistanceMeters>NAN</DistanceMeters>
          </Trackpoint>
          <Trackpoint>
            <Time>2019-08-01T10:27:17.000Z</Time>
            <Position>
              <LatitudeDegrees>40.5110269971191883087158203125</LatitudeDegrees>
              <LongitudeDegrees>-4.05504229478538036346435546875</LongitudeDegrees>
            </Position>
            <AltitudeMeters>850.4000244140625</AltitudeMeters>
            <DistanceMeters>NAN</DistanceMeters>
          </Trackpoint>
          <Trackpoint>
            <Time>2019-08-01T10:27:18.000Z</Time>
            <Position>
              <LatitudeDegrees>40.5110883526504039764404296875</LatitudeDegrees>
              <LongitudeDegrees>-4.05502737499773502349853515625</LongitudeDegrees>
            </Position>
            <AltitudeMeters>850.5999755859375</AltitudeMeters>
            <DistanceMeters>NAN</DistanceMeters>
          </Trackpoint>
          <Trackpoint>
            <Time>2019-08-01T10:27:19.000Z</Time>
            <Position>
              <LatitudeDegrees>40.51114995963871479034423828125</LatitudeDegrees>
              <LongitudeDegrees>-4.0550127066671848297119140625</LongitudeDegrees>
            </Position>
            <AltitudeMeters>850.79998779296875</AltitudeMeters>
            <DistanceMeters>NAN</DistanceMeters>
          </Trackpoint>
          <Trackpoint>
            <Time>2019-08-01T10:27:20.000Z</Time>
            <Position>
              <LatitudeDegrees>40.5112117342650890350341796875</LatitudeDegrees>
              <LongitudeDegrees>-4.05499854125082492828369140625</LongitudeDegrees>
            </Position>
            <AltitudeMeters>851</AltitudeMeters>
            <DistanceMeters>NAN</DistanceMeters>
          </Trackpoint>
          <Trackpoint>
            <Time>2019-08-01T10:27:21.000Z</Time>
            <Position>
              <LatitudeDegrees>40.511273257434368133544921875</LatitudeDegrees>
              <LongitudeDegrees>-4.05498462729156017303466796875</LongitudeDegrees>
            </Position>
            <AltitudeMeters>851.20001220703125</AltitudeMeters>
            <DistanceMeters>NAN</DistanceMeters>
          </Trackpoint>
          <Trackpoint>
            <Time>2019-08-01T10:27:22.000Z</Time>
            <Position>
              <LatitudeDegrees>40.5113354511559009552001953125</LatitudeDegrees>
              <LongitudeDegrees>-4.05496953986585140228271484375</LongitudeDegrees>
            </Position>
            <AltitudeMeters>851.4000244140625</AltitudeMeters>
            <DistanceMeters>NAN</DistanceMeters>
          </Trackpoint>
          <Trackpoint>
            <Time>2019-08-01T10:27:23.000Z</Time>
            <Position>
              <LatitudeDegrees>40.51139689050614833831787109375</LatitudeDegrees>
              <LongitudeDegrees>-4.05495462007820606231689453125</LongitudeDegrees>
            </Position>
            <AltitudeMeters>851.5999755859375</AltitudeMeters>
            <DistanceMeters>NAN</DistanceMeters>
          </Trackpoint>
          <Trackpoint>
            <Time>2019-08-01T10:27:24.000Z</Time>
            <Position>
              <LatitudeDegrees>40.51145933568477630615234375</LatitudeDegrees>
              <LongitudeDegrees>-4.0549399517476558685302734375</LongitudeDegrees>
            </Position>
            <AltitudeMeters>851.5999755859375</AltitudeMeters>
            <DistanceMeters>NAN</DistanceMeters>
          </Trackpoint>
          <Trackpoint>
            <Time>2019-08-01T10:27:25.000Z</Time>
            <Position>
              <LatitudeDegrees>40.511520691215991973876953125</LatitudeDegrees>
              <LongitudeDegrees>-4.05492578633129596710205078125</LongitudeDegrees>
            </Position>
            <AltitudeMeters>851.79998779296875</AltitudeMeters>
            <DistanceMeters>NAN</DistanceMeters>
          </Trackpoint>
          <Trackpoint>
            <Time>2019-08-01T10:27:26.000Z</Time>
            <Position>
              <LatitudeDegrees>40.51158196292817592620849609375</LatitudeDegrees>
              <LongitudeDegrees>-4.05491321347653865814208984375</LongitudeDegrees>
            </Position>
            <AltitudeMeters>851.79998779296875</AltitudeMeters>
            <DistanceMeters>NAN</DistanceMeters>
          </Trackpoint>
          <Trackpoint>
            <Time>2019-08-01T10:27:27.000Z</Time>
            <Position>
              <LatitudeDegrees>40.51164281554520130157470703125</LatitudeDegrees>
              <LongitudeDegrees>-4.054900892078876495361328125</LongitudeDegrees>
            </Position>
            <AltitudeMeters>852</AltitudeMeters>
            <DistanceMeters>NAN</DistanceMeters>
          </Trackpoint>
          <Trackpoint>
            <Time>2019-08-01T10:27:28.000Z</Time>
            <Position>
              <LatitudeDegrees>40.5117035843431949615478515625</LatitudeDegrees>
              <LongitudeDegrees>-4.0548876486718654632568359375</LongitudeDegrees>
            </Position>
            <AltitudeMeters>852</AltitudeMeters>
            <DistanceMeters>NAN</DistanceMeters>
          </Trackpoint>
          <Trackpoint>
            <Time>2019-08-01T10:27:29.000Z</Time>
            <Position>
              <LatitudeDegrees>40.51176385022699832916259765625</LatitudeDegrees>
              <LongitudeDegrees>-4.05487499199807643890380859375</LongitudeDegrees>
            </Position>
            <AltitudeMeters>852</AltitudeMeters>
            <DistanceMeters>NAN</DistanceMeters>
          </Trackpoint>
          <Trackpoint>
            <Time>2019-08-01T10:27:31.000Z</Time>
            <Position>
              <LatitudeDegrees>40.5118849687278270721435546875</LatitudeDegrees>
              <LongitudeDegrees>-4.05485965311527252197265625</LongitudeDegrees>
            </Position>
            <AltitudeMeters>852.20001220703125</AltitudeMeters>
            <DistanceMeters>NAN</DistanceMeters>
          </Trackpoint>
          <Trackpoint>
            <Time>2019-08-01T10:27:32.000Z</Time>
            <Position>
              <LatitudeDegrees>40.5119459889829158782958984375</LatitudeDegrees>
              <LongitudeDegrees>-4.05485638417303562164306640625</LongitudeDegrees>
            </Position>
            <AltitudeMeters>852.4000244140625</AltitudeMeters>
            <DistanceMeters>NAN</DistanceMeters>
          </Trackpoint>
          <Trackpoint>
            <Time>2019-08-01T10:27:33.000Z</Time>
            <Position>
              <LatitudeDegrees>40.5120066739618778228759765625</LatitudeDegrees>
              <LongitudeDegrees>-4.05485470779240131378173828125</LongitudeDegrees>
            </Position>
            <AltitudeMeters>852.5999755859375</AltitudeMeters>
            <DistanceMeters>NAN</DistanceMeters>
          </Trackpoint>
          <Trackpoint>
            <Time>2019-08-01T10:27:34.000Z</Time>
            <Position>
              <LatitudeDegrees>40.512067191302776336669921875</LatitudeDegrees>
              <LongitudeDegrees>-4.0548554621636867523193359375</LongitudeDegrees>
            </Position>
            <AltitudeMeters>852.79998779296875</AltitudeMeters>
            <DistanceMeters>NAN</DistanceMeters>
          </Trackpoint>
          <Trackpoint>
            <Time>2019-08-01T10:27:35.000Z</Time>
            <Position>
              <LatitudeDegrees>40.5121283791959285736083984375</LatitudeDegrees>
              <LongitudeDegrees>-4.05485839582979679107666015625</LongitudeDegrees>
            </Position>
            <AltitudeMeters>853</AltitudeMeters>
            <DistanceMeters>NAN</DistanceMeters>
          </Trackpoint>
          <Trackpoint>
            <Time>2019-08-01T10:27:36.000Z</Time>
            <Position>
              <LatitudeDegrees>40.51218981854617595672607421875</LatitudeDegrees>
              <LongitudeDegrees>-4.054864011704921722412109375</LongitudeDegrees>
            </Position>
            <AltitudeMeters>853</AltitudeMeters>
            <DistanceMeters>NAN</DistanceMeters>
          </Trackpoint>
          <Trackpoint>
            <Time>2019-08-01T10:27:37.000Z</Time>
            <Position>
              <LatitudeDegrees>40.512251593172550201416015625</LatitudeDegrees>
              <LongitudeDegrees>-4.0548708848655223846435546875</LongitudeDegrees>
            </Position>
            <AltitudeMeters>853.20001220703125</AltitudeMeters>
            <DistanceMeters>NAN</DistanceMeters>
          </Trackpoint>
          <Trackpoint>
            <Time>2019-08-01T10:27:38.000Z</Time>
            <Position>
              <LatitudeDegrees>40.512312948703765869140625</LatitudeDegrees>
              <LongitudeDegrees>-4.0548789314925670623779296875</LongitudeDegrees>
            </Position>
            <AltitudeMeters>853.20001220703125</AltitudeMeters>
            <DistanceMeters>NAN</DistanceMeters>
          </Trackpoint>
          <Trackpoint>
            <Time>2019-08-01T10:27:39.000Z</Time>
            <Position>
              <LatitudeDegrees>40.512373633682727813720703125</LatitudeDegrees>
              <LongitudeDegrees>-4.05488739721477031707763671875</LongitudeDegrees>
            </Position>
            <AltitudeMeters>853.4000244140625</AltitudeMeters>
            <DistanceMeters>NAN</DistanceMeters>
          </Trackpoint>
          <Trackpoint>
            <Time>2019-08-01T10:27:40.000Z</Time>
            <Position>
              <LatitudeDegrees>40.51243373192846775054931640625</LatitudeDegrees>
              <LongitudeDegrees>-4.054896533489227294921875</LongitudeDegrees>
            </Position>
            <AltitudeMeters>853.5999755859375</AltitudeMeters>
            <DistanceMeters>NAN</DistanceMeters>
          </Trackpoint>
          <Trackpoint>
            <Time>2019-08-01T10:27:41.000Z</Time>
            <Position>
              <LatitudeDegrees>40.5124934948980808258056640625</LatitudeDegrees>
              <LongitudeDegrees>-4.0549050830304622650146484375</LongitudeDegrees>
            </Position>
            <AltitudeMeters>854</AltitudeMeters>
            <DistanceMeters>NAN</DistanceMeters>
          </Trackpoint>
          <Trackpoint>
            <Time>2019-08-01T10:27:43.000Z</Time>
            <Position>
              <LatitudeDegrees>40.51261209882795810699462890625</LatitudeDegrees>
              <LongitudeDegrees>-4.05492109246551990509033203125</LongitudeDegrees>
            </Position>
            <AltitudeMeters>854.4000244140625</AltitudeMeters>
            <DistanceMeters>NAN</DistanceMeters>
          </Trackpoint>
          <Trackpoint>
            <Time>2019-08-01T10:27:45.000Z</Time>
            <Position>
              <LatitudeDegrees>40.512729696929454803466796875</LatitudeDegrees>
              <LongitudeDegrees>-4.05493584461510181427001953125</LongitudeDegrees>
            </Position>
            <AltitudeMeters>854.79998779296875</AltitudeMeters>
            <DistanceMeters>NAN</DistanceMeters>
          </Trackpoint>
          <Trackpoint>
            <Time>2019-08-01T10:27:46.000Z</Time>
            <Position>
              <LatitudeDegrees>40.51278702914714813232421875</LatitudeDegrees>
              <LongitudeDegrees>-4.054942466318607330322265625</LongitudeDegrees>
            </Position>
            <AltitudeMeters>855</AltitudeMeters>
            <DistanceMeters>NAN</DistanceMeters>
          </Trackpoint>
          <Trackpoint>
            <Time>2019-08-01T10:27:47.000Z</Time>
            <Position>
              <LatitudeDegrees>40.51284276880323886871337890625</LatitudeDegrees>
              <LongitudeDegrees>-4.05494975857436656951904296875</LongitudeDegrees>
            </Position>
            <AltitudeMeters>855</AltitudeMeters>
            <DistanceMeters>NAN</DistanceMeters>
          </Trackpoint>
          <Trackpoint>
            <Time>2019-08-01T10:27:48.000Z</Time>
            <Position>
              <LatitudeDegrees>40.51289808936417102813720703125</LatitudeDegrees>
              <LongitudeDegrees>-4.05495646409690380096435546875</LongitudeDegrees>
            </Position>
            <AltitudeMeters>855.4000244140625</AltitudeMeters>
            <DistanceMeters>NAN</DistanceMeters>
          </Trackpoint>
          <Trackpoint>
            <Time>2019-08-01T10:27:49.000Z</Time>
            <Position>
              <LatitudeDegrees>40.51295290701091289520263671875</LatitudeDegrees>
              <LongitudeDegrees>-4.05496149323880672454833984375</LongitudeDegrees>
            </Position>
            <AltitudeMeters>855.5999755859375</AltitudeMeters>
            <DistanceMeters>NAN</DistanceMeters>
          </Trackpoint>
          <Trackpoint>
            <Time>2019-08-01T10:27:50.000Z</Time>
            <Position>
              <LatitudeDegrees>40.51300655119121074676513671875</LatitudeDegrees>
              <LongitudeDegrees>-4.054967947304248809814453125</LongitudeDegrees>
            </Position>
            <AltitudeMeters>855.79998779296875</AltitudeMeters>
            <DistanceMeters>NAN</DistanceMeters>
          </Trackpoint>
          <Trackpoint>
            <Time>2019-08-01T10:27:51.000Z</Time>
            <Position>
              <LatitudeDegrees>40.51305986009538173675537109375</LatitudeDegrees>
              <LongitudeDegrees>-4.05497523956000804901123046875</LongitudeDegrees>
            </Position>
            <AltitudeMeters>856</AltitudeMeters>
            <DistanceMeters>NAN</DistanceMeters>
          </Trackpoint>
          <Trackpoint>
            <Time>2019-08-01T10:27:52.000Z</Time>
            <Position>
              <LatitudeDegrees>40.51311367191374301910400390625</LatitudeDegrees>
              <LongitudeDegrees>-4.05498110689222812652587890625</LongitudeDegrees>
            </Position>
            <AltitudeMeters>856.4000244140625</AltitudeMeters>
            <DistanceMeters>NAN</DistanceMeters>
          </Trackpoint>
          <Trackpoint>
            <Time>2019-08-01T10:27:53.000Z</Time>
            <Position>
              <LatitudeDegrees>40.51316882483661174774169921875</LatitudeDegrees>
              <LongitudeDegrees>-4.05498697422444820404052734375</LongitudeDegrees>
            </Position>
            <AltitudeMeters>856.79998779296875</AltitudeMeters>
            <DistanceMeters>NAN</DistanceMeters>
          </Trackpoint>
          <Trackpoint>
            <Time>2019-08-01T10:27:54.000Z</Time>
            <Position>
              <LatitudeDegrees>40.51322557032108306884765625</LatitudeDegrees>
              <LongitudeDegrees>-4.05499418266117572784423828125</LongitudeDegrees>
            </Position>
            <AltitudeMeters>857</AltitudeMeters>
            <DistanceMeters>NAN</DistanceMeters>
          </Trackpoint>
          <Trackpoint>
            <Time>2019-08-01T10:27:55.000Z</Time>
            <Position>
              <LatitudeDegrees>40.5132854171097278594970703125</LatitudeDegrees>
              <LongitudeDegrees>-4.05500181019306182861328125</LongitudeDegrees>
            </Position>
            <AltitudeMeters>857.20001220703125</AltitudeMeters>
            <DistanceMeters>NAN</DistanceMeters>
          </Trackpoint>
          <Trackpoint>
            <Time>2019-08-01T10:27:56.000Z</Time>
            <Position>
              <LatitudeDegrees>40.513348281383514404296875</LatitudeDegrees>
              <LongitudeDegrees>-4.0550103597342967987060546875</LongitudeDegrees>
            </Position>
            <AltitudeMeters>857.20001220703125</AltitudeMeters>
            <DistanceMeters>NAN</DistanceMeters>
          </Trackpoint>
          <Trackpoint>
            <Time>2019-08-01T10:27:57.000Z</Time>
            <Position>
              <LatitudeDegrees>40.51341424696147441864013671875</LatitudeDegrees>
              <LongitudeDegrees>-4.055019915103912353515625</LongitudeDegrees>
            </Position>
            <AltitudeMeters>857.4000244140625</AltitudeMeters>
            <DistanceMeters>NAN</DistanceMeters>
          </Trackpoint>
          <Trackpoint>
            <Time>2019-08-01T10:27:58.000Z</Time>
            <Position>
              <LatitudeDegrees>40.51348314620554447174072265625</LatitudeDegrees>
              <LongitudeDegrees>-4.05503005720674991607666015625</LongitudeDegrees>
            </Position>
            <AltitudeMeters>857.4000244140625</AltitudeMeters>
            <DistanceMeters>NAN</DistanceMeters>
          </Trackpoint>
          <Trackpoint>
            <Time>2019-08-01T10:27:59.000Z</Time>
            <Position>
              <LatitudeDegrees>40.51355556584894657135009765625</LatitudeDegrees>
              <LongitudeDegrees>-4.055040366947650909423828125</LongitudeDegrees>
            </Position>
            <AltitudeMeters>857.4000244140625</AltitudeMeters>
            <DistanceMeters>NAN</DistanceMeters>
          </Trackpoint>
          <Trackpoint>
            <Time>2019-08-01T10:28:00.000Z</Time>
            <Position>
              <LatitudeDegrees>40.513630919158458709716796875</LatitudeDegrees>
              <LongitudeDegrees>-4.0550502575933933258056640625</LongitudeDegrees>
            </Position>
            <AltitudeMeters>857.4000244140625</AltitudeMeters>
            <DistanceMeters>NAN</DistanceMeters>
          </Trackpoint>
          <Trackpoint>
            <Time>2019-08-01T10:28:01.000Z</Time>
            <Position>
              <LatitudeDegrees>40.5137078650295734405517578125</LatitudeDegrees>
              <LongitudeDegrees>-4.0550603158771991729736328125</LongitudeDegrees>
            </Position>
            <AltitudeMeters>857.4000244140625</AltitudeMeters>
            <DistanceMeters>NAN</DistanceMeters>
          </Trackpoint>
          <Trackpoint>
            <Time>2019-08-01T10:28:03.000Z</Time>
            <Position>
              <LatitudeDegrees>40.51386720500886440277099609375</LatitudeDegrees>
              <LongitudeDegrees>-4.05508168973028659820556640625</LongitudeDegrees>
            </Position>
            <AltitudeMeters>857.4000244140625</AltitudeMeters>
            <DistanceMeters>NAN</DistanceMeters>
          </Trackpoint>
          <Trackpoint>
            <Time>2019-08-01T10:28:04.000Z</Time>
            <Position>
              <LatitudeDegrees>40.51395068876445293426513671875</LatitudeDegrees>
              <LongitudeDegrees>-4.05509459786117076873779296875</LongitudeDegrees>
            </Position>
            <AltitudeMeters>857.4000244140625</AltitudeMeters>
            <DistanceMeters>NAN</DistanceMeters>
          </Trackpoint>
          <Trackpoint>
            <Time>2019-08-01T10:28:05.000Z</Time>
            <Position>
              <LatitudeDegrees>40.51403484307229518890380859375</LatitudeDegrees>
              <LongitudeDegrees>-4.05510717071592807769775390625</LongitudeDegrees>
            </Position>
            <AltitudeMeters>857.4000244140625</AltitudeMeters>
            <DistanceMeters>NAN</DistanceMeters>
          </Trackpoint>
          <Trackpoint>
            <Time>2019-08-01T10:28:06.000Z</Time>
            <Position>
              <LatitudeDegrees>40.5141220986843109130859375</LatitudeDegrees>
              <LongitudeDegrees>-4.0551193244755268096923828125</LongitudeDegrees>
            </Position>
            <AltitudeMeters>857.4000244140625</AltitudeMeters>
            <DistanceMeters>NAN</DistanceMeters>
          </Trackpoint>
          <Trackpoint>
            <Time>2019-08-01T10:28:07.000Z</Time>
            <Position>
              <LatitudeDegrees>40.51421103067696094512939453125</LatitudeDegrees>
              <LongitudeDegrees>-4.05513189733028411865234375</LongitudeDegrees>
            </Position>
            <AltitudeMeters>857</AltitudeMeters>
            <DistanceMeters>NAN</DistanceMeters>
          </Trackpoint>
          <Trackpoint>
            <Time>2019-08-01T10:28:08.000Z</Time>
            <Position>
              <LatitudeDegrees>40.5143016390502452850341796875</LatitudeDegrees>
              <LongitudeDegrees>-4.0551437996327877044677734375</LongitudeDegrees>
            </Position>
            <AltitudeMeters>856.5999755859375</AltitudeMeters>
            <DistanceMeters>NAN</DistanceMeters>
          </Trackpoint>
          <Trackpoint>
            <Time>2019-08-01T10:28:09.000Z</Time>
            <Position>
              <LatitudeDegrees>40.51439375616610050201416015625</LatitudeDegrees>
              <LongitudeDegrees>-4.0551555342972278594970703125</LongitudeDegrees>
            </Position>
            <AltitudeMeters>856.20001220703125</AltitudeMeters>
            <DistanceMeters>NAN</DistanceMeters>
          </Trackpoint>
          <Trackpoint>
            <Time>2019-08-01T10:28:10.000Z</Time>
            <Position>
              <LatitudeDegrees>40.5144873820245265960693359375</LatitudeDegrees>
              <LongitudeDegrees>-4.0551672689616680145263671875</LongitudeDegrees>
            </Position>
            <AltitudeMeters>855.5999755859375</AltitudeMeters>
            <DistanceMeters>NAN</DistanceMeters>
          </Trackpoint>
          <Trackpoint>
            <Time>2019-08-01T10:28:11.000Z</Time>
            <Position>
              <LatitudeDegrees>40.51458184607326984405517578125</LatitudeDegrees>
              <LongitudeDegrees>-4.05518042854964733123779296875</LongitudeDegrees>
            </Position>
            <AltitudeMeters>855.20001220703125</AltitudeMeters>
            <DistanceMeters>NAN</DistanceMeters>
          </Trackpoint>
          <Trackpoint>
            <Time>2019-08-01T10:28:12.000Z</Time>
            <Position>
              <LatitudeDegrees>40.5146784894168376922607421875</LatitudeDegrees>
              <LongitudeDegrees>-4.0551930852234363555908203125</LongitudeDegrees>
            </Position>
            <AltitudeMeters>855</AltitudeMeters>
            <DistanceMeters>NAN</DistanceMeters>
          </Trackpoint>
          <Trackpoint>
            <Time>2019-08-01T10:28:13.000Z</Time>
            <Position>
              <LatitudeDegrees>40.5147767253220081329345703125</LatitudeDegrees>
              <LongitudeDegrees>-4.0552044846117496490478515625</LongitudeDegrees>
            </Position>
            <AltitudeMeters>854.5999755859375</AltitudeMeters>
            <DistanceMeters>NAN</DistanceMeters>
          </Trackpoint>
          <Trackpoint>
            <Time>2019-08-01T10:28:14.000Z</Time>
            <Position>
              <LatitudeDegrees>40.5148757994174957275390625</LatitudeDegrees>
              <LongitudeDegrees>-4.055216051638126373291015625</LongitudeDegrees>
            </Position>
            <AltitudeMeters>854</AltitudeMeters>
            <DistanceMeters>NAN</DistanceMeters>
          </Trackpoint>
          <Trackpoint>
            <Time>2019-08-01T10:28:15.000Z</Time>
            <Position>
              <LatitudeDegrees>40.514976046979427337646484375</LatitudeDegrees>
              <LongitudeDegrees>-4.05522787012159824371337890625</LongitudeDegrees>
            </Position>
            <AltitudeMeters>853.5999755859375</AltitudeMeters>
            <DistanceMeters>NAN</DistanceMeters>
          </Trackpoint>
          <Trackpoint>
            <Time>2019-08-01T10:28:16.000Z</Time>
            <Position>
              <LatitudeDegrees>40.51507704891264438629150390625</LatitudeDegrees>
              <LongitudeDegrees>-4.05524111352860927581787109375</LongitudeDegrees>
            </Position>
            <AltitudeMeters>853</AltitudeMeters>
            <DistanceMeters>NAN</DistanceMeters>
          </Trackpoint>
          <Trackpoint>
            <Time>2019-08-01T10:28:17.000Z</Time>
            <Position>
              <LatitudeDegrees>40.51517914049327373504638671875</LatitudeDegrees>
              <LongitudeDegrees>-4.0552534349262714385986328125</LongitudeDegrees>
            </Position>
            <AltitudeMeters>852.79998779296875</AltitudeMeters>
            <DistanceMeters>NAN</DistanceMeters>
          </Trackpoint>
          <Trackpoint>
            <Time>2019-08-01T10:28:18.000Z</Time>
            <Position>
              <LatitudeDegrees>40.51528207026422023773193359375</LatitudeDegrees>
              <LongitudeDegrees>-4.0552665106952190399169921875</LongitudeDegrees>
            </Position>
            <AltitudeMeters>852.4000244140625</AltitudeMeters>
            <DistanceMeters>NAN</DistanceMeters>
          </Trackpoint>
          <Trackpoint>
            <Time>2019-08-01T10:28:19.000Z</Time>
            <Position>
              <LatitudeDegrees>40.51538583822548389434814453125</LatitudeDegrees>
              <LongitudeDegrees>-4.05528084374964237213134765625</LongitudeDegrees>
            </Position>
            <AltitudeMeters>852.20001220703125</AltitudeMeters>
            <DistanceMeters>NAN</DistanceMeters>
          </Trackpoint>
          <Trackpoint>
            <Time>2019-08-01T10:28:20.000Z</Time>
            <Position>
              <LatitudeDegrees>40.51549044437706470489501953125</LatitudeDegrees>
              <LongitudeDegrees>-4.055295847356319427490234375</LongitudeDegrees>
            </Position>
            <AltitudeMeters>851.79998779296875</AltitudeMeters>
            <DistanceMeters>NAN</DistanceMeters>
          </Trackpoint>
          <Trackpoint>
            <Time>2019-08-01T10:28:21.000Z</Time>
            <Position>
              <LatitudeDegrees>40.51559530198574066162109375</LatitudeDegrees>
              <LongitudeDegrees>-4.05530967749655246734619140625</LongitudeDegrees>
            </Position>
            <AltitudeMeters>851.4000244140625</AltitudeMeters>
            <DistanceMeters>NAN</DistanceMeters>
          </Trackpoint>
          <Trackpoint>
            <Time>2019-08-01T10:28:22.000Z</Time>
            <Position>
              <LatitudeDegrees>40.515702925622463226318359375</LatitudeDegrees>
              <LongitudeDegrees>-4.055313281714916229248046875</LongitudeDegrees>
            </Position>
            <AltitudeMeters>851</AltitudeMeters>
            <DistanceMeters>NAN</DistanceMeters>
          </Trackpoint>
          <Trackpoint>
            <Time>2019-08-01T10:28:23.000Z</Time>
            <Position>
              <LatitudeDegrees>40.515809543430805206298828125</LatitudeDegrees>
              <LongitudeDegrees>-4.0552889741957187652587890625</LongitudeDegrees>
            </Position>
            <AltitudeMeters>850.4000244140625</AltitudeMeters>
            <DistanceMeters>NAN</DistanceMeters>
          </Trackpoint>
          <Trackpoint>
            <Time>2019-08-01T10:28:24.000Z</Time>
            <Position>
              <LatitudeDegrees>40.51591205410659313201904296875</LatitudeDegrees>
              <LongitudeDegrees>-4.0552353300154209136962890625</LongitudeDegrees>
            </Position>
            <AltitudeMeters>850</AltitudeMeters>
            <DistanceMeters>NAN</DistanceMeters>
          </Trackpoint>
          <Trackpoint>
            <Time>2019-08-01T10:28:25.000Z</Time>
            <Position>
              <LatitudeDegrees>40.51601783372461795806884765625</LatitudeDegrees>
              <LongitudeDegrees>-4.05518579296767711639404296875</LongitudeDegrees>
            </Position>
            <AltitudeMeters>849.5999755859375</AltitudeMeters>
            <DistanceMeters>NAN</DistanceMeters>
          </Trackpoint>
          <Trackpoint>
            <Time>2019-08-01T10:28:26.000Z</Time>
            <Position>
              <LatitudeDegrees>40.51612361334264278411865234375</LatitudeDegrees>
              <LongitudeDegrees>-4.05516835860908031463623046875</LongitudeDegrees>
            </Position>
            <AltitudeMeters>849.4000244140625</AltitudeMeters>
            <DistanceMeters>NAN</DistanceMeters>
          </Trackpoint>
          <Trackpoint>
            <Time>2019-08-01T10:28:27.000Z</Time>
            <Position>
              <LatitudeDegrees>40.51622989587485790252685546875</LatitudeDegrees>
              <LongitudeDegrees>-4.0551743097603321075439453125</LongitudeDegrees>
            </Position>
            <AltitudeMeters>849</AltitudeMeters>
            <DistanceMeters>NAN</DistanceMeters>
          </Trackpoint>
          <Trackpoint>
            <Time>2019-08-01T10:28:28.000Z</Time>
            <Position>
              <LatitudeDegrees>40.51634003408253192901611328125</LatitudeDegrees>
              <LongitudeDegrees>-4.0551612339913845062255859375</LongitudeDegrees>
            </Position>
            <AltitudeMeters>848.79998779296875</AltitudeMeters>
            <DistanceMeters>NAN</DistanceMeters>
          </Trackpoint>
          <Trackpoint>
            <Time>2019-08-01T10:28:29.000Z</Time>
            <Position>
              <LatitudeDegrees>40.51643642596900463104248046875</LatitudeDegrees>
              <LongitudeDegrees>-4.0551045723259449005126953125</LongitudeDegrees>
            </Position>
            <AltitudeMeters>848.5999755859375</AltitudeMeters>
            <DistanceMeters>NAN</DistanceMeters>
          </Trackpoint>
          <Trackpoint>
            <Time>2019-08-01T10:28:30.000Z</Time>
            <Position>
              <LatitudeDegrees>40.51651035435497760772705078125</LatitudeDegrees>
              <LongitudeDegrees>-4.05501362867653369903564453125</LongitudeDegrees>
            </Position>
            <AltitudeMeters>848.20001220703125</AltitudeMeters>
            <DistanceMeters>NAN</DistanceMeters>
          </Trackpoint>
          <Trackpoint>
            <Time>2019-08-01T10:28:31.000Z</Time>
            <Position>
              <LatitudeDegrees>40.51657590083777904510498046875</LatitudeDegrees>
              <LongitudeDegrees>-4.0549077652394771575927734375</LongitudeDegrees>
            </Position>
            <AltitudeMeters>847.20001220703125</AltitudeMeters>
            <DistanceMeters>NAN</DistanceMeters>
          </Trackpoint>
          <Trackpoint>
            <Time>2019-08-01T10:28:32.000Z</Time>
            <Position>
              <LatitudeDegrees>40.51664144732058048248291015625</LatitudeDegrees>
              <LongitudeDegrees>-4.05480106361210346221923828125</LongitudeDegrees>
            </Position>
            <AltitudeMeters>846.20001220703125</AltitudeMeters>
            <DistanceMeters>NAN</DistanceMeters>
          </Trackpoint>
          <Trackpoint>
            <Time>2019-08-01T10:28:33.000Z</Time>
            <Position>
              <LatitudeDegrees>40.51670917309820652008056640625</LatitudeDegrees>
              <LongitudeDegrees>-4.05468933284282684326171875</LongitudeDegrees>
            </Position>
            <AltitudeMeters>845.79998779296875</AltitudeMeters>
            <DistanceMeters>NAN</DistanceMeters>
          </Trackpoint>
          <Trackpoint>
            <Time>2019-08-01T10:28:34.000Z</Time>
            <Position>
              <LatitudeDegrees>40.51677455194294452667236328125</LatitudeDegrees>
              <LongitudeDegrees>-4.054579697549343109130859375</LongitudeDegrees>
            </Position>
            <AltitudeMeters>845.4000244140625</AltitudeMeters>
            <DistanceMeters>NAN</DistanceMeters>
          </Trackpoint>
          <Trackpoint>
            <Time>2019-08-01T10:28:35.000Z</Time>
            <Position>
              <LatitudeDegrees>40.51683984696865081787109375</LatitudeDegrees>
              <LongitudeDegrees>-4.05447207391262054443359375</LongitudeDegrees>
            </Position>
            <AltitudeMeters>845.20001220703125</AltitudeMeters>
            <DistanceMeters>NAN</DistanceMeters>
          </Trackpoint>
          <Trackpoint>
            <Time>2019-08-01T10:28:37.000Z</Time>
            <Position>
              <LatitudeDegrees>40.516974627971649169921875</LatitudeDegrees>
              <LongitudeDegrees>-4.05426931567490100860595703125</LongitudeDegrees>
            </Position>
            <AltitudeMeters>844.4000244140625</AltitudeMeters>
            <DistanceMeters>NAN</DistanceMeters>
          </Trackpoint>
          <Trackpoint>
            <Time>2019-08-01T10:28:38.000Z</Time>
            <Position>
              <LatitudeDegrees>40.5170431919395923614501953125</LatitudeDegrees>
              <LongitudeDegrees>-4.05417610891163349151611328125</LongitudeDegrees>
            </Position>
            <AltitudeMeters>844.4000244140625</AltitudeMeters>
            <DistanceMeters>NAN</DistanceMeters>
          </Trackpoint>
          <Trackpoint>
            <Time>2019-08-01T10:28:39.000Z</Time>
            <Position>
              <LatitudeDegrees>40.5171115882694721221923828125</LatitudeDegrees>
              <LongitudeDegrees>-4.0540873445570468902587890625</LongitudeDegrees>
            </Position>
            <AltitudeMeters>844.4000244140625</AltitudeMeters>
            <DistanceMeters>NAN</DistanceMeters>
          </Trackpoint>
          <Trackpoint>
            <Time>2019-08-01T10:28:40.000Z</Time>
            <Position>
              <LatitudeDegrees>40.5171776376664638519287109375</LatitudeDegrees>
              <LongitudeDegrees>-4.05400025658309459686279296875</LongitudeDegrees>
            </Position>
            <AltitudeMeters>844.20001220703125</AltitudeMeters>
            <DistanceMeters>NAN</DistanceMeters>
          </Trackpoint>
          <Trackpoint>
            <Time>2019-08-01T10:28:41.000Z</Time>
            <Position>
              <LatitudeDegrees>40.51724125631153583526611328125</LatitudeDegrees>
              <LongitudeDegrees>-4.0539163537323474884033203125</LongitudeDegrees>
            </Position>
            <AltitudeMeters>844.20001220703125</AltitudeMeters>
            <DistanceMeters>NAN</DistanceMeters>
          </Trackpoint>
          <Trackpoint>
            <Time>2019-08-01T10:28:42.000Z</Time>
            <Position>
              <LatitudeDegrees>40.51730345003306865692138671875</LatitudeDegrees>
              <LongitudeDegrees>-4.05383504927158355712890625</LongitudeDegrees>
            </Position>
            <AltitudeMeters>844.20001220703125</AltitudeMeters>
            <DistanceMeters>NAN</DistanceMeters>
          </Trackpoint>
          <Trackpoint>
            <Time>2019-08-01T10:28:43.000Z</Time>
            <Position>
              <LatitudeDegrees>40.51736279390752315521240234375</LatitudeDegrees>
              <LongitudeDegrees>-4.05375667847692966461181640625</LongitudeDegrees>
            </Position>
            <AltitudeMeters>844.20001220703125</AltitudeMeters>
            <DistanceMeters>NAN</DistanceMeters>
          </Trackpoint>
          <Trackpoint>
            <Time>2019-08-01T10:28:44.000Z</Time>
            <Position>
              <LatitudeDegrees>40.5174212157726287841796875</LatitudeDegrees>
              <LongitudeDegrees>-4.0536801517009735107421875</LongitudeDegrees>
            </Position>
            <AltitudeMeters>844.20001220703125</AltitudeMeters>
            <DistanceMeters>NAN</DistanceMeters>
          </Trackpoint>
          <Trackpoint>
            <Time>2019-08-01T10:28:45.000Z</Time>
            <Position>
              <LatitudeDegrees>40.51747712306678295135498046875</LatitudeDegrees>
              <LongitudeDegrees>-4.053605385124683380126953125</LongitudeDegrees>
            </Position>
            <AltitudeMeters>844.20001220703125</AltitudeMeters>
            <DistanceMeters>NAN</DistanceMeters>
          </Trackpoint>
          <Trackpoint>
            <Time>2019-08-01T10:28:46.000Z</Time>
            <Position>
              <LatitudeDegrees>40.51753076724708080291748046875</LatitudeDegrees>
              <LongitudeDegrees>-4.05353221110999584197998046875</LongitudeDegrees>
            </Position>
            <AltitudeMeters>844.20001220703125</AltitudeMeters>
            <DistanceMeters>NAN</DistanceMeters>
          </Trackpoint>
          <Trackpoint>
            <Time>2019-08-01T10:28:47.000Z</Time>
            <Position>
              <LatitudeDegrees>40.51758307032287120819091796875</LatitudeDegrees>
              <LongitudeDegrees>-4.05346347950398921966552734375</LongitudeDegrees>
            </Position>
            <AltitudeMeters>844.20001220703125</AltitudeMeters>
            <DistanceMeters>NAN</DistanceMeters>
          </Trackpoint>
          <Trackpoint>
            <Time>2019-08-01T10:28:50.000Z</Time>
            <Position>
              <LatitudeDegrees>40.517739392817020416259765625</LatitudeDegrees>
              <LongitudeDegrees>-4.05327321030199527740478515625</LongitudeDegrees>
            </Position>
            <AltitudeMeters>844.20001220703125</AltitudeMeters>
            <DistanceMeters>NAN</DistanceMeters>
          </Trackpoint>
          <Trackpoint>
            <Time>2019-08-01T10:28:51.000Z</Time>
            <Position>
              <LatitudeDegrees>40.517791025340557098388671875</LatitudeDegrees>
              <LongitudeDegrees>-4.0532159619033336639404296875</LongitudeDegrees>
            </Position>
            <AltitudeMeters>844.79998779296875</AltitudeMeters>
            <DistanceMeters>NAN</DistanceMeters>
          </Trackpoint>
          <Trackpoint>
            <Time>2019-08-01T10:28:52.000Z</Time>
            <Position>
              <LatitudeDegrees>40.51784190349280834197998046875</LatitudeDegrees>
              <LongitudeDegrees>-4.05316122807562351226806640625</LongitudeDegrees>
            </Position>
            <AltitudeMeters>845.5999755859375</AltitudeMeters>
            <DistanceMeters>NAN</DistanceMeters>
          </Trackpoint>
          <Trackpoint>
            <Time>2019-08-01T10:28:53.000Z</Time>
            <Position>
              <LatitudeDegrees>40.51789236254990100860595703125</LatitudeDegrees>
              <LongitudeDegrees>-4.05310808680951595306396484375</LongitudeDegrees>
            </Position>
            <AltitudeMeters>846.20001220703125</AltitudeMeters>
            <DistanceMeters>NAN</DistanceMeters>
          </Trackpoint>
          <Trackpoint>
            <Time>2019-08-01T10:28:54.000Z</Time>
            <Position>
              <LatitudeDegrees>40.51794382743537425994873046875</LatitudeDegrees>
              <LongitudeDegrees>-4.05305813066661357879638671875</LongitudeDegrees>
            </Position>
            <AltitudeMeters>846.5999755859375</AltitudeMeters>
            <DistanceMeters>NAN</DistanceMeters>
          </Trackpoint>
          <Trackpoint>
            <Time>2019-08-01T10:28:56.000Z</Time>
            <Position>
              <LatitudeDegrees>40.51804843358695507049560546875</LatitudeDegrees>
              <LongitudeDegrees>-4.0529604814946651458740234375</LongitudeDegrees>
            </Position>
            <AltitudeMeters>847.5999755859375</AltitudeMeters>
            <DistanceMeters>NAN</DistanceMeters>
          </Trackpoint>
          <Trackpoint>
            <Time>2019-08-01T10:28:57.000Z</Time>
            <Position>
              <LatitudeDegrees>40.51810090430080890655517578125</LatitudeDegrees>
              <LongitudeDegrees>-4.05291228555142879486083984375</LongitudeDegrees>
            </Position>
            <AltitudeMeters>847.79998779296875</AltitudeMeters>
            <DistanceMeters>NAN</DistanceMeters>
          </Trackpoint>
          <Trackpoint>
            <Time>2019-08-01T10:28:58.000Z</Time>
            <Position>
              <LatitudeDegrees>40.51815387792885303497314453125</LatitudeDegrees>
              <LongitudeDegrees>-4.05286367051303386688232421875</LongitudeDegrees>
            </Position>
            <AltitudeMeters>848.20001220703125</AltitudeMeters>
            <DistanceMeters>NAN</DistanceMeters>
          </Trackpoint>
          <Trackpoint>
            <Time>2019-08-01T10:28:59.000Z</Time>
            <Position>
              <LatitudeDegrees>40.518206097185611724853515625</LatitudeDegrees>
              <LongitudeDegrees>-4.05281522311270236968994140625</LongitudeDegrees>
            </Position>
            <AltitudeMeters>848.4000244140625</AltitudeMeters>
            <DistanceMeters>NAN</DistanceMeters>
          </Trackpoint>
          <Trackpoint>
            <Time>2019-08-01T10:29:00.000Z</Time>
            <Position>
              <LatitudeDegrees>40.5182578973472118377685546875</LatitudeDegrees>
              <LongitudeDegrees>-4.052766524255275726318359375</LongitudeDegrees>
            </Position>
            <AltitudeMeters>848.5999755859375</AltitudeMeters>
            <DistanceMeters>NAN</DistanceMeters>
          </Trackpoint>
          <Trackpoint>
            <Time>2019-08-01T10:29:01.000Z</Time>
            <Position>
              <LatitudeDegrees>40.51830978132784366607666015625</LatitudeDegrees>
              <LongitudeDegrees>-4.05271656811237335205078125</LongitudeDegrees>
            </Position>
            <AltitudeMeters>849.20001220703125</AltitudeMeters>
            <DistanceMeters>NAN</DistanceMeters>
          </Trackpoint>
          <Trackpoint>
            <Time>2019-08-01T10:29:02.000Z</Time>
            <Position>
              <LatitudeDegrees>40.51836174912750720977783203125</LatitudeDegrees>
              <LongitudeDegrees>-4.05266694724559783935546875</LongitudeDegrees>
            </Position>
            <AltitudeMeters>849.5999755859375</AltitudeMeters>
            <DistanceMeters>NAN</DistanceMeters>
          </Trackpoint>
          <Trackpoint>
            <Time>2019-08-01T10:29:03.000Z</Time>
            <Position>
              <LatitudeDegrees>40.51841153763234615325927734375</LatitudeDegrees>
              <LongitudeDegrees>-4.05261623673141002655029296875</LongitudeDegrees>
            </Position>
            <AltitudeMeters>850.20001220703125</AltitudeMeters>
            <DistanceMeters>NAN</DistanceMeters>
          </Trackpoint>
          <Trackpoint>
            <Time>2019-08-01T10:29:04.000Z</Time>
            <Position>
              <LatitudeDegrees>40.5184600688517093658447265625</LatitudeDegrees>
              <LongitudeDegrees>-4.0525616705417633056640625</LongitudeDegrees>
            </Position>
            <AltitudeMeters>850.5999755859375</AltitudeMeters>
            <DistanceMeters>NAN</DistanceMeters>
          </Trackpoint>
          <Trackpoint>
            <Time>2019-08-01T10:29:05.000Z</Time>
            <Position>
              <LatitudeDegrees>40.51850675605237483978271484375</LatitudeDegrees>
              <LongitudeDegrees>-4.0525038354098796844482421875</LongitudeDegrees>
            </Position>
            <AltitudeMeters>850.79998779296875</AltitudeMeters>
            <DistanceMeters>NAN</DistanceMeters>
          </Trackpoint>
          <Trackpoint>
            <Time>2019-08-01T10:29:06.000Z</Time>
            <Position>
              <LatitudeDegrees>40.5185519345104694366455078125</LatitudeDegrees>
              <LongitudeDegrees>-4.0524428151547908782958984375</LongitudeDegrees>
            </Position>
            <AltitudeMeters>851</AltitudeMeters>
            <DistanceMeters>NAN</DistanceMeters>
          </Trackpoint>
          <Trackpoint>
            <Time>2019-08-01T10:29:07.000Z</Time>
            <Position>
              <LatitudeDegrees>40.51859401166439056396484375</LatitudeDegrees>
              <LongitudeDegrees>-4.052377603948116302490234375</LongitudeDegrees>
            </Position>
            <AltitudeMeters>851.20001220703125</AltitudeMeters>
            <DistanceMeters>NAN</DistanceMeters>
          </Trackpoint>
          <Trackpoint>
            <Time>2019-08-01T10:29:08.000Z</Time>
            <Position>
              <LatitudeDegrees>40.51863064058125019073486328125</LatitudeDegrees>
              <LongitudeDegrees>-4.05230619013309478759765625</LongitudeDegrees>
            </Position>
            <AltitudeMeters>851.20001220703125</AltitudeMeters>
            <DistanceMeters>NAN</DistanceMeters>
          </Trackpoint>
          <Trackpoint>
            <Time>2019-08-01T10:29:09.000Z</Time>
            <Position>
              <LatitudeDegrees>40.51866031251847743988037109375</LatitudeDegrees>
              <LongitudeDegrees>-4.05222966335713863372802734375</LongitudeDegrees>
            </Position>
            <AltitudeMeters>851.4000244140625</AltitudeMeters>
            <DistanceMeters>NAN</DistanceMeters>
          </Trackpoint>
          <Trackpoint>
            <Time>2019-08-01T10:29:10.000Z</Time>
            <Position>
              <LatitudeDegrees>40.51868394948542118072509765625</LatitudeDegrees>
              <LongitudeDegrees>-4.0521507896482944488525390625</LongitudeDegrees>
            </Position>
            <AltitudeMeters>851.5999755859375</AltitudeMeters>
            <DistanceMeters>NAN</DistanceMeters>
          </Trackpoint>
          <Trackpoint>
            <Time>2019-08-01T10:29:11.000Z</Time>
            <Position>
              <LatitudeDegrees>40.5187059938907623291015625</LatitudeDegrees>
              <LongitudeDegrees>-4.052070491015911102294921875</LongitudeDegrees>
            </Position>
            <AltitudeMeters>851.79998779296875</AltitudeMeters>
            <DistanceMeters>NAN</DistanceMeters>
          </Trackpoint>
          <Trackpoint>
            <Time>2019-08-01T10:29:12.000Z</Time>
            <Position>
              <LatitudeDegrees>40.5187259428203105926513671875</LatitudeDegrees>
              <LongitudeDegrees>-4.051988683640956878662109375</LongitudeDegrees>
            </Position>
            <AltitudeMeters>852</AltitudeMeters>
            <DistanceMeters>NAN</DistanceMeters>
          </Trackpoint>
          <Trackpoint>
            <Time>2019-08-01T10:29:13.000Z</Time>
            <Position>
              <LatitudeDegrees>40.5187427066266536712646484375</LatitudeDegrees>
              <LongitudeDegrees>-4.05190612189471721649169921875</LongitudeDegrees>
            </Position>
            <AltitudeMeters>852.20001220703125</AltitudeMeters>
            <DistanceMeters>NAN</DistanceMeters>
          </Trackpoint>
          <Trackpoint>
            <Time>2019-08-01T10:29:14.000Z</Time>
            <Position>
              <LatitudeDegrees>40.518755614757537841796875</LatitudeDegrees>
              <LongitudeDegrees>-4.0518249012529850006103515625</LongitudeDegrees>
            </Position>
            <AltitudeMeters>852.4000244140625</AltitudeMeters>
            <DistanceMeters>NAN</DistanceMeters>
          </Trackpoint>
          <Trackpoint>
            <Time>2019-08-01T10:29:15.000Z</Time>
            <Position>
              <LatitudeDegrees>40.5187671817839145660400390625</LatitudeDegrees>
              <LongitudeDegrees>-4.05174368061125278472900390625</LongitudeDegrees>
            </Position>
            <AltitudeMeters>852.5999755859375</AltitudeMeters>
            <DistanceMeters>NAN</DistanceMeters>
          </Trackpoint>
          <Trackpoint>
            <Time>2019-08-01T10:29:16.000Z</Time>
            <Position>
              <LatitudeDegrees>40.518777407705783843994140625</LatitudeDegrees>
              <LongitudeDegrees>-4.05166338197886943817138671875</LongitudeDegrees>
            </Position>
            <AltitudeMeters>852.5999755859375</AltitudeMeters>
            <DistanceMeters>NAN</DistanceMeters>
          </Trackpoint>
          <Trackpoint>
            <Time>2019-08-01T10:29:17.000Z</Time>
            <Position>
              <LatitudeDegrees>40.51878620870411396026611328125</LatitudeDegrees>
              <LongitudeDegrees>-4.0515845082700252532958984375</LongitudeDegrees>
            </Position>
            <AltitudeMeters>852.79998779296875</AltitudeMeters>
            <DistanceMeters>NAN</DistanceMeters>
          </Trackpoint>
          <Trackpoint>
            <Time>2019-08-01T10:29:18.000Z</Time>
            <Position>
              <LatitudeDegrees>40.51879459060728549957275390625</LatitudeDegrees>
              <LongitudeDegrees>-4.0515063889324665069580078125</LongitudeDegrees>
            </Position>
            <AltitudeMeters>853</AltitudeMeters>
            <DistanceMeters>NAN</DistanceMeters>
          </Trackpoint>
          <Trackpoint>
            <Time>2019-08-01T10:29:19.000Z</Time>
            <Position>
              <LatitudeDegrees>40.518802218139171600341796875</LatitudeDegrees>
              <LongitudeDegrees>-4.05142969451844692230224609375</LongitudeDegrees>
            </Position>
            <AltitudeMeters>853.20001220703125</AltitudeMeters>
            <DistanceMeters>NAN</DistanceMeters>
          </Trackpoint>
          <Trackpoint>
            <Time>2019-08-01T10:29:20.000Z</Time>
            <Position>
              <LatitudeDegrees>40.51881001330912113189697265625</LatitudeDegrees>
              <LongitudeDegrees>-4.05135358683764934539794921875</LongitudeDegrees>
            </Position>
            <AltitudeMeters>853.20001220703125</AltitudeMeters>
            <DistanceMeters>NAN</DistanceMeters>
          </Trackpoint>
          <Trackpoint>
            <Time>2019-08-01T10:29:21.000Z</Time>
            <Position>
              <LatitudeDegrees>40.51881822757422924041748046875</LatitudeDegrees>
              <LongitudeDegrees>-4.051277898252010345458984375</LongitudeDegrees>
            </Position>
            <AltitudeMeters>853.4000244140625</AltitudeMeters>
            <DistanceMeters>NAN</DistanceMeters>
          </Trackpoint>
          <Trackpoint>
            <Time>2019-08-01T10:29:22.000Z</Time>
            <Position>
              <LatitudeDegrees>40.51882778294384479522705078125</LatitudeDegrees>
              <LongitudeDegrees>-4.0512032993137836456298828125</LongitudeDegrees>
            </Position>
            <AltitudeMeters>853.20001220703125</AltitudeMeters>
            <DistanceMeters>NAN</DistanceMeters>
          </Trackpoint>
          <Trackpoint>
            <Time>2019-08-01T10:29:23.000Z</Time>
            <Position>
              <LatitudeDegrees>40.51883750595152378082275390625</LatitudeDegrees>
              <LongitudeDegrees>-4.05112895183265209197998046875</LongitudeDegrees>
            </Position>
            <AltitudeMeters>853.5999755859375</AltitudeMeters>
            <DistanceMeters>NAN</DistanceMeters>
          </Trackpoint>
          <Trackpoint>
            <Time>2019-08-01T10:29:24.000Z</Time>
            <Position>
              <LatitudeDegrees>40.51884991116821765899658203125</LatitudeDegrees>
              <LongitudeDegrees>-4.05105552636086940765380859375</LongitudeDegrees>
            </Position>
            <AltitudeMeters>853.79998779296875</AltitudeMeters>
            <DistanceMeters>NAN</DistanceMeters>
          </Trackpoint>
          <Trackpoint>
            <Time>2019-08-01T10:29:25.000Z</Time>
            <Position>
              <LatitudeDegrees>40.51886298693716526031494140625</LatitudeDegrees>
              <LongitudeDegrees>-4.05098360963165760040283203125</LongitudeDegrees>
            </Position>
            <AltitudeMeters>853.79998779296875</AltitudeMeters>
            <DistanceMeters>NAN</DistanceMeters>
          </Trackpoint>
          <Trackpoint>
            <Time>2019-08-01T10:29:26.000Z</Time>
            <Position>
              <LatitudeDegrees>40.51887991838157176971435546875</LatitudeDegrees>
              <LongitudeDegrees>-4.05091219581663608551025390625</LongitudeDegrees>
            </Position>
            <AltitudeMeters>854</AltitudeMeters>
            <DistanceMeters>NAN</DistanceMeters>
          </Trackpoint>
          <Trackpoint>
            <Time>2019-08-01T10:29:27.000Z</Time>
            <Position>
              <LatitudeDegrees>40.518898777663707733154296875</LatitudeDegrees>
              <LongitudeDegrees>-4.0508415363729000091552734375</LongitudeDegrees>
            </Position>
            <AltitudeMeters>853.79998779296875</AltitudeMeters>
            <DistanceMeters>NAN</DistanceMeters>
          </Trackpoint>
          <Trackpoint>
            <Time>2019-08-01T10:29:28.000Z</Time>
            <Position>
              <LatitudeDegrees>40.51891964860260486602783203125</LatitudeDegrees>
              <LongitudeDegrees>-4.05077188275754451751708984375</LongitudeDegrees>
            </Position>
            <AltitudeMeters>854</AltitudeMeters>
            <DistanceMeters>NAN</DistanceMeters>
          </Trackpoint>
          <Trackpoint>
            <Time>2019-08-01T10:29:29.000Z</Time>
            <Position>
              <LatitudeDegrees>40.5189420282840728759765625</LatitudeDegrees>
              <LongitudeDegrees>-4.05070298351347446441650390625</LongitudeDegrees>
            </Position>
            <AltitudeMeters>854.20001220703125</AltitudeMeters>
            <DistanceMeters>NAN</DistanceMeters>
          </Trackpoint>
          <Trackpoint>
            <Time>2019-08-01T10:29:30.000Z</Time>
            <Position>
              <LatitudeDegrees>40.5189656652510166168212890625</LatitudeDegrees>
              <LongitudeDegrees>-4.050634838640689849853515625</LongitudeDegrees>
            </Position>
            <AltitudeMeters>854.4000244140625</AltitudeMeters>
            <DistanceMeters>NAN</DistanceMeters>
          </Trackpoint>
          <Trackpoint>
            <Time>2019-08-01T10:29:31.000Z</Time>
            <Position>
              <LatitudeDegrees>40.5189901404082775115966796875</LatitudeDegrees>
              <LongitudeDegrees>-4.0505676157772541046142578125</LongitudeDegrees>
            </Position>
            <AltitudeMeters>854.4000244140625</AltitudeMeters>
            <DistanceMeters>NAN</DistanceMeters>
          </Trackpoint>
          <Trackpoint>
            <Time>2019-08-01T10:29:32.000Z</Time>
            <Position>
              <LatitudeDegrees>40.5190169624984264373779296875</LatitudeDegrees>
              <LongitudeDegrees>-4.05050047673285007476806640625</LongitudeDegrees>
            </Position>
            <AltitudeMeters>854.79998779296875</AltitudeMeters>
            <DistanceMeters>NAN</DistanceMeters>
          </Trackpoint>
          <Trackpoint>
            <Time>2019-08-01T10:29:33.000Z</Time>
            <Position>
              <LatitudeDegrees>40.51904403604567050933837890625</LatitudeDegrees>
              <LongitudeDegrees>-4.05043442733585834503173828125</LongitudeDegrees>
            </Position>
            <AltitudeMeters>855</AltitudeMeters>
            <DistanceMeters>NAN</DistanceMeters>
          </Trackpoint>
          <Trackpoint>
            <Time>2019-08-01T10:29:34.000Z</Time>
            <Position>
              <LatitudeDegrees>40.51906951703131198883056640625</LatitudeDegrees>
              <LongitudeDegrees>-4.05036938376724720001220703125</LongitudeDegrees>
            </Position>
            <AltitudeMeters>855.20001220703125</AltitudeMeters>
            <DistanceMeters>NAN</DistanceMeters>
          </Trackpoint>
          <Trackpoint>
            <Time>2019-08-01T10:29:35.000Z</Time>
            <Position>
              <LatitudeDegrees>40.5190950818359851837158203125</LatitudeDegrees>
              <LongitudeDegrees>-4.050303585827350616455078125</LongitudeDegrees>
            </Position>
            <AltitudeMeters>855.4000244140625</AltitudeMeters>
            <DistanceMeters>NAN</DistanceMeters>
          </Trackpoint>
          <Trackpoint>
            <Time>2019-08-01T10:29:36.000Z</Time>
            <Position>
              <LatitudeDegrees>40.51912081427872180938720703125</LatitudeDegrees>
              <LongitudeDegrees>-4.05023862607777118682861328125</LongitudeDegrees>
            </Position>
            <AltitudeMeters>855.5999755859375</AltitudeMeters>
            <DistanceMeters>NAN</DistanceMeters>
          </Trackpoint>
          <Trackpoint>
            <Time>2019-08-01T10:29:37.000Z</Time>
            <Position>
              <LatitudeDegrees>40.519146881997585296630859375</LatitudeDegrees>
              <LongitudeDegrees>-4.05017492361366748809814453125</LongitudeDegrees>
            </Position>
            <AltitudeMeters>856</AltitudeMeters>
            <DistanceMeters>NAN</DistanceMeters>
          </Trackpoint>
          <Trackpoint>
            <Time>2019-08-01T10:29:38.000Z</Time>
            <Position>
              <LatitudeDegrees>40.5191725306212902069091796875</LatitudeDegrees>
              <LongitudeDegrees>-4.05011256225407123565673828125</LongitudeDegrees>
            </Position>
            <AltitudeMeters>856.20001220703125</AltitudeMeters>
            <DistanceMeters>NAN</DistanceMeters>
          </Trackpoint>
          <Trackpoint>
            <Time>2019-08-01T10:29:39.000Z</Time>
            <Position>
              <LatitudeDegrees>40.5191980116069316864013671875</LatitudeDegrees>
              <LongitudeDegrees>-4.05005179345607757568359375</LongitudeDegrees>
            </Position>
            <AltitudeMeters>856.4000244140625</AltitudeMeters>
            <DistanceMeters>NAN</DistanceMeters>
          </Trackpoint>
          <Trackpoint>
            <Time>2019-08-01T10:29:40.000Z</Time>
            <Position>
              <LatitudeDegrees>40.51922340877354145050048828125</LatitudeDegrees>
              <LongitudeDegrees>-4.04999303631484508514404296875</LongitudeDegrees>
            </Position>
            <AltitudeMeters>856.79998779296875</AltitudeMeters>
            <DistanceMeters>NAN</DistanceMeters>
          </Trackpoint>
          <Trackpoint>
            <Time>2019-08-01T10:29:41.000Z</Time>
            <Position>
              <LatitudeDegrees>40.519249141216278076171875</LatitudeDegrees>
              <LongitudeDegrees>-4.04993469826877117156982421875</LongitudeDegrees>
            </Position>
            <AltitudeMeters>857</AltitudeMeters>
            <DistanceMeters>NAN</DistanceMeters>
          </Trackpoint>
          <Trackpoint>
            <Time>2019-08-01T10:29:42.000Z</Time>
            <Position>
              <LatitudeDegrees>40.519272945821285247802734375</LatitudeDegrees>
              <LongitudeDegrees>-4.04987610876560211181640625</LongitudeDegrees>
            </Position>
            <AltitudeMeters>857</AltitudeMeters>
            <DistanceMeters>NAN</DistanceMeters>
          </Trackpoint>
          <Trackpoint>
            <Time>2019-08-01T10:29:43.000Z</Time>
            <Position>
              <LatitudeDegrees>40.5192960798740386962890625</LatitudeDegrees>
              <LongitudeDegrees>-4.049818105995655059814453125</LongitudeDegrees>
            </Position>
            <AltitudeMeters>857.20001220703125</AltitudeMeters>
            <DistanceMeters>NAN</DistanceMeters>
          </Trackpoint>
          <Trackpoint>
            <Time>2019-08-01T10:29:44.000Z</Time>
            <Position>
              <LatitudeDegrees>40.5193187110126018524169921875</LatitudeDegrees>
              <LongitudeDegrees>-4.04976085759699344635009765625</LongitudeDegrees>
            </Position>
            <AltitudeMeters>857.5999755859375</AltitudeMeters>
            <DistanceMeters>NAN</DistanceMeters>
          </Trackpoint>
          <Trackpoint>
            <Time>2019-08-01T10:29:45.000Z</Time>
            <Position>
              <LatitudeDegrees>40.519341342151165008544921875</LatitudeDegrees>
              <LongitudeDegrees>-4.04970469884574413299560546875</LongitudeDegrees>
            </Position>
            <AltitudeMeters>857.79998779296875</AltitudeMeters>
            <DistanceMeters>NAN</DistanceMeters>
          </Trackpoint>
          <Trackpoint>
            <Time>2019-08-01T10:29:46.000Z</Time>
            <Position>
              <LatitudeDegrees>40.5193646438419818878173828125</LatitudeDegrees>
              <LongitudeDegrees>-4.0496514737606048583984375</LongitudeDegrees>
            </Position>
            <AltitudeMeters>858</AltitudeMeters>
            <DistanceMeters>NAN</DistanceMeters>
          </Trackpoint>
          <Trackpoint>
            <Time>2019-08-01T10:29:47.000Z</Time>
            <Position>
              <LatitudeDegrees>40.5193872749805450439453125</LatitudeDegrees>
              <LongitudeDegrees>-4.04959875158965587615966796875</LongitudeDegrees>
            </Position>
            <AltitudeMeters>858.20001220703125</AltitudeMeters>
            <DistanceMeters>NAN</DistanceMeters>
          </Trackpoint>
          <Trackpoint>
            <Time>2019-08-01T10:29:48.000Z</Time>
            <Position>
              <LatitudeDegrees>40.51940663717687129974365234375</LatitudeDegrees>
              <LongitudeDegrees>-4.0495463646948337554931640625</LongitudeDegrees>
            </Position>
            <AltitudeMeters>858.4000244140625</AltitudeMeters>
            <DistanceMeters>NAN</DistanceMeters>
          </Trackpoint>
          <Trackpoint>
            <Time>2019-08-01T10:29:49.000Z</Time>
            <Position>
              <LatitudeDegrees>40.51942658610641956329345703125</LatitudeDegrees>
              <LongitudeDegrees>-4.0494947321712970733642578125</LongitudeDegrees>
            </Position>
            <AltitudeMeters>858.5999755859375</AltitudeMeters>
            <DistanceMeters>NAN</DistanceMeters>
          </Trackpoint>
          <Trackpoint>
            <Time>2019-08-01T10:29:50.000Z</Time>
            <Position>
              <LatitudeDegrees>40.5194491334259510040283203125</LatitudeDegrees>
              <LongitudeDegrees>-4.04944452457129955291748046875</LongitudeDegrees>
            </Position>
            <AltitudeMeters>858.5999755859375</AltitudeMeters>
            <DistanceMeters>NAN</DistanceMeters>
          </Trackpoint>
          <Trackpoint>
            <Time>2019-08-01T10:29:51.000Z</Time>
            <Position>
              <LatitudeDegrees>40.51947000436484813690185546875</LatitudeDegrees>
              <LongitudeDegrees>-4.04939440079033374786376953125</LongitudeDegrees>
            </Position>
            <AltitudeMeters>859</AltitudeMeters>
            <DistanceMeters>NAN</DistanceMeters>
          </Trackpoint>
          <Trackpoint>
            <Time>2019-08-01T10:29:52.000Z</Time>
            <Position>
              <LatitudeDegrees>40.51948961801826953887939453125</LatitudeDegrees>
              <LongitudeDegrees>-4.04934444464743137359619140625</LongitudeDegrees>
            </Position>
            <AltitudeMeters>859.4000244140625</AltitudeMeters>
            <DistanceMeters>NAN</DistanceMeters>
          </Trackpoint>
          <Trackpoint>
            <Time>2019-08-01T10:29:53.000Z</Time>
            <Position>
              <LatitudeDegrees>40.51951090805232524871826171875</LatitudeDegrees>
              <LongitudeDegrees>-4.0492945723235607147216796875</LongitudeDegrees>
            </Position>
            <AltitudeMeters>859.79998779296875</AltitudeMeters>
            <DistanceMeters>NAN</DistanceMeters>
          </Trackpoint>
          <Trackpoint>
            <Time>2019-08-01T10:29:54.000Z</Time>
            <Position>
              <LatitudeDegrees>40.51953068934381008148193359375</LatitudeDegrees>
              <LongitudeDegrees>-4.0492456220090389251708984375</LongitudeDegrees>
            </Position>
            <AltitudeMeters>860</AltitudeMeters>
            <DistanceMeters>NAN</DistanceMeters>
          </Trackpoint>
          <Trackpoint>
            <Time>2019-08-01T10:29:55.000Z</Time>
            <Position>
              <LatitudeDegrees>40.51954996772110462188720703125</LatitudeDegrees>
              <LongitudeDegrees>-4.0491953305900096893310546875</LongitudeDegrees>
            </Position>
            <AltitudeMeters>860.4000244140625</AltitudeMeters>
            <DistanceMeters>NAN</DistanceMeters>
          </Trackpoint>
          <Trackpoint>
            <Time>2019-08-01T10:29:56.000Z</Time>
            <Position>
              <LatitudeDegrees>40.51957142539322376251220703125</LatitudeDegrees>
              <LongitudeDegrees>-4.049144871532917022705078125</LongitudeDegrees>
            </Position>
            <AltitudeMeters>860.5999755859375</AltitudeMeters>
            <DistanceMeters>NAN</DistanceMeters>
          </Trackpoint>
          <Trackpoint>
            <Time>2019-08-01T10:29:57.000Z</Time>
            <Position>
              <LatitudeDegrees>40.519589446485042572021484375</LatitudeDegrees>
              <LongitudeDegrees>-4.0490977652370929718017578125</LongitudeDegrees>
            </Position>
            <AltitudeMeters>861</AltitudeMeters>
            <DistanceMeters>NAN</DistanceMeters>
          </Trackpoint>
          <Trackpoint>
            <Time>2019-08-01T10:29:58.000Z</Time>
            <Position>
              <LatitudeDegrees>40.519607551395893096923828125</LatitudeDegrees>
              <LongitudeDegrees>-4.0490494854748249053955078125</LongitudeDegrees>
            </Position>
            <AltitudeMeters>861.20001220703125</AltitudeMeters>
            <DistanceMeters>NAN</DistanceMeters>
          </Trackpoint>
          <Trackpoint>
            <Time>2019-08-01T10:29:59.000Z</Time>
            <Position>
              <LatitudeDegrees>40.519628338515758514404296875</LatitudeDegrees>
              <LongitudeDegrees>-4.04900078661739826202392578125</LongitudeDegrees>
            </Position>
            <AltitudeMeters>861.5999755859375</AltitudeMeters>
            <DistanceMeters>NAN</DistanceMeters>
          </Trackpoint>
          <Trackpoint>
            <Time>2019-08-01T10:30:00.000Z</Time>
            <Position>
              <LatitudeDegrees>40.519648455083370208740234375</LatitudeDegrees>
              <LongitudeDegrees>-4.04895334504544734954833984375</LongitudeDegrees>
            </Position>
            <AltitudeMeters>862</AltitudeMeters>
            <DistanceMeters>NAN</DistanceMeters>
          </Trackpoint>
          <Trackpoint>
            <Time>2019-08-01T10:30:01.000Z</Time>
            <Position>
              <LatitudeDegrees>40.51966848783195018768310546875</LatitudeDegrees>
              <LongitudeDegrees>-4.04890305362641811370849609375</LongitudeDegrees>
            </Position>
            <AltitudeMeters>862.5999755859375</AltitudeMeters>
            <DistanceMeters>NAN</DistanceMeters>
          </Trackpoint>
          <Trackpoint>
            <Time>2019-08-01T10:30:02.000Z</Time>
            <Position>
              <LatitudeDegrees>40.519688017666339874267578125</LatitudeDegrees>
              <LongitudeDegrees>-4.04885418713092803955078125</LongitudeDegrees>
            </Position>
            <AltitudeMeters>862.79998779296875</AltitudeMeters>
            <DistanceMeters>NAN</DistanceMeters>
          </Trackpoint>
          <Trackpoint>
            <Time>2019-08-01T10:30:03.000Z</Time>
            <Position>
              <LatitudeDegrees>40.51970805041491985321044921875</LatitudeDegrees>
              <LongitudeDegrees>-4.04880548827350139617919921875</LongitudeDegrees>
            </Position>
            <AltitudeMeters>863.4000244140625</AltitudeMeters>
            <DistanceMeters>NAN</DistanceMeters>
          </Trackpoint>
          <Trackpoint>
            <Time>2019-08-01T10:30:04.000Z</Time>
            <Position>
              <LatitudeDegrees>40.519727580249309539794921875</LatitudeDegrees>
              <LongitudeDegrees>-4.048756621778011322021484375</LongitudeDegrees>
            </Position>
            <AltitudeMeters>863.5999755859375</AltitudeMeters>
            <DistanceMeters>NAN</DistanceMeters>
          </Trackpoint>
          <Trackpoint>
            <Time>2019-08-01T10:30:05.000Z</Time>
            <Position>
              <LatitudeDegrees>40.5197478644549846649169921875</LatitudeDegrees>
              <LongitudeDegrees>-4.04870809055864810943603515625</LongitudeDegrees>
            </Position>
            <AltitudeMeters>864</AltitudeMeters>
            <DistanceMeters>NAN</DistanceMeters>
          </Trackpoint>
          <Trackpoint>
            <Time>2019-08-01T10:30:06.000Z</Time>
            <Position>
              <LatitudeDegrees>40.51977016031742095947265625</LatitudeDegrees>
              <LongitudeDegrees>-4.0486585535109043121337890625</LongitudeDegrees>
            </Position>
            <AltitudeMeters>864.20001220703125</AltitudeMeters>
            <DistanceMeters>NAN</DistanceMeters>
          </Trackpoint>
          <Trackpoint>
            <Time>2019-08-01T10:30:07.000Z</Time>
            <Position>
              <LatitudeDegrees>40.51979136653244495391845703125</LatitudeDegrees>
              <LongitudeDegrees>-4.0486079268157482147216796875</LongitudeDegrees>
            </Position>
            <AltitudeMeters>864.5999755859375</AltitudeMeters>
            <DistanceMeters>NAN</DistanceMeters>
          </Trackpoint>
          <Trackpoint>
            <Time>2019-08-01T10:30:09.000Z</Time>
            <Position>
              <LatitudeDegrees>40.51983579061925411224365234375</LatitudeDegrees>
              <LongitudeDegrees>-4.04850575141608715057373046875</LongitudeDegrees>
            </Position>
            <AltitudeMeters>865</AltitudeMeters>
            <DistanceMeters>NAN</DistanceMeters>
          </Trackpoint>
          <Trackpoint>
            <Time>2019-08-01T10:30:10.000Z</Time>
            <Position>
              <LatitudeDegrees>40.5198578350245952606201171875</LatitudeDegrees>
              <LongitudeDegrees>-4.04845478944480419158935546875</LongitudeDegrees>
            </Position>
            <AltitudeMeters>865.20001220703125</AltitudeMeters>
            <DistanceMeters>NAN</DistanceMeters>
          </Trackpoint>
          <Trackpoint>
            <Time>2019-08-01T10:30:11.000Z</Time>
            <Position>
              <LatitudeDegrees>40.5198806338012218475341796875</LatitudeDegrees>
              <LongitudeDegrees>-4.04840282164514064788818359375</LongitudeDegrees>
            </Position>
            <AltitudeMeters>865.4000244140625</AltitudeMeters>
            <DistanceMeters>NAN</DistanceMeters>
          </Trackpoint>
          <Trackpoint>
            <Time>2019-08-01T10:30:12.000Z</Time>
            <Position>
              <LatitudeDegrees>40.51990485750138759613037109375</LatitudeDegrees>
              <LongitudeDegrees>-4.04835135675966739654541015625</LongitudeDegrees>
            </Position>
            <AltitudeMeters>865.79998779296875</AltitudeMeters>
            <DistanceMeters>NAN</DistanceMeters>
          </Trackpoint>
          <Trackpoint>
            <Time>2019-08-01T10:30:13.000Z</Time>
            <Position>
              <LatitudeDegrees>40.51993201486766338348388671875</LatitudeDegrees>
              <LongitudeDegrees>-4.0483014844357967376708984375</LongitudeDegrees>
            </Position>
            <AltitudeMeters>866.20001220703125</AltitudeMeters>
            <DistanceMeters>NAN</DistanceMeters>
          </Trackpoint>
          <Trackpoint>
            <Time>2019-08-01T10:30:14.000Z</Time>
            <Position>
              <LatitudeDegrees>40.5199631117284297943115234375</LatitudeDegrees>
              <LongitudeDegrees>-4.0482532046735286712646484375</LongitudeDegrees>
            </Position>
            <AltitudeMeters>866.5999755859375</AltitudeMeters>
            <DistanceMeters>NAN</DistanceMeters>
          </Trackpoint>
          <Trackpoint>
            <Time>2019-08-01T10:30:15.000Z</Time>
            <Position>
              <LatitudeDegrees>40.51999747753143310546875</LatitudeDegrees>
              <LongitudeDegrees>-4.0482052601873874664306640625</LongitudeDegrees>
            </Position>
            <AltitudeMeters>867</AltitudeMeters>
            <DistanceMeters>NAN</DistanceMeters>
          </Trackpoint>
          <Trackpoint>
            <Time>2019-08-01T10:30:16.000Z</Time>
            <Position>
              <LatitudeDegrees>40.52003477700054645538330078125</LatitudeDegrees>
              <LongitudeDegrees>-4.04815790243446826934814453125</LongitudeDegrees>
            </Position>
            <AltitudeMeters>867.20001220703125</AltitudeMeters>
            <DistanceMeters>NAN</DistanceMeters>
          </Trackpoint>
          <Trackpoint>
            <Time>2019-08-01T10:30:17.000Z</Time>
            <Position>
              <LatitudeDegrees>40.5200757645070552825927734375</LatitudeDegrees>
              <LongitudeDegrees>-4.048110879957675933837890625</LongitudeDegrees>
            </Position>
            <AltitudeMeters>867.4000244140625</AltitudeMeters>
            <DistanceMeters>NAN</DistanceMeters>
          </Trackpoint>
          <Trackpoint>
            <Time>2019-08-01T10:30:18.000Z</Time>
            <Position>
              <LatitudeDegrees>40.5201200209558010101318359375</LatitudeDegrees>
              <LongitudeDegrees>-4.04806427657604217529296875</LongitudeDegrees>
            </Position>
            <AltitudeMeters>867.4000244140625</AltitudeMeters>
            <DistanceMeters>NAN</DistanceMeters>
          </Trackpoint>
          <Trackpoint>
            <Time>2019-08-01T10:30:19.000Z</Time>
            <Position>
              <LatitudeDegrees>40.52016712725162506103515625</LatitudeDegrees>
              <LongitudeDegrees>-4.04801842756569385528564453125</LongitudeDegrees>
            </Position>
            <AltitudeMeters>867.5999755859375</AltitudeMeters>
            <DistanceMeters>NAN</DistanceMeters>
          </Trackpoint>
          <Trackpoint>
            <Time>2019-08-01T10:30:20.000Z</Time>
            <Position>
              <LatitudeDegrees>40.520217418670654296875</LatitudeDegrees>
              <LongitudeDegrees>-4.04797366820275783538818359375</LongitudeDegrees>
            </Position>
            <AltitudeMeters>867.5999755859375</AltitudeMeters>
            <DistanceMeters>NAN</DistanceMeters>
          </Trackpoint>
          <Trackpoint>
            <Time>2019-08-01T10:30:21.000Z</Time>
            <Position>
              <LatitudeDegrees>40.52027047611773014068603515625</LatitudeDegrees>
              <LongitudeDegrees>-4.0479276515543460845947265625</LongitudeDegrees>
            </Position>
            <AltitudeMeters>867.5999755859375</AltitudeMeters>
            <DistanceMeters>NAN</DistanceMeters>
          </Trackpoint>
          <Trackpoint>
            <Time>2019-08-01T10:30:22.000Z</Time>
            <Position>
              <LatitudeDegrees>40.5203260481357574462890625</LatitudeDegrees>
              <LongitudeDegrees>-4.04788180254399776458740234375</LongitudeDegrees>
            </Position>
            <AltitudeMeters>867.5999755859375</AltitudeMeters>
            <DistanceMeters>NAN</DistanceMeters>
          </Trackpoint>
          <Trackpoint>
            <Time>2019-08-01T10:30:23.000Z</Time>
            <Position>
              <LatitudeDegrees>40.5203848890960216522216796875</LatitudeDegrees>
              <LongitudeDegrees>-4.04783628880977630615234375</LongitudeDegrees>
            </Position>
            <AltitudeMeters>867.79998779296875</AltitudeMeters>
            <DistanceMeters>NAN</DistanceMeters>
          </Trackpoint>
          <Trackpoint>
            <Time>2019-08-01T10:30:24.000Z</Time>
            <Position>
              <LatitudeDegrees>40.5204455740749835968017578125</LatitudeDegrees>
              <LongitudeDegrees>-4.04779027216136455535888671875</LongitudeDegrees>
            </Position>
            <AltitudeMeters>867.79998779296875</AltitudeMeters>
            <DistanceMeters>NAN</DistanceMeters>
          </Trackpoint>
          <Trackpoint>
            <Time>2019-08-01T10:30:25.000Z</Time>
            <Position>
              <LatitudeDegrees>40.5205082707107067108154296875</LatitudeDegrees>
              <LongitudeDegrees>-4.04774366877973079681396484375</LongitudeDegrees>
            </Position>
            <AltitudeMeters>867.79998779296875</AltitudeMeters>
            <DistanceMeters>NAN</DistanceMeters>
          </Trackpoint>
          <Trackpoint>
            <Time>2019-08-01T10:30:26.000Z</Time>
            <Position>
              <LatitudeDegrees>40.520572476089000701904296875</LatitudeDegrees>
              <LongitudeDegrees>-4.0476969815790653228759765625</LongitudeDegrees>
            </Position>
            <AltitudeMeters>867.79998779296875</AltitudeMeters>
            <DistanceMeters>NAN</DistanceMeters>
          </Trackpoint>
          <Trackpoint>
            <Time>2019-08-01T10:30:27.000Z</Time>
            <Position>
              <LatitudeDegrees>40.5206383578479290008544921875</LatitudeDegrees>
              <LongitudeDegrees>-4.0476503781974315643310546875</LongitudeDegrees>
            </Position>
            <AltitudeMeters>867.79998779296875</AltitudeMeters>
            <DistanceMeters>NAN</DistanceMeters>
          </Trackpoint>
          <Trackpoint>
            <Time>2019-08-01T10:30:28.000Z</Time>
            <Position>
              <LatitudeDegrees>40.5207057483494281768798828125</LatitudeDegrees>
              <LongitudeDegrees>-4.04760385863482952117919921875</LongitudeDegrees>
            </Position>
            <AltitudeMeters>867.79998779296875</AltitudeMeters>
            <DistanceMeters>NAN</DistanceMeters>
          </Trackpoint>
          <Trackpoint>
            <Time>2019-08-01T10:30:29.000Z</Time>
            <Position>
              <LatitudeDegrees>40.520772300660610198974609375</LatitudeDegrees>
              <LongitudeDegrees>-4.0475578419864177703857421875</LongitudeDegrees>
            </Position>
            <AltitudeMeters>867.5999755859375</AltitudeMeters>
            <DistanceMeters>NAN</DistanceMeters>
          </Trackpoint>
          <Trackpoint>
            <Time>2019-08-01T10:30:30.000Z</Time>
            <Position>
              <LatitudeDegrees>40.5208391882479190826416015625</LatitudeDegrees>
              <LongitudeDegrees>-4.04751098714768886566162109375</LongitudeDegrees>
            </Position>
            <AltitudeMeters>867.4000244140625</AltitudeMeters>
            <DistanceMeters>NAN</DistanceMeters>
          </Trackpoint>
          <Trackpoint>
            <Time>2019-08-01T10:30:31.000Z</Time>
            <Position>
              <LatitudeDegrees>40.52090548910200595855712890625</LatitudeDegrees>
              <LongitudeDegrees>-4.0474636293947696685791015625</LongitudeDegrees>
            </Position>
            <AltitudeMeters>867.4000244140625</AltitudeMeters>
            <DistanceMeters>NAN</DistanceMeters>
          </Trackpoint>
          <Trackpoint>
            <Time>2019-08-01T10:30:32.000Z</Time>
            <Position>
              <LatitudeDegrees>40.52097153849899768829345703125</LatitudeDegrees>
              <LongitudeDegrees>-4.0474176965653896331787109375</LongitudeDegrees>
            </Position>
            <AltitudeMeters>867.20001220703125</AltitudeMeters>
            <DistanceMeters>NAN</DistanceMeters>
          </Trackpoint>
          <Trackpoint>
            <Time>2019-08-01T10:30:33.000Z</Time>
            <Position>
              <LatitudeDegrees>40.52103742025792598724365234375</LatitudeDegrees>
              <LongitudeDegrees>-4.04737218283116817474365234375</LongitudeDegrees>
            </Position>
            <AltitudeMeters>867.20001220703125</AltitudeMeters>
            <DistanceMeters>NAN</DistanceMeters>
          </Trackpoint>
          <Trackpoint>
            <Time>2019-08-01T10:30:34.000Z</Time>
            <Position>
              <LatitudeDegrees>40.52110246382653713226318359375</LatitudeDegrees>
              <LongitudeDegrees>-4.04732641763985157012939453125</LongitudeDegrees>
            </Position>
            <AltitudeMeters>867.20001220703125</AltitudeMeters>
            <DistanceMeters>NAN</DistanceMeters>
          </Trackpoint>
          <Trackpoint>
            <Time>2019-08-01T10:30:35.000Z</Time>
            <Position>
              <LatitudeDegrees>40.52116683684289455413818359375</LatitudeDegrees>
              <LongitudeDegrees>-4.0472805686295032501220703125</LongitudeDegrees>
            </Position>
            <AltitudeMeters>867</AltitudeMeters>
            <DistanceMeters>NAN</DistanceMeters>
          </Trackpoint>
          <Trackpoint>
            <Time>2019-08-01T10:30:36.000Z</Time>
            <Position>
              <LatitudeDegrees>40.521231628954410552978515625</LatitudeDegrees>
              <LongitudeDegrees>-4.04723488725721836090087890625</LongitudeDegrees>
            </Position>
            <AltitudeMeters>867</AltitudeMeters>
            <DistanceMeters>NAN</DistanceMeters>
          </Trackpoint>
          <Trackpoint>
            <Time>2019-08-01T10:30:37.000Z</Time>
            <Position>
              <LatitudeDegrees>40.52129625342786312103271484375</LatitudeDegrees>
              <LongitudeDegrees>-4.04718928970396518707275390625</LongitudeDegrees>
            </Position>
            <AltitudeMeters>867</AltitudeMeters>
            <DistanceMeters>NAN</DistanceMeters>
          </Trackpoint>
          <Trackpoint>
            <Time>2019-08-01T10:30:38.000Z</Time>
            <Position>
              <LatitudeDegrees>40.52136096172034740447998046875</LatitudeDegrees>
              <LongitudeDegrees>-4.04714302159845829010009765625</LongitudeDegrees>
            </Position>
            <AltitudeMeters>866.79998779296875</AltitudeMeters>
            <DistanceMeters>NAN</DistanceMeters>
          </Trackpoint>
          <Trackpoint>
            <Time>2019-08-01T10:30:39.000Z</Time>
            <Position>
              <LatitudeDegrees>40.52142499946057796478271484375</LatitudeDegrees>
              <LongitudeDegrees>-4.04709725640714168548583984375</LongitudeDegrees>
            </Position>
            <AltitudeMeters>866.79998779296875</AltitudeMeters>
            <DistanceMeters>NAN</DistanceMeters>
          </Trackpoint>
          <Trackpoint>
            <Time>2019-08-01T10:30:40.000Z</Time>
            <Position>
              <LatitudeDegrees>40.521489791572093963623046875</LatitudeDegrees>
              <LongitudeDegrees>-4.0470524132251739501953125</LongitudeDegrees>
            </Position>
            <AltitudeMeters>866.79998779296875</AltitudeMeters>
            <DistanceMeters>NAN</DistanceMeters>
          </Trackpoint>
          <Trackpoint>
            <Time>2019-08-01T10:30:41.000Z</Time>
            <Position>
              <LatitudeDegrees>40.52155458368360996246337890625</LatitudeDegrees>
              <LongitudeDegrees>-4.0470069833099842071533203125</LongitudeDegrees>
            </Position>
            <AltitudeMeters>866.79998779296875</AltitudeMeters>
            <DistanceMeters>NAN</DistanceMeters>
          </Trackpoint>
          <Trackpoint>
            <Time>2019-08-01T10:30:42.000Z</Time>
            <Position>
              <LatitudeDegrees>40.52161962725222110748291015625</LatitudeDegrees>
              <LongitudeDegrees>-4.04696046374738216400146484375</LongitudeDegrees>
            </Position>
            <AltitudeMeters>866.79998779296875</AltitudeMeters>
            <DistanceMeters>NAN</DistanceMeters>
          </Trackpoint>
          <Trackpoint>
            <Time>2019-08-01T10:30:43.000Z</Time>
            <Position>
              <LatitudeDegrees>40.5216850899159908294677734375</LatitudeDegrees>
              <LongitudeDegrees>-4.0469127707183361053466796875</LongitudeDegrees>
            </Position>
            <AltitudeMeters>866.79998779296875</AltitudeMeters>
            <DistanceMeters>NAN</DistanceMeters>
          </Trackpoint>
          <Trackpoint>
            <Time>2019-08-01T10:30:44.000Z</Time>
            <Position>
              <LatitudeDegrees>40.52175172604620456695556640625</LatitudeDegrees>
              <LongitudeDegrees>-4.0468648262321949005126953125</LongitudeDegrees>
            </Position>
            <AltitudeMeters>866.79998779296875</AltitudeMeters>
            <DistanceMeters>NAN</DistanceMeters>
          </Trackpoint>
          <Trackpoint>
            <Time>2019-08-01T10:30:45.000Z</Time>
            <Position>
              <LatitudeDegrees>40.521819032728672027587890625</LatitudeDegrees>
              <LongitudeDegrees>-4.04681570827960968017578125</LongitudeDegrees>
            </Position>
            <AltitudeMeters>866.5999755859375</AltitudeMeters>
            <DistanceMeters>NAN</DistanceMeters>
          </Trackpoint>
          <Trackpoint>
            <Time>2019-08-01T10:30:46.000Z</Time>
            <Position>
              <LatitudeDegrees>40.52188667468726634979248046875</LatitudeDegrees>
              <LongitudeDegrees>-4.04676474630832672119140625</LongitudeDegrees>
            </Position>
            <AltitudeMeters>866.5999755859375</AltitudeMeters>
            <DistanceMeters>NAN</DistanceMeters>
          </Trackpoint>
          <Trackpoint>
            <Time>2019-08-01T10:30:47.000Z</Time>
            <Position>
              <LatitudeDegrees>40.52195557393133640289306640625</LatitudeDegrees>
              <LongitudeDegrees>-4.0467122755944728851318359375</LongitudeDegrees>
            </Position>
            <AltitudeMeters>866.4000244140625</AltitudeMeters>
            <DistanceMeters>NAN</DistanceMeters>
          </Trackpoint>
          <Trackpoint>
            <Time>2019-08-01T10:30:48.000Z</Time>
            <Position>
              <LatitudeDegrees>40.5220250599086284637451171875</LatitudeDegrees>
              <LongitudeDegrees>-4.04665687121450901031494140625</LongitudeDegrees>
            </Position>
            <AltitudeMeters>866.4000244140625</AltitudeMeters>
            <DistanceMeters>NAN</DistanceMeters>
          </Trackpoint>
          <Trackpoint>
            <Time>2019-08-01T10:30:49.000Z</Time>
            <Position>
              <LatitudeDegrees>40.5220949649810791015625</LatitudeDegrees>
              <LongitudeDegrees>-4.0465979464352130889892578125</LongitudeDegrees>
            </Position>
            <AltitudeMeters>866.4000244140625</AltitudeMeters>
            <DistanceMeters>NAN</DistanceMeters>
          </Trackpoint>
          <Trackpoint>
            <Time>2019-08-01T10:30:50.000Z</Time>
            <Position>
              <LatitudeDegrees>40.52216746844351291656494140625</LatitudeDegrees>
              <LongitudeDegrees>-4.04653617180883884429931640625</LongitudeDegrees>
            </Position>
            <AltitudeMeters>866.20001220703125</AltitudeMeters>
            <DistanceMeters>NAN</DistanceMeters>
          </Trackpoint>
          <Trackpoint>
            <Time>2019-08-01T10:30:51.000Z</Time>
            <Position>
              <LatitudeDegrees>40.52223938517272472381591796875</LatitudeDegrees>
              <LongitudeDegrees>-4.04647297225892543792724609375</LongitudeDegrees>
            </Position>
            <AltitudeMeters>866.20001220703125</AltitudeMeters>
            <DistanceMeters>NAN</DistanceMeters>
          </Trackpoint>
          <Trackpoint>
            <Time>2019-08-01T10:30:52.000Z</Time>
            <Position>
              <LatitudeDegrees>40.52231314592063426971435546875</LatitudeDegrees>
              <LongitudeDegrees>-4.04640675522387027740478515625</LongitudeDegrees>
            </Position>
            <AltitudeMeters>866</AltitudeMeters>
            <DistanceMeters>NAN</DistanceMeters>
          </Trackpoint>
          <Trackpoint>
            <Time>2019-08-01T10:30:53.000Z</Time>
            <Position>
              <LatitudeDegrees>40.52238841541111469268798828125</LatitudeDegrees>
              <LongitudeDegrees>-4.04633835889399051666259765625</LongitudeDegrees>
            </Position>
            <AltitudeMeters>865.79998779296875</AltitudeMeters>
            <DistanceMeters>NAN</DistanceMeters>
          </Trackpoint>
          <Trackpoint>
            <Time>2019-08-01T10:30:54.000Z</Time>
            <Position>
              <LatitudeDegrees>40.5224642716348171234130859375</LatitudeDegrees>
              <LongitudeDegrees>-4.04626795090734958648681640625</LongitudeDegrees>
            </Position>
            <AltitudeMeters>865.5999755859375</AltitudeMeters>
            <DistanceMeters>NAN</DistanceMeters>
          </Trackpoint>
          <Trackpoint>
            <Time>2019-08-01T10:30:55.000Z</Time>
            <Position>
              <LatitudeDegrees>40.52254180423915386199951171875</LatitudeDegrees>
              <LongitudeDegrees>-4.0461956150829792022705078125</LongitudeDegrees>
            </Position>
            <AltitudeMeters>865.5999755859375</AltitudeMeters>
            <DistanceMeters>NAN</DistanceMeters>
          </Trackpoint>
          <Trackpoint>
            <Time>2019-08-01T10:30:56.000Z</Time>
            <Position>
              <LatitudeDegrees>40.52262059412896633148193359375</LatitudeDegrees>
              <LongitudeDegrees>-4.04612193815410137176513671875</LongitudeDegrees>
            </Position>
            <AltitudeMeters>865.20001220703125</AltitudeMeters>
            <DistanceMeters>NAN</DistanceMeters>
          </Trackpoint>
          <Trackpoint>
            <Time>2019-08-01T10:30:57.000Z</Time>
            <Position>
              <LatitudeDegrees>40.522700808942317962646484375</LatitudeDegrees>
              <LongitudeDegrees>-4.04604725539684295654296875</LongitudeDegrees>
            </Position>
            <AltitudeMeters>864.5999755859375</AltitudeMeters>
            <DistanceMeters>NAN</DistanceMeters>
          </Trackpoint>
          <Trackpoint>
            <Time>2019-08-01T10:30:58.000Z</Time>
            <Position>
              <LatitudeDegrees>40.52278135903179645538330078125</LatitudeDegrees>
              <LongitudeDegrees>-4.0459714829921722412109375</LongitudeDegrees>
            </Position>
            <AltitudeMeters>864.20001220703125</AltitudeMeters>
            <DistanceMeters>NAN</DistanceMeters>
          </Trackpoint>
          <Trackpoint>
            <Time>2019-08-01T10:30:59.000Z</Time>
            <Position>
              <LatitudeDegrees>40.52286274731159210205078125</LatitudeDegrees>
              <LongitudeDegrees>-4.045896045863628387451171875</LongitudeDegrees>
            </Position>
            <AltitudeMeters>863.79998779296875</AltitudeMeters>
            <DistanceMeters>NAN</DistanceMeters>
          </Trackpoint>
          <Trackpoint>
            <Time>2019-08-01T10:31:00.000Z</Time>
            <Position>
              <LatitudeDegrees>40.5229450576007366180419921875</LatitudeDegrees>
              <LongitudeDegrees>-4.04582086019217967987060546875</LongitudeDegrees>
            </Position>
            <AltitudeMeters>863.5999755859375</AltitudeMeters>
            <DistanceMeters>NAN</DistanceMeters>
          </Trackpoint>
          <Trackpoint>
            <Time>2019-08-01T10:31:01.000Z</Time>
            <Position>
              <LatitudeDegrees>40.523026697337627410888671875</LatitudeDegrees>
              <LongitudeDegrees>-4.04574542306363582611083984375</LongitudeDegrees>
            </Position>
            <AltitudeMeters>863.20001220703125</AltitudeMeters>
            <DistanceMeters>NAN</DistanceMeters>
          </Trackpoint>
          <Trackpoint>
            <Time>2019-08-01T10:31:02.000Z</Time>
            <Position>
              <LatitudeDegrees>40.52310724742710590362548828125</LatitudeDegrees>
              <LongitudeDegrees>-4.0456695668399333953857421875</LongitudeDegrees>
            </Position>
            <AltitudeMeters>862.5999755859375</AltitudeMeters>
            <DistanceMeters>NAN</DistanceMeters>
          </Trackpoint>
          <Trackpoint>
            <Time>2019-08-01T10:31:03.000Z</Time>
            <Position>
              <LatitudeDegrees>40.5231881327927112579345703125</LatitudeDegrees>
              <LongitudeDegrees>-4.04559387825429439544677734375</LongitudeDegrees>
            </Position>
            <AltitudeMeters>862.4000244140625</AltitudeMeters>
            <DistanceMeters>NAN</DistanceMeters>
          </Trackpoint>
          <Trackpoint>
            <Time>2019-08-01T10:31:04.000Z</Time>
            <Position>
              <LatitudeDegrees>40.52326935343444347381591796875</LatitudeDegrees>
              <LongitudeDegrees>-4.0455176867544651031494140625</LongitudeDegrees>
            </Position>
            <AltitudeMeters>862</AltitudeMeters>
            <DistanceMeters>NAN</DistanceMeters>
          </Trackpoint>
          <Trackpoint>
            <Time>2019-08-01T10:31:05.000Z</Time>
            <Position>
              <LatitudeDegrees>40.52335225045680999755859375</LatitudeDegrees>
              <LongitudeDegrees>-4.0454429201781749725341796875</LongitudeDegrees>
            </Position>
            <AltitudeMeters>861.4000244140625</AltitudeMeters>
            <DistanceMeters>NAN</DistanceMeters>
          </Trackpoint>
          <Trackpoint>
            <Time>2019-08-01T10:31:06.000Z</Time>
            <Position>
              <LatitudeDegrees>40.5234374105930328369140625</LatitudeDegrees>
              <LongitudeDegrees>-4.04537041671574115753173828125</LongitudeDegrees>
            </Position>
            <AltitudeMeters>861</AltitudeMeters>
            <DistanceMeters>NAN</DistanceMeters>
          </Trackpoint>
          <Trackpoint>
            <Time>2019-08-01T10:31:07.000Z</Time>
            <Position>
              <LatitudeDegrees>40.52352617494761943817138671875</LatitudeDegrees>
              <LongitudeDegrees>-4.04530352912843227386474609375</LongitudeDegrees>
            </Position>
            <AltitudeMeters>860.5999755859375</AltitudeMeters>
            <DistanceMeters>NAN</DistanceMeters>
          </Trackpoint>
          <Trackpoint>
            <Time>2019-08-01T10:31:08.000Z</Time>
            <Position>
              <LatitudeDegrees>40.5236203037202358245849609375</LatitudeDegrees>
              <LongitudeDegrees>-4.0452451072633266448974609375</LongitudeDegrees>
            </Position>
            <AltitudeMeters>860</AltitudeMeters>
            <DistanceMeters>NAN</DistanceMeters>
          </Trackpoint>
          <Trackpoint>
            <Time>2019-08-01T10:31:09.000Z</Time>
            <Position>
              <LatitudeDegrees>40.52371979691088199615478515625</LatitudeDegrees>
              <LongitudeDegrees>-4.0451991744339466094970703125</LongitudeDegrees>
            </Position>
            <AltitudeMeters>859.5999755859375</AltitudeMeters>
            <DistanceMeters>NAN</DistanceMeters>
          </Trackpoint>
          <Trackpoint>
            <Time>2019-08-01T10:31:10.000Z</Time>
            <Position>
              <LatitudeDegrees>40.523825325071811676025390625</LatitudeDegrees>
              <LongitudeDegrees>-4.0451679937541484832763671875</LongitudeDegrees>
            </Position>
            <AltitudeMeters>859.4000244140625</AltitudeMeters>
            <DistanceMeters>NAN</DistanceMeters>
          </Trackpoint>
          <Trackpoint>
            <Time>2019-08-01T10:31:11.000Z</Time>
            <Position>
              <LatitudeDegrees>40.52393219433724880218505859375</LatitudeDegrees>
              <LongitudeDegrees>-4.04515449889004230499267578125</LongitudeDegrees>
            </Position>
            <AltitudeMeters>859</AltitudeMeters>
            <DistanceMeters>NAN</DistanceMeters>
          </Trackpoint>
          <Trackpoint>
            <Time>2019-08-01T10:31:12.000Z</Time>
            <Position>
              <LatitudeDegrees>40.524043254554271697998046875</LatitudeDegrees>
              <LongitudeDegrees>-4.045162461698055267333984375</LongitudeDegrees>
            </Position>
            <AltitudeMeters>858.5999755859375</AltitudeMeters>
            <DistanceMeters>NAN</DistanceMeters>
          </Trackpoint>
          <Trackpoint>
            <Time>2019-08-01T10:31:13.000Z</Time>
            <Position>
              <LatitudeDegrees>40.524153895676136016845703125</LatitudeDegrees>
              <LongitudeDegrees>-4.0451963245868682861328125</LongitudeDegrees>
            </Position>
            <AltitudeMeters>858.20001220703125</AltitudeMeters>
            <DistanceMeters>NAN</DistanceMeters>
          </Trackpoint>
          <Trackpoint>
            <Time>2019-08-01T10:31:14.000Z</Time>
            <Position>
              <LatitudeDegrees>40.52426026202738285064697265625</LatitudeDegrees>
              <LongitudeDegrees>-4.04525625519454479217529296875</LongitudeDegrees>
            </Position>
            <AltitudeMeters>857.5999755859375</AltitudeMeters>
            <DistanceMeters>NAN</DistanceMeters>
          </Trackpoint>
          <Trackpoint>
            <Time>2019-08-01T10:31:15.000Z</Time>
            <Position>
              <LatitudeDegrees>40.5243636108934879302978515625</LatitudeDegrees>
              <LongitudeDegrees>-4.04533638618886470794677734375</LongitudeDegrees>
            </Position>
            <AltitudeMeters>857.4000244140625</AltitudeMeters>
            <DistanceMeters>NAN</DistanceMeters>
          </Trackpoint>
          <Trackpoint>
            <Time>2019-08-01T10:31:16.000Z</Time>
            <Position>
              <LatitudeDegrees>40.52446444518864154815673828125</LatitudeDegrees>
              <LongitudeDegrees>-4.0454264916479587554931640625</LongitudeDegrees>
            </Position>
            <AltitudeMeters>857.20001220703125</AltitudeMeters>
            <DistanceMeters>NAN</DistanceMeters>
          </Trackpoint>
          <Trackpoint>
            <Time>2019-08-01T10:31:18.000Z</Time>
            <Position>
              <LatitudeDegrees>40.5246650241315364837646484375</LatitudeDegrees>
              <LongitudeDegrees>-4.04561516828835010528564453125</LongitudeDegrees>
            </Position>
            <AltitudeMeters>856.4000244140625</AltitudeMeters>
            <DistanceMeters>NAN</DistanceMeters>
          </Trackpoint>
          <Trackpoint>
            <Time>2019-08-01T10:31:19.000Z</Time>
            <Position>
              <LatitudeDegrees>40.52476485259830951690673828125</LatitudeDegrees>
              <LongitudeDegrees>-4.04570887796580791473388671875</LongitudeDegrees>
            </Position>
            <AltitudeMeters>855.4000244140625</AltitudeMeters>
            <DistanceMeters>NAN</DistanceMeters>
          </Trackpoint>
          <Trackpoint>
            <Time>2019-08-01T10:31:20.000Z</Time>
            <Position>
              <LatitudeDegrees>40.52486426196992397308349609375</LatitudeDegrees>
              <LongitudeDegrees>-4.04580024071037769317626953125</LongitudeDegrees>
            </Position>
            <AltitudeMeters>854.79998779296875</AltitudeMeters>
            <DistanceMeters>NAN</DistanceMeters>
          </Trackpoint>
          <Trackpoint>
            <Time>2019-08-01T10:31:21.000Z</Time>
            <Position>
              <LatitudeDegrees>40.5249664373695850372314453125</LatitudeDegrees>
              <LongitudeDegrees>-4.045885317027568817138671875</LongitudeDegrees>
            </Position>
            <AltitudeMeters>854.20001220703125</AltitudeMeters>
            <DistanceMeters>NAN</DistanceMeters>
          </Trackpoint>
          <Trackpoint>
            <Time>2019-08-01T10:31:22.000Z</Time>
            <Position>
              <LatitudeDegrees>40.5250713787972927093505859375</LatitudeDegrees>
              <LongitudeDegrees>-4.0459622628986835479736328125</LongitudeDegrees>
            </Position>
            <AltitudeMeters>853.79998779296875</AltitudeMeters>
            <DistanceMeters>NAN</DistanceMeters>
          </Trackpoint>
          <Trackpoint>
            <Time>2019-08-01T10:31:23.000Z</Time>
            <Position>
              <LatitudeDegrees>40.525179170072078704833984375</LatitudeDegrees>
              <LongitudeDegrees>-4.04603040777146816253662109375</LongitudeDegrees>
            </Position>
            <AltitudeMeters>851.20001220703125</AltitudeMeters>
            <DistanceMeters>NAN</DistanceMeters>
          </Trackpoint>
          <Trackpoint>
            <Time>2019-08-01T10:31:24.000Z</Time>
            <Position>
              <LatitudeDegrees>40.52529014647006988525390625</LatitudeDegrees>
              <LongitudeDegrees>-4.04608773998916149139404296875</LongitudeDegrees>
            </Position>
            <AltitudeMeters>850.20001220703125</AltitudeMeters>
            <DistanceMeters>NAN</DistanceMeters>
          </Trackpoint>
          <Trackpoint>
            <Time>2019-08-01T10:31:25.000Z</Time>
            <Position>
              <LatitudeDegrees>40.52540305070579051971435546875</LatitudeDegrees>
              <LongitudeDegrees>-4.04613434337079524993896484375</LongitudeDegrees>
            </Position>
            <AltitudeMeters>849.5999755859375</AltitudeMeters>
            <DistanceMeters>NAN</DistanceMeters>
          </Trackpoint>
          <Trackpoint>
            <Time>2019-08-01T10:31:26.000Z</Time>
            <Position>
              <LatitudeDegrees>40.5255152843892574310302734375</LatitudeDegrees>
              <LongitudeDegrees>-4.0461758337914943695068359375</LongitudeDegrees>
            </Position>
            <AltitudeMeters>848.79998779296875</AltitudeMeters>
            <DistanceMeters>NAN</DistanceMeters>
          </Trackpoint>
          <Trackpoint>
            <Time>2019-08-01T10:31:27.000Z</Time>
            <Position>
              <LatitudeDegrees>40.5256276018917560577392578125</LatitudeDegrees>
              <LongitudeDegrees>-4.0462143905460834503173828125</LongitudeDegrees>
            </Position>
            <AltitudeMeters>848.4000244140625</AltitudeMeters>
            <DistanceMeters>NAN</DistanceMeters>
          </Trackpoint>
          <Trackpoint>
            <Time>2019-08-01T10:31:28.000Z</Time>
            <Position>
              <LatitudeDegrees>40.5257395841181278228759765625</LatitudeDegrees>
              <LongitudeDegrees>-4.04624984599649906158447265625</LongitudeDegrees>
            </Position>
            <AltitudeMeters>848.20001220703125</AltitudeMeters>
            <DistanceMeters>NAN</DistanceMeters>
          </Trackpoint>
          <Trackpoint>
            <Time>2019-08-01T10:31:29.000Z</Time>
            <Position>
              <LatitudeDegrees>40.52585014142096042633056640625</LatitudeDegrees>
              <LongitudeDegrees>-4.04628488235175609588623046875</LongitudeDegrees>
            </Position>
            <AltitudeMeters>848</AltitudeMeters>
            <DistanceMeters>NAN</DistanceMeters>
          </Trackpoint>
          <Trackpoint>
            <Time>2019-08-01T10:31:30.000Z</Time>
            <Position>
              <LatitudeDegrees>40.52595960907638072967529296875</LatitudeDegrees>
              <LongitudeDegrees>-4.04632058925926685333251953125</LongitudeDegrees>
            </Position>
            <AltitudeMeters>847.79998779296875</AltitudeMeters>
            <DistanceMeters>NAN</DistanceMeters>
          </Trackpoint>
          <Trackpoint>
            <Time>2019-08-01T10:31:31.000Z</Time>
            <Position>
              <LatitudeDegrees>40.5260688252747058868408203125</LatitudeDegrees>
              <LongitudeDegrees>-4.046356379985809326171875</LongitudeDegrees>
            </Position>
            <AltitudeMeters>847.5999755859375</AltitudeMeters>
            <DistanceMeters>NAN</DistanceMeters>
          </Trackpoint>
          <Trackpoint>
            <Time>2019-08-01T10:31:32.000Z</Time>
            <Position>
              <LatitudeDegrees>40.52617728710174560546875</LatitudeDegrees>
              <LongitudeDegrees>-4.04639217071235179901123046875</LongitudeDegrees>
            </Position>
            <AltitudeMeters>847.20001220703125</AltitudeMeters>
            <DistanceMeters>NAN</DistanceMeters>
          </Trackpoint>
          <Trackpoint>
            <Time>2019-08-01T10:31:33.000Z</Time>
            <Position>
              <LatitudeDegrees>40.5262857489287853240966796875</LatitudeDegrees>
              <LongitudeDegrees>-4.04642678797245025634765625</LongitudeDegrees>
            </Position>
            <AltitudeMeters>847</AltitudeMeters>
            <DistanceMeters>NAN</DistanceMeters>
          </Trackpoint>
          <Trackpoint>
            <Time>2019-08-01T10:31:34.000Z</Time>
            <Position>
              <LatitudeDegrees>40.52639345638453960418701171875</LatitudeDegrees>
              <LongitudeDegrees>-4.046460650861263275146484375</LongitudeDegrees>
            </Position>
            <AltitudeMeters>846.5999755859375</AltitudeMeters>
            <DistanceMeters>NAN</DistanceMeters>
          </Trackpoint>
          <Trackpoint>
            <Time>2019-08-01T10:31:35.000Z</Time>
            <Position>
              <LatitudeDegrees>40.5265003256499767303466796875</LatitudeDegrees>
              <LongitudeDegrees>-4.04649426229298114776611328125</LongitudeDegrees>
            </Position>
            <AltitudeMeters>846.20001220703125</AltitudeMeters>
            <DistanceMeters>NAN</DistanceMeters>
          </Trackpoint>
          <Trackpoint>
            <Time>2019-08-01T10:31:36.000Z</Time>
            <Position>
              <LatitudeDegrees>40.52660618908703327178955078125</LatitudeDegrees>
              <LongitudeDegrees>-4.0465282090008258819580078125</LongitudeDegrees>
            </Position>
            <AltitudeMeters>846</AltitudeMeters>
            <DistanceMeters>NAN</DistanceMeters>
          </Trackpoint>
          <Trackpoint>
            <Time>2019-08-01T10:31:37.000Z</Time>
            <Position>
              <LatitudeDegrees>40.52671146579086780548095703125</LatitudeDegrees>
              <LongitudeDegrees>-4.04656232334673404693603515625</LongitudeDegrees>
            </Position>
            <AltitudeMeters>845.5999755859375</AltitudeMeters>
            <DistanceMeters>NAN</DistanceMeters>
          </Trackpoint>
          <Trackpoint>
            <Time>2019-08-01T10:31:38.000Z</Time>
            <Position>
              <LatitudeDegrees>40.52681657485663890838623046875</LatitudeDegrees>
              <LongitudeDegrees>-4.04659585095942020416259765625</LongitudeDegrees>
            </Position>
            <AltitudeMeters>845.4000244140625</AltitudeMeters>
            <DistanceMeters>NAN</DistanceMeters>
          </Trackpoint>
          <Trackpoint>
            <Time>2019-08-01T10:31:39.000Z</Time>
            <Position>
              <LatitudeDegrees>40.5269216001033782958984375</LatitudeDegrees>
              <LongitudeDegrees>-4.04662954621016979217529296875</LongitudeDegrees>
            </Position>
            <AltitudeMeters>845.4000244140625</AltitudeMeters>
            <DistanceMeters>NAN</DistanceMeters>
          </Trackpoint>
          <Trackpoint>
            <Time>2019-08-01T10:31:40.000Z</Time>
            <Position>
              <LatitudeDegrees>40.52702687680721282958984375</LatitudeDegrees>
              <LongitudeDegrees>-4.046663157641887664794921875</LongitudeDegrees>
            </Position>
            <AltitudeMeters>845</AltitudeMeters>
            <DistanceMeters>NAN</DistanceMeters>
          </Trackpoint>
          <Trackpoint>
            <Time>2019-08-01T10:31:41.000Z</Time>
            <Position>
              <LatitudeDegrees>40.52713223733007907867431640625</LatitudeDegrees>
              <LongitudeDegrees>-4.04669609852135181427001953125</LongitudeDegrees>
            </Position>
            <AltitudeMeters>844.79998779296875</AltitudeMeters>
            <DistanceMeters>NAN</DistanceMeters>
          </Trackpoint>
          <Trackpoint>
            <Time>2019-08-01T10:31:42.000Z</Time>
            <Position>
              <LatitudeDegrees>40.52723751403391361236572265625</LatitudeDegrees>
              <LongitudeDegrees>-4.04672828502953052520751953125</LongitudeDegrees>
            </Position>
            <AltitudeMeters>844.5999755859375</AltitudeMeters>
            <DistanceMeters>NAN</DistanceMeters>
          </Trackpoint>
          <Trackpoint>
            <Time>2019-08-01T10:31:43.000Z</Time>
            <Position>
              <LatitudeDegrees>40.52734362892806529998779296875</LatitudeDegrees>
              <LongitudeDegrees>-4.0467605553567409515380859375</LongitudeDegrees>
            </Position>
            <AltitudeMeters>844.4000244140625</AltitudeMeters>
            <DistanceMeters>NAN</DistanceMeters>
          </Trackpoint>
          <Trackpoint>
            <Time>2019-08-01T10:31:44.000Z</Time>
            <Position>
              <LatitudeDegrees>40.52745074965059757232666015625</LatitudeDegrees>
              <LongitudeDegrees>-4.04679332859814167022705078125</LongitudeDegrees>
            </Position>
            <AltitudeMeters>844.20001220703125</AltitudeMeters>
            <DistanceMeters>NAN</DistanceMeters>
          </Trackpoint>
          <Trackpoint>
            <Time>2019-08-01T10:31:45.000Z</Time>
            <Position>
              <LatitudeDegrees>40.52755921147763729095458984375</LatitudeDegrees>
              <LongitudeDegrees>-4.04682467691600322723388671875</LongitudeDegrees>
            </Position>
            <AltitudeMeters>844</AltitudeMeters>
            <DistanceMeters>NAN</DistanceMeters>
          </Trackpoint>
          <Trackpoint>
            <Time>2019-08-01T10:31:46.000Z</Time>
            <Position>
              <LatitudeDegrees>40.52766934968531131744384765625</LatitudeDegrees>
              <LongitudeDegrees>-4.04684730805456638336181640625</LongitudeDegrees>
            </Position>
            <AltitudeMeters>843.79998779296875</AltitudeMeters>
            <DistanceMeters>NAN</DistanceMeters>
          </Trackpoint>
          <Trackpoint>
            <Time>2019-08-01T10:31:47.000Z</Time>
            <Position>
              <LatitudeDegrees>40.52778133191168308258056640625</LatitudeDegrees>
              <LongitudeDegrees>-4.0468561090528964996337890625</LongitudeDegrees>
            </Position>
            <AltitudeMeters>843.5999755859375</AltitudeMeters>
            <DistanceMeters>NAN</DistanceMeters>
          </Trackpoint>
          <Trackpoint>
            <Time>2019-08-01T10:31:48.000Z</Time>
            <Position>
              <LatitudeDegrees>40.5278925597667694091796875</LatitudeDegrees>
              <LongitudeDegrees>-4.04685250483453273773193359375</LongitudeDegrees>
            </Position>
            <AltitudeMeters>843.20001220703125</AltitudeMeters>
            <DistanceMeters>NAN</DistanceMeters>
          </Trackpoint>
          <Trackpoint>
            <Time>2019-08-01T10:31:49.000Z</Time>
            <Position>
              <LatitudeDegrees>40.52800261415541172027587890625</LatitudeDegrees>
              <LongitudeDegrees>-4.04683708213269710540771484375</LongitudeDegrees>
            </Position>
            <AltitudeMeters>843</AltitudeMeters>
            <DistanceMeters>NAN</DistanceMeters>
          </Trackpoint>
          <Trackpoint>
            <Time>2019-08-01T10:31:50.000Z</Time>
            <Position>
              <LatitudeDegrees>40.52811157889664173126220703125</LatitudeDegrees>
              <LongitudeDegrees>-4.046812355518341064453125</LongitudeDegrees>
            </Position>
            <AltitudeMeters>842.79998779296875</AltitudeMeters>
            <DistanceMeters>NAN</DistanceMeters>
          </Trackpoint>
          <Trackpoint>
            <Time>2019-08-01T10:31:51.000Z</Time>
            <Position>
              <LatitudeDegrees>40.5282199569046497344970703125</LatitudeDegrees>
              <LongitudeDegrees>-4.04678310267627239227294921875</LongitudeDegrees>
            </Position>
            <AltitudeMeters>842.79998779296875</AltitudeMeters>
            <DistanceMeters>NAN</DistanceMeters>
          </Trackpoint>
          <Trackpoint>
            <Time>2019-08-01T10:31:52.000Z</Time>
            <Position>
              <LatitudeDegrees>40.528328083455562591552734375</LatitudeDegrees>
              <LongitudeDegrees>-4.0467525087296962738037109375</LongitudeDegrees>
            </Position>
            <AltitudeMeters>842.4000244140625</AltitudeMeters>
            <DistanceMeters>NAN</DistanceMeters>
          </Trackpoint>
          <Trackpoint>
            <Time>2019-08-01T10:31:54.000Z</Time>
            <Position>
              <LatitudeDegrees>40.52854509092867374420166015625</LatitudeDegrees>
              <LongitudeDegrees>-4.04669609852135181427001953125</LongitudeDegrees>
            </Position>
            <AltitudeMeters>842</AltitudeMeters>
            <DistanceMeters>NAN</DistanceMeters>
          </Trackpoint>
          <Trackpoint>
            <Time>2019-08-01T10:31:55.000Z</Time>
            <Position>
              <LatitudeDegrees>40.52865363657474517822265625</LatitudeDegrees>
              <LongitudeDegrees>-4.046667180955410003662109375</LongitudeDegrees>
            </Position>
            <AltitudeMeters>841.4000244140625</AltitudeMeters>
            <DistanceMeters>NAN</DistanceMeters>
          </Trackpoint>
          <Trackpoint>
            <Time>2019-08-01T10:31:56.000Z</Time>
            <Position>
              <LatitudeDegrees>40.528763271868228912353515625</LatitudeDegrees>
              <LongitudeDegrees>-4.0466391853988170623779296875</LongitudeDegrees>
            </Position>
            <AltitudeMeters>841.20001220703125</AltitudeMeters>
            <DistanceMeters>NAN</DistanceMeters>
          </Trackpoint>
          <Trackpoint>
            <Time>2019-08-01T10:31:57.000Z</Time>
            <Position>
              <LatitudeDegrees>40.52887399680912494659423828125</LatitudeDegrees>
              <LongitudeDegrees>-4.04661378823220729827880859375</LongitudeDegrees>
            </Position>
            <AltitudeMeters>840.79998779296875</AltitudeMeters>
            <DistanceMeters>NAN</DistanceMeters>
          </Trackpoint>
          <Trackpoint>
            <Time>2019-08-01T10:31:58.000Z</Time>
            <Position>
              <LatitudeDegrees>40.5289863981306552886962890625</LatitudeDegrees>
              <LongitudeDegrees>-4.04660020954906940460205078125</LongitudeDegrees>
            </Position>
            <AltitudeMeters>840.5999755859375</AltitudeMeters>
            <DistanceMeters>NAN</DistanceMeters>
          </Trackpoint>
          <Trackpoint>
            <Time>2019-08-01T10:31:59.000Z</Time>
            <Position>
              <LatitudeDegrees>40.5291010625660419464111328125</LatitudeDegrees>
              <LongitudeDegrees>-4.04660406522452831268310546875</LongitudeDegrees>
            </Position>
            <AltitudeMeters>840.5999755859375</AltitudeMeters>
            <DistanceMeters>NAN</DistanceMeters>
          </Trackpoint>
          <Trackpoint>
            <Time>2019-08-01T10:32:00.000Z</Time>
            <Position>
              <LatitudeDegrees>40.52921765483915805816650390625</LatitudeDegrees>
              <LongitudeDegrees>-4.04662719927728176116943359375</LongitudeDegrees>
            </Position>
            <AltitudeMeters>840.20001220703125</AltitudeMeters>
            <DistanceMeters>NAN</DistanceMeters>
          </Trackpoint>
          <Trackpoint>
            <Time>2019-08-01T10:32:01.000Z</Time>
            <Position>
              <LatitudeDegrees>40.52933466620743274688720703125</LatitudeDegrees>
              <LongitudeDegrees>-4.04666977934539318084716796875</LongitudeDegrees>
            </Position>
            <AltitudeMeters>840</AltitudeMeters>
            <DistanceMeters>NAN</DistanceMeters>
          </Trackpoint>
          <Trackpoint>
            <Time>2019-08-01T10:32:02.000Z</Time>
            <Position>
              <LatitudeDegrees>40.52945150993764400482177734375</LatitudeDegrees>
              <LongitudeDegrees>-4.046728201210498809814453125</LongitudeDegrees>
            </Position>
            <AltitudeMeters>839.79998779296875</AltitudeMeters>
            <DistanceMeters>NAN</DistanceMeters>
          </Trackpoint>
          <Trackpoint>
            <Time>2019-08-01T10:32:03.000Z</Time>
            <Position>
              <LatitudeDegrees>40.52957003004848957061767578125</LatitudeDegrees>
              <LongitudeDegrees>-4.04679265804588794708251953125</LongitudeDegrees>
            </Position>
            <AltitudeMeters>839.5999755859375</AltitudeMeters>
            <DistanceMeters>NAN</DistanceMeters>
          </Trackpoint>
          <Trackpoint>
            <Time>2019-08-01T10:32:04.000Z</Time>
            <Position>
              <LatitudeDegrees>40.52969056181609630584716796875</LatitudeDegrees>
              <LongitudeDegrees>-4.046858288347721099853515625</LongitudeDegrees>
            </Position>
            <AltitudeMeters>839.20001220703125</AltitudeMeters>
            <DistanceMeters>NAN</DistanceMeters>
          </Trackpoint>
          <Trackpoint>
            <Time>2019-08-01T10:32:05.000Z</Time>
            <Position>
              <LatitudeDegrees>40.529811680316925048828125</LatitudeDegrees>
              <LongitudeDegrees>-4.04692433774471282958984375</LongitudeDegrees>
            </Position>
            <AltitudeMeters>839.20001220703125</AltitudeMeters>
            <DistanceMeters>NAN</DistanceMeters>
          </Trackpoint>
          <Trackpoint>
            <Time>2019-08-01T10:32:06.000Z</Time>
            <Position>
              <LatitudeDegrees>40.5299328826367855072021484375</LatitudeDegrees>
              <LongitudeDegrees>-4.046991057693958282470703125</LongitudeDegrees>
            </Position>
            <AltitudeMeters>839</AltitudeMeters>
            <DistanceMeters>NAN</DistanceMeters>
          </Trackpoint>
          <Trackpoint>
            <Time>2019-08-01T10:32:07.000Z</Time>
            <Position>
              <LatitudeDegrees>40.53005333058536052703857421875</LatitudeDegrees>
              <LongitudeDegrees>-4.0470569394528865814208984375</LongitudeDegrees>
            </Position>
            <AltitudeMeters>838.5999755859375</AltitudeMeters>
            <DistanceMeters>NAN</DistanceMeters>
          </Trackpoint>
          <Trackpoint>
            <Time>2019-08-01T10:32:08.000Z</Time>
            <Position>
              <LatitudeDegrees>40.53017386235296726226806640625</LatitudeDegrees>
              <LongitudeDegrees>-4.04712072573602199554443359375</LongitudeDegrees>
            </Position>
            <AltitudeMeters>838</AltitudeMeters>
            <DistanceMeters>NAN</DistanceMeters>
          </Trackpoint>
          <Trackpoint>
            <Time>2019-08-01T10:32:09.000Z</Time>
            <Position>
              <LatitudeDegrees>40.53029506467282772064208984375</LatitudeDegrees>
              <LongitudeDegrees>-4.04717956669628620147705078125</LongitudeDegrees>
            </Position>
            <AltitudeMeters>837.5999755859375</AltitudeMeters>
            <DistanceMeters>NAN</DistanceMeters>
          </Trackpoint>
          <Trackpoint>
            <Time>2019-08-01T10:32:10.000Z</Time>
            <Position>
              <LatitudeDegrees>40.53041718900203704833984375</LatitudeDegrees>
              <LongitudeDegrees>-4.0472306124866008758544921875</LongitudeDegrees>
            </Position>
            <AltitudeMeters>837</AltitudeMeters>
            <DistanceMeters>NAN</DistanceMeters>
          </Trackpoint>
          <Trackpoint>
            <Time>2019-08-01T10:32:11.000Z</Time>
            <Position>
              <LatitudeDegrees>40.53053981624543666839599609375</LatitudeDegrees>
              <LongitudeDegrees>-4.04727344401180744171142578125</LongitudeDegrees>
            </Position>
            <AltitudeMeters>836</AltitudeMeters>
            <DistanceMeters>NAN</DistanceMeters>
          </Trackpoint>
          <Trackpoint>
            <Time>2019-08-01T10:32:12.000Z</Time>
            <Position>
              <LatitudeDegrees>40.53066194057464599609375</LatitudeDegrees>
              <LongitudeDegrees>-4.04731300659477710723876953125</LongitudeDegrees>
            </Position>
            <AltitudeMeters>835</AltitudeMeters>
            <DistanceMeters>NAN</DistanceMeters>
          </Trackpoint>
          <Trackpoint>
            <Time>2019-08-01T10:32:13.000Z</Time>
            <Position>
              <LatitudeDegrees>40.5307824723422527313232421875</LatitudeDegrees>
              <LongitudeDegrees>-4.0473493002355098724365234375</LongitudeDegrees>
            </Position>
            <AltitudeMeters>833.5999755859375</AltitudeMeters>
            <DistanceMeters>NAN</DistanceMeters>
          </Trackpoint>
          <Trackpoint>
            <Time>2019-08-01T10:32:14.000Z</Time>
            <Position>
              <LatitudeDegrees>40.5309004895389080047607421875</LatitudeDegrees>
              <LongitudeDegrees>-4.04738073237240314483642578125</LongitudeDegrees>
            </Position>
            <AltitudeMeters>832.4000244140625</AltitudeMeters>
            <DistanceMeters>NAN</DistanceMeters>
          </Trackpoint>
          <Trackpoint>
            <Time>2019-08-01T10:32:15.000Z</Time>
            <Position>
              <LatitudeDegrees>40.53101666271686553955078125</LatitudeDegrees>
              <LongitudeDegrees>-4.047409482300281524658203125</LongitudeDegrees>
            </Position>
            <AltitudeMeters>831.4000244140625</AltitudeMeters>
            <DistanceMeters>NAN</DistanceMeters>
          </Trackpoint>
          <Trackpoint>
            <Time>2019-08-01T10:32:16.000Z</Time>
            <Position>
              <LatitudeDegrees>40.531130991876125335693359375</LatitudeDegrees>
              <LongitudeDegrees>-4.04743932187557220458984375</LongitudeDegrees>
            </Position>
            <AltitudeMeters>830.79998779296875</AltitudeMeters>
            <DistanceMeters>NAN</DistanceMeters>
          </Trackpoint>
          <Trackpoint>
            <Time>2019-08-01T10:32:17.000Z</Time>
            <Position>
              <LatitudeDegrees>40.5312434770166873931884765625</LatitudeDegrees>
              <LongitudeDegrees>-4.04746907763183116912841796875</LongitudeDegrees>
            </Position>
            <AltitudeMeters>830.20001220703125</AltitudeMeters>
            <DistanceMeters>NAN</DistanceMeters>
          </Trackpoint>
          <Trackpoint>
            <Time>2019-08-01T10:32:18.000Z</Time>
            <Position>
              <LatitudeDegrees>40.53135386668145656585693359375</LatitudeDegrees>
              <LongitudeDegrees>-4.0474971570074558258056640625</LongitudeDegrees>
            </Position>
            <AltitudeMeters>830</AltitudeMeters>
            <DistanceMeters>NAN</DistanceMeters>
          </Trackpoint>
          <Trackpoint>
            <Time>2019-08-01T10:32:19.000Z</Time>
            <Position>
              <LatitudeDegrees>40.531462244689464569091796875</LatitudeDegrees>
              <LongitudeDegrees>-4.0475239790976047515869140625</LongitudeDegrees>
            </Position>
            <AltitudeMeters>829.5999755859375</AltitudeMeters>
            <DistanceMeters>NAN</DistanceMeters>
          </Trackpoint>
          <Trackpoint>
            <Time>2019-08-01T10:32:20.000Z</Time>
            <Position>
              <LatitudeDegrees>40.53156928159296512603759765625</LatitudeDegrees>
              <LongitudeDegrees>-4.0475511364638805389404296875</LongitudeDegrees>
            </Position>
            <AltitudeMeters>829.5999755859375</AltitudeMeters>
            <DistanceMeters>NAN</DistanceMeters>
          </Trackpoint>
          <Trackpoint>
            <Time>2019-08-01T10:32:21.000Z</Time>
            <Position>
              <LatitudeDegrees>40.5316746421158313751220703125</LatitudeDegrees>
              <LongitudeDegrees>-4.047573767602443695068359375</LongitudeDegrees>
            </Position>
            <AltitudeMeters>829.4000244140625</AltitudeMeters>
            <DistanceMeters>NAN</DistanceMeters>
          </Trackpoint>
          <Trackpoint>
            <Time>2019-08-01T10:32:22.000Z</Time>
            <Position>
              <LatitudeDegrees>40.53178017027676105499267578125</LatitudeDegrees>
              <LongitudeDegrees>-4.04758156277239322662353515625</LongitudeDegrees>
            </Position>
            <AltitudeMeters>829.4000244140625</AltitudeMeters>
            <DistanceMeters>NAN</DistanceMeters>
          </Trackpoint>
          <Trackpoint>
            <Time>2019-08-01T10:32:23.000Z</Time>
            <Position>
              <LatitudeDegrees>40.5318841896951198577880859375</LatitudeDegrees>
              <LongitudeDegrees>-4.0475752763450145721435546875</LongitudeDegrees>
            </Position>
            <AltitudeMeters>829.20001220703125</AltitudeMeters>
            <DistanceMeters>NAN</DistanceMeters>
          </Trackpoint>
          <Trackpoint>
            <Time>2019-08-01T10:32:24.000Z</Time>
            <Position>
              <LatitudeDegrees>40.53198636509478092193603515625</LatitudeDegrees>
              <LongitudeDegrees>-4.0475665591657161712646484375</LongitudeDegrees>
            </Position>
            <AltitudeMeters>829.20001220703125</AltitudeMeters>
            <DistanceMeters>NAN</DistanceMeters>
          </Trackpoint>
          <Trackpoint>
            <Time>2019-08-01T10:32:25.000Z</Time>
            <Position>
              <LatitudeDegrees>40.53208711557090282440185546875</LatitudeDegrees>
              <LongitudeDegrees>-4.04755943454802036285400390625</LongitudeDegrees>
            </Position>
            <AltitudeMeters>829.20001220703125</AltitudeMeters>
            <DistanceMeters>NAN</DistanceMeters>
          </Trackpoint>
          <Trackpoint>
            <Time>2019-08-01T10:32:26.000Z</Time>
            <Position>
              <LatitudeDegrees>40.53218686021864414215087890625</LatitudeDegrees>
              <LongitudeDegrees>-4.04755197465419769287109375</LongitudeDegrees>
            </Position>
            <AltitudeMeters>829.20001220703125</AltitudeMeters>
            <DistanceMeters>NAN</DistanceMeters>
          </Trackpoint>
          <Trackpoint>
            <Time>2019-08-01T10:32:27.000Z</Time>
            <Position>
              <LatitudeDegrees>40.53228476084768772125244140625</LatitudeDegrees>
              <LongitudeDegrees>-4.04754392802715301513671875</LongitudeDegrees>
            </Position>
            <AltitudeMeters>829.20001220703125</AltitudeMeters>
            <DistanceMeters>NAN</DistanceMeters>
          </Trackpoint>
          <Trackpoint>
            <Time>2019-08-01T10:32:28.000Z</Time>
            <Position>
              <LatitudeDegrees>40.53238182328641414642333984375</LatitudeDegrees>
              <LongitudeDegrees>-4.0475353784859180450439453125</LongitudeDegrees>
            </Position>
            <AltitudeMeters>829.20001220703125</AltitudeMeters>
            <DistanceMeters>NAN</DistanceMeters>
          </Trackpoint>
          <Trackpoint>
            <Time>2019-08-01T10:32:29.000Z</Time>
            <Position>
              <LatitudeDegrees>40.532478131353855133056640625</LatitudeDegrees>
              <LongitudeDegrees>-4.047526828944683074951171875</LongitudeDegrees>
            </Position>
            <AltitudeMeters>829.20001220703125</AltitudeMeters>
            <DistanceMeters>NAN</DistanceMeters>
          </Trackpoint>
          <Trackpoint>
            <Time>2019-08-01T10:32:30.000Z</Time>
            <Position>
              <LatitudeDegrees>40.532574355602264404296875</LatitudeDegrees>
              <LongitudeDegrees>-4.0475192852318286895751953125</LongitudeDegrees>
            </Position>
            <AltitudeMeters>829.20001220703125</AltitudeMeters>
            <DistanceMeters>NAN</DistanceMeters>
          </Trackpoint>
          <Trackpoint>
            <Time>2019-08-01T10:32:31.000Z</Time>
            <Position>
              <LatitudeDegrees>40.5326704122126102447509765625</LatitudeDegrees>
              <LongitudeDegrees>-4.04751266352832317352294921875</LongitudeDegrees>
            </Position>
            <AltitudeMeters>829.20001220703125</AltitudeMeters>
            <DistanceMeters>NAN</DistanceMeters>
          </Trackpoint>
          <Trackpoint>
            <Time>2019-08-01T10:32:32.000Z</Time>
            <Position>
              <LatitudeDegrees>40.53276604972779750823974609375</LatitudeDegrees>
              <LongitudeDegrees>-4.04750511981546878814697265625</LongitudeDegrees>
            </Position>
            <AltitudeMeters>829.4000244140625</AltitudeMeters>
            <DistanceMeters>NAN</DistanceMeters>
          </Trackpoint>
          <Trackpoint>
            <Time>2019-08-01T10:32:33.000Z</Time>
            <Position>
              <LatitudeDegrees>40.53286059759557247161865234375</LatitudeDegrees>
              <LongitudeDegrees>-4.04749707318842411041259765625</LongitudeDegrees>
            </Position>
            <AltitudeMeters>829.4000244140625</AltitudeMeters>
            <DistanceMeters>NAN</DistanceMeters>
          </Trackpoint>
          <Trackpoint>
            <Time>2019-08-01T10:32:34.000Z</Time>
            <Position>
              <LatitudeDegrees>40.5329547263681888580322265625</LatitudeDegrees>
              <LongitudeDegrees>-4.0474896132946014404296875</LongitudeDegrees>
            </Position>
            <AltitudeMeters>829.4000244140625</AltitudeMeters>
            <DistanceMeters>NAN</DistanceMeters>
          </Trackpoint>
          <Trackpoint>
            <Time>2019-08-01T10:32:35.000Z</Time>
            <Position>
              <LatitudeDegrees>40.53304818458855152130126953125</LatitudeDegrees>
              <LongitudeDegrees>-4.04748198576271533966064453125</LongitudeDegrees>
            </Position>
            <AltitudeMeters>829.5999755859375</AltitudeMeters>
            <DistanceMeters>NAN</DistanceMeters>
          </Trackpoint>
          <Trackpoint>
            <Time>2019-08-01T10:32:36.000Z</Time>
            <Position>
              <LatitudeDegrees>40.53314105607569217681884765625</LatitudeDegrees>
              <LongitudeDegrees>-4.04747427441179752349853515625</LongitudeDegrees>
            </Position>
            <AltitudeMeters>829.5999755859375</AltitudeMeters>
            <DistanceMeters>NAN</DistanceMeters>
          </Trackpoint>
          <Trackpoint>
            <Time>2019-08-01T10:32:37.000Z</Time>
            <Position>
              <LatitudeDegrees>40.53323292173445224761962890625</LatitudeDegrees>
              <LongitudeDegrees>-4.04746748507022857666015625</LongitudeDegrees>
            </Position>
            <AltitudeMeters>829.5999755859375</AltitudeMeters>
            <DistanceMeters>NAN</DistanceMeters>
          </Trackpoint>
          <Trackpoint>
            <Time>2019-08-01T10:32:38.000Z</Time>
            <Position>
              <LatitudeDegrees>40.53332361392676830291748046875</LatitudeDegrees>
              <LongitudeDegrees>-4.0474609471857547760009765625</LongitudeDegrees>
            </Position>
            <AltitudeMeters>829.5999755859375</AltitudeMeters>
            <DistanceMeters>NAN</DistanceMeters>
          </Trackpoint>
          <Trackpoint>
            <Time>2019-08-01T10:32:39.000Z</Time>
            <Position>
              <LatitudeDegrees>40.533413551747798919677734375</LatitudeDegrees>
              <LongitudeDegrees>-4.047453403472900390625</LongitudeDegrees>
            </Position>
            <AltitudeMeters>829.5999755859375</AltitudeMeters>
            <DistanceMeters>NAN</DistanceMeters>
          </Trackpoint>
          <Trackpoint>
            <Time>2019-08-01T10:32:40.000Z</Time>
            <Position>
              <LatitudeDegrees>40.5335029028356075286865234375</LatitudeDegrees>
              <LongitudeDegrees>-4.04744594357907772064208984375</LongitudeDegrees>
            </Position>
            <AltitudeMeters>829.5999755859375</AltitudeMeters>
            <DistanceMeters>NAN</DistanceMeters>
          </Trackpoint>
          <Trackpoint>
            <Time>2019-08-01T10:32:42.000Z</Time>
            <Position>
              <LatitudeDegrees>40.5336822755634784698486328125</LatitudeDegrees>
              <LongitudeDegrees>-4.04743194580078125</LongitudeDegrees>
            </Position>
            <AltitudeMeters>829.5999755859375</AltitudeMeters>
            <DistanceMeters>NAN</DistanceMeters>
          </Trackpoint>
          <Trackpoint>
            <Time>2019-08-01T10:32:44.000Z</Time>
            <Position>
              <LatitudeDegrees>40.53386156447231769561767578125</LatitudeDegrees>
              <LongitudeDegrees>-4.04741794802248477935791015625</LongitudeDegrees>
            </Position>
            <AltitudeMeters>829.79998779296875</AltitudeMeters>
            <DistanceMeters>NAN</DistanceMeters>
          </Trackpoint>
          <Trackpoint>
            <Time>2019-08-01T10:32:46.000Z</Time>
            <Position>
              <LatitudeDegrees>40.53404009900987148284912109375</LatitudeDegrees>
              <LongitudeDegrees>-4.04740436933934688568115234375</LongitudeDegrees>
            </Position>
            <AltitudeMeters>829.79998779296875</AltitudeMeters>
            <DistanceMeters>NAN</DistanceMeters>
          </Trackpoint>
          <Trackpoint>
            <Time>2019-08-01T10:32:47.000Z</Time>
            <Position>
              <LatitudeDegrees>40.53412911482155323028564453125</LatitudeDegrees>
              <LongitudeDegrees>-4.047397077083587646484375</LongitudeDegrees>
            </Position>
            <AltitudeMeters>829.79998779296875</AltitudeMeters>
            <DistanceMeters>NAN</DistanceMeters>
          </Trackpoint>
          <Trackpoint>
            <Time>2019-08-01T10:32:48.000Z</Time>
            <Position>
              <LatitudeDegrees>40.5342185497283935546875</LatitudeDegrees>
              <LongitudeDegrees>-4.0473903715610504150390625</LongitudeDegrees>
            </Position>
            <AltitudeMeters>829.79998779296875</AltitudeMeters>
            <DistanceMeters>NAN</DistanceMeters>
          </Trackpoint>
          <Trackpoint>
            <Time>2019-08-01T10:32:49.000Z</Time>
            <Position>
              <LatitudeDegrees>40.53430781699717044830322265625</LatitudeDegrees>
              <LongitudeDegrees>-4.0473848395049571990966796875</LongitudeDegrees>
            </Position>
            <AltitudeMeters>829.79998779296875</AltitudeMeters>
            <DistanceMeters>NAN</DistanceMeters>
          </Trackpoint>
          <Trackpoint>
            <Time>2019-08-01T10:32:50.000Z</Time>
            <Position>
              <LatitudeDegrees>40.53439649753272533416748046875</LatitudeDegrees>
              <LongitudeDegrees>-4.04737821780145168304443359375</LongitudeDegrees>
            </Position>
            <AltitudeMeters>829.5999755859375</AltitudeMeters>
            <DistanceMeters>NAN</DistanceMeters>
          </Trackpoint>
          <Trackpoint>
            <Time>2019-08-01T10:32:51.000Z</Time>
            <Position>
              <LatitudeDegrees>40.534484088420867919921875</LatitudeDegrees>
              <LongitudeDegrees>-4.04737017117440700531005859375</LongitudeDegrees>
            </Position>
            <AltitudeMeters>829.5999755859375</AltitudeMeters>
            <DistanceMeters>NAN</DistanceMeters>
          </Trackpoint>
          <Trackpoint>
            <Time>2019-08-01T10:32:52.000Z</Time>
            <Position>
              <LatitudeDegrees>40.534572266042232513427734375</LatitudeDegrees>
              <LongitudeDegrees>-4.0473627112805843353271484375</LongitudeDegrees>
            </Position>
            <AltitudeMeters>829.5999755859375</AltitudeMeters>
            <DistanceMeters>NAN</DistanceMeters>
          </Trackpoint>
          <Trackpoint>
            <Time>2019-08-01T10:32:53.000Z</Time>
            <Position>
              <LatitudeDegrees>40.53466069512069225311279296875</LatitudeDegrees>
              <LongitudeDegrees>-4.04735608957707881927490234375</LongitudeDegrees>
            </Position>
            <AltitudeMeters>829.5999755859375</AltitudeMeters>
            <DistanceMeters>NAN</DistanceMeters>
          </Trackpoint>
          <Trackpoint>
            <Time>2019-08-01T10:32:54.000Z</Time>
            <Position>
              <LatitudeDegrees>40.53474920801818370819091796875</LatitudeDegrees>
              <LongitudeDegrees>-4.0473496355116367340087890625</LongitudeDegrees>
            </Position>
            <AltitudeMeters>829.5999755859375</AltitudeMeters>
            <DistanceMeters>NAN</DistanceMeters>
          </Trackpoint>
          <Trackpoint>
            <Time>2019-08-01T10:32:55.000Z</Time>
            <Position>
              <LatitudeDegrees>40.5348376370966434478759765625</LatitudeDegrees>
              <LongitudeDegrees>-4.04734276235103607177734375</LongitudeDegrees>
            </Position>
            <AltitudeMeters>829.5999755859375</AltitudeMeters>
            <DistanceMeters>NAN</DistanceMeters>
          </Trackpoint>
          <Trackpoint>
            <Time>2019-08-01T10:32:56.000Z</Time>
            <Position>
              <LatitudeDegrees>40.5349261499941349029541015625</LatitudeDegrees>
              <LongitudeDegrees>-4.0473367273807525634765625</LongitudeDegrees>
            </Position>
            <AltitudeMeters>829.5999755859375</AltitudeMeters>
            <DistanceMeters>NAN</DistanceMeters>
          </Trackpoint>
          <Trackpoint>
            <Time>2019-08-01T10:32:57.000Z</Time>
            <Position>
              <LatitudeDegrees>40.53501474671065807342529296875</LatitudeDegrees>
              <LongitudeDegrees>-4.04733044095337390899658203125</LongitudeDegrees>
            </Position>
            <AltitudeMeters>829.5999755859375</AltitudeMeters>
            <DistanceMeters>NAN</DistanceMeters>
          </Trackpoint>
          <Trackpoint>
            <Time>2019-08-01T10:32:58.000Z</Time>
            <Position>
              <LatitudeDegrees>40.53510359488427639007568359375</LatitudeDegrees>
              <LongitudeDegrees>-4.04732390306890010833740234375</LongitudeDegrees>
            </Position>
            <AltitudeMeters>829.5999755859375</AltitudeMeters>
            <DistanceMeters>NAN</DistanceMeters>
          </Trackpoint>
          <Trackpoint>
            <Time>2019-08-01T10:32:59.000Z</Time>
            <Position>
              <LatitudeDegrees>40.5351920239627361297607421875</LatitudeDegrees>
              <LongitudeDegrees>-4.04731736518442630767822265625</LongitudeDegrees>
            </Position>
            <AltitudeMeters>829.5999755859375</AltitudeMeters>
            <DistanceMeters>NAN</DistanceMeters>
          </Trackpoint>
          <Trackpoint>
            <Time>2019-08-01T10:33:00.000Z</Time>
            <Position>
              <LatitudeDegrees>40.53528045304119586944580078125</LatitudeDegrees>
              <LongitudeDegrees>-4.04731133021414279937744140625</LongitudeDegrees>
            </Position>
            <AltitudeMeters>829.5999755859375</AltitudeMeters>
            <DistanceMeters>NAN</DistanceMeters>
          </Trackpoint>
          <Trackpoint>
            <Time>2019-08-01T10:33:01.000Z</Time>
            <Position>
              <LatitudeDegrees>40.53536829538643360137939453125</LatitudeDegrees>
              <LongitudeDegrees>-4.04730479232966899871826171875</LongitudeDegrees>
            </Position>
            <AltitudeMeters>829.5999755859375</AltitudeMeters>
            <DistanceMeters>NAN</DistanceMeters>
          </Trackpoint>
          <Trackpoint>
            <Time>2019-08-01T10:33:02.000Z</Time>
            <Position>
              <LatitudeDegrees>40.5354562215507030487060546875</LatitudeDegrees>
              <LongitudeDegrees>-4.0472976677119731903076171875</LongitudeDegrees>
            </Position>
            <AltitudeMeters>829.79998779296875</AltitudeMeters>
            <DistanceMeters>NAN</DistanceMeters>
          </Trackpoint>
          <Trackpoint>
            <Time>2019-08-01T10:33:03.000Z</Time>
            <Position>
              <LatitudeDegrees>40.53554431535303592681884765625</LatitudeDegrees>
              <LongitudeDegrees>-4.04729045927524566650390625</LongitudeDegrees>
            </Position>
            <AltitudeMeters>829.5999755859375</AltitudeMeters>
            <DistanceMeters>NAN</DistanceMeters>
          </Trackpoint>
          <Trackpoint>
            <Time>2019-08-01T10:33:04.000Z</Time>
            <Position>
              <LatitudeDegrees>40.5356325767934322357177734375</LatitudeDegrees>
              <LongitudeDegrees>-4.04728366993367671966552734375</LongitudeDegrees>
            </Position>
            <AltitudeMeters>829.5999755859375</AltitudeMeters>
            <DistanceMeters>NAN</DistanceMeters>
          </Trackpoint>
          <Trackpoint>
            <Time>2019-08-01T10:33:05.000Z</Time>
            <Position>
              <LatitudeDegrees>40.53572067059576511383056640625</LatitudeDegrees>
              <LongitudeDegrees>-4.04727746732532978057861328125</LongitudeDegrees>
            </Position>
            <AltitudeMeters>829.5999755859375</AltitudeMeters>
            <DistanceMeters>NAN</DistanceMeters>
          </Trackpoint>
          <Trackpoint>
            <Time>2019-08-01T10:33:06.000Z</Time>
            <Position>
              <LatitudeDegrees>40.5358085967600345611572265625</LatitudeDegrees>
              <LongitudeDegrees>-4.0472710132598876953125</LongitudeDegrees>
            </Position>
            <AltitudeMeters>829.79998779296875</AltitudeMeters>
            <DistanceMeters>NAN</DistanceMeters>
          </Trackpoint>
          <Trackpoint>
            <Time>2019-08-01T10:33:07.000Z</Time>
            <Position>
              <LatitudeDegrees>40.5358964391052722930908203125</LatitudeDegrees>
              <LongitudeDegrees>-4.04726405628025531768798828125</LongitudeDegrees>
            </Position>
            <AltitudeMeters>829.5999755859375</AltitudeMeters>
            <DistanceMeters>NAN</DistanceMeters>
          </Trackpoint>
          <Trackpoint>
            <Time>2019-08-01T10:33:08.000Z</Time>
            <Position>
              <LatitudeDegrees>40.53598344326019287109375</LatitudeDegrees>
              <LongitudeDegrees>-4.0472570993006229400634765625</LongitudeDegrees>
            </Position>
            <AltitudeMeters>829.5999755859375</AltitudeMeters>
            <DistanceMeters>NAN</DistanceMeters>
          </Trackpoint>
          <Trackpoint>
            <Time>2019-08-01T10:33:09.000Z</Time>
            <Position>
              <LatitudeDegrees>40.53606969304382801055908203125</LatitudeDegrees>
              <LongitudeDegrees>-4.04725014232099056243896484375</LongitudeDegrees>
            </Position>
            <AltitudeMeters>829.5999755859375</AltitudeMeters>
            <DistanceMeters>NAN</DistanceMeters>
          </Trackpoint>
          <Trackpoint>
            <Time>2019-08-01T10:33:10.000Z</Time>
            <Position>
              <LatitudeDegrees>40.536155439913272857666015625</LatitudeDegrees>
              <LongitudeDegrees>-4.04724310152232646942138671875</LongitudeDegrees>
            </Position>
            <AltitudeMeters>829.5999755859375</AltitudeMeters>
            <DistanceMeters>NAN</DistanceMeters>
          </Trackpoint>
          <Trackpoint>
            <Time>2019-08-01T10:33:11.000Z</Time>
            <Position>
              <LatitudeDegrees>40.53624101914465427398681640625</LatitudeDegrees>
              <LongitudeDegrees>-4.0472359769046306610107421875</LongitudeDegrees>
            </Position>
            <AltitudeMeters>829.5999755859375</AltitudeMeters>
            <DistanceMeters>NAN</DistanceMeters>
          </Trackpoint>
          <Trackpoint>
            <Time>2019-08-01T10:33:12.000Z</Time>
            <Position>
              <LatitudeDegrees>40.53632567636668682098388671875</LatitudeDegrees>
              <LongitudeDegrees>-4.0472299419343471527099609375</LongitudeDegrees>
            </Position>
            <AltitudeMeters>829.5999755859375</AltitudeMeters>
            <DistanceMeters>NAN</DistanceMeters>
          </Trackpoint>
          <Trackpoint>
            <Time>2019-08-01T10:33:14.000Z</Time>
            <Position>
              <LatitudeDegrees>40.53649499081075191497802734375</LatitudeDegrees>
              <LongitudeDegrees>-4.0472185425460338592529296875</LongitudeDegrees>
            </Position>
            <AltitudeMeters>829.4000244140625</AltitudeMeters>
            <DistanceMeters>NAN</DistanceMeters>
          </Trackpoint>
          <Trackpoint>
            <Time>2019-08-01T10:33:15.000Z</Time>
            <Position>
              <LatitudeDegrees>40.53657998330891132354736328125</LatitudeDegrees>
              <LongitudeDegrees>-4.04721267521381378173828125</LongitudeDegrees>
            </Position>
            <AltitudeMeters>829.4000244140625</AltitudeMeters>
            <DistanceMeters>NAN</DistanceMeters>
          </Trackpoint>
          <Trackpoint>
            <Time>2019-08-01T10:33:16.000Z</Time>
            <Position>
              <LatitudeDegrees>40.5366655625402927398681640625</LatitudeDegrees>
              <LongitudeDegrees>-4.04720571823418140411376953125</LongitudeDegrees>
            </Position>
            <AltitudeMeters>829.4000244140625</AltitudeMeters>
            <DistanceMeters>NAN</DistanceMeters>
          </Trackpoint>
          <Trackpoint>
            <Time>2019-08-01T10:33:17.000Z</Time>
            <Position>
              <LatitudeDegrees>40.536750890314579010009765625</LatitudeDegrees>
              <LongitudeDegrees>-4.04719926416873931884765625</LongitudeDegrees>
            </Position>
            <AltitudeMeters>829.4000244140625</AltitudeMeters>
            <DistanceMeters>NAN</DistanceMeters>
          </Trackpoint>
          <Trackpoint>
            <Time>2019-08-01T10:33:18.000Z</Time>
            <Position>
              <LatitudeDegrees>40.536836050450801849365234375</LatitudeDegrees>
              <LongitudeDegrees>-4.047193564474582672119140625</LongitudeDegrees>
            </Position>
            <AltitudeMeters>829.4000244140625</AltitudeMeters>
            <DistanceMeters>NAN</DistanceMeters>
          </Trackpoint>
          <Trackpoint>
            <Time>2019-08-01T10:33:19.000Z</Time>
            <Position>
              <LatitudeDegrees>40.53692095912992954254150390625</LatitudeDegrees>
              <LongitudeDegrees>-4.04718778096139430999755859375</LongitudeDegrees>
            </Position>
            <AltitudeMeters>829.4000244140625</AltitudeMeters>
            <DistanceMeters>NAN</DistanceMeters>
          </Trackpoint>
          <Trackpoint>
            <Time>2019-08-01T10:33:21.000Z</Time>
            <Position>
              <LatitudeDegrees>40.53709027357399463653564453125</LatitudeDegrees>
              <LongitudeDegrees>-4.04717470519244670867919921875</LongitudeDegrees>
            </Position>
            <AltitudeMeters>829.4000244140625</AltitudeMeters>
            <DistanceMeters>NAN</DistanceMeters>
          </Trackpoint>
          <Trackpoint>
            <Time>2019-08-01T10:33:22.000Z</Time>
            <Position>
              <LatitudeDegrees>40.53717493079602718353271484375</LatitudeDegrees>
              <LongitudeDegrees>-4.0471692569553852081298828125</LongitudeDegrees>
            </Position>
            <AltitudeMeters>829.4000244140625</AltitudeMeters>
            <DistanceMeters>NAN</DistanceMeters>
          </Trackpoint>
          <Trackpoint>
            <Time>2019-08-01T10:33:23.000Z</Time>
            <Position>
              <LatitudeDegrees>40.53725942037999629974365234375</LatitudeDegrees>
              <LongitudeDegrees>-4.04716313816606998443603515625</LongitudeDegrees>
            </Position>
            <AltitudeMeters>829.4000244140625</AltitudeMeters>
            <DistanceMeters>NAN</DistanceMeters>
          </Trackpoint>
          <Trackpoint>
            <Time>2019-08-01T10:33:24.000Z</Time>
            <Position>
              <LatitudeDegrees>40.53734458051621913909912109375</LatitudeDegrees>
              <LongitudeDegrees>-4.047156013548374176025390625</LongitudeDegrees>
            </Position>
            <AltitudeMeters>829.4000244140625</AltitudeMeters>
            <DistanceMeters>NAN</DistanceMeters>
          </Trackpoint>
          <Trackpoint>
            <Time>2019-08-01T10:33:25.000Z</Time>
            <Position>
              <LatitudeDegrees>40.53742940537631511688232421875</LatitudeDegrees>
              <LongitudeDegrees>-4.04714989475905895233154296875</LongitudeDegrees>
            </Position>
            <AltitudeMeters>829.4000244140625</AltitudeMeters>
            <DistanceMeters>NAN</DistanceMeters>
          </Trackpoint>
          <Trackpoint>
            <Time>2019-08-01T10:33:26.000Z</Time>
            <Position>
              <LatitudeDegrees>40.5375141464173793792724609375</LatitudeDegrees>
              <LongitudeDegrees>-4.0471441112458705902099609375</LongitudeDegrees>
            </Position>
            <AltitudeMeters>829.4000244140625</AltitudeMeters>
            <DistanceMeters>NAN</DistanceMeters>
          </Trackpoint>
          <Trackpoint>
            <Time>2019-08-01T10:33:27.000Z</Time>
            <Position>
              <LatitudeDegrees>40.537599809467792510986328125</LatitudeDegrees>
              <LongitudeDegrees>-4.04713782481849193572998046875</LongitudeDegrees>
            </Position>
            <AltitudeMeters>829.4000244140625</AltitudeMeters>
            <DistanceMeters>NAN</DistanceMeters>
          </Trackpoint>
          <Trackpoint>
            <Time>2019-08-01T10:33:28.000Z</Time>
            <Position>
              <LatitudeDegrees>40.5376853048801422119140625</LatitudeDegrees>
              <LongitudeDegrees>-4.0471320413053035736083984375</LongitudeDegrees>
            </Position>
            <AltitudeMeters>829.5999755859375</AltitudeMeters>
            <DistanceMeters>NAN</DistanceMeters>
          </Trackpoint>
          <Trackpoint>
            <Time>2019-08-01T10:33:29.000Z</Time>
            <Position>
              <LatitudeDegrees>40.5377709679305553436279296875</LatitudeDegrees>
              <LongitudeDegrees>-4.04712575487792491912841796875</LongitudeDegrees>
            </Position>
            <AltitudeMeters>829.5999755859375</AltitudeMeters>
            <DistanceMeters>NAN</DistanceMeters>
          </Trackpoint>
          <Trackpoint>
            <Time>2019-08-01T10:33:30.000Z</Time>
            <Position>
              <LatitudeDegrees>40.5378569662570953369140625</LatitudeDegrees>
              <LongitudeDegrees>-4.04711879789829254150390625</LongitudeDegrees>
            </Position>
            <AltitudeMeters>829.79998779296875</AltitudeMeters>
            <DistanceMeters>NAN</DistanceMeters>
          </Trackpoint>
          <Trackpoint>
            <Time>2019-08-01T10:33:31.000Z</Time>
            <Position>
              <LatitudeDegrees>40.53794338367879390716552734375</LatitudeDegrees>
              <LongitudeDegrees>-4.04711251147091388702392578125</LongitudeDegrees>
            </Position>
            <AltitudeMeters>829.79998779296875</AltitudeMeters>
            <DistanceMeters>NAN</DistanceMeters>
          </Trackpoint>
          <Trackpoint>
            <Time>2019-08-01T10:33:33.000Z</Time>
            <Position>
              <LatitudeDegrees>40.53811588324606418609619140625</LatitudeDegrees>
              <LongitudeDegrees>-4.04709926806390285491943359375</LongitudeDegrees>
            </Position>
            <AltitudeMeters>829.79998779296875</AltitudeMeters>
            <DistanceMeters>NAN</DistanceMeters>
          </Trackpoint>
          <Trackpoint>
            <Time>2019-08-01T10:33:34.000Z</Time>
            <Position>
              <LatitudeDegrees>40.5382024683058261871337890625</LatitudeDegrees>
              <LongitudeDegrees>-4.04709331691265106201171875</LongitudeDegrees>
            </Position>
            <AltitudeMeters>830</AltitudeMeters>
            <DistanceMeters>NAN</DistanceMeters>
          </Trackpoint>
          <Trackpoint>
            <Time>2019-08-01T10:33:35.000Z</Time>
            <Position>
              <LatitudeDegrees>40.5382888019084930419921875</LatitudeDegrees>
              <LongitudeDegrees>-4.0470874495804309844970703125</LongitudeDegrees>
            </Position>
            <AltitudeMeters>830.4000244140625</AltitudeMeters>
            <DistanceMeters>NAN</DistanceMeters>
          </Trackpoint>
          <Trackpoint>
            <Time>2019-08-01T10:33:36.000Z</Time>
            <Position>
              <LatitudeDegrees>40.5383754707872867584228515625</LatitudeDegrees>
              <LongitudeDegrees>-4.04708049260079860687255859375</LongitudeDegrees>
            </Position>
            <AltitudeMeters>830.4000244140625</AltitudeMeters>
            <DistanceMeters>NAN</DistanceMeters>
          </Trackpoint>
          <Trackpoint>
            <Time>2019-08-01T10:33:37.000Z</Time>
            <Position>
              <LatitudeDegrees>40.53846255876123905181884765625</LatitudeDegrees>
              <LongitudeDegrees>-4.0470740385353565216064453125</LongitudeDegrees>
            </Position>
            <AltitudeMeters>830.4000244140625</AltitudeMeters>
            <DistanceMeters>NAN</DistanceMeters>
          </Trackpoint>
          <Trackpoint>
            <Time>2019-08-01T10:33:38.000Z</Time>
            <Position>
              <LatitudeDegrees>40.53854964673519134521484375</LatitudeDegrees>
              <LongitudeDegrees>-4.04706808738410472869873046875</LongitudeDegrees>
            </Position>
            <AltitudeMeters>830.4000244140625</AltitudeMeters>
            <DistanceMeters>NAN</DistanceMeters>
          </Trackpoint>
          <Trackpoint>
            <Time>2019-08-01T10:33:39.000Z</Time>
            <Position>
              <LatitudeDegrees>40.53863706998527050018310546875</LatitudeDegrees>
              <LongitudeDegrees>-4.04706222005188465118408203125</LongitudeDegrees>
            </Position>
            <AltitudeMeters>830.5999755859375</AltitudeMeters>
            <DistanceMeters>NAN</DistanceMeters>
          </Trackpoint>
          <Trackpoint>
            <Time>2019-08-01T10:33:40.000Z</Time>
            <Position>
              <LatitudeDegrees>40.538724996149539947509765625</LatitudeDegrees>
              <LongitudeDegrees>-4.0470569394528865814208984375</LongitudeDegrees>
            </Position>
            <AltitudeMeters>830.5999755859375</AltitudeMeters>
            <DistanceMeters>NAN</DistanceMeters>
          </Trackpoint>
          <Trackpoint>
            <Time>2019-08-01T10:33:41.000Z</Time>
            <Position>
              <LatitudeDegrees>40.5388130061328411102294921875</LatitudeDegrees>
              <LongitudeDegrees>-4.04705174267292022705078125</LongitudeDegrees>
            </Position>
            <AltitudeMeters>830.5999755859375</AltitudeMeters>
            <DistanceMeters>NAN</DistanceMeters>
          </Trackpoint>
          <Trackpoint>
            <Time>2019-08-01T10:33:42.000Z</Time>
            <Position>
              <LatitudeDegrees>40.53890076465904712677001953125</LatitudeDegrees>
              <LongitudeDegrees>-4.04704545624554157257080078125</LongitudeDegrees>
            </Position>
            <AltitudeMeters>830.5999755859375</AltitudeMeters>
            <DistanceMeters>NAN</DistanceMeters>
          </Trackpoint>
          <Trackpoint>
            <Time>2019-08-01T10:33:44.000Z</Time>
            <Position>
              <LatitudeDegrees>40.53907871246337890625</LatitudeDegrees>
              <LongitudeDegrees>-4.04703162610530853271484375</LongitudeDegrees>
            </Position>
            <AltitudeMeters>830.5999755859375</AltitudeMeters>
            <DistanceMeters>NAN</DistanceMeters>
          </Trackpoint>
          <Trackpoint>
            <Time>2019-08-01T10:33:45.000Z</Time>
            <Position>
              <LatitudeDegrees>40.53916831500828266143798828125</LatitudeDegrees>
              <LongitudeDegrees>-4.0470250882208347320556640625</LongitudeDegrees>
            </Position>
            <AltitudeMeters>830.5999755859375</AltitudeMeters>
            <DistanceMeters>NAN</DistanceMeters>
          </Trackpoint>
          <Trackpoint>
            <Time>2019-08-01T10:33:46.000Z</Time>
            <Position>
              <LatitudeDegrees>40.53925816901028156280517578125</LatitudeDegrees>
              <LongitudeDegrees>-4.04701888561248779296875</LongitudeDegrees>
            </Position>
            <AltitudeMeters>830.5999755859375</AltitudeMeters>
            <DistanceMeters>NAN</DistanceMeters>
          </Trackpoint>
          <Trackpoint>
            <Time>2019-08-01T10:33:47.000Z</Time>
            <Position>
              <LatitudeDegrees>40.53934785537421703338623046875</LatitudeDegrees>
              <LongitudeDegrees>-4.0470126830041408538818359375</LongitudeDegrees>
            </Position>
            <AltitudeMeters>830.5999755859375</AltitudeMeters>
            <DistanceMeters>NAN</DistanceMeters>
          </Trackpoint>
          <Trackpoint>
            <Time>2019-08-01T10:33:48.000Z</Time>
            <Position>
              <LatitudeDegrees>40.53943745791912078857421875</LatitudeDegrees>
              <LongitudeDegrees>-4.0470056422054767608642578125</LongitudeDegrees>
            </Position>
            <AltitudeMeters>830.5999755859375</AltitudeMeters>
            <DistanceMeters>NAN</DistanceMeters>
          </Trackpoint>
          <Trackpoint>
            <Time>2019-08-01T10:33:49.000Z</Time>
            <Position>
              <LatitudeDegrees>40.53952672518789768218994140625</LatitudeDegrees>
              <LongitudeDegrees>-4.04699784703552722930908203125</LongitudeDegrees>
            </Position>
            <AltitudeMeters>830.5999755859375</AltitudeMeters>
            <DistanceMeters>NAN</DistanceMeters>
          </Trackpoint>
          <Trackpoint>
            <Time>2019-08-01T10:33:50.000Z</Time>
            <Position>
              <LatitudeDegrees>40.5396156571805477142333984375</LatitudeDegrees>
              <LongitudeDegrees>-4.04699273407459259033203125</LongitudeDegrees>
            </Position>
            <AltitudeMeters>830.5999755859375</AltitudeMeters>
            <DistanceMeters>NAN</DistanceMeters>
          </Trackpoint>
          <Trackpoint>
            <Time>2019-08-01T10:33:51.000Z</Time>
            <Position>
              <LatitudeDegrees>40.539704672992229461669921875</LatitudeDegrees>
              <LongitudeDegrees>-4.04698795638978481292724609375</LongitudeDegrees>
            </Position>
            <AltitudeMeters>830.5999755859375</AltitudeMeters>
            <DistanceMeters>NAN</DistanceMeters>
          </Trackpoint>
          <Trackpoint>
            <Time>2019-08-01T10:33:52.000Z</Time>
            <Position>
              <LatitudeDegrees>40.5397935211658477783203125</LatitudeDegrees>
              <LongitudeDegrees>-4.046981334686279296875</LongitudeDegrees>
            </Position>
            <AltitudeMeters>830.5999755859375</AltitudeMeters>
            <DistanceMeters>NAN</DistanceMeters>
          </Trackpoint>
          <Trackpoint>
            <Time>2019-08-01T10:33:53.000Z</Time>
            <Position>
              <LatitudeDegrees>40.53988379426300525665283203125</LatitudeDegrees>
              <LongitudeDegrees>-4.04697437770664691925048828125</LongitudeDegrees>
            </Position>
            <AltitudeMeters>830.5999755859375</AltitudeMeters>
            <DistanceMeters>NAN</DistanceMeters>
          </Trackpoint>
          <Trackpoint>
            <Time>2019-08-01T10:33:54.000Z</Time>
            <Position>
              <LatitudeDegrees>40.53997348062694072723388671875</LatitudeDegrees>
              <LongitudeDegrees>-4.04696867801249027252197265625</LongitudeDegrees>
            </Position>
            <AltitudeMeters>830.5999755859375</AltitudeMeters>
            <DistanceMeters>NAN</DistanceMeters>
          </Trackpoint>
          <Trackpoint>
            <Time>2019-08-01T10:33:55.000Z</Time>
            <Position>
              <LatitudeDegrees>40.54006241261959075927734375</LatitudeDegrees>
              <LongitudeDegrees>-4.0469620563089847564697265625</LongitudeDegrees>
            </Position>
            <AltitudeMeters>830.5999755859375</AltitudeMeters>
            <DistanceMeters>NAN</DistanceMeters>
          </Trackpoint>
          <Trackpoint>
            <Time>2019-08-01T10:33:56.000Z</Time>
            <Position>
              <LatitudeDegrees>40.5401514284312725067138671875</LatitudeDegrees>
              <LongitudeDegrees>-4.04695560224354267120361328125</LongitudeDegrees>
            </Position>
            <AltitudeMeters>830.5999755859375</AltitudeMeters>
            <DistanceMeters>NAN</DistanceMeters>
          </Trackpoint>
          <Trackpoint>
            <Time>2019-08-01T10:33:57.000Z</Time>
            <Position>
              <LatitudeDegrees>40.5402396060526371002197265625</LatitudeDegrees>
              <LongitudeDegrees>-4.0469496510922908782958984375</LongitudeDegrees>
            </Position>
            <AltitudeMeters>830.5999755859375</AltitudeMeters>
            <DistanceMeters>NAN</DistanceMeters>
          </Trackpoint>
          <Trackpoint>
            <Time>2019-08-01T10:33:58.000Z</Time>
            <Position>
              <LatitudeDegrees>40.540328286588191986083984375</LatitudeDegrees>
              <LongitudeDegrees>-4.046941436827182769775390625</LongitudeDegrees>
            </Position>
            <AltitudeMeters>830.5999755859375</AltitudeMeters>
            <DistanceMeters>NAN</DistanceMeters>
          </Trackpoint>
          <Trackpoint>
            <Time>2019-08-01T10:33:59.000Z</Time>
            <Position>
              <LatitudeDegrees>40.54041604511439800262451171875</LatitudeDegrees>
              <LongitudeDegrees>-4.04692827723920345306396484375</LongitudeDegrees>
            </Position>
            <AltitudeMeters>830.5999755859375</AltitudeMeters>
            <DistanceMeters>NAN</DistanceMeters>
          </Trackpoint>
          <Trackpoint>
            <Time>2019-08-01T10:34:00.000Z</Time>
            <Position>
              <LatitudeDegrees>40.540502630174160003662109375</LatitudeDegrees>
              <LongitudeDegrees>-4.04690422117710113525390625</LongitudeDegrees>
            </Position>
            <AltitudeMeters>830.5999755859375</AltitudeMeters>
            <DistanceMeters>NAN</DistanceMeters>
          </Trackpoint>
          <Trackpoint>
            <Time>2019-08-01T10:34:01.000Z</Time>
            <Position>
              <LatitudeDegrees>40.54058603011071681976318359375</LatitudeDegrees>
              <LongitudeDegrees>-4.04686943627893924713134765625</LongitudeDegrees>
            </Position>
            <AltitudeMeters>830.4000244140625</AltitudeMeters>
            <DistanceMeters>NAN</DistanceMeters>
          </Trackpoint>
          <Trackpoint>
            <Time>2019-08-01T10:34:02.000Z</Time>
            <Position>
              <LatitudeDegrees>40.54066565819084644317626953125</LatitudeDegrees>
              <LongitudeDegrees>-4.04682434163987636566162109375</LongitudeDegrees>
            </Position>
            <AltitudeMeters>830.20001220703125</AltitudeMeters>
            <DistanceMeters>NAN</DistanceMeters>
          </Trackpoint>
          <Trackpoint>
            <Time>2019-08-01T10:34:03.000Z</Time>
            <Position>
              <LatitudeDegrees>40.54074193350970745086669921875</LatitudeDegrees>
              <LongitudeDegrees>-4.04676876962184906005859375</LongitudeDegrees>
            </Position>
            <AltitudeMeters>830.20001220703125</AltitudeMeters>
            <DistanceMeters>NAN</DistanceMeters>
          </Trackpoint>
          <Trackpoint>
            <Time>2019-08-01T10:34:04.000Z</Time>
            <Position>
              <LatitudeDegrees>40.54081385023891925811767578125</LatitudeDegrees>
              <LongitudeDegrees>-4.04670238494873046875</LongitudeDegrees>
            </Position>
            <AltitudeMeters>830.20001220703125</AltitudeMeters>
            <DistanceMeters>NAN</DistanceMeters>
          </Trackpoint>
          <Trackpoint>
            <Time>2019-08-01T10:34:05.000Z</Time>
            <Position>
              <LatitudeDegrees>40.5408816598355770111083984375</LatitudeDegrees>
              <LongitudeDegrees>-4.0466286242008209228515625</LongitudeDegrees>
            </Position>
            <AltitudeMeters>830</AltitudeMeters>
            <DistanceMeters>NAN</DistanceMeters>
          </Trackpoint>
          <Trackpoint>
            <Time>2019-08-01T10:34:06.000Z</Time>
            <Position>
              <LatitudeDegrees>40.5409430153667926788330078125</LatitudeDegrees>
              <LongitudeDegrees>-4.04654623009264469146728515625</LongitudeDegrees>
            </Position>
            <AltitudeMeters>830</AltitudeMeters>
            <DistanceMeters>NAN</DistanceMeters>
          </Trackpoint>
          <Trackpoint>
            <Time>2019-08-01T10:34:07.000Z</Time>
            <Position>
              <LatitudeDegrees>40.5409973300993442535400390625</LatitudeDegrees>
              <LongitudeDegrees>-4.046455286443233489990234375</LongitudeDegrees>
            </Position>
            <AltitudeMeters>830</AltitudeMeters>
            <DistanceMeters>NAN</DistanceMeters>
          </Trackpoint>
          <Trackpoint>
            <Time>2019-08-01T10:34:08.000Z</Time>
            <Position>
              <LatitudeDegrees>40.5410446040332317352294921875</LatitudeDegrees>
              <LongitudeDegrees>-4.0463585592806339263916015625</LongitudeDegrees>
            </Position>
            <AltitudeMeters>830</AltitudeMeters>
            <DistanceMeters>NAN</DistanceMeters>
          </Trackpoint>
          <Trackpoint>
            <Time>2019-08-01T10:34:09.000Z</Time>
            <Position>
              <LatitudeDegrees>40.54108458571135997772216796875</LatitudeDegrees>
              <LongitudeDegrees>-4.04625789262354373931884765625</LongitudeDegrees>
            </Position>
            <AltitudeMeters>830</AltitudeMeters>
            <DistanceMeters>NAN</DistanceMeters>
          </Trackpoint>
          <Trackpoint>
            <Time>2019-08-01T10:34:10.000Z</Time>
            <Position>
              <LatitudeDegrees>40.5411207117140293121337890625</LatitudeDegrees>
              <LongitudeDegrees>-4.04615546576678752899169921875</LongitudeDegrees>
            </Position>
            <AltitudeMeters>830</AltitudeMeters>
            <DistanceMeters>NAN</DistanceMeters>
          </Trackpoint>
          <Trackpoint>
            <Time>2019-08-01T10:34:11.000Z</Time>
            <Position>
              <LatitudeDegrees>40.54115650244057178497314453125</LatitudeDegrees>
              <LongitudeDegrees>-4.04605329036712646484375</LongitudeDegrees>
            </Position>
            <AltitudeMeters>829.79998779296875</AltitudeMeters>
            <DistanceMeters>NAN</DistanceMeters>
          </Trackpoint>
          <Trackpoint>
            <Time>2019-08-01T10:34:12.000Z</Time>
            <Position>
              <LatitudeDegrees>40.54119162261486053466796875</LatitudeDegrees>
              <LongitudeDegrees>-4.045953042805194854736328125</LongitudeDegrees>
            </Position>
            <AltitudeMeters>829.79998779296875</AltitudeMeters>
            <DistanceMeters>NAN</DistanceMeters>
          </Trackpoint>
          <Trackpoint>
            <Time>2019-08-01T10:34:13.000Z</Time>
            <Position>
              <LatitudeDegrees>40.541225485503673553466796875</LatitudeDegrees>
              <LongitudeDegrees>-4.04585405252873897552490234375</LongitudeDegrees>
            </Position>
            <AltitudeMeters>829.5999755859375</AltitudeMeters>
            <DistanceMeters>NAN</DistanceMeters>
          </Trackpoint>
          <Trackpoint>
            <Time>2019-08-01T10:34:14.000Z</Time>
            <Position>
              <LatitudeDegrees>40.54125742055475711822509765625</LatitudeDegrees>
              <LongitudeDegrees>-4.0457567386329174041748046875</LongitudeDegrees>
            </Position>
            <AltitudeMeters>829.4000244140625</AltitudeMeters>
            <DistanceMeters>NAN</DistanceMeters>
          </Trackpoint>
          <Trackpoint>
            <Time>2019-08-01T10:34:15.000Z</Time>
            <Position>
              <LatitudeDegrees>40.54128860123455524444580078125</LatitudeDegrees>
              <LongitudeDegrees>-4.04566009528934955596923828125</LongitudeDegrees>
            </Position>
            <AltitudeMeters>829.20001220703125</AltitudeMeters>
            <DistanceMeters>NAN</DistanceMeters>
          </Trackpoint>
          <Trackpoint>
            <Time>2019-08-01T10:34:16.000Z</Time>
            <Position>
              <LatitudeDegrees>40.5413195304572582244873046875</LatitudeDegrees>
              <LongitudeDegrees>-4.0455646254122257232666015625</LongitudeDegrees>
            </Position>
            <AltitudeMeters>829.20001220703125</AltitudeMeters>
            <DistanceMeters>NAN</DistanceMeters>
          </Trackpoint>
          <Trackpoint>
            <Time>2019-08-01T10:34:17.000Z</Time>
            <Position>
              <LatitudeDegrees>40.5413510464131832122802734375</LatitudeDegrees>
              <LongitudeDegrees>-4.04547049663960933685302734375</LongitudeDegrees>
            </Position>
            <AltitudeMeters>829.20001220703125</AltitudeMeters>
            <DistanceMeters>NAN</DistanceMeters>
          </Trackpoint>
          <Trackpoint>
            <Time>2019-08-01T10:34:18.000Z</Time>
            <Position>
              <LatitudeDegrees>40.5413832329213619232177734375</LatitudeDegrees>
              <LongitudeDegrees>-4.0453768707811832427978515625</LongitudeDegrees>
            </Position>
            <AltitudeMeters>829.20001220703125</AltitudeMeters>
            <DistanceMeters>NAN</DistanceMeters>
          </Trackpoint>
          <Trackpoint>
            <Time>2019-08-01T10:34:19.000Z</Time>
            <Position>
              <LatitudeDegrees>40.541412569582462310791015625</LatitudeDegrees>
              <LongitudeDegrees>-4.0452836640179157257080078125</LongitudeDegrees>
            </Position>
            <AltitudeMeters>829.20001220703125</AltitudeMeters>
            <DistanceMeters>NAN</DistanceMeters>
          </Trackpoint>
          <Trackpoint>
            <Time>2019-08-01T10:34:20.000Z</Time>
            <Position>
              <LatitudeDegrees>40.54144249297678470611572265625</LatitudeDegrees>
              <LongitudeDegrees>-4.04519163072109222412109375</LongitudeDegrees>
            </Position>
            <AltitudeMeters>829.20001220703125</AltitudeMeters>
            <DistanceMeters>NAN</DistanceMeters>
          </Trackpoint>
          <Trackpoint>
            <Time>2019-08-01T10:34:21.000Z</Time>
            <Position>
              <LatitudeDegrees>40.54147300310432910919189453125</LatitudeDegrees>
              <LongitudeDegrees>-4.0451009385287761688232421875</LongitudeDegrees>
            </Position>
            <AltitudeMeters>829.20001220703125</AltitudeMeters>
            <DistanceMeters>NAN</DistanceMeters>
          </Trackpoint>
          <Trackpoint>
            <Time>2019-08-01T10:34:22.000Z</Time>
            <Position>
              <LatitudeDegrees>40.5415025912225246429443359375</LatitudeDegrees>
              <LongitudeDegrees>-4.0450130961835384368896484375</LongitudeDegrees>
            </Position>
            <AltitudeMeters>829.20001220703125</AltitudeMeters>
            <DistanceMeters>NAN</DistanceMeters>
          </Trackpoint>
          <Trackpoint>
            <Time>2019-08-01T10:34:23.000Z</Time>
            <Position>
              <LatitudeDegrees>40.541530586779117584228515625</LatitudeDegrees>
              <LongitudeDegrees>-4.04492785222828388214111328125</LongitudeDegrees>
            </Position>
            <AltitudeMeters>829.20001220703125</AltitudeMeters>
            <DistanceMeters>NAN</DistanceMeters>
          </Trackpoint>
          <Trackpoint>
            <Time>2019-08-01T10:34:24.000Z</Time>
            <Position>
              <LatitudeDegrees>40.54155799560248851776123046875</LatitudeDegrees>
              <LongitudeDegrees>-4.044846631586551666259765625</LongitudeDegrees>
            </Position>
            <AltitudeMeters>829.20001220703125</AltitudeMeters>
            <DistanceMeters>NAN</DistanceMeters>
          </Trackpoint>
          <Trackpoint>
            <Time>2019-08-01T10:34:25.000Z</Time>
            <Position>
              <LatitudeDegrees>40.54158448241651058197021484375</LatitudeDegrees>
              <LongitudeDegrees>-4.04476784169673919677734375</LongitudeDegrees>
            </Position>
            <AltitudeMeters>829.20001220703125</AltitudeMeters>
            <DistanceMeters>NAN</DistanceMeters>
          </Trackpoint>
          <Trackpoint>
            <Time>2019-08-01T10:34:26.000Z</Time>
            <Position>
              <LatitudeDegrees>40.54161147214472293853759765625</LatitudeDegrees>
              <LongitudeDegrees>-4.04469072818756103515625</LongitudeDegrees>
            </Position>
            <AltitudeMeters>829.5999755859375</AltitudeMeters>
            <DistanceMeters>NAN</DistanceMeters>
          </Trackpoint>
          <Trackpoint>
            <Time>2019-08-01T10:34:27.000Z</Time>
            <Position>
              <LatitudeDegrees>40.5416373722255229949951171875</LatitudeDegrees>
              <LongitudeDegrees>-4.0446137823164463043212890625</LongitudeDegrees>
            </Position>
            <AltitudeMeters>829.79998779296875</AltitudeMeters>
            <DistanceMeters>NAN</DistanceMeters>
          </Trackpoint>
          <Trackpoint>
            <Time>2019-08-01T10:34:28.000Z</Time>
            <Position>
              <LatitudeDegrees>40.54166360758244991302490234375</LatitudeDegrees>
              <LongitudeDegrees>-4.04453775845468044281005859375</LongitudeDegrees>
            </Position>
            <AltitudeMeters>830.4000244140625</AltitudeMeters>
            <DistanceMeters>NAN</DistanceMeters>
          </Trackpoint>
          <Trackpoint>
            <Time>2019-08-01T10:34:29.000Z</Time>
            <Position>
              <LatitudeDegrees>40.54169026203453540802001953125</LatitudeDegrees>
              <LongitudeDegrees>-4.04446215368807315826416015625</LongitudeDegrees>
            </Position>
            <AltitudeMeters>830.79998779296875</AltitudeMeters>
            <DistanceMeters>NAN</DistanceMeters>
          </Trackpoint>
          <Trackpoint>
            <Time>2019-08-01T10:34:30.000Z</Time>
            <Position>
              <LatitudeDegrees>40.541717000305652618408203125</LatitudeDegrees>
              <LongitudeDegrees>-4.0443861298263072967529296875</LongitudeDegrees>
            </Position>
            <AltitudeMeters>831.20001220703125</AltitudeMeters>
            <DistanceMeters>NAN</DistanceMeters>
          </Trackpoint>
          <Trackpoint>
            <Time>2019-08-01T10:34:31.000Z</Time>
            <Position>
              <LatitudeDegrees>40.5417436547577381134033203125</LatitudeDegrees>
              <LongitudeDegrees>-4.044309519231319427490234375</LongitudeDegrees>
            </Position>
            <AltitudeMeters>831.4000244140625</AltitudeMeters>
            <DistanceMeters>NAN</DistanceMeters>
          </Trackpoint>
          <Trackpoint>
            <Time>2019-08-01T10:34:32.000Z</Time>
            <Position>
              <LatitudeDegrees>40.54177123121917247772216796875</LatitudeDegrees>
              <LongitudeDegrees>-4.04423248954117298126220703125</LongitudeDegrees>
            </Position>
            <AltitudeMeters>831.4000244140625</AltitudeMeters>
            <DistanceMeters>NAN</DistanceMeters>
          </Trackpoint>
          <Trackpoint>
            <Time>2019-08-01T10:34:33.000Z</Time>
            <Position>
              <LatitudeDegrees>40.541798807680606842041015625</LatitudeDegrees>
              <LongitudeDegrees>-4.04415504075586795806884765625</LongitudeDegrees>
            </Position>
            <AltitudeMeters>831.5999755859375</AltitudeMeters>
            <DistanceMeters>NAN</DistanceMeters>
          </Trackpoint>
          <Trackpoint>
            <Time>2019-08-01T10:34:34.000Z</Time>
            <Position>
              <LatitudeDegrees>40.5418261326849460601806640625</LatitudeDegrees>
              <LongitudeDegrees>-4.04407641850411891937255859375</LongitudeDegrees>
            </Position>
            <AltitudeMeters>832</AltitudeMeters>
            <DistanceMeters>NAN</DistanceMeters>
          </Trackpoint>
          <Trackpoint>
            <Time>2019-08-01T10:34:35.000Z</Time>
            <Position>
              <LatitudeDegrees>40.54185354150831699371337890625</LatitudeDegrees>
              <LongitudeDegrees>-4.04399679042398929595947265625</LongitudeDegrees>
            </Position>
            <AltitudeMeters>832.20001220703125</AltitudeMeters>
            <DistanceMeters>NAN</DistanceMeters>
          </Trackpoint>
          <Trackpoint>
            <Time>2019-08-01T10:34:37.000Z</Time>
            <Position>
              <LatitudeDegrees>40.54190936498343944549560546875</LatitudeDegrees>
              <LongitudeDegrees>-4.043838120996952056884765625</LongitudeDegrees>
            </Position>
            <AltitudeMeters>833</AltitudeMeters>
            <DistanceMeters>NAN</DistanceMeters>
          </Trackpoint>
          <Trackpoint>
            <Time>2019-08-01T10:34:38.000Z</Time>
            <Position>
              <LatitudeDegrees>40.54193685762584209442138671875</LatitudeDegrees>
              <LongitudeDegrees>-4.04375891201198101043701171875</LongitudeDegrees>
            </Position>
            <AltitudeMeters>833.20001220703125</AltitudeMeters>
            <DistanceMeters>NAN</DistanceMeters>
          </Trackpoint>
          <Trackpoint>
            <Time>2019-08-01T10:34:39.000Z</Time>
            <Position>
              <LatitudeDegrees>40.5419646017253398895263671875</LatitudeDegrees>
              <LongitudeDegrees>-4.04367995448410511016845703125</LongitudeDegrees>
            </Position>
            <AltitudeMeters>833.20001220703125</AltitudeMeters>
            <DistanceMeters>NAN</DistanceMeters>
          </Trackpoint>
          <Trackpoint>
            <Time>2019-08-01T10:34:40.000Z</Time>
            <Position>
              <LatitudeDegrees>40.5419934354722499847412109375</LatitudeDegrees>
              <LongitudeDegrees>-4.04360133223235607147216796875</LongitudeDegrees>
            </Position>
            <AltitudeMeters>833.20001220703125</AltitudeMeters>
            <DistanceMeters>NAN</DistanceMeters>
          </Trackpoint>
          <Trackpoint>
            <Time>2019-08-01T10:34:41.000Z</Time>
            <Position>
              <LatitudeDegrees>40.54202252067625522613525390625</LatitudeDegrees>
              <LongitudeDegrees>-4.04352354817092418670654296875</LongitudeDegrees>
            </Position>
            <AltitudeMeters>833.4000244140625</AltitudeMeters>
            <DistanceMeters>NAN</DistanceMeters>
          </Trackpoint>
          <Trackpoint>
            <Time>2019-08-01T10:34:42.000Z</Time>
            <Position>
              <LatitudeDegrees>40.54205219261348247528076171875</LatitudeDegrees>
              <LongitudeDegrees>-4.0434456802904605865478515625</LongitudeDegrees>
            </Position>
            <AltitudeMeters>833.4000244140625</AltitudeMeters>
            <DistanceMeters>NAN</DistanceMeters>
          </Trackpoint>
          <Trackpoint>
            <Time>2019-08-01T10:34:43.000Z</Time>
            <Position>
              <LatitudeDegrees>40.54208152927458286285400390625</LatitudeDegrees>
              <LongitudeDegrees>-4.04336663894355297088623046875</LongitudeDegrees>
            </Position>
            <AltitudeMeters>833.4000244140625</AltitudeMeters>
            <DistanceMeters>NAN</DistanceMeters>
          </Trackpoint>
          <Trackpoint>
            <Time>2019-08-01T10:34:44.000Z</Time>
            <Position>
              <LatitudeDegrees>40.5421094410121440887451171875</LatitudeDegrees>
              <LongitudeDegrees>-4.04328650794923305511474609375</LongitudeDegrees>
            </Position>
            <AltitudeMeters>833.4000244140625</AltitudeMeters>
            <DistanceMeters>NAN</DistanceMeters>
          </Trackpoint>
          <Trackpoint>
            <Time>2019-08-01T10:34:45.000Z</Time>
            <Position>
              <LatitudeDegrees>40.54213735274970531463623046875</LatitudeDegrees>
              <LongitudeDegrees>-4.04320620931684970855712890625</LongitudeDegrees>
            </Position>
            <AltitudeMeters>833.5999755859375</AltitudeMeters>
            <DistanceMeters>NAN</DistanceMeters>
          </Trackpoint>
          <Trackpoint>
            <Time>2019-08-01T10:34:46.000Z</Time>
            <Position>
              <LatitudeDegrees>40.5421664379537105560302734375</LatitudeDegrees>
              <LongitudeDegrees>-4.04312758706510066986083984375</LongitudeDegrees>
            </Position>
            <AltitudeMeters>833.5999755859375</AltitudeMeters>
            <DistanceMeters>NAN</DistanceMeters>
          </Trackpoint>
          <Trackpoint>
            <Time>2019-08-01T10:34:47.000Z</Time>
            <Position>
              <LatitudeDegrees>40.5421949364244937896728515625</LatitudeDegrees>
              <LongitudeDegrees>-4.04305013827979564666748046875</LongitudeDegrees>
            </Position>
            <AltitudeMeters>833.5999755859375</AltitudeMeters>
            <DistanceMeters>NAN</DistanceMeters>
          </Trackpoint>
          <Trackpoint>
            <Time>2019-08-01T10:34:48.000Z</Time>
            <Position>
              <LatitudeDegrees>40.54222133941948413848876953125</LatitudeDegrees>
              <LongitudeDegrees>-4.04297386296093463897705078125</LongitudeDegrees>
            </Position>
            <AltitudeMeters>833.5999755859375</AltitudeMeters>
            <DistanceMeters>NAN</DistanceMeters>
          </Trackpoint>
          <Trackpoint>
            <Time>2019-08-01T10:34:50.000Z</Time>
            <Position>
              <LatitudeDegrees>40.54227263666689395904541015625</LatitudeDegrees>
              <LongitudeDegrees>-4.04282860457897186279296875</LongitudeDegrees>
            </Position>
            <AltitudeMeters>833.5999755859375</AltitudeMeters>
            <DistanceMeters>NAN</DistanceMeters>
          </Trackpoint>
          <Trackpoint>
            <Time>2019-08-01T10:34:52.000Z</Time>
            <Position>
              <LatitudeDegrees>40.54231991060078144073486328125</LatitudeDegrees>
              <LongitudeDegrees>-4.04269407503306865692138671875</LongitudeDegrees>
            </Position>
            <AltitudeMeters>833.79998779296875</AltitudeMeters>
            <DistanceMeters>NAN</DistanceMeters>
          </Trackpoint>
          <Trackpoint>
            <Time>2019-08-01T10:34:53.000Z</Time>
            <Position>
              <LatitudeDegrees>40.54234287701547145843505859375</LatitudeDegrees>
              <LongitudeDegrees>-4.042629785835742950439453125</LongitudeDegrees>
            </Position>
            <AltitudeMeters>834</AltitudeMeters>
            <DistanceMeters>NAN</DistanceMeters>
          </Trackpoint>
          <Trackpoint>
            <Time>2019-08-01T10:34:54.000Z</Time>
            <Position>
              <LatitudeDegrees>40.54236508905887603759765625</LatitudeDegrees>
              <LongitudeDegrees>-4.04256566427648067474365234375</LongitudeDegrees>
            </Position>
            <AltitudeMeters>834</AltitudeMeters>
            <DistanceMeters>NAN</DistanceMeters>
          </Trackpoint>
          <Trackpoint>
            <Time>2019-08-01T10:34:55.000Z</Time>
            <Position>
              <LatitudeDegrees>40.5423860438168048858642578125</LatitudeDegrees>
              <LongitudeDegrees>-4.042501710355281829833984375</LongitudeDegrees>
            </Position>
            <AltitudeMeters>834</AltitudeMeters>
            <DistanceMeters>NAN</DistanceMeters>
          </Trackpoint>
          <Trackpoint>
            <Time>2019-08-01T10:34:56.000Z</Time>
            <Position>
              <LatitudeDegrees>40.54240557365119457244873046875</LatitudeDegrees>
              <LongitudeDegrees>-4.04243809171020984649658203125</LongitudeDegrees>
            </Position>
            <AltitudeMeters>834</AltitudeMeters>
            <DistanceMeters>NAN</DistanceMeters>
          </Trackpoint>
          <Trackpoint>
            <Time>2019-08-01T10:34:57.000Z</Time>
            <Position>
              <LatitudeDegrees>40.542424432933330535888671875</LatitudeDegrees>
              <LongitudeDegrees>-4.04237522743642330169677734375</LongitudeDegrees>
            </Position>
            <AltitudeMeters>834.4000244140625</AltitudeMeters>
            <DistanceMeters>NAN</DistanceMeters>
          </Trackpoint>
          <Trackpoint>
            <Time>2019-08-01T10:34:58.000Z</Time>
            <Position>
              <LatitudeDegrees>40.542442537844181060791015625</LatitudeDegrees>
              <LongitudeDegrees>-4.0423129498958587646484375</LongitudeDegrees>
            </Position>
            <AltitudeMeters>834.79998779296875</AltitudeMeters>
            <DistanceMeters>NAN</DistanceMeters>
          </Trackpoint>
          <Trackpoint>
            <Time>2019-08-01T10:34:59.000Z</Time>
            <Position>
              <LatitudeDegrees>40.542460978031158447265625</LatitudeDegrees>
              <LongitudeDegrees>-4.04225184582173824310302734375</LongitudeDegrees>
            </Position>
            <AltitudeMeters>835</AltitudeMeters>
            <DistanceMeters>NAN</DistanceMeters>
          </Trackpoint>
          <Trackpoint>
            <Time>2019-08-01T10:35:00.000Z</Time>
            <Position>
              <LatitudeDegrees>40.5424792505800724029541015625</LatitudeDegrees>
              <LongitudeDegrees>-4.042189233005046844482421875</LongitudeDegrees>
            </Position>
            <AltitudeMeters>835.4000244140625</AltitudeMeters>
            <DistanceMeters>NAN</DistanceMeters>
          </Trackpoint>
          <Trackpoint>
            <Time>2019-08-01T10:35:01.000Z</Time>
            <Position>
              <LatitudeDegrees>40.54249693639576435089111328125</LatitudeDegrees>
              <LongitudeDegrees>-4.04212678782641887664794921875</LongitudeDegrees>
            </Position>
            <AltitudeMeters>835.79998779296875</AltitudeMeters>
            <DistanceMeters>NAN</DistanceMeters>
          </Trackpoint>
          <Trackpoint>
            <Time>2019-08-01T10:35:02.000Z</Time>
            <Position>
              <LatitudeDegrees>40.54251470603048801422119140625</LatitudeDegrees>
              <LongitudeDegrees>-4.04206409119069576263427734375</LongitudeDegrees>
            </Position>
            <AltitudeMeters>836</AltitudeMeters>
            <DistanceMeters>NAN</DistanceMeters>
          </Trackpoint>
          <Trackpoint>
            <Time>2019-08-01T10:35:03.000Z</Time>
            <Position>
              <LatitudeDegrees>40.5425332300364971160888671875</LatitudeDegrees>
              <LongitudeDegrees>-4.04200172983109951019287109375</LongitudeDegrees>
            </Position>
            <AltitudeMeters>836.4000244140625</AltitudeMeters>
            <DistanceMeters>NAN</DistanceMeters>
          </Trackpoint>
          <Trackpoint>
            <Time>2019-08-01T10:35:04.000Z</Time>
            <Position>
              <LatitudeDegrees>40.54255225695669651031494140625</LatitudeDegrees>
              <LongitudeDegrees>-4.04193903319537639617919921875</LongitudeDegrees>
            </Position>
            <AltitudeMeters>836.79998779296875</AltitudeMeters>
            <DistanceMeters>NAN</DistanceMeters>
          </Trackpoint>
          <Trackpoint>
            <Time>2019-08-01T10:35:05.000Z</Time>
            <Position>
              <LatitudeDegrees>40.5425717867910861968994140625</LatitudeDegrees>
              <LongitudeDegrees>-4.0418762527406215667724609375</LongitudeDegrees>
            </Position>
            <AltitudeMeters>837.5999755859375</AltitudeMeters>
            <DistanceMeters>NAN</DistanceMeters>
          </Trackpoint>
          <Trackpoint>
            <Time>2019-08-01T10:35:06.000Z</Time>
            <Position>
              <LatitudeDegrees>40.542592070996761322021484375</LatitudeDegrees>
              <LongitudeDegrees>-4.0418132208287715911865234375</LongitudeDegrees>
            </Position>
            <AltitudeMeters>838.20001220703125</AltitudeMeters>
            <DistanceMeters>NAN</DistanceMeters>
          </Trackpoint>
          <Trackpoint>
            <Time>2019-08-01T10:35:07.000Z</Time>
            <Position>
              <LatitudeDegrees>40.542613528668880462646484375</LatitudeDegrees>
              <LongitudeDegrees>-4.0417515300214290618896484375</LongitudeDegrees>
            </Position>
            <AltitudeMeters>838.4000244140625</AltitudeMeters>
            <DistanceMeters>NAN</DistanceMeters>
          </Trackpoint>
          <Trackpoint>
            <Time>2019-08-01T10:35:08.000Z</Time>
            <Position>
              <LatitudeDegrees>40.5426381714642047882080078125</LatitudeDegrees>
              <LongitudeDegrees>-4.04169076122343540191650390625</LongitudeDegrees>
            </Position>
            <AltitudeMeters>839</AltitudeMeters>
            <DistanceMeters>NAN</DistanceMeters>
          </Trackpoint>
          <Trackpoint>
            <Time>2019-08-01T10:35:09.000Z</Time>
            <Position>
              <LatitudeDegrees>40.542665831744670867919921875</LatitudeDegrees>
              <LongitudeDegrees>-4.0416311658918857574462890625</LongitudeDegrees>
            </Position>
            <AltitudeMeters>839.20001220703125</AltitudeMeters>
            <DistanceMeters>NAN</DistanceMeters>
          </Trackpoint>
          <Trackpoint>
            <Time>2019-08-01T10:35:10.000Z</Time>
            <Position>
              <LatitudeDegrees>40.54269558750092983245849609375</LatitudeDegrees>
              <LongitudeDegrees>-4.0415724925696849822998046875</LongitudeDegrees>
            </Position>
            <AltitudeMeters>839.4000244140625</AltitudeMeters>
            <DistanceMeters>NAN</DistanceMeters>
          </Trackpoint>
          <Trackpoint>
            <Time>2019-08-01T10:35:11.000Z</Time>
            <Position>
              <LatitudeDegrees>40.54272710345685482025146484375</LatitudeDegrees>
              <LongitudeDegrees>-4.041515998542308807373046875</LongitudeDegrees>
            </Position>
            <AltitudeMeters>839.5999755859375</AltitudeMeters>
            <DistanceMeters>NAN</DistanceMeters>
          </Trackpoint>
          <Trackpoint>
            <Time>2019-08-01T10:35:12.000Z</Time>
            <Position>
              <LatitudeDegrees>40.54276213981211185455322265625</LatitudeDegrees>
              <LongitudeDegrees>-4.04146042652428150177001953125</LongitudeDegrees>
            </Position>
            <AltitudeMeters>840</AltitudeMeters>
            <DistanceMeters>NAN</DistanceMeters>
          </Trackpoint>
          <Trackpoint>
            <Time>2019-08-01T10:35:13.000Z</Time>
            <Position>
              <LatitudeDegrees>40.54279952310025691986083984375</LatitudeDegrees>
              <LongitudeDegrees>-4.04140694998204708099365234375</LongitudeDegrees>
            </Position>
            <AltitudeMeters>840.20001220703125</AltitudeMeters>
            <DistanceMeters>NAN</DistanceMeters>
          </Trackpoint>
          <Trackpoint>
            <Time>2019-08-01T10:35:14.000Z</Time>
            <Position>
              <LatitudeDegrees>40.54283875040709972381591796875</LatitudeDegrees>
              <LongitudeDegrees>-4.04135313816368579864501953125</LongitudeDegrees>
            </Position>
            <AltitudeMeters>840.4000244140625</AltitudeMeters>
            <DistanceMeters>NAN</DistanceMeters>
          </Trackpoint>
          <Trackpoint>
            <Time>2019-08-01T10:35:15.000Z</Time>
            <Position>
              <LatitudeDegrees>40.54287881590425968170166015625</LatitudeDegrees>
              <LongitudeDegrees>-4.04129865579307079315185546875</LongitudeDegrees>
            </Position>
            <AltitudeMeters>840.5999755859375</AltitudeMeters>
            <DistanceMeters>NAN</DistanceMeters>
          </Trackpoint>
          <Trackpoint>
            <Time>2019-08-01T10:35:16.000Z</Time>
            <Position>
              <LatitudeDegrees>40.54292039014399051666259765625</LatitudeDegrees>
              <LongitudeDegrees>-4.041243083775043487548828125</LongitudeDegrees>
            </Position>
            <AltitudeMeters>840.5999755859375</AltitudeMeters>
            <DistanceMeters>NAN</DistanceMeters>
          </Trackpoint>
          <Trackpoint>
            <Time>2019-08-01T10:35:17.000Z</Time>
            <Position>
              <LatitudeDegrees>40.54296364076435565948486328125</LatitudeDegrees>
              <LongitudeDegrees>-4.04118684120476245880126953125</LongitudeDegrees>
            </Position>
            <AltitudeMeters>840.79998779296875</AltitudeMeters>
            <DistanceMeters>NAN</DistanceMeters>
          </Trackpoint>
          <Trackpoint>
            <Time>2019-08-01T10:35:18.000Z</Time>
            <Position>
              <LatitudeDegrees>40.54300806485116481781005859375</LatitudeDegrees>
              <LongitudeDegrees>-4.04112766496837139129638671875</LongitudeDegrees>
            </Position>
            <AltitudeMeters>840.79998779296875</AltitudeMeters>
            <DistanceMeters>NAN</DistanceMeters>
          </Trackpoint>
          <Trackpoint>
            <Time>2019-08-01T10:35:19.000Z</Time>
            <Position>
              <LatitudeDegrees>40.543054081499576568603515625</LatitudeDegrees>
              <LongitudeDegrees>-4.04106505215167999267578125</LongitudeDegrees>
            </Position>
            <AltitudeMeters>840.79998779296875</AltitudeMeters>
            <DistanceMeters>NAN</DistanceMeters>
          </Trackpoint>
          <Trackpoint>
            <Time>2019-08-01T10:35:20.000Z</Time>
            <Position>
              <LatitudeDegrees>40.5431021936237812042236328125</LatitudeDegrees>
              <LongitudeDegrees>-4.0409995056688785552978515625</LongitudeDegrees>
            </Position>
            <AltitudeMeters>840.79998779296875</AltitudeMeters>
            <DistanceMeters>NAN</DistanceMeters>
          </Trackpoint>
          <Trackpoint>
            <Time>2019-08-01T10:35:21.000Z</Time>
            <Position>
              <LatitudeDegrees>40.5431516468524932861328125</LatitudeDegrees>
              <LongitudeDegrees>-4.04093052260577678680419921875</LongitudeDegrees>
            </Position>
            <AltitudeMeters>840.79998779296875</AltitudeMeters>
            <DistanceMeters>NAN</DistanceMeters>
          </Trackpoint>
          <Trackpoint>
            <Time>2019-08-01T10:35:22.000Z</Time>
            <Position>
              <LatitudeDegrees>40.5431987531483173370361328125</LatitudeDegrees>
              <LongitudeDegrees>-4.04085625894367694854736328125</LongitudeDegrees>
            </Position>
            <AltitudeMeters>840.79998779296875</AltitudeMeters>
            <DistanceMeters>NAN</DistanceMeters>
          </Trackpoint>
          <Trackpoint>
            <Time>2019-08-01T10:35:23.000Z</Time>
            <Position>
              <LatitudeDegrees>40.54324024356901645660400390625</LatitudeDegrees>
              <LongitudeDegrees>-4.0407735295593738555908203125</LongitudeDegrees>
            </Position>
            <AltitudeMeters>840.79998779296875</AltitudeMeters>
            <DistanceMeters>NAN</DistanceMeters>
          </Trackpoint>
          <Trackpoint>
            <Time>2019-08-01T10:35:24.000Z</Time>
            <Position>
              <LatitudeDegrees>40.5432723462581634521484375</LatitudeDegrees>
              <LongitudeDegrees>-4.04068283736705780029296875</LongitudeDegrees>
            </Position>
            <AltitudeMeters>840.79998779296875</AltitudeMeters>
            <DistanceMeters>NAN</DistanceMeters>
          </Trackpoint>
          <Trackpoint>
            <Time>2019-08-01T10:35:25.000Z</Time>
            <Position>
              <LatitudeDegrees>40.5432959832251071929931640625</LatitudeDegrees>
              <LongitudeDegrees>-4.04058602638542652130126953125</LongitudeDegrees>
            </Position>
            <AltitudeMeters>840.79998779296875</AltitudeMeters>
            <DistanceMeters>NAN</DistanceMeters>
          </Trackpoint>
          <Trackpoint>
            <Time>2019-08-01T10:35:26.000Z</Time>
            <Position>
              <LatitudeDegrees>40.5433134175837039947509765625</LatitudeDegrees>
              <LongitudeDegrees>-4.04048569500446319580078125</LongitudeDegrees>
            </Position>
            <AltitudeMeters>840.79998779296875</AltitudeMeters>
            <DistanceMeters>NAN</DistanceMeters>
          </Trackpoint>
          <Trackpoint>
            <Time>2019-08-01T10:35:27.000Z</Time>
            <Position>
              <LatitudeDegrees>40.54332775063812732696533203125</LatitudeDegrees>
              <LongitudeDegrees>-4.04038402251899242401123046875</LongitudeDegrees>
            </Position>
            <AltitudeMeters>840.5999755859375</AltitudeMeters>
            <DistanceMeters>NAN</DistanceMeters>
          </Trackpoint>
          <Trackpoint>
            <Time>2019-08-01T10:35:28.000Z</Time>
            <Position>
              <LatitudeDegrees>40.54334233514964580535888671875</LatitudeDegrees>
              <LongitudeDegrees>-4.0402825176715850830078125</LongitudeDegrees>
            </Position>
            <AltitudeMeters>840.20001220703125</AltitudeMeters>
            <DistanceMeters>NAN</DistanceMeters>
          </Trackpoint>
          <Trackpoint>
            <Time>2019-08-01T10:35:29.000Z</Time>
            <Position>
              <LatitudeDegrees>40.54335759021341800689697265625</LatitudeDegrees>
              <LongitudeDegrees>-4.04018101282417774200439453125</LongitudeDegrees>
            </Position>
            <AltitudeMeters>839.79998779296875</AltitudeMeters>
            <DistanceMeters>NAN</DistanceMeters>
          </Trackpoint>
          <Trackpoint>
            <Time>2019-08-01T10:35:30.000Z</Time>
            <Position>
              <LatitudeDegrees>40.54337234236299991607666015625</LatitudeDegrees>
              <LongitudeDegrees>-4.04007875360548496246337890625</LongitudeDegrees>
            </Position>
            <AltitudeMeters>839.4000244140625</AltitudeMeters>
            <DistanceMeters>NAN</DistanceMeters>
          </Trackpoint>
          <Trackpoint>
            <Time>2019-08-01T10:35:32.000Z</Time>
            <Position>
              <LatitudeDegrees>40.5434005893766880035400390625</LatitudeDegrees>
              <LongitudeDegrees>-4.03987188823521137237548828125</LongitudeDegrees>
            </Position>
            <AltitudeMeters>838.79998779296875</AltitudeMeters>
            <DistanceMeters>NAN</DistanceMeters>
          </Trackpoint>
          <Trackpoint>
            <Time>2019-08-01T10:35:33.000Z</Time>
            <Position>
              <LatitudeDegrees>40.54341475479304790496826171875</LatitudeDegrees>
              <LongitudeDegrees>-4.0397690422832965850830078125</LongitudeDegrees>
            </Position>
            <AltitudeMeters>838.5999755859375</AltitudeMeters>
            <DistanceMeters>NAN</DistanceMeters>
          </Trackpoint>
          <Trackpoint>
            <Time>2019-08-01T10:35:34.000Z</Time>
            <Position>
              <LatitudeDegrees>40.54342900402843952178955078125</LatitudeDegrees>
              <LongitudeDegrees>-4.03966653160750865936279296875</LongitudeDegrees>
            </Position>
            <AltitudeMeters>838.5999755859375</AltitudeMeters>
            <DistanceMeters>NAN</DistanceMeters>
          </Trackpoint>
          <Trackpoint>
            <Time>2019-08-01T10:35:35.000Z</Time>
            <Position>
              <LatitudeDegrees>40.5434428341686725616455078125</LatitudeDegrees>
              <LongitudeDegrees>-4.03956393711268901824951171875</LongitudeDegrees>
            </Position>
            <AltitudeMeters>838.4000244140625</AltitudeMeters>
            <DistanceMeters>NAN</DistanceMeters>
          </Trackpoint>
          <Trackpoint>
            <Time>2019-08-01T10:35:36.000Z</Time>
            <Position>
              <LatitudeDegrees>40.54345733486115932464599609375</LatitudeDegrees>
              <LongitudeDegrees>-4.03946109116077423095703125</LongitudeDegrees>
            </Position>
            <AltitudeMeters>838.4000244140625</AltitudeMeters>
            <DistanceMeters>NAN</DistanceMeters>
          </Trackpoint>
          <Trackpoint>
            <Time>2019-08-01T10:35:38.000Z</Time>
            <Position>
              <LatitudeDegrees>40.54348667152225971221923828125</LatitudeDegrees>
              <LongitudeDegrees>-4.03925120830535888671875</LongitudeDegrees>
            </Position>
            <AltitudeMeters>838</AltitudeMeters>
            <DistanceMeters>NAN</DistanceMeters>
          </Trackpoint>
          <Trackpoint>
            <Time>2019-08-01T10:35:40.000Z</Time>
            <Position>
              <LatitudeDegrees>40.5435149185359477996826171875</LatitudeDegrees>
              <LongitudeDegrees>-4.03903864324092864990234375</LongitudeDegrees>
            </Position>
            <AltitudeMeters>837.20001220703125</AltitudeMeters>
            <DistanceMeters>NAN</DistanceMeters>
          </Trackpoint>
          <Trackpoint>
            <Time>2019-08-01T10:35:42.000Z</Time>
            <Position>
              <LatitudeDegrees>40.5435464344918727874755859375</LatitudeDegrees>
              <LongitudeDegrees>-4.038824737071990966796875</LongitudeDegrees>
            </Position>
            <AltitudeMeters>837</AltitudeMeters>
            <DistanceMeters>NAN</DistanceMeters>
          </Trackpoint>
          <Trackpoint>
            <Time>2019-08-01T10:35:43.000Z</Time>
            <Position>
              <LatitudeDegrees>40.54356277920305728912353515625</LatitudeDegrees>
              <LongitudeDegrees>-4.038716442883014678955078125</LongitudeDegrees>
            </Position>
            <AltitudeMeters>837</AltitudeMeters>
            <DistanceMeters>NAN</DistanceMeters>
          </Trackpoint>
          <Trackpoint>
            <Time>2019-08-01T10:35:44.000Z</Time>
            <Position>
              <LatitudeDegrees>40.54357904009521007537841796875</LatitudeDegrees>
              <LongitudeDegrees>-4.038607142865657806396484375</LongitudeDegrees>
            </Position>
            <AltitudeMeters>837</AltitudeMeters>
            <DistanceMeters>NAN</DistanceMeters>
          </Trackpoint>
          <Trackpoint>
            <Time>2019-08-01T10:35:45.000Z</Time>
            <Position>
              <LatitudeDegrees>40.54359463043510913848876953125</LatitudeDegrees>
              <LongitudeDegrees>-4.03849792666733264923095703125</LongitudeDegrees>
            </Position>
            <AltitudeMeters>836.79998779296875</AltitudeMeters>
            <DistanceMeters>NAN</DistanceMeters>
          </Trackpoint>
          <Trackpoint>
            <Time>2019-08-01T10:35:46.000Z</Time>
            <Position>
              <LatitudeDegrees>40.5436094664037227630615234375</LatitudeDegrees>
              <LongitudeDegrees>-4.0383893810212612152099609375</LongitudeDegrees>
            </Position>
            <AltitudeMeters>836.79998779296875</AltitudeMeters>
            <DistanceMeters>NAN</DistanceMeters>
          </Trackpoint>
          <Trackpoint>
            <Time>2019-08-01T10:35:47.000Z</Time>
            <Position>
              <LatitudeDegrees>40.5436235480010509490966796875</LatitudeDegrees>
              <LongitudeDegrees>-4.038281254470348358154296875</LongitudeDegrees>
            </Position>
            <AltitudeMeters>836.79998779296875</AltitudeMeters>
            <DistanceMeters>NAN</DistanceMeters>
          </Trackpoint>
          <Trackpoint>
            <Time>2019-08-01T10:35:48.000Z</Time>
            <Position>
              <LatitudeDegrees>40.54363779723644256591796875</LatitudeDegrees>
              <LongitudeDegrees>-4.03817363083362579345703125</LongitudeDegrees>
            </Position>
            <AltitudeMeters>836.79998779296875</AltitudeMeters>
            <DistanceMeters>NAN</DistanceMeters>
          </Trackpoint>
          <Trackpoint>
            <Time>2019-08-01T10:35:49.000Z</Time>
            <Position>
              <LatitudeDegrees>40.543653555214405059814453125</LatitudeDegrees>
              <LongitudeDegrees>-4.0380668453872203826904296875</LongitudeDegrees>
            </Position>
            <AltitudeMeters>836.79998779296875</AltitudeMeters>
            <DistanceMeters>NAN</DistanceMeters>
          </Trackpoint>
          <Trackpoint>
            <Time>2019-08-01T10:35:50.000Z</Time>
            <Position>
              <LatitudeDegrees>40.5436698161065578460693359375</LatitudeDegrees>
              <LongitudeDegrees>-4.037961065769195556640625</LongitudeDegrees>
            </Position>
            <AltitudeMeters>836.79998779296875</AltitudeMeters>
            <DistanceMeters>NAN</DistanceMeters>
          </Trackpoint>
          <Trackpoint>
            <Time>2019-08-01T10:35:52.000Z</Time>
            <Position>
              <LatitudeDegrees>40.54370091296732425689697265625</LatitudeDegrees>
              <LongitudeDegrees>-4.03775478713214397430419921875</LongitudeDegrees>
            </Position>
            <AltitudeMeters>836.79998779296875</AltitudeMeters>
            <DistanceMeters>NAN</DistanceMeters>
          </Trackpoint>
          <Trackpoint>
            <Time>2019-08-01T10:35:53.000Z</Time>
            <Position>
              <LatitudeDegrees>40.543715246021747589111328125</LatitudeDegrees>
              <LongitudeDegrees>-4.03765353374183177947998046875</LongitudeDegrees>
            </Position>
            <AltitudeMeters>836.79998779296875</AltitudeMeters>
            <DistanceMeters>NAN</DistanceMeters>
          </Trackpoint>
          <Trackpoint>
            <Time>2019-08-01T10:35:54.000Z</Time>
            <Position>
              <LatitudeDegrees>40.54372907616198062896728515625</LatitudeDegrees>
              <LongitudeDegrees>-4.0375538729131221771240234375</LongitudeDegrees>
            </Position>
            <AltitudeMeters>836.79998779296875</AltitudeMeters>
            <DistanceMeters>NAN</DistanceMeters>
          </Trackpoint>
          <Trackpoint>
            <Time>2019-08-01T10:35:55.000Z</Time>
            <Position>
              <LatitudeDegrees>40.543742738664150238037109375</LatitudeDegrees>
              <LongitudeDegrees>-4.0374556370079517364501953125</LongitudeDegrees>
            </Position>
            <AltitudeMeters>836.79998779296875</AltitudeMeters>
            <DistanceMeters>NAN</DistanceMeters>
          </Trackpoint>
          <Trackpoint>
            <Time>2019-08-01T10:35:56.000Z</Time>
            <Position>
              <LatitudeDegrees>40.5437573231756687164306640625</LatitudeDegrees>
              <LongitudeDegrees>-4.03735882602632045745849609375</LongitudeDegrees>
            </Position>
            <AltitudeMeters>836.79998779296875</AltitudeMeters>
            <DistanceMeters>NAN</DistanceMeters>
          </Trackpoint>
          <Trackpoint>
            <Time>2019-08-01T10:35:57.000Z</Time>
            <Position>
              <LatitudeDegrees>40.5437712371349334716796875</LatitudeDegrees>
              <LongitudeDegrees>-4.0372623503208160400390625</LongitudeDegrees>
            </Position>
            <AltitudeMeters>837</AltitudeMeters>
            <DistanceMeters>NAN</DistanceMeters>
          </Trackpoint>
          <Trackpoint>
            <Time>2019-08-01T10:35:58.000Z</Time>
            <Position>
              <LatitudeDegrees>40.54378439672291278839111328125</LatitudeDegrees>
              <LongitudeDegrees>-4.03716604225337505340576171875</LongitudeDegrees>
            </Position>
            <AltitudeMeters>837</AltitudeMeters>
            <DistanceMeters>NAN</DistanceMeters>
          </Trackpoint>
          <Trackpoint>
            <Time>2019-08-01T10:36:00.000Z</Time>
            <Position>
              <LatitudeDegrees>40.543811134994029998779296875</LatitudeDegrees>
              <LongitudeDegrees>-4.03697292320430278778076171875</LongitudeDegrees>
            </Position>
            <AltitudeMeters>837</AltitudeMeters>
            <DistanceMeters>NAN</DistanceMeters>
          </Trackpoint>
          <Trackpoint>
            <Time>2019-08-01T10:36:01.000Z</Time>
            <Position>
              <LatitudeDegrees>40.5438247136771678924560546875</LatitudeDegrees>
              <LongitudeDegrees>-4.03687502257525920867919921875</LongitudeDegrees>
            </Position>
            <AltitudeMeters>837</AltitudeMeters>
            <DistanceMeters>NAN</DistanceMeters>
          </Trackpoint>
          <Trackpoint>
            <Time>2019-08-01T10:36:02.000Z</Time>
            <Position>
              <LatitudeDegrees>40.54383737035095691680908203125</LatitudeDegrees>
              <LongitudeDegrees>-4.03677661903202533721923828125</LongitudeDegrees>
            </Position>
            <AltitudeMeters>837.20001220703125</AltitudeMeters>
            <DistanceMeters>NAN</DistanceMeters>
          </Trackpoint>
          <Trackpoint>
            <Time>2019-08-01T10:36:03.000Z</Time>
            <Position>
              <LatitudeDegrees>40.5438498593866825103759765625</LatitudeDegrees>
              <LongitudeDegrees>-4.03667788021266460418701171875</LongitudeDegrees>
            </Position>
            <AltitudeMeters>837.20001220703125</AltitudeMeters>
            <DistanceMeters>NAN</DistanceMeters>
          </Trackpoint>
          <Trackpoint>
            <Time>2019-08-01T10:36:04.000Z</Time>
            <Position>
              <LatitudeDegrees>40.54386285133659839630126953125</LatitudeDegrees>
              <LongitudeDegrees>-4.03658014722168445587158203125</LongitudeDegrees>
            </Position>
            <AltitudeMeters>837.20001220703125</AltitudeMeters>
            <DistanceMeters>NAN</DistanceMeters>
          </Trackpoint>
          <Trackpoint>
            <Time>2019-08-01T10:36:05.000Z</Time>
            <Position>
              <LatitudeDegrees>40.543876178562641143798828125</LatitudeDegrees>
              <LongitudeDegrees>-4.03648191131651401519775390625</LongitudeDegrees>
            </Position>
            <AltitudeMeters>837.4000244140625</AltitudeMeters>
            <DistanceMeters>NAN</DistanceMeters>
          </Trackpoint>
          <Trackpoint>
            <Time>2019-08-01T10:36:06.000Z</Time>
            <Position>
              <LatitudeDegrees>40.54389000870287418365478515625</LatitudeDegrees>
              <LongitudeDegrees>-4.036383926868438720703125</LongitudeDegrees>
            </Position>
            <AltitudeMeters>837.4000244140625</AltitudeMeters>
            <DistanceMeters>NAN</DistanceMeters>
          </Trackpoint>
          <Trackpoint>
            <Time>2019-08-01T10:36:07.000Z</Time>
            <Position>
              <LatitudeDegrees>40.5439041741192340850830078125</LatitudeDegrees>
              <LongitudeDegrees>-4.03628543950617313385009765625</LongitudeDegrees>
            </Position>
            <AltitudeMeters>837.5999755859375</AltitudeMeters>
            <DistanceMeters>NAN</DistanceMeters>
          </Trackpoint>
          <Trackpoint>
            <Time>2019-08-01T10:36:08.000Z</Time>
            <Position>
              <LatitudeDegrees>40.54391833953559398651123046875</LatitudeDegrees>
              <LongitudeDegrees>-4.03618636541068553924560546875</LongitudeDegrees>
            </Position>
            <AltitudeMeters>837.79998779296875</AltitudeMeters>
            <DistanceMeters>NAN</DistanceMeters>
          </Trackpoint>
          <Trackpoint>
            <Time>2019-08-01T10:36:09.000Z</Time>
            <Position>
              <LatitudeDegrees>40.54393476806581020355224609375</LatitudeDegrees>
              <LongitudeDegrees>-4.03608779422938823699951171875</LongitudeDegrees>
            </Position>
            <AltitudeMeters>837.79998779296875</AltitudeMeters>
            <DistanceMeters>NAN</DistanceMeters>
          </Trackpoint>
          <Trackpoint>
            <Time>2019-08-01T10:36:10.000Z</Time>
            <Position>
              <LatitudeDegrees>40.54395136423408985137939453125</LatitudeDegrees>
              <LongitudeDegrees>-4.0359901450574398040771484375</LongitudeDegrees>
            </Position>
            <AltitudeMeters>838</AltitudeMeters>
            <DistanceMeters>NAN</DistanceMeters>
          </Trackpoint>
          <Trackpoint>
            <Time>2019-08-01T10:36:11.000Z</Time>
            <Position>
              <LatitudeDegrees>40.5439695529639720916748046875</LatitudeDegrees>
              <LongitudeDegrees>-4.03589350171387195587158203125</LongitudeDegrees>
            </Position>
            <AltitudeMeters>838.20001220703125</AltitudeMeters>
            <DistanceMeters>NAN</DistanceMeters>
          </Trackpoint>
          <Trackpoint>
            <Time>2019-08-01T10:36:14.000Z</Time>
            <Position>
              <LatitudeDegrees>40.54406049661338329315185546875</LatitudeDegrees>
              <LongitudeDegrees>-4.03562444262206554412841796875</LongitudeDegrees>
            </Position>
            <AltitudeMeters>838.4000244140625</AltitudeMeters>
            <DistanceMeters>NAN</DistanceMeters>
          </Trackpoint>
          <Trackpoint>
            <Time>2019-08-01T10:36:15.000Z</Time>
            <Position>
              <LatitudeDegrees>40.5441091954708099365234375</LatitudeDegrees>
              <LongitudeDegrees>-4.03554699383676052093505859375</LongitudeDegrees>
            </Position>
            <AltitudeMeters>838.4000244140625</AltitudeMeters>
            <DistanceMeters>NAN</DistanceMeters>
          </Trackpoint>
          <Trackpoint>
            <Time>2019-08-01T10:36:16.000Z</Time>
            <Position>
              <LatitudeDegrees>40.5441666953265666961669921875</LatitudeDegrees>
              <LongitudeDegrees>-4.03548044152557849884033203125</LongitudeDegrees>
            </Position>
            <AltitudeMeters>838.5999755859375</AltitudeMeters>
            <DistanceMeters>NAN</DistanceMeters>
          </Trackpoint>
          <Trackpoint>
            <Time>2019-08-01T10:36:17.000Z</Time>
            <Position>
              <LatitudeDegrees>40.5442290566861629486083984375</LatitudeDegrees>
              <LongitudeDegrees>-4.0354221872985363006591796875</LongitudeDegrees>
            </Position>
            <AltitudeMeters>838.5999755859375</AltitudeMeters>
            <DistanceMeters>NAN</DistanceMeters>
          </Trackpoint>
          <Trackpoint>
            <Time>2019-08-01T10:36:18.000Z</Time>
            <Position>
              <LatitudeDegrees>40.5442947708070278167724609375</LatitudeDegrees>
              <LongitudeDegrees>-4.0353705547749996185302734375</LongitudeDegrees>
            </Position>
            <AltitudeMeters>838.5999755859375</AltitudeMeters>
            <DistanceMeters>NAN</DistanceMeters>
          </Trackpoint>
          <Trackpoint>
            <Time>2019-08-01T10:36:19.000Z</Time>
            <Position>
              <LatitudeDegrees>40.54436266422271728515625</LatitudeDegrees>
              <LongitudeDegrees>-4.03532512485980987548828125</LongitudeDegrees>
            </Position>
            <AltitudeMeters>838.5999755859375</AltitudeMeters>
            <DistanceMeters>NAN</DistanceMeters>
          </Trackpoint>
          <Trackpoint>
            <Time>2019-08-01T10:36:20.000Z</Time>
            <Position>
              <LatitudeDegrees>40.54443114437162876129150390625</LatitudeDegrees>
              <LongitudeDegrees>-4.03528279624879360198974609375</LongitudeDegrees>
            </Position>
            <AltitudeMeters>838.79998779296875</AltitudeMeters>
            <DistanceMeters>NAN</DistanceMeters>
          </Trackpoint>
          <Trackpoint>
            <Time>2019-08-01T10:36:21.000Z</Time>
            <Position>
              <LatitudeDegrees>40.54449853487312793731689453125</LatitudeDegrees>
              <LongitudeDegrees>-4.035240970551967620849609375</LongitudeDegrees>
            </Position>
            <AltitudeMeters>838.79998779296875</AltitudeMeters>
            <DistanceMeters>NAN</DistanceMeters>
          </Trackpoint>
          <Trackpoint>
            <Time>2019-08-01T10:36:22.000Z</Time>
            <Position>
              <LatitudeDegrees>40.5445650033652782440185546875</LatitudeDegrees>
              <LongitudeDegrees>-4.0351982228457927703857421875</LongitudeDegrees>
            </Position>
            <AltitudeMeters>838.79998779296875</AltitudeMeters>
            <DistanceMeters>NAN</DistanceMeters>
          </Trackpoint>
          <Trackpoint>
            <Time>2019-08-01T10:36:23.000Z</Time>
            <Position>
              <LatitudeDegrees>40.54463197477161884307861328125</LatitudeDegrees>
              <LongitudeDegrees>-4.03515472076833248138427734375</LongitudeDegrees>
            </Position>
            <AltitudeMeters>839</AltitudeMeters>
            <DistanceMeters>NAN</DistanceMeters>
          </Trackpoint>
          <Trackpoint>
            <Time>2019-08-01T10:36:24.000Z</Time>
            <Position>
              <LatitudeDegrees>40.54469919763505458831787109375</LatitudeDegrees>
              <LongitudeDegrees>-4.03511163778603076934814453125</LongitudeDegrees>
            </Position>
            <AltitudeMeters>839</AltitudeMeters>
            <DistanceMeters>NAN</DistanceMeters>
          </Trackpoint>
          <Trackpoint>
            <Time>2019-08-01T10:36:25.000Z</Time>
            <Position>
              <LatitudeDegrees>40.54476491175591945648193359375</LatitudeDegrees>
              <LongitudeDegrees>-4.0350694768130779266357421875</LongitudeDegrees>
            </Position>
            <AltitudeMeters>839</AltitudeMeters>
            <DistanceMeters>NAN</DistanceMeters>
          </Trackpoint>
          <Trackpoint>
            <Time>2019-08-01T10:36:26.000Z</Time>
            <Position>
              <LatitudeDegrees>40.5448295362293720245361328125</LatitudeDegrees>
              <LongitudeDegrees>-4.0350272320210933685302734375</LongitudeDegrees>
            </Position>
            <AltitudeMeters>839.20001220703125</AltitudeMeters>
            <DistanceMeters>NAN</DistanceMeters>
          </Trackpoint>
          <Trackpoint>
            <Time>2019-08-01T10:36:27.000Z</Time>
            <Position>
              <LatitudeDegrees>40.5448925681412220001220703125</LatitudeDegrees>
              <LongitudeDegrees>-4.03498523868620395660400390625</LongitudeDegrees>
            </Position>
            <AltitudeMeters>839.20001220703125</AltitudeMeters>
            <DistanceMeters>NAN</DistanceMeters>
          </Trackpoint>
          <Trackpoint>
            <Time>2019-08-01T10:36:28.000Z</Time>
            <Position>
              <LatitudeDegrees>40.5449549295008182525634765625</LatitudeDegrees>
              <LongitudeDegrees>-4.03494358062744140625</LongitudeDegrees>
            </Position>
            <AltitudeMeters>839.20001220703125</AltitudeMeters>
            <DistanceMeters>NAN</DistanceMeters>
          </Trackpoint>
          <Trackpoint>
            <Time>2019-08-01T10:36:29.000Z</Time>
            <Position>
              <LatitudeDegrees>40.5450162850320339202880859375</LatitudeDegrees>
              <LongitudeDegrees>-4.03490225784480571746826171875</LongitudeDegrees>
            </Position>
            <AltitudeMeters>839.20001220703125</AltitudeMeters>
            <DistanceMeters>NAN</DistanceMeters>
          </Trackpoint>
          <Trackpoint>
            <Time>2019-08-01T10:36:30.000Z</Time>
            <Position>
              <LatitudeDegrees>40.54507680237293243408203125</LatitudeDegrees>
              <LongitudeDegrees>-4.0348619408905506134033203125</LongitudeDegrees>
            </Position>
            <AltitudeMeters>839.20001220703125</AltitudeMeters>
            <DistanceMeters>NAN</DistanceMeters>
          </Trackpoint>
          <Trackpoint>
            <Time>2019-08-01T10:36:31.000Z</Time>
            <Position>
              <LatitudeDegrees>40.54513639770448207855224609375</LatitudeDegrees>
              <LongitudeDegrees>-4.034821875393390655517578125</LongitudeDegrees>
            </Position>
            <AltitudeMeters>839.4000244140625</AltitudeMeters>
            <DistanceMeters>NAN</DistanceMeters>
          </Trackpoint>
          <Trackpoint>
            <Time>2019-08-01T10:36:32.000Z</Time>
            <Position>
              <LatitudeDegrees>40.5451976694166660308837890625</LatitudeDegrees>
              <LongitudeDegrees>-4.0347801335155963897705078125</LongitudeDegrees>
            </Position>
            <AltitudeMeters>839.5999755859375</AltitudeMeters>
            <DistanceMeters>NAN</DistanceMeters>
          </Trackpoint>
          <Trackpoint>
            <Time>2019-08-01T10:36:33.000Z</Time>
            <Position>
              <LatitudeDegrees>40.54525860585272312164306640625</LatitudeDegrees>
              <LongitudeDegrees>-4.03473998419940471649169921875</LongitudeDegrees>
            </Position>
            <AltitudeMeters>839.5999755859375</AltitudeMeters>
            <DistanceMeters>NAN</DistanceMeters>
          </Trackpoint>
          <Trackpoint>
            <Time>2019-08-01T10:36:34.000Z</Time>
            <Position>
              <LatitudeDegrees>40.54531878791749477386474609375</LatitudeDegrees>
              <LongitudeDegrees>-4.034700505435466766357421875</LongitudeDegrees>
            </Position>
            <AltitudeMeters>839.79998779296875</AltitudeMeters>
            <DistanceMeters>NAN</DistanceMeters>
          </Trackpoint>
          <Trackpoint>
            <Time>2019-08-01T10:36:35.000Z</Time>
            <Position>
              <LatitudeDegrees>40.54537863470613956451416015625</LatitudeDegrees>
              <LongitudeDegrees>-4.034660272300243377685546875</LongitudeDegrees>
            </Position>
            <AltitudeMeters>840</AltitudeMeters>
            <DistanceMeters>NAN</DistanceMeters>
          </Trackpoint>
          <Trackpoint>
            <Time>2019-08-01T10:36:37.000Z</Time>
            <Position>
              <LatitudeDegrees>40.54549832828342914581298828125</LatitudeDegrees>
              <LongitudeDegrees>-4.03457771055400371551513671875</LongitudeDegrees>
            </Position>
            <AltitudeMeters>840.5999755859375</AltitudeMeters>
            <DistanceMeters>NAN</DistanceMeters>
          </Trackpoint>
          <Trackpoint>
            <Time>2019-08-01T10:36:38.000Z</Time>
            <Position>
              <LatitudeDegrees>40.54555817507207393646240234375</LatitudeDegrees>
              <LongitudeDegrees>-4.03453613631427288055419921875</LongitudeDegrees>
            </Position>
            <AltitudeMeters>840.5999755859375</AltitudeMeters>
            <DistanceMeters>NAN</DistanceMeters>
          </Trackpoint>
          <Trackpoint>
            <Time>2019-08-01T10:36:39.000Z</Time>
            <Position>
              <LatitudeDegrees>40.54561835713684558868408203125</LatitudeDegrees>
              <LongitudeDegrees>-4.03449690900743007659912109375</LongitudeDegrees>
            </Position>
            <AltitudeMeters>840.79998779296875</AltitudeMeters>
            <DistanceMeters>NAN</DistanceMeters>
          </Trackpoint>
          <Trackpoint>
            <Time>2019-08-01T10:36:40.000Z</Time>
            <Position>
              <LatitudeDegrees>40.54567761719226837158203125</LatitudeDegrees>
              <LongitudeDegrees>-4.03445734642446041107177734375</LongitudeDegrees>
            </Position>
            <AltitudeMeters>841</AltitudeMeters>
            <DistanceMeters>NAN</DistanceMeters>
          </Trackpoint>
          <Trackpoint>
            <Time>2019-08-01T10:36:41.000Z</Time>
            <Position>
              <LatitudeDegrees>40.545736290514469146728515625</LatitudeDegrees>
              <LongitudeDegrees>-4.03441778384149074554443359375</LongitudeDegrees>
            </Position>
            <AltitudeMeters>841.4000244140625</AltitudeMeters>
            <DistanceMeters>NAN</DistanceMeters>
          </Trackpoint>
          <Trackpoint>
            <Time>2019-08-01T10:36:42.000Z</Time>
            <Position>
              <LatitudeDegrees>40.54579521529376506805419921875</LatitudeDegrees>
              <LongitudeDegrees>-4.03437889181077480316162109375</LongitudeDegrees>
            </Position>
            <AltitudeMeters>841.5999755859375</AltitudeMeters>
            <DistanceMeters>NAN</DistanceMeters>
          </Trackpoint>
          <Trackpoint>
            <Time>2019-08-01T10:36:43.000Z</Time>
            <Position>
              <LatitudeDegrees>40.54585372097790241241455078125</LatitudeDegrees>
              <LongitudeDegrees>-4.03433932922780513763427734375</LongitudeDegrees>
            </Position>
            <AltitudeMeters>841.79998779296875</AltitudeMeters>
            <DistanceMeters>NAN</DistanceMeters>
          </Trackpoint>
          <Trackpoint>
            <Time>2019-08-01T10:36:44.000Z</Time>
            <Position>
              <LatitudeDegrees>40.5459116399288177490234375</LatitudeDegrees>
              <LongitudeDegrees>-4.0342985093593597412109375</LongitudeDegrees>
            </Position>
            <AltitudeMeters>842</AltitudeMeters>
            <DistanceMeters>NAN</DistanceMeters>
          </Trackpoint>
          <Trackpoint>
            <Time>2019-08-01T10:36:45.000Z</Time>
            <Position>
              <LatitudeDegrees>40.5459681339561939239501953125</LatitudeDegrees>
              <LongitudeDegrees>-4.03425467200577259063720703125</LongitudeDegrees>
            </Position>
            <AltitudeMeters>842</AltitudeMeters>
            <DistanceMeters>NAN</DistanceMeters>
          </Trackpoint>
          <Trackpoint>
            <Time>2019-08-01T10:36:46.000Z</Time>
            <Position>
              <LatitudeDegrees>40.5460247956216335296630859375</LatitudeDegrees>
              <LongitudeDegrees>-4.03420840390026569366455078125</LongitudeDegrees>
            </Position>
            <AltitudeMeters>842.20001220703125</AltitudeMeters>
            <DistanceMeters>NAN</DistanceMeters>
          </Trackpoint>
          <Trackpoint>
            <Time>2019-08-01T10:36:47.000Z</Time>
            <Position>
              <LatitudeDegrees>40.54608120582997798919677734375</LatitudeDegrees>
              <LongitudeDegrees>-4.034159369766712188720703125</LongitudeDegrees>
            </Position>
            <AltitudeMeters>842.4000244140625</AltitudeMeters>
            <DistanceMeters>NAN</DistanceMeters>
          </Trackpoint>
          <Trackpoint>
            <Time>2019-08-01T10:36:48.000Z</Time>
            <Position>
              <LatitudeDegrees>40.5461369454860687255859375</LatitudeDegrees>
              <LongitudeDegrees>-4.03410849161446094512939453125</LongitudeDegrees>
            </Position>
            <AltitudeMeters>842.5999755859375</AltitudeMeters>
            <DistanceMeters>NAN</DistanceMeters>
          </Trackpoint>
          <Trackpoint>
            <Time>2019-08-01T10:36:49.000Z</Time>
            <Position>
              <LatitudeDegrees>40.54619285278022289276123046875</LatitudeDegrees>
              <LongitudeDegrees>-4.03405803255736827850341796875</LongitudeDegrees>
            </Position>
            <AltitudeMeters>842.79998779296875</AltitudeMeters>
            <DistanceMeters>NAN</DistanceMeters>
          </Trackpoint>
          <Trackpoint>
            <Time>2019-08-01T10:36:50.000Z</Time>
            <Position>
              <LatitudeDegrees>40.54624934680759906768798828125</LatitudeDegrees>
              <LongitudeDegrees>-4.0340073220431804656982421875</LongitudeDegrees>
            </Position>
            <AltitudeMeters>843.20001220703125</AltitudeMeters>
            <DistanceMeters>NAN</DistanceMeters>
          </Trackpoint>
          <Trackpoint>
            <Time>2019-08-01T10:36:51.000Z</Time>
            <Position>
              <LatitudeDegrees>40.5463059246540069580078125</LatitudeDegrees>
              <LongitudeDegrees>-4.03395644389092922210693359375</LongitudeDegrees>
            </Position>
            <AltitudeMeters>843.4000244140625</AltitudeMeters>
            <DistanceMeters>NAN</DistanceMeters>
          </Trackpoint>
          <Trackpoint>
            <Time>2019-08-01T10:36:52.000Z</Time>
            <Position>
              <LatitudeDegrees>40.5463617481291294097900390625</LatitudeDegrees>
              <LongitudeDegrees>-4.033905901014804840087890625</LongitudeDegrees>
            </Position>
            <AltitudeMeters>843.4000244140625</AltitudeMeters>
            <DistanceMeters>NAN</DistanceMeters>
          </Trackpoint>
          <Trackpoint>
            <Time>2019-08-01T10:36:53.000Z</Time>
            <Position>
              <LatitudeDegrees>40.54642100818455219268798828125</LatitudeDegrees>
              <LongitudeDegrees>-4.03385502286255359649658203125</LongitudeDegrees>
            </Position>
            <AltitudeMeters>843.79998779296875</AltitudeMeters>
            <DistanceMeters>NAN</DistanceMeters>
          </Trackpoint>
          <Trackpoint>
            <Time>2019-08-01T10:36:54.000Z</Time>
            <Position>
              <LatitudeDegrees>40.54648253135383129119873046875</LatitudeDegrees>
              <LongitudeDegrees>-4.03380271978676319122314453125</LongitudeDegrees>
            </Position>
            <AltitudeMeters>843.79998779296875</AltitudeMeters>
            <DistanceMeters>NAN</DistanceMeters>
          </Trackpoint>
          <Trackpoint>
            <Time>2019-08-01T10:36:55.000Z</Time>
            <Position>
              <LatitudeDegrees>40.54654656909406185150146484375</LatitudeDegrees>
              <LongitudeDegrees>-4.03374731540679931640625</LongitudeDegrees>
            </Position>
            <AltitudeMeters>843.79998779296875</AltitudeMeters>
            <DistanceMeters>NAN</DistanceMeters>
          </Trackpoint>
          <Trackpoint>
            <Time>2019-08-01T10:36:56.000Z</Time>
            <Position>
              <LatitudeDegrees>40.54661161266267299652099609375</LatitudeDegrees>
              <LongitudeDegrees>-4.033689312636852264404296875</LongitudeDegrees>
            </Position>
            <AltitudeMeters>844</AltitudeMeters>
            <DistanceMeters>NAN</DistanceMeters>
          </Trackpoint>
          <Trackpoint>
            <Time>2019-08-01T10:36:57.000Z</Time>
            <Position>
              <LatitudeDegrees>40.546679757535457611083984375</LatitudeDegrees>
              <LongitudeDegrees>-4.03362586162984371185302734375</LongitudeDegrees>
            </Position>
            <AltitudeMeters>843.79998779296875</AltitudeMeters>
            <DistanceMeters>NAN</DistanceMeters>
          </Trackpoint>
          <Trackpoint>
            <Time>2019-08-01T10:36:58.000Z</Time>
            <Position>
              <LatitudeDegrees>40.5467498302459716796875</LatitudeDegrees>
              <LongitudeDegrees>-4.0335570462048053741455078125</LongitudeDegrees>
            </Position>
            <AltitudeMeters>844</AltitudeMeters>
            <DistanceMeters>NAN</DistanceMeters>
          </Trackpoint>
          <Trackpoint>
            <Time>2019-08-01T10:36:59.000Z</Time>
            <Position>
              <LatitudeDegrees>40.5468217469751834869384765625</LatitudeDegrees>
              <LongitudeDegrees>-4.03348521329462528228759765625</LongitudeDegrees>
            </Position>
            <AltitudeMeters>844</AltitudeMeters>
            <DistanceMeters>NAN</DistanceMeters>
          </Trackpoint>
          <Trackpoint>
            <Time>2019-08-01T10:37:00.000Z</Time>
            <Position>
              <LatitudeDegrees>40.54689592681825160980224609375</LatitudeDegrees>
              <LongitudeDegrees>-4.03340877033770084381103515625</LongitudeDegrees>
            </Position>
            <AltitudeMeters>844</AltitudeMeters>
            <DistanceMeters>NAN</DistanceMeters>
          </Trackpoint>
          <Trackpoint>
            <Time>2019-08-01T10:37:01.000Z</Time>
            <Position>
              <LatitudeDegrees>40.54697203449904918670654296875</LatitudeDegrees>
              <LongitudeDegrees>-4.03332914225757122039794921875</LongitudeDegrees>
            </Position>
            <AltitudeMeters>844</AltitudeMeters>
            <DistanceMeters>NAN</DistanceMeters>
          </Trackpoint>
          <Trackpoint>
            <Time>2019-08-01T10:37:02.000Z</Time>
            <Position>
              <LatitudeDegrees>40.54705233313143253326416015625</LatitudeDegrees>
              <LongitudeDegrees>-4.033248759806156158447265625</LongitudeDegrees>
            </Position>
            <AltitudeMeters>843.79998779296875</AltitudeMeters>
            <DistanceMeters>NAN</DistanceMeters>
          </Trackpoint>
          <Trackpoint>
            <Time>2019-08-01T10:37:03.000Z</Time>
            <Position>
              <LatitudeDegrees>40.54713648743927478790283203125</LatitudeDegrees>
              <LongitudeDegrees>-4.0331718139350414276123046875</LongitudeDegrees>
            </Position>
            <AltitudeMeters>843.5999755859375</AltitudeMeters>
            <DistanceMeters>NAN</DistanceMeters>
          </Trackpoint>
          <Trackpoint>
            <Time>2019-08-01T10:37:04.000Z</Time>
            <Position>
              <LatitudeDegrees>40.54722667671740055084228515625</LatitudeDegrees>
              <LongitudeDegrees>-4.03310266323387622833251953125</LongitudeDegrees>
            </Position>
            <AltitudeMeters>843.4000244140625</AltitudeMeters>
            <DistanceMeters>NAN</DistanceMeters>
          </Trackpoint>
          <Trackpoint>
            <Time>2019-08-01T10:37:05.000Z</Time>
            <Position>
              <LatitudeDegrees>40.54732273332774639129638671875</LatitudeDegrees>
              <LongitudeDegrees>-4.03304499574005603790283203125</LongitudeDegrees>
            </Position>
            <AltitudeMeters>843.4000244140625</AltitudeMeters>
            <DistanceMeters>NAN</DistanceMeters>
          </Trackpoint>
          <Trackpoint>
            <Time>2019-08-01T10:37:06.000Z</Time>
            <Position>
              <LatitudeDegrees>40.54742281325161457061767578125</LatitudeDegrees>
              <LongitudeDegrees>-4.03300006873905658721923828125</LongitudeDegrees>
            </Position>
            <AltitudeMeters>842.5999755859375</AltitudeMeters>
            <DistanceMeters>NAN</DistanceMeters>
          </Trackpoint>
          <Trackpoint>
            <Time>2019-08-01T10:37:07.000Z</Time>
            <Position>
              <LatitudeDegrees>40.547523982822895050048828125</LatitudeDegrees>
              <LongitudeDegrees>-4.0329612605273723602294921875</LongitudeDegrees>
            </Position>
            <AltitudeMeters>842</AltitudeMeters>
            <DistanceMeters>NAN</DistanceMeters>
          </Trackpoint>
          <Trackpoint>
            <Time>2019-08-01T10:37:09.000Z</Time>
            <Position>
              <LatitudeDegrees>40.54772255010902881622314453125</LatitudeDegrees>
              <LongitudeDegrees>-4.03288573957979679107666015625</LongitudeDegrees>
            </Position>
            <AltitudeMeters>841</AltitudeMeters>
            <DistanceMeters>NAN</DistanceMeters>
          </Trackpoint>
          <Trackpoint>
            <Time>2019-08-01T10:37:10.000Z</Time>
            <Position>
              <LatitudeDegrees>40.5478208698332309722900390625</LatitudeDegrees>
              <LongitudeDegrees>-4.03284869156777858734130859375</LongitudeDegrees>
            </Position>
            <AltitudeMeters>840.5999755859375</AltitudeMeters>
            <DistanceMeters>NAN</DistanceMeters>
          </Trackpoint>
          <Trackpoint>
            <Time>2019-08-01T10:37:12.000Z</Time>
            <Position>
              <LatitudeDegrees>40.5480170063674449920654296875</LatitudeDegrees>
              <LongitudeDegrees>-4.032768644392490386962890625</LongitudeDegrees>
            </Position>
            <AltitudeMeters>839</AltitudeMeters>
            <DistanceMeters>NAN</DistanceMeters>
          </Trackpoint>
          <Trackpoint>
            <Time>2019-08-01T10:37:13.000Z</Time>
            <Position>
              <LatitudeDegrees>40.5481142364442348480224609375</LatitudeDegrees>
              <LongitudeDegrees>-4.0327240526676177978515625</LongitudeDegrees>
            </Position>
            <AltitudeMeters>838.20001220703125</AltitudeMeters>
            <DistanceMeters>NAN</DistanceMeters>
          </Trackpoint>
          <Trackpoint>
            <Time>2019-08-01T10:37:14.000Z</Time>
            <Position>
              <LatitudeDegrees>40.548209287226200103759765625</LatitudeDegrees>
              <LongitudeDegrees>-4.03267283923923969268798828125</LongitudeDegrees>
            </Position>
            <AltitudeMeters>837.4000244140625</AltitudeMeters>
            <DistanceMeters>NAN</DistanceMeters>
          </Trackpoint>
          <Trackpoint>
            <Time>2019-08-01T10:37:15.000Z</Time>
            <Position>
              <LatitudeDegrees>40.54829956032335758209228515625</LatitudeDegrees>
              <LongitudeDegrees>-4.03260938823223114013671875</LongitudeDegrees>
            </Position>
            <AltitudeMeters>836.79998779296875</AltitudeMeters>
            <DistanceMeters>NAN</DistanceMeters>
          </Trackpoint>
          <Trackpoint>
            <Time>2019-08-01T10:37:16.000Z</Time>
            <Position>
              <LatitudeDegrees>40.54838069714605808258056640625</LatitudeDegrees>
              <LongitudeDegrees>-4.03253026306629180908203125</LongitudeDegrees>
            </Position>
            <AltitudeMeters>836.4000244140625</AltitudeMeters>
            <DistanceMeters>NAN</DistanceMeters>
          </Trackpoint>
          <Trackpoint>
            <Time>2019-08-01T10:37:17.000Z</Time>
            <Position>
              <LatitudeDegrees>40.54845311678946018218994140625</LatitudeDegrees>
              <LongitudeDegrees>-4.032440073788166046142578125</LongitudeDegrees>
            </Position>
            <AltitudeMeters>836.20001220703125</AltitudeMeters>
            <DistanceMeters>NAN</DistanceMeters>
          </Trackpoint>
          <Trackpoint>
            <Time>2019-08-01T10:37:18.000Z</Time>
            <Position>
              <LatitudeDegrees>40.548519082367420196533203125</LatitudeDegrees>
              <LongitudeDegrees>-4.03234443627297878265380859375</LongitudeDegrees>
            </Position>
            <AltitudeMeters>836</AltitudeMeters>
            <DistanceMeters>NAN</DistanceMeters>
          </Trackpoint>
          <Trackpoint>
            <Time>2019-08-01T10:37:19.000Z</Time>
            <Position>
              <LatitudeDegrees>40.548583455383777618408203125</LatitudeDegrees>
              <LongitudeDegrees>-4.032247625291347503662109375</LongitudeDegrees>
            </Position>
            <AltitudeMeters>835.79998779296875</AltitudeMeters>
            <DistanceMeters>NAN</DistanceMeters>
          </Trackpoint>
          <Trackpoint>
            <Time>2019-08-01T10:37:20.000Z</Time>
            <Position>
              <LatitudeDegrees>40.54864757694303989410400390625</LatitudeDegrees>
              <LongitudeDegrees>-4.032151401042938232421875</LongitudeDegrees>
            </Position>
            <AltitudeMeters>835.5999755859375</AltitudeMeters>
            <DistanceMeters>NAN</DistanceMeters>
          </Trackpoint>
          <Trackpoint>
            <Time>2019-08-01T10:37:21.000Z</Time>
            <Position>
              <LatitudeDegrees>40.54871144704520702362060546875</LatitudeDegrees>
              <LongitudeDegrees>-4.03205643408000469207763671875</LongitudeDegrees>
            </Position>
            <AltitudeMeters>835.5999755859375</AltitudeMeters>
            <DistanceMeters>NAN</DistanceMeters>
          </Trackpoint>
          <Trackpoint>
            <Time>2019-08-01T10:37:22.000Z</Time>
            <Position>
              <LatitudeDegrees>40.5487754009664058685302734375</LatitudeDegrees>
              <LongitudeDegrees>-4.0319611318409442901611328125</LongitudeDegrees>
            </Position>
            <AltitudeMeters>835.5999755859375</AltitudeMeters>
            <DistanceMeters>NAN</DistanceMeters>
          </Trackpoint>
          <Trackpoint>
            <Time>2019-08-01T10:37:23.000Z</Time>
            <Position>
              <LatitudeDegrees>40.54884069599211215972900390625</LatitudeDegrees>
              <LongitudeDegrees>-4.0318644046783447265625</LongitudeDegrees>
            </Position>
            <AltitudeMeters>835.5999755859375</AltitudeMeters>
            <DistanceMeters>NAN</DistanceMeters>
          </Trackpoint>
          <Trackpoint>
            <Time>2019-08-01T10:37:24.000Z</Time>
            <Position>
              <LatitudeDegrees>40.54890741594135761260986328125</LatitudeDegrees>
              <LongitudeDegrees>-4.03176675550639629364013671875</LongitudeDegrees>
            </Position>
            <AltitudeMeters>835.4000244140625</AltitudeMeters>
            <DistanceMeters>NAN</DistanceMeters>
          </Trackpoint>
          <Trackpoint>
            <Time>2019-08-01T10:37:25.000Z</Time>
            <Position>
              <LatitudeDegrees>40.54897539317607879638671875</LatitudeDegrees>
              <LongitudeDegrees>-4.03166868723928928375244140625</LongitudeDegrees>
            </Position>
            <AltitudeMeters>835.4000244140625</AltitudeMeters>
            <DistanceMeters>NAN</DistanceMeters>
          </Trackpoint>
          <Trackpoint>
            <Time>2019-08-01T10:37:26.000Z</Time>
            <Position>
              <LatitudeDegrees>40.549044795334339141845703125</LatitudeDegrees>
              <LongitudeDegrees>-4.03157095424830913543701171875</LongitudeDegrees>
            </Position>
            <AltitudeMeters>835.20001220703125</AltitudeMeters>
            <DistanceMeters>NAN</DistanceMeters>
          </Trackpoint>
          <Trackpoint>
            <Time>2019-08-01T10:37:27.000Z</Time>
            <Position>
              <LatitudeDegrees>40.54911461658775806427001953125</LatitudeDegrees>
              <LongitudeDegrees>-4.031473807990550994873046875</LongitudeDegrees>
            </Position>
            <AltitudeMeters>835.20001220703125</AltitudeMeters>
            <DistanceMeters>NAN</DistanceMeters>
          </Trackpoint>
          <Trackpoint>
            <Time>2019-08-01T10:37:28.000Z</Time>
            <Position>
              <LatitudeDegrees>40.54918418638408184051513671875</LatitudeDegrees>
              <LongitudeDegrees>-4.03137699700891971588134765625</LongitudeDegrees>
            </Position>
            <AltitudeMeters>835</AltitudeMeters>
            <DistanceMeters>NAN</DistanceMeters>
          </Trackpoint>
          <Trackpoint>
            <Time>2019-08-01T10:37:29.000Z</Time>
            <Position>
              <LatitudeDegrees>40.54925291799008846282958984375</LatitudeDegrees>
              <LongitudeDegrees>-4.03128026984632015228271484375</LongitudeDegrees>
            </Position>
            <AltitudeMeters>835</AltitudeMeters>
            <DistanceMeters>NAN</DistanceMeters>
          </Trackpoint>
          <Trackpoint>
            <Time>2019-08-01T10:37:30.000Z</Time>
            <Position>
              <LatitudeDegrees>40.54932215251028537750244140625</LatitudeDegrees>
              <LongitudeDegrees>-4.031184799969196319580078125</LongitudeDegrees>
            </Position>
            <AltitudeMeters>834.79998779296875</AltitudeMeters>
            <DistanceMeters>NAN</DistanceMeters>
          </Trackpoint>
          <Trackpoint>
            <Time>2019-08-01T10:37:31.000Z</Time>
            <Position>
              <LatitudeDegrees>40.54939105175435543060302734375</LatitudeDegrees>
              <LongitudeDegrees>-4.03108966536819934844970703125</LongitudeDegrees>
            </Position>
            <AltitudeMeters>834.5999755859375</AltitudeMeters>
            <DistanceMeters>NAN</DistanceMeters>
          </Trackpoint>
          <Trackpoint>
            <Time>2019-08-01T10:37:32.000Z</Time>
            <Position>
              <LatitudeDegrees>40.54945978336036205291748046875</LatitudeDegrees>
              <LongitudeDegrees>-4.030995033681392669677734375</LongitudeDegrees>
            </Position>
            <AltitudeMeters>834.4000244140625</AltitudeMeters>
            <DistanceMeters>NAN</DistanceMeters>
          </Trackpoint>
          <Trackpoint>
            <Time>2019-08-01T10:37:33.000Z</Time>
            <Position>
              <LatitudeDegrees>40.5495287664234638214111328125</LatitudeDegrees>
              <LongitudeDegrees>-4.0309013240039348602294921875</LongitudeDegrees>
            </Position>
            <AltitudeMeters>834.4000244140625</AltitudeMeters>
            <DistanceMeters>NAN</DistanceMeters>
          </Trackpoint>
          <Trackpoint>
            <Time>2019-08-01T10:37:34.000Z</Time>
            <Position>
              <LatitudeDegrees>40.54959959350526332855224609375</LatitudeDegrees>
              <LongitudeDegrees>-4.03080803342163562774658203125</LongitudeDegrees>
            </Position>
            <AltitudeMeters>834</AltitudeMeters>
            <DistanceMeters>NAN</DistanceMeters>
          </Trackpoint>
          <Trackpoint>
            <Time>2019-08-01T10:37:35.000Z</Time>
            <Position>
              <LatitudeDegrees>40.5496705882251262664794921875</LatitudeDegrees>
              <LongitudeDegrees>-4.0307135693728923797607421875</LongitudeDegrees>
            </Position>
            <AltitudeMeters>833.5999755859375</AltitudeMeters>
            <DistanceMeters>NAN</DistanceMeters>
          </Trackpoint>
          <Trackpoint>
            <Time>2019-08-01T10:37:36.000Z</Time>
            <Position>
              <LatitudeDegrees>40.54974108003079891204833984375</LatitudeDegrees>
              <LongitudeDegrees>-4.0306190215051174163818359375</LongitudeDegrees>
            </Position>
            <AltitudeMeters>833.20001220703125</AltitudeMeters>
            <DistanceMeters>NAN</DistanceMeters>
          </Trackpoint>
          <Trackpoint>
            <Time>2019-08-01T10:37:37.000Z</Time>
            <Position>
              <LatitudeDegrees>40.549811236560344696044921875</LatitudeDegrees>
              <LongitudeDegrees>-4.03052472509443759918212890625</LongitudeDegrees>
            </Position>
            <AltitudeMeters>833</AltitudeMeters>
            <DistanceMeters>NAN</DistanceMeters>
          </Trackpoint>
          <Trackpoint>
            <Time>2019-08-01T10:37:38.000Z</Time>
            <Position>
              <LatitudeDegrees>40.54988223128020763397216796875</LatitudeDegrees>
              <LongitudeDegrees>-4.03043185360729694366455078125</LongitudeDegrees>
            </Position>
            <AltitudeMeters>832.79998779296875</AltitudeMeters>
            <DistanceMeters>NAN</DistanceMeters>
          </Trackpoint>
          <Trackpoint>
            <Time>2019-08-01T10:37:39.000Z</Time>
            <Position>
              <LatitudeDegrees>40.5499542318284511566162109375</LatitudeDegrees>
              <LongitudeDegrees>-4.03033948503434658050537109375</LongitudeDegrees>
            </Position>
            <AltitudeMeters>832.79998779296875</AltitudeMeters>
            <DistanceMeters>NAN</DistanceMeters>
          </Trackpoint>
          <Trackpoint>
            <Time>2019-08-01T10:37:40.000Z</Time>
            <Position>
              <LatitudeDegrees>40.5500243045389652252197265625</LatitudeDegrees>
              <LongitudeDegrees>-4.03024862520396709442138671875</LongitudeDegrees>
            </Position>
            <AltitudeMeters>832.5999755859375</AltitudeMeters>
            <DistanceMeters>NAN</DistanceMeters>
          </Trackpoint>
          <Trackpoint>
            <Time>2019-08-01T10:37:41.000Z</Time>
            <Position>
              <LatitudeDegrees>40.5500933714210987091064453125</LatitudeDegrees>
              <LongitudeDegrees>-4.03015910647809505462646484375</LongitudeDegrees>
            </Position>
            <AltitudeMeters>832.5999755859375</AltitudeMeters>
            <DistanceMeters>NAN</DistanceMeters>
          </Trackpoint>
          <Trackpoint>
            <Time>2019-08-01T10:37:42.000Z</Time>
            <Position>
              <LatitudeDegrees>40.55016118101775646209716796875</LatitudeDegrees>
              <LongitudeDegrees>-4.03007067739963531494140625</LongitudeDegrees>
            </Position>
            <AltitudeMeters>832.4000244140625</AltitudeMeters>
            <DistanceMeters>NAN</DistanceMeters>
          </Trackpoint>
          <Trackpoint>
            <Time>2019-08-01T10:37:43.000Z</Time>
            <Position>
              <LatitudeDegrees>40.55022798478603363037109375</LatitudeDegrees>
              <LongitudeDegrees>-4.02998325414955615997314453125</LongitudeDegrees>
            </Position>
            <AltitudeMeters>832</AltitudeMeters>
            <DistanceMeters>NAN</DistanceMeters>
          </Trackpoint>
          <Trackpoint>
            <Time>2019-08-01T10:37:45.000Z</Time>
            <Position>
              <LatitudeDegrees>40.5503585748374462127685546875</LatitudeDegrees>
              <LongitudeDegrees>-4.0298086591064929962158203125</LongitudeDegrees>
            </Position>
            <AltitudeMeters>831.79998779296875</AltitudeMeters>
            <DistanceMeters>NAN</DistanceMeters>
          </Trackpoint>
          <Trackpoint>
            <Time>2019-08-01T10:37:46.000Z</Time>
            <Position>
              <LatitudeDegrees>40.550424121320247650146484375</LatitudeDegrees>
              <LongitudeDegrees>-4.029722325503826141357421875</LongitudeDegrees>
            </Position>
            <AltitudeMeters>831.79998779296875</AltitudeMeters>
            <DistanceMeters>NAN</DistanceMeters>
          </Trackpoint>
          <Trackpoint>
            <Time>2019-08-01T10:37:47.000Z</Time>
            <Position>
              <LatitudeDegrees>40.55048857815563678741455078125</LatitudeDegrees>
              <LongitudeDegrees>-4.0296368300914764404296875</LongitudeDegrees>
            </Position>
            <AltitudeMeters>831.79998779296875</AltitudeMeters>
            <DistanceMeters>NAN</DistanceMeters>
          </Trackpoint>
          <Trackpoint>
            <Time>2019-08-01T10:37:48.000Z</Time>
            <Position>
              <LatitudeDegrees>40.55055211298167705535888671875</LatitudeDegrees>
              <LongitudeDegrees>-4.0295518375933170318603515625</LongitudeDegrees>
            </Position>
            <AltitudeMeters>831.79998779296875</AltitudeMeters>
            <DistanceMeters>NAN</DistanceMeters>
          </Trackpoint>
          <Trackpoint>
            <Time>2019-08-01T10:37:49.000Z</Time>
            <Position>
              <LatitudeDegrees>40.55061531253159046173095703125</LatitudeDegrees>
              <LongitudeDegrees>-4.0294678509235382080078125</LongitudeDegrees>
            </Position>
            <AltitudeMeters>831.79998779296875</AltitudeMeters>
            <DistanceMeters>NAN</DistanceMeters>
          </Trackpoint>
          <Trackpoint>
            <Time>2019-08-01T10:37:50.000Z</Time>
            <Position>
              <LatitudeDegrees>40.550678931176662445068359375</LatitudeDegrees>
              <LongitudeDegrees>-4.02938445098698139190673828125</LongitudeDegrees>
            </Position>
            <AltitudeMeters>831.79998779296875</AltitudeMeters>
            <DistanceMeters>NAN</DistanceMeters>
          </Trackpoint>
          <Trackpoint>
            <Time>2019-08-01T10:37:51.000Z</Time>
            <Position>
              <LatitudeDegrees>40.55074405856430530548095703125</LatitudeDegrees>
              <LongitudeDegrees>-4.02930222451686859130859375</LongitudeDegrees>
            </Position>
            <AltitudeMeters>831.79998779296875</AltitudeMeters>
            <DistanceMeters>NAN</DistanceMeters>
          </Trackpoint>
          <Trackpoint>
            <Time>2019-08-01T10:37:52.000Z</Time>
            <Position>
              <LatitudeDegrees>40.55081044323742389678955078125</LatitudeDegrees>
              <LongitudeDegrees>-4.0292215906083583831787109375</LongitudeDegrees>
            </Position>
            <AltitudeMeters>831.79998779296875</AltitudeMeters>
            <DistanceMeters>NAN</DistanceMeters>
          </Trackpoint>
          <Trackpoint>
            <Time>2019-08-01T10:37:53.000Z</Time>
            <Position>
              <LatitudeDegrees>40.55087917484343051910400390625</LatitudeDegrees>
              <LongitudeDegrees>-4.02914573438465595245361328125</LongitudeDegrees>
            </Position>
            <AltitudeMeters>831.79998779296875</AltitudeMeters>
            <DistanceMeters>NAN</DistanceMeters>
          </Trackpoint>
          <Trackpoint>
            <Time>2019-08-01T10:37:54.000Z</Time>
            <Position>
              <LatitudeDegrees>40.5509523488581180572509765625</LatitudeDegrees>
              <LongitudeDegrees>-4.02907549403607845306396484375</LongitudeDegrees>
            </Position>
            <AltitudeMeters>831.79998779296875</AltitudeMeters>
            <DistanceMeters>NAN</DistanceMeters>
          </Trackpoint>
          <Trackpoint>
            <Time>2019-08-01T10:37:55.000Z</Time>
            <Position>
              <LatitudeDegrees>40.5510297976434230804443359375</LatitudeDegrees>
              <LongitudeDegrees>-4.0290123783051967620849609375</LongitudeDegrees>
            </Position>
            <AltitudeMeters>831.79998779296875</AltitudeMeters>
            <DistanceMeters>NAN</DistanceMeters>
          </Trackpoint>
          <Trackpoint>
            <Time>2019-08-01T10:37:56.000Z</Time>
            <Position>
              <LatitudeDegrees>40.55111219175159931182861328125</LatitudeDegrees>
              <LongitudeDegrees>-4.02895596809685230255126953125</LongitudeDegrees>
            </Position>
            <AltitudeMeters>831.79998779296875</AltitudeMeters>
            <DistanceMeters>NAN</DistanceMeters>
          </Trackpoint>
          <Trackpoint>
            <Time>2019-08-01T10:37:57.000Z</Time>
            <Position>
              <LatitudeDegrees>40.55119768716394901275634765625</LatitudeDegrees>
              <LongitudeDegrees>-4.02890349738299846649169921875</LongitudeDegrees>
            </Position>
            <AltitudeMeters>831.5999755859375</AltitudeMeters>
            <DistanceMeters>NAN</DistanceMeters>
          </Trackpoint>
          <Trackpoint>
            <Time>2019-08-01T10:37:58.000Z</Time>
            <Position>
              <LatitudeDegrees>40.55128435604274272918701171875</LatitudeDegrees>
              <LongitudeDegrees>-4.028849937021732330322265625</LongitudeDegrees>
            </Position>
            <AltitudeMeters>831.5999755859375</AltitudeMeters>
            <DistanceMeters>NAN</DistanceMeters>
          </Trackpoint>
          <Trackpoint>
            <Time>2019-08-01T10:37:59.000Z</Time>
            <Position>
              <LatitudeDegrees>40.551372282207012176513671875</LatitudeDegrees>
              <LongitudeDegrees>-4.0287961252033710479736328125</LongitudeDegrees>
            </Position>
            <AltitudeMeters>831.4000244140625</AltitudeMeters>
            <DistanceMeters>NAN</DistanceMeters>
          </Trackpoint>
          <Trackpoint>
            <Time>2019-08-01T10:38:00.000Z</Time>
            <Position>
              <LatitudeDegrees>40.55145937018096446990966796875</LatitudeDegrees>
              <LongitudeDegrees>-4.02874357067048549652099609375</LongitudeDegrees>
            </Position>
            <AltitudeMeters>831.4000244140625</AltitudeMeters>
            <DistanceMeters>NAN</DistanceMeters>
          </Trackpoint>
          <Trackpoint>
            <Time>2019-08-01T10:38:01.000Z</Time>
            <Position>
              <LatitudeDegrees>40.55154603905975818634033203125</LatitudeDegrees>
              <LongitudeDegrees>-4.0286928601562976837158203125</LongitudeDegrees>
            </Position>
            <AltitudeMeters>831.4000244140625</AltitudeMeters>
            <DistanceMeters>NAN</DistanceMeters>
          </Trackpoint>
          <Trackpoint>
            <Time>2019-08-01T10:38:02.000Z</Time>
            <Position>
              <LatitudeDegrees>40.55163153447210788726806640625</LatitudeDegrees>
              <LongitudeDegrees>-4.0286429040133953094482421875</LongitudeDegrees>
            </Position>
            <AltitudeMeters>831.4000244140625</AltitudeMeters>
            <DistanceMeters>NAN</DistanceMeters>
          </Trackpoint>
          <Trackpoint>
            <Time>2019-08-01T10:38:03.000Z</Time>
            <Position>
              <LatitudeDegrees>40.551715604960918426513671875</LatitudeDegrees>
              <LongitudeDegrees>-4.02859278023242950439453125</LongitudeDegrees>
            </Position>
            <AltitudeMeters>831.20001220703125</AltitudeMeters>
            <DistanceMeters>NAN</DistanceMeters>
          </Trackpoint>
          <Trackpoint>
            <Time>2019-08-01T10:38:04.000Z</Time>
            <Position>
              <LatitudeDegrees>40.551798753440380096435546875</LatitudeDegrees>
              <LongitudeDegrees>-4.02854290790855884552001953125</LongitudeDegrees>
            </Position>
            <AltitudeMeters>831.20001220703125</AltitudeMeters>
            <DistanceMeters>NAN</DistanceMeters>
          </Trackpoint>
          <Trackpoint>
            <Time>2019-08-01T10:38:05.000Z</Time>
            <Position>
              <LatitudeDegrees>40.551881901919841766357421875</LatitudeDegrees>
              <LongitudeDegrees>-4.028493203222751617431640625</LongitudeDegrees>
            </Position>
            <AltitudeMeters>831.20001220703125</AltitudeMeters>
            <DistanceMeters>NAN</DistanceMeters>
          </Trackpoint>
          <Trackpoint>
            <Time>2019-08-01T10:38:06.000Z</Time>
            <Position>
              <LatitudeDegrees>40.55196345783770084381103515625</LatitudeDegrees>
              <LongitudeDegrees>-4.02844383381307125091552734375</LongitudeDegrees>
            </Position>
            <AltitudeMeters>830.79998779296875</AltitudeMeters>
            <DistanceMeters>NAN</DistanceMeters>
          </Trackpoint>
          <Trackpoint>
            <Time>2019-08-01T10:38:07.000Z</Time>
            <Position>
              <LatitudeDegrees>40.55204476229846477508544921875</LatitudeDegrees>
              <LongitudeDegrees>-4.0283958055078983306884765625</LongitudeDegrees>
            </Position>
            <AltitudeMeters>830.5999755859375</AltitudeMeters>
            <DistanceMeters>NAN</DistanceMeters>
          </Trackpoint>
          <Trackpoint>
            <Time>2019-08-01T10:38:08.000Z</Time>
            <Position>
              <LatitudeDegrees>40.55212690494954586029052734375</LatitudeDegrees>
              <LongitudeDegrees>-4.028350375592708587646484375</LongitudeDegrees>
            </Position>
            <AltitudeMeters>830.5999755859375</AltitudeMeters>
            <DistanceMeters>NAN</DistanceMeters>
          </Trackpoint>
          <Trackpoint>
            <Time>2019-08-01T10:38:10.000Z</Time>
            <Position>
              <LatitudeDegrees>40.5522924475371837615966796875</LatitudeDegrees>
              <LongitudeDegrees>-4.02827602811157703399658203125</LongitudeDegrees>
            </Position>
            <AltitudeMeters>830.4000244140625</AltitudeMeters>
            <DistanceMeters>NAN</DistanceMeters>
          </Trackpoint>
          <Trackpoint>
            <Time>2019-08-01T10:38:11.000Z</Time>
            <Position>
              <LatitudeDegrees>40.55237735621631145477294921875</LatitudeDegrees>
              <LongitudeDegrees>-4.02824945747852325439453125</LongitudeDegrees>
            </Position>
            <AltitudeMeters>830.4000244140625</AltitudeMeters>
            <DistanceMeters>NAN</DistanceMeters>
          </Trackpoint>
          <Trackpoint>
            <Time>2019-08-01T10:38:12.000Z</Time>
            <Position>
              <LatitudeDegrees>40.55246285162866115570068359375</LatitudeDegrees>
              <LongitudeDegrees>-4.028230011463165283203125</LongitudeDegrees>
            </Position>
            <AltitudeMeters>830.20001220703125</AltitudeMeters>
            <DistanceMeters>NAN</DistanceMeters>
          </Trackpoint>
          <Trackpoint>
            <Time>2019-08-01T10:38:13.000Z</Time>
            <Position>
              <LatitudeDegrees>40.55254801176488399505615234375</LatitudeDegrees>
              <LongitudeDegrees>-4.02821735478937625885009765625</LongitudeDegrees>
            </Position>
            <AltitudeMeters>830.20001220703125</AltitudeMeters>
            <DistanceMeters>NAN</DistanceMeters>
          </Trackpoint>
          <Trackpoint>
            <Time>2019-08-01T10:38:14.000Z</Time>
            <Position>
              <LatitudeDegrees>40.552631914615631103515625</LatitudeDegrees>
              <LongitudeDegrees>-4.028208889067173004150390625</LongitudeDegrees>
            </Position>
            <AltitudeMeters>830.20001220703125</AltitudeMeters>
            <DistanceMeters>NAN</DistanceMeters>
          </Trackpoint>
          <Trackpoint>
            <Time>2019-08-01T10:38:15.000Z</Time>
            <Position>
              <LatitudeDegrees>40.5527148954570293426513671875</LatitudeDegrees>
              <LongitudeDegrees>-4.0282043628394603729248046875</LongitudeDegrees>
            </Position>
            <AltitudeMeters>830.20001220703125</AltitudeMeters>
            <DistanceMeters>NAN</DistanceMeters>
          </Trackpoint>
          <Trackpoint>
            <Time>2019-08-01T10:38:16.000Z</Time>
            <Position>
              <LatitudeDegrees>40.55279619991779327392578125</LatitudeDegrees>
              <LongitudeDegrees>-4.02820126153528690338134765625</LongitudeDegrees>
            </Position>
            <AltitudeMeters>830.20001220703125</AltitudeMeters>
            <DistanceMeters>NAN</DistanceMeters>
          </Trackpoint>
          <Trackpoint>
            <Time>2019-08-01T10:38:17.000Z</Time>
            <Position>
              <LatitudeDegrees>40.55288027040660381317138671875</LatitudeDegrees>
              <LongitudeDegrees>-4.0281953103840351104736328125</LongitudeDegrees>
            </Position>
            <AltitudeMeters>830.4000244140625</AltitudeMeters>
            <DistanceMeters>NAN</DistanceMeters>
          </Trackpoint>
          <Trackpoint>
            <Time>2019-08-01T10:38:18.000Z</Time>
            <Position>
              <LatitudeDegrees>40.552961491048336029052734375</LatitudeDegrees>
              <LongitudeDegrees>-4.0281830728054046630859375</LongitudeDegrees>
            </Position>
            <AltitudeMeters>830.4000244140625</AltitudeMeters>
            <DistanceMeters>NAN</DistanceMeters>
          </Trackpoint>
          <Trackpoint>
            <Time>2019-08-01T10:38:19.000Z</Time>
            <Position>
              <LatitudeDegrees>40.5530397780239582061767578125</LatitudeDegrees>
              <LongitudeDegrees>-4.02816371060907840728759765625</LongitudeDegrees>
            </Position>
            <AltitudeMeters>830.4000244140625</AltitudeMeters>
            <DistanceMeters>NAN</DistanceMeters>
          </Trackpoint>
          <Trackpoint>
            <Time>2019-08-01T10:38:20.000Z</Time>
            <Position>
              <LatitudeDegrees>40.55311538279056549072265625</LatitudeDegrees>
              <LongitudeDegrees>-4.028138481080532073974609375</LongitudeDegrees>
            </Position>
            <AltitudeMeters>830.4000244140625</AltitudeMeters>
            <DistanceMeters>NAN</DistanceMeters>
          </Trackpoint>
          <Trackpoint>
            <Time>2019-08-01T10:38:21.000Z</Time>
            <Position>
              <LatitudeDegrees>40.55318855680525302886962890625</LatitudeDegrees>
              <LongitudeDegrees>-4.02811006642878055572509765625</LongitudeDegrees>
            </Position>
            <AltitudeMeters>830.5999755859375</AltitudeMeters>
            <DistanceMeters>NAN</DistanceMeters>
          </Trackpoint>
          <Trackpoint>
            <Time>2019-08-01T10:38:22.000Z</Time>
            <Position>
              <LatitudeDegrees>40.55326114408671855926513671875</LatitudeDegrees>
              <LongitudeDegrees>-4.02807888574898242950439453125</LongitudeDegrees>
            </Position>
            <AltitudeMeters>830.5999755859375</AltitudeMeters>
            <DistanceMeters>NAN</DistanceMeters>
          </Trackpoint>
          <Trackpoint>
            <Time>2019-08-01T10:38:23.000Z</Time>
            <Position>
              <LatitudeDegrees>40.5533311329782009124755859375</LatitudeDegrees>
              <LongitudeDegrees>-4.02804703451693058013916015625</LongitudeDegrees>
            </Position>
            <AltitudeMeters>830.5999755859375</AltitudeMeters>
            <DistanceMeters>NAN</DistanceMeters>
          </Trackpoint>
          <Trackpoint>
            <Time>2019-08-01T10:38:24.000Z</Time>
            <Position>
              <LatitudeDegrees>40.5533998645842075347900390625</LatitudeDegrees>
              <LongitudeDegrees>-4.02801484800875186920166015625</LongitudeDegrees>
            </Position>
            <AltitudeMeters>830.5999755859375</AltitudeMeters>
            <DistanceMeters>NAN</DistanceMeters>
          </Trackpoint>
          <Trackpoint>
            <Time>2019-08-01T10:38:25.000Z</Time>
            <Position>
              <LatitudeDegrees>40.553467087447643280029296875</LatitudeDegrees>
              <LongitudeDegrees>-4.02798199094831943511962890625</LongitudeDegrees>
            </Position>
            <AltitudeMeters>830.79998779296875</AltitudeMeters>
            <DistanceMeters>NAN</DistanceMeters>
          </Trackpoint>
          <Trackpoint>
            <Time>2019-08-01T10:38:27.000Z</Time>
            <Position>
              <LatitudeDegrees>40.55359323509037494659423828125</LatitudeDegrees>
              <LongitudeDegrees>-4.02791828848421573638916015625</LongitudeDegrees>
            </Position>
            <AltitudeMeters>831</AltitudeMeters>
            <DistanceMeters>NAN</DistanceMeters>
          </Trackpoint>
          <Trackpoint>
            <Time>2019-08-01T10:38:28.000Z</Time>
            <Position>
              <LatitudeDegrees>40.55365174077451229095458984375</LatitudeDegrees>
              <LongitudeDegrees>-4.0278831683099269866943359375</LongitudeDegrees>
            </Position>
            <AltitudeMeters>831.4000244140625</AltitudeMeters>
            <DistanceMeters>NAN</DistanceMeters>
          </Trackpoint>
          <Trackpoint>
            <Time>2019-08-01T10:38:29.000Z</Time>
            <Position>
              <LatitudeDegrees>40.55370605550706386566162109375</LatitudeDegrees>
              <LongitudeDegrees>-4.027842096984386444091796875</LongitudeDegrees>
            </Position>
            <AltitudeMeters>831.5999755859375</AltitudeMeters>
            <DistanceMeters>NAN</DistanceMeters>
          </Trackpoint>
          <Trackpoint>
            <Time>2019-08-01T10:38:30.000Z</Time>
            <Position>
              <LatitudeDegrees>40.55375651456415653228759765625</LatitudeDegrees>
              <LongitudeDegrees>-4.02779323048889636993408203125</LongitudeDegrees>
            </Position>
            <AltitudeMeters>831.79998779296875</AltitudeMeters>
            <DistanceMeters>NAN</DistanceMeters>
          </Trackpoint>
          <Trackpoint>
            <Time>2019-08-01T10:38:31.000Z</Time>
            <Position>
              <LatitudeDegrees>40.5538018606603145599365234375</LatitudeDegrees>
              <LongitudeDegrees>-4.02773581445217132568359375</LongitudeDegrees>
            </Position>
            <AltitudeMeters>832.20001220703125</AltitudeMeters>
            <DistanceMeters>NAN</DistanceMeters>
          </Trackpoint>
          <Trackpoint>
            <Time>2019-08-01T10:38:32.000Z</Time>
            <Position>
              <LatitudeDegrees>40.5538437701761722564697265625</LatitudeDegrees>
              <LongitudeDegrees>-4.0276709385216236114501953125</LongitudeDegrees>
            </Position>
            <AltitudeMeters>832.5999755859375</AltitudeMeters>
            <DistanceMeters>NAN</DistanceMeters>
          </Trackpoint>
          <Trackpoint>
            <Time>2019-08-01T10:38:33.000Z</Time>
            <Position>
              <LatitudeDegrees>40.55388157255947589874267578125</LatitudeDegrees>
              <LongitudeDegrees>-4.02759960852563381195068359375</LongitudeDegrees>
            </Position>
            <AltitudeMeters>833</AltitudeMeters>
            <DistanceMeters>NAN</DistanceMeters>
          </Trackpoint>
          <Trackpoint>
            <Time>2019-08-01T10:38:34.000Z</Time>
            <Position>
              <LatitudeDegrees>40.553916357457637786865234375</LatitudeDegrees>
              <LongitudeDegrees>-4.02752534486353397369384765625</LongitudeDegrees>
            </Position>
            <AltitudeMeters>833.4000244140625</AltitudeMeters>
            <DistanceMeters>NAN</DistanceMeters>
          </Trackpoint>
          <Trackpoint>
            <Time>2019-08-01T10:38:35.000Z</Time>
            <Position>
              <LatitudeDegrees>40.5539500527083873748779296875</LatitudeDegrees>
              <LongitudeDegrees>-4.02744923718273639678955078125</LongitudeDegrees>
            </Position>
            <AltitudeMeters>833.5999755859375</AltitudeMeters>
            <DistanceMeters>NAN</DistanceMeters>
          </Trackpoint>
          <Trackpoint>
            <Time>2019-08-01T10:38:36.000Z</Time>
            <Position>
              <LatitudeDegrees>40.5539835803210735321044921875</LatitudeDegrees>
              <LongitudeDegrees>-4.02737103402614593505859375</LongitudeDegrees>
            </Position>
            <AltitudeMeters>834</AltitudeMeters>
            <DistanceMeters>NAN</DistanceMeters>
          </Trackpoint>
          <Trackpoint>
            <Time>2019-08-01T10:38:37.000Z</Time>
            <Position>
              <LatitudeDegrees>40.55401752702891826629638671875</LatitudeDegrees>
              <LongitudeDegrees>-4.02729098685085773468017578125</LongitudeDegrees>
            </Position>
            <AltitudeMeters>834</AltitudeMeters>
            <DistanceMeters>NAN</DistanceMeters>
          </Trackpoint>
          <Trackpoint>
            <Time>2019-08-01T10:38:38.000Z</Time>
            <Position>
              <LatitudeDegrees>40.554050467908382415771484375</LatitudeDegrees>
              <LongitudeDegrees>-4.0272116102278232574462890625</LongitudeDegrees>
            </Position>
            <AltitudeMeters>834.20001220703125</AltitudeMeters>
            <DistanceMeters>NAN</DistanceMeters>
          </Trackpoint>
          <Trackpoint>
            <Time>2019-08-01T10:38:39.000Z</Time>
            <Position>
              <LatitudeDegrees>40.55408491753041744232177734375</LatitudeDegrees>
              <LongitudeDegrees>-4.02713240124285221099853515625</LongitudeDegrees>
            </Position>
            <AltitudeMeters>834.20001220703125</AltitudeMeters>
            <DistanceMeters>NAN</DistanceMeters>
          </Trackpoint>
          <Trackpoint>
            <Time>2019-08-01T10:38:41.000Z</Time>
            <Position>
              <LatitudeDegrees>40.55415549315512180328369140625</LatitudeDegrees>
              <LongitudeDegrees>-4.02697431854903697967529296875</LongitudeDegrees>
            </Position>
            <AltitudeMeters>834.20001220703125</AltitudeMeters>
            <DistanceMeters>NAN</DistanceMeters>
          </Trackpoint>
          <Trackpoint>
            <Time>2019-08-01T10:38:42.000Z</Time>
            <Position>
              <LatitudeDegrees>40.5541904456913471221923828125</LatitudeDegrees>
              <LongitudeDegrees>-4.02689418755471706390380859375</LongitudeDegrees>
            </Position>
            <AltitudeMeters>834.4000244140625</AltitudeMeters>
            <DistanceMeters>NAN</DistanceMeters>
          </Trackpoint>
          <Trackpoint>
            <Time>2019-08-01T10:38:43.000Z</Time>
            <Position>
              <LatitudeDegrees>40.554226152598857879638671875</LatitudeDegrees>
              <LongitudeDegrees>-4.0268122963607311248779296875</LongitudeDegrees>
            </Position>
            <AltitudeMeters>834.4000244140625</AltitudeMeters>
            <DistanceMeters>NAN</DistanceMeters>
          </Trackpoint>
          <Trackpoint>
            <Time>2019-08-01T10:38:44.000Z</Time>
            <Position>
              <LatitudeDegrees>40.5542640388011932373046875</LatitudeDegrees>
              <LongitudeDegrees>-4.02672956697642803192138671875</LongitudeDegrees>
            </Position>
            <AltitudeMeters>834.5999755859375</AltitudeMeters>
            <DistanceMeters>NAN</DistanceMeters>
          </Trackpoint>
          <Trackpoint>
            <Time>2019-08-01T10:38:45.000Z</Time>
            <Position>
              <LatitudeDegrees>40.55430351756513118743896484375</LatitudeDegrees>
              <LongitudeDegrees>-4.026643820106983184814453125</LongitudeDegrees>
            </Position>
            <AltitudeMeters>834.5999755859375</AltitudeMeters>
            <DistanceMeters>NAN</DistanceMeters>
          </Trackpoint>
          <Trackpoint>
            <Time>2019-08-01T10:38:46.000Z</Time>
            <Position>
              <LatitudeDegrees>40.55434442125260829925537109375</LatitudeDegrees>
              <LongitudeDegrees>-4.0265549719333648681640625</LongitudeDegrees>
            </Position>
            <AltitudeMeters>834.5999755859375</AltitudeMeters>
            <DistanceMeters>NAN</DistanceMeters>
          </Trackpoint>
          <Trackpoint>
            <Time>2019-08-01T10:38:47.000Z</Time>
            <Position>
              <LatitudeDegrees>40.55438498966395854949951171875</LatitudeDegrees>
              <LongitudeDegrees>-4.0264609269797801971435546875</LongitudeDegrees>
            </Position>
            <AltitudeMeters>834.4000244140625</AltitudeMeters>
            <DistanceMeters>NAN</DistanceMeters>
          </Trackpoint>
          <Trackpoint>
            <Time>2019-08-01T10:38:50.000Z</Time>
            <Position>
              <LatitudeDegrees>40.5545193515717983245849609375</LatitudeDegrees>
              <LongitudeDegrees>-4.02615155093371868133544921875</LongitudeDegrees>
            </Position>
            <AltitudeMeters>834.20001220703125</AltitudeMeters>
            <DistanceMeters>NAN</DistanceMeters>
          </Trackpoint>
          <Trackpoint>
            <Time>2019-08-01T10:38:52.000Z</Time>
            <Position>
              <LatitudeDegrees>40.55461716838181018829345703125</LatitudeDegrees>
              <LongitudeDegrees>-4.02592800557613372802734375</LongitudeDegrees>
            </Position>
            <AltitudeMeters>834</AltitudeMeters>
            <DistanceMeters>NAN</DistanceMeters>
          </Trackpoint>
          <Trackpoint>
            <Time>2019-08-01T10:38:53.000Z</Time>
            <Position>
              <LatitudeDegrees>40.5546685494482517242431640625</LatitudeDegrees>
              <LongitudeDegrees>-4.025813005864620208740234375</LongitudeDegrees>
            </Position>
            <AltitudeMeters>834</AltitudeMeters>
            <DistanceMeters>NAN</DistanceMeters>
          </Trackpoint>
          <Trackpoint>
            <Time>2019-08-01T10:38:54.000Z</Time>
            <Position>
              <LatitudeDegrees>40.55472202599048614501953125</LatitudeDegrees>
              <LongitudeDegrees>-4.02569465339183807373046875</LongitudeDegrees>
            </Position>
            <AltitudeMeters>834</AltitudeMeters>
            <DistanceMeters>NAN</DistanceMeters>
          </Trackpoint>
          <Trackpoint>
            <Time>2019-08-01T10:38:55.000Z</Time>
            <Position>
              <LatitudeDegrees>40.55477701127529144287109375</LatitudeDegrees>
              <LongitudeDegrees>-4.02557403780519962310791015625</LongitudeDegrees>
            </Position>
            <AltitudeMeters>833.5999755859375</AltitudeMeters>
            <DistanceMeters>NAN</DistanceMeters>
          </Trackpoint>
          <Trackpoint>
            <Time>2019-08-01T10:38:56.000Z</Time>
            <Position>
              <LatitudeDegrees>40.55483375675976276397705078125</LatitudeDegrees>
              <LongitudeDegrees>-4.02545350603759288787841796875</LongitudeDegrees>
            </Position>
            <AltitudeMeters>833</AltitudeMeters>
            <DistanceMeters>NAN</DistanceMeters>
          </Trackpoint>
          <Trackpoint>
            <Time>2019-08-01T10:38:57.000Z</Time>
            <Position>
              <LatitudeDegrees>40.554894022643566131591796875</LatitudeDegrees>
              <LongitudeDegrees>-4.02533632703125476837158203125</LongitudeDegrees>
            </Position>
            <AltitudeMeters>832.20001220703125</AltitudeMeters>
            <DistanceMeters>NAN</DistanceMeters>
          </Trackpoint>
          <Trackpoint>
            <Time>2019-08-01T10:38:58.000Z</Time>
            <Position>
              <LatitudeDegrees>40.55496283806860446929931640625</LatitudeDegrees>
              <LongitudeDegrees>-4.0252271108329296112060546875</LongitudeDegrees>
            </Position>
            <AltitudeMeters>831.20001220703125</AltitudeMeters>
            <DistanceMeters>NAN</DistanceMeters>
          </Trackpoint>
          <Trackpoint>
            <Time>2019-08-01T10:38:59.000Z</Time>
            <Position>
              <LatitudeDegrees>40.55504581891000270843505859375</LatitudeDegrees>
              <LongitudeDegrees>-4.02512879110872745513916015625</LongitudeDegrees>
            </Position>
            <AltitudeMeters>830.20001220703125</AltitudeMeters>
            <DistanceMeters>NAN</DistanceMeters>
          </Trackpoint>
          <Trackpoint>
            <Time>2019-08-01T10:39:00.000Z</Time>
            <Position>
              <LatitudeDegrees>40.5551325716078281402587890625</LatitudeDegrees>
              <LongitudeDegrees>-4.0250443853437900543212890625</LongitudeDegrees>
            </Position>
            <AltitudeMeters>829.4000244140625</AltitudeMeters>
            <DistanceMeters>NAN</DistanceMeters>
          </Trackpoint>
          <Trackpoint>
            <Time>2019-08-01T10:39:01.000Z</Time>
            <Position>
              <LatitudeDegrees>40.5552210845053195953369140625</LatitudeDegrees>
              <LongitudeDegrees>-4.024969451129436492919921875</LongitudeDegrees>
            </Position>
            <AltitudeMeters>828.79998779296875</AltitudeMeters>
            <DistanceMeters>NAN</DistanceMeters>
          </Trackpoint>
          <Trackpoint>
            <Time>2019-08-01T10:39:02.000Z</Time>
            <Position>
              <LatitudeDegrees>40.55530942976474761962890625</LatitudeDegrees>
              <LongitudeDegrees>-4.02490063570439815521240234375</LongitudeDegrees>
            </Position>
            <AltitudeMeters>828.20001220703125</AltitudeMeters>
            <DistanceMeters>NAN</DistanceMeters>
          </Trackpoint>
          <Trackpoint>
            <Time>2019-08-01T10:39:03.000Z</Time>
            <Position>
              <LatitudeDegrees>40.5553977750241756439208984375</LatitudeDegrees>
              <LongitudeDegrees>-4.02483659796416759490966796875</LongitudeDegrees>
            </Position>
            <AltitudeMeters>827.5999755859375</AltitudeMeters>
            <DistanceMeters>NAN</DistanceMeters>
          </Trackpoint>
          <Trackpoint>
            <Time>2019-08-01T10:39:04.000Z</Time>
            <Position>
              <LatitudeDegrees>40.5554832704365253448486328125</LatitudeDegrees>
              <LongitudeDegrees>-4.0247748233377933502197265625</LongitudeDegrees>
            </Position>
            <AltitudeMeters>827</AltitudeMeters>
            <DistanceMeters>NAN</DistanceMeters>
          </Trackpoint>
          <Trackpoint>
            <Time>2019-08-01T10:39:05.000Z</Time>
            <Position>
              <LatitudeDegrees>40.5555644072592258453369140625</LatitudeDegrees>
              <LongitudeDegrees>-4.02471564710140228271484375</LongitudeDegrees>
            </Position>
            <AltitudeMeters>826.79998779296875</AltitudeMeters>
            <DistanceMeters>NAN</DistanceMeters>
          </Trackpoint>
          <Trackpoint>
            <Time>2019-08-01T10:39:06.000Z</Time>
            <Position>
              <LatitudeDegrees>40.555644370615482330322265625</LatitudeDegrees>
              <LongitudeDegrees>-4.02465756051242351531982421875</LongitudeDegrees>
            </Position>
            <AltitudeMeters>826.4000244140625</AltitudeMeters>
            <DistanceMeters>NAN</DistanceMeters>
          </Trackpoint>
          <Trackpoint>
            <Time>2019-08-01T10:39:07.000Z</Time>
            <Position>
              <LatitudeDegrees>40.55572374723851680755615234375</LatitudeDegrees>
              <LongitudeDegrees>-4.02459637261927127838134765625</LongitudeDegrees>
            </Position>
            <AltitudeMeters>825.79998779296875</AltitudeMeters>
            <DistanceMeters>NAN</DistanceMeters>
          </Trackpoint>
          <Trackpoint>
            <Time>2019-08-01T10:39:08.000Z</Time>
            <Position>
              <LatitudeDegrees>40.55579884909093379974365234375</LatitudeDegrees>
              <LongitudeDegrees>-4.02453065849840641021728515625</LongitudeDegrees>
            </Position>
            <AltitudeMeters>825.5999755859375</AltitudeMeters>
            <DistanceMeters>NAN</DistanceMeters>
          </Trackpoint>
          <Trackpoint>
            <Time>2019-08-01T10:39:09.000Z</Time>
            <Position>
              <LatitudeDegrees>40.55587076582014560699462890625</LatitudeDegrees>
              <LongitudeDegrees>-4.02446293272078037261962890625</LongitudeDegrees>
            </Position>
            <AltitudeMeters>825.4000244140625</AltitudeMeters>
            <DistanceMeters>NAN</DistanceMeters>
          </Trackpoint>
          <Trackpoint>
            <Time>2019-08-01T10:39:10.000Z</Time>
            <Position>
              <LatitudeDegrees>40.55593748576939105987548828125</LatitudeDegrees>
              <LongitudeDegrees>-4.02439168654382228851318359375</LongitudeDegrees>
            </Position>
            <AltitudeMeters>825.20001220703125</AltitudeMeters>
            <DistanceMeters>NAN</DistanceMeters>
          </Trackpoint>
          <Trackpoint>
            <Time>2019-08-01T10:39:11.000Z</Time>
            <Position>
              <LatitudeDegrees>40.55599875748157501220703125</LatitudeDegrees>
              <LongitudeDegrees>-4.02431272901594638824462890625</LongitudeDegrees>
            </Position>
            <AltitudeMeters>825.20001220703125</AltitudeMeters>
            <DistanceMeters>NAN</DistanceMeters>
          </Trackpoint>
          <Trackpoint>
            <Time>2019-08-01T10:39:12.000Z</Time>
            <Position>
              <LatitudeDegrees>40.556039996445178985595703125</LatitudeDegrees>
              <LongitudeDegrees>-4.02423276565968990325927734375</LongitudeDegrees>
            </Position>
            <AltitudeMeters>825.20001220703125</AltitudeMeters>
            <DistanceMeters>NAN</DistanceMeters>
          </Trackpoint>
          <Trackpoint>
            <Time>2019-08-01T10:39:13.000Z</Time>
            <Position>
              <LatitudeDegrees>40.55608500726521015167236328125</LatitudeDegrees>
              <LongitudeDegrees>-4.0241525508463382720947265625</LongitudeDegrees>
            </Position>
            <AltitudeMeters>825.20001220703125</AltitudeMeters>
            <DistanceMeters>NAN</DistanceMeters>
          </Trackpoint>
          <Trackpoint>
            <Time>2019-08-01T10:39:14.000Z</Time>
            <Position>
              <LatitudeDegrees>40.55608500726521015167236328125</LatitudeDegrees>
              <LongitudeDegrees>-4.0241525508463382720947265625</LongitudeDegrees>
            </Position>
            <AltitudeMeters>825.20001220703125</AltitudeMeters>
            <DistanceMeters>NAN</DistanceMeters>
          </Trackpoint>
          <Trackpoint>
            <Time>2019-08-01T10:39:15.000Z</Time>
            <Position>
              <LatitudeDegrees>40.5561860091984272003173828125</LatitudeDegrees>
              <LongitudeDegrees>-4.0239976532757282257080078125</LongitudeDegrees>
            </Position>
            <AltitudeMeters>825.20001220703125</AltitudeMeters>
            <DistanceMeters>NAN</DistanceMeters>
          </Trackpoint>
          <Trackpoint>
            <Time>2019-08-01T10:39:16.000Z</Time>
            <Position>
              <LatitudeDegrees>40.556226409971714019775390625</LatitudeDegrees>
              <LongitudeDegrees>-4.023931436240673065185546875</LongitudeDegrees>
            </Position>
            <AltitudeMeters>825.20001220703125</AltitudeMeters>
            <DistanceMeters>NAN</DistanceMeters>
          </Trackpoint>
          <Trackpoint>
            <Time>2019-08-01T10:39:17.000Z</Time>
            <Position>
              <LatitudeDegrees>40.556266307830810546875</LatitudeDegrees>
              <LongitudeDegrees>-4.02386664412915706634521484375</LongitudeDegrees>
            </Position>
            <AltitudeMeters>825.20001220703125</AltitudeMeters>
            <DistanceMeters>NAN</DistanceMeters>
          </Trackpoint>
          <Trackpoint>
            <Time>2019-08-01T10:39:18.000Z</Time>
            <Position>
              <LatitudeDegrees>40.55630360729992389678955078125</LatitudeDegrees>
              <LongitudeDegrees>-4.02380512095987796783447265625</LongitudeDegrees>
            </Position>
            <AltitudeMeters>825.4000244140625</AltitudeMeters>
            <DistanceMeters>NAN</DistanceMeters>
          </Trackpoint>
          <Trackpoint>
            <Time>2019-08-01T10:39:19.000Z</Time>
            <Position>
              <LatitudeDegrees>40.5563388951122760772705078125</LatitudeDegrees>
              <LongitudeDegrees>-4.02374829165637493133544921875</LongitudeDegrees>
            </Position>
            <AltitudeMeters>825.5999755859375</AltitudeMeters>
            <DistanceMeters>NAN</DistanceMeters>
          </Trackpoint>
          <Trackpoint>
            <Time>2019-08-01T10:39:20.000Z</Time>
            <Position>
              <LatitudeDegrees>40.556370578706264495849609375</LatitudeDegrees>
              <LongitudeDegrees>-4.0236962400376796722412109375</LongitudeDegrees>
            </Position>
            <AltitudeMeters>825.79998779296875</AltitudeMeters>
            <DistanceMeters>NAN</DistanceMeters>
          </Trackpoint>
          <Trackpoint>
            <Time>2019-08-01T10:39:21.000Z</Time>
            <Position>
              <LatitudeDegrees>40.55640134029090404510498046875</LatitudeDegrees>
              <LongitudeDegrees>-4.023645780980587005615234375</LongitudeDegrees>
            </Position>
            <AltitudeMeters>826.4000244140625</AltitudeMeters>
            <DistanceMeters>NAN</DistanceMeters>
          </Trackpoint>
          <Trackpoint>
            <Time>2019-08-01T10:39:22.000Z</Time>
            <Position>
              <LatitudeDegrees>40.556428916752338409423828125</LatitudeDegrees>
              <LongitudeDegrees>-4.0235964953899383544921875</LongitudeDegrees>
            </Position>
            <AltitudeMeters>826.79998779296875</AltitudeMeters>
            <DistanceMeters>NAN</DistanceMeters>
          </Trackpoint>
          <Trackpoint>
            <Time>2019-08-01T10:39:23.000Z</Time>
            <Position>
              <LatitudeDegrees>40.556452386081218719482421875</LatitudeDegrees>
              <LongitudeDegrees>-4.0235482156276702880859375</LongitudeDegrees>
            </Position>
            <AltitudeMeters>827.20001220703125</AltitudeMeters>
            <DistanceMeters>NAN</DistanceMeters>
          </Trackpoint>
          <Trackpoint>
            <Time>2019-08-01T10:39:24.000Z</Time>
            <Position>
              <LatitudeDegrees>40.556471161544322967529296875</LatitudeDegrees>
              <LongitudeDegrees>-4.02349784038960933685302734375</LongitudeDegrees>
            </Position>
            <AltitudeMeters>828</AltitudeMeters>
            <DistanceMeters>NAN</DistanceMeters>
          </Trackpoint>
          <Trackpoint>
            <Time>2019-08-01T10:39:25.000Z</Time>
            <Position>
              <LatitudeDegrees>40.55648582987487316131591796875</LatitudeDegrees>
              <LongitudeDegrees>-4.023445956408977508544921875</LongitudeDegrees>
            </Position>
            <AltitudeMeters>828.4000244140625</AltitudeMeters>
            <DistanceMeters>NAN</DistanceMeters>
          </Trackpoint>
          <Trackpoint>
            <Time>2019-08-01T10:39:26.000Z</Time>
            <Position>
              <LatitudeDegrees>40.5564934574067592620849609375</LatitudeDegrees>
              <LongitudeDegrees>-4.02339256368577480316162109375</LongitudeDegrees>
            </Position>
            <AltitudeMeters>829.20001220703125</AltitudeMeters>
            <DistanceMeters>NAN</DistanceMeters>
          </Trackpoint>
          <Trackpoint>
            <Time>2019-08-01T10:39:27.000Z</Time>
            <Position>
              <LatitudeDegrees>40.556489266455173492431640625</LatitudeDegrees>
              <LongitudeDegrees>-4.02333975769579410552978515625</LongitudeDegrees>
            </Position>
            <AltitudeMeters>829.79998779296875</AltitudeMeters>
            <DistanceMeters>NAN</DistanceMeters>
          </Trackpoint>
          <Trackpoint>
            <Time>2019-08-01T10:39:28.000Z</Time>
            <Position>
              <LatitudeDegrees>40.5564756877720355987548828125</LatitudeDegrees>
              <LongitudeDegrees>-4.02328846044838428497314453125</LongitudeDegrees>
            </Position>
            <AltitudeMeters>830.4000244140625</AltitudeMeters>
            <DistanceMeters>NAN</DistanceMeters>
          </Trackpoint>
          <Trackpoint>
            <Time>2019-08-01T10:39:29.000Z</Time>
            <Position>
              <LatitudeDegrees>40.55646236054599285125732421875</LatitudeDegrees>
              <LongitudeDegrees>-4.023234732449054718017578125</LongitudeDegrees>
            </Position>
            <AltitudeMeters>831</AltitudeMeters>
            <DistanceMeters>NAN</DistanceMeters>
          </Trackpoint>
          <Trackpoint>
            <Time>2019-08-01T10:39:30.000Z</Time>
            <Position>
              <LatitudeDegrees>40.556457079946994781494140625</LatitudeDegrees>
              <LongitudeDegrees>-4.02317731641232967376708984375</LongitudeDegrees>
            </Position>
            <AltitudeMeters>831.5999755859375</AltitudeMeters>
            <DistanceMeters>NAN</DistanceMeters>
          </Trackpoint>
          <Trackpoint>
            <Time>2019-08-01T10:39:31.000Z</Time>
            <Position>
              <LatitudeDegrees>40.55646470747888088226318359375</LatitudeDegrees>
              <LongitudeDegrees>-4.02312082238495349884033203125</LongitudeDegrees>
            </Position>
            <AltitudeMeters>832</AltitudeMeters>
            <DistanceMeters>NAN</DistanceMeters>
          </Trackpoint>
          <Trackpoint>
            <Time>2019-08-01T10:39:32.000Z</Time>
            <Position>
              <LatitudeDegrees>40.5564849078655242919921875</LatitudeDegrees>
              <LongitudeDegrees>-4.023070447146892547607421875</LongitudeDegrees>
            </Position>
            <AltitudeMeters>832.20001220703125</AltitudeMeters>
            <DistanceMeters>NAN</DistanceMeters>
          </Trackpoint>
          <Trackpoint>
            <Time>2019-08-01T10:39:33.000Z</Time>
            <Position>
              <LatitudeDegrees>40.5565165914595127105712890625</LatitudeDegrees>
              <LongitudeDegrees>-4.0230297110974788665771484375</LongitudeDegrees>
            </Position>
            <AltitudeMeters>832.5999755859375</AltitudeMeters>
            <DistanceMeters>NAN</DistanceMeters>
          </Trackpoint>
          <Trackpoint>
            <Time>2019-08-01T10:39:34.000Z</Time>
            <Position>
              <LatitudeDegrees>40.5565559864044189453125</LatitudeDegrees>
              <LongitudeDegrees>-4.0230032242834568023681640625</LongitudeDegrees>
            </Position>
            <AltitudeMeters>833</AltitudeMeters>
            <DistanceMeters>NAN</DistanceMeters>
          </Trackpoint>
          <Trackpoint>
            <Time>2019-08-01T10:39:35.000Z</Time>
            <Position>
              <LatitudeDegrees>40.5566014163196086883544921875</LatitudeDegrees>
              <LongitudeDegrees>-4.02299542911350727081298828125</LongitudeDegrees>
            </Position>
            <AltitudeMeters>833.20001220703125</AltitudeMeters>
            <DistanceMeters>NAN</DistanceMeters>
          </Trackpoint>
          <Trackpoint>
            <Time>2019-08-01T10:39:36.000Z</Time>
            <Position>
              <LatitudeDegrees>40.5566485226154327392578125</LatitudeDegrees>
              <LongitudeDegrees>-4.02300012297928333282470703125</LongitudeDegrees>
            </Position>
            <AltitudeMeters>833.5999755859375</AltitudeMeters>
            <DistanceMeters>NAN</DistanceMeters>
          </Trackpoint>
          <Trackpoint>
            <Time>2019-08-01T10:39:37.000Z</Time>
            <Position>
              <LatitudeDegrees>40.55669470690190792083740234375</LatitudeDegrees>
              <LongitudeDegrees>-4.02301386930048465728759765625</LongitudeDegrees>
            </Position>
            <AltitudeMeters>833.79998779296875</AltitudeMeters>
            <DistanceMeters>NAN</DistanceMeters>
          </Trackpoint>
          <Trackpoint>
            <Time>2019-08-01T10:39:38.000Z</Time>
            <Position>
              <LatitudeDegrees>40.5567398853600025177001953125</LatitudeDegrees>
              <LongitudeDegrees>-4.0230310522019863128662109375</LongitudeDegrees>
            </Position>
            <AltitudeMeters>833.79998779296875</AltitudeMeters>
            <DistanceMeters>NAN</DistanceMeters>
          </Trackpoint>
          <Trackpoint>
            <Time>2019-08-01T10:39:39.000Z</Time>
            <Position>
              <LatitudeDegrees>40.5567398853600025177001953125</LatitudeDegrees>
              <LongitudeDegrees>-4.0230310522019863128662109375</LongitudeDegrees>
            </Position>
            <AltitudeMeters>834</AltitudeMeters>
            <DistanceMeters>NAN</DistanceMeters>
          </Trackpoint>
          <Trackpoint>
            <Time>2019-08-01T10:39:40.000Z</Time>
            <Position>
              <LatitudeDegrees>40.5568294040858745574951171875</LatitudeDegrees>
              <LongitudeDegrees>-4.0230551920831203460693359375</LongitudeDegrees>
            </Position>
            <AltitudeMeters>834</AltitudeMeters>
            <DistanceMeters>NAN</DistanceMeters>
          </Trackpoint>
          <Trackpoint>
            <Time>2019-08-01T10:39:41.000Z</Time>
            <Position>
              <LatitudeDegrees>40.55687072686851024627685546875</LatitudeDegrees>
              <LongitudeDegrees>-4.02305175550282001495361328125</LongitudeDegrees>
            </Position>
            <AltitudeMeters>834</AltitudeMeters>
            <DistanceMeters>NAN</DistanceMeters>
          </Trackpoint>
          <Trackpoint>
            <Time>2019-08-01T10:39:42.000Z</Time>
            <Position>
              <LatitudeDegrees>40.556910373270511627197265625</LatitudeDegrees>
              <LongitudeDegrees>-4.02304471470415592193603515625</LongitudeDegrees>
            </Position>
            <AltitudeMeters>834.4000244140625</AltitudeMeters>
            <DistanceMeters>NAN</DistanceMeters>
          </Trackpoint>
          <Trackpoint>
            <Time>2019-08-01T10:39:43.000Z</Time>
            <Position>
              <LatitudeDegrees>40.55694767273962497711181640625</LatitudeDegrees>
              <LongitudeDegrees>-4.0230350755155086517333984375</LongitudeDegrees>
            </Position>
            <AltitudeMeters>834.4000244140625</AltitudeMeters>
            <DistanceMeters>NAN</DistanceMeters>
          </Trackpoint>
          <Trackpoint>
            <Time>2019-08-01T10:39:44.000Z</Time>
            <Position>
              <LatitudeDegrees>40.55698337964713573455810546875</LatitudeDegrees>
              <LongitudeDegrees>-4.0230219997465610504150390625</LongitudeDegrees>
            </Position>
            <AltitudeMeters>834.5999755859375</AltitudeMeters>
            <DistanceMeters>NAN</DistanceMeters>
          </Trackpoint>
          <Trackpoint>
            <Time>2019-08-01T10:39:45.000Z</Time>
            <Position>
              <LatitudeDegrees>40.5570178292691707611083984375</LatitudeDegrees>
              <LongitudeDegrees>-4.02300800196826457977294921875</LongitudeDegrees>
            </Position>
            <AltitudeMeters>834.5999755859375</AltitudeMeters>
            <DistanceMeters>NAN</DistanceMeters>
          </Trackpoint>
          <Trackpoint>
            <Time>2019-08-01T10:39:46.000Z</Time>
            <Position>
              <LatitudeDegrees>40.557051859796047210693359375</LatitudeDegrees>
              <LongitudeDegrees>-4.02299442328512668609619140625</LongitudeDegrees>
            </Position>
            <AltitudeMeters>834.79998779296875</AltitudeMeters>
            <DistanceMeters>NAN</DistanceMeters>
          </Trackpoint>
          <Trackpoint>
            <Time>2019-08-01T10:39:47.000Z</Time>
            <Position>
              <LatitudeDegrees>40.5570838786661624908447265625</LatitudeDegrees>
              <LongitudeDegrees>-4.0229810960590839385986328125</LongitudeDegrees>
            </Position>
            <AltitudeMeters>835</AltitudeMeters>
            <DistanceMeters>NAN</DistanceMeters>
          </Trackpoint>
          <Trackpoint>
            <Time>2019-08-01T10:39:48.000Z</Time>
            <Position>
              <LatitudeDegrees>40.557114891707897186279296875</LatitudeDegrees>
              <LongitudeDegrees>-4.02296642772853374481201171875</LongitudeDegrees>
            </Position>
            <AltitudeMeters>835.5999755859375</AltitudeMeters>
            <DistanceMeters>NAN</DistanceMeters>
          </Trackpoint>
          <Trackpoint>
            <Time>2019-08-01T10:39:49.000Z</Time>
            <Position>
              <LatitudeDegrees>40.5571452341973781585693359375</LatitudeDegrees>
              <LongitudeDegrees>-4.02295234613120555877685546875</LongitudeDegrees>
            </Position>
            <AltitudeMeters>835.79998779296875</AltitudeMeters>
            <DistanceMeters>NAN</DistanceMeters>
          </Trackpoint>
          <Trackpoint>
            <Time>2019-08-01T10:39:50.000Z</Time>
            <Position>
              <LatitudeDegrees>40.5571747384965419769287109375</LatitudeDegrees>
              <LongitudeDegrees>-4.022939689457416534423828125</LongitudeDegrees>
            </Position>
            <AltitudeMeters>836.20001220703125</AltitudeMeters>
            <DistanceMeters>NAN</DistanceMeters>
          </Trackpoint>
          <Trackpoint>
            <Time>2019-08-01T10:39:51.000Z</Time>
            <Position>
              <LatitudeDegrees>40.55720499716699123382568359375</LatitudeDegrees>
              <LongitudeDegrees>-4.022927619516849517822265625</LongitudeDegrees>
            </Position>
            <AltitudeMeters>836.5999755859375</AltitudeMeters>
            <DistanceMeters>NAN</DistanceMeters>
          </Trackpoint>
          <Trackpoint>
            <Time>2019-08-01T10:39:52.000Z</Time>
            <Position>
              <LatitudeDegrees>40.55723584257066249847412109375</LatitudeDegrees>
              <LongitudeDegrees>-4.0229147113859653472900390625</LongitudeDegrees>
            </Position>
            <AltitudeMeters>837</AltitudeMeters>
            <DistanceMeters>NAN</DistanceMeters>
          </Trackpoint>
          <Trackpoint>
            <Time>2019-08-01T10:39:53.000Z</Time>
            <Position>
              <LatitudeDegrees>40.55726618506014347076416015625</LatitudeDegrees>
              <LongitudeDegrees>-4.02290255762636661529541015625</LongitudeDegrees>
            </Position>
            <AltitudeMeters>837.20001220703125</AltitudeMeters>
            <DistanceMeters>NAN</DistanceMeters>
          </Trackpoint>
          <Trackpoint>
            <Time>2019-08-01T10:39:54.000Z</Time>
            <Position>
              <LatitudeDegrees>40.5572967790067195892333984375</LatitudeDegrees>
              <LongitudeDegrees>-4.02289099059998989105224609375</LongitudeDegrees>
            </Position>
            <AltitudeMeters>837.4000244140625</AltitudeMeters>
            <DistanceMeters>NAN</DistanceMeters>
          </Trackpoint>
          <Trackpoint>
            <Time>2019-08-01T10:39:55.000Z</Time>
            <Position>
              <LatitudeDegrees>40.5573299713432788848876953125</LatitudeDegrees>
              <LongitudeDegrees>-4.02287741191685199737548828125</LongitudeDegrees>
            </Position>
            <AltitudeMeters>837.5999755859375</AltitudeMeters>
            <DistanceMeters>NAN</DistanceMeters>
          </Trackpoint>
          <Trackpoint>
            <Time>2019-08-01T10:39:56.000Z</Time>
            <Position>
              <LatitudeDegrees>40.5573611520230770111083984375</LatitudeDegrees>
              <LongitudeDegrees>-4.022865593433380126953125</LongitudeDegrees>
            </Position>
            <AltitudeMeters>838</AltitudeMeters>
            <DistanceMeters>NAN</DistanceMeters>
          </Trackpoint>
          <Trackpoint>
            <Time>2019-08-01T10:39:57.000Z</Time>
            <Position>
              <LatitudeDegrees>40.55739241652190685272216796875</LatitudeDegrees>
              <LongitudeDegrees>-4.0228520147502422332763671875</LongitudeDegrees>
            </Position>
            <AltitudeMeters>838.4000244140625</AltitudeMeters>
            <DistanceMeters>NAN</DistanceMeters>
          </Trackpoint>
          <Trackpoint>
            <Time>2019-08-01T10:39:58.000Z</Time>
            <Position>
              <LatitudeDegrees>40.55742410011589527130126953125</LatitudeDegrees>
              <LongitudeDegrees>-4.02283634059131145477294921875</LongitudeDegrees>
            </Position>
            <AltitudeMeters>838.79998779296875</AltitudeMeters>
            <DistanceMeters>NAN</DistanceMeters>
          </Trackpoint>
          <Trackpoint>
            <Time>2019-08-01T10:39:59.000Z</Time>
            <Position>
              <LatitudeDegrees>40.55745578370988368988037109375</LatitudeDegrees>
              <LongitudeDegrees>-4.02282242663204669952392578125</LongitudeDegrees>
            </Position>
            <AltitudeMeters>839</AltitudeMeters>
            <DistanceMeters>NAN</DistanceMeters>
          </Trackpoint>
          <Trackpoint>
            <Time>2019-08-01T10:40:00.000Z</Time>
            <Position>
              <LatitudeDegrees>40.55748763494193553924560546875</LatitudeDegrees>
              <LongitudeDegrees>-4.02280935086309909820556640625</LongitudeDegrees>
            </Position>
            <AltitudeMeters>839.4000244140625</AltitudeMeters>
            <DistanceMeters>NAN</DistanceMeters>
          </Trackpoint>
          <Trackpoint>
            <Time>2019-08-01T10:40:01.000Z</Time>
            <Position>
              <LatitudeDegrees>40.55751915089786052703857421875</LatitudeDegrees>
              <LongitudeDegrees>-4.0227960236370563507080078125</LongitudeDegrees>
            </Position>
            <AltitudeMeters>839.5999755859375</AltitudeMeters>
            <DistanceMeters>NAN</DistanceMeters>
          </Trackpoint>
          <Trackpoint>
            <Time>2019-08-01T10:40:02.000Z</Time>
            <Position>
              <LatitudeDegrees>40.557551085948944091796875</LatitudeDegrees>
              <LongitudeDegrees>-4.0227816067636013031005859375</LongitudeDegrees>
            </Position>
            <AltitudeMeters>839.79998779296875</AltitudeMeters>
            <DistanceMeters>NAN</DistanceMeters>
          </Trackpoint>
          <Trackpoint>
            <Time>2019-08-01T10:40:03.000Z</Time>
            <Position>
              <LatitudeDegrees>40.55758184753358364105224609375</LatitudeDegrees>
              <LongitudeDegrees>-4.02276626788079738616943359375</LongitudeDegrees>
            </Position>
            <AltitudeMeters>839.79998779296875</AltitudeMeters>
            <DistanceMeters>NAN</DistanceMeters>
          </Trackpoint>
          <Trackpoint>
            <Time>2019-08-01T10:40:04.000Z</Time>
            <Position>
              <LatitudeDegrees>40.5576119385659694671630859375</LatitudeDegrees>
              <LongitudeDegrees>-4.0227521024644374847412109375</LongitudeDegrees>
            </Position>
            <AltitudeMeters>840.20001220703125</AltitudeMeters>
            <DistanceMeters>NAN</DistanceMeters>
          </Trackpoint>
          <Trackpoint>
            <Time>2019-08-01T10:40:05.000Z</Time>
            <Position>
              <LatitudeDegrees>40.55764253251254558563232421875</LatitudeDegrees>
              <LongitudeDegrees>-4.0227376855909824371337890625</LongitudeDegrees>
            </Position>
            <AltitudeMeters>840.4000244140625</AltitudeMeters>
            <DistanceMeters>NAN</DistanceMeters>
          </Trackpoint>
          <Trackpoint>
            <Time>2019-08-01T10:40:06.000Z</Time>
            <Position>
              <LatitudeDegrees>40.55767270736396312713623046875</LatitudeDegrees>
              <LongitudeDegrees>-4.0227222628891468048095703125</LongitudeDegrees>
            </Position>
            <AltitudeMeters>840.4000244140625</AltitudeMeters>
            <DistanceMeters>NAN</DistanceMeters>
          </Trackpoint>
          <Trackpoint>
            <Time>2019-08-01T10:40:07.000Z</Time>
            <Position>
              <LatitudeDegrees>40.55770338512957096099853515625</LatitudeDegrees>
              <LongitudeDegrees>-4.02270776219666004180908203125</LongitudeDegrees>
            </Position>
            <AltitudeMeters>840.5999755859375</AltitudeMeters>
            <DistanceMeters>NAN</DistanceMeters>
          </Trackpoint>
          <Trackpoint>
            <Time>2019-08-01T10:40:08.000Z</Time>
            <Position>
              <LatitudeDegrees>40.55773490108549594879150390625</LatitudeDegrees>
              <LongitudeDegrees>-4.0226937644183635711669921875</LongitudeDegrees>
            </Position>
            <AltitudeMeters>841</AltitudeMeters>
            <DistanceMeters>NAN</DistanceMeters>
          </Trackpoint>
          <Trackpoint>
            <Time>2019-08-01T10:40:09.000Z</Time>
            <Position>
              <LatitudeDegrees>40.55776658467948436737060546875</LatitudeDegrees>
              <LongitudeDegrees>-4.02267909608781337738037109375</LongitudeDegrees>
            </Position>
            <AltitudeMeters>841.20001220703125</AltitudeMeters>
            <DistanceMeters>NAN</DistanceMeters>
          </Trackpoint>
          <Trackpoint>
            <Time>2019-08-01T10:40:10.000Z</Time>
            <Position>
              <LatitudeDegrees>40.5577983520925045013427734375</LatitudeDegrees>
              <LongitudeDegrees>-4.02266442775726318359375</LongitudeDegrees>
            </Position>
            <AltitudeMeters>841.4000244140625</AltitudeMeters>
            <DistanceMeters>NAN</DistanceMeters>
          </Trackpoint>
          <Trackpoint>
            <Time>2019-08-01T10:40:11.000Z</Time>
            <Position>
              <LatitudeDegrees>40.55783028714358806610107421875</LatitudeDegrees>
              <LongitudeDegrees>-4.02265009470283985137939453125</LongitudeDegrees>
            </Position>
            <AltitudeMeters>842.20001220703125</AltitudeMeters>
            <DistanceMeters>NAN</DistanceMeters>
          </Trackpoint>
          <Trackpoint>
            <Time>2019-08-01T10:40:12.000Z</Time>
            <Position>
              <LatitudeDegrees>40.55786264128983020782470703125</LatitudeDegrees>
              <LongitudeDegrees>-4.02263584546744823455810546875</LongitudeDegrees>
            </Position>
            <AltitudeMeters>842.5999755859375</AltitudeMeters>
            <DistanceMeters>NAN</DistanceMeters>
          </Trackpoint>
          <Trackpoint>
            <Time>2019-08-01T10:40:13.000Z</Time>
            <Position>
              <LatitudeDegrees>40.5578949116170406341552734375</LatitudeDegrees>
              <LongitudeDegrees>-4.022621177136898040771484375</LongitudeDegrees>
            </Position>
            <AltitudeMeters>842.79998779296875</AltitudeMeters>
            <DistanceMeters>NAN</DistanceMeters>
          </Trackpoint>
          <Trackpoint>
            <Time>2019-08-01T10:40:14.000Z</Time>
            <Position>
              <LatitudeDegrees>40.5579264275729656219482421875</LatitudeDegrees>
              <LongitudeDegrees>-4.022608101367950439453125</LongitudeDegrees>
            </Position>
            <AltitudeMeters>843</AltitudeMeters>
            <DistanceMeters>NAN</DistanceMeters>
          </Trackpoint>
          <Trackpoint>
            <Time>2019-08-01T10:40:15.000Z</Time>
            <Position>
              <LatitudeDegrees>40.5579264275729656219482421875</LatitudeDegrees>
              <LongitudeDegrees>-4.022608101367950439453125</LongitudeDegrees>
            </Position>
            <AltitudeMeters>843</AltitudeMeters>
            <DistanceMeters>NAN</DistanceMeters>
          </Trackpoint>
          <Trackpoint>
            <Time>2019-08-01T10:40:16.000Z</Time>
            <Position>
              <LatitudeDegrees>40.5579908005893230438232421875</LatitudeDegrees>
              <LongitudeDegrees>-4.02257633395493030548095703125</LongitudeDegrees>
            </Position>
            <AltitudeMeters>843.4000244140625</AltitudeMeters>
            <DistanceMeters>NAN</DistanceMeters>
          </Trackpoint>
          <Trackpoint>
            <Time>2019-08-01T10:40:17.000Z</Time>
            <Position>
              <LatitudeDegrees>40.55802382528781890869140625</LatitudeDegrees>
              <LongitudeDegrees>-4.02256057597696781158447265625</LongitudeDegrees>
            </Position>
            <AltitudeMeters>843.5999755859375</AltitudeMeters>
            <DistanceMeters>NAN</DistanceMeters>
          </Trackpoint>
          <Trackpoint>
            <Time>2019-08-01T10:40:18.000Z</Time>
            <Position>
              <LatitudeDegrees>40.558057688176631927490234375</LatitudeDegrees>
              <LongitudeDegrees>-4.022545404732227325439453125</LongitudeDegrees>
            </Position>
            <AltitudeMeters>843.79998779296875</AltitudeMeters>
            <DistanceMeters>NAN</DistanceMeters>
          </Trackpoint>
          <Trackpoint>
            <Time>2019-08-01T10:40:19.000Z</Time>
            <Position>
              <LatitudeDegrees>40.55809163488447666168212890625</LatitudeDegrees>
              <LongitudeDegrees>-4.022529982030391693115234375</LongitudeDegrees>
            </Position>
            <AltitudeMeters>844</AltitudeMeters>
            <DistanceMeters>NAN</DistanceMeters>
          </Trackpoint>
          <Trackpoint>
            <Time>2019-08-01T10:40:20.000Z</Time>
            <Position>
              <LatitudeDegrees>40.55812583304941654205322265625</LatitudeDegrees>
              <LongitudeDegrees>-4.022513888776302337646484375</LongitudeDegrees>
            </Position>
            <AltitudeMeters>844.20001220703125</AltitudeMeters>
            <DistanceMeters>NAN</DistanceMeters>
          </Trackpoint>
          <Trackpoint>
            <Time>2019-08-01T10:40:21.000Z</Time>
            <Position>
              <LatitudeDegrees>40.55815952830016613006591796875</LatitudeDegrees>
              <LongitudeDegrees>-4.02249746024608612060546875</LongitudeDegrees>
            </Position>
            <AltitudeMeters>844.5999755859375</AltitudeMeters>
            <DistanceMeters>NAN</DistanceMeters>
          </Trackpoint>
          <Trackpoint>
            <Time>2019-08-01T10:40:22.000Z</Time>
            <Position>
              <LatitudeDegrees>40.5581929720938205718994140625</LatitudeDegrees>
              <LongitudeDegrees>-4.02248145081102848052978515625</LongitudeDegrees>
            </Position>
            <AltitudeMeters>844.79998779296875</AltitudeMeters>
            <DistanceMeters>NAN</DistanceMeters>
          </Trackpoint>
          <Trackpoint>
            <Time>2019-08-01T10:40:23.000Z</Time>
            <Position>
              <LatitudeDegrees>40.55822767317295074462890625</LatitudeDegrees>
              <LongitudeDegrees>-4.02246569283306598663330078125</LongitudeDegrees>
            </Position>
            <AltitudeMeters>845.20001220703125</AltitudeMeters>
            <DistanceMeters>NAN</DistanceMeters>
          </Trackpoint>
          <Trackpoint>
            <Time>2019-08-01T10:40:24.000Z</Time>
            <Position>
              <LatitudeDegrees>40.5582620389759540557861328125</LatitudeDegrees>
              <LongitudeDegrees>-4.02244876138865947723388671875</LongitudeDegrees>
            </Position>
            <AltitudeMeters>845.4000244140625</AltitudeMeters>
            <DistanceMeters>NAN</DistanceMeters>
          </Trackpoint>
          <Trackpoint>
            <Time>2019-08-01T10:40:25.000Z</Time>
            <Position>
              <LatitudeDegrees>40.5582962371408939361572265625</LatitudeDegrees>
              <LongitudeDegrees>-4.022432751953601837158203125</LongitudeDegrees>
            </Position>
            <AltitudeMeters>845.5999755859375</AltitudeMeters>
            <DistanceMeters>NAN</DistanceMeters>
          </Trackpoint>
          <Trackpoint>
            <Time>2019-08-01T10:40:26.000Z</Time>
            <Position>
              <LatitudeDegrees>40.5583304353058338165283203125</LatitudeDegrees>
              <LongitudeDegrees>-4.02241766452789306640625</LongitudeDegrees>
            </Position>
            <AltitudeMeters>845.5999755859375</AltitudeMeters>
            <DistanceMeters>NAN</DistanceMeters>
          </Trackpoint>
          <Trackpoint>
            <Time>2019-08-01T10:40:27.000Z</Time>
            <Position>
              <LatitudeDegrees>40.5583646334707736968994140625</LatitudeDegrees>
              <LongitudeDegrees>-4.022401235997676849365234375</LongitudeDegrees>
            </Position>
            <AltitudeMeters>845.79998779296875</AltitudeMeters>
            <DistanceMeters>NAN</DistanceMeters>
          </Trackpoint>
          <Trackpoint>
            <Time>2019-08-01T10:40:28.000Z</Time>
            <Position>
              <LatitudeDegrees>40.5583995021879673004150390625</LatitudeDegrees>
              <LongitudeDegrees>-4.02238455601036548614501953125</LongitudeDegrees>
            </Position>
            <AltitudeMeters>846</AltitudeMeters>
            <DistanceMeters>NAN</DistanceMeters>
          </Trackpoint>
          <Trackpoint>
            <Time>2019-08-01T10:40:29.000Z</Time>
            <Position>
              <LatitudeDegrees>40.55843411944806575775146484375</LatitudeDegrees>
              <LongitudeDegrees>-4.022369384765625</LongitudeDegrees>
            </Position>
            <AltitudeMeters>846.20001220703125</AltitudeMeters>
            <DistanceMeters>NAN</DistanceMeters>
          </Trackpoint>
          <Trackpoint>
            <Time>2019-08-01T10:40:30.000Z</Time>
            <Position>
              <LatitudeDegrees>40.55847217328846454620361328125</LatitudeDegrees>
              <LongitudeDegrees>-4.02235304005444049835205078125</LongitudeDegrees>
            </Position>
            <AltitudeMeters>846.4000244140625</AltitudeMeters>
            <DistanceMeters>NAN</DistanceMeters>
          </Trackpoint>
          <Trackpoint>
            <Time>2019-08-01T10:40:31.000Z</Time>
            <Position>
              <LatitudeDegrees>40.5585081316530704498291015625</LatitudeDegrees>
              <LongitudeDegrees>-4.02233711443841457366943359375</LongitudeDegrees>
            </Position>
            <AltitudeMeters>846.5999755859375</AltitudeMeters>
            <DistanceMeters>NAN</DistanceMeters>
          </Trackpoint>
          <Trackpoint>
            <Time>2019-08-01T10:40:32.000Z</Time>
            <Position>
              <LatitudeDegrees>40.55854258127510547637939453125</LatitudeDegrees>
              <LongitudeDegrees>-4.02232068590819835662841796875</LongitudeDegrees>
            </Position>
            <AltitudeMeters>846.79998779296875</AltitudeMeters>
            <DistanceMeters>NAN</DistanceMeters>
          </Trackpoint>
          <Trackpoint>
            <Time>2019-08-01T10:40:33.000Z</Time>
            <Position>
              <LatitudeDegrees>40.55857778526842594146728515625</LatitudeDegrees>
              <LongitudeDegrees>-4.022305347025394439697265625</LongitudeDegrees>
            </Position>
            <AltitudeMeters>847</AltitudeMeters>
            <DistanceMeters>NAN</DistanceMeters>
          </Trackpoint>
          <Trackpoint>
            <Time>2019-08-01T10:40:34.000Z</Time>
            <Position>
              <LatitudeDegrees>40.55861349217593669891357421875</LatitudeDegrees>
              <LongitudeDegrees>-4.02229118160903453826904296875</LongitudeDegrees>
            </Position>
            <AltitudeMeters>847.20001220703125</AltitudeMeters>
            <DistanceMeters>NAN</DistanceMeters>
          </Trackpoint>
          <Trackpoint>
            <Time>2019-08-01T10:40:35.000Z</Time>
            <Position>
              <LatitudeDegrees>40.55864936672151088714599609375</LatitudeDegrees>
              <LongitudeDegrees>-4.02227617800235748291015625</LongitudeDegrees>
            </Position>
            <AltitudeMeters>847.4000244140625</AltitudeMeters>
            <DistanceMeters>NAN</DistanceMeters>
          </Trackpoint>
          <Trackpoint>
            <Time>2019-08-01T10:40:36.000Z</Time>
            <Position>
              <LatitudeDegrees>40.55868524126708507537841796875</LatitudeDegrees>
              <LongitudeDegrees>-4.022259749472141265869140625</LongitudeDegrees>
            </Position>
            <AltitudeMeters>847.4000244140625</AltitudeMeters>
            <DistanceMeters>NAN</DistanceMeters>
          </Trackpoint>
          <Trackpoint>
            <Time>2019-08-01T10:40:37.000Z</Time>
            <Position>
              <LatitudeDegrees>40.55872119963169097900390625</LatitudeDegrees>
              <LongitudeDegrees>-4.022243656218051910400390625</LongitudeDegrees>
            </Position>
            <AltitudeMeters>847.5999755859375</AltitudeMeters>
            <DistanceMeters>NAN</DistanceMeters>
          </Trackpoint>
          <Trackpoint>
            <Time>2019-08-01T10:40:38.000Z</Time>
            <Position>
              <LatitudeDegrees>40.55875740945339202880859375</LatitudeDegrees>
              <LongitudeDegrees>-4.0222284011542797088623046875</LongitudeDegrees>
            </Position>
            <AltitudeMeters>847.5999755859375</AltitudeMeters>
            <DistanceMeters>NAN</DistanceMeters>
          </Trackpoint>
          <Trackpoint>
            <Time>2019-08-01T10:40:39.000Z</Time>
            <Position>
              <LatitudeDegrees>40.55879320017993450164794921875</LatitudeDegrees>
              <LongitudeDegrees>-4.02221306227147579193115234375</LongitudeDegrees>
            </Position>
            <AltitudeMeters>848</AltitudeMeters>
            <DistanceMeters>NAN</DistanceMeters>
          </Trackpoint>
          <Trackpoint>
            <Time>2019-08-01T10:40:40.000Z</Time>
            <Position>
              <LatitudeDegrees>40.55882848799228668212890625</LatitudeDegrees>
              <LongitudeDegrees>-4.022198058664798736572265625</LongitudeDegrees>
            </Position>
            <AltitudeMeters>848.4000244140625</AltitudeMeters>
            <DistanceMeters>NAN</DistanceMeters>
          </Trackpoint>
          <Trackpoint>
            <Time>2019-08-01T10:40:41.000Z</Time>
            <Position>
              <LatitudeDegrees>40.5588638596236705780029296875</LatitudeDegrees>
              <LongitudeDegrees>-4.022182635962963104248046875</LongitudeDegrees>
            </Position>
            <AltitudeMeters>848.5999755859375</AltitudeMeters>
            <DistanceMeters>NAN</DistanceMeters>
          </Trackpoint>
          <Trackpoint>
            <Time>2019-08-01T10:40:42.000Z</Time>
            <Position>
              <LatitudeDegrees>40.55889948271214962005615234375</LatitudeDegrees>
              <LongitudeDegrees>-4.02216662652790546417236328125</LongitudeDegrees>
            </Position>
            <AltitudeMeters>848.79998779296875</AltitudeMeters>
            <DistanceMeters>NAN</DistanceMeters>
          </Trackpoint>
          <Trackpoint>
            <Time>2019-08-01T10:40:43.000Z</Time>
            <Position>
              <LatitudeDegrees>40.558935441076755523681640625</LatitudeDegrees>
              <LongitudeDegrees>-4.02215053327381610870361328125</LongitudeDegrees>
            </Position>
            <AltitudeMeters>849</AltitudeMeters>
            <DistanceMeters>NAN</DistanceMeters>
          </Trackpoint>
          <Trackpoint>
            <Time>2019-08-01T10:40:44.000Z</Time>
            <Position>
              <LatitudeDegrees>40.55897106416523456573486328125</LatitudeDegrees>
              <LongitudeDegrees>-4.02213444001972675323486328125</LongitudeDegrees>
            </Position>
            <AltitudeMeters>849.20001220703125</AltitudeMeters>
            <DistanceMeters>NAN</DistanceMeters>
          </Trackpoint>
          <Trackpoint>
            <Time>2019-08-01T10:40:45.000Z</Time>
            <Position>
              <LatitudeDegrees>40.55900626815855503082275390625</LatitudeDegrees>
              <LongitudeDegrees>-4.022119604051113128662109375</LongitudeDegrees>
            </Position>
            <AltitudeMeters>849.4000244140625</AltitudeMeters>
            <DistanceMeters>NAN</DistanceMeters>
          </Trackpoint>
          <Trackpoint>
            <Time>2019-08-01T10:40:46.000Z</Time>
            <Position>
              <LatitudeDegrees>40.55904046632349491119384765625</LatitudeDegrees>
              <LongitudeDegrees>-4.0221050195395946502685546875</LongitudeDegrees>
            </Position>
            <AltitudeMeters>849.5999755859375</AltitudeMeters>
            <DistanceMeters>NAN</DistanceMeters>
          </Trackpoint>
          <Trackpoint>
            <Time>2019-08-01T10:40:47.000Z</Time>
            <Position>
              <LatitudeDegrees>40.5590754188597202301025390625</LatitudeDegrees>
              <LongitudeDegrees>-4.0220890939235687255859375</LongitudeDegrees>
            </Position>
            <AltitudeMeters>849.79998779296875</AltitudeMeters>
            <DistanceMeters>NAN</DistanceMeters>
          </Trackpoint>
          <Trackpoint>
            <Time>2019-08-01T10:40:48.000Z</Time>
            <Position>
              <LatitudeDegrees>40.559108443558216094970703125</LatitudeDegrees>
              <LongitudeDegrees>-4.0220691449940204620361328125</LongitudeDegrees>
            </Position>
            <AltitudeMeters>849.79998779296875</AltitudeMeters>
            <DistanceMeters>NAN</DistanceMeters>
          </Trackpoint>
          <Trackpoint>
            <Time>2019-08-01T10:40:49.000Z</Time>
            <Position>
              <LatitudeDegrees>40.55914155207574367523193359375</LatitudeDegrees>
              <LongitudeDegrees>-4.0220434963703155517578125</LongitudeDegrees>
            </Position>
            <AltitudeMeters>850</AltitudeMeters>
            <DistanceMeters>NAN</DistanceMeters>
          </Trackpoint>
          <Trackpoint>
            <Time>2019-08-01T10:40:50.000Z</Time>
            <Position>
              <LatitudeDegrees>40.55917315185070037841796875</LatitudeDegrees>
              <LongitudeDegrees>-4.02201558463275432586669921875</LongitudeDegrees>
            </Position>
            <AltitudeMeters>850.4000244140625</AltitudeMeters>
            <DistanceMeters>NAN</DistanceMeters>
          </Trackpoint>
          <Trackpoint>
            <Time>2019-08-01T10:40:51.000Z</Time>
            <Position>
              <LatitudeDegrees>40.5592038296163082122802734375</LatitudeDegrees>
              <LongitudeDegrees>-4.0219843201339244842529296875</LongitudeDegrees>
            </Position>
            <AltitudeMeters>850.5999755859375</AltitudeMeters>
            <DistanceMeters>NAN</DistanceMeters>
          </Trackpoint>
          <Trackpoint>
            <Time>2019-08-01T10:40:52.000Z</Time>
            <Position>
              <LatitudeDegrees>40.55922956205904483795166015625</LatitudeDegrees>
              <LongitudeDegrees>-4.02195221744477748870849609375</LongitudeDegrees>
            </Position>
            <AltitudeMeters>850.79998779296875</AltitudeMeters>
            <DistanceMeters>NAN</DistanceMeters>
          </Trackpoint>
          <Trackpoint>
            <Time>2019-08-01T10:40:53.000Z</Time>
            <Position>
              <LatitudeDegrees>40.55925319902598857879638671875</LatitudeDegrees>
              <LongitudeDegrees>-4.0219159238040447235107421875</LongitudeDegrees>
            </Position>
            <AltitudeMeters>851.20001220703125</AltitudeMeters>
            <DistanceMeters>NAN</DistanceMeters>
          </Trackpoint>
          <Trackpoint>
            <Time>2019-08-01T10:40:54.000Z</Time>
            <Position>
              <LatitudeDegrees>40.55927641689777374267578125</LatitudeDegrees>
              <LongitudeDegrees>-4.021877534687519073486328125</LongitudeDegrees>
            </Position>
            <AltitudeMeters>851.4000244140625</AltitudeMeters>
            <DistanceMeters>NAN</DistanceMeters>
          </Trackpoint>
          <Trackpoint>
            <Time>2019-08-01T10:40:55.000Z</Time>
            <Position>
              <LatitudeDegrees>40.5593000538647174835205078125</LatitudeDegrees>
              <LongitudeDegrees>-4.02183897793292999267578125</LongitudeDegrees>
            </Position>
            <AltitudeMeters>851.79998779296875</AltitudeMeters>
            <DistanceMeters>NAN</DistanceMeters>
          </Trackpoint>
          <Trackpoint>
            <Time>2019-08-01T10:40:56.000Z</Time>
            <Position>
              <LatitudeDegrees>40.559325031936168670654296875</LatitudeDegrees>
              <LongitudeDegrees>-4.02179740369319915771484375</LongitudeDegrees>
            </Position>
            <AltitudeMeters>851.79998779296875</AltitudeMeters>
            <DistanceMeters>NAN</DistanceMeters>
          </Trackpoint>
          <Trackpoint>
            <Time>2019-08-01T10:40:57.000Z</Time>
            <Position>
              <LatitudeDegrees>40.55934959091246128082275390625</LatitudeDegrees>
              <LongitudeDegrees>-4.0217549912631511688232421875</LongitudeDegrees>
            </Position>
            <AltitudeMeters>852.20001220703125</AltitudeMeters>
            <DistanceMeters>NAN</DistanceMeters>
          </Trackpoint>
          <Trackpoint>
            <Time>2019-08-01T10:40:58.000Z</Time>
            <Position>
              <LatitudeDegrees>40.55937238968908786773681640625</LatitudeDegrees>
              <LongitudeDegrees>-4.02171199209988117218017578125</LongitudeDegrees>
            </Position>
            <AltitudeMeters>852.4000244140625</AltitudeMeters>
            <DistanceMeters>NAN</DistanceMeters>
          </Trackpoint>
          <Trackpoint>
            <Time>2019-08-01T10:40:59.000Z</Time>
            <Position>
              <LatitudeDegrees>40.55939468555152416229248046875</LatitudeDegrees>
              <LongitudeDegrees>-4.02166907675564289093017578125</LongitudeDegrees>
            </Position>
            <AltitudeMeters>852.5999755859375</AltitudeMeters>
            <DistanceMeters>NAN</DistanceMeters>
          </Trackpoint>
          <Trackpoint>
            <Time>2019-08-01T10:41:00.000Z</Time>
            <Position>
              <LatitudeDegrees>40.55942259728908538818359375</LatitudeDegrees>
              <LongitudeDegrees>-4.021625407040119171142578125</LongitudeDegrees>
            </Position>
            <AltitudeMeters>852.79998779296875</AltitudeMeters>
            <DistanceMeters>NAN</DistanceMeters>
          </Trackpoint>
          <Trackpoint>
            <Time>2019-08-01T10:41:01.000Z</Time>
            <Position>
              <LatitudeDegrees>40.5594479106366634368896484375</LatitudeDegrees>
              <LongitudeDegrees>-4.02158257551491260528564453125</LongitudeDegrees>
            </Position>
            <AltitudeMeters>853.20001220703125</AltitudeMeters>
            <DistanceMeters>NAN</DistanceMeters>
          </Trackpoint>
          <Trackpoint>
            <Time>2019-08-01T10:41:02.000Z</Time>
            <Position>
              <LatitudeDegrees>40.5594720505177974700927734375</LatitudeDegrees>
              <LongitudeDegrees>-4.02153991162776947021484375</LongitudeDegrees>
            </Position>
            <AltitudeMeters>853.5999755859375</AltitudeMeters>
            <DistanceMeters>NAN</DistanceMeters>
          </Trackpoint>
          <Trackpoint>
            <Time>2019-08-01T10:41:03.000Z</Time>
            <Position>
              <LatitudeDegrees>40.559496022760868072509765625</LatitudeDegrees>
              <LongitudeDegrees>-4.02149657718837261199951171875</LongitudeDegrees>
            </Position>
            <AltitudeMeters>854</AltitudeMeters>
            <DistanceMeters>NAN</DistanceMeters>
          </Trackpoint>
          <Trackpoint>
            <Time>2019-08-01T10:41:04.000Z</Time>
            <Position>
              <LatitudeDegrees>40.55952074937522411346435546875</LatitudeDegrees>
              <LongitudeDegrees>-4.0214534103870391845703125</LongitudeDegrees>
            </Position>
            <AltitudeMeters>854.20001220703125</AltitudeMeters>
            <DistanceMeters>NAN</DistanceMeters>
          </Trackpoint>
          <Trackpoint>
            <Time>2019-08-01T10:41:05.000Z</Time>
            <Position>
              <LatitudeDegrees>40.55954388342797756195068359375</LatitudeDegrees>
              <LongitudeDegrees>-4.0214104950428009033203125</LongitudeDegrees>
            </Position>
            <AltitudeMeters>854.4000244140625</AltitudeMeters>
            <DistanceMeters>NAN</DistanceMeters>
          </Trackpoint>
          <Trackpoint>
            <Time>2019-08-01T10:41:06.000Z</Time>
            <Position>
              <LatitudeDegrees>40.55954388342797756195068359375</LatitudeDegrees>
              <LongitudeDegrees>-4.0214104950428009033203125</LongitudeDegrees>
            </Position>
            <AltitudeMeters>854.5999755859375</AltitudeMeters>
            <DistanceMeters>NAN</DistanceMeters>
          </Trackpoint>
          <Trackpoint>
            <Time>2019-08-01T10:41:07.000Z</Time>
            <Position>
              <LatitudeDegrees>40.5595904029905796051025390625</LatitudeDegrees>
              <LongitudeDegrees>-4.02132106013596057891845703125</LongitudeDegrees>
            </Position>
            <AltitudeMeters>855</AltitudeMeters>
            <DistanceMeters>NAN</DistanceMeters>
          </Trackpoint>
          <Trackpoint>
            <Time>2019-08-01T10:41:08.000Z</Time>
            <Position>
              <LatitudeDegrees>40.5596148781478404998779296875</LatitudeDegrees>
              <LongitudeDegrees>-4.021274708211421966552734375</LongitudeDegrees>
            </Position>
            <AltitudeMeters>855.20001220703125</AltitudeMeters>
            <DistanceMeters>NAN</DistanceMeters>
          </Trackpoint>
          <Trackpoint>
            <Time>2019-08-01T10:41:09.000Z</Time>
            <Position>
              <LatitudeDegrees>40.5596393533051013946533203125</LatitudeDegrees>
              <LongitudeDegrees>-4.02122735045850276947021484375</LongitudeDegrees>
            </Position>
            <AltitudeMeters>855.4000244140625</AltitudeMeters>
            <DistanceMeters>NAN</DistanceMeters>
          </Trackpoint>
          <Trackpoint>
            <Time>2019-08-01T10:41:10.000Z</Time>
            <Position>
              <LatitudeDegrees>40.5596633255481719970703125</LatitudeDegrees>
              <LongitudeDegrees>-4.02117873542010784149169921875</LongitudeDegrees>
            </Position>
            <AltitudeMeters>855.5999755859375</AltitudeMeters>
            <DistanceMeters>NAN</DistanceMeters>
          </Trackpoint>
          <Trackpoint>
            <Time>2019-08-01T10:41:11.000Z</Time>
            <Position>
              <LatitudeDegrees>40.5596876330673694610595703125</LatitudeDegrees>
              <LongitudeDegrees>-4.02112961746752262115478515625</LongitudeDegrees>
            </Position>
            <AltitudeMeters>855.79998779296875</AltitudeMeters>
            <DistanceMeters>NAN</DistanceMeters>
          </Trackpoint>
          <Trackpoint>
            <Time>2019-08-01T10:41:12.000Z</Time>
            <Position>
              <LatitudeDegrees>40.5597124435007572174072265625</LatitudeDegrees>
              <LongitudeDegrees>-4.0210807509720325469970703125</LongitudeDegrees>
            </Position>
            <AltitudeMeters>855.79998779296875</AltitudeMeters>
            <DistanceMeters>NAN</DistanceMeters>
          </Trackpoint>
          <Trackpoint>
            <Time>2019-08-01T10:41:13.000Z</Time>
            <Position>
              <LatitudeDegrees>40.5597362481057643890380859375</LatitudeDegrees>
              <LongitudeDegrees>-4.02102895081043243408203125</LongitudeDegrees>
            </Position>
            <AltitudeMeters>855.79998779296875</AltitudeMeters>
            <DistanceMeters>NAN</DistanceMeters>
          </Trackpoint>
          <Trackpoint>
            <Time>2019-08-01T10:41:14.000Z</Time>
            <Position>
              <LatitudeDegrees>40.559759549796581268310546875</LatitudeDegrees>
              <LongitudeDegrees>-4.02097530663013458251953125</LongitudeDegrees>
            </Position>
            <AltitudeMeters>856.20001220703125</AltitudeMeters>
            <DistanceMeters>NAN</DistanceMeters>
          </Trackpoint>
          <Trackpoint>
            <Time>2019-08-01T10:41:15.000Z</Time>
            <Position>
              <LatitudeDegrees>40.55978209711611270904541015625</LatitudeDegrees>
              <LongitudeDegrees>-4.02091906405985355377197265625</LongitudeDegrees>
            </Position>
            <AltitudeMeters>856.4000244140625</AltitudeMeters>
            <DistanceMeters>NAN</DistanceMeters>
          </Trackpoint>
          <Trackpoint>
            <Time>2019-08-01T10:41:16.000Z</Time>
            <Position>
              <LatitudeDegrees>40.55980590172111988067626953125</LatitudeDegrees>
              <LongitudeDegrees>-4.02086089365184307098388671875</LongitudeDegrees>
            </Position>
            <AltitudeMeters>856.5999755859375</AltitudeMeters>
            <DistanceMeters>NAN</DistanceMeters>
          </Trackpoint>
          <Trackpoint>
            <Time>2019-08-01T10:41:17.000Z</Time>
            <Position>
              <LatitudeDegrees>40.55983029305934906005859375</LatitudeDegrees>
              <LongitudeDegrees>-4.020801298320293426513671875</LongitudeDegrees>
            </Position>
            <AltitudeMeters>856.79998779296875</AltitudeMeters>
            <DistanceMeters>NAN</DistanceMeters>
          </Trackpoint>
          <Trackpoint>
            <Time>2019-08-01T10:41:18.000Z</Time>
            <Position>
              <LatitudeDegrees>40.55985602550208568572998046875</LatitudeDegrees>
              <LongitudeDegrees>-4.0207391045987606048583984375</LongitudeDegrees>
            </Position>
            <AltitudeMeters>856.79998779296875</AltitudeMeters>
            <DistanceMeters>NAN</DistanceMeters>
          </Trackpoint>
          <Trackpoint>
            <Time>2019-08-01T10:41:19.000Z</Time>
            <Position>
              <LatitudeDegrees>40.5598830990493297576904296875</LatitudeDegrees>
              <LongitudeDegrees>-4.0206754021346569061279296875</LongitudeDegrees>
            </Position>
            <AltitudeMeters>857</AltitudeMeters>
            <DistanceMeters>NAN</DistanceMeters>
          </Trackpoint>
          <Trackpoint>
            <Time>2019-08-01T10:41:20.000Z</Time>
            <Position>
              <LatitudeDegrees>40.55991117842495441436767578125</LatitudeDegrees>
              <LongitudeDegrees>-4.02061044238507747650146484375</LongitudeDegrees>
            </Position>
            <AltitudeMeters>857</AltitudeMeters>
            <DistanceMeters>NAN</DistanceMeters>
          </Trackpoint>
          <Trackpoint>
            <Time>2019-08-01T10:41:21.000Z</Time>
            <Position>
              <LatitudeDegrees>40.55994034744799137115478515625</LatitudeDegrees>
              <LongitudeDegrees>-4.02054456062614917755126953125</LongitudeDegrees>
            </Position>
            <AltitudeMeters>857</AltitudeMeters>
            <DistanceMeters>NAN</DistanceMeters>
          </Trackpoint>
          <Trackpoint>
            <Time>2019-08-01T10:41:22.000Z</Time>
            <Position>
              <LatitudeDegrees>40.55996918119490146636962890625</LatitudeDegrees>
              <LongitudeDegrees>-4.02047767303884029388427734375</LongitudeDegrees>
            </Position>
            <AltitudeMeters>857</AltitudeMeters>
            <DistanceMeters>NAN</DistanceMeters>
          </Trackpoint>
          <Trackpoint>
            <Time>2019-08-01T10:41:23.000Z</Time>
            <Position>
              <LatitudeDegrees>40.5599977634847164154052734375</LatitudeDegrees>
              <LongitudeDegrees>-4.02040936052799224853515625</LongitudeDegrees>
            </Position>
            <AltitudeMeters>857.20001220703125</AltitudeMeters>
            <DistanceMeters>NAN</DistanceMeters>
          </Trackpoint>
          <Trackpoint>
            <Time>2019-08-01T10:41:24.000Z</Time>
            <Position>
              <LatitudeDegrees>40.56002634577453136444091796875</LatitudeDegrees>
              <LongitudeDegrees>-4.02033937163650989532470703125</LongitudeDegrees>
            </Position>
            <AltitudeMeters>857.20001220703125</AltitudeMeters>
            <DistanceMeters>NAN</DistanceMeters>
          </Trackpoint>
          <Trackpoint>
            <Time>2019-08-01T10:41:25.000Z</Time>
            <Position>
              <LatitudeDegrees>40.56005618534982204437255859375</LatitudeDegrees>
              <LongitudeDegrees>-4.020268209278583526611328125</LongitudeDegrees>
            </Position>
            <AltitudeMeters>857.20001220703125</AltitudeMeters>
            <DistanceMeters>NAN</DistanceMeters>
          </Trackpoint>
          <Trackpoint>
            <Time>2019-08-01T10:41:27.000Z</Time>
            <Position>
              <LatitudeDegrees>40.56012005545198917388916015625</LatitudeDegrees>
              <LongitudeDegrees>-4.02011993341147899627685546875</LongitudeDegrees>
            </Position>
            <AltitudeMeters>857.20001220703125</AltitudeMeters>
            <DistanceMeters>NAN</DistanceMeters>
          </Trackpoint>
          <Trackpoint>
            <Time>2019-08-01T10:41:28.000Z</Time>
            <Position>
              <LatitudeDegrees>40.56015274487435817718505859375</LatitudeDegrees>
              <LongitudeDegrees>-4.02004265226423740386962890625</LongitudeDegrees>
            </Position>
            <AltitudeMeters>857.20001220703125</AltitudeMeters>
            <DistanceMeters>NAN</DistanceMeters>
          </Trackpoint>
          <Trackpoint>
            <Time>2019-08-01T10:41:29.000Z</Time>
            <Position>
              <LatitudeDegrees>40.5601855181157588958740234375</LatitudeDegrees>
              <LongitudeDegrees>-4.01996319182217121124267578125</LongitudeDegrees>
            </Position>
            <AltitudeMeters>857.20001220703125</AltitudeMeters>
            <DistanceMeters>NAN</DistanceMeters>
          </Trackpoint>
          <Trackpoint>
            <Time>2019-08-01T10:41:30.000Z</Time>
            <Position>
              <LatitudeDegrees>40.56021644733846187591552734375</LatitudeDegrees>
              <LongitudeDegrees>-4.019882641732692718505859375</LongitudeDegrees>
            </Position>
            <AltitudeMeters>857.20001220703125</AltitudeMeters>
            <DistanceMeters>NAN</DistanceMeters>
          </Trackpoint>
          <Trackpoint>
            <Time>2019-08-01T10:41:31.000Z</Time>
            <Position>
              <LatitudeDegrees>40.5602478794753551483154296875</LatitudeDegrees>
              <LongitudeDegrees>-4.01979857124388217926025390625</LongitudeDegrees>
            </Position>
            <AltitudeMeters>857</AltitudeMeters>
            <DistanceMeters>NAN</DistanceMeters>
          </Trackpoint>
          <Trackpoint>
            <Time>2019-08-01T10:41:32.000Z</Time>
            <Position>
              <LatitudeDegrees>40.5602775514125823974609375</LatitudeDegrees>
              <LongitudeDegrees>-4.019712321460247039794921875</LongitudeDegrees>
            </Position>
            <AltitudeMeters>857</AltitudeMeters>
            <DistanceMeters>NAN</DistanceMeters>
          </Trackpoint>
          <Trackpoint>
            <Time>2019-08-01T10:41:33.000Z</Time>
            <Position>
              <LatitudeDegrees>40.560303367674350738525390625</LatitudeDegrees>
              <LongitudeDegrees>-4.01962347328662872314453125</LongitudeDegrees>
            </Position>
            <AltitudeMeters>857</AltitudeMeters>
            <DistanceMeters>NAN</DistanceMeters>
          </Trackpoint>
          <Trackpoint>
            <Time>2019-08-01T10:41:34.000Z</Time>
            <Position>
              <LatitudeDegrees>40.5603246577084064483642578125</LatitudeDegrees>
              <LongitudeDegrees>-4.01953353546559810638427734375</LongitudeDegrees>
            </Position>
            <AltitudeMeters>857</AltitudeMeters>
            <DistanceMeters>NAN</DistanceMeters>
          </Trackpoint>
          <Trackpoint>
            <Time>2019-08-01T10:41:35.000Z</Time>
            <Position>
              <LatitudeDegrees>40.56034603156149387359619140625</LatitudeDegrees>
              <LongitudeDegrees>-4.01944435201585292816162109375</LongitudeDegrees>
            </Position>
            <AltitudeMeters>856.79998779296875</AltitudeMeters>
            <DistanceMeters>NAN</DistanceMeters>
          </Trackpoint>
          <Trackpoint>
            <Time>2019-08-01T10:41:36.000Z</Time>
            <Position>
              <LatitudeDegrees>40.560365729033946990966796875</LatitudeDegrees>
              <LongitudeDegrees>-4.01935650967061519622802734375</LongitudeDegrees>
            </Position>
            <AltitudeMeters>856.79998779296875</AltitudeMeters>
            <DistanceMeters>NAN</DistanceMeters>
          </Trackpoint>
          <Trackpoint>
            <Time>2019-08-01T10:41:37.000Z</Time>
            <Position>
              <LatitudeDegrees>40.56038576178252696990966796875</LatitudeDegrees>
              <LongitudeDegrees>-4.01927076280117034912109375</LongitudeDegrees>
            </Position>
            <AltitudeMeters>856.79998779296875</AltitudeMeters>
            <DistanceMeters>NAN</DistanceMeters>
          </Trackpoint>
          <Trackpoint>
            <Time>2019-08-01T10:41:38.000Z</Time>
            <Position>
              <LatitudeDegrees>40.5604027770459651947021484375</LatitudeDegrees>
              <LongitudeDegrees>-4.01918518356978893280029296875</LongitudeDegrees>
            </Position>
            <AltitudeMeters>856.79998779296875</AltitudeMeters>
            <DistanceMeters>NAN</DistanceMeters>
          </Trackpoint>
          <Trackpoint>
            <Time>2019-08-01T10:41:39.000Z</Time>
            <Position>
              <LatitudeDegrees>40.56041945703327655792236328125</LatitudeDegrees>
              <LongitudeDegrees>-4.01909985579550266265869140625</LongitudeDegrees>
            </Position>
            <AltitudeMeters>856.79998779296875</AltitudeMeters>
            <DistanceMeters>NAN</DistanceMeters>
          </Trackpoint>
          <Trackpoint>
            <Time>2019-08-01T10:41:40.000Z</Time>
            <Position>
              <LatitudeDegrees>40.56043588556349277496337890625</LatitudeDegrees>
              <LongitudeDegrees>-4.0190147794783115386962890625</LongitudeDegrees>
            </Position>
            <AltitudeMeters>856.79998779296875</AltitudeMeters>
            <DistanceMeters>NAN</DistanceMeters>
          </Trackpoint>
          <Trackpoint>
            <Time>2019-08-01T10:41:41.000Z</Time>
            <Position>
              <LatitudeDegrees>40.5604517273604869842529296875</LatitudeDegrees>
              <LongitudeDegrees>-4.01893188245594501495361328125</LongitudeDegrees>
            </Position>
            <AltitudeMeters>856.79998779296875</AltitudeMeters>
            <DistanceMeters>NAN</DistanceMeters>
          </Trackpoint>
          <Trackpoint>
            <Time>2019-08-01T10:41:42.000Z</Time>
            <Position>
              <LatitudeDegrees>40.56046664714813232421875</LatitudeDegrees>
              <LongitudeDegrees>-4.0188525058329105377197265625</LongitudeDegrees>
            </Position>
            <AltitudeMeters>856.79998779296875</AltitudeMeters>
            <DistanceMeters>NAN</DistanceMeters>
          </Trackpoint>
          <Trackpoint>
            <Time>2019-08-01T10:41:43.000Z</Time>
            <Position>
              <LatitudeDegrees>40.5604802258312702178955078125</LatitudeDegrees>
              <LongitudeDegrees>-4.0187750570476055145263671875</LongitudeDegrees>
            </Position>
            <AltitudeMeters>856.79998779296875</AltitudeMeters>
            <DistanceMeters>NAN</DistanceMeters>
          </Trackpoint>
          <Trackpoint>
            <Time>2019-08-01T10:41:44.000Z</Time>
            <Position>
              <LatitudeDegrees>40.56049346923828125</LatitudeDegrees>
              <LongitudeDegrees>-4.01870138011872768402099609375</LongitudeDegrees>
            </Position>
            <AltitudeMeters>856.79998779296875</AltitudeMeters>
            <DistanceMeters>NAN</DistanceMeters>
          </Trackpoint>
          <Trackpoint>
            <Time>2019-08-01T10:41:45.000Z</Time>
            <Position>
              <LatitudeDegrees>40.56050696410238742828369140625</LatitudeDegrees>
              <LongitudeDegrees>-4.01863063685595989227294921875</LongitudeDegrees>
            </Position>
            <AltitudeMeters>856.79998779296875</AltitudeMeters>
            <DistanceMeters>NAN</DistanceMeters>
          </Trackpoint>
          <Trackpoint>
            <Time>2019-08-01T10:41:46.000Z</Time>
            <Position>
              <LatitudeDegrees>40.56052154861390590667724609375</LatitudeDegrees>
              <LongitudeDegrees>-4.01856307871639728546142578125</LongitudeDegrees>
            </Position>
            <AltitudeMeters>856.79998779296875</AltitudeMeters>
            <DistanceMeters>NAN</DistanceMeters>
          </Trackpoint>
          <Trackpoint>
            <Time>2019-08-01T10:41:47.000Z</Time>
            <Position>
              <LatitudeDegrees>40.5605350434780120849609375</LatitudeDegrees>
              <LongitudeDegrees>-4.01849702931940555572509765625</LongitudeDegrees>
            </Position>
            <AltitudeMeters>856.79998779296875</AltitudeMeters>
            <DistanceMeters>NAN</DistanceMeters>
          </Trackpoint>
          <Trackpoint>
            <Time>2019-08-01T10:41:48.000Z</Time>
            <Position>
              <LatitudeDegrees>40.56054702959954738616943359375</LatitudeDegrees>
              <LongitudeDegrees>-4.01843483559787273406982421875</LongitudeDegrees>
            </Position>
            <AltitudeMeters>856.79998779296875</AltitudeMeters>
            <DistanceMeters>NAN</DistanceMeters>
          </Trackpoint>
          <Trackpoint>
            <Time>2019-08-01T10:41:49.000Z</Time>
            <Position>
              <LatitudeDegrees>40.56055926717817783355712890625</LatitudeDegrees>
              <LongitudeDegrees>-4.01837616227567195892333984375</LongitudeDegrees>
            </Position>
            <AltitudeMeters>857</AltitudeMeters>
            <DistanceMeters>NAN</DistanceMeters>
          </Trackpoint>
          <Trackpoint>
            <Time>2019-08-01T10:41:50.000Z</Time>
            <Position>
              <LatitudeDegrees>40.56057150475680828094482421875</LatitudeDegrees>
              <LongitudeDegrees>-4.01831857860088348388671875</LongitudeDegrees>
            </Position>
            <AltitudeMeters>857</AltitudeMeters>
            <DistanceMeters>NAN</DistanceMeters>
          </Trackpoint>
          <Trackpoint>
            <Time>2019-08-01T10:41:51.000Z</Time>
            <Position>
              <LatitudeDegrees>40.560582987964153289794921875</LatitudeDegrees>
              <LongitudeDegrees>-4.0182640962302684783935546875</LongitudeDegrees>
            </Position>
            <AltitudeMeters>857</AltitudeMeters>
            <DistanceMeters>NAN</DistanceMeters>
          </Trackpoint>
          <Trackpoint>
            <Time>2019-08-01T10:41:52.000Z</Time>
            <Position>
              <LatitudeDegrees>40.56059539318084716796875</LatitudeDegrees>
              <LongitudeDegrees>-4.01821137405931949615478515625</LongitudeDegrees>
            </Position>
            <AltitudeMeters>857</AltitudeMeters>
            <DistanceMeters>NAN</DistanceMeters>
          </Trackpoint>
          <Trackpoint>
            <Time>2019-08-01T10:41:53.000Z</Time>
            <Position>
              <LatitudeDegrees>40.56060813367366790771484375</LatitudeDegrees>
              <LongitudeDegrees>-4.018158651888370513916015625</LongitudeDegrees>
            </Position>
            <AltitudeMeters>857.4000244140625</AltitudeMeters>
            <DistanceMeters>NAN</DistanceMeters>
          </Trackpoint>
          <Trackpoint>
            <Time>2019-08-01T10:41:54.000Z</Time>
            <Position>
              <LatitudeDegrees>40.56062129326164722442626953125</LatitudeDegrees>
              <LongitudeDegrees>-4.01810592971742153167724609375</LongitudeDegrees>
            </Position>
            <AltitudeMeters>857.5999755859375</AltitudeMeters>
            <DistanceMeters>NAN</DistanceMeters>
          </Trackpoint>
          <Trackpoint>
            <Time>2019-08-01T10:41:55.000Z</Time>
            <Position>
              <LatitudeDegrees>40.5606364645063877105712890625</LatitudeDegrees>
              <LongitudeDegrees>-4.0180535428225994110107421875</LongitudeDegrees>
            </Position>
            <AltitudeMeters>857.79998779296875</AltitudeMeters>
            <DistanceMeters>NAN</DistanceMeters>
          </Trackpoint>
          <Trackpoint>
            <Time>2019-08-01T10:41:56.000Z</Time>
            <Position>
              <LatitudeDegrees>40.56065180338919162750244140625</LatitudeDegrees>
              <LongitudeDegrees>-4.0180032514035701751708984375</LongitudeDegrees>
            </Position>
            <AltitudeMeters>858.20001220703125</AltitudeMeters>
            <DistanceMeters>NAN</DistanceMeters>
          </Trackpoint>
          <Trackpoint>
            <Time>2019-08-01T10:41:57.000Z</Time>
            <Position>
              <LatitudeDegrees>40.56066672317683696746826171875</LatitudeDegrees>
              <LongitudeDegrees>-4.01795153506100177764892578125</LongitudeDegrees>
            </Position>
            <AltitudeMeters>858.5999755859375</AltitudeMeters>
            <DistanceMeters>NAN</DistanceMeters>
          </Trackpoint>
          <Trackpoint>
            <Time>2019-08-01T10:41:58.000Z</Time>
            <Position>
              <LatitudeDegrees>40.5606810562312602996826171875</LatitudeDegrees>
              <LongitudeDegrees>-4.01790057308971881866455078125</LongitudeDegrees>
            </Position>
            <AltitudeMeters>858.5999755859375</AltitudeMeters>
            <DistanceMeters>NAN</DistanceMeters>
          </Trackpoint>
          <Trackpoint>
            <Time>2019-08-01T10:41:59.000Z</Time>
            <Position>
              <LatitudeDegrees>40.56069354526698589324951171875</LatitudeDegrees>
              <LongitudeDegrees>-4.01785044930875301361083984375</LongitudeDegrees>
            </Position>
            <AltitudeMeters>858.79998779296875</AltitudeMeters>
            <DistanceMeters>NAN</DistanceMeters>
          </Trackpoint>
          <Trackpoint>
            <Time>2019-08-01T10:42:01.000Z</Time>
            <Position>
              <LatitudeDegrees>40.5607152543962001800537109375</LatitudeDegrees>
              <LongitudeDegrees>-4.0177534706890583038330078125</LongitudeDegrees>
            </Position>
            <AltitudeMeters>859.4000244140625</AltitudeMeters>
            <DistanceMeters>NAN</DistanceMeters>
          </Trackpoint>
          <Trackpoint>
            <Time>2019-08-01T10:42:02.000Z</Time>
            <Position>
              <LatitudeDegrees>40.56072791106998920440673828125</LatitudeDegrees>
              <LongitudeDegrees>-4.01770711876451969146728515625</LongitudeDegrees>
            </Position>
            <AltitudeMeters>860</AltitudeMeters>
            <DistanceMeters>NAN</DistanceMeters>
          </Trackpoint>
          <Trackpoint>
            <Time>2019-08-01T10:42:03.000Z</Time>
            <Position>
              <LatitudeDegrees>40.56073813699185848236083984375</LatitudeDegrees>
              <LongitudeDegrees>-4.017661102116107940673828125</LongitudeDegrees>
            </Position>
            <AltitudeMeters>860.4000244140625</AltitudeMeters>
            <DistanceMeters>NAN</DistanceMeters>
          </Trackpoint>
          <Trackpoint>
            <Time>2019-08-01T10:42:04.000Z</Time>
            <Position>
              <LatitudeDegrees>40.5607440881431102752685546875</LatitudeDegrees>
              <LongitudeDegrees>-4.01761307381093502044677734375</LongitudeDegrees>
            </Position>
            <AltitudeMeters>860.79998779296875</AltitudeMeters>
            <DistanceMeters>NAN</DistanceMeters>
          </Trackpoint>
          <Trackpoint>
            <Time>2019-08-01T10:42:05.000Z</Time>
            <Position>
              <LatitudeDegrees>40.56074668653309345245361328125</LatitudeDegrees>
              <LongitudeDegrees>-4.0175643749535083770751953125</LongitudeDegrees>
            </Position>
            <AltitudeMeters>861</AltitudeMeters>
            <DistanceMeters>NAN</DistanceMeters>
          </Trackpoint>
          <Trackpoint>
            <Time>2019-08-01T10:42:06.000Z</Time>
            <Position>
              <LatitudeDegrees>40.5607481114566326141357421875</LatitudeDegrees>
              <LongitudeDegrees>-4.01751517318189144134521484375</LongitudeDegrees>
            </Position>
            <AltitudeMeters>861.4000244140625</AltitudeMeters>
            <DistanceMeters>NAN</DistanceMeters>
          </Trackpoint>
          <Trackpoint>
            <Time>2019-08-01T10:42:07.000Z</Time>
            <Position>
              <LatitudeDegrees>40.5607481114566326141357421875</LatitudeDegrees>
              <LongitudeDegrees>-4.0174663066864013671875</LongitudeDegrees>
            </Position>
            <AltitudeMeters>861.79998779296875</AltitudeMeters>
            <DistanceMeters>NAN</DistanceMeters>
          </Trackpoint>
          <Trackpoint>
            <Time>2019-08-01T10:42:08.000Z</Time>
            <Position>
              <LatitudeDegrees>40.56074685417115688323974609375</LatitudeDegrees>
              <LongitudeDegrees>-4.017417021095752716064453125</LongitudeDegrees>
            </Position>
            <AltitudeMeters>862</AltitudeMeters>
            <DistanceMeters>NAN</DistanceMeters>
          </Trackpoint>
          <Trackpoint>
            <Time>2019-08-01T10:42:09.000Z</Time>
            <Position>
              <LatitudeDegrees>40.5607450939714908599853515625</LatitudeDegrees>
              <LongitudeDegrees>-4.01736781932413578033447265625</LongitudeDegrees>
            </Position>
            <AltitudeMeters>862.5999755859375</AltitudeMeters>
            <DistanceMeters>NAN</DistanceMeters>
          </Trackpoint>
          <Trackpoint>
            <Time>2019-08-01T10:42:10.000Z</Time>
            <Position>
              <LatitudeDegrees>40.56074316613376140594482421875</LatitudeDegrees>
              <LongitudeDegrees>-4.01731937192380428314208984375</LongitudeDegrees>
            </Position>
            <AltitudeMeters>863</AltitudeMeters>
            <DistanceMeters>NAN</DistanceMeters>
          </Trackpoint>
          <Trackpoint>
            <Time>2019-08-01T10:42:11.000Z</Time>
            <Position>
              <LatitudeDegrees>40.560741238296031951904296875</LatitudeDegrees>
              <LongitudeDegrees>-4.0172730199992656707763671875</LongitudeDegrees>
            </Position>
            <AltitudeMeters>863.4000244140625</AltitudeMeters>
            <DistanceMeters>NAN</DistanceMeters>
          </Trackpoint>
          <Trackpoint>
            <Time>2019-08-01T10:42:12.000Z</Time>
            <Position>
              <LatitudeDegrees>40.560742914676666259765625</LatitudeDegrees>
              <LongitudeDegrees>-4.0172247402369976043701171875</LongitudeDegrees>
            </Position>
            <AltitudeMeters>863.79998779296875</AltitudeMeters>
            <DistanceMeters>NAN</DistanceMeters>
          </Trackpoint>
          <Trackpoint>
            <Time>2019-08-01T10:42:13.000Z</Time>
            <Position>
              <LatitudeDegrees>40.56074760854244232177734375</LatitudeDegrees>
              <LongitudeDegrees>-4.01717721484601497650146484375</LongitudeDegrees>
            </Position>
            <AltitudeMeters>864.20001220703125</AltitudeMeters>
            <DistanceMeters>NAN</DistanceMeters>
          </Trackpoint>
          <Trackpoint>
            <Time>2019-08-01T10:42:14.000Z</Time>
            <Position>
              <LatitudeDegrees>40.56075473316013813018798828125</LatitudeDegrees>
              <LongitudeDegrees>-4.01713161729276180267333984375</LongitudeDegrees>
            </Position>
            <AltitudeMeters>864.5999755859375</AltitudeMeters>
            <DistanceMeters>NAN</DistanceMeters>
          </Trackpoint>
          <Trackpoint>
            <Time>2019-08-01T10:42:15.000Z</Time>
            <Position>
              <LatitudeDegrees>40.56076881475746631622314453125</LatitudeDegrees>
              <LongitudeDegrees>-4.01708752848207950592041015625</LongitudeDegrees>
            </Position>
            <AltitudeMeters>864.79998779296875</AltitudeMeters>
            <DistanceMeters>NAN</DistanceMeters>
          </Trackpoint>
          <Trackpoint>
            <Time>2019-08-01T10:42:16.000Z</Time>
            <Position>
              <LatitudeDegrees>40.5607906915247440338134765625</LatitudeDegrees>
              <LongitudeDegrees>-4.0170480497181415557861328125</LongitudeDegrees>
            </Position>
            <AltitudeMeters>865.20001220703125</AltitudeMeters>
            <DistanceMeters>NAN</DistanceMeters>
          </Trackpoint>
          <Trackpoint>
            <Time>2019-08-01T10:42:17.000Z</Time>
            <Position>
              <LatitudeDegrees>40.56081960909068584442138671875</LatitudeDegrees>
              <LongitudeDegrees>-4.017011336982250213623046875</LongitudeDegrees>
            </Position>
            <AltitudeMeters>865.5999755859375</AltitudeMeters>
            <DistanceMeters>NAN</DistanceMeters>
          </Trackpoint>
          <Trackpoint>
            <Time>2019-08-01T10:42:18.000Z</Time>
            <Position>
              <LatitudeDegrees>40.56085229851305484771728515625</LatitudeDegrees>
              <LongitudeDegrees>-4.01697873137891292572021484375</LongitudeDegrees>
            </Position>
            <AltitudeMeters>865.79998779296875</AltitudeMeters>
            <DistanceMeters>NAN</DistanceMeters>
          </Trackpoint>
          <Trackpoint>
            <Time>2019-08-01T10:42:19.000Z</Time>
            <Position>
              <LatitudeDegrees>40.56088733486831188201904296875</LatitudeDegrees>
              <LongitudeDegrees>-4.01694838888943195343017578125</LongitudeDegrees>
            </Position>
            <AltitudeMeters>866</AltitudeMeters>
            <DistanceMeters>NAN</DistanceMeters>
          </Trackpoint>
          <Trackpoint>
            <Time>2019-08-01T10:42:20.000Z</Time>
            <Position>
              <LatitudeDegrees>40.56092387996613979339599609375</LatitudeDegrees>
              <LongitudeDegrees>-4.0169177949428558349609375</LongitudeDegrees>
            </Position>
            <AltitudeMeters>866.20001220703125</AltitudeMeters>
            <DistanceMeters>NAN</DistanceMeters>
          </Trackpoint>
          <Trackpoint>
            <Time>2019-08-01T10:42:21.000Z</Time>
            <Position>
              <LatitudeDegrees>40.56096042506396770477294921875</LatitudeDegrees>
              <LongitudeDegrees>-4.01688770391047000885009765625</LongitudeDegrees>
            </Position>
            <AltitudeMeters>866.4000244140625</AltitudeMeters>
            <DistanceMeters>NAN</DistanceMeters>
          </Trackpoint>
          <Trackpoint>
            <Time>2019-08-01T10:42:22.000Z</Time>
            <Position>
              <LatitudeDegrees>40.5609977245330810546875</LatitudeDegrees>
              <LongitudeDegrees>-4.01685970835387706756591796875</LongitudeDegrees>
            </Position>
            <AltitudeMeters>866.5999755859375</AltitudeMeters>
            <DistanceMeters>NAN</DistanceMeters>
          </Trackpoint>
          <Trackpoint>
            <Time>2019-08-01T10:42:23.000Z</Time>
            <Position>
              <LatitudeDegrees>40.56103284470736980438232421875</LatitudeDegrees>
              <LongitudeDegrees>-4.016832299530506134033203125</LongitudeDegrees>
            </Position>
            <AltitudeMeters>866.79998779296875</AltitudeMeters>
            <DistanceMeters>NAN</DistanceMeters>
          </Trackpoint>
          <Trackpoint>
            <Time>2019-08-01T10:42:24.000Z</Time>
            <Position>
              <LatitudeDegrees>40.56106771342456340789794921875</LatitudeDegrees>
              <LongitudeDegrees>-4.01680522598326206207275390625</LongitudeDegrees>
            </Position>
            <AltitudeMeters>867</AltitudeMeters>
            <DistanceMeters>NAN</DistanceMeters>
          </Trackpoint>
          <Trackpoint>
            <Time>2019-08-01T10:42:25.000Z</Time>
            <Position>
              <LatitudeDegrees>40.5611050128936767578125</LatitudeDegrees>
              <LongitudeDegrees>-4.0167768113315105438232421875</LongitudeDegrees>
            </Position>
            <AltitudeMeters>867.4000244140625</AltitudeMeters>
            <DistanceMeters>NAN</DistanceMeters>
          </Trackpoint>
          <Trackpoint>
            <Time>2019-08-01T10:42:26.000Z</Time>
            <Position>
              <LatitudeDegrees>40.561140887439250946044921875</LatitudeDegrees>
              <LongitudeDegrees>-4.01674672029912471771240234375</LongitudeDegrees>
            </Position>
            <AltitudeMeters>867.79998779296875</AltitudeMeters>
            <DistanceMeters>NAN</DistanceMeters>
          </Trackpoint>
          <Trackpoint>
            <Time>2019-08-01T10:42:27.000Z</Time>
            <Position>
              <LatitudeDegrees>40.561175085604190826416015625</LatitudeDegrees>
              <LongitudeDegrees>-4.01671319268643856048583984375</LongitudeDegrees>
            </Position>
            <AltitudeMeters>868</AltitudeMeters>
            <DistanceMeters>NAN</DistanceMeters>
          </Trackpoint>
          <Trackpoint>
            <Time>2019-08-01T10:42:28.000Z</Time>
            <Position>
              <LatitudeDegrees>40.56120919995009899139404296875</LatitudeDegrees>
              <LongitudeDegrees>-4.016678072512149810791015625</LongitudeDegrees>
            </Position>
            <AltitudeMeters>868</AltitudeMeters>
            <DistanceMeters>NAN</DistanceMeters>
          </Trackpoint>
          <Trackpoint>
            <Time>2019-08-01T10:42:29.000Z</Time>
            <Position>
              <LatitudeDegrees>40.56124155409634113311767578125</LatitudeDegrees>
              <LongitudeDegrees>-4.0166423656046390533447265625</LongitudeDegrees>
            </Position>
            <AltitudeMeters>868.20001220703125</AltitudeMeters>
            <DistanceMeters>NAN</DistanceMeters>
          </Trackpoint>
          <Trackpoint>
            <Time>2019-08-01T10:42:30.000Z</Time>
            <Position>
              <LatitudeDegrees>40.5612728185951709747314453125</LatitudeDegrees>
              <LongitudeDegrees>-4.0166081674396991729736328125</LongitudeDegrees>
            </Position>
            <AltitudeMeters>868.20001220703125</AltitudeMeters>
            <DistanceMeters>NAN</DistanceMeters>
          </Trackpoint>
          <Trackpoint>
            <Time>2019-08-01T10:42:31.000Z</Time>
            <Position>
              <LatitudeDegrees>40.56129938922822475433349609375</LatitudeDegrees>
              <LongitudeDegrees>-4.01657019741833209991455078125</LongitudeDegrees>
            </Position>
            <AltitudeMeters>868.4000244140625</AltitudeMeters>
            <DistanceMeters>NAN</DistanceMeters>
          </Trackpoint>
          <Trackpoint>
            <Time>2019-08-01T10:42:32.000Z</Time>
            <Position>
              <LatitudeDegrees>40.561321265995502471923828125</LatitudeDegrees>
              <LongitudeDegrees>-4.01652828790247440338134765625</LongitudeDegrees>
            </Position>
            <AltitudeMeters>868.4000244140625</AltitudeMeters>
            <DistanceMeters>NAN</DistanceMeters>
          </Trackpoint>
          <Trackpoint>
            <Time>2019-08-01T10:42:33.000Z</Time>
            <Position>
              <LatitudeDegrees>40.56134129874408245086669921875</LatitudeDegrees>
              <LongitudeDegrees>-4.01648755185306072235107421875</LongitudeDegrees>
            </Position>
            <AltitudeMeters>868.4000244140625</AltitudeMeters>
            <DistanceMeters>NAN</DistanceMeters>
          </Trackpoint>
          <Trackpoint>
            <Time>2019-08-01T10:42:34.000Z</Time>
            <Position>
              <LatitudeDegrees>40.561364181339740753173828125</LatitudeDegrees>
              <LongitudeDegrees>-4.01644178666174411773681640625</LongitudeDegrees>
            </Position>
            <AltitudeMeters>868.4000244140625</AltitudeMeters>
            <DistanceMeters>NAN</DistanceMeters>
          </Trackpoint>
          <Trackpoint>
            <Time>2019-08-01T10:42:35.000Z</Time>
            <Position>
              <LatitudeDegrees>40.56138304062187671661376953125</LatitudeDegrees>
              <LongitudeDegrees>-4.0163996256887912750244140625</LongitudeDegrees>
            </Position>
            <AltitudeMeters>868.5999755859375</AltitudeMeters>
            <DistanceMeters>NAN</DistanceMeters>
          </Trackpoint>
          <Trackpoint>
            <Time>2019-08-01T10:42:36.000Z</Time>
            <Position>
              <LatitudeDegrees>40.5614052526652812957763671875</LatitudeDegrees>
              <LongitudeDegrees>-4.01635930873453617095947265625</LongitudeDegrees>
            </Position>
            <AltitudeMeters>868.79998779296875</AltitudeMeters>
            <DistanceMeters>NAN</DistanceMeters>
          </Trackpoint>
          <Trackpoint>
            <Time>2019-08-01T10:42:37.000Z</Time>
            <Position>
              <LatitudeDegrees>40.56142888963222503662109375</LatitudeDegrees>
              <LongitudeDegrees>-4.01631857268512248992919921875</LongitudeDegrees>
            </Position>
            <AltitudeMeters>869</AltitudeMeters>
            <DistanceMeters>NAN</DistanceMeters>
          </Trackpoint>
          <Trackpoint>
            <Time>2019-08-01T10:42:38.000Z</Time>
            <Position>
              <LatitudeDegrees>40.56145328097045421600341796875</LatitudeDegrees>
              <LongitudeDegrees>-4.0162809379398822784423828125</LongitudeDegrees>
            </Position>
            <AltitudeMeters>869.20001220703125</AltitudeMeters>
            <DistanceMeters>NAN</DistanceMeters>
          </Trackpoint>
          <Trackpoint>
            <Time>2019-08-01T10:42:39.000Z</Time>
            <Position>
              <LatitudeDegrees>40.5614810250699520111083984375</LatitudeDegrees>
              <LongitudeDegrees>-4.01624581776559352874755859375</LongitudeDegrees>
            </Position>
            <AltitudeMeters>869.20001220703125</AltitudeMeters>
            <DistanceMeters>NAN</DistanceMeters>
          </Trackpoint>
          <Trackpoint>
            <Time>2019-08-01T10:42:40.000Z</Time>
            <Position>
              <LatitudeDegrees>40.56151128374040126800537109375</LatitudeDegrees>
              <LongitudeDegrees>-4.01621597819030284881591796875</LongitudeDegrees>
            </Position>
            <AltitudeMeters>869.4000244140625</AltitudeMeters>
            <DistanceMeters>NAN</DistanceMeters>
          </Trackpoint>
          <Trackpoint>
            <Time>2019-08-01T10:42:41.000Z</Time>
            <Position>
              <LatitudeDegrees>40.561545230448246002197265625</LatitudeDegrees>
              <LongitudeDegrees>-4.01618965901434421539306640625</LongitudeDegrees>
            </Position>
            <AltitudeMeters>869.79998779296875</AltitudeMeters>
            <DistanceMeters>NAN</DistanceMeters>
          </Trackpoint>
          <Trackpoint>
            <Time>2019-08-01T10:42:42.000Z</Time>
            <Position>
              <LatitudeDegrees>40.56158244609832763671875</LatitudeDegrees>
              <LongitudeDegrees>-4.01616401039063930511474609375</LongitudeDegrees>
            </Position>
            <AltitudeMeters>870.20001220703125</AltitudeMeters>
            <DistanceMeters>NAN</DistanceMeters>
          </Trackpoint>
          <Trackpoint>
            <Time>2019-08-01T10:42:43.000Z</Time>
            <Position>
              <LatitudeDegrees>40.561619661748409271240234375</LatitudeDegrees>
              <LongitudeDegrees>-4.0161371044814586639404296875</LongitudeDegrees>
            </Position>
            <AltitudeMeters>870.4000244140625</AltitudeMeters>
            <DistanceMeters>NAN</DistanceMeters>
          </Trackpoint>
          <Trackpoint>
            <Time>2019-08-01T10:42:44.000Z</Time>
            <Position>
              <LatitudeDegrees>40.561657212674617767333984375</LatitudeDegrees>
              <LongitudeDegrees>-4.016111791133880615234375</LongitudeDegrees>
            </Position>
            <AltitudeMeters>870.79998779296875</AltitudeMeters>
            <DistanceMeters>NAN</DistanceMeters>
          </Trackpoint>
          <Trackpoint>
            <Time>2019-08-01T10:42:45.000Z</Time>
            <Position>
              <LatitudeDegrees>40.5616964399814605712890625</LatitudeDegrees>
              <LongitudeDegrees>-4.01608538813889026641845703125</LongitudeDegrees>
            </Position>
            <AltitudeMeters>871.20001220703125</AltitudeMeters>
            <DistanceMeters>NAN</DistanceMeters>
          </Trackpoint>
          <Trackpoint>
            <Time>2019-08-01T10:42:46.000Z</Time>
            <Position>
              <LatitudeDegrees>40.56173742748796939849853515625</LatitudeDegrees>
              <LongitudeDegrees>-4.01605621911585330963134765625</LongitudeDegrees>
            </Position>
            <AltitudeMeters>871.4000244140625</AltitudeMeters>
            <DistanceMeters>NAN</DistanceMeters>
          </Trackpoint>
          <Trackpoint>
            <Time>2019-08-01T10:42:47.000Z</Time>
            <Position>
              <LatitudeDegrees>40.56178185157477855682373046875</LatitudeDegrees>
              <LongitudeDegrees>-4.01602554135024547576904296875</LongitudeDegrees>
            </Position>
            <AltitudeMeters>871.79998779296875</AltitudeMeters>
            <DistanceMeters>NAN</DistanceMeters>
          </Trackpoint>
          <Trackpoint>
            <Time>2019-08-01T10:42:48.000Z</Time>
            <Position>
              <LatitudeDegrees>40.56182728148996829986572265625</LatitudeDegrees>
              <LongitudeDegrees>-4.015993438661098480224609375</LongitudeDegrees>
            </Position>
            <AltitudeMeters>872</AltitudeMeters>
            <DistanceMeters>NAN</DistanceMeters>
          </Trackpoint>
          <Trackpoint>
            <Time>2019-08-01T10:42:51.000Z</Time>
            <Position>
              <LatitudeDegrees>40.56196357123553752899169921875</LatitudeDegrees>
              <LongitudeDegrees>-4.01588606648147106170654296875</LongitudeDegrees>
            </Position>
            <AltitudeMeters>872.4000244140625</AltitudeMeters>
            <DistanceMeters>NAN</DistanceMeters>
          </Trackpoint>
          <Trackpoint>
            <Time>2019-08-01T10:42:52.000Z</Time>
            <Position>
              <LatitudeDegrees>40.56200020015239715576171875</LatitudeDegrees>
              <LongitudeDegrees>-4.01583594270050525665283203125</LongitudeDegrees>
            </Position>
            <AltitudeMeters>872.4000244140625</AltitudeMeters>
            <DistanceMeters>NAN</DistanceMeters>
          </Trackpoint>
          <Trackpoint>
            <Time>2019-08-01T10:42:53.000Z</Time>
            <Position>
              <LatitudeDegrees>40.5620332248508930206298828125</LatitudeDegrees>
              <LongitudeDegrees>-4.01577743701636791229248046875</LongitudeDegrees>
            </Position>
            <AltitudeMeters>872.4000244140625</AltitudeMeters>
            <DistanceMeters>NAN</DistanceMeters>
          </Trackpoint>
          <Trackpoint>
            <Time>2019-08-01T10:42:54.000Z</Time>
            <Position>
              <LatitudeDegrees>40.56206432171165943145751953125</LatitudeDegrees>
              <LongitudeDegrees>-4.0157134830951690673828125</LongitudeDegrees>
            </Position>
            <AltitudeMeters>872.4000244140625</AltitudeMeters>
            <DistanceMeters>NAN</DistanceMeters>
          </Trackpoint>
          <Trackpoint>
            <Time>2019-08-01T10:42:55.000Z</Time>
            <Position>
              <LatitudeDegrees>40.56209265254437923431396484375</LatitudeDegrees>
              <LongitudeDegrees>-4.0156492777168750762939453125</LongitudeDegrees>
            </Position>
            <AltitudeMeters>872.5999755859375</AltitudeMeters>
            <DistanceMeters>NAN</DistanceMeters>
          </Trackpoint>
          <Trackpoint>
            <Time>2019-08-01T10:42:58.000Z</Time>
            <Position>
              <LatitudeDegrees>40.5621586181223392486572265625</LatitudeDegrees>
              <LongitudeDegrees>-4.0154437534511089324951171875</LongitudeDegrees>
            </Position>
            <AltitudeMeters>872.5999755859375</AltitudeMeters>
            <DistanceMeters>NAN</DistanceMeters>
          </Trackpoint>
          <Trackpoint>
            <Time>2019-08-01T10:42:59.000Z</Time>
            <Position>
              <LatitudeDegrees>40.5621747113764286041259765625</LatitudeDegrees>
              <LongitudeDegrees>-4.01537292636930942535400390625</LongitudeDegrees>
            </Position>
            <AltitudeMeters>872.5999755859375</AltitudeMeters>
            <DistanceMeters>NAN</DistanceMeters>
          </Trackpoint>
          <Trackpoint>
            <Time>2019-08-01T10:43:00.000Z</Time>
            <Position>
              <LatitudeDegrees>40.56218669749796390533447265625</LatitudeDegrees>
              <LongitudeDegrees>-4.0153004229068756103515625</LongitudeDegrees>
            </Position>
            <AltitudeMeters>872.5999755859375</AltitudeMeters>
            <DistanceMeters>NAN</DistanceMeters>
          </Trackpoint>
          <Trackpoint>
            <Time>2019-08-01T10:43:01.000Z</Time>
            <Position>
              <LatitudeDegrees>40.56220010854303836822509765625</LatitudeDegrees>
              <LongitudeDegrees>-4.0152288414537906646728515625</LongitudeDegrees>
            </Position>
            <AltitudeMeters>872.5999755859375</AltitudeMeters>
            <DistanceMeters>NAN</DistanceMeters>
          </Trackpoint>
          <Trackpoint>
            <Time>2019-08-01T10:43:02.000Z</Time>
            <Position>
              <LatitudeDegrees>40.5622152797877788543701171875</LatitudeDegrees>
              <LongitudeDegrees>-4.01515784673392772674560546875</LongitudeDegrees>
            </Position>
            <AltitudeMeters>872.5999755859375</AltitudeMeters>
            <DistanceMeters>NAN</DistanceMeters>
          </Trackpoint>
          <Trackpoint>
            <Time>2019-08-01T10:43:03.000Z</Time>
            <Position>
              <LatitudeDegrees>40.56223330087959766387939453125</LatitudeDegrees>
              <LongitudeDegrees>-4.01508785784244537353515625</LongitudeDegrees>
            </Position>
            <AltitudeMeters>872.5999755859375</AltitudeMeters>
            <DistanceMeters>NAN</DistanceMeters>
          </Trackpoint>
          <Trackpoint>
            <Time>2019-08-01T10:43:04.000Z</Time>
            <Position>
              <LatitudeDegrees>40.5622581951320171356201171875</LatitudeDegrees>
              <LongitudeDegrees>-4.01502340100705623626708984375</LongitudeDegrees>
            </Position>
            <AltitudeMeters>872.5999755859375</AltitudeMeters>
            <DistanceMeters>NAN</DistanceMeters>
          </Trackpoint>
          <Trackpoint>
            <Time>2019-08-01T10:43:05.000Z</Time>
            <Position>
              <LatitudeDegrees>40.56228828616440296173095703125</LatitudeDegrees>
              <LongitudeDegrees>-4.0149633027613162994384765625</LongitudeDegrees>
            </Position>
            <AltitudeMeters>872.5999755859375</AltitudeMeters>
            <DistanceMeters>NAN</DistanceMeters>
          </Trackpoint>
          <Trackpoint>
            <Time>2019-08-01T10:43:06.000Z</Time>
            <Position>
              <LatitudeDegrees>40.5623249150812625885009765625</LatitudeDegrees>
              <LongitudeDegrees>-4.0149061381816864013671875</LongitudeDegrees>
            </Position>
            <AltitudeMeters>872.5999755859375</AltitudeMeters>
            <DistanceMeters>NAN</DistanceMeters>
          </Trackpoint>
          <Trackpoint>
            <Time>2019-08-01T10:43:07.000Z</Time>
            <Position>
              <LatitudeDegrees>40.5623601190745830535888671875</LatitudeDegrees>
              <LongitudeDegrees>-4.01485442183911800384521484375</LongitudeDegrees>
            </Position>
            <AltitudeMeters>872.5999755859375</AltitudeMeters>
            <DistanceMeters>NAN</DistanceMeters>
          </Trackpoint>
          <Trackpoint>
            <Time>2019-08-01T10:43:08.000Z</Time>
            <Position>
              <LatitudeDegrees>40.56239582598209381103515625</LatitudeDegrees>
              <LongitudeDegrees>-4.01480245403945446014404296875</LongitudeDegrees>
            </Position>
            <AltitudeMeters>872.5999755859375</AltitudeMeters>
            <DistanceMeters>NAN</DistanceMeters>
          </Trackpoint>
          <Trackpoint>
            <Time>2019-08-01T10:43:09.000Z</Time>
            <Position>
              <LatitudeDegrees>40.56243211962282657623291015625</LatitudeDegrees>
              <LongitudeDegrees>-4.014749228954315185546875</LongitudeDegrees>
            </Position>
            <AltitudeMeters>872.79998779296875</AltitudeMeters>
            <DistanceMeters>NAN</DistanceMeters>
          </Trackpoint>
          <Trackpoint>
            <Time>2019-08-01T10:43:10.000Z</Time>
            <Position>
              <LatitudeDegrees>40.56246732361614704132080078125</LatitudeDegrees>
              <LongitudeDegrees>-4.0146950818598270416259765625</LongitudeDegrees>
            </Position>
            <AltitudeMeters>872.79998779296875</AltitudeMeters>
            <DistanceMeters>NAN</DistanceMeters>
          </Trackpoint>
          <Trackpoint>
            <Time>2019-08-01T10:43:11.000Z</Time>
            <Position>
              <LatitudeDegrees>40.5624985881149768829345703125</LatitudeDegrees>
              <LongitudeDegrees>-4.0146377496421337127685546875</LongitudeDegrees>
            </Position>
            <AltitudeMeters>873</AltitudeMeters>
            <DistanceMeters>NAN</DistanceMeters>
          </Trackpoint>
          <Trackpoint>
            <Time>2019-08-01T10:43:12.000Z</Time>
            <Position>
              <LatitudeDegrees>40.5625240691006183624267578125</LatitudeDegrees>
              <LongitudeDegrees>-4.01457614265382289886474609375</LongitudeDegrees>
            </Position>
            <AltitudeMeters>873.20001220703125</AltitudeMeters>
            <DistanceMeters>NAN</DistanceMeters>
          </Trackpoint>
          <Trackpoint>
            <Time>2019-08-01T10:43:13.000Z</Time>
            <Position>
              <LatitudeDegrees>40.56254200637340545654296875</LatitudeDegrees>
              <LongitudeDegrees>-4.0145126916468143463134765625</LongitudeDegrees>
            </Position>
            <AltitudeMeters>873.20001220703125</AltitudeMeters>
            <DistanceMeters>NAN</DistanceMeters>
          </Trackpoint>
          <Trackpoint>
            <Time>2019-08-01T10:43:14.000Z</Time>
            <Position>
              <LatitudeDegrees>40.56256153620779514312744140625</LatitudeDegrees>
              <LongitudeDegrees>-4.014454185962677001953125</LongitudeDegrees>
            </Position>
            <AltitudeMeters>873.4000244140625</AltitudeMeters>
            <DistanceMeters>NAN</DistanceMeters>
          </Trackpoint>
          <Trackpoint>
            <Time>2019-08-01T10:43:15.000Z</Time>
            <Position>
              <LatitudeDegrees>40.5625867657363414764404296875</LatitudeDegrees>
              <LongitudeDegrees>-4.014405906200408935546875</LongitudeDegrees>
            </Position>
            <AltitudeMeters>873.5999755859375</AltitudeMeters>
            <DistanceMeters>NAN</DistanceMeters>
          </Trackpoint>
          <Trackpoint>
            <Time>2019-08-01T10:43:16.000Z</Time>
            <Position>
              <LatitudeDegrees>40.56261752732098102569580078125</LatitudeDegrees>
              <LongitudeDegrees>-4.0143722109496593475341796875</LongitudeDegrees>
            </Position>
            <AltitudeMeters>873.79998779296875</AltitudeMeters>
            <DistanceMeters>NAN</DistanceMeters>
          </Trackpoint>
          <Trackpoint>
            <Time>2019-08-01T10:43:17.000Z</Time>
            <Position>
              <LatitudeDegrees>40.562654994428157806396484375</LatitudeDegrees>
              <LongitudeDegrees>-4.014357626438140869140625</LongitudeDegrees>
            </Position>
            <AltitudeMeters>874</AltitudeMeters>
            <DistanceMeters>NAN</DistanceMeters>
          </Trackpoint>
          <Trackpoint>
            <Time>2019-08-01T10:43:18.000Z</Time>
            <Position>
              <LatitudeDegrees>40.56269631721079349517822265625</LatitudeDegrees>
              <LongitudeDegrees>-4.01435720734298229217529296875</LongitudeDegrees>
            </Position>
            <AltitudeMeters>874.20001220703125</AltitudeMeters>
            <DistanceMeters>NAN</DistanceMeters>
          </Trackpoint>
          <Trackpoint>
            <Time>2019-08-01T10:43:19.000Z</Time>
            <Position>
              <LatitudeDegrees>40.56274853646755218505859375</LatitudeDegrees>
              <LongitudeDegrees>-4.014362655580043792724609375</LongitudeDegrees>
            </Position>
            <AltitudeMeters>874.4000244140625</AltitudeMeters>
            <DistanceMeters>NAN</DistanceMeters>
          </Trackpoint>
          <Trackpoint>
            <Time>2019-08-01T10:43:20.000Z</Time>
            <Position>
              <LatitudeDegrees>40.5628013424575328826904296875</LatitudeDegrees>
              <LongitudeDegrees>-4.01436290703713893890380859375</LongitudeDegrees>
            </Position>
            <AltitudeMeters>874.4000244140625</AltitudeMeters>
            <DistanceMeters>NAN</DistanceMeters>
          </Trackpoint>
          <Trackpoint>
            <Time>2019-08-01T10:43:21.000Z</Time>
            <Position>
              <LatitudeDegrees>40.5628556571900844573974609375</LatitudeDegrees>
              <LongitudeDegrees>-4.01435150764882564544677734375</LongitudeDegrees>
            </Position>
            <AltitudeMeters>874.5999755859375</AltitudeMeters>
            <DistanceMeters>NAN</DistanceMeters>
          </Trackpoint>
          <Trackpoint>
            <Time>2019-08-01T10:43:22.000Z</Time>
            <Position>
              <LatitudeDegrees>40.5628556571900844573974609375</LatitudeDegrees>
              <LongitudeDegrees>-4.01435150764882564544677734375</LongitudeDegrees>
            </Position>
            <AltitudeMeters>874.79998779296875</AltitudeMeters>
            <DistanceMeters>NAN</DistanceMeters>
          </Trackpoint>
          <Trackpoint>
            <Time>2019-08-01T10:43:23.000Z</Time>
            <Position>
              <LatitudeDegrees>40.56295816786587238311767578125</LatitudeDegrees>
              <LongitudeDegrees>-4.014302976429462432861328125</LongitudeDegrees>
            </Position>
            <AltitudeMeters>875.20001220703125</AltitudeMeters>
            <DistanceMeters>NAN</DistanceMeters>
          </Trackpoint>
          <Trackpoint>
            <Time>2019-08-01T10:43:24.000Z</Time>
            <Position>
              <LatitudeDegrees>40.56300929747521877288818359375</LatitudeDegrees>
              <LongitudeDegrees>-4.01427808217704296112060546875</LongitudeDegrees>
            </Position>
            <AltitudeMeters>875.5999755859375</AltitudeMeters>
            <DistanceMeters>NAN</DistanceMeters>
          </Trackpoint>
          <Trackpoint>
            <Time>2019-08-01T10:43:25.000Z</Time>
            <Position>
              <LatitudeDegrees>40.56306595914065837860107421875</LatitudeDegrees>
              <LongitudeDegrees>-4.0142518468201160430908203125</LongitudeDegrees>
            </Position>
            <AltitudeMeters>875.79998779296875</AltitudeMeters>
            <DistanceMeters>NAN</DistanceMeters>
          </Trackpoint>
          <Trackpoint>
            <Time>2019-08-01T10:43:26.000Z</Time>
            <Position>
              <LatitudeDegrees>40.5631171725690364837646484375</LatitudeDegrees>
              <LongitudeDegrees>-4.01422661729156970977783203125</LongitudeDegrees>
            </Position>
            <AltitudeMeters>876.20001220703125</AltitudeMeters>
            <DistanceMeters>NAN</DistanceMeters>
          </Trackpoint>
          <Trackpoint>
            <Time>2019-08-01T10:43:27.000Z</Time>
            <Position>
              <LatitudeDegrees>40.5631681345403194427490234375</LatitudeDegrees>
              <LongitudeDegrees>-4.014202058315277099609375</LongitudeDegrees>
            </Position>
            <AltitudeMeters>876.4000244140625</AltitudeMeters>
            <DistanceMeters>NAN</DistanceMeters>
          </Trackpoint>
          <Trackpoint>
            <Time>2019-08-01T10:43:28.000Z</Time>
            <Position>
              <LatitudeDegrees>40.56321934796869754791259765625</LatitudeDegrees>
              <LongitudeDegrees>-4.014178924262523651123046875</LongitudeDegrees>
            </Position>
            <AltitudeMeters>876.4000244140625</AltitudeMeters>
            <DistanceMeters>NAN</DistanceMeters>
          </Trackpoint>
          <Trackpoint>
            <Time>2019-08-01T10:43:29.000Z</Time>
            <Position>
              <LatitudeDegrees>40.56326930411159992218017578125</LatitudeDegrees>
              <LongitudeDegrees>-4.01415369473397731781005859375</LongitudeDegrees>
            </Position>
            <AltitudeMeters>876.5999755859375</AltitudeMeters>
            <DistanceMeters>NAN</DistanceMeters>
          </Trackpoint>
          <Trackpoint>
            <Time>2019-08-01T10:43:30.000Z</Time>
            <Position>
              <LatitudeDegrees>40.563319511711597442626953125</LatitudeDegrees>
              <LongitudeDegrees>-4.0141257829964160919189453125</LongitudeDegrees>
            </Position>
            <AltitudeMeters>876.5999755859375</AltitudeMeters>
            <DistanceMeters>NAN</DistanceMeters>
          </Trackpoint>
          <Trackpoint>
            <Time>2019-08-01T10:43:31.000Z</Time>
            <Position>
              <LatitudeDegrees>40.563319511711597442626953125</LatitudeDegrees>
              <LongitudeDegrees>-4.0141257829964160919189453125</LongitudeDegrees>
            </Position>
            <AltitudeMeters>876.5999755859375</AltitudeMeters>
            <DistanceMeters>NAN</DistanceMeters>
          </Trackpoint>
          <Trackpoint>
            <Time>2019-08-01T10:43:32.000Z</Time>
            <Position>
              <LatitudeDegrees>40.56341372430324554443359375</LatitudeDegrees>
              <LongitudeDegrees>-4.0140738151967525482177734375</LongitudeDegrees>
            </Position>
            <AltitudeMeters>876.79998779296875</AltitudeMeters>
            <DistanceMeters>NAN</DistanceMeters>
          </Trackpoint>
          <Trackpoint>
            <Time>2019-08-01T10:43:33.000Z</Time>
            <Position>
              <LatitudeDegrees>40.5634564720094203948974609375</LatitudeDegrees>
              <LongitudeDegrees>-4.01404992677271366119384765625</LongitudeDegrees>
            </Position>
            <AltitudeMeters>877</AltitudeMeters>
            <DistanceMeters>NAN</DistanceMeters>
          </Trackpoint>
          <Trackpoint>
            <Time>2019-08-01T10:43:34.000Z</Time>
            <Position>
              <LatitudeDegrees>40.56350097991526126861572265625</LatitudeDegrees>
              <LongitudeDegrees>-4.014028720557689666748046875</LongitudeDegrees>
            </Position>
            <AltitudeMeters>877.20001220703125</AltitudeMeters>
            <DistanceMeters>NAN</DistanceMeters>
          </Trackpoint>
          <Trackpoint>
            <Time>2019-08-01T10:43:35.000Z</Time>
            <Position>
              <LatitudeDegrees>40.56354389525949954986572265625</LatitudeDegrees>
              <LongitudeDegrees>-4.01400734670460224151611328125</LongitudeDegrees>
            </Position>
            <AltitudeMeters>877.20001220703125</AltitudeMeters>
            <DistanceMeters>NAN</DistanceMeters>
          </Trackpoint>
          <Trackpoint>
            <Time>2019-08-01T10:43:36.000Z</Time>
            <Position>
              <LatitudeDegrees>40.56358681060373783111572265625</LatitudeDegrees>
              <LongitudeDegrees>-4.01398588903248310089111328125</LongitudeDegrees>
            </Position>
            <AltitudeMeters>877.4000244140625</AltitudeMeters>
            <DistanceMeters>NAN</DistanceMeters>
          </Trackpoint>
          <Trackpoint>
            <Time>2019-08-01T10:43:37.000Z</Time>
            <Position>
              <LatitudeDegrees>40.56362955830991268157958984375</LatitudeDegrees>
              <LongitudeDegrees>-4.013966023921966552734375</LongitudeDegrees>
            </Position>
            <AltitudeMeters>877.4000244140625</AltitudeMeters>
            <DistanceMeters>NAN</DistanceMeters>
          </Trackpoint>
          <Trackpoint>
            <Time>2019-08-01T10:43:38.000Z</Time>
            <Position>
              <LatitudeDegrees>40.5636717192828655242919921875</LatitudeDegrees>
              <LongitudeDegrees>-4.013944230973720550537109375</LongitudeDegrees>
            </Position>
            <AltitudeMeters>877.5999755859375</AltitudeMeters>
            <DistanceMeters>NAN</DistanceMeters>
          </Trackpoint>
          <Trackpoint>
            <Time>2019-08-01T10:43:39.000Z</Time>
            <Position>
              <LatitudeDegrees>40.563712455332279205322265625</LatitudeDegrees>
              <LongitudeDegrees>-4.01392168365418910980224609375</LongitudeDegrees>
            </Position>
            <AltitudeMeters>878</AltitudeMeters>
            <DistanceMeters>NAN</DistanceMeters>
          </Trackpoint>
          <Trackpoint>
            <Time>2019-08-01T10:43:40.000Z</Time>
            <Position>
              <LatitudeDegrees>40.56375243701040744781494140625</LatitudeDegrees>
              <LongitudeDegrees>-4.0139003098011016845703125</LongitudeDegrees>
            </Position>
            <AltitudeMeters>878.20001220703125</AltitudeMeters>
            <DistanceMeters>NAN</DistanceMeters>
          </Trackpoint>
          <Trackpoint>
            <Time>2019-08-01T10:43:41.000Z</Time>
            <Position>
              <LatitudeDegrees>40.56375243701040744781494140625</LatitudeDegrees>
              <LongitudeDegrees>-4.0139003098011016845703125</LongitudeDegrees>
            </Position>
            <AltitudeMeters>878.5999755859375</AltitudeMeters>
            <DistanceMeters>NAN</DistanceMeters>
          </Trackpoint>
          <Trackpoint>
            <Time>2019-08-01T10:43:42.000Z</Time>
            <Position>
              <LatitudeDegrees>40.56375243701040744781494140625</LatitudeDegrees>
              <LongitudeDegrees>-4.0139003098011016845703125</LongitudeDegrees>
            </Position>
            <AltitudeMeters>878.79998779296875</AltitudeMeters>
            <DistanceMeters>NAN</DistanceMeters>
          </Trackpoint>
          <Trackpoint>
            <Time>2019-08-01T10:43:43.000Z</Time>
            <Position>
              <LatitudeDegrees>40.56389258243143558502197265625</LatitudeDegrees>
              <LongitudeDegrees>-4.0138451568782329559326171875</LongitudeDegrees>
            </Position>
            <AltitudeMeters>879</AltitudeMeters>
            <DistanceMeters>NAN</DistanceMeters>
          </Trackpoint>
          <Trackpoint>
            <Time>2019-08-01T10:43:44.000Z</Time>
            <Position>
              <LatitudeDegrees>40.56394086219370365142822265625</LatitudeDegrees>
              <LongitudeDegrees>-4.01383283548057079315185546875</LongitudeDegrees>
            </Position>
            <AltitudeMeters>879.4000244140625</AltitudeMeters>
            <DistanceMeters>NAN</DistanceMeters>
          </Trackpoint>
          <Trackpoint>
            <Time>2019-08-01T10:43:45.000Z</Time>
            <Position>
              <LatitudeDegrees>40.56399039924144744873046875</LatitudeDegrees>
              <LongitudeDegrees>-4.01382386684417724609375</LongitudeDegrees>
            </Position>
            <AltitudeMeters>879.79998779296875</AltitudeMeters>
            <DistanceMeters>NAN</DistanceMeters>
          </Trackpoint>
          <Trackpoint>
            <Time>2019-08-01T10:43:46.000Z</Time>
            <Position>
              <LatitudeDegrees>40.56403993628919124603271484375</LatitudeDegrees>
              <LongitudeDegrees>-4.01381690986454486846923828125</LongitudeDegrees>
            </Position>
            <AltitudeMeters>880.20001220703125</AltitudeMeters>
            <DistanceMeters>NAN</DistanceMeters>
          </Trackpoint>
          <Trackpoint>
            <Time>2019-08-01T10:43:47.000Z</Time>
            <Position>
              <LatitudeDegrees>40.5640884675085544586181640625</LatitudeDegrees>
              <LongitudeDegrees>-4.0138117969036102294921875</LongitudeDegrees>
            </Position>
            <AltitudeMeters>880.4000244140625</AltitudeMeters>
            <DistanceMeters>NAN</DistanceMeters>
          </Trackpoint>
          <Trackpoint>
            <Time>2019-08-01T10:43:48.000Z</Time>
            <Position>
              <LatitudeDegrees>40.56413817219436168670654296875</LatitudeDegrees>
              <LongitudeDegrees>-4.0138079412281513214111328125</LongitudeDegrees>
            </Position>
            <AltitudeMeters>880.79998779296875</AltitudeMeters>
            <DistanceMeters>NAN</DistanceMeters>
          </Trackpoint>
          <Trackpoint>
            <Time>2019-08-01T10:43:49.000Z</Time>
            <Position>
              <LatitudeDegrees>40.56413817219436168670654296875</LatitudeDegrees>
              <LongitudeDegrees>-4.0138079412281513214111328125</LongitudeDegrees>
            </Position>
            <AltitudeMeters>881</AltitudeMeters>
            <DistanceMeters>NAN</DistanceMeters>
          </Trackpoint>
          <Trackpoint>
            <Time>2019-08-01T10:43:50.000Z</Time>
            <Position>
              <LatitudeDegrees>40.5642364919185638427734375</LatitudeDegrees>
              <LongitudeDegrees>-4.01380081661045551300048828125</LongitudeDegrees>
            </Position>
            <AltitudeMeters>881</AltitudeMeters>
            <DistanceMeters>NAN</DistanceMeters>
          </Trackpoint>
          <Trackpoint>
            <Time>2019-08-01T10:43:51.000Z</Time>
            <Position>
              <LatitudeDegrees>40.56428552605211734771728515625</LatitudeDegrees>
              <LongitudeDegrees>-4.01379712857306003570556640625</LongitudeDegrees>
            </Position>
            <AltitudeMeters>881.20001220703125</AltitudeMeters>
            <DistanceMeters>NAN</DistanceMeters>
          </Trackpoint>
          <Trackpoint>
            <Time>2019-08-01T10:43:52.000Z</Time>
            <Position>
              <LatitudeDegrees>40.5643345601856708526611328125</LatitudeDegrees>
              <LongitudeDegrees>-4.01379193179309368133544921875</LongitudeDegrees>
            </Position>
            <AltitudeMeters>881.20001220703125</AltitudeMeters>
            <DistanceMeters>NAN</DistanceMeters>
          </Trackpoint>
          <Trackpoint>
            <Time>2019-08-01T10:43:53.000Z</Time>
            <Position>
              <LatitudeDegrees>40.56438376195728778839111328125</LatitudeDegrees>
              <LongitudeDegrees>-4.01378698647022247314453125</LongitudeDegrees>
            </Position>
            <AltitudeMeters>881.4000244140625</AltitudeMeters>
            <DistanceMeters>NAN</DistanceMeters>
          </Trackpoint>
          <Trackpoint>
            <Time>2019-08-01T10:43:54.000Z</Time>
            <Position>
              <LatitudeDegrees>40.56442969478666782379150390625</LatitudeDegrees>
              <LongitudeDegrees>-4.01378371752798557281494140625</LongitudeDegrees>
            </Position>
            <AltitudeMeters>881.5999755859375</AltitudeMeters>
            <DistanceMeters>NAN</DistanceMeters>
          </Trackpoint>
          <Trackpoint>
            <Time>2019-08-01T10:43:55.000Z</Time>
            <Position>
              <LatitudeDegrees>40.56447646580636501312255859375</LatitudeDegrees>
              <LongitudeDegrees>-4.0137796103954315185546875</LongitudeDegrees>
            </Position>
            <AltitudeMeters>882</AltitudeMeters>
            <DistanceMeters>NAN</DistanceMeters>
          </Trackpoint>
          <Trackpoint>
            <Time>2019-08-01T10:43:56.000Z</Time>
            <Position>
              <LatitudeDegrees>40.56452256627380847930908203125</LatitudeDegrees>
              <LongitudeDegrees>-4.01377491652965545654296875</LongitudeDegrees>
            </Position>
            <AltitudeMeters>882.20001220703125</AltitudeMeters>
            <DistanceMeters>NAN</DistanceMeters>
          </Trackpoint>
          <Trackpoint>
            <Time>2019-08-01T10:43:57.000Z</Time>
            <Position>
              <LatitudeDegrees>40.56456749327480792999267578125</LatitudeDegrees>
              <LongitudeDegrees>-4.0137697197496891021728515625</LongitudeDegrees>
            </Position>
            <AltitudeMeters>882.4000244140625</AltitudeMeters>
            <DistanceMeters>NAN</DistanceMeters>
          </Trackpoint>
          <Trackpoint>
            <Time>2019-08-01T10:43:58.000Z</Time>
            <Position>
              <LatitudeDegrees>40.5646146833896636962890625</LatitudeDegrees>
              <LongitudeDegrees>-4.0137673728168010711669921875</LongitudeDegrees>
            </Position>
            <AltitudeMeters>882.5999755859375</AltitudeMeters>
            <DistanceMeters>NAN</DistanceMeters>
          </Trackpoint>
          <Trackpoint>
            <Time>2019-08-01T10:43:59.000Z</Time>
            <Position>
              <LatitudeDegrees>40.5646621249616146087646484375</LatitudeDegrees>
              <LongitudeDegrees>-4.01376745663583278656005859375</LongitudeDegrees>
            </Position>
            <AltitudeMeters>882.5999755859375</AltitudeMeters>
            <DistanceMeters>NAN</DistanceMeters>
          </Trackpoint>
          <Trackpoint>
            <Time>2019-08-01T10:44:00.000Z</Time>
            <Position>
              <LatitudeDegrees>40.564708895981311798095703125</LatitudeDegrees>
              <LongitudeDegrees>-4.013764522969722747802734375</LongitudeDegrees>
            </Position>
            <AltitudeMeters>882.5999755859375</AltitudeMeters>
            <DistanceMeters>NAN</DistanceMeters>
          </Trackpoint>
          <Trackpoint>
            <Time>2019-08-01T10:44:01.000Z</Time>
            <Position>
              <LatitudeDegrees>40.56475524790585041046142578125</LatitudeDegrees>
              <LongitudeDegrees>-4.0137589909136295318603515625</LongitudeDegrees>
            </Position>
            <AltitudeMeters>882.79998779296875</AltitudeMeters>
            <DistanceMeters>NAN</DistanceMeters>
          </Trackpoint>
          <Trackpoint>
            <Time>2019-08-01T10:44:02.000Z</Time>
            <Position>
              <LatitudeDegrees>40.56480042636394500732421875</LatitudeDegrees>
              <LongitudeDegrees>-4.013753123581409454345703125</LongitudeDegrees>
            </Position>
            <AltitudeMeters>882.79998779296875</AltitudeMeters>
            <DistanceMeters>NAN</DistanceMeters>
          </Trackpoint>
          <Trackpoint>
            <Time>2019-08-01T10:44:03.000Z</Time>
            <Position>
              <LatitudeDegrees>40.5648453533649444580078125</LatitudeDegrees>
              <LongitudeDegrees>-4.013751111924648284912109375</LongitudeDegrees>
            </Position>
            <AltitudeMeters>882.79998779296875</AltitudeMeters>
            <DistanceMeters>NAN</DistanceMeters>
          </Trackpoint>
          <Trackpoint>
            <Time>2019-08-01T10:44:04.000Z</Time>
            <Position>
              <LatitudeDegrees>40.56488751433789730072021484375</LatitudeDegrees>
              <LongitudeDegrees>-4.0137496031820774078369140625</LongitudeDegrees>
            </Position>
            <AltitudeMeters>883</AltitudeMeters>
            <DistanceMeters>NAN</DistanceMeters>
          </Trackpoint>
          <Trackpoint>
            <Time>2019-08-01T10:44:05.000Z</Time>
            <Position>
              <LatitudeDegrees>40.56493529118597507476806640625</LatitudeDegrees>
              <LongitudeDegrees>-4.01374884881079196929931640625</LongitudeDegrees>
            </Position>
            <AltitudeMeters>883</AltitudeMeters>
            <DistanceMeters>NAN</DistanceMeters>
          </Trackpoint>
          <Trackpoint>
            <Time>2019-08-01T10:44:06.000Z</Time>
            <Position>
              <LatitudeDegrees>40.56498206220567226409912109375</LatitudeDegrees>
              <LongitudeDegrees>-4.01374683715403079986572265625</LongitudeDegrees>
            </Position>
            <AltitudeMeters>883.20001220703125</AltitudeMeters>
            <DistanceMeters>NAN</DistanceMeters>
          </Trackpoint>
          <Trackpoint>
            <Time>2019-08-01T10:44:07.000Z</Time>
            <Position>
              <LatitudeDegrees>40.56502782739698886871337890625</LatitudeDegrees>
              <LongitudeDegrees>-4.0137428976595401763916015625</LongitudeDegrees>
            </Position>
            <AltitudeMeters>883.20001220703125</AltitudeMeters>
            <DistanceMeters>NAN</DistanceMeters>
          </Trackpoint>
          <Trackpoint>
            <Time>2019-08-01T10:44:08.000Z</Time>
            <Position>
              <LatitudeDegrees>40.56507359258830547332763671875</LatitudeDegrees>
              <LongitudeDegrees>-4.0137398801743984222412109375</LongitudeDegrees>
            </Position>
            <AltitudeMeters>883.5999755859375</AltitudeMeters>
            <DistanceMeters>NAN</DistanceMeters>
          </Trackpoint>
          <Trackpoint>
            <Time>2019-08-01T10:44:09.000Z</Time>
            <Position>
              <LatitudeDegrees>40.56511751376092433929443359375</LatitudeDegrees>
              <LongitudeDegrees>-4.01373711414635181427001953125</LongitudeDegrees>
            </Position>
            <AltitudeMeters>884</AltitudeMeters>
            <DistanceMeters>NAN</DistanceMeters>
          </Trackpoint>
          <Trackpoint>
            <Time>2019-08-01T10:44:10.000Z</Time>
            <Position>
              <LatitudeDegrees>40.56516160257160663604736328125</LatitudeDegrees>
              <LongitudeDegrees>-4.013733677566051483154296875</LongitudeDegrees>
            </Position>
            <AltitudeMeters>884.5999755859375</AltitudeMeters>
            <DistanceMeters>NAN</DistanceMeters>
          </Trackpoint>
          <Trackpoint>
            <Time>2019-08-01T10:44:11.000Z</Time>
            <Position>
              <LatitudeDegrees>40.56520543992519378662109375</LatitudeDegrees>
              <LongitudeDegrees>-4.01373066008090972900390625</LongitudeDegrees>
            </Position>
            <AltitudeMeters>884.79998779296875</AltitudeMeters>
            <DistanceMeters>NAN</DistanceMeters>
          </Trackpoint>
          <Trackpoint>
            <Time>2019-08-01T10:44:12.000Z</Time>
            <Position>
              <LatitudeDegrees>40.565248019993305206298828125</LatitudeDegrees>
              <LongitudeDegrees>-4.01372931897640228271484375</LongitudeDegrees>
            </Position>
            <AltitudeMeters>885.20001220703125</AltitudeMeters>
            <DistanceMeters>NAN</DistanceMeters>
          </Trackpoint>
          <Trackpoint>
            <Time>2019-08-01T10:44:13.000Z</Time>
            <Position>
              <LatitudeDegrees>40.5652914382517337799072265625</LatitudeDegrees>
              <LongitudeDegrees>-4.01372906751930713653564453125</LongitudeDegrees>
            </Position>
            <AltitudeMeters>885.4000244140625</AltitudeMeters>
            <DistanceMeters>NAN</DistanceMeters>
          </Trackpoint>
          <Trackpoint>
            <Time>2019-08-01T10:44:14.000Z</Time>
            <Position>
              <LatitudeDegrees>40.565334521234035491943359375</LatitudeDegrees>
              <LongitudeDegrees>-4.0137291513383388519287109375</LongitudeDegrees>
            </Position>
            <AltitudeMeters>885.5999755859375</AltitudeMeters>
            <DistanceMeters>NAN</DistanceMeters>
          </Trackpoint>
          <Trackpoint>
            <Time>2019-08-01T10:44:15.000Z</Time>
            <Position>
              <LatitudeDegrees>40.56537651456892490386962890625</LatitudeDegrees>
              <LongitudeDegrees>-4.01372588239610195159912109375</LongitudeDegrees>
            </Position>
            <AltitudeMeters>885.79998779296875</AltitudeMeters>
            <DistanceMeters>NAN</DistanceMeters>
          </Trackpoint>
          <Trackpoint>
            <Time>2019-08-01T10:44:16.000Z</Time>
            <Position>
              <LatitudeDegrees>40.56541674770414829254150390625</LatitudeDegrees>
              <LongitudeDegrees>-4.01370811276137828826904296875</LongitudeDegrees>
            </Position>
            <AltitudeMeters>886</AltitudeMeters>
            <DistanceMeters>NAN</DistanceMeters>
          </Trackpoint>
          <Trackpoint>
            <Time>2019-08-01T10:44:17.000Z</Time>
            <Position>
              <LatitudeDegrees>40.56545061059296131134033203125</LatitudeDegrees>
              <LongitudeDegrees>-4.0136815421283245086669921875</LongitudeDegrees>
            </Position>
            <AltitudeMeters>886</AltitudeMeters>
            <DistanceMeters>NAN</DistanceMeters>
          </Trackpoint>
          <Trackpoint>
            <Time>2019-08-01T10:44:18.000Z</Time>
            <Position>
              <LatitudeDegrees>40.56547894142568111419677734375</LatitudeDegrees>
              <LongitudeDegrees>-4.01365111581981182098388671875</LongitudeDegrees>
            </Position>
            <AltitudeMeters>886.20001220703125</AltitudeMeters>
            <DistanceMeters>NAN</DistanceMeters>
          </Trackpoint>
          <Trackpoint>
            <Time>2019-08-01T10:44:19.000Z</Time>
            <Position>
              <LatitudeDegrees>40.56550241075456142425537109375</LatitudeDegrees>
              <LongitudeDegrees>-4.01361658237874507904052734375</LongitudeDegrees>
            </Position>
            <AltitudeMeters>886.20001220703125</AltitudeMeters>
            <DistanceMeters>NAN</DistanceMeters>
          </Trackpoint>
          <Trackpoint>
            <Time>2019-08-01T10:44:20.000Z</Time>
            <Position>
              <LatitudeDegrees>40.5655239522457122802734375</LatitudeDegrees>
              <LongitudeDegrees>-4.013576768338680267333984375</LongitudeDegrees>
            </Position>
            <AltitudeMeters>886.20001220703125</AltitudeMeters>
            <DistanceMeters>NAN</DistanceMeters>
          </Trackpoint>
          <Trackpoint>
            <Time>2019-08-01T10:44:21.000Z</Time>
            <Position>
              <LatitudeDegrees>40.5655489303171634674072265625</LatitudeDegrees>
              <LongitudeDegrees>-4.013536870479583740234375</LongitudeDegrees>
            </Position>
            <AltitudeMeters>886.5999755859375</AltitudeMeters>
            <DistanceMeters>NAN</DistanceMeters>
          </Trackpoint>
          <Trackpoint>
            <Time>2019-08-01T10:44:22.000Z</Time>
            <Position>
              <LatitudeDegrees>40.565579272806644439697265625</LatitudeDegrees>
              <LongitudeDegrees>-4.01350594125688076019287109375</LongitudeDegrees>
            </Position>
            <AltitudeMeters>887</AltitudeMeters>
            <DistanceMeters>NAN</DistanceMeters>
          </Trackpoint>
          <Trackpoint>
            <Time>2019-08-01T10:44:23.000Z</Time>
            <Position>
              <LatitudeDegrees>40.5656178295612335205078125</LatitudeDegrees>
              <LongitudeDegrees>-4.0134864114224910736083984375</LongitudeDegrees>
            </Position>
            <AltitudeMeters>887.20001220703125</AltitudeMeters>
            <DistanceMeters>NAN</DistanceMeters>
          </Trackpoint>
          <Trackpoint>
            <Time>2019-08-01T10:44:24.000Z</Time>
            <Position>
              <LatitudeDegrees>40.5656602419912815093994140625</LatitudeDegrees>
              <LongitudeDegrees>-4.0134817175567150115966796875</LongitudeDegrees>
            </Position>
            <AltitudeMeters>887.5999755859375</AltitudeMeters>
            <DistanceMeters>NAN</DistanceMeters>
          </Trackpoint>
          <Trackpoint>
            <Time>2019-08-01T10:44:25.000Z</Time>
            <Position>
              <LatitudeDegrees>40.56570441462099552154541015625</LatitudeDegrees>
              <LongitudeDegrees>-4.01349001564085483551025390625</LongitudeDegrees>
            </Position>
            <AltitudeMeters>888</AltitudeMeters>
            <DistanceMeters>NAN</DistanceMeters>
          </Trackpoint>
          <Trackpoint>
            <Time>2019-08-01T10:44:26.000Z</Time>
            <Position>
              <LatitudeDegrees>40.56575001217424869537353515625</LatitudeDegrees>
              <LongitudeDegrees>-4.01351063512265682220458984375</LongitudeDegrees>
            </Position>
            <AltitudeMeters>888.5999755859375</AltitudeMeters>
            <DistanceMeters>NAN</DistanceMeters>
          </Trackpoint>
          <Trackpoint>
            <Time>2019-08-01T10:44:27.000Z</Time>
            <Position>
              <LatitudeDegrees>40.5657956935465335845947265625</LatitudeDegrees>
              <LongitudeDegrees>-4.01353142224252223968505859375</LongitudeDegrees>
            </Position>
            <AltitudeMeters>888.79998779296875</AltitudeMeters>
            <DistanceMeters>NAN</DistanceMeters>
          </Trackpoint>
          <Trackpoint>
            <Time>2019-08-01T10:44:28.000Z</Time>
            <Position>
              <LatitudeDegrees>40.56584372185170650482177734375</LatitudeDegrees>
              <LongitudeDegrees>-4.01354583911597728729248046875</LongitudeDegrees>
            </Position>
            <AltitudeMeters>889.20001220703125</AltitudeMeters>
            <DistanceMeters>NAN</DistanceMeters>
          </Trackpoint>
          <Trackpoint>
            <Time>2019-08-01T10:44:29.000Z</Time>
            <Position>
              <LatitudeDegrees>40.56589049287140369415283203125</LatitudeDegrees>
              <LongitudeDegrees>-4.0135460905730724334716796875</LongitudeDegrees>
            </Position>
            <AltitudeMeters>889.4000244140625</AltitudeMeters>
            <DistanceMeters>NAN</DistanceMeters>
          </Trackpoint>
          <Trackpoint>
            <Time>2019-08-01T10:44:30.000Z</Time>
            <Position>
              <LatitudeDegrees>40.565937347710132598876953125</LatitudeDegrees>
              <LongitudeDegrees>-4.0135377086699008941650390625</LongitudeDegrees>
            </Position>
            <AltitudeMeters>889.4000244140625</AltitudeMeters>
            <DistanceMeters>NAN</DistanceMeters>
          </Trackpoint>
          <Trackpoint>
            <Time>2019-08-01T10:44:31.000Z</Time>
            <Position>
              <LatitudeDegrees>40.5659841187298297882080078125</LatitudeDegrees>
              <LongitudeDegrees>-4.01352404616773128509521484375</LongitudeDegrees>
            </Position>
            <AltitudeMeters>889.5999755859375</AltitudeMeters>
            <DistanceMeters>NAN</DistanceMeters>
          </Trackpoint>
          <Trackpoint>
            <Time>2019-08-01T10:44:32.000Z</Time>
            <Position>
              <LatitudeDegrees>40.5659841187298297882080078125</LatitudeDegrees>
              <LongitudeDegrees>-4.01352404616773128509521484375</LongitudeDegrees>
            </Position>
            <AltitudeMeters>889.5999755859375</AltitudeMeters>
            <DistanceMeters>NAN</DistanceMeters>
          </Trackpoint>
          <Trackpoint>
            <Time>2019-08-01T10:44:33.000Z</Time>
            <Position>
              <LatitudeDegrees>40.5660702846944332122802734375</LatitudeDegrees>
              <LongitudeDegrees>-4.0134776942431926727294921875</LongitudeDegrees>
            </Position>
            <AltitudeMeters>889.79998779296875</AltitudeMeters>
            <DistanceMeters>NAN</DistanceMeters>
          </Trackpoint>
          <Trackpoint>
            <Time>2019-08-01T10:44:34.000Z</Time>
            <Position>
              <LatitudeDegrees>40.56611378677189350128173828125</LatitudeDegrees>
              <LongitudeDegrees>-4.01344927959144115447998046875</LongitudeDegrees>
            </Position>
            <AltitudeMeters>889.79998779296875</AltitudeMeters>
            <DistanceMeters>NAN</DistanceMeters>
          </Trackpoint>
          <Trackpoint>
            <Time>2019-08-01T10:44:35.000Z</Time>
            <Position>
              <LatitudeDegrees>40.5661564506590366363525390625</LatitudeDegrees>
              <LongitudeDegrees>-4.013418518006801605224609375</LongitudeDegrees>
            </Position>
            <AltitudeMeters>890</AltitudeMeters>
            <DistanceMeters>NAN</DistanceMeters>
          </Trackpoint>
          <Trackpoint>
            <Time>2019-08-01T10:44:36.000Z</Time>
            <Position>
              <LatitudeDegrees>40.56619944982230663299560546875</LatitudeDegrees>
              <LongitudeDegrees>-4.013386666774749755859375</LongitudeDegrees>
            </Position>
            <AltitudeMeters>890</AltitudeMeters>
            <DistanceMeters>NAN</DistanceMeters>
          </Trackpoint>
          <Trackpoint>
            <Time>2019-08-01T10:44:37.000Z</Time>
            <Position>
              <LatitudeDegrees>40.56624211370944976806640625</LatitudeDegrees>
              <LongitudeDegrees>-4.0133539773523807525634765625</LongitudeDegrees>
            </Position>
            <AltitudeMeters>890.20001220703125</AltitudeMeters>
            <DistanceMeters>NAN</DistanceMeters>
          </Trackpoint>
          <Trackpoint>
            <Time>2019-08-01T10:44:38.000Z</Time>
            <Position>
              <LatitudeDegrees>40.5662856996059417724609375</LatitudeDegrees>
              <LongitudeDegrees>-4.013321958482265472412109375</LongitudeDegrees>
            </Position>
            <AltitudeMeters>890.4000244140625</AltitudeMeters>
            <DistanceMeters>NAN</DistanceMeters>
          </Trackpoint>
          <Trackpoint>
            <Time>2019-08-01T10:44:39.000Z</Time>
            <Position>
              <LatitudeDegrees>40.56633020751178264617919921875</LatitudeDegrees>
              <LongitudeDegrees>-4.013289101421833038330078125</LongitudeDegrees>
            </Position>
            <AltitudeMeters>890.5999755859375</AltitudeMeters>
            <DistanceMeters>NAN</DistanceMeters>
          </Trackpoint>
          <Trackpoint>
            <Time>2019-08-01T10:44:40.000Z</Time>
            <Position>
              <LatitudeDegrees>40.56637597270309925079345703125</LatitudeDegrees>
              <LongitudeDegrees>-4.013254903256893157958984375</LongitudeDegrees>
            </Position>
            <AltitudeMeters>890.79998779296875</AltitudeMeters>
            <DistanceMeters>NAN</DistanceMeters>
          </Trackpoint>
          <Trackpoint>
            <Time>2019-08-01T10:44:41.000Z</Time>
            <Position>
              <LatitudeDegrees>40.56642240844666957855224609375</LatitudeDegrees>
              <LongitudeDegrees>-4.01322045363485813140869140625</LongitudeDegrees>
            </Position>
            <AltitudeMeters>891</AltitudeMeters>
            <DistanceMeters>NAN</DistanceMeters>
          </Trackpoint>
          <Trackpoint>
            <Time>2019-08-01T10:44:42.000Z</Time>
            <Position>
              <LatitudeDegrees>40.56646917946636676788330078125</LatitudeDegrees>
              <LongitudeDegrees>-4.0131860040128231048583984375</LongitudeDegrees>
            </Position>
            <AltitudeMeters>891</AltitudeMeters>
            <DistanceMeters>NAN</DistanceMeters>
          </Trackpoint>
          <Trackpoint>
            <Time>2019-08-01T10:44:43.000Z</Time>
            <Position>
              <LatitudeDegrees>40.5665163695812225341796875</LatitudeDegrees>
              <LongitudeDegrees>-4.01315038092434406280517578125</LongitudeDegrees>
            </Position>
            <AltitudeMeters>891</AltitudeMeters>
            <DistanceMeters>NAN</DistanceMeters>
          </Trackpoint>
          <Trackpoint>
            <Time>2019-08-01T10:44:44.000Z</Time>
            <Position>
              <LatitudeDegrees>40.56656439788639545440673828125</LatitudeDegrees>
              <LongitudeDegrees>-4.013113416731357574462890625</LongitudeDegrees>
            </Position>
            <AltitudeMeters>891.20001220703125</AltitudeMeters>
            <DistanceMeters>NAN</DistanceMeters>
          </Trackpoint>
          <Trackpoint>
            <Time>2019-08-01T10:44:45.000Z</Time>
            <Position>
              <LatitudeDegrees>40.566611923277378082275390625</LatitudeDegrees>
              <LongitudeDegrees>-4.0130763687193393707275390625</LongitudeDegrees>
            </Position>
            <AltitudeMeters>891.20001220703125</AltitudeMeters>
            <DistanceMeters>NAN</DistanceMeters>
          </Trackpoint>
          <Trackpoint>
            <Time>2019-08-01T10:44:46.000Z</Time>
            <Position>
              <LatitudeDegrees>40.56665793992578983306884765625</LatitudeDegrees>
              <LongitudeDegrees>-4.01304141618311405181884765625</LongitudeDegrees>
            </Position>
            <AltitudeMeters>891.20001220703125</AltitudeMeters>
            <DistanceMeters>NAN</DistanceMeters>
          </Trackpoint>
          <Trackpoint>
            <Time>2019-08-01T10:44:47.000Z</Time>
            <Position>
              <LatitudeDegrees>40.56670387275516986846923828125</LatitudeDegrees>
              <LongitudeDegrees>-4.0130083076655864715576171875</LongitudeDegrees>
            </Position>
            <AltitudeMeters>891.20001220703125</AltitudeMeters>
            <DistanceMeters>NAN</DistanceMeters>
          </Trackpoint>
          <Trackpoint>
            <Time>2019-08-01T10:44:48.000Z</Time>
            <Position>
              <LatitudeDegrees>40.56674963794648647308349609375</LatitudeDegrees>
              <LongitudeDegrees>-4.0129751153290271759033203125</LongitudeDegrees>
            </Position>
            <AltitudeMeters>891.4000244140625</AltitudeMeters>
            <DistanceMeters>NAN</DistanceMeters>
          </Trackpoint>
          <Trackpoint>
            <Time>2019-08-01T10:44:49.000Z</Time>
            <Position>
              <LatitudeDegrees>40.56679389439523220062255859375</LatitudeDegrees>
              <LongitudeDegrees>-4.0129429288208484649658203125</LongitudeDegrees>
            </Position>
            <AltitudeMeters>891.5999755859375</AltitudeMeters>
            <DistanceMeters>NAN</DistanceMeters>
          </Trackpoint>
          <Trackpoint>
            <Time>2019-08-01T10:44:50.000Z</Time>
            <Position>
              <LatitudeDegrees>40.5668387375771999359130859375</LatitudeDegrees>
              <LongitudeDegrees>-4.012909233570098876953125</LongitudeDegrees>
            </Position>
            <AltitudeMeters>891.5999755859375</AltitudeMeters>
            <DistanceMeters>NAN</DistanceMeters>
          </Trackpoint>
          <Trackpoint>
            <Time>2019-08-01T10:44:51.000Z</Time>
            <Position>
              <LatitudeDegrees>40.56688592769205570220947265625</LatitudeDegrees>
              <LongitudeDegrees>-4.01287511922419071197509765625</LongitudeDegrees>
            </Position>
            <AltitudeMeters>891.79998779296875</AltitudeMeters>
            <DistanceMeters>NAN</DistanceMeters>
          </Trackpoint>
          <Trackpoint>
            <Time>2019-08-01T10:44:52.000Z</Time>
            <Position>
              <LatitudeDegrees>40.5669316090643405914306640625</LatitudeDegrees>
              <LongitudeDegrees>-4.01284611783921718597412109375</LongitudeDegrees>
            </Position>
            <AltitudeMeters>891.79998779296875</AltitudeMeters>
            <DistanceMeters>NAN</DistanceMeters>
          </Trackpoint>
          <Trackpoint>
            <Time>2019-08-01T10:44:53.000Z</Time>
            <Position>
              <LatitudeDegrees>40.56697712279856204986572265625</LatitudeDegrees>
              <LongitudeDegrees>-4.01281845755875110626220703125</LongitudeDegrees>
            </Position>
            <AltitudeMeters>892</AltitudeMeters>
            <DistanceMeters>NAN</DistanceMeters>
          </Trackpoint>
          <Trackpoint>
            <Time>2019-08-01T10:44:54.000Z</Time>
            <Position>
              <LatitudeDegrees>40.56702724657952785491943359375</LatitudeDegrees>
              <LongitudeDegrees>-4.01278945617377758026123046875</LongitudeDegrees>
            </Position>
            <AltitudeMeters>892</AltitudeMeters>
            <DistanceMeters>NAN</DistanceMeters>
          </Trackpoint>
          <Trackpoint>
            <Time>2019-08-01T10:44:55.000Z</Time>
            <Position>
              <LatitudeDegrees>40.56707359850406646728515625</LatitudeDegrees>
              <LongitudeDegrees>-4.01276464574038982391357421875</LongitudeDegrees>
            </Position>
            <AltitudeMeters>892.4000244140625</AltitudeMeters>
            <DistanceMeters>NAN</DistanceMeters>
          </Trackpoint>
          <Trackpoint>
            <Time>2019-08-01T10:44:56.000Z</Time>
            <Position>
              <LatitudeDegrees>40.5671183578670024871826171875</LatitudeDegrees>
              <LongitudeDegrees>-4.01274234987795352935791015625</LongitudeDegrees>
            </Position>
            <AltitudeMeters>892.5999755859375</AltitudeMeters>
            <DistanceMeters>NAN</DistanceMeters>
          </Trackpoint>
          <Trackpoint>
            <Time>2019-08-01T10:44:57.000Z</Time>
            <Position>
              <LatitudeDegrees>40.56716269813477993011474609375</LatitudeDegrees>
              <LongitudeDegrees>-4.0127209760248661041259765625</LongitudeDegrees>
            </Position>
            <AltitudeMeters>892.79998779296875</AltitudeMeters>
            <DistanceMeters>NAN</DistanceMeters>
          </Trackpoint>
          <Trackpoint>
            <Time>2019-08-01T10:44:58.000Z</Time>
            <Position>
              <LatitudeDegrees>40.56720444001257419586181640625</LatitudeDegrees>
              <LongitudeDegrees>-4.0127005241811275482177734375</LongitudeDegrees>
            </Position>
            <AltitudeMeters>892.79998779296875</AltitudeMeters>
            <DistanceMeters>NAN</DistanceMeters>
          </Trackpoint>
          <Trackpoint>
            <Time>2019-08-01T10:44:59.000Z</Time>
            <Position>
              <LatitudeDegrees>40.567245595157146453857421875</LatitudeDegrees>
              <LongitudeDegrees>-4.01268099434673786163330078125</LongitudeDegrees>
            </Position>
            <AltitudeMeters>893</AltitudeMeters>
            <DistanceMeters>NAN</DistanceMeters>
          </Trackpoint>
          <Trackpoint>
            <Time>2019-08-01T10:45:00.000Z</Time>
            <Position>
              <LatitudeDegrees>40.56728557683527469635009765625</LatitudeDegrees>
              <LongitudeDegrees>-4.0126616321504116058349609375</LongitudeDegrees>
            </Position>
            <AltitudeMeters>893.4000244140625</AltitudeMeters>
            <DistanceMeters>NAN</DistanceMeters>
          </Trackpoint>
          <Trackpoint>
            <Time>2019-08-01T10:45:01.000Z</Time>
            <Position>
              <LatitudeDegrees>40.56732564233243465423583984375</LatitudeDegrees>
              <LongitudeDegrees>-4.0126425214111804962158203125</LongitudeDegrees>
            </Position>
            <AltitudeMeters>893.5999755859375</AltitudeMeters>
            <DistanceMeters>NAN</DistanceMeters>
          </Trackpoint>
          <Trackpoint>
            <Time>2019-08-01T10:45:02.000Z</Time>
            <Position>
              <LatitudeDegrees>40.56732564233243465423583984375</LatitudeDegrees>
              <LongitudeDegrees>-4.0126425214111804962158203125</LongitudeDegrees>
            </Position>
            <AltitudeMeters>893.79998779296875</AltitudeMeters>
            <DistanceMeters>NAN</DistanceMeters>
          </Trackpoint>
          <Trackpoint>
            <Time>2019-08-01T10:45:03.000Z</Time>
            <Position>
              <LatitudeDegrees>40.56740543805062770843505859375</LatitudeDegrees>
              <LongitudeDegrees>-4.0126056410372257232666015625</LongitudeDegrees>
            </Position>
            <AltitudeMeters>894</AltitudeMeters>
            <DistanceMeters>NAN</DistanceMeters>
          </Trackpoint>
          <Trackpoint>
            <Time>2019-08-01T10:45:04.000Z</Time>
            <Position>
              <LatitudeDegrees>40.5674444139003753662109375</LatitudeDegrees>
              <LongitudeDegrees>-4.01258803904056549072265625</LongitudeDegrees>
            </Position>
            <AltitudeMeters>894.20001220703125</AltitudeMeters>
            <DistanceMeters>NAN</DistanceMeters>
          </Trackpoint>
          <Trackpoint>
            <Time>2019-08-01T10:45:05.000Z</Time>
            <Position>
              <LatitudeDegrees>40.56748372502624988555908203125</LatitudeDegrees>
              <LongitudeDegrees>-4.01257135905325412750244140625</LongitudeDegrees>
            </Position>
            <AltitudeMeters>894.4000244140625</AltitudeMeters>
            <DistanceMeters>NAN</DistanceMeters>
          </Trackpoint>
          <Trackpoint>
            <Time>2019-08-01T10:45:06.000Z</Time>
            <Position>
              <LatitudeDegrees>40.5675233714282512664794921875</LatitudeDegrees>
              <LongitudeDegrees>-4.0125546790659427642822265625</LongitudeDegrees>
            </Position>
            <AltitudeMeters>894.5999755859375</AltitudeMeters>
            <DistanceMeters>NAN</DistanceMeters>
          </Trackpoint>
          <Trackpoint>
            <Time>2019-08-01T10:45:07.000Z</Time>
            <Position>
              <LatitudeDegrees>40.56756167672574520111083984375</LatitudeDegrees>
              <LongitudeDegrees>-4.0125382505357265472412109375</LongitudeDegrees>
            </Position>
            <AltitudeMeters>895.20001220703125</AltitudeMeters>
            <DistanceMeters>NAN</DistanceMeters>
          </Trackpoint>
          <Trackpoint>
            <Time>2019-08-01T10:45:08.000Z</Time>
            <Position>
              <LatitudeDegrees>40.56760006584227085113525390625</LatitudeDegrees>
              <LongitudeDegrees>-4.01252140291035175323486328125</LongitudeDegrees>
            </Position>
            <AltitudeMeters>895.4000244140625</AltitudeMeters>
            <DistanceMeters>NAN</DistanceMeters>
          </Trackpoint>
          <Trackpoint>
            <Time>2019-08-01T10:45:09.000Z</Time>
            <Position>
              <LatitudeDegrees>40.567637868225574493408203125</LatitudeDegrees>
              <LongitudeDegrees>-4.012503884732723236083984375</LongitudeDegrees>
            </Position>
            <AltitudeMeters>895.79998779296875</AltitudeMeters>
            <DistanceMeters>NAN</DistanceMeters>
          </Trackpoint>
          <Trackpoint>
            <Time>2019-08-01T10:45:10.000Z</Time>
            <Position>
              <LatitudeDegrees>40.5676749162375926971435546875</LatitudeDegrees>
              <LongitudeDegrees>-4.01248787529766559600830078125</LongitudeDegrees>
            </Position>
            <AltitudeMeters>896.20001220703125</AltitudeMeters>
            <DistanceMeters>NAN</DistanceMeters>
          </Trackpoint>
          <Trackpoint>
            <Time>2019-08-01T10:45:11.000Z</Time>
            <Position>
              <LatitudeDegrees>40.56771120987832546234130859375</LatitudeDegrees>
              <LongitudeDegrees>-4.01247262023389339447021484375</LongitudeDegrees>
            </Position>
            <AltitudeMeters>896.4000244140625</AltitudeMeters>
            <DistanceMeters>NAN</DistanceMeters>
          </Trackpoint>
          <Trackpoint>
            <Time>2019-08-01T10:45:12.000Z</Time>
            <Position>
              <LatitudeDegrees>40.5677473358809947967529296875</LatitudeDegrees>
              <LongitudeDegrees>-4.0124561078846454620361328125</LongitudeDegrees>
            </Position>
            <AltitudeMeters>896.79998779296875</AltitudeMeters>
            <DistanceMeters>NAN</DistanceMeters>
          </Trackpoint>
          <Trackpoint>
            <Time>2019-08-01T10:45:13.000Z</Time>
            <Position>
              <LatitudeDegrees>40.56778379715979099273681640625</LatitudeDegrees>
              <LongitudeDegrees>-4.0124410204589366912841796875</LongitudeDegrees>
            </Position>
            <AltitudeMeters>897.20001220703125</AltitudeMeters>
            <DistanceMeters>NAN</DistanceMeters>
          </Trackpoint>
          <Trackpoint>
            <Time>2019-08-01T10:45:14.000Z</Time>
            <Position>
              <LatitudeDegrees>40.56782017461955547332763671875</LatitudeDegrees>
              <LongitudeDegrees>-4.01242710649967193603515625</LongitudeDegrees>
            </Position>
            <AltitudeMeters>897.4000244140625</AltitudeMeters>
            <DistanceMeters>NAN</DistanceMeters>
          </Trackpoint>
          <Trackpoint>
            <Time>2019-08-01T10:45:15.000Z</Time>
            <Position>
              <LatitudeDegrees>40.5678559653460979461669921875</LatitudeDegrees>
              <LongitudeDegrees>-4.0124125219881534576416015625</LongitudeDegrees>
            </Position>
            <AltitudeMeters>897.79998779296875</AltitudeMeters>
            <DistanceMeters>NAN</DistanceMeters>
          </Trackpoint>
          <Trackpoint>
            <Time>2019-08-01T10:45:16.000Z</Time>
            <Position>
              <LatitudeDegrees>40.5678559653460979461669921875</LatitudeDegrees>
              <LongitudeDegrees>-4.0124125219881534576416015625</LongitudeDegrees>
            </Position>
            <AltitudeMeters>898.5999755859375</AltitudeMeters>
            <DistanceMeters>NAN</DistanceMeters>
          </Trackpoint>
          <Trackpoint>
            <Time>2019-08-01T10:45:17.000Z</Time>
            <Position>
              <LatitudeDegrees>40.567928887903690338134765625</LatitudeDegrees>
              <LongitudeDegrees>-4.01238310150802135467529296875</LongitudeDegrees>
            </Position>
            <AltitudeMeters>898.79998779296875</AltitudeMeters>
            <DistanceMeters>NAN</DistanceMeters>
          </Trackpoint>
          <Trackpoint>
            <Time>2019-08-01T10:45:18.000Z</Time>
            <Position>
              <LatitudeDegrees>40.5679656006395816802978515625</LatitudeDegrees>
              <LongitudeDegrees>-4.01236818172037601470947265625</LongitudeDegrees>
            </Position>
            <AltitudeMeters>899</AltitudeMeters>
            <DistanceMeters>NAN</DistanceMeters>
          </Trackpoint>
          <Trackpoint>
            <Time>2019-08-01T10:45:19.000Z</Time>
            <Position>
              <LatitudeDegrees>40.56800273247063159942626953125</LatitudeDegrees>
              <LongitudeDegrees>-4.0123538486659526824951171875</LongitudeDegrees>
            </Position>
            <AltitudeMeters>899.4000244140625</AltitudeMeters>
            <DistanceMeters>NAN</DistanceMeters>
          </Trackpoint>
          <Trackpoint>
            <Time>2019-08-01T10:45:20.000Z</Time>
            <Position>
              <LatitudeDegrees>40.5680393613874912261962890625</LatitudeDegrees>
              <LongitudeDegrees>-4.0123401023447513580322265625</LongitudeDegrees>
            </Position>
            <AltitudeMeters>899.79998779296875</AltitudeMeters>
            <DistanceMeters>NAN</DistanceMeters>
          </Trackpoint>
          <Trackpoint>
            <Time>2019-08-01T10:45:21.000Z</Time>
            <Position>
              <LatitudeDegrees>40.5680755712091922760009765625</LatitudeDegrees>
              <LongitudeDegrees>-4.01232643984258174896240234375</LongitudeDegrees>
            </Position>
            <AltitudeMeters>900.20001220703125</AltitudeMeters>
            <DistanceMeters>NAN</DistanceMeters>
          </Trackpoint>
          <Trackpoint>
            <Time>2019-08-01T10:45:22.000Z</Time>
            <Position>
              <LatitudeDegrees>40.56811002083122730255126953125</LatitudeDegrees>
              <LongitudeDegrees>-4.012312777340412139892578125</LongitudeDegrees>
            </Position>
            <AltitudeMeters>900.5999755859375</AltitudeMeters>
            <DistanceMeters>NAN</DistanceMeters>
          </Trackpoint>
          <Trackpoint>
            <Time>2019-08-01T10:45:23.000Z</Time>
            <Position>
              <LatitudeDegrees>40.56814539246261119842529296875</LatitudeDegrees>
              <LongitudeDegrees>-4.01230095885694026947021484375</LongitudeDegrees>
            </Position>
            <AltitudeMeters>900.79998779296875</AltitudeMeters>
            <DistanceMeters>NAN</DistanceMeters>
          </Trackpoint>
          <Trackpoint>
            <Time>2019-08-01T10:45:24.000Z</Time>
            <Position>
              <LatitudeDegrees>40.568179674446582794189453125</LatitudeDegrees>
              <LongitudeDegrees>-4.0122898109257221221923828125</LongitudeDegrees>
            </Position>
            <AltitudeMeters>901</AltitudeMeters>
            <DistanceMeters>NAN</DistanceMeters>
          </Trackpoint>
          <Trackpoint>
            <Time>2019-08-01T10:45:25.000Z</Time>
            <Position>
              <LatitudeDegrees>40.56821496225893497467041015625</LatitudeDegrees>
              <LongitudeDegrees>-4.01227824389934539794921875</LongitudeDegrees>
            </Position>
            <AltitudeMeters>901.4000244140625</AltitudeMeters>
            <DistanceMeters>NAN</DistanceMeters>
          </Trackpoint>
          <Trackpoint>
            <Time>2019-08-01T10:45:26.000Z</Time>
            <Position>
              <LatitudeDegrees>40.56824765168130397796630859375</LatitudeDegrees>
              <LongitudeDegrees>-4.01226776652038097381591796875</LongitudeDegrees>
            </Position>
            <AltitudeMeters>901.79998779296875</AltitudeMeters>
            <DistanceMeters>NAN</DistanceMeters>
          </Trackpoint>
          <Trackpoint>
            <Time>2019-08-01T10:45:27.000Z</Time>
            <Position>
              <LatitudeDegrees>40.56828352622687816619873046875</LatitudeDegrees>
              <LongitudeDegrees>-4.01225904934108257293701171875</LongitudeDegrees>
            </Position>
            <AltitudeMeters>902</AltitudeMeters>
            <DistanceMeters>NAN</DistanceMeters>
          </Trackpoint>
          <Trackpoint>
            <Time>2019-08-01T10:45:28.000Z</Time>
            <Position>
              <LatitudeDegrees>40.5683203227818012237548828125</LatitudeDegrees>
              <LongitudeDegrees>-4.01224949397146701812744140625</LongitudeDegrees>
            </Position>
            <AltitudeMeters>902.4000244140625</AltitudeMeters>
            <DistanceMeters>NAN</DistanceMeters>
          </Trackpoint>
          <Trackpoint>
            <Time>2019-08-01T10:45:29.000Z</Time>
            <Position>
              <LatitudeDegrees>40.568356029689311981201171875</LatitudeDegrees>
              <LongitudeDegrees>-4.01223935186862945556640625</LongitudeDegrees>
            </Position>
            <AltitudeMeters>902.5999755859375</AltitudeMeters>
            <DistanceMeters>NAN</DistanceMeters>
          </Trackpoint>
          <Trackpoint>
            <Time>2019-08-01T10:45:30.000Z</Time>
            <Position>
              <LatitudeDegrees>40.568392574787139892578125</LatitudeDegrees>
              <LongitudeDegrees>-4.01222988031804561614990234375</LongitudeDegrees>
            </Position>
            <AltitudeMeters>902.79998779296875</AltitudeMeters>
            <DistanceMeters>NAN</DistanceMeters>
          </Trackpoint>
          <Trackpoint>
            <Time>2019-08-01T10:45:31.000Z</Time>
            <Position>
              <LatitudeDegrees>40.5684319697320461273193359375</LatitudeDegrees>
              <LongitudeDegrees>-4.0122200734913349151611328125</LongitudeDegrees>
            </Position>
            <AltitudeMeters>903.20001220703125</AltitudeMeters>
            <DistanceMeters>NAN</DistanceMeters>
          </Trackpoint>
          <Trackpoint>
            <Time>2019-08-01T10:45:32.000Z</Time>
            <Position>
              <LatitudeDegrees>40.5684722028672695159912109375</LatitudeDegrees>
              <LongitudeDegrees>-4.01220859028398990631103515625</LongitudeDegrees>
            </Position>
            <AltitudeMeters>903.5999755859375</AltitudeMeters>
            <DistanceMeters>NAN</DistanceMeters>
          </Trackpoint>
          <Trackpoint>
            <Time>2019-08-01T10:45:33.000Z</Time>
            <Position>
              <LatitudeDegrees>40.56851319037377834320068359375</LatitudeDegrees>
              <LongitudeDegrees>-4.01219618506729602813720703125</LongitudeDegrees>
            </Position>
            <AltitudeMeters>903.79998779296875</AltitudeMeters>
            <DistanceMeters>NAN</DistanceMeters>
          </Trackpoint>
          <Trackpoint>
            <Time>2019-08-01T10:45:34.000Z</Time>
            <Position>
              <LatitudeDegrees>40.56851319037377834320068359375</LatitudeDegrees>
              <LongitudeDegrees>-4.01219618506729602813720703125</LongitudeDegrees>
            </Position>
            <AltitudeMeters>904.20001220703125</AltitudeMeters>
            <DistanceMeters>NAN</DistanceMeters>
          </Trackpoint>
          <Trackpoint>
            <Time>2019-08-01T10:45:35.000Z</Time>
            <Position>
              <LatitudeDegrees>40.56859684176743030548095703125</LatitudeDegrees>
              <LongitudeDegrees>-4.0121650882065296173095703125</LongitudeDegrees>
            </Position>
            <AltitudeMeters>904.5999755859375</AltitudeMeters>
            <DistanceMeters>NAN</DistanceMeters>
          </Trackpoint>
          <Trackpoint>
            <Time>2019-08-01T10:45:36.000Z</Time>
            <Position>
              <LatitudeDegrees>40.56859684176743030548095703125</LatitudeDegrees>
              <LongitudeDegrees>-4.0121650882065296173095703125</LongitudeDegrees>
            </Position>
            <AltitudeMeters>904.79998779296875</AltitudeMeters>
            <DistanceMeters>NAN</DistanceMeters>
          </Trackpoint>
          <Trackpoint>
            <Time>2019-08-01T10:45:37.000Z</Time>
            <Position>
              <LatitudeDegrees>40.56868049316108226776123046875</LatitudeDegrees>
              <LongitudeDegrees>-4.01212108321487903594970703125</LongitudeDegrees>
            </Position>
            <AltitudeMeters>905</AltitudeMeters>
            <DistanceMeters>NAN</DistanceMeters>
          </Trackpoint>
          <Trackpoint>
            <Time>2019-08-01T10:45:38.000Z</Time>
            <Position>
              <LatitudeDegrees>40.56872257031500339508056640625</LatitudeDegrees>
              <LongitudeDegrees>-4.0120940096676349639892578125</LongitudeDegrees>
            </Position>
            <AltitudeMeters>905.20001220703125</AltitudeMeters>
            <DistanceMeters>NAN</DistanceMeters>
          </Trackpoint>
          <Trackpoint>
            <Time>2019-08-01T10:45:39.000Z</Time>
            <Position>
              <LatitudeDegrees>40.56876414455473423004150390625</LatitudeDegrees>
              <LongitudeDegrees>-4.012063331902027130126953125</LongitudeDegrees>
            </Position>
            <AltitudeMeters>905.4000244140625</AltitudeMeters>
            <DistanceMeters>NAN</DistanceMeters>
          </Trackpoint>
          <Trackpoint>
            <Time>2019-08-01T10:45:40.000Z</Time>
            <Position>
              <LatitudeDegrees>40.56880538351833820343017578125</LatitudeDegrees>
              <LongitudeDegrees>-4.0120289660990238189697265625</LongitudeDegrees>
            </Position>
            <AltitudeMeters>905.5999755859375</AltitudeMeters>
            <DistanceMeters>NAN</DistanceMeters>
          </Trackpoint>
          <Trackpoint>
            <Time>2019-08-01T10:45:41.000Z</Time>
            <Position>
              <LatitudeDegrees>40.56884494610130786895751953125</LatitudeDegrees>
              <LongitudeDegrees>-4.01199032552540302276611328125</LongitudeDegrees>
            </Position>
            <AltitudeMeters>905.79998779296875</AltitudeMeters>
            <DistanceMeters>NAN</DistanceMeters>
          </Trackpoint>
          <Trackpoint>
            <Time>2019-08-01T10:45:42.000Z</Time>
            <Position>
              <LatitudeDegrees>40.56888333521783351898193359375</LatitudeDegrees>
              <LongitudeDegrees>-4.01194875128567218780517578125</LongitudeDegrees>
            </Position>
            <AltitudeMeters>906</AltitudeMeters>
            <DistanceMeters>NAN</DistanceMeters>
          </Trackpoint>
          <Trackpoint>
            <Time>2019-08-01T10:45:43.000Z</Time>
            <Position>
              <LatitudeDegrees>40.5689211376011371612548828125</LatitudeDegrees>
              <LongitudeDegrees>-4.01190415956079959869384765625</LongitudeDegrees>
            </Position>
            <AltitudeMeters>906.20001220703125</AltitudeMeters>
            <DistanceMeters>NAN</DistanceMeters>
          </Trackpoint>
          <Trackpoint>
            <Time>2019-08-01T10:45:44.000Z</Time>
            <Position>
              <LatitudeDegrees>40.56895927526056766510009765625</LatitudeDegrees>
              <LongitudeDegrees>-4.011858142912387847900390625</LongitudeDegrees>
            </Position>
            <AltitudeMeters>906.4000244140625</AltitudeMeters>
            <DistanceMeters>NAN</DistanceMeters>
          </Trackpoint>
          <Trackpoint>
            <Time>2019-08-01T10:45:45.000Z</Time>
            <Position>
              <LatitudeDegrees>40.56899799965322017669677734375</LatitudeDegrees>
              <LongitudeDegrees>-4.01181044988334178924560546875</LongitudeDegrees>
            </Position>
            <AltitudeMeters>906.4000244140625</AltitudeMeters>
            <DistanceMeters>NAN</DistanceMeters>
          </Trackpoint>
          <Trackpoint>
            <Time>2019-08-01T10:45:46.000Z</Time>
            <Position>
              <LatitudeDegrees>40.56903538294136524200439453125</LatitudeDegrees>
              <LongitudeDegrees>-4.0117617510259151458740234375</LongitudeDegrees>
            </Position>
            <AltitudeMeters>906.4000244140625</AltitudeMeters>
            <DistanceMeters>NAN</DistanceMeters>
          </Trackpoint>
          <Trackpoint>
            <Time>2019-08-01T10:45:47.000Z</Time>
            <Position>
              <LatitudeDegrees>40.5690726824104785919189453125</LatitudeDegrees>
              <LongitudeDegrees>-4.01171238161623477935791015625</LongitudeDegrees>
            </Position>
            <AltitudeMeters>906.4000244140625</AltitudeMeters>
            <DistanceMeters>NAN</DistanceMeters>
          </Trackpoint>
          <Trackpoint>
            <Time>2019-08-01T10:45:48.000Z</Time>
            <Position>
              <LatitudeDegrees>40.5690726824104785919189453125</LatitudeDegrees>
              <LongitudeDegrees>-4.01171238161623477935791015625</LongitudeDegrees>
            </Position>
            <AltitudeMeters>906.5999755859375</AltitudeMeters>
            <DistanceMeters>NAN</DistanceMeters>
          </Trackpoint>
          <Trackpoint>
            <Time>2019-08-01T10:45:49.000Z</Time>
            <Position>
              <LatitudeDegrees>40.569151975214481353759765625</LatitudeDegrees>
              <LongitudeDegrees>-4.01161163114011287689208984375</LongitudeDegrees>
            </Position>
            <AltitudeMeters>906.5999755859375</AltitudeMeters>
            <DistanceMeters>NAN</DistanceMeters>
          </Trackpoint>
          <Trackpoint>
            <Time>2019-08-01T10:45:50.000Z</Time>
            <Position>
              <LatitudeDegrees>40.569191537797451019287109375</LatitudeDegrees>
              <LongitudeDegrees>-4.01156050153076648712158203125</LongitudeDegrees>
            </Position>
            <AltitudeMeters>906.5999755859375</AltitudeMeters>
            <DistanceMeters>NAN</DistanceMeters>
          </Trackpoint>
          <Trackpoint>
            <Time>2019-08-01T10:45:51.000Z</Time>
            <Position>
              <LatitudeDegrees>40.5692312680184841156005859375</LatitudeDegrees>
              <LongitudeDegrees>-4.01150953955948352813720703125</LongitudeDegrees>
            </Position>
            <AltitudeMeters>906.5999755859375</AltitudeMeters>
            <DistanceMeters>NAN</DistanceMeters>
          </Trackpoint>
          <Trackpoint>
            <Time>2019-08-01T10:45:52.000Z</Time>
            <Position>
              <LatitudeDegrees>40.569270662963390350341796875</LatitudeDegrees>
              <LongitudeDegrees>-4.011458493769168853759765625</LongitudeDegrees>
            </Position>
            <AltitudeMeters>906.5999755859375</AltitudeMeters>
            <DistanceMeters>NAN</DistanceMeters>
          </Trackpoint>
          <Trackpoint>
            <Time>2019-08-01T10:45:53.000Z</Time>
            <Position>
              <LatitudeDegrees>40.56930930353701114654541015625</LatitudeDegrees>
              <LongitudeDegrees>-4.0114073641598224639892578125</LongitudeDegrees>
            </Position>
            <AltitudeMeters>906.5999755859375</AltitudeMeters>
            <DistanceMeters>NAN</DistanceMeters>
          </Trackpoint>
          <Trackpoint>
            <Time>2019-08-01T10:45:54.000Z</Time>
            <Position>
              <LatitudeDegrees>40.5693476088345050811767578125</LatitudeDegrees>
              <LongitudeDegrees>-4.0113570727407932281494140625</LongitudeDegrees>
            </Position>
            <AltitudeMeters>906.79998779296875</AltitudeMeters>
            <DistanceMeters>NAN</DistanceMeters>
          </Trackpoint>
          <Trackpoint>
            <Time>2019-08-01T10:45:55.000Z</Time>
            <Position>
              <LatitudeDegrees>40.56938708759844303131103515625</LatitudeDegrees>
              <LongitudeDegrees>-4.0113074518740177154541015625</LongitudeDegrees>
            </Position>
            <AltitudeMeters>906.79998779296875</AltitudeMeters>
            <DistanceMeters>NAN</DistanceMeters>
          </Trackpoint>
          <Trackpoint>
            <Time>2019-08-01T10:45:56.000Z</Time>
            <Position>
              <LatitudeDegrees>40.5694260634481906890869140625</LatitudeDegrees>
              <LongitudeDegrees>-4.01125766336917877197265625</LongitudeDegrees>
            </Position>
            <AltitudeMeters>906.79998779296875</AltitudeMeters>
            <DistanceMeters>NAN</DistanceMeters>
          </Trackpoint>
          <Trackpoint>
            <Time>2019-08-01T10:45:57.000Z</Time>
            <Position>
              <LatitudeDegrees>40.56946420110762119293212890625</LatitudeDegrees>
              <LongitudeDegrees>-4.01120695285499095916748046875</LongitudeDegrees>
            </Position>
            <AltitudeMeters>906.79998779296875</AltitudeMeters>
            <DistanceMeters>NAN</DistanceMeters>
          </Trackpoint>
          <Trackpoint>
            <Time>2019-08-01T10:45:58.000Z</Time>
            <Position>
              <LatitudeDegrees>40.5695016682147979736328125</LatitudeDegrees>
              <LongitudeDegrees>-4.0111564099788665771484375</LongitudeDegrees>
            </Position>
            <AltitudeMeters>906.79998779296875</AltitudeMeters>
            <DistanceMeters>NAN</DistanceMeters>
          </Trackpoint>
          <Trackpoint>
            <Time>2019-08-01T10:45:59.000Z</Time>
            <Position>
              <LatitudeDegrees>40.569540224969387054443359375</LatitudeDegrees>
              <LongitudeDegrees>-4.01110653765499591827392578125</LongitudeDegrees>
            </Position>
            <AltitudeMeters>907</AltitudeMeters>
            <DistanceMeters>NAN</DistanceMeters>
          </Trackpoint>
          <Trackpoint>
            <Time>2019-08-01T10:46:00.000Z</Time>
            <Position>
              <LatitudeDegrees>40.56958003900945186614990234375</LatitudeDegrees>
              <LongitudeDegrees>-4.01105691678822040557861328125</LongitudeDegrees>
            </Position>
            <AltitudeMeters>907</AltitudeMeters>
            <DistanceMeters>NAN</DistanceMeters>
          </Trackpoint>
          <Trackpoint>
            <Time>2019-08-01T10:46:01.000Z</Time>
            <Position>
              <LatitudeDegrees>40.56962010450661182403564453125</LatitudeDegrees>
              <LongitudeDegrees>-4.0110067091882228851318359375</LongitudeDegrees>
            </Position>
            <AltitudeMeters>907.20001220703125</AltitudeMeters>
            <DistanceMeters>NAN</DistanceMeters>
          </Trackpoint>
          <Trackpoint>
            <Time>2019-08-01T10:46:02.000Z</Time>
            <Position>
              <LatitudeDegrees>40.56965832598507404327392578125</LatitudeDegrees>
              <LongitudeDegrees>-4.010958932340145111083984375</LongitudeDegrees>
            </Position>
            <AltitudeMeters>907.4000244140625</AltitudeMeters>
            <DistanceMeters>NAN</DistanceMeters>
          </Trackpoint>
          <Trackpoint>
            <Time>2019-08-01T10:46:03.000Z</Time>
            <Position>
              <LatitudeDegrees>40.56970040313899517059326171875</LatitudeDegrees>
              <LongitudeDegrees>-4.01091040112078189849853515625</LongitudeDegrees>
            </Position>
            <AltitudeMeters>907.4000244140625</AltitudeMeters>
            <DistanceMeters>NAN</DistanceMeters>
          </Trackpoint>
          <Trackpoint>
            <Time>2019-08-01T10:46:04.000Z</Time>
            <Position>
              <LatitudeDegrees>40.56974180974066257476806640625</LatitudeDegrees>
              <LongitudeDegrees>-4.0108645521104335784912109375</LongitudeDegrees>
            </Position>
            <AltitudeMeters>907.4000244140625</AltitudeMeters>
            <DistanceMeters>NAN</DistanceMeters>
          </Trackpoint>
          <Trackpoint>
            <Time>2019-08-01T10:46:05.000Z</Time>
            <Position>
              <LatitudeDegrees>40.5697844736278057098388671875</LatitudeDegrees>
              <LongitudeDegrees>-4.0108206309378147125244140625</LongitudeDegrees>
            </Position>
            <AltitudeMeters>907.5999755859375</AltitudeMeters>
            <DistanceMeters>NAN</DistanceMeters>
          </Trackpoint>
          <Trackpoint>
            <Time>2019-08-01T10:46:06.000Z</Time>
            <Position>
              <LatitudeDegrees>40.5698283948004245758056640625</LatitudeDegrees>
              <LongitudeDegrees>-4.0107780508697032928466796875</LongitudeDegrees>
            </Position>
            <AltitudeMeters>907.79998779296875</AltitudeMeters>
            <DistanceMeters>NAN</DistanceMeters>
          </Trackpoint>
          <Trackpoint>
            <Time>2019-08-01T10:46:07.000Z</Time>
            <Position>
              <LatitudeDegrees>40.5698729865252971649169921875</LatitudeDegrees>
              <LongitudeDegrees>-4.01073588989675045013427734375</LongitudeDegrees>
            </Position>
            <AltitudeMeters>908</AltitudeMeters>
            <DistanceMeters>NAN</DistanceMeters>
          </Trackpoint>
          <Trackpoint>
            <Time>2019-08-01T10:46:08.000Z</Time>
            <Position>
              <LatitudeDegrees>40.5699192546308040618896484375</LatitudeDegrees>
              <LongitudeDegrees>-4.01069515384733676910400390625</LongitudeDegrees>
            </Position>
            <AltitudeMeters>908.20001220703125</AltitudeMeters>
            <DistanceMeters>NAN</DistanceMeters>
          </Trackpoint>
          <Trackpoint>
            <Time>2019-08-01T10:46:09.000Z</Time>
            <Position>
              <LatitudeDegrees>40.56996577419340610504150390625</LatitudeDegrees>
              <LongitudeDegrees>-4.01065575890243053436279296875</LongitudeDegrees>
            </Position>
            <AltitudeMeters>908.20001220703125</AltitudeMeters>
            <DistanceMeters>NAN</DistanceMeters>
          </Trackpoint>
          <Trackpoint>
            <Time>2019-08-01T10:46:10.000Z</Time>
            <Position>
              <LatitudeDegrees>40.57001371867954730987548828125</LatitudeDegrees>
              <LongitudeDegrees>-4.01061636395752429962158203125</LongitudeDegrees>
            </Position>
            <AltitudeMeters>908.5999755859375</AltitudeMeters>
            <DistanceMeters>NAN</DistanceMeters>
          </Trackpoint>
          <Trackpoint>
            <Time>2019-08-01T10:46:11.000Z</Time>
            <Position>
              <LatitudeDegrees>40.57005898095667362213134765625</LatitudeDegrees>
              <LongitudeDegrees>-4.0105785615742206573486328125</LongitudeDegrees>
            </Position>
            <AltitudeMeters>908.79998779296875</AltitudeMeters>
            <DistanceMeters>NAN</DistanceMeters>
          </Trackpoint>
          <Trackpoint>
            <Time>2019-08-01T10:46:12.000Z</Time>
            <Position>
              <LatitudeDegrees>40.57010491378605365753173828125</LatitudeDegrees>
              <LongitudeDegrees>-4.01054008863866329193115234375</LongitudeDegrees>
            </Position>
            <AltitudeMeters>908.79998779296875</AltitudeMeters>
            <DistanceMeters>NAN</DistanceMeters>
          </Trackpoint>
          <Trackpoint>
            <Time>2019-08-01T10:46:13.000Z</Time>
            <Position>
              <LatitudeDegrees>40.57015101425349712371826171875</LatitudeDegrees>
              <LongitudeDegrees>-4.010502286255359649658203125</LongitudeDegrees>
            </Position>
            <AltitudeMeters>909</AltitudeMeters>
            <DistanceMeters>NAN</DistanceMeters>
          </Trackpoint>
          <Trackpoint>
            <Time>2019-08-01T10:46:14.000Z</Time>
            <Position>
              <LatitudeDegrees>40.5702002160251140594482421875</LatitudeDegrees>
              <LongitudeDegrees>-4.01046297512948513031005859375</LongitudeDegrees>
            </Position>
            <AltitudeMeters>909.20001220703125</AltitudeMeters>
            <DistanceMeters>NAN</DistanceMeters>
          </Trackpoint>
          <Trackpoint>
            <Time>2019-08-01T10:46:15.000Z</Time>
            <Position>
              <LatitudeDegrees>40.57024824433028697967529296875</LatitudeDegrees>
              <LongitudeDegrees>-4.01042559184134006500244140625</LongitudeDegrees>
            </Position>
            <AltitudeMeters>909.20001220703125</AltitudeMeters>
            <DistanceMeters>NAN</DistanceMeters>
          </Trackpoint>
          <Trackpoint>
            <Time>2019-08-01T10:46:16.000Z</Time>
            <Position>
              <LatitudeDegrees>40.570296607911586761474609375</LatitudeDegrees>
              <LongitudeDegrees>-4.010387957096099853515625</LongitudeDegrees>
            </Position>
            <AltitudeMeters>909.4000244140625</AltitudeMeters>
            <DistanceMeters>NAN</DistanceMeters>
          </Trackpoint>
          <Trackpoint>
            <Time>2019-08-01T10:46:17.000Z</Time>
            <Position>
              <LatitudeDegrees>40.5703450553119182586669921875</LatitudeDegrees>
              <LongitudeDegrees>-4.01034981943666934967041015625</LongitudeDegrees>
            </Position>
            <AltitudeMeters>909.5999755859375</AltitudeMeters>
            <DistanceMeters>NAN</DistanceMeters>
          </Trackpoint>
          <Trackpoint>
            <Time>2019-08-01T10:46:18.000Z</Time>
            <Position>
              <LatitudeDegrees>40.57039291597902774810791015625</LatitudeDegrees>
              <LongitudeDegrees>-4.0103113465011119842529296875</LongitudeDegrees>
            </Position>
            <AltitudeMeters>909.5999755859375</AltitudeMeters>
            <DistanceMeters>NAN</DistanceMeters>
          </Trackpoint>
          <Trackpoint>
            <Time>2019-08-01T10:46:19.000Z</Time>
            <Position>
              <LatitudeDegrees>40.57043901644647121429443359375</LatitudeDegrees>
              <LongitudeDegrees>-4.0102724544703960418701171875</LongitudeDegrees>
            </Position>
            <AltitudeMeters>909.79998779296875</AltitudeMeters>
            <DistanceMeters>NAN</DistanceMeters>
          </Trackpoint>
          <Trackpoint>
            <Time>2019-08-01T10:46:20.000Z</Time>
            <Position>
              <LatitudeDegrees>40.57043901644647121429443359375</LatitudeDegrees>
              <LongitudeDegrees>-4.0102724544703960418701171875</LongitudeDegrees>
            </Position>
            <AltitudeMeters>910</AltitudeMeters>
            <DistanceMeters>NAN</DistanceMeters>
          </Trackpoint>
          <Trackpoint>
            <Time>2019-08-01T10:46:21.000Z</Time>
            <Position>
              <LatitudeDegrees>40.57053406722843647003173828125</LatitudeDegrees>
              <LongitudeDegrees>-4.01019190438091754913330078125</LongitudeDegrees>
            </Position>
            <AltitudeMeters>910.20001220703125</AltitudeMeters>
            <DistanceMeters>NAN</DistanceMeters>
          </Trackpoint>
          <Trackpoint>
            <Time>2019-08-01T10:46:22.000Z</Time>
            <Position>
              <LatitudeDegrees>40.5705797486007213592529296875</LatitudeDegrees>
              <LongitudeDegrees>-4.0101437084376811981201171875</LongitudeDegrees>
            </Position>
            <AltitudeMeters>910.20001220703125</AltitudeMeters>
            <DistanceMeters>NAN</DistanceMeters>
          </Trackpoint>
          <Trackpoint>
            <Time>2019-08-01T10:46:23.000Z</Time>
            <Position>
              <LatitudeDegrees>40.57062090374529361724853515625</LatitudeDegrees>
              <LongitudeDegrees>-4.0100857056677341461181640625</LongitudeDegrees>
            </Position>
            <AltitudeMeters>910.4000244140625</AltitudeMeters>
            <DistanceMeters>NAN</DistanceMeters>
          </Trackpoint>
          <Trackpoint>
            <Time>2019-08-01T10:46:24.000Z</Time>
            <Position>
              <LatitudeDegrees>40.570656023919582366943359375</LatitudeDegrees>
              <LongitudeDegrees>-4.0100156329572200775146484375</LongitudeDegrees>
            </Position>
            <AltitudeMeters>910.4000244140625</AltitudeMeters>
            <DistanceMeters>NAN</DistanceMeters>
          </Trackpoint>
          <Trackpoint>
            <Time>2019-08-01T10:46:25.000Z</Time>
            <Position>
              <LatitudeDegrees>40.57068544439971446990966796875</LatitudeDegrees>
              <LongitudeDegrees>-4.00993424467742443084716796875</LongitudeDegrees>
            </Position>
            <AltitudeMeters>910.4000244140625</AltitudeMeters>
            <DistanceMeters>NAN</DistanceMeters>
          </Trackpoint>
          <Trackpoint>
            <Time>2019-08-01T10:46:26.000Z</Time>
            <Position>
              <LatitudeDegrees>40.5707125179469585418701171875</LatitudeDegrees>
              <LongitudeDegrees>-4.00984271429479122161865234375</LongitudeDegrees>
            </Position>
            <AltitudeMeters>910.4000244140625</AltitudeMeters>
            <DistanceMeters>NAN</DistanceMeters>
          </Trackpoint>
          <Trackpoint>
            <Time>2019-08-01T10:46:27.000Z</Time>
            <Position>
              <LatitudeDegrees>40.57073875330388545989990234375</LatitudeDegrees>
              <LongitudeDegrees>-4.00974565185606479644775390625</LongitudeDegrees>
            </Position>
            <AltitudeMeters>910.4000244140625</AltitudeMeters>
            <DistanceMeters>NAN</DistanceMeters>
          </Trackpoint>
          <Trackpoint>
            <Time>2019-08-01T10:46:28.000Z</Time>
            <Position>
              <LatitudeDegrees>40.57076968252658843994140625</LatitudeDegrees>
              <LongitudeDegrees>-4.009643979370594024658203125</LongitudeDegrees>
            </Position>
            <AltitudeMeters>910.4000244140625</AltitudeMeters>
            <DistanceMeters>NAN</DistanceMeters>
          </Trackpoint>
          <Trackpoint>
            <Time>2019-08-01T10:46:29.000Z</Time>
            <Position>
              <LatitudeDegrees>40.57080731727182865142822265625</LatitudeDegrees>
              <LongitudeDegrees>-4.00954163633286952972412109375</LongitudeDegrees>
            </Position>
            <AltitudeMeters>910.4000244140625</AltitudeMeters>
            <DistanceMeters>NAN</DistanceMeters>
          </Trackpoint>
          <Trackpoint>
            <Time>2019-08-01T10:46:30.000Z</Time>
            <Position>
              <LatitudeDegrees>40.5708561837673187255859375</LatitudeDegrees>
              <LongitudeDegrees>-4.0094419755041599273681640625</LongitudeDegrees>
            </Position>
            <AltitudeMeters>910.4000244140625</AltitudeMeters>
            <DistanceMeters>NAN</DistanceMeters>
          </Trackpoint>
          <Trackpoint>
            <Time>2019-08-01T10:46:31.000Z</Time>
            <Position>
              <LatitudeDegrees>40.57091611437499523162841796875</LatitudeDegrees>
              <LongitudeDegrees>-4.00934868492186069488525390625</LongitudeDegrees>
            </Position>
            <AltitudeMeters>910.4000244140625</AltitudeMeters>
            <DistanceMeters>NAN</DistanceMeters>
          </Trackpoint>
          <Trackpoint>
            <Time>2019-08-01T10:46:32.000Z</Time>
            <Position>
              <LatitudeDegrees>40.57098216377198696136474609375</LatitudeDegrees>
              <LongitudeDegrees>-4.00925883091986179351806640625</LongitudeDegrees>
            </Position>
            <AltitudeMeters>910.20001220703125</AltitudeMeters>
            <DistanceMeters>NAN</DistanceMeters>
          </Trackpoint>
          <Trackpoint>
            <Time>2019-08-01T10:46:33.000Z</Time>
            <Position>
              <LatitudeDegrees>40.57098216377198696136474609375</LatitudeDegrees>
              <LongitudeDegrees>-4.00925883091986179351806640625</LongitudeDegrees>
            </Position>
            <AltitudeMeters>910</AltitudeMeters>
            <DistanceMeters>NAN</DistanceMeters>
          </Trackpoint>
          <Trackpoint>
            <Time>2019-08-01T10:46:34.000Z</Time>
            <Position>
              <LatitudeDegrees>40.57112733833491802215576171875</LatitudeDegrees>
              <LongitudeDegrees>-4.00908700190484523773193359375</LongitudeDegrees>
            </Position>
            <AltitudeMeters>909.4000244140625</AltitudeMeters>
            <DistanceMeters>NAN</DistanceMeters>
          </Trackpoint>
          <Trackpoint>
            <Time>2019-08-01T10:46:35.000Z</Time>
            <Position>
              <LatitudeDegrees>40.57120545767247676849365234375</LatitudeDegrees>
              <LongitudeDegrees>-4.00900469161570072174072265625</LongitudeDegrees>
            </Position>
            <AltitudeMeters>908.79998779296875</AltitudeMeters>
            <DistanceMeters>NAN</DistanceMeters>
          </Trackpoint>
          <Trackpoint>
            <Time>2019-08-01T10:46:36.000Z</Time>
            <Position>
              <LatitudeDegrees>40.5712844990193843841552734375</LatitudeDegrees>
              <LongitudeDegrees>-4.00892338715493679046630859375</LongitudeDegrees>
            </Position>
            <AltitudeMeters>907.79998779296875</AltitudeMeters>
            <DistanceMeters>NAN</DistanceMeters>
          </Trackpoint>
          <Trackpoint>
            <Time>2019-08-01T10:46:37.000Z</Time>
            <Position>
              <LatitudeDegrees>40.57136781513690948486328125</LatitudeDegrees>
              <LongitudeDegrees>-4.00884157977998256683349609375</LongitudeDegrees>
            </Position>
            <AltitudeMeters>907</AltitudeMeters>
            <DistanceMeters>NAN</DistanceMeters>
          </Trackpoint>
          <Trackpoint>
            <Time>2019-08-01T10:46:38.000Z</Time>
            <Position>
              <LatitudeDegrees>40.5714538134634494781494140625</LatitudeDegrees>
              <LongitudeDegrees>-4.0087563358247280120849609375</LongitudeDegrees>
            </Position>
            <AltitudeMeters>906.20001220703125</AltitudeMeters>
            <DistanceMeters>NAN</DistanceMeters>
          </Trackpoint>
          <Trackpoint>
            <Time>2019-08-01T10:46:39.000Z</Time>
            <Position>
              <LatitudeDegrees>40.57153821922838687896728515625</LatitudeDegrees>
              <LongitudeDegrees>-4.0086648054420948028564453125</LongitudeDegrees>
            </Position>
            <AltitudeMeters>904</AltitudeMeters>
            <DistanceMeters>NAN</DistanceMeters>
          </Trackpoint>
          <Trackpoint>
            <Time>2019-08-01T10:46:40.000Z</Time>
            <Position>
              <LatitudeDegrees>40.571620278060436248779296875</LatitudeDegrees>
              <LongitudeDegrees>-4.00856740772724151611328125</LongitudeDegrees>
            </Position>
            <AltitudeMeters>903.20001220703125</AltitudeMeters>
            <DistanceMeters>NAN</DistanceMeters>
          </Trackpoint>
          <Trackpoint>
            <Time>2019-08-01T10:46:41.000Z</Time>
            <Position>
              <LatitudeDegrees>40.5716985650360584259033203125</LatitudeDegrees>
              <LongitudeDegrees>-4.00846472941339015960693359375</LongitudeDegrees>
            </Position>
            <AltitudeMeters>902.4000244140625</AltitudeMeters>
            <DistanceMeters>NAN</DistanceMeters>
          </Trackpoint>
          <Trackpoint>
            <Time>2019-08-01T10:46:42.000Z</Time>
            <Position>
              <LatitudeDegrees>40.57177408598363399505615234375</LatitudeDegrees>
              <LongitudeDegrees>-4.008361212909221649169921875</LongitudeDegrees>
            </Position>
            <AltitudeMeters>901.79998779296875</AltitudeMeters>
            <DistanceMeters>NAN</DistanceMeters>
          </Trackpoint>
          <Trackpoint>
            <Time>2019-08-01T10:46:43.000Z</Time>
            <Position>
              <LatitudeDegrees>40.57184952311217784881591796875</LatitudeDegrees>
              <LongitudeDegrees>-4.0082574449479579925537109375</LongitudeDegrees>
            </Position>
            <AltitudeMeters>901.4000244140625</AltitudeMeters>
            <DistanceMeters>NAN</DistanceMeters>
          </Trackpoint>
          <Trackpoint>
            <Time>2019-08-01T10:46:44.000Z</Time>
            <Position>
              <LatitudeDegrees>40.57192428968846797943115234375</LatitudeDegrees>
              <LongitudeDegrees>-4.0081511624157428741455078125</LongitudeDegrees>
            </Position>
            <AltitudeMeters>901.20001220703125</AltitudeMeters>
            <DistanceMeters>NAN</DistanceMeters>
          </Trackpoint>
          <Trackpoint>
            <Time>2019-08-01T10:46:45.000Z</Time>
            <Position>
              <LatitudeDegrees>40.57199855335056781768798828125</LatitudeDegrees>
              <LongitudeDegrees>-4.00804295204579830169677734375</LongitudeDegrees>
            </Position>
            <AltitudeMeters>900.5999755859375</AltitudeMeters>
            <DistanceMeters>NAN</DistanceMeters>
          </Trackpoint>
          <Trackpoint>
            <Time>2019-08-01T10:46:46.000Z</Time>
            <Position>
              <LatitudeDegrees>40.57207323610782623291015625</LatitudeDegrees>
              <LongitudeDegrees>-4.007936753332614898681640625</LongitudeDegrees>
            </Position>
            <AltitudeMeters>899.79998779296875</AltitudeMeters>
            <DistanceMeters>NAN</DistanceMeters>
          </Trackpoint>
          <Trackpoint>
            <Time>2019-08-01T10:46:47.000Z</Time>
            <Position>
              <LatitudeDegrees>40.572147667407989501953125</LatitudeDegrees>
              <LongitudeDegrees>-4.0078319795429706573486328125</LongitudeDegrees>
            </Position>
            <AltitudeMeters>899.20001220703125</AltitudeMeters>
            <DistanceMeters>NAN</DistanceMeters>
          </Trackpoint>
          <Trackpoint>
            <Time>2019-08-01T10:46:48.000Z</Time>
            <Position>
              <LatitudeDegrees>40.57222218252718448638916015625</LatitudeDegrees>
              <LongitudeDegrees>-4.00772653520107269287109375</LongitudeDegrees>
            </Position>
            <AltitudeMeters>898.79998779296875</AltitudeMeters>
            <DistanceMeters>NAN</DistanceMeters>
          </Trackpoint>
          <Trackpoint>
            <Time>2019-08-01T10:46:49.000Z</Time>
            <Position>
              <LatitudeDegrees>40.572294853627681732177734375</LatitudeDegrees>
              <LongitudeDegrees>-4.007618911564350128173828125</LongitudeDegrees>
            </Position>
            <AltitudeMeters>898.5999755859375</AltitudeMeters>
            <DistanceMeters>NAN</DistanceMeters>
          </Trackpoint>
          <Trackpoint>
            <Time>2019-08-01T10:46:50.000Z</Time>
            <Position>
              <LatitudeDegrees>40.57236920110881328582763671875</LatitudeDegrees>
              <LongitudeDegrees>-4.00751036591827869415283203125</LongitudeDegrees>
            </Position>
            <AltitudeMeters>897.79998779296875</AltitudeMeters>
            <DistanceMeters>NAN</DistanceMeters>
          </Trackpoint>
          <Trackpoint>
            <Time>2019-08-01T10:46:51.000Z</Time>
            <Position>
              <LatitudeDegrees>40.57244245894253253936767578125</LatitudeDegrees>
              <LongitudeDegrees>-4.0074024908244609832763671875</LongitudeDegrees>
            </Position>
            <AltitudeMeters>897.5999755859375</AltitudeMeters>
            <DistanceMeters>NAN</DistanceMeters>
          </Trackpoint>
          <Trackpoint>
            <Time>2019-08-01T10:46:52.000Z</Time>
            <Position>
              <LatitudeDegrees>40.57251638732850551605224609375</LatitudeDegrees>
              <LongitudeDegrees>-4.0072931908071041107177734375</LongitudeDegrees>
            </Position>
            <AltitudeMeters>897.20001220703125</AltitudeMeters>
            <DistanceMeters>NAN</DistanceMeters>
          </Trackpoint>
          <Trackpoint>
            <Time>2019-08-01T10:46:53.000Z</Time>
            <Position>
              <LatitudeDegrees>40.5725910700857639312744140625</LatitudeDegrees>
              <LongitudeDegrees>-4.007185064256191253662109375</LongitudeDegrees>
            </Position>
            <AltitudeMeters>896.79998779296875</AltitudeMeters>
            <DistanceMeters>NAN</DistanceMeters>
          </Trackpoint>
          <Trackpoint>
            <Time>2019-08-01T10:46:54.000Z</Time>
            <Position>
              <LatitudeDegrees>40.57266809977591037750244140625</LatitudeDegrees>
              <LongitudeDegrees>-4.00707635097205638885498046875</LongitudeDegrees>
            </Position>
            <AltitudeMeters>896.4000244140625</AltitudeMeters>
            <DistanceMeters>NAN</DistanceMeters>
          </Trackpoint>
          <Trackpoint>
            <Time>2019-08-01T10:46:55.000Z</Time>
            <Position>
              <LatitudeDegrees>40.5727446265518665313720703125</LatitudeDegrees>
              <LongitudeDegrees>-4.00696705095469951629638671875</LongitudeDegrees>
            </Position>
            <AltitudeMeters>896</AltitudeMeters>
            <DistanceMeters>NAN</DistanceMeters>
          </Trackpoint>
          <Trackpoint>
            <Time>2019-08-01T10:46:56.000Z</Time>
            <Position>
              <LatitudeDegrees>40.5728209018707275390625</LatitudeDegrees>
              <LongitudeDegrees>-4.0068583376705646514892578125</LongitudeDegrees>
            </Position>
            <AltitudeMeters>895.79998779296875</AltitudeMeters>
            <DistanceMeters>NAN</DistanceMeters>
          </Trackpoint>
          <Trackpoint>
            <Time>2019-08-01T10:46:57.000Z</Time>
            <Position>
              <LatitudeDegrees>40.57289675809442996978759765625</LatitudeDegrees>
              <LongitudeDegrees>-4.00675130076706409454345703125</LongitudeDegrees>
            </Position>
            <AltitudeMeters>895.5999755859375</AltitudeMeters>
            <DistanceMeters>NAN</DistanceMeters>
          </Trackpoint>
          <Trackpoint>
            <Time>2019-08-01T10:46:58.000Z</Time>
            <Position>
              <LatitudeDegrees>40.57297286577522754669189453125</LatitudeDegrees>
              <LongitudeDegrees>-4.00664485059678554534912109375</LongitudeDegrees>
            </Position>
            <AltitudeMeters>895.4000244140625</AltitudeMeters>
            <DistanceMeters>NAN</DistanceMeters>
          </Trackpoint>
          <Trackpoint>
            <Time>2019-08-01T10:46:59.000Z</Time>
            <Position>
              <LatitudeDegrees>40.5730487219989299774169921875</LatitudeDegrees>
              <LongitudeDegrees>-4.006538651883602142333984375</LongitudeDegrees>
            </Position>
            <AltitudeMeters>895.20001220703125</AltitudeMeters>
            <DistanceMeters>NAN</DistanceMeters>
          </Trackpoint>
          <Trackpoint>
            <Time>2019-08-01T10:47:00.000Z</Time>
            <Position>
              <LatitudeDegrees>40.5730487219989299774169921875</LatitudeDegrees>
              <LongitudeDegrees>-4.006538651883602142333984375</LongitudeDegrees>
            </Position>
            <AltitudeMeters>894.79998779296875</AltitudeMeters>
            <DistanceMeters>NAN</DistanceMeters>
          </Trackpoint>
          <Trackpoint>
            <Time>2019-08-01T10:47:01.000Z</Time>
            <Position>
              <LatitudeDegrees>40.573201440274715423583984375</LatitudeDegrees>
              <LongitudeDegrees>-4.00632684119045734405517578125</LongitudeDegrees>
            </Position>
            <AltitudeMeters>894.4000244140625</AltitudeMeters>
            <DistanceMeters>NAN</DistanceMeters>
          </Trackpoint>
          <Trackpoint>
            <Time>2019-08-01T10:47:02.000Z</Time>
            <Position>
              <LatitudeDegrees>40.57327729649841785430908203125</LatitudeDegrees>
              <LongitudeDegrees>-4.00622156448662281036376953125</LongitudeDegrees>
            </Position>
            <AltitudeMeters>893.5999755859375</AltitudeMeters>
            <DistanceMeters>NAN</DistanceMeters>
          </Trackpoint>
          <Trackpoint>
            <Time>2019-08-01T10:47:03.000Z</Time>
            <Position>
              <LatitudeDegrees>40.57335357181727886199951171875</LatitudeDegrees>
              <LongitudeDegrees>-4.0061163716018199920654296875</LongitudeDegrees>
            </Position>
            <AltitudeMeters>893.20001220703125</AltitudeMeters>
            <DistanceMeters>NAN</DistanceMeters>
          </Trackpoint>
          <Trackpoint>
            <Time>2019-08-01T10:47:04.000Z</Time>
            <Position>
              <LatitudeDegrees>40.57335357181727886199951171875</LatitudeDegrees>
              <LongitudeDegrees>-4.0061163716018199920654296875</LongitudeDegrees>
            </Position>
            <AltitudeMeters>892.79998779296875</AltitudeMeters>
            <DistanceMeters>NAN</DistanceMeters>
          </Trackpoint>
          <Trackpoint>
            <Time>2019-08-01T10:47:05.000Z</Time>
            <Position>
              <LatitudeDegrees>40.5735050328075885772705078125</LatitudeDegrees>
              <LongitudeDegrees>-4.0059085004031658172607421875</LongitudeDegrees>
            </Position>
            <AltitudeMeters>892.4000244140625</AltitudeMeters>
            <DistanceMeters>NAN</DistanceMeters>
          </Trackpoint>
          <Trackpoint>
            <Time>2019-08-01T10:47:06.000Z</Time>
            <Position>
              <LatitudeDegrees>40.57357736863195896148681640625</LatitudeDegrees>
              <LongitudeDegrees>-4.005810432136058807373046875</LongitudeDegrees>
            </Position>
            <AltitudeMeters>892</AltitudeMeters>
            <DistanceMeters>NAN</DistanceMeters>
          </Trackpoint>
          <Trackpoint>
            <Time>2019-08-01T10:47:07.000Z</Time>
            <Position>
              <LatitudeDegrees>40.57364459149539470672607421875</LatitudeDegrees>
              <LongitudeDegrees>-4.0057187341153621673583984375</LongitudeDegrees>
            </Position>
            <AltitudeMeters>891.4000244140625</AltitudeMeters>
            <DistanceMeters>NAN</DistanceMeters>
          </Trackpoint>
          <Trackpoint>
            <Time>2019-08-01T10:47:08.000Z</Time>
            <Position>
              <LatitudeDegrees>40.5736978165805339813232421875</LatitudeDegrees>
              <LongitudeDegrees>-4.00563751347362995147705078125</LongitudeDegrees>
            </Position>
            <AltitudeMeters>891.20001220703125</AltitudeMeters>
            <DistanceMeters>NAN</DistanceMeters>
          </Trackpoint>
          <Trackpoint>
            <Time>2019-08-01T10:47:09.000Z</Time>
            <Position>
              <LatitudeDegrees>40.5737360380589962005615234375</LatitudeDegrees>
              <LongitudeDegrees>-4.00556559674441814422607421875</LongitudeDegrees>
            </Position>
            <AltitudeMeters>891</AltitudeMeters>
            <DistanceMeters>NAN</DistanceMeters>
          </Trackpoint>
          <Trackpoint>
            <Time>2019-08-01T10:47:10.000Z</Time>
            <Position>
              <LatitudeDegrees>40.57376612909138202667236328125</LatitudeDegrees>
              <LongitudeDegrees>-4.00549636222422122955322265625</LongitudeDegrees>
            </Position>
            <AltitudeMeters>891</AltitudeMeters>
            <DistanceMeters>NAN</DistanceMeters>
          </Trackpoint>
          <Trackpoint>
            <Time>2019-08-01T10:47:11.000Z</Time>
            <Position>
              <LatitudeDegrees>40.57379278354346752166748046875</LatitudeDegrees>
              <LongitudeDegrees>-4.005428217351436614990234375</LongitudeDegrees>
            </Position>
            <AltitudeMeters>891</AltitudeMeters>
            <DistanceMeters>NAN</DistanceMeters>
          </Trackpoint>
          <Trackpoint>
            <Time>2019-08-01T10:47:12.000Z</Time>
            <Position>
              <LatitudeDegrees>40.57382346130907535552978515625</LatitudeDegrees>
              <LongitudeDegrees>-4.00536744855344295501708984375</LongitudeDegrees>
            </Position>
            <AltitudeMeters>891</AltitudeMeters>
            <DistanceMeters>NAN</DistanceMeters>
          </Trackpoint>
          <Trackpoint>
            <Time>2019-08-01T10:47:13.000Z</Time>
            <Position>
              <LatitudeDegrees>40.573859922587871551513671875</LatitudeDegrees>
              <LongitudeDegrees>-4.00532319210469722747802734375</LongitudeDegrees>
            </Position>
            <AltitudeMeters>890.79998779296875</AltitudeMeters>
            <DistanceMeters>NAN</DistanceMeters>
          </Trackpoint>
          <Trackpoint>
            <Time>2019-08-01T10:47:14.000Z</Time>
            <Position>
              <LatitudeDegrees>40.5739056877791881561279296875</LatitudeDegrees>
              <LongitudeDegrees>-4.00530491955578327178955078125</LongitudeDegrees>
            </Position>
            <AltitudeMeters>890.79998779296875</AltitudeMeters>
            <DistanceMeters>NAN</DistanceMeters>
          </Trackpoint>
          <Trackpoint>
            <Time>2019-08-01T10:47:15.000Z</Time>
            <Position>
              <LatitudeDegrees>40.57395388372242450714111328125</LatitudeDegrees>
              <LongitudeDegrees>-4.00532436557114124298095703125</LongitudeDegrees>
            </Position>
            <AltitudeMeters>890.79998779296875</AltitudeMeters>
            <DistanceMeters>NAN</DistanceMeters>
          </Trackpoint>
          <Trackpoint>
            <Time>2019-08-01T10:47:16.000Z</Time>
            <Position>
              <LatitudeDegrees>40.5739995650947093963623046875</LatitudeDegrees>
              <LongitudeDegrees>-4.00537633337080478668212890625</LongitudeDegrees>
            </Position>
            <AltitudeMeters>890.79998779296875</AltitudeMeters>
            <DistanceMeters>NAN</DistanceMeters>
          </Trackpoint>
          <Trackpoint>
            <Time>2019-08-01T10:47:17.000Z</Time>
            <Position>
              <LatitudeDegrees>40.57403468526899814605712890625</LatitudeDegrees>
              <LongitudeDegrees>-4.00544774718582630157470703125</LongitudeDegrees>
            </Position>
            <AltitudeMeters>890.5999755859375</AltitudeMeters>
            <DistanceMeters>NAN</DistanceMeters>
          </Trackpoint>
          <Trackpoint>
            <Time>2019-08-01T10:47:18.000Z</Time>
            <Position>
              <LatitudeDegrees>40.57405698113143444061279296875</LatitudeDegrees>
              <LongitudeDegrees>-4.00553508661687374114990234375</LongitudeDegrees>
            </Position>
            <AltitudeMeters>890.5999755859375</AltitudeMeters>
            <DistanceMeters>NAN</DistanceMeters>
          </Trackpoint>
          <Trackpoint>
            <Time>2019-08-01T10:47:19.000Z</Time>
            <Position>
              <LatitudeDegrees>40.57406435720622539520263671875</LatitudeDegrees>
              <LongitudeDegrees>-4.00562661699950695037841796875</LongitudeDegrees>
            </Position>
            <AltitudeMeters>890.5999755859375</AltitudeMeters>
            <DistanceMeters>NAN</DistanceMeters>
          </Trackpoint>
          <Trackpoint>
            <Time>2019-08-01T10:47:20.000Z</Time>
            <Position>
              <LatitudeDegrees>40.5740654468536376953125</LatitudeDegrees>
              <LongitudeDegrees>-4.005724601447582244873046875</LongitudeDegrees>
            </Position>
            <AltitudeMeters>890.5999755859375</AltitudeMeters>
            <DistanceMeters>NAN</DistanceMeters>
          </Trackpoint>
          <Trackpoint>
            <Time>2019-08-01T10:47:21.000Z</Time>
            <Position>
              <LatitudeDegrees>40.574074499309062957763671875</LatitudeDegrees>
              <LongitudeDegrees>-4.00582174770534038543701171875</LongitudeDegrees>
            </Position>
            <AltitudeMeters>890.5999755859375</AltitudeMeters>
            <DistanceMeters>NAN</DistanceMeters>
          </Trackpoint>
          <Trackpoint>
            <Time>2019-08-01T10:47:22.000Z</Time>
            <Position>
              <LatitudeDegrees>40.57409117929637432098388671875</LatitudeDegrees>
              <LongitudeDegrees>-4.0059162117540836334228515625</LongitudeDegrees>
            </Position>
            <AltitudeMeters>890.4000244140625</AltitudeMeters>
            <DistanceMeters>NAN</DistanceMeters>
          </Trackpoint>
          <Trackpoint>
            <Time>2019-08-01T10:47:23.000Z</Time>
            <Position>
              <LatitudeDegrees>40.57411498390138149261474609375</LatitudeDegrees>
              <LongitudeDegrees>-4.00601184926927089691162109375</LongitudeDegrees>
            </Position>
            <AltitudeMeters>890.4000244140625</AltitudeMeters>
            <DistanceMeters>NAN</DistanceMeters>
          </Trackpoint>
          <Trackpoint>
            <Time>2019-08-01T10:47:24.000Z</Time>
            <Position>
              <LatitudeDegrees>40.5741445720195770263671875</LatitudeDegrees>
              <LongitudeDegrees>-4.0061100013554096221923828125</LongitudeDegrees>
            </Position>
            <AltitudeMeters>890.20001220703125</AltitudeMeters>
            <DistanceMeters>NAN</DistanceMeters>
          </Trackpoint>
          <Trackpoint>
            <Time>2019-08-01T10:47:25.000Z</Time>
            <Position>
              <LatitudeDegrees>40.574171729385852813720703125</LatitudeDegrees>
              <LongitudeDegrees>-4.00620630942285060882568359375</LongitudeDegrees>
            </Position>
            <AltitudeMeters>890.20001220703125</AltitudeMeters>
            <DistanceMeters>NAN</DistanceMeters>
          </Trackpoint>
          <Trackpoint>
            <Time>2019-08-01T10:47:26.000Z</Time>
            <Position>
              <LatitudeDegrees>40.5742003954946994781494140625</LatitudeDegrees>
              <LongitudeDegrees>-4.00630186311900615692138671875</LongitudeDegrees>
            </Position>
            <AltitudeMeters>890.20001220703125</AltitudeMeters>
            <DistanceMeters>NAN</DistanceMeters>
          </Trackpoint>
          <Trackpoint>
            <Time>2019-08-01T10:47:27.000Z</Time>
            <Position>
              <LatitudeDegrees>40.57422797195613384246826171875</LatitudeDegrees>
              <LongitudeDegrees>-4.00639708153903484344482421875</LongitudeDegrees>
            </Position>
            <AltitudeMeters>890.20001220703125</AltitudeMeters>
            <DistanceMeters>NAN</DistanceMeters>
          </Trackpoint>
          <Trackpoint>
            <Time>2019-08-01T10:47:28.000Z</Time>
            <Position>
              <LatitudeDegrees>40.57425479404628276824951171875</LatitudeDegrees>
              <LongitudeDegrees>-4.006492383778095245361328125</LongitudeDegrees>
            </Position>
            <AltitudeMeters>890.20001220703125</AltitudeMeters>
            <DistanceMeters>NAN</DistanceMeters>
          </Trackpoint>
          <Trackpoint>
            <Time>2019-08-01T10:47:29.000Z</Time>
            <Position>
              <LatitudeDegrees>40.57428144849836826324462890625</LatitudeDegrees>
              <LongitudeDegrees>-4.00658718310296535491943359375</LongitudeDegrees>
            </Position>
            <AltitudeMeters>890.20001220703125</AltitudeMeters>
            <DistanceMeters>NAN</DistanceMeters>
          </Trackpoint>
          <Trackpoint>
            <Time>2019-08-01T10:47:30.000Z</Time>
            <Position>
              <LatitudeDegrees>40.57430860586464405059814453125</LatitudeDegrees>
              <LongitudeDegrees>-4.0066813118755817413330078125</LongitudeDegrees>
            </Position>
            <AltitudeMeters>890.20001220703125</AltitudeMeters>
            <DistanceMeters>NAN</DistanceMeters>
          </Trackpoint>
          <Trackpoint>
            <Time>2019-08-01T10:47:31.000Z</Time>
            <Position>
              <LatitudeDegrees>40.57433542795479297637939453125</LatitudeDegrees>
              <LongitudeDegrees>-4.0067741833627223968505859375</LongitudeDegrees>
            </Position>
            <AltitudeMeters>890.20001220703125</AltitudeMeters>
            <DistanceMeters>NAN</DistanceMeters>
          </Trackpoint>
          <Trackpoint>
            <Time>2019-08-01T10:47:32.000Z</Time>
            <Position>
              <LatitudeDegrees>40.57436174713075160980224609375</LatitudeDegrees>
              <LongitudeDegrees>-4.00686529465019702911376953125</LongitudeDegrees>
            </Position>
            <AltitudeMeters>890.20001220703125</AltitudeMeters>
            <DistanceMeters>NAN</DistanceMeters>
          </Trackpoint>
          <Trackpoint>
            <Time>2019-08-01T10:47:33.000Z</Time>
            <Position>
              <LatitudeDegrees>40.57438706047832965850830078125</LatitudeDegrees>
              <LongitudeDegrees>-4.00695548392832279205322265625</LongitudeDegrees>
            </Position>
            <AltitudeMeters>890.20001220703125</AltitudeMeters>
            <DistanceMeters>NAN</DistanceMeters>
          </Trackpoint>
          <Trackpoint>
            <Time>2019-08-01T10:47:34.000Z</Time>
            <Position>
              <LatitudeDegrees>40.57441287674009799957275390625</LatitudeDegrees>
              <LongitudeDegrees>-4.00704299099743366241455078125</LongitudeDegrees>
            </Position>
            <AltitudeMeters>890.20001220703125</AltitudeMeters>
            <DistanceMeters>NAN</DistanceMeters>
          </Trackpoint>
          <Trackpoint>
            <Time>2019-08-01T10:47:35.000Z</Time>
            <Position>
              <LatitudeDegrees>40.5744384415447711944580078125</LatitudeDegrees>
              <LongitudeDegrees>-4.007129408419132232666015625</LongitudeDegrees>
            </Position>
            <AltitudeMeters>890.20001220703125</AltitudeMeters>
            <DistanceMeters>NAN</DistanceMeters>
          </Trackpoint>
          <Trackpoint>
            <Time>2019-08-01T10:47:36.000Z</Time>
            <Position>
              <LatitudeDegrees>40.5744632519781589508056640625</LatitudeDegrees>
              <LongitudeDegrees>-4.00721632875502109527587890625</LongitudeDegrees>
            </Position>
            <AltitudeMeters>890.4000244140625</AltitudeMeters>
            <DistanceMeters>NAN</DistanceMeters>
          </Trackpoint>
          <Trackpoint>
            <Time>2019-08-01T10:47:37.000Z</Time>
            <Position>
              <LatitudeDegrees>40.574488230049610137939453125</LatitudeDegrees>
              <LongitudeDegrees>-4.007301069796085357666015625</LongitudeDegrees>
            </Position>
            <AltitudeMeters>890.4000244140625</AltitudeMeters>
            <DistanceMeters>NAN</DistanceMeters>
          </Trackpoint>
          <Trackpoint>
            <Time>2019-08-01T10:47:38.000Z</Time>
            <Position>
              <LatitudeDegrees>40.5745128728449344635009765625</LatitudeDegrees>
              <LongitudeDegrees>-4.0073847211897373199462890625</LongitudeDegrees>
            </Position>
            <AltitudeMeters>890.5999755859375</AltitudeMeters>
            <DistanceMeters>NAN</DistanceMeters>
          </Trackpoint>
          <Trackpoint>
            <Time>2019-08-01T10:47:39.000Z</Time>
            <Position>
              <LatitudeDegrees>40.57453676126897335052490234375</LatitudeDegrees>
              <LongitudeDegrees>-4.00746761821210384368896484375</LongitudeDegrees>
            </Position>
            <AltitudeMeters>890.5999755859375</AltitudeMeters>
            <DistanceMeters>NAN</DistanceMeters>
          </Trackpoint>
          <Trackpoint>
            <Time>2019-08-01T10:47:40.000Z</Time>
            <Position>
              <LatitudeDegrees>40.57456006295979022979736328125</LatitudeDegrees>
              <LongitudeDegrees>-4.007550515234470367431640625</LongitudeDegrees>
            </Position>
            <AltitudeMeters>890.5999755859375</AltitudeMeters>
            <DistanceMeters>NAN</DistanceMeters>
          </Trackpoint>
          <Trackpoint>
            <Time>2019-08-01T10:47:41.000Z</Time>
            <Position>
              <LatitudeDegrees>40.5745826102793216705322265625</LatitudeDegrees>
              <LongitudeDegrees>-4.007633663713932037353515625</LongitudeDegrees>
            </Position>
            <AltitudeMeters>890.79998779296875</AltitudeMeters>
            <DistanceMeters>NAN</DistanceMeters>
          </Trackpoint>
          <Trackpoint>
            <Time>2019-08-01T10:47:42.000Z</Time>
            <Position>
              <LatitudeDegrees>40.57460524141788482666015625</LatitudeDegrees>
              <LongitudeDegrees>-4.0077159740030765533447265625</LongitudeDegrees>
            </Position>
            <AltitudeMeters>890.79998779296875</AltitudeMeters>
            <DistanceMeters>NAN</DistanceMeters>
          </Trackpoint>
          <Trackpoint>
            <Time>2019-08-01T10:47:43.000Z</Time>
            <Position>
              <LatitudeDegrees>40.57462812401354312896728515625</LatitudeDegrees>
              <LongitudeDegrees>-4.00779417715966701507568359375</LongitudeDegrees>
            </Position>
            <AltitudeMeters>891</AltitudeMeters>
            <DistanceMeters>NAN</DistanceMeters>
          </Trackpoint>
          <Trackpoint>
            <Time>2019-08-01T10:47:44.000Z</Time>
            <Position>
              <LatitudeDegrees>40.5746506713330745697021484375</LatitudeDegrees>
              <LongitudeDegrees>-4.00787162594497203826904296875</LongitudeDegrees>
            </Position>
            <AltitudeMeters>891.20001220703125</AltitudeMeters>
            <DistanceMeters>NAN</DistanceMeters>
          </Trackpoint>
          <Trackpoint>
            <Time>2019-08-01T10:47:45.000Z</Time>
            <Position>
              <LatitudeDegrees>40.5746738053858280181884765625</LatitudeDegrees>
              <LongitudeDegrees>-4.00794647634029388427734375</LongitudeDegrees>
            </Position>
            <AltitudeMeters>891.20001220703125</AltitudeMeters>
            <DistanceMeters>NAN</DistanceMeters>
          </Trackpoint>
          <Trackpoint>
            <Time>2019-08-01T10:47:46.000Z</Time>
            <Position>
              <LatitudeDegrees>40.57469484396278858184814453125</LatitudeDegrees>
              <LongitudeDegrees>-4.0080230869352817535400390625</LongitudeDegrees>
            </Position>
            <AltitudeMeters>891.4000244140625</AltitudeMeters>
            <DistanceMeters>NAN</DistanceMeters>
          </Trackpoint>
          <Trackpoint>
            <Time>2019-08-01T10:47:47.000Z</Time>
            <Position>
              <LatitudeDegrees>40.57471630163490772247314453125</LatitudeDegrees>
              <LongitudeDegrees>-4.00809810496866703033447265625</LongitudeDegrees>
            </Position>
            <AltitudeMeters>891.4000244140625</AltitudeMeters>
            <DistanceMeters>NAN</DistanceMeters>
          </Trackpoint>
          <Trackpoint>
            <Time>2019-08-01T10:47:48.000Z</Time>
            <Position>
              <LatitudeDegrees>40.5747381784021854400634765625</LatitudeDegrees>
              <LongitudeDegrees>-4.00817203335464000701904296875</LongitudeDegrees>
            </Position>
            <AltitudeMeters>891.5999755859375</AltitudeMeters>
            <DistanceMeters>NAN</DistanceMeters>
          </Trackpoint>
          <Trackpoint>
            <Time>2019-08-01T10:47:49.000Z</Time>
            <Position>
              <LatitudeDegrees>40.57475871406495571136474609375</LatitudeDegrees>
              <LongitudeDegrees>-4.00824562646448612213134765625</LongitudeDegrees>
            </Position>
            <AltitudeMeters>892</AltitudeMeters>
            <DistanceMeters>NAN</DistanceMeters>
          </Trackpoint>
          <Trackpoint>
            <Time>2019-08-01T10:47:51.000Z</Time>
            <Position>
              <LatitudeDegrees>40.57480037212371826171875</LatitudeDegrees>
              <LongitudeDegrees>-4.00839574635028839111328125</LongitudeDegrees>
            </Position>
            <AltitudeMeters>892.20001220703125</AltitudeMeters>
            <DistanceMeters>NAN</DistanceMeters>
          </Trackpoint>
          <Trackpoint>
            <Time>2019-08-01T10:47:52.000Z</Time>
            <Position>
              <LatitudeDegrees>40.5748204886913299560546875</LatitudeDegrees>
              <LongitudeDegrees>-4.0084723569452762603759765625</LongitudeDegrees>
            </Position>
            <AltitudeMeters>892.20001220703125</AltitudeMeters>
            <DistanceMeters>NAN</DistanceMeters>
          </Trackpoint>
          <Trackpoint>
            <Time>2019-08-01T10:47:53.000Z</Time>
            <Position>
              <LatitudeDegrees>40.57484018616378307342529296875</LatitudeDegrees>
              <LongitudeDegrees>-4.0085493028163909912109375</LongitudeDegrees>
            </Position>
            <AltitudeMeters>892.4000244140625</AltitudeMeters>
            <DistanceMeters>NAN</DistanceMeters>
          </Trackpoint>
          <Trackpoint>
            <Time>2019-08-01T10:47:54.000Z</Time>
            <Position>
              <LatitudeDegrees>40.5748605541884899139404296875</LatitudeDegrees>
              <LongitudeDegrees>-4.0086255781352519989013671875</LongitudeDegrees>
            </Position>
            <AltitudeMeters>892.4000244140625</AltitudeMeters>
            <DistanceMeters>NAN</DistanceMeters>
          </Trackpoint>
          <Trackpoint>
            <Time>2019-08-01T10:47:55.000Z</Time>
            <Position>
              <LatitudeDegrees>40.57488058693706989288330078125</LatitudeDegrees>
              <LongitudeDegrees>-4.00870160199701786041259765625</LongitudeDegrees>
            </Position>
            <AltitudeMeters>892.4000244140625</AltitudeMeters>
            <DistanceMeters>NAN</DistanceMeters>
          </Trackpoint>
          <Trackpoint>
            <Time>2019-08-01T10:47:56.000Z</Time>
            <Position>
              <LatitudeDegrees>40.574902631342411041259765625</LatitudeDegrees>
              <LongitudeDegrees>-4.00877469219267368316650390625</LongitudeDegrees>
            </Position>
            <AltitudeMeters>892.4000244140625</AltitudeMeters>
            <DistanceMeters>NAN</DistanceMeters>
          </Trackpoint>
          <Trackpoint>
            <Time>2019-08-01T10:47:57.000Z</Time>
            <Position>
              <LatitudeDegrees>40.5749242566525936126708984375</LatitudeDegrees>
              <LongitudeDegrees>-4.0088497102260589599609375</LongitudeDegrees>
            </Position>
            <AltitudeMeters>892.5999755859375</AltitudeMeters>
            <DistanceMeters>NAN</DistanceMeters>
          </Trackpoint>
          <Trackpoint>
            <Time>2019-08-01T10:47:58.000Z</Time>
            <Position>
              <LatitudeDegrees>40.57494747452437877655029296875</LatitudeDegrees>
              <LongitudeDegrees>-4.00892305187880992889404296875</LongitudeDegrees>
            </Position>
            <AltitudeMeters>892.5999755859375</AltitudeMeters>
            <DistanceMeters>NAN</DistanceMeters>
          </Trackpoint>
          <Trackpoint>
            <Time>2019-08-01T10:47:59.000Z</Time>
            <Position>
              <LatitudeDegrees>40.57496893219649791717529296875</LatitudeDegrees>
              <LongitudeDegrees>-4.0089973993599414825439453125</LongitudeDegrees>
            </Position>
            <AltitudeMeters>893</AltitudeMeters>
            <DistanceMeters>NAN</DistanceMeters>
          </Trackpoint>
          <Trackpoint>
            <Time>2019-08-01T10:48:01.000Z</Time>
            <Position>
              <LatitudeDegrees>40.57501151226460933685302734375</LatitudeDegrees>
              <LongitudeDegrees>-4.009145759046077728271484375</LongitudeDegrees>
            </Position>
            <AltitudeMeters>894</AltitudeMeters>
            <DistanceMeters>NAN</DistanceMeters>
          </Trackpoint>
          <Trackpoint>
            <Time>2019-08-01T10:48:02.000Z</Time>
            <Position>
              <LatitudeDegrees>40.5750323832035064697265625</LatitudeDegrees>
              <LongitudeDegrees>-4.00922127999365329742431640625</LongitudeDegrees>
            </Position>
            <AltitudeMeters>895</AltitudeMeters>
            <DistanceMeters>NAN</DistanceMeters>
          </Trackpoint>
          <Trackpoint>
            <Time>2019-08-01T10:48:03.000Z</Time>
            <Position>
              <LatitudeDegrees>40.5750523321330547332763671875</LatitudeDegrees>
              <LongitudeDegrees>-4.00929789058864116668701171875</LongitudeDegrees>
            </Position>
            <AltitudeMeters>895</AltitudeMeters>
            <DistanceMeters>NAN</DistanceMeters>
          </Trackpoint>
          <Trackpoint>
            <Time>2019-08-01T10:48:04.000Z</Time>
            <Position>
              <LatitudeDegrees>40.575074292719364166259765625</LatitudeDegrees>
              <LongitudeDegrees>-4.00937114842236042022705078125</LongitudeDegrees>
            </Position>
            <AltitudeMeters>895.4000244140625</AltitudeMeters>
            <DistanceMeters>NAN</DistanceMeters>
          </Trackpoint>
          <Trackpoint>
            <Time>2019-08-01T10:48:05.000Z</Time>
            <Position>
              <LatitudeDegrees>40.57509608566761016845703125</LatitudeDegrees>
              <LongitudeDegrees>-4.00944407097995281219482421875</LongitudeDegrees>
            </Position>
            <AltitudeMeters>895.20001220703125</AltitudeMeters>
            <DistanceMeters>NAN</DistanceMeters>
          </Trackpoint>
          <Trackpoint>
            <Time>2019-08-01T10:48:06.000Z</Time>
            <Position>
              <LatitudeDegrees>40.57511595077812671661376953125</LatitudeDegrees>
              <LongitudeDegrees>-4.009521268308162689208984375</LongitudeDegrees>
            </Position>
            <AltitudeMeters>895.4000244140625</AltitudeMeters>
            <DistanceMeters>NAN</DistanceMeters>
          </Trackpoint>
          <Trackpoint>
            <Time>2019-08-01T10:48:07.000Z</Time>
            <Position>
              <LatitudeDegrees>40.5751371569931507110595703125</LatitudeDegrees>
              <LongitudeDegrees>-4.00959997437894344329833984375</LongitudeDegrees>
            </Position>
            <AltitudeMeters>895.4000244140625</AltitudeMeters>
            <DistanceMeters>NAN</DistanceMeters>
          </Trackpoint>
          <Trackpoint>
            <Time>2019-08-01T10:48:08.000Z</Time>
            <Position>
              <LatitudeDegrees>40.57515920139849185943603515625</LatitudeDegrees>
              <LongitudeDegrees>-4.009678177535533905029296875</LongitudeDegrees>
            </Position>
            <AltitudeMeters>895.5999755859375</AltitudeMeters>
            <DistanceMeters>NAN</DistanceMeters>
          </Trackpoint>
          <Trackpoint>
            <Time>2019-08-01T10:48:09.000Z</Time>
            <Position>
              <LatitudeDegrees>40.57518652640283107757568359375</LatitudeDegrees>
              <LongitudeDegrees>-4.0097571350634098052978515625</LongitudeDegrees>
            </Position>
            <AltitudeMeters>895.5999755859375</AltitudeMeters>
            <DistanceMeters>NAN</DistanceMeters>
          </Trackpoint>
          <Trackpoint>
            <Time>2019-08-01T10:48:10.000Z</Time>
            <Position>
              <LatitudeDegrees>40.5752290226519107818603515625</LatitudeDegrees>
              <LongitudeDegrees>-4.0098241902887821197509765625</LongitudeDegrees>
            </Position>
            <AltitudeMeters>895.79998779296875</AltitudeMeters>
            <DistanceMeters>NAN</DistanceMeters>
          </Trackpoint>
          <Trackpoint>
            <Time>2019-08-01T10:48:11.000Z</Time>
            <Position>
              <LatitudeDegrees>40.57528962381184101104736328125</LatitudeDegrees>
              <LongitudeDegrees>-4.009867273271083831787109375</LongitudeDegrees>
            </Position>
            <AltitudeMeters>896</AltitudeMeters>
            <DistanceMeters>NAN</DistanceMeters>
          </Trackpoint>
          <Trackpoint>
            <Time>2019-08-01T10:48:12.000Z</Time>
            <Position>
              <LatitudeDegrees>40.5753570981323719024658203125</LatitudeDegrees>
              <LongitudeDegrees>-4.00989082641899585723876953125</LongitudeDegrees>
            </Position>
            <AltitudeMeters>896.20001220703125</AltitudeMeters>
            <DistanceMeters>NAN</DistanceMeters>
          </Trackpoint>
          <Trackpoint>
            <Time>2019-08-01T10:48:13.000Z</Time>
            <Position>
              <LatitudeDegrees>40.57542775757610797882080078125</LatitudeDegrees>
              <LongitudeDegrees>-4.0099019743502140045166015625</LongitudeDegrees>
            </Position>
            <AltitudeMeters>896.20001220703125</AltitudeMeters>
            <DistanceMeters>NAN</DistanceMeters>
          </Trackpoint>
          <Trackpoint>
            <Time>2019-08-01T10:48:14.000Z</Time>
            <Position>
              <LatitudeDegrees>40.5755009315907955169677734375</LatitudeDegrees>
              <LongitudeDegrees>-4.00991278700530529022216796875</LongitudeDegrees>
            </Position>
            <AltitudeMeters>896.4000244140625</AltitudeMeters>
            <DistanceMeters>NAN</DistanceMeters>
          </Trackpoint>
          <Trackpoint>
            <Time>2019-08-01T10:48:15.000Z</Time>
            <Position>
              <LatitudeDegrees>40.5755767039954662322998046875</LatitudeDegrees>
              <LongitudeDegrees>-4.00992485694587230682373046875</LongitudeDegrees>
            </Position>
            <AltitudeMeters>896.4000244140625</AltitudeMeters>
            <DistanceMeters>NAN</DistanceMeters>
          </Trackpoint>
          <Trackpoint>
            <Time>2019-08-01T10:48:17.000Z</Time>
            <Position>
              <LatitudeDegrees>40.57573176920413970947265625</LatitudeDegrees>
              <LongitudeDegrees>-4.00994530878961086273193359375</LongitudeDegrees>
            </Position>
            <AltitudeMeters>896.4000244140625</AltitudeMeters>
            <DistanceMeters>NAN</DistanceMeters>
          </Trackpoint>
          <Trackpoint>
            <Time>2019-08-01T10:48:18.000Z</Time>
            <Position>
              <LatitudeDegrees>40.57581198401749134063720703125</LatitudeDegrees>
              <LongitudeDegrees>-4.00995218195021152496337890625</LongitudeDegrees>
            </Position>
            <AltitudeMeters>896.4000244140625</AltitudeMeters>
            <DistanceMeters>NAN</DistanceMeters>
          </Trackpoint>
          <Trackpoint>
            <Time>2019-08-01T10:48:19.000Z</Time>
            <Position>
              <LatitudeDegrees>40.57589245028793811798095703125</LatitudeDegrees>
              <LongitudeDegrees>-4.00995771400630474090576171875</LongitudeDegrees>
            </Position>
            <AltitudeMeters>896.4000244140625</AltitudeMeters>
            <DistanceMeters>NAN</DistanceMeters>
          </Trackpoint>
          <Trackpoint>
            <Time>2019-08-01T10:48:20.000Z</Time>
            <Position>
              <LatitudeDegrees>40.57597207836806774139404296875</LatitudeDegrees>
              <LongitudeDegrees>-4.00996793992817401885986328125</LongitudeDegrees>
            </Position>
            <AltitudeMeters>896.4000244140625</AltitudeMeters>
            <DistanceMeters>NAN</DistanceMeters>
          </Trackpoint>
          <Trackpoint>
            <Time>2019-08-01T10:48:21.000Z</Time>
            <Position>
              <LatitudeDegrees>40.5760548077523708343505859375</LatitudeDegrees>
              <LongitudeDegrees>-4.0099735558032989501953125</LongitudeDegrees>
            </Position>
            <AltitudeMeters>896.4000244140625</AltitudeMeters>
            <DistanceMeters>NAN</DistanceMeters>
          </Trackpoint>
          <Trackpoint>
            <Time>2019-08-01T10:48:22.000Z</Time>
            <Position>
              <LatitudeDegrees>40.576137118041515350341796875</LatitudeDegrees>
              <LongitudeDegrees>-4.0099867992103099822998046875</LongitudeDegrees>
            </Position>
            <AltitudeMeters>896.4000244140625</AltitudeMeters>
            <DistanceMeters>NAN</DistanceMeters>
          </Trackpoint>
          <Trackpoint>
            <Time>2019-08-01T10:48:23.000Z</Time>
            <Position>
              <LatitudeDegrees>40.5762200988829135894775390625</LatitudeDegrees>
              <LongitudeDegrees>-4.010002054274082183837890625</LongitudeDegrees>
            </Position>
            <AltitudeMeters>896.4000244140625</AltitudeMeters>
            <DistanceMeters>NAN</DistanceMeters>
          </Trackpoint>
          <Trackpoint>
            <Time>2019-08-01T10:48:24.000Z</Time>
            <Position>
              <LatitudeDegrees>40.5763055942952632904052734375</LatitudeDegrees>
              <LongitudeDegrees>-4.01001471094787120819091796875</LongitudeDegrees>
            </Position>
            <AltitudeMeters>896.4000244140625</AltitudeMeters>
            <DistanceMeters>NAN</DistanceMeters>
          </Trackpoint>
          <Trackpoint>
            <Time>2019-08-01T10:48:25.000Z</Time>
            <Position>
              <LatitudeDegrees>40.5763920955359935760498046875</LatitudeDegrees>
              <LongitudeDegrees>-4.01002745144069194793701171875</LongitudeDegrees>
            </Position>
            <AltitudeMeters>896.4000244140625</AltitudeMeters>
            <DistanceMeters>NAN</DistanceMeters>
          </Trackpoint>
          <Trackpoint>
            <Time>2019-08-01T10:48:27.000Z</Time>
            <Position>
              <LatitudeDegrees>40.576564930379390716552734375</LatitudeDegrees>
              <LongitudeDegrees>-4.01005662046372890472412109375</LongitudeDegrees>
            </Position>
            <AltitudeMeters>896.20001220703125</AltitudeMeters>
            <DistanceMeters>NAN</DistanceMeters>
          </Trackpoint>
          <Trackpoint>
            <Time>2019-08-01T10:48:28.000Z</Time>
            <Position>
              <LatitudeDegrees>40.5766522698104381561279296875</LatitudeDegrees>
              <LongitudeDegrees>-4.010074473917484283447265625</LongitudeDegrees>
            </Position>
            <AltitudeMeters>896</AltitudeMeters>
            <DistanceMeters>NAN</DistanceMeters>
          </Trackpoint>
          <Trackpoint>
            <Time>2019-08-01T10:48:29.000Z</Time>
            <Position>
              <LatitudeDegrees>40.57674053125083446502685546875</LatitudeDegrees>
              <LongitudeDegrees>-4.01008981280028820037841796875</LongitudeDegrees>
            </Position>
            <AltitudeMeters>895.79998779296875</AltitudeMeters>
            <DistanceMeters>NAN</DistanceMeters>
          </Trackpoint>
          <Trackpoint>
            <Time>2019-08-01T10:48:30.000Z</Time>
            <Position>
              <LatitudeDegrees>40.5768306367099285125732421875</LatitudeDegrees>
              <LongitudeDegrees>-4.0101051516830921173095703125</LongitudeDegrees>
            </Position>
            <AltitudeMeters>895.5999755859375</AltitudeMeters>
            <DistanceMeters>NAN</DistanceMeters>
          </Trackpoint>
          <Trackpoint>
            <Time>2019-08-01T10:48:31.000Z</Time>
            <Position>
              <LatitudeDegrees>40.57692241854965686798095703125</LatitudeDegrees>
              <LongitudeDegrees>-4.010120071470737457275390625</LongitudeDegrees>
            </Position>
            <AltitudeMeters>895.4000244140625</AltitudeMeters>
            <DistanceMeters>NAN</DistanceMeters>
          </Trackpoint>
          <Trackpoint>
            <Time>2019-08-01T10:48:32.000Z</Time>
            <Position>
              <LatitudeDegrees>40.57701445184648036956787109375</LatitudeDegrees>
              <LongitudeDegrees>-4.01013524271547794342041015625</LongitudeDegrees>
            </Position>
            <AltitudeMeters>895.4000244140625</AltitudeMeters>
            <DistanceMeters>NAN</DistanceMeters>
          </Trackpoint>
          <Trackpoint>
            <Time>2019-08-01T10:48:33.000Z</Time>
            <Position>
              <LatitudeDegrees>40.5771048925817012786865234375</LatitudeDegrees>
              <LongitudeDegrees>-4.01015167124569416046142578125</LongitudeDegrees>
            </Position>
            <AltitudeMeters>895.20001220703125</AltitudeMeters>
            <DistanceMeters>NAN</DistanceMeters>
          </Trackpoint>
          <Trackpoint>
            <Time>2019-08-01T10:48:34.000Z</Time>
            <Position>
              <LatitudeDegrees>40.57719566859304904937744140625</LatitudeDegrees>
              <LongitudeDegrees>-4.010168351233005523681640625</LongitudeDegrees>
            </Position>
            <AltitudeMeters>895</AltitudeMeters>
            <DistanceMeters>NAN</DistanceMeters>
          </Trackpoint>
          <Trackpoint>
            <Time>2019-08-01T10:48:35.000Z</Time>
            <Position>
              <LatitudeDegrees>40.577287785708904266357421875</LatitudeDegrees>
              <LongitudeDegrees>-4.01018553413450717926025390625</LongitudeDegrees>
            </Position>
            <AltitudeMeters>894.79998779296875</AltitudeMeters>
            <DistanceMeters>NAN</DistanceMeters>
          </Trackpoint>
          <Trackpoint>
            <Time>2019-08-01T10:48:36.000Z</Time>
            <Position>
              <LatitudeDegrees>40.577380321919918060302734375</LatitudeDegrees>
              <LongitudeDegrees>-4.01020414195954799652099609375</LongitudeDegrees>
            </Position>
            <AltitudeMeters>894.5999755859375</AltitudeMeters>
            <DistanceMeters>NAN</DistanceMeters>
          </Trackpoint>
          <Trackpoint>
            <Time>2019-08-01T10:48:37.000Z</Time>
            <Position>
              <LatitudeDegrees>40.577472187578678131103515625</LatitudeDegrees>
              <LongitudeDegrees>-4.01022241450846195220947265625</LongitudeDegrees>
            </Position>
            <AltitudeMeters>894.4000244140625</AltitudeMeters>
            <DistanceMeters>NAN</DistanceMeters>
          </Trackpoint>
          <Trackpoint>
            <Time>2019-08-01T10:48:38.000Z</Time>
            <Position>
              <LatitudeDegrees>40.5775658972561359405517578125</LatitudeDegrees>
              <LongitudeDegrees>-4.01023708283901214599609375</LongitudeDegrees>
            </Position>
            <AltitudeMeters>894.20001220703125</AltitudeMeters>
            <DistanceMeters>NAN</DistanceMeters>
          </Trackpoint>
          <Trackpoint>
            <Time>2019-08-01T10:48:39.000Z</Time>
            <Position>
              <LatitudeDegrees>40.5776604451239109039306640625</LatitudeDegrees>
              <LongitudeDegrees>-4.01025393046438694000244140625</LongitudeDegrees>
            </Position>
            <AltitudeMeters>894</AltitudeMeters>
            <DistanceMeters>NAN</DistanceMeters>
          </Trackpoint>
          <Trackpoint>
            <Time>2019-08-01T10:48:40.000Z</Time>
            <Position>
              <LatitudeDegrees>40.57775683701038360595703125</LatitudeDegrees>
              <LongitudeDegrees>-4.010272957384586334228515625</LongitudeDegrees>
            </Position>
            <AltitudeMeters>894</AltitudeMeters>
            <DistanceMeters>NAN</DistanceMeters>
          </Trackpoint>
          <Trackpoint>
            <Time>2019-08-01T10:48:41.000Z</Time>
            <Position>
              <LatitudeDegrees>40.57785415090620517730712890625</LatitudeDegrees>
              <LongitudeDegrees>-4.01029030792415142059326171875</LongitudeDegrees>
            </Position>
            <AltitudeMeters>893.79998779296875</AltitudeMeters>
            <DistanceMeters>NAN</DistanceMeters>
          </Trackpoint>
          <Trackpoint>
            <Time>2019-08-01T10:48:42.000Z</Time>
            <Position>
              <LatitudeDegrees>40.57794995605945587158203125</LatitudeDegrees>
              <LongitudeDegrees>-4.0103089995682239532470703125</LongitudeDegrees>
            </Position>
            <AltitudeMeters>893.79998779296875</AltitudeMeters>
            <DistanceMeters>NAN</DistanceMeters>
          </Trackpoint>
          <Trackpoint>
            <Time>2019-08-01T10:48:43.000Z</Time>
            <Position>
              <LatitudeDegrees>40.578047521412372589111328125</LatitudeDegrees>
              <LongitudeDegrees>-4.01032500900328159332275390625</LongitudeDegrees>
            </Position>
            <AltitudeMeters>893.5999755859375</AltitudeMeters>
            <DistanceMeters>NAN</DistanceMeters>
          </Trackpoint>
          <Trackpoint>
            <Time>2019-08-01T10:48:44.000Z</Time>
            <Position>
              <LatitudeDegrees>40.57814584113657474517822265625</LatitudeDegrees>
              <LongitudeDegrees>-4.01033992879092693328857421875</LongitudeDegrees>
            </Position>
            <AltitudeMeters>893.5999755859375</AltitudeMeters>
            <DistanceMeters>NAN</DistanceMeters>
          </Trackpoint>
          <Trackpoint>
            <Time>2019-08-01T10:48:45.000Z</Time>
            <Position>
              <LatitudeDegrees>40.57824432849884033203125</LatitudeDegrees>
              <LongitudeDegrees>-4.01035350747406482696533203125</LongitudeDegrees>
            </Position>
            <AltitudeMeters>893.5999755859375</AltitudeMeters>
            <DistanceMeters>NAN</DistanceMeters>
          </Trackpoint>
          <Trackpoint>
            <Time>2019-08-01T10:48:46.000Z</Time>
            <Position>
              <LatitudeDegrees>40.57834264822304248809814453125</LatitudeDegrees>
              <LongitudeDegrees>-4.010370187461376190185546875</LongitudeDegrees>
            </Position>
            <AltitudeMeters>893.4000244140625</AltitudeMeters>
            <DistanceMeters>NAN</DistanceMeters>
          </Trackpoint>
          <Trackpoint>
            <Time>2019-08-01T10:48:47.000Z</Time>
            <Position>
              <LatitudeDegrees>40.57843820191919803619384765625</LatitudeDegrees>
              <LongitudeDegrees>-4.010388292372226715087890625</LongitudeDegrees>
            </Position>
            <AltitudeMeters>893.4000244140625</AltitudeMeters>
            <DistanceMeters>NAN</DistanceMeters>
          </Trackpoint>
          <Trackpoint>
            <Time>2019-08-01T10:48:48.000Z</Time>
            <Position>
              <LatitudeDegrees>40.57853492908179759979248046875</LatitudeDegrees>
              <LongitudeDegrees>-4.01040664874017238616943359375</LongitudeDegrees>
            </Position>
            <AltitudeMeters>893.4000244140625</AltitudeMeters>
            <DistanceMeters>NAN</DistanceMeters>
          </Trackpoint>
          <Trackpoint>
            <Time>2019-08-01T10:48:49.000Z</Time>
            <Position>
              <LatitudeDegrees>40.57863199152052402496337890625</LatitudeDegrees>
              <LongitudeDegrees>-4.01042391546070575714111328125</LongitudeDegrees>
            </Position>
            <AltitudeMeters>893.20001220703125</AltitudeMeters>
            <DistanceMeters>NAN</DistanceMeters>
          </Trackpoint>
          <Trackpoint>
            <Time>2019-08-01T10:48:50.000Z</Time>
            <Position>
              <LatitudeDegrees>40.5787289701402187347412109375</LatitudeDegrees>
              <LongitudeDegrees>-4.0104389190673828125</LongitudeDegrees>
            </Position>
            <AltitudeMeters>893</AltitudeMeters>
            <DistanceMeters>NAN</DistanceMeters>
          </Trackpoint>
          <Trackpoint>
            <Time>2019-08-01T10:48:51.000Z</Time>
            <Position>
              <LatitudeDegrees>40.5788258649408817291259765625</LatitudeDegrees>
              <LongitudeDegrees>-4.0104531683027744293212890625</LongitudeDegrees>
            </Position>
            <AltitudeMeters>892.79998779296875</AltitudeMeters>
            <DistanceMeters>NAN</DistanceMeters>
          </Trackpoint>
          <Trackpoint>
            <Time>2019-08-01T10:48:52.000Z</Time>
            <Position>
              <LatitudeDegrees>40.578921250998973846435546875</LatitudeDegrees>
              <LongitudeDegrees>-4.0104669146239757537841796875</LongitudeDegrees>
            </Position>
            <AltitudeMeters>892.5999755859375</AltitudeMeters>
            <DistanceMeters>NAN</DistanceMeters>
          </Trackpoint>
          <Trackpoint>
            <Time>2019-08-01T10:48:53.000Z</Time>
            <Position>
              <LatitudeDegrees>40.57901521213352680206298828125</LatitudeDegrees>
              <LongitudeDegrees>-4.01048225350677967071533203125</LongitudeDegrees>
            </Position>
            <AltitudeMeters>892.4000244140625</AltitudeMeters>
            <DistanceMeters>NAN</DistanceMeters>
          </Trackpoint>
          <Trackpoint>
            <Time>2019-08-01T10:48:54.000Z</Time>
            <Position>
              <LatitudeDegrees>40.57910875417292118072509765625</LatitudeDegrees>
              <LongitudeDegrees>-4.01049767620861530303955078125</LongitudeDegrees>
            </Position>
            <AltitudeMeters>892.20001220703125</AltitudeMeters>
            <DistanceMeters>NAN</DistanceMeters>
          </Trackpoint>
          <Trackpoint>
            <Time>2019-08-01T10:48:55.000Z</Time>
            <Position>
              <LatitudeDegrees>40.5792000330984592437744140625</LatitudeDegrees>
              <LongitudeDegrees>-4.01051309891045093536376953125</LongitudeDegrees>
            </Position>
            <AltitudeMeters>892</AltitudeMeters>
            <DistanceMeters>NAN</DistanceMeters>
          </Trackpoint>
          <Trackpoint>
            <Time>2019-08-01T10:48:57.000Z</Time>
            <Position>
              <LatitudeDegrees>40.57937831617891788482666015625</LatitudeDegrees>
              <LongitudeDegrees>-4.0105470456182956695556640625</LongitudeDegrees>
            </Position>
            <AltitudeMeters>891.79998779296875</AltitudeMeters>
            <DistanceMeters>NAN</DistanceMeters>
          </Trackpoint>
          <Trackpoint>
            <Time>2019-08-01T10:48:58.000Z</Time>
            <Position>
              <LatitudeDegrees>40.57946599088609218597412109375</LatitudeDegrees>
              <LongitudeDegrees>-4.0105654858052730560302734375</LongitudeDegrees>
            </Position>
            <AltitudeMeters>891.79998779296875</AltitudeMeters>
            <DistanceMeters>NAN</DistanceMeters>
          </Trackpoint>
          <Trackpoint>
            <Time>2019-08-01T10:48:59.000Z</Time>
            <Position>
              <LatitudeDegrees>40.57955500669777393341064453125</LatitudeDegrees>
              <LongitudeDegrees>-4.01058845221996307373046875</LongitudeDegrees>
            </Position>
            <AltitudeMeters>891.79998779296875</AltitudeMeters>
            <DistanceMeters>NAN</DistanceMeters>
          </Trackpoint>
          <Trackpoint>
            <Time>2019-08-01T10:49:00.000Z</Time>
            <Position>
              <LatitudeDegrees>40.57964100502431392669677734375</LatitudeDegrees>
              <LongitudeDegrees>-4.01062340475618839263916015625</LongitudeDegrees>
            </Position>
            <AltitudeMeters>891.79998779296875</AltitudeMeters>
            <DistanceMeters>NAN</DistanceMeters>
          </Trackpoint>
          <Trackpoint>
            <Time>2019-08-01T10:49:02.000Z</Time>
            <Position>
              <LatitudeDegrees>40.57982825674116611480712890625</LatitudeDegrees>
              <LongitudeDegrees>-4.01064972393214702606201171875</LongitudeDegrees>
            </Position>
            <AltitudeMeters>891.79998779296875</AltitudeMeters>
            <DistanceMeters>NAN</DistanceMeters>
          </Trackpoint>
          <Trackpoint>
            <Time>2019-08-01T10:49:03.000Z</Time>
            <Position>
              <LatitudeDegrees>40.5799252353608608245849609375</LatitudeDegrees>
              <LongitudeDegrees>-4.010661207139492034912109375</LongitudeDegrees>
            </Position>
            <AltitudeMeters>891.79998779296875</AltitudeMeters>
            <DistanceMeters>NAN</DistanceMeters>
          </Trackpoint>
          <Trackpoint>
            <Time>2019-08-01T10:49:04.000Z</Time>
            <Position>
              <LatitudeDegrees>40.5800258181989192962646484375</LatitudeDegrees>
              <LongitudeDegrees>-4.01067403145134449005126953125</LongitudeDegrees>
            </Position>
            <AltitudeMeters>891.5999755859375</AltitudeMeters>
            <DistanceMeters>NAN</DistanceMeters>
          </Trackpoint>
          <Trackpoint>
            <Time>2019-08-01T10:49:05.000Z</Time>
            <Position>
              <LatitudeDegrees>40.5801277421414852142333984375</LatitudeDegrees>
              <LongitudeDegrees>-4.01069037616252899169921875</LongitudeDegrees>
            </Position>
            <AltitudeMeters>891.5999755859375</AltitudeMeters>
            <DistanceMeters>NAN</DistanceMeters>
          </Trackpoint>
          <Trackpoint>
            <Time>2019-08-01T10:49:07.000Z</Time>
            <Position>
              <LatitudeDegrees>40.58033720590174198150634765625</LatitudeDegrees>
              <LongitudeDegrees>-4.010726250708103179931640625</LongitudeDegrees>
            </Position>
            <AltitudeMeters>891.5999755859375</AltitudeMeters>
            <DistanceMeters>NAN</DistanceMeters>
          </Trackpoint>
          <Trackpoint>
            <Time>2019-08-01T10:49:08.000Z</Time>
            <Position>
              <LatitudeDegrees>40.58044466190040111541748046875</LatitudeDegrees>
              <LongitudeDegrees>-4.01074536144733428955078125</LongitudeDegrees>
            </Position>
            <AltitudeMeters>891.4000244140625</AltitudeMeters>
            <DistanceMeters>NAN</DistanceMeters>
          </Trackpoint>
          <Trackpoint>
            <Time>2019-08-01T10:49:09.000Z</Time>
            <Position>
              <LatitudeDegrees>40.58055111207067966461181640625</LatitudeDegrees>
              <LongitudeDegrees>-4.0107663162052631378173828125</LongitudeDegrees>
            </Position>
            <AltitudeMeters>891.4000244140625</AltitudeMeters>
            <DistanceMeters>NAN</DistanceMeters>
          </Trackpoint>
          <Trackpoint>
            <Time>2019-08-01T10:49:10.000Z</Time>
            <Position>
              <LatitudeDegrees>40.58065840043127536773681640625</LatitudeDegrees>
              <LongitudeDegrees>-4.01078634895384311676025390625</LongitudeDegrees>
            </Position>
            <AltitudeMeters>890.79998779296875</AltitudeMeters>
            <DistanceMeters>NAN</DistanceMeters>
          </Trackpoint>
          <Trackpoint>
            <Time>2019-08-01T10:49:11.000Z</Time>
            <Position>
              <LatitudeDegrees>40.58076853863894939422607421875</LatitudeDegrees>
              <LongitudeDegrees>-4.010804705321788787841796875</LongitudeDegrees>
            </Position>
            <AltitudeMeters>890.5999755859375</AltitudeMeters>
            <DistanceMeters>NAN</DistanceMeters>
          </Trackpoint>
          <Trackpoint>
            <Time>2019-08-01T10:49:12.000Z</Time>
            <Position>
              <LatitudeDegrees>40.58087968267500400543212890625</LatitudeDegrees>
              <LongitudeDegrees>-4.010822810232639312744140625</LongitudeDegrees>
            </Position>
            <AltitudeMeters>890.4000244140625</AltitudeMeters>
            <DistanceMeters>NAN</DistanceMeters>
          </Trackpoint>
          <Trackpoint>
            <Time>2019-08-01T10:49:13.000Z</Time>
            <Position>
              <LatitudeDegrees>40.58098982088267803192138671875</LatitudeDegrees>
              <LongitudeDegrees>-4.010841585695743560791015625</LongitudeDegrees>
            </Position>
            <AltitudeMeters>889.79998779296875</AltitudeMeters>
            <DistanceMeters>NAN</DistanceMeters>
          </Trackpoint>
          <Trackpoint>
            <Time>2019-08-01T10:49:14.000Z</Time>
            <Position>
              <LatitudeDegrees>40.5810983665287494659423828125</LatitudeDegrees>
              <LongitudeDegrees>-4.010861031711101531982421875</LongitudeDegrees>
            </Position>
            <AltitudeMeters>889.20001220703125</AltitudeMeters>
            <DistanceMeters>NAN</DistanceMeters>
          </Trackpoint>
          <Trackpoint>
            <Time>2019-08-01T10:49:15.000Z</Time>
            <Position>
              <LatitudeDegrees>40.5812083370983600616455078125</LatitudeDegrees>
              <LongitudeDegrees>-4.0108809806406497955322265625</LongitudeDegrees>
            </Position>
            <AltitudeMeters>888.5999755859375</AltitudeMeters>
            <DistanceMeters>NAN</DistanceMeters>
          </Trackpoint>
          <Trackpoint>
            <Time>2019-08-01T10:49:16.000Z</Time>
            <Position>
              <LatitudeDegrees>40.58131906203925609588623046875</LatitudeDegrees>
              <LongitudeDegrees>-4.0108984149992465972900390625</LongitudeDegrees>
            </Position>
            <AltitudeMeters>888.4000244140625</AltitudeMeters>
            <DistanceMeters>NAN</DistanceMeters>
          </Trackpoint>
          <Trackpoint>
            <Time>2019-08-01T10:49:17.000Z</Time>
            <Position>
              <LatitudeDegrees>40.581427104771137237548828125</LatitudeDegrees>
              <LongitudeDegrees>-4.01091710664331912994384765625</LongitudeDegrees>
            </Position>
            <AltitudeMeters>888</AltitudeMeters>
            <DistanceMeters>NAN</DistanceMeters>
          </Trackpoint>
          <Trackpoint>
            <Time>2019-08-01T10:49:18.000Z</Time>
            <Position>
              <LatitudeDegrees>40.5815345607697963714599609375</LatitudeDegrees>
              <LongitudeDegrees>-4.01093487627804279327392578125</LongitudeDegrees>
            </Position>
            <AltitudeMeters>887.4000244140625</AltitudeMeters>
            <DistanceMeters>NAN</DistanceMeters>
          </Trackpoint>
          <Trackpoint>
            <Time>2019-08-01T10:49:19.000Z</Time>
            <Position>
              <LatitudeDegrees>40.5816398374736309051513671875</LatitudeDegrees>
              <LongitudeDegrees>-4.01095189154148101806640625</LongitudeDegrees>
            </Position>
            <AltitudeMeters>886.79998779296875</AltitudeMeters>
            <DistanceMeters>NAN</DistanceMeters>
          </Trackpoint>
          <Trackpoint>
            <Time>2019-08-01T10:49:20.000Z</Time>
            <Position>
              <LatitudeDegrees>40.58174469508230686187744140625</LatitudeDegrees>
              <LongitudeDegrees>-4.01097108609974384307861328125</LongitudeDegrees>
            </Position>
            <AltitudeMeters>886.4000244140625</AltitudeMeters>
            <DistanceMeters>NAN</DistanceMeters>
          </Trackpoint>
          <Trackpoint>
            <Time>2019-08-01T10:49:22.000Z</Time>
            <Position>
              <LatitudeDegrees>40.581948794424533843994140625</LatitudeDegrees>
              <LongitudeDegrees>-4.01100461371243000030517578125</LongitudeDegrees>
            </Position>
            <AltitudeMeters>885.79998779296875</AltitudeMeters>
            <DistanceMeters>NAN</DistanceMeters>
          </Trackpoint>
          <Trackpoint>
            <Time>2019-08-01T10:49:23.000Z</Time>
            <Position>
              <LatitudeDegrees>40.58204971253871917724609375</LatitudeDegrees>
              <LongitudeDegrees>-4.011018276214599609375</LongitudeDegrees>
            </Position>
            <AltitudeMeters>885.4000244140625</AltitudeMeters>
            <DistanceMeters>NAN</DistanceMeters>
          </Trackpoint>
          <Trackpoint>
            <Time>2019-08-01T10:49:24.000Z</Time>
            <Position>
              <LatitudeDegrees>40.5821504630148410797119140625</LatitudeDegrees>
              <LongitudeDegrees>-4.01103160344064235687255859375</LongitudeDegrees>
            </Position>
            <AltitudeMeters>885</AltitudeMeters>
            <DistanceMeters>NAN</DistanceMeters>
          </Trackpoint>
          <Trackpoint>
            <Time>2019-08-01T10:49:25.000Z</Time>
            <Position>
              <LatitudeDegrees>40.58224995620548725128173828125</LatitudeDegrees>
              <LongitudeDegrees>-4.01104736141860485076904296875</LongitudeDegrees>
            </Position>
            <AltitudeMeters>884.5999755859375</AltitudeMeters>
            <DistanceMeters>NAN</DistanceMeters>
          </Trackpoint>
          <Trackpoint>
            <Time>2019-08-01T10:49:26.000Z</Time>
            <Position>
              <LatitudeDegrees>40.58234869502484798431396484375</LatitudeDegrees>
              <LongitudeDegrees>-4.01106513105332851409912109375</LongitudeDegrees>
            </Position>
            <AltitudeMeters>884.4000244140625</AltitudeMeters>
            <DistanceMeters>NAN</DistanceMeters>
          </Trackpoint>
          <Trackpoint>
            <Time>2019-08-01T10:49:27.000Z</Time>
            <Position>
              <LatitudeDegrees>40.5824465118348598480224609375</LatitudeDegrees>
              <LongitudeDegrees>-4.01108264923095703125</LongitudeDegrees>
            </Position>
            <AltitudeMeters>884.20001220703125</AltitudeMeters>
            <DistanceMeters>NAN</DistanceMeters>
          </Trackpoint>
          <Trackpoint>
            <Time>2019-08-01T10:49:28.000Z</Time>
            <Position>
              <LatitudeDegrees>40.58254265226423740386962890625</LatitudeDegrees>
              <LongitudeDegrees>-4.0110979042947292327880859375</LongitudeDegrees>
            </Position>
            <AltitudeMeters>884</AltitudeMeters>
            <DistanceMeters>NAN</DistanceMeters>
          </Trackpoint>
          <Trackpoint>
            <Time>2019-08-01T10:49:29.000Z</Time>
            <Position>
              <LatitudeDegrees>40.582639463245868682861328125</LatitudeDegrees>
              <LongitudeDegrees>-4.01111357845366001129150390625</LongitudeDegrees>
            </Position>
            <AltitudeMeters>884</AltitudeMeters>
            <DistanceMeters>NAN</DistanceMeters>
          </Trackpoint>
          <Trackpoint>
            <Time>2019-08-01T10:49:30.000Z</Time>
            <Position>
              <LatitudeDegrees>40.582735352218151092529296875</LatitudeDegrees>
              <LongitudeDegrees>-4.01113034226000308990478515625</LongitudeDegrees>
            </Position>
            <AltitudeMeters>884</AltitudeMeters>
            <DistanceMeters>NAN</DistanceMeters>
          </Trackpoint>
          <Trackpoint>
            <Time>2019-08-01T10:49:31.000Z</Time>
            <Position>
              <LatitudeDegrees>40.5828322470188140869140625</LatitudeDegrees>
              <LongitudeDegrees>-4.01114635169506072998046875</LongitudeDegrees>
            </Position>
            <AltitudeMeters>884</AltitudeMeters>
            <DistanceMeters>NAN</DistanceMeters>
          </Trackpoint>
          <Trackpoint>
            <Time>2019-08-01T10:49:32.000Z</Time>
            <Position>
              <LatitudeDegrees>40.58292947709560394287109375</LatitudeDegrees>
              <LongitudeDegrees>-4.0111622773110866546630859375</LongitudeDegrees>
            </Position>
            <AltitudeMeters>884</AltitudeMeters>
            <DistanceMeters>NAN</DistanceMeters>
          </Trackpoint>
          <Trackpoint>
            <Time>2019-08-01T10:49:33.000Z</Time>
            <Position>
              <LatitudeDegrees>40.58302779681980609893798828125</LatitudeDegrees>
              <LongitudeDegrees>-4.01117778383195400238037109375</LongitudeDegrees>
            </Position>
            <AltitudeMeters>883.79998779296875</AltitudeMeters>
            <DistanceMeters>NAN</DistanceMeters>
          </Trackpoint>
          <Trackpoint>
            <Time>2019-08-01T10:49:34.000Z</Time>
            <Position>
              <LatitudeDegrees>40.583126284182071685791015625</LatitudeDegrees>
              <LongitudeDegrees>-4.01119153015315532684326171875</LongitudeDegrees>
            </Position>
            <AltitudeMeters>883.79998779296875</AltitudeMeters>
            <DistanceMeters>NAN</DistanceMeters>
          </Trackpoint>
          <Trackpoint>
            <Time>2019-08-01T10:49:35.000Z</Time>
            <Position>
              <LatitudeDegrees>40.58322560973465442657470703125</LatitudeDegrees>
              <LongitudeDegrees>-4.01120712049305438995361328125</LongitudeDegrees>
            </Position>
            <AltitudeMeters>883.5999755859375</AltitudeMeters>
            <DistanceMeters>NAN</DistanceMeters>
          </Trackpoint>
          <Trackpoint>
            <Time>2019-08-01T10:49:37.000Z</Time>
            <Position>
              <LatitudeDegrees>40.5834235064685344696044921875</LatitudeDegrees>
              <LongitudeDegrees>-4.01123930700123310089111328125</LongitudeDegrees>
            </Position>
            <AltitudeMeters>883.5999755859375</AltitudeMeters>
            <DistanceMeters>NAN</DistanceMeters>
          </Trackpoint>
          <Trackpoint>
            <Time>2019-08-01T10:49:38.000Z</Time>
            <Position>
              <LatitudeDegrees>40.5835227482020854949951171875</LatitudeDegrees>
              <LongitudeDegrees>-4.011255986988544464111328125</LongitudeDegrees>
            </Position>
            <AltitudeMeters>883.4000244140625</AltitudeMeters>
            <DistanceMeters>NAN</DistanceMeters>
          </Trackpoint>
          <Trackpoint>
            <Time>2019-08-01T10:49:39.000Z</Time>
            <Position>
              <LatitudeDegrees>40.5836233310401439666748046875</LatitudeDegrees>
              <LongitudeDegrees>-4.01127233169972896575927734375</LongitudeDegrees>
            </Position>
            <AltitudeMeters>883.4000244140625</AltitudeMeters>
            <DistanceMeters>NAN</DistanceMeters>
          </Trackpoint>
          <Trackpoint>
            <Time>2019-08-01T10:49:40.000Z</Time>
            <Position>
              <LatitudeDegrees>40.58372416533529758453369140625</LatitudeDegrees>
              <LongitudeDegrees>-4.0112896822392940521240234375</LongitudeDegrees>
            </Position>
            <AltitudeMeters>883.4000244140625</AltitudeMeters>
            <DistanceMeters>NAN</DistanceMeters>
          </Trackpoint>
          <Trackpoint>
            <Time>2019-08-01T10:49:41.000Z</Time>
            <Position>
              <LatitudeDegrees>40.58382558636367321014404296875</LatitudeDegrees>
              <LongitudeDegrees>-4.01130753569304943084716796875</LongitudeDegrees>
            </Position>
            <AltitudeMeters>883.4000244140625</AltitudeMeters>
            <DistanceMeters>NAN</DistanceMeters>
          </Trackpoint>
          <Trackpoint>
            <Time>2019-08-01T10:49:42.000Z</Time>
            <Position>
              <LatitudeDegrees>40.58392784558236598968505859375</LatitudeDegrees>
              <LongitudeDegrees>-4.01132647879421710968017578125</LongitudeDegrees>
            </Position>
            <AltitudeMeters>883.4000244140625</AltitudeMeters>
            <DistanceMeters>NAN</DistanceMeters>
          </Trackpoint>
          <Trackpoint>
            <Time>2019-08-01T10:49:44.000Z</Time>
            <Position>
              <LatitudeDegrees>40.5841346271336078643798828125</LatitudeDegrees>
              <LongitudeDegrees>-4.01136252097785472869873046875</LongitudeDegrees>
            </Position>
            <AltitudeMeters>883</AltitudeMeters>
            <DistanceMeters>NAN</DistanceMeters>
          </Trackpoint>
          <Trackpoint>
            <Time>2019-08-01T10:49:45.000Z</Time>
            <Position>
              <LatitudeDegrees>40.5842388980090618133544921875</LatitudeDegrees>
              <LongitudeDegrees>-4.01138029061257839202880859375</LongitudeDegrees>
            </Position>
            <AltitudeMeters>883</AltitudeMeters>
            <DistanceMeters>NAN</DistanceMeters>
          </Trackpoint>
          <Trackpoint>
            <Time>2019-08-01T10:49:46.000Z</Time>
            <Position>
              <LatitudeDegrees>40.58434308506548404693603515625</LatitudeDegrees>
              <LongitudeDegrees>-4.0113978087902069091796875</LongitudeDegrees>
            </Position>
            <AltitudeMeters>883</AltitudeMeters>
            <DistanceMeters>NAN</DistanceMeters>
          </Trackpoint>
          <Trackpoint>
            <Time>2019-08-01T10:49:47.000Z</Time>
            <Position>
              <LatitudeDegrees>40.58444894850254058837890625</LatitudeDegrees>
              <LongitudeDegrees>-4.0114154107868671417236328125</LongitudeDegrees>
            </Position>
            <AltitudeMeters>882.79998779296875</AltitudeMeters>
            <DistanceMeters>NAN</DistanceMeters>
          </Trackpoint>
          <Trackpoint>
            <Time>2019-08-01T10:49:48.000Z</Time>
            <Position>
              <LatitudeDegrees>40.58455548249185085296630859375</LatitudeDegrees>
              <LongitudeDegrees>-4.01143460534512996673583984375</LongitudeDegrees>
            </Position>
            <AltitudeMeters>882.5999755859375</AltitudeMeters>
            <DistanceMeters>NAN</DistanceMeters>
          </Trackpoint>
          <Trackpoint>
            <Time>2019-08-01T10:49:49.000Z</Time>
            <Position>
              <LatitudeDegrees>40.5846633575856685638427734375</LatitudeDegrees>
              <LongitudeDegrees>-4.0114539675414562225341796875</LongitudeDegrees>
            </Position>
            <AltitudeMeters>882.5999755859375</AltitudeMeters>
            <DistanceMeters>NAN</DistanceMeters>
          </Trackpoint>
          <Trackpoint>
            <Time>2019-08-01T10:49:50.000Z</Time>
            <Position>
              <LatitudeDegrees>40.584772489964962005615234375</LatitudeDegrees>
              <LongitudeDegrees>-4.011462517082691192626953125</LongitudeDegrees>
            </Position>
            <AltitudeMeters>882.4000244140625</AltitudeMeters>
            <DistanceMeters>NAN</DistanceMeters>
          </Trackpoint>
          <Trackpoint>
            <Time>2019-08-01T10:49:51.000Z</Time>
            <Position>
              <LatitudeDegrees>40.58488153852522373199462890625</LatitudeDegrees>
              <LongitudeDegrees>-4.0114442445337772369384765625</LongitudeDegrees>
            </Position>
            <AltitudeMeters>882.4000244140625</AltitudeMeters>
            <DistanceMeters>NAN</DistanceMeters>
          </Trackpoint>
          <Trackpoint>
            <Time>2019-08-01T10:49:52.000Z</Time>
            <Position>
              <LatitudeDegrees>40.5849885754287242889404296875</LatitudeDegrees>
              <LongitudeDegrees>-4.01140878908336162567138671875</LongitudeDegrees>
            </Position>
            <AltitudeMeters>882.20001220703125</AltitudeMeters>
            <DistanceMeters>NAN</DistanceMeters>
          </Trackpoint>
          <Trackpoint>
            <Time>2019-08-01T10:49:53.000Z</Time>
            <Position>
              <LatitudeDegrees>40.5850941874086856842041015625</LatitudeDegrees>
              <LongitudeDegrees>-4.0113936178386211395263671875</LongitudeDegrees>
            </Position>
            <AltitudeMeters>881.5999755859375</AltitudeMeters>
            <DistanceMeters>NAN</DistanceMeters>
          </Trackpoint>
          <Trackpoint>
            <Time>2019-08-01T10:49:54.000Z</Time>
            <Position>
              <LatitudeDegrees>40.58519770391285419464111328125</LatitudeDegrees>
              <LongitudeDegrees>-4.0114177577197551727294921875</LongitudeDegrees>
            </Position>
            <AltitudeMeters>881.20001220703125</AltitudeMeters>
            <DistanceMeters>NAN</DistanceMeters>
          </Trackpoint>
          <Trackpoint>
            <Time>2019-08-01T10:49:55.000Z</Time>
            <Position>
              <LatitudeDegrees>40.58530080132186412811279296875</LatitudeDegrees>
              <LongitudeDegrees>-4.0114720724523067474365234375</LongitudeDegrees>
            </Position>
            <AltitudeMeters>880.79998779296875</AltitudeMeters>
            <DistanceMeters>NAN</DistanceMeters>
          </Trackpoint>
          <Trackpoint>
            <Time>2019-08-01T10:49:56.000Z</Time>
            <Position>
              <LatitudeDegrees>40.585404820740222930908203125</LatitudeDegrees>
              <LongitudeDegrees>-4.0115347690880298614501953125</LongitudeDegrees>
            </Position>
            <AltitudeMeters>880.5999755859375</AltitudeMeters>
            <DistanceMeters>NAN</DistanceMeters>
          </Trackpoint>
          <Trackpoint>
            <Time>2019-08-01T10:49:57.000Z</Time>
            <Position>
              <LatitudeDegrees>40.58551638387143611907958984375</LatitudeDegrees>
              <LongitudeDegrees>-4.0115796960890293121337890625</LongitudeDegrees>
            </Position>
            <AltitudeMeters>880.4000244140625</AltitudeMeters>
            <DistanceMeters>NAN</DistanceMeters>
          </Trackpoint>
          <Trackpoint>
            <Time>2019-08-01T10:49:58.000Z</Time>
            <Position>
              <LatitudeDegrees>40.58563088066875934600830078125</LatitudeDegrees>
              <LongitudeDegrees>-4.01160190813243389129638671875</LongitudeDegrees>
            </Position>
            <AltitudeMeters>880.20001220703125</AltitudeMeters>
            <DistanceMeters>NAN</DistanceMeters>
          </Trackpoint>
          <Trackpoint>
            <Time>2019-08-01T10:49:59.000Z</Time>
            <Position>
              <LatitudeDegrees>40.58574504218995571136474609375</LatitudeDegrees>
              <LongitudeDegrees>-4.01161917485296726226806640625</LongitudeDegrees>
            </Position>
            <AltitudeMeters>879.5999755859375</AltitudeMeters>
            <DistanceMeters>NAN</DistanceMeters>
          </Trackpoint>
          <Trackpoint>
            <Time>2019-08-01T10:50:00.000Z</Time>
            <Position>
              <LatitudeDegrees>40.5858577787876129150390625</LatitudeDegrees>
              <LongitudeDegrees>-4.0116376988589763641357421875</LongitudeDegrees>
            </Position>
            <AltitudeMeters>878.5999755859375</AltitudeMeters>
            <DistanceMeters>NAN</DistanceMeters>
          </Trackpoint>
          <Trackpoint>
            <Time>2019-08-01T10:50:01.000Z</Time>
            <Position>
              <LatitudeDegrees>40.58597185648977756500244140625</LatitudeDegrees>
              <LongitudeDegrees>-4.011656977236270904541015625</LongitudeDegrees>
            </Position>
            <AltitudeMeters>878</AltitudeMeters>
            <DistanceMeters>NAN</DistanceMeters>
          </Trackpoint>
          <Trackpoint>
            <Time>2019-08-01T10:50:02.000Z</Time>
            <Position>
              <LatitudeDegrees>40.58608568273484706878662109375</LatitudeDegrees>
              <LongitudeDegrees>-4.0116779319941997528076171875</LongitudeDegrees>
            </Position>
            <AltitudeMeters>877.5999755859375</AltitudeMeters>
            <DistanceMeters>NAN</DistanceMeters>
          </Trackpoint>
          <Trackpoint>
            <Time>2019-08-01T10:50:03.000Z</Time>
            <Position>
              <LatitudeDegrees>40.5862002633512020111083984375</LatitudeDegrees>
              <LongitudeDegrees>-4.01169888675212860107421875</LongitudeDegrees>
            </Position>
            <AltitudeMeters>877.20001220703125</AltitudeMeters>
            <DistanceMeters>NAN</DistanceMeters>
          </Trackpoint>
          <Trackpoint>
            <Time>2019-08-01T10:50:04.000Z</Time>
            <Position>
              <LatitudeDegrees>40.5863132514059543609619140625</LatitudeDegrees>
              <LongitudeDegrees>-4.0117196738719940185546875</LongitudeDegrees>
            </Position>
            <AltitudeMeters>876.5999755859375</AltitudeMeters>
            <DistanceMeters>NAN</DistanceMeters>
          </Trackpoint>
          <Trackpoint>
            <Time>2019-08-01T10:50:05.000Z</Time>
            <Position>
              <LatitudeDegrees>40.5864264070987701416015625</LatitudeDegrees>
              <LongitudeDegrees>-4.01173987425863742828369140625</LongitudeDegrees>
            </Position>
            <AltitudeMeters>876.20001220703125</AltitudeMeters>
            <DistanceMeters>NAN</DistanceMeters>
          </Trackpoint>
          <Trackpoint>
            <Time>2019-08-01T10:50:06.000Z</Time>
            <Position>
              <LatitudeDegrees>40.58653914369642734527587890625</LatitudeDegrees>
              <LongitudeDegrees>-4.011760242283344268798828125</LongitudeDegrees>
            </Position>
            <AltitudeMeters>876</AltitudeMeters>
            <DistanceMeters>NAN</DistanceMeters>
          </Trackpoint>
          <Trackpoint>
            <Time>2019-08-01T10:50:07.000Z</Time>
            <Position>
              <LatitudeDegrees>40.58665238320827484130859375</LatitudeDegrees>
              <LongitudeDegrees>-4.011779688298702239990234375</LongitudeDegrees>
            </Position>
            <AltitudeMeters>875.5999755859375</AltitudeMeters>
            <DistanceMeters>NAN</DistanceMeters>
          </Trackpoint>
          <Trackpoint>
            <Time>2019-08-01T10:50:08.000Z</Time>
            <Position>
              <LatitudeDegrees>40.58676595799624919891357421875</LatitudeDegrees>
              <LongitudeDegrees>-4.01179955340921878814697265625</LongitudeDegrees>
            </Position>
            <AltitudeMeters>875.5999755859375</AltitudeMeters>
            <DistanceMeters>NAN</DistanceMeters>
          </Trackpoint>
          <Trackpoint>
            <Time>2019-08-01T10:50:09.000Z</Time>
            <Position>
              <LatitudeDegrees>40.58687995187938213348388671875</LatitudeDegrees>
              <LongitudeDegrees>-4.0118177421391010284423828125</LongitudeDegrees>
            </Position>
            <AltitudeMeters>875.20001220703125</AltitudeMeters>
            <DistanceMeters>NAN</DistanceMeters>
          </Trackpoint>
          <Trackpoint>
            <Time>2019-08-01T10:50:10.000Z</Time>
            <Position>
              <LatitudeDegrees>40.5869938619434833526611328125</LatitudeDegrees>
              <LongitudeDegrees>-4.011832661926746368408203125</LongitudeDegrees>
            </Position>
            <AltitudeMeters>874.79998779296875</AltitudeMeters>
            <DistanceMeters>NAN</DistanceMeters>
          </Trackpoint>
          <Trackpoint>
            <Time>2019-08-01T10:50:11.000Z</Time>
            <Position>
              <LatitudeDegrees>40.58710894547402858734130859375</LatitudeDegrees>
              <LongitudeDegrees>-4.01184431277215480804443359375</LongitudeDegrees>
            </Position>
            <AltitudeMeters>874.5999755859375</AltitudeMeters>
            <DistanceMeters>NAN</DistanceMeters>
          </Trackpoint>
          <Trackpoint>
            <Time>2019-08-01T10:50:12.000Z</Time>
            <Position>
              <LatitudeDegrees>40.5872248671948909759521484375</LatitudeDegrees>
              <LongitudeDegrees>-4.01185085065662860870361328125</LongitudeDegrees>
            </Position>
            <AltitudeMeters>874</AltitudeMeters>
            <DistanceMeters>NAN</DistanceMeters>
          </Trackpoint>
          <Trackpoint>
            <Time>2019-08-01T10:50:13.000Z</Time>
            <Position>
              <LatitudeDegrees>40.587342046201229095458984375</LatitudeDegrees>
              <LongitudeDegrees>-4.0118526108562946319580078125</LongitudeDegrees>
            </Position>
            <AltitudeMeters>873.5999755859375</AltitudeMeters>
            <DistanceMeters>NAN</DistanceMeters>
          </Trackpoint>
          <Trackpoint>
            <Time>2019-08-01T10:50:14.000Z</Time>
            <Position>
              <LatitudeDegrees>40.58746115304529666900634765625</LatitudeDegrees>
              <LongitudeDegrees>-4.01184917427599430084228515625</LongitudeDegrees>
            </Position>
            <AltitudeMeters>873.5999755859375</AltitudeMeters>
            <DistanceMeters>NAN</DistanceMeters>
          </Trackpoint>
          <Trackpoint>
            <Time>2019-08-01T10:50:15.000Z</Time>
            <Position>
              <LatitudeDegrees>40.5875839479267597198486328125</LatitudeDegrees>
              <LongitudeDegrees>-4.01183995418250560760498046875</LongitudeDegrees>
            </Position>
            <AltitudeMeters>873.20001220703125</AltitudeMeters>
            <DistanceMeters>NAN</DistanceMeters>
          </Trackpoint>
          <Trackpoint>
            <Time>2019-08-01T10:50:16.000Z</Time>
            <Position>
              <LatitudeDegrees>40.58770724572241306304931640625</LatitudeDegrees>
              <LongitudeDegrees>-4.01182805188000202178955078125</LongitudeDegrees>
            </Position>
            <AltitudeMeters>873.20001220703125</AltitudeMeters>
            <DistanceMeters>NAN</DistanceMeters>
          </Trackpoint>
          <Trackpoint>
            <Time>2019-08-01T10:50:17.000Z</Time>
            <Position>
              <LatitudeDegrees>40.5878340639173984527587890625</LatitudeDegrees>
              <LongitudeDegrees>-4.01181363500654697418212890625</LongitudeDegrees>
            </Position>
            <AltitudeMeters>872.79998779296875</AltitudeMeters>
            <DistanceMeters>NAN</DistanceMeters>
          </Trackpoint>
          <Trackpoint>
            <Time>2019-08-01T10:50:18.000Z</Time>
            <Position>
              <LatitudeDegrees>40.5879621393978595733642578125</LatitudeDegrees>
              <LongitudeDegrees>-4.01179678738117218017578125</LongitudeDegrees>
            </Position>
            <AltitudeMeters>872.5999755859375</AltitudeMeters>
            <DistanceMeters>NAN</DistanceMeters>
          </Trackpoint>
          <Trackpoint>
            <Time>2019-08-01T10:50:19.000Z</Time>
            <Position>
              <LatitudeDegrees>40.58809013105928897857666015625</LatitudeDegrees>
              <LongitudeDegrees>-4.01177977211773395538330078125</LongitudeDegrees>
            </Position>
            <AltitudeMeters>872.20001220703125</AltitudeMeters>
            <DistanceMeters>NAN</DistanceMeters>
          </Trackpoint>
          <Trackpoint>
            <Time>2019-08-01T10:50:20.000Z</Time>
            <Position>
              <LatitudeDegrees>40.58822038583457469940185546875</LatitudeDegrees>
              <LongitudeDegrees>-4.01176367886364459991455078125</LongitudeDegrees>
            </Position>
            <AltitudeMeters>872</AltitudeMeters>
            <DistanceMeters>NAN</DistanceMeters>
          </Trackpoint>
          <Trackpoint>
            <Time>2019-08-01T10:50:21.000Z</Time>
            <Position>
              <LatitudeDegrees>40.58834762312471866607666015625</LatitudeDegrees>
              <LongitudeDegrees>-4.0117446519434452056884765625</LongitudeDegrees>
            </Position>
            <AltitudeMeters>871.4000244140625</AltitudeMeters>
            <DistanceMeters>NAN</DistanceMeters>
          </Trackpoint>
          <Trackpoint>
            <Time>2019-08-01T10:50:22.000Z</Time>
            <Position>
              <LatitudeDegrees>40.58847502805292606353759765625</LatitudeDegrees>
              <LongitudeDegrees>-4.0117245353758335113525390625</LongitudeDegrees>
            </Position>
            <AltitudeMeters>870.79998779296875</AltitudeMeters>
            <DistanceMeters>NAN</DistanceMeters>
          </Trackpoint>
          <Trackpoint>
            <Time>2019-08-01T10:50:23.000Z</Time>
            <Position>
              <LatitudeDegrees>40.5886016786098480224609375</LatitudeDegrees>
              <LongitudeDegrees>-4.0117062628269195556640625</LongitudeDegrees>
            </Position>
            <AltitudeMeters>869.5999755859375</AltitudeMeters>
            <DistanceMeters>NAN</DistanceMeters>
          </Trackpoint>
          <Trackpoint>
            <Time>2019-08-01T10:50:24.000Z</Time>
            <Position>
              <LatitudeDegrees>40.5887277424335479736328125</LatitudeDegrees>
              <LongitudeDegrees>-4.01168840937316417694091796875</LongitudeDegrees>
            </Position>
            <AltitudeMeters>869</AltitudeMeters>
            <DistanceMeters>NAN</DistanceMeters>
          </Trackpoint>
          <Trackpoint>
            <Time>2019-08-01T10:50:25.000Z</Time>
            <Position>
              <LatitudeDegrees>40.58885238133370876312255859375</LatitudeDegrees>
              <LongitudeDegrees>-4.011671058833599090576171875</LongitudeDegrees>
            </Position>
            <AltitudeMeters>868</AltitudeMeters>
            <DistanceMeters>NAN</DistanceMeters>
          </Trackpoint>
          <Trackpoint>
            <Time>2019-08-01T10:50:26.000Z</Time>
            <Position>
              <LatitudeDegrees>40.58897509239614009857177734375</LatitudeDegrees>
              <LongitudeDegrees>-4.01165387593209743499755859375</LongitudeDegrees>
            </Position>
            <AltitudeMeters>867</AltitudeMeters>
            <DistanceMeters>NAN</DistanceMeters>
          </Trackpoint>
          <Trackpoint>
            <Time>2019-08-01T10:50:27.000Z</Time>
            <Position>
              <LatitudeDegrees>40.589096546173095703125</LatitudeDegrees>
              <LongitudeDegrees>-4.01163677684962749481201171875</LongitudeDegrees>
            </Position>
            <AltitudeMeters>866.20001220703125</AltitudeMeters>
            <DistanceMeters>NAN</DistanceMeters>
          </Trackpoint>
          <Trackpoint>
            <Time>2019-08-01T10:50:28.000Z</Time>
            <Position>
              <LatitudeDegrees>40.58921799995005130767822265625</LatitudeDegrees>
              <LongitudeDegrees>-4.01161976158618927001953125</LongitudeDegrees>
            </Position>
            <AltitudeMeters>865.4000244140625</AltitudeMeters>
            <DistanceMeters>NAN</DistanceMeters>
          </Trackpoint>
          <Trackpoint>
            <Time>2019-08-01T10:50:29.000Z</Time>
            <Position>
              <LatitudeDegrees>40.58933920226991176605224609375</LatitudeDegrees>
              <LongitudeDegrees>-4.01160274632275104522705078125</LongitudeDegrees>
            </Position>
            <AltitudeMeters>864.79998779296875</AltitudeMeters>
            <DistanceMeters>NAN</DistanceMeters>
          </Trackpoint>
          <Trackpoint>
            <Time>2019-08-01T10:50:30.000Z</Time>
            <Position>
              <LatitudeDegrees>40.58946040458977222442626953125</LatitudeDegrees>
              <LongitudeDegrees>-4.01158547960221767425537109375</LongitudeDegrees>
            </Position>
            <AltitudeMeters>864.4000244140625</AltitudeMeters>
            <DistanceMeters>NAN</DistanceMeters>
          </Trackpoint>
          <Trackpoint>
            <Time>2019-08-01T10:50:31.000Z</Time>
            <Position>
              <LatitudeDegrees>40.5895815230906009674072265625</LatitudeDegrees>
              <LongitudeDegrees>-4.011568129062652587890625</LongitudeDegrees>
            </Position>
            <AltitudeMeters>864</AltitudeMeters>
            <DistanceMeters>NAN</DistanceMeters>
          </Trackpoint>
          <Trackpoint>
            <Time>2019-08-01T10:50:32.000Z</Time>
            <Position>
              <LatitudeDegrees>40.58970247395336627960205078125</LatitudeDegrees>
              <LongitudeDegrees>-4.0115501917898654937744140625</LongitudeDegrees>
            </Position>
            <AltitudeMeters>863.79998779296875</AltitudeMeters>
            <DistanceMeters>NAN</DistanceMeters>
          </Trackpoint>
          <Trackpoint>
            <Time>2019-08-01T10:50:33.000Z</Time>
            <Position>
              <LatitudeDegrees>40.5898235924541950225830078125</LatitudeDegrees>
              <LongitudeDegrees>-4.01153233833611011505126953125</LongitudeDegrees>
            </Position>
            <AltitudeMeters>863.5999755859375</AltitudeMeters>
            <DistanceMeters>NAN</DistanceMeters>
          </Trackpoint>
          <Trackpoint>
            <Time>2019-08-01T10:50:34.000Z</Time>
            <Position>
              <LatitudeDegrees>40.58994479477405548095703125</LatitudeDegrees>
              <LongitudeDegrees>-4.01151456870138645172119140625</LongitudeDegrees>
            </Position>
            <AltitudeMeters>863.20001220703125</AltitudeMeters>
            <DistanceMeters>NAN</DistanceMeters>
          </Trackpoint>
          <Trackpoint>
            <Time>2019-08-01T10:50:35.000Z</Time>
            <Position>
              <LatitudeDegrees>40.59006524272263050079345703125</LatitudeDegrees>
              <LongitudeDegrees>-4.01149646379053592681884765625</LongitudeDegrees>
            </Position>
            <AltitudeMeters>863</AltitudeMeters>
            <DistanceMeters>NAN</DistanceMeters>
          </Trackpoint>
          <Trackpoint>
            <Time>2019-08-01T10:50:36.000Z</Time>
            <Position>
              <LatitudeDegrees>40.59018527157604694366455078125</LatitudeDegrees>
              <LongitudeDegrees>-4.011478610336780548095703125</LongitudeDegrees>
            </Position>
            <AltitudeMeters>862.5999755859375</AltitudeMeters>
            <DistanceMeters>NAN</DistanceMeters>
          </Trackpoint>
          <Trackpoint>
            <Time>2019-08-01T10:50:37.000Z</Time>
            <Position>
              <LatitudeDegrees>40.5903050489723682403564453125</LatitudeDegrees>
              <LongitudeDegrees>-4.01146125979721546173095703125</LongitudeDegrees>
            </Position>
            <AltitudeMeters>862.5999755859375</AltitudeMeters>
            <DistanceMeters>NAN</DistanceMeters>
          </Trackpoint>
          <Trackpoint>
            <Time>2019-08-01T10:50:38.000Z</Time>
            <Position>
              <LatitudeDegrees>40.590424239635467529296875</LatitudeDegrees>
              <LongitudeDegrees>-4.0114439092576503753662109375</LongitudeDegrees>
            </Position>
            <AltitudeMeters>862.4000244140625</AltitudeMeters>
            <DistanceMeters>NAN</DistanceMeters>
          </Trackpoint>
          <Trackpoint>
            <Time>2019-08-01T10:50:39.000Z</Time>
            <Position>
              <LatitudeDegrees>40.5905434302985668182373046875</LatitudeDegrees>
              <LongitudeDegrees>-4.0114284865558147430419921875</LongitudeDegrees>
            </Position>
            <AltitudeMeters>862</AltitudeMeters>
            <DistanceMeters>NAN</DistanceMeters>
          </Trackpoint>
          <Trackpoint>
            <Time>2019-08-01T10:50:40.000Z</Time>
            <Position>
              <LatitudeDegrees>40.5906621180474758148193359375</LatitudeDegrees>
              <LongitudeDegrees>-4.0114144049584865570068359375</LongitudeDegrees>
            </Position>
            <AltitudeMeters>861.79998779296875</AltitudeMeters>
            <DistanceMeters>NAN</DistanceMeters>
          </Trackpoint>
          <Trackpoint>
            <Time>2019-08-01T10:50:41.000Z</Time>
            <Position>
              <LatitudeDegrees>40.5907809734344482421875</LatitudeDegrees>
              <LongitudeDegrees>-4.01140409521758556365966796875</LongitudeDegrees>
            </Position>
            <AltitudeMeters>861.79998779296875</AltitudeMeters>
            <DistanceMeters>NAN</DistanceMeters>
          </Trackpoint>
          <Trackpoint>
            <Time>2019-08-01T10:50:42.000Z</Time>
            <Position>
              <LatitudeDegrees>40.5908976495265960693359375</LatitudeDegrees>
              <LongitudeDegrees>-4.011400155723094940185546875</LongitudeDegrees>
            </Position>
            <AltitudeMeters>861.4000244140625</AltitudeMeters>
            <DistanceMeters>NAN</DistanceMeters>
          </Trackpoint>
          <Trackpoint>
            <Time>2019-08-01T10:50:43.000Z</Time>
            <Position>
              <LatitudeDegrees>40.59101189486682415008544921875</LatitudeDegrees>
              <LongitudeDegrees>-4.01140191592276096343994140625</LongitudeDegrees>
            </Position>
            <AltitudeMeters>861.20001220703125</AltitudeMeters>
            <DistanceMeters>NAN</DistanceMeters>
          </Trackpoint>
          <Trackpoint>
            <Time>2019-08-01T10:50:44.000Z</Time>
            <Position>
              <LatitudeDegrees>40.59112438000738620758056640625</LatitudeDegrees>
              <LongitudeDegrees>-4.01140577159821987152099609375</LongitudeDegrees>
            </Position>
            <AltitudeMeters>860.79998779296875</AltitudeMeters>
            <DistanceMeters>NAN</DistanceMeters>
          </Trackpoint>
          <Trackpoint>
            <Time>2019-08-01T10:50:46.000Z</Time>
            <Position>
              <LatitudeDegrees>40.591341219842433929443359375</LatitudeDegrees>
              <LongitudeDegrees>-4.0114197693765163421630859375</LongitudeDegrees>
            </Position>
            <AltitudeMeters>860.4000244140625</AltitudeMeters>
            <DistanceMeters>NAN</DistanceMeters>
          </Trackpoint>
          <Trackpoint>
            <Time>2019-08-01T10:50:47.000Z</Time>
            <Position>
              <LatitudeDegrees>40.59144574217498302459716796875</LatitudeDegrees>
              <LongitudeDegrees>-4.011426307260990142822265625</LongitudeDegrees>
            </Position>
            <AltitudeMeters>860.20001220703125</AltitudeMeters>
            <DistanceMeters>NAN</DistanceMeters>
          </Trackpoint>
          <Trackpoint>
            <Time>2019-08-01T10:50:48.000Z</Time>
            <Position>
              <LatitudeDegrees>40.59154607355594635009765625</LatitudeDegrees>
              <LongitudeDegrees>-4.0114204399287700653076171875</LongitudeDegrees>
            </Position>
            <AltitudeMeters>860</AltitudeMeters>
            <DistanceMeters>NAN</DistanceMeters>
          </Trackpoint>
          <Trackpoint>
            <Time>2019-08-01T10:50:49.000Z</Time>
            <Position>
              <LatitudeDegrees>40.5916377715766429901123046875</LatitudeDegrees>
              <LongitudeDegrees>-4.011388756334781646728515625</LongitudeDegrees>
            </Position>
            <AltitudeMeters>860</AltitudeMeters>
            <DistanceMeters>NAN</DistanceMeters>
          </Trackpoint>
          <Trackpoint>
            <Time>2019-08-01T10:50:50.000Z</Time>
            <Position>
              <LatitudeDegrees>40.59171480126678943634033203125</LatitudeDegrees>
              <LongitudeDegrees>-4.011325724422931671142578125</LongitudeDegrees>
            </Position>
            <AltitudeMeters>860</AltitudeMeters>
            <DistanceMeters>NAN</DistanceMeters>
          </Trackpoint>
          <Trackpoint>
            <Time>2019-08-01T10:50:51.000Z</Time>
            <Position>
              <LatitudeDegrees>40.59177129529416561126708984375</LatitudeDegrees>
              <LongitudeDegrees>-4.01123545132577419281005859375</LongitudeDegrees>
            </Position>
            <AltitudeMeters>860</AltitudeMeters>
            <DistanceMeters>NAN</DistanceMeters>
          </Trackpoint>
          <Trackpoint>
            <Time>2019-08-01T10:50:52.000Z</Time>
            <Position>
              <LatitudeDegrees>40.5918168090283870697021484375</LatitudeDegrees>
              <LongitudeDegrees>-4.01113235391676425933837890625</LongitudeDegrees>
            </Position>
            <AltitudeMeters>860</AltitudeMeters>
            <DistanceMeters>NAN</DistanceMeters>
          </Trackpoint>
          <Trackpoint>
            <Time>2019-08-01T10:50:53.000Z</Time>
            <Position>
              <LatitudeDegrees>40.59186936356127262115478515625</LatitudeDegrees>
              <LongitudeDegrees>-4.01103772222995758056640625</LongitudeDegrees>
            </Position>
            <AltitudeMeters>860</AltitudeMeters>
            <DistanceMeters>NAN</DistanceMeters>
          </Trackpoint>
          <Trackpoint>
            <Time>2019-08-01T10:50:54.000Z</Time>
            <Position>
              <LatitudeDegrees>40.59193574823439121246337890625</LatitudeDegrees>
              <LongitudeDegrees>-4.01096991263329982757568359375</LongitudeDegrees>
            </Position>
            <AltitudeMeters>860</AltitudeMeters>
            <DistanceMeters>NAN</DistanceMeters>
          </Trackpoint>
          <Trackpoint>
            <Time>2019-08-01T10:50:55.000Z</Time>
            <Position>
              <LatitudeDegrees>40.59201671741902828216552734375</LatitudeDegrees>
              <LongitudeDegrees>-4.0109336189925670623779296875</LongitudeDegrees>
            </Position>
            <AltitudeMeters>860.20001220703125</AltitudeMeters>
            <DistanceMeters>NAN</DistanceMeters>
          </Trackpoint>
          <Trackpoint>
            <Time>2019-08-01T10:50:56.000Z</Time>
            <Position>
              <LatitudeDegrees>40.5921017937362194061279296875</LatitudeDegrees>
              <LongitudeDegrees>-4.0109369717538356781005859375</LongitudeDegrees>
            </Position>
            <AltitudeMeters>860.20001220703125</AltitudeMeters>
            <DistanceMeters>NAN</DistanceMeters>
          </Trackpoint>
          <Trackpoint>
            <Time>2019-08-01T10:50:57.000Z</Time>
            <Position>
              <LatitudeDegrees>40.592178069055080413818359375</LatitudeDegrees>
              <LongitudeDegrees>-4.01097980327904224395751953125</LongitudeDegrees>
            </Position>
            <AltitudeMeters>860.79998779296875</AltitudeMeters>
            <DistanceMeters>NAN</DistanceMeters>
          </Trackpoint>
          <Trackpoint>
            <Time>2019-08-01T10:50:58.000Z</Time>
            <Position>
              <LatitudeDegrees>40.59224051423370838165283203125</LatitudeDegrees>
              <LongitudeDegrees>-4.01105440221726894378662109375</LongitudeDegrees>
            </Position>
            <AltitudeMeters>861</AltitudeMeters>
            <DistanceMeters>NAN</DistanceMeters>
          </Trackpoint>
          <Trackpoint>
            <Time>2019-08-01T10:50:59.000Z</Time>
            <Position>
              <LatitudeDegrees>40.59228745289146900177001953125</LatitudeDegrees>
              <LongitudeDegrees>-4.011152051389217376708984375</LongitudeDegrees>
            </Position>
            <AltitudeMeters>861.20001220703125</AltitudeMeters>
            <DistanceMeters>NAN</DistanceMeters>
          </Trackpoint>
          <Trackpoint>
            <Time>2019-08-01T10:51:00.000Z</Time>
            <Position>
              <LatitudeDegrees>40.592312850058078765869140625</LatitudeDegrees>
              <LongitudeDegrees>-4.01126093231141567230224609375</LongitudeDegrees>
            </Position>
            <AltitudeMeters>861.4000244140625</AltitudeMeters>
            <DistanceMeters>NAN</DistanceMeters>
          </Trackpoint>
          <Trackpoint>
            <Time>2019-08-01T10:51:01.000Z</Time>
            <Position>
              <LatitudeDegrees>40.5923200584948062896728515625</LatitudeDegrees>
              <LongitudeDegrees>-4.01137526147067546844482421875</LongitudeDegrees>
            </Position>
            <AltitudeMeters>861.4000244140625</AltitudeMeters>
            <DistanceMeters>NAN</DistanceMeters>
          </Trackpoint>
          <Trackpoint>
            <Time>2019-08-01T10:51:02.000Z</Time>
            <Position>
              <LatitudeDegrees>40.59232215397059917449951171875</LatitudeDegrees>
              <LongitudeDegrees>-4.01149076409637928009033203125</LongitudeDegrees>
            </Position>
            <AltitudeMeters>861.5999755859375</AltitudeMeters>
            <DistanceMeters>NAN</DistanceMeters>
          </Trackpoint>
          <Trackpoint>
            <Time>2019-08-01T10:51:03.000Z</Time>
            <Position>
              <LatitudeDegrees>40.5923411808907985687255859375</LatitudeDegrees>
              <LongitudeDegrees>-4.011603333055973052978515625</LongitudeDegrees>
            </Position>
            <AltitudeMeters>861.5999755859375</AltitudeMeters>
            <DistanceMeters>NAN</DistanceMeters>
          </Trackpoint>
          <Trackpoint>
            <Time>2019-08-01T10:51:04.000Z</Time>
            <Position>
              <LatitudeDegrees>40.592382252216339111328125</LatitudeDegrees>
              <LongitudeDegrees>-4.01170383207499980926513671875</LongitudeDegrees>
            </Position>
            <AltitudeMeters>861.5999755859375</AltitudeMeters>
            <DistanceMeters>NAN</DistanceMeters>
          </Trackpoint>
          <Trackpoint>
            <Time>2019-08-01T10:51:05.000Z</Time>
            <Position>
              <LatitudeDegrees>40.59243715368211269378662109375</LatitudeDegrees>
              <LongitudeDegrees>-4.01179184205830097198486328125</LongitudeDegrees>
            </Position>
            <AltitudeMeters>861.5999755859375</AltitudeMeters>
            <DistanceMeters>NAN</DistanceMeters>
          </Trackpoint>
          <Trackpoint>
            <Time>2019-08-01T10:51:06.000Z</Time>
            <Position>
              <LatitudeDegrees>40.592496581375598907470703125</LatitudeDegrees>
              <LongitudeDegrees>-4.01187264360487461090087890625</LongitudeDegrees>
            </Position>
            <AltitudeMeters>861.5999755859375</AltitudeMeters>
            <DistanceMeters>NAN</DistanceMeters>
          </Trackpoint>
          <Trackpoint>
            <Time>2019-08-01T10:51:07.000Z</Time>
            <Position>
              <LatitudeDegrees>40.592557601630687713623046875</LatitudeDegrees>
              <LongitudeDegrees>-4.0119498409330844879150390625</LongitudeDegrees>
            </Position>
            <AltitudeMeters>861.5999755859375</AltitudeMeters>
            <DistanceMeters>NAN</DistanceMeters>
          </Trackpoint>
          <Trackpoint>
            <Time>2019-08-01T10:51:08.000Z</Time>
            <Position>
              <LatitudeDegrees>40.592618621885776519775390625</LatitudeDegrees>
              <LongitudeDegrees>-4.0120249427855014801025390625</LongitudeDegrees>
            </Position>
            <AltitudeMeters>861.79998779296875</AltitudeMeters>
            <DistanceMeters>NAN</DistanceMeters>
          </Trackpoint>
          <Trackpoint>
            <Time>2019-08-01T10:51:09.000Z</Time>
            <Position>
              <LatitudeDegrees>40.59267905540764331817626953125</LatitudeDegrees>
              <LongitudeDegrees>-4.01209912262856960296630859375</LongitudeDegrees>
            </Position>
            <AltitudeMeters>861.79998779296875</AltitudeMeters>
            <DistanceMeters>NAN</DistanceMeters>
          </Trackpoint>
          <Trackpoint>
            <Time>2019-08-01T10:51:10.000Z</Time>
            <Position>
              <LatitudeDegrees>40.59274041093885898590087890625</LatitudeDegrees>
              <LongitudeDegrees>-4.01217087171971797943115234375</LongitudeDegrees>
            </Position>
            <AltitudeMeters>861.79998779296875</AltitudeMeters>
            <DistanceMeters>NAN</DistanceMeters>
          </Trackpoint>
          <Trackpoint>
            <Time>2019-08-01T10:51:11.000Z</Time>
            <Position>
              <LatitudeDegrees>40.59280260466039180755615234375</LatitudeDegrees>
              <LongitudeDegrees>-4.01224077679216861724853515625</LongitudeDegrees>
            </Position>
            <AltitudeMeters>862</AltitudeMeters>
            <DistanceMeters>NAN</DistanceMeters>
          </Trackpoint>
          <Trackpoint>
            <Time>2019-08-01T10:51:12.000Z</Time>
            <Position>
              <LatitudeDegrees>40.592865385115146636962890625</LatitudeDegrees>
              <LongitudeDegrees>-4.0123099274933338165283203125</LongitudeDegrees>
            </Position>
            <AltitudeMeters>862.20001220703125</AltitudeMeters>
            <DistanceMeters>NAN</DistanceMeters>
          </Trackpoint>
          <Trackpoint>
            <Time>2019-08-01T10:51:13.000Z</Time>
            <Position>
              <LatitudeDegrees>40.59292933903634548187255859375</LatitudeDegrees>
              <LongitudeDegrees>-4.012376479804515838623046875</LongitudeDegrees>
            </Position>
            <AltitudeMeters>862.20001220703125</AltitudeMeters>
            <DistanceMeters>NAN</DistanceMeters>
          </Trackpoint>
          <Trackpoint>
            <Time>2019-08-01T10:51:14.000Z</Time>
            <Position>
              <LatitudeDegrees>40.5929932929575443267822265625</LatitudeDegrees>
              <LongitudeDegrees>-4.01243959553539752960205078125</LongitudeDegrees>
            </Position>
            <AltitudeMeters>862.20001220703125</AltitudeMeters>
            <DistanceMeters>NAN</DistanceMeters>
          </Trackpoint>
          <Trackpoint>
            <Time>2019-08-01T10:51:15.000Z</Time>
            <Position>
              <LatitudeDegrees>40.59305540286004543304443359375</LatitudeDegrees>
              <LongitudeDegrees>-4.0125023759901523590087890625</LongitudeDegrees>
            </Position>
            <AltitudeMeters>862.20001220703125</AltitudeMeters>
            <DistanceMeters>NAN</DistanceMeters>
          </Trackpoint>
          <Trackpoint>
            <Time>2019-08-01T10:51:16.000Z</Time>
            <Position>
              <LatitudeDegrees>40.5931186862289905548095703125</LatitudeDegrees>
              <LongitudeDegrees>-4.01256389915943145751953125</LongitudeDegrees>
            </Position>
            <AltitudeMeters>862.4000244140625</AltitudeMeters>
            <DistanceMeters>NAN</DistanceMeters>
          </Trackpoint>
          <Trackpoint>
            <Time>2019-08-01T10:51:17.000Z</Time>
            <Position>
              <LatitudeDegrees>40.59318314306437969207763671875</LatitudeDegrees>
              <LongitudeDegrees>-4.01262315921485424041748046875</LongitudeDegrees>
            </Position>
            <AltitudeMeters>862.79998779296875</AltitudeMeters>
            <DistanceMeters>NAN</DistanceMeters>
          </Trackpoint>
          <Trackpoint>
            <Time>2019-08-01T10:51:18.000Z</Time>
            <Position>
              <LatitudeDegrees>40.59324718080461025238037109375</LatitudeDegrees>
              <LongitudeDegrees>-4.01268417946994304656982421875</LongitudeDegrees>
            </Position>
            <AltitudeMeters>863</AltitudeMeters>
            <DistanceMeters>NAN</DistanceMeters>
          </Trackpoint>
          <Trackpoint>
            <Time>2019-08-01T10:51:21.000Z</Time>
            <Position>
              <LatitudeDegrees>40.5934341810643672943115234375</LatitudeDegrees>
              <LongitudeDegrees>-4.0128648094832897186279296875</LongitudeDegrees>
            </Position>
            <AltitudeMeters>863.20001220703125</AltitudeMeters>
            <DistanceMeters>NAN</DistanceMeters>
          </Trackpoint>
          <Trackpoint>
            <Time>2019-08-01T10:51:22.000Z</Time>
            <Position>
              <LatitudeDegrees>40.59349411167204380035400390625</LatitudeDegrees>
              <LongitudeDegrees>-4.0129214711487293243408203125</LongitudeDegrees>
            </Position>
            <AltitudeMeters>863.20001220703125</AltitudeMeters>
            <DistanceMeters>NAN</DistanceMeters>
          </Trackpoint>
          <Trackpoint>
            <Time>2019-08-01T10:51:23.000Z</Time>
            <Position>
              <LatitudeDegrees>40.5935542099177837371826171875</LatitudeDegrees>
              <LongitudeDegrees>-4.01297830045223236083984375</LongitudeDegrees>
            </Position>
            <AltitudeMeters>863.20001220703125</AltitudeMeters>
            <DistanceMeters>NAN</DistanceMeters>
          </Trackpoint>
          <Trackpoint>
            <Time>2019-08-01T10:51:25.000Z</Time>
            <Position>
              <LatitudeDegrees>40.59367868117988109588623046875</LatitudeDegrees>
              <LongitudeDegrees>-4.0130887739360332489013671875</LongitudeDegrees>
            </Position>
            <AltitudeMeters>863.20001220703125</AltitudeMeters>
            <DistanceMeters>NAN</DistanceMeters>
          </Trackpoint>
          <Trackpoint>
            <Time>2019-08-01T10:51:26.000Z</Time>
            <Position>
              <LatitudeDegrees>40.59373986907303333282470703125</LatitudeDegrees>
              <LongitudeDegrees>-4.01314803399145603179931640625</LongitudeDegrees>
            </Position>
            <AltitudeMeters>863.4000244140625</AltitudeMeters>
            <DistanceMeters>NAN</DistanceMeters>
          </Trackpoint>
          <Trackpoint>
            <Time>2019-08-01T10:51:27.000Z</Time>
            <Position>
              <LatitudeDegrees>40.593800134956836700439453125</LatitudeDegrees>
              <LongitudeDegrees>-4.01320737786591053009033203125</LongitudeDegrees>
            </Position>
            <AltitudeMeters>863.5999755859375</AltitudeMeters>
            <DistanceMeters>NAN</DistanceMeters>
          </Trackpoint>
          <Trackpoint>
            <Time>2019-08-01T10:51:28.000Z</Time>
            <Position>
              <LatitudeDegrees>40.593859143555164337158203125</LatitudeDegrees>
              <LongitudeDegrees>-4.0132619440555572509765625</LongitudeDegrees>
            </Position>
            <AltitudeMeters>863.79998779296875</AltitudeMeters>
            <DistanceMeters>NAN</DistanceMeters>
          </Trackpoint>
          <Trackpoint>
            <Time>2019-08-01T10:51:29.000Z</Time>
            <Position>
              <LatitudeDegrees>40.59391890652477741241455078125</LatitudeDegrees>
              <LongitudeDegrees>-4.01331969536840915679931640625</LongitudeDegrees>
            </Position>
            <AltitudeMeters>864</AltitudeMeters>
            <DistanceMeters>NAN</DistanceMeters>
          </Trackpoint>
          <Trackpoint>
            <Time>2019-08-01T10:51:30.000Z</Time>
            <Position>
              <LatitudeDegrees>40.59398009441792964935302734375</LatitudeDegrees>
              <LongitudeDegrees>-4.01338490657508373260498046875</LongitudeDegrees>
            </Position>
            <AltitudeMeters>864</AltitudeMeters>
            <DistanceMeters>NAN</DistanceMeters>
          </Trackpoint>
          <Trackpoint>
            <Time>2019-08-01T10:51:32.000Z</Time>
            <Position>
              <LatitudeDegrees>40.5941047333180904388427734375</LatitudeDegrees>
              <LongitudeDegrees>-4.0135065279901027679443359375</LongitudeDegrees>
            </Position>
            <AltitudeMeters>864.20001220703125</AltitudeMeters>
            <DistanceMeters>NAN</DistanceMeters>
          </Trackpoint>
          <Trackpoint>
            <Time>2019-08-01T10:51:33.000Z</Time>
            <Position>
              <LatitudeDegrees>40.59416525065898895263671875</LatitudeDegrees>
              <LongitudeDegrees>-4.01357182301580905914306640625</LongitudeDegrees>
            </Position>
            <AltitudeMeters>864.4000244140625</AltitudeMeters>
            <DistanceMeters>NAN</DistanceMeters>
          </Trackpoint>
          <Trackpoint>
            <Time>2019-08-01T10:51:34.000Z</Time>
            <Position>
              <LatitudeDegrees>40.59422601945698261260986328125</LatitudeDegrees>
              <LongitudeDegrees>-4.013637118041515350341796875</LongitudeDegrees>
            </Position>
            <AltitudeMeters>864.5999755859375</AltitudeMeters>
            <DistanceMeters>NAN</DistanceMeters>
          </Trackpoint>
          <Trackpoint>
            <Time>2019-08-01T10:51:35.000Z</Time>
            <Position>
              <LatitudeDegrees>40.594286285340785980224609375</LatitudeDegrees>
              <LongitudeDegrees>-4.01369989849627017974853515625</LongitudeDegrees>
            </Position>
            <AltitudeMeters>865.20001220703125</AltitudeMeters>
            <DistanceMeters>NAN</DistanceMeters>
          </Trackpoint>
          <Trackpoint>
            <Time>2019-08-01T10:51:36.000Z</Time>
            <Position>
              <LatitudeDegrees>40.59434688650071620941162109375</LatitudeDegrees>
              <LongitudeDegrees>-4.0137646906077861785888671875</LongitudeDegrees>
            </Position>
            <AltitudeMeters>865.4000244140625</AltitudeMeters>
            <DistanceMeters>NAN</DistanceMeters>
          </Trackpoint>
          <Trackpoint>
            <Time>2019-08-01T10:51:37.000Z</Time>
            <Position>
              <LatitudeDegrees>40.59440908022224903106689453125</LatitudeDegrees>
              <LongitudeDegrees>-4.01382612995803356170654296875</LongitudeDegrees>
            </Position>
            <AltitudeMeters>865.5999755859375</AltitudeMeters>
            <DistanceMeters>NAN</DistanceMeters>
          </Trackpoint>
          <Trackpoint>
            <Time>2019-08-01T10:51:38.000Z</Time>
            <Position>
              <LatitudeDegrees>40.5944715254008769989013671875</LatitudeDegrees>
              <LongitudeDegrees>-4.01388949714601039886474609375</LongitudeDegrees>
            </Position>
            <AltitudeMeters>865.79998779296875</AltitudeMeters>
            <DistanceMeters>NAN</DistanceMeters>
          </Trackpoint>
          <Trackpoint>
            <Time>2019-08-01T10:51:39.000Z</Time>
            <Position>
              <LatitudeDegrees>40.59453447349369525909423828125</LatitudeDegrees>
              <LongitudeDegrees>-4.01395219378173351287841796875</LongitudeDegrees>
            </Position>
            <AltitudeMeters>866</AltitudeMeters>
            <DistanceMeters>NAN</DistanceMeters>
          </Trackpoint>
          <Trackpoint>
            <Time>2019-08-01T10:51:40.000Z</Time>
            <Position>
              <LatitudeDegrees>40.59459784068167209625244140625</LatitudeDegrees>
              <LongitudeDegrees>-4.01401497423648834228515625</LongitudeDegrees>
            </Position>
            <AltitudeMeters>866</AltitudeMeters>
            <DistanceMeters>NAN</DistanceMeters>
          </Trackpoint>
          <Trackpoint>
            <Time>2019-08-01T10:51:41.000Z</Time>
            <Position>
              <LatitudeDegrees>40.5946607887744903564453125</LatitudeDegrees>
              <LongitudeDegrees>-4.01407725177705287933349609375</LongitudeDegrees>
            </Position>
            <AltitudeMeters>866.20001220703125</AltitudeMeters>
            <DistanceMeters>NAN</DistanceMeters>
          </Trackpoint>
          <Trackpoint>
            <Time>2019-08-01T10:51:42.000Z</Time>
            <Position>
              <LatitudeDegrees>40.594723485410213470458984375</LatitudeDegrees>
              <LongitudeDegrees>-4.0141412056982517242431640625</LongitudeDegrees>
            </Position>
            <AltitudeMeters>866.20001220703125</AltitudeMeters>
            <DistanceMeters>NAN</DistanceMeters>
          </Trackpoint>
          <Trackpoint>
            <Time>2019-08-01T10:51:43.000Z</Time>
            <Position>
              <LatitudeDegrees>40.5947860144078731536865234375</LatitudeDegrees>
              <LongitudeDegrees>-4.01420549489557743072509765625</LongitudeDegrees>
            </Position>
            <AltitudeMeters>866.4000244140625</AltitudeMeters>
            <DistanceMeters>NAN</DistanceMeters>
          </Trackpoint>
          <Trackpoint>
            <Time>2019-08-01T10:51:44.000Z</Time>
            <Position>
              <LatitudeDegrees>40.594847537577152252197265625</LatitudeDegrees>
              <LongitudeDegrees>-4.01427003554999828338623046875</LongitudeDegrees>
            </Position>
            <AltitudeMeters>866.4000244140625</AltitudeMeters>
            <DistanceMeters>NAN</DistanceMeters>
          </Trackpoint>
          <Trackpoint>
            <Time>2019-08-01T10:51:45.000Z</Time>
            <Position>
              <LatitudeDegrees>40.59490822255611419677734375</LatitudeDegrees>
              <LongitudeDegrees>-4.01433072052896022796630859375</LongitudeDegrees>
            </Position>
            <AltitudeMeters>866.79998779296875</AltitudeMeters>
            <DistanceMeters>NAN</DistanceMeters>
          </Trackpoint>
          <Trackpoint>
            <Time>2019-08-01T10:51:46.000Z</Time>
            <Position>
              <LatitudeDegrees>40.59496982954442501068115234375</LatitudeDegrees>
              <LongitudeDegrees>-4.0143916569650173187255859375</LongitudeDegrees>
            </Position>
            <AltitudeMeters>866.79998779296875</AltitudeMeters>
            <DistanceMeters>NAN</DistanceMeters>
          </Trackpoint>
          <Trackpoint>
            <Time>2019-08-01T10:51:47.000Z</Time>
            <Position>
              <LatitudeDegrees>40.5950311012566089630126953125</LatitudeDegrees>
              <LongitudeDegrees>-4.01445125229656696319580078125</LongitudeDegrees>
            </Position>
            <AltitudeMeters>867</AltitudeMeters>
            <DistanceMeters>NAN</DistanceMeters>
          </Trackpoint>
          <Trackpoint>
            <Time>2019-08-01T10:51:48.000Z</Time>
            <Position>
              <LatitudeDegrees>40.59509287588298320770263671875</LatitudeDegrees>
              <LongitudeDegrees>-4.01451126672327518463134765625</LongitudeDegrees>
            </Position>
            <AltitudeMeters>867</AltitudeMeters>
            <DistanceMeters>NAN</DistanceMeters>
          </Trackpoint>
          <Trackpoint>
            <Time>2019-08-01T10:51:49.000Z</Time>
            <Position>
              <LatitudeDegrees>40.59515439905226230621337890625</LatitudeDegrees>
              <LongitudeDegrees>-4.01457161642611026763916015625</LongitudeDegrees>
            </Position>
            <AltitudeMeters>867</AltitudeMeters>
            <DistanceMeters>NAN</DistanceMeters>
          </Trackpoint>
          <Trackpoint>
            <Time>2019-08-01T10:51:50.000Z</Time>
            <Position>
              <LatitudeDegrees>40.59521659277379512786865234375</LatitudeDegrees>
              <LongitudeDegrees>-4.014631211757659912109375</LongitudeDegrees>
            </Position>
            <AltitudeMeters>867.20001220703125</AltitudeMeters>
            <DistanceMeters>NAN</DistanceMeters>
          </Trackpoint>
          <Trackpoint>
            <Time>2019-08-01T10:51:51.000Z</Time>
            <Position>
              <LatitudeDegrees>40.59527878649532794952392578125</LatitudeDegrees>
              <LongitudeDegrees>-4.01469047181308269500732421875</LongitudeDegrees>
            </Position>
            <AltitudeMeters>867.4000244140625</AltitudeMeters>
            <DistanceMeters>NAN</DistanceMeters>
          </Trackpoint>
          <Trackpoint>
            <Time>2019-08-01T10:51:52.000Z</Time>
            <Position>
              <LatitudeDegrees>40.595340393483638763427734375</LatitudeDegrees>
              <LongitudeDegrees>-4.01475233025848865509033203125</LongitudeDegrees>
            </Position>
            <AltitudeMeters>867.5999755859375</AltitudeMeters>
            <DistanceMeters>NAN</DistanceMeters>
          </Trackpoint>
          <Trackpoint>
            <Time>2019-08-01T10:51:53.000Z</Time>
            <Position>
              <LatitudeDegrees>40.59540200047194957733154296875</LatitudeDegrees>
              <LongitudeDegrees>-4.014813937246799468994140625</LongitudeDegrees>
            </Position>
            <AltitudeMeters>867.5999755859375</AltitudeMeters>
            <DistanceMeters>NAN</DistanceMeters>
          </Trackpoint>
          <Trackpoint>
            <Time>2019-08-01T10:51:54.000Z</Time>
            <Position>
              <LatitudeDegrees>40.59546402655541896820068359375</LatitudeDegrees>
              <LongitudeDegrees>-4.0148757956922054290771484375</LongitudeDegrees>
            </Position>
            <AltitudeMeters>867.79998779296875</AltitudeMeters>
            <DistanceMeters>NAN</DistanceMeters>
          </Trackpoint>
          <Trackpoint>
            <Time>2019-08-01T10:51:55.000Z</Time>
            <Position>
              <LatitudeDegrees>40.59552647173404693603515625</LatitudeDegrees>
              <LongitudeDegrees>-4.01493589393794536590576171875</LongitudeDegrees>
            </Position>
            <AltitudeMeters>868</AltitudeMeters>
            <DistanceMeters>NAN</DistanceMeters>
          </Trackpoint>
          <Trackpoint>
            <Time>2019-08-01T10:51:56.000Z</Time>
            <Position>
              <LatitudeDegrees>40.59558958746492862701416015625</LatitudeDegrees>
              <LongitudeDegrees>-4.01499641127884387969970703125</LongitudeDegrees>
            </Position>
            <AltitudeMeters>868.20001220703125</AltitudeMeters>
            <DistanceMeters>NAN</DistanceMeters>
          </Trackpoint>
          <Trackpoint>
            <Time>2019-08-01T10:51:57.000Z</Time>
            <Position>
              <LatitudeDegrees>40.59565261937677860260009765625</LatitudeDegrees>
              <LongitudeDegrees>-4.0150581859052181243896484375</LongitudeDegrees>
            </Position>
            <AltitudeMeters>868.20001220703125</AltitudeMeters>
            <DistanceMeters>NAN</DistanceMeters>
          </Trackpoint>
          <Trackpoint>
            <Time>2019-08-01T10:51:58.000Z</Time>
            <Position>
              <LatitudeDegrees>40.59571556746959686279296875</LatitudeDegrees>
              <LongitudeDegrees>-4.01512063108384609222412109375</LongitudeDegrees>
            </Position>
            <AltitudeMeters>868.4000244140625</AltitudeMeters>
            <DistanceMeters>NAN</DistanceMeters>
          </Trackpoint>
          <Trackpoint>
            <Time>2019-08-01T10:51:59.000Z</Time>
            <Position>
              <LatitudeDegrees>40.595778934657573699951171875</LatitudeDegrees>
              <LongitudeDegrees>-4.01518307626247406005859375</LongitudeDegrees>
            </Position>
            <AltitudeMeters>868.4000244140625</AltitudeMeters>
            <DistanceMeters>NAN</DistanceMeters>
          </Trackpoint>
          <Trackpoint>
            <Time>2019-08-01T10:52:00.000Z</Time>
            <Position>
              <LatitudeDegrees>40.59584339149296283721923828125</LatitudeDegrees>
              <LongitudeDegrees>-4.01524635963141918182373046875</LongitudeDegrees>
            </Position>
            <AltitudeMeters>868.79998779296875</AltitudeMeters>
            <DistanceMeters>NAN</DistanceMeters>
          </Trackpoint>
          <Trackpoint>
            <Time>2019-08-01T10:52:01.000Z</Time>
            <Position>
              <LatitudeDegrees>40.5959080159664154052734375</LatitudeDegrees>
              <LongitudeDegrees>-4.01531022973358631134033203125</LongitudeDegrees>
            </Position>
            <AltitudeMeters>869</AltitudeMeters>
            <DistanceMeters>NAN</DistanceMeters>
          </Trackpoint>
          <Trackpoint>
            <Time>2019-08-01T10:52:02.000Z</Time>
            <Position>
              <LatitudeDegrees>40.59597314335405826568603515625</LatitudeDegrees>
              <LongitudeDegrees>-4.01537485420703887939453125</LongitudeDegrees>
            </Position>
            <AltitudeMeters>869.20001220703125</AltitudeMeters>
            <DistanceMeters>NAN</DistanceMeters>
          </Trackpoint>
          <Trackpoint>
            <Time>2019-08-01T10:52:03.000Z</Time>
            <Position>
              <LatitudeDegrees>40.5960382707417011260986328125</LatitudeDegrees>
              <LongitudeDegrees>-4.01543914340436458587646484375</LongitudeDegrees>
            </Position>
            <AltitudeMeters>869.20001220703125</AltitudeMeters>
            <DistanceMeters>NAN</DistanceMeters>
          </Trackpoint>
          <Trackpoint>
            <Time>2019-08-01T10:52:04.000Z</Time>
            <Position>
              <LatitudeDegrees>40.596103481948375701904296875</LatitudeDegrees>
              <LongitudeDegrees>-4.01550418697297573089599609375</LongitudeDegrees>
            </Position>
            <AltitudeMeters>869.20001220703125</AltitudeMeters>
            <DistanceMeters>NAN</DistanceMeters>
          </Trackpoint>
          <Trackpoint>
            <Time>2019-08-01T10:52:05.000Z</Time>
            <Position>
              <LatitudeDegrees>40.596167854964733123779296875</LatitudeDegrees>
              <LongitudeDegrees>-4.0155691467225551605224609375</LongitudeDegrees>
            </Position>
            <AltitudeMeters>869.20001220703125</AltitudeMeters>
            <DistanceMeters>NAN</DistanceMeters>
          </Trackpoint>
          <Trackpoint>
            <Time>2019-08-01T10:52:06.000Z</Time>
            <Position>
              <LatitudeDegrees>40.5962330661714076995849609375</LatitudeDegrees>
              <LongitudeDegrees>-4.0156335197389125823974609375</LongitudeDegrees>
            </Position>
            <AltitudeMeters>869.20001220703125</AltitudeMeters>
            <DistanceMeters>NAN</DistanceMeters>
          </Trackpoint>
          <Trackpoint>
            <Time>2019-08-01T10:52:07.000Z</Time>
            <Position>
              <LatitudeDegrees>40.59629819355905055999755859375</LatitudeDegrees>
              <LongitudeDegrees>-4.015697725117206573486328125</LongitudeDegrees>
            </Position>
            <AltitudeMeters>869.4000244140625</AltitudeMeters>
            <DistanceMeters>NAN</DistanceMeters>
          </Trackpoint>
          <Trackpoint>
            <Time>2019-08-01T10:52:08.000Z</Time>
            <Position>
              <LatitudeDegrees>40.5963628180325031280517578125</LatitudeDegrees>
              <LongitudeDegrees>-4.0157619304955005645751953125</LongitudeDegrees>
            </Position>
            <AltitudeMeters>869.4000244140625</AltitudeMeters>
            <DistanceMeters>NAN</DistanceMeters>
          </Trackpoint>
          <Trackpoint>
            <Time>2019-08-01T10:52:09.000Z</Time>
            <Position>
              <LatitudeDegrees>40.59642761014401912689208984375</LatitudeDegrees>
              <LongitudeDegrees>-4.01582554914057254791259765625</LongitudeDegrees>
            </Position>
            <AltitudeMeters>869.4000244140625</AltitudeMeters>
            <DistanceMeters>NAN</DistanceMeters>
          </Trackpoint>
          <Trackpoint>
            <Time>2019-08-01T10:52:10.000Z</Time>
            <Position>
              <LatitudeDegrees>40.5964925698935985565185546875</LatitudeDegrees>
              <LongitudeDegrees>-4.01588891632854938507080078125</LongitudeDegrees>
            </Position>
            <AltitudeMeters>869.4000244140625</AltitudeMeters>
            <DistanceMeters>NAN</DistanceMeters>
          </Trackpoint>
          <Trackpoint>
            <Time>2019-08-01T10:52:11.000Z</Time>
            <Position>
              <LatitudeDegrees>40.59655719436705112457275390625</LatitudeDegrees>
              <LongitudeDegrees>-4.0159521996974945068359375</LongitudeDegrees>
            </Position>
            <AltitudeMeters>869.4000244140625</AltitudeMeters>
            <DistanceMeters>NAN</DistanceMeters>
          </Trackpoint>
          <Trackpoint>
            <Time>2019-08-01T10:52:12.000Z</Time>
            <Position>
              <LatitudeDegrees>40.596621818840503692626953125</LatitudeDegrees>
              <LongitudeDegrees>-4.01601531542837619781494140625</LongitudeDegrees>
            </Position>
            <AltitudeMeters>869.4000244140625</AltitudeMeters>
            <DistanceMeters>NAN</DistanceMeters>
          </Trackpoint>
          <Trackpoint>
            <Time>2019-08-01T10:52:14.000Z</Time>
            <Position>
              <LatitudeDegrees>40.59675098396837711334228515625</LatitudeDegrees>
              <LongitudeDegrees>-4.01614154689013957977294921875</LongitudeDegrees>
            </Position>
            <AltitudeMeters>869.4000244140625</AltitudeMeters>
            <DistanceMeters>NAN</DistanceMeters>
          </Trackpoint>
          <Trackpoint>
            <Time>2019-08-01T10:52:15.000Z</Time>
            <Position>
              <LatitudeDegrees>40.5968151055276393890380859375</LatitudeDegrees>
              <LongitudeDegrees>-4.01620541699230670928955078125</LongitudeDegrees>
            </Position>
            <AltitudeMeters>869.20001220703125</AltitudeMeters>
            <DistanceMeters>NAN</DistanceMeters>
          </Trackpoint>
          <Trackpoint>
            <Time>2019-08-01T10:52:16.000Z</Time>
            <Position>
              <LatitudeDegrees>40.59687956236302852630615234375</LatitudeDegrees>
              <LongitudeDegrees>-4.0162685327231884002685546875</LongitudeDegrees>
            </Position>
            <AltitudeMeters>869.20001220703125</AltitudeMeters>
            <DistanceMeters>NAN</DistanceMeters>
          </Trackpoint>
          <Trackpoint>
            <Time>2019-08-01T10:52:17.000Z</Time>
            <Position>
              <LatitudeDegrees>40.59694443829357624053955078125</LatitudeDegrees>
              <LongitudeDegrees>-4.016330726444721221923828125</LongitudeDegrees>
            </Position>
            <AltitudeMeters>869.20001220703125</AltitudeMeters>
            <DistanceMeters>NAN</DistanceMeters>
          </Trackpoint>
          <Trackpoint>
            <Time>2019-08-01T10:52:18.000Z</Time>
            <Position>
              <LatitudeDegrees>40.59700914658606052398681640625</LatitudeDegrees>
              <LongitudeDegrees>-4.0163932554423809051513671875</LongitudeDegrees>
            </Position>
            <AltitudeMeters>869.20001220703125</AltitudeMeters>
            <DistanceMeters>NAN</DistanceMeters>
          </Trackpoint>
          <Trackpoint>
            <Time>2019-08-01T10:52:19.000Z</Time>
            <Position>
              <LatitudeDegrees>40.597073771059513092041015625</LatitudeDegrees>
              <LongitudeDegrees>-4.01645670644938945770263671875</LongitudeDegrees>
            </Position>
            <AltitudeMeters>869.20001220703125</AltitudeMeters>
            <DistanceMeters>NAN</DistanceMeters>
          </Trackpoint>
          <Trackpoint>
            <Time>2019-08-01T10:52:20.000Z</Time>
            <Position>
              <LatitudeDegrees>40.597138814628124237060546875</LatitudeDegrees>
              <LongitudeDegrees>-4.0165203250944614410400390625</LongitudeDegrees>
            </Position>
            <AltitudeMeters>869.20001220703125</AltitudeMeters>
            <DistanceMeters>NAN</DistanceMeters>
          </Trackpoint>
          <Trackpoint>
            <Time>2019-08-01T10:52:21.000Z</Time>
            <Position>
              <LatitudeDegrees>40.597204528748989105224609375</LatitudeDegrees>
              <LongitudeDegrees>-4.01658377610146999359130859375</LongitudeDegrees>
            </Position>
            <AltitudeMeters>869.20001220703125</AltitudeMeters>
            <DistanceMeters>NAN</DistanceMeters>
          </Trackpoint>
          <Trackpoint>
            <Time>2019-08-01T10:52:22.000Z</Time>
            <Position>
              <LatitudeDegrees>40.5972704105079174041748046875</LatitudeDegrees>
              <LongitudeDegrees>-4.01664680801331996917724609375</LongitudeDegrees>
            </Position>
            <AltitudeMeters>869.20001220703125</AltitudeMeters>
            <DistanceMeters>NAN</DistanceMeters>
          </Trackpoint>
          <Trackpoint>
            <Time>2019-08-01T10:52:23.000Z</Time>
            <Position>
              <LatitudeDegrees>40.59733637608587741851806640625</LatitudeDegrees>
              <LongitudeDegrees>-4.01671051047742366790771484375</LongitudeDegrees>
            </Position>
            <AltitudeMeters>869.4000244140625</AltitudeMeters>
            <DistanceMeters>NAN</DistanceMeters>
          </Trackpoint>
          <Trackpoint>
            <Time>2019-08-01T10:52:24.000Z</Time>
            <Position>
              <LatitudeDegrees>40.59740225784480571746826171875</LatitudeDegrees>
              <LongitudeDegrees>-4.01677471585571765899658203125</LongitudeDegrees>
            </Position>
            <AltitudeMeters>869.4000244140625</AltitudeMeters>
            <DistanceMeters>NAN</DistanceMeters>
          </Trackpoint>
          <Trackpoint>
            <Time>2019-08-01T10:52:25.000Z</Time>
            <Position>
              <LatitudeDegrees>40.5974682234227657318115234375</LatitudeDegrees>
              <LongitudeDegrees>-4.01683942414820194244384765625</LongitudeDegrees>
            </Position>
            <AltitudeMeters>869.4000244140625</AltitudeMeters>
            <DistanceMeters>NAN</DistanceMeters>
          </Trackpoint>
          <Trackpoint>
            <Time>2019-08-01T10:52:26.000Z</Time>
            <Position>
              <LatitudeDegrees>40.5975342728197574615478515625</LatitudeDegrees>
              <LongitudeDegrees>-4.01690396480262279510498046875</LongitudeDegrees>
            </Position>
            <AltitudeMeters>869.4000244140625</AltitudeMeters>
            <DistanceMeters>NAN</DistanceMeters>
          </Trackpoint>
          <Trackpoint>
            <Time>2019-08-01T10:52:27.000Z</Time>
            <Position>
              <LatitudeDegrees>40.5975996516644954681396484375</LatitudeDegrees>
              <LongitudeDegrees>-4.01696808636188507080078125</LongitudeDegrees>
            </Position>
            <AltitudeMeters>869.4000244140625</AltitudeMeters>
            <DistanceMeters>NAN</DistanceMeters>
          </Trackpoint>
          <Trackpoint>
            <Time>2019-08-01T10:52:29.000Z</Time>
            <Position>
              <LatitudeDegrees>40.59772948734462261199951171875</LatitudeDegrees>
              <LongitudeDegrees>-4.017095826566219329833984375</LongitudeDegrees>
            </Position>
            <AltitudeMeters>869.4000244140625</AltitudeMeters>
            <DistanceMeters>NAN</DistanceMeters>
          </Trackpoint>
          <Trackpoint>
            <Time>2019-08-01T10:52:30.000Z</Time>
            <Position>
              <LatitudeDegrees>40.59779419563710689544677734375</LatitudeDegrees>
              <LongitudeDegrees>-4.01715986430644989013671875</LongitudeDegrees>
            </Position>
            <AltitudeMeters>869.4000244140625</AltitudeMeters>
            <DistanceMeters>NAN</DistanceMeters>
          </Trackpoint>
          <Trackpoint>
            <Time>2019-08-01T10:52:31.000Z</Time>
            <Position>
              <LatitudeDegrees>40.59785907156765460968017578125</LatitudeDegrees>
              <LongitudeDegrees>-4.0172244049608707427978515625</LongitudeDegrees>
            </Position>
            <AltitudeMeters>869.4000244140625</AltitudeMeters>
            <DistanceMeters>NAN</DistanceMeters>
          </Trackpoint>
          <Trackpoint>
            <Time>2019-08-01T10:52:32.000Z</Time>
            <Position>
              <LatitudeDegrees>40.59792394749820232391357421875</LatitudeDegrees>
              <LongitudeDegrees>-4.017288275063037872314453125</LongitudeDegrees>
            </Position>
            <AltitudeMeters>869.4000244140625</AltitudeMeters>
            <DistanceMeters>NAN</DistanceMeters>
          </Trackpoint>
          <Trackpoint>
            <Time>2019-08-01T10:52:33.000Z</Time>
            <Position>
              <LatitudeDegrees>40.5979889072477817535400390625</LatitudeDegrees>
              <LongitudeDegrees>-4.0173514746129512786865234375</LongitudeDegrees>
            </Position>
            <AltitudeMeters>869.5999755859375</AltitudeMeters>
            <DistanceMeters>NAN</DistanceMeters>
          </Trackpoint>
          <Trackpoint>
            <Time>2019-08-01T10:52:34.000Z</Time>
            <Position>
              <LatitudeDegrees>40.5980537831783294677734375</LatitudeDegrees>
              <LongitudeDegrees>-4.01741408742964267730712890625</LongitudeDegrees>
            </Position>
            <AltitudeMeters>869.5999755859375</AltitudeMeters>
            <DistanceMeters>NAN</DistanceMeters>
          </Trackpoint>
          <Trackpoint>
            <Time>2019-08-01T10:52:35.000Z</Time>
            <Position>
              <LatitudeDegrees>40.5981193296611309051513671875</LatitudeDegrees>
              <LongitudeDegrees>-4.017477370798587799072265625</LongitudeDegrees>
            </Position>
            <AltitudeMeters>869.5999755859375</AltitudeMeters>
            <DistanceMeters>NAN</DistanceMeters>
          </Trackpoint>
          <Trackpoint>
            <Time>2019-08-01T10:52:36.000Z</Time>
            <Position>
              <LatitudeDegrees>40.59818529523909091949462890625</LatitudeDegrees>
              <LongitudeDegrees>-4.0175400674343109130859375</LongitudeDegrees>
            </Position>
            <AltitudeMeters>869.5999755859375</AltitudeMeters>
            <DistanceMeters>NAN</DistanceMeters>
          </Trackpoint>
          <Trackpoint>
            <Time>2019-08-01T10:52:37.000Z</Time>
            <Position>
              <LatitudeDegrees>40.5982507579028606414794921875</LatitudeDegrees>
              <LongitudeDegrees>-4.0176029317080974578857421875</LongitudeDegrees>
            </Position>
            <AltitudeMeters>869.5999755859375</AltitudeMeters>
            <DistanceMeters>NAN</DistanceMeters>
          </Trackpoint>
          <Trackpoint>
            <Time>2019-08-01T10:52:38.000Z</Time>
            <Position>
              <LatitudeDegrees>40.598316304385662078857421875</LatitudeDegrees>
              <LongitudeDegrees>-4.017666466534137725830078125</LongitudeDegrees>
            </Position>
            <AltitudeMeters>869.5999755859375</AltitudeMeters>
            <DistanceMeters>NAN</DistanceMeters>
          </Trackpoint>
          <Trackpoint>
            <Time>2019-08-01T10:52:39.000Z</Time>
            <Position>
              <LatitudeDegrees>40.59838226996362209320068359375</LatitudeDegrees>
              <LongitudeDegrees>-4.01773042045533657073974609375</LongitudeDegrees>
            </Position>
            <AltitudeMeters>869.5999755859375</AltitudeMeters>
            <DistanceMeters>NAN</DistanceMeters>
          </Trackpoint>
          <Trackpoint>
            <Time>2019-08-01T10:52:40.000Z</Time>
            <Position>
              <LatitudeDegrees>40.598447732627391815185546875</LatitudeDegrees>
              <LongitudeDegrees>-4.01779227890074253082275390625</LongitudeDegrees>
            </Position>
            <AltitudeMeters>869.79998779296875</AltitudeMeters>
            <DistanceMeters>NAN</DistanceMeters>
          </Trackpoint>
          <Trackpoint>
            <Time>2019-08-01T10:52:41.000Z</Time>
            <Position>
              <LatitudeDegrees>40.598513446748256683349609375</LatitudeDegrees>
              <LongitudeDegrees>-4.01785497553646564483642578125</LongitudeDegrees>
            </Position>
            <AltitudeMeters>869.79998779296875</AltitudeMeters>
            <DistanceMeters>NAN</DistanceMeters>
          </Trackpoint>
          <Trackpoint>
            <Time>2019-08-01T10:52:42.000Z</Time>
            <Position>
              <LatitudeDegrees>40.59857823885977268218994140625</LatitudeDegrees>
              <LongitudeDegrees>-4.017919264733791351318359375</LongitudeDegrees>
            </Position>
            <AltitudeMeters>869.79998779296875</AltitudeMeters>
            <DistanceMeters>NAN</DistanceMeters>
          </Trackpoint>
          <Trackpoint>
            <Time>2019-08-01T10:52:44.000Z</Time>
            <Position>
              <LatitudeDegrees>40.59870664961636066436767578125</LatitudeDegrees>
              <LongitudeDegrees>-4.018048010766506195068359375</LongitudeDegrees>
            </Position>
            <AltitudeMeters>869.79998779296875</AltitudeMeters>
            <DistanceMeters>NAN</DistanceMeters>
          </Trackpoint>
          <Trackpoint>
            <Time>2019-08-01T10:52:45.000Z</Time>
            <Position>
              <LatitudeDegrees>40.5987717770040035247802734375</LatitudeDegrees>
              <LongitudeDegrees>-4.0181112103164196014404296875</LongitudeDegrees>
            </Position>
            <AltitudeMeters>869.79998779296875</AltitudeMeters>
            <DistanceMeters>NAN</DistanceMeters>
          </Trackpoint>
          <Trackpoint>
            <Time>2019-08-01T10:52:46.000Z</Time>
            <Position>
              <LatitudeDegrees>40.5988368205726146697998046875</LatitudeDegrees>
              <LongitudeDegrees>-4.01817373931407928466796875</LongitudeDegrees>
            </Position>
            <AltitudeMeters>869.79998779296875</AltitudeMeters>
            <DistanceMeters>NAN</DistanceMeters>
          </Trackpoint>
          <Trackpoint>
            <Time>2019-08-01T10:52:47.000Z</Time>
            <Position>
              <LatitudeDegrees>40.59890203177928924560546875</LatitudeDegrees>
              <LongitudeDegrees>-4.01823651976883411407470703125</LongitudeDegrees>
            </Position>
            <AltitudeMeters>869.79998779296875</AltitudeMeters>
            <DistanceMeters>NAN</DistanceMeters>
          </Trackpoint>
          <Trackpoint>
            <Time>2019-08-01T10:52:48.000Z</Time>
            <Position>
              <LatitudeDegrees>40.59896715916693210601806640625</LatitudeDegrees>
              <LongitudeDegrees>-4.0182989649474620819091796875</LongitudeDegrees>
            </Position>
            <AltitudeMeters>870</AltitudeMeters>
            <DistanceMeters>NAN</DistanceMeters>
          </Trackpoint>
          <Trackpoint>
            <Time>2019-08-01T10:52:49.000Z</Time>
            <Position>
              <LatitudeDegrees>40.599032454192638397216796875</LatitudeDegrees>
              <LongitudeDegrees>-4.01836015284061431884765625</LongitudeDegrees>
            </Position>
            <AltitudeMeters>870.20001220703125</AltitudeMeters>
            <DistanceMeters>NAN</DistanceMeters>
          </Trackpoint>
          <Trackpoint>
            <Time>2019-08-01T10:52:50.000Z</Time>
            <Position>
              <LatitudeDegrees>40.59909724630415439605712890625</LatitudeDegrees>
              <LongitudeDegrees>-4.01842226274311542510986328125</LongitudeDegrees>
            </Position>
            <AltitudeMeters>870.20001220703125</AltitudeMeters>
            <DistanceMeters>NAN</DistanceMeters>
          </Trackpoint>
          <Trackpoint>
            <Time>2019-08-01T10:52:51.000Z</Time>
            <Position>
              <LatitudeDegrees>40.59916161932051181793212890625</LatitudeDegrees>
              <LongitudeDegrees>-4.01848529465496540069580078125</LongitudeDegrees>
            </Position>
            <AltitudeMeters>870.4000244140625</AltitudeMeters>
            <DistanceMeters>NAN</DistanceMeters>
          </Trackpoint>
          <Trackpoint>
            <Time>2019-08-01T10:52:52.000Z</Time>
            <Position>
              <LatitudeDegrees>40.59922599233686923980712890625</LatitudeDegrees>
              <LongitudeDegrees>-4.01854866184294223785400390625</LongitudeDegrees>
            </Position>
            <AltitudeMeters>870.4000244140625</AltitudeMeters>
            <DistanceMeters>NAN</DistanceMeters>
          </Trackpoint>
          <Trackpoint>
            <Time>2019-08-01T10:52:53.000Z</Time>
            <Position>
              <LatitudeDegrees>40.59929019771516323089599609375</LatitudeDegrees>
              <LongitudeDegrees>-4.01861253194510936737060546875</LongitudeDegrees>
            </Position>
            <AltitudeMeters>870.5999755859375</AltitudeMeters>
            <DistanceMeters>NAN</DistanceMeters>
          </Trackpoint>
          <Trackpoint>
            <Time>2019-08-01T10:52:54.000Z</Time>
            <Position>
              <LatitudeDegrees>40.599354319274425506591796875</LatitudeDegrees>
              <LongitudeDegrees>-4.0186758153140544891357421875</LongitudeDegrees>
            </Position>
            <AltitudeMeters>870.79998779296875</AltitudeMeters>
            <DistanceMeters>NAN</DistanceMeters>
          </Trackpoint>
          <Trackpoint>
            <Time>2019-08-01T10:52:55.000Z</Time>
            <Position>
              <LatitudeDegrees>40.59941894374787807464599609375</LatitudeDegrees>
              <LongitudeDegrees>-4.01873842813074588775634765625</LongitudeDegrees>
            </Position>
            <AltitudeMeters>870.79998779296875</AltitudeMeters>
            <DistanceMeters>NAN</DistanceMeters>
          </Trackpoint>
          <Trackpoint>
            <Time>2019-08-01T10:52:56.000Z</Time>
            <Position>
              <LatitudeDegrees>40.59948281385004520416259765625</LatitudeDegrees>
              <LongitudeDegrees>-4.01880112476646900177001953125</LongitudeDegrees>
            </Position>
            <AltitudeMeters>870.79998779296875</AltitudeMeters>
            <DistanceMeters>NAN</DistanceMeters>
          </Trackpoint>
          <Trackpoint>
            <Time>2019-08-01T10:52:57.000Z</Time>
            <Position>
              <LatitudeDegrees>40.5995466001331806182861328125</LatitudeDegrees>
              <LongitudeDegrees>-4.01886365376412868499755859375</LongitudeDegrees>
            </Position>
            <AltitudeMeters>871</AltitudeMeters>
            <DistanceMeters>NAN</DistanceMeters>
          </Trackpoint>
          <Trackpoint>
            <Time>2019-08-01T10:52:58.000Z</Time>
            <Position>
              <LatitudeDegrees>40.5996106378734111785888671875</LatitudeDegrees>
              <LongitudeDegrees>-4.018926434218883514404296875</LongitudeDegrees>
            </Position>
            <AltitudeMeters>871.20001220703125</AltitudeMeters>
            <DistanceMeters>NAN</DistanceMeters>
          </Trackpoint>
          <Trackpoint>
            <Time>2019-08-01T10:52:59.000Z</Time>
            <Position>
              <LatitudeDegrees>40.59967492707073688507080078125</LatitudeDegrees>
              <LongitudeDegrees>-4.018989466130733489990234375</LongitudeDegrees>
            </Position>
            <AltitudeMeters>871</AltitudeMeters>
            <DistanceMeters>NAN</DistanceMeters>
          </Trackpoint>
          <Trackpoint>
            <Time>2019-08-01T10:53:00.000Z</Time>
            <Position>
              <LatitudeDegrees>40.59973997063934803009033203125</LatitudeDegrees>
              <LongitudeDegrees>-4.019053168594837188720703125</LongitudeDegrees>
            </Position>
            <AltitudeMeters>871</AltitudeMeters>
            <DistanceMeters>NAN</DistanceMeters>
          </Trackpoint>
          <Trackpoint>
            <Time>2019-08-01T10:53:01.000Z</Time>
            <Position>
              <LatitudeDegrees>40.59980602003633975982666015625</LatitudeDegrees>
              <LongitudeDegrees>-4.0191173739731311798095703125</LongitudeDegrees>
            </Position>
            <AltitudeMeters>871.20001220703125</AltitudeMeters>
            <DistanceMeters>NAN</DistanceMeters>
          </Trackpoint>
          <Trackpoint>
            <Time>2019-08-01T10:53:02.000Z</Time>
            <Position>
              <LatitudeDegrees>40.59987257234752178192138671875</LatitudeDegrees>
              <LongitudeDegrees>-4.01918199844658374786376953125</LongitudeDegrees>
            </Position>
            <AltitudeMeters>871.20001220703125</AltitudeMeters>
            <DistanceMeters>NAN</DistanceMeters>
          </Trackpoint>
          <Trackpoint>
            <Time>2019-08-01T10:53:03.000Z</Time>
            <Position>
              <LatitudeDegrees>40.59993945993483066558837890625</LatitudeDegrees>
              <LongitudeDegrees>-4.019246287643909454345703125</LongitudeDegrees>
            </Position>
            <AltitudeMeters>871.20001220703125</AltitudeMeters>
            <DistanceMeters>NAN</DistanceMeters>
          </Trackpoint>
          <Trackpoint>
            <Time>2019-08-01T10:53:04.000Z</Time>
            <Position>
              <LatitudeDegrees>40.6000065989792346954345703125</LatitudeDegrees>
              <LongitudeDegrees>-4.0193103253841400146484375</LongitudeDegrees>
            </Position>
            <AltitudeMeters>871.20001220703125</AltitudeMeters>
            <DistanceMeters>NAN</DistanceMeters>
          </Trackpoint>
          <Trackpoint>
            <Time>2019-08-01T10:53:05.000Z</Time>
            <Position>
              <LatitudeDegrees>40.6000739894807338714599609375</LatitudeDegrees>
              <LongitudeDegrees>-4.0193752013146877288818359375</LongitudeDegrees>
            </Position>
            <AltitudeMeters>871.20001220703125</AltitudeMeters>
            <DistanceMeters>NAN</DistanceMeters>
          </Trackpoint>
          <Trackpoint>
            <Time>2019-08-01T10:53:07.000Z</Time>
            <Position>
              <LatitudeDegrees>40.60021036304533481597900390625</LatitudeDegrees>
              <LongitudeDegrees>-4.01950235478579998016357421875</LongitudeDegrees>
            </Position>
            <AltitudeMeters>871.20001220703125</AltitudeMeters>
            <DistanceMeters>NAN</DistanceMeters>
          </Trackpoint>
          <Trackpoint>
            <Time>2019-08-01T10:53:08.000Z</Time>
            <Position>
              <LatitudeDegrees>40.60027859173715114593505859375</LatitudeDegrees>
              <LongitudeDegrees>-4.01956505142152309417724609375</LongitudeDegrees>
            </Position>
            <AltitudeMeters>871.4000244140625</AltitudeMeters>
            <DistanceMeters>NAN</DistanceMeters>
          </Trackpoint>
          <Trackpoint>
            <Time>2019-08-01T10:53:09.000Z</Time>
            <Position>
              <LatitudeDegrees>40.600348412990570068359375</LatitudeDegrees>
              <LongitudeDegrees>-4.0196249820291996002197265625</LongitudeDegrees>
            </Position>
            <AltitudeMeters>871.4000244140625</AltitudeMeters>
            <DistanceMeters>NAN</DistanceMeters>
          </Trackpoint>
          <Trackpoint>
            <Time>2019-08-01T10:53:10.000Z</Time>
            <Position>
              <LatitudeDegrees>40.60042007826268672943115234375</LatitudeDegrees>
              <LongitudeDegrees>-4.0196831524372100830078125</LongitudeDegrees>
            </Position>
            <AltitudeMeters>871.4000244140625</AltitudeMeters>
            <DistanceMeters>NAN</DistanceMeters>
          </Trackpoint>
          <Trackpoint>
            <Time>2019-08-01T10:53:12.000Z</Time>
            <Position>
              <LatitudeDegrees>40.6005665101110935211181640625</LatitudeDegrees>
              <LongitudeDegrees>-4.01979052461683750152587890625</LongitudeDegrees>
            </Position>
            <AltitudeMeters>871.4000244140625</AltitudeMeters>
            <DistanceMeters>NAN</DistanceMeters>
          </Trackpoint>
          <Trackpoint>
            <Time>2019-08-01T10:53:13.000Z</Time>
            <Position>
              <LatitudeDegrees>40.60064203105866909027099609375</LatitudeDegrees>
              <LongitudeDegrees>-4.0198382176458835601806640625</LongitudeDegrees>
            </Position>
            <AltitudeMeters>871.4000244140625</AltitudeMeters>
            <DistanceMeters>NAN</DistanceMeters>
          </Trackpoint>
          <Trackpoint>
            <Time>2019-08-01T10:53:14.000Z</Time>
            <Position>
              <LatitudeDegrees>40.6007187254726886749267578125</LatitudeDegrees>
              <LongitudeDegrees>-4.01988071389496326446533203125</LongitudeDegrees>
            </Position>
            <AltitudeMeters>871.4000244140625</AltitudeMeters>
            <DistanceMeters>NAN</DistanceMeters>
          </Trackpoint>
          <Trackpoint>
            <Time>2019-08-01T10:53:15.000Z</Time>
            <Position>
              <LatitudeDegrees>40.60079558752477169036865234375</LatitudeDegrees>
              <LongitudeDegrees>-4.019921533763408660888671875</LongitudeDegrees>
            </Position>
            <AltitudeMeters>871.4000244140625</AltitudeMeters>
            <DistanceMeters>NAN</DistanceMeters>
          </Trackpoint>
          <Trackpoint>
            <Time>2019-08-01T10:53:16.000Z</Time>
            <Position>
              <LatitudeDegrees>40.60087219811975955963134765625</LatitudeDegrees>
              <LongitudeDegrees>-4.01995967142283916473388671875</LongitudeDegrees>
            </Position>
            <AltitudeMeters>871.4000244140625</AltitudeMeters>
            <DistanceMeters>NAN</DistanceMeters>
          </Trackpoint>
          <Trackpoint>
            <Time>2019-08-01T10:53:17.000Z</Time>
            <Position>
              <LatitudeDegrees>40.6009487248957157135009765625</LatitudeDegrees>
              <LongitudeDegrees>-4.01999437250196933746337890625</LongitudeDegrees>
            </Position>
            <AltitudeMeters>871.4000244140625</AltitudeMeters>
            <DistanceMeters>NAN</DistanceMeters>
          </Trackpoint>
          <Trackpoint>
            <Time>2019-08-01T10:53:18.000Z</Time>
            <Position>
              <LatitudeDegrees>40.60102491639554500579833984375</LatitudeDegrees>
              <LongitudeDegrees>-4.0200266428291797637939453125</LongitudeDegrees>
            </Position>
            <AltitudeMeters>871.5999755859375</AltitudeMeters>
            <DistanceMeters>NAN</DistanceMeters>
          </Trackpoint>
          <Trackpoint>
            <Time>2019-08-01T10:53:19.000Z</Time>
            <Position>
              <LatitudeDegrees>40.60110119171440601348876953125</LatitudeDegrees>
              <LongitudeDegrees>-4.02005732059478759765625</LongitudeDegrees>
            </Position>
            <AltitudeMeters>871.5999755859375</AltitudeMeters>
            <DistanceMeters>NAN</DistanceMeters>
          </Trackpoint>
          <Trackpoint>
            <Time>2019-08-01T10:53:20.000Z</Time>
            <Position>
              <LatitudeDegrees>40.60117763467133045196533203125</LatitudeDegrees>
              <LongitudeDegrees>-4.02008481323719024658203125</LongitudeDegrees>
            </Position>
            <AltitudeMeters>871.79998779296875</AltitudeMeters>
            <DistanceMeters>NAN</DistanceMeters>
          </Trackpoint>
          <Trackpoint>
            <Time>2019-08-01T10:53:21.000Z</Time>
            <Position>
              <LatitudeDegrees>40.6012538261711597442626953125</LatitudeDegrees>
              <LongitudeDegrees>-4.02011088095605373382568359375</LongitudeDegrees>
            </Position>
            <AltitudeMeters>871.79998779296875</AltitudeMeters>
            <DistanceMeters>NAN</DistanceMeters>
          </Trackpoint>
          <Trackpoint>
            <Time>2019-08-01T10:53:22.000Z</Time>
            <Position>
              <LatitudeDegrees>40.6013295985758304595947265625</LatitudeDegrees>
              <LongitudeDegrees>-4.02013502083718776702880859375</LongitudeDegrees>
            </Position>
            <AltitudeMeters>871.79998779296875</AltitudeMeters>
            <DistanceMeters>NAN</DistanceMeters>
          </Trackpoint>
          <Trackpoint>
            <Time>2019-08-01T10:53:23.000Z</Time>
            <Position>
              <LatitudeDegrees>40.60140545479953289031982421875</LatitudeDegrees>
              <LongitudeDegrees>-4.020159579813480377197265625</LongitudeDegrees>
            </Position>
            <AltitudeMeters>872</AltitudeMeters>
            <DistanceMeters>NAN</DistanceMeters>
          </Trackpoint>
          <Trackpoint>
            <Time>2019-08-01T10:53:24.000Z</Time>
            <Position>
              <LatitudeDegrees>40.6014811433851718902587890625</LatitudeDegrees>
              <LongitudeDegrees>-4.0201858989894390106201171875</LongitudeDegrees>
            </Position>
            <AltitudeMeters>872</AltitudeMeters>
            <DistanceMeters>NAN</DistanceMeters>
          </Trackpoint>
          <Trackpoint>
            <Time>2019-08-01T10:53:25.000Z</Time>
            <Position>
              <LatitudeDegrees>40.60155632905662059783935546875</LatitudeDegrees>
              <LongitudeDegrees>-4.02021079324185848236083984375</LongitudeDegrees>
            </Position>
            <AltitudeMeters>872</AltitudeMeters>
            <DistanceMeters>NAN</DistanceMeters>
          </Trackpoint>
          <Trackpoint>
            <Time>2019-08-01T10:53:26.000Z</Time>
            <Position>
              <LatitudeDegrees>40.6016310118138790130615234375</LatitudeDegrees>
              <LongitudeDegrees>-4.02023711241781711578369140625</LongitudeDegrees>
            </Position>
            <AltitudeMeters>872.20001220703125</AltitudeMeters>
            <DistanceMeters>NAN</DistanceMeters>
          </Trackpoint>
          <Trackpoint>
            <Time>2019-08-01T10:53:27.000Z</Time>
            <Position>
              <LatitudeDegrees>40.601704604923725128173828125</LatitudeDegrees>
              <LongitudeDegrees>-4.02026183903217315673828125</LongitudeDegrees>
            </Position>
            <AltitudeMeters>872.20001220703125</AltitudeMeters>
            <DistanceMeters>NAN</DistanceMeters>
          </Trackpoint>
          <Trackpoint>
            <Time>2019-08-01T10:53:28.000Z</Time>
            <Position>
              <LatitudeDegrees>40.60177744366228580474853515625</LatitudeDegrees>
              <LongitudeDegrees>-4.0202868171036243438720703125</LongitudeDegrees>
            </Position>
            <AltitudeMeters>872.20001220703125</AltitudeMeters>
            <DistanceMeters>NAN</DistanceMeters>
          </Trackpoint>
          <Trackpoint>
            <Time>2019-08-01T10:53:29.000Z</Time>
            <Position>
              <LatitudeDegrees>40.601849444210529327392578125</LatitudeDegrees>
              <LongitudeDegrees>-4.0203109569847583770751953125</LongitudeDegrees>
            </Position>
            <AltitudeMeters>872.4000244140625</AltitudeMeters>
            <DistanceMeters>NAN</DistanceMeters>
          </Trackpoint>
          <Trackpoint>
            <Time>2019-08-01T10:53:30.000Z</Time>
            <Position>
              <LatitudeDegrees>40.601920187473297119140625</LatitudeDegrees>
              <LongitudeDegrees>-4.02033451013267040252685546875</LongitudeDegrees>
            </Position>
            <AltitudeMeters>872.5999755859375</AltitudeMeters>
            <DistanceMeters>NAN</DistanceMeters>
          </Trackpoint>
          <Trackpoint>
            <Time>2019-08-01T10:53:31.000Z</Time>
            <Position>
              <LatitudeDegrees>40.6019900925457477569580078125</LatitudeDegrees>
              <LongitudeDegrees>-4.0203582309186458587646484375</LongitudeDegrees>
            </Position>
            <AltitudeMeters>872.5999755859375</AltitudeMeters>
            <DistanceMeters>NAN</DistanceMeters>
          </Trackpoint>
          <Trackpoint>
            <Time>2019-08-01T10:53:32.000Z</Time>
            <Position>
              <LatitudeDegrees>40.602059997618198394775390625</LatitudeDegrees>
              <LongitudeDegrees>-4.02038211934268474578857421875</LongitudeDegrees>
            </Position>
            <AltitudeMeters>872.5999755859375</AltitudeMeters>
            <DistanceMeters>NAN</DistanceMeters>
          </Trackpoint>
          <Trackpoint>
            <Time>2019-08-01T10:53:34.000Z</Time>
            <Position>
              <LatitudeDegrees>40.6021999754011631011962890625</LatitudeDegrees>
              <LongitudeDegrees>-4.02043006382882595062255859375</LongitudeDegrees>
            </Position>
            <AltitudeMeters>872.79998779296875</AltitudeMeters>
            <DistanceMeters>NAN</DistanceMeters>
          </Trackpoint>
          <Trackpoint>
            <Time>2019-08-01T10:53:35.000Z</Time>
            <Position>
              <LatitudeDegrees>40.60227063484489917755126953125</LatitudeDegrees>
              <LongitudeDegrees>-4.02045370079576969146728515625</LongitudeDegrees>
            </Position>
            <AltitudeMeters>872.79998779296875</AltitudeMeters>
            <DistanceMeters>NAN</DistanceMeters>
          </Trackpoint>
          <Trackpoint>
            <Time>2019-08-01T10:53:36.000Z</Time>
            <Position>
              <LatitudeDegrees>40.60234104283154010772705078125</LatitudeDegrees>
              <LongitudeDegrees>-4.0204782597720623016357421875</LongitudeDegrees>
            </Position>
            <AltitudeMeters>872.79998779296875</AltitudeMeters>
            <DistanceMeters>NAN</DistanceMeters>
          </Trackpoint>
          <Trackpoint>
            <Time>2019-08-01T10:53:37.000Z</Time>
            <Position>
              <LatitudeDegrees>40.6024115346372127532958984375</LatitudeDegrees>
              <LongitudeDegrees>-4.0205012261867523193359375</LongitudeDegrees>
            </Position>
            <AltitudeMeters>873</AltitudeMeters>
            <DistanceMeters>NAN</DistanceMeters>
          </Trackpoint>
          <Trackpoint>
            <Time>2019-08-01T10:53:38.000Z</Time>
            <Position>
              <LatitudeDegrees>40.60248152352869510650634765625</LatitudeDegrees>
              <LongitudeDegrees>-4.020525030791759490966796875</LongitudeDegrees>
            </Position>
            <AltitudeMeters>873.20001220703125</AltitudeMeters>
            <DistanceMeters>NAN</DistanceMeters>
          </Trackpoint>
          <Trackpoint>
            <Time>2019-08-01T10:53:39.000Z</Time>
            <Position>
              <LatitudeDegrees>40.60255159623920917510986328125</LatitudeDegrees>
              <LongitudeDegrees>-4.02054724283516407012939453125</LongitudeDegrees>
            </Position>
            <AltitudeMeters>873.20001220703125</AltitudeMeters>
            <DistanceMeters>NAN</DistanceMeters>
          </Trackpoint>
          <Trackpoint>
            <Time>2019-08-01T10:53:40.000Z</Time>
            <Position>
              <LatitudeDegrees>40.60262225568294525146484375</LatitudeDegrees>
              <LongitudeDegrees>-4.02057004161179065704345703125</LongitudeDegrees>
            </Position>
            <AltitudeMeters>873.4000244140625</AltitudeMeters>
            <DistanceMeters>NAN</DistanceMeters>
          </Trackpoint>
          <Trackpoint>
            <Time>2019-08-01T10:53:42.000Z</Time>
            <Position>
              <LatitudeDegrees>40.6027622334659099578857421875</LatitudeDegrees>
              <LongitudeDegrees>-4.020614884793758392333984375</LongitudeDegrees>
            </Position>
            <AltitudeMeters>874.20001220703125</AltitudeMeters>
            <DistanceMeters>NAN</DistanceMeters>
          </Trackpoint>
          <Trackpoint>
            <Time>2019-08-01T10:53:43.000Z</Time>
            <Position>
              <LatitudeDegrees>40.6028313003480434417724609375</LatitudeDegrees>
              <LongitudeDegrees>-4.020639359951019287109375</LongitudeDegrees>
            </Position>
            <AltitudeMeters>874.5999755859375</AltitudeMeters>
            <DistanceMeters>NAN</DistanceMeters>
          </Trackpoint>
          <Trackpoint>
            <Time>2019-08-01T10:53:44.000Z</Time>
            <Position>
              <LatitudeDegrees>40.60290078632533550262451171875</LatitudeDegrees>
              <LongitudeDegrees>-4.02066417038440704345703125</LongitudeDegrees>
            </Position>
            <AltitudeMeters>875</AltitudeMeters>
            <DistanceMeters>NAN</DistanceMeters>
          </Trackpoint>
          <Trackpoint>
            <Time>2019-08-01T10:53:45.000Z</Time>
            <Position>
              <LatitudeDegrees>40.60297119431197643280029296875</LatitudeDegrees>
              <LongitudeDegrees>-4.02068638242781162261962890625</LongitudeDegrees>
            </Position>
            <AltitudeMeters>875</AltitudeMeters>
            <DistanceMeters>NAN</DistanceMeters>
          </Trackpoint>
          <Trackpoint>
            <Time>2019-08-01T10:53:46.000Z</Time>
            <Position>
              <LatitudeDegrees>40.60304026119410991668701171875</LatitudeDegrees>
              <LongitudeDegrees>-4.02070884592831134796142578125</LongitudeDegrees>
            </Position>
            <AltitudeMeters>875.20001220703125</AltitudeMeters>
            <DistanceMeters>NAN</DistanceMeters>
          </Trackpoint>
          <Trackpoint>
            <Time>2019-08-01T10:53:47.000Z</Time>
            <Position>
              <LatitudeDegrees>40.60310907661914825439453125</LatitudeDegrees>
              <LongitudeDegrees>-4.02073315344750881195068359375</LongitudeDegrees>
            </Position>
            <AltitudeMeters>875.20001220703125</AltitudeMeters>
            <DistanceMeters>NAN</DistanceMeters>
          </Trackpoint>
          <Trackpoint>
            <Time>2019-08-01T10:53:48.000Z</Time>
            <Position>
              <LatitudeDegrees>40.603177808225154876708984375</LatitudeDegrees>
              <LongitudeDegrees>-4.02075679041445255279541015625</LongitudeDegrees>
            </Position>
            <AltitudeMeters>875.4000244140625</AltitudeMeters>
            <DistanceMeters>NAN</DistanceMeters>
          </Trackpoint>
          <Trackpoint>
            <Time>2019-08-01T10:53:50.000Z</Time>
            <Position>
              <LatitudeDegrees>40.6033161096274852752685546875</LatitudeDegrees>
              <LongitudeDegrees>-4.0208054892718791961669921875</LongitudeDegrees>
            </Position>
            <AltitudeMeters>875.4000244140625</AltitudeMeters>
            <DistanceMeters>NAN</DistanceMeters>
          </Trackpoint>
          <Trackpoint>
            <Time>2019-08-01T10:53:51.000Z</Time>
            <Position>
              <LatitudeDegrees>40.6033848412334918975830078125</LatitudeDegrees>
              <LongitudeDegrees>-4.020830802619457244873046875</LongitudeDegrees>
            </Position>
            <AltitudeMeters>875.5999755859375</AltitudeMeters>
            <DistanceMeters>NAN</DistanceMeters>
          </Trackpoint>
          <Trackpoint>
            <Time>2019-08-01T10:53:52.000Z</Time>
            <Position>
              <LatitudeDegrees>40.603452734649181365966796875</LatitudeDegrees>
              <LongitudeDegrees>-4.02085460722446441650390625</LongitudeDegrees>
            </Position>
            <AltitudeMeters>875.5999755859375</AltitudeMeters>
            <DistanceMeters>NAN</DistanceMeters>
          </Trackpoint>
          <Trackpoint>
            <Time>2019-08-01T10:53:53.000Z</Time>
            <Position>
              <LatitudeDegrees>40.60352104716002941131591796875</LatitudeDegrees>
              <LongitudeDegrees>-4.02087765745818614959716796875</LongitudeDegrees>
            </Position>
            <AltitudeMeters>875.5999755859375</AltitudeMeters>
            <DistanceMeters>NAN</DistanceMeters>
          </Trackpoint>
          <Trackpoint>
            <Time>2019-08-01T10:53:54.000Z</Time>
            <Position>
              <LatitudeDegrees>40.60358910821378231048583984375</LatitudeDegrees>
              <LongitudeDegrees>-4.0209013782441616058349609375</LongitudeDegrees>
            </Position>
            <AltitudeMeters>875.5999755859375</AltitudeMeters>
            <DistanceMeters>NAN</DistanceMeters>
          </Trackpoint>
          <Trackpoint>
            <Time>2019-08-01T10:53:55.000Z</Time>
            <Position>
              <LatitudeDegrees>40.6036574207246303558349609375</LatitudeDegrees>
              <LongitudeDegrees>-4.02092593722045421600341796875</LongitudeDegrees>
            </Position>
            <AltitudeMeters>875.79998779296875</AltitudeMeters>
            <DistanceMeters>NAN</DistanceMeters>
          </Trackpoint>
          <Trackpoint>
            <Time>2019-08-01T10:53:56.000Z</Time>
            <Position>
              <LatitudeDegrees>40.60372606851160526275634765625</LatitudeDegrees>
              <LongitudeDegrees>-4.0209506638348102569580078125</LongitudeDegrees>
            </Position>
            <AltitudeMeters>875.79998779296875</AltitudeMeters>
            <DistanceMeters>NAN</DistanceMeters>
          </Trackpoint>
          <Trackpoint>
            <Time>2019-08-01T10:53:57.000Z</Time>
            <Position>
              <LatitudeDegrees>40.60379530303180217742919921875</LatitudeDegrees>
              <LongitudeDegrees>-4.0209744684398174285888671875</LongitudeDegrees>
            </Position>
            <AltitudeMeters>875.79998779296875</AltitudeMeters>
            <DistanceMeters>NAN</DistanceMeters>
          </Trackpoint>
          <Trackpoint>
            <Time>2019-08-01T10:53:58.000Z</Time>
            <Position>
              <LatitudeDegrees>40.6038632802665233612060546875</LatitudeDegrees>
              <LongitudeDegrees>-4.0209986083209514617919921875</LongitudeDegrees>
            </Position>
            <AltitudeMeters>876</AltitudeMeters>
            <DistanceMeters>NAN</DistanceMeters>
          </Trackpoint>
          <Trackpoint>
            <Time>2019-08-01T10:53:59.000Z</Time>
            <Position>
              <LatitudeDegrees>40.60393117368221282958984375</LatitudeDegrees>
              <LongitudeDegrees>-4.02102316729724407196044921875</LongitudeDegrees>
            </Position>
            <AltitudeMeters>876</AltitudeMeters>
            <DistanceMeters>NAN</DistanceMeters>
          </Trackpoint>
          <Trackpoint>
            <Time>2019-08-01T10:54:00.000Z</Time>
            <Position>
              <LatitudeDegrees>40.60399982146918773651123046875</LatitudeDegrees>
              <LongitudeDegrees>-4.0210458822548389434814453125</LongitudeDegrees>
            </Position>
            <AltitudeMeters>876.20001220703125</AltitudeMeters>
            <DistanceMeters>NAN</DistanceMeters>
          </Trackpoint>
          <Trackpoint>
            <Time>2019-08-01T10:54:01.000Z</Time>
            <Position>
              <LatitudeDegrees>40.60406721197068691253662109375</LatitudeDegrees>
              <LongitudeDegrees>-4.02107345871627330780029296875</LongitudeDegrees>
            </Position>
            <AltitudeMeters>876.20001220703125</AltitudeMeters>
            <DistanceMeters>NAN</DistanceMeters>
          </Trackpoint>
          <Trackpoint>
            <Time>2019-08-01T10:54:02.000Z</Time>
            <Position>
              <LatitudeDegrees>40.60413342900574207305908203125</LatitudeDegrees>
              <LongitudeDegrees>-4.02110162191092967987060546875</LongitudeDegrees>
            </Position>
            <AltitudeMeters>876.20001220703125</AltitudeMeters>
            <DistanceMeters>NAN</DistanceMeters>
          </Trackpoint>
          <Trackpoint>
            <Time>2019-08-01T10:54:03.000Z</Time>
            <Position>
              <LatitudeDegrees>40.6042012386023998260498046875</LatitudeDegrees>
              <LongitudeDegrees>-4.02112727053463459014892578125</LongitudeDegrees>
            </Position>
            <AltitudeMeters>876.4000244140625</AltitudeMeters>
            <DistanceMeters>NAN</DistanceMeters>
          </Trackpoint>
          <Trackpoint>
            <Time>2019-08-01T10:54:04.000Z</Time>
            <Position>
              <LatitudeDegrees>40.60426871292293071746826171875</LatitudeDegrees>
              <LongitudeDegrees>-4.02114906348288059234619140625</LongitudeDegrees>
            </Position>
            <AltitudeMeters>876.4000244140625</AltitudeMeters>
            <DistanceMeters>NAN</DistanceMeters>
          </Trackpoint>
          <Trackpoint>
            <Time>2019-08-01T10:54:05.000Z</Time>
            <Position>
              <LatitudeDegrees>40.60433627106249332427978515625</LatitudeDegrees>
              <LongitudeDegrees>-4.021168760955333709716796875</LongitudeDegrees>
            </Position>
            <AltitudeMeters>876.5999755859375</AltitudeMeters>
            <DistanceMeters>NAN</DistanceMeters>
          </Trackpoint>
          <Trackpoint>
            <Time>2019-08-01T10:54:06.000Z</Time>
            <Position>
              <LatitudeDegrees>40.604404248297214508056640625</LatitudeDegrees>
              <LongitudeDegrees>-4.0211920626461505889892578125</LongitudeDegrees>
            </Position>
            <AltitudeMeters>876.5999755859375</AltitudeMeters>
            <DistanceMeters>NAN</DistanceMeters>
          </Trackpoint>
          <Trackpoint>
            <Time>2019-08-01T10:54:07.000Z</Time>
            <Position>
              <LatitudeDegrees>40.60447205789387226104736328125</LatitudeDegrees>
              <LongitudeDegrees>-4.0212195552885532379150390625</LongitudeDegrees>
            </Position>
            <AltitudeMeters>876.5999755859375</AltitudeMeters>
            <DistanceMeters>NAN</DistanceMeters>
          </Trackpoint>
          <Trackpoint>
            <Time>2019-08-01T10:54:08.000Z</Time>
            <Position>
              <LatitudeDegrees>40.604539699852466583251953125</LatitudeDegrees>
              <LongitudeDegrees>-4.02124620974063873291015625</LongitudeDegrees>
            </Position>
            <AltitudeMeters>876.79998779296875</AltitudeMeters>
            <DistanceMeters>NAN</DistanceMeters>
          </Trackpoint>
          <Trackpoint>
            <Time>2019-08-01T10:54:09.000Z</Time>
            <Position>
              <LatitudeDegrees>40.604539699852466583251953125</LatitudeDegrees>
              <LongitudeDegrees>-4.02124620974063873291015625</LongitudeDegrees>
            </Position>
            <AltitudeMeters>876.79998779296875</AltitudeMeters>
            <DistanceMeters>NAN</DistanceMeters>
          </Trackpoint>
          <Trackpoint>
            <Time>2019-08-01T10:54:10.000Z</Time>
            <Position>
              <LatitudeDegrees>40.60467506758868694305419921875</LatitudeDegrees>
              <LongitudeDegrees>-4.02129650115966796875</LongitudeDegrees>
            </Position>
            <AltitudeMeters>876.79998779296875</AltitudeMeters>
            <DistanceMeters>NAN</DistanceMeters>
          </Trackpoint>
          <Trackpoint>
            <Time>2019-08-01T10:54:11.000Z</Time>
            <Position>
              <LatitudeDegrees>40.60467506758868694305419921875</LatitudeDegrees>
              <LongitudeDegrees>-4.02129650115966796875</LongitudeDegrees>
            </Position>
            <AltitudeMeters>876.79998779296875</AltitudeMeters>
            <DistanceMeters>NAN</DistanceMeters>
          </Trackpoint>
          <Trackpoint>
            <Time>2019-08-01T10:54:12.000Z</Time>
            <Position>
              <LatitudeDegrees>40.60481001622974872589111328125</LatitudeDegrees>
              <LongitudeDegrees>-4.0213419310748577117919921875</LongitudeDegrees>
            </Position>
            <AltitudeMeters>877</AltitudeMeters>
            <DistanceMeters>NAN</DistanceMeters>
          </Trackpoint>
          <Trackpoint>
            <Time>2019-08-01T10:54:13.000Z</Time>
            <Position>
              <LatitudeDegrees>40.60487958602607250213623046875</LatitudeDegrees>
              <LongitudeDegrees>-4.0213657356798648834228515625</LongitudeDegrees>
            </Position>
            <AltitudeMeters>877.20001220703125</AltitudeMeters>
            <DistanceMeters>NAN</DistanceMeters>
          </Trackpoint>
          <Trackpoint>
            <Time>2019-08-01T10:54:14.000Z</Time>
            <Position>
              <LatitudeDegrees>40.604949407279491424560546875</LatitudeDegrees>
              <LongitudeDegrees>-4.02138995938003063201904296875</LongitudeDegrees>
            </Position>
            <AltitudeMeters>877.20001220703125</AltitudeMeters>
            <DistanceMeters>NAN</DistanceMeters>
          </Trackpoint>
          <Trackpoint>
            <Time>2019-08-01T10:54:15.000Z</Time>
            <Position>
              <LatitudeDegrees>40.6050194799900054931640625</LatitudeDegrees>
              <LongitudeDegrees>-4.0214120037853717803955078125</LongitudeDegrees>
            </Position>
            <AltitudeMeters>877.4000244140625</AltitudeMeters>
            <DistanceMeters>NAN</DistanceMeters>
          </Trackpoint>
          <Trackpoint>
            <Time>2019-08-01T10:54:16.000Z</Time>
            <Position>
              <LatitudeDegrees>40.60508997179567813873291015625</LatitudeDegrees>
              <LongitudeDegrees>-4.021433629095554351806640625</LongitudeDegrees>
            </Position>
            <AltitudeMeters>877.4000244140625</AltitudeMeters>
            <DistanceMeters>NAN</DistanceMeters>
          </Trackpoint>
          <Trackpoint>
            <Time>2019-08-01T10:54:17.000Z</Time>
            <Position>
              <LatitudeDegrees>40.60516155324876308441162109375</LatitudeDegrees>
              <LongitudeDegrees>-4.02145751751959323883056640625</LongitudeDegrees>
            </Position>
            <AltitudeMeters>877.5999755859375</AltitudeMeters>
            <DistanceMeters>NAN</DistanceMeters>
          </Trackpoint>
          <Trackpoint>
            <Time>2019-08-01T10:54:18.000Z</Time>
            <Position>
              <LatitudeDegrees>40.60523363761603832244873046875</LatitudeDegrees>
              <LongitudeDegrees>-4.02148467488586902618408203125</LongitudeDegrees>
            </Position>
            <AltitudeMeters>877.79998779296875</AltitudeMeters>
            <DistanceMeters>NAN</DistanceMeters>
          </Trackpoint>
          <Trackpoint>
            <Time>2019-08-01T10:54:19.000Z</Time>
            <Position>
              <LatitudeDegrees>40.60523363761603832244873046875</LatitudeDegrees>
              <LongitudeDegrees>-4.02148467488586902618408203125</LongitudeDegrees>
            </Position>
            <AltitudeMeters>877.79998779296875</AltitudeMeters>
            <DistanceMeters>NAN</DistanceMeters>
          </Trackpoint>
          <Trackpoint>
            <Time>2019-08-01T10:54:20.000Z</Time>
            <Position>
              <LatitudeDegrees>40.60537545941770076751708984375</LatitudeDegrees>
              <LongitudeDegrees>-4.021534882485866546630859375</LongitudeDegrees>
            </Position>
            <AltitudeMeters>878</AltitudeMeters>
            <DistanceMeters>NAN</DistanceMeters>
          </Trackpoint>
          <Trackpoint>
            <Time>2019-08-01T10:54:21.000Z</Time>
            <Position>
              <LatitudeDegrees>40.605446286499500274658203125</LatitudeDegrees>
              <LongitudeDegrees>-4.02156044729053974151611328125</LongitudeDegrees>
            </Position>
            <AltitudeMeters>878.20001220703125</AltitudeMeters>
            <DistanceMeters>NAN</DistanceMeters>
          </Trackpoint>
          <Trackpoint>
            <Time>2019-08-01T10:54:22.000Z</Time>
            <Position>
              <LatitudeDegrees>40.60551610775291919708251953125</LatitudeDegrees>
              <LongitudeDegrees>-4.021583832800388336181640625</LongitudeDegrees>
            </Position>
            <AltitudeMeters>878.4000244140625</AltitudeMeters>
            <DistanceMeters>NAN</DistanceMeters>
          </Trackpoint>
          <Trackpoint>
            <Time>2019-08-01T10:54:23.000Z</Time>
            <Position>
              <LatitudeDegrees>40.60558567754924297332763671875</LatitudeDegrees>
              <LongitudeDegrees>-4.0216091461479663848876953125</LongitudeDegrees>
            </Position>
            <AltitudeMeters>878.79998779296875</AltitudeMeters>
            <DistanceMeters>NAN</DistanceMeters>
          </Trackpoint>
          <Trackpoint>
            <Time>2019-08-01T10:54:24.000Z</Time>
            <Position>
              <LatitudeDegrees>40.60565558262169361114501953125</LatitudeDegrees>
              <LongitudeDegrees>-4.02163387276232242584228515625</LongitudeDegrees>
            </Position>
            <AltitudeMeters>879</AltitudeMeters>
            <DistanceMeters>NAN</DistanceMeters>
          </Trackpoint>
          <Trackpoint>
            <Time>2019-08-01T10:54:25.000Z</Time>
            <Position>
              <LatitudeDegrees>40.60572582297027111053466796875</LatitudeDegrees>
              <LongitudeDegrees>-4.0216591022908687591552734375</LongitudeDegrees>
            </Position>
            <AltitudeMeters>879</AltitudeMeters>
            <DistanceMeters>NAN</DistanceMeters>
          </Trackpoint>
          <Trackpoint>
            <Time>2019-08-01T10:54:26.000Z</Time>
            <Position>
              <LatitudeDegrees>40.6057958118617534637451171875</LatitudeDegrees>
              <LongitudeDegrees>-4.0216839127242565155029296875</LongitudeDegrees>
            </Position>
            <AltitudeMeters>879.20001220703125</AltitudeMeters>
            <DistanceMeters>NAN</DistanceMeters>
          </Trackpoint>
          <Trackpoint>
            <Time>2019-08-01T10:54:27.000Z</Time>
            <Position>
              <LatitudeDegrees>40.60586638748645782470703125</LatitudeDegrees>
              <LongitudeDegrees>-4.02170947752892971038818359375</LongitudeDegrees>
            </Position>
            <AltitudeMeters>879.20001220703125</AltitudeMeters>
            <DistanceMeters>NAN</DistanceMeters>
          </Trackpoint>
          <Trackpoint>
            <Time>2019-08-01T10:54:28.000Z</Time>
            <Position>
              <LatitudeDegrees>40.60593587346374988555908203125</LatitudeDegrees>
              <LongitudeDegrees>-4.0217348746955394744873046875</LongitudeDegrees>
            </Position>
            <AltitudeMeters>879.4000244140625</AltitudeMeters>
            <DistanceMeters>NAN</DistanceMeters>
          </Trackpoint>
          <Trackpoint>
            <Time>2019-08-01T10:54:29.000Z</Time>
            <Position>
              <LatitudeDegrees>40.60600628145039081573486328125</LatitudeDegrees>
              <LongitudeDegrees>-4.0217593498528003692626953125</LongitudeDegrees>
            </Position>
            <AltitudeMeters>879.4000244140625</AltitudeMeters>
            <DistanceMeters>NAN</DistanceMeters>
          </Trackpoint>
          <Trackpoint>
            <Time>2019-08-01T10:54:30.000Z</Time>
            <Position>
              <LatitudeDegrees>40.60607752762734889984130859375</LatitudeDegrees>
              <LongitudeDegrees>-4.02178256772458553314208984375</LongitudeDegrees>
            </Position>
            <AltitudeMeters>879.4000244140625</AltitudeMeters>
            <DistanceMeters>NAN</DistanceMeters>
          </Trackpoint>
          <Trackpoint>
            <Time>2019-08-01T10:54:31.000Z</Time>
            <Position>
              <LatitudeDegrees>40.6061485223472118377685546875</LatitudeDegrees>
              <LongitudeDegrees>-4.02180679142475128173828125</LongitudeDegrees>
            </Position>
            <AltitudeMeters>879.4000244140625</AltitudeMeters>
            <DistanceMeters>NAN</DistanceMeters>
          </Trackpoint>
          <Trackpoint>
            <Time>2019-08-01T10:54:32.000Z</Time>
            <Position>
              <LatitudeDegrees>40.6062189303338527679443359375</LatitudeDegrees>
              <LongitudeDegrees>-4.02183017693459987640380859375</LongitudeDegrees>
            </Position>
            <AltitudeMeters>879.79998779296875</AltitudeMeters>
            <DistanceMeters>NAN</DistanceMeters>
          </Trackpoint>
          <Trackpoint>
            <Time>2019-08-01T10:54:33.000Z</Time>
            <Position>
              <LatitudeDegrees>40.6062900088727474212646484375</LatitudeDegrees>
              <LongitudeDegrees>-4.0218532271683216094970703125</LongitudeDegrees>
            </Position>
            <AltitudeMeters>880.20001220703125</AltitudeMeters>
            <DistanceMeters>NAN</DistanceMeters>
          </Trackpoint>
          <Trackpoint>
            <Time>2019-08-01T10:54:34.000Z</Time>
            <Position>
              <LatitudeDegrees>40.60636133886873722076416015625</LatitudeDegrees>
              <LongitudeDegrees>-4.02187812142074108123779296875</LongitudeDegrees>
            </Position>
            <AltitudeMeters>880.4000244140625</AltitudeMeters>
            <DistanceMeters>NAN</DistanceMeters>
          </Trackpoint>
          <Trackpoint>
            <Time>2019-08-01T10:54:35.000Z</Time>
            <Position>
              <LatitudeDegrees>40.60643308795988559722900390625</LatitudeDegrees>
              <LongitudeDegrees>-4.02190242893993854522705078125</LongitudeDegrees>
            </Position>
            <AltitudeMeters>880.4000244140625</AltitudeMeters>
            <DistanceMeters>NAN</DistanceMeters>
          </Trackpoint>
          <Trackpoint>
            <Time>2019-08-01T10:54:36.000Z</Time>
            <Position>
              <LatitudeDegrees>40.60650500468909740447998046875</LatitudeDegrees>
              <LongitudeDegrees>-4.021925143897533416748046875</LongitudeDegrees>
            </Position>
            <AltitudeMeters>880.79998779296875</AltitudeMeters>
            <DistanceMeters>NAN</DistanceMeters>
          </Trackpoint>
          <Trackpoint>
            <Time>2019-08-01T10:54:37.000Z</Time>
            <Position>
              <LatitudeDegrees>40.60650500468909740447998046875</LatitudeDegrees>
              <LongitudeDegrees>-4.021925143897533416748046875</LongitudeDegrees>
            </Position>
            <AltitudeMeters>881</AltitudeMeters>
            <DistanceMeters>NAN</DistanceMeters>
          </Trackpoint>
          <Trackpoint>
            <Time>2019-08-01T10:54:38.000Z</Time>
            <Position>
              <LatitudeDegrees>40.60664732940495014190673828125</LatitudeDegrees>
              <LongitudeDegrees>-4.0219722501933574676513671875</LongitudeDegrees>
            </Position>
            <AltitudeMeters>881.20001220703125</AltitudeMeters>
            <DistanceMeters>NAN</DistanceMeters>
          </Trackpoint>
          <Trackpoint>
            <Time>2019-08-01T10:54:39.000Z</Time>
            <Position>
              <LatitudeDegrees>40.6067168153822422027587890625</LatitudeDegrees>
              <LongitudeDegrees>-4.02199882082641124725341796875</LongitudeDegrees>
            </Position>
            <AltitudeMeters>881.20001220703125</AltitudeMeters>
            <DistanceMeters>NAN</DistanceMeters>
          </Trackpoint>
          <Trackpoint>
            <Time>2019-08-01T10:54:40.000Z</Time>
            <Position>
              <LatitudeDegrees>40.60678663663566112518310546875</LatitudeDegrees>
              <LongitudeDegrees>-4.02202363125979900360107421875</LongitudeDegrees>
            </Position>
            <AltitudeMeters>881.20001220703125</AltitudeMeters>
            <DistanceMeters>NAN</DistanceMeters>
          </Trackpoint>
          <Trackpoint>
            <Time>2019-08-01T10:54:41.000Z</Time>
            <Position>
              <LatitudeDegrees>40.60685570351779460906982421875</LatitudeDegrees>
              <LongitudeDegrees>-4.02204726822674274444580078125</LongitudeDegrees>
            </Position>
            <AltitudeMeters>881.4000244140625</AltitudeMeters>
            <DistanceMeters>NAN</DistanceMeters>
          </Trackpoint>
          <Trackpoint>
            <Time>2019-08-01T10:54:42.000Z</Time>
            <Position>
              <LatitudeDegrees>40.60692577622830867767333984375</LatitudeDegrees>
              <LongitudeDegrees>-4.02207073755562305450439453125</LongitudeDegrees>
            </Position>
            <AltitudeMeters>881.4000244140625</AltitudeMeters>
            <DistanceMeters>NAN</DistanceMeters>
          </Trackpoint>
          <Trackpoint>
            <Time>2019-08-01T10:54:43.000Z</Time>
            <Position>
              <LatitudeDegrees>40.60699651949107646942138671875</LatitudeDegrees>
              <LongitudeDegrees>-4.02209403924643993377685546875</LongitudeDegrees>
            </Position>
            <AltitudeMeters>881.5999755859375</AltitudeMeters>
            <DistanceMeters>NAN</DistanceMeters>
          </Trackpoint>
          <Trackpoint>
            <Time>2019-08-01T10:54:44.000Z</Time>
            <Position>
              <LatitudeDegrees>40.6070675142109394073486328125</LatitudeDegrees>
              <LongitudeDegrees>-4.02211792767047882080078125</LongitudeDegrees>
            </Position>
            <AltitudeMeters>881.5999755859375</AltitudeMeters>
            <DistanceMeters>NAN</DistanceMeters>
          </Trackpoint>
          <Trackpoint>
            <Time>2019-08-01T10:54:45.000Z</Time>
            <Position>
              <LatitudeDegrees>40.60713934712111949920654296875</LatitudeDegrees>
              <LongitudeDegrees>-4.02214181609451770782470703125</LongitudeDegrees>
            </Position>
            <AltitudeMeters>881.5999755859375</AltitudeMeters>
            <DistanceMeters>NAN</DistanceMeters>
          </Trackpoint>
          <Trackpoint>
            <Time>2019-08-01T10:54:46.000Z</Time>
            <Position>
              <LatitudeDegrees>40.6072123534977436065673828125</LatitudeDegrees>
              <LongitudeDegrees>-4.02216612361371517181396484375</LongitudeDegrees>
            </Position>
            <AltitudeMeters>881.79998779296875</AltitudeMeters>
            <DistanceMeters>NAN</DistanceMeters>
          </Trackpoint>
          <Trackpoint>
            <Time>2019-08-01T10:54:47.000Z</Time>
            <Position>
              <LatitudeDegrees>40.60728552751243114471435546875</LatitudeDegrees>
              <LongitudeDegrees>-4.0221908502280712127685546875</LongitudeDegrees>
            </Position>
            <AltitudeMeters>881.79998779296875</AltitudeMeters>
            <DistanceMeters>NAN</DistanceMeters>
          </Trackpoint>
          <Trackpoint>
            <Time>2019-08-01T10:54:48.000Z</Time>
            <Position>
              <LatitudeDegrees>40.60728552751243114471435546875</LatitudeDegrees>
              <LongitudeDegrees>-4.0221908502280712127685546875</LongitudeDegrees>
            </Position>
            <AltitudeMeters>881.79998779296875</AltitudeMeters>
            <DistanceMeters>NAN</DistanceMeters>
          </Trackpoint>
          <Trackpoint>
            <Time>2019-08-01T10:54:49.000Z</Time>
            <Position>
              <LatitudeDegrees>40.60728552751243114471435546875</LatitudeDegrees>
              <LongitudeDegrees>-4.0221908502280712127685546875</LongitudeDegrees>
            </Position>
            <AltitudeMeters>882</AltitudeMeters>
            <DistanceMeters>NAN</DistanceMeters>
          </Trackpoint>
          <Trackpoint>
            <Time>2019-08-01T10:54:50.000Z</Time>
            <Position>
              <LatitudeDegrees>40.6075097434222698211669921875</LatitudeDegrees>
              <LongitudeDegrees>-4.02226469479501247406005859375</LongitudeDegrees>
            </Position>
            <AltitudeMeters>882.20001220703125</AltitudeMeters>
            <DistanceMeters>NAN</DistanceMeters>
          </Trackpoint>
          <Trackpoint>
            <Time>2019-08-01T10:54:51.000Z</Time>
            <Position>
              <LatitudeDegrees>40.6075868569314479827880859375</LatitudeDegrees>
              <LongitudeDegrees>-4.02228749357163906097412109375</LongitudeDegrees>
            </Position>
            <AltitudeMeters>882.4000244140625</AltitudeMeters>
            <DistanceMeters>NAN</DistanceMeters>
          </Trackpoint>
          <Trackpoint>
            <Time>2019-08-01T10:54:52.000Z</Time>
            <Position>
              <LatitudeDegrees>40.607665479183197021484375</LatitudeDegrees>
              <LongitudeDegrees>-4.02230928651988506317138671875</LongitudeDegrees>
            </Position>
            <AltitudeMeters>882.5999755859375</AltitudeMeters>
            <DistanceMeters>NAN</DistanceMeters>
          </Trackpoint>
          <Trackpoint>
            <Time>2019-08-01T10:54:53.000Z</Time>
            <Position>
              <LatitudeDegrees>40.6077446043491363525390625</LatitudeDegrees>
              <LongitudeDegrees>-4.02233074419200420379638671875</LongitudeDegrees>
            </Position>
            <AltitudeMeters>882.79998779296875</AltitudeMeters>
            <DistanceMeters>NAN</DistanceMeters>
          </Trackpoint>
          <Trackpoint>
            <Time>2019-08-01T10:54:54.000Z</Time>
            <Position>
              <LatitudeDegrees>40.607824064791202545166015625</LatitudeDegrees>
              <LongitudeDegrees>-4.02235270477831363677978515625</LongitudeDegrees>
            </Position>
            <AltitudeMeters>882.79998779296875</AltitudeMeters>
            <DistanceMeters>NAN</DistanceMeters>
          </Trackpoint>
          <Trackpoint>
            <Time>2019-08-01T10:54:55.000Z</Time>
            <Position>
              <LatitudeDegrees>40.6079041957855224609375</LatitudeDegrees>
              <LongitudeDegrees>-4.02237583883106708526611328125</LongitudeDegrees>
            </Position>
            <AltitudeMeters>882.79998779296875</AltitudeMeters>
            <DistanceMeters>NAN</DistanceMeters>
          </Trackpoint>
          <Trackpoint>
            <Time>2019-08-01T10:54:56.000Z</Time>
            <Position>
              <LatitudeDegrees>40.6079848296940326690673828125</LatitudeDegrees>
              <LongitudeDegrees>-4.022398889064788818359375</LongitudeDegrees>
            </Position>
            <AltitudeMeters>883</AltitudeMeters>
            <DistanceMeters>NAN</DistanceMeters>
          </Trackpoint>
          <Trackpoint>
            <Time>2019-08-01T10:54:57.000Z</Time>
            <Position>
              <LatitudeDegrees>40.608066134154796600341796875</LatitudeDegrees>
              <LongitudeDegrees>-4.02241942472755908966064453125</LongitudeDegrees>
            </Position>
            <AltitudeMeters>883</AltitudeMeters>
            <DistanceMeters>NAN</DistanceMeters>
          </Trackpoint>
          <Trackpoint>
            <Time>2019-08-01T10:54:58.000Z</Time>
            <Position>
              <LatitudeDegrees>40.60814894735813140869140625</LatitudeDegrees>
              <LongitudeDegrees>-4.0224389545619487762451171875</LongitudeDegrees>
            </Position>
            <AltitudeMeters>883</AltitudeMeters>
            <DistanceMeters>NAN</DistanceMeters>
          </Trackpoint>
          <Trackpoint>
            <Time>2019-08-01T10:54:59.000Z</Time>
            <Position>
              <LatitudeDegrees>40.60823234729468822479248046875</LatitudeDegrees>
              <LongitudeDegrees>-4.02245932258665561676025390625</LongitudeDegrees>
            </Position>
            <AltitudeMeters>883</AltitudeMeters>
            <DistanceMeters>NAN</DistanceMeters>
          </Trackpoint>
          <Trackpoint>
            <Time>2019-08-01T10:55:00.000Z</Time>
            <Position>
              <LatitudeDegrees>40.60831616632640361785888671875</LatitudeDegrees>
              <LongitudeDegrees>-4.02248111553490161895751953125</LongitudeDegrees>
            </Position>
            <AltitudeMeters>883</AltitudeMeters>
            <DistanceMeters>NAN</DistanceMeters>
          </Trackpoint>
          <Trackpoint>
            <Time>2019-08-01T10:55:01.000Z</Time>
            <Position>
              <LatitudeDegrees>40.6084002368152141571044921875</LatitudeDegrees>
              <LongitudeDegrees>-4.02250357903540134429931640625</LongitudeDegrees>
            </Position>
            <AltitudeMeters>883</AltitudeMeters>
            <DistanceMeters>NAN</DistanceMeters>
          </Trackpoint>
          <Trackpoint>
            <Time>2019-08-01T10:55:02.000Z</Time>
            <Position>
              <LatitudeDegrees>40.6084857322275638580322265625</LatitudeDegrees>
              <LongitudeDegrees>-4.0225264616310596466064453125</LongitudeDegrees>
            </Position>
            <AltitudeMeters>882.5999755859375</AltitudeMeters>
            <DistanceMeters>NAN</DistanceMeters>
          </Trackpoint>
          <Trackpoint>
            <Time>2019-08-01T10:55:03.000Z</Time>
            <Position>
              <LatitudeDegrees>40.608571730554103851318359375</LatitudeDegrees>
              <LongitudeDegrees>-4.02254800312221050262451171875</LongitudeDegrees>
            </Position>
            <AltitudeMeters>882.4000244140625</AltitudeMeters>
            <DistanceMeters>NAN</DistanceMeters>
          </Trackpoint>
          <Trackpoint>
            <Time>2019-08-01T10:55:04.000Z</Time>
            <Position>
              <LatitudeDegrees>40.6086587347090244293212890625</LatitudeDegrees>
              <LongitudeDegrees>-4.022569544613361358642578125</LongitudeDegrees>
            </Position>
            <AltitudeMeters>882.20001220703125</AltitudeMeters>
            <DistanceMeters>NAN</DistanceMeters>
          </Trackpoint>
          <Trackpoint>
            <Time>2019-08-01T10:55:05.000Z</Time>
            <Position>
              <LatitudeDegrees>40.60874649323523044586181640625</LatitudeDegrees>
              <LongitudeDegrees>-4.02259225957095623016357421875</LongitudeDegrees>
            </Position>
            <AltitudeMeters>882</AltitudeMeters>
            <DistanceMeters>NAN</DistanceMeters>
          </Trackpoint>
          <Trackpoint>
            <Time>2019-08-01T10:55:06.000Z</Time>
            <Position>
              <LatitudeDegrees>40.6088347546756267547607421875</LatitudeDegrees>
              <LongitudeDegrees>-4.02261539362370967864990234375</LongitudeDegrees>
            </Position>
            <AltitudeMeters>881.79998779296875</AltitudeMeters>
            <DistanceMeters>NAN</DistanceMeters>
          </Trackpoint>
          <Trackpoint>
            <Time>2019-08-01T10:55:07.000Z</Time>
            <Position>
              <LatitudeDegrees>40.60892402194440364837646484375</LatitudeDegrees>
              <LongitudeDegrees>-4.02263651601970195770263671875</LongitudeDegrees>
            </Position>
            <AltitudeMeters>881.79998779296875</AltitudeMeters>
            <DistanceMeters>NAN</DistanceMeters>
          </Trackpoint>
          <Trackpoint>
            <Time>2019-08-01T10:55:08.000Z</Time>
            <Position>
              <LatitudeDegrees>40.6090141274034976959228515625</LatitudeDegrees>
              <LongitudeDegrees>-4.02265596203505992889404296875</LongitudeDegrees>
            </Position>
            <AltitudeMeters>881.5999755859375</AltitudeMeters>
            <DistanceMeters>NAN</DistanceMeters>
          </Trackpoint>
          <Trackpoint>
            <Time>2019-08-01T10:55:09.000Z</Time>
            <Position>
              <LatitudeDegrees>40.60910515487194061279296875</LatitudeDegrees>
              <LongitudeDegrees>-4.02267725206911563873291015625</LongitudeDegrees>
            </Position>
            <AltitudeMeters>881.4000244140625</AltitudeMeters>
            <DistanceMeters>NAN</DistanceMeters>
          </Trackpoint>
          <Trackpoint>
            <Time>2019-08-01T10:55:10.000Z</Time>
            <Position>
              <LatitudeDegrees>40.60919693671166896820068359375</LatitudeDegrees>
              <LongitudeDegrees>-4.022699631750583648681640625</LongitudeDegrees>
            </Position>
            <AltitudeMeters>881.4000244140625</AltitudeMeters>
            <DistanceMeters>NAN</DistanceMeters>
          </Trackpoint>
          <Trackpoint>
            <Time>2019-08-01T10:55:11.000Z</Time>
            <Position>
              <LatitudeDegrees>40.6092897243797779083251953125</LatitudeDegrees>
              <LongitudeDegrees>-4.02272201143205165863037109375</LongitudeDegrees>
            </Position>
            <AltitudeMeters>881</AltitudeMeters>
            <DistanceMeters>NAN</DistanceMeters>
          </Trackpoint>
          <Trackpoint>
            <Time>2019-08-01T10:55:12.000Z</Time>
            <Position>
              <LatitudeDegrees>40.60938318260014057159423828125</LatitudeDegrees>
              <LongitudeDegrees>-4.0227447263896465301513671875</LongitudeDegrees>
            </Position>
            <AltitudeMeters>880.79998779296875</AltitudeMeters>
            <DistanceMeters>NAN</DistanceMeters>
          </Trackpoint>
          <Trackpoint>
            <Time>2019-08-01T10:55:13.000Z</Time>
            <Position>
              <LatitudeDegrees>40.60938318260014057159423828125</LatitudeDegrees>
              <LongitudeDegrees>-4.0227447263896465301513671875</LongitudeDegrees>
            </Position>
            <AltitudeMeters>880.5999755859375</AltitudeMeters>
            <DistanceMeters>NAN</DistanceMeters>
          </Trackpoint>
          <Trackpoint>
            <Time>2019-08-01T10:55:14.000Z</Time>
            <Position>
              <LatitudeDegrees>40.6095711886882781982421875</LatitudeDegrees>
              <LongitudeDegrees>-4.02278982102870941162109375</LongitudeDegrees>
            </Position>
            <AltitudeMeters>880.4000244140625</AltitudeMeters>
            <DistanceMeters>NAN</DistanceMeters>
          </Trackpoint>
          <Trackpoint>
            <Time>2019-08-01T10:55:15.000Z</Time>
            <Position>
              <LatitudeDegrees>40.60966615565121173858642578125</LatitudeDegrees>
              <LongitudeDegrees>-4.02281220071017742156982421875</LongitudeDegrees>
            </Position>
            <AltitudeMeters>880.20001220703125</AltitudeMeters>
            <DistanceMeters>NAN</DistanceMeters>
          </Trackpoint>
          <Trackpoint>
            <Time>2019-08-01T10:55:16.000Z</Time>
            <Position>
              <LatitudeDegrees>40.60976154170930385589599609375</LatitudeDegrees>
              <LongitudeDegrees>-4.02283516712486743927001953125</LongitudeDegrees>
            </Position>
            <AltitudeMeters>880</AltitudeMeters>
            <DistanceMeters>NAN</DistanceMeters>
          </Trackpoint>
          <Trackpoint>
            <Time>2019-08-01T10:55:17.000Z</Time>
            <Position>
              <LatitudeDegrees>40.609857179224491119384765625</LatitudeDegrees>
              <LongitudeDegrees>-4.0228583849966526031494140625</LongitudeDegrees>
            </Position>
            <AltitudeMeters>880</AltitudeMeters>
            <DistanceMeters>NAN</DistanceMeters>
          </Trackpoint>
          <Trackpoint>
            <Time>2019-08-01T10:55:18.000Z</Time>
            <Position>
              <LatitudeDegrees>40.60995315201580524444580078125</LatitudeDegrees>
              <LongitudeDegrees>-4.02288227342069149017333984375</LongitudeDegrees>
            </Position>
            <AltitudeMeters>880</AltitudeMeters>
            <DistanceMeters>NAN</DistanceMeters>
          </Trackpoint>
          <Trackpoint>
            <Time>2019-08-01T10:55:19.000Z</Time>
            <Position>
              <LatitudeDegrees>40.61004887335002422332763671875</LatitudeDegrees>
              <LongitudeDegrees>-4.02290574274957180023193359375</LongitudeDegrees>
            </Position>
            <AltitudeMeters>879.79998779296875</AltitudeMeters>
            <DistanceMeters>NAN</DistanceMeters>
          </Trackpoint>
          <Trackpoint>
            <Time>2019-08-01T10:55:20.000Z</Time>
            <Position>
              <LatitudeDegrees>40.610144846141338348388671875</LatitudeDegrees>
              <LongitudeDegrees>-4.02292854152619838714599609375</LongitudeDegrees>
            </Position>
            <AltitudeMeters>879.5999755859375</AltitudeMeters>
            <DistanceMeters>NAN</DistanceMeters>
          </Trackpoint>
          <Trackpoint>
            <Time>2019-08-01T10:55:21.000Z</Time>
            <Position>
              <LatitudeDegrees>40.61024081893265247344970703125</LatitudeDegrees>
              <LongitudeDegrees>-4.0229505859315395355224609375</LongitudeDegrees>
            </Position>
            <AltitudeMeters>879.4000244140625</AltitudeMeters>
            <DistanceMeters>NAN</DistanceMeters>
          </Trackpoint>
          <Trackpoint>
            <Time>2019-08-01T10:55:22.000Z</Time>
            <Position>
              <LatitudeDegrees>40.6103364564478397369384765625</LatitudeDegrees>
              <LongitudeDegrees>-4.02297263033688068389892578125</LongitudeDegrees>
            </Position>
            <AltitudeMeters>879.20001220703125</AltitudeMeters>
            <DistanceMeters>NAN</DistanceMeters>
          </Trackpoint>
          <Trackpoint>
            <Time>2019-08-01T10:55:23.000Z</Time>
            <Position>
              <LatitudeDegrees>40.61043142341077327728271484375</LatitudeDegrees>
              <LongitudeDegrees>-4.02299492619931697845458984375</LongitudeDegrees>
            </Position>
            <AltitudeMeters>879</AltitudeMeters>
            <DistanceMeters>NAN</DistanceMeters>
          </Trackpoint>
          <Trackpoint>
            <Time>2019-08-01T10:55:24.000Z</Time>
            <Position>
              <LatitudeDegrees>40.61052546836435794830322265625</LatitudeDegrees>
              <LongitudeDegrees>-4.02301772497594356536865234375</LongitudeDegrees>
            </Position>
            <AltitudeMeters>878.79998779296875</AltitudeMeters>
            <DistanceMeters>NAN</DistanceMeters>
          </Trackpoint>
          <Trackpoint>
            <Time>2019-08-01T10:55:25.000Z</Time>
            <Position>
              <LatitudeDegrees>40.61061926186084747314453125</LatitudeDegrees>
              <LongitudeDegrees>-4.023040272295475006103515625</LongitudeDegrees>
            </Position>
            <AltitudeMeters>878.5999755859375</AltitudeMeters>
            <DistanceMeters>NAN</DistanceMeters>
          </Trackpoint>
          <Trackpoint>
            <Time>2019-08-01T10:55:26.000Z</Time>
            <Position>
              <LatitudeDegrees>40.6107129715383052825927734375</LatitudeDegrees>
              <LongitudeDegrees>-4.0230632387101650238037109375</LongitudeDegrees>
            </Position>
            <AltitudeMeters>878.5999755859375</AltitudeMeters>
            <DistanceMeters>NAN</DistanceMeters>
          </Trackpoint>
          <Trackpoint>
            <Time>2019-08-01T10:55:27.000Z</Time>
            <Position>
              <LatitudeDegrees>40.61080693267285823822021484375</LatitudeDegrees>
              <LongitudeDegrees>-4.0230860374867916107177734375</LongitudeDegrees>
            </Position>
            <AltitudeMeters>878.5999755859375</AltitudeMeters>
            <DistanceMeters>NAN</DistanceMeters>
          </Trackpoint>
          <Trackpoint>
            <Time>2019-08-01T10:55:28.000Z</Time>
            <Position>
              <LatitudeDegrees>40.61090030707418918609619140625</LatitudeDegrees>
              <LongitudeDegrees>-4.0231083333492279052734375</LongitudeDegrees>
            </Position>
            <AltitudeMeters>878.20001220703125</AltitudeMeters>
            <DistanceMeters>NAN</DistanceMeters>
          </Trackpoint>
          <Trackpoint>
            <Time>2019-08-01T10:55:29.000Z</Time>
            <Position>
              <LatitudeDegrees>40.61099267564713954925537109375</LatitudeDegrees>
              <LongitudeDegrees>-4.02313104830682277679443359375</LongitudeDegrees>
            </Position>
            <AltitudeMeters>878.20001220703125</AltitudeMeters>
            <DistanceMeters>NAN</DistanceMeters>
          </Trackpoint>
          <Trackpoint>
            <Time>2019-08-01T10:55:30.000Z</Time>
            <Position>
              <LatitudeDegrees>40.61108521185815334320068359375</LatitudeDegrees>
              <LongitudeDegrees>-4.0231539309024810791015625</LongitudeDegrees>
            </Position>
            <AltitudeMeters>878.20001220703125</AltitudeMeters>
            <DistanceMeters>NAN</DistanceMeters>
          </Trackpoint>
          <Trackpoint>
            <Time>2019-08-01T10:55:31.000Z</Time>
            <Position>
              <LatitudeDegrees>40.61117741279304027557373046875</LatitudeDegrees>
              <LongitudeDegrees>-4.0231762267649173736572265625</LongitudeDegrees>
            </Position>
            <AltitudeMeters>878</AltitudeMeters>
            <DistanceMeters>NAN</DistanceMeters>
          </Trackpoint>
          <Trackpoint>
            <Time>2019-08-01T10:55:32.000Z</Time>
            <Position>
              <LatitudeDegrees>40.6112698651850223541259765625</LatitudeDegrees>
              <LongitudeDegrees>-4.02319927699863910675048828125</LongitudeDegrees>
            </Position>
            <AltitudeMeters>878</AltitudeMeters>
            <DistanceMeters>NAN</DistanceMeters>
          </Trackpoint>
          <Trackpoint>
            <Time>2019-08-01T10:55:33.000Z</Time>
            <Position>
              <LatitudeDegrees>40.6113620661199092864990234375</LatitudeDegrees>
              <LongitudeDegrees>-4.02322165668010711669921875</LongitudeDegrees>
            </Position>
            <AltitudeMeters>878</AltitudeMeters>
            <DistanceMeters>NAN</DistanceMeters>
          </Trackpoint>
          <Trackpoint>
            <Time>2019-08-01T10:55:34.000Z</Time>
            <Position>
              <LatitudeDegrees>40.6113620661199092864990234375</LatitudeDegrees>
              <LongitudeDegrees>-4.02322165668010711669921875</LongitudeDegrees>
            </Position>
            <AltitudeMeters>877.79998779296875</AltitudeMeters>
            <DistanceMeters>NAN</DistanceMeters>
          </Trackpoint>
          <Trackpoint>
            <Time>2019-08-01T10:55:35.000Z</Time>
            <Position>
              <LatitudeDegrees>40.6115464679896831512451171875</LatitudeDegrees>
              <LongitudeDegrees>-4.0232639014720916748046875</LongitudeDegrees>
            </Position>
            <AltitudeMeters>877.79998779296875</AltitudeMeters>
            <DistanceMeters>NAN</DistanceMeters>
          </Trackpoint>
          <Trackpoint>
            <Time>2019-08-01T10:55:36.000Z</Time>
            <Position>
              <LatitudeDegrees>40.6116386689245700836181640625</LatitudeDegrees>
              <LongitudeDegrees>-4.0232841856777667999267578125</LongitudeDegrees>
            </Position>
            <AltitudeMeters>877.79998779296875</AltitudeMeters>
            <DistanceMeters>NAN</DistanceMeters>
          </Trackpoint>
          <Trackpoint>
            <Time>2019-08-01T10:55:37.000Z</Time>
            <Position>
              <LatitudeDegrees>40.61173061840236186981201171875</LatitudeDegrees>
              <LongitudeDegrees>-4.0233056433498859405517578125</LongitudeDegrees>
            </Position>
            <AltitudeMeters>877.5999755859375</AltitudeMeters>
            <DistanceMeters>NAN</DistanceMeters>
          </Trackpoint>
          <Trackpoint>
            <Time>2019-08-01T10:55:38.000Z</Time>
            <Position>
              <LatitudeDegrees>40.61182265169918537139892578125</LatitudeDegrees>
              <LongitudeDegrees>-4.02332701720297336578369140625</LongitudeDegrees>
            </Position>
            <AltitudeMeters>877.5999755859375</AltitudeMeters>
            <DistanceMeters>NAN</DistanceMeters>
          </Trackpoint>
          <Trackpoint>
            <Time>2019-08-01T10:55:39.000Z</Time>
            <Position>
              <LatitudeDegrees>40.61191518791019916534423828125</LatitudeDegrees>
              <LongitudeDegrees>-4.023349396884441375732421875</LongitudeDegrees>
            </Position>
            <AltitudeMeters>877.5999755859375</AltitudeMeters>
            <DistanceMeters>NAN</DistanceMeters>
          </Trackpoint>
          <Trackpoint>
            <Time>2019-08-01T10:55:40.000Z</Time>
            <Position>
              <LatitudeDegrees>40.61200688593089580535888671875</LatitudeDegrees>
              <LongitudeDegrees>-4.02337295003235340118408203125</LongitudeDegrees>
            </Position>
            <AltitudeMeters>877.5999755859375</AltitudeMeters>
            <DistanceMeters>NAN</DistanceMeters>
          </Trackpoint>
          <Trackpoint>
            <Time>2019-08-01T10:55:41.000Z</Time>
            <Position>
              <LatitudeDegrees>40.6120983324944972991943359375</LatitudeDegrees>
              <LongitudeDegrees>-4.0233953297138214111328125</LongitudeDegrees>
            </Position>
            <AltitudeMeters>877.5999755859375</AltitudeMeters>
            <DistanceMeters>NAN</DistanceMeters>
          </Trackpoint>
          <Trackpoint>
            <Time>2019-08-01T10:55:42.000Z</Time>
            <Position>
              <LatitudeDegrees>40.61218969523906707763671875</LatitudeDegrees>
              <LongitudeDegrees>-4.02341745793819427490234375</LongitudeDegrees>
            </Position>
            <AltitudeMeters>877.5999755859375</AltitudeMeters>
            <DistanceMeters>NAN</DistanceMeters>
          </Trackpoint>
          <Trackpoint>
            <Time>2019-08-01T10:55:43.000Z</Time>
            <Position>
              <LatitudeDegrees>40.612280555069446563720703125</LatitudeDegrees>
              <LongitudeDegrees>-4.02343899942934513092041015625</LongitudeDegrees>
            </Position>
            <AltitudeMeters>877.79998779296875</AltitudeMeters>
            <DistanceMeters>NAN</DistanceMeters>
          </Trackpoint>
          <Trackpoint>
            <Time>2019-08-01T10:55:44.000Z</Time>
            <Position>
              <LatitudeDegrees>40.6123715825378894805908203125</LatitudeDegrees>
              <LongitudeDegrees>-4.0234602056443691253662109375</LongitudeDegrees>
            </Position>
            <AltitudeMeters>877.79998779296875</AltitudeMeters>
            <DistanceMeters>NAN</DistanceMeters>
          </Trackpoint>
          <Trackpoint>
            <Time>2019-08-01T10:55:45.000Z</Time>
            <Position>
              <LatitudeDegrees>40.61246319673955440521240234375</LatitudeDegrees>
              <LongitudeDegrees>-4.02348183095455169677734375</LongitudeDegrees>
            </Position>
            <AltitudeMeters>878</AltitudeMeters>
            <DistanceMeters>NAN</DistanceMeters>
          </Trackpoint>
          <Trackpoint>
            <Time>2019-08-01T10:55:46.000Z</Time>
            <Position>
              <LatitudeDegrees>40.61255439184606075286865234375</LatitudeDegrees>
              <LongitudeDegrees>-4.023504294455051422119140625</LongitudeDegrees>
            </Position>
            <AltitudeMeters>878</AltitudeMeters>
            <DistanceMeters>NAN</DistanceMeters>
          </Trackpoint>
          <Trackpoint>
            <Time>2019-08-01T10:55:47.000Z</Time>
            <Position>
              <LatitudeDegrees>40.61264608986675739288330078125</LatitudeDegrees>
              <LongitudeDegrees>-4.0235262550413608551025390625</LongitudeDegrees>
            </Position>
            <AltitudeMeters>878.20001220703125</AltitudeMeters>
            <DistanceMeters>NAN</DistanceMeters>
          </Trackpoint>
          <Trackpoint>
            <Time>2019-08-01T10:55:48.000Z</Time>
            <Position>
              <LatitudeDegrees>40.612737871706485748291015625</LatitudeDegrees>
              <LongitudeDegrees>-4.02354813180863857269287109375</LongitudeDegrees>
            </Position>
            <AltitudeMeters>878.20001220703125</AltitudeMeters>
            <DistanceMeters>NAN</DistanceMeters>
          </Trackpoint>
          <Trackpoint>
            <Time>2019-08-01T10:55:49.000Z</Time>
            <Position>
              <LatitudeDegrees>40.61282965354621410369873046875</LatitudeDegrees>
              <LongitudeDegrees>-4.02357042767107486724853515625</LongitudeDegrees>
            </Position>
            <AltitudeMeters>878.4000244140625</AltitudeMeters>
            <DistanceMeters>NAN</DistanceMeters>
          </Trackpoint>
          <Trackpoint>
            <Time>2019-08-01T10:55:50.000Z</Time>
            <Position>
              <LatitudeDegrees>40.61292168684303760528564453125</LatitudeDegrees>
              <LongitudeDegrees>-4.023592472076416015625</LongitudeDegrees>
            </Position>
            <AltitudeMeters>878.4000244140625</AltitudeMeters>
            <DistanceMeters>NAN</DistanceMeters>
          </Trackpoint>
          <Trackpoint>
            <Time>2019-08-01T10:55:51.000Z</Time>
            <Position>
              <LatitudeDegrees>40.6130139715969562530517578125</LatitudeDegrees>
              <LongitudeDegrees>-4.02361392974853515625</LongitudeDegrees>
            </Position>
            <AltitudeMeters>878.4000244140625</AltitudeMeters>
            <DistanceMeters>NAN</DistanceMeters>
          </Trackpoint>
          <Trackpoint>
            <Time>2019-08-01T10:55:52.000Z</Time>
            <Position>
              <LatitudeDegrees>40.613106675446033477783203125</LatitudeDegrees>
              <LongitudeDegrees>-4.02363563887774944305419921875</LongitudeDegrees>
            </Position>
            <AltitudeMeters>878.5999755859375</AltitudeMeters>
            <DistanceMeters>NAN</DistanceMeters>
          </Trackpoint>
          <Trackpoint>
            <Time>2019-08-01T10:55:53.000Z</Time>
            <Position>
              <LatitudeDegrees>40.613199211657047271728515625</LatitudeDegrees>
              <LongitudeDegrees>-4.02365743182599544525146484375</LongitudeDegrees>
            </Position>
            <AltitudeMeters>878.5999755859375</AltitudeMeters>
            <DistanceMeters>NAN</DistanceMeters>
          </Trackpoint>
          <Trackpoint>
            <Time>2019-08-01T10:55:54.000Z</Time>
            <Position>
              <LatitudeDegrees>40.61329199932515621185302734375</LatitudeDegrees>
              <LongitudeDegrees>-4.02367956005036830902099609375</LongitudeDegrees>
            </Position>
            <AltitudeMeters>878.79998779296875</AltitudeMeters>
            <DistanceMeters>NAN</DistanceMeters>
          </Trackpoint>
          <Trackpoint>
            <Time>2019-08-01T10:55:55.000Z</Time>
            <Position>
              <LatitudeDegrees>40.61338453553617000579833984375</LatitudeDegrees>
              <LongitudeDegrees>-4.02370152063667774200439453125</LongitudeDegrees>
            </Position>
            <AltitudeMeters>878.79998779296875</AltitudeMeters>
            <DistanceMeters>NAN</DistanceMeters>
          </Trackpoint>
          <Trackpoint>
            <Time>2019-08-01T10:55:56.000Z</Time>
            <Position>
              <LatitudeDegrees>40.6134773232042789459228515625</LatitudeDegrees>
              <LongitudeDegrees>-4.02372281067073345184326171875</LongitudeDegrees>
            </Position>
            <AltitudeMeters>879</AltitudeMeters>
            <DistanceMeters>NAN</DistanceMeters>
          </Trackpoint>
          <Trackpoint>
            <Time>2019-08-01T10:55:57.000Z</Time>
            <Position>
              <LatitudeDegrees>40.61356994323432445526123046875</LatitudeDegrees>
              <LongitudeDegrees>-4.0237441845238208770751953125</LongitudeDegrees>
            </Position>
            <AltitudeMeters>879</AltitudeMeters>
            <DistanceMeters>NAN</DistanceMeters>
          </Trackpoint>
          <Trackpoint>
            <Time>2019-08-01T10:55:58.000Z</Time>
            <Position>
              <LatitudeDegrees>40.61366222798824310302734375</LatitudeDegrees>
              <LongitudeDegrees>-4.02376614511013031005859375</LongitudeDegrees>
            </Position>
            <AltitudeMeters>879</AltitudeMeters>
            <DistanceMeters>NAN</DistanceMeters>
          </Trackpoint>
          <Trackpoint>
            <Time>2019-08-01T10:55:59.000Z</Time>
            <Position>
              <LatitudeDegrees>40.61375417746603488922119140625</LatitudeDegrees>
              <LongitudeDegrees>-4.023787938058376312255859375</LongitudeDegrees>
            </Position>
            <AltitudeMeters>879</AltitudeMeters>
            <DistanceMeters>NAN</DistanceMeters>
          </Trackpoint>
          <Trackpoint>
            <Time>2019-08-01T10:56:00.000Z</Time>
            <Position>
              <LatitudeDegrees>40.61375417746603488922119140625</LatitudeDegrees>
              <LongitudeDegrees>-4.023787938058376312255859375</LongitudeDegrees>
            </Position>
            <AltitudeMeters>879</AltitudeMeters>
            <DistanceMeters>NAN</DistanceMeters>
          </Trackpoint>
          <Trackpoint>
            <Time>2019-08-01T10:56:01.000Z</Time>
            <Position>
              <LatitudeDegrees>40.6139366514980792999267578125</LatitudeDegrees>
              <LongitudeDegrees>-4.0238313563168048858642578125</LongitudeDegrees>
            </Position>
            <AltitudeMeters>879</AltitudeMeters>
            <DistanceMeters>NAN</DistanceMeters>
          </Trackpoint>
          <Trackpoint>
            <Time>2019-08-01T10:56:02.000Z</Time>
            <Position>
              <LatitudeDegrees>40.614027678966522216796875</LatitudeDegrees>
              <LongitudeDegrees>-4.02385457418859004974365234375</LongitudeDegrees>
            </Position>
            <AltitudeMeters>879</AltitudeMeters>
            <DistanceMeters>NAN</DistanceMeters>
          </Trackpoint>
          <Trackpoint>
            <Time>2019-08-01T10:56:03.000Z</Time>
            <Position>
              <LatitudeDegrees>40.614027678966522216796875</LatitudeDegrees>
              <LongitudeDegrees>-4.02385457418859004974365234375</LongitudeDegrees>
            </Position>
            <AltitudeMeters>879</AltitudeMeters>
            <DistanceMeters>NAN</DistanceMeters>
          </Trackpoint>
          <Trackpoint>
            <Time>2019-08-01T10:56:04.000Z</Time>
            <Position>
              <LatitudeDegrees>40.61420830897986888885498046875</LatitudeDegrees>
              <LongitudeDegrees>-4.02389849536120891571044921875</LongitudeDegrees>
            </Position>
            <AltitudeMeters>879</AltitudeMeters>
            <DistanceMeters>NAN</DistanceMeters>
          </Trackpoint>
          <Trackpoint>
            <Time>2019-08-01T10:56:05.000Z</Time>
            <Position>
              <LatitudeDegrees>40.61429816298186779022216796875</LatitudeDegrees>
              <LongitudeDegrees>-4.023920036852359771728515625</LongitudeDegrees>
            </Position>
            <AltitudeMeters>878.79998779296875</AltitudeMeters>
            <DistanceMeters>NAN</DistanceMeters>
          </Trackpoint>
          <Trackpoint>
            <Time>2019-08-01T10:56:06.000Z</Time>
            <Position>
              <LatitudeDegrees>40.6143886037170886993408203125</LatitudeDegrees>
              <LongitudeDegrees>-4.0239419974386692047119140625</LongitudeDegrees>
            </Position>
            <AltitudeMeters>878.79998779296875</AltitudeMeters>
            <DistanceMeters>NAN</DistanceMeters>
          </Trackpoint>
          <Trackpoint>
            <Time>2019-08-01T10:56:07.000Z</Time>
            <Position>
              <LatitudeDegrees>40.6144787929952144622802734375</LatitudeDegrees>
              <LongitudeDegrees>-4.02396454475820064544677734375</LongitudeDegrees>
            </Position>
            <AltitudeMeters>878.79998779296875</AltitudeMeters>
            <DistanceMeters>NAN</DistanceMeters>
          </Trackpoint>
          <Trackpoint>
            <Time>2019-08-01T10:56:08.000Z</Time>
            <Position>
              <LatitudeDegrees>40.61456990428268909454345703125</LatitudeDegrees>
              <LongitudeDegrees>-4.0239862538874149322509765625</LongitudeDegrees>
            </Position>
            <AltitudeMeters>878.5999755859375</AltitudeMeters>
            <DistanceMeters>NAN</DistanceMeters>
          </Trackpoint>
          <Trackpoint>
            <Time>2019-08-01T10:56:09.000Z</Time>
            <Position>
              <LatitudeDegrees>40.6146611832082271575927734375</LatitudeDegrees>
              <LongitudeDegrees>-4.0240080468356609344482421875</LongitudeDegrees>
            </Position>
            <AltitudeMeters>878.5999755859375</AltitudeMeters>
            <DistanceMeters>NAN</DistanceMeters>
          </Trackpoint>
          <Trackpoint>
            <Time>2019-08-01T10:56:10.000Z</Time>
            <Position>
              <LatitudeDegrees>40.6147532165050506591796875</LatitudeDegrees>
              <LongitudeDegrees>-4.0240298397839069366455078125</LongitudeDegrees>
            </Position>
            <AltitudeMeters>878.5999755859375</AltitudeMeters>
            <DistanceMeters>NAN</DistanceMeters>
          </Trackpoint>
          <Trackpoint>
            <Time>2019-08-01T10:56:11.000Z</Time>
            <Position>
              <LatitudeDegrees>40.614845752716064453125</LatitudeDegrees>
              <LongitudeDegrees>-4.02405180037021636962890625</LongitudeDegrees>
            </Position>
            <AltitudeMeters>878.5999755859375</AltitudeMeters>
            <DistanceMeters>NAN</DistanceMeters>
          </Trackpoint>
          <Trackpoint>
            <Time>2019-08-01T10:56:12.000Z</Time>
            <Position>
              <LatitudeDegrees>40.61493803746998310089111328125</LatitudeDegrees>
              <LongitudeDegrees>-4.024074263870716094970703125</LongitudeDegrees>
            </Position>
            <AltitudeMeters>878.5999755859375</AltitudeMeters>
            <DistanceMeters>NAN</DistanceMeters>
          </Trackpoint>
          <Trackpoint>
            <Time>2019-08-01T10:56:13.000Z</Time>
            <Position>
              <LatitudeDegrees>40.615030825138092041015625</LatitudeDegrees>
              <LongitudeDegrees>-4.024096392095088958740234375</LongitudeDegrees>
            </Position>
            <AltitudeMeters>878.4000244140625</AltitudeMeters>
            <DistanceMeters>NAN</DistanceMeters>
          </Trackpoint>
          <Trackpoint>
            <Time>2019-08-01T10:56:14.000Z</Time>
            <Position>
              <LatitudeDegrees>40.61512344516813755035400390625</LatitudeDegrees>
              <LongitudeDegrees>-4.02411843650043010711669921875</LongitudeDegrees>
            </Position>
            <AltitudeMeters>878.4000244140625</AltitudeMeters>
            <DistanceMeters>NAN</DistanceMeters>
          </Trackpoint>
          <Trackpoint>
            <Time>2019-08-01T10:56:15.000Z</Time>
            <Position>
              <LatitudeDegrees>40.61521614901721477508544921875</LatitudeDegrees>
              <LongitudeDegrees>-4.02414056472480297088623046875</LongitudeDegrees>
            </Position>
            <AltitudeMeters>878.4000244140625</AltitudeMeters>
            <DistanceMeters>NAN</DistanceMeters>
          </Trackpoint>
          <Trackpoint>
            <Time>2019-08-01T10:56:16.000Z</Time>
            <Position>
              <LatitudeDegrees>40.615308769047260284423828125</LatitudeDegrees>
              <LongitudeDegrees>-4.02416311204433441162109375</LongitudeDegrees>
            </Position>
            <AltitudeMeters>878.20001220703125</AltitudeMeters>
            <DistanceMeters>NAN</DistanceMeters>
          </Trackpoint>
          <Trackpoint>
            <Time>2019-08-01T10:56:17.000Z</Time>
            <Position>
              <LatitudeDegrees>40.61540155671536922454833984375</LatitudeDegrees>
              <LongitudeDegrees>-4.02418549172580242156982421875</LongitudeDegrees>
            </Position>
            <AltitudeMeters>878.20001220703125</AltitudeMeters>
            <DistanceMeters>NAN</DistanceMeters>
          </Trackpoint>
          <Trackpoint>
            <Time>2019-08-01T10:56:18.000Z</Time>
            <Position>
              <LatitudeDegrees>40.61549417674541473388671875</LatitudeDegrees>
              <LongitudeDegrees>-4.0242080390453338623046875</LongitudeDegrees>
            </Position>
            <AltitudeMeters>878.20001220703125</AltitudeMeters>
            <DistanceMeters>NAN</DistanceMeters>
          </Trackpoint>
          <Trackpoint>
            <Time>2019-08-01T10:56:19.000Z</Time>
            <Position>
              <LatitudeDegrees>40.6155868805944919586181640625</LatitudeDegrees>
              <LongitudeDegrees>-4.02422991581261157989501953125</LongitudeDegrees>
            </Position>
            <AltitudeMeters>878.20001220703125</AltitudeMeters>
            <DistanceMeters>NAN</DistanceMeters>
          </Trackpoint>
          <Trackpoint>
            <Time>2019-08-01T10:56:20.000Z</Time>
            <Position>
              <LatitudeDegrees>40.61567966826260089874267578125</LatitudeDegrees>
              <LongitudeDegrees>-4.02425204403698444366455078125</LongitudeDegrees>
            </Position>
            <AltitudeMeters>878</AltitudeMeters>
            <DistanceMeters>NAN</DistanceMeters>
          </Trackpoint>
          <Trackpoint>
            <Time>2019-08-01T10:56:21.000Z</Time>
            <Position>
              <LatitudeDegrees>40.6157726235687732696533203125</LatitudeDegrees>
              <LongitudeDegrees>-4.0242749266326427459716796875</LongitudeDegrees>
            </Position>
            <AltitudeMeters>877.79998779296875</AltitudeMeters>
            <DistanceMeters>NAN</DistanceMeters>
          </Trackpoint>
          <Trackpoint>
            <Time>2019-08-01T10:56:22.000Z</Time>
            <Position>
              <LatitudeDegrees>40.6158648245036602020263671875</LatitudeDegrees>
              <LongitudeDegrees>-4.0242980606853961944580078125</LongitudeDegrees>
            </Position>
            <AltitudeMeters>877.5999755859375</AltitudeMeters>
            <DistanceMeters>NAN</DistanceMeters>
          </Trackpoint>
          <Trackpoint>
            <Time>2019-08-01T10:56:23.000Z</Time>
            <Position>
              <LatitudeDegrees>40.615956522524356842041015625</LatitudeDegrees>
              <LongitudeDegrees>-4.02432060800492763519287109375</LongitudeDegrees>
            </Position>
            <AltitudeMeters>877.5999755859375</AltitudeMeters>
            <DistanceMeters>NAN</DistanceMeters>
          </Trackpoint>
          <Trackpoint>
            <Time>2019-08-01T10:56:24.000Z</Time>
            <Position>
              <LatitudeDegrees>40.61604763381183147430419921875</LatitudeDegrees>
              <LongitudeDegrees>-4.0243423171341419219970703125</LongitudeDegrees>
            </Position>
            <AltitudeMeters>877.4000244140625</AltitudeMeters>
            <DistanceMeters>NAN</DistanceMeters>
          </Trackpoint>
          <Trackpoint>
            <Time>2019-08-01T10:56:25.000Z</Time>
            <Position>
              <LatitudeDegrees>40.61613748781383037567138671875</LatitudeDegrees>
              <LongitudeDegrees>-4.0243634395301342010498046875</LongitudeDegrees>
            </Position>
            <AltitudeMeters>877.4000244140625</AltitudeMeters>
            <DistanceMeters>NAN</DistanceMeters>
          </Trackpoint>
          <Trackpoint>
            <Time>2019-08-01T10:56:26.000Z</Time>
            <Position>
              <LatitudeDegrees>40.6162257492542266845703125</LatitudeDegrees>
              <LongitudeDegrees>-4.0243845619261264801025390625</LongitudeDegrees>
            </Position>
            <AltitudeMeters>877.4000244140625</AltitudeMeters>
            <DistanceMeters>NAN</DistanceMeters>
          </Trackpoint>
          <Trackpoint>
            <Time>2019-08-01T10:56:27.000Z</Time>
            <Position>
              <LatitudeDegrees>40.61631283722817897796630859375</LatitudeDegrees>
              <LongitudeDegrees>-4.0244056843221187591552734375</LongitudeDegrees>
            </Position>
            <AltitudeMeters>877.4000244140625</AltitudeMeters>
            <DistanceMeters>NAN</DistanceMeters>
          </Trackpoint>
          <Trackpoint>
            <Time>2019-08-01T10:56:28.000Z</Time>
            <Position>
              <LatitudeDegrees>40.61639816500246524810791015625</LatitudeDegrees>
              <LongitudeDegrees>-4.024426303803920745849609375</LongitudeDegrees>
            </Position>
            <AltitudeMeters>877.4000244140625</AltitudeMeters>
            <DistanceMeters>NAN</DistanceMeters>
          </Trackpoint>
          <Trackpoint>
            <Time>2019-08-01T10:56:29.000Z</Time>
            <Position>
              <LatitudeDegrees>40.61648198403418064117431640625</LatitudeDegrees>
              <LongitudeDegrees>-4.024445749819278717041015625</LongitudeDegrees>
            </Position>
            <AltitudeMeters>877.4000244140625</AltitudeMeters>
            <DistanceMeters>NAN</DistanceMeters>
          </Trackpoint>
          <Trackpoint>
            <Time>2019-08-01T10:56:30.000Z</Time>
            <Position>
              <LatitudeDegrees>40.6165638752281665802001953125</LatitudeDegrees>
              <LongitudeDegrees>-4.02446477673947811126708984375</LongitudeDegrees>
            </Position>
            <AltitudeMeters>877.4000244140625</AltitudeMeters>
            <DistanceMeters>NAN</DistanceMeters>
          </Trackpoint>
          <Trackpoint>
            <Time>2019-08-01T10:56:31.000Z</Time>
            <Position>
              <LatitudeDegrees>40.6166436709463596343994140625</LatitudeDegrees>
              <LongitudeDegrees>-4.0244838036596775054931640625</LongitudeDegrees>
            </Position>
            <AltitudeMeters>877.4000244140625</AltitudeMeters>
            <DistanceMeters>NAN</DistanceMeters>
          </Trackpoint>
          <Trackpoint>
            <Time>2019-08-01T10:56:32.000Z</Time>
            <Position>
              <LatitudeDegrees>40.6166436709463596343994140625</LatitudeDegrees>
              <LongitudeDegrees>-4.0244838036596775054931640625</LongitudeDegrees>
            </Position>
            <AltitudeMeters>877.20001220703125</AltitudeMeters>
            <DistanceMeters>NAN</DistanceMeters>
          </Trackpoint>
          <Trackpoint>
            <Time>2019-08-01T10:56:33.000Z</Time>
            <Position>
              <LatitudeDegrees>40.61680175364017486572265625</LatitudeDegrees>
              <LongitudeDegrees>-4.0245186723768711090087890625</LongitudeDegrees>
            </Position>
            <AltitudeMeters>877.20001220703125</AltitudeMeters>
            <DistanceMeters>NAN</DistanceMeters>
          </Trackpoint>
          <Trackpoint>
            <Time>2019-08-01T10:56:34.000Z</Time>
            <Position>
              <LatitudeDegrees>40.61687962152063846588134765625</LatitudeDegrees>
              <LongitudeDegrees>-4.024536609649658203125</LongitudeDegrees>
            </Position>
            <AltitudeMeters>877.20001220703125</AltitudeMeters>
            <DistanceMeters>NAN</DistanceMeters>
          </Trackpoint>
          <Trackpoint>
            <Time>2019-08-01T10:56:35.000Z</Time>
            <Position>
              <LatitudeDegrees>40.61687962152063846588134765625</LatitudeDegrees>
              <LongitudeDegrees>-4.024536609649658203125</LongitudeDegrees>
            </Position>
            <AltitudeMeters>877.20001220703125</AltitudeMeters>
            <DistanceMeters>NAN</DistanceMeters>
          </Trackpoint>
          <Trackpoint>
            <Time>2019-08-01T10:56:36.000Z</Time>
            <Position>
              <LatitudeDegrees>40.6170352734625339508056640625</LatitudeDegrees>
              <LongitudeDegrees>-4.02457323856651782989501953125</LongitudeDegrees>
            </Position>
            <AltitudeMeters>877.4000244140625</AltitudeMeters>
            <DistanceMeters>NAN</DistanceMeters>
          </Trackpoint>
          <Trackpoint>
            <Time>2019-08-01T10:56:37.000Z</Time>
            <Position>
              <LatitudeDegrees>40.617111884057521820068359375</LatitudeDegrees>
              <LongitudeDegrees>-4.02459134347736835479736328125</LongitudeDegrees>
            </Position>
            <AltitudeMeters>877.4000244140625</AltitudeMeters>
            <DistanceMeters>NAN</DistanceMeters>
          </Trackpoint>
          <Trackpoint>
            <Time>2019-08-01T10:56:38.000Z</Time>
            <Position>
              <LatitudeDegrees>40.617111884057521820068359375</LatitudeDegrees>
              <LongitudeDegrees>-4.02459134347736835479736328125</LongitudeDegrees>
            </Position>
            <AltitudeMeters>877.5999755859375</AltitudeMeters>
            <DistanceMeters>NAN</DistanceMeters>
          </Trackpoint>
          <Trackpoint>
            <Time>2019-08-01T10:56:39.000Z</Time>
            <Position>
              <LatitudeDegrees>40.617264099419116973876953125</LatitudeDegrees>
              <LongitudeDegrees>-4.024626798927783966064453125</LongitudeDegrees>
            </Position>
            <AltitudeMeters>877.79998779296875</AltitudeMeters>
            <DistanceMeters>NAN</DistanceMeters>
          </Trackpoint>
          <Trackpoint>
            <Time>2019-08-01T10:56:40.000Z</Time>
            <Position>
              <LatitudeDegrees>40.617264099419116973876953125</LatitudeDegrees>
              <LongitudeDegrees>-4.024626798927783966064453125</LongitudeDegrees>
            </Position>
            <AltitudeMeters>878</AltitudeMeters>
            <DistanceMeters>NAN</DistanceMeters>
          </Trackpoint>
          <Trackpoint>
            <Time>2019-08-01T10:56:41.000Z</Time>
            <Position>
              <LatitudeDegrees>40.61741455458104610443115234375</LatitudeDegrees>
              <LongitudeDegrees>-4.02466208674013614654541015625</LongitudeDegrees>
            </Position>
            <AltitudeMeters>878.20001220703125</AltitudeMeters>
            <DistanceMeters>NAN</DistanceMeters>
          </Trackpoint>
          <Trackpoint>
            <Time>2019-08-01T10:56:42.000Z</Time>
            <Position>
              <LatitudeDegrees>40.6174895726144313812255859375</LatitudeDegrees>
              <LongitudeDegrees>-4.024680443108081817626953125</LongitudeDegrees>
            </Position>
            <AltitudeMeters>878.4000244140625</AltitudeMeters>
            <DistanceMeters>NAN</DistanceMeters>
          </Trackpoint>
          <Trackpoint>
            <Time>2019-08-01T10:56:43.000Z</Time>
            <Position>
              <LatitudeDegrees>40.61756484210491180419921875</LatitudeDegrees>
              <LongitudeDegrees>-4.02469821274280548095703125</LongitudeDegrees>
            </Position>
            <AltitudeMeters>878.5999755859375</AltitudeMeters>
            <DistanceMeters>NAN</DistanceMeters>
          </Trackpoint>
          <Trackpoint>
            <Time>2019-08-01T10:56:44.000Z</Time>
            <Position>
              <LatitudeDegrees>40.61764069832861423492431640625</LatitudeDegrees>
              <LongitudeDegrees>-4.02471589855849742889404296875</LongitudeDegrees>
            </Position>
            <AltitudeMeters>878.5999755859375</AltitudeMeters>
            <DistanceMeters>NAN</DistanceMeters>
          </Trackpoint>
          <Trackpoint>
            <Time>2019-08-01T10:56:45.000Z</Time>
            <Position>
              <LatitudeDegrees>40.61771697364747524261474609375</LatitudeDegrees>
              <LongitudeDegrees>-4.0247352607548236846923828125</LongitudeDegrees>
            </Position>
            <AltitudeMeters>878.5999755859375</AltitudeMeters>
            <DistanceMeters>NAN</DistanceMeters>
          </Trackpoint>
          <Trackpoint>
            <Time>2019-08-01T10:56:46.000Z</Time>
            <Position>
              <LatitudeDegrees>40.617793835699558258056640625</LatitudeDegrees>
              <LongitudeDegrees>-4.02475412003695964813232421875</LongitudeDegrees>
            </Position>
            <AltitudeMeters>878.79998779296875</AltitudeMeters>
            <DistanceMeters>NAN</DistanceMeters>
          </Trackpoint>
          <Trackpoint>
            <Time>2019-08-01T10:56:47.000Z</Time>
            <Position>
              <LatitudeDegrees>40.617793835699558258056640625</LatitudeDegrees>
              <LongitudeDegrees>-4.02475412003695964813232421875</LongitudeDegrees>
            </Position>
            <AltitudeMeters>878.79998779296875</AltitudeMeters>
            <DistanceMeters>NAN</DistanceMeters>
          </Trackpoint>
          <Trackpoint>
            <Time>2019-08-01T10:56:48.000Z</Time>
            <Position>
              <LatitudeDegrees>40.6179468892514705657958984375</LatitudeDegrees>
              <LongitudeDegrees>-4.02479150332510471343994140625</LongitudeDegrees>
            </Position>
            <AltitudeMeters>878.79998779296875</AltitudeMeters>
            <DistanceMeters>NAN</DistanceMeters>
          </Trackpoint>
          <Trackpoint>
            <Time>2019-08-01T10:56:49.000Z</Time>
            <Position>
              <LatitudeDegrees>40.61802349984645843505859375</LatitudeDegrees>
              <LongitudeDegrees>-4.02480927295982837677001953125</LongitudeDegrees>
            </Position>
            <AltitudeMeters>878.79998779296875</AltitudeMeters>
            <DistanceMeters>NAN</DistanceMeters>
          </Trackpoint>
          <Trackpoint>
            <Time>2019-08-01T10:56:50.000Z</Time>
            <Position>
              <LatitudeDegrees>40.61810019426047801971435546875</LatitudeDegrees>
              <LongitudeDegrees>-4.0248276293277740478515625</LongitudeDegrees>
            </Position>
            <AltitudeMeters>878.79998779296875</AltitudeMeters>
            <DistanceMeters>NAN</DistanceMeters>
          </Trackpoint>
          <Trackpoint>
            <Time>2019-08-01T10:56:51.000Z</Time>
            <Position>
              <LatitudeDegrees>40.61810019426047801971435546875</LatitudeDegrees>
              <LongitudeDegrees>-4.0248276293277740478515625</LongitudeDegrees>
            </Position>
            <AltitudeMeters>878.79998779296875</AltitudeMeters>
            <DistanceMeters>NAN</DistanceMeters>
          </Trackpoint>
          <Trackpoint>
            <Time>2019-08-01T10:56:52.000Z</Time>
            <Position>
              <LatitudeDegrees>40.61825425364077091217041015625</LatitudeDegrees>
              <LongitudeDegrees>-4.024865515530109405517578125</LongitudeDegrees>
            </Position>
            <AltitudeMeters>878.79998779296875</AltitudeMeters>
            <DistanceMeters>NAN</DistanceMeters>
          </Trackpoint>
          <Trackpoint>
            <Time>2019-08-01T10:56:53.000Z</Time>
            <Position>
              <LatitudeDegrees>40.6183314509689807891845703125</LatitudeDegrees>
              <LongitudeDegrees>-4.0248844586312770843505859375</LongitudeDegrees>
            </Position>
            <AltitudeMeters>878.79998779296875</AltitudeMeters>
            <DistanceMeters>NAN</DistanceMeters>
          </Trackpoint>
          <Trackpoint>
            <Time>2019-08-01T10:56:54.000Z</Time>
            <Position>
              <LatitudeDegrees>40.618409402668476104736328125</LatitudeDegrees>
              <LongitudeDegrees>-4.024903066456317901611328125</LongitudeDegrees>
            </Position>
            <AltitudeMeters>879</AltitudeMeters>
            <DistanceMeters>NAN</DistanceMeters>
          </Trackpoint>
          <Trackpoint>
            <Time>2019-08-01T10:56:55.000Z</Time>
            <Position>
              <LatitudeDegrees>40.61848760582506656646728515625</LatitudeDegrees>
              <LongitudeDegrees>-4.02492108754813671112060546875</LongitudeDegrees>
            </Position>
            <AltitudeMeters>879</AltitudeMeters>
            <DistanceMeters>NAN</DistanceMeters>
          </Trackpoint>
          <Trackpoint>
            <Time>2019-08-01T10:56:56.000Z</Time>
            <Position>
              <LatitudeDegrees>40.61856522224843502044677734375</LatitudeDegrees>
              <LongitudeDegrees>-4.02494070120155811309814453125</LongitudeDegrees>
            </Position>
            <AltitudeMeters>879</AltitudeMeters>
            <DistanceMeters>NAN</DistanceMeters>
          </Trackpoint>
          <Trackpoint>
            <Time>2019-08-01T10:56:57.000Z</Time>
            <Position>
              <LatitudeDegrees>40.61864267103374004364013671875</LatitudeDegrees>
              <LongitudeDegrees>-4.0249615721404552459716796875</LongitudeDegrees>
            </Position>
            <AltitudeMeters>879.20001220703125</AltitudeMeters>
            <DistanceMeters>NAN</DistanceMeters>
          </Trackpoint>
          <Trackpoint>
            <Time>2019-08-01T10:56:58.000Z</Time>
            <Position>
              <LatitudeDegrees>40.61872062273323535919189453125</LatitudeDegrees>
              <LongitudeDegrees>-4.02498294599354267120361328125</LongitudeDegrees>
            </Position>
            <AltitudeMeters>879.20001220703125</AltitudeMeters>
            <DistanceMeters>NAN</DistanceMeters>
          </Trackpoint>
          <Trackpoint>
            <Time>2019-08-01T10:56:59.000Z</Time>
            <Position>
              <LatitudeDegrees>40.61872062273323535919189453125</LatitudeDegrees>
              <LongitudeDegrees>-4.02498294599354267120361328125</LongitudeDegrees>
            </Position>
            <AltitudeMeters>879.20001220703125</AltitudeMeters>
            <DistanceMeters>NAN</DistanceMeters>
          </Trackpoint>
          <Trackpoint>
            <Time>2019-08-01T10:57:00.000Z</Time>
            <Position>
              <LatitudeDegrees>40.618874765932559967041015625</LatitudeDegrees>
              <LongitudeDegrees>-4.02502317912876605987548828125</LongitudeDegrees>
            </Position>
            <AltitudeMeters>879.20001220703125</AltitudeMeters>
            <DistanceMeters>NAN</DistanceMeters>
          </Trackpoint>
          <Trackpoint>
            <Time>2019-08-01T10:57:01.000Z</Time>
            <Position>
              <LatitudeDegrees>40.618874765932559967041015625</LatitudeDegrees>
              <LongitudeDegrees>-4.02502317912876605987548828125</LongitudeDegrees>
            </Position>
            <AltitudeMeters>879.20001220703125</AltitudeMeters>
            <DistanceMeters>NAN</DistanceMeters>
          </Trackpoint>
          <Trackpoint>
            <Time>2019-08-01T10:57:02.000Z</Time>
            <Position>
              <LatitudeDegrees>40.61902522109448909759521484375</LatitudeDegrees>
              <LongitudeDegrees>-4.02505905367434024810791015625</LongitudeDegrees>
            </Position>
            <AltitudeMeters>879.20001220703125</AltitudeMeters>
            <DistanceMeters>NAN</DistanceMeters>
          </Trackpoint>
          <Trackpoint>
            <Time>2019-08-01T10:57:03.000Z</Time>
            <Position>
              <LatitudeDegrees>40.6190968863666057586669921875</LatitudeDegrees>
              <LongitudeDegrees>-4.0250759012997150421142578125</LongitudeDegrees>
            </Position>
            <AltitudeMeters>879.20001220703125</AltitudeMeters>
            <DistanceMeters>NAN</DistanceMeters>
          </Trackpoint>
          <Trackpoint>
            <Time>2019-08-01T10:57:04.000Z</Time>
            <Position>
              <LatitudeDegrees>40.619166791439056396484375</LatitudeDegrees>
              <LongitudeDegrees>-4.02509174309670925140380859375</LongitudeDegrees>
            </Position>
            <AltitudeMeters>879.20001220703125</AltitudeMeters>
            <DistanceMeters>NAN</DistanceMeters>
          </Trackpoint>
          <Trackpoint>
            <Time>2019-08-01T10:57:05.000Z</Time>
            <Position>
              <LatitudeDegrees>40.61923451721668243408203125</LatitudeDegrees>
              <LongitudeDegrees>-4.025107584893703460693359375</LongitudeDegrees>
            </Position>
            <AltitudeMeters>879.4000244140625</AltitudeMeters>
            <DistanceMeters>NAN</DistanceMeters>
          </Trackpoint>
          <Trackpoint>
            <Time>2019-08-01T10:57:06.000Z</Time>
            <Position>
              <LatitudeDegrees>40.61930031515657901763916015625</LatitudeDegrees>
              <LongitudeDegrees>-4.0251235105097293853759765625</LongitudeDegrees>
            </Position>
            <AltitudeMeters>879.5999755859375</AltitudeMeters>
            <DistanceMeters>NAN</DistanceMeters>
          </Trackpoint>
          <Trackpoint>
            <Time>2019-08-01T10:57:07.000Z</Time>
            <Position>
              <LatitudeDegrees>40.6193637661635875701904296875</LatitudeDegrees>
              <LongitudeDegrees>-4.0251396037638187408447265625</LongitudeDegrees>
            </Position>
            <AltitudeMeters>879.5999755859375</AltitudeMeters>
            <DistanceMeters>NAN</DistanceMeters>
          </Trackpoint>
          <Trackpoint>
            <Time>2019-08-01T10:57:08.000Z</Time>
            <Position>
              <LatitudeDegrees>40.61942554078996181488037109375</LatitudeDegrees>
              <LongitudeDegrees>-4.02515578083693981170654296875</LongitudeDegrees>
            </Position>
            <AltitudeMeters>879.79998779296875</AltitudeMeters>
            <DistanceMeters>NAN</DistanceMeters>
          </Trackpoint>
          <Trackpoint>
            <Time>2019-08-01T10:57:09.000Z</Time>
            <Position>
              <LatitudeDegrees>40.61942554078996181488037109375</LatitudeDegrees>
              <LongitudeDegrees>-4.02515578083693981170654296875</LongitudeDegrees>
            </Position>
            <AltitudeMeters>879.79998779296875</AltitudeMeters>
            <DistanceMeters>NAN</DistanceMeters>
          </Trackpoint>
          <Trackpoint>
            <Time>2019-08-01T10:57:10.000Z</Time>
            <Position>
              <LatitudeDegrees>40.6195438094437122344970703125</LatitudeDegrees>
              <LongitudeDegrees>-4.02518344111740589141845703125</LongitudeDegrees>
            </Position>
            <AltitudeMeters>880</AltitudeMeters>
            <DistanceMeters>NAN</DistanceMeters>
          </Trackpoint>
          <Trackpoint>
            <Time>2019-08-01T10:57:11.000Z</Time>
            <Position>
              <LatitudeDegrees>40.6195438094437122344970703125</LatitudeDegrees>
              <LongitudeDegrees>-4.02518344111740589141845703125</LongitudeDegrees>
            </Position>
            <AltitudeMeters>880.20001220703125</AltitudeMeters>
            <DistanceMeters>NAN</DistanceMeters>
          </Trackpoint>
          <Trackpoint>
            <Time>2019-08-01T10:57:12.000Z</Time>
            <Position>
              <LatitudeDegrees>40.6195438094437122344970703125</LatitudeDegrees>
              <LongitudeDegrees>-4.02518344111740589141845703125</LongitudeDegrees>
            </Position>
            <AltitudeMeters>880.5999755859375</AltitudeMeters>
            <DistanceMeters>NAN</DistanceMeters>
          </Trackpoint>
          <Trackpoint>
            <Time>2019-08-01T10:57:13.000Z</Time>
            <Position>
              <LatitudeDegrees>40.619702227413654327392578125</LatitudeDegrees>
              <LongitudeDegrees>-4.025219567120075225830078125</LongitudeDegrees>
            </Position>
            <AltitudeMeters>881</AltitudeMeters>
            <DistanceMeters>NAN</DistanceMeters>
          </Trackpoint>
          <Trackpoint>
            <Time>2019-08-01T10:57:14.000Z</Time>
            <Position>
              <LatitudeDegrees>40.6197493337094783782958984375</LatitudeDegrees>
              <LongitudeDegrees>-4.02523121796548366546630859375</LongitudeDegrees>
            </Position>
            <AltitudeMeters>881.20001220703125</AltitudeMeters>
            <DistanceMeters>NAN</DistanceMeters>
          </Trackpoint>
          <Trackpoint>
            <Time>2019-08-01T10:57:15.000Z</Time>
            <Position>
              <LatitudeDegrees>40.6197956018149852752685546875</LatitudeDegrees>
              <LongitudeDegrees>-4.02524261735379695892333984375</LongitudeDegrees>
            </Position>
            <AltitudeMeters>881.4000244140625</AltitudeMeters>
            <DistanceMeters>NAN</DistanceMeters>
          </Trackpoint>
          <Trackpoint>
            <Time>2019-08-01T10:57:16.000Z</Time>
            <Position>
              <LatitudeDegrees>40.6198413670063018798828125</LatitudeDegrees>
              <LongitudeDegrees>-4.0252542681992053985595703125</LongitudeDegrees>
            </Position>
            <AltitudeMeters>882</AltitudeMeters>
            <DistanceMeters>NAN</DistanceMeters>
          </Trackpoint>
          <Trackpoint>
            <Time>2019-08-01T10:57:17.000Z</Time>
            <Position>
              <LatitudeDegrees>40.6198867969214916229248046875</LatitudeDegrees>
              <LongitudeDegrees>-4.025265164673328399658203125</LongitudeDegrees>
            </Position>
            <AltitudeMeters>882.4000244140625</AltitudeMeters>
            <DistanceMeters>NAN</DistanceMeters>
          </Trackpoint>
          <Trackpoint>
            <Time>2019-08-01T10:57:18.000Z</Time>
            <Position>
              <LatitudeDegrees>40.619932226836681365966796875</LatitudeDegrees>
              <LongitudeDegrees>-4.02527622878551483154296875</LongitudeDegrees>
            </Position>
            <AltitudeMeters>882.5999755859375</AltitudeMeters>
            <DistanceMeters>NAN</DistanceMeters>
          </Trackpoint>
          <Trackpoint>
            <Time>2019-08-01T10:57:19.000Z</Time>
            <Position>
              <LatitudeDegrees>40.619978494942188262939453125</LatitudeDegrees>
              <LongitudeDegrees>-4.02528704144060611724853515625</LongitudeDegrees>
            </Position>
            <AltitudeMeters>883</AltitudeMeters>
            <DistanceMeters>NAN</DistanceMeters>
          </Trackpoint>
          <Trackpoint>
            <Time>2019-08-01T10:57:20.000Z</Time>
            <Position>
              <LatitudeDegrees>40.62002576887607574462890625</LatitudeDegrees>
              <LongitudeDegrees>-4.0252991952002048492431640625</LongitudeDegrees>
            </Position>
            <AltitudeMeters>883.4000244140625</AltitudeMeters>
            <DistanceMeters>NAN</DistanceMeters>
          </Trackpoint>
          <Trackpoint>
            <Time>2019-08-01T10:57:21.000Z</Time>
            <Position>
              <LatitudeDegrees>40.62007346190512180328369140625</LatitudeDegrees>
              <LongitudeDegrees>-4.02531235478818416595458984375</LongitudeDegrees>
            </Position>
            <AltitudeMeters>884.20001220703125</AltitudeMeters>
            <DistanceMeters>NAN</DistanceMeters>
          </Trackpoint>
          <Trackpoint>
            <Time>2019-08-01T10:57:22.000Z</Time>
            <Position>
              <LatitudeDegrees>40.6201218254864215850830078125</LatitudeDegrees>
              <LongitudeDegrees>-4.02532492764294147491455078125</LongitudeDegrees>
            </Position>
            <AltitudeMeters>884.79998779296875</AltitudeMeters>
            <DistanceMeters>NAN</DistanceMeters>
          </Trackpoint>
          <Trackpoint>
            <Time>2019-08-01T10:57:23.000Z</Time>
            <Position>
              <LatitudeDegrees>40.620171613991260528564453125</LatitudeDegrees>
              <LongitudeDegrees>-4.02533766813576221466064453125</LongitudeDegrees>
            </Position>
            <AltitudeMeters>885.20001220703125</AltitudeMeters>
            <DistanceMeters>NAN</DistanceMeters>
          </Trackpoint>
          <Trackpoint>
            <Time>2019-08-01T10:57:24.000Z</Time>
            <Position>
              <LatitudeDegrees>40.62022081576287746429443359375</LatitudeDegrees>
              <LongitudeDegrees>-4.02535133063793182373046875</LongitudeDegrees>
            </Position>
            <AltitudeMeters>885.4000244140625</AltitudeMeters>
            <DistanceMeters>NAN</DistanceMeters>
          </Trackpoint>
          <Trackpoint>
            <Time>2019-08-01T10:57:25.000Z</Time>
            <Position>
              <LatitudeDegrees>40.6202680058777332305908203125</LatitudeDegrees>
              <LongitudeDegrees>-4.0253649093210697174072265625</LongitudeDegrees>
            </Position>
            <AltitudeMeters>885.5999755859375</AltitudeMeters>
            <DistanceMeters>NAN</DistanceMeters>
          </Trackpoint>
          <Trackpoint>
            <Time>2019-08-01T10:57:26.000Z</Time>
            <Position>
              <LatitudeDegrees>40.62031544744968414306640625</LatitudeDegrees>
              <LongitudeDegrees>-4.02537924237549304962158203125</LongitudeDegrees>
            </Position>
            <AltitudeMeters>885.79998779296875</AltitudeMeters>
            <DistanceMeters>NAN</DistanceMeters>
          </Trackpoint>
          <Trackpoint>
            <Time>2019-08-01T10:57:27.000Z</Time>
            <Position>
              <LatitudeDegrees>40.6203638948500156402587890625</LatitudeDegrees>
              <LongitudeDegrees>-4.02539365924894809722900390625</LongitudeDegrees>
            </Position>
            <AltitudeMeters>886.20001220703125</AltitudeMeters>
            <DistanceMeters>NAN</DistanceMeters>
          </Trackpoint>
          <Trackpoint>
            <Time>2019-08-01T10:57:28.000Z</Time>
            <Position>
              <LatitudeDegrees>40.62041276134550571441650390625</LatitudeDegrees>
              <LongitudeDegrees>-4.02540992014110088348388671875</LongitudeDegrees>
            </Position>
            <AltitudeMeters>886.5999755859375</AltitudeMeters>
            <DistanceMeters>NAN</DistanceMeters>
          </Trackpoint>
          <Trackpoint>
            <Time>2019-08-01T10:57:29.000Z</Time>
            <Position>
              <LatitudeDegrees>40.62046271748840808868408203125</LatitudeDegrees>
              <LongitudeDegrees>-4.02542701922357082366943359375</LongitudeDegrees>
            </Position>
            <AltitudeMeters>887</AltitudeMeters>
            <DistanceMeters>NAN</DistanceMeters>
          </Trackpoint>
          <Trackpoint>
            <Time>2019-08-01T10:57:30.000Z</Time>
            <Position>
              <LatitudeDegrees>40.6205144338309764862060546875</LatitudeDegrees>
              <LongitudeDegrees>-4.0254445374011993408203125</LongitudeDegrees>
            </Position>
            <AltitudeMeters>887.20001220703125</AltitudeMeters>
            <DistanceMeters>NAN</DistanceMeters>
          </Trackpoint>
          <Trackpoint>
            <Time>2019-08-01T10:57:31.000Z</Time>
            <Position>
              <LatitudeDegrees>40.62056816183030605316162109375</LatitudeDegrees>
              <LongitudeDegrees>-4.0254628099501132965087890625</LongitudeDegrees>
            </Position>
            <AltitudeMeters>887.4000244140625</AltitudeMeters>
            <DistanceMeters>NAN</DistanceMeters>
          </Trackpoint>
          <Trackpoint>
            <Time>2019-08-01T10:57:32.000Z</Time>
            <Position>
              <LatitudeDegrees>40.62062415294349193572998046875</LatitudeDegrees>
              <LongitudeDegrees>-4.025480747222900390625</LongitudeDegrees>
            </Position>
            <AltitudeMeters>887.5999755859375</AltitudeMeters>
            <DistanceMeters>NAN</DistanceMeters>
          </Trackpoint>
          <Trackpoint>
            <Time>2019-08-01T10:57:33.000Z</Time>
            <Position>
              <LatitudeDegrees>40.62068282626569271087646484375</LatitudeDegrees>
              <LongitudeDegrees>-4.025498516857624053955078125</LongitudeDegrees>
            </Position>
            <AltitudeMeters>887.79998779296875</AltitudeMeters>
            <DistanceMeters>NAN</DistanceMeters>
          </Trackpoint>
          <Trackpoint>
            <Time>2019-08-01T10:57:34.000Z</Time>
            <Position>
              <LatitudeDegrees>40.62074460089206695556640625</LatitudeDegrees>
              <LongitudeDegrees>-4.02551804669201374053955078125</LongitudeDegrees>
            </Position>
            <AltitudeMeters>888</AltitudeMeters>
            <DistanceMeters>NAN</DistanceMeters>
          </Trackpoint>
          <Trackpoint>
            <Time>2019-08-01T10:57:35.000Z</Time>
            <Position>
              <LatitudeDegrees>40.6208096444606781005859375</LatitudeDegrees>
              <LongitudeDegrees>-4.02554034255445003509521484375</LongitudeDegrees>
            </Position>
            <AltitudeMeters>888.20001220703125</AltitudeMeters>
            <DistanceMeters>NAN</DistanceMeters>
          </Trackpoint>
          <Trackpoint>
            <Time>2019-08-01T10:57:36.000Z</Time>
            <Position>
              <LatitudeDegrees>40.62087762169539928436279296875</LatitudeDegrees>
              <LongitudeDegrees>-4.02556448243558406829833984375</LongitudeDegrees>
            </Position>
            <AltitudeMeters>888.20001220703125</AltitudeMeters>
            <DistanceMeters>NAN</DistanceMeters>
          </Trackpoint>
          <Trackpoint>
            <Time>2019-08-01T10:57:37.000Z</Time>
            <Position>
              <LatitudeDegrees>40.62094920314848423004150390625</LatitudeDegrees>
              <LongitudeDegrees>-4.025589041411876678466796875</LongitudeDegrees>
            </Position>
            <AltitudeMeters>888.4000244140625</AltitudeMeters>
            <DistanceMeters>NAN</DistanceMeters>
          </Trackpoint>
          <Trackpoint>
            <Time>2019-08-01T10:57:38.000Z</Time>
            <Position>
              <LatitudeDegrees>40.6210247240960597991943359375</LatitudeDegrees>
              <LongitudeDegrees>-4.02561561204493045806884765625</LongitudeDegrees>
            </Position>
            <AltitudeMeters>888.4000244140625</AltitudeMeters>
            <DistanceMeters>NAN</DistanceMeters>
          </Trackpoint>
          <Trackpoint>
            <Time>2019-08-01T10:57:39.000Z</Time>
            <Position>
              <LatitudeDegrees>40.621105022728443145751953125</LatitudeDegrees>
              <LongitudeDegrees>-4.0256441943347454071044921875</LongitudeDegrees>
            </Position>
            <AltitudeMeters>888.4000244140625</AltitudeMeters>
            <DistanceMeters>NAN</DistanceMeters>
          </Trackpoint>
          <Trackpoint>
            <Time>2019-08-01T10:57:40.000Z</Time>
            <Position>
              <LatitudeDegrees>40.62118984758853912353515625</LatitudeDegrees>
              <LongitudeDegrees>-4.02567395009100437164306640625</LongitudeDegrees>
            </Position>
            <AltitudeMeters>888.4000244140625</AltitudeMeters>
            <DistanceMeters>NAN</DistanceMeters>
          </Trackpoint>
          <Trackpoint>
            <Time>2019-08-01T10:57:41.000Z</Time>
            <Position>
              <LatitudeDegrees>40.62127894721925258636474609375</LatitudeDegrees>
              <LongitudeDegrees>-4.0257047116756439208984375</LongitudeDegrees>
            </Position>
            <AltitudeMeters>888.4000244140625</AltitudeMeters>
            <DistanceMeters>NAN</DistanceMeters>
          </Trackpoint>
          <Trackpoint>
            <Time>2019-08-01T10:57:42.000Z</Time>
            <Position>
              <LatitudeDegrees>40.62137282453477382659912109375</LatitudeDegrees>
              <LongitudeDegrees>-4.02573714964091777801513671875</LongitudeDegrees>
            </Position>
            <AltitudeMeters>888.4000244140625</AltitudeMeters>
            <DistanceMeters>NAN</DistanceMeters>
          </Trackpoint>
          <Trackpoint>
            <Time>2019-08-01T10:57:43.000Z</Time>
            <Position>
              <LatitudeDegrees>40.62147156335413455963134765625</LatitudeDegrees>
              <LongitudeDegrees>-4.02577201835811138153076171875</LongitudeDegrees>
            </Position>
            <AltitudeMeters>888.4000244140625</AltitudeMeters>
            <DistanceMeters>NAN</DistanceMeters>
          </Trackpoint>
          <Trackpoint>
            <Time>2019-08-01T10:57:44.000Z</Time>
            <Position>
              <LatitudeDegrees>40.6215739063918590545654296875</LatitudeDegrees>
              <LongitudeDegrees>-4.02580864727497100830078125</LongitudeDegrees>
            </Position>
            <AltitudeMeters>888.4000244140625</AltitudeMeters>
            <DistanceMeters>NAN</DistanceMeters>
          </Trackpoint>
          <Trackpoint>
            <Time>2019-08-01T10:57:45.000Z</Time>
            <Position>
              <LatitudeDegrees>40.6215739063918590545654296875</LatitudeDegrees>
              <LongitudeDegrees>-4.02580864727497100830078125</LongitudeDegrees>
            </Position>
            <AltitudeMeters>888</AltitudeMeters>
            <DistanceMeters>NAN</DistanceMeters>
          </Trackpoint>
          <Trackpoint>
            <Time>2019-08-01T10:57:46.000Z</Time>
            <Position>
              <LatitudeDegrees>40.6217898242175579071044921875</LatitudeDegrees>
              <LongitudeDegrees>-4.0258842520415782928466796875</LongitudeDegrees>
            </Position>
            <AltitudeMeters>887.5999755859375</AltitudeMeters>
            <DistanceMeters>NAN</DistanceMeters>
          </Trackpoint>
          <Trackpoint>
            <Time>2019-08-01T10:57:47.000Z</Time>
            <Position>
              <LatitudeDegrees>40.621902979910373687744140625</LatitudeDegrees>
              <LongitudeDegrees>-4.025924317538738250732421875</LongitudeDegrees>
            </Position>
            <AltitudeMeters>887.20001220703125</AltitudeMeters>
            <DistanceMeters>NAN</DistanceMeters>
          </Trackpoint>
          <Trackpoint>
            <Time>2019-08-01T10:57:48.000Z</Time>
            <Position>
              <LatitudeDegrees>40.6220184825360774993896484375</LatitudeDegrees>
              <LongitudeDegrees>-4.0259648859500885009765625</LongitudeDegrees>
            </Position>
            <AltitudeMeters>885.79998779296875</AltitudeMeters>
            <DistanceMeters>NAN</DistanceMeters>
          </Trackpoint>
          <Trackpoint>
            <Time>2019-08-01T10:57:49.000Z</Time>
            <Position>
              <LatitudeDegrees>40.6221346557140350341796875</LatitudeDegrees>
              <LongitudeDegrees>-4.0260056219995021820068359375</LongitudeDegrees>
            </Position>
            <AltitudeMeters>885.20001220703125</AltitudeMeters>
            <DistanceMeters>NAN</DistanceMeters>
          </Trackpoint>
          <Trackpoint>
            <Time>2019-08-01T10:57:50.000Z</Time>
            <Position>
              <LatitudeDegrees>40.62225040979683399200439453125</LatitudeDegrees>
              <LongitudeDegrees>-4.026046693325042724609375</LongitudeDegrees>
            </Position>
            <AltitudeMeters>884.4000244140625</AltitudeMeters>
            <DistanceMeters>NAN</DistanceMeters>
          </Trackpoint>
          <Trackpoint>
            <Time>2019-08-01T10:57:51.000Z</Time>
            <Position>
              <LatitudeDegrees>40.62236473895609378814697265625</LatitudeDegrees>
              <LongitudeDegrees>-4.026085920631885528564453125</LongitudeDegrees>
            </Position>
            <AltitudeMeters>883.4000244140625</AltitudeMeters>
            <DistanceMeters>NAN</DistanceMeters>
          </Trackpoint>
          <Trackpoint>
            <Time>2019-08-01T10:57:52.000Z</Time>
            <Position>
              <LatitudeDegrees>40.62247789464890956878662109375</LatitudeDegrees>
              <LongitudeDegrees>-4.02612405829131603240966796875</LongitudeDegrees>
            </Position>
            <AltitudeMeters>882.20001220703125</AltitudeMeters>
            <DistanceMeters>NAN</DistanceMeters>
          </Trackpoint>
          <Trackpoint>
            <Time>2019-08-01T10:57:53.000Z</Time>
            <Position>
              <LatitudeDegrees>40.62258920632302761077880859375</LatitudeDegrees>
              <LongitudeDegrees>-4.026161693036556243896484375</LongitudeDegrees>
            </Position>
            <AltitudeMeters>881</AltitudeMeters>
            <DistanceMeters>NAN</DistanceMeters>
          </Trackpoint>
          <Trackpoint>
            <Time>2019-08-01T10:57:54.000Z</Time>
            <Position>
              <LatitudeDegrees>40.62269850634038448333740234375</LatitudeDegrees>
              <LongitudeDegrees>-4.026198573410511016845703125</LongitudeDegrees>
            </Position>
            <AltitudeMeters>880.20001220703125</AltitudeMeters>
            <DistanceMeters>NAN</DistanceMeters>
          </Trackpoint>
          <Trackpoint>
            <Time>2019-08-01T10:57:55.000Z</Time>
            <Position>
              <LatitudeDegrees>40.62280545942485332489013671875</LatitudeDegrees>
              <LongitudeDegrees>-4.02623520232737064361572265625</LongitudeDegrees>
            </Position>
            <AltitudeMeters>879.20001220703125</AltitudeMeters>
            <DistanceMeters>NAN</DistanceMeters>
          </Trackpoint>
          <Trackpoint>
            <Time>2019-08-01T10:57:56.000Z</Time>
            <Position>
              <LatitudeDegrees>40.6229106523096561431884765625</LatitudeDegrees>
              <LongitudeDegrees>-4.02627057395875453948974609375</LongitudeDegrees>
            </Position>
            <AltitudeMeters>878.20001220703125</AltitudeMeters>
            <DistanceMeters>NAN</DistanceMeters>
          </Trackpoint>
          <Trackpoint>
            <Time>2019-08-01T10:57:57.000Z</Time>
            <Position>
              <LatitudeDegrees>40.623013079166412353515625</LatitudeDegrees>
              <LongitudeDegrees>-4.02630527503788471221923828125</LongitudeDegrees>
            </Position>
            <AltitudeMeters>877.79998779296875</AltitudeMeters>
            <DistanceMeters>NAN</DistanceMeters>
          </Trackpoint>
          <Trackpoint>
            <Time>2019-08-01T10:57:58.000Z</Time>
            <Position>
              <LatitudeDegrees>40.6231128238141536712646484375</LatitudeDegrees>
              <LongitudeDegrees>-4.02634031139314174652099609375</LongitudeDegrees>
            </Position>
            <AltitudeMeters>877.5999755859375</AltitudeMeters>
            <DistanceMeters>NAN</DistanceMeters>
          </Trackpoint>
          <Trackpoint>
            <Time>2019-08-01T10:57:59.000Z</Time>
            <Position>
              <LatitudeDegrees>40.6232097186148166656494140625</LatitudeDegrees>
              <LongitudeDegrees>-4.0263752639293670654296875</LongitudeDegrees>
            </Position>
            <AltitudeMeters>877.4000244140625</AltitudeMeters>
            <DistanceMeters>NAN</DistanceMeters>
          </Trackpoint>
          <Trackpoint>
            <Time>2019-08-01T10:58:00.000Z</Time>
            <Position>
              <LatitudeDegrees>40.62330435030162334442138671875</LatitudeDegrees>
              <LongitudeDegrees>-4.02640677988529205322265625</LongitudeDegrees>
            </Position>
            <AltitudeMeters>877.4000244140625</AltitudeMeters>
            <DistanceMeters>NAN</DistanceMeters>
          </Trackpoint>
          <Trackpoint>
            <Time>2019-08-01T10:58:01.000Z</Time>
            <Position>
              <LatitudeDegrees>40.6233966350555419921875</LatitudeDegrees>
              <LongitudeDegrees>-4.02643620036542415618896484375</LongitudeDegrees>
            </Position>
            <AltitudeMeters>877.4000244140625</AltitudeMeters>
            <DistanceMeters>NAN</DistanceMeters>
          </Trackpoint>
          <Trackpoint>
            <Time>2019-08-01T10:58:02.000Z</Time>
            <Position>
              <LatitudeDegrees>40.623485483229160308837890625</LatitudeDegrees>
              <LongitudeDegrees>-4.0264652855694293975830078125</LongitudeDegrees>
            </Position>
            <AltitudeMeters>877.20001220703125</AltitudeMeters>
            <DistanceMeters>NAN</DistanceMeters>
          </Trackpoint>
          <Trackpoint>
            <Time>2019-08-01T10:58:03.000Z</Time>
            <Position>
              <LatitudeDegrees>40.623571984469890594482421875</LatitudeDegrees>
              <LongitudeDegrees>-4.02649302966892719268798828125</LongitudeDegrees>
            </Position>
            <AltitudeMeters>877.20001220703125</AltitudeMeters>
            <DistanceMeters>NAN</DistanceMeters>
          </Trackpoint>
          <Trackpoint>
            <Time>2019-08-01T10:58:04.000Z</Time>
            <Position>
              <LatitudeDegrees>40.62365722842514514923095703125</LatitudeDegrees>
              <LongitudeDegrees>-4.02651968412101268768310546875</LongitudeDegrees>
            </Position>
            <AltitudeMeters>877.20001220703125</AltitudeMeters>
            <DistanceMeters>NAN</DistanceMeters>
          </Trackpoint>
          <Trackpoint>
            <Time>2019-08-01T10:58:05.000Z</Time>
            <Position>
              <LatitudeDegrees>40.62374104745686054229736328125</LatitudeDegrees>
              <LongitudeDegrees>-4.02654617093503475189208984375</LongitudeDegrees>
            </Position>
            <AltitudeMeters>877.20001220703125</AltitudeMeters>
            <DistanceMeters>NAN</DistanceMeters>
          </Trackpoint>
          <Trackpoint>
            <Time>2019-08-01T10:58:06.000Z</Time>
            <Position>
              <LatitudeDegrees>40.62382369302213191986083984375</LatitudeDegrees>
              <LongitudeDegrees>-4.026572741568088531494140625</LongitudeDegrees>
            </Position>
            <AltitudeMeters>877.20001220703125</AltitudeMeters>
            <DistanceMeters>NAN</DistanceMeters>
          </Trackpoint>
          <Trackpoint>
            <Time>2019-08-01T10:58:07.000Z</Time>
            <Position>
              <LatitudeDegrees>40.62390533275902271270751953125</LatitudeDegrees>
              <LongitudeDegrees>-4.0265980549156665802001953125</LongitudeDegrees>
            </Position>
            <AltitudeMeters>877.4000244140625</AltitudeMeters>
            <DistanceMeters>NAN</DistanceMeters>
          </Trackpoint>
          <Trackpoint>
            <Time>2019-08-01T10:58:08.000Z</Time>
            <Position>
              <LatitudeDegrees>40.6239862181246280670166015625</LatitudeDegrees>
              <LongitudeDegrees>-4.0266228653490543365478515625</LongitudeDegrees>
            </Position>
            <AltitudeMeters>877.5999755859375</AltitudeMeters>
            <DistanceMeters>NAN</DistanceMeters>
          </Trackpoint>
          <Trackpoint>
            <Time>2019-08-01T10:58:09.000Z</Time>
            <Position>
              <LatitudeDegrees>40.62406609766185283660888671875</LatitudeDegrees>
              <LongitudeDegrees>-4.02664683759212493896484375</LongitudeDegrees>
            </Position>
            <AltitudeMeters>878</AltitudeMeters>
            <DistanceMeters>NAN</DistanceMeters>
          </Trackpoint>
          <Trackpoint>
            <Time>2019-08-01T10:58:10.000Z</Time>
            <Position>
              <LatitudeDegrees>40.624144636094570159912109375</LatitudeDegrees>
              <LongitudeDegrees>-4.02666972018778324127197265625</LongitudeDegrees>
            </Position>
            <AltitudeMeters>878.5999755859375</AltitudeMeters>
            <DistanceMeters>NAN</DistanceMeters>
          </Trackpoint>
          <Trackpoint>
            <Time>2019-08-01T10:58:11.000Z</Time>
            <Position>
              <LatitudeDegrees>40.62422149814665317535400390625</LatitudeDegrees>
              <LongitudeDegrees>-4.026692099869251251220703125</LongitudeDegrees>
            </Position>
            <AltitudeMeters>879</AltitudeMeters>
            <DistanceMeters>NAN</DistanceMeters>
          </Trackpoint>
          <Trackpoint>
            <Time>2019-08-01T10:58:12.000Z</Time>
            <Position>
              <LatitudeDegrees>40.6242973543703556060791015625</LatitudeDegrees>
              <LongitudeDegrees>-4.02671313844621181488037109375</LongitudeDegrees>
            </Position>
            <AltitudeMeters>879.5999755859375</AltitudeMeters>
            <DistanceMeters>NAN</DistanceMeters>
          </Trackpoint>
          <Trackpoint>
            <Time>2019-08-01T10:58:13.000Z</Time>
            <Position>
              <LatitudeDegrees>40.6243721209466457366943359375</LatitudeDegrees>
              <LongitudeDegrees>-4.026730991899967193603515625</LongitudeDegrees>
            </Position>
            <AltitudeMeters>880</AltitudeMeters>
            <DistanceMeters>NAN</DistanceMeters>
          </Trackpoint>
          <Trackpoint>
            <Time>2019-08-01T10:58:14.000Z</Time>
            <Position>
              <LatitudeDegrees>40.6244452111423015594482421875</LatitudeDegrees>
              <LongitudeDegrees>-4.02674599550664424896240234375</LongitudeDegrees>
            </Position>
            <AltitudeMeters>880.20001220703125</AltitudeMeters>
            <DistanceMeters>NAN</DistanceMeters>
          </Trackpoint>
          <Trackpoint>
            <Time>2019-08-01T10:58:15.000Z</Time>
            <Position>
              <LatitudeDegrees>40.62451670877635478973388671875</LatitudeDegrees>
              <LongitudeDegrees>-4.02675655670464038848876953125</LongitudeDegrees>
            </Position>
            <AltitudeMeters>880.4000244140625</AltitudeMeters>
            <DistanceMeters>NAN</DistanceMeters>
          </Trackpoint>
          <Trackpoint>
            <Time>2019-08-01T10:58:16.000Z</Time>
            <Position>
              <LatitudeDegrees>40.62458929605782032012939453125</LatitudeDegrees>
              <LongitudeDegrees>-4.0267623402178287506103515625</LongitudeDegrees>
            </Position>
            <AltitudeMeters>880.79998779296875</AltitudeMeters>
            <DistanceMeters>NAN</DistanceMeters>
          </Trackpoint>
          <Trackpoint>
            <Time>2019-08-01T10:58:17.000Z</Time>
            <Position>
              <LatitudeDegrees>40.624662972986698150634765625</LatitudeDegrees>
              <LongitudeDegrees>-4.026755802333354949951171875</LongitudeDegrees>
            </Position>
            <AltitudeMeters>881</AltitudeMeters>
            <DistanceMeters>NAN</DistanceMeters>
          </Trackpoint>
          <Trackpoint>
            <Time>2019-08-01T10:58:18.000Z</Time>
            <Position>
              <LatitudeDegrees>40.62473530881106853485107421875</LatitudeDegrees>
              <LongitudeDegrees>-4.02672554366290569305419921875</LongitudeDegrees>
            </Position>
            <AltitudeMeters>881.4000244140625</AltitudeMeters>
            <DistanceMeters>NAN</DistanceMeters>
          </Trackpoint>
          <Trackpoint>
            <Time>2019-08-01T10:58:19.000Z</Time>
            <Position>
              <LatitudeDegrees>40.62480839900672435760498046875</LatitudeDegrees>
              <LongitudeDegrees>-4.02668313123285770416259765625</LongitudeDegrees>
            </Position>
            <AltitudeMeters>881.5999755859375</AltitudeMeters>
            <DistanceMeters>NAN</DistanceMeters>
          </Trackpoint>
          <Trackpoint>
            <Time>2019-08-01T10:58:20.000Z</Time>
            <Position>
              <LatitudeDegrees>40.624881573021411895751953125</LatitudeDegrees>
              <LongitudeDegrees>-4.02664038352668285369873046875</LongitudeDegrees>
            </Position>
            <AltitudeMeters>881.79998779296875</AltitudeMeters>
            <DistanceMeters>NAN</DistanceMeters>
          </Trackpoint>
          <Trackpoint>
            <Time>2019-08-01T10:58:21.000Z</Time>
            <Position>
              <LatitudeDegrees>40.6249514780938625335693359375</LatitudeDegrees>
              <LongitudeDegrees>-4.0265930257737636566162109375</LongitudeDegrees>
            </Position>
            <AltitudeMeters>881.79998779296875</AltitudeMeters>
            <DistanceMeters>NAN</DistanceMeters>
          </Trackpoint>
          <Trackpoint>
            <Time>2019-08-01T10:58:22.000Z</Time>
            <Position>
              <LatitudeDegrees>40.6250148452818393707275390625</LatitudeDegrees>
              <LongitudeDegrees>-4.026531167328357696533203125</LongitudeDegrees>
            </Position>
            <AltitudeMeters>882</AltitudeMeters>
            <DistanceMeters>NAN</DistanceMeters>
          </Trackpoint>
          <Trackpoint>
            <Time>2019-08-01T10:58:23.000Z</Time>
            <Position>
              <LatitudeDegrees>40.62506496906280517578125</LatitudeDegrees>
              <LongitudeDegrees>-4.0264538861811161041259765625</LongitudeDegrees>
            </Position>
            <AltitudeMeters>882</AltitudeMeters>
            <DistanceMeters>NAN</DistanceMeters>
          </Trackpoint>
          <Trackpoint>
            <Time>2019-08-01T10:58:24.000Z</Time>
            <Position>
              <LatitudeDegrees>40.625097490847110748291015625</LatitudeDegrees>
              <LongitudeDegrees>-4.02636210434138774871826171875</LongitudeDegrees>
            </Position>
            <AltitudeMeters>882</AltitudeMeters>
            <DistanceMeters>NAN</DistanceMeters>
          </Trackpoint>
          <Trackpoint>
            <Time>2019-08-01T10:58:25.000Z</Time>
            <Position>
              <LatitudeDegrees>40.6251251511275768280029296875</LatitudeDegrees>
              <LongitudeDegrees>-4.026264958083629608154296875</LongitudeDegrees>
            </Position>
            <AltitudeMeters>882</AltitudeMeters>
            <DistanceMeters>NAN</DistanceMeters>
          </Trackpoint>
          <Trackpoint>
            <Time>2019-08-01T10:58:26.000Z</Time>
            <Position>
              <LatitudeDegrees>40.62516664154827594757080078125</LatitudeDegrees>
              <LongitudeDegrees>-4.02618139050900936126708984375</LongitudeDegrees>
            </Position>
            <AltitudeMeters>882</AltitudeMeters>
            <DistanceMeters>NAN</DistanceMeters>
          </Trackpoint>
          <Trackpoint>
            <Time>2019-08-01T10:58:27.000Z</Time>
            <Position>
              <LatitudeDegrees>40.625218190252780914306640625</LatitudeDegrees>
              <LongitudeDegrees>-4.0261370502412319183349609375</LongitudeDegrees>
            </Position>
            <AltitudeMeters>882.20001220703125</AltitudeMeters>
            <DistanceMeters>NAN</DistanceMeters>
          </Trackpoint>
          <Trackpoint>
            <Time>2019-08-01T10:58:28.000Z</Time>
            <Position>
              <LatitudeDegrees>40.62527426518499851226806640625</LatitudeDegrees>
              <LongitudeDegrees>-4.0261340327560901641845703125</LongitudeDegrees>
            </Position>
            <AltitudeMeters>882.20001220703125</AltitudeMeters>
            <DistanceMeters>NAN</DistanceMeters>
          </Trackpoint>
          <Trackpoint>
            <Time>2019-08-01T10:58:29.000Z</Time>
            <Position>
              <LatitudeDegrees>40.6253263168036937713623046875</LatitudeDegrees>
              <LongitudeDegrees>-4.026161693036556243896484375</LongitudeDegrees>
            </Position>
            <AltitudeMeters>882.4000244140625</AltitudeMeters>
            <DistanceMeters>NAN</DistanceMeters>
          </Trackpoint>
          <Trackpoint>
            <Time>2019-08-01T10:58:30.000Z</Time>
            <Position>
              <LatitudeDegrees>40.62537610530853271484375</LatitudeDegrees>
              <LongitudeDegrees>-4.02619731612503528594970703125</LongitudeDegrees>
            </Position>
            <AltitudeMeters>882.4000244140625</AltitudeMeters>
            <DistanceMeters>NAN</DistanceMeters>
          </Trackpoint>
          <Trackpoint>
            <Time>2019-08-01T10:58:31.000Z</Time>
            <Position>
              <LatitudeDegrees>40.625432096421718597412109375</LatitudeDegrees>
              <LongitudeDegrees>-4.02621692977845668792724609375</LongitudeDegrees>
            </Position>
            <AltitudeMeters>882.5999755859375</AltitudeMeters>
            <DistanceMeters>NAN</DistanceMeters>
          </Trackpoint>
          <Trackpoint>
            <Time>2019-08-01T10:58:32.000Z</Time>
            <Position>
              <LatitudeDegrees>40.625487081706523895263671875</LatitudeDegrees>
              <LongitudeDegrees>-4.02622011490166187286376953125</LongitudeDegrees>
            </Position>
            <AltitudeMeters>882.5999755859375</AltitudeMeters>
            <DistanceMeters>NAN</DistanceMeters>
          </Trackpoint>
          <Trackpoint>
            <Time>2019-08-01T10:58:33.000Z</Time>
            <Position>
              <LatitudeDegrees>40.625540725886821746826171875</LatitudeDegrees>
              <LongitudeDegrees>-4.02621005661785602569580078125</LongitudeDegrees>
            </Position>
            <AltitudeMeters>882.5999755859375</AltitudeMeters>
            <DistanceMeters>NAN</DistanceMeters>
          </Trackpoint>
          <Trackpoint>
            <Time>2019-08-01T10:58:34.000Z</Time>
            <Position>
              <LatitudeDegrees>40.62558942474424839019775390625</LatitudeDegrees>
              <LongitudeDegrees>-4.02619278989732265472412109375</LongitudeDegrees>
            </Position>
            <AltitudeMeters>882.5999755859375</AltitudeMeters>
            <DistanceMeters>NAN</DistanceMeters>
          </Trackpoint>
          <Trackpoint>
            <Time>2019-08-01T10:58:35.000Z</Time>
            <Position>
              <LatitudeDegrees>40.625636614859104156494140625</LatitudeDegrees>
              <LongitudeDegrees>-4.02617317624390125274658203125</LongitudeDegrees>
            </Position>
            <AltitudeMeters>882.5999755859375</AltitudeMeters>
            <DistanceMeters>NAN</DistanceMeters>
          </Trackpoint>
          <Trackpoint>
            <Time>2019-08-01T10:58:36.000Z</Time>
            <Position>
              <LatitudeDegrees>40.6256857328116893768310546875</LatitudeDegrees>
              <LongitudeDegrees>-4.02615171857178211212158203125</LongitudeDegrees>
            </Position>
            <AltitudeMeters>882.5999755859375</AltitudeMeters>
            <DistanceMeters>NAN</DistanceMeters>
          </Trackpoint>
          <Trackpoint>
            <Time>2019-08-01T10:58:37.000Z</Time>
            <Position>
              <LatitudeDegrees>40.62573577277362346649169921875</LatitudeDegrees>
              <LongitudeDegrees>-4.02612724341452121734619140625</LongitudeDegrees>
            </Position>
            <AltitudeMeters>882.79998779296875</AltitudeMeters>
            <DistanceMeters>NAN</DistanceMeters>
          </Trackpoint>
          <Trackpoint>
            <Time>2019-08-01T10:58:38.000Z</Time>
            <Position>
              <LatitudeDegrees>40.6257940270006656646728515625</LatitudeDegrees>
              <LongitudeDegrees>-4.02609958313405513763427734375</LongitudeDegrees>
            </Position>
            <AltitudeMeters>883</AltitudeMeters>
            <DistanceMeters>NAN</DistanceMeters>
          </Trackpoint>
          <Trackpoint>
            <Time>2019-08-01T10:58:39.000Z</Time>
            <Position>
              <LatitudeDegrees>40.62584691680967807769775390625</LatitudeDegrees>
              <LongitudeDegrees>-4.0260679833590984344482421875</LongitudeDegrees>
            </Position>
            <AltitudeMeters>883.4000244140625</AltitudeMeters>
            <DistanceMeters>NAN</DistanceMeters>
          </Trackpoint>
          <Trackpoint>
            <Time>2019-08-01T10:58:40.000Z</Time>
            <Position>
              <LatitudeDegrees>40.6259076856076717376708984375</LatitudeDegrees>
              <LongitudeDegrees>-4.026030600070953369140625</LongitudeDegrees>
            </Position>
            <AltitudeMeters>883.79998779296875</AltitudeMeters>
            <DistanceMeters>NAN</DistanceMeters>
          </Trackpoint>
          <Trackpoint>
            <Time>2019-08-01T10:58:41.000Z</Time>
            <Position>
              <LatitudeDegrees>40.62597356736660003662109375</LatitudeDegrees>
              <LongitudeDegrees>-4.025992043316364288330078125</LongitudeDegrees>
            </Position>
            <AltitudeMeters>884.20001220703125</AltitudeMeters>
            <DistanceMeters>NAN</DistanceMeters>
          </Trackpoint>
          <Trackpoint>
            <Time>2019-08-01T10:58:42.000Z</Time>
            <Position>
              <LatitudeDegrees>40.62604523263871669769287109375</LatitudeDegrees>
              <LongitudeDegrees>-4.02595172636210918426513671875</LongitudeDegrees>
            </Position>
            <AltitudeMeters>884.4000244140625</AltitudeMeters>
            <DistanceMeters>NAN</DistanceMeters>
          </Trackpoint>
          <Trackpoint>
            <Time>2019-08-01T10:58:43.000Z</Time>
            <Position>
              <LatitudeDegrees>40.62604523263871669769287109375</LatitudeDegrees>
              <LongitudeDegrees>-4.02595172636210918426513671875</LongitudeDegrees>
            </Position>
            <AltitudeMeters>884.5999755859375</AltitudeMeters>
            <DistanceMeters>NAN</DistanceMeters>
          </Trackpoint>
          <Trackpoint>
            <Time>2019-08-01T10:58:44.000Z</Time>
            <Position>
              <LatitudeDegrees>40.62620432116091251373291015625</LatitudeDegrees>
              <LongitudeDegrees>-4.02586287818849086761474609375</LongitudeDegrees>
            </Position>
            <AltitudeMeters>884.5999755859375</AltitudeMeters>
            <DistanceMeters>NAN</DistanceMeters>
          </Trackpoint>
          <Trackpoint>
            <Time>2019-08-01T10:58:45.000Z</Time>
            <Position>
              <LatitudeDegrees>40.62628830783069133758544921875</LatitudeDegrees>
              <LongitudeDegrees>-4.02581577189266681671142578125</LongitudeDegrees>
            </Position>
            <AltitudeMeters>884.5999755859375</AltitudeMeters>
            <DistanceMeters>NAN</DistanceMeters>
          </Trackpoint>
          <Trackpoint>
            <Time>2019-08-01T10:58:46.000Z</Time>
            <Position>
              <LatitudeDegrees>40.62628830783069133758544921875</LatitudeDegrees>
              <LongitudeDegrees>-4.02581577189266681671142578125</LongitudeDegrees>
            </Position>
            <AltitudeMeters>884.5999755859375</AltitudeMeters>
            <DistanceMeters>NAN</DistanceMeters>
          </Trackpoint>
          <Trackpoint>
            <Time>2019-08-01T10:58:47.000Z</Time>
            <Position>
              <LatitudeDegrees>40.6264572031795978546142578125</LatitudeDegrees>
              <LongitudeDegrees>-4.025724828243255615234375</LongitudeDegrees>
            </Position>
            <AltitudeMeters>884.5999755859375</AltitudeMeters>
            <DistanceMeters>NAN</DistanceMeters>
          </Trackpoint>
          <Trackpoint>
            <Time>2019-08-01T10:58:48.000Z</Time>
            <Position>
              <LatitudeDegrees>40.6265413574874401092529296875</LatitudeDegrees>
              <LongitudeDegrees>-4.0256844274699687957763671875</LongitudeDegrees>
            </Position>
            <AltitudeMeters>884.5999755859375</AltitudeMeters>
            <DistanceMeters>NAN</DistanceMeters>
          </Trackpoint>
          <Trackpoint>
            <Time>2019-08-01T10:58:49.000Z</Time>
            <Position>
              <LatitudeDegrees>40.62662241049110889434814453125</LatitudeDegrees>
              <LongitudeDegrees>-4.025644697248935699462890625</LongitudeDegrees>
            </Position>
            <AltitudeMeters>884.5999755859375</AltitudeMeters>
            <DistanceMeters>NAN</DistanceMeters>
          </Trackpoint>
          <Trackpoint>
            <Time>2019-08-01T10:58:50.000Z</Time>
            <Position>
              <LatitudeDegrees>40.6267029605805873870849609375</LatitudeDegrees>
              <LongitudeDegrees>-4.025612510740756988525390625</LongitudeDegrees>
            </Position>
            <AltitudeMeters>884</AltitudeMeters>
            <DistanceMeters>NAN</DistanceMeters>
          </Trackpoint>
          <Trackpoint>
            <Time>2019-08-01T10:58:51.000Z</Time>
            <Position>
              <LatitudeDegrees>40.626784600317478179931640625</LatitudeDegrees>
              <LongitudeDegrees>-4.02558510191738605499267578125</LongitudeDegrees>
            </Position>
            <AltitudeMeters>883.4000244140625</AltitudeMeters>
            <DistanceMeters>NAN</DistanceMeters>
          </Trackpoint>
          <Trackpoint>
            <Time>2019-08-01T10:58:52.000Z</Time>
            <Position>
              <LatitudeDegrees>40.626784600317478179931640625</LatitudeDegrees>
              <LongitudeDegrees>-4.02558510191738605499267578125</LongitudeDegrees>
            </Position>
            <AltitudeMeters>883</AltitudeMeters>
            <DistanceMeters>NAN</DistanceMeters>
          </Trackpoint>
          <Trackpoint>
            <Time>2019-08-01T10:58:53.000Z</Time>
            <Position>
              <LatitudeDegrees>40.6269438564777374267578125</LatitudeDegrees>
              <LongitudeDegrees>-4.02552391402423381805419921875</LongitudeDegrees>
            </Position>
            <AltitudeMeters>882.5999755859375</AltitudeMeters>
            <DistanceMeters>NAN</DistanceMeters>
          </Trackpoint>
          <Trackpoint>
            <Time>2019-08-01T10:58:54.000Z</Time>
            <Position>
              <LatitudeDegrees>40.6270254962146282196044921875</LatitudeDegrees>
              <LongitudeDegrees>-4.02549994178116321563720703125</LongitudeDegrees>
            </Position>
            <AltitudeMeters>882.4000244140625</AltitudeMeters>
            <DistanceMeters>NAN</DistanceMeters>
          </Trackpoint>
          <Trackpoint>
            <Time>2019-08-01T10:58:55.000Z</Time>
            <Position>
              <LatitudeDegrees>40.62710789032280445098876953125</LatitudeDegrees>
              <LongitudeDegrees>-4.0254785679280757904052734375</LongitudeDegrees>
            </Position>
            <AltitudeMeters>882.20001220703125</AltitudeMeters>
            <DistanceMeters>NAN</DistanceMeters>
          </Trackpoint>
          <Trackpoint>
            <Time>2019-08-01T10:58:56.000Z</Time>
            <Position>
              <LatitudeDegrees>40.62719263136386871337890625</LatitudeDegrees>
              <LongitudeDegrees>-4.02545685879886150360107421875</LongitudeDegrees>
            </Position>
            <AltitudeMeters>882</AltitudeMeters>
            <DistanceMeters>NAN</DistanceMeters>
          </Trackpoint>
          <Trackpoint>
            <Time>2019-08-01T10:58:57.000Z</Time>
            <Position>
              <LatitudeDegrees>40.62727921642363071441650390625</LatitudeDegrees>
              <LongitudeDegrees>-4.02543087489902973175048828125</LongitudeDegrees>
            </Position>
            <AltitudeMeters>881.79998779296875</AltitudeMeters>
            <DistanceMeters>NAN</DistanceMeters>
          </Trackpoint>
          <Trackpoint>
            <Time>2019-08-01T10:58:58.000Z</Time>
            <Position>
              <LatitudeDegrees>40.62736672349274158477783203125</LatitudeDegrees>
              <LongitudeDegrees>-4.02539734728634357452392578125</LongitudeDegrees>
            </Position>
            <AltitudeMeters>881.5999755859375</AltitudeMeters>
            <DistanceMeters>NAN</DistanceMeters>
          </Trackpoint>
          <Trackpoint>
            <Time>2019-08-01T10:58:59.000Z</Time>
            <Position>
              <LatitudeDegrees>40.62745439819991588592529296875</LatitudeDegrees>
              <LongitudeDegrees>-4.0253560245037078857421875</LongitudeDegrees>
            </Position>
            <AltitudeMeters>881.5999755859375</AltitudeMeters>
            <DistanceMeters>NAN</DistanceMeters>
          </Trackpoint>
          <Trackpoint>
            <Time>2019-08-01T10:59:00.000Z</Time>
            <Position>
              <LatitudeDegrees>40.62754257582128047943115234375</LatitudeDegrees>
              <LongitudeDegrees>-4.025308080017566680908203125</LongitudeDegrees>
            </Position>
            <AltitudeMeters>881.4000244140625</AltitudeMeters>
            <DistanceMeters>NAN</DistanceMeters>
          </Trackpoint>
          <Trackpoint>
            <Time>2019-08-01T10:59:01.000Z</Time>
            <Position>
              <LatitudeDegrees>40.62763125635683536529541015625</LatitudeDegrees>
              <LongitudeDegrees>-4.02525720186531543731689453125</LongitudeDegrees>
            </Position>
            <AltitudeMeters>881.20001220703125</AltitudeMeters>
            <DistanceMeters>NAN</DistanceMeters>
          </Trackpoint>
          <Trackpoint>
            <Time>2019-08-01T10:59:02.000Z</Time>
            <Position>
              <LatitudeDegrees>40.6277208589017391204833984375</LatitudeDegrees>
              <LongitudeDegrees>-4.02520573697984218597412109375</LongitudeDegrees>
            </Position>
            <AltitudeMeters>881</AltitudeMeters>
            <DistanceMeters>NAN</DistanceMeters>
          </Trackpoint>
          <Trackpoint>
            <Time>2019-08-01T10:59:03.000Z</Time>
            <Position>
              <LatitudeDegrees>40.6278102099895477294921875</LatitudeDegrees>
              <LongitudeDegrees>-4.0251533500850200653076171875</LongitudeDegrees>
            </Position>
            <AltitudeMeters>881</AltitudeMeters>
            <DistanceMeters>NAN</DistanceMeters>
          </Trackpoint>
          <Trackpoint>
            <Time>2019-08-01T10:59:04.000Z</Time>
            <Position>
              <LatitudeDegrees>40.62789914198219776153564453125</LatitudeDegrees>
              <LongitudeDegrees>-4.0250997059047222137451171875</LongitudeDegrees>
            </Position>
            <AltitudeMeters>881</AltitudeMeters>
            <DistanceMeters>NAN</DistanceMeters>
          </Trackpoint>
          <Trackpoint>
            <Time>2019-08-01T10:59:05.000Z</Time>
            <Position>
              <LatitudeDegrees>40.62798648141324520111083984375</LatitudeDegrees>
              <LongitudeDegrees>-4.025042541325092315673828125</LongitudeDegrees>
            </Position>
            <AltitudeMeters>880.79998779296875</AltitudeMeters>
            <DistanceMeters>NAN</DistanceMeters>
          </Trackpoint>
          <Trackpoint>
            <Time>2019-08-01T10:59:06.000Z</Time>
            <Position>
              <LatitudeDegrees>40.6280692107975482940673828125</LatitudeDegrees>
              <LongitudeDegrees>-4.024979509413242340087890625</LongitudeDegrees>
            </Position>
            <AltitudeMeters>880.4000244140625</AltitudeMeters>
            <DistanceMeters>NAN</DistanceMeters>
          </Trackpoint>
          <Trackpoint>
            <Time>2019-08-01T10:59:07.000Z</Time>
            <Position>
              <LatitudeDegrees>40.62814841978251934051513671875</LatitudeDegrees>
              <LongitudeDegrees>-4.02490868233144283294677734375</LongitudeDegrees>
            </Position>
            <AltitudeMeters>880.20001220703125</AltitudeMeters>
            <DistanceMeters>NAN</DistanceMeters>
          </Trackpoint>
          <Trackpoint>
            <Time>2019-08-01T10:59:08.000Z</Time>
            <Position>
              <LatitudeDegrees>40.6282220967113971710205078125</LatitudeDegrees>
              <LongitudeDegrees>-4.0248291380703449249267578125</LongitudeDegrees>
            </Position>
            <AltitudeMeters>879.79998779296875</AltitudeMeters>
            <DistanceMeters>NAN</DistanceMeters>
          </Trackpoint>
          <Trackpoint>
            <Time>2019-08-01T10:59:09.000Z</Time>
            <Position>
              <LatitudeDegrees>40.6282898224890232086181640625</LatitudeDegrees>
              <LongitudeDegrees>-4.0247417986392974853515625</LongitudeDegrees>
            </Position>
            <AltitudeMeters>879.4000244140625</AltitudeMeters>
            <DistanceMeters>NAN</DistanceMeters>
          </Trackpoint>
          <Trackpoint>
            <Time>2019-08-01T10:59:10.000Z</Time>
            <Position>
              <LatitudeDegrees>40.62834757380187511444091796875</LatitudeDegrees>
              <LongitudeDegrees>-4.0246464125812053680419921875</LongitudeDegrees>
            </Position>
            <AltitudeMeters>879</AltitudeMeters>
            <DistanceMeters>NAN</DistanceMeters>
          </Trackpoint>
          <Trackpoint>
            <Time>2019-08-01T10:59:11.000Z</Time>
            <Position>
              <LatitudeDegrees>40.62834757380187511444091796875</LatitudeDegrees>
              <LongitudeDegrees>-4.0246464125812053680419921875</LongitudeDegrees>
            </Position>
            <AltitudeMeters>878.5999755859375</AltitudeMeters>
            <DistanceMeters>NAN</DistanceMeters>
          </Trackpoint>
          <Trackpoint>
            <Time>2019-08-01T10:59:12.000Z</Time>
            <Position>
              <LatitudeDegrees>40.62843524850904941558837890625</LatitudeDegrees>
              <LongitudeDegrees>-4.02443577535450458526611328125</LongitudeDegrees>
            </Position>
            <AltitudeMeters>878</AltitudeMeters>
            <DistanceMeters>NAN</DistanceMeters>
          </Trackpoint>
          <Trackpoint>
            <Time>2019-08-01T10:59:13.000Z</Time>
            <Position>
              <LatitudeDegrees>40.6284638307988643646240234375</LatitudeDegrees>
              <LongitudeDegrees>-4.02431976981461048126220703125</LongitudeDegrees>
            </Position>
            <AltitudeMeters>877.79998779296875</AltitudeMeters>
            <DistanceMeters>NAN</DistanceMeters>
          </Trackpoint>
          <Trackpoint>
            <Time>2019-08-01T10:59:14.000Z</Time>
            <Position>
              <LatitudeDegrees>40.6284638307988643646240234375</LatitudeDegrees>
              <LongitudeDegrees>-4.02431976981461048126220703125</LongitudeDegrees>
            </Position>
            <AltitudeMeters>877.5999755859375</AltitudeMeters>
            <DistanceMeters>NAN</DistanceMeters>
          </Trackpoint>
          <Trackpoint>
            <Time>2019-08-01T10:59:15.000Z</Time>
            <Position>
              <LatitudeDegrees>40.6284933350980281829833984375</LatitudeDegrees>
              <LongitudeDegrees>-4.0240777842700481414794921875</LongitudeDegrees>
            </Position>
            <AltitudeMeters>877.5999755859375</AltitudeMeters>
            <DistanceMeters>NAN</DistanceMeters>
          </Trackpoint>
          <Trackpoint>
            <Time>2019-08-01T10:59:16.000Z</Time>
            <Position>
              <LatitudeDegrees>40.6284993700683116912841796875</LatitudeDegrees>
              <LongitudeDegrees>-4.02395498938858509063720703125</LongitudeDegrees>
            </Position>
            <AltitudeMeters>877.4000244140625</AltitudeMeters>
            <DistanceMeters>NAN</DistanceMeters>
          </Trackpoint>
          <Trackpoint>
            <Time>2019-08-01T10:59:17.000Z</Time>
            <Position>
              <LatitudeDegrees>40.62850515358150005340576171875</LatitudeDegrees>
              <LongitudeDegrees>-4.0238326974213123321533203125</LongitudeDegrees>
            </Position>
            <AltitudeMeters>877.4000244140625</AltitudeMeters>
            <DistanceMeters>NAN</DistanceMeters>
          </Trackpoint>
          <Trackpoint>
            <Time>2019-08-01T10:59:18.000Z</Time>
            <Position>
              <LatitudeDegrees>40.62850515358150005340576171875</LatitudeDegrees>
              <LongitudeDegrees>-4.0238326974213123321533203125</LongitudeDegrees>
            </Position>
            <AltitudeMeters>877.20001220703125</AltitudeMeters>
            <DistanceMeters>NAN</DistanceMeters>
          </Trackpoint>
          <Trackpoint>
            <Time>2019-08-01T10:59:19.000Z</Time>
            <Position>
              <LatitudeDegrees>40.628530047833919525146484375</LatitudeDegrees>
              <LongitudeDegrees>-4.0235889516770839691162109375</LongitudeDegrees>
            </Position>
            <AltitudeMeters>877</AltitudeMeters>
            <DistanceMeters>NAN</DistanceMeters>
          </Trackpoint>
          <Trackpoint>
            <Time>2019-08-01T10:59:20.000Z</Time>
            <Position>
              <LatitudeDegrees>40.62855008058249950408935546875</LatitudeDegrees>
              <LongitudeDegrees>-4.02346917428076267242431640625</LongitudeDegrees>
            </Position>
            <AltitudeMeters>877</AltitudeMeters>
            <DistanceMeters>NAN</DistanceMeters>
          </Trackpoint>
          <Trackpoint>
            <Time>2019-08-01T10:59:21.000Z</Time>
            <Position>
              <LatitudeDegrees>40.628574304282665252685546875</LatitudeDegrees>
              <LongitudeDegrees>-4.0233512409031391143798828125</LongitudeDegrees>
            </Position>
            <AltitudeMeters>876.79998779296875</AltitudeMeters>
            <DistanceMeters>NAN</DistanceMeters>
          </Trackpoint>
          <Trackpoint>
            <Time>2019-08-01T10:59:22.000Z</Time>
            <Position>
              <LatitudeDegrees>40.62860087491571903228759765625</LatitudeDegrees>
              <LongitudeDegrees>-4.02323632501065731048583984375</LongitudeDegrees>
            </Position>
            <AltitudeMeters>876.79998779296875</AltitudeMeters>
            <DistanceMeters>NAN</DistanceMeters>
          </Trackpoint>
          <Trackpoint>
            <Time>2019-08-01T10:59:23.000Z</Time>
            <Position>
              <LatitudeDegrees>40.62862870283424854278564453125</LatitudeDegrees>
              <LongitudeDegrees>-4.02312333695590496063232421875</LongitudeDegrees>
            </Position>
            <AltitudeMeters>876.5999755859375</AltitudeMeters>
            <DistanceMeters>NAN</DistanceMeters>
          </Trackpoint>
          <Trackpoint>
            <Time>2019-08-01T10:59:24.000Z</Time>
            <Position>
              <LatitudeDegrees>40.62865736894309520721435546875</LatitudeDegrees>
              <LongitudeDegrees>-4.02301244437694549560546875</LongitudeDegrees>
            </Position>
            <AltitudeMeters>876.4000244140625</AltitudeMeters>
            <DistanceMeters>NAN</DistanceMeters>
          </Trackpoint>
          <Trackpoint>
            <Time>2019-08-01T10:59:25.000Z</Time>
            <Position>
              <LatitudeDegrees>40.62865736894309520721435546875</LatitudeDegrees>
              <LongitudeDegrees>-4.02301244437694549560546875</LongitudeDegrees>
            </Position>
            <AltitudeMeters>876.4000244140625</AltitudeMeters>
            <DistanceMeters>NAN</DistanceMeters>
          </Trackpoint>
          <Trackpoint>
            <Time>2019-08-01T10:59:26.000Z</Time>
            <Position>
              <LatitudeDegrees>40.628717131912708282470703125</LatitudeDegrees>
              <LongitudeDegrees>-4.0227980352938175201416015625</LongitudeDegrees>
            </Position>
            <AltitudeMeters>876.20001220703125</AltitudeMeters>
            <DistanceMeters>NAN</DistanceMeters>
          </Trackpoint>
          <Trackpoint>
            <Time>2019-08-01T10:59:27.000Z</Time>
            <Position>
              <LatitudeDegrees>40.6287491507828235626220703125</LatitudeDegrees>
              <LongitudeDegrees>-4.02269334532320499420166015625</LongitudeDegrees>
            </Position>
            <AltitudeMeters>876.20001220703125</AltitudeMeters>
            <DistanceMeters>NAN</DistanceMeters>
          </Trackpoint>
          <Trackpoint>
            <Time>2019-08-01T10:59:28.000Z</Time>
            <Position>
              <LatitudeDegrees>40.62878326512873172760009765625</LatitudeDegrees>
              <LongitudeDegrees>-4.02258865535259246826171875</LongitudeDegrees>
            </Position>
            <AltitudeMeters>876.20001220703125</AltitudeMeters>
            <DistanceMeters>NAN</DistanceMeters>
          </Trackpoint>
          <Trackpoint>
            <Time>2019-08-01T10:59:29.000Z</Time>
            <Position>
              <LatitudeDegrees>40.62881805002689361572265625</LatitudeDegrees>
              <LongitudeDegrees>-4.02248203754425048828125</LongitudeDegrees>
            </Position>
            <AltitudeMeters>876.20001220703125</AltitudeMeters>
            <DistanceMeters>NAN</DistanceMeters>
          </Trackpoint>
          <Trackpoint>
            <Time>2019-08-01T10:59:30.000Z</Time>
            <Position>
              <LatitudeDegrees>40.6288534216582775115966796875</LatitudeDegrees>
              <LongitudeDegrees>-4.02237433008849620819091796875</LongitudeDegrees>
            </Position>
            <AltitudeMeters>876.20001220703125</AltitudeMeters>
            <DistanceMeters>NAN</DistanceMeters>
          </Trackpoint>
          <Trackpoint>
            <Time>2019-08-01T10:59:31.000Z</Time>
            <Position>
              <LatitudeDegrees>40.6288899667561054229736328125</LatitudeDegrees>
              <LongitudeDegrees>-4.0222659520804882049560546875</LongitudeDegrees>
            </Position>
            <AltitudeMeters>876.20001220703125</AltitudeMeters>
            <DistanceMeters>NAN</DistanceMeters>
          </Trackpoint>
          <Trackpoint>
            <Time>2019-08-01T10:59:32.000Z</Time>
            <Position>
              <LatitudeDegrees>40.6289298646152019500732421875</LatitudeDegrees>
              <LongitudeDegrees>-4.0221593342721462249755859375</LongitudeDegrees>
            </Position>
            <AltitudeMeters>876.20001220703125</AltitudeMeters>
            <DistanceMeters>NAN</DistanceMeters>
          </Trackpoint>
          <Trackpoint>
            <Time>2019-08-01T10:59:33.000Z</Time>
            <Position>
              <LatitudeDegrees>40.6289704330265522003173828125</LatitudeDegrees>
              <LongitudeDegrees>-4.02205196209251880645751953125</LongitudeDegrees>
            </Position>
            <AltitudeMeters>876.20001220703125</AltitudeMeters>
            <DistanceMeters>NAN</DistanceMeters>
          </Trackpoint>
          <Trackpoint>
            <Time>2019-08-01T10:59:34.000Z</Time>
            <Position>
              <LatitudeDegrees>40.629012174904346466064453125</LatitudeDegrees>
              <LongitudeDegrees>-4.02194467373192310333251953125</LongitudeDegrees>
            </Position>
            <AltitudeMeters>876.20001220703125</AltitudeMeters>
            <DistanceMeters>NAN</DistanceMeters>
          </Trackpoint>
          <Trackpoint>
            <Time>2019-08-01T10:59:35.000Z</Time>
            <Position>
              <LatitudeDegrees>40.62905131839215755462646484375</LatitudeDegrees>
              <LongitudeDegrees>-4.02183537371456623077392578125</LongitudeDegrees>
            </Position>
            <AltitudeMeters>876.20001220703125</AltitudeMeters>
            <DistanceMeters>NAN</DistanceMeters>
          </Trackpoint>
          <Trackpoint>
            <Time>2019-08-01T10:59:36.000Z</Time>
            <Position>
              <LatitudeDegrees>40.6290887854993343353271484375</LatitudeDegrees>
              <LongitudeDegrees>-4.0217248164117336273193359375</LongitudeDegrees>
            </Position>
            <AltitudeMeters>876</AltitudeMeters>
            <DistanceMeters>NAN</DistanceMeters>
          </Trackpoint>
          <Trackpoint>
            <Time>2019-08-01T10:59:37.000Z</Time>
            <Position>
              <LatitudeDegrees>40.629123486578464508056640625</LatitudeDegrees>
              <LongitudeDegrees>-4.02161593548953533172607421875</LongitudeDegrees>
            </Position>
            <AltitudeMeters>876</AltitudeMeters>
            <DistanceMeters>NAN</DistanceMeters>
          </Trackpoint>
          <Trackpoint>
            <Time>2019-08-01T10:59:38.000Z</Time>
            <Position>
              <LatitudeDegrees>40.629157014191150665283203125</LatitudeDegrees>
              <LongitudeDegrees>-4.0215075574815273284912109375</LongitudeDegrees>
            </Position>
            <AltitudeMeters>876</AltitudeMeters>
            <DistanceMeters>NAN</DistanceMeters>
          </Trackpoint>
          <Trackpoint>
            <Time>2019-08-01T10:59:39.000Z</Time>
            <Position>
              <LatitudeDegrees>40.62918811105191707611083984375</LatitudeDegrees>
              <LongitudeDegrees>-4.021398089826107025146484375</LongitudeDegrees>
            </Position>
            <AltitudeMeters>876</AltitudeMeters>
            <DistanceMeters>NAN</DistanceMeters>
          </Trackpoint>
          <Trackpoint>
            <Time>2019-08-01T10:59:40.000Z</Time>
            <Position>
              <LatitudeDegrees>40.62921845354139804840087890625</LatitudeDegrees>
              <LongitudeDegrees>-4.0212849341332912445068359375</LongitudeDegrees>
            </Position>
            <AltitudeMeters>875.5999755859375</AltitudeMeters>
            <DistanceMeters>NAN</DistanceMeters>
          </Trackpoint>
          <Trackpoint>
            <Time>2019-08-01T10:59:41.000Z</Time>
            <Position>
              <LatitudeDegrees>40.62924779020249843597412109375</LatitudeDegrees>
              <LongitudeDegrees>-4.02117420919239521026611328125</LongitudeDegrees>
            </Position>
            <AltitudeMeters>875.5999755859375</AltitudeMeters>
            <DistanceMeters>NAN</DistanceMeters>
          </Trackpoint>
          <Trackpoint>
            <Time>2019-08-01T10:59:42.000Z</Time>
            <Position>
              <LatitudeDegrees>40.6292772106826305389404296875</LatitudeDegrees>
              <LongitudeDegrees>-4.02106122113764286041259765625</LongitudeDegrees>
            </Position>
            <AltitudeMeters>875.20001220703125</AltitudeMeters>
            <DistanceMeters>NAN</DistanceMeters>
          </Trackpoint>
          <Trackpoint>
            <Time>2019-08-01T10:59:43.000Z</Time>
            <Position>
              <LatitudeDegrees>40.62930596061050891876220703125</LatitudeDegrees>
              <LongitudeDegrees>-4.0209473110735416412353515625</LongitudeDegrees>
            </Position>
            <AltitudeMeters>875</AltitudeMeters>
            <DistanceMeters>NAN</DistanceMeters>
          </Trackpoint>
          <Trackpoint>
            <Time>2019-08-01T10:59:44.000Z</Time>
            <Position>
              <LatitudeDegrees>40.62933345325291156768798828125</LatitudeDegrees>
              <LongitudeDegrees>-4.02083222754299640655517578125</LongitudeDegrees>
            </Position>
            <AltitudeMeters>874.79998779296875</AltitudeMeters>
            <DistanceMeters>NAN</DistanceMeters>
          </Trackpoint>
          <Trackpoint>
            <Time>2019-08-01T10:59:45.000Z</Time>
            <Position>
              <LatitudeDegrees>40.62935876660048961639404296875</LatitudeDegrees>
              <LongitudeDegrees>-4.02071672491729259490966796875</LongitudeDegrees>
            </Position>
            <AltitudeMeters>874.5999755859375</AltitudeMeters>
            <DistanceMeters>NAN</DistanceMeters>
          </Trackpoint>
          <Trackpoint>
            <Time>2019-08-01T10:59:46.000Z</Time>
            <Position>
              <LatitudeDegrees>40.6293819844722747802734375</LatitudeDegrees>
              <LongitudeDegrees>-4.02060491032898426055908203125</LongitudeDegrees>
            </Position>
            <AltitudeMeters>874.5999755859375</AltitudeMeters>
            <DistanceMeters>NAN</DistanceMeters>
          </Trackpoint>
          <Trackpoint>
            <Time>2019-08-01T10:59:47.000Z</Time>
            <Position>
              <LatitudeDegrees>40.62940536998212337493896484375</LatitudeDegrees>
              <LongitudeDegrees>-4.0205027349293231964111328125</LongitudeDegrees>
            </Position>
            <AltitudeMeters>874.5999755859375</AltitudeMeters>
            <DistanceMeters>NAN</DistanceMeters>
          </Trackpoint>
          <Trackpoint>
            <Time>2019-08-01T10:59:48.000Z</Time>
            <Position>
              <LatitudeDegrees>40.62942330725491046905517578125</LatitudeDegrees>
              <LongitudeDegrees>-4.02041070163249969482421875</LongitudeDegrees>
            </Position>
            <AltitudeMeters>874.4000244140625</AltitudeMeters>
            <DistanceMeters>NAN</DistanceMeters>
          </Trackpoint>
          <Trackpoint>
            <Time>2019-08-01T10:59:49.000Z</Time>
            <Position>
              <LatitudeDegrees>40.62942666001617908477783203125</LatitudeDegrees>
              <LongitudeDegrees>-4.0203210152685642242431640625</LongitudeDegrees>
            </Position>
            <AltitudeMeters>874.20001220703125</AltitudeMeters>
            <DistanceMeters>NAN</DistanceMeters>
          </Trackpoint>
          <Trackpoint>
            <Time>2019-08-01T10:59:50.000Z</Time>
            <Position>
              <LatitudeDegrees>40.62941526062786579132080078125</LatitudeDegrees>
              <LongitudeDegrees>-4.02023308910429477691650390625</LongitudeDegrees>
            </Position>
            <AltitudeMeters>874.20001220703125</AltitudeMeters>
            <DistanceMeters>NAN</DistanceMeters>
          </Trackpoint>
          <Trackpoint>
            <Time>2019-08-01T10:59:51.000Z</Time>
            <Position>
              <LatitudeDegrees>40.62939682044088840484619140625</LatitudeDegrees>
              <LongitudeDegrees>-4.02014692313969135284423828125</LongitudeDegrees>
            </Position>
            <AltitudeMeters>874</AltitudeMeters>
            <DistanceMeters>NAN</DistanceMeters>
          </Trackpoint>
          <Trackpoint>
            <Time>2019-08-01T10:59:52.000Z</Time>
            <Position>
              <LatitudeDegrees>40.62939682044088840484619140625</LatitudeDegrees>
              <LongitudeDegrees>-4.02014692313969135284423828125</LongitudeDegrees>
            </Position>
            <AltitudeMeters>873.79998779296875</AltitudeMeters>
            <DistanceMeters>NAN</DistanceMeters>
          </Trackpoint>
          <Trackpoint>
            <Time>2019-08-01T10:59:53.000Z</Time>
            <Position>
              <LatitudeDegrees>40.62939983792603015899658203125</LatitudeDegrees>
              <LongitudeDegrees>-4.019980542361736297607421875</LongitudeDegrees>
            </Position>
            <AltitudeMeters>873.5999755859375</AltitudeMeters>
            <DistanceMeters>NAN</DistanceMeters>
          </Trackpoint>
          <Trackpoint>
            <Time>2019-08-01T10:59:54.000Z</Time>
            <Position>
              <LatitudeDegrees>40.62943889759480953216552734375</LatitudeDegrees>
              <LongitudeDegrees>-4.01992429979145526885986328125</LongitudeDegrees>
            </Position>
            <AltitudeMeters>873.4000244140625</AltitudeMeters>
            <DistanceMeters>NAN</DistanceMeters>
          </Trackpoint>
          <Trackpoint>
            <Time>2019-08-01T10:59:55.000Z</Time>
            <Position>
              <LatitudeDegrees>40.62943889759480953216552734375</LatitudeDegrees>
              <LongitudeDegrees>-4.01992429979145526885986328125</LongitudeDegrees>
            </Position>
            <AltitudeMeters>873.4000244140625</AltitudeMeters>
            <DistanceMeters>NAN</DistanceMeters>
          </Trackpoint>
          <Trackpoint>
            <Time>2019-08-01T10:59:56.000Z</Time>
            <Position>
              <LatitudeDegrees>40.629544593393802642822265625</LatitudeDegrees>
              <LongitudeDegrees>-4.0199357829988002777099609375</LongitudeDegrees>
            </Position>
            <AltitudeMeters>873.4000244140625</AltitudeMeters>
            <DistanceMeters>NAN</DistanceMeters>
          </Trackpoint>
          <Trackpoint>
            <Time>2019-08-01T10:59:57.000Z</Time>
            <Position>
              <LatitudeDegrees>40.62960754148662090301513671875</LatitudeDegrees>
              <LongitudeDegrees>-4.01997878216207027435302734375</LongitudeDegrees>
            </Position>
            <AltitudeMeters>873.4000244140625</AltitudeMeters>
            <DistanceMeters>NAN</DistanceMeters>
          </Trackpoint>
          <Trackpoint>
            <Time>2019-08-01T10:59:58.000Z</Time>
            <Position>
              <LatitudeDegrees>40.6296795420348644256591796875</LatitudeDegrees>
              <LongitudeDegrees>-4.0200130641460418701171875</LongitudeDegrees>
            </Position>
            <AltitudeMeters>873.4000244140625</AltitudeMeters>
            <DistanceMeters>NAN</DistanceMeters>
          </Trackpoint>
          <Trackpoint>
            <Time>2019-08-01T10:59:59.000Z</Time>
            <Position>
              <LatitudeDegrees>40.62975908629596233367919921875</LatitudeDegrees>
              <LongitudeDegrees>-4.0200313366949558258056640625</LongitudeDegrees>
            </Position>
            <AltitudeMeters>873.4000244140625</AltitudeMeters>
            <DistanceMeters>NAN</DistanceMeters>
          </Trackpoint>
          <Trackpoint>
            <Time>2019-08-01T11:00:00.000Z</Time>
            <Position>
              <LatitudeDegrees>40.62983930110931396484375</LatitudeDegrees>
              <LongitudeDegrees>-4.02004349045455455780029296875</LongitudeDegrees>
            </Position>
            <AltitudeMeters>873.4000244140625</AltitudeMeters>
            <DistanceMeters>NAN</DistanceMeters>
          </Trackpoint>
          <Trackpoint>
            <Time>2019-08-01T11:00:01.000Z</Time>
            <Position>
              <LatitudeDegrees>40.6299202702939510345458984375</LatitudeDegrees>
              <LongitudeDegrees>-4.02005723677575588226318359375</LongitudeDegrees>
            </Position>
            <AltitudeMeters>873.4000244140625</AltitudeMeters>
            <DistanceMeters>NAN</DistanceMeters>
          </Trackpoint>
          <Trackpoint>
            <Time>2019-08-01T11:00:02.000Z</Time>
            <Position>
              <LatitudeDegrees>40.63000182621181011199951171875</LatitudeDegrees>
              <LongitudeDegrees>-4.0200672112405300140380859375</LongitudeDegrees>
            </Position>
            <AltitudeMeters>873.20001220703125</AltitudeMeters>
            <DistanceMeters>NAN</DistanceMeters>
          </Trackpoint>
          <Trackpoint>
            <Time>2019-08-01T11:00:03.000Z</Time>
            <Position>
              <LatitudeDegrees>40.63008363358676433563232421875</LatitudeDegrees>
              <LongitudeDegrees>-4.0200765989720821380615234375</LongitudeDegrees>
            </Position>
            <AltitudeMeters>873</AltitudeMeters>
            <DistanceMeters>NAN</DistanceMeters>
          </Trackpoint>
          <Trackpoint>
            <Time>2019-08-01T11:00:04.000Z</Time>
            <Position>
              <LatitudeDegrees>40.63016762025654315948486328125</LatitudeDegrees>
              <LongitudeDegrees>-4.0200856514275074005126953125</LongitudeDegrees>
            </Position>
            <AltitudeMeters>873</AltitudeMeters>
            <DistanceMeters>NAN</DistanceMeters>
          </Trackpoint>
          <Trackpoint>
            <Time>2019-08-01T11:00:05.000Z</Time>
            <Position>
              <LatitudeDegrees>40.6302508525550365447998046875</LatitudeDegrees>
              <LongitudeDegrees>-4.0200947038829326629638671875</LongitudeDegrees>
            </Position>
            <AltitudeMeters>872.79998779296875</AltitudeMeters>
            <DistanceMeters>NAN</DistanceMeters>
          </Trackpoint>
          <Trackpoint>
            <Time>2019-08-01T11:00:06.000Z</Time>
            <Position>
              <LatitudeDegrees>40.630334503948688507080078125</LatitudeDegrees>
              <LongitudeDegrees>-4.0201050974428653717041015625</LongitudeDegrees>
            </Position>
            <AltitudeMeters>872.79998779296875</AltitudeMeters>
            <DistanceMeters>NAN</DistanceMeters>
          </Trackpoint>
          <Trackpoint>
            <Time>2019-08-01T11:00:07.000Z</Time>
            <Position>
              <LatitudeDegrees>40.63041890971362590789794921875</LatitudeDegrees>
              <LongitudeDegrees>-4.02011741884052753448486328125</LongitudeDegrees>
            </Position>
            <AltitudeMeters>872.5999755859375</AltitudeMeters>
            <DistanceMeters>NAN</DistanceMeters>
          </Trackpoint>
          <Trackpoint>
            <Time>2019-08-01T11:00:08.000Z</Time>
            <Position>
              <LatitudeDegrees>40.63050356693565845489501953125</LatitudeDegrees>
              <LongitudeDegrees>-4.0201305784285068511962890625</LongitudeDegrees>
            </Position>
            <AltitudeMeters>872.4000244140625</AltitudeMeters>
            <DistanceMeters>NAN</DistanceMeters>
          </Trackpoint>
          <Trackpoint>
            <Time>2019-08-01T11:00:09.000Z</Time>
            <Position>
              <LatitudeDegrees>40.6305889785289764404296875</LatitudeDegrees>
              <LongitudeDegrees>-4.0201433189213275909423828125</LongitudeDegrees>
            </Position>
            <AltitudeMeters>872.4000244140625</AltitudeMeters>
            <DistanceMeters>NAN</DistanceMeters>
          </Trackpoint>
          <Trackpoint>
            <Time>2019-08-01T11:00:10.000Z</Time>
            <Position>
              <LatitudeDegrees>40.630673468112945556640625</LatitudeDegrees>
              <LongitudeDegrees>-4.02015496976673603057861328125</LongitudeDegrees>
            </Position>
            <AltitudeMeters>872.4000244140625</AltitudeMeters>
            <DistanceMeters>NAN</DistanceMeters>
          </Trackpoint>
          <Trackpoint>
            <Time>2019-08-01T11:00:11.000Z</Time>
            <Position>
              <LatitudeDegrees>40.63075569458305835723876953125</LatitudeDegrees>
              <LongitudeDegrees>-4.0201659500598907470703125</LongitudeDegrees>
            </Position>
            <AltitudeMeters>872.4000244140625</AltitudeMeters>
            <DistanceMeters>NAN</DistanceMeters>
          </Trackpoint>
          <Trackpoint>
            <Time>2019-08-01T11:00:12.000Z</Time>
            <Position>
              <LatitudeDegrees>40.6308325566351413726806640625</LatitudeDegrees>
              <LongitudeDegrees>-4.02017592452466487884521484375</LongitudeDegrees>
            </Position>
            <AltitudeMeters>872.4000244140625</AltitudeMeters>
            <DistanceMeters>NAN</DistanceMeters>
          </Trackpoint>
          <Trackpoint>
            <Time>2019-08-01T11:00:15.000Z</Time>
            <Position>
              <LatitudeDegrees>40.63103028573095798492431640625</LatitudeDegrees>
              <LongitudeDegrees>-4.02019218541681766510009765625</LongitudeDegrees>
            </Position>
            <AltitudeMeters>871.5999755859375</AltitudeMeters>
            <DistanceMeters>NAN</DistanceMeters>
          </Trackpoint>
          <Trackpoint>
            <Time>2019-08-01T11:00:16.000Z</Time>
            <Position>
              <LatitudeDegrees>40.63108845613896846771240234375</LatitudeDegrees>
              <LongitudeDegrees>-4.02019201777875423431396484375</LongitudeDegrees>
            </Position>
            <AltitudeMeters>871.5999755859375</AltitudeMeters>
            <DistanceMeters>NAN</DistanceMeters>
          </Trackpoint>
          <Trackpoint>
            <Time>2019-08-01T11:00:17.000Z</Time>
            <Position>
              <LatitudeDegrees>40.63114427961409091949462890625</LatitudeDegrees>
              <LongitudeDegrees>-4.020185731351375579833984375</LongitudeDegrees>
            </Position>
            <AltitudeMeters>871.4000244140625</AltitudeMeters>
            <DistanceMeters>NAN</DistanceMeters>
          </Trackpoint>
          <Trackpoint>
            <Time>2019-08-01T11:00:18.000Z</Time>
            <Position>
              <LatitudeDegrees>40.63119574449956417083740234375</LatitudeDegrees>
              <LongitudeDegrees>-4.02016938664019107818603515625</LongitudeDegrees>
            </Position>
            <AltitudeMeters>871.4000244140625</AltitudeMeters>
            <DistanceMeters>NAN</DistanceMeters>
          </Trackpoint>
          <Trackpoint>
            <Time>2019-08-01T11:00:19.000Z</Time>
            <Position>
              <LatitudeDegrees>40.63124486245214939117431640625</LatitudeDegrees>
              <LongitudeDegrees>-4.0201372839510440826416015625</LongitudeDegrees>
            </Position>
            <AltitudeMeters>871.4000244140625</AltitudeMeters>
            <DistanceMeters>NAN</DistanceMeters>
          </Trackpoint>
          <Trackpoint>
            <Time>2019-08-01T11:00:20.000Z</Time>
            <Position>
              <LatitudeDegrees>40.6312890350818634033203125</LatitudeDegrees>
              <LongitudeDegrees>-4.020089171826839447021484375</LongitudeDegrees>
            </Position>
            <AltitudeMeters>871.4000244140625</AltitudeMeters>
            <DistanceMeters>NAN</DistanceMeters>
          </Trackpoint>
          <Trackpoint>
            <Time>2019-08-01T11:00:21.000Z</Time>
            <Position>
              <LatitudeDegrees>40.6313193775713443756103515625</LatitudeDegrees>
              <LongitudeDegrees>-4.02002790011465549468994140625</LongitudeDegrees>
            </Position>
            <AltitudeMeters>871.4000244140625</AltitudeMeters>
            <DistanceMeters>NAN</DistanceMeters>
          </Trackpoint>
          <Trackpoint>
            <Time>2019-08-01T11:00:22.000Z</Time>
            <Position>
              <LatitudeDegrees>40.63133605755865573883056640625</LatitudeDegrees>
              <LongitudeDegrees>-4.01995472609996795654296875</LongitudeDegrees>
            </Position>
            <AltitudeMeters>871.4000244140625</AltitudeMeters>
            <DistanceMeters>NAN</DistanceMeters>
          </Trackpoint>
          <Trackpoint>
            <Time>2019-08-01T11:00:23.000Z</Time>
            <Position>
              <LatitudeDegrees>40.6313461996614933013916015625</LatitudeDegrees>
              <LongitudeDegrees>-4.019873924553394317626953125</LongitudeDegrees>
            </Position>
            <AltitudeMeters>871.20001220703125</AltitudeMeters>
            <DistanceMeters>NAN</DistanceMeters>
          </Trackpoint>
          <Trackpoint>
            <Time>2019-08-01T11:00:24.000Z</Time>
            <Position>
              <LatitudeDegrees>40.6313555873930454254150390625</LatitudeDegrees>
              <LongitudeDegrees>-4.0197889320552349090576171875</LongitudeDegrees>
            </Position>
            <AltitudeMeters>871.20001220703125</AltitudeMeters>
            <DistanceMeters>NAN</DistanceMeters>
          </Trackpoint>
          <Trackpoint>
            <Time>2019-08-01T11:00:25.000Z</Time>
            <Position>
              <LatitudeDegrees>40.631366483867168426513671875</LatitudeDegrees>
              <LongitudeDegrees>-4.019702263176441192626953125</LongitudeDegrees>
            </Position>
            <AltitudeMeters>871.20001220703125</AltitudeMeters>
            <DistanceMeters>NAN</DistanceMeters>
          </Trackpoint>
          <Trackpoint>
            <Time>2019-08-01T11:00:26.000Z</Time>
            <Position>
              <LatitudeDegrees>40.63137821853160858154296875</LatitudeDegrees>
              <LongitudeDegrees>-4.0196149237453937530517578125</LongitudeDegrees>
            </Position>
            <AltitudeMeters>871</AltitudeMeters>
            <DistanceMeters>NAN</DistanceMeters>
          </Trackpoint>
          <Trackpoint>
            <Time>2019-08-01T11:00:27.000Z</Time>
            <Position>
              <LatitudeDegrees>40.6313914619386196136474609375</LatitudeDegrees>
              <LongitudeDegrees>-4.019523896276950836181640625</LongitudeDegrees>
            </Position>
            <AltitudeMeters>871</AltitudeMeters>
            <DistanceMeters>NAN</DistanceMeters>
          </Trackpoint>
          <Trackpoint>
            <Time>2019-08-01T11:00:28.000Z</Time>
            <Position>
              <LatitudeDegrees>40.63140311278402805328369140625</LatitudeDegrees>
              <LongitudeDegrees>-4.019436724483966827392578125</LongitudeDegrees>
            </Position>
            <AltitudeMeters>871</AltitudeMeters>
            <DistanceMeters>NAN</DistanceMeters>
          </Trackpoint>
          <Trackpoint>
            <Time>2019-08-01T11:00:29.000Z</Time>
            <Position>
              <LatitudeDegrees>40.63141585327684879302978515625</LatitudeDegrees>
              <LongitudeDegrees>-4.0193505585193634033203125</LongitudeDegrees>
            </Position>
            <AltitudeMeters>871</AltitudeMeters>
            <DistanceMeters>NAN</DistanceMeters>
          </Trackpoint>
          <Trackpoint>
            <Time>2019-08-01T11:00:30.000Z</Time>
            <Position>
              <LatitudeDegrees>40.63142574392259120941162109375</LatitudeDegrees>
              <LongitudeDegrees>-4.01926673948764801025390625</LongitudeDegrees>
            </Position>
            <AltitudeMeters>871</AltitudeMeters>
            <DistanceMeters>NAN</DistanceMeters>
          </Trackpoint>
          <Trackpoint>
            <Time>2019-08-01T11:00:31.000Z</Time>
            <Position>
              <LatitudeDegrees>40.6314350478351116180419921875</LatitudeDegrees>
              <LongitudeDegrees>-4.019186608493328094482421875</LongitudeDegrees>
            </Position>
            <AltitudeMeters>871</AltitudeMeters>
            <DistanceMeters>NAN</DistanceMeters>
          </Trackpoint>
          <Trackpoint>
            <Time>2019-08-01T11:00:32.000Z</Time>
            <Position>
              <LatitudeDegrees>40.63144317828118801116943359375</LatitudeDegrees>
              <LongitudeDegrees>-4.01910991407930850982666015625</LongitudeDegrees>
            </Position>
            <AltitudeMeters>871</AltitudeMeters>
            <DistanceMeters>NAN</DistanceMeters>
          </Trackpoint>
          <Trackpoint>
            <Time>2019-08-01T11:00:33.000Z</Time>
            <Position>
              <LatitudeDegrees>40.63144770450890064239501953125</LatitudeDegrees>
              <LongitudeDegrees>-4.0190385840833187103271484375</LongitudeDegrees>
            </Position>
            <AltitudeMeters>871</AltitudeMeters>
            <DistanceMeters>NAN</DistanceMeters>
          </Trackpoint>
          <Trackpoint>
            <Time>2019-08-01T11:00:34.000Z</Time>
            <Position>
              <LatitudeDegrees>40.6314541585743427276611328125</LatitudeDegrees>
              <LongitudeDegrees>-4.0189708583056926727294921875</LongitudeDegrees>
            </Position>
            <AltitudeMeters>871</AltitudeMeters>
            <DistanceMeters>NAN</DistanceMeters>
          </Trackpoint>
          <Trackpoint>
            <Time>2019-08-01T11:00:35.000Z</Time>
            <Position>
              <LatitudeDegrees>40.6314541585743427276611328125</LatitudeDegrees>
              <LongitudeDegrees>-4.0189708583056926727294921875</LongitudeDegrees>
            </Position>
            <AltitudeMeters>871</AltitudeMeters>
            <DistanceMeters>NAN</DistanceMeters>
          </Trackpoint>
          <Trackpoint>
            <Time>2019-08-01T11:00:36.000Z</Time>
            <Position>
              <LatitudeDegrees>40.63146932981908321380615234375</LatitudeDegrees>
              <LongitudeDegrees>-4.0188390947878360748291015625</LongitudeDegrees>
            </Position>
            <AltitudeMeters>871</AltitudeMeters>
            <DistanceMeters>NAN</DistanceMeters>
          </Trackpoint>
          <Trackpoint>
            <Time>2019-08-01T11:00:37.000Z</Time>
            <Position>
              <LatitudeDegrees>40.63147888518869876861572265625</LatitudeDegrees>
              <LongitudeDegrees>-4.01877597905695438385009765625</LongitudeDegrees>
            </Position>
            <AltitudeMeters>871</AltitudeMeters>
            <DistanceMeters>NAN</DistanceMeters>
          </Trackpoint>
          <Trackpoint>
            <Time>2019-08-01T11:00:38.000Z</Time>
            <Position>
              <LatitudeDegrees>40.63149011693894863128662109375</LatitudeDegrees>
              <LongitudeDegrees>-4.01871395297348499298095703125</LongitudeDegrees>
            </Position>
            <AltitudeMeters>871.20001220703125</AltitudeMeters>
            <DistanceMeters>NAN</DistanceMeters>
          </Trackpoint>
          <Trackpoint>
            <Time>2019-08-01T11:00:39.000Z</Time>
            <Position>
              <LatitudeDegrees>40.6315014325082302093505859375</LatitudeDegrees>
              <LongitudeDegrees>-4.01865226216614246368408203125</LongitudeDegrees>
            </Position>
            <AltitudeMeters>871.79998779296875</AltitudeMeters>
            <DistanceMeters>NAN</DistanceMeters>
          </Trackpoint>
          <Trackpoint>
            <Time>2019-08-01T11:00:40.000Z</Time>
            <Position>
              <LatitudeDegrees>40.63151392154395580291748046875</LatitudeDegrees>
              <LongitudeDegrees>-4.0185909904539585113525390625</LongitudeDegrees>
            </Position>
            <AltitudeMeters>872.4000244140625</AltitudeMeters>
            <DistanceMeters>NAN</DistanceMeters>
          </Trackpoint>
          <Trackpoint>
            <Time>2019-08-01T11:00:41.000Z</Time>
            <Position>
              <LatitudeDegrees>40.631529428064823150634765625</LatitudeDegrees>
              <LongitudeDegrees>-4.01853105984628200531005859375</LongitudeDegrees>
            </Position>
            <AltitudeMeters>872.79998779296875</AltitudeMeters>
            <DistanceMeters>NAN</DistanceMeters>
          </Trackpoint>
          <Trackpoint>
            <Time>2019-08-01T11:00:42.000Z</Time>
            <Position>
              <LatitudeDegrees>40.63154610805213451385498046875</LatitudeDegrees>
              <LongitudeDegrees>-4.01847238652408123016357421875</LongitudeDegrees>
            </Position>
            <AltitudeMeters>873.20001220703125</AltitudeMeters>
            <DistanceMeters>NAN</DistanceMeters>
          </Trackpoint>
          <Trackpoint>
            <Time>2019-08-01T11:00:43.000Z</Time>
            <Position>
              <LatitudeDegrees>40.63156622461974620819091796875</LatitudeDegrees>
              <LongitudeDegrees>-4.01841371320188045501708984375</LongitudeDegrees>
            </Position>
            <AltitudeMeters>873.79998779296875</AltitudeMeters>
            <DistanceMeters>NAN</DistanceMeters>
          </Trackpoint>
          <Trackpoint>
            <Time>2019-08-01T11:00:44.000Z</Time>
            <Position>
              <LatitudeDegrees>40.631589777767658233642578125</LatitudeDegrees>
              <LongitudeDegrees>-4.01835721917450428009033203125</LongitudeDegrees>
            </Position>
            <AltitudeMeters>874</AltitudeMeters>
            <DistanceMeters>NAN</DistanceMeters>
          </Trackpoint>
          <Trackpoint>
            <Time>2019-08-01T11:00:45.000Z</Time>
            <Position>
              <LatitudeDegrees>40.6316144205629825592041015625</LatitudeDegrees>
              <LongitudeDegrees>-4.018300473690032958984375</LongitudeDegrees>
            </Position>
            <AltitudeMeters>874.20001220703125</AltitudeMeters>
            <DistanceMeters>NAN</DistanceMeters>
          </Trackpoint>
          <Trackpoint>
            <Time>2019-08-01T11:00:46.000Z</Time>
            <Position>
              <LatitudeDegrees>40.631640739738941192626953125</LatitudeDegrees>
              <LongitudeDegrees>-4.01824322529137134552001953125</LongitudeDegrees>
            </Position>
            <AltitudeMeters>874.4000244140625</AltitudeMeters>
            <DistanceMeters>NAN</DistanceMeters>
          </Trackpoint>
          <Trackpoint>
            <Time>2019-08-01T11:00:47.000Z</Time>
            <Position>
              <LatitudeDegrees>40.63166965730488300323486328125</LatitudeDegrees>
              <LongitudeDegrees>-4.0181886591017246246337890625</LongitudeDegrees>
            </Position>
            <AltitudeMeters>874.5999755859375</AltitudeMeters>
            <DistanceMeters>NAN</DistanceMeters>
          </Trackpoint>
          <Trackpoint>
            <Time>2019-08-01T11:00:48.000Z</Time>
            <Position>
              <LatitudeDegrees>40.63170134089887142181396484375</LatitudeDegrees>
              <LongitudeDegrees>-4.01813459582626819610595703125</LongitudeDegrees>
            </Position>
            <AltitudeMeters>874.5999755859375</AltitudeMeters>
            <DistanceMeters>NAN</DistanceMeters>
          </Trackpoint>
          <Trackpoint>
            <Time>2019-08-01T11:00:49.000Z</Time>
            <Position>
              <LatitudeDegrees>40.631735622882843017578125</LatitudeDegrees>
              <LongitudeDegrees>-4.01808178983628749847412109375</LongitudeDegrees>
            </Position>
            <AltitudeMeters>875</AltitudeMeters>
            <DistanceMeters>NAN</DistanceMeters>
          </Trackpoint>
          <Trackpoint>
            <Time>2019-08-01T11:00:50.000Z</Time>
            <Position>
              <LatitudeDegrees>40.63177258707582950592041015625</LatitudeDegrees>
              <LongitudeDegrees>-4.01802915148437023162841796875</LongitudeDegrees>
            </Position>
            <AltitudeMeters>875.5999755859375</AltitudeMeters>
            <DistanceMeters>NAN</DistanceMeters>
          </Trackpoint>
          <Trackpoint>
            <Time>2019-08-01T11:00:51.000Z</Time>
            <Position>
              <LatitudeDegrees>40.6318102218210697174072265625</LatitudeDegrees>
              <LongitudeDegrees>-4.01797601021826267242431640625</LongitudeDegrees>
            </Position>
            <AltitudeMeters>876.20001220703125</AltitudeMeters>
            <DistanceMeters>NAN</DistanceMeters>
          </Trackpoint>
          <Trackpoint>
            <Time>2019-08-01T11:00:52.000Z</Time>
            <Position>
              <LatitudeDegrees>40.6318487785756587982177734375</LatitudeDegrees>
              <LongitudeDegrees>-4.017922617495059967041015625</LongitudeDegrees>
            </Position>
            <AltitudeMeters>876.79998779296875</AltitudeMeters>
            <DistanceMeters>NAN</DistanceMeters>
          </Trackpoint>
          <Trackpoint>
            <Time>2019-08-01T11:00:53.000Z</Time>
            <Position>
              <LatitudeDegrees>40.63188725151121616363525390625</LatitudeDegrees>
              <LongitudeDegrees>-4.01786989532411098480224609375</LongitudeDegrees>
            </Position>
            <AltitudeMeters>877.4000244140625</AltitudeMeters>
            <DistanceMeters>NAN</DistanceMeters>
          </Trackpoint>
          <Trackpoint>
            <Time>2019-08-01T11:00:54.000Z</Time>
            <Position>
              <LatitudeDegrees>40.631924383342266082763671875</LatitudeDegrees>
              <LongitudeDegrees>-4.0178165026009082794189453125</LongitudeDegrees>
            </Position>
            <AltitudeMeters>877.79998779296875</AltitudeMeters>
            <DistanceMeters>NAN</DistanceMeters>
          </Trackpoint>
          <Trackpoint>
            <Time>2019-08-01T11:00:55.000Z</Time>
            <Position>
              <LatitudeDegrees>40.6319622695446014404296875</LatitudeDegrees>
              <LongitudeDegrees>-4.01776193641126155853271484375</LongitudeDegrees>
            </Position>
            <AltitudeMeters>878.4000244140625</AltitudeMeters>
            <DistanceMeters>NAN</DistanceMeters>
          </Trackpoint>
          <Trackpoint>
            <Time>2019-08-01T11:00:56.000Z</Time>
            <Position>
              <LatitudeDegrees>40.6320019997656345367431640625</LatitudeDegrees>
              <LongitudeDegrees>-4.01770728640258312225341796875</LongitudeDegrees>
            </Position>
            <AltitudeMeters>878.5999755859375</AltitudeMeters>
            <DistanceMeters>NAN</DistanceMeters>
          </Trackpoint>
          <Trackpoint>
            <Time>2019-08-01T11:00:57.000Z</Time>
            <Position>
              <LatitudeDegrees>40.6320415623486042022705078125</LatitudeDegrees>
              <LongitudeDegrees>-4.0176528878509998321533203125</LongitudeDegrees>
            </Position>
            <AltitudeMeters>878.79998779296875</AltitudeMeters>
            <DistanceMeters>NAN</DistanceMeters>
          </Trackpoint>
          <Trackpoint>
            <Time>2019-08-01T11:00:58.000Z</Time>
            <Position>
              <LatitudeDegrees>40.6320415623486042022705078125</LatitudeDegrees>
              <LongitudeDegrees>-4.0176528878509998321533203125</LongitudeDegrees>
            </Position>
            <AltitudeMeters>879</AltitudeMeters>
            <DistanceMeters>NAN</DistanceMeters>
          </Trackpoint>
          <Trackpoint>
            <Time>2019-08-01T11:00:59.000Z</Time>
            <Position>
              <LatitudeDegrees>40.6321258842945098876953125</LatitudeDegrees>
              <LongitudeDegrees>-4.01753713376820087432861328125</LongitudeDegrees>
            </Position>
            <AltitudeMeters>879</AltitudeMeters>
            <DistanceMeters>NAN</DistanceMeters>
          </Trackpoint>
          <Trackpoint>
            <Time>2019-08-01T11:01:00.000Z</Time>
            <Position>
              <LatitudeDegrees>40.63216938637197017669677734375</LatitudeDegrees>
              <LongitudeDegrees>-4.0174751915037631988525390625</LongitudeDegrees>
            </Position>
            <AltitudeMeters>879.20001220703125</AltitudeMeters>
            <DistanceMeters>NAN</DistanceMeters>
          </Trackpoint>
          <Trackpoint>
            <Time>2019-08-01T11:01:01.000Z</Time>
            <Position>
              <LatitudeDegrees>40.63221313990652561187744140625</LatitudeDegrees>
              <LongitudeDegrees>-4.017410315573215484619140625</LongitudeDegrees>
            </Position>
            <AltitudeMeters>879.20001220703125</AltitudeMeters>
            <DistanceMeters>NAN</DistanceMeters>
          </Trackpoint>
          <Trackpoint>
            <Time>2019-08-01T11:01:02.000Z</Time>
            <Position>
              <LatitudeDegrees>40.6322594918310642242431640625</LatitudeDegrees>
              <LongitudeDegrees>-4.01734133251011371612548828125</LongitudeDegrees>
            </Position>
            <AltitudeMeters>879.20001220703125</AltitudeMeters>
            <DistanceMeters>NAN</DistanceMeters>
          </Trackpoint>
          <Trackpoint>
            <Time>2019-08-01T11:01:03.000Z</Time>
            <Position>
              <LatitudeDegrees>40.63230550847947597503662109375</LatitudeDegrees>
              <LongitudeDegrees>-4.01726723648607730865478515625</LongitudeDegrees>
            </Position>
            <AltitudeMeters>879.20001220703125</AltitudeMeters>
            <DistanceMeters>NAN</DistanceMeters>
          </Trackpoint>
          <Trackpoint>
            <Time>2019-08-01T11:01:04.000Z</Time>
            <Position>
              <LatitudeDegrees>40.6323510222136974334716796875</LatitudeDegrees>
              <LongitudeDegrees>-4.01718593202531337738037109375</LongitudeDegrees>
            </Position>
            <AltitudeMeters>879.20001220703125</AltitudeMeters>
            <DistanceMeters>NAN</DistanceMeters>
          </Trackpoint>
          <Trackpoint>
            <Time>2019-08-01T11:01:05.000Z</Time>
            <Position>
              <LatitudeDegrees>40.632395111024379730224609375</LatitudeDegrees>
              <LongitudeDegrees>-4.0170973353087902069091796875</LongitudeDegrees>
            </Position>
            <AltitudeMeters>879.20001220703125</AltitudeMeters>
            <DistanceMeters>NAN</DistanceMeters>
          </Trackpoint>
          <Trackpoint>
            <Time>2019-08-01T11:01:06.000Z</Time>
            <Position>
              <LatitudeDegrees>40.6324381940066814422607421875</LatitudeDegrees>
              <LongitudeDegrees>-4.01700069196522235870361328125</LongitudeDegrees>
            </Position>
            <AltitudeMeters>879.20001220703125</AltitudeMeters>
            <DistanceMeters>NAN</DistanceMeters>
          </Trackpoint>
          <Trackpoint>
            <Time>2019-08-01T11:01:07.000Z</Time>
            <Position>
              <LatitudeDegrees>40.63248203136026859283447265625</LatitudeDegrees>
              <LongitudeDegrees>-4.01689893566071987152099609375</LongitudeDegrees>
            </Position>
            <AltitudeMeters>879.20001220703125</AltitudeMeters>
            <DistanceMeters>NAN</DistanceMeters>
          </Trackpoint>
          <Trackpoint>
            <Time>2019-08-01T11:01:08.000Z</Time>
            <Position>
              <LatitudeDegrees>40.63252561725676059722900390625</LatitudeDegrees>
              <LongitudeDegrees>-4.0167918987572193145751953125</LongitudeDegrees>
            </Position>
            <AltitudeMeters>879.20001220703125</AltitudeMeters>
            <DistanceMeters>NAN</DistanceMeters>
          </Trackpoint>
          <Trackpoint>
            <Time>2019-08-01T11:01:09.000Z</Time>
            <Position>
              <LatitudeDegrees>40.6325692869722843170166015625</LatitudeDegrees>
              <LongitudeDegrees>-4.01667932979762554168701171875</LongitudeDegrees>
            </Position>
            <AltitudeMeters>879.20001220703125</AltitudeMeters>
            <DistanceMeters>NAN</DistanceMeters>
          </Trackpoint>
          <Trackpoint>
            <Time>2019-08-01T11:01:10.000Z</Time>
            <Position>
              <LatitudeDegrees>40.6326138786971569061279296875</LatitudeDegrees>
              <LongitudeDegrees>-4.01656315661966800689697265625</LongitudeDegrees>
            </Position>
            <AltitudeMeters>879</AltitudeMeters>
            <DistanceMeters>NAN</DistanceMeters>
          </Trackpoint>
          <Trackpoint>
            <Time>2019-08-01T11:01:11.000Z</Time>
            <Position>
              <LatitudeDegrees>40.63265972770750522613525390625</LatitudeDegrees>
              <LongitudeDegrees>-4.0164455585181713104248046875</LongitudeDegrees>
            </Position>
            <AltitudeMeters>878.4000244140625</AltitudeMeters>
            <DistanceMeters>NAN</DistanceMeters>
          </Trackpoint>
          <Trackpoint>
            <Time>2019-08-01T11:01:12.000Z</Time>
            <Position>
              <LatitudeDegrees>40.63270716927945613861083984375</LatitudeDegrees>
              <LongitudeDegrees>-4.0163238532841205596923828125</LongitudeDegrees>
            </Position>
            <AltitudeMeters>878</AltitudeMeters>
            <DistanceMeters>NAN</DistanceMeters>
          </Trackpoint>
          <Trackpoint>
            <Time>2019-08-01T11:01:13.000Z</Time>
            <Position>
              <LatitudeDegrees>40.63275419175624847412109375</LatitudeDegrees>
              <LongitudeDegrees>-4.0162024833261966705322265625</LongitudeDegrees>
            </Position>
            <AltitudeMeters>877.5999755859375</AltitudeMeters>
            <DistanceMeters>NAN</DistanceMeters>
          </Trackpoint>
          <Trackpoint>
            <Time>2019-08-01T11:01:14.000Z</Time>
            <Position>
              <LatitudeDegrees>40.6328009627759456634521484375</LatitudeDegrees>
              <LongitudeDegrees>-4.016081951558589935302734375</LongitudeDegrees>
            </Position>
            <AltitudeMeters>877.20001220703125</AltitudeMeters>
            <DistanceMeters>NAN</DistanceMeters>
          </Trackpoint>
          <Trackpoint>
            <Time>2019-08-01T11:01:15.000Z</Time>
            <Position>
              <LatitudeDegrees>40.63284806907176971435546875</LatitudeDegrees>
              <LongitudeDegrees>-4.0159642696380615234375</LongitudeDegrees>
            </Position>
            <AltitudeMeters>876.4000244140625</AltitudeMeters>
            <DistanceMeters>NAN</DistanceMeters>
          </Trackpoint>
          <Trackpoint>
            <Time>2019-08-01T11:01:16.000Z</Time>
            <Position>
              <LatitudeDegrees>40.632895343005657196044921875</LatitudeDegrees>
              <LongitudeDegrees>-4.01584767736494541168212890625</LongitudeDegrees>
            </Position>
            <AltitudeMeters>875.4000244140625</AltitudeMeters>
            <DistanceMeters>NAN</DistanceMeters>
          </Trackpoint>
          <Trackpoint>
            <Time>2019-08-01T11:01:17.000Z</Time>
            <Position>
              <LatitudeDegrees>40.63294085673987865447998046875</LatitudeDegrees>
              <LongitudeDegrees>-4.0157317556440830230712890625</LongitudeDegrees>
            </Position>
            <AltitudeMeters>874.4000244140625</AltitudeMeters>
            <DistanceMeters>NAN</DistanceMeters>
          </Trackpoint>
          <Trackpoint>
            <Time>2019-08-01T11:01:18.000Z</Time>
            <Position>
              <LatitudeDegrees>40.63298662193119525909423828125</LatitudeDegrees>
              <LongitudeDegrees>-4.0156180970370769500732421875</LongitudeDegrees>
            </Position>
            <AltitudeMeters>873.20001220703125</AltitudeMeters>
            <DistanceMeters>NAN</DistanceMeters>
          </Trackpoint>
          <Trackpoint>
            <Time>2019-08-01T11:01:19.000Z</Time>
            <Position>
              <LatitudeDegrees>40.63298662193119525909423828125</LatitudeDegrees>
              <LongitudeDegrees>-4.0156180970370769500732421875</LongitudeDegrees>
            </Position>
            <AltitudeMeters>872.4000244140625</AltitudeMeters>
            <DistanceMeters>NAN</DistanceMeters>
          </Trackpoint>
          <Trackpoint>
            <Time>2019-08-01T11:01:20.000Z</Time>
            <Position>
              <LatitudeDegrees>40.6330836005508899688720703125</LatitudeDegrees>
              <LongitudeDegrees>-4.01539807207882404327392578125</LongitudeDegrees>
            </Position>
            <AltitudeMeters>871.5999755859375</AltitudeMeters>
            <DistanceMeters>NAN</DistanceMeters>
          </Trackpoint>
          <Trackpoint>
            <Time>2019-08-01T11:01:21.000Z</Time>
            <Position>
              <LatitudeDegrees>40.6331392563879489898681640625</LatitudeDegrees>
              <LongitudeDegrees>-4.01529170572757720947265625</LongitudeDegrees>
            </Position>
            <AltitudeMeters>871</AltitudeMeters>
            <DistanceMeters>NAN</DistanceMeters>
          </Trackpoint>
          <Trackpoint>
            <Time>2019-08-01T11:01:22.000Z</Time>
            <Position>
              <LatitudeDegrees>40.63319583423435688018798828125</LatitudeDegrees>
              <LongitudeDegrees>-4.0152000077068805694580078125</LongitudeDegrees>
            </Position>
            <AltitudeMeters>870.5999755859375</AltitudeMeters>
            <DistanceMeters>NAN</DistanceMeters>
          </Trackpoint>
          <Trackpoint>
            <Time>2019-08-01T11:01:23.000Z</Time>
            <Position>
              <LatitudeDegrees>40.6332519091665744781494140625</LatitudeDegrees>
              <LongitudeDegrees>-4.0151332877576351165771484375</LongitudeDegrees>
            </Position>
            <AltitudeMeters>870.5999755859375</AltitudeMeters>
            <DistanceMeters>NAN</DistanceMeters>
          </Trackpoint>
          <Trackpoint>
            <Time>2019-08-01T11:01:24.000Z</Time>
            <Position>
              <LatitudeDegrees>40.6333105824887752532958984375</LatitudeDegrees>
              <LongitudeDegrees>-4.01508727110922336578369140625</LongitudeDegrees>
            </Position>
            <AltitudeMeters>870.4000244140625</AltitudeMeters>
            <DistanceMeters>NAN</DistanceMeters>
          </Trackpoint>
          <Trackpoint>
            <Time>2019-08-01T11:01:25.000Z</Time>
            <Position>
              <LatitudeDegrees>40.63337378203868865966796875</LatitudeDegrees>
              <LongitudeDegrees>-4.01505944319069385528564453125</LongitudeDegrees>
            </Position>
            <AltitudeMeters>870.4000244140625</AltitudeMeters>
            <DistanceMeters>NAN</DistanceMeters>
          </Trackpoint>
          <Trackpoint>
            <Time>2019-08-01T11:01:26.000Z</Time>
            <Position>
              <LatitudeDegrees>40.63344628550112247467041015625</LatitudeDegrees>
              <LongitudeDegrees>-4.01503957808017730712890625</LongitudeDegrees>
            </Position>
            <AltitudeMeters>870.4000244140625</AltitudeMeters>
            <DistanceMeters>NAN</DistanceMeters>
          </Trackpoint>
          <Trackpoint>
            <Time>2019-08-01T11:01:27.000Z</Time>
            <Position>
              <LatitudeDegrees>40.6335154362022876739501953125</LatitudeDegrees>
              <LongitudeDegrees>-4.0150102414190769195556640625</LongitudeDegrees>
            </Position>
            <AltitudeMeters>870.4000244140625</AltitudeMeters>
            <DistanceMeters>NAN</DistanceMeters>
          </Trackpoint>
          <Trackpoint>
            <Time>2019-08-01T11:01:28.000Z</Time>
            <Position>
              <LatitudeDegrees>40.63357788138091564178466796875</LatitudeDegrees>
              <LongitudeDegrees>-4.01496808044612407684326171875</LongitudeDegrees>
            </Position>
            <AltitudeMeters>870.4000244140625</AltitudeMeters>
            <DistanceMeters>NAN</DistanceMeters>
          </Trackpoint>
          <Trackpoint>
            <Time>2019-08-01T11:01:29.000Z</Time>
            <Position>
              <LatitudeDegrees>40.6336321122944355010986328125</LatitudeDegrees>
              <LongitudeDegrees>-4.014917872846126556396484375</LongitudeDegrees>
            </Position>
            <AltitudeMeters>870.4000244140625</AltitudeMeters>
            <DistanceMeters>NAN</DistanceMeters>
          </Trackpoint>
          <Trackpoint>
            <Time>2019-08-01T11:01:30.000Z</Time>
            <Position>
              <LatitudeDegrees>40.6336777098476886749267578125</LatitudeDegrees>
              <LongitudeDegrees>-4.0148607082664966583251953125</LongitudeDegrees>
            </Position>
            <AltitudeMeters>870.5999755859375</AltitudeMeters>
            <DistanceMeters>NAN</DistanceMeters>
          </Trackpoint>
          <Trackpoint>
            <Time>2019-08-01T11:01:31.000Z</Time>
            <Position>
              <LatitudeDegrees>40.63371442258358001708984375</LatitudeDegrees>
              <LongitudeDegrees>-4.01480698026716709136962890625</LongitudeDegrees>
            </Position>
            <AltitudeMeters>870.79998779296875</AltitudeMeters>
            <DistanceMeters>NAN</DistanceMeters>
          </Trackpoint>
          <Trackpoint>
            <Time>2019-08-01T11:01:32.000Z</Time>
            <Position>
              <LatitudeDegrees>40.633745603263378143310546875</LatitudeDegrees>
              <LongitudeDegrees>-4.01476155035197734832763671875</LongitudeDegrees>
            </Position>
            <AltitudeMeters>871</AltitudeMeters>
            <DistanceMeters>NAN</DistanceMeters>
          </Trackpoint>
          <Trackpoint>
            <Time>2019-08-01T11:01:33.000Z</Time>
            <Position>
              <LatitudeDegrees>40.633768402040004730224609375</LatitudeDegrees>
              <LongitudeDegrees>-4.0147219039499759674072265625</LongitudeDegrees>
            </Position>
            <AltitudeMeters>871</AltitudeMeters>
            <DistanceMeters>NAN</DistanceMeters>
          </Trackpoint>
          <Trackpoint>
            <Time>2019-08-01T11:01:34.000Z</Time>
            <Position>
              <LatitudeDegrees>40.6337942183017730712890625</LatitudeDegrees>
              <LongitudeDegrees>-4.01468041352927684783935546875</LongitudeDegrees>
            </Position>
            <AltitudeMeters>871.20001220703125</AltitudeMeters>
            <DistanceMeters>NAN</DistanceMeters>
          </Trackpoint>
          <Trackpoint>
            <Time>2019-08-01T11:01:35.000Z</Time>
            <Position>
              <LatitudeDegrees>40.63381995074450969696044921875</LatitudeDegrees>
              <LongitudeDegrees>-4.01463934220373630523681640625</LongitudeDegrees>
            </Position>
            <AltitudeMeters>871.20001220703125</AltitudeMeters>
            <DistanceMeters>NAN</DistanceMeters>
          </Trackpoint>
          <Trackpoint>
            <Time>2019-08-01T11:01:36.000Z</Time>
            <Position>
              <LatitudeDegrees>40.63384450972080230712890625</LatitudeDegrees>
              <LongitudeDegrees>-4.01459726504981517791748046875</LongitudeDegrees>
            </Position>
            <AltitudeMeters>871.4000244140625</AltitudeMeters>
            <DistanceMeters>NAN</DistanceMeters>
          </Trackpoint>
          <Trackpoint>
            <Time>2019-08-01T11:01:37.000Z</Time>
            <Position>
              <LatitudeDegrees>40.63386772759258747100830078125</LatitudeDegrees>
              <LongitudeDegrees>-4.0145576186478137969970703125</LongitudeDegrees>
            </Position>
            <AltitudeMeters>871.4000244140625</AltitudeMeters>
            <DistanceMeters>NAN</DistanceMeters>
          </Trackpoint>
          <Trackpoint>
            <Time>2019-08-01T11:01:38.000Z</Time>
            <Position>
              <LatitudeDegrees>40.63389144837856292724609375</LatitudeDegrees>
              <LongitudeDegrees>-4.01451646350324153900146484375</LongitudeDegrees>
            </Position>
            <AltitudeMeters>871.5999755859375</AltitudeMeters>
            <DistanceMeters>NAN</DistanceMeters>
          </Trackpoint>
          <Trackpoint>
            <Time>2019-08-01T11:01:39.000Z</Time>
            <Position>
              <LatitudeDegrees>40.63391651026904582977294921875</LatitudeDegrees>
              <LongitudeDegrees>-4.014473967254161834716796875</LongitudeDegrees>
            </Position>
            <AltitudeMeters>871.79998779296875</AltitudeMeters>
            <DistanceMeters>NAN</DistanceMeters>
          </Trackpoint>
          <Trackpoint>
            <Time>2019-08-01T11:01:40.000Z</Time>
            <Position>
              <LatitudeDegrees>40.6339392252266407012939453125</LatitudeDegrees>
              <LongitudeDegrees>-4.01443281210958957672119140625</LongitudeDegrees>
            </Position>
            <AltitudeMeters>872</AltitudeMeters>
            <DistanceMeters>NAN</DistanceMeters>
          </Trackpoint>
          <Trackpoint>
            <Time>2019-08-01T11:01:41.000Z</Time>
            <Position>
              <LatitudeDegrees>40.63396311365067958831787109375</LatitudeDegrees>
              <LongitudeDegrees>-4.01438486762344837188720703125</LongitudeDegrees>
            </Position>
            <AltitudeMeters>872.20001220703125</AltitudeMeters>
            <DistanceMeters>NAN</DistanceMeters>
          </Trackpoint>
          <Trackpoint>
            <Time>2019-08-01T11:01:42.000Z</Time>
            <Position>
              <LatitudeDegrees>40.63398666679859161376953125</LatitudeDegrees>
              <LongitudeDegrees>-4.0143333189189434051513671875</LongitudeDegrees>
            </Position>
            <AltitudeMeters>872.20001220703125</AltitudeMeters>
            <DistanceMeters>NAN</DistanceMeters>
          </Trackpoint>
          <Trackpoint>
            <Time>2019-08-01T11:01:43.000Z</Time>
            <Position>
              <LatitudeDegrees>40.6340126506984233856201171875</LatitudeDegrees>
              <LongitudeDegrees>-4.014274813234806060791015625</LongitudeDegrees>
            </Position>
            <AltitudeMeters>872.20001220703125</AltitudeMeters>
            <DistanceMeters>NAN</DistanceMeters>
          </Trackpoint>
          <Trackpoint>
            <Time>2019-08-01T11:01:44.000Z</Time>
            <Position>
              <LatitudeDegrees>40.6340436637401580810546875</LatitudeDegrees>
              <LongitudeDegrees>-4.01420817710459232330322265625</LongitudeDegrees>
            </Position>
            <AltitudeMeters>872.20001220703125</AltitudeMeters>
            <DistanceMeters>NAN</DistanceMeters>
          </Trackpoint>
          <Trackpoint>
            <Time>2019-08-01T11:01:45.000Z</Time>
            <Position>
              <LatitudeDegrees>40.634072162210941314697265625</LatitudeDegrees>
              <LongitudeDegrees>-4.01414103806018829345703125</LongitudeDegrees>
            </Position>
            <AltitudeMeters>872.20001220703125</AltitudeMeters>
            <DistanceMeters>NAN</DistanceMeters>
          </Trackpoint>
          <Trackpoint>
            <Time>2019-08-01T11:01:46.000Z</Time>
            <Position>
              <LatitudeDegrees>40.6341008283197879791259765625</LatitudeDegrees>
              <LongitudeDegrees>-4.01407322846353054046630859375</LongitudeDegrees>
            </Position>
            <AltitudeMeters>872.20001220703125</AltitudeMeters>
            <DistanceMeters>NAN</DistanceMeters>
          </Trackpoint>
          <Trackpoint>
            <Time>2019-08-01T11:01:47.000Z</Time>
            <Position>
              <LatitudeDegrees>40.6341320089995861053466796875</LatitudeDegrees>
              <LongitudeDegrees>-4.014001898467540740966796875</LongitudeDegrees>
            </Position>
            <AltitudeMeters>872.20001220703125</AltitudeMeters>
            <DistanceMeters>NAN</DistanceMeters>
          </Trackpoint>
          <Trackpoint>
            <Time>2019-08-01T11:01:48.000Z</Time>
            <Position>
              <LatitudeDegrees>40.63416369259357452392578125</LatitudeDegrees>
              <LongitudeDegrees>-4.01393115520477294921875</LongitudeDegrees>
            </Position>
            <AltitudeMeters>872.20001220703125</AltitudeMeters>
            <DistanceMeters>NAN</DistanceMeters>
          </Trackpoint>
          <Trackpoint>
            <Time>2019-08-01T11:01:49.000Z</Time>
            <Position>
              <LatitudeDegrees>40.63419445417821407318115234375</LatitudeDegrees>
              <LongitudeDegrees>-4.01386678218841552734375</LongitudeDegrees>
            </Position>
            <AltitudeMeters>872.20001220703125</AltitudeMeters>
            <DistanceMeters>NAN</DistanceMeters>
          </Trackpoint>
          <Trackpoint>
            <Time>2019-08-01T11:01:50.000Z</Time>
            <Position>
              <LatitudeDegrees>40.634225048124790191650390625</LatitudeDegrees>
              <LongitudeDegrees>-4.0138019062578678131103515625</LongitudeDegrees>
            </Position>
            <AltitudeMeters>872.20001220703125</AltitudeMeters>
            <DistanceMeters>NAN</DistanceMeters>
          </Trackpoint>
          <Trackpoint>
            <Time>2019-08-01T11:01:51.000Z</Time>
            <Position>
              <LatitudeDegrees>40.63424893654882907867431640625</LatitudeDegrees>
              <LongitudeDegrees>-4.0137395448982715606689453125</LongitudeDegrees>
            </Position>
            <AltitudeMeters>871.79998779296875</AltitudeMeters>
            <DistanceMeters>NAN</DistanceMeters>
          </Trackpoint>
          <Trackpoint>
            <Time>2019-08-01T11:01:52.000Z</Time>
            <Position>
              <LatitudeDegrees>40.6342694722115993499755859375</LatitudeDegrees>
              <LongitudeDegrees>-4.0136748366057872772216796875</LongitudeDegrees>
            </Position>
            <AltitudeMeters>871.5999755859375</AltitudeMeters>
            <DistanceMeters>NAN</DistanceMeters>
          </Trackpoint>
          <Trackpoint>
            <Time>2019-08-01T11:01:53.000Z</Time>
            <Position>
              <LatitudeDegrees>40.63428631983697414398193359375</LatitudeDegrees>
              <LongitudeDegrees>-4.01361691765487194061279296875</LongitudeDegrees>
            </Position>
            <AltitudeMeters>871.4000244140625</AltitudeMeters>
            <DistanceMeters>NAN</DistanceMeters>
          </Trackpoint>
          <Trackpoint>
            <Time>2019-08-01T11:01:54.000Z</Time>
            <Position>
              <LatitudeDegrees>40.63430073671042919158935546875</LatitudeDegrees>
              <LongitudeDegrees>-4.01356478221714496612548828125</LongitudeDegrees>
            </Position>
            <AltitudeMeters>871.20001220703125</AltitudeMeters>
            <DistanceMeters>NAN</DistanceMeters>
          </Trackpoint>
          <Trackpoint>
            <Time>2019-08-01T11:01:55.000Z</Time>
            <Position>
              <LatitudeDegrees>40.63431657850742340087890625</LatitudeDegrees>
              <LongitudeDegrees>-4.01351951994001865386962890625</LongitudeDegrees>
            </Position>
            <AltitudeMeters>871</AltitudeMeters>
            <DistanceMeters>NAN</DistanceMeters>
          </Trackpoint>
          <Trackpoint>
            <Time>2019-08-01T11:01:56.000Z</Time>
            <Position>
              <LatitudeDegrees>40.63433535397052764892578125</LatitudeDegrees>
              <LongitudeDegrees>-4.01347962208092212677001953125</LongitudeDegrees>
            </Position>
            <AltitudeMeters>871</AltitudeMeters>
            <DistanceMeters>NAN</DistanceMeters>
          </Trackpoint>
          <Trackpoint>
            <Time>2019-08-01T11:01:57.000Z</Time>
            <Position>
              <LatitudeDegrees>40.634356476366519927978515625</LatitudeDegrees>
              <LongitudeDegrees>-4.013440310955047607421875</LongitudeDegrees>
            </Position>
            <AltitudeMeters>871</AltitudeMeters>
            <DistanceMeters>NAN</DistanceMeters>
          </Trackpoint>
          <Trackpoint>
            <Time>2019-08-01T11:01:58.000Z</Time>
            <Position>
              <LatitudeDegrees>40.6343713961541652679443359375</LatitudeDegrees>
              <LongitudeDegrees>-4.01339597068727016448974609375</LongitudeDegrees>
            </Position>
            <AltitudeMeters>870.79998779296875</AltitudeMeters>
            <DistanceMeters>NAN</DistanceMeters>
          </Trackpoint>
          <Trackpoint>
            <Time>2019-08-01T11:01:59.000Z</Time>
            <Position>
              <LatitudeDegrees>40.6343843042850494384765625</LatitudeDegrees>
              <LongitudeDegrees>-4.0133489482104778289794921875</LongitudeDegrees>
            </Position>
            <AltitudeMeters>870.79998779296875</AltitudeMeters>
            <DistanceMeters>NAN</DistanceMeters>
          </Trackpoint>
          <Trackpoint>
            <Time>2019-08-01T11:02:00.000Z</Time>
            <Position>
              <LatitudeDegrees>40.63440165482461452484130859375</LatitudeDegrees>
              <LongitudeDegrees>-4.01330159045755863189697265625</LongitudeDegrees>
            </Position>
            <AltitudeMeters>870.79998779296875</AltitudeMeters>
            <DistanceMeters>NAN</DistanceMeters>
          </Trackpoint>
          <Trackpoint>
            <Time>2019-08-01T11:02:01.000Z</Time>
            <Position>
              <LatitudeDegrees>40.63442076556384563446044921875</LatitudeDegrees>
              <LongitudeDegrees>-4.01325180195271968841552734375</LongitudeDegrees>
            </Position>
            <AltitudeMeters>870.79998779296875</AltitudeMeters>
            <DistanceMeters>NAN</DistanceMeters>
          </Trackpoint>
          <Trackpoint>
            <Time>2019-08-01T11:02:02.000Z</Time>
            <Position>
              <LatitudeDegrees>40.63444272615015506744384765625</LatitudeDegrees>
              <LongitudeDegrees>-4.01319832541048526763916015625</LongitudeDegrees>
            </Position>
            <AltitudeMeters>870.79998779296875</AltitudeMeters>
            <DistanceMeters>NAN</DistanceMeters>
          </Trackpoint>
          <Trackpoint>
            <Time>2019-08-01T11:02:03.000Z</Time>
            <Position>
              <LatitudeDegrees>40.63446552492678165435791015625</LatitudeDegrees>
              <LongitudeDegrees>-4.01314015500247478485107421875</LongitudeDegrees>
            </Position>
            <AltitudeMeters>870.79998779296875</AltitudeMeters>
            <DistanceMeters>NAN</DistanceMeters>
          </Trackpoint>
          <Trackpoint>
            <Time>2019-08-01T11:02:04.000Z</Time>
            <Position>
              <LatitudeDegrees>40.63448748551309108734130859375</LatitudeDegrees>
              <LongitudeDegrees>-4.0130813978612422943115234375</LongitudeDegrees>
            </Position>
            <AltitudeMeters>870.5999755859375</AltitudeMeters>
            <DistanceMeters>NAN</DistanceMeters>
          </Trackpoint>
          <Trackpoint>
            <Time>2019-08-01T11:02:05.000Z</Time>
            <Position>
              <LatitudeDegrees>40.63448748551309108734130859375</LatitudeDegrees>
              <LongitudeDegrees>-4.0130813978612422943115234375</LongitudeDegrees>
            </Position>
            <AltitudeMeters>870.5999755859375</AltitudeMeters>
            <DistanceMeters>NAN</DistanceMeters>
          </Trackpoint>
          <Trackpoint>
            <Time>2019-08-01T11:02:06.000Z</Time>
            <Position>
              <LatitudeDegrees>40.6345236115157604217529296875</LatitudeDegrees>
              <LongitudeDegrees>-4.01296514086425304412841796875</LongitudeDegrees>
            </Position>
            <AltitudeMeters>870.5999755859375</AltitudeMeters>
            <DistanceMeters>NAN</DistanceMeters>
          </Trackpoint>
          <Trackpoint>
            <Time>2019-08-01T11:02:07.000Z</Time>
            <Position>
              <LatitudeDegrees>40.63454163260757923126220703125</LatitudeDegrees>
              <LongitudeDegrees>-4.01290143840014934539794921875</LongitudeDegrees>
            </Position>
            <AltitudeMeters>870.5999755859375</AltitudeMeters>
            <DistanceMeters>NAN</DistanceMeters>
          </Trackpoint>
          <Trackpoint>
            <Time>2019-08-01T11:02:08.000Z</Time>
            <Position>
              <LatitudeDegrees>40.63455454073846340179443359375</LatitudeDegrees>
              <LongitudeDegrees>-4.01283773593604564666748046875</LongitudeDegrees>
            </Position>
            <AltitudeMeters>870.5999755859375</AltitudeMeters>
            <DistanceMeters>NAN</DistanceMeters>
          </Trackpoint>
          <Trackpoint>
            <Time>2019-08-01T11:02:09.000Z</Time>
            <Position>
              <LatitudeDegrees>40.63455454073846340179443359375</LatitudeDegrees>
              <LongitudeDegrees>-4.01283773593604564666748046875</LongitudeDegrees>
            </Position>
            <AltitudeMeters>870.4000244140625</AltitudeMeters>
            <DistanceMeters>NAN</DistanceMeters>
          </Trackpoint>
          <Trackpoint>
            <Time>2019-08-01T11:02:10.000Z</Time>
            <Position>
              <LatitudeDegrees>40.63456610776484012603759765625</LatitudeDegrees>
              <LongitudeDegrees>-4.012706391513347625732421875</LongitudeDegrees>
            </Position>
            <AltitudeMeters>870.4000244140625</AltitudeMeters>
            <DistanceMeters>NAN</DistanceMeters>
          </Trackpoint>
          <Trackpoint>
            <Time>2019-08-01T11:02:11.000Z</Time>
            <Position>
              <LatitudeDegrees>40.6345688737928867340087890625</LatitudeDegrees>
              <LongitudeDegrees>-4.01264226995408535003662109375</LongitudeDegrees>
            </Position>
            <AltitudeMeters>870.4000244140625</AltitudeMeters>
            <DistanceMeters>NAN</DistanceMeters>
          </Trackpoint>
          <Trackpoint>
            <Time>2019-08-01T11:02:12.000Z</Time>
            <Position>
              <LatitudeDegrees>40.634567700326442718505859375</LatitudeDegrees>
              <LongitudeDegrees>-4.01258493773639202117919921875</LongitudeDegrees>
            </Position>
            <AltitudeMeters>870.20001220703125</AltitudeMeters>
            <DistanceMeters>NAN</DistanceMeters>
          </Trackpoint>
          <Trackpoint>
            <Time>2019-08-01T11:02:13.000Z</Time>
            <Position>
              <LatitudeDegrees>40.6345641799271106719970703125</LatitudeDegrees>
              <LongitudeDegrees>-4.0125328861176967620849609375</LongitudeDegrees>
            </Position>
            <AltitudeMeters>870.20001220703125</AltitudeMeters>
            <DistanceMeters>NAN</DistanceMeters>
          </Trackpoint>
          <Trackpoint>
            <Time>2019-08-01T11:02:14.000Z</Time>
            <Position>
              <LatitudeDegrees>40.63455923460423946380615234375</LatitudeDegrees>
              <LongitudeDegrees>-4.01247899048030376434326171875</LongitudeDegrees>
            </Position>
            <AltitudeMeters>870.20001220703125</AltitudeMeters>
            <DistanceMeters>NAN</DistanceMeters>
          </Trackpoint>
          <Trackpoint>
            <Time>2019-08-01T11:02:15.000Z</Time>
            <Position>
              <LatitudeDegrees>40.63455403782427310943603515625</LatitudeDegrees>
              <LongitudeDegrees>-4.01242911815643310546875</LongitudeDegrees>
            </Position>
            <AltitudeMeters>870.20001220703125</AltitudeMeters>
            <DistanceMeters>NAN</DistanceMeters>
          </Trackpoint>
          <Trackpoint>
            <Time>2019-08-01T11:02:16.000Z</Time>
            <Position>
              <LatitudeDegrees>40.63454330898821353912353515625</LatitudeDegrees>
              <LongitudeDegrees>-4.0123836882412433624267578125</LongitudeDegrees>
            </Position>
            <AltitudeMeters>870.20001220703125</AltitudeMeters>
            <DistanceMeters>NAN</DistanceMeters>
          </Trackpoint>
          <Trackpoint>
            <Time>2019-08-01T11:02:17.000Z</Time>
            <Position>
              <LatitudeDegrees>40.63452973030507564544677734375</LatitudeDegrees>
              <LongitudeDegrees>-4.01233918033540248870849609375</LongitudeDegrees>
            </Position>
            <AltitudeMeters>870.20001220703125</AltitudeMeters>
            <DistanceMeters>NAN</DistanceMeters>
          </Trackpoint>
          <Trackpoint>
            <Time>2019-08-01T11:02:18.000Z</Time>
            <Position>
              <LatitudeDegrees>40.6345152296125888824462890625</LatitudeDegrees>
              <LongitudeDegrees>-4.01229509152472019195556640625</LongitudeDegrees>
            </Position>
            <AltitudeMeters>870.20001220703125</AltitudeMeters>
            <DistanceMeters>NAN</DistanceMeters>
          </Trackpoint>
          <Trackpoint>
            <Time>2019-08-01T11:02:19.000Z</Time>
            <Position>
              <LatitudeDegrees>40.6344994716346263885498046875</LatitudeDegrees>
              <LongitudeDegrees>-4.0122529305517673492431640625</LongitudeDegrees>
            </Position>
            <AltitudeMeters>870.20001220703125</AltitudeMeters>
            <DistanceMeters>NAN</DistanceMeters>
          </Trackpoint>
          <Trackpoint>
            <Time>2019-08-01T11:02:20.000Z</Time>
            <Position>
              <LatitudeDegrees>40.6344810314476490020751953125</LatitudeDegrees>
              <LongitudeDegrees>-4.01220909319818019866943359375</LongitudeDegrees>
            </Position>
            <AltitudeMeters>870.4000244140625</AltitudeMeters>
            <DistanceMeters>NAN</DistanceMeters>
          </Trackpoint>
          <Trackpoint>
            <Time>2019-08-01T11:02:21.000Z</Time>
            <Position>
              <LatitudeDegrees>40.63445965759456157684326171875</LatitudeDegrees>
              <LongitudeDegrees>-4.0121667645871639251708984375</LongitudeDegrees>
            </Position>
            <AltitudeMeters>870.4000244140625</AltitudeMeters>
            <DistanceMeters>NAN</DistanceMeters>
          </Trackpoint>
          <Trackpoint>
            <Time>2019-08-01T11:02:22.000Z</Time>
            <Position>
              <LatitudeDegrees>40.63443459570407867431640625</LatitudeDegrees>
              <LongitudeDegrees>-4.0121228434145450592041015625</LongitudeDegrees>
            </Position>
            <AltitudeMeters>870.4000244140625</AltitudeMeters>
            <DistanceMeters>NAN</DistanceMeters>
          </Trackpoint>
          <Trackpoint>
            <Time>2019-08-01T11:02:23.000Z</Time>
            <Position>
              <LatitudeDegrees>40.63440777361392974853515625</LatitudeDegrees>
              <LongitudeDegrees>-4.01207515038549900054931640625</LongitudeDegrees>
            </Position>
            <AltitudeMeters>870.4000244140625</AltitudeMeters>
            <DistanceMeters>NAN</DistanceMeters>
          </Trackpoint>
          <Trackpoint>
            <Time>2019-08-01T11:02:24.000Z</Time>
            <Position>
              <LatitudeDegrees>40.63440777361392974853515625</LatitudeDegrees>
              <LongitudeDegrees>-4.01207515038549900054931640625</LongitudeDegrees>
            </Position>
            <AltitudeMeters>870.4000244140625</AltitudeMeters>
            <DistanceMeters>NAN</DistanceMeters>
          </Trackpoint>
          <Trackpoint>
            <Time>2019-08-01T11:02:25.000Z</Time>
            <Position>
              <LatitudeDegrees>40.63435186631977558135986328125</LatitudeDegrees>
              <LongitudeDegrees>-4.01198429055511951446533203125</LongitudeDegrees>
            </Position>
            <AltitudeMeters>870.4000244140625</AltitudeMeters>
            <DistanceMeters>NAN</DistanceMeters>
          </Trackpoint>
          <Trackpoint>
            <Time>2019-08-01T11:02:26.000Z</Time>
            <Position>
              <LatitudeDegrees>40.63432470895349979400634765625</LatitudeDegrees>
              <LongitudeDegrees>-4.01194430887699127197265625</LongitudeDegrees>
            </Position>
            <AltitudeMeters>870.5999755859375</AltitudeMeters>
            <DistanceMeters>NAN</DistanceMeters>
          </Trackpoint>
          <Trackpoint>
            <Time>2019-08-01T11:02:27.000Z</Time>
            <Position>
              <LatitudeDegrees>40.63429755158722400665283203125</LatitudeDegrees>
              <LongitudeDegrees>-4.0119032375514507293701171875</LongitudeDegrees>
            </Position>
            <AltitudeMeters>870.5999755859375</AltitudeMeters>
            <DistanceMeters>NAN</DistanceMeters>
          </Trackpoint>
          <Trackpoint>
            <Time>2019-08-01T11:02:28.000Z</Time>
            <Position>
              <LatitudeDegrees>40.63427123241126537322998046875</LatitudeDegrees>
              <LongitudeDegrees>-4.01186275295913219451904296875</LongitudeDegrees>
            </Position>
            <AltitudeMeters>870.5999755859375</AltitudeMeters>
            <DistanceMeters>NAN</DistanceMeters>
          </Trackpoint>
          <Trackpoint>
            <Time>2019-08-01T11:02:29.000Z</Time>
            <Position>
              <LatitudeDegrees>40.6342456676065921783447265625</LatitudeDegrees>
              <LongitudeDegrees>-4.0118184126913547515869140625</LongitudeDegrees>
            </Position>
            <AltitudeMeters>870.5999755859375</AltitudeMeters>
            <DistanceMeters>NAN</DistanceMeters>
          </Trackpoint>
          <Trackpoint>
            <Time>2019-08-01T11:02:30.000Z</Time>
            <Position>
              <LatitudeDegrees>40.63421892933547496795654296875</LatitudeDegrees>
              <LongitudeDegrees>-4.01177491061389446258544921875</LongitudeDegrees>
            </Position>
            <AltitudeMeters>870.5999755859375</AltitudeMeters>
            <DistanceMeters>NAN</DistanceMeters>
          </Trackpoint>
          <Trackpoint>
            <Time>2019-08-01T11:02:31.000Z</Time>
            <Position>
              <LatitudeDegrees>40.63418473117053508758544921875</LatitudeDegrees>
              <LongitudeDegrees>-4.0117371082305908203125</LongitudeDegrees>
            </Position>
            <AltitudeMeters>870.5999755859375</AltitudeMeters>
            <DistanceMeters>NAN</DistanceMeters>
          </Trackpoint>
          <Trackpoint>
            <Time>2019-08-01T11:02:32.000Z</Time>
            <Position>
              <LatitudeDegrees>40.634144581854343414306640625</LatitudeDegrees>
              <LongitudeDegrees>-4.0117107890546321868896484375</LongitudeDegrees>
            </Position>
            <AltitudeMeters>870.5999755859375</AltitudeMeters>
            <DistanceMeters>NAN</DistanceMeters>
          </Trackpoint>
          <Trackpoint>
            <Time>2019-08-01T11:02:33.000Z</Time>
            <Position>
              <LatitudeDegrees>40.634101331233978271484375</LatitudeDegrees>
              <LongitudeDegrees>-4.0116901695728302001953125</LongitudeDegrees>
            </Position>
            <AltitudeMeters>870.5999755859375</AltitudeMeters>
            <DistanceMeters>NAN</DistanceMeters>
          </Trackpoint>
          <Trackpoint>
            <Time>2019-08-01T11:02:34.000Z</Time>
            <Position>
              <LatitudeDegrees>40.63405481167137622833251953125</LatitudeDegrees>
              <LongitudeDegrees>-4.0116742439568042755126953125</LongitudeDegrees>
            </Position>
            <AltitudeMeters>870.5999755859375</AltitudeMeters>
            <DistanceMeters>NAN</DistanceMeters>
          </Trackpoint>
          <Trackpoint>
            <Time>2019-08-01T11:02:35.000Z</Time>
            <Position>
              <LatitudeDegrees>40.6340066157281398773193359375</LatitudeDegrees>
              <LongitudeDegrees>-4.011654965579509735107421875</LongitudeDegrees>
            </Position>
            <AltitudeMeters>870.5999755859375</AltitudeMeters>
            <DistanceMeters>NAN</DistanceMeters>
          </Trackpoint>
          <Trackpoint>
            <Time>2019-08-01T11:02:36.000Z</Time>
            <Position>
              <LatitudeDegrees>40.63396076671779155731201171875</LatitudeDegrees>
              <LongitudeDegrees>-4.01162034831941127777099609375</LongitudeDegrees>
            </Position>
            <AltitudeMeters>870.4000244140625</AltitudeMeters>
            <DistanceMeters>NAN</DistanceMeters>
          </Trackpoint>
          <Trackpoint>
            <Time>2019-08-01T11:02:37.000Z</Time>
            <Position>
              <LatitudeDegrees>40.633923299610614776611328125</LatitudeDegrees>
              <LongitudeDegrees>-4.01156754232943058013916015625</LongitudeDegrees>
            </Position>
            <AltitudeMeters>870.4000244140625</AltitudeMeters>
            <DistanceMeters>NAN</DistanceMeters>
          </Trackpoint>
          <Trackpoint>
            <Time>2019-08-01T11:02:38.000Z</Time>
            <Position>
              <LatitudeDegrees>40.6338986568152904510498046875</LatitudeDegrees>
              <LongitudeDegrees>-4.01150149293243885040283203125</LongitudeDegrees>
            </Position>
            <AltitudeMeters>870.4000244140625</AltitudeMeters>
            <DistanceMeters>NAN</DistanceMeters>
          </Trackpoint>
          <Trackpoint>
            <Time>2019-08-01T11:02:39.000Z</Time>
            <Position>
              <LatitudeDegrees>40.63388985581696033477783203125</LatitudeDegrees>
              <LongitudeDegrees>-4.0114294923841953277587890625</LongitudeDegrees>
            </Position>
            <AltitudeMeters>870.4000244140625</AltitudeMeters>
            <DistanceMeters>NAN</DistanceMeters>
          </Trackpoint>
          <Trackpoint>
            <Time>2019-08-01T11:02:40.000Z</Time>
            <Position>
              <LatitudeDegrees>40.63389941118657588958740234375</LatitudeDegrees>
              <LongitudeDegrees>-4.011359252035617828369140625</LongitudeDegrees>
            </Position>
            <AltitudeMeters>870.4000244140625</AltitudeMeters>
            <DistanceMeters>NAN</DistanceMeters>
          </Trackpoint>
          <Trackpoint>
            <Time>2019-08-01T11:02:41.000Z</Time>
            <Position>
              <LatitudeDegrees>40.6339268200099468231201171875</LatitudeDegrees>
              <LongitudeDegrees>-4.01129982434213161468505859375</LongitudeDegrees>
            </Position>
            <AltitudeMeters>870.4000244140625</AltitudeMeters>
            <DistanceMeters>NAN</DistanceMeters>
          </Trackpoint>
          <Trackpoint>
            <Time>2019-08-01T11:02:42.000Z</Time>
            <Position>
              <LatitudeDegrees>40.63396562822163105010986328125</LatitudeDegrees>
              <LongitudeDegrees>-4.01126378215849399566650390625</LongitudeDegrees>
            </Position>
            <AltitudeMeters>870.4000244140625</AltitudeMeters>
            <DistanceMeters>NAN</DistanceMeters>
          </Trackpoint>
          <Trackpoint>
            <Time>2019-08-01T11:02:43.000Z</Time>
            <Position>
              <LatitudeDegrees>40.6340066157281398773193359375</LatitudeDegrees>
              <LongitudeDegrees>-4.01125120930373668670654296875</LongitudeDegrees>
            </Position>
            <AltitudeMeters>870.4000244140625</AltitudeMeters>
            <DistanceMeters>NAN</DistanceMeters>
          </Trackpoint>
          <Trackpoint>
            <Time>2019-08-01T11:02:44.000Z</Time>
            <Position>
              <LatitudeDegrees>40.634047687053680419921875</LatitudeDegrees>
              <LongitudeDegrees>-4.01125841774046421051025390625</LongitudeDegrees>
            </Position>
            <AltitudeMeters>870.4000244140625</AltitudeMeters>
            <DistanceMeters>NAN</DistanceMeters>
          </Trackpoint>
          <Trackpoint>
            <Time>2019-08-01T11:02:45.000Z</Time>
            <Position>
              <LatitudeDegrees>40.63408792018890380859375</LatitudeDegrees>
              <LongitudeDegrees>-4.01128339581191539764404296875</LongitudeDegrees>
            </Position>
            <AltitudeMeters>870.4000244140625</AltitudeMeters>
            <DistanceMeters>NAN</DistanceMeters>
          </Trackpoint>
          <Trackpoint>
            <Time>2019-08-01T11:02:46.000Z</Time>
            <Position>
              <LatitudeDegrees>40.63412723131477832794189453125</LatitudeDegrees>
              <LongitudeDegrees>-4.01131994090974330902099609375</LongitudeDegrees>
            </Position>
            <AltitudeMeters>870.4000244140625</AltitudeMeters>
            <DistanceMeters>NAN</DistanceMeters>
          </Trackpoint>
          <Trackpoint>
            <Time>2019-08-01T11:02:47.000Z</Time>
            <Position>
              <LatitudeDegrees>40.63416302204132080078125</LatitudeDegrees>
              <LongitudeDegrees>-4.011364281177520751953125</LongitudeDegrees>
            </Position>
            <AltitudeMeters>870.4000244140625</AltitudeMeters>
            <DistanceMeters>NAN</DistanceMeters>
          </Trackpoint>
          <Trackpoint>
            <Time>2019-08-01T11:02:48.000Z</Time>
            <Position>
              <LatitudeDegrees>40.6341970525681972503662109375</LatitudeDegrees>
              <LongitudeDegrees>-4.01141532696783542633056640625</LongitudeDegrees>
            </Position>
            <AltitudeMeters>870.4000244140625</AltitudeMeters>
            <DistanceMeters>NAN</DistanceMeters>
          </Trackpoint>
          <Trackpoint>
            <Time>2019-08-01T11:02:49.000Z</Time>
            <Position>
              <LatitudeDegrees>40.634230412542819976806640625</LatitudeDegrees>
              <LongitudeDegrees>-4.01146779768168926239013671875</LongitudeDegrees>
            </Position>
            <AltitudeMeters>870.4000244140625</AltitudeMeters>
            <DistanceMeters>NAN</DistanceMeters>
          </Trackpoint>
          <Trackpoint>
            <Time>2019-08-01T11:02:50.000Z</Time>
            <Position>
              <LatitudeDegrees>40.6342671252787113189697265625</LatitudeDegrees>
              <LongitudeDegrees>-4.01152127422392368316650390625</LongitudeDegrees>
            </Position>
            <AltitudeMeters>870.4000244140625</AltitudeMeters>
            <DistanceMeters>NAN</DistanceMeters>
          </Trackpoint>
          <Trackpoint>
            <Time>2019-08-01T11:02:51.000Z</Time>
            <Position>
              <LatitudeDegrees>40.634307861328125</LatitudeDegrees>
              <LongitudeDegrees>-4.01156745851039886474609375</LongitudeDegrees>
            </Position>
            <AltitudeMeters>870.4000244140625</AltitudeMeters>
            <DistanceMeters>NAN</DistanceMeters>
          </Trackpoint>
          <Trackpoint>
            <Time>2019-08-01T11:02:52.000Z</Time>
            <Position>
              <LatitudeDegrees>40.6343556381762027740478515625</LatitudeDegrees>
              <LongitudeDegrees>-4.0116045065224170684814453125</LongitudeDegrees>
            </Position>
            <AltitudeMeters>870.4000244140625</AltitudeMeters>
            <DistanceMeters>NAN</DistanceMeters>
          </Trackpoint>
          <Trackpoint>
            <Time>2019-08-01T11:02:53.000Z</Time>
            <Position>
              <LatitudeDegrees>40.63440970145165920257568359375</LatitudeDegrees>
              <LongitudeDegrees>-4.01163627393543720245361328125</LongitudeDegrees>
            </Position>
            <AltitudeMeters>870.5999755859375</AltitudeMeters>
            <DistanceMeters>NAN</DistanceMeters>
          </Trackpoint>
          <Trackpoint>
            <Time>2019-08-01T11:02:54.000Z</Time>
            <Position>
              <LatitudeDegrees>40.63446619547903537750244140625</LatitudeDegrees>
              <LongitudeDegrees>-4.01166494004428386688232421875</LongitudeDegrees>
            </Position>
            <AltitudeMeters>870.5999755859375</AltitudeMeters>
            <DistanceMeters>NAN</DistanceMeters>
          </Trackpoint>
          <Trackpoint>
            <Time>2019-08-01T11:02:55.000Z</Time>
            <Position>
              <LatitudeDegrees>40.63446619547903537750244140625</LatitudeDegrees>
              <LongitudeDegrees>-4.01166494004428386688232421875</LongitudeDegrees>
            </Position>
            <AltitudeMeters>870.79998779296875</AltitudeMeters>
            <DistanceMeters>NAN</DistanceMeters>
          </Trackpoint>
          <Trackpoint>
            <Time>2019-08-01T11:02:56.000Z</Time>
            <Position>
              <LatitudeDegrees>40.63458153046667575836181640625</LatitudeDegrees>
              <LongitudeDegrees>-4.01172243990004062652587890625</LongitudeDegrees>
            </Position>
            <AltitudeMeters>870.79998779296875</AltitudeMeters>
            <DistanceMeters>NAN</DistanceMeters>
          </Trackpoint>
          <Trackpoint>
            <Time>2019-08-01T11:02:57.000Z</Time>
            <Position>
              <LatitudeDegrees>40.6346359290182590484619140625</LatitudeDegrees>
              <LongitudeDegrees>-4.01175387203693389892578125</LongitudeDegrees>
            </Position>
            <AltitudeMeters>870.79998779296875</AltitudeMeters>
            <DistanceMeters>NAN</DistanceMeters>
          </Trackpoint>
          <Trackpoint>
            <Time>2019-08-01T11:02:58.000Z</Time>
            <Position>
              <LatitudeDegrees>40.63468546606600284576416015625</LatitudeDegrees>
              <LongitudeDegrees>-4.0117939375340938568115234375</LongitudeDegrees>
            </Position>
            <AltitudeMeters>870.79998779296875</AltitudeMeters>
            <DistanceMeters>NAN</DistanceMeters>
          </Trackpoint>
          <Trackpoint>
            <Time>2019-08-01T11:02:59.000Z</Time>
            <Position>
              <LatitudeDegrees>40.63472838141024112701416015625</LatitudeDegrees>
              <LongitudeDegrees>-4.0118403732776641845703125</LongitudeDegrees>
            </Position>
            <AltitudeMeters>870.79998779296875</AltitudeMeters>
            <DistanceMeters>NAN</DistanceMeters>
          </Trackpoint>
          <Trackpoint>
            <Time>2019-08-01T11:03:00.000Z</Time>
            <Position>
              <LatitudeDegrees>40.634764172136783599853515625</LatitudeDegrees>
              <LongitudeDegrees>-4.011890999972820281982421875</LongitudeDegrees>
            </Position>
            <AltitudeMeters>870.79998779296875</AltitudeMeters>
            <DistanceMeters>NAN</DistanceMeters>
          </Trackpoint>
          <Trackpoint>
            <Time>2019-08-01T11:03:01.000Z</Time>
            <Position>
              <LatitudeDegrees>40.63479158096015453338623046875</LatitudeDegrees>
              <LongitudeDegrees>-4.01194338686764240264892578125</LongitudeDegrees>
            </Position>
            <AltitudeMeters>871</AltitudeMeters>
            <DistanceMeters>NAN</DistanceMeters>
          </Trackpoint>
          <Trackpoint>
            <Time>2019-08-01T11:03:02.000Z</Time>
            <Position>
              <LatitudeDegrees>40.6348139606416225433349609375</LatitudeDegrees>
              <LongitudeDegrees>-4.011992923915386199951171875</LongitudeDegrees>
            </Position>
            <AltitudeMeters>871</AltitudeMeters>
            <DistanceMeters>NAN</DistanceMeters>
          </Trackpoint>
          <Trackpoint>
            <Time>2019-08-01T11:03:03.000Z</Time>
            <Position>
              <LatitudeDegrees>40.63483583740890026092529296875</LatitudeDegrees>
              <LongitudeDegrees>-4.01203491725027561187744140625</LongitudeDegrees>
            </Position>
            <AltitudeMeters>871</AltitudeMeters>
            <DistanceMeters>NAN</DistanceMeters>
          </Trackpoint>
          <Trackpoint>
            <Time>2019-08-01T11:03:04.000Z</Time>
            <Position>
              <LatitudeDegrees>40.634860731661319732666015625</LatitudeDegrees>
              <LongitudeDegrees>-4.01206458918750286102294921875</LongitudeDegrees>
            </Position>
            <AltitudeMeters>871.20001220703125</AltitudeMeters>
            <DistanceMeters>NAN</DistanceMeters>
          </Trackpoint>
          <Trackpoint>
            <Time>2019-08-01T11:03:05.000Z</Time>
            <Position>
              <LatitudeDegrees>40.6348887272179126739501953125</LatitudeDegrees>
              <LongitudeDegrees>-4.01207984425127506256103515625</LongitudeDegrees>
            </Position>
            <AltitudeMeters>871.20001220703125</AltitudeMeters>
            <DistanceMeters>NAN</DistanceMeters>
          </Trackpoint>
          <Trackpoint>
            <Time>2019-08-01T11:03:06.000Z</Time>
            <Position>
              <LatitudeDegrees>40.634921081364154815673828125</LatitudeDegrees>
              <LongitudeDegrees>-4.0120817720890045166015625</LongitudeDegrees>
            </Position>
            <AltitudeMeters>871.20001220703125</AltitudeMeters>
            <DistanceMeters>NAN</DistanceMeters>
          </Trackpoint>
          <Trackpoint>
            <Time>2019-08-01T11:03:07.000Z</Time>
            <Position>
              <LatitudeDegrees>40.63495737500488758087158203125</LatitudeDegrees>
              <LongitudeDegrees>-4.012067355215549468994140625</LongitudeDegrees>
            </Position>
            <AltitudeMeters>871.4000244140625</AltitudeMeters>
            <DistanceMeters>NAN</DistanceMeters>
          </Trackpoint>
          <Trackpoint>
            <Time>2019-08-01T11:03:08.000Z</Time>
            <Position>
              <LatitudeDegrees>40.63499626703560352325439453125</LatitudeDegrees>
              <LongitudeDegrees>-4.012037850916385650634765625</LongitudeDegrees>
            </Position>
            <AltitudeMeters>871.5999755859375</AltitudeMeters>
            <DistanceMeters>NAN</DistanceMeters>
          </Trackpoint>
          <Trackpoint>
            <Time>2019-08-01T11:03:09.000Z</Time>
            <Position>
              <LatitudeDegrees>40.63503750599920749664306640625</LatitudeDegrees>
              <LongitudeDegrees>-4.0119987912476062774658203125</LongitudeDegrees>
            </Position>
            <AltitudeMeters>871.5999755859375</AltitudeMeters>
            <DistanceMeters>NAN</DistanceMeters>
          </Trackpoint>
          <Trackpoint>
            <Time>2019-08-01T11:03:10.000Z</Time>
            <Position>
              <LatitudeDegrees>40.63508461229503154754638671875</LatitudeDegrees>
              <LongitudeDegrees>-4.01195730082690715789794921875</LongitudeDegrees>
            </Position>
            <AltitudeMeters>871.79998779296875</AltitudeMeters>
            <DistanceMeters>NAN</DistanceMeters>
          </Trackpoint>
          <Trackpoint>
            <Time>2019-08-01T11:03:11.000Z</Time>
            <Position>
              <LatitudeDegrees>40.63513356260955333709716796875</LatitudeDegrees>
              <LongitudeDegrees>-4.0119216777384281158447265625</LongitudeDegrees>
            </Position>
            <AltitudeMeters>872.20001220703125</AltitudeMeters>
            <DistanceMeters>NAN</DistanceMeters>
          </Trackpoint>
          <Trackpoint>
            <Time>2019-08-01T11:03:12.000Z</Time>
            <Position>
              <LatitudeDegrees>40.63518452458083629608154296875</LatitudeDegrees>
              <LongitudeDegrees>-4.01189326308667659759521484375</LongitudeDegrees>
            </Position>
            <AltitudeMeters>872.5999755859375</AltitudeMeters>
            <DistanceMeters>NAN</DistanceMeters>
          </Trackpoint>
          <Trackpoint>
            <Time>2019-08-01T11:03:13.000Z</Time>
            <Position>
              <LatitudeDegrees>40.63523364253342151641845703125</LatitudeDegrees>
              <LongitudeDegrees>-4.01186912320554256439208984375</LongitudeDegrees>
            </Position>
            <AltitudeMeters>872.5999755859375</AltitudeMeters>
            <DistanceMeters>NAN</DistanceMeters>
          </Trackpoint>
          <Trackpoint>
            <Time>2019-08-01T11:03:14.000Z</Time>
            <Position>
              <LatitudeDegrees>40.63527856953442096710205078125</LatitudeDegrees>
              <LongitudeDegrees>-4.011844061315059661865234375</LongitudeDegrees>
            </Position>
            <AltitudeMeters>872.79998779296875</AltitudeMeters>
            <DistanceMeters>NAN</DistanceMeters>
          </Trackpoint>
          <Trackpoint>
            <Time>2019-08-01T11:03:15.000Z</Time>
            <Position>
              <LatitudeDegrees>40.6353182159364223480224609375</LatitudeDegrees>
              <LongitudeDegrees>-4.01181262917816638946533203125</LongitudeDegrees>
            </Position>
            <AltitudeMeters>873</AltitudeMeters>
            <DistanceMeters>NAN</DistanceMeters>
          </Trackpoint>
          <Trackpoint>
            <Time>2019-08-01T11:03:16.000Z</Time>
            <Position>
              <LatitudeDegrees>40.63535417430102825164794921875</LatitudeDegrees>
              <LongitudeDegrees>-4.0117728151381015777587890625</LongitudeDegrees>
            </Position>
            <AltitudeMeters>873</AltitudeMeters>
            <DistanceMeters>NAN</DistanceMeters>
          </Trackpoint>
          <Trackpoint>
            <Time>2019-08-01T11:03:17.000Z</Time>
            <Position>
              <LatitudeDegrees>40.63538284040987491607666015625</LatitudeDegrees>
              <LongitudeDegrees>-4.01172302663326263427734375</LongitudeDegrees>
            </Position>
            <AltitudeMeters>873</AltitudeMeters>
            <DistanceMeters>NAN</DistanceMeters>
          </Trackpoint>
          <Trackpoint>
            <Time>2019-08-01T11:03:18.000Z</Time>
            <Position>
              <LatitudeDegrees>40.6354040466248989105224609375</LatitudeDegrees>
              <LongitudeDegrees>-4.01166762225329875946044921875</LongitudeDegrees>
            </Position>
            <AltitudeMeters>873</AltitudeMeters>
            <DistanceMeters>NAN</DistanceMeters>
          </Trackpoint>
          <Trackpoint>
            <Time>2019-08-01T11:03:19.000Z</Time>
            <Position>
              <LatitudeDegrees>40.63541896641254425048828125</LatitudeDegrees>
              <LongitudeDegrees>-4.0116159059107303619384765625</LongitudeDegrees>
            </Position>
            <AltitudeMeters>873</AltitudeMeters>
            <DistanceMeters>NAN</DistanceMeters>
          </Trackpoint>
          <Trackpoint>
            <Time>2019-08-01T11:03:20.000Z</Time>
            <Position>
              <LatitudeDegrees>40.6354322098195552825927734375</LatitudeDegrees>
              <LongitudeDegrees>-4.011575169861316680908203125</LongitudeDegrees>
            </Position>
            <AltitudeMeters>873</AltitudeMeters>
            <DistanceMeters>NAN</DistanceMeters>
          </Trackpoint>
          <Trackpoint>
            <Time>2019-08-01T11:03:21.000Z</Time>
            <Position>
              <LatitudeDegrees>40.63544117845594882965087890625</LatitudeDegrees>
              <LongitudeDegrees>-4.0115518681704998016357421875</LongitudeDegrees>
            </Position>
            <AltitudeMeters>873</AltitudeMeters>
            <DistanceMeters>NAN</DistanceMeters>
          </Trackpoint>
          <Trackpoint>
            <Time>2019-08-01T11:03:22.000Z</Time>
            <Position>
              <LatitudeDegrees>40.6354459561407566070556640625</LatitudeDegrees>
              <LongitudeDegrees>-4.011538960039615631103515625</LongitudeDegrees>
            </Position>
            <AltitudeMeters>873</AltitudeMeters>
            <DistanceMeters>NAN</DistanceMeters>
          </Trackpoint>
          <Trackpoint>
            <Time>2019-08-01T11:03:23.000Z</Time>
            <Position>
              <LatitudeDegrees>40.63545249402523040771484375</LatitudeDegrees>
              <LongitudeDegrees>-4.0115210227668285369873046875</LongitudeDegrees>
            </Position>
            <AltitudeMeters>872.79998779296875</AltitudeMeters>
            <DistanceMeters>NAN</DistanceMeters>
          </Trackpoint>
          <Trackpoint>
            <Time>2019-08-01T11:03:24.000Z</Time>
            <Position>
              <LatitudeDegrees>40.63546230085194110870361328125</LatitudeDegrees>
              <LongitudeDegrees>-4.01149596087634563446044921875</LongitudeDegrees>
            </Position>
            <AltitudeMeters>872.4000244140625</AltitudeMeters>
            <DistanceMeters>NAN</DistanceMeters>
          </Trackpoint>
          <Trackpoint>
            <Time>2019-08-01T11:03:25.000Z</Time>
            <Position>
              <LatitudeDegrees>40.63547386787831783294677734375</LatitudeDegrees>
              <LongitudeDegrees>-4.011469222605228424072265625</LongitudeDegrees>
            </Position>
            <AltitudeMeters>872</AltitudeMeters>
            <DistanceMeters>NAN</DistanceMeters>
          </Trackpoint>
          <Trackpoint>
            <Time>2019-08-01T11:03:26.000Z</Time>
            <Position>
              <LatitudeDegrees>40.6354888714849948883056640625</LatitudeDegrees>
              <LongitudeDegrees>-4.011439718306064605712890625</LongitudeDegrees>
            </Position>
            <AltitudeMeters>871.5999755859375</AltitudeMeters>
            <DistanceMeters>NAN</DistanceMeters>
          </Trackpoint>
          <Trackpoint>
            <Time>2019-08-01T11:03:27.000Z</Time>
            <Position>
              <LatitudeDegrees>40.63550638966262340545654296875</LatitudeDegrees>
              <LongitudeDegrees>-4.011406190693378448486328125</LongitudeDegrees>
            </Position>
            <AltitudeMeters>871.4000244140625</AltitudeMeters>
            <DistanceMeters>NAN</DistanceMeters>
          </Trackpoint>
          <Trackpoint>
            <Time>2019-08-01T11:03:28.000Z</Time>
            <Position>
              <LatitudeDegrees>40.6355237402021884918212890625</LatitudeDegrees>
              <LongitudeDegrees>-4.01136436499655246734619140625</LongitudeDegrees>
            </Position>
            <AltitudeMeters>871.20001220703125</AltitudeMeters>
            <DistanceMeters>NAN</DistanceMeters>
          </Trackpoint>
          <Trackpoint>
            <Time>2019-08-01T11:03:29.000Z</Time>
            <Position>
              <LatitudeDegrees>40.63554109074175357818603515625</LatitudeDegrees>
              <LongitudeDegrees>-4.01131524704396724700927734375</LongitudeDegrees>
            </Position>
            <AltitudeMeters>871.20001220703125</AltitudeMeters>
            <DistanceMeters>NAN</DistanceMeters>
          </Trackpoint>
          <Trackpoint>
            <Time>2019-08-01T11:03:30.000Z</Time>
            <Position>
              <LatitudeDegrees>40.63554109074175357818603515625</LatitudeDegrees>
              <LongitudeDegrees>-4.01131524704396724700927734375</LongitudeDegrees>
            </Position>
            <AltitudeMeters>871</AltitudeMeters>
            <DistanceMeters>NAN</DistanceMeters>
          </Trackpoint>
          <Trackpoint>
            <Time>2019-08-01T11:03:31.000Z</Time>
            <Position>
              <LatitudeDegrees>40.6355832517147064208984375</LatitudeDegrees>
              <LongitudeDegrees>-4.011223800480365753173828125</LongitudeDegrees>
            </Position>
            <AltitudeMeters>871</AltitudeMeters>
            <DistanceMeters>NAN</DistanceMeters>
          </Trackpoint>
          <Trackpoint>
            <Time>2019-08-01T11:03:32.000Z</Time>
            <Position>
              <LatitudeDegrees>40.6356099061667919158935546875</LatitudeDegrees>
              <LongitudeDegrees>-4.01119002141058444976806640625</LongitudeDegrees>
            </Position>
            <AltitudeMeters>870.79998779296875</AltitudeMeters>
            <DistanceMeters>NAN</DistanceMeters>
          </Trackpoint>
          <Trackpoint>
            <Time>2019-08-01T11:03:33.000Z</Time>
            <Position>
              <LatitudeDegrees>40.63563228584825992584228515625</LatitudeDegrees>
              <LongitudeDegrees>-4.01114693842828273773193359375</LongitudeDegrees>
            </Position>
            <AltitudeMeters>870.79998779296875</AltitudeMeters>
            <DistanceMeters>NAN</DistanceMeters>
          </Trackpoint>
          <Trackpoint>
            <Time>2019-08-01T11:03:34.000Z</Time>
            <Position>
              <LatitudeDegrees>40.63565206713974475860595703125</LatitudeDegrees>
              <LongitudeDegrees>-4.01109882630407810211181640625</LongitudeDegrees>
            </Position>
            <AltitudeMeters>870.5999755859375</AltitudeMeters>
            <DistanceMeters>NAN</DistanceMeters>
          </Trackpoint>
          <Trackpoint>
            <Time>2019-08-01T11:03:35.000Z</Time>
            <Position>
              <LatitudeDegrees>40.63567578792572021484375</LatitudeDegrees>
              <LongitudeDegrees>-4.011060856282711029052734375</LongitudeDegrees>
            </Position>
            <AltitudeMeters>870.5999755859375</AltitudeMeters>
            <DistanceMeters>NAN</DistanceMeters>
          </Trackpoint>
          <Trackpoint>
            <Time>2019-08-01T11:03:36.000Z</Time>
            <Position>
              <LatitudeDegrees>40.63569548539817333221435546875</LatitudeDegrees>
              <LongitudeDegrees>-4.01103026233613491058349609375</LongitudeDegrees>
            </Position>
            <AltitudeMeters>870.4000244140625</AltitudeMeters>
            <DistanceMeters>NAN</DistanceMeters>
          </Trackpoint>
          <Trackpoint>
            <Time>2019-08-01T11:03:37.000Z</Time>
            <Position>
              <LatitudeDegrees>40.63572767190635204315185546875</LatitudeDegrees>
              <LongitudeDegrees>-4.0110008418560028076171875</LongitudeDegrees>
            </Position>
            <AltitudeMeters>870.20001220703125</AltitudeMeters>
            <DistanceMeters>NAN</DistanceMeters>
          </Trackpoint>
          <Trackpoint>
            <Time>2019-08-01T11:03:38.000Z</Time>
            <Position>
              <LatitudeDegrees>40.635760612785816192626953125</LatitudeDegrees>
              <LongitudeDegrees>-4.01096371002495288848876953125</LongitudeDegrees>
            </Position>
            <AltitudeMeters>870</AltitudeMeters>
            <DistanceMeters>NAN</DistanceMeters>
          </Trackpoint>
          <Trackpoint>
            <Time>2019-08-01T11:03:39.000Z</Time>
            <Position>
              <LatitudeDegrees>40.6358063779771327972412109375</LatitudeDegrees>
              <LongitudeDegrees>-4.01091727428138256072998046875</LongitudeDegrees>
            </Position>
            <AltitudeMeters>870</AltitudeMeters>
            <DistanceMeters>NAN</DistanceMeters>
          </Trackpoint>
          <Trackpoint>
            <Time>2019-08-01T11:03:40.000Z</Time>
            <Position>
              <LatitudeDegrees>40.6358429230749607086181640625</LatitudeDegrees>
              <LongitudeDegrees>-4.010866396129131317138671875</LongitudeDegrees>
            </Position>
            <AltitudeMeters>869.79998779296875</AltitudeMeters>
            <DistanceMeters>NAN</DistanceMeters>
          </Trackpoint>
          <Trackpoint>
            <Time>2019-08-01T11:03:41.000Z</Time>
            <Position>
              <LatitudeDegrees>40.6358771212399005889892578125</LatitudeDegrees>
              <LongitudeDegrees>-4.0108139254152774810791015625</LongitudeDegrees>
            </Position>
            <AltitudeMeters>869.79998779296875</AltitudeMeters>
            <DistanceMeters>NAN</DistanceMeters>
          </Trackpoint>
          <Trackpoint>
            <Time>2019-08-01T11:03:42.000Z</Time>
            <Position>
              <LatitudeDegrees>40.63591877929866313934326171875</LatitudeDegrees>
              <LongitudeDegrees>-4.01075743138790130615234375</LongitudeDegrees>
            </Position>
            <AltitudeMeters>869.79998779296875</AltitudeMeters>
            <DistanceMeters>NAN</DistanceMeters>
          </Trackpoint>
          <Trackpoint>
            <Time>2019-08-01T11:03:43.000Z</Time>
            <Position>
              <LatitudeDegrees>40.635959766805171966552734375</LatitudeDegrees>
              <LongitudeDegrees>-4.01070177555084228515625</LongitudeDegrees>
            </Position>
            <AltitudeMeters>869.79998779296875</AltitudeMeters>
            <DistanceMeters>NAN</DistanceMeters>
          </Trackpoint>
          <Trackpoint>
            <Time>2019-08-01T11:03:44.000Z</Time>
            <Position>
              <LatitudeDegrees>40.63600209541618824005126953125</LatitudeDegrees>
              <LongitudeDegrees>-4.01064402423799037933349609375</LongitudeDegrees>
            </Position>
            <AltitudeMeters>869.79998779296875</AltitudeMeters>
            <DistanceMeters>NAN</DistanceMeters>
          </Trackpoint>
          <Trackpoint>
            <Time>2019-08-01T11:03:45.000Z</Time>
            <Position>
              <LatitudeDegrees>40.63603763468563556671142578125</LatitudeDegrees>
              <LongitudeDegrees>-4.010583423078060150146484375</LongitudeDegrees>
            </Position>
            <AltitudeMeters>869.79998779296875</AltitudeMeters>
            <DistanceMeters>NAN</DistanceMeters>
          </Trackpoint>
          <Trackpoint>
            <Time>2019-08-01T11:03:46.000Z</Time>
            <Position>
              <LatitudeDegrees>40.63606579788029193878173828125</LatitudeDegrees>
              <LongitudeDegrees>-4.0105138532817363739013671875</LongitudeDegrees>
            </Position>
            <AltitudeMeters>869.79998779296875</AltitudeMeters>
            <DistanceMeters>NAN</DistanceMeters>
          </Trackpoint>
          <Trackpoint>
            <Time>2019-08-01T11:03:47.000Z</Time>
            <Position>
              <LatitudeDegrees>40.63609027303755283355712890625</LatitudeDegrees>
              <LongitudeDegrees>-4.01044839061796665191650390625</LongitudeDegrees>
            </Position>
            <AltitudeMeters>869.79998779296875</AltitudeMeters>
            <DistanceMeters>NAN</DistanceMeters>
          </Trackpoint>
          <Trackpoint>
            <Time>2019-08-01T11:03:48.000Z</Time>
            <Position>
              <LatitudeDegrees>40.63612413592636585235595703125</LatitudeDegrees>
              <LongitudeDegrees>-4.01038401760160923004150390625</LongitudeDegrees>
            </Position>
            <AltitudeMeters>869.79998779296875</AltitudeMeters>
            <DistanceMeters>NAN</DistanceMeters>
          </Trackpoint>
          <Trackpoint>
            <Time>2019-08-01T11:03:49.000Z</Time>
            <Position>
              <LatitudeDegrees>40.63616319559514522552490234375</LatitudeDegrees>
              <LongitudeDegrees>-4.0103197284042835235595703125</LongitudeDegrees>
            </Position>
            <AltitudeMeters>869.79998779296875</AltitudeMeters>
            <DistanceMeters>NAN</DistanceMeters>
          </Trackpoint>
          <Trackpoint>
            <Time>2019-08-01T11:03:50.000Z</Time>
            <Position>
              <LatitudeDegrees>40.63621466048061847686767578125</LatitudeDegrees>
              <LongitudeDegrees>-4.01026935316622257232666015625</LongitudeDegrees>
            </Position>
            <AltitudeMeters>869.79998779296875</AltitudeMeters>
            <DistanceMeters>NAN</DistanceMeters>
          </Trackpoint>
          <Trackpoint>
            <Time>2019-08-01T11:03:51.000Z</Time>
            <Position>
              <LatitudeDegrees>40.63621466048061847686767578125</LatitudeDegrees>
              <LongitudeDegrees>-4.01026935316622257232666015625</LongitudeDegrees>
            </Position>
            <AltitudeMeters>870</AltitudeMeters>
            <DistanceMeters>NAN</DistanceMeters>
          </Trackpoint>
          <Trackpoint>
            <Time>2019-08-01T11:03:52.000Z</Time>
            <Position>
              <LatitudeDegrees>40.63633385114371776580810546875</LatitudeDegrees>
              <LongitudeDegrees>-4.0102122724056243896484375</LongitudeDegrees>
            </Position>
            <AltitudeMeters>870.20001220703125</AltitudeMeters>
            <DistanceMeters>NAN</DistanceMeters>
          </Trackpoint>
          <Trackpoint>
            <Time>2019-08-01T11:03:53.000Z</Time>
            <Position>
              <LatitudeDegrees>40.63639470376074314117431640625</LatitudeDegrees>
              <LongitudeDegrees>-4.01019240729510784149169921875</LongitudeDegrees>
            </Position>
            <AltitudeMeters>870.4000244140625</AltitudeMeters>
            <DistanceMeters>NAN</DistanceMeters>
          </Trackpoint>
          <Trackpoint>
            <Time>2019-08-01T11:03:54.000Z</Time>
            <Position>
              <LatitudeDegrees>40.6364491023123264312744140625</LatitudeDegrees>
              <LongitudeDegrees>-4.01015636511147022247314453125</LongitudeDegrees>
            </Position>
            <AltitudeMeters>870.4000244140625</AltitudeMeters>
            <DistanceMeters>NAN</DistanceMeters>
          </Trackpoint>
          <Trackpoint>
            <Time>2019-08-01T11:03:55.000Z</Time>
            <Position>
              <LatitudeDegrees>40.636496879160404205322265625</LatitudeDegrees>
              <LongitudeDegrees>-4.01010297238826751708984375</LongitudeDegrees>
            </Position>
            <AltitudeMeters>870.5999755859375</AltitudeMeters>
            <DistanceMeters>NAN</DistanceMeters>
          </Trackpoint>
          <Trackpoint>
            <Time>2019-08-01T11:03:56.000Z</Time>
            <Position>
              <LatitudeDegrees>40.63654574565589427947998046875</LatitudeDegrees>
              <LongitudeDegrees>-4.010038934648036956787109375</LongitudeDegrees>
            </Position>
            <AltitudeMeters>870.5999755859375</AltitudeMeters>
            <DistanceMeters>NAN</DistanceMeters>
          </Trackpoint>
          <Trackpoint>
            <Time>2019-08-01T11:03:57.000Z</Time>
            <Position>
              <LatitudeDegrees>40.6365959532558917999267578125</LatitudeDegrees>
              <LongitudeDegrees>-4.009972549974918365478515625</LongitudeDegrees>
            </Position>
            <AltitudeMeters>870.5999755859375</AltitudeMeters>
            <DistanceMeters>NAN</DistanceMeters>
          </Trackpoint>
          <Trackpoint>
            <Time>2019-08-01T11:03:58.000Z</Time>
            <Position>
              <LatitudeDegrees>40.63665018416941165924072265625</LatitudeDegrees>
              <LongitudeDegrees>-4.0099029801785945892333984375</LongitudeDegrees>
            </Position>
            <AltitudeMeters>870.79998779296875</AltitudeMeters>
            <DistanceMeters>NAN</DistanceMeters>
          </Trackpoint>
          <Trackpoint>
            <Time>2019-08-01T11:03:59.000Z</Time>
            <Position>
              <LatitudeDegrees>40.636703409254550933837890625</LatitudeDegrees>
              <LongitudeDegrees>-4.00983550585806369781494140625</LongitudeDegrees>
            </Position>
            <AltitudeMeters>870.79998779296875</AltitudeMeters>
            <DistanceMeters>NAN</DistanceMeters>
          </Trackpoint>
          <Trackpoint>
            <Time>2019-08-01T11:04:00.000Z</Time>
            <Position>
              <LatitudeDegrees>40.63675328157842159271240234375</LatitudeDegrees>
              <LongitudeDegrees>-4.0097645111382007598876953125</LongitudeDegrees>
            </Position>
            <AltitudeMeters>871</AltitudeMeters>
            <DistanceMeters>NAN</DistanceMeters>
          </Trackpoint>
          <Trackpoint>
            <Time>2019-08-01T11:04:01.000Z</Time>
            <Position>
              <LatitudeDegrees>40.63680139370262622833251953125</LatitudeDegrees>
              <LongitudeDegrees>-4.00969066657125949859619140625</LongitudeDegrees>
            </Position>
            <AltitudeMeters>871</AltitudeMeters>
            <DistanceMeters>NAN</DistanceMeters>
          </Trackpoint>
          <Trackpoint>
            <Time>2019-08-01T11:04:02.000Z</Time>
            <Position>
              <LatitudeDegrees>40.63684866763651371002197265625</LatitudeDegrees>
              <LongitudeDegrees>-4.0096166543662548065185546875</LongitudeDegrees>
            </Position>
            <AltitudeMeters>871</AltitudeMeters>
            <DistanceMeters>NAN</DistanceMeters>
          </Trackpoint>
          <Trackpoint>
            <Time>2019-08-01T11:04:03.000Z</Time>
            <Position>
              <LatitudeDegrees>40.63689527101814746856689453125</LatitudeDegrees>
              <LongitudeDegrees>-4.00954239070415496826171875</LongitudeDegrees>
            </Position>
            <AltitudeMeters>871</AltitudeMeters>
            <DistanceMeters>NAN</DistanceMeters>
          </Trackpoint>
          <Trackpoint>
            <Time>2019-08-01T11:04:04.000Z</Time>
            <Position>
              <LatitudeDegrees>40.6369416229426860809326171875</LatitudeDegrees>
              <LongitudeDegrees>-4.0094674564898014068603515625</LongitudeDegrees>
            </Position>
            <AltitudeMeters>871</AltitudeMeters>
            <DistanceMeters>NAN</DistanceMeters>
          </Trackpoint>
          <Trackpoint>
            <Time>2019-08-01T11:04:05.000Z</Time>
            <Position>
              <LatitudeDegrees>40.63698914833366870880126953125</LatitudeDegrees>
              <LongitudeDegrees>-4.00939025916159152984619140625</LongitudeDegrees>
            </Position>
            <AltitudeMeters>871</AltitudeMeters>
            <DistanceMeters>NAN</DistanceMeters>
          </Trackpoint>
          <Trackpoint>
            <Time>2019-08-01T11:04:06.000Z</Time>
            <Position>
              <LatitudeDegrees>40.63698914833366870880126953125</LatitudeDegrees>
              <LongitudeDegrees>-4.00939025916159152984619140625</LongitudeDegrees>
            </Position>
            <AltitudeMeters>871</AltitudeMeters>
            <DistanceMeters>NAN</DistanceMeters>
          </Trackpoint>
          <Trackpoint>
            <Time>2019-08-01T11:04:07.000Z</Time>
            <Position>
              <LatitudeDegrees>40.63707564957439899444580078125</LatitudeDegrees>
              <LongitudeDegrees>-4.00923435576260089874267578125</LongitudeDegrees>
            </Position>
            <AltitudeMeters>870.79998779296875</AltitudeMeters>
            <DistanceMeters>NAN</DistanceMeters>
          </Trackpoint>
          <Trackpoint>
            <Time>2019-08-01T11:04:08.000Z</Time>
            <Position>
              <LatitudeDegrees>40.637115128338336944580078125</LatitudeDegrees>
              <LongitudeDegrees>-4.0091559849679470062255859375</LongitudeDegrees>
            </Position>
            <AltitudeMeters>870.79998779296875</AltitudeMeters>
            <DistanceMeters>NAN</DistanceMeters>
          </Trackpoint>
          <Trackpoint>
            <Time>2019-08-01T11:04:09.000Z</Time>
            <Position>
              <LatitudeDegrees>40.63715477474033832550048828125</LatitudeDegrees>
              <LongitudeDegrees>-4.0090741775929927825927734375</LongitudeDegrees>
            </Position>
            <AltitudeMeters>870.79998779296875</AltitudeMeters>
            <DistanceMeters>NAN</DistanceMeters>
          </Trackpoint>
          <Trackpoint>
            <Time>2019-08-01T11:04:10.000Z</Time>
            <Position>
              <LatitudeDegrees>40.63719567842781543731689453125</LatitudeDegrees>
              <LongitudeDegrees>-4.0089930407702922821044921875</LongitudeDegrees>
            </Position>
            <AltitudeMeters>870.79998779296875</AltitudeMeters>
            <DistanceMeters>NAN</DistanceMeters>
          </Trackpoint>
          <Trackpoint>
            <Time>2019-08-01T11:04:11.000Z</Time>
            <Position>
              <LatitudeDegrees>40.6372366659343242645263671875</LatitudeDegrees>
              <LongitudeDegrees>-4.0089114010334014892578125</LongitudeDegrees>
            </Position>
            <AltitudeMeters>870.79998779296875</AltitudeMeters>
            <DistanceMeters>NAN</DistanceMeters>
          </Trackpoint>
          <Trackpoint>
            <Time>2019-08-01T11:04:12.000Z</Time>
            <Position>
              <LatitudeDegrees>40.6372758932411670684814453125</LatitudeDegrees>
              <LongitudeDegrees>-4.00883504189550876617431640625</LongitudeDegrees>
            </Position>
            <AltitudeMeters>870.79998779296875</AltitudeMeters>
            <DistanceMeters>NAN</DistanceMeters>
          </Trackpoint>
          <Trackpoint>
            <Time>2019-08-01T11:04:13.000Z</Time>
            <Position>
              <LatitudeDegrees>40.6373186409473419189453125</LatitudeDegrees>
              <LongitudeDegrees>-4.0087563358247280120849609375</LongitudeDegrees>
            </Position>
            <AltitudeMeters>870.79998779296875</AltitudeMeters>
            <DistanceMeters>NAN</DistanceMeters>
          </Trackpoint>
          <Trackpoint>
            <Time>2019-08-01T11:04:14.000Z</Time>
            <Position>
              <LatitudeDegrees>40.63736130483448505401611328125</LatitudeDegrees>
              <LongitudeDegrees>-4.00867846794426441192626953125</LongitudeDegrees>
            </Position>
            <AltitudeMeters>871</AltitudeMeters>
            <DistanceMeters>NAN</DistanceMeters>
          </Trackpoint>
          <Trackpoint>
            <Time>2019-08-01T11:04:15.000Z</Time>
            <Position>
              <LatitudeDegrees>40.63740556128323078155517578125</LatitudeDegrees>
              <LongitudeDegrees>-4.0085984207689762115478515625</LongitudeDegrees>
            </Position>
            <AltitudeMeters>871</AltitudeMeters>
            <DistanceMeters>NAN</DistanceMeters>
          </Trackpoint>
          <Trackpoint>
            <Time>2019-08-01T11:04:16.000Z</Time>
            <Position>
              <LatitudeDegrees>40.63744939863681793212890625</LatitudeDegrees>
              <LongitudeDegrees>-4.0085223130881786346435546875</LongitudeDegrees>
            </Position>
            <AltitudeMeters>871</AltitudeMeters>
            <DistanceMeters>NAN</DistanceMeters>
          </Trackpoint>
          <Trackpoint>
            <Time>2019-08-01T11:04:17.000Z</Time>
            <Position>
              <LatitudeDegrees>40.637497007846832275390625</LatitudeDegrees>
              <LongitudeDegrees>-4.00844645686447620391845703125</LongitudeDegrees>
            </Position>
            <AltitudeMeters>871</AltitudeMeters>
            <DistanceMeters>NAN</DistanceMeters>
          </Trackpoint>
          <Trackpoint>
            <Time>2019-08-01T11:04:18.000Z</Time>
            <Position>
              <LatitudeDegrees>40.63754260540008544921875</LatitudeDegrees>
              <LongitudeDegrees>-4.00837219320237636566162109375</LongitudeDegrees>
            </Position>
            <AltitudeMeters>871</AltitudeMeters>
            <DistanceMeters>NAN</DistanceMeters>
          </Trackpoint>
          <Trackpoint>
            <Time>2019-08-01T11:04:19.000Z</Time>
            <Position>
              <LatitudeDegrees>40.63754260540008544921875</LatitudeDegrees>
              <LongitudeDegrees>-4.00837219320237636566162109375</LongitudeDegrees>
            </Position>
            <AltitudeMeters>871.20001220703125</AltitudeMeters>
            <DistanceMeters>NAN</DistanceMeters>
          </Trackpoint>
          <Trackpoint>
            <Time>2019-08-01T11:04:20.000Z</Time>
            <Position>
              <LatitudeDegrees>40.63762818463146686553955078125</LatitudeDegrees>
              <LongitudeDegrees>-4.0082175470888614654541015625</LongitudeDegrees>
            </Position>
            <AltitudeMeters>871.4000244140625</AltitudeMeters>
            <DistanceMeters>NAN</DistanceMeters>
          </Trackpoint>
          <Trackpoint>
            <Time>2019-08-01T11:04:21.000Z</Time>
            <Position>
              <LatitudeDegrees>40.637672357261180877685546875</LatitudeDegrees>
              <LongitudeDegrees>-4.00813967920839786529541015625</LongitudeDegrees>
            </Position>
            <AltitudeMeters>871.5999755859375</AltitudeMeters>
            <DistanceMeters>NAN</DistanceMeters>
          </Trackpoint>
          <Trackpoint>
            <Time>2019-08-01T11:04:22.000Z</Time>
            <Position>
              <LatitudeDegrees>40.63771720044314861297607421875</LatitudeDegrees>
              <LongitudeDegrees>-4.00806189514696598052978515625</LongitudeDegrees>
            </Position>
            <AltitudeMeters>871.5999755859375</AltitudeMeters>
            <DistanceMeters>NAN</DistanceMeters>
          </Trackpoint>
          <Trackpoint>
            <Time>2019-08-01T11:04:23.000Z</Time>
            <Position>
              <LatitudeDegrees>40.63776229508221149444580078125</LatitudeDegrees>
              <LongitudeDegrees>-4.007984362542629241943359375</LongitudeDegrees>
            </Position>
            <AltitudeMeters>871.79998779296875</AltitudeMeters>
            <DistanceMeters>NAN</DistanceMeters>
          </Trackpoint>
          <Trackpoint>
            <Time>2019-08-01T11:04:24.000Z</Time>
            <Position>
              <LatitudeDegrees>40.6378068029880523681640625</LatitudeDegrees>
              <LongitudeDegrees>-4.0079067461192607879638671875</LongitudeDegrees>
            </Position>
            <AltitudeMeters>871.79998779296875</AltitudeMeters>
            <DistanceMeters>NAN</DistanceMeters>
          </Trackpoint>
          <Trackpoint>
            <Time>2019-08-01T11:04:25.000Z</Time>
            <Position>
              <LatitudeDegrees>40.637850724160671234130859375</LatitudeDegrees>
              <LongitudeDegrees>-4.00782887823879718780517578125</LongitudeDegrees>
            </Position>
            <AltitudeMeters>871.79998779296875</AltitudeMeters>
            <DistanceMeters>NAN</DistanceMeters>
          </Trackpoint>
          <Trackpoint>
            <Time>2019-08-01T11:04:26.000Z</Time>
            <Position>
              <LatitudeDegrees>40.6378964893519878387451171875</LatitudeDegrees>
              <LongitudeDegrees>-4.0077515132725238800048828125</LongitudeDegrees>
            </Position>
            <AltitudeMeters>872</AltitudeMeters>
            <DistanceMeters>NAN</DistanceMeters>
          </Trackpoint>
          <Trackpoint>
            <Time>2019-08-01T11:04:27.000Z</Time>
            <Position>
              <LatitudeDegrees>40.63793848268687725067138671875</LatitudeDegrees>
              <LongitudeDegrees>-4.00767465122044086456298828125</LongitudeDegrees>
            </Position>
            <AltitudeMeters>872</AltitudeMeters>
            <DistanceMeters>NAN</DistanceMeters>
          </Trackpoint>
          <Trackpoint>
            <Time>2019-08-01T11:04:28.000Z</Time>
            <Position>
              <LatitudeDegrees>40.63798357732594013214111328125</LatitudeDegrees>
              <LongitudeDegrees>-4.0075971186161041259765625</LongitudeDegrees>
            </Position>
            <AltitudeMeters>872</AltitudeMeters>
            <DistanceMeters>NAN</DistanceMeters>
          </Trackpoint>
          <Trackpoint>
            <Time>2019-08-01T11:04:29.000Z</Time>
            <Position>
              <LatitudeDegrees>40.638028420507907867431640625</LatitudeDegrees>
              <LongitudeDegrees>-4.00751891545951366424560546875</LongitudeDegrees>
            </Position>
            <AltitudeMeters>872.20001220703125</AltitudeMeters>
            <DistanceMeters>NAN</DistanceMeters>
          </Trackpoint>
          <Trackpoint>
            <Time>2019-08-01T11:04:30.000Z</Time>
            <Position>
              <LatitudeDegrees>40.63807058148086071014404296875</LatitudeDegrees>
              <LongitudeDegrees>-4.00744264014065265655517578125</LongitudeDegrees>
            </Position>
            <AltitudeMeters>872.20001220703125</AltitudeMeters>
            <DistanceMeters>NAN</DistanceMeters>
          </Trackpoint>
          <Trackpoint>
            <Time>2019-08-01T11:04:31.000Z</Time>
            <Position>
              <LatitudeDegrees>40.63811416737735271453857421875</LatitudeDegrees>
              <LongitudeDegrees>-4.00736443698406219482421875</LongitudeDegrees>
            </Position>
            <AltitudeMeters>872.4000244140625</AltitudeMeters>
            <DistanceMeters>NAN</DistanceMeters>
          </Trackpoint>
          <Trackpoint>
            <Time>2019-08-01T11:04:32.000Z</Time>
            <Position>
              <LatitudeDegrees>40.63811416737735271453857421875</LatitudeDegrees>
              <LongitudeDegrees>-4.00736443698406219482421875</LongitudeDegrees>
            </Position>
            <AltitudeMeters>872.4000244140625</AltitudeMeters>
            <DistanceMeters>NAN</DistanceMeters>
          </Trackpoint>
          <Trackpoint>
            <Time>2019-08-01T11:04:33.000Z</Time>
            <Position>
              <LatitudeDegrees>40.638201422989368438720703125</LatitudeDegrees>
              <LongitudeDegrees>-4.00720694102346897125244140625</LongitudeDegrees>
            </Position>
            <AltitudeMeters>872.4000244140625</AltitudeMeters>
            <DistanceMeters>NAN</DistanceMeters>
          </Trackpoint>
          <Trackpoint>
            <Time>2019-08-01T11:04:34.000Z</Time>
            <Position>
              <LatitudeDegrees>40.6382435001432895660400390625</LatitudeDegrees>
              <LongitudeDegrees>-4.007128737866878509521484375</LongitudeDegrees>
            </Position>
            <AltitudeMeters>872.4000244140625</AltitudeMeters>
            <DistanceMeters>NAN</DistanceMeters>
          </Trackpoint>
          <Trackpoint>
            <Time>2019-08-01T11:04:35.000Z</Time>
            <Position>
              <LatitudeDegrees>40.638277195394039154052734375</LatitudeDegrees>
              <LongitudeDegrees>-4.00705330073833465576171875</LongitudeDegrees>
            </Position>
            <AltitudeMeters>872.4000244140625</AltitudeMeters>
            <DistanceMeters>NAN</DistanceMeters>
          </Trackpoint>
          <Trackpoint>
            <Time>2019-08-01T11:04:36.000Z</Time>
            <Position>
              <LatitudeDegrees>40.63829722814261913299560546875</LatitudeDegrees>
              <LongitudeDegrees>-4.00697191245853900909423828125</LongitudeDegrees>
            </Position>
            <AltitudeMeters>872.5999755859375</AltitudeMeters>
            <DistanceMeters>NAN</DistanceMeters>
          </Trackpoint>
          <Trackpoint>
            <Time>2019-08-01T11:04:37.000Z</Time>
            <Position>
              <LatitudeDegrees>40.638299994170665740966796875</LatitudeDegrees>
              <LongitudeDegrees>-4.00688725523650646209716796875</LongitudeDegrees>
            </Position>
            <AltitudeMeters>872.79998779296875</AltitudeMeters>
            <DistanceMeters>NAN</DistanceMeters>
          </Trackpoint>
          <Trackpoint>
            <Time>2019-08-01T11:04:38.000Z</Time>
            <Position>
              <LatitudeDegrees>40.63829806633293628692626953125</LatitudeDegrees>
              <LongitudeDegrees>-4.0068010054528713226318359375</LongitudeDegrees>
            </Position>
            <AltitudeMeters>873</AltitudeMeters>
            <DistanceMeters>NAN</DistanceMeters>
          </Trackpoint>
          <Trackpoint>
            <Time>2019-08-01T11:04:39.000Z</Time>
            <Position>
              <LatitudeDegrees>40.63830208964645862579345703125</LatitudeDegrees>
              <LongitudeDegrees>-4.006715007126331329345703125</LongitudeDegrees>
            </Position>
            <AltitudeMeters>873.20001220703125</AltitudeMeters>
            <DistanceMeters>NAN</DistanceMeters>
          </Trackpoint>
          <Trackpoint>
            <Time>2019-08-01T11:04:40.000Z</Time>
            <Position>
              <LatitudeDegrees>40.63832371495664119720458984375</LatitudeDegrees>
              <LongitudeDegrees>-4.00663428939878940582275390625</LongitudeDegrees>
            </Position>
            <AltitudeMeters>873.4000244140625</AltitudeMeters>
            <DistanceMeters>NAN</DistanceMeters>
          </Trackpoint>
          <Trackpoint>
            <Time>2019-08-01T11:04:41.000Z</Time>
            <Position>
              <LatitudeDegrees>40.63836327753961086273193359375</LatitudeDegrees>
              <LongitudeDegrees>-4.006572850048542022705078125</LongitudeDegrees>
            </Position>
            <AltitudeMeters>873.5999755859375</AltitudeMeters>
            <DistanceMeters>NAN</DistanceMeters>
          </Trackpoint>
          <Trackpoint>
            <Time>2019-08-01T11:04:42.000Z</Time>
            <Position>
              <LatitudeDegrees>40.63841440714895725250244140625</LatitudeDegrees>
              <LongitudeDegrees>-4.00653772987425327301025390625</LongitudeDegrees>
            </Position>
            <AltitudeMeters>873.79998779296875</AltitudeMeters>
            <DistanceMeters>NAN</DistanceMeters>
          </Trackpoint>
          <Trackpoint>
            <Time>2019-08-01T11:04:43.000Z</Time>
            <Position>
              <LatitudeDegrees>40.63846520148217678070068359375</LatitudeDegrees>
              <LongitudeDegrees>-4.0065327845513820648193359375</LongitudeDegrees>
            </Position>
            <AltitudeMeters>873.79998779296875</AltitudeMeters>
            <DistanceMeters>NAN</DistanceMeters>
          </Trackpoint>
          <Trackpoint>
            <Time>2019-08-01T11:04:44.000Z</Time>
            <Position>
              <LatitudeDegrees>40.6385154090821743011474609375</LatitudeDegrees>
              <LongitudeDegrees>-4.00655985809862613677978515625</LongitudeDegrees>
            </Position>
            <AltitudeMeters>873.79998779296875</AltitudeMeters>
            <DistanceMeters>NAN</DistanceMeters>
          </Trackpoint>
          <Trackpoint>
            <Time>2019-08-01T11:04:45.000Z</Time>
            <Position>
              <LatitudeDegrees>40.63856444321572780609130859375</LatitudeDegrees>
              <LongitudeDegrees>-4.00660000741481781005859375</LongitudeDegrees>
            </Position>
            <AltitudeMeters>874</AltitudeMeters>
            <DistanceMeters>NAN</DistanceMeters>
          </Trackpoint>
          <Trackpoint>
            <Time>2019-08-01T11:04:46.000Z</Time>
            <Position>
              <LatitudeDegrees>40.6386210210621356964111328125</LatitudeDegrees>
              <LongitudeDegrees>-4.0066449344158172607421875</LongitudeDegrees>
            </Position>
            <AltitudeMeters>874</AltitudeMeters>
            <DistanceMeters>NAN</DistanceMeters>
          </Trackpoint>
          <Trackpoint>
            <Time>2019-08-01T11:04:47.000Z</Time>
            <Position>
              <LatitudeDegrees>40.63868246041238307952880859375</LatitudeDegrees>
              <LongitudeDegrees>-4.00668290443718433380126953125</LongitudeDegrees>
            </Position>
            <AltitudeMeters>874.20001220703125</AltitudeMeters>
            <DistanceMeters>NAN</DistanceMeters>
          </Trackpoint>
          <Trackpoint>
            <Time>2019-08-01T11:04:48.000Z</Time>
            <Position>
              <LatitudeDegrees>40.63875068910419940948486328125</LatitudeDegrees>
              <LongitudeDegrees>-4.00670461356639862060546875</LongitudeDegrees>
            </Position>
            <AltitudeMeters>874.4000244140625</AltitudeMeters>
            <DistanceMeters>NAN</DistanceMeters>
          </Trackpoint>
          <Trackpoint>
            <Time>2019-08-01T11:04:49.000Z</Time>
            <Position>
              <LatitudeDegrees>40.6388188339769840240478515625</LatitudeDegrees>
              <LongitudeDegrees>-4.0067091397941112518310546875</LongitudeDegrees>
            </Position>
            <AltitudeMeters>874.4000244140625</AltitudeMeters>
            <DistanceMeters>NAN</DistanceMeters>
          </Trackpoint>
          <Trackpoint>
            <Time>2019-08-01T11:04:50.000Z</Time>
            <Position>
              <LatitudeDegrees>40.6388858892023563385009765625</LatitudeDegrees>
              <LongitudeDegrees>-4.00670955888926982879638671875</LongitudeDegrees>
            </Position>
            <AltitudeMeters>874.5999755859375</AltitudeMeters>
            <DistanceMeters>NAN</DistanceMeters>
          </Trackpoint>
          <Trackpoint>
            <Time>2019-08-01T11:04:51.000Z</Time>
            <Position>
              <LatitudeDegrees>40.63895420171320438385009765625</LatitudeDegrees>
              <LongitudeDegrees>-4.0067101456224918365478515625</LongitudeDegrees>
            </Position>
            <AltitudeMeters>874.79998779296875</AltitudeMeters>
            <DistanceMeters>NAN</DistanceMeters>
          </Trackpoint>
          <Trackpoint>
            <Time>2019-08-01T11:04:52.000Z</Time>
            <Position>
              <LatitudeDegrees>40.63902209512889385223388671875</LatitudeDegrees>
              <LongitudeDegrees>-4.00670997798442840576171875</LongitudeDegrees>
            </Position>
            <AltitudeMeters>874.79998779296875</AltitudeMeters>
            <DistanceMeters>NAN</DistanceMeters>
          </Trackpoint>
          <Trackpoint>
            <Time>2019-08-01T11:04:53.000Z</Time>
            <Position>
              <LatitudeDegrees>40.6390894018113613128662109375</LatitudeDegrees>
              <LongitudeDegrees>-4.00671089999377727508544921875</LongitudeDegrees>
            </Position>
            <AltitudeMeters>874.79998779296875</AltitudeMeters>
            <DistanceMeters>NAN</DistanceMeters>
          </Trackpoint>
          <Trackpoint>
            <Time>2019-08-01T11:04:54.000Z</Time>
            <Position>
              <LatitudeDegrees>40.6391611509025096893310546875</LatitudeDegrees>
              <LongitudeDegrees>-4.0067128278315067291259765625</LongitudeDegrees>
            </Position>
            <AltitudeMeters>875</AltitudeMeters>
            <DistanceMeters>NAN</DistanceMeters>
          </Trackpoint>
          <Trackpoint>
            <Time>2019-08-01T11:04:55.000Z</Time>
            <Position>
              <LatitudeDegrees>40.63923382200300693511962890625</LatitudeDegrees>
              <LongitudeDegrees>-4.00671039707958698272705078125</LongitudeDegrees>
            </Position>
            <AltitudeMeters>875</AltitudeMeters>
            <DistanceMeters>NAN</DistanceMeters>
          </Trackpoint>
          <Trackpoint>
            <Time>2019-08-01T11:04:56.000Z</Time>
            <Position>
              <LatitudeDegrees>40.63930741511285305023193359375</LatitudeDegrees>
              <LongitudeDegrees>-4.00670821778476238250732421875</LongitudeDegrees>
            </Position>
            <AltitudeMeters>875.20001220703125</AltitudeMeters>
            <DistanceMeters>NAN</DistanceMeters>
          </Trackpoint>
          <Trackpoint>
            <Time>2019-08-01T11:04:57.000Z</Time>
            <Position>
              <LatitudeDegrees>40.63938058912754058837890625</LatitudeDegrees>
              <LongitudeDegrees>-4.0067061223089694976806640625</LongitudeDegrees>
            </Position>
            <AltitudeMeters>875.4000244140625</AltitudeMeters>
            <DistanceMeters>NAN</DistanceMeters>
          </Trackpoint>
          <Trackpoint>
            <Time>2019-08-01T11:04:58.000Z</Time>
            <Position>
              <LatitudeDegrees>40.63945376314222812652587890625</LatitudeDegrees>
              <LongitudeDegrees>-4.0067051164805889129638671875</LongitudeDegrees>
            </Position>
            <AltitudeMeters>875.4000244140625</AltitudeMeters>
            <DistanceMeters>NAN</DistanceMeters>
          </Trackpoint>
          <Trackpoint>
            <Time>2019-08-01T11:04:59.000Z</Time>
            <Position>
              <LatitudeDegrees>40.63952551223337650299072265625</LatitudeDegrees>
              <LongitudeDegrees>-4.00670553557574748992919921875</LongitudeDegrees>
            </Position>
            <AltitudeMeters>875.4000244140625</AltitudeMeters>
            <DistanceMeters>NAN</DistanceMeters>
          </Trackpoint>
          <Trackpoint>
            <Time>2019-08-01T11:05:00.000Z</Time>
            <Position>
              <LatitudeDegrees>40.63959784805774688720703125</LatitudeDegrees>
              <LongitudeDegrees>-4.006707966327667236328125</LongitudeDegrees>
            </Position>
            <AltitudeMeters>875.4000244140625</AltitudeMeters>
            <DistanceMeters>NAN</DistanceMeters>
          </Trackpoint>
          <Trackpoint>
            <Time>2019-08-01T11:05:01.000Z</Time>
            <Position>
              <LatitudeDegrees>40.639669261872768402099609375</LatitudeDegrees>
              <LongitudeDegrees>-4.0067108161747455596923828125</LongitudeDegrees>
            </Position>
            <AltitudeMeters>875.5999755859375</AltitudeMeters>
            <DistanceMeters>NAN</DistanceMeters>
          </Trackpoint>
          <Trackpoint>
            <Time>2019-08-01T11:05:02.000Z</Time>
            <Position>
              <LatitudeDegrees>40.63974260352551937103271484375</LatitudeDegrees>
              <LongitudeDegrees>-4.00671207346022129058837890625</LongitudeDegrees>
            </Position>
            <AltitudeMeters>875.5999755859375</AltitudeMeters>
            <DistanceMeters>NAN</DistanceMeters>
          </Trackpoint>
          <Trackpoint>
            <Time>2019-08-01T11:05:03.000Z</Time>
            <Position>
              <LatitudeDegrees>40.63974260352551937103271484375</LatitudeDegrees>
              <LongitudeDegrees>-4.00671207346022129058837890625</LongitudeDegrees>
            </Position>
            <AltitudeMeters>875.5999755859375</AltitudeMeters>
            <DistanceMeters>NAN</DistanceMeters>
          </Trackpoint>
          <Trackpoint>
            <Time>2019-08-01T11:05:04.000Z</Time>
            <Position>
              <LatitudeDegrees>40.63988811336457729339599609375</LatitudeDegrees>
              <LongitudeDegrees>-4.0067121572792530059814453125</LongitudeDegrees>
            </Position>
            <AltitudeMeters>875.5999755859375</AltitudeMeters>
            <DistanceMeters>NAN</DistanceMeters>
          </Trackpoint>
          <Trackpoint>
            <Time>2019-08-01T11:05:05.000Z</Time>
            <Position>
              <LatitudeDegrees>40.639960281550884246826171875</LatitudeDegrees>
              <LongitudeDegrees>-4.006712324917316436767578125</LongitudeDegrees>
            </Position>
            <AltitudeMeters>875.79998779296875</AltitudeMeters>
            <DistanceMeters>NAN</DistanceMeters>
          </Trackpoint>
          <Trackpoint>
            <Time>2019-08-01T11:05:06.000Z</Time>
            <Position>
              <LatitudeDegrees>40.6400315277278423309326171875</LatitudeDegrees>
              <LongitudeDegrees>-4.00671400129795074462890625</LongitudeDegrees>
            </Position>
            <AltitudeMeters>875.79998779296875</AltitudeMeters>
            <DistanceMeters>NAN</DistanceMeters>
          </Trackpoint>
          <Trackpoint>
            <Time>2019-08-01T11:05:07.000Z</Time>
            <Position>
              <LatitudeDegrees>40.64010185189545154571533203125</LatitudeDegrees>
              <LongitudeDegrees>-4.00671475566923618316650390625</LongitudeDegrees>
            </Position>
            <AltitudeMeters>876</AltitudeMeters>
            <DistanceMeters>NAN</DistanceMeters>
          </Trackpoint>
          <Trackpoint>
            <Time>2019-08-01T11:05:08.000Z</Time>
            <Position>
              <LatitudeDegrees>40.64017024822533130645751953125</LatitudeDegrees>
              <LongitudeDegrees>-4.0067146718502044677734375</LongitudeDegrees>
            </Position>
            <AltitudeMeters>876</AltitudeMeters>
            <DistanceMeters>NAN</DistanceMeters>
          </Trackpoint>
          <Trackpoint>
            <Time>2019-08-01T11:05:09.000Z</Time>
            <Position>
              <LatitudeDegrees>40.64024082385003566741943359375</LatitudeDegrees>
              <LongitudeDegrees>-4.006710313260555267333984375</LongitudeDegrees>
            </Position>
            <AltitudeMeters>876.20001220703125</AltitudeMeters>
            <DistanceMeters>NAN</DistanceMeters>
          </Trackpoint>
          <Trackpoint>
            <Time>2019-08-01T11:05:10.000Z</Time>
            <Position>
              <LatitudeDegrees>40.6403093039989471435546875</LatitudeDegrees>
              <LongitudeDegrees>-4.00669530965387821197509765625</LongitudeDegrees>
            </Position>
            <AltitudeMeters>876.20001220703125</AltitudeMeters>
            <DistanceMeters>NAN</DistanceMeters>
          </Trackpoint>
          <Trackpoint>
            <Time>2019-08-01T11:05:11.000Z</Time>
            <Position>
              <LatitudeDegrees>40.6403761915862560272216796875</LatitudeDegrees>
              <LongitudeDegrees>-4.00666831992566585540771484375</LongitudeDegrees>
            </Position>
            <AltitudeMeters>876.4000244140625</AltitudeMeters>
            <DistanceMeters>NAN</DistanceMeters>
          </Trackpoint>
          <Trackpoint>
            <Time>2019-08-01T11:05:12.000Z</Time>
            <Position>
              <LatitudeDegrees>40.640437714755535125732421875</LatitudeDegrees>
              <LongitudeDegrees>-4.00662892498075962066650390625</LongitudeDegrees>
            </Position>
            <AltitudeMeters>876.5999755859375</AltitudeMeters>
            <DistanceMeters>NAN</DistanceMeters>
          </Trackpoint>
          <Trackpoint>
            <Time>2019-08-01T11:05:13.000Z</Time>
            <Position>
              <LatitudeDegrees>40.64049295149743556976318359375</LatitudeDegrees>
              <LongitudeDegrees>-4.00657746009528636932373046875</LongitudeDegrees>
            </Position>
            <AltitudeMeters>877</AltitudeMeters>
            <DistanceMeters>NAN</DistanceMeters>
          </Trackpoint>
          <Trackpoint>
            <Time>2019-08-01T11:05:14.000Z</Time>
            <Position>
              <LatitudeDegrees>40.6405413150787353515625</LatitudeDegrees>
              <LongitudeDegrees>-4.0065161883831024169921875</LongitudeDegrees>
            </Position>
            <AltitudeMeters>877.20001220703125</AltitudeMeters>
            <DistanceMeters>NAN</DistanceMeters>
          </Trackpoint>
          <Trackpoint>
            <Time>2019-08-01T11:05:15.000Z</Time>
            <Position>
              <LatitudeDegrees>40.64057878218591213226318359375</LatitudeDegrees>
              <LongitudeDegrees>-4.006444104015827178955078125</LongitudeDegrees>
            </Position>
            <AltitudeMeters>877.20001220703125</AltitudeMeters>
            <DistanceMeters>NAN</DistanceMeters>
          </Trackpoint>
          <Trackpoint>
            <Time>2019-08-01T11:05:16.000Z</Time>
            <Position>
              <LatitudeDegrees>40.64060023985803127288818359375</LatitudeDegrees>
              <LongitudeDegrees>-4.00636196136474609375</LongitudeDegrees>
            </Position>
            <AltitudeMeters>877.4000244140625</AltitudeMeters>
            <DistanceMeters>NAN</DistanceMeters>
          </Trackpoint>
          <Trackpoint>
            <Time>2019-08-01T11:05:17.000Z</Time>
            <Position>
              <LatitudeDegrees>40.640613399446010589599609375</LatitudeDegrees>
              <LongitudeDegrees>-4.00627680122852325439453125</LongitudeDegrees>
            </Position>
            <AltitudeMeters>877.4000244140625</AltitudeMeters>
            <DistanceMeters>NAN</DistanceMeters>
          </Trackpoint>
          <Trackpoint>
            <Time>2019-08-01T11:05:18.000Z</Time>
            <Position>
              <LatitudeDegrees>40.64062136225402355194091796875</LatitudeDegrees>
              <LongitudeDegrees>-4.006202705204486846923828125</LongitudeDegrees>
            </Position>
            <AltitudeMeters>877.5999755859375</AltitudeMeters>
            <DistanceMeters>NAN</DistanceMeters>
          </Trackpoint>
          <Trackpoint>
            <Time>2019-08-01T11:05:19.000Z</Time>
            <Position>
              <LatitudeDegrees>40.64062773250043392181396484375</LatitudeDegrees>
              <LongitudeDegrees>-4.00614713318645954132080078125</LongitudeDegrees>
            </Position>
            <AltitudeMeters>877.5999755859375</AltitudeMeters>
            <DistanceMeters>NAN</DistanceMeters>
          </Trackpoint>
          <Trackpoint>
            <Time>2019-08-01T11:05:20.000Z</Time>
            <Position>
              <LatitudeDegrees>40.64062773250043392181396484375</LatitudeDegrees>
              <LongitudeDegrees>-4.00614713318645954132080078125</LongitudeDegrees>
            </Position>
            <AltitudeMeters>877.79998779296875</AltitudeMeters>
            <DistanceMeters>NAN</DistanceMeters>
          </Trackpoint>
          <Trackpoint>
            <Time>2019-08-01T11:05:21.000Z</Time>
            <Position>
              <LatitudeDegrees>40.64063125289976596832275390625</LatitudeDegrees>
              <LongitudeDegrees>-4.0060744620859622955322265625</LongitudeDegrees>
            </Position>
            <AltitudeMeters>878</AltitudeMeters>
            <DistanceMeters>NAN</DistanceMeters>
          </Trackpoint>
          <Trackpoint>
            <Time>2019-08-01T11:05:22.000Z</Time>
            <Position>
              <LatitudeDegrees>40.6406313367187976837158203125</LatitudeDegrees>
              <LongitudeDegrees>-4.00605225004255771636962890625</LongitudeDegrees>
            </Position>
            <AltitudeMeters>878.20001220703125</AltitudeMeters>
            <DistanceMeters>NAN</DistanceMeters>
          </Trackpoint>
          <Trackpoint>
            <Time>2019-08-01T11:05:23.000Z</Time>
            <Position>
              <LatitudeDegrees>40.64063125289976596832275390625</LatitudeDegrees>
              <LongitudeDegrees>-4.00603808462619781494140625</LongitudeDegrees>
            </Position>
            <AltitudeMeters>878.4000244140625</AltitudeMeters>
            <DistanceMeters>NAN</DistanceMeters>
          </Trackpoint>
          <Trackpoint>
            <Time>2019-08-01T11:05:24.000Z</Time>
            <Position>
              <LatitudeDegrees>40.64063091762363910675048828125</LatitudeDegrees>
              <LongitudeDegrees>-4.0060280263423919677734375</LongitudeDegrees>
            </Position>
            <AltitudeMeters>878.4000244140625</AltitudeMeters>
            <DistanceMeters>NAN</DistanceMeters>
          </Trackpoint>
          <Trackpoint>
            <Time>2019-08-01T11:05:25.000Z</Time>
            <Position>
              <LatitudeDegrees>40.640631504356861114501953125</LatitudeDegrees>
              <LongitudeDegrees>-4.0060161240398883819580078125</LongitudeDegrees>
            </Position>
            <AltitudeMeters>878.5999755859375</AltitudeMeters>
            <DistanceMeters>NAN</DistanceMeters>
          </Trackpoint>
          <Trackpoint>
            <Time>2019-08-01T11:05:26.000Z</Time>
            <Position>
              <LatitudeDegrees>40.64063091762363910675048828125</LatitudeDegrees>
              <LongitudeDegrees>-4.006000198423862457275390625</LongitudeDegrees>
            </Position>
            <AltitudeMeters>878.5999755859375</AltitudeMeters>
            <DistanceMeters>NAN</DistanceMeters>
          </Trackpoint>
          <Trackpoint>
            <Time>2019-08-01T11:05:27.000Z</Time>
            <Position>
              <LatitudeDegrees>40.6406273134052753448486328125</LatitudeDegrees>
              <LongitudeDegrees>-4.0059785731136798858642578125</LongitudeDegrees>
            </Position>
            <AltitudeMeters>878.79998779296875</AltitudeMeters>
            <DistanceMeters>NAN</DistanceMeters>
          </Trackpoint>
          <Trackpoint>
            <Time>2019-08-01T11:05:28.000Z</Time>
            <Position>
              <LatitudeDegrees>40.64062069170176982879638671875</LatitudeDegrees>
              <LongitudeDegrees>-4.00595493614673614501953125</LongitudeDegrees>
            </Position>
            <AltitudeMeters>878.79998779296875</AltitudeMeters>
            <DistanceMeters>NAN</DistanceMeters>
          </Trackpoint>
          <Trackpoint>
            <Time>2019-08-01T11:05:29.000Z</Time>
            <Position>
              <LatitudeDegrees>40.64061214216053485870361328125</LatitudeDegrees>
              <LongitudeDegrees>-4.00592811405658721923828125</LongitudeDegrees>
            </Position>
            <AltitudeMeters>878.79998779296875</AltitudeMeters>
            <DistanceMeters>NAN</DistanceMeters>
          </Trackpoint>
          <Trackpoint>
            <Time>2019-08-01T11:05:30.000Z</Time>
            <Position>
              <LatitudeDegrees>40.640599317848682403564453125</LatitudeDegrees>
              <LongitudeDegrees>-4.00589483790099620819091796875</LongitudeDegrees>
            </Position>
            <AltitudeMeters>879</AltitudeMeters>
            <DistanceMeters>NAN</DistanceMeters>
          </Trackpoint>
          <Trackpoint>
            <Time>2019-08-01T11:05:31.000Z</Time>
            <Position>
              <LatitudeDegrees>40.64057962037622928619384765625</LatitudeDegrees>
              <LongitudeDegrees>-4.00585074909031391143798828125</LongitudeDegrees>
            </Position>
            <AltitudeMeters>879</AltitudeMeters>
            <DistanceMeters>NAN</DistanceMeters>
          </Trackpoint>
          <Trackpoint>
            <Time>2019-08-01T11:05:32.000Z</Time>
            <Position>
              <LatitudeDegrees>40.64055405557155609130859375</LatitudeDegrees>
              <LongitudeDegrees>-4.005793668329715728759765625</LongitudeDegrees>
            </Position>
            <AltitudeMeters>879</AltitudeMeters>
            <DistanceMeters>NAN</DistanceMeters>
          </Trackpoint>
          <Trackpoint>
            <Time>2019-08-01T11:05:33.000Z</Time>
            <Position>
              <LatitudeDegrees>40.64052597619593143463134765625</LatitudeDegrees>
              <LongitudeDegrees>-4.00572116486728191375732421875</LongitudeDegrees>
            </Position>
            <AltitudeMeters>879</AltitudeMeters>
            <DistanceMeters>NAN</DistanceMeters>
          </Trackpoint>
          <Trackpoint>
            <Time>2019-08-01T11:05:34.000Z</Time>
            <Position>
              <LatitudeDegrees>40.64050309360027313232421875</LatitudeDegrees>
              <LongitudeDegrees>-4.00563902221620082855224609375</LongitudeDegrees>
            </Position>
            <AltitudeMeters>879</AltitudeMeters>
            <DistanceMeters>NAN</DistanceMeters>
          </Trackpoint>
          <Trackpoint>
            <Time>2019-08-01T11:05:35.000Z</Time>
            <Position>
              <LatitudeDegrees>40.6404942087829113006591796875</LatitudeDegrees>
              <LongitudeDegrees>-4.005549252033233642578125</LongitudeDegrees>
            </Position>
            <AltitudeMeters>879</AltitudeMeters>
            <DistanceMeters>NAN</DistanceMeters>
          </Trackpoint>
          <Trackpoint>
            <Time>2019-08-01T11:05:36.000Z</Time>
            <Position>
              <LatitudeDegrees>40.64050015993416309356689453125</LatitudeDegrees>
              <LongitudeDegrees>-4.00545730255544185638427734375</LongitudeDegrees>
            </Position>
            <AltitudeMeters>879</AltitudeMeters>
            <DistanceMeters>NAN</DistanceMeters>
          </Trackpoint>
          <Trackpoint>
            <Time>2019-08-01T11:05:37.000Z</Time>
            <Position>
              <LatitudeDegrees>40.64052279107272624969482421875</LatitudeDegrees>
              <LongitudeDegrees>-4.00537155568599700927734375</LongitudeDegrees>
            </Position>
            <AltitudeMeters>879</AltitudeMeters>
            <DistanceMeters>NAN</DistanceMeters>
          </Trackpoint>
          <Trackpoint>
            <Time>2019-08-01T11:05:38.000Z</Time>
            <Position>
              <LatitudeDegrees>40.6405622698366641998291015625</LatitudeDegrees>
              <LongitudeDegrees>-4.00529720820486545562744140625</LongitudeDegrees>
            </Position>
            <AltitudeMeters>879</AltitudeMeters>
            <DistanceMeters>NAN</DistanceMeters>
          </Trackpoint>
          <Trackpoint>
            <Time>2019-08-01T11:05:39.000Z</Time>
            <Position>
              <LatitudeDegrees>40.64061499200761318206787109375</LatitudeDegrees>
              <LongitudeDegrees>-4.00523669086396694183349609375</LongitudeDegrees>
            </Position>
            <AltitudeMeters>879</AltitudeMeters>
            <DistanceMeters>NAN</DistanceMeters>
          </Trackpoint>
          <Trackpoint>
            <Time>2019-08-01T11:05:40.000Z</Time>
            <Position>
              <LatitudeDegrees>40.6406779401004314422607421875</LatitudeDegrees>
              <LongitudeDegrees>-4.00519855320453643798828125</LongitudeDegrees>
            </Position>
            <AltitudeMeters>878.79998779296875</AltitudeMeters>
            <DistanceMeters>NAN</DistanceMeters>
          </Trackpoint>
          <Trackpoint>
            <Time>2019-08-01T11:05:41.000Z</Time>
            <Position>
              <LatitudeDegrees>40.64074692316353321075439453125</LatitudeDegrees>
              <LongitudeDegrees>-4.00518589653074741363525390625</LongitudeDegrees>
            </Position>
            <AltitudeMeters>878.79998779296875</AltitudeMeters>
            <DistanceMeters>NAN</DistanceMeters>
          </Trackpoint>
          <Trackpoint>
            <Time>2019-08-01T11:05:42.000Z</Time>
            <Position>
              <LatitudeDegrees>40.64081749878823757171630859375</LatitudeDegrees>
              <LongitudeDegrees>-4.005194194614887237548828125</LongitudeDegrees>
            </Position>
            <AltitudeMeters>878.5999755859375</AltitudeMeters>
            <DistanceMeters>NAN</DistanceMeters>
          </Trackpoint>
          <Trackpoint>
            <Time>2019-08-01T11:05:43.000Z</Time>
            <Position>
              <LatitudeDegrees>40.6408824585378170013427734375</LatitudeDegrees>
              <LongitudeDegrees>-4.00522579438984394073486328125</LongitudeDegrees>
            </Position>
            <AltitudeMeters>878.5999755859375</AltitudeMeters>
            <DistanceMeters>NAN</DistanceMeters>
          </Trackpoint>
          <Trackpoint>
            <Time>2019-08-01T11:05:44.000Z</Time>
            <Position>
              <LatitudeDegrees>40.6409371085464954376220703125</LatitudeDegrees>
              <LongitudeDegrees>-4.0052788518369197845458984375</LongitudeDegrees>
            </Position>
            <AltitudeMeters>878.5999755859375</AltitudeMeters>
            <DistanceMeters>NAN</DistanceMeters>
          </Trackpoint>
          <Trackpoint>
            <Time>2019-08-01T11:05:45.000Z</Time>
            <Position>
              <LatitudeDegrees>40.64098798669874668121337890625</LatitudeDegrees>
              <LongitudeDegrees>-4.0053440630435943603515625</LongitudeDegrees>
            </Position>
            <AltitudeMeters>878.5999755859375</AltitudeMeters>
            <DistanceMeters>NAN</DistanceMeters>
          </Trackpoint>
          <Trackpoint>
            <Time>2019-08-01T11:05:47.000Z</Time>
            <Position>
              <LatitudeDegrees>40.64110793173313140869140625</LatitudeDegrees>
              <LongitudeDegrees>-4.00547021068632602691650390625</LongitudeDegrees>
            </Position>
            <AltitudeMeters>878.5999755859375</AltitudeMeters>
            <DistanceMeters>NAN</DistanceMeters>
          </Trackpoint>
          <Trackpoint>
            <Time>2019-08-01T11:05:49.000Z</Time>
            <Position>
              <LatitudeDegrees>40.64125570468604564666748046875</LatitudeDegrees>
              <LongitudeDegrees>-4.00553307496011257171630859375</LongitudeDegrees>
            </Position>
            <AltitudeMeters>878.4000244140625</AltitudeMeters>
            <DistanceMeters>NAN</DistanceMeters>
          </Trackpoint>
          <Trackpoint>
            <Time>2019-08-01T11:05:50.000Z</Time>
            <Position>
              <LatitudeDegrees>40.6413327343761920928955078125</LatitudeDegrees>
              <LongitudeDegrees>-4.00554053485393524169921875</LongitudeDegrees>
            </Position>
            <AltitudeMeters>878.4000244140625</AltitudeMeters>
            <DistanceMeters>NAN</DistanceMeters>
          </Trackpoint>
          <Trackpoint>
            <Time>2019-08-01T11:05:51.000Z</Time>
            <Position>
              <LatitudeDegrees>40.6414095126092433929443359375</LatitudeDegrees>
              <LongitudeDegrees>-4.00553374551236629486083984375</LongitudeDegrees>
            </Position>
            <AltitudeMeters>878.4000244140625</AltitudeMeters>
            <DistanceMeters>NAN</DistanceMeters>
          </Trackpoint>
          <Trackpoint>
            <Time>2019-08-01T11:05:52.000Z</Time>
            <Position>
              <LatitudeDegrees>40.64148520119488239288330078125</LatitudeDegrees>
              <LongitudeDegrees>-4.00551748462021350860595703125</LongitudeDegrees>
            </Position>
            <AltitudeMeters>878.4000244140625</AltitudeMeters>
            <DistanceMeters>NAN</DistanceMeters>
          </Trackpoint>
          <Trackpoint>
            <Time>2019-08-01T11:05:53.000Z</Time>
            <Position>
              <LatitudeDegrees>40.64155929721891880035400390625</LatitudeDegrees>
              <LongitudeDegrees>-4.00549535639584064483642578125</LongitudeDegrees>
            </Position>
            <AltitudeMeters>878.4000244140625</AltitudeMeters>
            <DistanceMeters>NAN</DistanceMeters>
          </Trackpoint>
          <Trackpoint>
            <Time>2019-08-01T11:05:54.000Z</Time>
            <Position>
              <LatitudeDegrees>40.6416311301290988922119140625</LatitudeDegrees>
              <LongitudeDegrees>-4.00547071360051631927490234375</LongitudeDegrees>
            </Position>
            <AltitudeMeters>878.4000244140625</AltitudeMeters>
            <DistanceMeters>NAN</DistanceMeters>
          </Trackpoint>
          <Trackpoint>
            <Time>2019-08-01T11:05:55.000Z</Time>
            <Position>
              <LatitudeDegrees>40.64170061610639095306396484375</LatitudeDegrees>
              <LongitudeDegrees>-4.00544523261487483978271484375</LongitudeDegrees>
            </Position>
            <AltitudeMeters>878.4000244140625</AltitudeMeters>
            <DistanceMeters>NAN</DistanceMeters>
          </Trackpoint>
          <Trackpoint>
            <Time>2019-08-01T11:05:56.000Z</Time>
            <Position>
              <LatitudeDegrees>40.64176976680755615234375</LatitudeDegrees>
              <LongitudeDegrees>-4.005418829619884490966796875</LongitudeDegrees>
            </Position>
            <AltitudeMeters>878.4000244140625</AltitudeMeters>
            <DistanceMeters>NAN</DistanceMeters>
          </Trackpoint>
          <Trackpoint>
            <Time>2019-08-01T11:05:57.000Z</Time>
            <Position>
              <LatitudeDegrees>40.64183824695646762847900390625</LatitudeDegrees>
              <LongitudeDegrees>-4.0053918398916721343994140625</LongitudeDegrees>
            </Position>
            <AltitudeMeters>878.4000244140625</AltitudeMeters>
            <DistanceMeters>NAN</DistanceMeters>
          </Trackpoint>
          <Trackpoint>
            <Time>2019-08-01T11:05:58.000Z</Time>
            <Position>
              <LatitudeDegrees>40.64190588891506195068359375</LatitudeDegrees>
              <LongitudeDegrees>-4.005367197096347808837890625</LongitudeDegrees>
            </Position>
            <AltitudeMeters>878.4000244140625</AltitudeMeters>
            <DistanceMeters>NAN</DistanceMeters>
          </Trackpoint>
          <Trackpoint>
            <Time>2019-08-01T11:05:59.000Z</Time>
            <Position>
              <LatitudeDegrees>40.64190588891506195068359375</LatitudeDegrees>
              <LongitudeDegrees>-4.005367197096347808837890625</LongitudeDegrees>
            </Position>
            <AltitudeMeters>878.4000244140625</AltitudeMeters>
            <DistanceMeters>NAN</DistanceMeters>
          </Trackpoint>
          <Trackpoint>
            <Time>2019-08-01T11:06:00.000Z</Time>
            <Position>
              <LatitudeDegrees>40.64204192720353603363037109375</LatitudeDegrees>
              <LongitudeDegrees>-4.00532134808599948883056640625</LongitudeDegrees>
            </Position>
            <AltitudeMeters>878.4000244140625</AltitudeMeters>
            <DistanceMeters>NAN</DistanceMeters>
          </Trackpoint>
          <Trackpoint>
            <Time>2019-08-01T11:06:01.000Z</Time>
            <Position>
              <LatitudeDegrees>40.642112083733081817626953125</LatitudeDegrees>
              <LongitudeDegrees>-4.00530307553708553314208984375</LongitudeDegrees>
            </Position>
            <AltitudeMeters>878.4000244140625</AltitudeMeters>
            <DistanceMeters>NAN</DistanceMeters>
          </Trackpoint>
          <Trackpoint>
            <Time>2019-08-01T11:06:02.000Z</Time>
            <Position>
              <LatitudeDegrees>40.64218291081488132476806640625</LatitudeDegrees>
              <LongitudeDegrees>-4.00528949685394763946533203125</LongitudeDegrees>
            </Position>
            <AltitudeMeters>878.4000244140625</AltitudeMeters>
            <DistanceMeters>NAN</DistanceMeters>
          </Trackpoint>
          <Trackpoint>
            <Time>2019-08-01T11:06:03.000Z</Time>
            <Position>
              <LatitudeDegrees>40.6422547437250614166259765625</LatitudeDegrees>
              <LongitudeDegrees>-4.0052811987698078155517578125</LongitudeDegrees>
            </Position>
            <AltitudeMeters>878.4000244140625</AltitudeMeters>
            <DistanceMeters>NAN</DistanceMeters>
          </Trackpoint>
          <Trackpoint>
            <Time>2019-08-01T11:06:04.000Z</Time>
            <Position>
              <LatitudeDegrees>40.64232565462589263916015625</LatitudeDegrees>
              <LongitudeDegrees>-4.00527658872306346893310546875</LongitudeDegrees>
            </Position>
            <AltitudeMeters>878.4000244140625</AltitudeMeters>
            <DistanceMeters>NAN</DistanceMeters>
          </Trackpoint>
          <Trackpoint>
            <Time>2019-08-01T11:06:05.000Z</Time>
            <Position>
              <LatitudeDegrees>40.6423958949744701385498046875</LatitudeDegrees>
              <LongitudeDegrees>-4.0052768401801586151123046875</LongitudeDegrees>
            </Position>
            <AltitudeMeters>878.5999755859375</AltitudeMeters>
            <DistanceMeters>NAN</DistanceMeters>
          </Trackpoint>
          <Trackpoint>
            <Time>2019-08-01T11:06:06.000Z</Time>
            <Position>
              <LatitudeDegrees>40.6424658000469207763671875</LatitudeDegrees>
              <LongitudeDegrees>-4.00528706610202789306640625</LongitudeDegrees>
            </Position>
            <AltitudeMeters>879</AltitudeMeters>
            <DistanceMeters>NAN</DistanceMeters>
          </Trackpoint>
          <Trackpoint>
            <Time>2019-08-01T11:06:07.000Z</Time>
            <Position>
              <LatitudeDegrees>40.6425360403954982757568359375</LatitudeDegrees>
              <LongitudeDegrees>-4.005299471318721771240234375</LongitudeDegrees>
            </Position>
            <AltitudeMeters>879.20001220703125</AltitudeMeters>
            <DistanceMeters>NAN</DistanceMeters>
          </Trackpoint>
          <Trackpoint>
            <Time>2019-08-01T11:06:08.000Z</Time>
            <Position>
              <LatitudeDegrees>40.64260737039148807525634765625</LatitudeDegrees>
              <LongitudeDegrees>-4.0053127147257328033447265625</LongitudeDegrees>
            </Position>
            <AltitudeMeters>879.79998779296875</AltitudeMeters>
            <DistanceMeters>NAN</DistanceMeters>
          </Trackpoint>
          <Trackpoint>
            <Time>2019-08-01T11:06:09.000Z</Time>
            <Position>
              <LatitudeDegrees>40.64267610199749469757080078125</LatitudeDegrees>
              <LongitudeDegrees>-4.00532989762723445892333984375</LongitudeDegrees>
            </Position>
            <AltitudeMeters>880.20001220703125</AltitudeMeters>
            <DistanceMeters>NAN</DistanceMeters>
          </Trackpoint>
          <Trackpoint>
            <Time>2019-08-01T11:06:10.000Z</Time>
            <Position>
              <LatitudeDegrees>40.642745085060596466064453125</LatitudeDegrees>
              <LongitudeDegrees>-4.00535102002322673797607421875</LongitudeDegrees>
            </Position>
            <AltitudeMeters>880.79998779296875</AltitudeMeters>
            <DistanceMeters>NAN</DistanceMeters>
          </Trackpoint>
          <Trackpoint>
            <Time>2019-08-01T11:06:11.000Z</Time>
            <Position>
              <LatitudeDegrees>40.6428143195807933807373046875</LatitudeDegrees>
              <LongitudeDegrees>-4.0053717233240604400634765625</LongitudeDegrees>
            </Position>
            <AltitudeMeters>880.79998779296875</AltitudeMeters>
            <DistanceMeters>NAN</DistanceMeters>
          </Trackpoint>
          <Trackpoint>
            <Time>2019-08-01T11:06:12.000Z</Time>
            <Position>
              <LatitudeDegrees>40.642885230481624603271484375</LatitudeDegrees>
              <LongitudeDegrees>-4.0053951926529407501220703125</LongitudeDegrees>
            </Position>
            <AltitudeMeters>881</AltitudeMeters>
            <DistanceMeters>NAN</DistanceMeters>
          </Trackpoint>
          <Trackpoint>
            <Time>2019-08-01T11:06:13.000Z</Time>
            <Position>
              <LatitudeDegrees>40.642954967916011810302734375</LatitudeDegrees>
              <LongitudeDegrees>-4.0054200030863285064697265625</LongitudeDegrees>
            </Position>
            <AltitudeMeters>881.20001220703125</AltitudeMeters>
            <DistanceMeters>NAN</DistanceMeters>
          </Trackpoint>
          <Trackpoint>
            <Time>2019-08-01T11:06:14.000Z</Time>
            <Position>
              <LatitudeDegrees>40.64302512444555759429931640625</LatitudeDegrees>
              <LongitudeDegrees>-4.00544556789100170135498046875</LongitudeDegrees>
            </Position>
            <AltitudeMeters>881.5999755859375</AltitudeMeters>
            <DistanceMeters>NAN</DistanceMeters>
          </Trackpoint>
          <Trackpoint>
            <Time>2019-08-01T11:06:15.000Z</Time>
            <Position>
              <LatitudeDegrees>40.64309687353670597076416015625</LatitudeDegrees>
              <LongitudeDegrees>-4.005470462143421173095703125</LongitudeDegrees>
            </Position>
            <AltitudeMeters>881.5999755859375</AltitudeMeters>
            <DistanceMeters>NAN</DistanceMeters>
          </Trackpoint>
          <Trackpoint>
            <Time>2019-08-01T11:06:16.000Z</Time>
            <Position>
              <LatitudeDegrees>40.64316828735172748565673828125</LatitudeDegrees>
              <LongitudeDegrees>-4.0054944343864917755126953125</LongitudeDegrees>
            </Position>
            <AltitudeMeters>881.79998779296875</AltitudeMeters>
            <DistanceMeters>NAN</DistanceMeters>
          </Trackpoint>
          <Trackpoint>
            <Time>2019-08-01T11:06:17.000Z</Time>
            <Position>
              <LatitudeDegrees>40.64323961734771728515625</LatitudeDegrees>
              <LongitudeDegrees>-4.005518071353435516357421875</LongitudeDegrees>
            </Position>
            <AltitudeMeters>881.79998779296875</AltitudeMeters>
            <DistanceMeters>NAN</DistanceMeters>
          </Trackpoint>
          <Trackpoint>
            <Time>2019-08-01T11:06:18.000Z</Time>
            <Position>
              <LatitudeDegrees>40.6433108635246753692626953125</LatitudeDegrees>
              <LongitudeDegrees>-4.005542211234569549560546875</LongitudeDegrees>
            </Position>
            <AltitudeMeters>881.79998779296875</AltitudeMeters>
            <DistanceMeters>NAN</DistanceMeters>
          </Trackpoint>
          <Trackpoint>
            <Time>2019-08-01T11:06:19.000Z</Time>
            <Position>
              <LatitudeDegrees>40.64338244497776031494140625</LatitudeDegrees>
              <LongitudeDegrees>-4.0055661834776401519775390625</LongitudeDegrees>
            </Position>
            <AltitudeMeters>882</AltitudeMeters>
            <DistanceMeters>NAN</DistanceMeters>
          </Trackpoint>
          <Trackpoint>
            <Time>2019-08-01T11:06:20.000Z</Time>
            <Position>
              <LatitudeDegrees>40.64345486462116241455078125</LatitudeDegrees>
              <LongitudeDegrees>-4.00559074245393276214599609375</LongitudeDegrees>
            </Position>
            <AltitudeMeters>882</AltitudeMeters>
            <DistanceMeters>NAN</DistanceMeters>
          </Trackpoint>
          <Trackpoint>
            <Time>2019-08-01T11:06:21.000Z</Time>
            <Position>
              <LatitudeDegrees>40.64352703280746936798095703125</LatitudeDegrees>
              <LongitudeDegrees>-4.00561555288732051849365234375</LongitudeDegrees>
            </Position>
            <AltitudeMeters>882</AltitudeMeters>
            <DistanceMeters>NAN</DistanceMeters>
          </Trackpoint>
          <Trackpoint>
            <Time>2019-08-01T11:06:22.000Z</Time>
            <Position>
              <LatitudeDegrees>40.64359995536506175994873046875</LatitudeDegrees>
              <LongitudeDegrees>-4.0056402795016765594482421875</LongitudeDegrees>
            </Position>
            <AltitudeMeters>882</AltitudeMeters>
            <DistanceMeters>NAN</DistanceMeters>
          </Trackpoint>
          <Trackpoint>
            <Time>2019-08-01T11:06:23.000Z</Time>
            <Position>
              <LatitudeDegrees>40.64367304556071758270263671875</LatitudeDegrees>
              <LongitudeDegrees>-4.00566433556377887725830078125</LongitudeDegrees>
            </Position>
            <AltitudeMeters>882.20001220703125</AltitudeMeters>
            <DistanceMeters>NAN</DistanceMeters>
          </Trackpoint>
          <Trackpoint>
            <Time>2019-08-01T11:06:24.000Z</Time>
            <Position>
              <LatitudeDegrees>40.64374630339443683624267578125</LatitudeDegrees>
              <LongitudeDegrees>-4.00568805634975433349609375</LongitudeDegrees>
            </Position>
            <AltitudeMeters>882.20001220703125</AltitudeMeters>
            <DistanceMeters>NAN</DistanceMeters>
          </Trackpoint>
          <Trackpoint>
            <Time>2019-08-01T11:06:25.000Z</Time>
            <Position>
              <LatitudeDegrees>40.64381939359009265899658203125</LatitudeDegrees>
              <LongitudeDegrees>-4.00571211241185665130615234375</LongitudeDegrees>
            </Position>
            <AltitudeMeters>882.20001220703125</AltitudeMeters>
            <DistanceMeters>NAN</DistanceMeters>
          </Trackpoint>
          <Trackpoint>
            <Time>2019-08-01T11:06:26.000Z</Time>
            <Position>
              <LatitudeDegrees>40.64389181323349475860595703125</LatitudeDegrees>
              <LongitudeDegrees>-4.00573558174073696136474609375</LongitudeDegrees>
            </Position>
            <AltitudeMeters>882.4000244140625</AltitudeMeters>
            <DistanceMeters>NAN</DistanceMeters>
          </Trackpoint>
          <Trackpoint>
            <Time>2019-08-01T11:06:27.000Z</Time>
            <Position>
              <LatitudeDegrees>40.64396406523883342742919921875</LatitudeDegrees>
              <LongitudeDegrees>-4.00575988925993442535400390625</LongitudeDegrees>
            </Position>
            <AltitudeMeters>882.5999755859375</AltitudeMeters>
            <DistanceMeters>NAN</DistanceMeters>
          </Trackpoint>
          <Trackpoint>
            <Time>2019-08-01T11:06:28.000Z</Time>
            <Position>
              <LatitudeDegrees>40.64403581432998180389404296875</LatitudeDegrees>
              <LongitudeDegrees>-4.0057841129601001739501953125</LongitudeDegrees>
            </Position>
            <AltitudeMeters>882.4000244140625</AltitudeMeters>
            <DistanceMeters>NAN</DistanceMeters>
          </Trackpoint>
          <Trackpoint>
            <Time>2019-08-01T11:06:29.000Z</Time>
            <Position>
              <LatitudeDegrees>40.64410789869725704193115234375</LatitudeDegrees>
              <LongitudeDegrees>-4.0058095939457416534423828125</LongitudeDegrees>
            </Position>
            <AltitudeMeters>882.4000244140625</AltitudeMeters>
            <DistanceMeters>NAN</DistanceMeters>
          </Trackpoint>
          <Trackpoint>
            <Time>2019-08-01T11:06:30.000Z</Time>
            <Position>
              <LatitudeDegrees>40.6441802345216274261474609375</LatitudeDegrees>
              <LongitudeDegrees>-4.0058347396552562713623046875</LongitudeDegrees>
            </Position>
            <AltitudeMeters>882.5999755859375</AltitudeMeters>
            <DistanceMeters>NAN</DistanceMeters>
          </Trackpoint>
          <Trackpoint>
            <Time>2019-08-01T11:06:31.000Z</Time>
            <Position>
              <LatitudeDegrees>40.6442529894411563873291015625</LatitudeDegrees>
              <LongitudeDegrees>-4.0058595500886440277099609375</LongitudeDegrees>
            </Position>
            <AltitudeMeters>882.5999755859375</AltitudeMeters>
            <DistanceMeters>NAN</DistanceMeters>
          </Trackpoint>
          <Trackpoint>
            <Time>2019-08-01T11:06:32.000Z</Time>
            <Position>
              <LatitudeDegrees>40.644326247274875640869140625</LatitudeDegrees>
              <LongitudeDegrees>-4.00588385760784149169921875</LongitudeDegrees>
            </Position>
            <AltitudeMeters>882.79998779296875</AltitudeMeters>
            <DistanceMeters>NAN</DistanceMeters>
          </Trackpoint>
          <Trackpoint>
            <Time>2019-08-01T11:06:33.000Z</Time>
            <Position>
              <LatitudeDegrees>40.64439958892762660980224609375</LatitudeDegrees>
              <LongitudeDegrees>-4.005908668041229248046875</LongitudeDegrees>
            </Position>
            <AltitudeMeters>882.79998779296875</AltitudeMeters>
            <DistanceMeters>NAN</DistanceMeters>
          </Trackpoint>
          <Trackpoint>
            <Time>2019-08-01T11:06:34.000Z</Time>
            <Position>
              <LatitudeDegrees>40.64447301439940929412841796875</LatitudeDegrees>
              <LongitudeDegrees>-4.00593356229364871978759765625</LongitudeDegrees>
            </Position>
            <AltitudeMeters>882.79998779296875</AltitudeMeters>
            <DistanceMeters>NAN</DistanceMeters>
          </Trackpoint>
          <Trackpoint>
            <Time>2019-08-01T11:06:35.000Z</Time>
            <Position>
              <LatitudeDegrees>40.6445470266044139862060546875</LatitudeDegrees>
              <LongitudeDegrees>-4.00595854036509990692138671875</LongitudeDegrees>
            </Position>
            <AltitudeMeters>882.5999755859375</AltitudeMeters>
            <DistanceMeters>NAN</DistanceMeters>
          </Trackpoint>
          <Trackpoint>
            <Time>2019-08-01T11:06:36.000Z</Time>
            <Position>
              <LatitudeDegrees>40.6445470266044139862060546875</LatitudeDegrees>
              <LongitudeDegrees>-4.00595854036509990692138671875</LongitudeDegrees>
            </Position>
            <AltitudeMeters>882.79998779296875</AltitudeMeters>
            <DistanceMeters>NAN</DistanceMeters>
          </Trackpoint>
          <Trackpoint>
            <Time>2019-08-01T11:06:37.000Z</Time>
            <Position>
              <LatitudeDegrees>40.6446935422718524932861328125</LatitudeDegrees>
              <LongitudeDegrees>-4.00600799359381198883056640625</LongitudeDegrees>
            </Position>
            <AltitudeMeters>883</AltitudeMeters>
            <DistanceMeters>NAN</DistanceMeters>
          </Trackpoint>
          <Trackpoint>
            <Time>2019-08-01T11:06:38.000Z</Time>
            <Position>
              <LatitudeDegrees>40.6447683088481426239013671875</LatitudeDegrees>
              <LongitudeDegrees>-4.00603272020816802978515625</LongitudeDegrees>
            </Position>
            <AltitudeMeters>883</AltitudeMeters>
            <DistanceMeters>NAN</DistanceMeters>
          </Trackpoint>
          <Trackpoint>
            <Time>2019-08-01T11:06:39.000Z</Time>
            <Position>
              <LatitudeDegrees>40.64484248869121074676513671875</LatitudeDegrees>
              <LongitudeDegrees>-4.006057865917682647705078125</LongitudeDegrees>
            </Position>
            <AltitudeMeters>883</AltitudeMeters>
            <DistanceMeters>NAN</DistanceMeters>
          </Trackpoint>
          <Trackpoint>
            <Time>2019-08-01T11:06:40.000Z</Time>
            <Position>
              <LatitudeDegrees>40.64491725526750087738037109375</LatitudeDegrees>
              <LongitudeDegrees>-4.00608326308429241180419921875</LongitudeDegrees>
            </Position>
            <AltitudeMeters>883</AltitudeMeters>
            <DistanceMeters>NAN</DistanceMeters>
          </Trackpoint>
          <Trackpoint>
            <Time>2019-08-01T11:06:41.000Z</Time>
            <Position>
              <LatitudeDegrees>40.6449924409389495849609375</LatitudeDegrees>
              <LongitudeDegrees>-4.006108827888965606689453125</LongitudeDegrees>
            </Position>
            <AltitudeMeters>883</AltitudeMeters>
            <DistanceMeters>NAN</DistanceMeters>
          </Trackpoint>
          <Trackpoint>
            <Time>2019-08-01T11:06:42.000Z</Time>
            <Position>
              <LatitudeDegrees>40.6450677104294300079345703125</LatitudeDegrees>
              <LongitudeDegrees>-4.00613422505557537078857421875</LongitudeDegrees>
            </Position>
            <AltitudeMeters>883</AltitudeMeters>
            <DistanceMeters>NAN</DistanceMeters>
          </Trackpoint>
          <Trackpoint>
            <Time>2019-08-01T11:06:43.000Z</Time>
            <Position>
              <LatitudeDegrees>40.6451434828341007232666015625</LatitudeDegrees>
              <LongitudeDegrees>-4.00616104714572429656982421875</LongitudeDegrees>
            </Position>
            <AltitudeMeters>883</AltitudeMeters>
            <DistanceMeters>NAN</DistanceMeters>
          </Trackpoint>
          <Trackpoint>
            <Time>2019-08-01T11:06:44.000Z</Time>
            <Position>
              <LatitudeDegrees>40.64521984197199344635009765625</LatitudeDegrees>
              <LongitudeDegrees>-4.00618669576942920684814453125</LongitudeDegrees>
            </Position>
            <AltitudeMeters>883.20001220703125</AltitudeMeters>
            <DistanceMeters>NAN</DistanceMeters>
          </Trackpoint>
          <Trackpoint>
            <Time>2019-08-01T11:06:45.000Z</Time>
            <Position>
              <LatitudeDegrees>40.64529611729085445404052734375</LatitudeDegrees>
              <LongitudeDegrees>-4.0062119252979755401611328125</LongitudeDegrees>
            </Position>
            <AltitudeMeters>883.20001220703125</AltitudeMeters>
            <DistanceMeters>NAN</DistanceMeters>
          </Trackpoint>
          <Trackpoint>
            <Time>2019-08-01T11:06:46.000Z</Time>
            <Position>
              <LatitudeDegrees>40.64537339843809604644775390625</LatitudeDegrees>
              <LongitudeDegrees>-4.00623899884521961212158203125</LongitudeDegrees>
            </Position>
            <AltitudeMeters>883.20001220703125</AltitudeMeters>
            <DistanceMeters>NAN</DistanceMeters>
          </Trackpoint>
          <Trackpoint>
            <Time>2019-08-01T11:06:47.000Z</Time>
            <Position>
              <LatitudeDegrees>40.64545176923274993896484375</LatitudeDegrees>
              <LongitudeDegrees>-4.0062645636498928070068359375</LongitudeDegrees>
            </Position>
            <AltitudeMeters>883.20001220703125</AltitudeMeters>
            <DistanceMeters>NAN</DistanceMeters>
          </Trackpoint>
          <Trackpoint>
            <Time>2019-08-01T11:06:48.000Z</Time>
            <Position>
              <LatitudeDegrees>40.64553114585578441619873046875</LatitudeDegrees>
              <LongitudeDegrees>-4.00629130192101001739501953125</LongitudeDegrees>
            </Position>
            <AltitudeMeters>883.20001220703125</AltitudeMeters>
            <DistanceMeters>NAN</DistanceMeters>
          </Trackpoint>
          <Trackpoint>
            <Time>2019-08-01T11:06:49.000Z</Time>
            <Position>
              <LatitudeDegrees>40.64561110921204090118408203125</LatitudeDegrees>
              <LongitudeDegrees>-4.00631837546825408935546875</LongitudeDegrees>
            </Position>
            <AltitudeMeters>883.20001220703125</AltitudeMeters>
            <DistanceMeters>NAN</DistanceMeters>
          </Trackpoint>
          <Trackpoint>
            <Time>2019-08-01T11:06:50.000Z</Time>
            <Position>
              <LatitudeDegrees>40.6456916593015193939208984375</LatitudeDegrees>
              <LongitudeDegrees>-4.0063446946442127227783203125</LongitudeDegrees>
            </Position>
            <AltitudeMeters>883.20001220703125</AltitudeMeters>
            <DistanceMeters>NAN</DistanceMeters>
          </Trackpoint>
          <Trackpoint>
            <Time>2019-08-01T11:06:51.000Z</Time>
            <Position>
              <LatitudeDegrees>40.64577363431453704833984375</LatitudeDegrees>
              <LongitudeDegrees>-4.0063715167343616485595703125</LongitudeDegrees>
            </Position>
            <AltitudeMeters>883.20001220703125</AltitudeMeters>
            <DistanceMeters>NAN</DistanceMeters>
          </Trackpoint>
          <Trackpoint>
            <Time>2019-08-01T11:06:52.000Z</Time>
            <Position>
              <LatitudeDegrees>40.64585586078464984893798828125</LatitudeDegrees>
              <LongitudeDegrees>-4.00639892555773258209228515625</LongitudeDegrees>
            </Position>
            <AltitudeMeters>883.20001220703125</AltitudeMeters>
            <DistanceMeters>NAN</DistanceMeters>
          </Trackpoint>
          <Trackpoint>
            <Time>2019-08-01T11:06:53.000Z</Time>
            <Position>
              <LatitudeDegrees>40.6459384225308895111083984375</LatitudeDegrees>
              <LongitudeDegrees>-4.00642541237175464630126953125</LongitudeDegrees>
            </Position>
            <AltitudeMeters>883.20001220703125</AltitudeMeters>
            <DistanceMeters>NAN</DistanceMeters>
          </Trackpoint>
          <Trackpoint>
            <Time>2019-08-01T11:06:54.000Z</Time>
            <Position>
              <LatitudeDegrees>40.64602098427712917327880859375</LatitudeDegrees>
              <LongitudeDegrees>-4.0064523182809352874755859375</LongitudeDegrees>
            </Position>
            <AltitudeMeters>883.20001220703125</AltitudeMeters>
            <DistanceMeters>NAN</DistanceMeters>
          </Trackpoint>
          <Trackpoint>
            <Time>2019-08-01T11:06:55.000Z</Time>
            <Position>
              <LatitudeDegrees>40.64610354602336883544921875</LatitudeDegrees>
              <LongitudeDegrees>-4.006480984389781951904296875</LongitudeDegrees>
            </Position>
            <AltitudeMeters>883.20001220703125</AltitudeMeters>
            <DistanceMeters>NAN</DistanceMeters>
          </Trackpoint>
          <Trackpoint>
            <Time>2019-08-01T11:06:56.000Z</Time>
            <Position>
              <LatitudeDegrees>40.6461865268647670745849609375</LatitudeDegrees>
              <LongitudeDegrees>-4.0065099857747554779052734375</LongitudeDegrees>
            </Position>
            <AltitudeMeters>883.20001220703125</AltitudeMeters>
            <DistanceMeters>NAN</DistanceMeters>
          </Trackpoint>
          <Trackpoint>
            <Time>2019-08-01T11:06:57.000Z</Time>
            <Position>
              <LatitudeDegrees>40.64627076499164104461669921875</LatitudeDegrees>
              <LongitudeDegrees>-4.00653873570263385772705078125</LongitudeDegrees>
            </Position>
            <AltitudeMeters>883</AltitudeMeters>
            <DistanceMeters>NAN</DistanceMeters>
          </Trackpoint>
          <Trackpoint>
            <Time>2019-08-01T11:06:58.000Z</Time>
            <Position>
              <LatitudeDegrees>40.646355338394641876220703125</LatitudeDegrees>
              <LongitudeDegrees>-4.00656689889729022979736328125</LongitudeDegrees>
            </Position>
            <AltitudeMeters>883</AltitudeMeters>
            <DistanceMeters>NAN</DistanceMeters>
          </Trackpoint>
          <Trackpoint>
            <Time>2019-08-01T11:06:59.000Z</Time>
            <Position>
              <LatitudeDegrees>40.6464413367211818695068359375</LatitudeDegrees>
              <LongitudeDegrees>-4.00659455917775630950927734375</LongitudeDegrees>
            </Position>
            <AltitudeMeters>882.79998779296875</AltitudeMeters>
            <DistanceMeters>NAN</DistanceMeters>
          </Trackpoint>
          <Trackpoint>
            <Time>2019-08-01T11:07:00.000Z</Time>
            <Position>
              <LatitudeDegrees>40.64652808941900730133056640625</LatitudeDegrees>
              <LongitudeDegrees>-4.0066239796578884124755859375</LongitudeDegrees>
            </Position>
            <AltitudeMeters>882.79998779296875</AltitudeMeters>
            <DistanceMeters>NAN</DistanceMeters>
          </Trackpoint>
          <Trackpoint>
            <Time>2019-08-01T11:07:01.000Z</Time>
            <Position>
              <LatitudeDegrees>40.6466143392026424407958984375</LatitudeDegrees>
              <LongitudeDegrees>-4.0066538192331790924072265625</LongitudeDegrees>
            </Position>
            <AltitudeMeters>882.79998779296875</AltitudeMeters>
            <DistanceMeters>NAN</DistanceMeters>
          </Trackpoint>
          <Trackpoint>
            <Time>2019-08-01T11:07:02.000Z</Time>
            <Position>
              <LatitudeDegrees>40.646701343357563018798828125</LatitudeDegrees>
              <LongitudeDegrees>-4.00668424554169178009033203125</LongitudeDegrees>
            </Position>
            <AltitudeMeters>882.79998779296875</AltitudeMeters>
            <DistanceMeters>NAN</DistanceMeters>
          </Trackpoint>
          <Trackpoint>
            <Time>2019-08-01T11:07:03.000Z</Time>
            <Position>
              <LatitudeDegrees>40.64678943715989589691162109375</LatitudeDegrees>
              <LongitudeDegrees>-4.00671400129795074462890625</LongitudeDegrees>
            </Position>
            <AltitudeMeters>882.79998779296875</AltitudeMeters>
            <DistanceMeters>NAN</DistanceMeters>
          </Trackpoint>
          <Trackpoint>
            <Time>2019-08-01T11:07:04.000Z</Time>
            <Position>
              <LatitudeDegrees>40.64687744714319705963134765625</LatitudeDegrees>
              <LongitudeDegrees>-4.006745852530002593994140625</LongitudeDegrees>
            </Position>
            <AltitudeMeters>882.79998779296875</AltitudeMeters>
            <DistanceMeters>NAN</DistanceMeters>
          </Trackpoint>
          <Trackpoint>
            <Time>2019-08-01T11:07:05.000Z</Time>
            <Position>
              <LatitudeDegrees>40.646965540945529937744140625</LatitudeDegrees>
              <LongitudeDegrees>-4.0067785419523715972900390625</LongitudeDegrees>
            </Position>
            <AltitudeMeters>882.79998779296875</AltitudeMeters>
            <DistanceMeters>NAN</DistanceMeters>
          </Trackpoint>
          <Trackpoint>
            <Time>2019-08-01T11:07:06.000Z</Time>
            <Position>
              <LatitudeDegrees>40.647054053843021392822265625</LatitudeDegrees>
              <LongitudeDegrees>-4.0068097226321697235107421875</LongitudeDegrees>
            </Position>
            <AltitudeMeters>882.4000244140625</AltitudeMeters>
            <DistanceMeters>NAN</DistanceMeters>
          </Trackpoint>
          <Trackpoint>
            <Time>2019-08-01T11:07:07.000Z</Time>
            <Position>
              <LatitudeDegrees>40.64714290201663970947265625</LatitudeDegrees>
              <LongitudeDegrees>-4.00684014894068241119384765625</LongitudeDegrees>
            </Position>
            <AltitudeMeters>882.4000244140625</AltitudeMeters>
            <DistanceMeters>NAN</DistanceMeters>
          </Trackpoint>
          <Trackpoint>
            <Time>2019-08-01T11:07:08.000Z</Time>
            <Position>
              <LatitudeDegrees>40.64723216928541660308837890625</LatitudeDegrees>
              <LongitudeDegrees>-4.006870575249195098876953125</LongitudeDegrees>
            </Position>
            <AltitudeMeters>882.4000244140625</AltitudeMeters>
            <DistanceMeters>NAN</DistanceMeters>
          </Trackpoint>
          <Trackpoint>
            <Time>2019-08-01T11:07:09.000Z</Time>
            <Position>
              <LatitudeDegrees>40.6473219394683837890625</LatitudeDegrees>
              <LongitudeDegrees>-4.00690066628158092498779296875</LongitudeDegrees>
            </Position>
            <AltitudeMeters>882.4000244140625</AltitudeMeters>
            <DistanceMeters>NAN</DistanceMeters>
          </Trackpoint>
          <Trackpoint>
            <Time>2019-08-01T11:07:10.000Z</Time>
            <Position>
              <LatitudeDegrees>40.64741154201328754425048828125</LatitudeDegrees>
              <LongitudeDegrees>-4.00693084113299846649169921875</LongitudeDegrees>
            </Position>
            <AltitudeMeters>882.5999755859375</AltitudeMeters>
            <DistanceMeters>NAN</DistanceMeters>
          </Trackpoint>
          <Trackpoint>
            <Time>2019-08-01T11:07:11.000Z</Time>
            <Position>
              <LatitudeDegrees>40.6475018151104450225830078125</LatitudeDegrees>
              <LongitudeDegrees>-4.00696101598441600799560546875</LongitudeDegrees>
            </Position>
            <AltitudeMeters>882.5999755859375</AltitudeMeters>
            <DistanceMeters>NAN</DistanceMeters>
          </Trackpoint>
          <Trackpoint>
            <Time>2019-08-01T11:07:12.000Z</Time>
            <Position>
              <LatitudeDegrees>40.64759208820760250091552734375</LatitudeDegrees>
              <LongitudeDegrees>-4.0069921128451824188232421875</LongitudeDegrees>
            </Position>
            <AltitudeMeters>882.4000244140625</AltitudeMeters>
            <DistanceMeters>NAN</DistanceMeters>
          </Trackpoint>
          <Trackpoint>
            <Time>2019-08-01T11:07:13.000Z</Time>
            <Position>
              <LatitudeDegrees>40.64768336713314056396484375</LatitudeDegrees>
              <LongitudeDegrees>-4.0070232935249805450439453125</LongitudeDegrees>
            </Position>
            <AltitudeMeters>882.4000244140625</AltitudeMeters>
            <DistanceMeters>NAN</DistanceMeters>
          </Trackpoint>
          <Trackpoint>
            <Time>2019-08-01T11:07:14.000Z</Time>
            <Position>
              <LatitudeDegrees>40.64777431078255176544189453125</LatitudeDegrees>
              <LongitudeDegrees>-4.0070531331002712249755859375</LongitudeDegrees>
            </Position>
            <AltitudeMeters>882.4000244140625</AltitudeMeters>
            <DistanceMeters>NAN</DistanceMeters>
          </Trackpoint>
          <Trackpoint>
            <Time>2019-08-01T11:07:15.000Z</Time>
            <Position>
              <LatitudeDegrees>40.6478645838797092437744140625</LatitudeDegrees>
              <LongitudeDegrees>-4.00708288885653018951416015625</LongitudeDegrees>
            </Position>
            <AltitudeMeters>882.4000244140625</AltitudeMeters>
            <DistanceMeters>NAN</DistanceMeters>
          </Trackpoint>
          <Trackpoint>
            <Time>2019-08-01T11:07:16.000Z</Time>
            <Position>
              <LatitudeDegrees>40.64795452170073986053466796875</LatitudeDegrees>
              <LongitudeDegrees>-4.00711339898407459259033203125</LongitudeDegrees>
            </Position>
            <AltitudeMeters>882.20001220703125</AltitudeMeters>
            <DistanceMeters>NAN</DistanceMeters>
          </Trackpoint>
          <Trackpoint>
            <Time>2019-08-01T11:07:17.000Z</Time>
            <Position>
              <LatitudeDegrees>40.6480442918837070465087890625</LatitudeDegrees>
              <LongitudeDegrees>-4.0071438252925872802734375</LongitudeDegrees>
            </Position>
            <AltitudeMeters>882.20001220703125</AltitudeMeters>
            <DistanceMeters>NAN</DistanceMeters>
          </Trackpoint>
          <Trackpoint>
            <Time>2019-08-01T11:07:18.000Z</Time>
            <Position>
              <LatitudeDegrees>40.6481348164379596710205078125</LatitudeDegrees>
              <LongitudeDegrees>-4.007174335420131683349609375</LongitudeDegrees>
            </Position>
            <AltitudeMeters>882.20001220703125</AltitudeMeters>
            <DistanceMeters>NAN</DistanceMeters>
          </Trackpoint>
          <Trackpoint>
            <Time>2019-08-01T11:07:19.000Z</Time>
            <Position>
              <LatitudeDegrees>40.64822391606867313385009765625</LatitudeDegrees>
              <LongitudeDegrees>-4.00720392353832721710205078125</LongitudeDegrees>
            </Position>
            <AltitudeMeters>882.20001220703125</AltitudeMeters>
            <DistanceMeters>NAN</DistanceMeters>
          </Trackpoint>
          <Trackpoint>
            <Time>2019-08-01T11:07:20.000Z</Time>
            <Position>
              <LatitudeDegrees>40.64831293188035488128662109375</LatitudeDegrees>
              <LongitudeDegrees>-4.0072328411042690277099609375</LongitudeDegrees>
            </Position>
            <AltitudeMeters>882</AltitudeMeters>
            <DistanceMeters>NAN</DistanceMeters>
          </Trackpoint>
          <Trackpoint>
            <Time>2019-08-01T11:07:21.000Z</Time>
            <Position>
              <LatitudeDegrees>40.6484015285968780517578125</LatitudeDegrees>
              <LongitudeDegrees>-4.00726276449859142303466796875</LongitudeDegrees>
            </Position>
            <AltitudeMeters>882</AltitudeMeters>
            <DistanceMeters>NAN</DistanceMeters>
          </Trackpoint>
          <Trackpoint>
            <Time>2019-08-01T11:07:22.000Z</Time>
            <Position>
              <LatitudeDegrees>40.648489706218242645263671875</LatitudeDegrees>
              <LongitudeDegrees>-4.00729310698807239532470703125</LongitudeDegrees>
            </Position>
            <AltitudeMeters>882</AltitudeMeters>
            <DistanceMeters>NAN</DistanceMeters>
          </Trackpoint>
          <Trackpoint>
            <Time>2019-08-01T11:07:23.000Z</Time>
            <Position>
              <LatitudeDegrees>40.64857830293476581573486328125</LatitudeDegrees>
              <LongitudeDegrees>-4.00732286274433135986328125</LongitudeDegrees>
            </Position>
            <AltitudeMeters>882</AltitudeMeters>
            <DistanceMeters>NAN</DistanceMeters>
          </Trackpoint>
          <Trackpoint>
            <Time>2019-08-01T11:07:24.000Z</Time>
            <Position>
              <LatitudeDegrees>40.64857830293476581573486328125</LatitudeDegrees>
              <LongitudeDegrees>-4.00732286274433135986328125</LongitudeDegrees>
            </Position>
            <AltitudeMeters>882</AltitudeMeters>
            <DistanceMeters>NAN</DistanceMeters>
          </Trackpoint>
          <Trackpoint>
            <Time>2019-08-01T11:07:25.000Z</Time>
            <Position>
              <LatitudeDegrees>40.64875314943492412567138671875</LatitudeDegrees>
              <LongitudeDegrees>-4.00738128460943698883056640625</LongitudeDegrees>
            </Position>
            <AltitudeMeters>881.79998779296875</AltitudeMeters>
            <DistanceMeters>NAN</DistanceMeters>
          </Trackpoint>
          <Trackpoint>
            <Time>2019-08-01T11:07:26.000Z</Time>
            <Position>
              <LatitudeDegrees>40.64883814193308353424072265625</LatitudeDegrees>
              <LongitudeDegrees>-4.00740995071828365325927734375</LongitudeDegrees>
            </Position>
            <AltitudeMeters>881.79998779296875</AltitudeMeters>
            <DistanceMeters>NAN</DistanceMeters>
          </Trackpoint>
          <Trackpoint>
            <Time>2019-08-01T11:07:27.000Z</Time>
            <Position>
              <LatitudeDegrees>40.6489227153360843658447265625</LatitudeDegrees>
              <LongitudeDegrees>-4.00743962265551090240478515625</LongitudeDegrees>
            </Position>
            <AltitudeMeters>881.79998779296875</AltitudeMeters>
            <DistanceMeters>NAN</DistanceMeters>
          </Trackpoint>
          <Trackpoint>
            <Time>2019-08-01T11:07:28.000Z</Time>
            <Position>
              <LatitudeDegrees>40.64901013858616352081298828125</LatitudeDegrees>
              <LongitudeDegrees>-4.0074682049453258514404296875</LongitudeDegrees>
            </Position>
            <AltitudeMeters>881.79998779296875</AltitudeMeters>
            <DistanceMeters>NAN</DistanceMeters>
          </Trackpoint>
          <Trackpoint>
            <Time>2019-08-01T11:07:29.000Z</Time>
            <Position>
              <LatitudeDegrees>40.64909881912171840667724609375</LatitudeDegrees>
              <LongitudeDegrees>-4.00749611668288707733154296875</LongitudeDegrees>
            </Position>
            <AltitudeMeters>881.79998779296875</AltitudeMeters>
            <DistanceMeters>NAN</DistanceMeters>
          </Trackpoint>
          <Trackpoint>
            <Time>2019-08-01T11:07:30.000Z</Time>
            <Position>
              <LatitudeDegrees>40.64918431453406810760498046875</LatitudeDegrees>
              <LongitudeDegrees>-4.00752511806786060333251953125</LongitudeDegrees>
            </Position>
            <AltitudeMeters>881.79998779296875</AltitudeMeters>
            <DistanceMeters>NAN</DistanceMeters>
          </Trackpoint>
          <Trackpoint>
            <Time>2019-08-01T11:07:31.000Z</Time>
            <Position>
              <LatitudeDegrees>40.6492667086422443389892578125</LatitudeDegrees>
              <LongitudeDegrees>-4.0075530298054218292236328125</LongitudeDegrees>
            </Position>
            <AltitudeMeters>881.79998779296875</AltitudeMeters>
            <DistanceMeters>NAN</DistanceMeters>
          </Trackpoint>
          <Trackpoint>
            <Time>2019-08-01T11:07:32.000Z</Time>
            <Position>
              <LatitudeDegrees>40.64934792928397655487060546875</LatitudeDegrees>
              <LongitudeDegrees>-4.00758077390491962432861328125</LongitudeDegrees>
            </Position>
            <AltitudeMeters>881.79998779296875</AltitudeMeters>
            <DistanceMeters>NAN</DistanceMeters>
          </Trackpoint>
          <Trackpoint>
            <Time>2019-08-01T11:07:33.000Z</Time>
            <Position>
              <LatitudeDegrees>40.6494286470115184783935546875</LatitudeDegrees>
              <LongitudeDegrees>-4.00760910473763942718505859375</LongitudeDegrees>
            </Position>
            <AltitudeMeters>881.79998779296875</AltitudeMeters>
            <DistanceMeters>NAN</DistanceMeters>
          </Trackpoint>
          <Trackpoint>
            <Time>2019-08-01T11:07:34.000Z</Time>
            <Position>
              <LatitudeDegrees>40.64950953237712383270263671875</LatitudeDegrees>
              <LongitudeDegrees>-4.00763710029423236846923828125</LongitudeDegrees>
            </Position>
            <AltitudeMeters>881.79998779296875</AltitudeMeters>
            <DistanceMeters>NAN</DistanceMeters>
          </Trackpoint>
          <Trackpoint>
            <Time>2019-08-01T11:07:35.000Z</Time>
            <Position>
              <LatitudeDegrees>40.64958966337144374847412109375</LatitudeDegrees>
              <LongitudeDegrees>-4.00766442529857158660888671875</LongitudeDegrees>
            </Position>
            <AltitudeMeters>882</AltitudeMeters>
            <DistanceMeters>NAN</DistanceMeters>
          </Trackpoint>
          <Trackpoint>
            <Time>2019-08-01T11:07:36.000Z</Time>
            <Position>
              <LatitudeDegrees>40.64966912381350994110107421875</LatitudeDegrees>
              <LongitudeDegrees>-4.00769242085516452789306640625</LongitudeDegrees>
            </Position>
            <AltitudeMeters>882</AltitudeMeters>
            <DistanceMeters>NAN</DistanceMeters>
          </Trackpoint>
          <Trackpoint>
            <Time>2019-08-01T11:07:37.000Z</Time>
            <Position>
              <LatitudeDegrees>40.649749003350734710693359375</LatitudeDegrees>
              <LongitudeDegrees>-4.00772024877369403839111328125</LongitudeDegrees>
            </Position>
            <AltitudeMeters>882</AltitudeMeters>
            <DistanceMeters>NAN</DistanceMeters>
          </Trackpoint>
          <Trackpoint>
            <Time>2019-08-01T11:07:38.000Z</Time>
            <Position>
              <LatitudeDegrees>40.649828128516674041748046875</LatitudeDegrees>
              <LongitudeDegrees>-4.0077481605112552642822265625</LongitudeDegrees>
            </Position>
            <AltitudeMeters>882.20001220703125</AltitudeMeters>
            <DistanceMeters>NAN</DistanceMeters>
          </Trackpoint>
          <Trackpoint>
            <Time>2019-08-01T11:07:39.000Z</Time>
            <Position>
              <LatitudeDegrees>40.64990733750164508819580078125</LatitudeDegrees>
              <LongitudeDegrees>-4.00777481496334075927734375</LongitudeDegrees>
            </Position>
            <AltitudeMeters>882.20001220703125</AltitudeMeters>
            <DistanceMeters>NAN</DistanceMeters>
          </Trackpoint>
          <Trackpoint>
            <Time>2019-08-01T11:07:40.000Z</Time>
            <Position>
              <LatitudeDegrees>40.6499865464866161346435546875</LatitudeDegrees>
              <LongitudeDegrees>-4.00780121795833110809326171875</LongitudeDegrees>
            </Position>
            <AltitudeMeters>882.4000244140625</AltitudeMeters>
            <DistanceMeters>NAN</DistanceMeters>
          </Trackpoint>
          <Trackpoint>
            <Time>2019-08-01T11:07:41.000Z</Time>
            <Position>
              <LatitudeDegrees>40.65006592310965061187744140625</LatitudeDegrees>
              <LongitudeDegrees>-4.00782787241041660308837890625</LongitudeDegrees>
            </Position>
            <AltitudeMeters>882.4000244140625</AltitudeMeters>
            <DistanceMeters>NAN</DistanceMeters>
          </Trackpoint>
          <Trackpoint>
            <Time>2019-08-01T11:07:42.000Z</Time>
            <Position>
              <LatitudeDegrees>40.6501444615423679351806640625</LatitudeDegrees>
              <LongitudeDegrees>-4.00785402394831180572509765625</LongitudeDegrees>
            </Position>
            <AltitudeMeters>882.5999755859375</AltitudeMeters>
            <DistanceMeters>NAN</DistanceMeters>
          </Trackpoint>
          <Trackpoint>
            <Time>2019-08-01T11:07:43.000Z</Time>
            <Position>
              <LatitudeDegrees>40.65022165887057781219482421875</LatitudeDegrees>
              <LongitudeDegrees>-4.00788051076233386993408203125</LongitudeDegrees>
            </Position>
            <AltitudeMeters>882.79998779296875</AltitudeMeters>
            <DistanceMeters>NAN</DistanceMeters>
          </Trackpoint>
          <Trackpoint>
            <Time>2019-08-01T11:07:44.000Z</Time>
            <Position>
              <LatitudeDegrees>40.650299526751041412353515625</LatitudeDegrees>
              <LongitudeDegrees>-4.0079074166715145111083984375</LongitudeDegrees>
            </Position>
            <AltitudeMeters>882.79998779296875</AltitudeMeters>
            <DistanceMeters>NAN</DistanceMeters>
          </Trackpoint>
          <Trackpoint>
            <Time>2019-08-01T11:07:45.000Z</Time>
            <Position>
              <LatitudeDegrees>40.6503774784505367279052734375</LatitudeDegrees>
              <LongitudeDegrees>-4.00793172419071197509765625</LongitudeDegrees>
            </Position>
            <AltitudeMeters>883</AltitudeMeters>
            <DistanceMeters>NAN</DistanceMeters>
          </Trackpoint>
          <Trackpoint>
            <Time>2019-08-01T11:07:46.000Z</Time>
            <Position>
              <LatitudeDegrees>40.65045434050261974334716796875</LatitudeDegrees>
              <LongitudeDegrees>-4.00795410387217998504638671875</LongitudeDegrees>
            </Position>
            <AltitudeMeters>883.20001220703125</AltitudeMeters>
            <DistanceMeters>NAN</DistanceMeters>
          </Trackpoint>
          <Trackpoint>
            <Time>2019-08-01T11:07:47.000Z</Time>
            <Position>
              <LatitudeDegrees>40.65053028054535388946533203125</LatitudeDegrees>
              <LongitudeDegrees>-4.00797623209655284881591796875</LongitudeDegrees>
            </Position>
            <AltitudeMeters>883.20001220703125</AltitudeMeters>
            <DistanceMeters>NAN</DistanceMeters>
          </Trackpoint>
          <Trackpoint>
            <Time>2019-08-01T11:07:48.000Z</Time>
            <Position>
              <LatitudeDegrees>40.65060420893132686614990234375</LatitudeDegrees>
              <LongitudeDegrees>-4.007997773587703704833984375</LongitudeDegrees>
            </Position>
            <AltitudeMeters>883.20001220703125</AltitudeMeters>
            <DistanceMeters>NAN</DistanceMeters>
          </Trackpoint>
          <Trackpoint>
            <Time>2019-08-01T11:07:49.000Z</Time>
            <Position>
              <LatitudeDegrees>40.65067629329860210418701171875</LatitudeDegrees>
              <LongitudeDegrees>-4.008016884326934814453125</LongitudeDegrees>
            </Position>
            <AltitudeMeters>883.4000244140625</AltitudeMeters>
            <DistanceMeters>NAN</DistanceMeters>
          </Trackpoint>
          <Trackpoint>
            <Time>2019-08-01T11:07:50.000Z</Time>
            <Position>
              <LatitudeDegrees>40.6507469527423381805419921875</LatitudeDegrees>
              <LongitudeDegrees>-4.0080316364765167236328125</LongitudeDegrees>
            </Position>
            <AltitudeMeters>883.5999755859375</AltitudeMeters>
            <DistanceMeters>NAN</DistanceMeters>
          </Trackpoint>
          <Trackpoint>
            <Time>2019-08-01T11:07:51.000Z</Time>
            <Position>
              <LatitudeDegrees>40.650815851986408233642578125</LatitudeDegrees>
              <LongitudeDegrees>-4.00803909637033939361572265625</LongitudeDegrees>
            </Position>
            <AltitudeMeters>883.79998779296875</AltitudeMeters>
            <DistanceMeters>NAN</DistanceMeters>
          </Trackpoint>
          <Trackpoint>
            <Time>2019-08-01T11:07:52.000Z</Time>
            <Position>
              <LatitudeDegrees>40.650881566107273101806640625</LatitudeDegrees>
              <LongitudeDegrees>-4.00803725235164165496826171875</LongitudeDegrees>
            </Position>
            <AltitudeMeters>883.79998779296875</AltitudeMeters>
            <DistanceMeters>NAN</DistanceMeters>
          </Trackpoint>
          <Trackpoint>
            <Time>2019-08-01T11:07:53.000Z</Time>
            <Position>
              <LatitudeDegrees>40.65094853751361370086669921875</LatitudeDegrees>
              <LongitudeDegrees>-4.00803096592426300048828125</LongitudeDegrees>
            </Position>
            <AltitudeMeters>884</AltitudeMeters>
            <DistanceMeters>NAN</DistanceMeters>
          </Trackpoint>
          <Trackpoint>
            <Time>2019-08-01T11:07:54.000Z</Time>
            <Position>
              <LatitudeDegrees>40.6510128267109394073486328125</LatitudeDegrees>
              <LongitudeDegrees>-4.00801529176533222198486328125</LongitudeDegrees>
            </Position>
            <AltitudeMeters>884.20001220703125</AltitudeMeters>
            <DistanceMeters>NAN</DistanceMeters>
          </Trackpoint>
          <Trackpoint>
            <Time>2019-08-01T11:07:55.000Z</Time>
            <Position>
              <LatitudeDegrees>40.6510128267109394073486328125</LatitudeDegrees>
              <LongitudeDegrees>-4.00801529176533222198486328125</LongitudeDegrees>
            </Position>
            <AltitudeMeters>884.4000244140625</AltitudeMeters>
            <DistanceMeters>NAN</DistanceMeters>
          </Trackpoint>
          <Trackpoint>
            <Time>2019-08-01T11:07:56.000Z</Time>
            <Position>
              <LatitudeDegrees>40.65113964490592479705810546875</LatitudeDegrees>
              <LongitudeDegrees>-4.0079587139189243316650390625</LongitudeDegrees>
            </Position>
            <AltitudeMeters>884.5999755859375</AltitudeMeters>
            <DistanceMeters>NAN</DistanceMeters>
          </Trackpoint>
          <Trackpoint>
            <Time>2019-08-01T11:07:57.000Z</Time>
            <Position>
              <LatitudeDegrees>40.65120284445583820343017578125</LatitudeDegrees>
              <LongitudeDegrees>-4.0079305507242679595947265625</LongitudeDegrees>
            </Position>
            <AltitudeMeters>884.79998779296875</AltitudeMeters>
            <DistanceMeters>NAN</DistanceMeters>
          </Trackpoint>
          <Trackpoint>
            <Time>2019-08-01T11:07:58.000Z</Time>
            <Position>
              <LatitudeDegrees>40.6512673012912273406982421875</LatitudeDegrees>
              <LongitudeDegrees>-4.00791118852794170379638671875</LongitudeDegrees>
            </Position>
            <AltitudeMeters>885</AltitudeMeters>
            <DistanceMeters>NAN</DistanceMeters>
          </Trackpoint>
          <Trackpoint>
            <Time>2019-08-01T11:08:00.000Z</Time>
            <Position>
              <LatitudeDegrees>40.65139948390424251556396484375</LatitudeDegrees>
              <LongitudeDegrees>-4.00791051797568798065185546875</LongitudeDegrees>
            </Position>
            <AltitudeMeters>885.4000244140625</AltitudeMeters>
            <DistanceMeters>NAN</DistanceMeters>
          </Trackpoint>
          <Trackpoint>
            <Time>2019-08-01T11:08:01.000Z</Time>
            <Position>
              <LatitudeDegrees>40.65146083943545818328857421875</LatitudeDegrees>
              <LongitudeDegrees>-4.00793365202844142913818359375</LongitudeDegrees>
            </Position>
            <AltitudeMeters>885.4000244140625</AltitudeMeters>
            <DistanceMeters>NAN</DistanceMeters>
          </Trackpoint>
          <Trackpoint>
            <Time>2019-08-01T11:08:02.000Z</Time>
            <Position>
              <LatitudeDegrees>40.6515180878341197967529296875</LatitudeDegrees>
              <LongitudeDegrees>-4.00797053240239620208740234375</LongitudeDegrees>
            </Position>
            <AltitudeMeters>886</AltitudeMeters>
            <DistanceMeters>NAN</DistanceMeters>
          </Trackpoint>
          <Trackpoint>
            <Time>2019-08-01T11:08:03.000Z</Time>
            <Position>
              <LatitudeDegrees>40.6515718996524810791015625</LatitudeDegrees>
              <LongitudeDegrees>-4.0080170519649982452392578125</LongitudeDegrees>
            </Position>
            <AltitudeMeters>886.20001220703125</AltitudeMeters>
            <DistanceMeters>NAN</DistanceMeters>
          </Trackpoint>
          <Trackpoint>
            <Time>2019-08-01T11:08:04.000Z</Time>
            <Position>
              <LatitudeDegrees>40.651621855795383453369140625</LatitudeDegrees>
              <LongitudeDegrees>-4.00806943885982036590576171875</LongitudeDegrees>
            </Position>
            <AltitudeMeters>886.4000244140625</AltitudeMeters>
            <DistanceMeters>NAN</DistanceMeters>
          </Trackpoint>
          <Trackpoint>
            <Time>2019-08-01T11:08:05.000Z</Time>
            <Position>
              <LatitudeDegrees>40.651676841080188751220703125</LatitudeDegrees>
              <LongitudeDegrees>-4.0081320516765117645263671875</LongitudeDegrees>
            </Position>
            <AltitudeMeters>886.5999755859375</AltitudeMeters>
            <DistanceMeters>NAN</DistanceMeters>
          </Trackpoint>
          <Trackpoint>
            <Time>2019-08-01T11:08:06.000Z</Time>
            <Position>
              <LatitudeDegrees>40.65172302536666393280029296875</LatitudeDegrees>
              <LongitudeDegrees>-4.00819198228418827056884765625</LongitudeDegrees>
            </Position>
            <AltitudeMeters>886.79998779296875</AltitudeMeters>
            <DistanceMeters>NAN</DistanceMeters>
          </Trackpoint>
          <Trackpoint>
            <Time>2019-08-01T11:08:07.000Z</Time>
            <Position>
              <LatitudeDegrees>40.65177373588085174560546875</LatitudeDegrees>
              <LongitudeDegrees>-4.00824763812124729156494140625</LongitudeDegrees>
            </Position>
            <AltitudeMeters>887</AltitudeMeters>
            <DistanceMeters>NAN</DistanceMeters>
          </Trackpoint>
          <Trackpoint>
            <Time>2019-08-01T11:08:08.000Z</Time>
            <Position>
              <LatitudeDegrees>40.6518278829753398895263671875</LatitudeDegrees>
              <LongitudeDegrees>-4.00829524733126163482666015625</LongitudeDegrees>
            </Position>
            <AltitudeMeters>887.4000244140625</AltitudeMeters>
            <DistanceMeters>NAN</DistanceMeters>
          </Trackpoint>
          <Trackpoint>
            <Time>2019-08-01T11:08:09.000Z</Time>
            <Position>
              <LatitudeDegrees>40.65188504755496978759765625</LatitudeDegrees>
              <LongitudeDegrees>-4.0083293616771697998046875</LongitudeDegrees>
            </Position>
            <AltitudeMeters>887.5999755859375</AltitudeMeters>
            <DistanceMeters>NAN</DistanceMeters>
          </Trackpoint>
          <Trackpoint>
            <Time>2019-08-01T11:08:10.000Z</Time>
            <Position>
              <LatitudeDegrees>40.65194430761039257049560546875</LatitudeDegrees>
              <LongitudeDegrees>-4.008349478244781494140625</LongitudeDegrees>
            </Position>
            <AltitudeMeters>887.79998779296875</AltitudeMeters>
            <DistanceMeters>NAN</DistanceMeters>
          </Trackpoint>
          <Trackpoint>
            <Time>2019-08-01T11:08:11.000Z</Time>
            <Position>
              <LatitudeDegrees>40.6520018912851810455322265625</LatitudeDegrees>
              <LongitudeDegrees>-4.008357189595699310302734375</LongitudeDegrees>
            </Position>
            <AltitudeMeters>888.20001220703125</AltitudeMeters>
            <DistanceMeters>NAN</DistanceMeters>
          </Trackpoint>
          <Trackpoint>
            <Time>2019-08-01T11:08:12.000Z</Time>
            <Position>
              <LatitudeDegrees>40.6520582176744937896728515625</LatitudeDegrees>
              <LongitudeDegrees>-4.00836179964244365692138671875</LongitudeDegrees>
            </Position>
            <AltitudeMeters>888.20001220703125</AltitudeMeters>
            <DistanceMeters>NAN</DistanceMeters>
          </Trackpoint>
          <Trackpoint>
            <Time>2019-08-01T11:08:13.000Z</Time>
            <Position>
              <LatitudeDegrees>40.65211429260671138763427734375</LatitudeDegrees>
              <LongitudeDegrees>-4.008367247879505157470703125</LongitudeDegrees>
            </Position>
            <AltitudeMeters>888.4000244140625</AltitudeMeters>
            <DistanceMeters>NAN</DistanceMeters>
          </Trackpoint>
          <Trackpoint>
            <Time>2019-08-01T11:08:14.000Z</Time>
            <Position>
              <LatitudeDegrees>40.6521705351769924163818359375</LatitudeDegrees>
              <LongitudeDegrees>-4.0083704330027103424072265625</LongitudeDegrees>
            </Position>
            <AltitudeMeters>888.4000244140625</AltitudeMeters>
            <DistanceMeters>NAN</DistanceMeters>
          </Trackpoint>
          <Trackpoint>
            <Time>2019-08-01T11:08:15.000Z</Time>
            <Position>
              <LatitudeDegrees>40.65222694538533687591552734375</LatitudeDegrees>
              <LongitudeDegrees>-4.00837286375463008880615234375</LongitudeDegrees>
            </Position>
            <AltitudeMeters>888.4000244140625</AltitudeMeters>
            <DistanceMeters>NAN</DistanceMeters>
          </Trackpoint>
          <Trackpoint>
            <Time>2019-08-01T11:08:16.000Z</Time>
            <Position>
              <LatitudeDegrees>40.65228293649852275848388671875</LatitudeDegrees>
              <LongitudeDegrees>-4.00837638415396213531494140625</LongitudeDegrees>
            </Position>
            <AltitudeMeters>888.5999755859375</AltitudeMeters>
            <DistanceMeters>NAN</DistanceMeters>
          </Trackpoint>
          <Trackpoint>
            <Time>2019-08-01T11:08:17.000Z</Time>
            <Position>
              <LatitudeDegrees>40.6523385085165500640869140625</LatitudeDegrees>
              <LongitudeDegrees>-4.00838107801973819732666015625</LongitudeDegrees>
            </Position>
            <AltitudeMeters>888.5999755859375</AltitudeMeters>
            <DistanceMeters>NAN</DistanceMeters>
          </Trackpoint>
          <Trackpoint>
            <Time>2019-08-01T11:08:18.000Z</Time>
            <Position>
              <LatitudeDegrees>40.65239324234426021575927734375</LatitudeDegrees>
              <LongitudeDegrees>-4.00838543660938739776611328125</LongitudeDegrees>
            </Position>
            <AltitudeMeters>888.5999755859375</AltitudeMeters>
            <DistanceMeters>NAN</DistanceMeters>
          </Trackpoint>
          <Trackpoint>
            <Time>2019-08-01T11:08:19.000Z</Time>
            <Position>
              <LatitudeDegrees>40.65244889818131923675537109375</LatitudeDegrees>
              <LongitudeDegrees>-4.00839113630354404449462890625</LongitudeDegrees>
            </Position>
            <AltitudeMeters>888.79998779296875</AltitudeMeters>
            <DistanceMeters>NAN</DistanceMeters>
          </Trackpoint>
          <Trackpoint>
            <Time>2019-08-01T11:08:20.000Z</Time>
            <Position>
              <LatitudeDegrees>40.652503632009029388427734375</LatitudeDegrees>
              <LongitudeDegrees>-4.0083959139883518218994140625</LongitudeDegrees>
            </Position>
            <AltitudeMeters>889</AltitudeMeters>
            <DistanceMeters>NAN</DistanceMeters>
          </Trackpoint>
          <Trackpoint>
            <Time>2019-08-01T11:08:21.000Z</Time>
            <Position>
              <LatitudeDegrees>40.65255752764642238616943359375</LatitudeDegrees>
              <LongitudeDegrees>-4.00839800946414470672607421875</LongitudeDegrees>
            </Position>
            <AltitudeMeters>889.20001220703125</AltitudeMeters>
            <DistanceMeters>NAN</DistanceMeters>
          </Trackpoint>
          <Trackpoint>
            <Time>2019-08-01T11:08:22.000Z</Time>
            <Position>
              <LatitudeDegrees>40.65261083655059337615966796875</LatitudeDegrees>
              <LongitudeDegrees>-4.00839574635028839111328125</LongitudeDegrees>
            </Position>
            <AltitudeMeters>889.4000244140625</AltitudeMeters>
            <DistanceMeters>NAN</DistanceMeters>
          </Trackpoint>
          <Trackpoint>
            <Time>2019-08-01T11:08:23.000Z</Time>
            <Position>
              <LatitudeDegrees>40.65266481600701808929443359375</LatitudeDegrees>
              <LongitudeDegrees>-4.00838945992290973663330078125</LongitudeDegrees>
            </Position>
            <AltitudeMeters>889.5999755859375</AltitudeMeters>
            <DistanceMeters>NAN</DistanceMeters>
          </Trackpoint>
          <Trackpoint>
            <Time>2019-08-01T11:08:24.000Z</Time>
            <Position>
              <LatitudeDegrees>40.6527197174727916717529296875</LatitudeDegrees>
              <LongitudeDegrees>-4.0083851851522922515869140625</LongitudeDegrees>
            </Position>
            <AltitudeMeters>889.79998779296875</AltitudeMeters>
            <DistanceMeters>NAN</DistanceMeters>
          </Trackpoint>
          <Trackpoint>
            <Time>2019-08-01T11:08:25.000Z</Time>
            <Position>
              <LatitudeDegrees>40.65277478657662868499755859375</LatitudeDegrees>
              <LongitudeDegrees>-4.0083858557045459747314453125</LongitudeDegrees>
            </Position>
            <AltitudeMeters>890.20001220703125</AltitudeMeters>
            <DistanceMeters>NAN</DistanceMeters>
          </Trackpoint>
          <Trackpoint>
            <Time>2019-08-01T11:08:26.000Z</Time>
            <Position>
              <LatitudeDegrees>40.6528303585946559906005859375</LatitudeDegrees>
              <LongitudeDegrees>-4.0083908848464488983154296875</LongitudeDegrees>
            </Position>
            <AltitudeMeters>890.4000244140625</AltitudeMeters>
            <DistanceMeters>NAN</DistanceMeters>
          </Trackpoint>
          <Trackpoint>
            <Time>2019-08-01T11:08:27.000Z</Time>
            <Position>
              <LatitudeDegrees>40.6528840027749538421630859375</LatitudeDegrees>
              <LongitudeDegrees>-4.00839583016932010650634765625</LongitudeDegrees>
            </Position>
            <AltitudeMeters>890.5999755859375</AltitudeMeters>
            <DistanceMeters>NAN</DistanceMeters>
          </Trackpoint>
          <Trackpoint>
            <Time>2019-08-01T11:08:28.000Z</Time>
            <Position>
              <LatitudeDegrees>40.65293622203171253204345703125</LatitudeDegrees>
              <LongitudeDegrees>-4.00840253569185733795166015625</LongitudeDegrees>
            </Position>
            <AltitudeMeters>890.79998779296875</AltitudeMeters>
            <DistanceMeters>NAN</DistanceMeters>
          </Trackpoint>
          <Trackpoint>
            <Time>2019-08-01T11:08:29.000Z</Time>
            <Position>
              <LatitudeDegrees>40.65298869274556636810302734375</LatitudeDegrees>
              <LongitudeDegrees>-4.0084116719663143157958984375</LongitudeDegrees>
            </Position>
            <AltitudeMeters>891</AltitudeMeters>
            <DistanceMeters>NAN</DistanceMeters>
          </Trackpoint>
          <Trackpoint>
            <Time>2019-08-01T11:08:30.000Z</Time>
            <Position>
              <LatitudeDegrees>40.65304082818329334259033203125</LatitudeDegrees>
              <LongitudeDegrees>-4.00842248462140560150146484375</LongitudeDegrees>
            </Position>
            <AltitudeMeters>891.4000244140625</AltitudeMeters>
            <DistanceMeters>NAN</DistanceMeters>
          </Trackpoint>
          <Trackpoint>
            <Time>2019-08-01T11:08:31.000Z</Time>
            <Position>
              <LatitudeDegrees>40.6530927121639251708984375</LatitudeDegrees>
              <LongitudeDegrees>-4.0084368176758289337158203125</LongitudeDegrees>
            </Position>
            <AltitudeMeters>891.5999755859375</AltitudeMeters>
            <DistanceMeters>NAN</DistanceMeters>
          </Trackpoint>
          <Trackpoint>
            <Time>2019-08-01T11:08:32.000Z</Time>
            <Position>
              <LatitudeDegrees>40.65314375795423984527587890625</LatitudeDegrees>
              <LongitudeDegrees>-4.00845475494861602783203125</LongitudeDegrees>
            </Position>
            <AltitudeMeters>891.5999755859375</AltitudeMeters>
            <DistanceMeters>NAN</DistanceMeters>
          </Trackpoint>
          <Trackpoint>
            <Time>2019-08-01T11:08:33.000Z</Time>
            <Position>
              <LatitudeDegrees>40.65319455228745937347412109375</LatitudeDegrees>
              <LongitudeDegrees>-4.00846975855529308319091796875</LongitudeDegrees>
            </Position>
            <AltitudeMeters>891.79998779296875</AltitudeMeters>
            <DistanceMeters>NAN</DistanceMeters>
          </Trackpoint>
          <Trackpoint>
            <Time>2019-08-01T11:08:34.000Z</Time>
            <Position>
              <LatitudeDegrees>40.653245933353900909423828125</LatitudeDegrees>
              <LongitudeDegrees>-4.00848316960036754608154296875</LongitudeDegrees>
            </Position>
            <AltitudeMeters>892</AltitudeMeters>
            <DistanceMeters>NAN</DistanceMeters>
          </Trackpoint>
          <Trackpoint>
            <Time>2019-08-01T11:08:35.000Z</Time>
            <Position>
              <LatitudeDegrees>40.6532970629632472991943359375</LatitudeDegrees>
              <LongitudeDegrees>-4.00849892757833003997802734375</LongitudeDegrees>
            </Position>
            <AltitudeMeters>892.20001220703125</AltitudeMeters>
            <DistanceMeters>NAN</DistanceMeters>
          </Trackpoint>
          <Trackpoint>
            <Time>2019-08-01T11:08:36.000Z</Time>
            <Position>
              <LatitudeDegrees>40.65334743820130825042724609375</LatitudeDegrees>
              <LongitudeDegrees>-4.00851619429886341094970703125</LongitudeDegrees>
            </Position>
            <AltitudeMeters>892.4000244140625</AltitudeMeters>
            <DistanceMeters>NAN</DistanceMeters>
          </Trackpoint>
          <Trackpoint>
            <Time>2019-08-01T11:08:37.000Z</Time>
            <Position>
              <LatitudeDegrees>40.6533976458013057708740234375</LatitudeDegrees>
              <LongitudeDegrees>-4.00853564031422138214111328125</LongitudeDegrees>
            </Position>
            <AltitudeMeters>892.79998779296875</AltitudeMeters>
            <DistanceMeters>NAN</DistanceMeters>
          </Trackpoint>
          <Trackpoint>
            <Time>2019-08-01T11:08:38.000Z</Time>
            <Position>
              <LatitudeDegrees>40.6534481048583984375</LatitudeDegrees>
              <LongitudeDegrees>-4.0085581876337528228759765625</LongitudeDegrees>
            </Position>
            <AltitudeMeters>893.20001220703125</AltitudeMeters>
            <DistanceMeters>NAN</DistanceMeters>
          </Trackpoint>
          <Trackpoint>
            <Time>2019-08-01T11:08:39.000Z</Time>
            <Position>
              <LatitudeDegrees>40.6534982286393642425537109375</LatitudeDegrees>
              <LongitudeDegrees>-4.00858308188617229461669921875</LongitudeDegrees>
            </Position>
            <AltitudeMeters>893.5999755859375</AltitudeMeters>
            <DistanceMeters>NAN</DistanceMeters>
          </Trackpoint>
          <Trackpoint>
            <Time>2019-08-01T11:08:40.000Z</Time>
            <Position>
              <LatitudeDegrees>40.65354893915355205535888671875</LatitudeDegrees>
              <LongitudeDegrees>-4.0086081437766551971435546875</LongitudeDegrees>
            </Position>
            <AltitudeMeters>893.5999755859375</AltitudeMeters>
            <DistanceMeters>NAN</DistanceMeters>
          </Trackpoint>
          <Trackpoint>
            <Time>2019-08-01T11:08:41.000Z</Time>
            <Position>
              <LatitudeDegrees>40.6535996496677398681640625</LatitudeDegrees>
              <LongitudeDegrees>-4.00863169692456722259521484375</LongitudeDegrees>
            </Position>
            <AltitudeMeters>893.79998779296875</AltitudeMeters>
            <DistanceMeters>NAN</DistanceMeters>
          </Trackpoint>
          <Trackpoint>
            <Time>2019-08-01T11:08:42.000Z</Time>
            <Position>
              <LatitudeDegrees>40.65365002490580081939697265625</LatitudeDegrees>
              <LongitudeDegrees>-4.00865499861538410186767578125</LongitudeDegrees>
            </Position>
            <AltitudeMeters>894</AltitudeMeters>
            <DistanceMeters>NAN</DistanceMeters>
          </Trackpoint>
          <Trackpoint>
            <Time>2019-08-01T11:08:43.000Z</Time>
            <Position>
              <LatitudeDegrees>40.6537004001438617706298828125</LatitudeDegrees>
              <LongitudeDegrees>-4.00868131779134273529052734375</LongitudeDegrees>
            </Position>
            <AltitudeMeters>894</AltitudeMeters>
            <DistanceMeters>NAN</DistanceMeters>
          </Trackpoint>
          <Trackpoint>
            <Time>2019-08-01T11:08:44.000Z</Time>
            <Position>
              <LatitudeDegrees>40.6537513621151447296142578125</LatitudeDegrees>
              <LongitudeDegrees>-4.00870897807180881500244140625</LongitudeDegrees>
            </Position>
            <AltitudeMeters>894.20001220703125</AltitudeMeters>
            <DistanceMeters>NAN</DistanceMeters>
          </Trackpoint>
          <Trackpoint>
            <Time>2019-08-01T11:08:45.000Z</Time>
            <Position>
              <LatitudeDegrees>40.65380274318158626556396484375</LatitudeDegrees>
              <LongitudeDegrees>-4.00873747654259204864501953125</LongitudeDegrees>
            </Position>
            <AltitudeMeters>894.79998779296875</AltitudeMeters>
            <DistanceMeters>NAN</DistanceMeters>
          </Trackpoint>
          <Trackpoint>
            <Time>2019-08-01T11:08:46.000Z</Time>
            <Position>
              <LatitudeDegrees>40.6538544595241546630859375</LatitudeDegrees>
              <LongitudeDegrees>-4.00876731611788272857666015625</LongitudeDegrees>
            </Position>
            <AltitudeMeters>895</AltitudeMeters>
            <DistanceMeters>NAN</DistanceMeters>
          </Trackpoint>
          <Trackpoint>
            <Time>2019-08-01T11:08:47.000Z</Time>
            <Position>
              <LatitudeDegrees>40.65390584059059619903564453125</LatitudeDegrees>
              <LongitudeDegrees>-4.0087972395122051239013671875</LongitudeDegrees>
            </Position>
            <AltitudeMeters>895.20001220703125</AltitudeMeters>
            <DistanceMeters>NAN</DistanceMeters>
          </Trackpoint>
          <Trackpoint>
            <Time>2019-08-01T11:08:48.000Z</Time>
            <Position>
              <LatitudeDegrees>40.6539568863809108734130859375</LatitudeDegrees>
              <LongitudeDegrees>-4.00882716290652751922607421875</LongitudeDegrees>
            </Position>
            <AltitudeMeters>895.20001220703125</AltitudeMeters>
            <DistanceMeters>NAN</DistanceMeters>
          </Trackpoint>
          <Trackpoint>
            <Time>2019-08-01T11:08:49.000Z</Time>
            <Position>
              <LatitudeDegrees>40.65400843508541584014892578125</LatitudeDegrees>
              <LongitudeDegrees>-4.00885633192956447601318359375</LongitudeDegrees>
            </Position>
            <AltitudeMeters>895.4000244140625</AltitudeMeters>
            <DistanceMeters>NAN</DistanceMeters>
          </Trackpoint>
          <Trackpoint>
            <Time>2019-08-01T11:08:50.000Z</Time>
            <Position>
              <LatitudeDegrees>40.65406090579926967620849609375</LatitudeDegrees>
              <LongitudeDegrees>-4.008884914219379425048828125</LongitudeDegrees>
            </Position>
            <AltitudeMeters>895.5999755859375</AltitudeMeters>
            <DistanceMeters>NAN</DistanceMeters>
          </Trackpoint>
          <Trackpoint>
            <Time>2019-08-01T11:08:51.000Z</Time>
            <Position>
              <LatitudeDegrees>40.6541144661605358123779296875</LatitudeDegrees>
              <LongitudeDegrees>-4.00891433469951152801513671875</LongitudeDegrees>
            </Position>
            <AltitudeMeters>895.5999755859375</AltitudeMeters>
            <DistanceMeters>NAN</DistanceMeters>
          </Trackpoint>
          <Trackpoint>
            <Time>2019-08-01T11:08:52.000Z</Time>
            <Position>
              <LatitudeDegrees>40.65416903235018253326416015625</LatitudeDegrees>
              <LongitudeDegrees>-4.00894316844642162322998046875</LongitudeDegrees>
            </Position>
            <AltitudeMeters>895.5999755859375</AltitudeMeters>
            <DistanceMeters>NAN</DistanceMeters>
          </Trackpoint>
          <Trackpoint>
            <Time>2019-08-01T11:08:53.000Z</Time>
            <Position>
              <LatitudeDegrees>40.65422452054917812347412109375</LatitudeDegrees>
              <LongitudeDegrees>-4.0089712478220462799072265625</LongitudeDegrees>
            </Position>
            <AltitudeMeters>895.79998779296875</AltitudeMeters>
            <DistanceMeters>NAN</DistanceMeters>
          </Trackpoint>
          <Trackpoint>
            <Time>2019-08-01T11:08:54.000Z</Time>
            <Position>
              <LatitudeDegrees>40.65427984111011028289794921875</LatitudeDegrees>
              <LongitudeDegrees>-4.0089987404644489288330078125</LongitudeDegrees>
            </Position>
            <AltitudeMeters>895.79998779296875</AltitudeMeters>
            <DistanceMeters>NAN</DistanceMeters>
          </Trackpoint>
          <Trackpoint>
            <Time>2019-08-01T11:08:55.000Z</Time>
            <Position>
              <LatitudeDegrees>40.654336921870708465576171875</LatitudeDegrees>
              <LongitudeDegrees>-4.009027741849422454833984375</LongitudeDegrees>
            </Position>
            <AltitudeMeters>896</AltitudeMeters>
            <DistanceMeters>NAN</DistanceMeters>
          </Trackpoint>
          <Trackpoint>
            <Time>2019-08-01T11:08:57.000Z</Time>
            <Position>
              <LatitudeDegrees>40.65445016138255596160888671875</LatitudeDegrees>
              <LongitudeDegrees>-4.00907761417329311370849609375</LongitudeDegrees>
            </Position>
            <AltitudeMeters>896.5999755859375</AltitudeMeters>
            <DistanceMeters>NAN</DistanceMeters>
          </Trackpoint>
          <Trackpoint>
            <Time>2019-08-01T11:08:58.000Z</Time>
            <Position>
              <LatitudeDegrees>40.65450883470475673675537109375</LatitudeDegrees>
              <LongitudeDegrees>-4.0090956352651119232177734375</LongitudeDegrees>
            </Position>
            <AltitudeMeters>896.5999755859375</AltitudeMeters>
            <DistanceMeters>NAN</DistanceMeters>
          </Trackpoint>
          <Trackpoint>
            <Time>2019-08-01T11:08:59.000Z</Time>
            <Position>
              <LatitudeDegrees>40.65456834621727466583251953125</LatitudeDegrees>
              <LongitudeDegrees>-4.00911197997629642486572265625</LongitudeDegrees>
            </Position>
            <AltitudeMeters>896.79998779296875</AltitudeMeters>
            <DistanceMeters>NAN</DistanceMeters>
          </Trackpoint>
          <Trackpoint>
            <Time>2019-08-01T11:09:00.000Z</Time>
            <Position>
              <LatitudeDegrees>40.65462785772979259490966796875</LatitudeDegrees>
              <LongitudeDegrees>-4.00912773795425891876220703125</LongitudeDegrees>
            </Position>
            <AltitudeMeters>896.79998779296875</AltitudeMeters>
            <DistanceMeters>NAN</DistanceMeters>
          </Trackpoint>
          <Trackpoint>
            <Time>2019-08-01T11:09:01.000Z</Time>
            <Position>
              <LatitudeDegrees>40.6546884588897228240966796875</LatitudeDegrees>
              <LongitudeDegrees>-4.00914098136126995086669921875</LongitudeDegrees>
            </Position>
            <AltitudeMeters>897</AltitudeMeters>
            <DistanceMeters>NAN</DistanceMeters>
          </Trackpoint>
          <Trackpoint>
            <Time>2019-08-01T11:09:02.000Z</Time>
            <Position>
              <LatitudeDegrees>40.65475023351609706878662109375</LatitudeDegrees>
              <LongitudeDegrees>-4.00915305130183696746826171875</LongitudeDegrees>
            </Position>
            <AltitudeMeters>897.20001220703125</AltitudeMeters>
            <DistanceMeters>NAN</DistanceMeters>
          </Trackpoint>
          <Trackpoint>
            <Time>2019-08-01T11:09:03.000Z</Time>
            <Position>
              <LatitudeDegrees>40.65481242723762989044189453125</LatitudeDegrees>
              <LongitudeDegrees>-4.00916495360434055328369140625</LongitudeDegrees>
            </Position>
            <AltitudeMeters>897.4000244140625</AltitudeMeters>
            <DistanceMeters>NAN</DistanceMeters>
          </Trackpoint>
          <Trackpoint>
            <Time>2019-08-01T11:09:04.000Z</Time>
            <Position>
              <LatitudeDegrees>40.65487529151141643524169921875</LatitudeDegrees>
              <LongitudeDegrees>-4.00917551480233669281005859375</LongitudeDegrees>
            </Position>
            <AltitudeMeters>897.4000244140625</AltitudeMeters>
            <DistanceMeters>NAN</DistanceMeters>
          </Trackpoint>
          <Trackpoint>
            <Time>2019-08-01T11:09:05.000Z</Time>
            <Position>
              <LatitudeDegrees>40.65493782050907611846923828125</LatitudeDegrees>
              <LongitudeDegrees>-4.00918490253388881683349609375</LongitudeDegrees>
            </Position>
            <AltitudeMeters>897.5999755859375</AltitudeMeters>
            <DistanceMeters>NAN</DistanceMeters>
          </Trackpoint>
          <Trackpoint>
            <Time>2019-08-01T11:09:06.000Z</Time>
            <Position>
              <LatitudeDegrees>40.655000098049640655517578125</LatitudeDegrees>
              <LongitudeDegrees>-4.0091942064464092254638671875</LongitudeDegrees>
            </Position>
            <AltitudeMeters>897.5999755859375</AltitudeMeters>
            <DistanceMeters>NAN</DistanceMeters>
          </Trackpoint>
          <Trackpoint>
            <Time>2019-08-01T11:09:07.000Z</Time>
            <Position>
              <LatitudeDegrees>40.65506212413311004638671875</LatitudeDegrees>
              <LongitudeDegrees>-4.00920183397829532623291015625</LongitudeDegrees>
            </Position>
            <AltitudeMeters>897.5999755859375</AltitudeMeters>
            <DistanceMeters>NAN</DistanceMeters>
          </Trackpoint>
          <Trackpoint>
            <Time>2019-08-01T11:09:08.000Z</Time>
            <Position>
              <LatitudeDegrees>40.6551246531307697296142578125</LatitudeDegrees>
              <LongitudeDegrees>-4.00920870713889598846435546875</LongitudeDegrees>
            </Position>
            <AltitudeMeters>897.79998779296875</AltitudeMeters>
            <DistanceMeters>NAN</DistanceMeters>
          </Trackpoint>
          <Trackpoint>
            <Time>2019-08-01T11:09:09.000Z</Time>
            <Position>
              <LatitudeDegrees>40.655188858509063720703125</LatitudeDegrees>
              <LongitudeDegrees>-4.00921574793756008148193359375</LongitudeDegrees>
            </Position>
            <AltitudeMeters>897.79998779296875</AltitudeMeters>
            <DistanceMeters>NAN</DistanceMeters>
          </Trackpoint>
          <Trackpoint>
            <Time>2019-08-01T11:09:10.000Z</Time>
            <Position>
              <LatitudeDegrees>40.65525365062057971954345703125</LatitudeDegrees>
              <LongitudeDegrees>-4.00922412984073162078857421875</LongitudeDegrees>
            </Position>
            <AltitudeMeters>897.79998779296875</AltitudeMeters>
            <DistanceMeters>NAN</DistanceMeters>
          </Trackpoint>
          <Trackpoint>
            <Time>2019-08-01T11:09:11.000Z</Time>
            <Position>
              <LatitudeDegrees>40.65531936474144458770751953125</LatitudeDegrees>
              <LongitudeDegrees>-4.00923301465809345245361328125</LongitudeDegrees>
            </Position>
            <AltitudeMeters>898</AltitudeMeters>
            <DistanceMeters>NAN</DistanceMeters>
          </Trackpoint>
          <Trackpoint>
            <Time>2019-08-01T11:09:13.000Z</Time>
            <Position>
              <LatitudeDegrees>40.6554557383060455322265625</LatitudeDegrees>
              <LongitudeDegrees>-4.00925145484507083892822265625</LongitudeDegrees>
            </Position>
            <AltitudeMeters>898.20001220703125</AltitudeMeters>
            <DistanceMeters>NAN</DistanceMeters>
          </Trackpoint>
          <Trackpoint>
            <Time>2019-08-01T11:09:14.000Z</Time>
            <Position>
              <LatitudeDegrees>40.655524469912052154541015625</LatitudeDegrees>
              <LongitudeDegrees>-4.00926101021468639373779296875</LongitudeDegrees>
            </Position>
            <AltitudeMeters>898.20001220703125</AltitudeMeters>
            <DistanceMeters>NAN</DistanceMeters>
          </Trackpoint>
          <Trackpoint>
            <Time>2019-08-01T11:09:15.000Z</Time>
            <Position>
              <LatitudeDegrees>40.65559328533709049224853515625</LatitudeDegrees>
              <LongitudeDegrees>-4.00927014648914337158203125</LongitudeDegrees>
            </Position>
            <AltitudeMeters>898.4000244140625</AltitudeMeters>
            <DistanceMeters>NAN</DistanceMeters>
          </Trackpoint>
          <Trackpoint>
            <Time>2019-08-01T11:09:16.000Z</Time>
            <Position>
              <LatitudeDegrees>40.65566218458116054534912109375</LatitudeDegrees>
              <LongitudeDegrees>-4.009278528392314910888671875</LongitudeDegrees>
            </Position>
            <AltitudeMeters>898.4000244140625</AltitudeMeters>
            <DistanceMeters>NAN</DistanceMeters>
          </Trackpoint>
          <Trackpoint>
            <Time>2019-08-01T11:09:17.000Z</Time>
            <Position>
              <LatitudeDegrees>40.6557311676442623138427734375</LatitudeDegrees>
              <LongitudeDegrees>-4.00928682647645473480224609375</LongitudeDegrees>
            </Position>
            <AltitudeMeters>898.4000244140625</AltitudeMeters>
            <DistanceMeters>NAN</DistanceMeters>
          </Trackpoint>
          <Trackpoint>
            <Time>2019-08-01T11:09:18.000Z</Time>
            <Position>
              <LatitudeDegrees>40.65580031834542751312255859375</LatitudeDegrees>
              <LongitudeDegrees>-4.00929470546543598175048828125</LongitudeDegrees>
            </Position>
            <AltitudeMeters>898.5999755859375</AltitudeMeters>
            <DistanceMeters>NAN</DistanceMeters>
          </Trackpoint>
          <Trackpoint>
            <Time>2019-08-01T11:09:19.000Z</Time>
            <Position>
              <LatitudeDegrees>40.65587081015110015869140625</LatitudeDegrees>
              <LongitudeDegrees>-4.00930367410182952880859375</LongitudeDegrees>
            </Position>
            <AltitudeMeters>898.5999755859375</AltitudeMeters>
            <DistanceMeters>NAN</DistanceMeters>
          </Trackpoint>
          <Trackpoint>
            <Time>2019-08-01T11:09:20.000Z</Time>
            <Position>
              <LatitudeDegrees>40.655941553413867950439453125</LatitudeDegrees>
              <LongitudeDegrees>-4.0093125589191913604736328125</LongitudeDegrees>
            </Position>
            <AltitudeMeters>898.79998779296875</AltitudeMeters>
            <DistanceMeters>NAN</DistanceMeters>
          </Trackpoint>
          <Trackpoint>
            <Time>2019-08-01T11:09:22.000Z</Time>
            <Position>
              <LatitudeDegrees>40.6560879014432430267333984375</LatitudeDegrees>
              <LongitudeDegrees>-4.009330831468105316162109375</LongitudeDegrees>
            </Position>
            <AltitudeMeters>898.79998779296875</AltitudeMeters>
            <DistanceMeters>NAN</DistanceMeters>
          </Trackpoint>
          <Trackpoint>
            <Time>2019-08-01T11:09:23.000Z</Time>
            <Position>
              <LatitudeDegrees>40.65616174601018428802490234375</LatitudeDegrees>
              <LongitudeDegrees>-4.009340219199657440185546875</LongitudeDegrees>
            </Position>
            <AltitudeMeters>898.79998779296875</AltitudeMeters>
            <DistanceMeters>NAN</DistanceMeters>
          </Trackpoint>
          <Trackpoint>
            <Time>2019-08-01T11:09:24.000Z</Time>
            <Position>
              <LatitudeDegrees>40.65623533912003040313720703125</LatitudeDegrees>
              <LongitudeDegrees>-4.00934935547411441802978515625</LongitudeDegrees>
            </Position>
            <AltitudeMeters>898.79998779296875</AltitudeMeters>
            <DistanceMeters>NAN</DistanceMeters>
          </Trackpoint>
          <Trackpoint>
            <Time>2019-08-01T11:09:25.000Z</Time>
            <Position>
              <LatitudeDegrees>40.65630909986793994903564453125</LatitudeDegrees>
              <LongitudeDegrees>-4.00935941375792026519775390625</LongitudeDegrees>
            </Position>
            <AltitudeMeters>899</AltitudeMeters>
            <DistanceMeters>NAN</DistanceMeters>
          </Trackpoint>
          <Trackpoint>
            <Time>2019-08-01T11:09:26.000Z</Time>
            <Position>
              <LatitudeDegrees>40.65638252533972263336181640625</LatitudeDegrees>
              <LongitudeDegrees>-4.0093685500323772430419921875</LongitudeDegrees>
            </Position>
            <AltitudeMeters>899</AltitudeMeters>
            <DistanceMeters>NAN</DistanceMeters>
          </Trackpoint>
          <Trackpoint>
            <Time>2019-08-01T11:09:30.000Z</Time>
            <Position>
              <LatitudeDegrees>40.6566732935607433319091796875</LatitudeDegrees>
              <LongitudeDegrees>-4.00940358638763427734375</LongitudeDegrees>
            </Position>
            <AltitudeMeters>898.79998779296875</AltitudeMeters>
            <DistanceMeters>NAN</DistanceMeters>
          </Trackpoint>
          <Trackpoint>
            <Time>2019-08-01T11:09:32.000Z</Time>
            <Position>
              <LatitudeDegrees>40.65682056359946727752685546875</LatitudeDegrees>
              <LongitudeDegrees>-4.00942529551684856414794921875</LongitudeDegrees>
            </Position>
            <AltitudeMeters>898.79998779296875</AltitudeMeters>
            <DistanceMeters>NAN</DistanceMeters>
          </Trackpoint>
          <Trackpoint>
            <Time>2019-08-01T11:09:33.000Z</Time>
            <Position>
              <LatitudeDegrees>40.6568939052522182464599609375</LatitudeDegrees>
              <LongitudeDegrees>-4.00943619199097156524658203125</LongitudeDegrees>
            </Position>
            <AltitudeMeters>898.79998779296875</AltitudeMeters>
            <DistanceMeters>NAN</DistanceMeters>
          </Trackpoint>
          <Trackpoint>
            <Time>2019-08-01T11:09:34.000Z</Time>
            <Position>
              <LatitudeDegrees>40.65696707926690578460693359375</LatitudeDegrees>
              <LongitudeDegrees>-4.0094476751983165740966796875</LongitudeDegrees>
            </Position>
            <AltitudeMeters>898.79998779296875</AltitudeMeters>
            <DistanceMeters>NAN</DistanceMeters>
          </Trackpoint>
          <Trackpoint>
            <Time>2019-08-01T11:09:36.000Z</Time>
            <Position>
              <LatitudeDegrees>40.65711242146790027618408203125</LatitudeDegrees>
              <LongitudeDegrees>-4.0094785206019878387451171875</LongitudeDegrees>
            </Position>
            <AltitudeMeters>898.79998779296875</AltitudeMeters>
            <DistanceMeters>NAN</DistanceMeters>
          </Trackpoint>
          <Trackpoint>
            <Time>2019-08-01T11:09:37.000Z</Time>
            <Position>
              <LatitudeDegrees>40.65718484111130237579345703125</LatitudeDegrees>
              <LongitudeDegrees>-4.00949939154088497161865234375</LongitudeDegrees>
            </Position>
            <AltitudeMeters>899</AltitudeMeters>
            <DistanceMeters>NAN</DistanceMeters>
          </Trackpoint>
          <Trackpoint>
            <Time>2019-08-01T11:09:38.000Z</Time>
            <Position>
              <LatitudeDegrees>40.65725608728826045989990234375</LatitudeDegrees>
              <LongitudeDegrees>-4.0095217712223529815673828125</LongitudeDegrees>
            </Position>
            <AltitudeMeters>899</AltitudeMeters>
            <DistanceMeters>NAN</DistanceMeters>
          </Trackpoint>
          <Trackpoint>
            <Time>2019-08-01T11:09:39.000Z</Time>
            <Position>
              <LatitudeDegrees>40.6573277525603771209716796875</LatitudeDegrees>
              <LongitudeDegrees>-4.0095455758273601531982421875</LongitudeDegrees>
            </Position>
            <AltitudeMeters>899</AltitudeMeters>
            <DistanceMeters>NAN</DistanceMeters>
          </Trackpoint>
          <Trackpoint>
            <Time>2019-08-01T11:09:40.000Z</Time>
            <Position>
              <LatitudeDegrees>40.65739941783249378204345703125</LatitudeDegrees>
              <LongitudeDegrees>-4.00957013480365276336669921875</LongitudeDegrees>
            </Position>
            <AltitudeMeters>899</AltitudeMeters>
            <DistanceMeters>NAN</DistanceMeters>
          </Trackpoint>
          <Trackpoint>
            <Time>2019-08-01T11:09:41.000Z</Time>
            <Position>
              <LatitudeDegrees>40.657470412552356719970703125</LatitudeDegrees>
              <LongitudeDegrees>-4.00959595106542110443115234375</LongitudeDegrees>
            </Position>
            <AltitudeMeters>899</AltitudeMeters>
            <DistanceMeters>NAN</DistanceMeters>
          </Trackpoint>
          <Trackpoint>
            <Time>2019-08-01T11:09:43.000Z</Time>
            <Position>
              <LatitudeDegrees>40.6576083786785602569580078125</LatitudeDegrees>
              <LongitudeDegrees>-4.00964825414121150970458984375</LongitudeDegrees>
            </Position>
            <AltitudeMeters>899</AltitudeMeters>
            <DistanceMeters>NAN</DistanceMeters>
          </Trackpoint>
          <Trackpoint>
            <Time>2019-08-01T11:09:45.000Z</Time>
            <Position>
              <LatitudeDegrees>40.65774156711995601654052734375</LatitudeDegrees>
              <LongitudeDegrees>-4.00970407761633396148681640625</LongitudeDegrees>
            </Position>
            <AltitudeMeters>899.4000244140625</AltitudeMeters>
            <DistanceMeters>NAN</DistanceMeters>
          </Trackpoint>
          <Trackpoint>
            <Time>2019-08-01T11:09:46.000Z</Time>
            <Position>
              <LatitudeDegrees>40.65780828706920146942138671875</LatitudeDegrees>
              <LongitudeDegrees>-4.00973224081099033355712890625</LongitudeDegrees>
            </Position>
            <AltitudeMeters>899.5999755859375</AltitudeMeters>
            <DistanceMeters>NAN</DistanceMeters>
          </Trackpoint>
          <Trackpoint>
            <Time>2019-08-01T11:09:47.000Z</Time>
            <Position>
              <LatitudeDegrees>40.6578749231994152069091796875</LatitudeDegrees>
              <LongitudeDegrees>-4.009760320186614990234375</LongitudeDegrees>
            </Position>
            <AltitudeMeters>899.79998779296875</AltitudeMeters>
            <DistanceMeters>NAN</DistanceMeters>
          </Trackpoint>
          <Trackpoint>
            <Time>2019-08-01T11:09:48.000Z</Time>
            <Position>
              <LatitudeDegrees>40.65794172696769237518310546875</LatitudeDegrees>
              <LongitudeDegrees>-4.0097884833812713623046875</LongitudeDegrees>
            </Position>
            <AltitudeMeters>899.79998779296875</AltitudeMeters>
            <DistanceMeters>NAN</DistanceMeters>
          </Trackpoint>
          <Trackpoint>
            <Time>2019-08-01T11:09:49.000Z</Time>
            <Position>
              <LatitudeDegrees>40.65800744108855724334716796875</LatitudeDegrees>
              <LongitudeDegrees>-4.00981740094721317291259765625</LongitudeDegrees>
            </Position>
            <AltitudeMeters>900.20001220703125</AltitudeMeters>
            <DistanceMeters>NAN</DistanceMeters>
          </Trackpoint>
          <Trackpoint>
            <Time>2019-08-01T11:09:50.000Z</Time>
            <Position>
              <LatitudeDegrees>40.65807290375232696533203125</LatitudeDegrees>
              <LongitudeDegrees>-4.009844474494457244873046875</LongitudeDegrees>
            </Position>
            <AltitudeMeters>900.4000244140625</AltitudeMeters>
            <DistanceMeters>NAN</DistanceMeters>
          </Trackpoint>
          <Trackpoint>
            <Time>2019-08-01T11:09:51.000Z</Time>
            <Position>
              <LatitudeDegrees>40.658137612044811248779296875</LatitudeDegrees>
              <LongitudeDegrees>-4.00987255387008190155029296875</LongitudeDegrees>
            </Position>
            <AltitudeMeters>900.4000244140625</AltitudeMeters>
            <DistanceMeters>NAN</DistanceMeters>
          </Trackpoint>
          <Trackpoint>
            <Time>2019-08-01T11:09:52.000Z</Time>
            <Position>
              <LatitudeDegrees>40.658201985061168670654296875</LatitudeDegrees>
              <LongitudeDegrees>-4.0099006332457065582275390625</LongitudeDegrees>
            </Position>
            <AltitudeMeters>900.79998779296875</AltitudeMeters>
            <DistanceMeters>NAN</DistanceMeters>
          </Trackpoint>
          <Trackpoint>
            <Time>2019-08-01T11:09:53.000Z</Time>
            <Position>
              <LatitudeDegrees>40.65826644189655780792236328125</LatitudeDegrees>
              <LongitudeDegrees>-4.00992938317358493804931640625</LongitudeDegrees>
            </Position>
            <AltitudeMeters>901</AltitudeMeters>
            <DistanceMeters>NAN</DistanceMeters>
          </Trackpoint>
          <Trackpoint>
            <Time>2019-08-01T11:09:54.000Z</Time>
            <Position>
              <LatitudeDegrees>40.6583297252655029296875</LatitudeDegrees>
              <LongitudeDegrees>-4.00995821692049503326416015625</LongitudeDegrees>
            </Position>
            <AltitudeMeters>901.20001220703125</AltitudeMeters>
            <DistanceMeters>NAN</DistanceMeters>
          </Trackpoint>
          <Trackpoint>
            <Time>2019-08-01T11:09:55.000Z</Time>
            <Position>
              <LatitudeDegrees>40.6583935953676700592041015625</LatitudeDegrees>
              <LongitudeDegrees>-4.00998638011515140533447265625</LongitudeDegrees>
            </Position>
            <AltitudeMeters>901.4000244140625</AltitudeMeters>
            <DistanceMeters>NAN</DistanceMeters>
          </Trackpoint>
          <Trackpoint>
            <Time>2019-08-01T11:09:56.000Z</Time>
            <Position>
              <LatitudeDegrees>40.6584571301937103271484375</LatitudeDegrees>
              <LongitudeDegrees>-4.010012783110141754150390625</LongitudeDegrees>
            </Position>
            <AltitudeMeters>901.5999755859375</AltitudeMeters>
            <DistanceMeters>NAN</DistanceMeters>
          </Trackpoint>
          <Trackpoint>
            <Time>2019-08-01T11:09:57.000Z</Time>
            <Position>
              <LatitudeDegrees>40.6585199944674968719482421875</LatitudeDegrees>
              <LongitudeDegrees>-4.0100379288196563720703125</LongitudeDegrees>
            </Position>
            <AltitudeMeters>901.79998779296875</AltitudeMeters>
            <DistanceMeters>NAN</DistanceMeters>
          </Trackpoint>
          <Trackpoint>
            <Time>2019-08-01T11:09:58.000Z</Time>
            <Position>
              <LatitudeDegrees>40.6585830263793468475341796875</LatitudeDegrees>
              <LongitudeDegrees>-4.010062403976917266845703125</LongitudeDegrees>
            </Position>
            <AltitudeMeters>901.79998779296875</AltitudeMeters>
            <DistanceMeters>NAN</DistanceMeters>
          </Trackpoint>
          <Trackpoint>
            <Time>2019-08-01T11:09:59.000Z</Time>
            <Position>
              <LatitudeDegrees>40.65864463336765766143798828125</LatitudeDegrees>
              <LongitudeDegrees>-4.01008595712482929229736328125</LongitudeDegrees>
            </Position>
            <AltitudeMeters>901.79998779296875</AltitudeMeters>
            <DistanceMeters>NAN</DistanceMeters>
          </Trackpoint>
          <Trackpoint>
            <Time>2019-08-01T11:10:00.000Z</Time>
            <Position>
              <LatitudeDegrees>40.65870733000338077545166015625</LatitudeDegrees>
              <LongitudeDegrees>-4.01010925881564617156982421875</LongitudeDegrees>
            </Position>
            <AltitudeMeters>902</AltitudeMeters>
            <DistanceMeters>NAN</DistanceMeters>
          </Trackpoint>
          <Trackpoint>
            <Time>2019-08-01T11:10:01.000Z</Time>
            <Position>
              <LatitudeDegrees>40.65876952372491359710693359375</LatitudeDegrees>
              <LongitudeDegrees>-4.01013205759227275848388671875</LongitudeDegrees>
            </Position>
            <AltitudeMeters>902</AltitudeMeters>
            <DistanceMeters>NAN</DistanceMeters>
          </Trackpoint>
          <Trackpoint>
            <Time>2019-08-01T11:10:02.000Z</Time>
            <Position>
              <LatitudeDegrees>40.6588294543325901031494140625</LatitudeDegrees>
              <LongitudeDegrees>-4.0101524256169795989990234375</LongitudeDegrees>
            </Position>
            <AltitudeMeters>902.20001220703125</AltitudeMeters>
            <DistanceMeters>NAN</DistanceMeters>
          </Trackpoint>
          <Trackpoint>
            <Time>2019-08-01T11:10:03.000Z</Time>
            <Position>
              <LatitudeDegrees>40.6588908098638057708740234375</LatitudeDegrees>
              <LongitudeDegrees>-4.01017413474619388580322265625</LongitudeDegrees>
            </Position>
            <AltitudeMeters>902.5999755859375</AltitudeMeters>
            <DistanceMeters>NAN</DistanceMeters>
          </Trackpoint>
          <Trackpoint>
            <Time>2019-08-01T11:10:04.000Z</Time>
            <Position>
              <LatitudeDegrees>40.6589518301188945770263671875</LatitudeDegrees>
              <LongitudeDegrees>-4.01019844226539134979248046875</LongitudeDegrees>
            </Position>
            <AltitudeMeters>903</AltitudeMeters>
            <DistanceMeters>NAN</DistanceMeters>
          </Trackpoint>
          <Trackpoint>
            <Time>2019-08-01T11:10:05.000Z</Time>
            <Position>
              <LatitudeDegrees>40.65901259891688823699951171875</LatitudeDegrees>
              <LongitudeDegrees>-4.01022006757557392120361328125</LongitudeDegrees>
            </Position>
            <AltitudeMeters>903.20001220703125</AltitudeMeters>
            <DistanceMeters>NAN</DistanceMeters>
          </Trackpoint>
          <Trackpoint>
            <Time>2019-08-01T11:10:06.000Z</Time>
            <Position>
              <LatitudeDegrees>40.6590735353529453277587890625</LatitudeDegrees>
              <LongitudeDegrees>-4.01024202816188335418701171875</LongitudeDegrees>
            </Position>
            <AltitudeMeters>903.4000244140625</AltitudeMeters>
            <DistanceMeters>NAN</DistanceMeters>
          </Trackpoint>
          <Trackpoint>
            <Time>2019-08-01T11:10:07.000Z</Time>
            <Position>
              <LatitudeDegrees>40.6591345556080341339111328125</LatitudeDegrees>
              <LongitudeDegrees>-4.01026331819593906402587890625</LongitudeDegrees>
            </Position>
            <AltitudeMeters>903.5999755859375</AltitudeMeters>
            <DistanceMeters>NAN</DistanceMeters>
          </Trackpoint>
          <Trackpoint>
            <Time>2019-08-01T11:10:08.000Z</Time>
            <Position>
              <LatitudeDegrees>40.659195743501186370849609375</LatitudeDegrees>
              <LongitudeDegrees>-4.0102851949632167816162109375</LongitudeDegrees>
            </Position>
            <AltitudeMeters>903.5999755859375</AltitudeMeters>
            <DistanceMeters>NAN</DistanceMeters>
          </Trackpoint>
          <Trackpoint>
            <Time>2019-08-01T11:10:09.000Z</Time>
            <Position>
              <LatitudeDegrees>40.65925575792789459228515625</LatitudeDegrees>
              <LongitudeDegrees>-4.010307155549526214599609375</LongitudeDegrees>
            </Position>
            <AltitudeMeters>903.79998779296875</AltitudeMeters>
            <DistanceMeters>NAN</DistanceMeters>
          </Trackpoint>
          <Trackpoint>
            <Time>2019-08-01T11:10:10.000Z</Time>
            <Position>
              <LatitudeDegrees>40.65931619144976139068603515625</LatitudeDegrees>
              <LongitudeDegrees>-4.01033054105937480926513671875</LongitudeDegrees>
            </Position>
            <AltitudeMeters>904</AltitudeMeters>
            <DistanceMeters>NAN</DistanceMeters>
          </Trackpoint>
          <Trackpoint>
            <Time>2019-08-01T11:10:11.000Z</Time>
            <Position>
              <LatitudeDegrees>40.65937654115259647369384765625</LatitudeDegrees>
              <LongitudeDegrees>-4.01035333983600139617919921875</LongitudeDegrees>
            </Position>
            <AltitudeMeters>904.20001220703125</AltitudeMeters>
            <DistanceMeters>NAN</DistanceMeters>
          </Trackpoint>
          <Trackpoint>
            <Time>2019-08-01T11:10:12.000Z</Time>
            <Position>
              <LatitudeDegrees>40.65943856723606586456298828125</LatitudeDegrees>
              <LongitudeDegrees>-4.01037580333650112152099609375</LongitudeDegrees>
            </Position>
            <AltitudeMeters>904.5999755859375</AltitudeMeters>
            <DistanceMeters>NAN</DistanceMeters>
          </Trackpoint>
          <Trackpoint>
            <Time>2019-08-01T11:10:13.000Z</Time>
            <Position>
              <LatitudeDegrees>40.659500174224376678466796875</LatitudeDegrees>
              <LongitudeDegrees>-4.0103948302567005157470703125</LongitudeDegrees>
            </Position>
            <AltitudeMeters>904.79998779296875</AltitudeMeters>
            <DistanceMeters>NAN</DistanceMeters>
          </Trackpoint>
          <Trackpoint>
            <Time>2019-08-01T11:10:14.000Z</Time>
            <Position>
              <LatitudeDegrees>40.65956194885075092315673828125</LatitudeDegrees>
              <LongitudeDegrees>-4.01041519828140735626220703125</LongitudeDegrees>
            </Position>
            <AltitudeMeters>904.79998779296875</AltitudeMeters>
            <DistanceMeters>NAN</DistanceMeters>
          </Trackpoint>
          <Trackpoint>
            <Time>2019-08-01T11:10:15.000Z</Time>
            <Position>
              <LatitudeDegrees>40.6596237234771251678466796875</LatitudeDegrees>
              <LongitudeDegrees>-4.01043380610644817352294921875</LongitudeDegrees>
            </Position>
            <AltitudeMeters>905.20001220703125</AltitudeMeters>
            <DistanceMeters>NAN</DistanceMeters>
          </Trackpoint>
          <Trackpoint>
            <Time>2019-08-01T11:10:16.000Z</Time>
            <Position>
              <LatitudeDegrees>40.65968465991318225860595703125</LatitudeDegrees>
              <LongitudeDegrees>-4.0104531683027744293212890625</LongitudeDegrees>
            </Position>
            <AltitudeMeters>905.20001220703125</AltitudeMeters>
            <DistanceMeters>NAN</DistanceMeters>
          </Trackpoint>
          <Trackpoint>
            <Time>2019-08-01T11:10:17.000Z</Time>
            <Position>
              <LatitudeDegrees>40.65974450670182704925537109375</LatitudeDegrees>
              <LongitudeDegrees>-4.0104726143181324005126953125</LongitudeDegrees>
            </Position>
            <AltitudeMeters>905.4000244140625</AltitudeMeters>
            <DistanceMeters>NAN</DistanceMeters>
          </Trackpoint>
          <Trackpoint>
            <Time>2019-08-01T11:10:18.000Z</Time>
            <Position>
              <LatitudeDegrees>40.65980494022369384765625</LatitudeDegrees>
              <LongitudeDegrees>-4.01049097068607807159423828125</LongitudeDegrees>
            </Position>
            <AltitudeMeters>905.5999755859375</AltitudeMeters>
            <DistanceMeters>NAN</DistanceMeters>
          </Trackpoint>
          <Trackpoint>
            <Time>2019-08-01T11:10:19.000Z</Time>
            <Position>
              <LatitudeDegrees>40.65986621193587779998779296875</LatitudeDegrees>
              <LongitudeDegrees>-4.01050656102597713470458984375</LongitudeDegrees>
            </Position>
            <AltitudeMeters>905.5999755859375</AltitudeMeters>
            <DistanceMeters>NAN</DistanceMeters>
          </Trackpoint>
          <Trackpoint>
            <Time>2019-08-01T11:10:20.000Z</Time>
            <Position>
              <LatitudeDegrees>40.65992773510515689849853515625</LatitudeDegrees>
              <LongitudeDegrees>-4.01052005589008331298828125</LongitudeDegrees>
            </Position>
            <AltitudeMeters>906</AltitudeMeters>
            <DistanceMeters>NAN</DistanceMeters>
          </Trackpoint>
          <Trackpoint>
            <Time>2019-08-01T11:10:21.000Z</Time>
            <Position>
              <LatitudeDegrees>40.65999043174088001251220703125</LatitudeDegrees>
              <LongitudeDegrees>-4.01053170673549175262451171875</LongitudeDegrees>
            </Position>
            <AltitudeMeters>906.4000244140625</AltitudeMeters>
            <DistanceMeters>NAN</DistanceMeters>
          </Trackpoint>
          <Trackpoint>
            <Time>2019-08-01T11:10:22.000Z</Time>
            <Position>
              <LatitudeDegrees>40.66005396656692028045654296875</LatitudeDegrees>
              <LongitudeDegrees>-4.01054017245769500732421875</LongitudeDegrees>
            </Position>
            <AltitudeMeters>906.5999755859375</AltitudeMeters>
            <DistanceMeters>NAN</DistanceMeters>
          </Trackpoint>
          <Trackpoint>
            <Time>2019-08-01T11:10:23.000Z</Time>
            <Position>
              <LatitudeDegrees>40.66011833958327770233154296875</LatitudeDegrees>
              <LongitudeDegrees>-4.01054964400827884674072265625</LongitudeDegrees>
            </Position>
            <AltitudeMeters>906.79998779296875</AltitudeMeters>
            <DistanceMeters>NAN</DistanceMeters>
          </Trackpoint>
          <Trackpoint>
            <Time>2019-08-01T11:10:24.000Z</Time>
            <Position>
              <LatitudeDegrees>40.66018003039062023162841796875</LatitudeDegrees>
              <LongitudeDegrees>-4.0105597861111164093017578125</LongitudeDegrees>
            </Position>
            <AltitudeMeters>907</AltitudeMeters>
            <DistanceMeters>NAN</DistanceMeters>
          </Trackpoint>
          <Trackpoint>
            <Time>2019-08-01T11:10:25.000Z</Time>
            <Position>
              <LatitudeDegrees>40.6602419726550579071044921875</LatitudeDegrees>
              <LongitudeDegrees>-4.01056967675685882568359375</LongitudeDegrees>
            </Position>
            <AltitudeMeters>907</AltitudeMeters>
            <DistanceMeters>NAN</DistanceMeters>
          </Trackpoint>
          <Trackpoint>
            <Time>2019-08-01T11:10:26.000Z</Time>
            <Position>
              <LatitudeDegrees>40.6603036634624004364013671875</LatitudeDegrees>
              <LongitudeDegrees>-4.01057747192680835723876953125</LongitudeDegrees>
            </Position>
            <AltitudeMeters>907.20001220703125</AltitudeMeters>
            <DistanceMeters>NAN</DistanceMeters>
          </Trackpoint>
          <Trackpoint>
            <Time>2019-08-01T11:10:27.000Z</Time>
            <Position>
              <LatitudeDegrees>40.66036711446940898895263671875</LatitudeDegrees>
              <LongitudeDegrees>-4.01058585382997989654541015625</LongitudeDegrees>
            </Position>
            <AltitudeMeters>907.20001220703125</AltitudeMeters>
            <DistanceMeters>NAN</DistanceMeters>
          </Trackpoint>
          <Trackpoint>
            <Time>2019-08-01T11:10:28.000Z</Time>
            <Position>
              <LatitudeDegrees>40.66043098457157611846923828125</LatitudeDegrees>
              <LongitudeDegrees>-4.01059373281896114349365234375</LongitudeDegrees>
            </Position>
            <AltitudeMeters>907.4000244140625</AltitudeMeters>
            <DistanceMeters>NAN</DistanceMeters>
          </Trackpoint>
          <Trackpoint>
            <Time>2019-08-01T11:10:29.000Z</Time>
            <Position>
              <LatitudeDegrees>40.66049535758793354034423828125</LatitudeDegrees>
              <LongitudeDegrees>-4.0106010250747203826904296875</LongitudeDegrees>
            </Position>
            <AltitudeMeters>907.79998779296875</AltitudeMeters>
            <DistanceMeters>NAN</DistanceMeters>
          </Trackpoint>
          <Trackpoint>
            <Time>2019-08-01T11:10:30.000Z</Time>
            <Position>
              <LatitudeDegrees>40.66055906005203723907470703125</LatitudeDegrees>
              <LongitudeDegrees>-4.0106080658733844757080078125</LongitudeDegrees>
            </Position>
            <AltitudeMeters>908.20001220703125</AltitudeMeters>
            <DistanceMeters>NAN</DistanceMeters>
          </Trackpoint>
          <Trackpoint>
            <Time>2019-08-01T11:10:31.000Z</Time>
            <Position>
              <LatitudeDegrees>40.660623349249362945556640625</LatitudeDegrees>
              <LongitudeDegrees>-4.01061418466269969940185546875</LongitudeDegrees>
            </Position>
            <AltitudeMeters>908.4000244140625</AltitudeMeters>
            <DistanceMeters>NAN</DistanceMeters>
          </Trackpoint>
          <Trackpoint>
            <Time>2019-08-01T11:10:32.000Z</Time>
            <Position>
              <LatitudeDegrees>40.66068747080862522125244140625</LatitudeDegrees>
              <LongitudeDegrees>-4.01062063872814178466796875</LongitudeDegrees>
            </Position>
            <AltitudeMeters>908.4000244140625</AltitudeMeters>
            <DistanceMeters>NAN</DistanceMeters>
          </Trackpoint>
          <Trackpoint>
            <Time>2019-08-01T11:10:33.000Z</Time>
            <Position>
              <LatitudeDegrees>40.66074932925403118133544921875</LatitudeDegrees>
              <LongitudeDegrees>-4.01062642224133014678955078125</LongitudeDegrees>
            </Position>
            <AltitudeMeters>908.5999755859375</AltitudeMeters>
            <DistanceMeters>NAN</DistanceMeters>
          </Trackpoint>
          <Trackpoint>
            <Time>2019-08-01T11:10:34.000Z</Time>
            <Position>
              <LatitudeDegrees>40.66081152297556400299072265625</LatitudeDegrees>
              <LongitudeDegrees>-4.01063245721161365509033203125</LongitudeDegrees>
            </Position>
            <AltitudeMeters>908.5999755859375</AltitudeMeters>
            <DistanceMeters>NAN</DistanceMeters>
          </Trackpoint>
          <Trackpoint>
            <Time>2019-08-01T11:10:35.000Z</Time>
            <Position>
              <LatitudeDegrees>40.6608738005161285400390625</LatitudeDegrees>
              <LongitudeDegrees>-4.01063782162964344024658203125</LongitudeDegrees>
            </Position>
            <AltitudeMeters>908.79998779296875</AltitudeMeters>
            <DistanceMeters>NAN</DistanceMeters>
          </Trackpoint>
          <Trackpoint>
            <Time>2019-08-01T11:10:36.000Z</Time>
            <Position>
              <LatitudeDegrees>40.66093708388507366180419921875</LatitudeDegrees>
              <LongitudeDegrees>-4.0106432698667049407958984375</LongitudeDegrees>
            </Position>
            <AltitudeMeters>909</AltitudeMeters>
            <DistanceMeters>NAN</DistanceMeters>
          </Trackpoint>
          <Trackpoint>
            <Time>2019-08-01T11:10:37.000Z</Time>
            <Position>
              <LatitudeDegrees>40.661000199615955352783203125</LatitudeDegrees>
              <LongitudeDegrees>-4.0106496401131153106689453125</LongitudeDegrees>
            </Position>
            <AltitudeMeters>909</AltitudeMeters>
            <DistanceMeters>NAN</DistanceMeters>
          </Trackpoint>
          <Trackpoint>
            <Time>2019-08-01T11:10:38.000Z</Time>
            <Position>
              <LatitudeDegrees>40.66106130369007587432861328125</LatitudeDegrees>
              <LongitudeDegrees>-4.01065592654049396514892578125</LongitudeDegrees>
            </Position>
            <AltitudeMeters>909</AltitudeMeters>
            <DistanceMeters>NAN</DistanceMeters>
          </Trackpoint>
          <Trackpoint>
            <Time>2019-08-01T11:10:39.000Z</Time>
            <Position>
              <LatitudeDegrees>40.6611217372119426727294921875</LatitudeDegrees>
              <LongitudeDegrees>-4.01066296733915805816650390625</LongitudeDegrees>
            </Position>
            <AltitudeMeters>909</AltitudeMeters>
            <DistanceMeters>NAN</DistanceMeters>
          </Trackpoint>
          <Trackpoint>
            <Time>2019-08-01T11:10:40.000Z</Time>
            <Position>
              <LatitudeDegrees>40.66118217073380947113037109375</LatitudeDegrees>
              <LongitudeDegrees>-4.01067051105201244354248046875</LongitudeDegrees>
            </Position>
            <AltitudeMeters>909</AltitudeMeters>
            <DistanceMeters>NAN</DistanceMeters>
          </Trackpoint>
          <Trackpoint>
            <Time>2019-08-01T11:10:41.000Z</Time>
            <Position>
              <LatitudeDegrees>40.66124268807470798492431640625</LatitudeDegrees>
              <LongitudeDegrees>-4.0106788091361522674560546875</LongitudeDegrees>
            </Position>
            <AltitudeMeters>909.20001220703125</AltitudeMeters>
            <DistanceMeters>NAN</DistanceMeters>
          </Trackpoint>
          <Trackpoint>
            <Time>2019-08-01T11:10:42.000Z</Time>
            <Position>
              <LatitudeDegrees>40.6613037921488285064697265625</LatitudeDegrees>
              <LongitudeDegrees>-4.01068693958222866058349609375</LongitudeDegrees>
            </Position>
            <AltitudeMeters>909.20001220703125</AltitudeMeters>
            <DistanceMeters>NAN</DistanceMeters>
          </Trackpoint>
          <Trackpoint>
            <Time>2019-08-01T11:10:43.000Z</Time>
            <Position>
              <LatitudeDegrees>40.6613634712994098663330078125</LatitudeDegrees>
              <LongitudeDegrees>-4.010695405304431915283203125</LongitudeDegrees>
            </Position>
            <AltitudeMeters>909.20001220703125</AltitudeMeters>
            <DistanceMeters>NAN</DistanceMeters>
          </Trackpoint>
          <Trackpoint>
            <Time>2019-08-01T11:10:44.000Z</Time>
            <Position>
              <LatitudeDegrees>40.661422312259674072265625</LatitudeDegrees>
              <LongitudeDegrees>-4.010704793035984039306640625</LongitudeDegrees>
            </Position>
            <AltitudeMeters>909.4000244140625</AltitudeMeters>
            <DistanceMeters>NAN</DistanceMeters>
          </Trackpoint>
          <Trackpoint>
            <Time>2019-08-01T11:10:45.000Z</Time>
            <Position>
              <LatitudeDegrees>40.66148090176284313201904296875</LatitudeDegrees>
              <LongitudeDegrees>-4.01071577332913875579833984375</LongitudeDegrees>
            </Position>
            <AltitudeMeters>909.5999755859375</AltitudeMeters>
            <DistanceMeters>NAN</DistanceMeters>
          </Trackpoint>
          <Trackpoint>
            <Time>2019-08-01T11:10:46.000Z</Time>
            <Position>
              <LatitudeDegrees>40.6615394912660121917724609375</LatitudeDegrees>
              <LongitudeDegrees>-4.01072650216519832611083984375</LongitudeDegrees>
            </Position>
            <AltitudeMeters>909.5999755859375</AltitudeMeters>
            <DistanceMeters>NAN</DistanceMeters>
          </Trackpoint>
          <Trackpoint>
            <Time>2019-08-01T11:10:47.000Z</Time>
            <Position>
              <LatitudeDegrees>40.66159791313111782073974609375</LatitudeDegrees>
              <LongitudeDegrees>-4.0107351355254650115966796875</LongitudeDegrees>
            </Position>
            <AltitudeMeters>909.79998779296875</AltitudeMeters>
            <DistanceMeters>NAN</DistanceMeters>
          </Trackpoint>
          <Trackpoint>
            <Time>2019-08-01T11:10:48.000Z</Time>
            <Position>
              <LatitudeDegrees>40.661656670272350311279296875</LatitudeDegrees>
              <LongitudeDegrees>-4.01074226014316082000732421875</LongitudeDegrees>
            </Position>
            <AltitudeMeters>910.4000244140625</AltitudeMeters>
            <DistanceMeters>NAN</DistanceMeters>
          </Trackpoint>
          <Trackpoint>
            <Time>2019-08-01T11:10:49.000Z</Time>
            <Position>
              <LatitudeDegrees>40.661714337766170501708984375</LatitudeDegrees>
              <LongitudeDegrees>-4.01074879802763462066650390625</LongitudeDegrees>
            </Position>
            <AltitudeMeters>910.79998779296875</AltitudeMeters>
            <DistanceMeters>NAN</DistanceMeters>
          </Trackpoint>
          <Trackpoint>
            <Time>2019-08-01T11:10:50.000Z</Time>
            <Position>
              <LatitudeDegrees>40.661714337766170501708984375</LatitudeDegrees>
              <LongitudeDegrees>-4.01074879802763462066650390625</LongitudeDegrees>
            </Position>
            <AltitudeMeters>910.79998779296875</AltitudeMeters>
            <DistanceMeters>NAN</DistanceMeters>
          </Trackpoint>
          <Trackpoint>
            <Time>2019-08-01T11:10:51.000Z</Time>
            <Position>
              <LatitudeDegrees>40.66182472743093967437744140625</LatitudeDegrees>
              <LongitudeDegrees>-4.0107648074626922607421875</LongitudeDegrees>
            </Position>
            <AltitudeMeters>911.20001220703125</AltitudeMeters>
            <DistanceMeters>NAN</DistanceMeters>
          </Trackpoint>
          <Trackpoint>
            <Time>2019-08-01T11:10:52.000Z</Time>
            <Position>
              <LatitudeDegrees>40.66187887452542781829833984375</LatitudeDegrees>
              <LongitudeDegrees>-4.0107740275561809539794921875</LongitudeDegrees>
            </Position>
            <AltitudeMeters>911.5999755859375</AltitudeMeters>
            <DistanceMeters>NAN</DistanceMeters>
          </Trackpoint>
          <Trackpoint>
            <Time>2019-08-01T11:10:53.000Z</Time>
            <Position>
              <LatitudeDegrees>40.6619324348866939544677734375</LatitudeDegrees>
              <LongitudeDegrees>-4.0107824094593524932861328125</LongitudeDegrees>
            </Position>
            <AltitudeMeters>911.5999755859375</AltitudeMeters>
            <DistanceMeters>NAN</DistanceMeters>
          </Trackpoint>
          <Trackpoint>
            <Time>2019-08-01T11:10:54.000Z</Time>
            <Position>
              <LatitudeDegrees>40.6619874201714992523193359375</LatitudeDegrees>
              <LongitudeDegrees>-4.01079104281961917877197265625</LongitudeDegrees>
            </Position>
            <AltitudeMeters>911.5999755859375</AltitudeMeters>
            <DistanceMeters>NAN</DistanceMeters>
          </Trackpoint>
          <Trackpoint>
            <Time>2019-08-01T11:10:55.000Z</Time>
            <Position>
              <LatitudeDegrees>40.66204198636114597320556640625</LatitudeDegrees>
              <LongitudeDegrees>-4.0107968263328075408935546875</LongitudeDegrees>
            </Position>
            <AltitudeMeters>911.79998779296875</AltitudeMeters>
            <DistanceMeters>NAN</DistanceMeters>
          </Trackpoint>
          <Trackpoint>
            <Time>2019-08-01T11:10:56.000Z</Time>
            <Position>
              <LatitudeDegrees>40.66209713928401470184326171875</LatitudeDegrees>
              <LongitudeDegrees>-4.0108050405979156494140625</LongitudeDegrees>
            </Position>
            <AltitudeMeters>912</AltitudeMeters>
            <DistanceMeters>NAN</DistanceMeters>
          </Trackpoint>
          <Trackpoint>
            <Time>2019-08-01T11:10:57.000Z</Time>
            <Position>
              <LatitudeDegrees>40.66215145401656627655029296875</LatitudeDegrees>
              <LongitudeDegrees>-4.0108119137585163116455078125</LongitudeDegrees>
            </Position>
            <AltitudeMeters>912.20001220703125</AltitudeMeters>
            <DistanceMeters>NAN</DistanceMeters>
          </Trackpoint>
          <Trackpoint>
            <Time>2019-08-01T11:10:58.000Z</Time>
            <Position>
              <LatitudeDegrees>40.662204511463642120361328125</LatitudeDegrees>
              <LongitudeDegrees>-4.01081820018589496612548828125</LongitudeDegrees>
            </Position>
            <AltitudeMeters>912.4000244140625</AltitudeMeters>
            <DistanceMeters>NAN</DistanceMeters>
          </Trackpoint>
          <Trackpoint>
            <Time>2019-08-01T11:10:59.000Z</Time>
            <Position>
              <LatitudeDegrees>40.662258155643939971923828125</LatitudeDegrees>
              <LongitudeDegrees>-4.01082582771778106689453125</LongitudeDegrees>
            </Position>
            <AltitudeMeters>912.79998779296875</AltitudeMeters>
            <DistanceMeters>NAN</DistanceMeters>
          </Trackpoint>
          <Trackpoint>
            <Time>2019-08-01T11:11:00.000Z</Time>
            <Position>
              <LatitudeDegrees>40.66231071017682552337646484375</LatitudeDegrees>
              <LongitudeDegrees>-4.01083295233547687530517578125</LongitudeDegrees>
            </Position>
            <AltitudeMeters>913</AltitudeMeters>
            <DistanceMeters>NAN</DistanceMeters>
          </Trackpoint>
          <Trackpoint>
            <Time>2019-08-01T11:11:01.000Z</Time>
            <Position>
              <LatitudeDegrees>40.66231071017682552337646484375</LatitudeDegrees>
              <LongitudeDegrees>-4.01083295233547687530517578125</LongitudeDegrees>
            </Position>
            <AltitudeMeters>913.4000244140625</AltitudeMeters>
            <DistanceMeters>NAN</DistanceMeters>
          </Trackpoint>
          <Trackpoint>
            <Time>2019-08-01T11:11:02.000Z</Time>
            <Position>
              <LatitudeDegrees>40.6624112091958522796630859375</LatitudeDegrees>
              <LongitudeDegrees>-4.0108434297144412994384765625</LongitudeDegrees>
            </Position>
            <AltitudeMeters>913.5999755859375</AltitudeMeters>
            <DistanceMeters>NAN</DistanceMeters>
          </Trackpoint>
          <Trackpoint>
            <Time>2019-08-01T11:11:03.000Z</Time>
            <Position>
              <LatitudeDegrees>40.66246141679584980010986328125</LatitudeDegrees>
              <LongitudeDegrees>-4.01084862649440765380859375</LongitudeDegrees>
            </Position>
            <AltitudeMeters>913.79998779296875</AltitudeMeters>
            <DistanceMeters>NAN</DistanceMeters>
          </Trackpoint>
          <Trackpoint>
            <Time>2019-08-01T11:11:04.000Z</Time>
            <Position>
              <LatitudeDegrees>40.66251170821487903594970703125</LatitudeDegrees>
              <LongitudeDegrees>-4.0108548291027545928955078125</LongitudeDegrees>
            </Position>
            <AltitudeMeters>914</AltitudeMeters>
            <DistanceMeters>NAN</DistanceMeters>
          </Trackpoint>
          <Trackpoint>
            <Time>2019-08-01T11:11:05.000Z</Time>
            <Position>
              <LatitudeDegrees>40.662561915814876556396484375</LatitudeDegrees>
              <LongitudeDegrees>-4.01086178608238697052001953125</LongitudeDegrees>
            </Position>
            <AltitudeMeters>914.20001220703125</AltitudeMeters>
            <DistanceMeters>NAN</DistanceMeters>
          </Trackpoint>
          <Trackpoint>
            <Time>2019-08-01T11:11:06.000Z</Time>
            <Position>
              <LatitudeDegrees>40.66261388361454010009765625</LatitudeDegrees>
              <LongitudeDegrees>-4.010869748890399932861328125</LongitudeDegrees>
            </Position>
            <AltitudeMeters>914.4000244140625</AltitudeMeters>
            <DistanceMeters>NAN</DistanceMeters>
          </Trackpoint>
          <Trackpoint>
            <Time>2019-08-01T11:11:07.000Z</Time>
            <Position>
              <LatitudeDegrees>40.6626650132238864898681640625</LatitudeDegrees>
              <LongitudeDegrees>-4.01087637059390544891357421875</LongitudeDegrees>
            </Position>
            <AltitudeMeters>914.5999755859375</AltitudeMeters>
            <DistanceMeters>NAN</DistanceMeters>
          </Trackpoint>
          <Trackpoint>
            <Time>2019-08-01T11:11:08.000Z</Time>
            <Position>
              <LatitudeDegrees>40.66271672956645488739013671875</LatitudeDegrees>
              <LongitudeDegrees>-4.01088290847837924957275390625</LongitudeDegrees>
            </Position>
            <AltitudeMeters>914.5999755859375</AltitudeMeters>
            <DistanceMeters>NAN</DistanceMeters>
          </Trackpoint>
          <Trackpoint>
            <Time>2019-08-01T11:11:09.000Z</Time>
            <Position>
              <LatitudeDegrees>40.66271672956645488739013671875</LatitudeDegrees>
              <LongitudeDegrees>-4.01088290847837924957275390625</LongitudeDegrees>
            </Position>
            <AltitudeMeters>914.79998779296875</AltitudeMeters>
            <DistanceMeters>NAN</DistanceMeters>
          </Trackpoint>
          <Trackpoint>
            <Time>2019-08-01T11:11:10.000Z</Time>
            <Position>
              <LatitudeDegrees>40.6628182344138622283935546875</LatitudeDegrees>
              <LongitudeDegrees>-4.0108964033424854278564453125</LongitudeDegrees>
            </Position>
            <AltitudeMeters>915.20001220703125</AltitudeMeters>
            <DistanceMeters>NAN</DistanceMeters>
          </Trackpoint>
          <Trackpoint>
            <Time>2019-08-01T11:11:11.000Z</Time>
            <Position>
              <LatitudeDegrees>40.66286877728998661041259765625</LatitudeDegrees>
              <LongitudeDegrees>-4.01090302504599094390869140625</LongitudeDegrees>
            </Position>
            <AltitudeMeters>915.20001220703125</AltitudeMeters>
            <DistanceMeters>NAN</DistanceMeters>
          </Trackpoint>
          <Trackpoint>
            <Time>2019-08-01T11:11:12.000Z</Time>
            <Position>
              <LatitudeDegrees>40.6629188172519207000732421875</LatitudeDegrees>
              <LongitudeDegrees>-4.010908305644989013671875</LongitudeDegrees>
            </Position>
            <AltitudeMeters>915.4000244140625</AltitudeMeters>
            <DistanceMeters>NAN</DistanceMeters>
          </Trackpoint>
          <Trackpoint>
            <Time>2019-08-01T11:11:13.000Z</Time>
            <Position>
              <LatitudeDegrees>40.66296919248998165130615234375</LatitudeDegrees>
              <LongitudeDegrees>-4.01091425679624080657958984375</LongitudeDegrees>
            </Position>
            <AltitudeMeters>915.79998779296875</AltitudeMeters>
            <DistanceMeters>NAN</DistanceMeters>
          </Trackpoint>
          <Trackpoint>
            <Time>2019-08-01T11:11:14.000Z</Time>
            <Position>
              <LatitudeDegrees>40.663020908832550048828125</LatitudeDegrees>
              <LongitudeDegrees>-4.01092163287103176116943359375</LongitudeDegrees>
            </Position>
            <AltitudeMeters>916</AltitudeMeters>
            <DistanceMeters>NAN</DistanceMeters>
          </Trackpoint>
          <Trackpoint>
            <Time>2019-08-01T11:11:15.000Z</Time>
            <Position>
              <LatitudeDegrees>40.6630706973373889923095703125</LatitudeDegrees>
              <LongitudeDegrees>-4.01092800311744213104248046875</LongitudeDegrees>
            </Position>
            <AltitudeMeters>916.20001220703125</AltitudeMeters>
            <DistanceMeters>NAN</DistanceMeters>
          </Trackpoint>
          <Trackpoint>
            <Time>2019-08-01T11:11:16.000Z</Time>
            <Position>
              <LatitudeDegrees>40.66312023438513278961181640625</LatitudeDegrees>
              <LongitudeDegrees>-4.01093487627804279327392578125</LongitudeDegrees>
            </Position>
            <AltitudeMeters>916.79998779296875</AltitudeMeters>
            <DistanceMeters>NAN</DistanceMeters>
          </Trackpoint>
          <Trackpoint>
            <Time>2019-08-01T11:11:17.000Z</Time>
            <Position>
              <LatitudeDegrees>40.663170106709003448486328125</LatitudeDegrees>
              <LongitudeDegrees>-4.010940492153167724609375</LongitudeDegrees>
            </Position>
            <AltitudeMeters>917.20001220703125</AltitudeMeters>
            <DistanceMeters>NAN</DistanceMeters>
          </Trackpoint>
          <Trackpoint>
            <Time>2019-08-01T11:11:18.000Z</Time>
            <Position>
              <LatitudeDegrees>40.66321964375674724578857421875</LatitudeDegrees>
              <LongitudeDegrees>-4.010945521295070648193359375</LongitudeDegrees>
            </Position>
            <AltitudeMeters>917.4000244140625</AltitudeMeters>
            <DistanceMeters>NAN</DistanceMeters>
          </Trackpoint>
          <Trackpoint>
            <Time>2019-08-01T11:11:19.000Z</Time>
            <Position>
              <LatitudeDegrees>40.66326993517577648162841796875</LatitudeDegrees>
              <LongitudeDegrees>-4.0109513886272907257080078125</LongitudeDegrees>
            </Position>
            <AltitudeMeters>917.79998779296875</AltitudeMeters>
            <DistanceMeters>NAN</DistanceMeters>
          </Trackpoint>
          <Trackpoint>
            <Time>2019-08-01T11:11:20.000Z</Time>
            <Position>
              <LatitudeDegrees>40.66332156769931316375732421875</LatitudeDegrees>
              <LongitudeDegrees>-4.010956920683383941650390625</LongitudeDegrees>
            </Position>
            <AltitudeMeters>918</AltitudeMeters>
            <DistanceMeters>NAN</DistanceMeters>
          </Trackpoint>
          <Trackpoint>
            <Time>2019-08-01T11:11:21.000Z</Time>
            <Position>
              <LatitudeDegrees>40.6633734516799449920654296875</LatitudeDegrees>
              <LongitudeDegrees>-4.010961949825286865234375</LongitudeDegrees>
            </Position>
            <AltitudeMeters>918.20001220703125</AltitudeMeters>
            <DistanceMeters>NAN</DistanceMeters>
          </Trackpoint>
          <Trackpoint>
            <Time>2019-08-01T11:11:22.000Z</Time>
            <Position>
              <LatitudeDegrees>40.6634247489273548126220703125</LatitudeDegrees>
              <LongitudeDegrees>-4.01096664369106292724609375</LongitudeDegrees>
            </Position>
            <AltitudeMeters>918.4000244140625</AltitudeMeters>
            <DistanceMeters>NAN</DistanceMeters>
          </Trackpoint>
          <Trackpoint>
            <Time>2019-08-01T11:11:23.000Z</Time>
            <Position>
              <LatitudeDegrees>40.66347663290798664093017578125</LatitudeDegrees>
              <LongitudeDegrees>-4.01097259484231472015380859375</LongitudeDegrees>
            </Position>
            <AltitudeMeters>918.5999755859375</AltitudeMeters>
            <DistanceMeters>NAN</DistanceMeters>
          </Trackpoint>
          <Trackpoint>
            <Time>2019-08-01T11:11:24.000Z</Time>
            <Position>
              <LatitudeDegrees>40.663528852164745330810546875</LatitudeDegrees>
              <LongitudeDegrees>-4.01097896508872509002685546875</LongitudeDegrees>
            </Position>
            <AltitudeMeters>918.79998779296875</AltitudeMeters>
            <DistanceMeters>NAN</DistanceMeters>
          </Trackpoint>
          <Trackpoint>
            <Time>2019-08-01T11:11:25.000Z</Time>
            <Position>
              <LatitudeDegrees>40.66358107142150402069091796875</LatitudeDegrees>
              <LongitudeDegrees>-4.010984413325786590576171875</LongitudeDegrees>
            </Position>
            <AltitudeMeters>918.79998779296875</AltitudeMeters>
            <DistanceMeters>NAN</DistanceMeters>
          </Trackpoint>
          <Trackpoint>
            <Time>2019-08-01T11:11:26.000Z</Time>
            <Position>
              <LatitudeDegrees>40.66363270394504070281982421875</LatitudeDegrees>
              <LongitudeDegrees>-4.01099069975316524505615234375</LongitudeDegrees>
            </Position>
            <AltitudeMeters>919</AltitudeMeters>
            <DistanceMeters>NAN</DistanceMeters>
          </Trackpoint>
          <Trackpoint>
            <Time>2019-08-01T11:11:27.000Z</Time>
            <Position>
              <LatitudeDegrees>40.66368349827826023101806640625</LatitudeDegrees>
              <LongitudeDegrees>-4.01099748909473419189453125</LongitudeDegrees>
            </Position>
            <AltitudeMeters>919.20001220703125</AltitudeMeters>
            <DistanceMeters>NAN</DistanceMeters>
          </Trackpoint>
          <Trackpoint>
            <Time>2019-08-01T11:11:28.000Z</Time>
            <Position>
              <LatitudeDegrees>40.66373395733535289764404296875</LatitudeDegrees>
              <LongitudeDegrees>-4.01100260205566883087158203125</LongitudeDegrees>
            </Position>
            <AltitudeMeters>919.5999755859375</AltitudeMeters>
            <DistanceMeters>NAN</DistanceMeters>
          </Trackpoint>
          <Trackpoint>
            <Time>2019-08-01T11:11:29.000Z</Time>
            <Position>
              <LatitudeDegrees>40.6637839972972869873046875</LatitudeDegrees>
              <LongitudeDegrees>-4.01100679300725460052490234375</LongitudeDegrees>
            </Position>
            <AltitudeMeters>919.79998779296875</AltitudeMeters>
            <DistanceMeters>NAN</DistanceMeters>
          </Trackpoint>
          <Trackpoint>
            <Time>2019-08-01T11:11:30.000Z</Time>
            <Position>
              <LatitudeDegrees>40.66383420489728450775146484375</LatitudeDegrees>
              <LongitudeDegrees>-4.011011905968189239501953125</LongitudeDegrees>
            </Position>
            <AltitudeMeters>920</AltitudeMeters>
            <DistanceMeters>NAN</DistanceMeters>
          </Trackpoint>
          <Trackpoint>
            <Time>2019-08-01T11:11:31.000Z</Time>
            <Position>
              <LatitudeDegrees>40.66388533450663089752197265625</LatitudeDegrees>
              <LongitudeDegrees>-4.01101936586201190948486328125</LongitudeDegrees>
            </Position>
            <AltitudeMeters>920.20001220703125</AltitudeMeters>
            <DistanceMeters>NAN</DistanceMeters>
          </Trackpoint>
          <Trackpoint>
            <Time>2019-08-01T11:11:32.000Z</Time>
            <Position>
              <LatitudeDegrees>40.66393814049661159515380859375</LatitudeDegrees>
              <LongitudeDegrees>-4.0110264904797077178955078125</LongitudeDegrees>
            </Position>
            <AltitudeMeters>920.4000244140625</AltitudeMeters>
            <DistanceMeters>NAN</DistanceMeters>
          </Trackpoint>
          <Trackpoint>
            <Time>2019-08-01T11:11:33.000Z</Time>
            <Position>
              <LatitudeDegrees>40.66399027593433856964111328125</LatitudeDegrees>
              <LongitudeDegrees>-4.01103311218321323394775390625</LongitudeDegrees>
            </Position>
            <AltitudeMeters>920.5999755859375</AltitudeMeters>
            <DistanceMeters>NAN</DistanceMeters>
          </Trackpoint>
          <Trackpoint>
            <Time>2019-08-01T11:11:34.000Z</Time>
            <Position>
              <LatitudeDegrees>40.66404283046722412109375</LatitudeDegrees>
              <LongitudeDegrees>-4.0110405720770359039306640625</LongitudeDegrees>
            </Position>
            <AltitudeMeters>920.5999755859375</AltitudeMeters>
            <DistanceMeters>NAN</DistanceMeters>
          </Trackpoint>
          <Trackpoint>
            <Time>2019-08-01T11:11:35.000Z</Time>
            <Position>
              <LatitudeDegrees>40.66409521736204624176025390625</LatitudeDegrees>
              <LongitudeDegrees>-4.01104576885700225830078125</LongitudeDegrees>
            </Position>
            <AltitudeMeters>920.79998779296875</AltitudeMeters>
            <DistanceMeters>NAN</DistanceMeters>
          </Trackpoint>
          <Trackpoint>
            <Time>2019-08-01T11:11:36.000Z</Time>
            <Position>
              <LatitudeDegrees>40.66414819099009037017822265625</LatitudeDegrees>
              <LongitudeDegrees>-4.01105113327503204345703125</LongitudeDegrees>
            </Position>
            <AltitudeMeters>921</AltitudeMeters>
            <DistanceMeters>NAN</DistanceMeters>
          </Trackpoint>
          <Trackpoint>
            <Time>2019-08-01T11:11:37.000Z</Time>
            <Position>
              <LatitudeDegrees>40.664200074970722198486328125</LatitudeDegrees>
              <LongitudeDegrees>-4.011056832969188690185546875</LongitudeDegrees>
            </Position>
            <AltitudeMeters>921.20001220703125</AltitudeMeters>
            <DistanceMeters>NAN</DistanceMeters>
          </Trackpoint>
          <Trackpoint>
            <Time>2019-08-01T11:11:38.000Z</Time>
            <Position>
              <LatitudeDegrees>40.6642518751323223114013671875</LatitudeDegrees>
              <LongitudeDegrees>-4.01106228120625019073486328125</LongitudeDegrees>
            </Position>
            <AltitudeMeters>921.4000244140625</AltitudeMeters>
            <DistanceMeters>NAN</DistanceMeters>
          </Trackpoint>
          <Trackpoint>
            <Time>2019-08-01T11:11:39.000Z</Time>
            <Position>
              <LatitudeDegrees>40.66430208273231983184814453125</LatitudeDegrees>
              <LongitudeDegrees>-4.0110680647194385528564453125</LongitudeDegrees>
            </Position>
            <AltitudeMeters>921.5999755859375</AltitudeMeters>
            <DistanceMeters>NAN</DistanceMeters>
          </Trackpoint>
          <Trackpoint>
            <Time>2019-08-01T11:11:40.000Z</Time>
            <Position>
              <LatitudeDegrees>40.66435572691261768341064453125</LatitudeDegrees>
              <LongitudeDegrees>-4.0110744349658489227294921875</LongitudeDegrees>
            </Position>
            <AltitudeMeters>921.79998779296875</AltitudeMeters>
            <DistanceMeters>NAN</DistanceMeters>
          </Trackpoint>
          <Trackpoint>
            <Time>2019-08-01T11:11:41.000Z</Time>
            <Position>
              <LatitudeDegrees>40.66435572691261768341064453125</LatitudeDegrees>
              <LongitudeDegrees>-4.0110744349658489227294921875</LongitudeDegrees>
            </Position>
            <AltitudeMeters>921.79998779296875</AltitudeMeters>
            <DistanceMeters>NAN</DistanceMeters>
          </Trackpoint>
          <Trackpoint>
            <Time>2019-08-01T11:11:42.000Z</Time>
            <Position>
              <LatitudeDegrees>40.6644617579877376556396484375</LatitudeDegrees>
              <LongitudeDegrees>-4.01108792982995510101318359375</LongitudeDegrees>
            </Position>
            <AltitudeMeters>922</AltitudeMeters>
            <DistanceMeters>NAN</DistanceMeters>
          </Trackpoint>
          <Trackpoint>
            <Time>2019-08-01T11:11:43.000Z</Time>
            <Position>
              <LatitudeDegrees>40.66451347433030605316162109375</LatitudeDegrees>
              <LongitudeDegrees>-4.01109329424798488616943359375</LongitudeDegrees>
            </Position>
            <AltitudeMeters>922</AltitudeMeters>
            <DistanceMeters>NAN</DistanceMeters>
          </Trackpoint>
          <Trackpoint>
            <Time>2019-08-01T11:11:44.000Z</Time>
            <Position>
              <LatitudeDegrees>40.66456426866352558135986328125</LatitudeDegrees>
              <LongitudeDegrees>-4.01109882630407810211181640625</LongitudeDegrees>
            </Position>
            <AltitudeMeters>922</AltitudeMeters>
            <DistanceMeters>NAN</DistanceMeters>
          </Trackpoint>
          <Trackpoint>
            <Time>2019-08-01T11:11:45.000Z</Time>
            <Position>
              <LatitudeDegrees>40.6646156497299671173095703125</LatitudeDegrees>
              <LongitudeDegrees>-4.01110519655048847198486328125</LongitudeDegrees>
            </Position>
            <AltitudeMeters>922.20001220703125</AltitudeMeters>
            <DistanceMeters>NAN</DistanceMeters>
          </Trackpoint>
          <Trackpoint>
            <Time>2019-08-01T11:11:46.000Z</Time>
            <Position>
              <LatitudeDegrees>40.664668790996074676513671875</LatitudeDegrees>
              <LongitudeDegrees>-4.011112153530120849609375</LongitudeDegrees>
            </Position>
            <AltitudeMeters>922.4000244140625</AltitudeMeters>
            <DistanceMeters>NAN</DistanceMeters>
          </Trackpoint>
          <Trackpoint>
            <Time>2019-08-01T11:11:47.000Z</Time>
            <Position>
              <LatitudeDegrees>40.664721429347991943359375</LatitudeDegrees>
              <LongitudeDegrees>-4.01111793704330921173095703125</LongitudeDegrees>
            </Position>
            <AltitudeMeters>922.4000244140625</AltitudeMeters>
            <DistanceMeters>NAN</DistanceMeters>
          </Trackpoint>
          <Trackpoint>
            <Time>2019-08-01T11:11:48.000Z</Time>
            <Position>
              <LatitudeDegrees>40.664774067699909210205078125</LatitudeDegrees>
              <LongitudeDegrees>-4.01112313382327556610107421875</LongitudeDegrees>
            </Position>
            <AltitudeMeters>922.79998779296875</AltitudeMeters>
            <DistanceMeters>NAN</DistanceMeters>
          </Trackpoint>
          <Trackpoint>
            <Time>2019-08-01T11:11:49.000Z</Time>
            <Position>
              <LatitudeDegrees>40.664828382432460784912109375</LatitudeDegrees>
              <LongitudeDegrees>-4.01112623512744903564453125</LongitudeDegrees>
            </Position>
            <AltitudeMeters>923.20001220703125</AltitudeMeters>
            <DistanceMeters>NAN</DistanceMeters>
          </Trackpoint>
          <Trackpoint>
            <Time>2019-08-01T11:11:50.000Z</Time>
            <Position>
              <LatitudeDegrees>40.66488278098404407501220703125</LatitudeDegrees>
              <LongitudeDegrees>-4.0111269056797027587890625</LongitudeDegrees>
            </Position>
            <AltitudeMeters>923.4000244140625</AltitudeMeters>
            <DistanceMeters>NAN</DistanceMeters>
          </Trackpoint>
          <Trackpoint>
            <Time>2019-08-01T11:11:51.000Z</Time>
            <Position>
              <LatitudeDegrees>40.66488278098404407501220703125</LatitudeDegrees>
              <LongitudeDegrees>-4.0111269056797027587890625</LongitudeDegrees>
            </Position>
            <AltitudeMeters>923.4000244140625</AltitudeMeters>
            <DistanceMeters>NAN</DistanceMeters>
          </Trackpoint>
          <Trackpoint>
            <Time>2019-08-01T11:11:52.000Z</Time>
            <Position>
              <LatitudeDegrees>40.66499191336333751678466796875</LatitudeDegrees>
              <LongitudeDegrees>-4.01112380437552928924560546875</LongitudeDegrees>
            </Position>
            <AltitudeMeters>923.5999755859375</AltitudeMeters>
            <DistanceMeters>NAN</DistanceMeters>
          </Trackpoint>
          <Trackpoint>
            <Time>2019-08-01T11:11:53.000Z</Time>
            <Position>
              <LatitudeDegrees>40.66504622809588909149169921875</LatitudeDegrees>
              <LongitudeDegrees>-4.0111188590526580810546875</LongitudeDegrees>
            </Position>
            <AltitudeMeters>923.79998779296875</AltitudeMeters>
            <DistanceMeters>NAN</DistanceMeters>
          </Trackpoint>
          <Trackpoint>
            <Time>2019-08-01T11:11:54.000Z</Time>
            <Position>
              <LatitudeDegrees>40.66510054282844066619873046875</LatitudeDegrees>
              <LongitudeDegrees>-4.01111173443496227264404296875</LongitudeDegrees>
            </Position>
            <AltitudeMeters>924</AltitudeMeters>
            <DistanceMeters>NAN</DistanceMeters>
          </Trackpoint>
          <Trackpoint>
            <Time>2019-08-01T11:11:55.000Z</Time>
            <Position>
              <LatitudeDegrees>40.6651554442942142486572265625</LatitudeDegrees>
              <LongitudeDegrees>-4.0111039392650127410888671875</LongitudeDegrees>
            </Position>
            <AltitudeMeters>924</AltitudeMeters>
            <DistanceMeters>NAN</DistanceMeters>
          </Trackpoint>
          <Trackpoint>
            <Time>2019-08-01T11:11:56.000Z</Time>
            <Position>
              <LatitudeDegrees>40.66520917229354381561279296875</LatitudeDegrees>
              <LongitudeDegrees>-4.0110962279140949249267578125</LongitudeDegrees>
            </Position>
            <AltitudeMeters>924.20001220703125</AltitudeMeters>
            <DistanceMeters>NAN</DistanceMeters>
          </Trackpoint>
          <Trackpoint>
            <Time>2019-08-01T11:11:57.000Z</Time>
            <Position>
              <LatitudeDegrees>40.66526390612125396728515625</LatitudeDegrees>
              <LongitudeDegrees>-4.01108792982995510101318359375</LongitudeDegrees>
            </Position>
            <AltitudeMeters>924.4000244140625</AltitudeMeters>
            <DistanceMeters>NAN</DistanceMeters>
          </Trackpoint>
          <Trackpoint>
            <Time>2019-08-01T11:11:58.000Z</Time>
            <Position>
              <LatitudeDegrees>40.6653183884918689727783203125</LatitudeDegrees>
              <LongitudeDegrees>-4.0110791288316249847412109375</LongitudeDegrees>
            </Position>
            <AltitudeMeters>924.5999755859375</AltitudeMeters>
            <DistanceMeters>NAN</DistanceMeters>
          </Trackpoint>
          <Trackpoint>
            <Time>2019-08-01T11:11:59.000Z</Time>
            <Position>
              <LatitudeDegrees>40.66537144593894481658935546875</LatitudeDegrees>
              <LongitudeDegrees>-4.0110694058239459991455078125</LongitudeDegrees>
            </Position>
            <AltitudeMeters>924.79998779296875</AltitudeMeters>
            <DistanceMeters>NAN</DistanceMeters>
          </Trackpoint>
          <Trackpoint>
            <Time>2019-08-01T11:12:00.000Z</Time>
            <Position>
              <LatitudeDegrees>40.6654229946434497833251953125</LatitudeDegrees>
              <LongitudeDegrees>-4.011059515178203582763671875</LongitudeDegrees>
            </Position>
            <AltitudeMeters>925</AltitudeMeters>
            <DistanceMeters>NAN</DistanceMeters>
          </Trackpoint>
          <Trackpoint>
            <Time>2019-08-01T11:12:01.000Z</Time>
            <Position>
              <LatitudeDegrees>40.66547521390020847320556640625</LatitudeDegrees>
              <LongitudeDegrees>-4.0110499598085880279541015625</LongitudeDegrees>
            </Position>
            <AltitudeMeters>925.20001220703125</AltitudeMeters>
            <DistanceMeters>NAN</DistanceMeters>
          </Trackpoint>
          <Trackpoint>
            <Time>2019-08-01T11:12:02.000Z</Time>
            <Position>
              <LatitudeDegrees>40.6655286066234111785888671875</LatitudeDegrees>
              <LongitudeDegrees>-4.01104132644832134246826171875</LongitudeDegrees>
            </Position>
            <AltitudeMeters>925.20001220703125</AltitudeMeters>
            <DistanceMeters>NAN</DistanceMeters>
          </Trackpoint>
          <Trackpoint>
            <Time>2019-08-01T11:12:03.000Z</Time>
            <Position>
              <LatitudeDegrees>40.66558132879436016082763671875</LatitudeDegrees>
              <LongitudeDegrees>-4.01103244163095951080322265625</LongitudeDegrees>
            </Position>
            <AltitudeMeters>925.20001220703125</AltitudeMeters>
            <DistanceMeters>NAN</DistanceMeters>
          </Trackpoint>
          <Trackpoint>
            <Time>2019-08-01T11:12:04.000Z</Time>
            <Position>
              <LatitudeDegrees>40.6656342186033725738525390625</LatitudeDegrees>
              <LongitudeDegrees>-4.011023975908756256103515625</LongitudeDegrees>
            </Position>
            <AltitudeMeters>925.4000244140625</AltitudeMeters>
            <DistanceMeters>NAN</DistanceMeters>
          </Trackpoint>
          <Trackpoint>
            <Time>2019-08-01T11:12:05.000Z</Time>
            <Position>
              <LatitudeDegrees>40.66568660549819469451904296875</LatitudeDegrees>
              <LongitudeDegrees>-4.01101492345333099365234375</LongitudeDegrees>
            </Position>
            <AltitudeMeters>925.4000244140625</AltitudeMeters>
            <DistanceMeters>NAN</DistanceMeters>
          </Trackpoint>
          <Trackpoint>
            <Time>2019-08-01T11:12:06.000Z</Time>
            <Position>
              <LatitudeDegrees>40.66573739983141422271728515625</LatitudeDegrees>
              <LongitudeDegrees>-4.0110063739120960235595703125</LongitudeDegrees>
            </Position>
            <AltitudeMeters>925.4000244140625</AltitudeMeters>
            <DistanceMeters>NAN</DistanceMeters>
          </Trackpoint>
          <Trackpoint>
            <Time>2019-08-01T11:12:07.000Z</Time>
            <Position>
              <LatitudeDegrees>40.66578601486980915069580078125</LatitudeDegrees>
              <LongitudeDegrees>-4.010997824370861053466796875</LongitudeDegrees>
            </Position>
            <AltitudeMeters>925.5999755859375</AltitudeMeters>
            <DistanceMeters>NAN</DistanceMeters>
          </Trackpoint>
          <Trackpoint>
            <Time>2019-08-01T11:12:08.000Z</Time>
            <Position>
              <LatitudeDegrees>40.66583245061337947845458984375</LatitudeDegrees>
              <LongitudeDegrees>-4.0109889395534992218017578125</LongitudeDegrees>
            </Position>
            <AltitudeMeters>925.79998779296875</AltitudeMeters>
            <DistanceMeters>NAN</DistanceMeters>
          </Trackpoint>
          <Trackpoint>
            <Time>2019-08-01T11:12:09.000Z</Time>
            <Position>
              <LatitudeDegrees>40.665877126157283782958984375</LatitudeDegrees>
              <LongitudeDegrees>-4.01098080910742282867431640625</LongitudeDegrees>
            </Position>
            <AltitudeMeters>925.79998779296875</AltitudeMeters>
            <DistanceMeters>NAN</DistanceMeters>
          </Trackpoint>
          <Trackpoint>
            <Time>2019-08-01T11:12:10.000Z</Time>
            <Position>
              <LatitudeDegrees>40.66592180170118808746337890625</LatitudeDegrees>
              <LongitudeDegrees>-4.01097293011844158172607421875</LongitudeDegrees>
            </Position>
            <AltitudeMeters>926</AltitudeMeters>
            <DistanceMeters>NAN</DistanceMeters>
          </Trackpoint>
          <Trackpoint>
            <Time>2019-08-01T11:12:11.000Z</Time>
            <Position>
              <LatitudeDegrees>40.66596555523574352264404296875</LatitudeDegrees>
              <LongitudeDegrees>-4.01096555404365062713623046875</LongitudeDegrees>
            </Position>
            <AltitudeMeters>926</AltitudeMeters>
            <DistanceMeters>NAN</DistanceMeters>
          </Trackpoint>
          <Trackpoint>
            <Time>2019-08-01T11:12:12.000Z</Time>
            <Position>
              <LatitudeDegrees>40.66600562073290348052978515625</LatitudeDegrees>
              <LongitudeDegrees>-4.0109579265117645263671875</LongitudeDegrees>
            </Position>
            <AltitudeMeters>926.20001220703125</AltitudeMeters>
            <DistanceMeters>NAN</DistanceMeters>
          </Trackpoint>
          <Trackpoint>
            <Time>2019-08-01T11:12:13.000Z</Time>
            <Position>
              <LatitudeDegrees>40.66604317165911197662353515625</LatitudeDegrees>
              <LongitudeDegrees>-4.01094895787537097930908203125</LongitudeDegrees>
            </Position>
            <AltitudeMeters>926.20001220703125</AltitudeMeters>
            <DistanceMeters>NAN</DistanceMeters>
          </Trackpoint>
          <Trackpoint>
            <Time>2019-08-01T11:12:14.000Z</Time>
            <Position>
              <LatitudeDegrees>40.66608038730919361114501953125</LatitudeDegrees>
              <LongitudeDegrees>-4.01094174943864345550537109375</LongitudeDegrees>
            </Position>
            <AltitudeMeters>926.20001220703125</AltitudeMeters>
            <DistanceMeters>NAN</DistanceMeters>
          </Trackpoint>
          <Trackpoint>
            <Time>2019-08-01T11:12:15.000Z</Time>
            <Position>
              <LatitudeDegrees>40.666121207177639007568359375</LatitudeDegrees>
              <LongitudeDegrees>-4.01093537919223308563232421875</LongitudeDegrees>
            </Position>
            <AltitudeMeters>926.4000244140625</AltitudeMeters>
            <DistanceMeters>NAN</DistanceMeters>
          </Trackpoint>
          <Trackpoint>
            <Time>2019-08-01T11:12:16.000Z</Time>
            <Position>
              <LatitudeDegrees>40.66616537980735301971435546875</LatitudeDegrees>
              <LongitudeDegrees>-4.01092900894582271575927734375</LongitudeDegrees>
            </Position>
            <AltitudeMeters>926.5999755859375</AltitudeMeters>
            <DistanceMeters>NAN</DistanceMeters>
          </Trackpoint>
          <Trackpoint>
            <Time>2019-08-01T11:12:17.000Z</Time>
            <Position>
              <LatitudeDegrees>40.66620863042771816253662109375</LatitudeDegrees>
              <LongitudeDegrees>-4.01092196814715862274169921875</LongitudeDegrees>
            </Position>
            <AltitudeMeters>926.79998779296875</AltitudeMeters>
            <DistanceMeters>NAN</DistanceMeters>
          </Trackpoint>
          <Trackpoint>
            <Time>2019-08-01T11:12:18.000Z</Time>
            <Position>
              <LatitudeDegrees>40.66624961793422698974609375</LatitudeDegrees>
              <LongitudeDegrees>-4.01091576553881168365478515625</LongitudeDegrees>
            </Position>
            <AltitudeMeters>927.4000244140625</AltitudeMeters>
            <DistanceMeters>NAN</DistanceMeters>
          </Trackpoint>
          <Trackpoint>
            <Time>2019-08-01T11:12:19.000Z</Time>
            <Position>
              <LatitudeDegrees>40.6662913598120212554931640625</LatitudeDegrees>
              <LongitudeDegrees>-4.01090939529240131378173828125</LongitudeDegrees>
            </Position>
            <AltitudeMeters>927.5999755859375</AltitudeMeters>
            <DistanceMeters>NAN</DistanceMeters>
          </Trackpoint>
          <Trackpoint>
            <Time>2019-08-01T11:12:20.000Z</Time>
            <Position>
              <LatitudeDegrees>40.666332431137561798095703125</LatitudeDegrees>
              <LongitudeDegrees>-4.0109034441411495208740234375</LongitudeDegrees>
            </Position>
            <AltitudeMeters>927.79998779296875</AltitudeMeters>
            <DistanceMeters>NAN</DistanceMeters>
          </Trackpoint>
          <Trackpoint>
            <Time>2019-08-01T11:12:21.000Z</Time>
            <Position>
              <LatitudeDegrees>40.66637358628213405609130859375</LatitudeDegrees>
              <LongitudeDegrees>-4.01089816354215145111083984375</LongitudeDegrees>
            </Position>
            <AltitudeMeters>927.79998779296875</AltitudeMeters>
            <DistanceMeters>NAN</DistanceMeters>
          </Trackpoint>
          <Trackpoint>
            <Time>2019-08-01T11:12:22.000Z</Time>
            <Position>
              <LatitudeDegrees>40.66641583107411861419677734375</LatitudeDegrees>
              <LongitudeDegrees>-4.010893218219280242919921875</LongitudeDegrees>
            </Position>
            <AltitudeMeters>928</AltitudeMeters>
            <DistanceMeters>NAN</DistanceMeters>
          </Trackpoint>
          <Trackpoint>
            <Time>2019-08-01T11:12:23.000Z</Time>
            <Position>
              <LatitudeDegrees>40.66645883023738861083984375</LatitudeDegrees>
              <LongitudeDegrees>-4.010886847972869873046875</LongitudeDegrees>
            </Position>
            <AltitudeMeters>928.20001220703125</AltitudeMeters>
            <DistanceMeters>NAN</DistanceMeters>
          </Trackpoint>
          <Trackpoint>
            <Time>2019-08-01T11:12:24.000Z</Time>
            <Position>
              <LatitudeDegrees>40.6665010750293731689453125</LatitudeDegrees>
              <LongitudeDegrees>-4.010881148278713226318359375</LongitudeDegrees>
            </Position>
            <AltitudeMeters>928.5999755859375</AltitudeMeters>
            <DistanceMeters>NAN</DistanceMeters>
          </Trackpoint>
          <Trackpoint>
            <Time>2019-08-01T11:12:25.000Z</Time>
            <Position>
              <LatitudeDegrees>40.6665424816310405731201171875</LatitudeDegrees>
              <LongitudeDegrees>-4.0108739398419857025146484375</LongitudeDegrees>
            </Position>
            <AltitudeMeters>928.79998779296875</AltitudeMeters>
            <DistanceMeters>NAN</DistanceMeters>
          </Trackpoint>
          <Trackpoint>
            <Time>2019-08-01T11:12:26.000Z</Time>
            <Position>
              <LatitudeDegrees>40.6665850616991519927978515625</LatitudeDegrees>
              <LongitudeDegrees>-4.01086664758622646331787109375</LongitudeDegrees>
            </Position>
            <AltitudeMeters>929.20001220703125</AltitudeMeters>
            <DistanceMeters>NAN</DistanceMeters>
          </Trackpoint>
          <Trackpoint>
            <Time>2019-08-01T11:12:27.000Z</Time>
            <Position>
              <LatitudeDegrees>40.6666263006627559661865234375</LatitudeDegrees>
              <LongitudeDegrees>-4.01086161844432353973388671875</LongitudeDegrees>
            </Position>
            <AltitudeMeters>929.4000244140625</AltitudeMeters>
            <DistanceMeters>NAN</DistanceMeters>
          </Trackpoint>
          <Trackpoint>
            <Time>2019-08-01T11:12:28.000Z</Time>
            <Position>
              <LatitudeDegrees>40.6666692160069942474365234375</LatitudeDegrees>
              <LongitudeDegrees>-4.0108554996550083160400390625</LongitudeDegrees>
            </Position>
            <AltitudeMeters>929.5999755859375</AltitudeMeters>
            <DistanceMeters>NAN</DistanceMeters>
          </Trackpoint>
          <Trackpoint>
            <Time>2019-08-01T11:12:29.000Z</Time>
            <Position>
              <LatitudeDegrees>40.66671204753220081329345703125</LatitudeDegrees>
              <LongitudeDegrees>-4.01085021905601024627685546875</LongitudeDegrees>
            </Position>
            <AltitudeMeters>930</AltitudeMeters>
            <DistanceMeters>NAN</DistanceMeters>
          </Trackpoint>
          <Trackpoint>
            <Time>2019-08-01T11:12:30.000Z</Time>
            <Position>
              <LatitudeDegrees>40.66675278358161449432373046875</LatitudeDegrees>
              <LongitudeDegrees>-4.010844938457012176513671875</LongitudeDegrees>
            </Position>
            <AltitudeMeters>930.20001220703125</AltitudeMeters>
            <DistanceMeters>NAN</DistanceMeters>
          </Trackpoint>
          <Trackpoint>
            <Time>2019-08-01T11:12:31.000Z</Time>
            <Position>
              <LatitudeDegrees>40.6667946092784404754638671875</LatitudeDegrees>
              <LongitudeDegrees>-4.01083814911544322967529296875</LongitudeDegrees>
            </Position>
            <AltitudeMeters>930.5999755859375</AltitudeMeters>
            <DistanceMeters>NAN</DistanceMeters>
          </Trackpoint>
          <Trackpoint>
            <Time>2019-08-01T11:12:32.000Z</Time>
            <Position>
              <LatitudeDegrees>40.6668348424136638641357421875</LatitudeDegrees>
              <LongitudeDegrees>-4.0108316950500011444091796875</LongitudeDegrees>
            </Position>
            <AltitudeMeters>930.79998779296875</AltitudeMeters>
            <DistanceMeters>NAN</DistanceMeters>
          </Trackpoint>
          <Trackpoint>
            <Time>2019-08-01T11:12:33.000Z</Time>
            <Position>
              <LatitudeDegrees>40.6668739020824432373046875</LatitudeDegrees>
              <LongitudeDegrees>-4.01082423515617847442626953125</LongitudeDegrees>
            </Position>
            <AltitudeMeters>931.20001220703125</AltitudeMeters>
            <DistanceMeters>NAN</DistanceMeters>
          </Trackpoint>
          <Trackpoint>
            <Time>2019-08-01T11:12:34.000Z</Time>
            <Position>
              <LatitudeDegrees>40.66691220737993717193603515625</LatitudeDegrees>
              <LongitudeDegrees>-4.010818116366863250732421875</LongitudeDegrees>
            </Position>
            <AltitudeMeters>931.4000244140625</AltitudeMeters>
            <DistanceMeters>NAN</DistanceMeters>
          </Trackpoint>
          <Trackpoint>
            <Time>2019-08-01T11:12:35.000Z</Time>
            <Position>
              <LatitudeDegrees>40.66694942303001880645751953125</LatitudeDegrees>
              <LongitudeDegrees>-4.01081132702529430389404296875</LongitudeDegrees>
            </Position>
            <AltitudeMeters>931.5999755859375</AltitudeMeters>
            <DistanceMeters>NAN</DistanceMeters>
          </Trackpoint>
          <Trackpoint>
            <Time>2019-08-01T11:12:36.000Z</Time>
            <Position>
              <LatitudeDegrees>40.6669880636036396026611328125</LatitudeDegrees>
              <LongitudeDegrees>-4.0108052082359790802001953125</LongitudeDegrees>
            </Position>
            <AltitudeMeters>931.79998779296875</AltitudeMeters>
            <DistanceMeters>NAN</DistanceMeters>
          </Trackpoint>
          <Trackpoint>
            <Time>2019-08-01T11:12:37.000Z</Time>
            <Position>
              <LatitudeDegrees>40.6670256145298480987548828125</LatitudeDegrees>
              <LongitudeDegrees>-4.01079858653247356414794921875</LongitudeDegrees>
            </Position>
            <AltitudeMeters>932</AltitudeMeters>
            <DistanceMeters>NAN</DistanceMeters>
          </Trackpoint>
          <Trackpoint>
            <Time>2019-08-01T11:12:38.000Z</Time>
            <Position>
              <LatitudeDegrees>40.66706459037959575653076171875</LatitudeDegrees>
              <LongitudeDegrees>-4.01079221628606319427490234375</LongitudeDegrees>
            </Position>
            <AltitudeMeters>932.20001220703125</AltitudeMeters>
            <DistanceMeters>NAN</DistanceMeters>
          </Trackpoint>
          <Trackpoint>
            <Time>2019-08-01T11:12:39.000Z</Time>
            <Position>
              <LatitudeDegrees>40.66710314713418483734130859375</LatitudeDegrees>
              <LongitudeDegrees>-4.01078567840158939361572265625</LongitudeDegrees>
            </Position>
            <AltitudeMeters>932.5999755859375</AltitudeMeters>
            <DistanceMeters>NAN</DistanceMeters>
          </Trackpoint>
          <Trackpoint>
            <Time>2019-08-01T11:12:40.000Z</Time>
            <Position>
              <LatitudeDegrees>40.6671416200697422027587890625</LatitudeDegrees>
              <LongitudeDegrees>-4.010779224336147308349609375</LongitudeDegrees>
            </Position>
            <AltitudeMeters>932.79998779296875</AltitudeMeters>
            <DistanceMeters>NAN</DistanceMeters>
          </Trackpoint>
          <Trackpoint>
            <Time>2019-08-01T11:12:41.000Z</Time>
            <Position>
              <LatitudeDegrees>40.66718093119561672210693359375</LatitudeDegrees>
              <LongitudeDegrees>-4.01077377609908580780029296875</LongitudeDegrees>
            </Position>
            <AltitudeMeters>933</AltitudeMeters>
            <DistanceMeters>NAN</DistanceMeters>
          </Trackpoint>
          <Trackpoint>
            <Time>2019-08-01T11:12:42.000Z</Time>
            <Position>
              <LatitudeDegrees>40.6672194041311740875244140625</LatitudeDegrees>
              <LongitudeDegrees>-4.0107673220336437225341796875</LongitudeDegrees>
            </Position>
            <AltitudeMeters>933.20001220703125</AltitudeMeters>
            <DistanceMeters>NAN</DistanceMeters>
          </Trackpoint>
          <Trackpoint>
            <Time>2019-08-01T11:12:43.000Z</Time>
            <Position>
              <LatitudeDegrees>40.66725821234285831451416015625</LatitudeDegrees>
              <LongitudeDegrees>-4.0107606165111064910888671875</LongitudeDegrees>
            </Position>
            <AltitudeMeters>933.5999755859375</AltitudeMeters>
            <DistanceMeters>NAN</DistanceMeters>
          </Trackpoint>
          <Trackpoint>
            <Time>2019-08-01T11:12:44.000Z</Time>
            <Position>
              <LatitudeDegrees>40.66729626618325710296630859375</LatitudeDegrees>
              <LongitudeDegrees>-4.01075550355017185211181640625</LongitudeDegrees>
            </Position>
            <AltitudeMeters>933.79998779296875</AltitudeMeters>
            <DistanceMeters>NAN</DistanceMeters>
          </Trackpoint>
          <Trackpoint>
            <Time>2019-08-01T11:12:45.000Z</Time>
            <Position>
              <LatitudeDegrees>40.66733448766171932220458984375</LatitudeDegrees>
              <LongitudeDegrees>-4.01075080968439579010009765625</LongitudeDegrees>
            </Position>
            <AltitudeMeters>934</AltitudeMeters>
            <DistanceMeters>NAN</DistanceMeters>
          </Trackpoint>
          <Trackpoint>
            <Time>2019-08-01T11:12:46.000Z</Time>
            <Position>
              <LatitudeDegrees>40.6673722900450229644775390625</LatitudeDegrees>
              <LongitudeDegrees>-4.01074611581861972808837890625</LongitudeDegrees>
            </Position>
            <AltitudeMeters>934</AltitudeMeters>
            <DistanceMeters>NAN</DistanceMeters>
          </Trackpoint>
          <Trackpoint>
            <Time>2019-08-01T11:12:47.000Z</Time>
            <Position>
              <LatitudeDegrees>40.66740992479026317596435546875</LatitudeDegrees>
              <LongitudeDegrees>-4.0107401646673679351806640625</LongitudeDegrees>
            </Position>
            <AltitudeMeters>934.5999755859375</AltitudeMeters>
            <DistanceMeters>NAN</DistanceMeters>
          </Trackpoint>
          <Trackpoint>
            <Time>2019-08-01T11:12:48.000Z</Time>
            <Position>
              <LatitudeDegrees>40.66744630225002765655517578125</LatitudeDegrees>
              <LongitudeDegrees>-4.0107337944209575653076171875</LongitudeDegrees>
            </Position>
            <AltitudeMeters>935</AltitudeMeters>
            <DistanceMeters>NAN</DistanceMeters>
          </Trackpoint>
          <Trackpoint>
            <Time>2019-08-01T11:12:49.000Z</Time>
            <Position>
              <LatitudeDegrees>40.66748184151947498321533203125</LatitudeDegrees>
              <LongitudeDegrees>-4.0107272565364837646484375</LongitudeDegrees>
            </Position>
            <AltitudeMeters>935.4000244140625</AltitudeMeters>
            <DistanceMeters>NAN</DistanceMeters>
          </Trackpoint>
          <Trackpoint>
            <Time>2019-08-01T11:12:50.000Z</Time>
            <Position>
              <LatitudeDegrees>40.66751603968441486358642578125</LatitudeDegrees>
              <LongitudeDegrees>-4.01072130538523197174072265625</LongitudeDegrees>
            </Position>
            <AltitudeMeters>935.79998779296875</AltitudeMeters>
            <DistanceMeters>NAN</DistanceMeters>
          </Trackpoint>
          <Trackpoint>
            <Time>2019-08-01T11:12:51.000Z</Time>
            <Position>
              <LatitudeDegrees>40.6675489805638790130615234375</LatitudeDegrees>
              <LongitudeDegrees>-4.0107165277004241943359375</LongitudeDegrees>
            </Position>
            <AltitudeMeters>936</AltitudeMeters>
            <DistanceMeters>NAN</DistanceMeters>
          </Trackpoint>
          <Trackpoint>
            <Time>2019-08-01T11:12:52.000Z</Time>
            <Position>
              <LatitudeDegrees>40.66758091561496257781982421875</LatitudeDegrees>
              <LongitudeDegrees>-4.0107103250920772552490234375</LongitudeDegrees>
            </Position>
            <AltitudeMeters>936.5999755859375</AltitudeMeters>
            <DistanceMeters>NAN</DistanceMeters>
          </Trackpoint>
          <Trackpoint>
            <Time>2019-08-01T11:12:53.000Z</Time>
            <Position>
              <LatitudeDegrees>40.6676116771996021270751953125</LatitudeDegrees>
              <LongitudeDegrees>-4.010704122483730316162109375</LongitudeDegrees>
            </Position>
            <AltitudeMeters>937</AltitudeMeters>
            <DistanceMeters>NAN</DistanceMeters>
          </Trackpoint>
          <Trackpoint>
            <Time>2019-08-01T11:12:54.000Z</Time>
            <Position>
              <LatitudeDegrees>40.66764880903065204620361328125</LatitudeDegrees>
              <LongitudeDegrees>-4.01070085354149341583251953125</LongitudeDegrees>
            </Position>
            <AltitudeMeters>937.4000244140625</AltitudeMeters>
            <DistanceMeters>NAN</DistanceMeters>
          </Trackpoint>
          <Trackpoint>
            <Time>2019-08-01T11:12:55.000Z</Time>
            <Position>
              <LatitudeDegrees>40.667682923376560211181640625</LatitudeDegrees>
              <LongitudeDegrees>-4.01069565676152706146240234375</LongitudeDegrees>
            </Position>
            <AltitudeMeters>937.79998779296875</AltitudeMeters>
            <DistanceMeters>NAN</DistanceMeters>
          </Trackpoint>
          <Trackpoint>
            <Time>2019-08-01T11:12:56.000Z</Time>
            <Position>
              <LatitudeDegrees>40.667715109884738922119140625</LatitudeDegrees>
              <LongitudeDegrees>-4.0106908790767192840576171875</LongitudeDegrees>
            </Position>
            <AltitudeMeters>938.20001220703125</AltitudeMeters>
            <DistanceMeters>NAN</DistanceMeters>
          </Trackpoint>
          <Trackpoint>
            <Time>2019-08-01T11:12:57.000Z</Time>
            <Position>
              <LatitudeDegrees>40.66774738021194934844970703125</LatitudeDegrees>
              <LongitudeDegrees>-4.010688364505767822265625</LongitudeDegrees>
            </Position>
            <AltitudeMeters>938.5999755859375</AltitudeMeters>
            <DistanceMeters>NAN</DistanceMeters>
          </Trackpoint>
          <Trackpoint>
            <Time>2019-08-01T11:12:58.000Z</Time>
            <Position>
              <LatitudeDegrees>40.6677769683301448822021484375</LatitudeDegrees>
              <LongitudeDegrees>-4.01068501174449920654296875</LongitudeDegrees>
            </Position>
            <AltitudeMeters>939</AltitudeMeters>
            <DistanceMeters>NAN</DistanceMeters>
          </Trackpoint>
          <Trackpoint>
            <Time>2019-08-01T11:12:59.000Z</Time>
            <Position>
              <LatitudeDegrees>40.667808316648006439208984375</LatitudeDegrees>
              <LongitudeDegrees>-4.0106804855167865753173828125</LongitudeDegrees>
            </Position>
            <AltitudeMeters>939.4000244140625</AltitudeMeters>
            <DistanceMeters>NAN</DistanceMeters>
          </Trackpoint>
          <Trackpoint>
            <Time>2019-08-01T11:13:00.000Z</Time>
            <Position>
              <LatitudeDegrees>40.667841173708438873291015625</LatitudeDegrees>
              <LongitudeDegrees>-4.0106764622032642364501953125</LongitudeDegrees>
            </Position>
            <AltitudeMeters>939.79998779296875</AltitudeMeters>
            <DistanceMeters>NAN</DistanceMeters>
          </Trackpoint>
          <Trackpoint>
            <Time>2019-08-01T11:13:01.000Z</Time>
            <Position>
              <LatitudeDegrees>40.667875707149505615234375</LatitudeDegrees>
              <LongitudeDegrees>-4.01067503727972507476806640625</LongitudeDegrees>
            </Position>
            <AltitudeMeters>940</AltitudeMeters>
            <DistanceMeters>NAN</DistanceMeters>
          </Trackpoint>
          <Trackpoint>
            <Time>2019-08-01T11:13:02.000Z</Time>
            <Position>
              <LatitudeDegrees>40.66790931858122348785400390625</LatitudeDegrees>
              <LongitudeDegrees>-4.010673947632312774658203125</LongitudeDegrees>
            </Position>
            <AltitudeMeters>940.20001220703125</AltitudeMeters>
            <DistanceMeters>NAN</DistanceMeters>
          </Trackpoint>
          <Trackpoint>
            <Time>2019-08-01T11:13:03.000Z</Time>
            <Position>
              <LatitudeDegrees>40.667945444583892822265625</LatitudeDegrees>
              <LongitudeDegrees>-4.0106721036136150360107421875</LongitudeDegrees>
            </Position>
            <AltitudeMeters>940.5999755859375</AltitudeMeters>
            <DistanceMeters>NAN</DistanceMeters>
          </Trackpoint>
          <Trackpoint>
            <Time>2019-08-01T11:13:04.000Z</Time>
            <Position>
              <LatitudeDegrees>40.66798408515751361846923828125</LatitudeDegrees>
              <LongitudeDegrees>-4.0106717683374881744384765625</LongitudeDegrees>
            </Position>
            <AltitudeMeters>940.79998779296875</AltitudeMeters>
            <DistanceMeters>NAN</DistanceMeters>
          </Trackpoint>
          <Trackpoint>
            <Time>2019-08-01T11:13:05.000Z</Time>
            <Position>
              <LatitudeDegrees>40.66798408515751361846923828125</LatitudeDegrees>
              <LongitudeDegrees>-4.0106717683374881744384765625</LongitudeDegrees>
            </Position>
            <AltitudeMeters>941</AltitudeMeters>
            <DistanceMeters>NAN</DistanceMeters>
          </Trackpoint>
          <Trackpoint>
            <Time>2019-08-01T11:13:06.000Z</Time>
            <Position>
              <LatitudeDegrees>40.66806656308472156524658203125</LatitudeDegrees>
              <LongitudeDegrees>-4.01067403145134449005126953125</LongitudeDegrees>
            </Position>
            <AltitudeMeters>941.20001220703125</AltitudeMeters>
            <DistanceMeters>NAN</DistanceMeters>
          </Trackpoint>
          <Trackpoint>
            <Time>2019-08-01T11:13:07.000Z</Time>
            <Position>
              <LatitudeDegrees>40.66810880787670612335205078125</LatitudeDegrees>
              <LongitudeDegrees>-4.0106762945652008056640625</LongitudeDegrees>
            </Position>
            <AltitudeMeters>941.79998779296875</AltitudeMeters>
            <DistanceMeters>NAN</DistanceMeters>
          </Trackpoint>
          <Trackpoint>
            <Time>2019-08-01T11:13:08.000Z</Time>
            <Position>
              <LatitudeDegrees>40.6681506335735321044921875</LatitudeDegrees>
              <LongitudeDegrees>-4.010677970945835113525390625</LongitudeDegrees>
            </Position>
            <AltitudeMeters>942.20001220703125</AltitudeMeters>
            <DistanceMeters>NAN</DistanceMeters>
          </Trackpoint>
          <Trackpoint>
            <Time>2019-08-01T11:13:09.000Z</Time>
            <Position>
              <LatitudeDegrees>40.66819287836551666259765625</LatitudeDegrees>
              <LongitudeDegrees>-4.010679312050342559814453125</LongitudeDegrees>
            </Position>
            <AltitudeMeters>942.4000244140625</AltitudeMeters>
            <DistanceMeters>NAN</DistanceMeters>
          </Trackpoint>
          <Trackpoint>
            <Time>2019-08-01T11:13:10.000Z</Time>
            <Position>
              <LatitudeDegrees>40.6682369671761989593505859375</LatitudeDegrees>
              <LongitudeDegrees>-4.01068073697388172149658203125</LongitudeDegrees>
            </Position>
            <AltitudeMeters>942.5999755859375</AltitudeMeters>
            <DistanceMeters>NAN</DistanceMeters>
          </Trackpoint>
          <Trackpoint>
            <Time>2019-08-01T11:13:11.000Z</Time>
            <Position>
              <LatitudeDegrees>40.668281726539134979248046875</LatitudeDegrees>
              <LongitudeDegrees>-4.010682664811611175537109375</LongitudeDegrees>
            </Position>
            <AltitudeMeters>942.79998779296875</AltitudeMeters>
            <DistanceMeters>NAN</DistanceMeters>
          </Trackpoint>
          <Trackpoint>
            <Time>2019-08-01T11:13:12.000Z</Time>
            <Position>
              <LatitudeDegrees>40.668281726539134979248046875</LatitudeDegrees>
              <LongitudeDegrees>-4.010682664811611175537109375</LongitudeDegrees>
            </Position>
            <AltitudeMeters>943</AltitudeMeters>
            <DistanceMeters>NAN</DistanceMeters>
          </Trackpoint>
          <Trackpoint>
            <Time>2019-08-01T11:13:13.000Z</Time>
            <Position>
              <LatitudeDegrees>40.66837099380791187286376953125</LatitudeDegrees>
              <LongitudeDegrees>-4.01068903505802154541015625</LongitudeDegrees>
            </Position>
            <AltitudeMeters>943.20001220703125</AltitudeMeters>
            <DistanceMeters>NAN</DistanceMeters>
          </Trackpoint>
          <Trackpoint>
            <Time>2019-08-01T11:13:14.000Z</Time>
            <Position>
              <LatitudeDegrees>40.6684160046279430389404296875</LatitudeDegrees>
              <LongitudeDegrees>-4.01069280691444873809814453125</LongitudeDegrees>
            </Position>
            <AltitudeMeters>943.4000244140625</AltitudeMeters>
            <DistanceMeters>NAN</DistanceMeters>
          </Trackpoint>
          <Trackpoint>
            <Time>2019-08-01T11:13:15.000Z</Time>
            <Position>
              <LatitudeDegrees>40.66846109926700592041015625</LatitudeDegrees>
              <LongitudeDegrees>-4.01069548912346363067626953125</LongitudeDegrees>
            </Position>
            <AltitudeMeters>943.5999755859375</AltitudeMeters>
            <DistanceMeters>NAN</DistanceMeters>
          </Trackpoint>
          <Trackpoint>
            <Time>2019-08-01T11:13:16.000Z</Time>
            <Position>
              <LatitudeDegrees>40.66850694827735424041748046875</LatitudeDegrees>
              <LongitudeDegrees>-4.01069766841828823089599609375</LongitudeDegrees>
            </Position>
            <AltitudeMeters>943.5999755859375</AltitudeMeters>
            <DistanceMeters>NAN</DistanceMeters>
          </Trackpoint>
          <Trackpoint>
            <Time>2019-08-01T11:13:17.000Z</Time>
            <Position>
              <LatitudeDegrees>40.6685531325638294219970703125</LatitudeDegrees>
              <LongitudeDegrees>-4.01070018298923969268798828125</LongitudeDegrees>
            </Position>
            <AltitudeMeters>943.79998779296875</AltitudeMeters>
            <DistanceMeters>NAN</DistanceMeters>
          </Trackpoint>
          <Trackpoint>
            <Time>2019-08-01T11:13:18.000Z</Time>
            <Position>
              <LatitudeDegrees>40.6685531325638294219970703125</LatitudeDegrees>
              <LongitudeDegrees>-4.01070018298923969268798828125</LongitudeDegrees>
            </Position>
            <AltitudeMeters>944</AltitudeMeters>
            <DistanceMeters>NAN</DistanceMeters>
          </Trackpoint>
          <Trackpoint>
            <Time>2019-08-01T11:13:19.000Z</Time>
            <Position>
              <LatitudeDegrees>40.66864541731774806976318359375</LatitudeDegrees>
              <LongitudeDegrees>-4.0107066370546817779541015625</LongitudeDegrees>
            </Position>
            <AltitudeMeters>944</AltitudeMeters>
            <DistanceMeters>NAN</DistanceMeters>
          </Trackpoint>
          <Trackpoint>
            <Time>2019-08-01T11:13:20.000Z</Time>
            <Position>
              <LatitudeDegrees>40.66869151778519153594970703125</LatitudeDegrees>
              <LongitudeDegrees>-4.01071024127304553985595703125</LongitudeDegrees>
            </Position>
            <AltitudeMeters>944.20001220703125</AltitudeMeters>
            <DistanceMeters>NAN</DistanceMeters>
          </Trackpoint>
          <Trackpoint>
            <Time>2019-08-01T11:13:21.000Z</Time>
            <Position>
              <LatitudeDegrees>40.66869151778519153594970703125</LatitudeDegrees>
              <LongitudeDegrees>-4.01071024127304553985595703125</LongitudeDegrees>
            </Position>
            <AltitudeMeters>944.4000244140625</AltitudeMeters>
            <DistanceMeters>NAN</DistanceMeters>
          </Trackpoint>
          <Trackpoint>
            <Time>2019-08-01T11:13:22.000Z</Time>
            <Position>
              <LatitudeDegrees>40.66878438927233219146728515625</LatitudeDegrees>
              <LongitudeDegrees>-4.01071711443364620208740234375</LongitudeDegrees>
            </Position>
            <AltitudeMeters>944.5999755859375</AltitudeMeters>
            <DistanceMeters>NAN</DistanceMeters>
          </Trackpoint>
          <Trackpoint>
            <Time>2019-08-01T11:13:23.000Z</Time>
            <Position>
              <LatitudeDegrees>40.66882981918752193450927734375</LatitudeDegrees>
              <LongitudeDegrees>-4.010720886290073394775390625</LongitudeDegrees>
            </Position>
            <AltitudeMeters>944.79998779296875</AltitudeMeters>
            <DistanceMeters>NAN</DistanceMeters>
          </Trackpoint>
          <Trackpoint>
            <Time>2019-08-01T11:13:24.000Z</Time>
            <Position>
              <LatitudeDegrees>40.6688746623694896697998046875</LatitudeDegrees>
              <LongitudeDegrees>-4.01072432287037372589111328125</LongitudeDegrees>
            </Position>
            <AltitudeMeters>944.79998779296875</AltitudeMeters>
            <DistanceMeters>NAN</DistanceMeters>
          </Trackpoint>
          <Trackpoint>
            <Time>2019-08-01T11:13:25.000Z</Time>
            <Position>
              <LatitudeDegrees>40.66892017610371112823486328125</LatitudeDegrees>
              <LongitudeDegrees>-4.01072650216519832611083984375</LongitudeDegrees>
            </Position>
            <AltitudeMeters>945</AltitudeMeters>
            <DistanceMeters>NAN</DistanceMeters>
          </Trackpoint>
          <Trackpoint>
            <Time>2019-08-01T11:13:26.000Z</Time>
            <Position>
              <LatitudeDegrees>40.66896594129502773284912109375</LatitudeDegrees>
              <LongitudeDegrees>-4.01072868146002292633056640625</LongitudeDegrees>
            </Position>
            <AltitudeMeters>945</AltitudeMeters>
            <DistanceMeters>NAN</DistanceMeters>
          </Trackpoint>
          <Trackpoint>
            <Time>2019-08-01T11:13:27.000Z</Time>
            <Position>
              <LatitudeDegrees>40.66901422105729579925537109375</LatitudeDegrees>
              <LongitudeDegrees>-4.01073253713548183441162109375</LongitudeDegrees>
            </Position>
            <AltitudeMeters>945.20001220703125</AltitudeMeters>
            <DistanceMeters>NAN</DistanceMeters>
          </Trackpoint>
          <Trackpoint>
            <Time>2019-08-01T11:13:28.000Z</Time>
            <Position>
              <LatitudeDegrees>40.66901422105729579925537109375</LatitudeDegrees>
              <LongitudeDegrees>-4.01073253713548183441162109375</LongitudeDegrees>
            </Position>
            <AltitudeMeters>945.20001220703125</AltitudeMeters>
            <DistanceMeters>NAN</DistanceMeters>
          </Trackpoint>
          <Trackpoint>
            <Time>2019-08-01T11:13:29.000Z</Time>
            <Position>
              <LatitudeDegrees>40.669108517467975616455078125</LatitudeDegrees>
              <LongitudeDegrees>-4.01073999702930450439453125</LongitudeDegrees>
            </Position>
            <AltitudeMeters>945.4000244140625</AltitudeMeters>
            <DistanceMeters>NAN</DistanceMeters>
          </Trackpoint>
          <Trackpoint>
            <Time>2019-08-01T11:13:30.000Z</Time>
            <Position>
              <LatitudeDegrees>40.66915520466864109039306640625</LatitudeDegrees>
              <LongitudeDegrees>-4.0107425116002559661865234375</LongitudeDegrees>
            </Position>
            <AltitudeMeters>945.4000244140625</AltitudeMeters>
            <DistanceMeters>NAN</DistanceMeters>
          </Trackpoint>
          <Trackpoint>
            <Time>2019-08-01T11:13:31.000Z</Time>
            <Position>
              <LatitudeDegrees>40.66920080222189426422119140625</LatitudeDegrees>
              <LongitudeDegrees>-4.01074544526636600494384765625</LongitudeDegrees>
            </Position>
            <AltitudeMeters>945.5999755859375</AltitudeMeters>
            <DistanceMeters>NAN</DistanceMeters>
          </Trackpoint>
          <Trackpoint>
            <Time>2019-08-01T11:13:32.000Z</Time>
            <Position>
              <LatitudeDegrees>40.66924623213708400726318359375</LatitudeDegrees>
              <LongitudeDegrees>-4.01074963621795177459716796875</LongitudeDegrees>
            </Position>
            <AltitudeMeters>945.79998779296875</AltitudeMeters>
            <DistanceMeters>NAN</DistanceMeters>
          </Trackpoint>
          <Trackpoint>
            <Time>2019-08-01T11:13:33.000Z</Time>
            <Position>
              <LatitudeDegrees>40.66929199732840061187744140625</LatitudeDegrees>
              <LongitudeDegrees>-4.0107535757124423980712890625</LongitudeDegrees>
            </Position>
            <AltitudeMeters>946</AltitudeMeters>
            <DistanceMeters>NAN</DistanceMeters>
          </Trackpoint>
          <Trackpoint>
            <Time>2019-08-01T11:13:34.000Z</Time>
            <Position>
              <LatitudeDegrees>40.66933776251971721649169921875</LatitudeDegrees>
              <LongitudeDegrees>-4.0107559226453304290771484375</LongitudeDegrees>
            </Position>
            <AltitudeMeters>946.20001220703125</AltitudeMeters>
            <DistanceMeters>NAN</DistanceMeters>
          </Trackpoint>
          <Trackpoint>
            <Time>2019-08-01T11:13:35.000Z</Time>
            <Position>
              <LatitudeDegrees>40.6693836115300655364990234375</LatitudeDegrees>
              <LongitudeDegrees>-4.010758101940155029296875</LongitudeDegrees>
            </Position>
            <AltitudeMeters>946.79998779296875</AltitudeMeters>
            <DistanceMeters>NAN</DistanceMeters>
          </Trackpoint>
          <Trackpoint>
            <Time>2019-08-01T11:13:36.000Z</Time>
            <Position>
              <LatitudeDegrees>40.6694300472736358642578125</LatitudeDegrees>
              <LongitudeDegrees>-4.01076053269207477569580078125</LongitudeDegrees>
            </Position>
            <AltitudeMeters>946.79998779296875</AltitudeMeters>
            <DistanceMeters>NAN</DistanceMeters>
          </Trackpoint>
          <Trackpoint>
            <Time>2019-08-01T11:13:37.000Z</Time>
            <Position>
              <LatitudeDegrees>40.66947556100785732269287109375</LatitudeDegrees>
              <LongitudeDegrees>-4.01076279580593109130859375</LongitudeDegrees>
            </Position>
            <AltitudeMeters>947</AltitudeMeters>
            <DistanceMeters>NAN</DistanceMeters>
          </Trackpoint>
          <Trackpoint>
            <Time>2019-08-01T11:13:38.000Z</Time>
            <Position>
              <LatitudeDegrees>40.669522248208522796630859375</LatitudeDegrees>
              <LongitudeDegrees>-4.01076489128172397613525390625</LongitudeDegrees>
            </Position>
            <AltitudeMeters>947</AltitudeMeters>
            <DistanceMeters>NAN</DistanceMeters>
          </Trackpoint>
          <Trackpoint>
            <Time>2019-08-01T11:13:39.000Z</Time>
            <Position>
              <LatitudeDegrees>40.6695683486759662628173828125</LatitudeDegrees>
              <LongitudeDegrees>-4.01076774112880229949951171875</LongitudeDegrees>
            </Position>
            <AltitudeMeters>947.20001220703125</AltitudeMeters>
            <DistanceMeters>NAN</DistanceMeters>
          </Trackpoint>
          <Trackpoint>
            <Time>2019-08-01T11:13:40.000Z</Time>
            <Position>
              <LatitudeDegrees>40.66961453296244144439697265625</LatitudeDegrees>
              <LongitudeDegrees>-4.01077126152813434600830078125</LongitudeDegrees>
            </Position>
            <AltitudeMeters>947.5999755859375</AltitudeMeters>
            <DistanceMeters>NAN</DistanceMeters>
          </Trackpoint>
          <Trackpoint>
            <Time>2019-08-01T11:13:41.000Z</Time>
            <Position>
              <LatitudeDegrees>40.66966004669666290283203125</LatitudeDegrees>
              <LongitudeDegrees>-4.01077461428940296173095703125</LongitudeDegrees>
            </Position>
            <AltitudeMeters>948</AltitudeMeters>
            <DistanceMeters>NAN</DistanceMeters>
          </Trackpoint>
          <Trackpoint>
            <Time>2019-08-01T11:13:42.000Z</Time>
            <Position>
              <LatitudeDegrees>40.66970572806894779205322265625</LatitudeDegrees>
              <LongitudeDegrees>-4.01077754795551300048828125</LongitudeDegrees>
            </Position>
            <AltitudeMeters>948.20001220703125</AltitudeMeters>
            <DistanceMeters>NAN</DistanceMeters>
          </Trackpoint>
          <Trackpoint>
            <Time>2019-08-01T11:13:43.000Z</Time>
            <Position>
              <LatitudeDegrees>40.66975082270801067352294921875</LatitudeDegrees>
              <LongitudeDegrees>-4.010781235992908477783203125</LongitudeDegrees>
            </Position>
            <AltitudeMeters>948.4000244140625</AltitudeMeters>
            <DistanceMeters>NAN</DistanceMeters>
          </Trackpoint>
          <Trackpoint>
            <Time>2019-08-01T11:13:44.000Z</Time>
            <Position>
              <LatitudeDegrees>40.6697936542332172393798828125</LatitudeDegrees>
              <LongitudeDegrees>-4.01078517548739910125732421875</LongitudeDegrees>
            </Position>
            <AltitudeMeters>948.4000244140625</AltitudeMeters>
            <DistanceMeters>NAN</DistanceMeters>
          </Trackpoint>
          <Trackpoint>
            <Time>2019-08-01T11:13:45.000Z</Time>
            <Position>
              <LatitudeDegrees>40.66983866505324840545654296875</LatitudeDegrees>
              <LongitudeDegrees>-4.0107897855341434478759765625</LongitudeDegrees>
            </Position>
            <AltitudeMeters>948.79998779296875</AltitudeMeters>
            <DistanceMeters>NAN</DistanceMeters>
          </Trackpoint>
          <Trackpoint>
            <Time>2019-08-01T11:13:46.000Z</Time>
            <Position>
              <LatitudeDegrees>40.66988392733037471771240234375</LatitudeDegrees>
              <LongitudeDegrees>-4.010793976485729217529296875</LongitudeDegrees>
            </Position>
            <AltitudeMeters>949</AltitudeMeters>
            <DistanceMeters>NAN</DistanceMeters>
          </Trackpoint>
          <Trackpoint>
            <Time>2019-08-01T11:13:47.000Z</Time>
            <Position>
              <LatitudeDegrees>40.66992885433137416839599609375</LatitudeDegrees>
              <LongitudeDegrees>-4.01079774834215641021728515625</LongitudeDegrees>
            </Position>
            <AltitudeMeters>949</AltitudeMeters>
            <DistanceMeters>NAN</DistanceMeters>
          </Trackpoint>
          <Trackpoint>
            <Time>2019-08-01T11:13:48.000Z</Time>
            <Position>
              <LatitudeDegrees>40.66997394897043704986572265625</LatitudeDegrees>
              <LongitudeDegrees>-4.01080076582729816436767578125</LongitudeDegrees>
            </Position>
            <AltitudeMeters>949.20001220703125</AltitudeMeters>
            <DistanceMeters>NAN</DistanceMeters>
          </Trackpoint>
          <Trackpoint>
            <Time>2019-08-01T11:13:49.000Z</Time>
            <Position>
              <LatitudeDegrees>40.67001787014305591583251953125</LatitudeDegrees>
              <LongitudeDegrees>-4.010803699493408203125</LongitudeDegrees>
            </Position>
            <AltitudeMeters>949.20001220703125</AltitudeMeters>
            <DistanceMeters>NAN</DistanceMeters>
          </Trackpoint>
          <Trackpoint>
            <Time>2019-08-01T11:13:50.000Z</Time>
            <Position>
              <LatitudeDegrees>40.67006212659180164337158203125</LatitudeDegrees>
              <LongitudeDegrees>-4.0108068846166133880615234375</LongitudeDegrees>
            </Position>
            <AltitudeMeters>949.20001220703125</AltitudeMeters>
            <DistanceMeters>NAN</DistanceMeters>
          </Trackpoint>
          <Trackpoint>
            <Time>2019-08-01T11:13:51.000Z</Time>
            <Position>
              <LatitudeDegrees>40.67010805942118167877197265625</LatitudeDegrees>
              <LongitudeDegrees>-4.0108099021017551422119140625</LongitudeDegrees>
            </Position>
            <AltitudeMeters>949.5999755859375</AltitudeMeters>
            <DistanceMeters>NAN</DistanceMeters>
          </Trackpoint>
          <Trackpoint>
            <Time>2019-08-01T11:13:52.000Z</Time>
            <Position>
              <LatitudeDegrees>40.67015231586992740631103515625</LatitudeDegrees>
              <LongitudeDegrees>-4.010811746120452880859375</LongitudeDegrees>
            </Position>
            <AltitudeMeters>949.79998779296875</AltitudeMeters>
            <DistanceMeters>NAN</DistanceMeters>
          </Trackpoint>
          <Trackpoint>
            <Time>2019-08-01T11:13:53.000Z</Time>
            <Position>
              <LatitudeDegrees>40.67019724287092685699462890625</LatitudeDegrees>
              <LongitudeDegrees>-4.01081417687237262725830078125</LongitudeDegrees>
            </Position>
            <AltitudeMeters>950</AltitudeMeters>
            <DistanceMeters>NAN</DistanceMeters>
          </Trackpoint>
          <Trackpoint>
            <Time>2019-08-01T11:13:54.000Z</Time>
            <Position>
              <LatitudeDegrees>40.67024216987192630767822265625</LatitudeDegrees>
              <LongitudeDegrees>-4.0108172781765460968017578125</LongitudeDegrees>
            </Position>
            <AltitudeMeters>950.4000244140625</AltitudeMeters>
            <DistanceMeters>NAN</DistanceMeters>
          </Trackpoint>
          <Trackpoint>
            <Time>2019-08-01T11:13:55.000Z</Time>
            <Position>
              <LatitudeDegrees>40.67028659395873546600341796875</LatitudeDegrees>
              <LongitudeDegrees>-4.0108206309378147125244140625</LongitudeDegrees>
            </Position>
            <AltitudeMeters>950.5999755859375</AltitudeMeters>
            <DistanceMeters>NAN</DistanceMeters>
          </Trackpoint>
          <Trackpoint>
            <Time>2019-08-01T11:13:56.000Z</Time>
            <Position>
              <LatitudeDegrees>40.67033068276941776275634765625</LatitudeDegrees>
              <LongitudeDegrees>-4.0108239836990833282470703125</LongitudeDegrees>
            </Position>
            <AltitudeMeters>950.79998779296875</AltitudeMeters>
            <DistanceMeters>NAN</DistanceMeters>
          </Trackpoint>
          <Trackpoint>
            <Time>2019-08-01T11:13:57.000Z</Time>
            <Position>
              <LatitudeDegrees>40.67037443630397319793701171875</LatitudeDegrees>
              <LongitudeDegrees>-4.01082658208906650543212890625</LongitudeDegrees>
            </Position>
            <AltitudeMeters>951.20001220703125</AltitudeMeters>
            <DistanceMeters>NAN</DistanceMeters>
          </Trackpoint>
          <Trackpoint>
            <Time>2019-08-01T11:13:58.000Z</Time>
            <Position>
              <LatitudeDegrees>40.67041869275271892547607421875</LatitudeDegrees>
              <LongitudeDegrees>-4.0108293481171131134033203125</LongitudeDegrees>
            </Position>
            <AltitudeMeters>951.4000244140625</AltitudeMeters>
            <DistanceMeters>NAN</DistanceMeters>
          </Trackpoint>
          <Trackpoint>
            <Time>2019-08-01T11:13:59.000Z</Time>
            <Position>
              <LatitudeDegrees>40.67046009935438632965087890625</LatitudeDegrees>
              <LongitudeDegrees>-4.01083253324031829833984375</LongitudeDegrees>
            </Position>
            <AltitudeMeters>951.79998779296875</AltitudeMeters>
            <DistanceMeters>NAN</DistanceMeters>
          </Trackpoint>
          <Trackpoint>
            <Time>2019-08-01T11:14:00.000Z</Time>
            <Position>
              <LatitudeDegrees>40.67050267942249774932861328125</LatitudeDegrees>
              <LongitudeDegrees>-4.0108357183635234832763671875</LongitudeDegrees>
            </Position>
            <AltitudeMeters>951.79998779296875</AltitudeMeters>
            <DistanceMeters>NAN</DistanceMeters>
          </Trackpoint>
          <Trackpoint>
            <Time>2019-08-01T11:14:01.000Z</Time>
            <Position>
              <LatitudeDegrees>40.67050267942249774932861328125</LatitudeDegrees>
              <LongitudeDegrees>-4.0108357183635234832763671875</LongitudeDegrees>
            </Position>
            <AltitudeMeters>952.4000244140625</AltitudeMeters>
            <DistanceMeters>NAN</DistanceMeters>
          </Trackpoint>
          <Trackpoint>
            <Time>2019-08-01T11:14:02.000Z</Time>
            <Position>
              <LatitudeDegrees>40.67058934830129146575927734375</LatitudeDegrees>
              <LongitudeDegrees>-4.01084049604833126068115234375</LongitudeDegrees>
            </Position>
            <AltitudeMeters>952.79998779296875</AltitudeMeters>
            <DistanceMeters>NAN</DistanceMeters>
          </Trackpoint>
          <Trackpoint>
            <Time>2019-08-01T11:14:03.000Z</Time>
            <Position>
              <LatitudeDegrees>40.67063326947391033172607421875</LatitudeDegrees>
              <LongitudeDegrees>-4.0108434297144412994384765625</LongitudeDegrees>
            </Position>
            <AltitudeMeters>953.4000244140625</AltitudeMeters>
            <DistanceMeters>NAN</DistanceMeters>
          </Trackpoint>
          <Trackpoint>
            <Time>2019-08-01T11:14:04.000Z</Time>
            <Position>
              <LatitudeDegrees>40.67067685537040233612060546875</LatitudeDegrees>
              <LongitudeDegrees>-4.0108467824757099151611328125</LongitudeDegrees>
            </Position>
            <AltitudeMeters>953.5999755859375</AltitudeMeters>
            <DistanceMeters>NAN</DistanceMeters>
          </Trackpoint>
          <Trackpoint>
            <Time>2019-08-01T11:14:05.000Z</Time>
            <Position>
              <LatitudeDegrees>40.67072278819978237152099609375</LatitudeDegrees>
              <LongitudeDegrees>-4.01085055433213710784912109375</LongitudeDegrees>
            </Position>
            <AltitudeMeters>953.79998779296875</AltitudeMeters>
            <DistanceMeters>NAN</DistanceMeters>
          </Trackpoint>
          <Trackpoint>
            <Time>2019-08-01T11:14:06.000Z</Time>
            <Position>
              <LatitudeDegrees>40.67076737992465496063232421875</LatitudeDegrees>
              <LongitudeDegrees>-4.0108538232743740081787109375</LongitudeDegrees>
            </Position>
            <AltitudeMeters>954</AltitudeMeters>
            <DistanceMeters>NAN</DistanceMeters>
          </Trackpoint>
          <Trackpoint>
            <Time>2019-08-01T11:14:07.000Z</Time>
            <Position>
              <LatitudeDegrees>40.67081247456371784210205078125</LatitudeDegrees>
              <LongitudeDegrees>-4.0108565054833889007568359375</LongitudeDegrees>
            </Position>
            <AltitudeMeters>954.20001220703125</AltitudeMeters>
            <DistanceMeters>NAN</DistanceMeters>
          </Trackpoint>
          <Trackpoint>
            <Time>2019-08-01T11:14:08.000Z</Time>
            <Position>
              <LatitudeDegrees>40.6708569824695587158203125</LatitudeDegrees>
              <LongitudeDegrees>-4.010857678949832916259765625</LongitudeDegrees>
            </Position>
            <AltitudeMeters>954.4000244140625</AltitudeMeters>
            <DistanceMeters>NAN</DistanceMeters>
          </Trackpoint>
          <Trackpoint>
            <Time>2019-08-01T11:14:09.000Z</Time>
            <Position>
              <LatitudeDegrees>40.67090350203216075897216796875</LatitudeDegrees>
              <LongitudeDegrees>-4.0108601935207843780517578125</LongitudeDegrees>
            </Position>
            <AltitudeMeters>954.79998779296875</AltitudeMeters>
            <DistanceMeters>NAN</DistanceMeters>
          </Trackpoint>
          <Trackpoint>
            <Time>2019-08-01T11:14:10.000Z</Time>
            <Position>
              <LatitudeDegrees>40.67090350203216075897216796875</LatitudeDegrees>
              <LongitudeDegrees>-4.0108601935207843780517578125</LongitudeDegrees>
            </Position>
            <AltitudeMeters>954.79998779296875</AltitudeMeters>
            <DistanceMeters>NAN</DistanceMeters>
          </Trackpoint>
          <Trackpoint>
            <Time>2019-08-01T11:14:11.000Z</Time>
            <Position>
              <LatitudeDegrees>40.6709936074912548065185546875</LatitudeDegrees>
              <LongitudeDegrees>-4.01086094789206981658935546875</LongitudeDegrees>
            </Position>
            <AltitudeMeters>955</AltitudeMeters>
            <DistanceMeters>NAN</DistanceMeters>
          </Trackpoint>
          <Trackpoint>
            <Time>2019-08-01T11:14:12.000Z</Time>
            <Position>
              <LatitudeDegrees>40.67103845067322254180908203125</LatitudeDegrees>
              <LongitudeDegrees>-4.01086061261594295501708984375</LongitudeDegrees>
            </Position>
            <AltitudeMeters>955</AltitudeMeters>
            <DistanceMeters>NAN</DistanceMeters>
          </Trackpoint>
          <Trackpoint>
            <Time>2019-08-01T11:14:13.000Z</Time>
            <Position>
              <LatitudeDegrees>40.67108103074133396148681640625</LatitudeDegrees>
              <LongitudeDegrees>-4.01086094789206981658935546875</LongitudeDegrees>
            </Position>
            <AltitudeMeters>955</AltitudeMeters>
            <DistanceMeters>NAN</DistanceMeters>
          </Trackpoint>
          <Trackpoint>
            <Time>2019-08-01T11:14:14.000Z</Time>
            <Position>
              <LatitudeDegrees>40.671119503676891326904296875</LatitudeDegrees>
              <LongitudeDegrees>-4.010861702263355255126953125</LongitudeDegrees>
            </Position>
            <AltitudeMeters>955.4000244140625</AltitudeMeters>
            <DistanceMeters>NAN</DistanceMeters>
          </Trackpoint>
          <Trackpoint>
            <Time>2019-08-01T11:14:15.000Z</Time>
            <Position>
              <LatitudeDegrees>40.67116032354533672332763671875</LatitudeDegrees>
              <LongitudeDegrees>-4.01086312718689441680908203125</LongitudeDegrees>
            </Position>
            <AltitudeMeters>955.5999755859375</AltitudeMeters>
            <DistanceMeters>NAN</DistanceMeters>
          </Trackpoint>
          <Trackpoint>
            <Time>2019-08-01T11:14:16.000Z</Time>
            <Position>
              <LatitudeDegrees>40.67120499908924102783203125</LatitudeDegrees>
              <LongitudeDegrees>-4.01086748577654361724853515625</LongitudeDegrees>
            </Position>
            <AltitudeMeters>956</AltitudeMeters>
            <DistanceMeters>NAN</DistanceMeters>
          </Trackpoint>
          <Trackpoint>
            <Time>2019-08-01T11:14:17.000Z</Time>
            <Position>
              <LatitudeDegrees>40.6712490878999233245849609375</LatitudeDegrees>
              <LongitudeDegrees>-4.0108742751181125640869140625</LongitudeDegrees>
            </Position>
            <AltitudeMeters>956.20001220703125</AltitudeMeters>
            <DistanceMeters>NAN</DistanceMeters>
          </Trackpoint>
          <Trackpoint>
            <Time>2019-08-01T11:14:18.000Z</Time>
            <Position>
              <LatitudeDegrees>40.67129376344382762908935546875</LatitudeDegrees>
              <LongitudeDegrees>-4.0108819864690303802490234375</LongitudeDegrees>
            </Position>
            <AltitudeMeters>956.5999755859375</AltitudeMeters>
            <DistanceMeters>NAN</DistanceMeters>
          </Trackpoint>
          <Trackpoint>
            <Time>2019-08-01T11:14:19.000Z</Time>
            <Position>
              <LatitudeDegrees>40.671336092054843902587890625</LatitudeDegrees>
              <LongitudeDegrees>-4.01088575832545757293701171875</LongitudeDegrees>
            </Position>
            <AltitudeMeters>956.79998779296875</AltitudeMeters>
            <DistanceMeters>NAN</DistanceMeters>
          </Trackpoint>
          <Trackpoint>
            <Time>2019-08-01T11:14:20.000Z</Time>
            <Position>
              <LatitudeDegrees>40.67137808538973331451416015625</LatitudeDegrees>
              <LongitudeDegrees>-4.010888524353504180908203125</LongitudeDegrees>
            </Position>
            <AltitudeMeters>956.79998779296875</AltitudeMeters>
            <DistanceMeters>NAN</DistanceMeters>
          </Trackpoint>
          <Trackpoint>
            <Time>2019-08-01T11:14:21.000Z</Time>
            <Position>
              <LatitudeDegrees>40.67141680978238582611083984375</LatitudeDegrees>
              <LongitudeDegrees>-4.01089196093380451202392578125</LongitudeDegrees>
            </Position>
            <AltitudeMeters>957</AltitudeMeters>
            <DistanceMeters>NAN</DistanceMeters>
          </Trackpoint>
          <Trackpoint>
            <Time>2019-08-01T11:14:22.000Z</Time>
            <Position>
              <LatitudeDegrees>40.6714536063373088836669921875</LatitudeDegrees>
              <LongitudeDegrees>-4.0108964033424854278564453125</LongitudeDegrees>
            </Position>
            <AltitudeMeters>957</AltitudeMeters>
            <DistanceMeters>NAN</DistanceMeters>
          </Trackpoint>
          <Trackpoint>
            <Time>2019-08-01T11:14:23.000Z</Time>
            <Position>
              <LatitudeDegrees>40.67149107344448566436767578125</LatitudeDegrees>
              <LongitudeDegrees>-4.01089967228472232818603515625</LongitudeDegrees>
            </Position>
            <AltitudeMeters>957.20001220703125</AltitudeMeters>
            <DistanceMeters>NAN</DistanceMeters>
          </Trackpoint>
          <Trackpoint>
            <Time>2019-08-01T11:14:24.000Z</Time>
            <Position>
              <LatitudeDegrees>40.6715283729135990142822265625</LatitudeDegrees>
              <LongitudeDegrees>-4.010902941226959228515625</LongitudeDegrees>
            </Position>
            <AltitudeMeters>957.20001220703125</AltitudeMeters>
            <DistanceMeters>NAN</DistanceMeters>
          </Trackpoint>
          <Trackpoint>
            <Time>2019-08-01T11:14:25.000Z</Time>
            <Position>
              <LatitudeDegrees>40.67156734876334667205810546875</LatitudeDegrees>
              <LongitudeDegrees>-4.01090671308338642120361328125</LongitudeDegrees>
            </Position>
            <AltitudeMeters>957.5999755859375</AltitudeMeters>
            <DistanceMeters>NAN</DistanceMeters>
          </Trackpoint>
          <Trackpoint>
            <Time>2019-08-01T11:14:26.000Z</Time>
            <Position>
              <LatitudeDegrees>40.67160674370825290679931640625</LatitudeDegrees>
              <LongitudeDegrees>-4.0109104849398136138916015625</LongitudeDegrees>
            </Position>
            <AltitudeMeters>957.5999755859375</AltitudeMeters>
            <DistanceMeters>NAN</DistanceMeters>
          </Trackpoint>
          <Trackpoint>
            <Time>2019-08-01T11:14:27.000Z</Time>
            <Position>
              <LatitudeDegrees>40.671645216643810272216796875</LatitudeDegrees>
              <LongitudeDegrees>-4.01091341860592365264892578125</LongitudeDegrees>
            </Position>
            <AltitudeMeters>958.20001220703125</AltitudeMeters>
            <DistanceMeters>NAN</DistanceMeters>
          </Trackpoint>
          <Trackpoint>
            <Time>2019-08-01T11:14:28.000Z</Time>
            <Position>
              <LatitudeDegrees>40.67168368957936763763427734375</LatitudeDegrees>
              <LongitudeDegrees>-4.01091660372912883758544921875</LongitudeDegrees>
            </Position>
            <AltitudeMeters>958.79998779296875</AltitudeMeters>
            <DistanceMeters>NAN</DistanceMeters>
          </Trackpoint>
          <Trackpoint>
            <Time>2019-08-01T11:14:29.000Z</Time>
            <Position>
              <LatitudeDegrees>40.6717208214104175567626953125</LatitudeDegrees>
              <LongitudeDegrees>-4.01091861538589000701904296875</LongitudeDegrees>
            </Position>
            <AltitudeMeters>959.20001220703125</AltitudeMeters>
            <DistanceMeters>NAN</DistanceMeters>
          </Trackpoint>
          <Trackpoint>
            <Time>2019-08-01T11:14:30.000Z</Time>
            <Position>
              <LatitudeDegrees>40.67175644449889659881591796875</LatitudeDegrees>
              <LongitudeDegrees>-4.0109202079474925994873046875</LongitudeDegrees>
            </Position>
            <AltitudeMeters>959.79998779296875</AltitudeMeters>
            <DistanceMeters>NAN</DistanceMeters>
          </Trackpoint>
          <Trackpoint>
            <Time>2019-08-01T11:14:31.000Z</Time>
            <Position>
              <LatitudeDegrees>40.67179483361542224884033203125</LatitudeDegrees>
              <LongitudeDegrees>-4.0109222196042537689208984375</LongitudeDegrees>
            </Position>
            <AltitudeMeters>960.20001220703125</AltitudeMeters>
            <DistanceMeters>NAN</DistanceMeters>
          </Trackpoint>
          <Trackpoint>
            <Time>2019-08-01T11:14:32.000Z</Time>
            <Position>
              <LatitudeDegrees>40.67183422856032848358154296875</LatitudeDegrees>
              <LongitudeDegrees>-4.01092163287103176116943359375</LongitudeDegrees>
            </Position>
            <AltitudeMeters>960.20001220703125</AltitudeMeters>
            <DistanceMeters>NAN</DistanceMeters>
          </Trackpoint>
          <Trackpoint>
            <Time>2019-08-01T11:14:33.000Z</Time>
            <Position>
              <LatitudeDegrees>40.67187345586717128753662109375</LatitudeDegrees>
              <LongitudeDegrees>-4.0109212137758731842041015625</LongitudeDegrees>
            </Position>
            <AltitudeMeters>960.5999755859375</AltitudeMeters>
            <DistanceMeters>NAN</DistanceMeters>
          </Trackpoint>
          <Trackpoint>
            <Time>2019-08-01T11:14:34.000Z</Time>
            <Position>
              <LatitudeDegrees>40.67191251553595066070556640625</LatitudeDegrees>
              <LongitudeDegrees>-4.01092146523296833038330078125</LongitudeDegrees>
            </Position>
            <AltitudeMeters>960.79998779296875</AltitudeMeters>
            <DistanceMeters>NAN</DistanceMeters>
          </Trackpoint>
          <Trackpoint>
            <Time>2019-08-01T11:14:35.000Z</Time>
            <Position>
              <LatitudeDegrees>40.6719521619379520416259765625</LatitudeDegrees>
              <LongitudeDegrees>-4.0109212137758731842041015625</LongitudeDegrees>
            </Position>
            <AltitudeMeters>961.4000244140625</AltitudeMeters>
            <DistanceMeters>NAN</DistanceMeters>
          </Trackpoint>
          <Trackpoint>
            <Time>2019-08-01T11:14:36.000Z</Time>
            <Position>
              <LatitudeDegrees>40.6719910539686679840087890625</LatitudeDegrees>
              <LongitudeDegrees>-4.0109208784997463226318359375</LongitudeDegrees>
            </Position>
            <AltitudeMeters>961.4000244140625</AltitudeMeters>
            <DistanceMeters>NAN</DistanceMeters>
          </Trackpoint>
          <Trackpoint>
            <Time>2019-08-01T11:14:37.000Z</Time>
            <Position>
              <LatitudeDegrees>40.6719910539686679840087890625</LatitudeDegrees>
              <LongitudeDegrees>-4.0109208784997463226318359375</LongitudeDegrees>
            </Position>
            <AltitudeMeters>961.5999755859375</AltitudeMeters>
            <DistanceMeters>NAN</DistanceMeters>
          </Trackpoint>
          <Trackpoint>
            <Time>2019-08-01T11:14:38.000Z</Time>
            <Position>
              <LatitudeDegrees>40.67206791602075099945068359375</LatitudeDegrees>
              <LongitudeDegrees>-4.0109188668429851531982421875</LongitudeDegrees>
            </Position>
            <AltitudeMeters>961.5999755859375</AltitudeMeters>
            <DistanceMeters>NAN</DistanceMeters>
          </Trackpoint>
          <Trackpoint>
            <Time>2019-08-01T11:14:39.000Z</Time>
            <Position>
              <LatitudeDegrees>40.67210596986114978790283203125</LatitudeDegrees>
              <LongitudeDegrees>-4.0109161846339702606201171875</LongitudeDegrees>
            </Position>
            <AltitudeMeters>961.79998779296875</AltitudeMeters>
            <DistanceMeters>NAN</DistanceMeters>
          </Trackpoint>
          <Trackpoint>
            <Time>2019-08-01T11:14:40.000Z</Time>
            <Position>
              <LatitudeDegrees>40.67210596986114978790283203125</LatitudeDegrees>
              <LongitudeDegrees>-4.0109161846339702606201171875</LongitudeDegrees>
            </Position>
            <AltitudeMeters>962.20001220703125</AltitudeMeters>
            <DistanceMeters>NAN</DistanceMeters>
          </Trackpoint>
          <Trackpoint>
            <Time>2019-08-01T11:14:41.000Z</Time>
            <Position>
              <LatitudeDegrees>40.67218475975096225738525390625</LatitudeDegrees>
              <LongitudeDegrees>-4.01091190986335277557373046875</LongitudeDegrees>
            </Position>
            <AltitudeMeters>962.5999755859375</AltitudeMeters>
            <DistanceMeters>NAN</DistanceMeters>
          </Trackpoint>
          <Trackpoint>
            <Time>2019-08-01T11:14:42.000Z</Time>
            <Position>
              <LatitudeDegrees>40.672224573791027069091796875</LatitudeDegrees>
              <LongitudeDegrees>-4.01090763509273529052734375</LongitudeDegrees>
            </Position>
            <AltitudeMeters>963</AltitudeMeters>
            <DistanceMeters>NAN</DistanceMeters>
          </Trackpoint>
          <Trackpoint>
            <Time>2019-08-01T11:14:43.000Z</Time>
            <Position>
              <LatitudeDegrees>40.67226581275463104248046875</LatitudeDegrees>
              <LongitudeDegrees>-4.010903947055339813232421875</LongitudeDegrees>
            </Position>
            <AltitudeMeters>963.4000244140625</AltitudeMeters>
            <DistanceMeters>NAN</DistanceMeters>
          </Trackpoint>
          <Trackpoint>
            <Time>2019-08-01T11:14:44.000Z</Time>
            <Position>
              <LatitudeDegrees>40.6723058782517910003662109375</LatitudeDegrees>
              <LongitudeDegrees>-4.01089866645634174346923828125</LongitudeDegrees>
            </Position>
            <AltitudeMeters>963.5999755859375</AltitudeMeters>
            <DistanceMeters>NAN</DistanceMeters>
          </Trackpoint>
          <Trackpoint>
            <Time>2019-08-01T11:14:45.000Z</Time>
            <Position>
              <LatitudeDegrees>40.67234602756798267364501953125</LatitudeDegrees>
              <LongitudeDegrees>-4.010892547667026519775390625</LongitudeDegrees>
            </Position>
            <AltitudeMeters>963.5999755859375</AltitudeMeters>
            <DistanceMeters>NAN</DistanceMeters>
          </Trackpoint>
          <Trackpoint>
            <Time>2019-08-01T11:14:46.000Z</Time>
            <Position>
              <LatitudeDegrees>40.67234602756798267364501953125</LatitudeDegrees>
              <LongitudeDegrees>-4.010892547667026519775390625</LongitudeDegrees>
            </Position>
            <AltitudeMeters>963.79998779296875</AltitudeMeters>
            <DistanceMeters>NAN</DistanceMeters>
          </Trackpoint>
          <Trackpoint>
            <Time>2019-08-01T11:14:47.000Z</Time>
            <Position>
              <LatitudeDegrees>40.67242532037198543548583984375</LatitudeDegrees>
              <LongitudeDegrees>-4.0108776278793811798095703125</LongitudeDegrees>
            </Position>
            <AltitudeMeters>964</AltitudeMeters>
            <DistanceMeters>NAN</DistanceMeters>
          </Trackpoint>
          <Trackpoint>
            <Time>2019-08-01T11:14:48.000Z</Time>
            <Position>
              <LatitudeDegrees>40.67246588878333568572998046875</LatitudeDegrees>
              <LongitudeDegrees>-4.01086865924298763275146484375</LongitudeDegrees>
            </Position>
            <AltitudeMeters>964.20001220703125</AltitudeMeters>
            <DistanceMeters>NAN</DistanceMeters>
          </Trackpoint>
          <Trackpoint>
            <Time>2019-08-01T11:14:49.000Z</Time>
            <Position>
              <LatitudeDegrees>40.67250511609017848968505859375</LatitudeDegrees>
              <LongitudeDegrees>-4.01085943914949893951416015625</LongitudeDegrees>
            </Position>
            <AltitudeMeters>964.4000244140625</AltitudeMeters>
            <DistanceMeters>NAN</DistanceMeters>
          </Trackpoint>
          <Trackpoint>
            <Time>2019-08-01T11:14:50.000Z</Time>
            <Position>
              <LatitudeDegrees>40.67250511609017848968505859375</LatitudeDegrees>
              <LongitudeDegrees>-4.01085943914949893951416015625</LongitudeDegrees>
            </Position>
            <AltitudeMeters>964.5999755859375</AltitudeMeters>
            <DistanceMeters>NAN</DistanceMeters>
          </Trackpoint>
          <Trackpoint>
            <Time>2019-08-01T11:14:51.000Z</Time>
            <Position>
              <LatitudeDegrees>40.67250511609017848968505859375</LatitudeDegrees>
              <LongitudeDegrees>-4.01085943914949893951416015625</LongitudeDegrees>
            </Position>
            <AltitudeMeters>964.79998779296875</AltitudeMeters>
            <DistanceMeters>NAN</DistanceMeters>
          </Trackpoint>
          <Trackpoint>
            <Time>2019-08-01T11:14:52.000Z</Time>
            <Position>
              <LatitudeDegrees>40.672621540725231170654296875</LatitudeDegrees>
              <LongitudeDegrees>-4.01082775555551052093505859375</LongitudeDegrees>
            </Position>
            <AltitudeMeters>965.20001220703125</AltitudeMeters>
            <DistanceMeters>NAN</DistanceMeters>
          </Trackpoint>
          <Trackpoint>
            <Time>2019-08-01T11:14:53.000Z</Time>
            <Position>
              <LatitudeDegrees>40.6726585887372493743896484375</LatitudeDegrees>
              <LongitudeDegrees>-4.010817445814609527587890625</LongitudeDegrees>
            </Position>
            <AltitudeMeters>965.4000244140625</AltitudeMeters>
            <DistanceMeters>NAN</DistanceMeters>
          </Trackpoint>
          <Trackpoint>
            <Time>2019-08-01T11:14:54.000Z</Time>
            <Position>
              <LatitudeDegrees>40.67269437946379184722900390625</LatitudeDegrees>
              <LongitudeDegrees>-4.01080562733113765716552734375</LongitudeDegrees>
            </Position>
            <AltitudeMeters>965.79998779296875</AltitudeMeters>
            <DistanceMeters>NAN</DistanceMeters>
          </Trackpoint>
          <Trackpoint>
            <Time>2019-08-01T11:14:55.000Z</Time>
            <Position>
              <LatitudeDegrees>40.672729499638080596923828125</LatitudeDegrees>
              <LongitudeDegrees>-4.01079322211444377899169921875</LongitudeDegrees>
            </Position>
            <AltitudeMeters>966</AltitudeMeters>
            <DistanceMeters>NAN</DistanceMeters>
          </Trackpoint>
          <Trackpoint>
            <Time>2019-08-01T11:14:56.000Z</Time>
            <Position>
              <LatitudeDegrees>40.672729499638080596923828125</LatitudeDegrees>
              <LongitudeDegrees>-4.01079322211444377899169921875</LongitudeDegrees>
            </Position>
            <AltitudeMeters>966.20001220703125</AltitudeMeters>
            <DistanceMeters>NAN</DistanceMeters>
          </Trackpoint>
          <Trackpoint>
            <Time>2019-08-01T11:14:57.000Z</Time>
            <Position>
              <LatitudeDegrees>40.67279756069183349609375</LatitudeDegrees>
              <LongitudeDegrees>-4.01076857931911945343017578125</LongitudeDegrees>
            </Position>
            <AltitudeMeters>966.4000244140625</AltitudeMeters>
            <DistanceMeters>NAN</DistanceMeters>
          </Trackpoint>
          <Trackpoint>
            <Time>2019-08-01T11:14:58.000Z</Time>
            <Position>
              <LatitudeDegrees>40.67283100448548793792724609375</LatitudeDegrees>
              <LongitudeDegrees>-4.01075433008372783660888671875</LongitudeDegrees>
            </Position>
            <AltitudeMeters>966.5999755859375</AltitudeMeters>
            <DistanceMeters>NAN</DistanceMeters>
          </Trackpoint>
          <Trackpoint>
            <Time>2019-08-01T11:14:59.000Z</Time>
            <Position>
              <LatitudeDegrees>40.67286520265042781829833984375</LatitudeDegrees>
              <LongitudeDegrees>-4.010739661753177642822265625</LongitudeDegrees>
            </Position>
            <AltitudeMeters>967.20001220703125</AltitudeMeters>
            <DistanceMeters>NAN</DistanceMeters>
          </Trackpoint>
          <Trackpoint>
            <Time>2019-08-01T11:15:00.000Z</Time>
            <Position>
              <LatitudeDegrees>40.672898478806018829345703125</LatitudeDegrees>
              <LongitudeDegrees>-4.01072415523231029510498046875</LongitudeDegrees>
            </Position>
            <AltitudeMeters>967.4000244140625</AltitudeMeters>
            <DistanceMeters>NAN</DistanceMeters>
          </Trackpoint>
          <Trackpoint>
            <Time>2019-08-01T11:15:01.000Z</Time>
            <Position>
              <LatitudeDegrees>40.67293125204741954803466796875</LatitudeDegrees>
              <LongitudeDegrees>-4.01070806197822093963623046875</LongitudeDegrees>
            </Position>
            <AltitudeMeters>967.5999755859375</AltitudeMeters>
            <DistanceMeters>NAN</DistanceMeters>
          </Trackpoint>
          <Trackpoint>
            <Time>2019-08-01T11:15:02.000Z</Time>
            <Position>
              <LatitudeDegrees>40.67296427674591541290283203125</LatitudeDegrees>
              <LongitudeDegrees>-4.01069104671478271484375</LongitudeDegrees>
            </Position>
            <AltitudeMeters>967.79998779296875</AltitudeMeters>
            <DistanceMeters>NAN</DistanceMeters>
          </Trackpoint>
          <Trackpoint>
            <Time>2019-08-01T11:15:03.000Z</Time>
            <Position>
              <LatitudeDegrees>40.67299797199666500091552734375</LatitudeDegrees>
              <LongitudeDegrees>-4.0106741152703762054443359375</LongitudeDegrees>
            </Position>
            <AltitudeMeters>968.20001220703125</AltitudeMeters>
            <DistanceMeters>NAN</DistanceMeters>
          </Trackpoint>
          <Trackpoint>
            <Time>2019-08-01T11:15:04.000Z</Time>
            <Position>
              <LatitudeDegrees>40.67303133197128772735595703125</LatitudeDegrees>
              <LongitudeDegrees>-4.01065642945468425750732421875</LongitudeDegrees>
            </Position>
            <AltitudeMeters>968.5999755859375</AltitudeMeters>
            <DistanceMeters>NAN</DistanceMeters>
          </Trackpoint>
          <Trackpoint>
            <Time>2019-08-01T11:15:05.000Z</Time>
            <Position>
              <LatitudeDegrees>40.6730642728507518768310546875</LatitudeDegrees>
              <LongitudeDegrees>-4.0106379054486751556396484375</LongitudeDegrees>
            </Position>
            <AltitudeMeters>968.79998779296875</AltitudeMeters>
            <DistanceMeters>NAN</DistanceMeters>
          </Trackpoint>
          <Trackpoint>
            <Time>2019-08-01T11:15:06.000Z</Time>
            <Position>
              <LatitudeDegrees>40.67309721373021602630615234375</LatitudeDegrees>
              <LongitudeDegrees>-4.0106198005378246307373046875</LongitudeDegrees>
            </Position>
            <AltitudeMeters>969.20001220703125</AltitudeMeters>
            <DistanceMeters>NAN</DistanceMeters>
          </Trackpoint>
          <Trackpoint>
            <Time>2019-08-01T11:15:07.000Z</Time>
            <Position>
              <LatitudeDegrees>40.6731296516954898834228515625</LatitudeDegrees>
              <LongitudeDegrees>-4.0106027014553546905517578125</LongitudeDegrees>
            </Position>
            <AltitudeMeters>969.5999755859375</AltitudeMeters>
            <DistanceMeters>NAN</DistanceMeters>
          </Trackpoint>
          <Trackpoint>
            <Time>2019-08-01T11:15:08.000Z</Time>
            <Position>
              <LatitudeDegrees>40.67316125147044658660888671875</LatitudeDegrees>
              <LongitudeDegrees>-4.01058518327772617340087890625</LongitudeDegrees>
            </Position>
            <AltitudeMeters>969.79998779296875</AltitudeMeters>
            <DistanceMeters>NAN</DistanceMeters>
          </Trackpoint>
          <Trackpoint>
            <Time>2019-08-01T11:15:09.000Z</Time>
            <Position>
              <LatitudeDegrees>40.67319276742637157440185546875</LatitudeDegrees>
              <LongitudeDegrees>-4.0105671621859073638916015625</LongitudeDegrees>
            </Position>
            <AltitudeMeters>970</AltitudeMeters>
            <DistanceMeters>NAN</DistanceMeters>
          </Trackpoint>
          <Trackpoint>
            <Time>2019-08-01T11:15:10.000Z</Time>
            <Position>
              <LatitudeDegrees>40.67322428338229656219482421875</LatitudeDegrees>
              <LongitudeDegrees>-4.01055014692246913909912109375</LongitudeDegrees>
            </Position>
            <AltitudeMeters>970.20001220703125</AltitudeMeters>
            <DistanceMeters>NAN</DistanceMeters>
          </Trackpoint>
          <Trackpoint>
            <Time>2019-08-01T11:15:11.000Z</Time>
            <Position>
              <LatitudeDegrees>40.6732563860714435577392578125</LatitudeDegrees>
              <LongitudeDegrees>-4.010532461106777191162109375</LongitudeDegrees>
            </Position>
            <AltitudeMeters>970.5999755859375</AltitudeMeters>
            <DistanceMeters>NAN</DistanceMeters>
          </Trackpoint>
          <Trackpoint>
            <Time>2019-08-01T11:15:12.000Z</Time>
            <Position>
              <LatitudeDegrees>40.6732870638370513916015625</LatitudeDegrees>
              <LongitudeDegrees>-4.01051578111946582794189453125</LongitudeDegrees>
            </Position>
            <AltitudeMeters>970.79998779296875</AltitudeMeters>
            <DistanceMeters>NAN</DistanceMeters>
          </Trackpoint>
          <Trackpoint>
            <Time>2019-08-01T11:15:13.000Z</Time>
            <Position>
              <LatitudeDegrees>40.6732870638370513916015625</LatitudeDegrees>
              <LongitudeDegrees>-4.01051578111946582794189453125</LongitudeDegrees>
            </Position>
            <AltitudeMeters>971</AltitudeMeters>
            <DistanceMeters>NAN</DistanceMeters>
          </Trackpoint>
          <Trackpoint>
            <Time>2019-08-01T11:15:14.000Z</Time>
            <Position>
              <LatitudeDegrees>40.67334749735891819000244140625</LatitudeDegrees>
              <LongitudeDegrees>-4.01048108004033565521240234375</LongitudeDegrees>
            </Position>
            <AltitudeMeters>971.4000244140625</AltitudeMeters>
            <DistanceMeters>NAN</DistanceMeters>
          </Trackpoint>
          <Trackpoint>
            <Time>2019-08-01T11:15:15.000Z</Time>
            <Position>
              <LatitudeDegrees>40.67338320426642894744873046875</LatitudeDegrees>
              <LongitudeDegrees>-4.010459370911121368408203125</LongitudeDegrees>
            </Position>
            <AltitudeMeters>971.5999755859375</AltitudeMeters>
            <DistanceMeters>NAN</DistanceMeters>
          </Trackpoint>
          <Trackpoint>
            <Time>2019-08-01T11:15:16.000Z</Time>
            <Position>
              <LatitudeDegrees>40.67341606132686138153076171875</LatitudeDegrees>
              <LongitudeDegrees>-4.0104410983622074127197265625</LongitudeDegrees>
            </Position>
            <AltitudeMeters>971.79998779296875</AltitudeMeters>
            <DistanceMeters>NAN</DistanceMeters>
          </Trackpoint>
          <Trackpoint>
            <Time>2019-08-01T11:15:17.000Z</Time>
            <Position>
              <LatitudeDegrees>40.67344875074923038482666015625</LatitudeDegrees>
              <LongitudeDegrees>-4.01042290963232517242431640625</LongitudeDegrees>
            </Position>
            <AltitudeMeters>972</AltitudeMeters>
            <DistanceMeters>NAN</DistanceMeters>
          </Trackpoint>
          <Trackpoint>
            <Time>2019-08-01T11:15:18.000Z</Time>
            <Position>
              <LatitudeDegrees>40.673481188714504241943359375</LatitudeDegrees>
              <LongitudeDegrees>-4.010405056178569793701171875</LongitudeDegrees>
            </Position>
            <AltitudeMeters>972.20001220703125</AltitudeMeters>
            <DistanceMeters>NAN</DistanceMeters>
          </Trackpoint>
          <Trackpoint>
            <Time>2019-08-01T11:15:19.000Z</Time>
            <Position>
              <LatitudeDegrees>40.67351412959396839141845703125</LatitudeDegrees>
              <LongitudeDegrees>-4.010386951267719268798828125</LongitudeDegrees>
            </Position>
            <AltitudeMeters>972.4000244140625</AltitudeMeters>
            <DistanceMeters>NAN</DistanceMeters>
          </Trackpoint>
          <Trackpoint>
            <Time>2019-08-01T11:15:20.000Z</Time>
            <Position>
              <LatitudeDegrees>40.67354698665440082550048828125</LatitudeDegrees>
              <LongitudeDegrees>-4.010368846356868743896484375</LongitudeDegrees>
            </Position>
            <AltitudeMeters>972.5999755859375</AltitudeMeters>
            <DistanceMeters>NAN</DistanceMeters>
          </Trackpoint>
          <Trackpoint>
            <Time>2019-08-01T11:15:21.000Z</Time>
            <Position>
              <LatitudeDegrees>40.67354698665440082550048828125</LatitudeDegrees>
              <LongitudeDegrees>-4.010368846356868743896484375</LongitudeDegrees>
            </Position>
            <AltitudeMeters>972.79998779296875</AltitudeMeters>
            <DistanceMeters>NAN</DistanceMeters>
          </Trackpoint>
          <Trackpoint>
            <Time>2019-08-01T11:15:22.000Z</Time>
            <Position>
              <LatitudeDegrees>40.673609934747219085693359375</LatitudeDegrees>
              <LongitudeDegrees>-4.01033087633550167083740234375</LongitudeDegrees>
            </Position>
            <AltitudeMeters>973.20001220703125</AltitudeMeters>
            <DistanceMeters>NAN</DistanceMeters>
          </Trackpoint>
          <Trackpoint>
            <Time>2019-08-01T11:15:23.000Z</Time>
            <Position>
              <LatitudeDegrees>40.673609934747219085693359375</LatitudeDegrees>
              <LongitudeDegrees>-4.01033087633550167083740234375</LongitudeDegrees>
            </Position>
            <AltitudeMeters>973.5999755859375</AltitudeMeters>
            <DistanceMeters>NAN</DistanceMeters>
          </Trackpoint>
          <Trackpoint>
            <Time>2019-08-01T11:15:24.000Z</Time>
            <Position>
              <LatitudeDegrees>40.6736744754016399383544921875</LatitudeDegrees>
              <LongitudeDegrees>-4.0102942474186420440673828125</LongitudeDegrees>
            </Position>
            <AltitudeMeters>973.79998779296875</AltitudeMeters>
            <DistanceMeters>NAN</DistanceMeters>
          </Trackpoint>
          <Trackpoint>
            <Time>2019-08-01T11:15:25.000Z</Time>
            <Position>
              <LatitudeDegrees>40.6737063266336917877197265625</LatitudeDegrees>
              <LongitudeDegrees>-4.01027597486972808837890625</LongitudeDegrees>
            </Position>
            <AltitudeMeters>974</AltitudeMeters>
            <DistanceMeters>NAN</DistanceMeters>
          </Trackpoint>
          <Trackpoint>
            <Time>2019-08-01T11:15:26.000Z</Time>
            <Position>
              <LatitudeDegrees>40.67373834550380706787109375</LatitudeDegrees>
              <LongitudeDegrees>-4.0102570317685604095458984375</LongitudeDegrees>
            </Position>
            <AltitudeMeters>974.20001220703125</AltitudeMeters>
            <DistanceMeters>NAN</DistanceMeters>
          </Trackpoint>
          <Trackpoint>
            <Time>2019-08-01T11:15:27.000Z</Time>
            <Position>
              <LatitudeDegrees>40.67377053201198577880859375</LatitudeDegrees>
              <LongitudeDegrees>-4.0102379210293292999267578125</LongitudeDegrees>
            </Position>
            <AltitudeMeters>974.5999755859375</AltitudeMeters>
            <DistanceMeters>NAN</DistanceMeters>
          </Trackpoint>
          <Trackpoint>
            <Time>2019-08-01T11:15:28.000Z</Time>
            <Position>
              <LatitudeDegrees>40.673803389072418212890625</LatitudeDegrees>
              <LongitudeDegrees>-4.010219983756542205810546875</LongitudeDegrees>
            </Position>
            <AltitudeMeters>975</AltitudeMeters>
            <DistanceMeters>NAN</DistanceMeters>
          </Trackpoint>
          <Trackpoint>
            <Time>2019-08-01T11:15:29.000Z</Time>
            <Position>
              <LatitudeDegrees>40.67383565939962863922119140625</LatitudeDegrees>
              <LongitudeDegrees>-4.01020162738859653472900390625</LongitudeDegrees>
            </Position>
            <AltitudeMeters>975.4000244140625</AltitudeMeters>
            <DistanceMeters>NAN</DistanceMeters>
          </Trackpoint>
          <Trackpoint>
            <Time>2019-08-01T11:15:30.000Z</Time>
            <Position>
              <LatitudeDegrees>40.673867762088775634765625</LatitudeDegrees>
              <LongitudeDegrees>-4.010183773934841156005859375</LongitudeDegrees>
            </Position>
            <AltitudeMeters>975.79998779296875</AltitudeMeters>
            <DistanceMeters>NAN</DistanceMeters>
          </Trackpoint>
          <Trackpoint>
            <Time>2019-08-01T11:15:31.000Z</Time>
            <Position>
              <LatitudeDegrees>40.6738997809588909149169921875</LatitudeDegrees>
              <LongitudeDegrees>-4.0101661719381809234619140625</LongitudeDegrees>
            </Position>
            <AltitudeMeters>976</AltitudeMeters>
            <DistanceMeters>NAN</DistanceMeters>
          </Trackpoint>
          <Trackpoint>
            <Time>2019-08-01T11:15:32.000Z</Time>
            <Position>
              <LatitudeDegrees>40.67393238656222820281982421875</LatitudeDegrees>
              <LongitudeDegrees>-4.0101490728557109832763671875</LongitudeDegrees>
            </Position>
            <AltitudeMeters>976.20001220703125</AltitudeMeters>
            <DistanceMeters>NAN</DistanceMeters>
          </Trackpoint>
          <Trackpoint>
            <Time>2019-08-01T11:15:33.000Z</Time>
            <Position>
              <LatitudeDegrees>40.6739651598036289215087890625</LatitudeDegrees>
              <LongitudeDegrees>-4.01013222523033618927001953125</LongitudeDegrees>
            </Position>
            <AltitudeMeters>976.5999755859375</AltitudeMeters>
            <DistanceMeters>NAN</DistanceMeters>
          </Trackpoint>
          <Trackpoint>
            <Time>2019-08-01T11:15:34.000Z</Time>
            <Position>
              <LatitudeDegrees>40.6739983521401882171630859375</LatitudeDegrees>
              <LongitudeDegrees>-4.01011629961431026458740234375</LongitudeDegrees>
            </Position>
            <AltitudeMeters>976.79998779296875</AltitudeMeters>
            <DistanceMeters>NAN</DistanceMeters>
          </Trackpoint>
          <Trackpoint>
            <Time>2019-08-01T11:15:35.000Z</Time>
            <Position>
              <LatitudeDegrees>40.67403162829577922821044921875</LatitudeDegrees>
              <LongitudeDegrees>-4.010101966559886932373046875</LongitudeDegrees>
            </Position>
            <AltitudeMeters>977.20001220703125</AltitudeMeters>
            <DistanceMeters>NAN</DistanceMeters>
          </Trackpoint>
          <Trackpoint>
            <Time>2019-08-01T11:15:36.000Z</Time>
            <Position>
              <LatitudeDegrees>40.67406565882265567779541015625</LatitudeDegrees>
              <LongitudeDegrees>-4.01008880697190761566162109375</LongitudeDegrees>
            </Position>
            <AltitudeMeters>977.4000244140625</AltitudeMeters>
            <DistanceMeters>NAN</DistanceMeters>
          </Trackpoint>
          <Trackpoint>
            <Time>2019-08-01T11:15:37.000Z</Time>
            <Position>
              <LatitudeDegrees>40.67409968934953212738037109375</LatitudeDegrees>
              <LongitudeDegrees>-4.010074473917484283447265625</LongitudeDegrees>
            </Position>
            <AltitudeMeters>977.79998779296875</AltitudeMeters>
            <DistanceMeters>NAN</DistanceMeters>
          </Trackpoint>
          <Trackpoint>
            <Time>2019-08-01T11:15:38.000Z</Time>
            <Position>
              <LatitudeDegrees>40.674133636057376861572265625</LatitudeDegrees>
              <LongitudeDegrees>-4.01006064377725124359130859375</LongitudeDegrees>
            </Position>
            <AltitudeMeters>978.20001220703125</AltitudeMeters>
            <DistanceMeters>NAN</DistanceMeters>
          </Trackpoint>
          <Trackpoint>
            <Time>2019-08-01T11:15:39.000Z</Time>
            <Position>
              <LatitudeDegrees>40.67416775040328502655029296875</LatitudeDegrees>
              <LongitudeDegrees>-4.01004857383668422698974609375</LongitudeDegrees>
            </Position>
            <AltitudeMeters>978.4000244140625</AltitudeMeters>
            <DistanceMeters>NAN</DistanceMeters>
          </Trackpoint>
          <Trackpoint>
            <Time>2019-08-01T11:15:40.000Z</Time>
            <Position>
              <LatitudeDegrees>40.674202702939510345458984375</LatitudeDegrees>
              <LongitudeDegrees>-4.010037593543529510498046875</LongitudeDegrees>
            </Position>
            <AltitudeMeters>978.5999755859375</AltitudeMeters>
            <DistanceMeters>NAN</DistanceMeters>
          </Trackpoint>
          <Trackpoint>
            <Time>2019-08-01T11:15:41.000Z</Time>
            <Position>
              <LatitudeDegrees>40.67423799075186252593994140625</LatitudeDegrees>
              <LongitudeDegrees>-4.01002678088843822479248046875</LongitudeDegrees>
            </Position>
            <AltitudeMeters>978.5999755859375</AltitudeMeters>
            <DistanceMeters>NAN</DistanceMeters>
          </Trackpoint>
          <Trackpoint>
            <Time>2019-08-01T11:15:42.000Z</Time>
            <Position>
              <LatitudeDegrees>40.6742732785642147064208984375</LatitudeDegrees>
              <LongitudeDegrees>-4.0100152976810932159423828125</LongitudeDegrees>
            </Position>
            <AltitudeMeters>979</AltitudeMeters>
            <DistanceMeters>NAN</DistanceMeters>
          </Trackpoint>
          <Trackpoint>
            <Time>2019-08-01T11:15:43.000Z</Time>
            <Position>
              <LatitudeDegrees>40.6743084825575351715087890625</LatitudeDegrees>
              <LongitudeDegrees>-4.01000448502600193023681640625</LongitudeDegrees>
            </Position>
            <AltitudeMeters>979.4000244140625</AltitudeMeters>
            <DistanceMeters>NAN</DistanceMeters>
          </Trackpoint>
          <Trackpoint>
            <Time>2019-08-01T11:15:44.000Z</Time>
            <Position>
              <LatitudeDegrees>40.674344189465045928955078125</LatitudeDegrees>
              <LongitudeDegrees>-4.0099958516657352447509765625</LongitudeDegrees>
            </Position>
            <AltitudeMeters>979.79998779296875</AltitudeMeters>
            <DistanceMeters>NAN</DistanceMeters>
          </Trackpoint>
          <Trackpoint>
            <Time>2019-08-01T11:15:45.000Z</Time>
            <Position>
              <LatitudeDegrees>40.67438048310577869415283203125</LatitudeDegrees>
              <LongitudeDegrees>-4.00998772121965885162353515625</LongitudeDegrees>
            </Position>
            <AltitudeMeters>980.20001220703125</AltitudeMeters>
            <DistanceMeters>NAN</DistanceMeters>
          </Trackpoint>
          <Trackpoint>
            <Time>2019-08-01T11:15:46.000Z</Time>
            <Position>
              <LatitudeDegrees>40.67441686056554317474365234375</LatitudeDegrees>
              <LongitudeDegrees>-4.00998000986874103546142578125</LongitudeDegrees>
            </Position>
            <AltitudeMeters>980.4000244140625</AltitudeMeters>
            <DistanceMeters>NAN</DistanceMeters>
          </Trackpoint>
          <Trackpoint>
            <Time>2019-08-01T11:15:47.000Z</Time>
            <Position>
              <LatitudeDegrees>40.6744536571204662322998046875</LatitudeDegrees>
              <LongitudeDegrees>-4.00997397489845752716064453125</LongitudeDegrees>
            </Position>
            <AltitudeMeters>980.5999755859375</AltitudeMeters>
            <DistanceMeters>NAN</DistanceMeters>
          </Trackpoint>
          <Trackpoint>
            <Time>2019-08-01T11:15:48.000Z</Time>
            <Position>
              <LatitudeDegrees>40.6744905374944210052490234375</LatitudeDegrees>
              <LongitudeDegrees>-4.009967856109142303466796875</LongitudeDegrees>
            </Position>
            <AltitudeMeters>980.79998779296875</AltitudeMeters>
            <DistanceMeters>NAN</DistanceMeters>
          </Trackpoint>
          <Trackpoint>
            <Time>2019-08-01T11:15:49.000Z</Time>
            <Position>
              <LatitudeDegrees>40.674527920782566070556640625</LatitudeDegrees>
              <LongitudeDegrees>-4.00996156968176364898681640625</LongitudeDegrees>
            </Position>
            <AltitudeMeters>981</AltitudeMeters>
            <DistanceMeters>NAN</DistanceMeters>
          </Trackpoint>
          <Trackpoint>
            <Time>2019-08-01T11:15:50.000Z</Time>
            <Position>
              <LatitudeDegrees>40.6745656393468379974365234375</LatitudeDegrees>
              <LongitudeDegrees>-4.00995637290179729461669921875</LongitudeDegrees>
            </Position>
            <AltitudeMeters>981.20001220703125</AltitudeMeters>
            <DistanceMeters>NAN</DistanceMeters>
          </Trackpoint>
          <Trackpoint>
            <Time>2019-08-01T11:15:51.000Z</Time>
            <Position>
              <LatitudeDegrees>40.6745656393468379974365234375</LatitudeDegrees>
              <LongitudeDegrees>-4.00995637290179729461669921875</LongitudeDegrees>
            </Position>
            <AltitudeMeters>981.20001220703125</AltitudeMeters>
            <DistanceMeters>NAN</DistanceMeters>
          </Trackpoint>
          <Trackpoint>
            <Time>2019-08-01T11:15:52.000Z</Time>
            <Position>
              <LatitudeDegrees>40.67463998682796955108642578125</LatitudeDegrees>
              <LongitudeDegrees>-4.0099489130079746246337890625</LongitudeDegrees>
            </Position>
            <AltitudeMeters>981.4000244140625</AltitudeMeters>
            <DistanceMeters>NAN</DistanceMeters>
          </Trackpoint>
          <Trackpoint>
            <Time>2019-08-01T11:15:53.000Z</Time>
            <Position>
              <LatitudeDegrees>40.67467720247805118560791015625</LatitudeDegrees>
              <LongitudeDegrees>-4.00994664989411830902099609375</LongitudeDegrees>
            </Position>
            <AltitudeMeters>981.4000244140625</AltitudeMeters>
            <DistanceMeters>NAN</DistanceMeters>
          </Trackpoint>
          <Trackpoint>
            <Time>2019-08-01T11:15:54.000Z</Time>
            <Position>
              <LatitudeDegrees>40.67471525631844997406005859375</LatitudeDegrees>
              <LongitudeDegrees>-4.00994648225605487823486328125</LongitudeDegrees>
            </Position>
            <AltitudeMeters>981.79998779296875</AltitudeMeters>
            <DistanceMeters>NAN</DistanceMeters>
          </Trackpoint>
          <Trackpoint>
            <Time>2019-08-01T11:15:55.000Z</Time>
            <Position>
              <LatitudeDegrees>40.67475364543497562408447265625</LatitudeDegrees>
              <LongitudeDegrees>-4.0099472366273403167724609375</LongitudeDegrees>
            </Position>
            <AltitudeMeters>982</AltitudeMeters>
            <DistanceMeters>NAN</DistanceMeters>
          </Trackpoint>
          <Trackpoint>
            <Time>2019-08-01T11:15:56.000Z</Time>
            <Position>
              <LatitudeDegrees>40.6747916154563426971435546875</LatitudeDegrees>
              <LongitudeDegrees>-4.00994815863668918609619140625</LongitudeDegrees>
            </Position>
            <AltitudeMeters>982.20001220703125</AltitudeMeters>
            <DistanceMeters>NAN</DistanceMeters>
          </Trackpoint>
          <Trackpoint>
            <Time>2019-08-01T11:15:57.000Z</Time>
            <Position>
              <LatitudeDegrees>40.67483008839190006256103515625</LatitudeDegrees>
              <LongitudeDegrees>-4.00995017029345035552978515625</LongitudeDegrees>
            </Position>
            <AltitudeMeters>982.20001220703125</AltitudeMeters>
            <DistanceMeters>NAN</DistanceMeters>
          </Trackpoint>
          <Trackpoint>
            <Time>2019-08-01T11:15:58.000Z</Time>
            <Position>
              <LatitudeDegrees>40.6748683936893939971923828125</LatitudeDegrees>
              <LongitudeDegrees>-4.00995335541665554046630859375</LongitudeDegrees>
            </Position>
            <AltitudeMeters>982.5999755859375</AltitudeMeters>
            <DistanceMeters>NAN</DistanceMeters>
          </Trackpoint>
          <Trackpoint>
            <Time>2019-08-01T11:15:59.000Z</Time>
            <Position>
              <LatitudeDegrees>40.6749056093394756317138671875</LatitudeDegrees>
              <LongitudeDegrees>-4.0099561214447021484375</LongitudeDegrees>
            </Position>
            <AltitudeMeters>982.79998779296875</AltitudeMeters>
            <DistanceMeters>NAN</DistanceMeters>
          </Trackpoint>
          <Trackpoint>
            <Time>2019-08-01T11:16:00.000Z</Time>
            <Position>
              <LatitudeDegrees>40.67494332790374755859375</LatitudeDegrees>
              <LongitudeDegrees>-4.00995972566306591033935546875</LongitudeDegrees>
            </Position>
            <AltitudeMeters>983</AltitudeMeters>
            <DistanceMeters>NAN</DistanceMeters>
          </Trackpoint>
          <Trackpoint>
            <Time>2019-08-01T11:16:01.000Z</Time>
            <Position>
              <LatitudeDegrees>40.674980543553829193115234375</LatitudeDegrees>
              <LongitudeDegrees>-4.009964168071746826171875</LongitudeDegrees>
            </Position>
            <AltitudeMeters>983.20001220703125</AltitudeMeters>
            <DistanceMeters>NAN</DistanceMeters>
          </Trackpoint>
          <Trackpoint>
            <Time>2019-08-01T11:16:02.000Z</Time>
            <Position>
              <LatitudeDegrees>40.674980543553829193115234375</LatitudeDegrees>
              <LongitudeDegrees>-4.009964168071746826171875</LongitudeDegrees>
            </Position>
            <AltitudeMeters>983.4000244140625</AltitudeMeters>
            <DistanceMeters>NAN</DistanceMeters>
          </Trackpoint>
          <Trackpoint>
            <Time>2019-08-01T11:16:03.000Z</Time>
            <Position>
              <LatitudeDegrees>40.675055645406246185302734375</LatitudeDegrees>
              <LongitudeDegrees>-4.009974896907806396484375</LongitudeDegrees>
            </Position>
            <AltitudeMeters>983.5999755859375</AltitudeMeters>
            <DistanceMeters>NAN</DistanceMeters>
          </Trackpoint>
          <Trackpoint>
            <Time>2019-08-01T11:16:04.000Z</Time>
            <Position>
              <LatitudeDegrees>40.675055645406246185302734375</LatitudeDegrees>
              <LongitudeDegrees>-4.009974896907806396484375</LongitudeDegrees>
            </Position>
            <AltitudeMeters>983.79998779296875</AltitudeMeters>
            <DistanceMeters>NAN</DistanceMeters>
          </Trackpoint>
          <Trackpoint>
            <Time>2019-08-01T11:16:05.000Z</Time>
            <Position>
              <LatitudeDegrees>40.67513099871575832366943359375</LatitudeDegrees>
              <LongitudeDegrees>-4.009991325438022613525390625</LongitudeDegrees>
            </Position>
            <AltitudeMeters>984</AltitudeMeters>
            <DistanceMeters>NAN</DistanceMeters>
          </Trackpoint>
          <Trackpoint>
            <Time>2019-08-01T11:16:06.000Z</Time>
            <Position>
              <LatitudeDegrees>40.67516838200390338897705078125</LatitudeDegrees>
              <LongitudeDegrees>-4.0100005455315113067626953125</LongitudeDegrees>
            </Position>
            <AltitudeMeters>984.20001220703125</AltitudeMeters>
            <DistanceMeters>NAN</DistanceMeters>
          </Trackpoint>
          <Trackpoint>
            <Time>2019-08-01T11:16:07.000Z</Time>
            <Position>
              <LatitudeDegrees>40.675205849111080169677734375</LatitudeDegrees>
              <LongitudeDegrees>-4.010009765625</LongitudeDegrees>
            </Position>
            <AltitudeMeters>984.5999755859375</AltitudeMeters>
            <DistanceMeters>NAN</DistanceMeters>
          </Trackpoint>
          <Trackpoint>
            <Time>2019-08-01T11:16:08.000Z</Time>
            <Position>
              <LatitudeDegrees>40.675243400037288665771484375</LatitudeDegrees>
              <LongitudeDegrees>-4.01002091355621814727783203125</LongitudeDegrees>
            </Position>
            <AltitudeMeters>985</AltitudeMeters>
            <DistanceMeters>NAN</DistanceMeters>
          </Trackpoint>
          <Trackpoint>
            <Time>2019-08-01T11:16:09.000Z</Time>
            <Position>
              <LatitudeDegrees>40.6752811186015605926513671875</LatitudeDegrees>
              <LongitudeDegrees>-4.0100320614874362945556640625</LongitudeDegrees>
            </Position>
            <AltitudeMeters>985.20001220703125</AltitudeMeters>
            <DistanceMeters>NAN</DistanceMeters>
          </Trackpoint>
          <Trackpoint>
            <Time>2019-08-01T11:16:10.000Z</Time>
            <Position>
              <LatitudeDegrees>40.6753190048038959503173828125</LatitudeDegrees>
              <LongitudeDegrees>-4.0100444667041301727294921875</LongitudeDegrees>
            </Position>
            <AltitudeMeters>985.4000244140625</AltitudeMeters>
            <DistanceMeters>NAN</DistanceMeters>
          </Trackpoint>
          <Trackpoint>
            <Time>2019-08-01T11:16:11.000Z</Time>
            <Position>
              <LatitudeDegrees>40.675356052815914154052734375</LatitudeDegrees>
              <LongitudeDegrees>-4.01005804538726806640625</LongitudeDegrees>
            </Position>
            <AltitudeMeters>985.5999755859375</AltitudeMeters>
            <DistanceMeters>NAN</DistanceMeters>
          </Trackpoint>
          <Trackpoint>
            <Time>2019-08-01T11:16:12.000Z</Time>
            <Position>
              <LatitudeDegrees>40.675392933189868927001953125</LatitudeDegrees>
              <LongitudeDegrees>-4.01007170788943767547607421875</LongitudeDegrees>
            </Position>
            <AltitudeMeters>985.79998779296875</AltitudeMeters>
            <DistanceMeters>NAN</DistanceMeters>
          </Trackpoint>
          <Trackpoint>
            <Time>2019-08-01T11:16:13.000Z</Time>
            <Position>
              <LatitudeDegrees>40.675429143011569976806640625</LatitudeDegrees>
              <LongitudeDegrees>-4.01008629240095615386962890625</LongitudeDegrees>
            </Position>
            <AltitudeMeters>986.20001220703125</AltitudeMeters>
            <DistanceMeters>NAN</DistanceMeters>
          </Trackpoint>
          <Trackpoint>
            <Time>2019-08-01T11:16:14.000Z</Time>
            <Position>
              <LatitudeDegrees>40.675465352833271026611328125</LatitudeDegrees>
              <LongitudeDegrees>-4.01010163128376007080078125</LongitudeDegrees>
            </Position>
            <AltitudeMeters>986.79998779296875</AltitudeMeters>
            <DistanceMeters>NAN</DistanceMeters>
          </Trackpoint>
          <Trackpoint>
            <Time>2019-08-01T11:16:15.000Z</Time>
            <Position>
              <LatitudeDegrees>40.67550147883594036102294921875</LatitudeDegrees>
              <LongitudeDegrees>-4.01011697016656398773193359375</LongitudeDegrees>
            </Position>
            <AltitudeMeters>987.20001220703125</AltitudeMeters>
            <DistanceMeters>NAN</DistanceMeters>
          </Trackpoint>
          <Trackpoint>
            <Time>2019-08-01T11:16:16.000Z</Time>
            <Position>
              <LatitudeDegrees>40.675537101924419403076171875</LatitudeDegrees>
              <LongitudeDegrees>-4.01013381779193878173828125</LongitudeDegrees>
            </Position>
            <AltitudeMeters>987.4000244140625</AltitudeMeters>
            <DistanceMeters>NAN</DistanceMeters>
          </Trackpoint>
          <Trackpoint>
            <Time>2019-08-01T11:16:17.000Z</Time>
            <Position>
              <LatitudeDegrees>40.6755721382796764373779296875</LatitudeDegrees>
              <LongitudeDegrees>-4.01015125215053558349609375</LongitudeDegrees>
            </Position>
            <AltitudeMeters>987.5999755859375</AltitudeMeters>
            <DistanceMeters>NAN</DistanceMeters>
          </Trackpoint>
          <Trackpoint>
            <Time>2019-08-01T11:16:18.000Z</Time>
            <Position>
              <LatitudeDegrees>40.67560692317783832550048828125</LatitudeDegrees>
              <LongitudeDegrees>-4.010169692337512969970703125</LongitudeDegrees>
            </Position>
            <AltitudeMeters>987.79998779296875</AltitudeMeters>
            <DistanceMeters>NAN</DistanceMeters>
          </Trackpoint>
          <Trackpoint>
            <Time>2019-08-01T11:16:19.000Z</Time>
            <Position>
              <LatitudeDegrees>40.67560692317783832550048828125</LatitudeDegrees>
              <LongitudeDegrees>-4.010169692337512969970703125</LongitudeDegrees>
            </Position>
            <AltitudeMeters>988</AltitudeMeters>
            <DistanceMeters>NAN</DistanceMeters>
          </Trackpoint>
          <Trackpoint>
            <Time>2019-08-01T11:16:20.000Z</Time>
            <Position>
              <LatitudeDegrees>40.6756764091551303863525390625</LatitudeDegrees>
              <LongitudeDegrees>-4.01020682416856288909912109375</LongitudeDegrees>
            </Position>
            <AltitudeMeters>988.20001220703125</AltitudeMeters>
            <DistanceMeters>NAN</DistanceMeters>
          </Trackpoint>
          <Trackpoint>
            <Time>2019-08-01T11:16:21.000Z</Time>
            <Position>
              <LatitudeDegrees>40.6756764091551303863525390625</LatitudeDegrees>
              <LongitudeDegrees>-4.01020682416856288909912109375</LongitudeDegrees>
            </Position>
            <AltitudeMeters>988.4000244140625</AltitudeMeters>
            <DistanceMeters>NAN</DistanceMeters>
          </Trackpoint>
          <Trackpoint>
            <Time>2019-08-01T11:16:22.000Z</Time>
            <Position>
              <LatitudeDegrees>40.675745643675327301025390625</LatitudeDegrees>
              <LongitudeDegrees>-4.01024688966572284698486328125</LongitudeDegrees>
            </Position>
            <AltitudeMeters>988.5999755859375</AltitudeMeters>
            <DistanceMeters>NAN</DistanceMeters>
          </Trackpoint>
          <Trackpoint>
            <Time>2019-08-01T11:16:23.000Z</Time>
            <Position>
              <LatitudeDegrees>40.6757806800305843353271484375</LatitudeDegrees>
              <LongitudeDegrees>-4.01026834733784198760986328125</LongitudeDegrees>
            </Position>
            <AltitudeMeters>989</AltitudeMeters>
            <DistanceMeters>NAN</DistanceMeters>
          </Trackpoint>
          <Trackpoint>
            <Time>2019-08-01T11:16:24.000Z</Time>
            <Position>
              <LatitudeDegrees>40.675815381109714508056640625</LatitudeDegrees>
              <LongitudeDegrees>-4.0102900564670562744140625</LongitudeDegrees>
            </Position>
            <AltitudeMeters>989.20001220703125</AltitudeMeters>
            <DistanceMeters>NAN</DistanceMeters>
          </Trackpoint>
          <Trackpoint>
            <Time>2019-08-01T11:16:25.000Z</Time>
            <Position>
              <LatitudeDegrees>40.67585050128400325775146484375</LatitudeDegrees>
              <LongitudeDegrees>-4.01031310670077800750732421875</LongitudeDegrees>
            </Position>
            <AltitudeMeters>989.5999755859375</AltitudeMeters>
            <DistanceMeters>NAN</DistanceMeters>
          </Trackpoint>
          <Trackpoint>
            <Time>2019-08-01T11:16:26.000Z</Time>
            <Position>
              <LatitudeDegrees>40.67588570527732372283935546875</LatitudeDegrees>
              <LongitudeDegrees>-4.0103371627628803253173828125</LongitudeDegrees>
            </Position>
            <AltitudeMeters>990</AltitudeMeters>
            <DistanceMeters>NAN</DistanceMeters>
          </Trackpoint>
          <Trackpoint>
            <Time>2019-08-01T11:16:27.000Z</Time>
            <Position>
              <LatitudeDegrees>40.67592124454677104949951171875</LatitudeDegrees>
              <LongitudeDegrees>-4.01036205701529979705810546875</LongitudeDegrees>
            </Position>
            <AltitudeMeters>990</AltitudeMeters>
            <DistanceMeters>NAN</DistanceMeters>
          </Trackpoint>
          <Trackpoint>
            <Time>2019-08-01T11:16:28.000Z</Time>
            <Position>
              <LatitudeDegrees>40.675957538187503814697265625</LatitudeDegrees>
              <LongitudeDegrees>-4.01038753800094127655029296875</LongitudeDegrees>
            </Position>
            <AltitudeMeters>990.4000244140625</AltitudeMeters>
            <DistanceMeters>NAN</DistanceMeters>
          </Trackpoint>
          <Trackpoint>
            <Time>2019-08-01T11:16:29.000Z</Time>
            <Position>
              <LatitudeDegrees>40.67599433474242687225341796875</LatitudeDegrees>
              <LongitudeDegrees>-4.0104129351675510406494140625</LongitudeDegrees>
            </Position>
            <AltitudeMeters>990.5999755859375</AltitudeMeters>
            <DistanceMeters>NAN</DistanceMeters>
          </Trackpoint>
          <Trackpoint>
            <Time>2019-08-01T11:16:30.000Z</Time>
            <Position>
              <LatitudeDegrees>40.67603121511638164520263671875</LatitudeDegrees>
              <LongitudeDegrees>-4.0104387514293193817138671875</LongitudeDegrees>
            </Position>
            <AltitudeMeters>991</AltitudeMeters>
            <DistanceMeters>NAN</DistanceMeters>
          </Trackpoint>
          <Trackpoint>
            <Time>2019-08-01T11:16:31.000Z</Time>
            <Position>
              <LatitudeDegrees>40.6760685145854949951171875</LatitudeDegrees>
              <LongitudeDegrees>-4.01046507060527801513671875</LongitudeDegrees>
            </Position>
            <AltitudeMeters>991.20001220703125</AltitudeMeters>
            <DistanceMeters>NAN</DistanceMeters>
          </Trackpoint>
          <Trackpoint>
            <Time>2019-08-01T11:16:32.000Z</Time>
            <Position>
              <LatitudeDegrees>40.676105730235576629638671875</LatitudeDegrees>
              <LongitudeDegrees>-4.0104910545051097869873046875</LongitudeDegrees>
            </Position>
            <AltitudeMeters>991.5999755859375</AltitudeMeters>
            <DistanceMeters>NAN</DistanceMeters>
          </Trackpoint>
          <Trackpoint>
            <Time>2019-08-01T11:16:33.000Z</Time>
            <Position>
              <LatitudeDegrees>40.676105730235576629638671875</LatitudeDegrees>
              <LongitudeDegrees>-4.0104910545051097869873046875</LongitudeDegrees>
            </Position>
            <AltitudeMeters>991.79998779296875</AltitudeMeters>
            <DistanceMeters>NAN</DistanceMeters>
          </Trackpoint>
          <Trackpoint>
            <Time>2019-08-01T11:16:34.000Z</Time>
            <Position>
              <LatitudeDegrees>40.676179826259613037109375</LatitudeDegrees>
              <LongitudeDegrees>-4.01054377667605876922607421875</LongitudeDegrees>
            </Position>
            <AltitudeMeters>992</AltitudeMeters>
            <DistanceMeters>NAN</DistanceMeters>
          </Trackpoint>
          <Trackpoint>
            <Time>2019-08-01T11:16:35.000Z</Time>
            <Position>
              <LatitudeDegrees>40.67621670663356781005859375</LatitudeDegrees>
              <LongitudeDegrees>-4.0105698443949222564697265625</LongitudeDegrees>
            </Position>
            <AltitudeMeters>992.20001220703125</AltitudeMeters>
            <DistanceMeters>NAN</DistanceMeters>
          </Trackpoint>
          <Trackpoint>
            <Time>2019-08-01T11:16:36.000Z</Time>
            <Position>
              <LatitudeDegrees>40.676253922283649444580078125</LatitudeDegrees>
              <LongitudeDegrees>-4.010594822466373443603515625</LongitudeDegrees>
            </Position>
            <AltitudeMeters>992.4000244140625</AltitudeMeters>
            <DistanceMeters>NAN</DistanceMeters>
          </Trackpoint>
          <Trackpoint>
            <Time>2019-08-01T11:16:37.000Z</Time>
            <Position>
              <LatitudeDegrees>40.67629071883857250213623046875</LatitudeDegrees>
              <LongitudeDegrees>-4.01062005199491977691650390625</LongitudeDegrees>
            </Position>
            <AltitudeMeters>992.4000244140625</AltitudeMeters>
            <DistanceMeters>NAN</DistanceMeters>
          </Trackpoint>
          <Trackpoint>
            <Time>2019-08-01T11:16:38.000Z</Time>
            <Position>
              <LatitudeDegrees>40.6763275153934955596923828125</LatitudeDegrees>
              <LongitudeDegrees>-4.01064620353281497955322265625</LongitudeDegrees>
            </Position>
            <AltitudeMeters>992.5999755859375</AltitudeMeters>
            <DistanceMeters>NAN</DistanceMeters>
          </Trackpoint>
          <Trackpoint>
            <Time>2019-08-01T11:16:39.000Z</Time>
            <Position>
              <LatitudeDegrees>40.6763275153934955596923828125</LatitudeDegrees>
              <LongitudeDegrees>-4.01064620353281497955322265625</LongitudeDegrees>
            </Position>
            <AltitudeMeters>992.79998779296875</AltitudeMeters>
            <DistanceMeters>NAN</DistanceMeters>
          </Trackpoint>
          <Trackpoint>
            <Time>2019-08-01T11:16:40.000Z</Time>
            <Position>
              <LatitudeDegrees>40.67640169523656368255615234375</LatitudeDegrees>
              <LongitudeDegrees>-4.01069800369441509246826171875</LongitudeDegrees>
            </Position>
            <AltitudeMeters>993</AltitudeMeters>
            <DistanceMeters>NAN</DistanceMeters>
          </Trackpoint>
          <Trackpoint>
            <Time>2019-08-01T11:16:41.000Z</Time>
            <Position>
              <LatitudeDegrees>40.67640169523656368255615234375</LatitudeDegrees>
              <LongitudeDegrees>-4.01069800369441509246826171875</LongitudeDegrees>
            </Position>
            <AltitudeMeters>993</AltitudeMeters>
            <DistanceMeters>NAN</DistanceMeters>
          </Trackpoint>
          <Trackpoint>
            <Time>2019-08-01T11:16:42.000Z</Time>
            <Position>
              <LatitudeDegrees>40.67640169523656368255615234375</LatitudeDegrees>
              <LongitudeDegrees>-4.01069800369441509246826171875</LongitudeDegrees>
            </Position>
            <AltitudeMeters>993.4000244140625</AltitudeMeters>
            <DistanceMeters>NAN</DistanceMeters>
          </Trackpoint>
          <Trackpoint>
            <Time>2019-08-01T11:16:43.000Z</Time>
            <Position>
              <LatitudeDegrees>40.6765135936439037322998046875</LatitudeDegrees>
              <LongitudeDegrees>-4.01077494956552982330322265625</LongitudeDegrees>
            </Position>
            <AltitudeMeters>993.5999755859375</AltitudeMeters>
            <DistanceMeters>NAN</DistanceMeters>
          </Trackpoint>
          <Trackpoint>
            <Time>2019-08-01T11:16:44.000Z</Time>
            <Position>
              <LatitudeDegrees>40.676551647484302520751953125</LatitudeDegrees>
              <LongitudeDegrees>-4.01080026291310787200927734375</LongitudeDegrees>
            </Position>
            <AltitudeMeters>994</AltitudeMeters>
            <DistanceMeters>NAN</DistanceMeters>
          </Trackpoint>
          <Trackpoint>
            <Time>2019-08-01T11:16:45.000Z</Time>
            <Position>
              <LatitudeDegrees>40.6765890307724475860595703125</LatitudeDegrees>
              <LongitudeDegrees>-4.0108263306319713592529296875</LongitudeDegrees>
            </Position>
            <AltitudeMeters>994.20001220703125</AltitudeMeters>
            <DistanceMeters>NAN</DistanceMeters>
          </Trackpoint>
          <Trackpoint>
            <Time>2019-08-01T11:16:46.000Z</Time>
            <Position>
              <LatitudeDegrees>40.6766264140605926513671875</LatitudeDegrees>
              <LongitudeDegrees>-4.0108534879982471466064453125</LongitudeDegrees>
            </Position>
            <AltitudeMeters>994.5999755859375</AltitudeMeters>
            <DistanceMeters>NAN</DistanceMeters>
          </Trackpoint>
          <Trackpoint>
            <Time>2019-08-01T11:16:47.000Z</Time>
            <Position>
              <LatitudeDegrees>40.6766639649868011474609375</LatitudeDegrees>
              <LongitudeDegrees>-4.01087905280292034149169921875</LongitudeDegrees>
            </Position>
            <AltitudeMeters>994.79998779296875</AltitudeMeters>
            <DistanceMeters>NAN</DistanceMeters>
          </Trackpoint>
          <Trackpoint>
            <Time>2019-08-01T11:16:48.000Z</Time>
            <Position>
              <LatitudeDegrees>40.6767016835510730743408203125</LatitudeDegrees>
              <LongitudeDegrees>-4.01090503670275211334228515625</LongitudeDegrees>
            </Position>
            <AltitudeMeters>995</AltitudeMeters>
            <DistanceMeters>NAN</DistanceMeters>
          </Trackpoint>
          <Trackpoint>
            <Time>2019-08-01T11:16:49.000Z</Time>
            <Position>
              <LatitudeDegrees>40.67673998884856700897216796875</LatitudeDegrees>
              <LongitudeDegrees>-4.01092909276485443115234375</LongitudeDegrees>
            </Position>
            <AltitudeMeters>995.20001220703125</AltitudeMeters>
            <DistanceMeters>NAN</DistanceMeters>
          </Trackpoint>
          <Trackpoint>
            <Time>2019-08-01T11:16:50.000Z</Time>
            <Position>
              <LatitudeDegrees>40.67677795886993408203125</LatitudeDegrees>
              <LongitudeDegrees>-4.010954909026622772216796875</LongitudeDegrees>
            </Position>
            <AltitudeMeters>995.5999755859375</AltitudeMeters>
            <DistanceMeters>NAN</DistanceMeters>
          </Trackpoint>
          <Trackpoint>
            <Time>2019-08-01T11:16:51.000Z</Time>
            <Position>
              <LatitudeDegrees>40.67681592889130115509033203125</LatitudeDegrees>
              <LongitudeDegrees>-4.01098080910742282867431640625</LongitudeDegrees>
            </Position>
            <AltitudeMeters>995.79998779296875</AltitudeMeters>
            <DistanceMeters>NAN</DistanceMeters>
          </Trackpoint>
          <Trackpoint>
            <Time>2019-08-01T11:16:52.000Z</Time>
            <Position>
              <LatitudeDegrees>40.67681592889130115509033203125</LatitudeDegrees>
              <LongitudeDegrees>-4.01098080910742282867431640625</LongitudeDegrees>
            </Position>
            <AltitudeMeters>996.20001220703125</AltitudeMeters>
            <DistanceMeters>NAN</DistanceMeters>
          </Trackpoint>
          <Trackpoint>
            <Time>2019-08-01T11:16:53.000Z</Time>
            <Position>
              <LatitudeDegrees>40.6768911145627498626708984375</LatitudeDegrees>
              <LongitudeDegrees>-4.01103529147803783416748046875</LongitudeDegrees>
            </Position>
            <AltitudeMeters>996.4000244140625</AltitudeMeters>
            <DistanceMeters>NAN</DistanceMeters>
          </Trackpoint>
          <Trackpoint>
            <Time>2019-08-01T11:16:54.000Z</Time>
            <Position>
              <LatitudeDegrees>40.6769286654889583587646484375</LatitudeDegrees>
              <LongitudeDegrees>-4.0110640414059162139892578125</LongitudeDegrees>
            </Position>
            <AltitudeMeters>996.5999755859375</AltitudeMeters>
            <DistanceMeters>NAN</DistanceMeters>
          </Trackpoint>
          <Trackpoint>
            <Time>2019-08-01T11:16:55.000Z</Time>
            <Position>
              <LatitudeDegrees>40.67696613259613513946533203125</LatitudeDegrees>
              <LongitudeDegrees>-4.01109128259122371673583984375</LongitudeDegrees>
            </Position>
            <AltitudeMeters>996.79998779296875</AltitudeMeters>
            <DistanceMeters>NAN</DistanceMeters>
          </Trackpoint>
          <Trackpoint>
            <Time>2019-08-01T11:16:56.000Z</Time>
            <Position>
              <LatitudeDegrees>40.67700368352234363555908203125</LatitudeDegrees>
              <LongitudeDegrees>-4.0111183561384677886962890625</LongitudeDegrees>
            </Position>
            <AltitudeMeters>997</AltitudeMeters>
            <DistanceMeters>NAN</DistanceMeters>
          </Trackpoint>
          <Trackpoint>
            <Time>2019-08-01T11:16:57.000Z</Time>
            <Position>
              <LatitudeDegrees>40.677041150629520416259765625</LatitudeDegrees>
              <LongitudeDegrees>-4.0111458487808704376220703125</LongitudeDegrees>
            </Position>
            <AltitudeMeters>997.20001220703125</AltitudeMeters>
            <DistanceMeters>NAN</DistanceMeters>
          </Trackpoint>
          <Trackpoint>
            <Time>2019-08-01T11:16:58.000Z</Time>
            <Position>
              <LatitudeDegrees>40.677041150629520416259765625</LatitudeDegrees>
              <LongitudeDegrees>-4.0111458487808704376220703125</LongitudeDegrees>
            </Position>
            <AltitudeMeters>997.4000244140625</AltitudeMeters>
            <DistanceMeters>NAN</DistanceMeters>
          </Trackpoint>
          <Trackpoint>
            <Time>2019-08-01T11:16:59.000Z</Time>
            <Position>
              <LatitudeDegrees>40.677116252481937408447265625</LatitudeDegrees>
              <LongitudeDegrees>-4.0112006664276123046875</LongitudeDegrees>
            </Position>
            <AltitudeMeters>997.5999755859375</AltitudeMeters>
            <DistanceMeters>NAN</DistanceMeters>
          </Trackpoint>
          <Trackpoint>
            <Time>2019-08-01T11:17:00.000Z</Time>
            <Position>
              <LatitudeDegrees>40.6771543063223361968994140625</LatitudeDegrees>
              <LongitudeDegrees>-4.0112283267080783843994140625</LongitudeDegrees>
            </Position>
            <AltitudeMeters>997.79998779296875</AltitudeMeters>
            <DistanceMeters>NAN</DistanceMeters>
          </Trackpoint>
          <Trackpoint>
            <Time>2019-08-01T11:17:01.000Z</Time>
            <Position>
              <LatitudeDegrees>40.6771918572485446929931640625</LatitudeDegrees>
              <LongitudeDegrees>-4.01125523261725902557373046875</LongitudeDegrees>
            </Position>
            <AltitudeMeters>998.20001220703125</AltitudeMeters>
            <DistanceMeters>NAN</DistanceMeters>
          </Trackpoint>
          <Trackpoint>
            <Time>2019-08-01T11:17:02.000Z</Time>
            <Position>
              <LatitudeDegrees>40.67722949199378490447998046875</LatitudeDegrees>
              <LongitudeDegrees>-4.0112823061645030975341796875</LongitudeDegrees>
            </Position>
            <AltitudeMeters>998.4000244140625</AltitudeMeters>
            <DistanceMeters>NAN</DistanceMeters>
          </Trackpoint>
          <Trackpoint>
            <Time>2019-08-01T11:17:03.000Z</Time>
            <Position>
              <LatitudeDegrees>40.6772669591009616851806640625</LatitudeDegrees>
              <LongitudeDegrees>-4.01131038554012775421142578125</LongitudeDegrees>
            </Position>
            <AltitudeMeters>998.79998779296875</AltitudeMeters>
            <DistanceMeters>NAN</DistanceMeters>
          </Trackpoint>
          <Trackpoint>
            <Time>2019-08-01T11:17:04.000Z</Time>
            <Position>
              <LatitudeDegrees>40.6772669591009616851806640625</LatitudeDegrees>
              <LongitudeDegrees>-4.01131038554012775421142578125</LongitudeDegrees>
            </Position>
            <AltitudeMeters>999.20001220703125</AltitudeMeters>
            <DistanceMeters>NAN</DistanceMeters>
          </Trackpoint>
          <Trackpoint>
            <Time>2019-08-01T11:17:05.000Z</Time>
            <Position>
              <LatitudeDegrees>40.67734197713434696197509765625</LatitudeDegrees>
              <LongitudeDegrees>-4.01136604137718677520751953125</LongitudeDegrees>
            </Position>
            <AltitudeMeters>999.79998779296875</AltitudeMeters>
            <DistanceMeters>NAN</DistanceMeters>
          </Trackpoint>
          <Trackpoint>
            <Time>2019-08-01T11:17:06.000Z</Time>
            <Position>
              <LatitudeDegrees>40.67737936042249202728271484375</LatitudeDegrees>
              <LongitudeDegrees>-4.01139370165765285491943359375</LongitudeDegrees>
            </Position>
            <AltitudeMeters>1000</AltitudeMeters>
            <DistanceMeters>NAN</DistanceMeters>
          </Trackpoint>
          <Trackpoint>
            <Time>2019-08-01T11:17:07.000Z</Time>
            <Position>
              <LatitudeDegrees>40.67741691134870052337646484375</LatitudeDegrees>
              <LongitudeDegrees>-4.01142069138586521148681640625</LongitudeDegrees>
            </Position>
            <AltitudeMeters>1000.20001220703125</AltitudeMeters>
            <DistanceMeters>NAN</DistanceMeters>
          </Trackpoint>
          <Trackpoint>
            <Time>2019-08-01T11:17:08.000Z</Time>
            <Position>
              <LatitudeDegrees>40.67745462991297245025634765625</LatitudeDegrees>
              <LongitudeDegrees>-4.01144717819988727569580078125</LongitudeDegrees>
            </Position>
            <AltitudeMeters>1000.5999755859375</AltitudeMeters>
            <DistanceMeters>NAN</DistanceMeters>
          </Trackpoint>
          <Trackpoint>
            <Time>2019-08-01T11:17:09.000Z</Time>
            <Position>
              <LatitudeDegrees>40.677492432296276092529296875</LatitudeDegrees>
              <LongitudeDegrees>-4.01147433556616306304931640625</LongitudeDegrees>
            </Position>
            <AltitudeMeters>1000.5999755859375</AltitudeMeters>
            <DistanceMeters>NAN</DistanceMeters>
          </Trackpoint>
          <Trackpoint>
            <Time>2019-08-01T11:17:10.000Z</Time>
            <Position>
              <LatitudeDegrees>40.67753023467957973480224609375</LatitudeDegrees>
              <LongitudeDegrees>-4.0115012414753437042236328125</LongitudeDegrees>
            </Position>
            <AltitudeMeters>1000.79998779296875</AltitudeMeters>
            <DistanceMeters>NAN</DistanceMeters>
          </Trackpoint>
          <Trackpoint>
            <Time>2019-08-01T11:17:11.000Z</Time>
            <Position>
              <LatitudeDegrees>40.67756812088191509246826171875</LatitudeDegrees>
              <LongitudeDegrees>-4.0115277282893657684326171875</LongitudeDegrees>
            </Position>
            <AltitudeMeters>1001</AltitudeMeters>
            <DistanceMeters>NAN</DistanceMeters>
          </Trackpoint>
          <Trackpoint>
            <Time>2019-08-01T11:17:12.000Z</Time>
            <Position>
              <LatitudeDegrees>40.67760600708425045013427734375</LatitudeDegrees>
              <LongitudeDegrees>-4.0115542151033878326416015625</LongitudeDegrees>
            </Position>
            <AltitudeMeters>1001.4000244140625</AltitudeMeters>
            <DistanceMeters>NAN</DistanceMeters>
          </Trackpoint>
          <Trackpoint>
            <Time>2019-08-01T11:17:13.000Z</Time>
            <Position>
              <LatitudeDegrees>40.67764305509626865386962890625</LatitudeDegrees>
              <LongitudeDegrees>-4.01158112101256847381591796875</LongitudeDegrees>
            </Position>
            <AltitudeMeters>1001.4000244140625</AltitudeMeters>
            <DistanceMeters>NAN</DistanceMeters>
          </Trackpoint>
          <Trackpoint>
            <Time>2019-08-01T11:17:14.000Z</Time>
            <Position>
              <LatitudeDegrees>40.6776805222034454345703125</LatitudeDegrees>
              <LongitudeDegrees>-4.0116075240075588226318359375</LongitudeDegrees>
            </Position>
            <AltitudeMeters>1001.5999755859375</AltitudeMeters>
            <DistanceMeters>NAN</DistanceMeters>
          </Trackpoint>
          <Trackpoint>
            <Time>2019-08-01T11:17:15.000Z</Time>
            <Position>
              <LatitudeDegrees>40.6777180731296539306640625</LatitudeDegrees>
              <LongitudeDegrees>-4.01163325645029544830322265625</LongitudeDegrees>
            </Position>
            <AltitudeMeters>1001.79998779296875</AltitudeMeters>
            <DistanceMeters>NAN</DistanceMeters>
          </Trackpoint>
          <Trackpoint>
            <Time>2019-08-01T11:17:16.000Z</Time>
            <Position>
              <LatitudeDegrees>40.67775486968457698822021484375</LatitudeDegrees>
              <LongitudeDegrees>-4.011659659445285797119140625</LongitudeDegrees>
            </Position>
            <AltitudeMeters>1002.5999755859375</AltitudeMeters>
            <DistanceMeters>NAN</DistanceMeters>
          </Trackpoint>
          <Trackpoint>
            <Time>2019-08-01T11:17:17.000Z</Time>
            <Position>
              <LatitudeDegrees>40.677791498601436614990234375</LatitudeDegrees>
              <LongitudeDegrees>-4.0116856433451175689697265625</LongitudeDegrees>
            </Position>
            <AltitudeMeters>1002.79998779296875</AltitudeMeters>
            <DistanceMeters>NAN</DistanceMeters>
          </Trackpoint>
          <Trackpoint>
            <Time>2019-08-01T11:17:18.000Z</Time>
            <Position>
              <LatitudeDegrees>40.67782812751829624176025390625</LatitudeDegrees>
              <LongitudeDegrees>-4.0117111243307590484619140625</LongitudeDegrees>
            </Position>
            <AltitudeMeters>1003.20001220703125</AltitudeMeters>
            <DistanceMeters>NAN</DistanceMeters>
          </Trackpoint>
          <Trackpoint>
            <Time>2019-08-01T11:17:19.000Z</Time>
            <Position>
              <LatitudeDegrees>40.67786416970193386077880859375</LatitudeDegrees>
              <LongitudeDegrees>-4.01173752732574939727783203125</LongitudeDegrees>
            </Position>
            <AltitudeMeters>1003.4000244140625</AltitudeMeters>
            <DistanceMeters>NAN</DistanceMeters>
          </Trackpoint>
          <Trackpoint>
            <Time>2019-08-01T11:17:20.000Z</Time>
            <Position>
              <LatitudeDegrees>40.67790071479976177215576171875</LatitudeDegrees>
              <LongitudeDegrees>-4.0117637626826763153076171875</LongitudeDegrees>
            </Position>
            <AltitudeMeters>1004</AltitudeMeters>
            <DistanceMeters>NAN</DistanceMeters>
          </Trackpoint>
          <Trackpoint>
            <Time>2019-08-01T11:17:21.000Z</Time>
            <Position>
              <LatitudeDegrees>40.6779371760785579681396484375</LatitudeDegrees>
              <LongitudeDegrees>-4.01178983040153980255126953125</LongitudeDegrees>
            </Position>
            <AltitudeMeters>1004.20001220703125</AltitudeMeters>
            <DistanceMeters>NAN</DistanceMeters>
          </Trackpoint>
          <Trackpoint>
            <Time>2019-08-01T11:17:22.000Z</Time>
            <Position>
              <LatitudeDegrees>40.6779737211763858795166015625</LatitudeDegrees>
              <LongitudeDegrees>-4.01181682012975215911865234375</LongitudeDegrees>
            </Position>
            <AltitudeMeters>1004.20001220703125</AltitudeMeters>
            <DistanceMeters>NAN</DistanceMeters>
          </Trackpoint>
          <Trackpoint>
            <Time>2019-08-01T11:17:23.000Z</Time>
            <Position>
              <LatitudeDegrees>40.6780106015503406524658203125</LatitudeDegrees>
              <LongitudeDegrees>-4.011842720210552215576171875</LongitudeDegrees>
            </Position>
            <AltitudeMeters>1004.5999755859375</AltitudeMeters>
            <DistanceMeters>NAN</DistanceMeters>
          </Trackpoint>
          <Trackpoint>
            <Time>2019-08-01T11:17:24.000Z</Time>
            <Position>
              <LatitudeDegrees>40.67804806865751743316650390625</LatitudeDegrees>
              <LongitudeDegrees>-4.01186862029135227203369140625</LongitudeDegrees>
            </Position>
            <AltitudeMeters>1004.5999755859375</AltitudeMeters>
            <DistanceMeters>NAN</DistanceMeters>
          </Trackpoint>
          <Trackpoint>
            <Time>2019-08-01T11:17:25.000Z</Time>
            <Position>
              <LatitudeDegrees>40.67808578722178936004638671875</LatitudeDegrees>
              <LongitudeDegrees>-4.01189493946731090545654296875</LongitudeDegrees>
            </Position>
            <AltitudeMeters>1004.79998779296875</AltitudeMeters>
            <DistanceMeters>NAN</DistanceMeters>
          </Trackpoint>
          <Trackpoint>
            <Time>2019-08-01T11:17:26.000Z</Time>
            <Position>
              <LatitudeDegrees>40.678123421967029571533203125</LatitudeDegrees>
              <LongitudeDegrees>-4.01192142628133296966552734375</LongitudeDegrees>
            </Position>
            <AltitudeMeters>1005.20001220703125</AltitudeMeters>
            <DistanceMeters>NAN</DistanceMeters>
          </Trackpoint>
          <Trackpoint>
            <Time>2019-08-01T11:17:27.000Z</Time>
            <Position>
              <LatitudeDegrees>40.6781611405313014984130859375</LatitudeDegrees>
              <LongitudeDegrees>-4.01194808073341846466064453125</LongitudeDegrees>
            </Position>
            <AltitudeMeters>1005.4000244140625</AltitudeMeters>
            <DistanceMeters>NAN</DistanceMeters>
          </Trackpoint>
          <Trackpoint>
            <Time>2019-08-01T11:17:28.000Z</Time>
            <Position>
              <LatitudeDegrees>40.678199194371700286865234375</LatitudeDegrees>
              <LongitudeDegrees>-4.01197423227131366729736328125</LongitudeDegrees>
            </Position>
            <AltitudeMeters>1005.4000244140625</AltitudeMeters>
            <DistanceMeters>NAN</DistanceMeters>
          </Trackpoint>
          <Trackpoint>
            <Time>2019-08-01T11:17:29.000Z</Time>
            <Position>
              <LatitudeDegrees>40.67823699675500392913818359375</LatitudeDegrees>
              <LongitudeDegrees>-4.0120008029043674468994140625</LongitudeDegrees>
            </Position>
            <AltitudeMeters>1005.79998779296875</AltitudeMeters>
            <DistanceMeters>NAN</DistanceMeters>
          </Trackpoint>
          <Trackpoint>
            <Time>2019-08-01T11:17:30.000Z</Time>
            <Position>
              <LatitudeDegrees>40.67823699675500392913818359375</LatitudeDegrees>
              <LongitudeDegrees>-4.0120008029043674468994140625</LongitudeDegrees>
            </Position>
            <AltitudeMeters>1005.79998779296875</AltitudeMeters>
            <DistanceMeters>NAN</DistanceMeters>
          </Trackpoint>
          <Trackpoint>
            <Time>2019-08-01T11:17:31.000Z</Time>
            <Position>
              <LatitudeDegrees>40.67831310443580150604248046875</LatitudeDegrees>
              <LongitudeDegrees>-4.01205302216112613677978515625</LongitudeDegrees>
            </Position>
            <AltitudeMeters>1005.79998779296875</AltitudeMeters>
            <DistanceMeters>NAN</DistanceMeters>
          </Trackpoint>
          <Trackpoint>
            <Time>2019-08-01T11:17:32.000Z</Time>
            <Position>
              <LatitudeDegrees>40.67835182882845401763916015625</LatitudeDegrees>
              <LongitudeDegrees>-4.01207967661321163177490234375</LongitudeDegrees>
            </Position>
            <AltitudeMeters>1006</AltitudeMeters>
            <DistanceMeters>NAN</DistanceMeters>
          </Trackpoint>
          <Trackpoint>
            <Time>2019-08-01T11:17:33.000Z</Time>
            <Position>
              <LatitudeDegrees>40.6783908046782016754150390625</LatitudeDegrees>
              <LongitudeDegrees>-4.01210700161755084991455078125</LongitudeDegrees>
            </Position>
            <AltitudeMeters>1006.5999755859375</AltitudeMeters>
            <DistanceMeters>NAN</DistanceMeters>
          </Trackpoint>
          <Trackpoint>
            <Time>2019-08-01T11:17:34.000Z</Time>
            <Position>
              <LatitudeDegrees>40.67842978052794933319091796875</LatitudeDegrees>
              <LongitudeDegrees>-4.01213550008833408355712890625</LongitudeDegrees>
            </Position>
            <AltitudeMeters>1006.79998779296875</AltitudeMeters>
            <DistanceMeters>NAN</DistanceMeters>
          </Trackpoint>
          <Trackpoint>
            <Time>2019-08-01T11:17:35.000Z</Time>
            <Position>
              <LatitudeDegrees>40.678469426929950714111328125</LatitudeDegrees>
              <LongitudeDegrees>-4.0121640823781490325927734375</LongitudeDegrees>
            </Position>
            <AltitudeMeters>1006.79998779296875</AltitudeMeters>
            <DistanceMeters>NAN</DistanceMeters>
          </Trackpoint>
          <Trackpoint>
            <Time>2019-08-01T11:17:36.000Z</Time>
            <Position>
              <LatitudeDegrees>40.6785094924271106719970703125</LatitudeDegrees>
              <LongitudeDegrees>-4.0121922455728054046630859375</LongitudeDegrees>
            </Position>
            <AltitudeMeters>1007</AltitudeMeters>
            <DistanceMeters>NAN</DistanceMeters>
          </Trackpoint>
          <Trackpoint>
            <Time>2019-08-01T11:17:37.000Z</Time>
            <Position>
              <LatitudeDegrees>40.67854964174330234527587890625</LatitudeDegrees>
              <LongitudeDegrees>-4.01222032494843006134033203125</LongitudeDegrees>
            </Position>
            <AltitudeMeters>1007.20001220703125</AltitudeMeters>
            <DistanceMeters>NAN</DistanceMeters>
          </Trackpoint>
          <Trackpoint>
            <Time>2019-08-01T11:17:38.000Z</Time>
            <Position>
              <LatitudeDegrees>40.67858953960239887237548828125</LatitudeDegrees>
              <LongitudeDegrees>-4.0122489072382450103759765625</LongitudeDegrees>
            </Position>
            <AltitudeMeters>1007.5999755859375</AltitudeMeters>
            <DistanceMeters>NAN</DistanceMeters>
          </Trackpoint>
          <Trackpoint>
            <Time>2019-08-01T11:17:39.000Z</Time>
            <Position>
              <LatitudeDegrees>40.67862943746149539947509765625</LatitudeDegrees>
              <LongitudeDegrees>-4.01227698661386966705322265625</LongitudeDegrees>
            </Position>
            <AltitudeMeters>1007.5999755859375</AltitudeMeters>
            <DistanceMeters>NAN</DistanceMeters>
          </Trackpoint>
          <Trackpoint>
            <Time>2019-08-01T11:17:40.000Z</Time>
            <Position>
              <LatitudeDegrees>40.67866950295865535736083984375</LatitudeDegrees>
              <LongitudeDegrees>-4.01230498217046260833740234375</LongitudeDegrees>
            </Position>
            <AltitudeMeters>1007.79998779296875</AltitudeMeters>
            <DistanceMeters>NAN</DistanceMeters>
          </Trackpoint>
          <Trackpoint>
            <Time>2019-08-01T11:17:41.000Z</Time>
            <Position>
              <LatitudeDegrees>40.6787093169987201690673828125</LatitudeDegrees>
              <LongitudeDegrees>-4.012332893908023834228515625</LongitudeDegrees>
            </Position>
            <AltitudeMeters>1008.20001220703125</AltitudeMeters>
            <DistanceMeters>NAN</DistanceMeters>
          </Trackpoint>
          <Trackpoint>
            <Time>2019-08-01T11:17:42.000Z</Time>
            <Position>
              <LatitudeDegrees>40.67874913103878498077392578125</LatitudeDegrees>
              <LongitudeDegrees>-4.012361057102680206298828125</LongitudeDegrees>
            </Position>
            <AltitudeMeters>1008.4000244140625</AltitudeMeters>
            <DistanceMeters>NAN</DistanceMeters>
          </Trackpoint>
          <Trackpoint>
            <Time>2019-08-01T11:17:43.000Z</Time>
            <Position>
              <LatitudeDegrees>40.67878919653594493865966796875</LatitudeDegrees>
              <LongitudeDegrees>-4.01238896884024143218994140625</LongitudeDegrees>
            </Position>
            <AltitudeMeters>1008.5999755859375</AltitudeMeters>
            <DistanceMeters>NAN</DistanceMeters>
          </Trackpoint>
          <Trackpoint>
            <Time>2019-08-01T11:17:44.000Z</Time>
            <Position>
              <LatitudeDegrees>40.67882993258535861968994140625</LatitudeDegrees>
              <LongitudeDegrees>-4.01241646148264408111572265625</LongitudeDegrees>
            </Position>
            <AltitudeMeters>1008.79998779296875</AltitudeMeters>
            <DistanceMeters>NAN</DistanceMeters>
          </Trackpoint>
          <Trackpoint>
            <Time>2019-08-01T11:17:45.000Z</Time>
            <Position>
              <LatitudeDegrees>40.678871087729930877685546875</LatitudeDegrees>
              <LongitudeDegrees>-4.0124438703060150146484375</LongitudeDegrees>
            </Position>
            <AltitudeMeters>1009</AltitudeMeters>
            <DistanceMeters>NAN</DistanceMeters>
          </Trackpoint>
          <Trackpoint>
            <Time>2019-08-01T11:17:46.000Z</Time>
            <Position>
              <LatitudeDegrees>40.678871087729930877685546875</LatitudeDegrees>
              <LongitudeDegrees>-4.0124438703060150146484375</LongitudeDegrees>
            </Position>
            <AltitudeMeters>1009</AltitudeMeters>
            <DistanceMeters>NAN</DistanceMeters>
          </Trackpoint>
          <Trackpoint>
            <Time>2019-08-01T11:17:47.000Z</Time>
            <Position>
              <LatitudeDegrees>40.678871087729930877685546875</LatitudeDegrees>
              <LongitudeDegrees>-4.0124438703060150146484375</LongitudeDegrees>
            </Position>
            <AltitudeMeters>1009.20001220703125</AltitudeMeters>
            <DistanceMeters>NAN</DistanceMeters>
          </Trackpoint>
          <Trackpoint>
            <Time>2019-08-01T11:17:48.000Z</Time>
            <Position>
              <LatitudeDegrees>40.6789936311542987823486328125</LatitudeDegrees>
              <LongitudeDegrees>-4.01252123527228832244873046875</LongitudeDegrees>
            </Position>
            <AltitudeMeters>1009.4000244140625</AltitudeMeters>
            <DistanceMeters>NAN</DistanceMeters>
          </Trackpoint>
          <Trackpoint>
            <Time>2019-08-01T11:17:49.000Z</Time>
            <Position>
              <LatitudeDegrees>40.67903361283242702484130859375</LatitudeDegrees>
              <LongitudeDegrees>-4.01254554279148578643798828125</LongitudeDegrees>
            </Position>
            <AltitudeMeters>1009.79998779296875</AltitudeMeters>
            <DistanceMeters>NAN</DistanceMeters>
          </Trackpoint>
          <Trackpoint>
            <Time>2019-08-01T11:17:50.000Z</Time>
            <Position>
              <LatitudeDegrees>40.679074265062808990478515625</LatitudeDegrees>
              <LongitudeDegrees>-4.0125677548348903656005859375</LongitudeDegrees>
            </Position>
            <AltitudeMeters>1010</AltitudeMeters>
            <DistanceMeters>NAN</DistanceMeters>
          </Trackpoint>
          <Trackpoint>
            <Time>2019-08-01T11:17:51.000Z</Time>
            <Position>
              <LatitudeDegrees>40.6791156716644763946533203125</LatitudeDegrees>
              <LongitudeDegrees>-4.01258795522153377532958984375</LongitudeDegrees>
            </Position>
            <AltitudeMeters>1010.4000244140625</AltitudeMeters>
            <DistanceMeters>NAN</DistanceMeters>
          </Trackpoint>
          <Trackpoint>
            <Time>2019-08-01T11:17:52.000Z</Time>
            <Position>
              <LatitudeDegrees>40.6791584193706512451171875</LatitudeDegrees>
              <LongitudeDegrees>-4.01260622777044773101806640625</LongitudeDegrees>
            </Position>
            <AltitudeMeters>1010.5999755859375</AltitudeMeters>
            <DistanceMeters>NAN</DistanceMeters>
          </Trackpoint>
          <Trackpoint>
            <Time>2019-08-01T11:17:53.000Z</Time>
            <Position>
              <LatitudeDegrees>40.67920292727649211883544921875</LatitudeDegrees>
              <LongitudeDegrees>-4.01262232102453708648681640625</LongitudeDegrees>
            </Position>
            <AltitudeMeters>1010.79998779296875</AltitudeMeters>
            <DistanceMeters>NAN</DistanceMeters>
          </Trackpoint>
          <Trackpoint>
            <Time>2019-08-01T11:17:54.000Z</Time>
            <Position>
              <LatitudeDegrees>40.679248273372650146484375</LatitudeDegrees>
              <LongitudeDegrees>-4.01263858191668987274169921875</LongitudeDegrees>
            </Position>
            <AltitudeMeters>1010.79998779296875</AltitudeMeters>
            <DistanceMeters>NAN</DistanceMeters>
          </Trackpoint>
          <Trackpoint>
            <Time>2019-08-01T11:17:55.000Z</Time>
            <Position>
              <LatitudeDegrees>40.67929479293525218963623046875</LatitudeDegrees>
              <LongitudeDegrees>-4.01265534572303295135498046875</LongitudeDegrees>
            </Position>
            <AltitudeMeters>1011</AltitudeMeters>
            <DistanceMeters>NAN</DistanceMeters>
          </Trackpoint>
          <Trackpoint>
            <Time>2019-08-01T11:17:56.000Z</Time>
            <Position>
              <LatitudeDegrees>40.6793426536023616790771484375</LatitudeDegrees>
              <LongitudeDegrees>-4.012671522796154022216796875</LongitudeDegrees>
            </Position>
            <AltitudeMeters>1011.20001220703125</AltitudeMeters>
            <DistanceMeters>NAN</DistanceMeters>
          </Trackpoint>
          <Trackpoint>
            <Time>2019-08-01T11:17:57.000Z</Time>
            <Position>
              <LatitudeDegrees>40.67939135245978832244873046875</LatitudeDegrees>
              <LongitudeDegrees>-4.0126861073076725006103515625</LongitudeDegrees>
            </Position>
            <AltitudeMeters>1011.5999755859375</AltitudeMeters>
            <DistanceMeters>NAN</DistanceMeters>
          </Trackpoint>
          <Trackpoint>
            <Time>2019-08-01T11:17:58.000Z</Time>
            <Position>
              <LatitudeDegrees>40.67939135245978832244873046875</LatitudeDegrees>
              <LongitudeDegrees>-4.0126861073076725006103515625</LongitudeDegrees>
            </Position>
            <AltitudeMeters>1011.5999755859375</AltitudeMeters>
            <DistanceMeters>NAN</DistanceMeters>
          </Trackpoint>
          <Trackpoint>
            <Time>2019-08-01T11:17:59.000Z</Time>
            <Position>
              <LatitudeDegrees>40.67948942072689533233642578125</LatitudeDegrees>
              <LongitudeDegrees>-4.01271468959748744964599609375</LongitudeDegrees>
            </Position>
            <AltitudeMeters>1011.79998779296875</AltitudeMeters>
            <DistanceMeters>NAN</DistanceMeters>
          </Trackpoint>
          <Trackpoint>
            <Time>2019-08-01T11:18:00.000Z</Time>
            <Position>
              <LatitudeDegrees>40.67953887395560741424560546875</LatitudeDegrees>
              <LongitudeDegrees>-4.01272860355675220489501953125</LongitudeDegrees>
            </Position>
            <AltitudeMeters>1012</AltitudeMeters>
            <DistanceMeters>NAN</DistanceMeters>
          </Trackpoint>
          <Trackpoint>
            <Time>2019-08-01T11:18:01.000Z</Time>
            <Position>
              <LatitudeDegrees>40.67958899773657321929931640625</LatitudeDegrees>
              <LongitudeDegrees>-4.0127417631447315216064453125</LongitudeDegrees>
            </Position>
            <AltitudeMeters>1012.20001220703125</AltitudeMeters>
            <DistanceMeters>NAN</DistanceMeters>
          </Trackpoint>
          <Trackpoint>
            <Time>2019-08-01T11:18:02.000Z</Time>
            <Position>
              <LatitudeDegrees>40.67963895387947559356689453125</LatitudeDegrees>
              <LongitudeDegrees>-4.0127551741898059844970703125</LongitudeDegrees>
            </Position>
            <AltitudeMeters>1012.4000244140625</AltitudeMeters>
            <DistanceMeters>NAN</DistanceMeters>
          </Trackpoint>
          <Trackpoint>
            <Time>2019-08-01T11:18:03.000Z</Time>
            <Position>
              <LatitudeDegrees>40.67968882620334625244140625</LatitudeDegrees>
              <LongitudeDegrees>-4.01276900433003902435302734375</LongitudeDegrees>
            </Position>
            <AltitudeMeters>1012.4000244140625</AltitudeMeters>
            <DistanceMeters>NAN</DistanceMeters>
          </Trackpoint>
          <Trackpoint>
            <Time>2019-08-01T11:18:04.000Z</Time>
            <Position>
              <LatitudeDegrees>40.6797389499843120574951171875</LatitudeDegrees>
              <LongitudeDegrees>-4.01278291828930377960205078125</LongitudeDegrees>
            </Position>
            <AltitudeMeters>1012.5999755859375</AltitudeMeters>
            <DistanceMeters>NAN</DistanceMeters>
          </Trackpoint>
          <Trackpoint>
            <Time>2019-08-01T11:18:05.000Z</Time>
            <Position>
              <LatitudeDegrees>40.67978940904140472412109375</LatitudeDegrees>
              <LongitudeDegrees>-4.012796916067600250244140625</LongitudeDegrees>
            </Position>
            <AltitudeMeters>1012.79998779296875</AltitudeMeters>
            <DistanceMeters>NAN</DistanceMeters>
          </Trackpoint>
          <Trackpoint>
            <Time>2019-08-01T11:18:06.000Z</Time>
            <Position>
              <LatitudeDegrees>40.67984011955559253692626953125</LatitudeDegrees>
              <LongitudeDegrees>-4.0128108300268650054931640625</LongitudeDegrees>
            </Position>
            <AltitudeMeters>1013</AltitudeMeters>
            <DistanceMeters>NAN</DistanceMeters>
          </Trackpoint>
          <Trackpoint>
            <Time>2019-08-01T11:18:07.000Z</Time>
            <Position>
              <LatitudeDegrees>40.6798908300697803497314453125</LatitudeDegrees>
              <LongitudeDegrees>-4.01282398961484432220458984375</LongitudeDegrees>
            </Position>
            <AltitudeMeters>1013.20001220703125</AltitudeMeters>
            <DistanceMeters>NAN</DistanceMeters>
          </Trackpoint>
          <Trackpoint>
            <Time>2019-08-01T11:18:08.000Z</Time>
            <Position>
              <LatitudeDegrees>40.6799414567649364471435546875</LatitudeDegrees>
              <LongitudeDegrees>-4.01283740065991878509521484375</LongitudeDegrees>
            </Position>
            <AltitudeMeters>1013.4000244140625</AltitudeMeters>
            <DistanceMeters>NAN</DistanceMeters>
          </Trackpoint>
          <Trackpoint>
            <Time>2019-08-01T11:18:09.000Z</Time>
            <Position>
              <LatitudeDegrees>40.6799920834600925445556640625</LatitudeDegrees>
              <LongitudeDegrees>-4.0128510631620883941650390625</LongitudeDegrees>
            </Position>
            <AltitudeMeters>1013.4000244140625</AltitudeMeters>
            <DistanceMeters>NAN</DistanceMeters>
          </Trackpoint>
          <Trackpoint>
            <Time>2019-08-01T11:18:10.000Z</Time>
            <Position>
              <LatitudeDegrees>40.6800427101552486419677734375</LatitudeDegrees>
              <LongitudeDegrees>-4.012864641845226287841796875</LongitudeDegrees>
            </Position>
            <AltitudeMeters>1013.5999755859375</AltitudeMeters>
            <DistanceMeters>NAN</DistanceMeters>
          </Trackpoint>
          <Trackpoint>
            <Time>2019-08-01T11:18:11.000Z</Time>
            <Position>
              <LatitudeDegrees>40.68009316921234130859375</LatitudeDegrees>
              <LongitudeDegrees>-4.01287863962352275848388671875</LongitudeDegrees>
            </Position>
            <AltitudeMeters>1013.5999755859375</AltitudeMeters>
            <DistanceMeters>NAN</DistanceMeters>
          </Trackpoint>
          <Trackpoint>
            <Time>2019-08-01T11:18:12.000Z</Time>
            <Position>
              <LatitudeDegrees>40.68014371208846569061279296875</LatitudeDegrees>
              <LongitudeDegrees>-4.0128923021256923675537109375</LongitudeDegrees>
            </Position>
            <AltitudeMeters>1013.79998779296875</AltitudeMeters>
            <DistanceMeters>NAN</DistanceMeters>
          </Trackpoint>
          <Trackpoint>
            <Time>2019-08-01T11:18:13.000Z</Time>
            <Position>
              <LatitudeDegrees>40.68019467405974864959716796875</LatitudeDegrees>
              <LongitudeDegrees>-4.0129050426185131072998046875</LongitudeDegrees>
            </Position>
            <AltitudeMeters>1014.20001220703125</AltitudeMeters>
            <DistanceMeters>NAN</DistanceMeters>
          </Trackpoint>
          <Trackpoint>
            <Time>2019-08-01T11:18:14.000Z</Time>
            <Position>
              <LatitudeDegrees>40.68024580366909503936767578125</LatitudeDegrees>
              <LongitudeDegrees>-4.0129177831113338470458984375</LongitudeDegrees>
            </Position>
            <AltitudeMeters>1014.20001220703125</AltitudeMeters>
            <DistanceMeters>NAN</DistanceMeters>
          </Trackpoint>
          <Trackpoint>
            <Time>2019-08-01T11:18:15.000Z</Time>
            <Position>
              <LatitudeDegrees>40.6802971847355365753173828125</LatitudeDegrees>
              <LongitudeDegrees>-4.01293060742318630218505859375</LongitudeDegrees>
            </Position>
            <AltitudeMeters>1014.4000244140625</AltitudeMeters>
            <DistanceMeters>NAN</DistanceMeters>
          </Trackpoint>
          <Trackpoint>
            <Time>2019-08-01T11:18:16.000Z</Time>
            <Position>
              <LatitudeDegrees>40.680349655449390411376953125</LatitudeDegrees>
              <LongitudeDegrees>-4.01294209063053131103515625</LongitudeDegrees>
            </Position>
            <AltitudeMeters>1014.5999755859375</AltitudeMeters>
            <DistanceMeters>NAN</DistanceMeters>
          </Trackpoint>
          <Trackpoint>
            <Time>2019-08-01T11:18:17.000Z</Time>
            <Position>
              <LatitudeDegrees>40.68040321581065654754638671875</LatitudeDegrees>
              <LongitudeDegrees>-4.01295256800949573516845703125</LongitudeDegrees>
            </Position>
            <AltitudeMeters>1014.79998779296875</AltitudeMeters>
            <DistanceMeters>NAN</DistanceMeters>
          </Trackpoint>
          <Trackpoint>
            <Time>2019-08-01T11:18:18.000Z</Time>
            <Position>
              <LatitudeDegrees>40.6804584525525569915771484375</LatitudeDegrees>
              <LongitudeDegrees>-4.01296262629330158233642578125</LongitudeDegrees>
            </Position>
            <AltitudeMeters>1015</AltitudeMeters>
            <DistanceMeters>NAN</DistanceMeters>
          </Trackpoint>
          <Trackpoint>
            <Time>2019-08-01T11:18:19.000Z</Time>
            <Position>
              <LatitudeDegrees>40.68051503039896488189697265625</LatitudeDegrees>
              <LongitudeDegrees>-4.01297134347259998321533203125</LongitudeDegrees>
            </Position>
            <AltitudeMeters>1015.20001220703125</AltitudeMeters>
            <DistanceMeters>NAN</DistanceMeters>
          </Trackpoint>
          <Trackpoint>
            <Time>2019-08-01T11:18:20.000Z</Time>
            <Position>
              <LatitudeDegrees>40.68057303316891193389892578125</LatitudeDegrees>
              <LongitudeDegrees>-4.01298089884221553802490234375</LongitudeDegrees>
            </Position>
            <AltitudeMeters>1015.20001220703125</AltitudeMeters>
            <DistanceMeters>NAN</DistanceMeters>
          </Trackpoint>
          <Trackpoint>
            <Time>2019-08-01T11:18:21.000Z</Time>
            <Position>
              <LatitudeDegrees>40.68057303316891193389892578125</LatitudeDegrees>
              <LongitudeDegrees>-4.01298089884221553802490234375</LongitudeDegrees>
            </Position>
            <AltitudeMeters>1015.4000244140625</AltitudeMeters>
            <DistanceMeters>NAN</DistanceMeters>
          </Trackpoint>
          <Trackpoint>
            <Time>2019-08-01T11:18:22.000Z</Time>
            <Position>
              <LatitudeDegrees>40.6806941516697406768798828125</LatitudeDegrees>
              <LongitudeDegrees>-4.0130016021430492401123046875</LongitudeDegrees>
            </Position>
            <AltitudeMeters>1015.4000244140625</AltitudeMeters>
            <DistanceMeters>NAN</DistanceMeters>
          </Trackpoint>
          <Trackpoint>
            <Time>2019-08-01T11:18:23.000Z</Time>
            <Position>
              <LatitudeDegrees>40.6806941516697406768798828125</LatitudeDegrees>
              <LongitudeDegrees>-4.0130016021430492401123046875</LongitudeDegrees>
            </Position>
            <AltitudeMeters>1015.5999755859375</AltitudeMeters>
            <DistanceMeters>NAN</DistanceMeters>
          </Trackpoint>
          <Trackpoint>
            <Time>2019-08-01T11:18:24.000Z</Time>
            <Position>
              <LatitudeDegrees>40.6808222271502017974853515625</LatitudeDegrees>
              <LongitudeDegrees>-4.01302264072000980377197265625</LongitudeDegrees>
            </Position>
            <AltitudeMeters>1015.5999755859375</AltitudeMeters>
            <DistanceMeters>NAN</DistanceMeters>
          </Trackpoint>
          <Trackpoint>
            <Time>2019-08-01T11:18:25.000Z</Time>
            <Position>
              <LatitudeDegrees>40.68088911473751068115234375</LatitudeDegrees>
              <LongitudeDegrees>-4.013033621013164520263671875</LongitudeDegrees>
            </Position>
            <AltitudeMeters>1015.5999755859375</AltitudeMeters>
            <DistanceMeters>NAN</DistanceMeters>
          </Trackpoint>
          <Trackpoint>
            <Time>2019-08-01T11:18:26.000Z</Time>
            <Position>
              <LatitudeDegrees>40.6809573434293270111083984375</LatitudeDegrees>
              <LongitudeDegrees>-4.0130451880395412445068359375</LongitudeDegrees>
            </Position>
            <AltitudeMeters>1015.5999755859375</AltitudeMeters>
            <DistanceMeters>NAN</DistanceMeters>
          </Trackpoint>
          <Trackpoint>
            <Time>2019-08-01T11:18:27.000Z</Time>
            <Position>
              <LatitudeDegrees>40.68102699704468250274658203125</LatitudeDegrees>
              <LongitudeDegrees>-4.0130565874278545379638671875</LongitudeDegrees>
            </Position>
            <AltitudeMeters>1015.5999755859375</AltitudeMeters>
            <DistanceMeters>NAN</DistanceMeters>
          </Trackpoint>
          <Trackpoint>
            <Time>2019-08-01T11:18:28.000Z</Time>
            <Position>
              <LatitudeDegrees>40.681097321212291717529296875</LatitudeDegrees>
              <LongitudeDegrees>-4.01306815445423126220703125</LongitudeDegrees>
            </Position>
            <AltitudeMeters>1015.5999755859375</AltitudeMeters>
            <DistanceMeters>NAN</DistanceMeters>
          </Trackpoint>
          <Trackpoint>
            <Time>2019-08-01T11:18:29.000Z</Time>
            <Position>
              <LatitudeDegrees>40.6811668910086154937744140625</LatitudeDegrees>
              <LongitudeDegrees>-4.0130800567567348480224609375</LongitudeDegrees>
            </Position>
            <AltitudeMeters>1015.5999755859375</AltitudeMeters>
            <DistanceMeters>NAN</DistanceMeters>
          </Trackpoint>
          <Trackpoint>
            <Time>2019-08-01T11:18:30.000Z</Time>
            <Position>
              <LatitudeDegrees>40.68123637698590755462646484375</LatitudeDegrees>
              <LongitudeDegrees>-4.01309271343052387237548828125</LongitudeDegrees>
            </Position>
            <AltitudeMeters>1015.5999755859375</AltitudeMeters>
            <DistanceMeters>NAN</DistanceMeters>
          </Trackpoint>
          <Trackpoint>
            <Time>2019-08-01T11:18:31.000Z</Time>
            <Position>
              <LatitudeDegrees>40.68123637698590755462646484375</LatitudeDegrees>
              <LongitudeDegrees>-4.01309271343052387237548828125</LongitudeDegrees>
            </Position>
            <AltitudeMeters>1015.5999755859375</AltitudeMeters>
            <DistanceMeters>NAN</DistanceMeters>
          </Trackpoint>
          <Trackpoint>
            <Time>2019-08-01T11:18:32.000Z</Time>
            <Position>
              <LatitudeDegrees>40.6813757680356502532958984375</LatitudeDegrees>
              <LongitudeDegrees>-4.0131159313023090362548828125</LongitudeDegrees>
            </Position>
            <AltitudeMeters>1015.5999755859375</AltitudeMeters>
            <DistanceMeters>NAN</DistanceMeters>
          </Trackpoint>
          <Trackpoint>
            <Time>2019-08-01T11:18:33.000Z</Time>
            <Position>
              <LatitudeDegrees>40.68144391290843486785888671875</LatitudeDegrees>
              <LongitudeDegrees>-4.01312758214771747589111328125</LongitudeDegrees>
            </Position>
            <AltitudeMeters>1015.5999755859375</AltitudeMeters>
            <DistanceMeters>NAN</DistanceMeters>
          </Trackpoint>
          <Trackpoint>
            <Time>2019-08-01T11:18:34.000Z</Time>
            <Position>
              <LatitudeDegrees>40.68144391290843486785888671875</LatitudeDegrees>
              <LongitudeDegrees>-4.01312758214771747589111328125</LongitudeDegrees>
            </Position>
            <AltitudeMeters>1015.4000244140625</AltitudeMeters>
            <DistanceMeters>NAN</DistanceMeters>
          </Trackpoint>
          <Trackpoint>
            <Time>2019-08-01T11:18:35.000Z</Time>
            <Position>
              <LatitudeDegrees>40.68158020265400409698486328125</LatitudeDegrees>
              <LongitudeDegrees>-4.01314971037209033966064453125</LongitudeDegrees>
            </Position>
            <AltitudeMeters>1015.4000244140625</AltitudeMeters>
            <DistanceMeters>NAN</DistanceMeters>
          </Trackpoint>
          <Trackpoint>
            <Time>2019-08-01T11:18:36.000Z</Time>
            <Position>
              <LatitudeDegrees>40.6816486828029155731201171875</LatitudeDegrees>
              <LongitudeDegrees>-4.0131621994078159332275390625</LongitudeDegrees>
            </Position>
            <AltitudeMeters>1015.4000244140625</AltitudeMeters>
            <DistanceMeters>NAN</DistanceMeters>
          </Trackpoint>
          <Trackpoint>
            <Time>2019-08-01T11:18:37.000Z</Time>
            <Position>
              <LatitudeDegrees>40.68171783350408077239990234375</LatitudeDegrees>
              <LongitudeDegrees>-4.01317519135773181915283203125</LongitudeDegrees>
            </Position>
            <AltitudeMeters>1015.4000244140625</AltitudeMeters>
            <DistanceMeters>NAN</DistanceMeters>
          </Trackpoint>
          <Trackpoint>
            <Time>2019-08-01T11:18:38.000Z</Time>
            <Position>
              <LatitudeDegrees>40.68178757093846797943115234375</LatitudeDegrees>
              <LongitudeDegrees>-4.01318826712667942047119140625</LongitudeDegrees>
            </Position>
            <AltitudeMeters>1015.20001220703125</AltitudeMeters>
            <DistanceMeters>NAN</DistanceMeters>
          </Trackpoint>
          <Trackpoint>
            <Time>2019-08-01T11:18:39.000Z</Time>
            <Position>
              <LatitudeDegrees>40.68178757093846797943115234375</LatitudeDegrees>
              <LongitudeDegrees>-4.01318826712667942047119140625</LongitudeDegrees>
            </Position>
            <AltitudeMeters>1015.20001220703125</AltitudeMeters>
            <DistanceMeters>NAN</DistanceMeters>
          </Trackpoint>
          <Trackpoint>
            <Time>2019-08-01T11:18:40.000Z</Time>
            <Position>
              <LatitudeDegrees>40.68192620761692523956298828125</LatitudeDegrees>
              <LongitudeDegrees>-4.0132124908268451690673828125</LongitudeDegrees>
            </Position>
            <AltitudeMeters>1015.20001220703125</AltitudeMeters>
            <DistanceMeters>NAN</DistanceMeters>
          </Trackpoint>
          <Trackpoint>
            <Time>2019-08-01T11:18:41.000Z</Time>
            <Position>
              <LatitudeDegrees>40.68192620761692523956298828125</LatitudeDegrees>
              <LongitudeDegrees>-4.0132124908268451690673828125</LongitudeDegrees>
            </Position>
            <AltitudeMeters>1015.20001220703125</AltitudeMeters>
            <DistanceMeters>NAN</DistanceMeters>
          </Trackpoint>
          <Trackpoint>
            <Time>2019-08-01T11:18:42.000Z</Time>
            <Position>
              <LatitudeDegrees>40.68206098861992359161376953125</LatitudeDegrees>
              <LongitudeDegrees>-4.0132362954318523406982421875</LongitudeDegrees>
            </Position>
            <AltitudeMeters>1015.20001220703125</AltitudeMeters>
            <DistanceMeters>NAN</DistanceMeters>
          </Trackpoint>
          <Trackpoint>
            <Time>2019-08-01T11:18:43.000Z</Time>
            <Position>
              <LatitudeDegrees>40.68212703801691532135009765625</LatitudeDegrees>
              <LongitudeDegrees>-4.01324694044888019561767578125</LongitudeDegrees>
            </Position>
            <AltitudeMeters>1015.20001220703125</AltitudeMeters>
            <DistanceMeters>NAN</DistanceMeters>
          </Trackpoint>
          <Trackpoint>
            <Time>2019-08-01T11:18:44.000Z</Time>
            <Position>
              <LatitudeDegrees>40.682192333042621612548828125</LatitudeDegrees>
              <LongitudeDegrees>-4.0132580883800983428955078125</LongitudeDegrees>
            </Position>
            <AltitudeMeters>1015.20001220703125</AltitudeMeters>
            <DistanceMeters>NAN</DistanceMeters>
          </Trackpoint>
          <Trackpoint>
            <Time>2019-08-01T11:18:45.000Z</Time>
            <Position>
              <LatitudeDegrees>40.68225746043026447296142578125</LatitudeDegrees>
              <LongitudeDegrees>-4.01326940394937992095947265625</LongitudeDegrees>
            </Position>
            <AltitudeMeters>1015.20001220703125</AltitudeMeters>
            <DistanceMeters>NAN</DistanceMeters>
          </Trackpoint>
          <Trackpoint>
            <Time>2019-08-01T11:18:46.000Z</Time>
            <Position>
              <LatitudeDegrees>40.68232133053243160247802734375</LatitudeDegrees>
              <LongitudeDegrees>-4.0132807195186614990234375</LongitudeDegrees>
            </Position>
            <AltitudeMeters>1015.20001220703125</AltitudeMeters>
            <DistanceMeters>NAN</DistanceMeters>
          </Trackpoint>
          <Trackpoint>
            <Time>2019-08-01T11:18:47.000Z</Time>
            <Position>
              <LatitudeDegrees>40.68238436244428157806396484375</LatitudeDegrees>
              <LongitudeDegrees>-4.01329253800213336944580078125</LongitudeDegrees>
            </Position>
            <AltitudeMeters>1015.20001220703125</AltitudeMeters>
            <DistanceMeters>NAN</DistanceMeters>
          </Trackpoint>
          <Trackpoint>
            <Time>2019-08-01T11:18:48.000Z</Time>
            <Position>
              <LatitudeDegrees>40.68244605325162410736083984375</LatitudeDegrees>
              <LongitudeDegrees>-4.0133033506572246551513671875</LongitudeDegrees>
            </Position>
            <AltitudeMeters>1015.20001220703125</AltitudeMeters>
            <DistanceMeters>NAN</DistanceMeters>
          </Trackpoint>
          <Trackpoint>
            <Time>2019-08-01T11:18:49.000Z</Time>
            <Position>
              <LatitudeDegrees>40.68250623531639575958251953125</LatitudeDegrees>
              <LongitudeDegrees>-4.013314582407474517822265625</LongitudeDegrees>
            </Position>
            <AltitudeMeters>1015.4000244140625</AltitudeMeters>
            <DistanceMeters>NAN</DistanceMeters>
          </Trackpoint>
          <Trackpoint>
            <Time>2019-08-01T11:18:50.000Z</Time>
            <Position>
              <LatitudeDegrees>40.682565160095691680908203125</LatitudeDegrees>
              <LongitudeDegrees>-4.01332564651966094970703125</LongitudeDegrees>
            </Position>
            <AltitudeMeters>1015.5999755859375</AltitudeMeters>
            <DistanceMeters>NAN</DistanceMeters>
          </Trackpoint>
          <Trackpoint>
            <Time>2019-08-01T11:18:51.000Z</Time>
            <Position>
              <LatitudeDegrees>40.68262274377048015594482421875</LatitudeDegrees>
              <LongitudeDegrees>-4.01333679445087909698486328125</LongitudeDegrees>
            </Position>
            <AltitudeMeters>1016</AltitudeMeters>
            <DistanceMeters>NAN</DistanceMeters>
          </Trackpoint>
          <Trackpoint>
            <Time>2019-08-01T11:18:52.000Z</Time>
            <Position>
              <LatitudeDegrees>40.68267907015979290008544921875</LatitudeDegrees>
              <LongitudeDegrees>-4.01334702037274837493896484375</LongitudeDegrees>
            </Position>
            <AltitudeMeters>1016.4000244140625</AltitudeMeters>
            <DistanceMeters>NAN</DistanceMeters>
          </Trackpoint>
          <Trackpoint>
            <Time>2019-08-01T11:18:53.000Z</Time>
            <Position>
              <LatitudeDegrees>40.682733468711376190185546875</LatitudeDegrees>
              <LongitudeDegrees>-4.0133563242852687835693359375</LongitudeDegrees>
            </Position>
            <AltitudeMeters>1016.5999755859375</AltitudeMeters>
            <DistanceMeters>NAN</DistanceMeters>
          </Trackpoint>
          <Trackpoint>
            <Time>2019-08-01T11:18:54.000Z</Time>
            <Position>
              <LatitudeDegrees>40.68278652615845203399658203125</LatitudeDegrees>
              <LongitudeDegrees>-4.01336529292166233062744140625</LongitudeDegrees>
            </Position>
            <AltitudeMeters>1016.79998779296875</AltitudeMeters>
            <DistanceMeters>NAN</DistanceMeters>
          </Trackpoint>
          <Trackpoint>
            <Time>2019-08-01T11:18:55.000Z</Time>
            <Position>
              <LatitudeDegrees>40.68278652615845203399658203125</LatitudeDegrees>
              <LongitudeDegrees>-4.01336529292166233062744140625</LongitudeDegrees>
            </Position>
            <AltitudeMeters>1017</AltitudeMeters>
            <DistanceMeters>NAN</DistanceMeters>
          </Trackpoint>
          <Trackpoint>
            <Time>2019-08-01T11:18:56.000Z</Time>
            <Position>
              <LatitudeDegrees>40.68288828246295452117919921875</LatitudeDegrees>
              <LongitudeDegrees>-4.013380967080593109130859375</LongitudeDegrees>
            </Position>
            <AltitudeMeters>1017.20001220703125</AltitudeMeters>
            <DistanceMeters>NAN</DistanceMeters>
          </Trackpoint>
          <Trackpoint>
            <Time>2019-08-01T11:18:57.000Z</Time>
            <Position>
              <LatitudeDegrees>40.6829364784061908721923828125</LatitudeDegrees>
              <LongitudeDegrees>-4.0133881755173206329345703125</LongitudeDegrees>
            </Position>
            <AltitudeMeters>1017.5999755859375</AltitudeMeters>
            <DistanceMeters>NAN</DistanceMeters>
          </Trackpoint>
          <Trackpoint>
            <Time>2019-08-01T11:18:58.000Z</Time>
            <Position>
              <LatitudeDegrees>40.68298383615911006927490234375</LatitudeDegrees>
              <LongitudeDegrees>-4.01339479722082614898681640625</LongitudeDegrees>
            </Position>
            <AltitudeMeters>1018</AltitudeMeters>
            <DistanceMeters>NAN</DistanceMeters>
          </Trackpoint>
          <Trackpoint>
            <Time>2019-08-01T11:18:59.000Z</Time>
            <Position>
              <LatitudeDegrees>40.68302943371236324310302734375</LatitudeDegrees>
              <LongitudeDegrees>-4.01340208947658538818359375</LongitudeDegrees>
            </Position>
            <AltitudeMeters>1018.4000244140625</AltitudeMeters>
            <DistanceMeters>NAN</DistanceMeters>
          </Trackpoint>
          <Trackpoint>
            <Time>2019-08-01T11:19:00.000Z</Time>
            <Position>
              <LatitudeDegrees>40.68307377398014068603515625</LatitudeDegrees>
              <LongitudeDegrees>-4.0134086273610591888427734375</LongitudeDegrees>
            </Position>
            <AltitudeMeters>1018.79998779296875</AltitudeMeters>
            <DistanceMeters>NAN</DistanceMeters>
          </Trackpoint>
          <Trackpoint>
            <Time>2019-08-01T11:19:01.000Z</Time>
            <Position>
              <LatitudeDegrees>40.683118365705013275146484375</LatitudeDegrees>
              <LongitudeDegrees>-4.01341659016907215118408203125</LongitudeDegrees>
            </Position>
            <AltitudeMeters>1019.4000244140625</AltitudeMeters>
            <DistanceMeters>NAN</DistanceMeters>
          </Trackpoint>
          <Trackpoint>
            <Time>2019-08-01T11:19:02.000Z</Time>
            <Position>
              <LatitudeDegrees>40.68316186778247356414794921875</LatitudeDegrees>
              <LongitudeDegrees>-4.013422541320323944091796875</LongitudeDegrees>
            </Position>
            <AltitudeMeters>1019.5999755859375</AltitudeMeters>
            <DistanceMeters>NAN</DistanceMeters>
          </Trackpoint>
          <Trackpoint>
            <Time>2019-08-01T11:19:03.000Z</Time>
            <Position>
              <LatitudeDegrees>40.68320444785058498382568359375</LatitudeDegrees>
              <LongitudeDegrees>-4.01342832483351230621337890625</LongitudeDegrees>
            </Position>
            <AltitudeMeters>1020</AltitudeMeters>
            <DistanceMeters>NAN</DistanceMeters>
          </Trackpoint>
          <Trackpoint>
            <Time>2019-08-01T11:19:04.000Z</Time>
            <Position>
              <LatitudeDegrees>40.68324602209031581878662109375</LatitudeDegrees>
              <LongitudeDegrees>-4.0134347788989543914794921875</LongitudeDegrees>
            </Position>
            <AltitudeMeters>1020.4000244140625</AltitudeMeters>
            <DistanceMeters>NAN</DistanceMeters>
          </Trackpoint>
          <Trackpoint>
            <Time>2019-08-01T11:19:05.000Z</Time>
            <Position>
              <LatitudeDegrees>40.6832868419587612152099609375</LatitudeDegrees>
              <LongitudeDegrees>-4.0134411491453647613525390625</LongitudeDegrees>
            </Position>
            <AltitudeMeters>1020.79998779296875</AltitudeMeters>
            <DistanceMeters>NAN</DistanceMeters>
          </Trackpoint>
          <Trackpoint>
            <Time>2019-08-01T11:19:06.000Z</Time>
            <Position>
              <LatitudeDegrees>40.6833265721797943115234375</LatitudeDegrees>
              <LongitudeDegrees>-4.01344659738242626190185546875</LongitudeDegrees>
            </Position>
            <AltitudeMeters>1021.20001220703125</AltitudeMeters>
            <DistanceMeters>NAN</DistanceMeters>
          </Trackpoint>
          <Trackpoint>
            <Time>2019-08-01T11:19:07.000Z</Time>
            <Position>
              <LatitudeDegrees>40.68336655385792255401611328125</LatitudeDegrees>
              <LongitudeDegrees>-4.01345129124820232391357421875</LongitudeDegrees>
            </Position>
            <AltitudeMeters>1021.5999755859375</AltitudeMeters>
            <DistanceMeters>NAN</DistanceMeters>
          </Trackpoint>
          <Trackpoint>
            <Time>2019-08-01T11:19:08.000Z</Time>
            <Position>
              <LatitudeDegrees>40.68340695463120937347412109375</LatitudeDegrees>
              <LongitudeDegrees>-4.01345573365688323974609375</LongitudeDegrees>
            </Position>
            <AltitudeMeters>1021.79998779296875</AltitudeMeters>
            <DistanceMeters>NAN</DistanceMeters>
          </Trackpoint>
          <Trackpoint>
            <Time>2019-08-01T11:19:09.000Z</Time>
            <Position>
              <LatitudeDegrees>40.68344752304255962371826171875</LatitudeDegrees>
              <LongitudeDegrees>-4.01346067897975444793701171875</LongitudeDegrees>
            </Position>
            <AltitudeMeters>1021.79998779296875</AltitudeMeters>
            <DistanceMeters>NAN</DistanceMeters>
          </Trackpoint>
          <Trackpoint>
            <Time>2019-08-01T11:19:10.000Z</Time>
            <Position>
              <LatitudeDegrees>40.6834883429110050201416015625</LatitudeDegrees>
              <LongitudeDegrees>-4.01346671395003795623779296875</LongitudeDegrees>
            </Position>
            <AltitudeMeters>1022.20001220703125</AltitudeMeters>
            <DistanceMeters>NAN</DistanceMeters>
          </Trackpoint>
          <Trackpoint>
            <Time>2019-08-01T11:19:11.000Z</Time>
            <Position>
              <LatitudeDegrees>40.6835289113223552703857421875</LatitudeDegrees>
              <LongitudeDegrees>-4.013472497463226318359375</LongitudeDegrees>
            </Position>
            <AltitudeMeters>1022.4000244140625</AltitudeMeters>
            <DistanceMeters>NAN</DistanceMeters>
          </Trackpoint>
          <Trackpoint>
            <Time>2019-08-01T11:19:12.000Z</Time>
            <Position>
              <LatitudeDegrees>40.68356922827661037445068359375</LatitudeDegrees>
              <LongitudeDegrees>-4.01347811333835124969482421875</LongitudeDegrees>
            </Position>
            <AltitudeMeters>1022.79998779296875</AltitudeMeters>
            <DistanceMeters>NAN</DistanceMeters>
          </Trackpoint>
          <Trackpoint>
            <Time>2019-08-01T11:19:13.000Z</Time>
            <Position>
              <LatitudeDegrees>40.68360929377377033233642578125</LatitudeDegrees>
              <LongitudeDegrees>-4.0134827233850955963134765625</LongitudeDegrees>
            </Position>
            <AltitudeMeters>1023.20001220703125</AltitudeMeters>
            <DistanceMeters>NAN</DistanceMeters>
          </Trackpoint>
          <Trackpoint>
            <Time>2019-08-01T11:19:14.000Z</Time>
            <Position>
              <LatitudeDegrees>40.68364902399480342864990234375</LatitudeDegrees>
              <LongitudeDegrees>-4.0134870819747447967529296875</LongitudeDegrees>
            </Position>
            <AltitudeMeters>1023.4000244140625</AltitudeMeters>
            <DistanceMeters>NAN</DistanceMeters>
          </Trackpoint>
          <Trackpoint>
            <Time>2019-08-01T11:19:15.000Z</Time>
            <Position>
              <LatitudeDegrees>40.68368892185389995574951171875</LatitudeDegrees>
              <LongitudeDegrees>-4.0134911052882671356201171875</LongitudeDegrees>
            </Position>
            <AltitudeMeters>1023.5999755859375</AltitudeMeters>
            <DistanceMeters>NAN</DistanceMeters>
          </Trackpoint>
          <Trackpoint>
            <Time>2019-08-01T11:19:16.000Z</Time>
            <Position>
              <LatitudeDegrees>40.68372865207493305206298828125</LatitudeDegrees>
              <LongitudeDegrees>-4.01349487714469432830810546875</LongitudeDegrees>
            </Position>
            <AltitudeMeters>1023.79998779296875</AltitudeMeters>
            <DistanceMeters>NAN</DistanceMeters>
          </Trackpoint>
          <Trackpoint>
            <Time>2019-08-01T11:19:17.000Z</Time>
            <Position>
              <LatitudeDegrees>40.68372865207493305206298828125</LatitudeDegrees>
              <LongitudeDegrees>-4.01349487714469432830810546875</LongitudeDegrees>
            </Position>
            <AltitudeMeters>1024</AltitudeMeters>
            <DistanceMeters>NAN</DistanceMeters>
          </Trackpoint>
          <Trackpoint>
            <Time>2019-08-01T11:19:18.000Z</Time>
            <Position>
              <LatitudeDegrees>40.68380861543118953704833984375</LatitudeDegrees>
              <LongitudeDegrees>-4.01350133121013641357421875</LongitudeDegrees>
            </Position>
            <AltitudeMeters>1024.199951171875</AltitudeMeters>
            <DistanceMeters>NAN</DistanceMeters>
          </Trackpoint>
          <Trackpoint>
            <Time>2019-08-01T11:19:19.000Z</Time>
            <Position>
              <LatitudeDegrees>40.68384851329028606414794921875</LatitudeDegrees>
              <LongitudeDegrees>-4.01350292377173900604248046875</LongitudeDegrees>
            </Position>
            <AltitudeMeters>1024.4000244140625</AltitudeMeters>
            <DistanceMeters>NAN</DistanceMeters>
          </Trackpoint>
          <Trackpoint>
            <Time>2019-08-01T11:19:20.000Z</Time>
            <Position>
              <LatitudeDegrees>40.6838886626064777374267578125</LatitudeDegrees>
              <LongitudeDegrees>-4.01350443251430988311767578125</LongitudeDegrees>
            </Position>
            <AltitudeMeters>1025</AltitudeMeters>
            <DistanceMeters>NAN</DistanceMeters>
          </Trackpoint>
          <Trackpoint>
            <Time>2019-08-01T11:19:21.000Z</Time>
            <Position>
              <LatitudeDegrees>40.68392864428460597991943359375</LatitudeDegrees>
              <LongitudeDegrees>-4.013506360352039337158203125</LongitudeDegrees>
            </Position>
            <AltitudeMeters>1025.199951171875</AltitudeMeters>
            <DistanceMeters>NAN</DistanceMeters>
          </Trackpoint>
          <Trackpoint>
            <Time>2019-08-01T11:19:22.000Z</Time>
            <Position>
              <LatitudeDegrees>40.6839687936007976531982421875</LatitudeDegrees>
              <LongitudeDegrees>-4.0135071985423564910888671875</LongitudeDegrees>
            </Position>
            <AltitudeMeters>1025.4000244140625</AltitudeMeters>
            <DistanceMeters>NAN</DistanceMeters>
          </Trackpoint>
          <Trackpoint>
            <Time>2019-08-01T11:19:23.000Z</Time>
            <Position>
              <LatitudeDegrees>40.68400852382183074951171875</LatitudeDegrees>
              <LongitudeDegrees>-4.01350711472332477569580078125</LongitudeDegrees>
            </Position>
            <AltitudeMeters>1025.5999755859375</AltitudeMeters>
            <DistanceMeters>NAN</DistanceMeters>
          </Trackpoint>
          <Trackpoint>
            <Time>2019-08-01T11:19:24.000Z</Time>
            <Position>
              <LatitudeDegrees>40.684047080576419830322265625</LatitudeDegrees>
              <LongitudeDegrees>-4.0135055221617221832275390625</LongitudeDegrees>
            </Position>
            <AltitudeMeters>1025.800048828125</AltitudeMeters>
            <DistanceMeters>NAN</DistanceMeters>
          </Trackpoint>
          <Trackpoint>
            <Time>2019-08-01T11:19:25.000Z</Time>
            <Position>
              <LatitudeDegrees>40.684047080576419830322265625</LatitudeDegrees>
              <LongitudeDegrees>-4.0135055221617221832275390625</LongitudeDegrees>
            </Position>
            <AltitudeMeters>1026.199951171875</AltitudeMeters>
            <DistanceMeters>NAN</DistanceMeters>
          </Trackpoint>
          <Trackpoint>
            <Time>2019-08-01T11:19:26.000Z</Time>
            <Position>
              <LatitudeDegrees>40.6841243617236614227294921875</LatitudeDegrees>
              <LongitudeDegrees>-4.0135028399527072906494140625</LongitudeDegrees>
            </Position>
            <AltitudeMeters>1026.4000244140625</AltitudeMeters>
            <DistanceMeters>NAN</DistanceMeters>
          </Trackpoint>
          <Trackpoint>
            <Time>2019-08-01T11:19:27.000Z</Time>
            <Position>
              <LatitudeDegrees>40.68416484631597995758056640625</LatitudeDegrees>
              <LongitudeDegrees>-4.01350292377173900604248046875</LongitudeDegrees>
            </Position>
            <AltitudeMeters>1026.800048828125</AltitudeMeters>
            <DistanceMeters>NAN</DistanceMeters>
          </Trackpoint>
          <Trackpoint>
            <Time>2019-08-01T11:19:28.000Z</Time>
            <Position>
              <LatitudeDegrees>40.68420591764152050018310546875</LatitudeDegrees>
              <LongitudeDegrees>-4.0135035105049610137939453125</LongitudeDegrees>
            </Position>
            <AltitudeMeters>1026.800048828125</AltitudeMeters>
            <DistanceMeters>NAN</DistanceMeters>
          </Trackpoint>
          <Trackpoint>
            <Time>2019-08-01T11:19:29.000Z</Time>
            <Position>
              <LatitudeDegrees>40.68420591764152050018310546875</LatitudeDegrees>
              <LongitudeDegrees>-4.0135035105049610137939453125</LongitudeDegrees>
            </Position>
            <AltitudeMeters>1027.199951171875</AltitudeMeters>
            <DistanceMeters>NAN</DistanceMeters>
          </Trackpoint>
          <Trackpoint>
            <Time>2019-08-01T11:19:30.000Z</Time>
            <Position>
              <LatitudeDegrees>40.68428504280745983123779296875</LatitudeDegrees>
              <LongitudeDegrees>-4.01350325904786586761474609375</LongitudeDegrees>
            </Position>
            <AltitudeMeters>1027.4000244140625</AltitudeMeters>
            <DistanceMeters>NAN</DistanceMeters>
          </Trackpoint>
          <Trackpoint>
            <Time>2019-08-01T11:19:31.000Z</Time>
            <Position>
              <LatitudeDegrees>40.68432359956204891204833984375</LatitudeDegrees>
              <LongitudeDegrees>-4.01350191794335842132568359375</LongitudeDegrees>
            </Position>
            <AltitudeMeters>1027.5999755859375</AltitudeMeters>
            <DistanceMeters>NAN</DistanceMeters>
          </Trackpoint>
          <Trackpoint>
            <Time>2019-08-01T11:19:32.000Z</Time>
            <Position>
              <LatitudeDegrees>40.68436198867857456207275390625</LatitudeDegrees>
              <LongitudeDegrees>-4.01350141502916812896728515625</LongitudeDegrees>
            </Position>
            <AltitudeMeters>1027.800048828125</AltitudeMeters>
            <DistanceMeters>NAN</DistanceMeters>
          </Trackpoint>
          <Trackpoint>
            <Time>2019-08-01T11:19:33.000Z</Time>
            <Position>
              <LatitudeDegrees>40.68436198867857456207275390625</LatitudeDegrees>
              <LongitudeDegrees>-4.01350141502916812896728515625</LongitudeDegrees>
            </Position>
            <AltitudeMeters>1028</AltitudeMeters>
            <DistanceMeters>NAN</DistanceMeters>
          </Trackpoint>
          <Trackpoint>
            <Time>2019-08-01T11:19:34.000Z</Time>
            <Position>
              <LatitudeDegrees>40.68443960510194301605224609375</LatitudeDegrees>
              <LongitudeDegrees>-4.01350191794335842132568359375</LongitudeDegrees>
            </Position>
            <AltitudeMeters>1028.199951171875</AltitudeMeters>
            <DistanceMeters>NAN</DistanceMeters>
          </Trackpoint>
          <Trackpoint>
            <Time>2019-08-01T11:19:35.000Z</Time>
            <Position>
              <LatitudeDegrees>40.6844799220561981201171875</LatitudeDegrees>
              <LongitudeDegrees>-4.013502337038516998291015625</LongitudeDegrees>
            </Position>
            <AltitudeMeters>1028.4000244140625</AltitudeMeters>
            <DistanceMeters>NAN</DistanceMeters>
          </Trackpoint>
          <Trackpoint>
            <Time>2019-08-01T11:19:36.000Z</Time>
            <Position>
              <LatitudeDegrees>40.684521496295928955078125</LatitudeDegrees>
              <LongitudeDegrees>-4.0135001577436923980712890625</LongitudeDegrees>
            </Position>
            <AltitudeMeters>1029</AltitudeMeters>
            <DistanceMeters>NAN</DistanceMeters>
          </Trackpoint>
          <Trackpoint>
            <Time>2019-08-01T11:19:37.000Z</Time>
            <Position>
              <LatitudeDegrees>40.68456265144050121307373046875</LatitudeDegrees>
              <LongitudeDegrees>-4.01349864900112152099609375</LongitudeDegrees>
            </Position>
            <AltitudeMeters>1029.800048828125</AltitudeMeters>
            <DistanceMeters>NAN</DistanceMeters>
          </Trackpoint>
          <Trackpoint>
            <Time>2019-08-01T11:19:38.000Z</Time>
            <Position>
              <LatitudeDegrees>40.684602968394756317138671875</LatitudeDegrees>
              <LongitudeDegrees>-4.01349772699177265167236328125</LongitudeDegrees>
            </Position>
            <AltitudeMeters>1030.4000244140625</AltitudeMeters>
            <DistanceMeters>NAN</DistanceMeters>
          </Trackpoint>
          <Trackpoint>
            <Time>2019-08-01T11:19:39.000Z</Time>
            <Position>
              <LatitudeDegrees>40.684643201529979705810546875</LatitudeDegrees>
              <LongitudeDegrees>-4.0134961344301700592041015625</LongitudeDegrees>
            </Position>
            <AltitudeMeters>1030.5999755859375</AltitudeMeters>
            <DistanceMeters>NAN</DistanceMeters>
          </Trackpoint>
          <Trackpoint>
            <Time>2019-08-01T11:19:40.000Z</Time>
            <Position>
              <LatitudeDegrees>40.684684105217456817626953125</LatitudeDegrees>
              <LongitudeDegrees>-4.01349320076406002044677734375</LongitudeDegrees>
            </Position>
            <AltitudeMeters>1030.800048828125</AltitudeMeters>
            <DistanceMeters>NAN</DistanceMeters>
          </Trackpoint>
          <Trackpoint>
            <Time>2019-08-01T11:19:41.000Z</Time>
            <Position>
              <LatitudeDegrees>40.68472710438072681427001953125</LatitudeDegrees>
              <LongitudeDegrees>-4.0134897641837596893310546875</LongitudeDegrees>
            </Position>
            <AltitudeMeters>1031</AltitudeMeters>
            <DistanceMeters>NAN</DistanceMeters>
          </Trackpoint>
          <Trackpoint>
            <Time>2019-08-01T11:19:43.000Z</Time>
            <Position>
              <LatitudeDegrees>40.684810169041156768798828125</LatitudeDegrees>
              <LongitudeDegrees>-4.01347140781581401824951171875</LongitudeDegrees>
            </Position>
            <AltitudeMeters>1031.199951171875</AltitudeMeters>
            <DistanceMeters>NAN</DistanceMeters>
          </Trackpoint>
          <Trackpoint>
            <Time>2019-08-01T11:19:44.000Z</Time>
            <Position>
              <LatitudeDegrees>40.6848509050905704498291015625</LatitudeDegrees>
              <LongitudeDegrees>-4.013453386723995208740234375</LongitudeDegrees>
            </Position>
            <AltitudeMeters>1031.4000244140625</AltitudeMeters>
            <DistanceMeters>NAN</DistanceMeters>
          </Trackpoint>
          <Trackpoint>
            <Time>2019-08-01T11:19:45.000Z</Time>
            <Position>
              <LatitudeDegrees>40.68489004857838153839111328125</LatitudeDegrees>
              <LongitudeDegrees>-4.01342933066189289093017578125</LongitudeDegrees>
            </Position>
            <AltitudeMeters>1031.5999755859375</AltitudeMeters>
            <DistanceMeters>NAN</DistanceMeters>
          </Trackpoint>
          <Trackpoint>
            <Time>2019-08-01T11:19:46.000Z</Time>
            <Position>
              <LatitudeDegrees>40.68489004857838153839111328125</LatitudeDegrees>
              <LongitudeDegrees>-4.01342933066189289093017578125</LongitudeDegrees>
            </Position>
            <AltitudeMeters>1031.800048828125</AltitudeMeters>
            <DistanceMeters>NAN</DistanceMeters>
          </Trackpoint>
          <Trackpoint>
            <Time>2019-08-01T11:19:47.000Z</Time>
            <Position>
              <LatitudeDegrees>40.68496917374432086944580078125</LatitudeDegrees>
              <LongitudeDegrees>-4.013377614319324493408203125</LongitudeDegrees>
            </Position>
            <AltitudeMeters>1032</AltitudeMeters>
            <DistanceMeters>NAN</DistanceMeters>
          </Trackpoint>
          <Trackpoint>
            <Time>2019-08-01T11:19:48.000Z</Time>
            <Position>
              <LatitudeDegrees>40.685011334717273712158203125</LatitudeDegrees>
              <LongitudeDegrees>-4.01335657574236392974853515625</LongitudeDegrees>
            </Position>
            <AltitudeMeters>1032.4000244140625</AltitudeMeters>
            <DistanceMeters>NAN</DistanceMeters>
          </Trackpoint>
          <Trackpoint>
            <Time>2019-08-01T11:19:49.000Z</Time>
            <Position>
              <LatitudeDegrees>40.68505684845149517059326171875</LatitudeDegrees>
              <LongitudeDegrees>-4.0133442543447017669677734375</LongitudeDegrees>
            </Position>
            <AltitudeMeters>1032.5999755859375</AltitudeMeters>
            <DistanceMeters>NAN</DistanceMeters>
          </Trackpoint>
          <Trackpoint>
            <Time>2019-08-01T11:19:50.000Z</Time>
            <Position>
              <LatitudeDegrees>40.68510445766150951385498046875</LatitudeDegrees>
              <LongitudeDegrees>-4.01334282942116260528564453125</LongitudeDegrees>
            </Position>
            <AltitudeMeters>1033</AltitudeMeters>
            <DistanceMeters>NAN</DistanceMeters>
          </Trackpoint>
          <Trackpoint>
            <Time>2019-08-01T11:19:51.000Z</Time>
            <Position>
              <LatitudeDegrees>40.6851519830524921417236328125</LatitudeDegrees>
              <LongitudeDegrees>-4.01335087604820728302001953125</LongitudeDegrees>
            </Position>
            <AltitudeMeters>1033.199951171875</AltitudeMeters>
            <DistanceMeters>NAN</DistanceMeters>
          </Trackpoint>
          <Trackpoint>
            <Time>2019-08-01T11:19:52.000Z</Time>
            <Position>
              <LatitudeDegrees>40.6851985864341259002685546875</LatitudeDegrees>
              <LongitudeDegrees>-4.01336722075939178466796875</LongitudeDegrees>
            </Position>
            <AltitudeMeters>1033.199951171875</AltitudeMeters>
            <DistanceMeters>NAN</DistanceMeters>
          </Trackpoint>
          <Trackpoint>
            <Time>2019-08-01T11:19:53.000Z</Time>
            <Position>
              <LatitudeDegrees>40.685246028006076812744140625</LatitudeDegrees>
              <LongitudeDegrees>-4.01338876225054264068603515625</LongitudeDegrees>
            </Position>
            <AltitudeMeters>1033.4000244140625</AltitudeMeters>
            <DistanceMeters>NAN</DistanceMeters>
          </Trackpoint>
          <Trackpoint>
            <Time>2019-08-01T11:19:54.000Z</Time>
            <Position>
              <LatitudeDegrees>40.68529522977769374847412109375</LatitudeDegrees>
              <LongitudeDegrees>-4.01340686716139316558837890625</LongitudeDegrees>
            </Position>
            <AltitudeMeters>1033.5999755859375</AltitudeMeters>
            <DistanceMeters>NAN</DistanceMeters>
          </Trackpoint>
          <Trackpoint>
            <Time>2019-08-01T11:19:55.000Z</Time>
            <Position>
              <LatitudeDegrees>40.6853461079299449920654296875</LatitudeDegrees>
              <LongitudeDegrees>-4.013417847454547882080078125</LongitudeDegrees>
            </Position>
            <AltitudeMeters>1033.800048828125</AltitudeMeters>
            <DistanceMeters>NAN</DistanceMeters>
          </Trackpoint>
          <Trackpoint>
            <Time>2019-08-01T11:19:56.000Z</Time>
            <Position>
              <LatitudeDegrees>40.68539849482476711273193359375</LatitudeDegrees>
              <LongitudeDegrees>-4.01342262513935565948486328125</LongitudeDegrees>
            </Position>
            <AltitudeMeters>1033.800048828125</AltitudeMeters>
            <DistanceMeters>NAN</DistanceMeters>
          </Trackpoint>
          <Trackpoint>
            <Time>2019-08-01T11:19:57.000Z</Time>
            <Position>
              <LatitudeDegrees>40.68545213900506496429443359375</LatitudeDegrees>
              <LongitudeDegrees>-4.01342245750129222869873046875</LongitudeDegrees>
            </Position>
            <AltitudeMeters>1033.800048828125</AltitudeMeters>
            <DistanceMeters>NAN</DistanceMeters>
          </Trackpoint>
          <Trackpoint>
            <Time>2019-08-01T11:19:58.000Z</Time>
            <Position>
              <LatitudeDegrees>40.68550611846148967742919921875</LatitudeDegrees>
              <LongitudeDegrees>-4.013418518006801605224609375</LongitudeDegrees>
            </Position>
            <AltitudeMeters>1034</AltitudeMeters>
            <DistanceMeters>NAN</DistanceMeters>
          </Trackpoint>
          <Trackpoint>
            <Time>2019-08-01T11:19:59.000Z</Time>
            <Position>
              <LatitudeDegrees>40.68556043319404125213623046875</LatitudeDegrees>
              <LongitudeDegrees>-4.01341273449361324310302734375</LongitudeDegrees>
            </Position>
            <AltitudeMeters>1034</AltitudeMeters>
            <DistanceMeters>NAN</DistanceMeters>
          </Trackpoint>
          <Trackpoint>
            <Time>2019-08-01T11:20:00.000Z</Time>
            <Position>
              <LatitudeDegrees>40.6856144964694976806640625</LatitudeDegrees>
              <LongitudeDegrees>-4.01340552605688571929931640625</LongitudeDegrees>
            </Position>
            <AltitudeMeters>1034.199951171875</AltitudeMeters>
            <DistanceMeters>NAN</DistanceMeters>
          </Trackpoint>
          <Trackpoint>
            <Time>2019-08-01T11:20:01.000Z</Time>
            <Position>
              <LatitudeDegrees>40.68566721864044666290283203125</LatitudeDegrees>
              <LongitudeDegrees>-4.01339680887758731842041015625</LongitudeDegrees>
            </Position>
            <AltitudeMeters>1034.199951171875</AltitudeMeters>
            <DistanceMeters>NAN</DistanceMeters>
          </Trackpoint>
          <Trackpoint>
            <Time>2019-08-01T11:20:02.000Z</Time>
            <Position>
              <LatitudeDegrees>40.6857189349830150604248046875</LatitudeDegrees>
              <LongitudeDegrees>-4.01338624767959117889404296875</LongitudeDegrees>
            </Position>
            <AltitudeMeters>1034.4000244140625</AltitudeMeters>
            <DistanceMeters>NAN</DistanceMeters>
          </Trackpoint>
          <Trackpoint>
            <Time>2019-08-01T11:20:03.000Z</Time>
            <Position>
              <LatitudeDegrees>40.685770399868488311767578125</LatitudeDegrees>
              <LongitudeDegrees>-4.013374932110309600830078125</LongitudeDegrees>
            </Position>
            <AltitudeMeters>1034.4000244140625</AltitudeMeters>
            <DistanceMeters>NAN</DistanceMeters>
          </Trackpoint>
          <Trackpoint>
            <Time>2019-08-01T11:20:04.000Z</Time>
            <Position>
              <LatitudeDegrees>40.6858238764107227325439453125</LatitudeDegrees>
              <LongitudeDegrees>-4.0133643709123134613037109375</LongitudeDegrees>
            </Position>
            <AltitudeMeters>1034.5999755859375</AltitudeMeters>
            <DistanceMeters>NAN</DistanceMeters>
          </Trackpoint>
          <Trackpoint>
            <Time>2019-08-01T11:20:05.000Z</Time>
            <Position>
              <LatitudeDegrees>40.68587668240070343017578125</LatitudeDegrees>
              <LongitudeDegrees>-4.01335406117141246795654296875</LongitudeDegrees>
            </Position>
            <AltitudeMeters>1034.800048828125</AltitudeMeters>
            <DistanceMeters>NAN</DistanceMeters>
          </Trackpoint>
          <Trackpoint>
            <Time>2019-08-01T11:20:06.000Z</Time>
            <Position>
              <LatitudeDegrees>40.68592973984777927398681640625</LatitudeDegrees>
              <LongitudeDegrees>-4.0133429132401943206787109375</LongitudeDegrees>
            </Position>
            <AltitudeMeters>1034.800048828125</AltitudeMeters>
            <DistanceMeters>NAN</DistanceMeters>
          </Trackpoint>
          <Trackpoint>
            <Time>2019-08-01T11:20:07.000Z</Time>
            <Position>
              <LatitudeDegrees>40.6859819591045379638671875</LatitudeDegrees>
              <LongitudeDegrees>-4.01333193294703960418701171875</LongitudeDegrees>
            </Position>
            <AltitudeMeters>1035</AltitudeMeters>
            <DistanceMeters>NAN</DistanceMeters>
          </Trackpoint>
          <Trackpoint>
            <Time>2019-08-01T11:20:08.000Z</Time>
            <Position>
              <LatitudeDegrees>40.6860334239900112152099609375</LatitudeDegrees>
              <LongitudeDegrees>-4.01332170702517032623291015625</LongitudeDegrees>
            </Position>
            <AltitudeMeters>1035.199951171875</AltitudeMeters>
            <DistanceMeters>NAN</DistanceMeters>
          </Trackpoint>
          <Trackpoint>
            <Time>2019-08-01T11:20:09.000Z</Time>
            <Position>
              <LatitudeDegrees>40.68608564324676990509033203125</LatitudeDegrees>
              <LongitudeDegrees>-4.0133110620081424713134765625</LongitudeDegrees>
            </Position>
            <AltitudeMeters>1035.4000244140625</AltitudeMeters>
            <DistanceMeters>NAN</DistanceMeters>
          </Trackpoint>
          <Trackpoint>
            <Time>2019-08-01T11:20:10.000Z</Time>
            <Position>
              <LatitudeDegrees>40.68613811396062374114990234375</LatitudeDegrees>
              <LongitudeDegrees>-4.01329957880079746246337890625</LongitudeDegrees>
            </Position>
            <AltitudeMeters>1035.5999755859375</AltitudeMeters>
            <DistanceMeters>NAN</DistanceMeters>
          </Trackpoint>
          <Trackpoint>
            <Time>2019-08-01T11:20:11.000Z</Time>
            <Position>
              <LatitudeDegrees>40.6861906684935092926025390625</LatitudeDegrees>
              <LongitudeDegrees>-4.0132882632315158843994140625</LongitudeDegrees>
            </Position>
            <AltitudeMeters>1036</AltitudeMeters>
            <DistanceMeters>NAN</DistanceMeters>
          </Trackpoint>
          <Trackpoint>
            <Time>2019-08-01T11:20:12.000Z</Time>
            <Position>
              <LatitudeDegrees>40.686243474483489990234375</LatitudeDegrees>
              <LongitudeDegrees>-4.01327828876674175262451171875</LongitudeDegrees>
            </Position>
            <AltitudeMeters>1036.199951171875</AltitudeMeters>
            <DistanceMeters>NAN</DistanceMeters>
          </Trackpoint>
          <Trackpoint>
            <Time>2019-08-01T11:20:13.000Z</Time>
            <Position>
              <LatitudeDegrees>40.686296112835407257080078125</LatitudeDegrees>
              <LongitudeDegrees>-4.01326797902584075927734375</LongitudeDegrees>
            </Position>
            <AltitudeMeters>1036.4000244140625</AltitudeMeters>
            <DistanceMeters>NAN</DistanceMeters>
          </Trackpoint>
          <Trackpoint>
            <Time>2019-08-01T11:20:14.000Z</Time>
            <Position>
              <LatitudeDegrees>40.6863482482731342315673828125</LatitudeDegrees>
              <LongitudeDegrees>-4.01325733400881290435791015625</LongitudeDegrees>
            </Position>
            <AltitudeMeters>1036.5999755859375</AltitudeMeters>
            <DistanceMeters>NAN</DistanceMeters>
          </Trackpoint>
          <Trackpoint>
            <Time>2019-08-01T11:20:15.000Z</Time>
            <Position>
              <LatitudeDegrees>40.68639979697763919830322265625</LatitudeDegrees>
              <LongitudeDegrees>-4.01324652135372161865234375</LongitudeDegrees>
            </Position>
            <AltitudeMeters>1036.5999755859375</AltitudeMeters>
            <DistanceMeters>NAN</DistanceMeters>
          </Trackpoint>
          <Trackpoint>
            <Time>2019-08-01T11:20:16.000Z</Time>
            <Position>
              <LatitudeDegrees>40.68645075894892215728759765625</LatitudeDegrees>
              <LongitudeDegrees>-4.01323621161282062530517578125</LongitudeDegrees>
            </Position>
            <AltitudeMeters>1037</AltitudeMeters>
            <DistanceMeters>NAN</DistanceMeters>
          </Trackpoint>
          <Trackpoint>
            <Time>2019-08-01T11:20:17.000Z</Time>
            <Position>
              <LatitudeDegrees>40.6865023076534271240234375</LatitudeDegrees>
              <LongitudeDegrees>-4.01322598569095134735107421875</LongitudeDegrees>
            </Position>
            <AltitudeMeters>1037.199951171875</AltitudeMeters>
            <DistanceMeters>NAN</DistanceMeters>
          </Trackpoint>
          <Trackpoint>
            <Time>2019-08-01T11:20:18.000Z</Time>
            <Position>
              <LatitudeDegrees>40.68655368871986865997314453125</LatitudeDegrees>
              <LongitudeDegrees>-4.0132163465023040771484375</LongitudeDegrees>
            </Position>
            <AltitudeMeters>1037.4000244140625</AltitudeMeters>
            <DistanceMeters>NAN</DistanceMeters>
          </Trackpoint>
          <Trackpoint>
            <Time>2019-08-01T11:20:19.000Z</Time>
            <Position>
              <LatitudeDegrees>40.6866050697863101959228515625</LatitudeDegrees>
              <LongitudeDegrees>-4.0132056176662445068359375</LongitudeDegrees>
            </Position>
            <AltitudeMeters>1037.5999755859375</AltitudeMeters>
            <DistanceMeters>NAN</DistanceMeters>
          </Trackpoint>
          <Trackpoint>
            <Time>2019-08-01T11:20:20.000Z</Time>
            <Position>
              <LatitudeDegrees>40.68665661849081516265869140625</LatitudeDegrees>
              <LongitudeDegrees>-4.0131933800876140594482421875</LongitudeDegrees>
            </Position>
            <AltitudeMeters>1037.800048828125</AltitudeMeters>
            <DistanceMeters>NAN</DistanceMeters>
          </Trackpoint>
          <Trackpoint>
            <Time>2019-08-01T11:20:21.000Z</Time>
            <Position>
              <LatitudeDegrees>40.68670841865241527557373046875</LatitudeDegrees>
              <LongitudeDegrees>-4.01318139396607875823974609375</LongitudeDegrees>
            </Position>
            <AltitudeMeters>1037.800048828125</AltitudeMeters>
            <DistanceMeters>NAN</DistanceMeters>
          </Trackpoint>
          <Trackpoint>
            <Time>2019-08-01T11:20:22.000Z</Time>
            <Position>
              <LatitudeDegrees>40.686759464442729949951171875</LatitudeDegrees>
              <LongitudeDegrees>-4.01316898874938488006591796875</LongitudeDegrees>
            </Position>
            <AltitudeMeters>1038</AltitudeMeters>
            <DistanceMeters>NAN</DistanceMeters>
          </Trackpoint>
          <Trackpoint>
            <Time>2019-08-01T11:20:23.000Z</Time>
            <Position>
              <LatitudeDegrees>40.68681000731885433197021484375</LatitudeDegrees>
              <LongitudeDegrees>-4.01315775699913501739501953125</LongitudeDegrees>
            </Position>
            <AltitudeMeters>1038.199951171875</AltitudeMeters>
            <DistanceMeters>NAN</DistanceMeters>
          </Trackpoint>
          <Trackpoint>
            <Time>2019-08-01T11:20:24.000Z</Time>
            <Position>
              <LatitudeDegrees>40.686860717833042144775390625</LatitudeDegrees>
              <LongitudeDegrees>-4.013146944344043731689453125</LongitudeDegrees>
            </Position>
            <AltitudeMeters>1038.5999755859375</AltitudeMeters>
            <DistanceMeters>NAN</DistanceMeters>
          </Trackpoint>
          <Trackpoint>
            <Time>2019-08-01T11:20:25.000Z</Time>
            <Position>
              <LatitudeDegrees>40.68691126070916652679443359375</LatitudeDegrees>
              <LongitudeDegrees>-4.01313713751733303070068359375</LongitudeDegrees>
            </Position>
            <AltitudeMeters>1038.800048828125</AltitudeMeters>
            <DistanceMeters>NAN</DistanceMeters>
          </Trackpoint>
          <Trackpoint>
            <Time>2019-08-01T11:20:27.000Z</Time>
            <Position>
              <LatitudeDegrees>40.6870114244520664215087890625</LatitudeDegrees>
              <LongitudeDegrees>-4.01311911642551422119140625</LongitudeDegrees>
            </Position>
            <AltitudeMeters>1039.4000244140625</AltitudeMeters>
            <DistanceMeters>NAN</DistanceMeters>
          </Trackpoint>
          <Trackpoint>
            <Time>2019-08-01T11:20:28.000Z</Time>
            <Position>
              <LatitudeDegrees>40.6870623864233493804931640625</LatitudeDegrees>
              <LongitudeDegrees>-4.01310964487493038177490234375</LongitudeDegrees>
            </Position>
            <AltitudeMeters>1039.5999755859375</AltitudeMeters>
            <DistanceMeters>NAN</DistanceMeters>
          </Trackpoint>
          <Trackpoint>
            <Time>2019-08-01T11:20:29.000Z</Time>
            <Position>
              <LatitudeDegrees>40.687113516032695770263671875</LatitudeDegrees>
              <LongitudeDegrees>-4.01309958659112453460693359375</LongitudeDegrees>
            </Position>
            <AltitudeMeters>1040</AltitudeMeters>
            <DistanceMeters>NAN</DistanceMeters>
          </Trackpoint>
          <Trackpoint>
            <Time>2019-08-01T11:20:31.000Z</Time>
            <Position>
              <LatitudeDegrees>40.687214769423007965087890625</LatitudeDegrees>
              <LongitudeDegrees>-4.01307888329029083251953125</LongitudeDegrees>
            </Position>
            <AltitudeMeters>1040.199951171875</AltitudeMeters>
            <DistanceMeters>NAN</DistanceMeters>
          </Trackpoint>
          <Trackpoint>
            <Time>2019-08-01T11:20:32.000Z</Time>
            <Position>
              <LatitudeDegrees>40.68726598285138607025146484375</LatitudeDegrees>
              <LongitudeDegrees>-4.01306907646358013153076171875</LongitudeDegrees>
            </Position>
            <AltitudeMeters>1040.4000244140625</AltitudeMeters>
            <DistanceMeters>NAN</DistanceMeters>
          </Trackpoint>
          <Trackpoint>
            <Time>2019-08-01T11:20:33.000Z</Time>
            <Position>
              <LatitudeDegrees>40.6873171962797641754150390625</LatitudeDegrees>
              <LongitudeDegrees>-4.01306019164621829986572265625</LongitudeDegrees>
            </Position>
            <AltitudeMeters>1040.5999755859375</AltitudeMeters>
            <DistanceMeters>NAN</DistanceMeters>
          </Trackpoint>
          <Trackpoint>
            <Time>2019-08-01T11:20:34.000Z</Time>
            <Position>
              <LatitudeDegrees>40.6873705051839351654052734375</LatitudeDegrees>
              <LongitudeDegrees>-4.013052396476268768310546875</LongitudeDegrees>
            </Position>
            <AltitudeMeters>1040.800048828125</AltitudeMeters>
            <DistanceMeters>NAN</DistanceMeters>
          </Trackpoint>
          <Trackpoint>
            <Time>2019-08-01T11:20:35.000Z</Time>
            <Position>
              <LatitudeDegrees>40.68742431700229644775390625</LatitudeDegrees>
              <LongitudeDegrees>-4.0130451880395412445068359375</LongitudeDegrees>
            </Position>
            <AltitudeMeters>1040.800048828125</AltitudeMeters>
            <DistanceMeters>NAN</DistanceMeters>
          </Trackpoint>
          <Trackpoint>
            <Time>2019-08-01T11:20:36.000Z</Time>
            <Position>
              <LatitudeDegrees>40.6874791346490383148193359375</LatitudeDegrees>
              <LongitudeDegrees>-4.01303806342184543609619140625</LongitudeDegrees>
            </Position>
            <AltitudeMeters>1041.199951171875</AltitudeMeters>
            <DistanceMeters>NAN</DistanceMeters>
          </Trackpoint>
          <Trackpoint>
            <Time>2019-08-01T11:20:37.000Z</Time>
            <Position>
              <LatitudeDegrees>40.68753428757190704345703125</LatitudeDegrees>
              <LongitudeDegrees>-4.0130311064422130584716796875</LongitudeDegrees>
            </Position>
            <AltitudeMeters>1041.4000244140625</AltitudeMeters>
            <DistanceMeters>NAN</DistanceMeters>
          </Trackpoint>
          <Trackpoint>
            <Time>2019-08-01T11:20:38.000Z</Time>
            <Position>
              <LatitudeDegrees>40.6875894404947757720947265625</LatitudeDegrees>
              <LongitudeDegrees>-4.01302398182451725006103515625</LongitudeDegrees>
            </Position>
            <AltitudeMeters>1041.5999755859375</AltitudeMeters>
            <DistanceMeters>NAN</DistanceMeters>
          </Trackpoint>
          <Trackpoint>
            <Time>2019-08-01T11:20:39.000Z</Time>
            <Position>
              <LatitudeDegrees>40.687643587589263916015625</LatitudeDegrees>
              <LongitudeDegrees>-4.01301811449229717254638671875</LongitudeDegrees>
            </Position>
            <AltitudeMeters>1041.800048828125</AltitudeMeters>
            <DistanceMeters>NAN</DistanceMeters>
          </Trackpoint>
          <Trackpoint>
            <Time>2019-08-01T11:20:40.000Z</Time>
            <Position>
              <LatitudeDegrees>40.68769714795053005218505859375</LatitudeDegrees>
              <LongitudeDegrees>-4.0130140073597431182861328125</LongitudeDegrees>
            </Position>
            <AltitudeMeters>1041.800048828125</AltitudeMeters>
            <DistanceMeters>NAN</DistanceMeters>
          </Trackpoint>
          <Trackpoint>
            <Time>2019-08-01T11:20:41.000Z</Time>
            <Position>
              <LatitudeDegrees>40.687749870121479034423828125</LatitudeDegrees>
              <LongitudeDegrees>-4.01301006786525249481201171875</LongitudeDegrees>
            </Position>
            <AltitudeMeters>1041.800048828125</AltitudeMeters>
            <DistanceMeters>NAN</DistanceMeters>
          </Trackpoint>
          <Trackpoint>
            <Time>2019-08-01T11:20:42.000Z</Time>
            <Position>
              <LatitudeDegrees>40.68780108354985713958740234375</LatitudeDegrees>
              <LongitudeDegrees>-4.01300587691366672515869140625</LongitudeDegrees>
            </Position>
            <AltitudeMeters>1042</AltitudeMeters>
            <DistanceMeters>NAN</DistanceMeters>
          </Trackpoint>
          <Trackpoint>
            <Time>2019-08-01T11:20:43.000Z</Time>
            <Position>
              <LatitudeDegrees>40.68785087205469608306884765625</LatitudeDegrees>
              <LongitudeDegrees>-4.01300202123820781707763671875</LongitudeDegrees>
            </Position>
            <AltitudeMeters>1042</AltitudeMeters>
            <DistanceMeters>NAN</DistanceMeters>
          </Trackpoint>
          <Trackpoint>
            <Time>2019-08-01T11:20:44.000Z</Time>
            <Position>
              <LatitudeDegrees>40.68789881654083728790283203125</LatitudeDegrees>
              <LongitudeDegrees>-4.0129979141056537628173828125</LongitudeDegrees>
            </Position>
            <AltitudeMeters>1042</AltitudeMeters>
            <DistanceMeters>NAN</DistanceMeters>
          </Trackpoint>
          <Trackpoint>
            <Time>2019-08-01T11:20:46.000Z</Time>
            <Position>
              <LatitudeDegrees>40.6879917718470096588134765625</LatitudeDegrees>
              <LongitudeDegrees>-4.012992046773433685302734375</LongitudeDegrees>
            </Position>
            <AltitudeMeters>1041.800048828125</AltitudeMeters>
            <DistanceMeters>NAN</DistanceMeters>
          </Trackpoint>
          <Trackpoint>
            <Time>2019-08-01T11:20:47.000Z</Time>
            <Position>
              <LatitudeDegrees>40.68803946487605571746826171875</LatitudeDegrees>
              <LongitudeDegrees>-4.01298911310732364654541015625</LongitudeDegrees>
            </Position>
            <AltitudeMeters>1042</AltitudeMeters>
            <DistanceMeters>NAN</DistanceMeters>
          </Trackpoint>
          <Trackpoint>
            <Time>2019-08-01T11:20:48.000Z</Time>
            <Position>
              <LatitudeDegrees>40.6880866549909114837646484375</LatitudeDegrees>
              <LongitudeDegrees>-4.01298693381249904632568359375</LongitudeDegrees>
            </Position>
            <AltitudeMeters>1042</AltitudeMeters>
            <DistanceMeters>NAN</DistanceMeters>
          </Trackpoint>
          <Trackpoint>
            <Time>2019-08-01T11:20:50.000Z</Time>
            <Position>
              <LatitudeDegrees>40.688185058534145355224609375</LatitudeDegrees>
              <LongitudeDegrees>-4.01298140175640583038330078125</LongitudeDegrees>
            </Position>
            <AltitudeMeters>1042.4000244140625</AltitudeMeters>
            <DistanceMeters>NAN</DistanceMeters>
          </Trackpoint>
          <Trackpoint>
            <Time>2019-08-01T11:20:51.000Z</Time>
            <Position>
              <LatitudeDegrees>40.68823778070509433746337890625</LatitudeDegrees>
              <LongitudeDegrees>-4.01297855190932750701904296875</LongitudeDegrees>
            </Position>
            <AltitudeMeters>1042.800048828125</AltitudeMeters>
            <DistanceMeters>NAN</DistanceMeters>
          </Trackpoint>
          <Trackpoint>
            <Time>2019-08-01T11:20:52.000Z</Time>
            <Position>
              <LatitudeDegrees>40.688289664685726165771484375</LatitudeDegrees>
              <LongitudeDegrees>-4.0129749476909637451171875</LongitudeDegrees>
            </Position>
            <AltitudeMeters>1043</AltitudeMeters>
            <DistanceMeters>NAN</DistanceMeters>
          </Trackpoint>
          <Trackpoint>
            <Time>2019-08-01T11:20:53.000Z</Time>
            <Position>
              <LatitudeDegrees>40.68834163248538970947265625</LatitudeDegrees>
              <LongitudeDegrees>-4.0129707567393779754638671875</LongitudeDegrees>
            </Position>
            <AltitudeMeters>1043.199951171875</AltitudeMeters>
            <DistanceMeters>NAN</DistanceMeters>
          </Trackpoint>
          <Trackpoint>
            <Time>2019-08-01T11:20:54.000Z</Time>
            <Position>
              <LatitudeDegrees>40.68839527666568756103515625</LatitudeDegrees>
              <LongitudeDegrees>-4.0129663981497287750244140625</LongitudeDegrees>
            </Position>
            <AltitudeMeters>1043.5999755859375</AltitudeMeters>
            <DistanceMeters>NAN</DistanceMeters>
          </Trackpoint>
          <Trackpoint>
            <Time>2019-08-01T11:20:56.000Z</Time>
            <Position>
              <LatitudeDegrees>40.68850315175950527191162109375</LatitudeDegrees>
              <LongitudeDegrees>-4.01295558549463748931884765625</LongitudeDegrees>
            </Position>
            <AltitudeMeters>1044.4000244140625</AltitudeMeters>
            <DistanceMeters>NAN</DistanceMeters>
          </Trackpoint>
          <Trackpoint>
            <Time>2019-08-01T11:20:57.000Z</Time>
            <Position>
              <LatitudeDegrees>40.6885550357401371002197265625</LatitudeDegrees>
              <LongitudeDegrees>-4.01294921524822711944580078125</LongitudeDegrees>
            </Position>
            <AltitudeMeters>1044.5999755859375</AltitudeMeters>
            <DistanceMeters>NAN</DistanceMeters>
          </Trackpoint>
          <Trackpoint>
            <Time>2019-08-01T11:20:58.000Z</Time>
            <Position>
              <LatitudeDegrees>40.6886090151965618133544921875</LatitudeDegrees>
              <LongitudeDegrees>-4.012941755354404449462890625</LongitudeDegrees>
            </Position>
            <AltitudeMeters>1044.800048828125</AltitudeMeters>
            <DistanceMeters>NAN</DistanceMeters>
          </Trackpoint>
          <Trackpoint>
            <Time>2019-08-01T11:20:59.000Z</Time>
            <Position>
              <LatitudeDegrees>40.68866425193846225738525390625</LatitudeDegrees>
              <LongitudeDegrees>-4.01293261907994747161865234375</LongitudeDegrees>
            </Position>
            <AltitudeMeters>1045</AltitudeMeters>
            <DistanceMeters>NAN</DistanceMeters>
          </Trackpoint>
          <Trackpoint>
            <Time>2019-08-01T11:21:00.000Z</Time>
            <Position>
              <LatitudeDegrees>40.68872158415615558624267578125</LatitudeDegrees>
              <LongitudeDegrees>-4.01292331516742706298828125</LongitudeDegrees>
            </Position>
            <AltitudeMeters>1045.199951171875</AltitudeMeters>
            <DistanceMeters>NAN</DistanceMeters>
          </Trackpoint>
          <Trackpoint>
            <Time>2019-08-01T11:21:01.000Z</Time>
            <Position>
              <LatitudeDegrees>40.68878126330673694610595703125</LatitudeDegrees>
              <LongitudeDegrees>-4.012914262712001800537109375</LongitudeDegrees>
            </Position>
            <AltitudeMeters>1045.5999755859375</AltitudeMeters>
            <DistanceMeters>NAN</DistanceMeters>
          </Trackpoint>
          <Trackpoint>
            <Time>2019-08-01T11:21:02.000Z</Time>
            <Position>
              <LatitudeDegrees>40.6888425350189208984375</LatitudeDegrees>
              <LongitudeDegrees>-4.01290579698979854583740234375</LongitudeDegrees>
            </Position>
            <AltitudeMeters>1045.800048828125</AltitudeMeters>
            <DistanceMeters>NAN</DistanceMeters>
          </Trackpoint>
          <Trackpoint>
            <Time>2019-08-01T11:21:03.000Z</Time>
            <Position>
              <LatitudeDegrees>40.6889057345688343048095703125</LatitudeDegrees>
              <LongitudeDegrees>-4.01289724744856357574462890625</LongitudeDegrees>
            </Position>
            <AltitudeMeters>1045.800048828125</AltitudeMeters>
            <DistanceMeters>NAN</DistanceMeters>
          </Trackpoint>
          <Trackpoint>
            <Time>2019-08-01T11:21:04.000Z</Time>
            <Position>
              <LatitudeDegrees>40.68896985612809658050537109375</LatitudeDegrees>
              <LongitudeDegrees>-4.01288853026926517486572265625</LongitudeDegrees>
            </Position>
            <AltitudeMeters>1046</AltitudeMeters>
            <DistanceMeters>NAN</DistanceMeters>
          </Trackpoint>
          <Trackpoint>
            <Time>2019-08-01T11:21:05.000Z</Time>
            <Position>
              <LatitudeDegrees>40.6890358217060565948486328125</LatitudeDegrees>
              <LongitudeDegrees>-4.01287964545190334320068359375</LongitudeDegrees>
            </Position>
            <AltitudeMeters>1046</AltitudeMeters>
            <DistanceMeters>NAN</DistanceMeters>
          </Trackpoint>
          <Trackpoint>
            <Time>2019-08-01T11:21:06.000Z</Time>
            <Position>
              <LatitudeDegrees>40.68910396657884120941162109375</LatitudeDegrees>
              <LongitudeDegrees>-4.01287009008228778839111328125</LongitudeDegrees>
            </Position>
            <AltitudeMeters>1046</AltitudeMeters>
            <DistanceMeters>NAN</DistanceMeters>
          </Trackpoint>
          <Trackpoint>
            <Time>2019-08-01T11:21:07.000Z</Time>
            <Position>
              <LatitudeDegrees>40.6891742907464504241943359375</LatitudeDegrees>
              <LongitudeDegrees>-4.01286070235073566436767578125</LongitudeDegrees>
            </Position>
            <AltitudeMeters>1046</AltitudeMeters>
            <DistanceMeters>NAN</DistanceMeters>
          </Trackpoint>
          <Trackpoint>
            <Time>2019-08-01T11:21:08.000Z</Time>
            <Position>
              <LatitudeDegrees>40.68924629129469394683837890625</LatitudeDegrees>
              <LongitudeDegrees>-4.01285089552402496337890625</LongitudeDegrees>
            </Position>
            <AltitudeMeters>1046</AltitudeMeters>
            <DistanceMeters>NAN</DistanceMeters>
          </Trackpoint>
          <Trackpoint>
            <Time>2019-08-01T11:21:09.000Z</Time>
            <Position>
              <LatitudeDegrees>40.68932021968066692352294921875</LatitudeDegrees>
              <LongitudeDegrees>-4.01284075342118740081787109375</LongitudeDegrees>
            </Position>
            <AltitudeMeters>1046</AltitudeMeters>
            <DistanceMeters>NAN</DistanceMeters>
          </Trackpoint>
          <Trackpoint>
            <Time>2019-08-01T11:21:10.000Z</Time>
            <Position>
              <LatitudeDegrees>40.68939498625695705413818359375</LatitudeDegrees>
              <LongitudeDegrees>-4.0128302760422229766845703125</LongitudeDegrees>
            </Position>
            <AltitudeMeters>1046</AltitudeMeters>
            <DistanceMeters>NAN</DistanceMeters>
          </Trackpoint>
          <Trackpoint>
            <Time>2019-08-01T11:21:11.000Z</Time>
            <Position>
              <LatitudeDegrees>40.68946958519518375396728515625</LatitudeDegrees>
              <LongitudeDegrees>-4.01281845755875110626220703125</LongitudeDegrees>
            </Position>
            <AltitudeMeters>1046</AltitudeMeters>
            <DistanceMeters>NAN</DistanceMeters>
          </Trackpoint>
          <Trackpoint>
            <Time>2019-08-01T11:21:12.000Z</Time>
            <Position>
              <LatitudeDegrees>40.689544267952442169189453125</LatitudeDegrees>
              <LongitudeDegrees>-4.01280772872269153594970703125</LongitudeDegrees>
            </Position>
            <AltitudeMeters>1046</AltitudeMeters>
            <DistanceMeters>NAN</DistanceMeters>
          </Trackpoint>
          <Trackpoint>
            <Time>2019-08-01T11:21:13.000Z</Time>
            <Position>
              <LatitudeDegrees>40.68961777724325656890869140625</LatitudeDegrees>
              <LongitudeDegrees>-4.012797586619853973388671875</LongitudeDegrees>
            </Position>
            <AltitudeMeters>1046</AltitudeMeters>
            <DistanceMeters>NAN</DistanceMeters>
          </Trackpoint>
          <Trackpoint>
            <Time>2019-08-01T11:21:14.000Z</Time>
            <Position>
              <LatitudeDegrees>40.6896916218101978302001953125</LatitudeDegrees>
              <LongitudeDegrees>-4.01278744451701641082763671875</LongitudeDegrees>
            </Position>
            <AltitudeMeters>1046</AltitudeMeters>
            <DistanceMeters>NAN</DistanceMeters>
          </Trackpoint>
          <Trackpoint>
            <Time>2019-08-01T11:21:15.000Z</Time>
            <Position>
              <LatitudeDegrees>40.68976496346294879913330078125</LatitudeDegrees>
              <LongitudeDegrees>-4.01277671568095684051513671875</LongitudeDegrees>
            </Position>
            <AltitudeMeters>1046</AltitudeMeters>
            <DistanceMeters>NAN</DistanceMeters>
          </Trackpoint>
          <Trackpoint>
            <Time>2019-08-01T11:21:16.000Z</Time>
            <Position>
              <LatitudeDegrees>40.68983671255409717559814453125</LatitudeDegrees>
              <LongitudeDegrees>-4.01276632212102413177490234375</LongitudeDegrees>
            </Position>
            <AltitudeMeters>1046</AltitudeMeters>
            <DistanceMeters>NAN</DistanceMeters>
          </Trackpoint>
          <Trackpoint>
            <Time>2019-08-01T11:21:17.000Z</Time>
            <Position>
              <LatitudeDegrees>40.6899065338075160980224609375</LatitudeDegrees>
              <LongitudeDegrees>-4.01275643147528171539306640625</LongitudeDegrees>
            </Position>
            <AltitudeMeters>1046</AltitudeMeters>
            <DistanceMeters>NAN</DistanceMeters>
          </Trackpoint>
          <Trackpoint>
            <Time>2019-08-01T11:21:18.000Z</Time>
            <Position>
              <LatitudeDegrees>40.68997484631836414337158203125</LatitudeDegrees>
              <LongitudeDegrees>-4.0127467922866344451904296875</LongitudeDegrees>
            </Position>
            <AltitudeMeters>1045.800048828125</AltitudeMeters>
            <DistanceMeters>NAN</DistanceMeters>
          </Trackpoint>
          <Trackpoint>
            <Time>2019-08-01T11:21:19.000Z</Time>
            <Position>
              <LatitudeDegrees>40.69004081189632415771484375</LatitudeDegrees>
              <LongitudeDegrees>-4.01273681782186031341552734375</LongitudeDegrees>
            </Position>
            <AltitudeMeters>1045.800048828125</AltitudeMeters>
            <DistanceMeters>NAN</DistanceMeters>
          </Trackpoint>
          <Trackpoint>
            <Time>2019-08-01T11:21:20.000Z</Time>
            <Position>
              <LatitudeDegrees>40.690104849636554718017578125</LatitudeDegrees>
              <LongitudeDegrees>-4.01272776536643505096435546875</LongitudeDegrees>
            </Position>
            <AltitudeMeters>1045.800048828125</AltitudeMeters>
            <DistanceMeters>NAN</DistanceMeters>
          </Trackpoint>
          <Trackpoint>
            <Time>2019-08-01T11:21:21.000Z</Time>
            <Position>
              <LatitudeDegrees>40.6901673786342144012451171875</LatitudeDegrees>
              <LongitudeDegrees>-4.012719802558422088623046875</LongitudeDegrees>
            </Position>
            <AltitudeMeters>1045.800048828125</AltitudeMeters>
            <DistanceMeters>NAN</DistanceMeters>
          </Trackpoint>
          <Trackpoint>
            <Time>2019-08-01T11:21:22.000Z</Time>
            <Position>
              <LatitudeDegrees>40.6902290694415569305419921875</LatitudeDegrees>
              <LongitudeDegrees>-4.01271167211234569549560546875</LongitudeDegrees>
            </Position>
            <AltitudeMeters>1045.800048828125</AltitudeMeters>
            <DistanceMeters>NAN</DistanceMeters>
          </Trackpoint>
          <Trackpoint>
            <Time>2019-08-01T11:21:23.000Z</Time>
            <Position>
              <LatitudeDegrees>40.6902894191443920135498046875</LatitudeDegrees>
              <LongitudeDegrees>-4.01270337402820587158203125</LongitudeDegrees>
            </Position>
            <AltitudeMeters>1045.800048828125</AltitudeMeters>
            <DistanceMeters>NAN</DistanceMeters>
          </Trackpoint>
          <Trackpoint>
            <Time>2019-08-01T11:21:24.000Z</Time>
            <Position>
              <LatitudeDegrees>40.69034918211400508880615234375</LatitudeDegrees>
              <LongitudeDegrees>-4.01269474066793918609619140625</LongitudeDegrees>
            </Position>
            <AltitudeMeters>1045.800048828125</AltitudeMeters>
            <DistanceMeters>NAN</DistanceMeters>
          </Trackpoint>
          <Trackpoint>
            <Time>2019-08-01T11:21:26.000Z</Time>
            <Position>
              <LatitudeDegrees>40.69046786986291408538818359375</LatitudeDegrees>
              <LongitudeDegrees>-4.012678563594818115234375</LongitudeDegrees>
            </Position>
            <AltitudeMeters>1046</AltitudeMeters>
            <DistanceMeters>NAN</DistanceMeters>
          </Trackpoint>
          <Trackpoint>
            <Time>2019-08-01T11:21:27.000Z</Time>
            <Position>
              <LatitudeDegrees>40.69052754901349544525146484375</LatitudeDegrees>
              <LongitudeDegrees>-4.01267043314874172210693359375</LongitudeDegrees>
            </Position>
            <AltitudeMeters>1046</AltitudeMeters>
            <DistanceMeters>NAN</DistanceMeters>
          </Trackpoint>
          <Trackpoint>
            <Time>2019-08-01T11:21:28.000Z</Time>
            <Position>
              <LatitudeDegrees>40.6905881501734256744384765625</LatitudeDegrees>
              <LongitudeDegrees>-4.0126619674265384674072265625</LongitudeDegrees>
            </Position>
            <AltitudeMeters>1046.199951171875</AltitudeMeters>
            <DistanceMeters>NAN</DistanceMeters>
          </Trackpoint>
          <Trackpoint>
            <Time>2019-08-01T11:21:29.000Z</Time>
            <Position>
              <LatitudeDegrees>40.6906498409807682037353515625</LatitudeDegrees>
              <LongitudeDegrees>-4.0126529149711132049560546875</LongitudeDegrees>
            </Position>
            <AltitudeMeters>1047.199951171875</AltitudeMeters>
            <DistanceMeters>NAN</DistanceMeters>
          </Trackpoint>
          <Trackpoint>
            <Time>2019-08-01T11:21:30.000Z</Time>
            <Position>
              <LatitudeDegrees>40.6907118670642375946044921875</LatitudeDegrees>
              <LongitudeDegrees>-4.0126441977918148040771484375</LongitudeDegrees>
            </Position>
            <AltitudeMeters>1047.5999755859375</AltitudeMeters>
            <DistanceMeters>NAN</DistanceMeters>
          </Trackpoint>
          <Trackpoint>
            <Time>2019-08-01T11:21:31.000Z</Time>
            <Position>
              <LatitudeDegrees>40.69077414460480213165283203125</LatitudeDegrees>
              <LongitudeDegrees>-4.0126348100602626800537109375</LongitudeDegrees>
            </Position>
            <AltitudeMeters>1048</AltitudeMeters>
            <DistanceMeters>NAN</DistanceMeters>
          </Trackpoint>
          <Trackpoint>
            <Time>2019-08-01T11:21:32.000Z</Time>
            <Position>
              <LatitudeDegrees>40.6908372603356838226318359375</LatitudeDegrees>
              <LongitudeDegrees>-4.01262584142386913299560546875</LongitudeDegrees>
            </Position>
            <AltitudeMeters>1048.199951171875</AltitudeMeters>
            <DistanceMeters>NAN</DistanceMeters>
          </Trackpoint>
          <Trackpoint>
            <Time>2019-08-01T11:21:33.000Z</Time>
            <Position>
              <LatitudeDegrees>40.69090071134269237518310546875</LatitudeDegrees>
              <LongitudeDegrees>-4.01261762715876102447509765625</LongitudeDegrees>
            </Position>
            <AltitudeMeters>1048.4000244140625</AltitudeMeters>
            <DistanceMeters>NAN</DistanceMeters>
          </Trackpoint>
          <Trackpoint>
            <Time>2019-08-01T11:21:34.000Z</Time>
            <Position>
              <LatitudeDegrees>40.6909643299877643585205078125</LatitudeDegrees>
              <LongitudeDegrees>-4.01260949671268463134765625</LongitudeDegrees>
            </Position>
            <AltitudeMeters>1048.4000244140625</AltitudeMeters>
            <DistanceMeters>NAN</DistanceMeters>
          </Trackpoint>
          <Trackpoint>
            <Time>2019-08-01T11:21:35.000Z</Time>
            <Position>
              <LatitudeDegrees>40.69102828390896320343017578125</LatitudeDegrees>
              <LongitudeDegrees>-4.01260145008563995361328125</LongitudeDegrees>
            </Position>
            <AltitudeMeters>1048.5999755859375</AltitudeMeters>
            <DistanceMeters>NAN</DistanceMeters>
          </Trackpoint>
          <Trackpoint>
            <Time>2019-08-01T11:21:36.000Z</Time>
            <Position>
              <LatitudeDegrees>40.6910917349159717559814453125</LatitudeDegrees>
              <LongitudeDegrees>-4.01259298436343669891357421875</LongitudeDegrees>
            </Position>
            <AltitudeMeters>1048.800048828125</AltitudeMeters>
            <DistanceMeters>NAN</DistanceMeters>
          </Trackpoint>
          <Trackpoint>
            <Time>2019-08-01T11:21:37.000Z</Time>
            <Position>
              <LatitudeDegrees>40.69115526974201202392578125</LatitudeDegrees>
              <LongitudeDegrees>-4.01258401572704315185546875</LongitudeDegrees>
            </Position>
            <AltitudeMeters>1048.800048828125</AltitudeMeters>
            <DistanceMeters>NAN</DistanceMeters>
          </Trackpoint>
          <Trackpoint>
            <Time>2019-08-01T11:21:38.000Z</Time>
            <Position>
              <LatitudeDegrees>40.69121964275836944580078125</LatitudeDegrees>
              <LongitudeDegrees>-4.01257462799549102783203125</LongitudeDegrees>
            </Position>
            <AltitudeMeters>1049.199951171875</AltitudeMeters>
            <DistanceMeters>NAN</DistanceMeters>
          </Trackpoint>
          <Trackpoint>
            <Time>2019-08-01T11:21:39.000Z</Time>
            <Position>
              <LatitudeDegrees>40.6912838481366634368896484375</LatitudeDegrees>
              <LongitudeDegrees>-4.01256632991135120391845703125</LongitudeDegrees>
            </Position>
            <AltitudeMeters>1049.4000244140625</AltitudeMeters>
            <DistanceMeters>NAN</DistanceMeters>
          </Trackpoint>
          <Trackpoint>
            <Time>2019-08-01T11:21:40.000Z</Time>
            <Position>
              <LatitudeDegrees>40.691347382962703704833984375</LatitudeDegrees>
              <LongitudeDegrees>-4.0125580318272113800048828125</LongitudeDegrees>
            </Position>
            <AltitudeMeters>1049.4000244140625</AltitudeMeters>
            <DistanceMeters>NAN</DistanceMeters>
          </Trackpoint>
          <Trackpoint>
            <Time>2019-08-01T11:21:41.000Z</Time>
            <Position>
              <LatitudeDegrees>40.69141100160777568817138671875</LatitudeDegrees>
              <LongitudeDegrees>-4.012549482285976409912109375</LongitudeDegrees>
            </Position>
            <AltitudeMeters>1049.5999755859375</AltitudeMeters>
            <DistanceMeters>NAN</DistanceMeters>
          </Trackpoint>
          <Trackpoint>
            <Time>2019-08-01T11:21:42.000Z</Time>
            <Position>
              <LatitudeDegrees>40.69147470407187938690185546875</LatitudeDegrees>
              <LongitudeDegrees>-4.01254034601151943206787109375</LongitudeDegrees>
            </Position>
            <AltitudeMeters>1049.5999755859375</AltitudeMeters>
            <DistanceMeters>NAN</DistanceMeters>
          </Trackpoint>
          <Trackpoint>
            <Time>2019-08-01T11:21:43.000Z</Time>
            <Position>
              <LatitudeDegrees>40.69153924472630023956298828125</LatitudeDegrees>
              <LongitudeDegrees>-4.012530706822872161865234375</LongitudeDegrees>
            </Position>
            <AltitudeMeters>1049.800048828125</AltitudeMeters>
            <DistanceMeters>NAN</DistanceMeters>
          </Trackpoint>
          <Trackpoint>
            <Time>2019-08-01T11:21:44.000Z</Time>
            <Position>
              <LatitudeDegrees>40.6916033662855625152587890625</LatitudeDegrees>
              <LongitudeDegrees>-4.01252022944390773773193359375</LongitudeDegrees>
            </Position>
            <AltitudeMeters>1049.800048828125</AltitudeMeters>
            <DistanceMeters>NAN</DistanceMeters>
          </Trackpoint>
          <Trackpoint>
            <Time>2019-08-01T11:21:45.000Z</Time>
            <Position>
              <LatitudeDegrees>40.69166782312095165252685546875</LatitudeDegrees>
              <LongitudeDegrees>-4.01250648312270641326904296875</LongitudeDegrees>
            </Position>
            <AltitudeMeters>1050</AltitudeMeters>
            <DistanceMeters>NAN</DistanceMeters>
          </Trackpoint>
          <Trackpoint>
            <Time>2019-08-01T11:21:46.000Z</Time>
            <Position>
              <LatitudeDegrees>40.69173194468021392822265625</LatitudeDegrees>
              <LongitudeDegrees>-4.0124872885644435882568359375</LongitudeDegrees>
            </Position>
            <AltitudeMeters>1050.199951171875</AltitudeMeters>
            <DistanceMeters>NAN</DistanceMeters>
          </Trackpoint>
          <Trackpoint>
            <Time>2019-08-01T11:21:47.000Z</Time>
            <Position>
              <LatitudeDegrees>40.69179623387753963470458984375</LatitudeDegrees>
              <LongitudeDegrees>-4.01246340014040470123291015625</LongitudeDegrees>
            </Position>
            <AltitudeMeters>1050.4000244140625</AltitudeMeters>
            <DistanceMeters>NAN</DistanceMeters>
          </Trackpoint>
          <Trackpoint>
            <Time>2019-08-01T11:21:48.000Z</Time>
            <Position>
              <LatitudeDegrees>40.69185943342745304107666015625</LatitudeDegrees>
              <LongitudeDegrees>-4.01243573985993862152099609375</LongitudeDegrees>
            </Position>
            <AltitudeMeters>1050.5999755859375</AltitudeMeters>
            <DistanceMeters>NAN</DistanceMeters>
          </Trackpoint>
          <Trackpoint>
            <Time>2019-08-01T11:21:49.000Z</Time>
            <Position>
              <LatitudeDegrees>40.6919218786060810089111328125</LatitudeDegrees>
              <LongitudeDegrees>-4.0124048106372356414794921875</LongitudeDegrees>
            </Position>
            <AltitudeMeters>1051</AltitudeMeters>
            <DistanceMeters>NAN</DistanceMeters>
          </Trackpoint>
          <Trackpoint>
            <Time>2019-08-01T11:21:51.000Z</Time>
            <Position>
              <LatitudeDegrees>40.69204710423946380615234375</LatitudeDegrees>
              <LongitudeDegrees>-4.0123380906879901885986328125</LongitudeDegrees>
            </Position>
            <AltitudeMeters>1051.4000244140625</AltitudeMeters>
            <DistanceMeters>NAN</DistanceMeters>
          </Trackpoint>
          <Trackpoint>
            <Time>2019-08-01T11:21:52.000Z</Time>
            <Position>
              <LatitudeDegrees>40.6921108067035675048828125</LatitudeDegrees>
              <LongitudeDegrees>-4.0123048983514308929443359375</LongitudeDegrees>
            </Position>
            <AltitudeMeters>1051.5999755859375</AltitudeMeters>
            <DistanceMeters>NAN</DistanceMeters>
          </Trackpoint>
          <Trackpoint>
            <Time>2019-08-01T11:21:53.000Z</Time>
            <Position>
              <LatitudeDegrees>40.69217543117702007293701171875</LatitudeDegrees>
              <LongitudeDegrees>-4.01227162219583988189697265625</LongitudeDegrees>
            </Position>
            <AltitudeMeters>1051.800048828125</AltitudeMeters>
            <DistanceMeters>NAN</DistanceMeters>
          </Trackpoint>
          <Trackpoint>
            <Time>2019-08-01T11:21:54.000Z</Time>
            <Position>
              <LatitudeDegrees>40.69224030710756778717041015625</LatitudeDegrees>
              <LongitudeDegrees>-4.01223809458315372467041015625</LongitudeDegrees>
            </Position>
            <AltitudeMeters>1052.199951171875</AltitudeMeters>
            <DistanceMeters>NAN</DistanceMeters>
          </Trackpoint>
          <Trackpoint>
            <Time>2019-08-01T11:21:55.000Z</Time>
            <Position>
              <LatitudeDegrees>40.69230568595230579376220703125</LatitudeDegrees>
              <LongitudeDegrees>-4.0122043155133724212646484375</LongitudeDegrees>
            </Position>
            <AltitudeMeters>1052.4000244140625</AltitudeMeters>
            <DistanceMeters>NAN</DistanceMeters>
          </Trackpoint>
          <Trackpoint>
            <Time>2019-08-01T11:21:56.000Z</Time>
            <Position>
              <LatitudeDegrees>40.69237173534929752349853515625</LatitudeDegrees>
              <LongitudeDegrees>-4.01217036880552768707275390625</LongitudeDegrees>
            </Position>
            <AltitudeMeters>1052.4000244140625</AltitudeMeters>
            <DistanceMeters>NAN</DistanceMeters>
          </Trackpoint>
          <Trackpoint>
            <Time>2019-08-01T11:21:57.000Z</Time>
            <Position>
              <LatitudeDegrees>40.6924371980130672454833984375</LatitudeDegrees>
              <LongitudeDegrees>-4.01213650591671466827392578125</LongitudeDegrees>
            </Position>
            <AltitudeMeters>1052.5999755859375</AltitudeMeters>
            <DistanceMeters>NAN</DistanceMeters>
          </Trackpoint>
          <Trackpoint>
            <Time>2019-08-01T11:21:58.000Z</Time>
            <Position>
              <LatitudeDegrees>40.69250098429620265960693359375</LatitudeDegrees>
              <LongitudeDegrees>-4.01210381649434566497802734375</LongitudeDegrees>
            </Position>
            <AltitudeMeters>1052.5999755859375</AltitudeMeters>
            <DistanceMeters>NAN</DistanceMeters>
          </Trackpoint>
          <Trackpoint>
            <Time>2019-08-01T11:21:59.000Z</Time>
            <Position>
              <LatitudeDegrees>40.6925619207322597503662109375</LatitudeDegrees>
              <LongitudeDegrees>-4.012072719633579254150390625</LongitudeDegrees>
            </Position>
            <AltitudeMeters>1052.800048828125</AltitudeMeters>
            <DistanceMeters>NAN</DistanceMeters>
          </Trackpoint>
          <Trackpoint>
            <Time>2019-08-01T11:22:00.000Z</Time>
            <Position>
              <LatitudeDegrees>40.6926209293305873870849609375</LatitudeDegrees>
              <LongitudeDegrees>-4.01204145513474941253662109375</LongitudeDegrees>
            </Position>
            <AltitudeMeters>1052.800048828125</AltitudeMeters>
            <DistanceMeters>NAN</DistanceMeters>
          </Trackpoint>
          <Trackpoint>
            <Time>2019-08-01T11:22:01.000Z</Time>
            <Position>
              <LatitudeDegrees>40.69267834536731243133544921875</LatitudeDegrees>
              <LongitudeDegrees>-4.0120108611881732940673828125</LongitudeDegrees>
            </Position>
            <AltitudeMeters>1052.800048828125</AltitudeMeters>
            <DistanceMeters>NAN</DistanceMeters>
          </Trackpoint>
          <Trackpoint>
            <Time>2019-08-01T11:22:02.000Z</Time>
            <Position>
              <LatitudeDegrees>40.692734755575656890869140625</LatitudeDegrees>
              <LongitudeDegrees>-4.01198093779385089874267578125</LongitudeDegrees>
            </Position>
            <AltitudeMeters>1052.800048828125</AltitudeMeters>
            <DistanceMeters>NAN</DistanceMeters>
          </Trackpoint>
          <Trackpoint>
            <Time>2019-08-01T11:22:03.000Z</Time>
            <Position>
              <LatitudeDegrees>40.692789070308208465576171875</LatitudeDegrees>
              <LongitudeDegrees>-4.01195243932306766510009765625</LongitudeDegrees>
            </Position>
            <AltitudeMeters>1052.800048828125</AltitudeMeters>
            <DistanceMeters>NAN</DistanceMeters>
          </Trackpoint>
          <Trackpoint>
            <Time>2019-08-01T11:22:04.000Z</Time>
            <Position>
              <LatitudeDegrees>40.69284162484109401702880859375</LatitudeDegrees>
              <LongitudeDegrees>-4.01192377321422100067138671875</LongitudeDegrees>
            </Position>
            <AltitudeMeters>1052.800048828125</AltitudeMeters>
            <DistanceMeters>NAN</DistanceMeters>
          </Trackpoint>
          <Trackpoint>
            <Time>2019-08-01T11:22:05.000Z</Time>
            <Position>
              <LatitudeDegrees>40.69289241917431354522705078125</LatitudeDegrees>
              <LongitudeDegrees>-4.01189594529569149017333984375</LongitudeDegrees>
            </Position>
            <AltitudeMeters>1053</AltitudeMeters>
            <DistanceMeters>NAN</DistanceMeters>
          </Trackpoint>
          <Trackpoint>
            <Time>2019-08-01T11:22:06.000Z</Time>
            <Position>
              <LatitudeDegrees>40.69294170476496219635009765625</LatitudeDegrees>
              <LongitudeDegrees>-4.01186862029135227203369140625</LongitudeDegrees>
            </Position>
            <AltitudeMeters>1053.199951171875</AltitudeMeters>
            <DistanceMeters>NAN</DistanceMeters>
          </Trackpoint>
          <Trackpoint>
            <Time>2019-08-01T11:22:07.000Z</Time>
            <Position>
              <LatitudeDegrees>40.6929890625178813934326171875</LatitudeDegrees>
              <LongitudeDegrees>-4.01184163056313991546630859375</LongitudeDegrees>
            </Position>
            <AltitudeMeters>1053.4000244140625</AltitudeMeters>
            <DistanceMeters>NAN</DistanceMeters>
          </Trackpoint>
          <Trackpoint>
            <Time>2019-08-01T11:22:08.000Z</Time>
            <Position>
              <LatitudeDegrees>40.69303357042372226715087890625</LatitudeDegrees>
              <LongitudeDegrees>-4.01181514374911785125732421875</LongitudeDegrees>
            </Position>
            <AltitudeMeters>1054</AltitudeMeters>
            <DistanceMeters>NAN</DistanceMeters>
          </Trackpoint>
          <Trackpoint>
            <Time>2019-08-01T11:22:09.000Z</Time>
            <Position>
              <LatitudeDegrees>40.69307749159634113311767578125</LatitudeDegrees>
              <LongitudeDegrees>-4.01178874075412750244140625</LongitudeDegrees>
            </Position>
            <AltitudeMeters>1054.4000244140625</AltitudeMeters>
            <DistanceMeters>NAN</DistanceMeters>
          </Trackpoint>
          <Trackpoint>
            <Time>2019-08-01T11:22:10.000Z</Time>
            <Position>
              <LatitudeDegrees>40.69312459789216518402099609375</LatitudeDegrees>
              <LongitudeDegrees>-4.0117624215781688690185546875</LongitudeDegrees>
            </Position>
            <AltitudeMeters>1054.5999755859375</AltitudeMeters>
            <DistanceMeters>NAN</DistanceMeters>
          </Trackpoint>
          <Trackpoint>
            <Time>2019-08-01T11:22:11.000Z</Time>
            <Position>
              <LatitudeDegrees>40.6931701116263866424560546875</LatitudeDegrees>
              <LongitudeDegrees>-4.01173635385930538177490234375</LongitudeDegrees>
            </Position>
            <AltitudeMeters>1055.199951171875</AltitudeMeters>
            <DistanceMeters>NAN</DistanceMeters>
          </Trackpoint>
          <Trackpoint>
            <Time>2019-08-01T11:22:12.000Z</Time>
            <Position>
              <LatitudeDegrees>40.693216212093830108642578125</LatitudeDegrees>
              <LongitudeDegrees>-4.01171187870204448699951171875</LongitudeDegrees>
            </Position>
            <AltitudeMeters>1055.4000244140625</AltitudeMeters>
            <DistanceMeters>NAN</DistanceMeters>
          </Trackpoint>
          <Trackpoint>
            <Time>2019-08-01T11:22:13.000Z</Time>
            <Position>
              <LatitudeDegrees>40.6932572834193706512451171875</LatitudeDegrees>
              <LongitudeDegrees>-4.0116886608302593231201171875</LongitudeDegrees>
            </Position>
            <AltitudeMeters>1055.5999755859375</AltitudeMeters>
            <DistanceMeters>NAN</DistanceMeters>
          </Trackpoint>
          <Trackpoint>
            <Time>2019-08-01T11:22:14.000Z</Time>
            <Position>
              <LatitudeDegrees>40.6933012045919895172119140625</LatitudeDegrees>
              <LongitudeDegrees>-4.011665694415569305419921875</LongitudeDegrees>
            </Position>
            <AltitudeMeters>1055.800048828125</AltitudeMeters>
            <DistanceMeters>NAN</DistanceMeters>
          </Trackpoint>
          <Trackpoint>
            <Time>2019-08-01T11:22:15.000Z</Time>
            <Position>
              <LatitudeDegrees>40.6933414377272129058837890625</LatitudeDegrees>
              <LongitudeDegrees>-4.0116420574486255645751953125</LongitudeDegrees>
            </Position>
            <AltitudeMeters>1056</AltitudeMeters>
            <DistanceMeters>NAN</DistanceMeters>
          </Trackpoint>
          <Trackpoint>
            <Time>2019-08-01T11:22:16.000Z</Time>
            <Position>
              <LatitudeDegrees>40.693382509052753448486328125</LatitudeDegrees>
              <LongitudeDegrees>-4.01161850430071353912353515625</LongitudeDegrees>
            </Position>
            <AltitudeMeters>1056.199951171875</AltitudeMeters>
            <DistanceMeters>NAN</DistanceMeters>
          </Trackpoint>
          <Trackpoint>
            <Time>2019-08-01T11:22:17.000Z</Time>
            <Position>
              <LatitudeDegrees>40.69342081435024738311767578125</LatitudeDegrees>
              <LongitudeDegrees>-4.01159520260989665985107421875</LongitudeDegrees>
            </Position>
            <AltitudeMeters>1056.4000244140625</AltitudeMeters>
            <DistanceMeters>NAN</DistanceMeters>
          </Trackpoint>
          <Trackpoint>
            <Time>2019-08-01T11:22:18.000Z</Time>
            <Position>
              <LatitudeDegrees>40.6934675015509128570556640625</LatitudeDegrees>
              <LongitudeDegrees>-4.01157558895647525787353515625</LongitudeDegrees>
            </Position>
            <AltitudeMeters>1056.5999755859375</AltitudeMeters>
            <DistanceMeters>NAN</DistanceMeters>
          </Trackpoint>
          <Trackpoint>
            <Time>2019-08-01T11:22:19.000Z</Time>
            <Position>
              <LatitudeDegrees>40.69351620040833950042724609375</LatitudeDegrees>
              <LongitudeDegrees>-4.011557064950466156005859375</LongitudeDegrees>
            </Position>
            <AltitudeMeters>1057</AltitudeMeters>
            <DistanceMeters>NAN</DistanceMeters>
          </Trackpoint>
          <Trackpoint>
            <Time>2019-08-01T11:22:20.000Z</Time>
            <Position>
              <LatitudeDegrees>40.69355928339064121246337890625</LatitudeDegrees>
              <LongitudeDegrees>-4.01153527200222015380859375</LongitudeDegrees>
            </Position>
            <AltitudeMeters>1057</AltitudeMeters>
            <DistanceMeters>NAN</DistanceMeters>
          </Trackpoint>
          <Trackpoint>
            <Time>2019-08-01T11:22:21.000Z</Time>
            <Position>
              <LatitudeDegrees>40.6935999356210231781005859375</LatitudeDegrees>
              <LongitudeDegrees>-4.011514149606227874755859375</LongitudeDegrees>
            </Position>
            <AltitudeMeters>1057.4000244140625</AltitudeMeters>
            <DistanceMeters>NAN</DistanceMeters>
          </Trackpoint>
          <Trackpoint>
            <Time>2019-08-01T11:22:22.000Z</Time>
            <Position>
              <LatitudeDegrees>40.69364167749881744384765625</LatitudeDegrees>
              <LongitudeDegrees>-4.01149244047701358795166015625</LongitudeDegrees>
            </Position>
            <AltitudeMeters>1057.800048828125</AltitudeMeters>
            <DistanceMeters>NAN</DistanceMeters>
          </Trackpoint>
          <Trackpoint>
            <Time>2019-08-01T11:22:23.000Z</Time>
            <Position>
              <LatitudeDegrees>40.6936852633953094482421875</LatitudeDegrees>
              <LongitudeDegrees>-4.01147224009037017822265625</LongitudeDegrees>
            </Position>
            <AltitudeMeters>1058</AltitudeMeters>
            <DistanceMeters>NAN</DistanceMeters>
          </Trackpoint>
          <Trackpoint>
            <Time>2019-08-01T11:22:24.000Z</Time>
            <Position>
              <LatitudeDegrees>40.69372893311083316802978515625</LatitudeDegrees>
              <LongitudeDegrees>-4.0114506147801876068115234375</LongitudeDegrees>
            </Position>
            <AltitudeMeters>1058.5999755859375</AltitudeMeters>
            <DistanceMeters>NAN</DistanceMeters>
          </Trackpoint>
          <Trackpoint>
            <Time>2019-08-01T11:22:25.000Z</Time>
            <Position>
              <LatitudeDegrees>40.6937715969979763031005859375</LatitudeDegrees>
              <LongitudeDegrees>-4.01142907328903675079345703125</LongitudeDegrees>
            </Position>
            <AltitudeMeters>1058.800048828125</AltitudeMeters>
            <DistanceMeters>NAN</DistanceMeters>
          </Trackpoint>
          <Trackpoint>
            <Time>2019-08-01T11:22:26.000Z</Time>
            <Position>
              <LatitudeDegrees>40.6938108243048191070556640625</LatitudeDegrees>
              <LongitudeDegrees>-4.011407531797885894775390625</LongitudeDegrees>
            </Position>
            <AltitudeMeters>1059</AltitudeMeters>
            <DistanceMeters>NAN</DistanceMeters>
          </Trackpoint>
          <Trackpoint>
            <Time>2019-08-01T11:22:27.000Z</Time>
            <Position>
              <LatitudeDegrees>40.69385281763970851898193359375</LatitudeDegrees>
              <LongitudeDegrees>-4.011385403573513031005859375</LongitudeDegrees>
            </Position>
            <AltitudeMeters>1059.4000244140625</AltitudeMeters>
            <DistanceMeters>NAN</DistanceMeters>
          </Trackpoint>
          <Trackpoint>
            <Time>2019-08-01T11:22:28.000Z</Time>
            <Position>
              <LatitudeDegrees>40.69389455951750278472900390625</LatitudeDegrees>
              <LongitudeDegrees>-4.01136235333979129791259765625</LongitudeDegrees>
            </Position>
            <AltitudeMeters>1059.800048828125</AltitudeMeters>
            <DistanceMeters>NAN</DistanceMeters>
          </Trackpoint>
          <Trackpoint>
            <Time>2019-08-01T11:22:29.000Z</Time>
            <Position>
              <LatitudeDegrees>40.693937726318836212158203125</LatitudeDegrees>
              <LongitudeDegrees>-4.01133972220122814178466796875</LongitudeDegrees>
            </Position>
            <AltitudeMeters>1060</AltitudeMeters>
            <DistanceMeters>NAN</DistanceMeters>
          </Trackpoint>
          <Trackpoint>
            <Time>2019-08-01T11:22:30.000Z</Time>
            <Position>
              <LatitudeDegrees>40.69397829473018646240234375</LatitudeDegrees>
              <LongitudeDegrees>-4.01131558232009410858154296875</LongitudeDegrees>
            </Position>
            <AltitudeMeters>1060.199951171875</AltitudeMeters>
            <DistanceMeters>NAN</DistanceMeters>
          </Trackpoint>
          <Trackpoint>
            <Time>2019-08-01T11:22:31.000Z</Time>
            <Position>
              <LatitudeDegrees>40.69401743821799755096435546875</LatitudeDegrees>
              <LongitudeDegrees>-4.0112900175154209136962890625</LongitudeDegrees>
            </Position>
            <AltitudeMeters>1060.4000244140625</AltitudeMeters>
            <DistanceMeters>NAN</DistanceMeters>
          </Trackpoint>
          <Trackpoint>
            <Time>2019-08-01T11:22:32.000Z</Time>
            <Position>
              <LatitudeDegrees>40.6940535642206668853759765625</LatitudeDegrees>
              <LongitudeDegrees>-4.011263363063335418701171875</LongitudeDegrees>
            </Position>
            <AltitudeMeters>1060.5999755859375</AltitudeMeters>
            <DistanceMeters>NAN</DistanceMeters>
          </Trackpoint>
          <Trackpoint>
            <Time>2019-08-01T11:22:33.000Z</Time>
            <Position>
              <LatitudeDegrees>40.69409186951816082000732421875</LatitudeDegrees>
              <LongitudeDegrees>-4.0112363733351230621337890625</LongitudeDegrees>
            </Position>
            <AltitudeMeters>1060.5999755859375</AltitudeMeters>
            <DistanceMeters>NAN</DistanceMeters>
          </Trackpoint>
          <Trackpoint>
            <Time>2019-08-01T11:22:34.000Z</Time>
            <Position>
              <LatitudeDegrees>40.69409186951816082000732421875</LatitudeDegrees>
              <LongitudeDegrees>-4.0112363733351230621337890625</LongitudeDegrees>
            </Position>
            <AltitudeMeters>1060.800048828125</AltitudeMeters>
            <DistanceMeters>NAN</DistanceMeters>
          </Trackpoint>
          <Trackpoint>
            <Time>2019-08-01T11:22:35.000Z</Time>
            <Position>
              <LatitudeDegrees>40.694166384637355804443359375</LatitudeDegrees>
              <LongitudeDegrees>-4.01117912493646144866943359375</LongitudeDegrees>
            </Position>
            <AltitudeMeters>1061.199951171875</AltitudeMeters>
            <DistanceMeters>NAN</DistanceMeters>
          </Trackpoint>
          <Trackpoint>
            <Time>2019-08-01T11:22:36.000Z</Time>
            <Position>
              <LatitudeDegrees>40.6942047737538814544677734375</LatitudeDegrees>
              <LongitudeDegrees>-4.01114878244698047637939453125</LongitudeDegrees>
            </Position>
            <AltitudeMeters>1061.4000244140625</AltitudeMeters>
            <DistanceMeters>NAN</DistanceMeters>
          </Trackpoint>
          <Trackpoint>
            <Time>2019-08-01T11:22:37.000Z</Time>
            <Position>
              <LatitudeDegrees>40.6942393071949481964111328125</LatitudeDegrees>
              <LongitudeDegrees>-4.01111693121492862701416015625</LongitudeDegrees>
            </Position>
            <AltitudeMeters>1061.5999755859375</AltitudeMeters>
            <DistanceMeters>NAN</DistanceMeters>
          </Trackpoint>
          <Trackpoint>
            <Time>2019-08-01T11:22:38.000Z</Time>
            <Position>
              <LatitudeDegrees>40.69427425973117351531982421875</LatitudeDegrees>
              <LongitudeDegrees>-4.01108541525900363922119140625</LongitudeDegrees>
            </Position>
            <AltitudeMeters>1061.800048828125</AltitudeMeters>
            <DistanceMeters>NAN</DistanceMeters>
          </Trackpoint>
          <Trackpoint>
            <Time>2019-08-01T11:22:39.000Z</Time>
            <Position>
              <LatitudeDegrees>40.69431222975254058837890625</LatitudeDegrees>
              <LongitudeDegrees>-4.01105247437953948974609375</LongitudeDegrees>
            </Position>
            <AltitudeMeters>1062</AltitudeMeters>
            <DistanceMeters>NAN</DistanceMeters>
          </Trackpoint>
          <Trackpoint>
            <Time>2019-08-01T11:22:40.000Z</Time>
            <Position>
              <LatitudeDegrees>40.6943502835929393768310546875</LatitudeDegrees>
              <LongitudeDegrees>-4.0110184438526630401611328125</LongitudeDegrees>
            </Position>
            <AltitudeMeters>1062.199951171875</AltitudeMeters>
            <DistanceMeters>NAN</DistanceMeters>
          </Trackpoint>
          <Trackpoint>
            <Time>2019-08-01T11:22:41.000Z</Time>
            <Position>
              <LatitudeDegrees>40.69439479149878025054931640625</LatitudeDegrees>
              <LongitudeDegrees>-4.01098416186869144439697265625</LongitudeDegrees>
            </Position>
            <AltitudeMeters>1062.199951171875</AltitudeMeters>
            <DistanceMeters>NAN</DistanceMeters>
          </Trackpoint>
          <Trackpoint>
            <Time>2019-08-01T11:22:42.000Z</Time>
            <Position>
              <LatitudeDegrees>40.6944429874420166015625</LatitudeDegrees>
              <LongitudeDegrees>-4.0109497122466564178466796875</LongitudeDegrees>
            </Position>
            <AltitudeMeters>1062.5999755859375</AltitudeMeters>
            <DistanceMeters>NAN</DistanceMeters>
          </Trackpoint>
          <Trackpoint>
            <Time>2019-08-01T11:22:43.000Z</Time>
            <Position>
              <LatitudeDegrees>40.69448280148208141326904296875</LatitudeDegrees>
              <LongitudeDegrees>-4.01091459207236766815185546875</LongitudeDegrees>
            </Position>
            <AltitudeMeters>1062.800048828125</AltitudeMeters>
            <DistanceMeters>NAN</DistanceMeters>
          </Trackpoint>
          <Trackpoint>
            <Time>2019-08-01T11:22:44.000Z</Time>
            <Position>
              <LatitudeDegrees>40.69452412426471710205078125</LatitudeDegrees>
              <LongitudeDegrees>-4.0108806453645229339599609375</LongitudeDegrees>
            </Position>
            <AltitudeMeters>1063</AltitudeMeters>
            <DistanceMeters>NAN</DistanceMeters>
          </Trackpoint>
          <Trackpoint>
            <Time>2019-08-01T11:22:45.000Z</Time>
            <Position>
              <LatitudeDegrees>40.69456393830478191375732421875</LatitudeDegrees>
              <LongitudeDegrees>-4.0108452737331390380859375</LongitudeDegrees>
            </Position>
            <AltitudeMeters>1063.199951171875</AltitudeMeters>
            <DistanceMeters>NAN</DistanceMeters>
          </Trackpoint>
          <Trackpoint>
            <Time>2019-08-01T11:22:46.000Z</Time>
            <Position>
              <LatitudeDegrees>40.69460417144000530242919921875</LatitudeDegrees>
              <LongitudeDegrees>-4.01081032119691371917724609375</LongitudeDegrees>
            </Position>
            <AltitudeMeters>1063.4000244140625</AltitudeMeters>
            <DistanceMeters>NAN</DistanceMeters>
          </Trackpoint>
          <Trackpoint>
            <Time>2019-08-01T11:22:47.000Z</Time>
            <Position>
              <LatitudeDegrees>40.694647170603275299072265625</LatitudeDegrees>
              <LongitudeDegrees>-4.0107755362987518310546875</LongitudeDegrees>
            </Position>
            <AltitudeMeters>1063.5999755859375</AltitudeMeters>
            <DistanceMeters>NAN</DistanceMeters>
          </Trackpoint>
          <Trackpoint>
            <Time>2019-08-01T11:22:48.000Z</Time>
            <Position>
              <LatitudeDegrees>40.69469016976654529571533203125</LatitudeDegrees>
              <LongitudeDegrees>-4.01074024848639965057373046875</LongitudeDegrees>
            </Position>
            <AltitudeMeters>1063.5999755859375</AltitudeMeters>
            <DistanceMeters>NAN</DistanceMeters>
          </Trackpoint>
          <Trackpoint>
            <Time>2019-08-01T11:22:50.000Z</Time>
            <Position>
              <LatitudeDegrees>40.69477893412113189697265625</LatitudeDegrees>
              <LongitudeDegrees>-4.01067067869007587432861328125</LongitudeDegrees>
            </Position>
            <AltitudeMeters>1064</AltitudeMeters>
            <DistanceMeters>NAN</DistanceMeters>
          </Trackpoint>
          <Trackpoint>
            <Time>2019-08-01T11:22:51.000Z</Time>
            <Position>
              <LatitudeDegrees>40.69482260383665561676025390625</LatitudeDegrees>
              <LongitudeDegrees>-4.01063497178256511688232421875</LongitudeDegrees>
            </Position>
            <AltitudeMeters>1064.199951171875</AltitudeMeters>
            <DistanceMeters>NAN</DistanceMeters>
          </Trackpoint>
          <Trackpoint>
            <Time>2019-08-01T11:22:52.000Z</Time>
            <Position>
              <LatitudeDegrees>40.69486367516219615936279296875</LatitudeDegrees>
              <LongitudeDegrees>-4.01059960015118122100830078125</LongitudeDegrees>
            </Position>
            <AltitudeMeters>1064.4000244140625</AltitudeMeters>
            <DistanceMeters>NAN</DistanceMeters>
          </Trackpoint>
          <Trackpoint>
            <Time>2019-08-01T11:22:53.000Z</Time>
            <Position>
              <LatitudeDegrees>40.69490499794483184814453125</LatitudeDegrees>
              <LongitudeDegrees>-4.010564647614955902099609375</LongitudeDegrees>
            </Position>
            <AltitudeMeters>1064.5999755859375</AltitudeMeters>
            <DistanceMeters>NAN</DistanceMeters>
          </Trackpoint>
          <Trackpoint>
            <Time>2019-08-01T11:22:54.000Z</Time>
            <Position>
              <LatitudeDegrees>40.69494749419391155242919921875</LatitudeDegrees>
              <LongitudeDegrees>-4.01053003035485744476318359375</LongitudeDegrees>
            </Position>
            <AltitudeMeters>1064.800048828125</AltitudeMeters>
            <DistanceMeters>NAN</DistanceMeters>
          </Trackpoint>
          <Trackpoint>
            <Time>2019-08-01T11:22:55.000Z</Time>
            <Position>
              <LatitudeDegrees>40.6949913315474987030029296875</LatitudeDegrees>
              <LongitudeDegrees>-4.0104940719902515411376953125</LongitudeDegrees>
            </Position>
            <AltitudeMeters>1064.800048828125</AltitudeMeters>
            <DistanceMeters>NAN</DistanceMeters>
          </Trackpoint>
          <Trackpoint>
            <Time>2019-08-01T11:22:56.000Z</Time>
            <Position>
              <LatitudeDegrees>40.6950339116156101226806640625</LatitudeDegrees>
              <LongitudeDegrees>-4.01045844890177249908447265625</LongitudeDegrees>
            </Position>
            <AltitudeMeters>1065</AltitudeMeters>
            <DistanceMeters>NAN</DistanceMeters>
          </Trackpoint>
          <Trackpoint>
            <Time>2019-08-01T11:22:57.000Z</Time>
            <Position>
              <LatitudeDegrees>40.6950773298740386962890625</LatitudeDegrees>
              <LongitudeDegrees>-4.0104229934513568878173828125</LongitudeDegrees>
            </Position>
            <AltitudeMeters>1065</AltitudeMeters>
            <DistanceMeters>NAN</DistanceMeters>
          </Trackpoint>
          <Trackpoint>
            <Time>2019-08-01T11:22:58.000Z</Time>
            <Position>
              <LatitudeDegrees>40.6951237656176090240478515625</LatitudeDegrees>
              <LongitudeDegrees>-4.01038653217256069183349609375</LongitudeDegrees>
            </Position>
            <AltitudeMeters>1065.199951171875</AltitudeMeters>
            <DistanceMeters>NAN</DistanceMeters>
          </Trackpoint>
          <Trackpoint>
            <Time>2019-08-01T11:22:59.000Z</Time>
            <Position>
              <LatitudeDegrees>40.69516609422862529754638671875</LatitudeDegrees>
              <LongitudeDegrees>-4.01035183109343051910400390625</LongitudeDegrees>
            </Position>
            <AltitudeMeters>1065.199951171875</AltitudeMeters>
            <DistanceMeters>NAN</DistanceMeters>
          </Trackpoint>
          <Trackpoint>
            <Time>2019-08-01T11:23:00.000Z</Time>
            <Position>
              <LatitudeDegrees>40.6952082552015781402587890625</LatitudeDegrees>
              <LongitudeDegrees>-4.010316543281078338623046875</LongitudeDegrees>
            </Position>
            <AltitudeMeters>1065.4000244140625</AltitudeMeters>
            <DistanceMeters>NAN</DistanceMeters>
          </Trackpoint>
          <Trackpoint>
            <Time>2019-08-01T11:23:01.000Z</Time>
            <Position>
              <LatitudeDegrees>40.69524941034615039825439453125</LatitudeDegrees>
              <LongitudeDegrees>-4.01028192602097988128662109375</LongitudeDegrees>
            </Position>
            <AltitudeMeters>1065.4000244140625</AltitudeMeters>
            <DistanceMeters>NAN</DistanceMeters>
          </Trackpoint>
          <Trackpoint>
            <Time>2019-08-01T11:23:02.000Z</Time>
            <Position>
              <LatitudeDegrees>40.69528796710073947906494140625</LatitudeDegrees>
              <LongitudeDegrees>-4.010247476398944854736328125</LongitudeDegrees>
            </Position>
            <AltitudeMeters>1065.800048828125</AltitudeMeters>
            <DistanceMeters>NAN</DistanceMeters>
          </Trackpoint>
          <Trackpoint>
            <Time>2019-08-01T11:23:04.000Z</Time>
            <Position>
              <LatitudeDegrees>40.6953675113618373870849609375</LatitudeDegrees>
              <LongitudeDegrees>-4.01017715223133563995361328125</LongitudeDegrees>
            </Position>
            <AltitudeMeters>1065.800048828125</AltitudeMeters>
            <DistanceMeters>NAN</DistanceMeters>
          </Trackpoint>
          <Trackpoint>
            <Time>2019-08-01T11:23:05.000Z</Time>
            <Position>
              <LatitudeDegrees>40.69540682248771190643310546875</LatitudeDegrees>
              <LongitudeDegrees>-4.0101410262286663055419921875</LongitudeDegrees>
            </Position>
            <AltitudeMeters>1066</AltitudeMeters>
            <DistanceMeters>NAN</DistanceMeters>
          </Trackpoint>
          <Trackpoint>
            <Time>2019-08-01T11:23:06.000Z</Time>
            <Position>
              <LatitudeDegrees>40.69544923491775989532470703125</LatitudeDegrees>
              <LongitudeDegrees>-4.0101054869592189788818359375</LongitudeDegrees>
            </Position>
            <AltitudeMeters>1066.4000244140625</AltitudeMeters>
            <DistanceMeters>NAN</DistanceMeters>
          </Trackpoint>
          <Trackpoint>
            <Time>2019-08-01T11:23:07.000Z</Time>
            <Position>
              <LatitudeDegrees>40.6954875402152538299560546875</LatitudeDegrees>
              <LongitudeDegrees>-4.0100692771375179290771484375</LongitudeDegrees>
            </Position>
            <AltitudeMeters>1066.5999755859375</AltitudeMeters>
            <DistanceMeters>NAN</DistanceMeters>
          </Trackpoint>
          <Trackpoint>
            <Time>2019-08-01T11:23:08.000Z</Time>
            <Position>
              <LatitudeDegrees>40.69553204812109470367431640625</LatitudeDegrees>
              <LongitudeDegrees>-4.010033570230007171630859375</LongitudeDegrees>
            </Position>
            <AltitudeMeters>1066.800048828125</AltitudeMeters>
            <DistanceMeters>NAN</DistanceMeters>
          </Trackpoint>
          <Trackpoint>
            <Time>2019-08-01T11:23:09.000Z</Time>
            <Position>
              <LatitudeDegrees>40.69557580165565013885498046875</LatitudeDegrees>
              <LongitudeDegrees>-4.00999811477959156036376953125</LongitudeDegrees>
            </Position>
            <AltitudeMeters>1067.199951171875</AltitudeMeters>
            <DistanceMeters>NAN</DistanceMeters>
          </Trackpoint>
          <Trackpoint>
            <Time>2019-08-01T11:23:10.000Z</Time>
            <Position>
              <LatitudeDegrees>40.69562139920890331268310546875</LatitudeDegrees>
              <LongitudeDegrees>-4.00996207259595394134521484375</LongitudeDegrees>
            </Position>
            <AltitudeMeters>1067.800048828125</AltitudeMeters>
            <DistanceMeters>NAN</DistanceMeters>
          </Trackpoint>
          <Trackpoint>
            <Time>2019-08-01T11:23:11.000Z</Time>
            <Position>
              <LatitudeDegrees>40.69566397927701473236083984375</LatitudeDegrees>
              <LongitudeDegrees>-4.0099241025745868682861328125</LongitudeDegrees>
            </Position>
            <AltitudeMeters>1068</AltitudeMeters>
            <DistanceMeters>NAN</DistanceMeters>
          </Trackpoint>
          <Trackpoint>
            <Time>2019-08-01T11:23:12.000Z</Time>
            <Position>
              <LatitudeDegrees>40.69570722989737987518310546875</LatitudeDegrees>
              <LongitudeDegrees>-4.009884707629680633544921875</LongitudeDegrees>
            </Position>
            <AltitudeMeters>1068.199951171875</AltitudeMeters>
            <DistanceMeters>NAN</DistanceMeters>
          </Trackpoint>
          <Trackpoint>
            <Time>2019-08-01T11:23:13.000Z</Time>
            <Position>
              <LatitudeDegrees>40.6957460381090641021728515625</LatitudeDegrees>
              <LongitudeDegrees>-4.00984388776123523712158203125</LongitudeDegrees>
            </Position>
            <AltitudeMeters>1068.4000244140625</AltitudeMeters>
            <DistanceMeters>NAN</DistanceMeters>
          </Trackpoint>
          <Trackpoint>
            <Time>2019-08-01T11:23:14.000Z</Time>
            <Position>
              <LatitudeDegrees>40.69578585214912891387939453125</LatitudeDegrees>
              <LongitudeDegrees>-4.009802900254726409912109375</LongitudeDegrees>
            </Position>
            <AltitudeMeters>1068.4000244140625</AltitudeMeters>
            <DistanceMeters>NAN</DistanceMeters>
          </Trackpoint>
          <Trackpoint>
            <Time>2019-08-01T11:23:15.000Z</Time>
            <Position>
              <LatitudeDegrees>40.695825330913066864013671875</LatitudeDegrees>
              <LongitudeDegrees>-4.00976140983402729034423828125</LongitudeDegrees>
            </Position>
            <AltitudeMeters>1068.5999755859375</AltitudeMeters>
            <DistanceMeters>NAN</DistanceMeters>
          </Trackpoint>
          <Trackpoint>
            <Time>2019-08-01T11:23:16.000Z</Time>
            <Position>
              <LatitudeDegrees>40.69586564786732196807861328125</LatitudeDegrees>
              <LongitudeDegrees>-4.0097195841372013092041015625</LongitudeDegrees>
            </Position>
            <AltitudeMeters>1068.800048828125</AltitudeMeters>
            <DistanceMeters>NAN</DistanceMeters>
          </Trackpoint>
          <Trackpoint>
            <Time>2019-08-01T11:23:17.000Z</Time>
            <Position>
              <LatitudeDegrees>40.69590202532708644866943359375</LatitudeDegrees>
              <LongitudeDegrees>-4.00967658497393131256103515625</LongitudeDegrees>
            </Position>
            <AltitudeMeters>1069</AltitudeMeters>
            <DistanceMeters>NAN</DistanceMeters>
          </Trackpoint>
          <Trackpoint>
            <Time>2019-08-01T11:23:18.000Z</Time>
            <Position>
              <LatitudeDegrees>40.69593773223459720611572265625</LatitudeDegrees>
              <LongitudeDegrees>-4.00963266380131244659423828125</LongitudeDegrees>
            </Position>
            <AltitudeMeters>1069.4000244140625</AltitudeMeters>
            <DistanceMeters>NAN</DistanceMeters>
          </Trackpoint>
          <Trackpoint>
            <Time>2019-08-01T11:23:19.000Z</Time>
            <Position>
              <LatitudeDegrees>40.69597276858985424041748046875</LatitudeDegrees>
              <LongitudeDegrees>-4.00958798825740814208984375</LongitudeDegrees>
            </Position>
            <AltitudeMeters>1069.800048828125</AltitudeMeters>
            <DistanceMeters>NAN</DistanceMeters>
          </Trackpoint>
          <Trackpoint>
            <Time>2019-08-01T11:23:20.000Z</Time>
            <Position>
              <LatitudeDegrees>40.6960085593163967132568359375</LatitudeDegrees>
              <LongitudeDegrees>-4.00954247452318668365478515625</LongitudeDegrees>
            </Position>
            <AltitudeMeters>1069.800048828125</AltitudeMeters>
            <DistanceMeters>NAN</DistanceMeters>
          </Trackpoint>
          <Trackpoint>
            <Time>2019-08-01T11:23:21.000Z</Time>
            <Position>
              <LatitudeDegrees>40.696047283709049224853515625</LatitudeDegrees>
              <LongitudeDegrees>-4.009495787322521209716796875</LongitudeDegrees>
            </Position>
            <AltitudeMeters>1070</AltitudeMeters>
            <DistanceMeters>NAN</DistanceMeters>
          </Trackpoint>
          <Trackpoint>
            <Time>2019-08-01T11:23:22.000Z</Time>
            <Position>
              <LatitudeDegrees>40.696047283709049224853515625</LatitudeDegrees>
              <LongitudeDegrees>-4.009495787322521209716796875</LongitudeDegrees>
            </Position>
            <AltitudeMeters>1070</AltitudeMeters>
            <DistanceMeters>NAN</DistanceMeters>
          </Trackpoint>
          <Trackpoint>
            <Time>2019-08-01T11:23:23.000Z</Time>
            <Position>
              <LatitudeDegrees>40.6961259059607982635498046875</LatitudeDegrees>
              <LongitudeDegrees>-4.0093980543315410614013671875</LongitudeDegrees>
            </Position>
            <AltitudeMeters>1070</AltitudeMeters>
            <DistanceMeters>NAN</DistanceMeters>
          </Trackpoint>
          <Trackpoint>
            <Time>2019-08-01T11:23:24.000Z</Time>
            <Position>
              <LatitudeDegrees>40.6961668096482753753662109375</LatitudeDegrees>
              <LongitudeDegrees>-4.00935036130249500274658203125</LongitudeDegrees>
            </Position>
            <AltitudeMeters>1070.199951171875</AltitudeMeters>
            <DistanceMeters>NAN</DistanceMeters>
          </Trackpoint>
          <Trackpoint>
            <Time>2019-08-01T11:23:25.000Z</Time>
            <Position>
              <LatitudeDegrees>40.696207545697689056396484375</LatitudeDegrees>
              <LongitudeDegrees>-4.009301662445068359375</LongitudeDegrees>
            </Position>
            <AltitudeMeters>1070.5999755859375</AltitudeMeters>
            <DistanceMeters>NAN</DistanceMeters>
          </Trackpoint>
          <Trackpoint>
            <Time>2019-08-01T11:23:26.000Z</Time>
            <Position>
              <LatitudeDegrees>40.69625171832740306854248046875</LatitudeDegrees>
              <LongitudeDegrees>-4.00925179012119770050048828125</LongitudeDegrees>
            </Position>
            <AltitudeMeters>1070.800048828125</AltitudeMeters>
            <DistanceMeters>NAN</DistanceMeters>
          </Trackpoint>
          <Trackpoint>
            <Time>2019-08-01T11:23:27.000Z</Time>
            <Position>
              <LatitudeDegrees>40.6962942145764827728271484375</LatitudeDegrees>
              <LongitudeDegrees>-4.00919915176928043365478515625</LongitudeDegrees>
            </Position>
            <AltitudeMeters>1071</AltitudeMeters>
            <DistanceMeters>NAN</DistanceMeters>
          </Trackpoint>
          <Trackpoint>
            <Time>2019-08-01T11:23:28.000Z</Time>
            <Position>
              <LatitudeDegrees>40.69633654318749904632568359375</LatitudeDegrees>
              <LongitudeDegrees>-4.00914701633155345916748046875</LongitudeDegrees>
            </Position>
            <AltitudeMeters>1071.199951171875</AltitudeMeters>
            <DistanceMeters>NAN</DistanceMeters>
          </Trackpoint>
          <Trackpoint>
            <Time>2019-08-01T11:23:29.000Z</Time>
            <Position>
              <LatitudeDegrees>40.69638130255043506622314453125</LatitudeDegrees>
              <LongitudeDegrees>-4.009095132350921630859375</LongitudeDegrees>
            </Position>
            <AltitudeMeters>1071.4000244140625</AltitudeMeters>
            <DistanceMeters>NAN</DistanceMeters>
          </Trackpoint>
          <Trackpoint>
            <Time>2019-08-01T11:23:30.000Z</Time>
            <Position>
              <LatitudeDegrees>40.69642203859984874725341796875</LatitudeDegrees>
              <LongitudeDegrees>-4.00904241017997264862060546875</LongitudeDegrees>
            </Position>
            <AltitudeMeters>1071.5999755859375</AltitudeMeters>
            <DistanceMeters>NAN</DistanceMeters>
          </Trackpoint>
          <Trackpoint>
            <Time>2019-08-01T11:23:31.000Z</Time>
            <Position>
              <LatitudeDegrees>40.69646009244024753570556640625</LatitudeDegrees>
              <LongitudeDegrees>-4.00898851454257965087890625</LongitudeDegrees>
            </Position>
            <AltitudeMeters>1071.5999755859375</AltitudeMeters>
            <DistanceMeters>NAN</DistanceMeters>
          </Trackpoint>
          <Trackpoint>
            <Time>2019-08-01T11:23:32.000Z</Time>
            <Position>
              <LatitudeDegrees>40.6965020857751369476318359375</LatitudeDegrees>
              <LongitudeDegrees>-4.00893277488648891448974609375</LongitudeDegrees>
            </Position>
            <AltitudeMeters>1071.800048828125</AltitudeMeters>
            <DistanceMeters>NAN</DistanceMeters>
          </Trackpoint>
          <Trackpoint>
            <Time>2019-08-01T11:23:33.000Z</Time>
            <Position>
              <LatitudeDegrees>40.69654290564358234405517578125</LatitudeDegrees>
              <LongitudeDegrees>-4.00887720286846160888671875</LongitudeDegrees>
            </Position>
            <AltitudeMeters>1072</AltitudeMeters>
            <DistanceMeters>NAN</DistanceMeters>
          </Trackpoint>
          <Trackpoint>
            <Time>2019-08-01T11:23:34.000Z</Time>
            <Position>
              <LatitudeDegrees>40.69658766500651836395263671875</LatitudeDegrees>
              <LongitudeDegrees>-4.0088203735649585723876953125</LongitudeDegrees>
            </Position>
            <AltitudeMeters>1072.199951171875</AltitudeMeters>
            <DistanceMeters>NAN</DistanceMeters>
          </Trackpoint>
          <Trackpoint>
            <Time>2019-08-01T11:23:35.000Z</Time>
            <Position>
              <LatitudeDegrees>40.69663208909332752227783203125</LatitudeDegrees>
              <LongitudeDegrees>-4.00876346044242382049560546875</LongitudeDegrees>
            </Position>
            <AltitudeMeters>1072.199951171875</AltitudeMeters>
            <DistanceMeters>NAN</DistanceMeters>
          </Trackpoint>
          <Trackpoint>
            <Time>2019-08-01T11:23:36.000Z</Time>
            <Position>
              <LatitudeDegrees>40.69668020121753215789794921875</LatitudeDegrees>
              <LongitudeDegrees>-4.0087075531482696533203125</LongitudeDegrees>
            </Position>
            <AltitudeMeters>1072.4000244140625</AltitudeMeters>
            <DistanceMeters>NAN</DistanceMeters>
          </Trackpoint>
          <Trackpoint>
            <Time>2019-08-01T11:23:37.000Z</Time>
            <Position>
              <LatitudeDegrees>40.6967277266085147857666015625</LatitudeDegrees>
              <LongitudeDegrees>-4.00864921510219573974609375</LongitudeDegrees>
            </Position>
            <AltitudeMeters>1072.4000244140625</AltitudeMeters>
            <DistanceMeters>NAN</DistanceMeters>
          </Trackpoint>
          <Trackpoint>
            <Time>2019-08-01T11:23:38.000Z</Time>
            <Position>
              <LatitudeDegrees>40.69677625782787799835205078125</LatitudeDegrees>
              <LongitudeDegrees>-4.0085903741419315338134765625</LongitudeDegrees>
            </Position>
            <AltitudeMeters>1072.800048828125</AltitudeMeters>
            <DistanceMeters>NAN</DistanceMeters>
          </Trackpoint>
          <Trackpoint>
            <Time>2019-08-01T11:23:39.000Z</Time>
            <Position>
              <LatitudeDegrees>40.696827135980129241943359375</LatitudeDegrees>
              <LongitudeDegrees>-4.0085305273532867431640625</LongitudeDegrees>
            </Position>
            <AltitudeMeters>1072.800048828125</AltitudeMeters>
            <DistanceMeters>NAN</DistanceMeters>
          </Trackpoint>
          <Trackpoint>
            <Time>2019-08-01T11:23:40.000Z</Time>
            <Position>
              <LatitudeDegrees>40.69687633775174617767333984375</LatitudeDegrees>
              <LongitudeDegrees>-4.00846858508884906768798828125</LongitudeDegrees>
            </Position>
            <AltitudeMeters>1073</AltitudeMeters>
            <DistanceMeters>NAN</DistanceMeters>
          </Trackpoint>
          <Trackpoint>
            <Time>2019-08-01T11:23:41.000Z</Time>
            <Position>
              <LatitudeDegrees>40.696927718818187713623046875</LatitudeDegrees>
              <LongitudeDegrees>-4.00840622372925281524658203125</LongitudeDegrees>
            </Position>
            <AltitudeMeters>1073</AltitudeMeters>
            <DistanceMeters>NAN</DistanceMeters>
          </Trackpoint>
          <Trackpoint>
            <Time>2019-08-01T11:23:42.000Z</Time>
            <Position>
              <LatitudeDegrees>40.69697700440883636474609375</LatitudeDegrees>
              <LongitudeDegrees>-4.00834486819803714752197265625</LongitudeDegrees>
            </Position>
            <AltitudeMeters>1073.199951171875</AltitudeMeters>
            <DistanceMeters>NAN</DistanceMeters>
          </Trackpoint>
          <Trackpoint>
            <Time>2019-08-01T11:23:43.000Z</Time>
            <Position>
              <LatitudeDegrees>40.697028301656246185302734375</LatitudeDegrees>
              <LongitudeDegrees>-4.00828485377132892608642578125</LongitudeDegrees>
            </Position>
            <AltitudeMeters>1073.199951171875</AltitudeMeters>
            <DistanceMeters>NAN</DistanceMeters>
          </Trackpoint>
          <Trackpoint>
            <Time>2019-08-01T11:23:44.000Z</Time>
            <Position>
              <LatitudeDegrees>40.6970770843327045440673828125</LatitudeDegrees>
              <LongitudeDegrees>-4.00822198949754238128662109375</LongitudeDegrees>
            </Position>
            <AltitudeMeters>1073.199951171875</AltitudeMeters>
            <DistanceMeters>NAN</DistanceMeters>
          </Trackpoint>
          <Trackpoint>
            <Time>2019-08-01T11:23:45.000Z</Time>
            <Position>
              <LatitudeDegrees>40.69712511263787746429443359375</LatitudeDegrees>
              <LongitudeDegrees>-4.008156694471836090087890625</LongitudeDegrees>
            </Position>
            <AltitudeMeters>1073.4000244140625</AltitudeMeters>
            <DistanceMeters>NAN</DistanceMeters>
          </Trackpoint>
          <Trackpoint>
            <Time>2019-08-01T11:23:46.000Z</Time>
            <Position>
              <LatitudeDegrees>40.6971746496856212615966796875</LatitudeDegrees>
              <LongitudeDegrees>-4.00809240527451038360595703125</LongitudeDegrees>
            </Position>
            <AltitudeMeters>1073.5999755859375</AltitudeMeters>
            <DistanceMeters>NAN</DistanceMeters>
          </Trackpoint>
          <Trackpoint>
            <Time>2019-08-01T11:23:47.000Z</Time>
            <Position>
              <LatitudeDegrees>40.6972232647240161895751953125</LatitudeDegrees>
              <LongitudeDegrees>-4.00802970863878726959228515625</LongitudeDegrees>
            </Position>
            <AltitudeMeters>1073.800048828125</AltitudeMeters>
            <DistanceMeters>NAN</DistanceMeters>
          </Trackpoint>
          <Trackpoint>
            <Time>2019-08-01T11:23:48.000Z</Time>
            <Position>
              <LatitudeDegrees>40.697271041572093963623046875</LatitudeDegrees>
              <LongitudeDegrees>-4.0079684369266033172607421875</LongitudeDegrees>
            </Position>
            <AltitudeMeters>1074</AltitudeMeters>
            <DistanceMeters>NAN</DistanceMeters>
          </Trackpoint>
          <Trackpoint>
            <Time>2019-08-01T11:23:49.000Z</Time>
            <Position>
              <LatitudeDegrees>40.69731806404888629913330078125</LatitudeDegrees>
              <LongitudeDegrees>-4.00790884159505367279052734375</LongitudeDegrees>
            </Position>
            <AltitudeMeters>1074</AltitudeMeters>
            <DistanceMeters>NAN</DistanceMeters>
          </Trackpoint>
          <Trackpoint>
            <Time>2019-08-01T11:23:50.000Z</Time>
            <Position>
              <LatitudeDegrees>40.69736324250698089599609375</LatitudeDegrees>
              <LongitudeDegrees>-4.00784865953028202056884765625</LongitudeDegrees>
            </Position>
            <AltitudeMeters>1074</AltitudeMeters>
            <DistanceMeters>NAN</DistanceMeters>
          </Trackpoint>
          <Trackpoint>
            <Time>2019-08-01T11:23:51.000Z</Time>
            <Position>
              <LatitudeDegrees>40.69740909151732921600341796875</LatitudeDegrees>
              <LongitudeDegrees>-4.007791243493556976318359375</LongitudeDegrees>
            </Position>
            <AltitudeMeters>1074</AltitudeMeters>
            <DistanceMeters>NAN</DistanceMeters>
          </Trackpoint>
          <Trackpoint>
            <Time>2019-08-01T11:23:52.000Z</Time>
            <Position>
              <LatitudeDegrees>40.69745401851832866668701171875</LatitudeDegrees>
              <LongitudeDegrees>-4.0077313967049121856689453125</LongitudeDegrees>
            </Position>
            <AltitudeMeters>1074</AltitudeMeters>
            <DistanceMeters>NAN</DistanceMeters>
          </Trackpoint>
          <Trackpoint>
            <Time>2019-08-01T11:23:54.000Z</Time>
            <Position>
              <LatitudeDegrees>40.69754823110997676849365234375</LatitudeDegrees>
              <LongitudeDegrees>-4.00761120021343231201171875</LongitudeDegrees>
            </Position>
            <AltitudeMeters>1074</AltitudeMeters>
            <DistanceMeters>NAN</DistanceMeters>
          </Trackpoint>
          <Trackpoint>
            <Time>2019-08-01T11:23:55.000Z</Time>
            <Position>
              <LatitudeDegrees>40.69759466685354709625244140625</LatitudeDegrees>
              <LongitudeDegrees>-4.00755009613931179046630859375</LongitudeDegrees>
            </Position>
            <AltitudeMeters>1074</AltitudeMeters>
            <DistanceMeters>NAN</DistanceMeters>
          </Trackpoint>
          <Trackpoint>
            <Time>2019-08-01T11:23:57.000Z</Time>
            <Position>
              <LatitudeDegrees>40.6976844370365142822265625</LatitudeDegrees>
              <LongitudeDegrees>-4.007427804172039031982421875</LongitudeDegrees>
            </Position>
            <AltitudeMeters>1073.800048828125</AltitudeMeters>
            <DistanceMeters>NAN</DistanceMeters>
          </Trackpoint>
          <Trackpoint>
            <Time>2019-08-01T11:23:58.000Z</Time>
            <Position>
              <LatitudeDegrees>40.69773196242749691009521484375</LatitudeDegrees>
              <LongitudeDegrees>-4.00736535899341106414794921875</LongitudeDegrees>
            </Position>
            <AltitudeMeters>1073.800048828125</AltitudeMeters>
            <DistanceMeters>NAN</DistanceMeters>
          </Trackpoint>
          <Trackpoint>
            <Time>2019-08-01T11:23:59.000Z</Time>
            <Position>
              <LatitudeDegrees>40.6977801583707332611083984375</LatitudeDegrees>
              <LongitudeDegrees>-4.0073032490909099578857421875</LongitudeDegrees>
            </Position>
            <AltitudeMeters>1073.800048828125</AltitudeMeters>
            <DistanceMeters>NAN</DistanceMeters>
          </Trackpoint>
          <Trackpoint>
            <Time>2019-08-01T11:24:00.000Z</Time>
            <Position>
              <LatitudeDegrees>40.69782936014235019683837890625</LatitudeDegrees>
              <LongitudeDegrees>-4.0072405524551868438720703125</LongitudeDegrees>
            </Position>
            <AltitudeMeters>1073.800048828125</AltitudeMeters>
            <DistanceMeters>NAN</DistanceMeters>
          </Trackpoint>
          <Trackpoint>
            <Time>2019-08-01T11:24:01.000Z</Time>
            <Position>
              <LatitudeDegrees>40.69787822663784027099609375</LatitudeDegrees>
              <LongitudeDegrees>-4.0071785263717174530029296875</LongitudeDegrees>
            </Position>
            <AltitudeMeters>1073.800048828125</AltitudeMeters>
            <DistanceMeters>NAN</DistanceMeters>
          </Trackpoint>
          <Trackpoint>
            <Time>2019-08-01T11:24:02.000Z</Time>
            <Position>
              <LatitudeDegrees>40.6979283504188060760498046875</LatitudeDegrees>
              <LongitudeDegrees>-4.00711641646921634674072265625</LongitudeDegrees>
            </Position>
            <AltitudeMeters>1073.800048828125</AltitudeMeters>
            <DistanceMeters>NAN</DistanceMeters>
          </Trackpoint>
          <Trackpoint>
            <Time>2019-08-01T11:24:03.000Z</Time>
            <Position>
              <LatitudeDegrees>40.6979786418378353118896484375</LatitudeDegrees>
              <LongitudeDegrees>-4.0070538036525249481201171875</LongitudeDegrees>
            </Position>
            <AltitudeMeters>1073.800048828125</AltitudeMeters>
            <DistanceMeters>NAN</DistanceMeters>
          </Trackpoint>
          <Trackpoint>
            <Time>2019-08-01T11:24:04.000Z</Time>
            <Position>
              <LatitudeDegrees>40.6980296038091182708740234375</LatitudeDegrees>
              <LongitudeDegrees>-4.00699295103549957275390625</LongitudeDegrees>
            </Position>
            <AltitudeMeters>1073.800048828125</AltitudeMeters>
            <DistanceMeters>NAN</DistanceMeters>
          </Trackpoint>
          <Trackpoint>
            <Time>2019-08-01T11:24:05.000Z</Time>
            <Position>
              <LatitudeDegrees>40.6980809010565280914306640625</LatitudeDegrees>
              <LongitudeDegrees>-4.00693234987556934356689453125</LongitudeDegrees>
            </Position>
            <AltitudeMeters>1073.800048828125</AltitudeMeters>
            <DistanceMeters>NAN</DistanceMeters>
          </Trackpoint>
          <Trackpoint>
            <Time>2019-08-01T11:24:06.000Z</Time>
            <Position>
              <LatitudeDegrees>40.69813312031328678131103515625</LatitudeDegrees>
              <LongitudeDegrees>-4.00687091052532196044921875</LongitudeDegrees>
            </Position>
            <AltitudeMeters>1073.800048828125</AltitudeMeters>
            <DistanceMeters>NAN</DistanceMeters>
          </Trackpoint>
          <Trackpoint>
            <Time>2019-08-01T11:24:08.000Z</Time>
            <Position>
              <LatitudeDegrees>40.698240660130977630615234375</LatitudeDegrees>
              <LongitudeDegrees>-4.00675264187157154083251953125</LongitudeDegrees>
            </Position>
            <AltitudeMeters>1073.800048828125</AltitudeMeters>
            <DistanceMeters>NAN</DistanceMeters>
          </Trackpoint>
          <Trackpoint>
            <Time>2019-08-01T11:24:09.000Z</Time>
            <Position>
              <LatitudeDegrees>40.6982951425015926361083984375</LatitudeDegrees>
              <LongitudeDegrees>-4.0066945552825927734375</LongitudeDegrees>
            </Position>
            <AltitudeMeters>1073.800048828125</AltitudeMeters>
            <DistanceMeters>NAN</DistanceMeters>
          </Trackpoint>
          <Trackpoint>
            <Time>2019-08-01T11:24:10.000Z</Time>
            <Position>
              <LatitudeDegrees>40.69835037924349308013916015625</LatitudeDegrees>
              <LongitudeDegrees>-4.0066380612552165985107421875</LongitudeDegrees>
            </Position>
            <AltitudeMeters>1073.800048828125</AltitudeMeters>
            <DistanceMeters>NAN</DistanceMeters>
          </Trackpoint>
          <Trackpoint>
            <Time>2019-08-01T11:24:11.000Z</Time>
            <Position>
              <LatitudeDegrees>40.6984067894518375396728515625</LatitudeDegrees>
              <LongitudeDegrees>-4.00658131577074527740478515625</LongitudeDegrees>
            </Position>
            <AltitudeMeters>1073.800048828125</AltitudeMeters>
            <DistanceMeters>NAN</DistanceMeters>
          </Trackpoint>
          <Trackpoint>
            <Time>2019-08-01T11:24:12.000Z</Time>
            <Position>
              <LatitudeDegrees>40.69846387021243572235107421875</LatitudeDegrees>
              <LongitudeDegrees>-4.00652314536273479461669921875</LongitudeDegrees>
            </Position>
            <AltitudeMeters>1073.800048828125</AltitudeMeters>
            <DistanceMeters>NAN</DistanceMeters>
          </Trackpoint>
          <Trackpoint>
            <Time>2019-08-01T11:24:13.000Z</Time>
            <Position>
              <LatitudeDegrees>40.69852053187787532806396484375</LatitudeDegrees>
              <LongitudeDegrees>-4.00646413676440715789794921875</LongitudeDegrees>
            </Position>
            <AltitudeMeters>1074</AltitudeMeters>
            <DistanceMeters>NAN</DistanceMeters>
          </Trackpoint>
          <Trackpoint>
            <Time>2019-08-01T11:24:14.000Z</Time>
            <Position>
              <LatitudeDegrees>40.69857769645750522613525390625</LatitudeDegrees>
              <LongitudeDegrees>-4.00640596635639667510986328125</LongitudeDegrees>
            </Position>
            <AltitudeMeters>1074</AltitudeMeters>
            <DistanceMeters>NAN</DistanceMeters>
          </Trackpoint>
          <Trackpoint>
            <Time>2019-08-01T11:24:15.000Z</Time>
            <Position>
              <LatitudeDegrees>40.69863636977970600128173828125</LatitudeDegrees>
              <LongitudeDegrees>-4.00634813122451305389404296875</LongitudeDegrees>
            </Position>
            <AltitudeMeters>1074.5999755859375</AltitudeMeters>
            <DistanceMeters>NAN</DistanceMeters>
          </Trackpoint>
          <Trackpoint>
            <Time>2019-08-01T11:24:16.000Z</Time>
            <Position>
              <LatitudeDegrees>40.6986931152641773223876953125</LatitudeDegrees>
              <LongitudeDegrees>-4.00629130192101001739501953125</LongitudeDegrees>
            </Position>
            <AltitudeMeters>1074.800048828125</AltitudeMeters>
            <DistanceMeters>NAN</DistanceMeters>
          </Trackpoint>
          <Trackpoint>
            <Time>2019-08-01T11:24:17.000Z</Time>
            <Position>
              <LatitudeDegrees>40.69874994456768035888671875</LatitudeDegrees>
              <LongitudeDegrees>-4.00623480789363384246826171875</LongitudeDegrees>
            </Position>
            <AltitudeMeters>1075</AltitudeMeters>
            <DistanceMeters>NAN</DistanceMeters>
          </Trackpoint>
          <Trackpoint>
            <Time>2019-08-01T11:24:18.000Z</Time>
            <Position>
              <LatitudeDegrees>40.698805935680866241455078125</LatitudeDegrees>
              <LongitudeDegrees>-4.0061787329614162445068359375</LongitudeDegrees>
            </Position>
            <AltitudeMeters>1075</AltitudeMeters>
            <DistanceMeters>NAN</DistanceMeters>
          </Trackpoint>
          <Trackpoint>
            <Time>2019-08-01T11:24:19.000Z</Time>
            <Position>
              <LatitudeDegrees>40.69886125624179840087890625</LatitudeDegrees>
              <LongitudeDegrees>-4.00612198747694492340087890625</LongitudeDegrees>
            </Position>
            <AltitudeMeters>1075</AltitudeMeters>
            <DistanceMeters>NAN</DistanceMeters>
          </Trackpoint>
          <Trackpoint>
            <Time>2019-08-01T11:24:20.000Z</Time>
            <Position>
              <LatitudeDegrees>40.69891565479338169097900390625</LatitudeDegrees>
              <LongitudeDegrees>-4.00606624782085418701171875</LongitudeDegrees>
            </Position>
            <AltitudeMeters>1075.199951171875</AltitudeMeters>
            <DistanceMeters>NAN</DistanceMeters>
          </Trackpoint>
          <Trackpoint>
            <Time>2019-08-01T11:24:21.000Z</Time>
            <Position>
              <LatitudeDegrees>40.69897047244012355804443359375</LatitudeDegrees>
              <LongitudeDegrees>-4.0060107596218585968017578125</LongitudeDegrees>
            </Position>
            <AltitudeMeters>1075.199951171875</AltitudeMeters>
            <DistanceMeters>NAN</DistanceMeters>
          </Trackpoint>
          <Trackpoint>
            <Time>2019-08-01T11:24:22.000Z</Time>
            <Position>
              <LatitudeDegrees>40.69902646355330944061279296875</LatitudeDegrees>
              <LongitudeDegrees>-4.0059556066989898681640625</LongitudeDegrees>
            </Position>
            <AltitudeMeters>1075.199951171875</AltitudeMeters>
            <DistanceMeters>NAN</DistanceMeters>
          </Trackpoint>
          <Trackpoint>
            <Time>2019-08-01T11:24:23.000Z</Time>
            <Position>
              <LatitudeDegrees>40.6990827061235904693603515625</LatitudeDegrees>
              <LongitudeDegrees>-4.00589995086193084716796875</LongitudeDegrees>
            </Position>
            <AltitudeMeters>1075.199951171875</AltitudeMeters>
            <DistanceMeters>NAN</DistanceMeters>
          </Trackpoint>
          <Trackpoint>
            <Time>2019-08-01T11:24:24.000Z</Time>
            <Position>
              <LatitudeDegrees>40.69913886487483978271484375</LatitudeDegrees>
              <LongitudeDegrees>-4.00584362447261810302734375</LongitudeDegrees>
            </Position>
            <AltitudeMeters>1075.199951171875</AltitudeMeters>
            <DistanceMeters>NAN</DistanceMeters>
          </Trackpoint>
          <Trackpoint>
            <Time>2019-08-01T11:24:25.000Z</Time>
            <Position>
              <LatitudeDegrees>40.69919326342642307281494140625</LatitudeDegrees>
              <LongitudeDegrees>-4.00578788481652736663818359375</LongitudeDegrees>
            </Position>
            <AltitudeMeters>1075.4000244140625</AltitudeMeters>
            <DistanceMeters>NAN</DistanceMeters>
          </Trackpoint>
          <Trackpoint>
            <Time>2019-08-01T11:24:26.000Z</Time>
            <Position>
              <LatitudeDegrees>40.6992486678063869476318359375</LatitudeDegrees>
              <LongitudeDegrees>-4.00573239661753177642822265625</LongitudeDegrees>
            </Position>
            <AltitudeMeters>1075.4000244140625</AltitudeMeters>
            <DistanceMeters>NAN</DistanceMeters>
          </Trackpoint>
          <Trackpoint>
            <Time>2019-08-01T11:24:27.000Z</Time>
            <Position>
              <LatitudeDegrees>40.69930340163409709930419921875</LatitudeDegrees>
              <LongitudeDegrees>-4.005677998065948486328125</LongitudeDegrees>
            </Position>
            <AltitudeMeters>1075.5999755859375</AltitudeMeters>
            <DistanceMeters>NAN</DistanceMeters>
          </Trackpoint>
          <Trackpoint>
            <Time>2019-08-01T11:24:28.000Z</Time>
            <Position>
              <LatitudeDegrees>40.69935721345245838165283203125</LatitudeDegrees>
              <LongitudeDegrees>-4.00562427006661891937255859375</LongitudeDegrees>
            </Position>
            <AltitudeMeters>1075.5999755859375</AltitudeMeters>
            <DistanceMeters>NAN</DistanceMeters>
          </Trackpoint>
          <Trackpoint>
            <Time>2019-08-01T11:24:29.000Z</Time>
            <Position>
              <LatitudeDegrees>40.69941052235662937164306640625</LatitudeDegrees>
              <LongitudeDegrees>-4.00557096116244792938232421875</LongitudeDegrees>
            </Position>
            <AltitudeMeters>1075.800048828125</AltitudeMeters>
            <DistanceMeters>NAN</DistanceMeters>
          </Trackpoint>
          <Trackpoint>
            <Time>2019-08-01T11:24:30.000Z</Time>
            <Position>
              <LatitudeDegrees>40.69946383126080036163330078125</LatitudeDegrees>
              <LongitudeDegrees>-4.00551798753440380096435546875</LongitudeDegrees>
            </Position>
            <AltitudeMeters>1075.800048828125</AltitudeMeters>
            <DistanceMeters>NAN</DistanceMeters>
          </Trackpoint>
          <Trackpoint>
            <Time>2019-08-01T11:24:31.000Z</Time>
            <Position>
              <LatitudeDegrees>40.699515044689178466796875</LatitudeDegrees>
              <LongitudeDegrees>-4.00546601973474025726318359375</LongitudeDegrees>
            </Position>
            <AltitudeMeters>1076</AltitudeMeters>
            <DistanceMeters>NAN</DistanceMeters>
          </Trackpoint>
          <Trackpoint>
            <Time>2019-08-01T11:24:32.000Z</Time>
            <Position>
              <LatitudeDegrees>40.699564330279827117919921875</LatitudeDegrees>
              <LongitudeDegrees>-4.00541539303958415985107421875</LongitudeDegrees>
            </Position>
            <AltitudeMeters>1076</AltitudeMeters>
            <DistanceMeters>NAN</DistanceMeters>
          </Trackpoint>
          <Trackpoint>
            <Time>2019-08-01T11:24:33.000Z</Time>
            <Position>
              <LatitudeDegrees>40.69961386732757091522216796875</LatitudeDegrees>
              <LongitudeDegrees>-4.005366526544094085693359375</LongitudeDegrees>
            </Position>
            <AltitudeMeters>1076</AltitudeMeters>
            <DistanceMeters>NAN</DistanceMeters>
          </Trackpoint>
          <Trackpoint>
            <Time>2019-08-01T11:24:34.000Z</Time>
            <Position>
              <LatitudeDegrees>40.69966231472790241241455078125</LatitudeDegrees>
              <LongitudeDegrees>-4.00531782768666744232177734375</LongitudeDegrees>
            </Position>
            <AltitudeMeters>1076</AltitudeMeters>
            <DistanceMeters>NAN</DistanceMeters>
          </Trackpoint>
          <Trackpoint>
            <Time>2019-08-01T11:24:35.000Z</Time>
            <Position>
              <LatitudeDegrees>40.699710510671138763427734375</LatitudeDegrees>
              <LongitudeDegrees>-4.00527055375277996063232421875</LongitudeDegrees>
            </Position>
            <AltitudeMeters>1076</AltitudeMeters>
            <DistanceMeters>NAN</DistanceMeters>
          </Trackpoint>
          <Trackpoint>
            <Time>2019-08-01T11:24:36.000Z</Time>
            <Position>
              <LatitudeDegrees>40.69975870661437511444091796875</LatitudeDegrees>
              <LongitudeDegrees>-4.00522495619952678680419921875</LongitudeDegrees>
            </Position>
            <AltitudeMeters>1076.199951171875</AltitudeMeters>
            <DistanceMeters>NAN</DistanceMeters>
          </Trackpoint>
          <Trackpoint>
            <Time>2019-08-01T11:24:37.000Z</Time>
            <Position>
              <LatitudeDegrees>40.69980715401470661163330078125</LatitudeDegrees>
              <LongitudeDegrees>-4.00518002919852733612060546875</LongitudeDegrees>
            </Position>
            <AltitudeMeters>1076.199951171875</AltitudeMeters>
            <DistanceMeters>NAN</DistanceMeters>
          </Trackpoint>
          <Trackpoint>
            <Time>2019-08-01T11:24:38.000Z</Time>
            <Position>
              <LatitudeDegrees>40.6998548470437526702880859375</LatitudeDegrees>
              <LongitudeDegrees>-4.005135856568813323974609375</LongitudeDegrees>
            </Position>
            <AltitudeMeters>1076.199951171875</AltitudeMeters>
            <DistanceMeters>NAN</DistanceMeters>
          </Trackpoint>
          <Trackpoint>
            <Time>2019-08-01T11:24:39.000Z</Time>
            <Position>
              <LatitudeDegrees>40.699902288615703582763671875</LatitudeDegrees>
              <LongitudeDegrees>-4.00509319268167018890380859375</LongitudeDegrees>
            </Position>
            <AltitudeMeters>1076.199951171875</AltitudeMeters>
            <DistanceMeters>NAN</DistanceMeters>
          </Trackpoint>
          <Trackpoint>
            <Time>2019-08-01T11:24:40.000Z</Time>
            <Position>
              <LatitudeDegrees>40.699950568377971649169921875</LatitudeDegrees>
              <LongitudeDegrees>-4.00505027733743190765380859375</LongitudeDegrees>
            </Position>
            <AltitudeMeters>1076.4000244140625</AltitudeMeters>
            <DistanceMeters>NAN</DistanceMeters>
          </Trackpoint>
          <Trackpoint>
            <Time>2019-08-01T11:24:41.000Z</Time>
            <Position>
              <LatitudeDegrees>40.69999893195927143096923828125</LatitudeDegrees>
              <LongitudeDegrees>-4.0050062723457813262939453125</LongitudeDegrees>
            </Position>
            <AltitudeMeters>1076.5999755859375</AltitudeMeters>
            <DistanceMeters>NAN</DistanceMeters>
          </Trackpoint>
          <Trackpoint>
            <Time>2019-08-01T11:24:42.000Z</Time>
            <Position>
              <LatitudeDegrees>40.70004721172153949737548828125</LatitudeDegrees>
              <LongitudeDegrees>-4.004963524639606475830078125</LongitudeDegrees>
            </Position>
            <AltitudeMeters>1077</AltitudeMeters>
            <DistanceMeters>NAN</DistanceMeters>
          </Trackpoint>
          <Trackpoint>
            <Time>2019-08-01T11:24:43.000Z</Time>
            <Position>
              <LatitudeDegrees>40.70009515620768070220947265625</LatitudeDegrees>
              <LongitudeDegrees>-4.004921950399875640869140625</LongitudeDegrees>
            </Position>
            <AltitudeMeters>1077</AltitudeMeters>
            <DistanceMeters>NAN</DistanceMeters>
          </Trackpoint>
          <Trackpoint>
            <Time>2019-08-01T11:24:44.000Z</Time>
            <Position>
              <LatitudeDegrees>40.7001413404941558837890625</LatitudeDegrees>
              <LongitudeDegrees>-4.0048798732459545135498046875</LongitudeDegrees>
            </Position>
            <AltitudeMeters>1077.199951171875</AltitudeMeters>
            <DistanceMeters>NAN</DistanceMeters>
          </Trackpoint>
          <Trackpoint>
            <Time>2019-08-01T11:24:45.000Z</Time>
            <Position>
              <LatitudeDegrees>40.70019188337028026580810546875</LatitudeDegrees>
              <LongitudeDegrees>-4.004838801920413970947265625</LongitudeDegrees>
            </Position>
            <AltitudeMeters>1077.199951171875</AltitudeMeters>
            <DistanceMeters>NAN</DistanceMeters>
          </Trackpoint>
          <Trackpoint>
            <Time>2019-08-01T11:24:46.000Z</Time>
            <Position>
              <LatitudeDegrees>40.70024100132286548614501953125</LatitudeDegrees>
              <LongitudeDegrees>-4.00479949079453945159912109375</LongitudeDegrees>
            </Position>
            <AltitudeMeters>1077.199951171875</AltitudeMeters>
            <DistanceMeters>NAN</DistanceMeters>
          </Trackpoint>
          <Trackpoint>
            <Time>2019-08-01T11:24:47.000Z</Time>
            <Position>
              <LatitudeDegrees>40.70028961636126041412353515625</LatitudeDegrees>
              <LongitudeDegrees>-4.00476160459220409393310546875</LongitudeDegrees>
            </Position>
            <AltitudeMeters>1077.4000244140625</AltitudeMeters>
            <DistanceMeters>NAN</DistanceMeters>
          </Trackpoint>
          <Trackpoint>
            <Time>2019-08-01T11:24:48.000Z</Time>
            <Position>
              <LatitudeDegrees>40.70033823139965534210205078125</LatitudeDegrees>
              <LongitudeDegrees>-4.00472380220890045166015625</LongitudeDegrees>
            </Position>
            <AltitudeMeters>1077.5999755859375</AltitudeMeters>
            <DistanceMeters>NAN</DistanceMeters>
          </Trackpoint>
          <Trackpoint>
            <Time>2019-08-01T11:24:49.000Z</Time>
            <Position>
              <LatitudeDegrees>40.70038768462836742401123046875</LatitudeDegrees>
              <LongitudeDegrees>-4.00468817912042140960693359375</LongitudeDegrees>
            </Position>
            <AltitudeMeters>1077.800048828125</AltitudeMeters>
            <DistanceMeters>NAN</DistanceMeters>
          </Trackpoint>
          <Trackpoint>
            <Time>2019-08-01T11:24:50.000Z</Time>
            <Position>
              <LatitudeDegrees>40.7004395686089992523193359375</LatitudeDegrees>
              <LongitudeDegrees>-4.00465364567935466766357421875</LongitudeDegrees>
            </Position>
            <AltitudeMeters>1077.800048828125</AltitudeMeters>
            <DistanceMeters>NAN</DistanceMeters>
          </Trackpoint>
          <Trackpoint>
            <Time>2019-08-01T11:24:51.000Z</Time>
            <Position>
              <LatitudeDegrees>40.70049145258963108062744140625</LatitudeDegrees>
              <LongitudeDegrees>-4.00461961515247821807861328125</LongitudeDegrees>
            </Position>
            <AltitudeMeters>1078</AltitudeMeters>
            <DistanceMeters>NAN</DistanceMeters>
          </Trackpoint>
          <Trackpoint>
            <Time>2019-08-01T11:24:52.000Z</Time>
            <Position>
              <LatitudeDegrees>40.70054291747510433197021484375</LatitudeDegrees>
              <LongitudeDegrees>-4.00458566844463348388671875</LongitudeDegrees>
            </Position>
            <AltitudeMeters>1078.199951171875</AltitudeMeters>
            <DistanceMeters>NAN</DistanceMeters>
          </Trackpoint>
          <Trackpoint>
            <Time>2019-08-01T11:24:54.000Z</Time>
            <Position>
              <LatitudeDegrees>40.70064752362668514251708984375</LatitudeDegrees>
              <LongitudeDegrees>-4.004521630704402923583984375</LongitudeDegrees>
            </Position>
            <AltitudeMeters>1078.4000244140625</AltitudeMeters>
            <DistanceMeters>NAN</DistanceMeters>
          </Trackpoint>
          <Trackpoint>
            <Time>2019-08-01T11:24:55.000Z</Time>
            <Position>
              <LatitudeDegrees>40.70069949142634868621826171875</LatitudeDegrees>
              <LongitudeDegrees>-4.00448969565331935882568359375</LongitudeDegrees>
            </Position>
            <AltitudeMeters>1078.4000244140625</AltitudeMeters>
            <DistanceMeters>NAN</DistanceMeters>
          </Trackpoint>
          <Trackpoint>
            <Time>2019-08-01T11:24:56.000Z</Time>
            <Position>
              <LatitudeDegrees>40.70075129158794879913330078125</LatitudeDegrees>
              <LongitudeDegrees>-4.00445734150707721710205078125</LongitudeDegrees>
            </Position>
            <AltitudeMeters>1078.5999755859375</AltitudeMeters>
            <DistanceMeters>NAN</DistanceMeters>
          </Trackpoint>
          <Trackpoint>
            <Time>2019-08-01T11:24:57.000Z</Time>
            <Position>
              <LatitudeDegrees>40.70080409757792949676513671875</LatitudeDegrees>
              <LongitudeDegrees>-4.00442750193178653717041015625</LongitudeDegrees>
            </Position>
            <AltitudeMeters>1078.800048828125</AltitudeMeters>
            <DistanceMeters>NAN</DistanceMeters>
          </Trackpoint>
          <Trackpoint>
            <Time>2019-08-01T11:24:58.000Z</Time>
            <Position>
              <LatitudeDegrees>40.70085606537759304046630859375</LatitudeDegrees>
              <LongitudeDegrees>-4.0043987520039081573486328125</LongitudeDegrees>
            </Position>
            <AltitudeMeters>1078.800048828125</AltitudeMeters>
            <DistanceMeters>NAN</DistanceMeters>
          </Trackpoint>
          <Trackpoint>
            <Time>2019-08-01T11:24:59.000Z</Time>
            <Position>
              <LatitudeDegrees>40.70090937428176403045654296875</LatitudeDegrees>
              <LongitudeDegrees>-4.00437067262828350067138671875</LongitudeDegrees>
            </Position>
            <AltitudeMeters>1079.199951171875</AltitudeMeters>
            <DistanceMeters>NAN</DistanceMeters>
          </Trackpoint>
          <Trackpoint>
            <Time>2019-08-01T11:25:00.000Z</Time>
            <Position>
              <LatitudeDegrees>40.70096276700496673583984375</LatitudeDegrees>
              <LongitudeDegrees>-4.0043441019952297210693359375</LongitudeDegrees>
            </Position>
            <AltitudeMeters>1079.4000244140625</AltitudeMeters>
            <DistanceMeters>NAN</DistanceMeters>
          </Trackpoint>
          <Trackpoint>
            <Time>2019-08-01T11:25:01.000Z</Time>
            <Position>
              <LatitudeDegrees>40.7010165788233280181884765625</LatitudeDegrees>
              <LongitudeDegrees>-4.00431853719055652618408203125</LongitudeDegrees>
            </Position>
            <AltitudeMeters>1079.5999755859375</AltitudeMeters>
            <DistanceMeters>NAN</DistanceMeters>
          </Trackpoint>
          <Trackpoint>
            <Time>2019-08-01T11:25:02.000Z</Time>
            <Position>
              <LatitudeDegrees>40.701070725917816162109375</LatitudeDegrees>
              <LongitudeDegrees>-4.0042938105762004852294921875</LongitudeDegrees>
            </Position>
            <AltitudeMeters>1079.800048828125</AltitudeMeters>
            <DistanceMeters>NAN</DistanceMeters>
          </Trackpoint>
          <Trackpoint>
            <Time>2019-08-01T11:25:03.000Z</Time>
            <Position>
              <LatitudeDegrees>40.70112445391714572906494140625</LatitudeDegrees>
              <LongitudeDegrees>-4.00426975451409816741943359375</LongitudeDegrees>
            </Position>
            <AltitudeMeters>1080</AltitudeMeters>
            <DistanceMeters>NAN</DistanceMeters>
          </Trackpoint>
          <Trackpoint>
            <Time>2019-08-01T11:25:04.000Z</Time>
            <Position>
              <LatitudeDegrees>40.70117843337357044219970703125</LatitudeDegrees>
              <LongitudeDegrees>-4.0042470395565032958984375</LongitudeDegrees>
            </Position>
            <AltitudeMeters>1080</AltitudeMeters>
            <DistanceMeters>NAN</DistanceMeters>
          </Trackpoint>
          <Trackpoint>
            <Time>2019-08-01T11:25:05.000Z</Time>
            <Position>
              <LatitudeDegrees>40.70123207755386829376220703125</LatitudeDegrees>
              <LongitudeDegrees>-4.00422633625566959381103515625</LongitudeDegrees>
            </Position>
            <AltitudeMeters>1080.199951171875</AltitudeMeters>
            <DistanceMeters>NAN</DistanceMeters>
          </Trackpoint>
          <Trackpoint>
            <Time>2019-08-01T11:25:06.000Z</Time>
            <Position>
              <LatitudeDegrees>40.70128597319126129150390625</LatitudeDegrees>
              <LongitudeDegrees>-4.00420756079256534576416015625</LongitudeDegrees>
            </Position>
            <AltitudeMeters>1080.4000244140625</AltitudeMeters>
            <DistanceMeters>NAN</DistanceMeters>
          </Trackpoint>
          <Trackpoint>
            <Time>2019-08-01T11:25:07.000Z</Time>
            <Position>
              <LatitudeDegrees>40.7013374380767345428466796875</LatitudeDegrees>
              <LongitudeDegrees>-4.00418945588171482086181640625</LongitudeDegrees>
            </Position>
            <AltitudeMeters>1080.5999755859375</AltitudeMeters>
            <DistanceMeters>NAN</DistanceMeters>
          </Trackpoint>
          <Trackpoint>
            <Time>2019-08-01T11:25:08.000Z</Time>
            <Position>
              <LatitudeDegrees>40.701388232409954071044921875</LatitudeDegrees>
              <LongitudeDegrees>-4.00417218916118144989013671875</LongitudeDegrees>
            </Position>
            <AltitudeMeters>1080.800048828125</AltitudeMeters>
            <DistanceMeters>NAN</DistanceMeters>
          </Trackpoint>
          <Trackpoint>
            <Time>2019-08-01T11:25:09.000Z</Time>
            <Position>
              <LatitudeDegrees>40.70143751800060272216796875</LatitudeDegrees>
              <LongitudeDegrees>-4.0041576884686946868896484375</LongitudeDegrees>
            </Position>
            <AltitudeMeters>1081</AltitudeMeters>
            <DistanceMeters>NAN</DistanceMeters>
          </Trackpoint>
          <Trackpoint>
            <Time>2019-08-01T11:25:10.000Z</Time>
            <Position>
              <LatitudeDegrees>40.70148646831512451171875</LatitudeDegrees>
              <LongitudeDegrees>-4.00414444506168365478515625</LongitudeDegrees>
            </Position>
            <AltitudeMeters>1081.5999755859375</AltitudeMeters>
            <DistanceMeters>NAN</DistanceMeters>
          </Trackpoint>
          <Trackpoint>
            <Time>2019-08-01T11:25:11.000Z</Time>
            <Position>
              <LatitudeDegrees>40.70153516717255115509033203125</LatitudeDegrees>
              <LongitudeDegrees>-4.00413145311176776885986328125</LongitudeDegrees>
            </Position>
            <AltitudeMeters>1081.800048828125</AltitudeMeters>
            <DistanceMeters>NAN</DistanceMeters>
          </Trackpoint>
          <Trackpoint>
            <Time>2019-08-01T11:25:12.000Z</Time>
            <Position>
              <LatitudeDegrees>40.701583363115787506103515625</LatitudeDegrees>
              <LongitudeDegrees>-4.00411938317120075225830078125</LongitudeDegrees>
            </Position>
            <AltitudeMeters>1082</AltitudeMeters>
            <DistanceMeters>NAN</DistanceMeters>
          </Trackpoint>
          <Trackpoint>
            <Time>2019-08-01T11:25:13.000Z</Time>
            <Position>
              <LatitudeDegrees>40.7016318105161190032958984375</LatitudeDegrees>
              <LongitudeDegrees>-4.00410957634449005126953125</LongitudeDegrees>
            </Position>
            <AltitudeMeters>1082</AltitudeMeters>
            <DistanceMeters>NAN</DistanceMeters>
          </Trackpoint>
          <Trackpoint>
            <Time>2019-08-01T11:25:14.000Z</Time>
            <Position>
              <LatitudeDegrees>40.701680593192577362060546875</LatitudeDegrees>
              <LongitudeDegrees>-4.00410111062228679656982421875</LongitudeDegrees>
            </Position>
            <AltitudeMeters>1082.199951171875</AltitudeMeters>
            <DistanceMeters>NAN</DistanceMeters>
          </Trackpoint>
          <Trackpoint>
            <Time>2019-08-01T11:25:15.000Z</Time>
            <Position>
              <LatitudeDegrees>40.701729543507099151611328125</LatitudeDegrees>
              <LongitudeDegrees>-4.00409239344298839569091796875</LongitudeDegrees>
            </Position>
            <AltitudeMeters>1082.5999755859375</AltitudeMeters>
            <DistanceMeters>NAN</DistanceMeters>
          </Trackpoint>
          <Trackpoint>
            <Time>2019-08-01T11:25:16.000Z</Time>
            <Position>
              <LatitudeDegrees>40.70177740417420864105224609375</LatitudeDegrees>
              <LongitudeDegrees>-4.00408384390175342559814453125</LongitudeDegrees>
            </Position>
            <AltitudeMeters>1082.800048828125</AltitudeMeters>
            <DistanceMeters>NAN</DistanceMeters>
          </Trackpoint>
          <Trackpoint>
            <Time>2019-08-01T11:25:17.000Z</Time>
            <Position>
              <LatitudeDegrees>40.7018244266510009765625</LatitudeDegrees>
              <LongitudeDegrees>-4.0040755458176136016845703125</LongitudeDegrees>
            </Position>
            <AltitudeMeters>1083</AltitudeMeters>
            <DistanceMeters>NAN</DistanceMeters>
          </Trackpoint>
          <Trackpoint>
            <Time>2019-08-01T11:25:18.000Z</Time>
            <Position>
              <LatitudeDegrees>40.70187044329941272735595703125</LatitudeDegrees>
              <LongitudeDegrees>-4.00406825356185436248779296875</LongitudeDegrees>
            </Position>
            <AltitudeMeters>1083.199951171875</AltitudeMeters>
            <DistanceMeters>NAN</DistanceMeters>
          </Trackpoint>
          <Trackpoint>
            <Time>2019-08-01T11:25:19.000Z</Time>
            <Position>
              <LatitudeDegrees>40.701915957033634185791015625</LatitudeDegrees>
              <LongitudeDegrees>-4.00406221859157085418701171875</LongitudeDegrees>
            </Position>
            <AltitudeMeters>1083.5999755859375</AltitudeMeters>
            <DistanceMeters>NAN</DistanceMeters>
          </Trackpoint>
          <Trackpoint>
            <Time>2019-08-01T11:25:20.000Z</Time>
            <Position>
              <LatitudeDegrees>40.70196214132010936737060546875</LatitudeDegrees>
              <LongitudeDegrees>-4.0040566027164459228515625</LongitudeDegrees>
            </Position>
            <AltitudeMeters>1083.800048828125</AltitudeMeters>
            <DistanceMeters>NAN</DistanceMeters>
          </Trackpoint>
          <Trackpoint>
            <Time>2019-08-01T11:25:21.000Z</Time>
            <Position>
              <LatitudeDegrees>40.70200874470174312591552734375</LatitudeDegrees>
              <LongitudeDegrees>-4.0040500648319721221923828125</LongitudeDegrees>
            </Position>
            <AltitudeMeters>1084</AltitudeMeters>
            <DistanceMeters>NAN</DistanceMeters>
          </Trackpoint>
          <Trackpoint>
            <Time>2019-08-01T11:25:22.000Z</Time>
            <Position>
              <LatitudeDegrees>40.70205501280725002288818359375</LatitudeDegrees>
              <LongitudeDegrees>-4.00404411368072032928466796875</LongitudeDegrees>
            </Position>
            <AltitudeMeters>1084</AltitudeMeters>
            <DistanceMeters>NAN</DistanceMeters>
          </Trackpoint>
          <Trackpoint>
            <Time>2019-08-01T11:25:24.000Z</Time>
            <Position>
              <LatitudeDegrees>40.70214704610407352447509765625</LatitudeDegrees>
              <LongitudeDegrees>-4.00403522886335849761962890625</LongitudeDegrees>
            </Position>
            <AltitudeMeters>1084.4000244140625</AltitudeMeters>
            <DistanceMeters>NAN</DistanceMeters>
          </Trackpoint>
          <Trackpoint>
            <Time>2019-08-01T11:25:25.000Z</Time>
            <Position>
              <LatitudeDegrees>40.70214704610407352447509765625</LatitudeDegrees>
              <LongitudeDegrees>-4.00403522886335849761962890625</LongitudeDegrees>
            </Position>
            <AltitudeMeters>1084.5999755859375</AltitudeMeters>
            <DistanceMeters>NAN</DistanceMeters>
          </Trackpoint>
          <Trackpoint>
            <Time>2019-08-01T11:25:26.000Z</Time>
            <Position>
              <LatitudeDegrees>40.70223949849605560302734375</LatitudeDegrees>
              <LongitudeDegrees>-4.00402785278856754302978515625</LongitudeDegrees>
            </Position>
            <AltitudeMeters>1084.800048828125</AltitudeMeters>
            <DistanceMeters>NAN</DistanceMeters>
          </Trackpoint>
          <Trackpoint>
            <Time>2019-08-01T11:25:27.000Z</Time>
            <Position>
              <LatitudeDegrees>40.7022857666015625</LatitudeDegrees>
              <LongitudeDegrees>-4.0040235780179500579833984375</LongitudeDegrees>
            </Position>
            <AltitudeMeters>1085</AltitudeMeters>
            <DistanceMeters>NAN</DistanceMeters>
          </Trackpoint>
          <Trackpoint>
            <Time>2019-08-01T11:25:28.000Z</Time>
            <Position>
              <LatitudeDegrees>40.7023322023451328277587890625</LatitudeDegrees>
              <LongitudeDegrees>-4.00401980616152286529541015625</LongitudeDegrees>
            </Position>
            <AltitudeMeters>1085.199951171875</AltitudeMeters>
            <DistanceMeters>NAN</DistanceMeters>
          </Trackpoint>
          <Trackpoint>
            <Time>2019-08-01T11:25:29.000Z</Time>
            <Position>
              <LatitudeDegrees>40.70237738080322742462158203125</LatitudeDegrees>
              <LongitudeDegrees>-4.00401494465768337249755859375</LongitudeDegrees>
            </Position>
            <AltitudeMeters>1085.4000244140625</AltitudeMeters>
            <DistanceMeters>NAN</DistanceMeters>
          </Trackpoint>
          <Trackpoint>
            <Time>2019-08-01T11:25:30.000Z</Time>
            <Position>
              <LatitudeDegrees>40.7024230621755123138427734375</LatitudeDegrees>
              <LongitudeDegrees>-4.004008658230304718017578125</LongitudeDegrees>
            </Position>
            <AltitudeMeters>1085.5999755859375</AltitudeMeters>
            <DistanceMeters>NAN</DistanceMeters>
          </Trackpoint>
          <Trackpoint>
            <Time>2019-08-01T11:25:31.000Z</Time>
            <Position>
              <LatitudeDegrees>40.70246773771941661834716796875</LatitudeDegrees>
              <LongitudeDegrees>-4.0040029585361480712890625</LongitudeDegrees>
            </Position>
            <AltitudeMeters>1085.5999755859375</AltitudeMeters>
            <DistanceMeters>NAN</DistanceMeters>
          </Trackpoint>
          <Trackpoint>
            <Time>2019-08-01T11:25:32.000Z</Time>
            <Position>
              <LatitudeDegrees>40.70251216180622577667236328125</LatitudeDegrees>
              <LongitudeDegrees>-4.003997929394245147705078125</LongitudeDegrees>
            </Position>
            <AltitudeMeters>1085.800048828125</AltitudeMeters>
            <DistanceMeters>NAN</DistanceMeters>
          </Trackpoint>
          <Trackpoint>
            <Time>2019-08-01T11:25:33.000Z</Time>
            <Position>
              <LatitudeDegrees>40.70255692116916179656982421875</LatitudeDegrees>
              <LongitudeDegrees>-4.0039927326142787933349609375</LongitudeDegrees>
            </Position>
            <AltitudeMeters>1086.199951171875</AltitudeMeters>
            <DistanceMeters>NAN</DistanceMeters>
          </Trackpoint>
          <Trackpoint>
            <Time>2019-08-01T11:25:34.000Z</Time>
            <Position>
              <LatitudeDegrees>40.70260201580822467803955078125</LatitudeDegrees>
              <LongitudeDegrees>-4.00398678146302700042724609375</LongitudeDegrees>
            </Position>
            <AltitudeMeters>1086.5999755859375</AltitudeMeters>
            <DistanceMeters>NAN</DistanceMeters>
          </Trackpoint>
          <Trackpoint>
            <Time>2019-08-01T11:25:35.000Z</Time>
            <Position>
              <LatitudeDegrees>40.70264694280922412872314453125</LatitudeDegrees>
              <LongitudeDegrees>-4.003980495035648345947265625</LongitudeDegrees>
            </Position>
            <AltitudeMeters>1086.800048828125</AltitudeMeters>
            <DistanceMeters>NAN</DistanceMeters>
          </Trackpoint>
          <Trackpoint>
            <Time>2019-08-01T11:25:36.000Z</Time>
            <Position>
              <LatitudeDegrees>40.70269186981022357940673828125</LatitudeDegrees>
              <LongitudeDegrees>-4.0039739571511745452880859375</LongitudeDegrees>
            </Position>
            <AltitudeMeters>1087.199951171875</AltitudeMeters>
            <DistanceMeters>NAN</DistanceMeters>
          </Trackpoint>
          <Trackpoint>
            <Time>2019-08-01T11:25:37.000Z</Time>
            <Position>
              <LatitudeDegrees>40.702736712992191314697265625</LatitudeDegrees>
              <LongitudeDegrees>-4.003968425095081329345703125</LongitudeDegrees>
            </Position>
            <AltitudeMeters>1087.800048828125</AltitudeMeters>
            <DistanceMeters>NAN</DistanceMeters>
          </Trackpoint>
          <Trackpoint>
            <Time>2019-08-01T11:25:38.000Z</Time>
            <Position>
              <LatitudeDegrees>40.70278205908834934234619140625</LatitudeDegrees>
              <LongitudeDegrees>-4.00396431796252727508544921875</LongitudeDegrees>
            </Position>
            <AltitudeMeters>1087.800048828125</AltitudeMeters>
            <DistanceMeters>NAN</DistanceMeters>
          </Trackpoint>
          <Trackpoint>
            <Time>2019-08-01T11:25:39.000Z</Time>
            <Position>
              <LatitudeDegrees>40.7028270699083805084228515625</LatitudeDegrees>
              <LongitudeDegrees>-4.0039625577628612518310546875</LongitudeDegrees>
            </Position>
            <AltitudeMeters>1088.199951171875</AltitudeMeters>
            <DistanceMeters>NAN</DistanceMeters>
          </Trackpoint>
          <Trackpoint>
            <Time>2019-08-01T11:25:40.000Z</Time>
            <Position>
              <LatitudeDegrees>40.70287174545228481292724609375</LatitudeDegrees>
              <LongitudeDegrees>-4.0039608813822269439697265625</LongitudeDegrees>
            </Position>
            <AltitudeMeters>1088.4000244140625</AltitudeMeters>
            <DistanceMeters>NAN</DistanceMeters>
          </Trackpoint>
          <Trackpoint>
            <Time>2019-08-01T11:25:41.000Z</Time>
            <Position>
              <LatitudeDegrees>40.70291675627231597900390625</LatitudeDegrees>
              <LongitudeDegrees>-4.00395828299224376678466796875</LongitudeDegrees>
            </Position>
            <AltitudeMeters>1088.5999755859375</AltitudeMeters>
            <DistanceMeters>NAN</DistanceMeters>
          </Trackpoint>
          <Trackpoint>
            <Time>2019-08-01T11:25:42.000Z</Time>
            <Position>
              <LatitudeDegrees>40.70296210236847400665283203125</LatitudeDegrees>
              <LongitudeDegrees>-4.00395534932613372802734375</LongitudeDegrees>
            </Position>
            <AltitudeMeters>1088.800048828125</AltitudeMeters>
            <DistanceMeters>NAN</DistanceMeters>
          </Trackpoint>
          <Trackpoint>
            <Time>2019-08-01T11:25:43.000Z</Time>
            <Position>
              <LatitudeDegrees>40.703007280826568603515625</LatitudeDegrees>
              <LongitudeDegrees>-4.00395333766937255859375</LongitudeDegrees>
            </Position>
            <AltitudeMeters>1089</AltitudeMeters>
            <DistanceMeters>NAN</DistanceMeters>
          </Trackpoint>
          <Trackpoint>
            <Time>2019-08-01T11:25:44.000Z</Time>
            <Position>
              <LatitudeDegrees>40.70305212400853633880615234375</LatitudeDegrees>
              <LongitudeDegrees>-4.003951661288738250732421875</LongitudeDegrees>
            </Position>
            <AltitudeMeters>1089</AltitudeMeters>
            <DistanceMeters>NAN</DistanceMeters>
          </Trackpoint>
          <Trackpoint>
            <Time>2019-08-01T11:25:45.000Z</Time>
            <Position>
              <LatitudeDegrees>40.70309570990502834320068359375</LatitudeDegrees>
              <LongitudeDegrees>-4.00395057164132595062255859375</LongitudeDegrees>
            </Position>
            <AltitudeMeters>1089.199951171875</AltitudeMeters>
            <DistanceMeters>NAN</DistanceMeters>
          </Trackpoint>
          <Trackpoint>
            <Time>2019-08-01T11:25:46.000Z</Time>
            <Position>
              <LatitudeDegrees>40.70313812233507633209228515625</LatitudeDegrees>
              <LongitudeDegrees>-4.0039494819939136505126953125</LongitudeDegrees>
            </Position>
            <AltitudeMeters>1089.5999755859375</AltitudeMeters>
            <DistanceMeters>NAN</DistanceMeters>
          </Trackpoint>
          <Trackpoint>
            <Time>2019-08-01T11:25:47.000Z</Time>
            <Position>
              <LatitudeDegrees>40.7031794451177120208740234375</LatitudeDegrees>
              <LongitudeDegrees>-4.003947637975215911865234375</LongitudeDegrees>
            </Position>
            <AltitudeMeters>1089.800048828125</AltitudeMeters>
            <DistanceMeters>NAN</DistanceMeters>
          </Trackpoint>
          <Trackpoint>
            <Time>2019-08-01T11:25:48.000Z</Time>
            <Position>
              <LatitudeDegrees>40.70322009734809398651123046875</LatitudeDegrees>
              <LongitudeDegrees>-4.00394353084266185760498046875</LongitudeDegrees>
            </Position>
            <AltitudeMeters>1090</AltitudeMeters>
            <DistanceMeters>NAN</DistanceMeters>
          </Trackpoint>
          <Trackpoint>
            <Time>2019-08-01T11:25:49.000Z</Time>
            <Position>
              <LatitudeDegrees>40.70326066575944423675537109375</LatitudeDegrees>
              <LongitudeDegrees>-4.00393598712980747222900390625</LongitudeDegrees>
            </Position>
            <AltitudeMeters>1090</AltitudeMeters>
            <DistanceMeters>NAN</DistanceMeters>
          </Trackpoint>
          <Trackpoint>
            <Time>2019-08-01T11:25:50.000Z</Time>
            <Position>
              <LatitudeDegrees>40.7033024914562702178955078125</LatitudeDegrees>
              <LongitudeDegrees>-4.00392492301762104034423828125</LongitudeDegrees>
            </Position>
            <AltitudeMeters>1090.4000244140625</AltitudeMeters>
            <DistanceMeters>NAN</DistanceMeters>
          </Trackpoint>
          <Trackpoint>
            <Time>2019-08-01T11:25:51.000Z</Time>
            <Position>
              <LatitudeDegrees>40.7033444009721279144287109375</LatitudeDegrees>
              <LongitudeDegrees>-4.00391436181962490081787109375</LongitudeDegrees>
            </Position>
            <AltitudeMeters>1090.5999755859375</AltitudeMeters>
            <DistanceMeters>NAN</DistanceMeters>
          </Trackpoint>
          <Trackpoint>
            <Time>2019-08-01T11:25:52.000Z</Time>
            <Position>
              <LatitudeDegrees>40.70338547229766845703125</LatitudeDegrees>
              <LongitudeDegrees>-4.00390706956386566162109375</LongitudeDegrees>
            </Position>
            <AltitudeMeters>1090.800048828125</AltitudeMeters>
            <DistanceMeters>NAN</DistanceMeters>
          </Trackpoint>
          <Trackpoint>
            <Time>2019-08-01T11:25:53.000Z</Time>
            <Position>
              <LatitudeDegrees>40.7034252025187015533447265625</LatitudeDegrees>
              <LongitudeDegrees>-4.00390279479324817657470703125</LongitudeDegrees>
            </Position>
            <AltitudeMeters>1091</AltitudeMeters>
            <DistanceMeters>NAN</DistanceMeters>
          </Trackpoint>
          <Trackpoint>
            <Time>2019-08-01T11:25:54.000Z</Time>
            <Position>
              <LatitudeDegrees>40.70346551947295665740966796875</LatitudeDegrees>
              <LongitudeDegrees>-4.0039012022316455841064453125</LongitudeDegrees>
            </Position>
            <AltitudeMeters>1091.199951171875</AltitudeMeters>
            <DistanceMeters>NAN</DistanceMeters>
          </Trackpoint>
          <Trackpoint>
            <Time>2019-08-01T11:25:55.000Z</Time>
            <Position>
              <LatitudeDegrees>40.7035056687891483306884765625</LatitudeDegrees>
              <LongitudeDegrees>-4.0039025433361530303955078125</LongitudeDegrees>
            </Position>
            <AltitudeMeters>1091.4000244140625</AltitudeMeters>
            <DistanceMeters>NAN</DistanceMeters>
          </Trackpoint>
          <Trackpoint>
            <Time>2019-08-01T11:25:56.000Z</Time>
            <Position>
              <LatitudeDegrees>40.70354799740016460418701171875</LatitudeDegrees>
              <LongitudeDegrees>-4.00390530936419963836669921875</LongitudeDegrees>
            </Position>
            <AltitudeMeters>1091.4000244140625</AltitudeMeters>
            <DistanceMeters>NAN</DistanceMeters>
          </Trackpoint>
          <Trackpoint>
            <Time>2019-08-01T11:25:57.000Z</Time>
            <Position>
              <LatitudeDegrees>40.70358839817345142364501953125</LatitudeDegrees>
              <LongitudeDegrees>-4.003907740116119384765625</LongitudeDegrees>
            </Position>
            <AltitudeMeters>1091.5999755859375</AltitudeMeters>
            <DistanceMeters>NAN</DistanceMeters>
          </Trackpoint>
          <Trackpoint>
            <Time>2019-08-01T11:25:58.000Z</Time>
            <Position>
              <LatitudeDegrees>40.70362762548029422760009765625</LatitudeDegrees>
              <LongitudeDegrees>-4.00391042232513427734375</LongitudeDegrees>
            </Position>
            <AltitudeMeters>1091.5999755859375</AltitudeMeters>
            <DistanceMeters>NAN</DistanceMeters>
          </Trackpoint>
          <Trackpoint>
            <Time>2019-08-01T11:25:59.000Z</Time>
            <Position>
              <LatitudeDegrees>40.70366442203521728515625</LatitudeDegrees>
              <LongitudeDegrees>-4.0039129368960857391357421875</LongitudeDegrees>
            </Position>
            <AltitudeMeters>1091.800048828125</AltitudeMeters>
            <DistanceMeters>NAN</DistanceMeters>
          </Trackpoint>
          <Trackpoint>
            <Time>2019-08-01T11:26:00.000Z</Time>
            <Position>
              <LatitudeDegrees>40.7037007994949817657470703125</LatitudeDegrees>
              <LongitudeDegrees>-4.003914110362529754638671875</LongitudeDegrees>
            </Position>
            <AltitudeMeters>1092.199951171875</AltitudeMeters>
            <DistanceMeters>NAN</DistanceMeters>
          </Trackpoint>
          <Trackpoint>
            <Time>2019-08-01T11:26:01.000Z</Time>
            <Position>
              <LatitudeDegrees>40.70373826660215854644775390625</LatitudeDegrees>
              <LongitudeDegrees>-4.0039144456386566162109375</LongitudeDegrees>
            </Position>
            <AltitudeMeters>1092.4000244140625</AltitudeMeters>
            <DistanceMeters>NAN</DistanceMeters>
          </Trackpoint>
          <Trackpoint>
            <Time>2019-08-01T11:26:02.000Z</Time>
            <Position>
              <LatitudeDegrees>40.7037742249667644500732421875</LatitudeDegrees>
              <LongitudeDegrees>-4.0039156191051006317138671875</LongitudeDegrees>
            </Position>
            <AltitudeMeters>1092.5999755859375</AltitudeMeters>
            <DistanceMeters>NAN</DistanceMeters>
          </Trackpoint>
          <Trackpoint>
            <Time>2019-08-01T11:26:03.000Z</Time>
            <Position>
              <LatitudeDegrees>40.70381018333137035369873046875</LatitudeDegrees>
              <LongitudeDegrees>-4.003917463123798370361328125</LongitudeDegrees>
            </Position>
            <AltitudeMeters>1092.800048828125</AltitudeMeters>
            <DistanceMeters>NAN</DistanceMeters>
          </Trackpoint>
          <Trackpoint>
            <Time>2019-08-01T11:26:04.000Z</Time>
            <Position>
              <LatitudeDegrees>40.7038449682295322418212890625</LatitudeDegrees>
              <LongitudeDegrees>-4.0039203129708766937255859375</LongitudeDegrees>
            </Position>
            <AltitudeMeters>1093.199951171875</AltitudeMeters>
            <DistanceMeters>NAN</DistanceMeters>
          </Trackpoint>
          <Trackpoint>
            <Time>2019-08-01T11:26:05.000Z</Time>
            <Position>
              <LatitudeDegrees>40.70387874729931354522705078125</LatitudeDegrees>
              <LongitudeDegrees>-4.00392442010343074798583984375</LongitudeDegrees>
            </Position>
            <AltitudeMeters>1094</AltitudeMeters>
            <DistanceMeters>NAN</DistanceMeters>
          </Trackpoint>
          <Trackpoint>
            <Time>2019-08-01T11:26:06.000Z</Time>
            <Position>
              <LatitudeDegrees>40.70391319692134857177734375</LatitudeDegrees>
              <LongitudeDegrees>-4.00392760522663593292236328125</LongitudeDegrees>
            </Position>
            <AltitudeMeters>1094.199951171875</AltitudeMeters>
            <DistanceMeters>NAN</DistanceMeters>
          </Trackpoint>
          <Trackpoint>
            <Time>2019-08-01T11:26:07.000Z</Time>
            <Position>
              <LatitudeDegrees>40.70395150221884250640869140625</LatitudeDegrees>
              <LongitudeDegrees>-4.00393129326403141021728515625</LongitudeDegrees>
            </Position>
            <AltitudeMeters>1094.4000244140625</AltitudeMeters>
            <DistanceMeters>NAN</DistanceMeters>
          </Trackpoint>
          <Trackpoint>
            <Time>2019-08-01T11:26:08.000Z</Time>
            <Position>
              <LatitudeDegrees>40.7039908133447170257568359375</LatitudeDegrees>
              <LongitudeDegrees>-4.00393464602530002593994140625</LongitudeDegrees>
            </Position>
            <AltitudeMeters>1094.800048828125</AltitudeMeters>
            <DistanceMeters>NAN</DistanceMeters>
          </Trackpoint>
          <Trackpoint>
            <Time>2019-08-01T11:26:09.000Z</Time>
            <Position>
              <LatitudeDegrees>40.7040293700993061065673828125</LatitudeDegrees>
              <LongitudeDegrees>-4.0039357356727123260498046875</LongitudeDegrees>
            </Position>
            <AltitudeMeters>1095</AltitudeMeters>
            <DistanceMeters>NAN</DistanceMeters>
          </Trackpoint>
          <Trackpoint>
            <Time>2019-08-01T11:26:10.000Z</Time>
            <Position>
              <LatitudeDegrees>40.70406985469162464141845703125</LatitudeDegrees>
              <LongitudeDegrees>-4.00393766351044178009033203125</LongitudeDegrees>
            </Position>
            <AltitudeMeters>1095.199951171875</AltitudeMeters>
            <DistanceMeters>NAN</DistanceMeters>
          </Trackpoint>
          <Trackpoint>
            <Time>2019-08-01T11:26:11.000Z</Time>
            <Position>
              <LatitudeDegrees>40.704108662903308868408203125</LatitudeDegrees>
              <LongitudeDegrees>-4.00393816642463207244873046875</LongitudeDegrees>
            </Position>
            <AltitudeMeters>1095.4000244140625</AltitudeMeters>
            <DistanceMeters>NAN</DistanceMeters>
          </Trackpoint>
          <Trackpoint>
            <Time>2019-08-01T11:26:14.000Z</Time>
            <Position>
              <LatitudeDegrees>40.704223327338695526123046875</LatitudeDegrees>
              <LongitudeDegrees>-4.00393950752913951873779296875</LongitudeDegrees>
            </Position>
            <AltitudeMeters>1096.199951171875</AltitudeMeters>
            <DistanceMeters>NAN</DistanceMeters>
          </Trackpoint>
          <Trackpoint>
            <Time>2019-08-01T11:26:16.000Z</Time>
            <Position>
              <LatitudeDegrees>40.7043041288852691650390625</LatitudeDegrees>
              <LongitudeDegrees>-4.0039412677288055419921875</LongitudeDegrees>
            </Position>
            <AltitudeMeters>1096.800048828125</AltitudeMeters>
            <DistanceMeters>NAN</DistanceMeters>
          </Trackpoint>
          <Trackpoint>
            <Time>2019-08-01T11:26:17.000Z</Time>
            <Position>
              <LatitudeDegrees>40.7043435238301753997802734375</LatitudeDegrees>
              <LongitudeDegrees>-4.0039434470236301422119140625</LongitudeDegrees>
            </Position>
            <AltitudeMeters>1097</AltitudeMeters>
            <DistanceMeters>NAN</DistanceMeters>
          </Trackpoint>
          <Trackpoint>
            <Time>2019-08-01T11:26:18.000Z</Time>
            <Position>
              <LatitudeDegrees>40.70438199676573276519775390625</LatitudeDegrees>
              <LongitudeDegrees>-4.0039457939565181732177734375</LongitudeDegrees>
            </Position>
            <AltitudeMeters>1097.5999755859375</AltitudeMeters>
            <DistanceMeters>NAN</DistanceMeters>
          </Trackpoint>
          <Trackpoint>
            <Time>2019-08-01T11:26:19.000Z</Time>
            <Position>
              <LatitudeDegrees>40.70442055352032184600830078125</LatitudeDegrees>
              <LongitudeDegrees>-4.00394788943231105804443359375</LongitudeDegrees>
            </Position>
            <AltitudeMeters>1097.800048828125</AltitudeMeters>
            <DistanceMeters>NAN</DistanceMeters>
          </Trackpoint>
          <Trackpoint>
            <Time>2019-08-01T11:26:20.000Z</Time>
            <Position>
              <LatitudeDegrees>40.70445860736072063446044921875</LatitudeDegrees>
              <LongitudeDegrees>-4.00395107455551624298095703125</LongitudeDegrees>
            </Position>
            <AltitudeMeters>1098.199951171875</AltitudeMeters>
            <DistanceMeters>NAN</DistanceMeters>
          </Trackpoint>
          <Trackpoint>
            <Time>2019-08-01T11:26:21.000Z</Time>
            <Position>
              <LatitudeDegrees>40.70449464954435825347900390625</LatitudeDegrees>
              <LongitudeDegrees>-4.003956355154514312744140625</LongitudeDegrees>
            </Position>
            <AltitudeMeters>1098.5999755859375</AltitudeMeters>
            <DistanceMeters>NAN</DistanceMeters>
          </Trackpoint>
          <Trackpoint>
            <Time>2019-08-01T11:26:22.000Z</Time>
            <Position>
              <LatitudeDegrees>40.70453069172799587249755859375</LatitudeDegrees>
              <LongitudeDegrees>-4.00396347977221012115478515625</LongitudeDegrees>
            </Position>
            <AltitudeMeters>1099</AltitudeMeters>
            <DistanceMeters>NAN</DistanceMeters>
          </Trackpoint>
          <Trackpoint>
            <Time>2019-08-01T11:26:23.000Z</Time>
            <Position>
              <LatitudeDegrees>40.704566650092601776123046875</LatitudeDegrees>
              <LongitudeDegrees>-4.00397035293281078338623046875</LongitudeDegrees>
            </Position>
            <AltitudeMeters>1099.4000244140625</AltitudeMeters>
            <DistanceMeters>NAN</DistanceMeters>
          </Trackpoint>
          <Trackpoint>
            <Time>2019-08-01T11:26:24.000Z</Time>
            <Position>
              <LatitudeDegrees>40.704604201018810272216796875</LatitudeDegrees>
              <LongitudeDegrees>-4.003979153931140899658203125</LongitudeDegrees>
            </Position>
            <AltitudeMeters>1099.5999755859375</AltitudeMeters>
            <DistanceMeters>NAN</DistanceMeters>
          </Trackpoint>
          <Trackpoint>
            <Time>2019-08-01T11:26:25.000Z</Time>
            <Position>
              <LatitudeDegrees>40.704641751945018768310546875</LatitudeDegrees>
              <LongitudeDegrees>-4.0039897151291370391845703125</LongitudeDegrees>
            </Position>
            <AltitudeMeters>1099.800048828125</AltitudeMeters>
            <DistanceMeters>NAN</DistanceMeters>
          </Trackpoint>
          <Trackpoint>
            <Time>2019-08-01T11:26:26.000Z</Time>
            <Position>
              <LatitudeDegrees>40.70468030869960784912109375</LatitudeDegrees>
              <LongitudeDegrees>-4.0040004439651966094970703125</LongitudeDegrees>
            </Position>
            <AltitudeMeters>1100</AltitudeMeters>
            <DistanceMeters>NAN</DistanceMeters>
          </Trackpoint>
          <Trackpoint>
            <Time>2019-08-01T11:26:27.000Z</Time>
            <Position>
              <LatitudeDegrees>40.70471961982548236846923828125</LatitudeDegrees>
              <LongitudeDegrees>-4.00401243008673191070556640625</LongitudeDegrees>
            </Position>
            <AltitudeMeters>1100.199951171875</AltitudeMeters>
            <DistanceMeters>NAN</DistanceMeters>
          </Trackpoint>
          <Trackpoint>
            <Time>2019-08-01T11:26:28.000Z</Time>
            <Position>
              <LatitudeDegrees>40.70475968532264232635498046875</LatitudeDegrees>
              <LongitudeDegrees>-4.0040249191224575042724609375</LongitudeDegrees>
            </Position>
            <AltitudeMeters>1100.5999755859375</AltitudeMeters>
            <DistanceMeters>NAN</DistanceMeters>
          </Trackpoint>
          <Trackpoint>
            <Time>2019-08-01T11:26:29.000Z</Time>
            <Position>
              <LatitudeDegrees>40.7048005051910877227783203125</LatitudeDegrees>
              <LongitudeDegrees>-4.00403841398656368255615234375</LongitudeDegrees>
            </Position>
            <AltitudeMeters>1100.800048828125</AltitudeMeters>
            <DistanceMeters>NAN</DistanceMeters>
          </Trackpoint>
          <Trackpoint>
            <Time>2019-08-01T11:26:31.000Z</Time>
            <Position>
              <LatitudeDegrees>40.704882144927978515625</LatitudeDegrees>
              <LongitudeDegrees>-4.0040671639144420623779296875</LongitudeDegrees>
            </Position>
            <AltitudeMeters>1101.4000244140625</AltitudeMeters>
            <DistanceMeters>NAN</DistanceMeters>
          </Trackpoint>
          <Trackpoint>
            <Time>2019-08-01T11:26:32.000Z</Time>
            <Position>
              <LatitudeDegrees>40.704924054443836212158203125</LatitudeDegrees>
              <LongitudeDegrees>-4.0040829218924045562744140625</LongitudeDegrees>
            </Position>
            <AltitudeMeters>1101.5999755859375</AltitudeMeters>
            <DistanceMeters>NAN</DistanceMeters>
          </Trackpoint>
          <Trackpoint>
            <Time>2019-08-01T11:26:34.000Z</Time>
            <Position>
              <LatitudeDegrees>40.7050073705613613128662109375</LatitudeDegrees>
              <LongitudeDegrees>-4.00411334820091724395751953125</LongitudeDegrees>
            </Position>
            <AltitudeMeters>1102.4000244140625</AltitudeMeters>
            <DistanceMeters>NAN</DistanceMeters>
          </Trackpoint>
          <Trackpoint>
            <Time>2019-08-01T11:26:35.000Z</Time>
            <Position>
              <LatitudeDegrees>40.70504953153431415557861328125</LatitudeDegrees>
              <LongitudeDegrees>-4.00413044728338718414306640625</LongitudeDegrees>
            </Position>
            <AltitudeMeters>1102.800048828125</AltitudeMeters>
            <DistanceMeters>NAN</DistanceMeters>
          </Trackpoint>
          <Trackpoint>
            <Time>2019-08-01T11:26:36.000Z</Time>
            <Position>
              <LatitudeDegrees>40.70509177632629871368408203125</LatitudeDegrees>
              <LongitudeDegrees>-4.00414654053747653961181640625</LongitudeDegrees>
            </Position>
            <AltitudeMeters>1102.800048828125</AltitudeMeters>
            <DistanceMeters>NAN</DistanceMeters>
          </Trackpoint>
          <Trackpoint>
            <Time>2019-08-01T11:26:37.000Z</Time>
            <Position>
              <LatitudeDegrees>40.70513385348021984100341796875</LatitudeDegrees>
              <LongitudeDegrees>-4.00416313670575618743896484375</LongitudeDegrees>
            </Position>
            <AltitudeMeters>1103</AltitudeMeters>
            <DistanceMeters>NAN</DistanceMeters>
          </Trackpoint>
          <Trackpoint>
            <Time>2019-08-01T11:26:38.000Z</Time>
            <Position>
              <LatitudeDegrees>40.7051766850054264068603515625</LatitudeDegrees>
              <LongitudeDegrees>-4.00418065488338470458984375</LongitudeDegrees>
            </Position>
            <AltitudeMeters>1103.199951171875</AltitudeMeters>
            <DistanceMeters>NAN</DistanceMeters>
          </Trackpoint>
          <Trackpoint>
            <Time>2019-08-01T11:26:39.000Z</Time>
            <Position>
              <LatitudeDegrees>40.70522035472095012664794921875</LatitudeDegrees>
              <LongitudeDegrees>-4.00419632904231548309326171875</LongitudeDegrees>
            </Position>
            <AltitudeMeters>1103.4000244140625</AltitudeMeters>
            <DistanceMeters>NAN</DistanceMeters>
          </Trackpoint>
          <Trackpoint>
            <Time>2019-08-01T11:26:40.000Z</Time>
            <Position>
              <LatitudeDegrees>40.7052635215222835540771484375</LatitudeDegrees>
              <LongitudeDegrees>-4.00421225465834140777587890625</LongitudeDegrees>
            </Position>
            <AltitudeMeters>1103.5999755859375</AltitudeMeters>
            <DistanceMeters>NAN</DistanceMeters>
          </Trackpoint>
          <Trackpoint>
            <Time>2019-08-01T11:26:41.000Z</Time>
            <Position>
              <LatitudeDegrees>40.70530660450458526611328125</LatitudeDegrees>
              <LongitudeDegrees>-4.00422868318855762481689453125</LongitudeDegrees>
            </Position>
            <AltitudeMeters>1103.800048828125</AltitudeMeters>
            <DistanceMeters>NAN</DistanceMeters>
          </Trackpoint>
          <Trackpoint>
            <Time>2019-08-01T11:26:42.000Z</Time>
            <Position>
              <LatitudeDegrees>40.70534943602979183197021484375</LatitudeDegrees>
              <LongitudeDegrees>-4.0042451955378055572509765625</LongitudeDegrees>
            </Position>
            <AltitudeMeters>1103.800048828125</AltitudeMeters>
            <DistanceMeters>NAN</DistanceMeters>
          </Trackpoint>
          <Trackpoint>
            <Time>2019-08-01T11:26:43.000Z</Time>
            <Position>
              <LatitudeDegrees>40.70539235137403011322021484375</LatitudeDegrees>
              <LongitudeDegrees>-4.00426254607737064361572265625</LongitudeDegrees>
            </Position>
            <AltitudeMeters>1103.800048828125</AltitudeMeters>
            <DistanceMeters>NAN</DistanceMeters>
          </Trackpoint>
          <Trackpoint>
            <Time>2019-08-01T11:26:45.000Z</Time>
            <Position>
              <LatitudeDegrees>40.70547935552895069122314453125</LatitudeDegrees>
              <LongitudeDegrees>-4.00429607369005680084228515625</LongitudeDegrees>
            </Position>
            <AltitudeMeters>1104.199951171875</AltitudeMeters>
            <DistanceMeters>NAN</DistanceMeters>
          </Trackpoint>
          <Trackpoint>
            <Time>2019-08-01T11:26:46.000Z</Time>
            <Position>
              <LatitudeDegrees>40.70552294142544269561767578125</LatitudeDegrees>
              <LongitudeDegrees>-4.0043125860393047332763671875</LongitudeDegrees>
            </Position>
            <AltitudeMeters>1104.199951171875</AltitudeMeters>
            <DistanceMeters>NAN</DistanceMeters>
          </Trackpoint>
          <Trackpoint>
            <Time>2019-08-01T11:26:47.000Z</Time>
            <Position>
              <LatitudeDegrees>40.705566108226776123046875</LatitudeDegrees>
              <LongitudeDegrees>-4.00432976894080638885498046875</LongitudeDegrees>
            </Position>
            <AltitudeMeters>1104.4000244140625</AltitudeMeters>
            <DistanceMeters>NAN</DistanceMeters>
          </Trackpoint>
          <Trackpoint>
            <Time>2019-08-01T11:26:48.000Z</Time>
            <Position>
              <LatitudeDegrees>40.70560969412326812744140625</LatitudeDegrees>
              <LongitudeDegrees>-4.0043464489281177520751953125</LongitudeDegrees>
            </Position>
            <AltitudeMeters>1104.5999755859375</AltitudeMeters>
            <DistanceMeters>NAN</DistanceMeters>
          </Trackpoint>
          <Trackpoint>
            <Time>2019-08-01T11:26:49.000Z</Time>
            <Position>
              <LatitudeDegrees>40.70565336383879184722900390625</LatitudeDegrees>
              <LongitudeDegrees>-4.0043648891150951385498046875</LongitudeDegrees>
            </Position>
            <AltitudeMeters>1104.800048828125</AltitudeMeters>
            <DistanceMeters>NAN</DistanceMeters>
          </Trackpoint>
          <Trackpoint>
            <Time>2019-08-01T11:26:50.000Z</Time>
            <Position>
              <LatitudeDegrees>40.705697536468505859375</LatitudeDegrees>
              <LongitudeDegrees>-4.0043839998543262481689453125</LongitudeDegrees>
            </Position>
            <AltitudeMeters>1105.199951171875</AltitudeMeters>
            <DistanceMeters>NAN</DistanceMeters>
          </Trackpoint>
          <Trackpoint>
            <Time>2019-08-01T11:26:51.000Z</Time>
            <Position>
              <LatitudeDegrees>40.7057406194508075714111328125</LatitudeDegrees>
              <LongitudeDegrees>-4.004403613507747650146484375</LongitudeDegrees>
            </Position>
            <AltitudeMeters>1105.4000244140625</AltitudeMeters>
            <DistanceMeters>NAN</DistanceMeters>
          </Trackpoint>
          <Trackpoint>
            <Time>2019-08-01T11:26:52.000Z</Time>
            <Position>
              <LatitudeDegrees>40.70578361861407756805419921875</LatitudeDegrees>
              <LongitudeDegrees>-4.0044232271611690521240234375</LongitudeDegrees>
            </Position>
            <AltitudeMeters>1105.800048828125</AltitudeMeters>
            <DistanceMeters>NAN</DistanceMeters>
          </Trackpoint>
          <Trackpoint>
            <Time>2019-08-01T11:26:53.000Z</Time>
            <Position>
              <LatitudeDegrees>40.70582703687250614166259765625</LatitudeDegrees>
              <LongitudeDegrees>-4.0044414997100830078125</LongitudeDegrees>
            </Position>
            <AltitudeMeters>1105.800048828125</AltitudeMeters>
            <DistanceMeters>NAN</DistanceMeters>
          </Trackpoint>
          <Trackpoint>
            <Time>2019-08-01T11:26:54.000Z</Time>
            <Position>
              <LatitudeDegrees>40.7058707065880298614501953125</LatitudeDegrees>
              <LongitudeDegrees>-4.00445968843996524810791015625</LongitudeDegrees>
            </Position>
            <AltitudeMeters>1106</AltitudeMeters>
            <DistanceMeters>NAN</DistanceMeters>
          </Trackpoint>
          <Trackpoint>
            <Time>2019-08-01T11:26:55.000Z</Time>
            <Position>
              <LatitudeDegrees>40.70591420866549015045166015625</LatitudeDegrees>
              <LongitudeDegrees>-4.00447829626500606536865234375</LongitudeDegrees>
            </Position>
            <AltitudeMeters>1106.199951171875</AltitudeMeters>
            <DistanceMeters>NAN</DistanceMeters>
          </Trackpoint>
          <Trackpoint>
            <Time>2019-08-01T11:26:56.000Z</Time>
            <Position>
              <LatitudeDegrees>40.705957375466823577880859375</LatitudeDegrees>
              <LongitudeDegrees>-4.00449707172811031341552734375</LongitudeDegrees>
            </Position>
            <AltitudeMeters>1106.199951171875</AltitudeMeters>
            <DistanceMeters>NAN</DistanceMeters>
          </Trackpoint>
          <Trackpoint>
            <Time>2019-08-01T11:26:57.000Z</Time>
            <Position>
              <LatitudeDegrees>40.70600020699203014373779296875</LatitudeDegrees>
              <LongitudeDegrees>-4.0045150928199291229248046875</LongitudeDegrees>
            </Position>
            <AltitudeMeters>1106.4000244140625</AltitudeMeters>
            <DistanceMeters>NAN</DistanceMeters>
          </Trackpoint>
          <Trackpoint>
            <Time>2019-08-01T11:26:58.000Z</Time>
            <Position>
              <LatitudeDegrees>40.70600020699203014373779296875</LatitudeDegrees>
              <LongitudeDegrees>-4.0045150928199291229248046875</LongitudeDegrees>
            </Position>
            <AltitudeMeters>1106.800048828125</AltitudeMeters>
            <DistanceMeters>NAN</DistanceMeters>
          </Trackpoint>
          <Trackpoint>
            <Time>2019-08-01T11:27:00.000Z</Time>
            <Position>
              <LatitudeDegrees>40.70613096468150615692138671875</LatitudeDegrees>
              <LongitudeDegrees>-4.00456999428570270538330078125</LongitudeDegrees>
            </Position>
            <AltitudeMeters>1107.4000244140625</AltitudeMeters>
            <DistanceMeters>NAN</DistanceMeters>
          </Trackpoint>
          <Trackpoint>
            <Time>2019-08-01T11:27:01.000Z</Time>
            <Position>
              <LatitudeDegrees>40.7061744667589664459228515625</LatitudeDegrees>
              <LongitudeDegrees>-4.0045871771872043609619140625</LongitudeDegrees>
            </Position>
            <AltitudeMeters>1107.5999755859375</AltitudeMeters>
            <DistanceMeters>NAN</DistanceMeters>
          </Trackpoint>
          <Trackpoint>
            <Time>2019-08-01T11:27:02.000Z</Time>
            <Position>
              <LatitudeDegrees>40.7062187232077121734619140625</LatitudeDegrees>
              <LongitudeDegrees>-4.00460368953645229339599609375</LongitudeDegrees>
            </Position>
            <AltitudeMeters>1107.5999755859375</AltitudeMeters>
            <DistanceMeters>NAN</DistanceMeters>
          </Trackpoint>
          <Trackpoint>
            <Time>2019-08-01T11:27:03.000Z</Time>
            <Position>
              <LatitudeDegrees>40.70626306347548961639404296875</LatitudeDegrees>
              <LongitudeDegrees>-4.004618190228939056396484375</LongitudeDegrees>
            </Position>
            <AltitudeMeters>1107.5999755859375</AltitudeMeters>
            <DistanceMeters>NAN</DistanceMeters>
          </Trackpoint>
          <Trackpoint>
            <Time>2019-08-01T11:27:04.000Z</Time>
            <Position>
              <LatitudeDegrees>40.70630698464810848236083984375</LatitudeDegrees>
              <LongitudeDegrees>-4.00463386438786983489990234375</LongitudeDegrees>
            </Position>
            <AltitudeMeters>1107.800048828125</AltitudeMeters>
            <DistanceMeters>NAN</DistanceMeters>
          </Trackpoint>
          <Trackpoint>
            <Time>2019-08-01T11:27:05.000Z</Time>
            <Position>
              <LatitudeDegrees>40.70635107345879077911376953125</LatitudeDegrees>
              <LongitudeDegrees>-4.00464979000389575958251953125</LongitudeDegrees>
            </Position>
            <AltitudeMeters>1107.800048828125</AltitudeMeters>
            <DistanceMeters>NAN</DistanceMeters>
          </Trackpoint>
          <Trackpoint>
            <Time>2019-08-01T11:27:06.000Z</Time>
            <Position>
              <LatitudeDegrees>40.7063950784504413604736328125</LatitudeDegrees>
              <LongitudeDegrees>-4.004665128886699676513671875</LongitudeDegrees>
            </Position>
            <AltitudeMeters>1107.800048828125</AltitudeMeters>
            <DistanceMeters>NAN</DistanceMeters>
          </Trackpoint>
          <Trackpoint>
            <Time>2019-08-01T11:27:07.000Z</Time>
            <Position>
              <LatitudeDegrees>40.7064389996230602264404296875</LatitudeDegrees>
              <LongitudeDegrees>-4.00468164123594760894775390625</LongitudeDegrees>
            </Position>
            <AltitudeMeters>1107.800048828125</AltitudeMeters>
            <DistanceMeters>NAN</DistanceMeters>
          </Trackpoint>
          <Trackpoint>
            <Time>2019-08-01T11:27:09.000Z</Time>
            <Position>
              <LatitudeDegrees>40.70652625523507595062255859375</LatitudeDegrees>
              <LongitudeDegrees>-4.00471751578152179718017578125</LongitudeDegrees>
            </Position>
            <AltitudeMeters>1108.199951171875</AltitudeMeters>
            <DistanceMeters>NAN</DistanceMeters>
          </Trackpoint>
          <Trackpoint>
            <Time>2019-08-01T11:27:10.000Z</Time>
            <Position>
              <LatitudeDegrees>40.70656917057931423187255859375</LatitudeDegrees>
              <LongitudeDegrees>-4.0047377161681652069091796875</LongitudeDegrees>
            </Position>
            <AltitudeMeters>1108.4000244140625</AltitudeMeters>
            <DistanceMeters>NAN</DistanceMeters>
          </Trackpoint>
          <Trackpoint>
            <Time>2019-08-01T11:27:11.000Z</Time>
            <Position>
              <LatitudeDegrees>40.706612169742584228515625</LatitudeDegrees>
              <LongitudeDegrees>-4.00475657545030117034912109375</LongitudeDegrees>
            </Position>
            <AltitudeMeters>1108.5999755859375</AltitudeMeters>
            <DistanceMeters>NAN</DistanceMeters>
          </Trackpoint>
          <Trackpoint>
            <Time>2019-08-01T11:27:12.000Z</Time>
            <Position>
              <LatitudeDegrees>40.706656090915203094482421875</LatitudeDegrees>
              <LongitudeDegrees>-4.00477333925664424896240234375</LongitudeDegrees>
            </Position>
            <AltitudeMeters>1109</AltitudeMeters>
            <DistanceMeters>NAN</DistanceMeters>
          </Trackpoint>
          <Trackpoint>
            <Time>2019-08-01T11:27:13.000Z</Time>
            <Position>
              <LatitudeDegrees>40.70670110173523426055908203125</LatitudeDegrees>
              <LongitudeDegrees>-4.00478859432041645050048828125</LongitudeDegrees>
            </Position>
            <AltitudeMeters>1109.199951171875</AltitudeMeters>
            <DistanceMeters>NAN</DistanceMeters>
          </Trackpoint>
          <Trackpoint>
            <Time>2019-08-01T11:27:14.000Z</Time>
            <Position>
              <LatitudeDegrees>40.7067454420030117034912109375</LatitudeDegrees>
              <LongitudeDegrees>-4.0048049390316009521484375</LongitudeDegrees>
            </Position>
            <AltitudeMeters>1109.4000244140625</AltitudeMeters>
            <DistanceMeters>NAN</DistanceMeters>
          </Trackpoint>
          <Trackpoint>
            <Time>2019-08-01T11:27:15.000Z</Time>
            <Position>
              <LatitudeDegrees>40.7067890278995037078857421875</LatitudeDegrees>
              <LongitudeDegrees>-4.00482329539954662322998046875</LongitudeDegrees>
            </Position>
            <AltitudeMeters>1109.4000244140625</AltitudeMeters>
            <DistanceMeters>NAN</DistanceMeters>
          </Trackpoint>
          <Trackpoint>
            <Time>2019-08-01T11:27:16.000Z</Time>
            <Position>
              <LatitudeDegrees>40.706832446157932281494140625</LatitudeDegrees>
              <LongitudeDegrees>-4.0048413164913654327392578125</LongitudeDegrees>
            </Position>
            <AltitudeMeters>1109.800048828125</AltitudeMeters>
            <DistanceMeters>NAN</DistanceMeters>
          </Trackpoint>
          <Trackpoint>
            <Time>2019-08-01T11:27:17.000Z</Time>
            <Position>
              <LatitudeDegrees>40.7068761996924877166748046875</LatitudeDegrees>
              <LongitudeDegrees>-4.0048580802977085113525390625</LongitudeDegrees>
            </Position>
            <AltitudeMeters>1110</AltitudeMeters>
            <DistanceMeters>NAN</DistanceMeters>
          </Trackpoint>
          <Trackpoint>
            <Time>2019-08-01T11:27:18.000Z</Time>
            <Position>
              <LatitudeDegrees>40.7069194503128528594970703125</LatitudeDegrees>
              <LongitudeDegrees>-4.00487476028501987457275390625</LongitudeDegrees>
            </Position>
            <AltitudeMeters>1110</AltitudeMeters>
            <DistanceMeters>NAN</DistanceMeters>
          </Trackpoint>
          <Trackpoint>
            <Time>2019-08-01T11:27:19.000Z</Time>
            <Position>
              <LatitudeDegrees>40.70696261711418628692626953125</LatitudeDegrees>
              <LongitudeDegrees>-4.0048912726342678070068359375</LongitudeDegrees>
            </Position>
            <AltitudeMeters>1110.199951171875</AltitudeMeters>
            <DistanceMeters>NAN</DistanceMeters>
          </Trackpoint>
          <Trackpoint>
            <Time>2019-08-01T11:27:20.000Z</Time>
            <Position>
              <LatitudeDegrees>40.707006119191646575927734375</LatitudeDegrees>
              <LongitudeDegrees>-4.00490761734545230865478515625</LongitudeDegrees>
            </Position>
            <AltitudeMeters>1110.4000244140625</AltitudeMeters>
            <DistanceMeters>NAN</DistanceMeters>
          </Trackpoint>
          <Trackpoint>
            <Time>2019-08-01T11:27:21.000Z</Time>
            <Position>
              <LatitudeDegrees>40.70704869925975799560546875</LatitudeDegrees>
              <LongitudeDegrees>-4.0049231238663196563720703125</LongitudeDegrees>
            </Position>
            <AltitudeMeters>1110.5999755859375</AltitudeMeters>
            <DistanceMeters>NAN</DistanceMeters>
          </Trackpoint>
          <Trackpoint>
            <Time>2019-08-01T11:27:22.000Z</Time>
            <Position>
              <LatitudeDegrees>40.70709002204239368438720703125</LatitudeDegrees>
              <LongitudeDegrees>-4.004939384758472442626953125</LongitudeDegrees>
            </Position>
            <AltitudeMeters>1110.800048828125</AltitudeMeters>
            <DistanceMeters>NAN</DistanceMeters>
          </Trackpoint>
          <Trackpoint>
            <Time>2019-08-01T11:27:23.000Z</Time>
            <Position>
              <LatitudeDegrees>40.7071306742727756500244140625</LatitudeDegrees>
              <LongitudeDegrees>-4.00495472364127635955810546875</LongitudeDegrees>
            </Position>
            <AltitudeMeters>1111</AltitudeMeters>
            <DistanceMeters>NAN</DistanceMeters>
          </Trackpoint>
          <Trackpoint>
            <Time>2019-08-01T11:27:24.000Z</Time>
            <Position>
              <LatitudeDegrees>40.7071702368557453155517578125</LatitudeDegrees>
              <LongitudeDegrees>-4.00497131980955600738525390625</LongitudeDegrees>
            </Position>
            <AltitudeMeters>1111.4000244140625</AltitudeMeters>
            <DistanceMeters>NAN</DistanceMeters>
          </Trackpoint>
          <Trackpoint>
            <Time>2019-08-01T11:27:25.000Z</Time>
            <Position>
              <LatitudeDegrees>40.7072087936103343963623046875</LatitudeDegrees>
              <LongitudeDegrees>-4.0049873292446136474609375</LongitudeDegrees>
            </Position>
            <AltitudeMeters>1111.4000244140625</AltitudeMeters>
            <DistanceMeters>NAN</DistanceMeters>
          </Trackpoint>
          <Trackpoint>
            <Time>2019-08-01T11:27:26.000Z</Time>
            <Position>
              <LatitudeDegrees>40.70724776946008205413818359375</LatitudeDegrees>
              <LongitudeDegrees>-4.00500283576548099517822265625</LongitudeDegrees>
            </Position>
            <AltitudeMeters>1111.5999755859375</AltitudeMeters>
            <DistanceMeters>NAN</DistanceMeters>
          </Trackpoint>
          <Trackpoint>
            <Time>2019-08-01T11:27:27.000Z</Time>
            <Position>
              <LatitudeDegrees>40.70728649385273456573486328125</LatitudeDegrees>
              <LongitudeDegrees>-4.0050173364579677581787109375</LongitudeDegrees>
            </Position>
            <AltitudeMeters>1111.5999755859375</AltitudeMeters>
            <DistanceMeters>NAN</DistanceMeters>
          </Trackpoint>
          <Trackpoint>
            <Time>2019-08-01T11:27:28.000Z</Time>
            <Position>
              <LatitudeDegrees>40.70732488296926021575927734375</LatitudeDegrees>
              <LongitudeDegrees>-4.00503166951239109039306640625</LongitudeDegrees>
            </Position>
            <AltitudeMeters>1111.5999755859375</AltitudeMeters>
            <DistanceMeters>NAN</DistanceMeters>
          </Trackpoint>
          <Trackpoint>
            <Time>2019-08-01T11:27:29.000Z</Time>
            <Position>
              <LatitudeDegrees>40.7073630206286907196044921875</LatitudeDegrees>
              <LongitudeDegrees>-4.00504625402390956878662109375</LongitudeDegrees>
            </Position>
            <AltitudeMeters>1112</AltitudeMeters>
            <DistanceMeters>NAN</DistanceMeters>
          </Trackpoint>
          <Trackpoint>
            <Time>2019-08-01T11:27:30.000Z</Time>
            <Position>
              <LatitudeDegrees>40.70740132592618465423583984375</LatitudeDegrees>
              <LongitudeDegrees>-4.00506083853542804718017578125</LongitudeDegrees>
            </Position>
            <AltitudeMeters>1112.4000244140625</AltitudeMeters>
            <DistanceMeters>NAN</DistanceMeters>
          </Trackpoint>
          <Trackpoint>
            <Time>2019-08-01T11:27:31.000Z</Time>
            <Position>
              <LatitudeDegrees>40.707438625395298004150390625</LatitudeDegrees>
              <LongitudeDegrees>-4.00507450103759765625</LongitudeDegrees>
            </Position>
            <AltitudeMeters>1112.5999755859375</AltitudeMeters>
            <DistanceMeters>NAN</DistanceMeters>
          </Trackpoint>
          <Trackpoint>
            <Time>2019-08-01T11:27:32.000Z</Time>
            <Position>
              <LatitudeDegrees>40.707476176321506500244140625</LatitudeDegrees>
              <LongitudeDegrees>-4.0050894208252429962158203125</LongitudeDegrees>
            </Position>
            <AltitudeMeters>1112.800048828125</AltitudeMeters>
            <DistanceMeters>NAN</DistanceMeters>
          </Trackpoint>
          <Trackpoint>
            <Time>2019-08-01T11:27:33.000Z</Time>
            <Position>
              <LatitudeDegrees>40.7075128890573978424072265625</LatitudeDegrees>
              <LongitudeDegrees>-4.005105011165142059326171875</LongitudeDegrees>
            </Position>
            <AltitudeMeters>1113.199951171875</AltitudeMeters>
            <DistanceMeters>NAN</DistanceMeters>
          </Trackpoint>
          <Trackpoint>
            <Time>2019-08-01T11:27:34.000Z</Time>
            <Position>
              <LatitudeDegrees>40.70754951797425746917724609375</LatitudeDegrees>
              <LongitudeDegrees>-4.00511800311505794525146484375</LongitudeDegrees>
            </Position>
            <AltitudeMeters>1113.4000244140625</AltitudeMeters>
            <DistanceMeters>NAN</DistanceMeters>
          </Trackpoint>
          <Trackpoint>
            <Time>2019-08-01T11:27:35.000Z</Time>
            <Position>
              <LatitudeDegrees>40.7075863145291805267333984375</LatitudeDegrees>
              <LongitudeDegrees>-4.00513141416013240814208984375</LongitudeDegrees>
            </Position>
            <AltitudeMeters>1114</AltitudeMeters>
            <DistanceMeters>NAN</DistanceMeters>
          </Trackpoint>
          <Trackpoint>
            <Time>2019-08-01T11:27:36.000Z</Time>
            <Position>
              <LatitudeDegrees>40.70762336254119873046875</LatitudeDegrees>
              <LongitudeDegrees>-4.00514750741422176361083984375</LongitudeDegrees>
            </Position>
            <AltitudeMeters>1114.4000244140625</AltitudeMeters>
            <DistanceMeters>NAN</DistanceMeters>
          </Trackpoint>
          <Trackpoint>
            <Time>2019-08-01T11:27:37.000Z</Time>
            <Position>
              <LatitudeDegrees>40.70766082964837551116943359375</LatitudeDegrees>
              <LongitudeDegrees>-4.005162678658962249755859375</LongitudeDegrees>
            </Position>
            <AltitudeMeters>1115.4000244140625</AltitudeMeters>
            <DistanceMeters>NAN</DistanceMeters>
          </Trackpoint>
          <Trackpoint>
            <Time>2019-08-01T11:27:38.000Z</Time>
            <Position>
              <LatitudeDegrees>40.70769838057458400726318359375</LatitudeDegrees>
              <LongitudeDegrees>-4.00517801754176616668701171875</LongitudeDegrees>
            </Position>
            <AltitudeMeters>1116</AltitudeMeters>
            <DistanceMeters>NAN</DistanceMeters>
          </Trackpoint>
          <Trackpoint>
            <Time>2019-08-01T11:27:39.000Z</Time>
            <Position>
              <LatitudeDegrees>40.70773601531982421875</LatitudeDegrees>
              <LongitudeDegrees>-4.00519209913909435272216796875</LongitudeDegrees>
            </Position>
            <AltitudeMeters>1116.199951171875</AltitudeMeters>
            <DistanceMeters>NAN</DistanceMeters>
          </Trackpoint>
          <Trackpoint>
            <Time>2019-08-01T11:27:40.000Z</Time>
            <Position>
              <LatitudeDegrees>40.707773230969905853271484375</LatitudeDegrees>
              <LongitudeDegrees>-4.00520467199385166168212890625</LongitudeDegrees>
            </Position>
            <AltitudeMeters>1116.4000244140625</AltitudeMeters>
            <DistanceMeters>NAN</DistanceMeters>
          </Trackpoint>
          <Trackpoint>
            <Time>2019-08-01T11:27:41.000Z</Time>
            <Position>
              <LatitudeDegrees>40.70780969224870204925537109375</LatitudeDegrees>
              <LongitudeDegrees>-4.0052161552011966705322265625</LongitudeDegrees>
            </Position>
            <AltitudeMeters>1116.5999755859375</AltitudeMeters>
            <DistanceMeters>NAN</DistanceMeters>
          </Trackpoint>
          <Trackpoint>
            <Time>2019-08-01T11:27:42.000Z</Time>
            <Position>
              <LatitudeDegrees>40.70784539915621280670166015625</LatitudeDegrees>
              <LongitudeDegrees>-4.00522713549435138702392578125</LongitudeDegrees>
            </Position>
            <AltitudeMeters>1116.800048828125</AltitudeMeters>
            <DistanceMeters>NAN</DistanceMeters>
          </Trackpoint>
          <Trackpoint>
            <Time>2019-08-01T11:27:43.000Z</Time>
            <Position>
              <LatitudeDegrees>40.707879848778247833251953125</LatitudeDegrees>
              <LongitudeDegrees>-4.005238115787506103515625</LongitudeDegrees>
            </Position>
            <AltitudeMeters>1116.800048828125</AltitudeMeters>
            <DistanceMeters>NAN</DistanceMeters>
          </Trackpoint>
          <Trackpoint>
            <Time>2019-08-01T11:27:44.000Z</Time>
            <Position>
              <LatitudeDegrees>40.70791278965771198272705078125</LatitudeDegrees>
              <LongitudeDegrees>-4.0052501857280731201171875</LongitudeDegrees>
            </Position>
            <AltitudeMeters>1117</AltitudeMeters>
            <DistanceMeters>NAN</DistanceMeters>
          </Trackpoint>
          <Trackpoint>
            <Time>2019-08-01T11:27:45.000Z</Time>
            <Position>
              <LatitudeDegrees>40.70794631727039813995361328125</LatitudeDegrees>
              <LongitudeDegrees>-4.00526301003992557525634765625</LongitudeDegrees>
            </Position>
            <AltitudeMeters>1117</AltitudeMeters>
            <DistanceMeters>NAN</DistanceMeters>
          </Trackpoint>
          <Trackpoint>
            <Time>2019-08-01T11:27:46.000Z</Time>
            <Position>
              <LatitudeDegrees>40.70794631727039813995361328125</LatitudeDegrees>
              <LongitudeDegrees>-4.00526301003992557525634765625</LongitudeDegrees>
            </Position>
            <AltitudeMeters>1117.199951171875</AltitudeMeters>
            <DistanceMeters>NAN</DistanceMeters>
          </Trackpoint>
          <Trackpoint>
            <Time>2019-08-01T11:27:47.000Z</Time>
            <Position>
              <LatitudeDegrees>40.70801437832415103912353515625</LatitudeDegrees>
              <LongitudeDegrees>-4.00528798811137676239013671875</LongitudeDegrees>
            </Position>
            <AltitudeMeters>1117.5999755859375</AltitudeMeters>
            <DistanceMeters>NAN</DistanceMeters>
          </Trackpoint>
          <Trackpoint>
            <Time>2019-08-01T11:27:48.000Z</Time>
            <Position>
              <LatitudeDegrees>40.7080489955842494964599609375</LatitudeDegrees>
              <LongitudeDegrees>-4.00530047714710235595703125</LongitudeDegrees>
            </Position>
            <AltitudeMeters>1117.800048828125</AltitudeMeters>
            <DistanceMeters>NAN</DistanceMeters>
          </Trackpoint>
          <Trackpoint>
            <Time>2019-08-01T11:27:49.000Z</Time>
            <Position>
              <LatitudeDegrees>40.7080831937491893768310546875</LatitudeDegrees>
              <LongitudeDegrees>-4.005312882363796234130859375</LongitudeDegrees>
            </Position>
            <AltitudeMeters>1118</AltitudeMeters>
            <DistanceMeters>NAN</DistanceMeters>
          </Trackpoint>
          <Trackpoint>
            <Time>2019-08-01T11:27:50.000Z</Time>
            <Position>
              <LatitudeDegrees>40.70811764337122440338134765625</LatitudeDegrees>
              <LongitudeDegrees>-4.00532503612339496612548828125</LongitudeDegrees>
            </Position>
            <AltitudeMeters>1118.4000244140625</AltitudeMeters>
            <DistanceMeters>NAN</DistanceMeters>
          </Trackpoint>
          <Trackpoint>
            <Time>2019-08-01T11:27:51.000Z</Time>
            <Position>
              <LatitudeDegrees>40.70815200917422771453857421875</LatitudeDegrees>
              <LongitudeDegrees>-4.005337022244930267333984375</LongitudeDegrees>
            </Position>
            <AltitudeMeters>1118.5999755859375</AltitudeMeters>
            <DistanceMeters>NAN</DistanceMeters>
          </Trackpoint>
          <Trackpoint>
            <Time>2019-08-01T11:27:52.000Z</Time>
            <Position>
              <LatitudeDegrees>40.70815200917422771453857421875</LatitudeDegrees>
              <LongitudeDegrees>-4.005337022244930267333984375</LongitudeDegrees>
            </Position>
            <AltitudeMeters>1118.800048828125</AltitudeMeters>
            <DistanceMeters>NAN</DistanceMeters>
          </Trackpoint>
          <Trackpoint>
            <Time>2019-08-01T11:27:53.000Z</Time>
            <Position>
              <LatitudeDegrees>40.70821948349475860595703125</LatitudeDegrees>
              <LongitudeDegrees>-4.0053630061447620391845703125</LongitudeDegrees>
            </Position>
            <AltitudeMeters>1119</AltitudeMeters>
            <DistanceMeters>NAN</DistanceMeters>
          </Trackpoint>
          <Trackpoint>
            <Time>2019-08-01T11:27:54.000Z</Time>
            <Position>
              <LatitudeDegrees>40.708253346383571624755859375</LatitudeDegrees>
              <LongitudeDegrees>-4.0053764171898365020751953125</LongitudeDegrees>
            </Position>
            <AltitudeMeters>1119.199951171875</AltitudeMeters>
            <DistanceMeters>NAN</DistanceMeters>
          </Trackpoint>
          <Trackpoint>
            <Time>2019-08-01T11:27:55.000Z</Time>
            <Position>
              <LatitudeDegrees>40.7082872092723846435546875</LatitudeDegrees>
              <LongitudeDegrees>-4.0053891576826572418212890625</LongitudeDegrees>
            </Position>
            <AltitudeMeters>1119.4000244140625</AltitudeMeters>
            <DistanceMeters>NAN</DistanceMeters>
          </Trackpoint>
          <Trackpoint>
            <Time>2019-08-01T11:27:56.000Z</Time>
            <Position>
              <LatitudeDegrees>40.70832199417054653167724609375</LatitudeDegrees>
              <LongitudeDegrees>-4.0053992159664630889892578125</LongitudeDegrees>
            </Position>
            <AltitudeMeters>1119.5999755859375</AltitudeMeters>
            <DistanceMeters>NAN</DistanceMeters>
          </Trackpoint>
          <Trackpoint>
            <Time>2019-08-01T11:27:57.000Z</Time>
            <Position>
              <LatitudeDegrees>40.7083567790687084197998046875</LatitudeDegrees>
              <LongitudeDegrees>-4.00540717877447605133056640625</LongitudeDegrees>
            </Position>
            <AltitudeMeters>1119.800048828125</AltitudeMeters>
            <DistanceMeters>NAN</DistanceMeters>
          </Trackpoint>
          <Trackpoint>
            <Time>2019-08-01T11:27:58.000Z</Time>
            <Position>
              <LatitudeDegrees>40.7083567790687084197998046875</LatitudeDegrees>
              <LongitudeDegrees>-4.00540717877447605133056640625</LongitudeDegrees>
            </Position>
            <AltitudeMeters>1120</AltitudeMeters>
            <DistanceMeters>NAN</DistanceMeters>
          </Trackpoint>
          <Trackpoint>
            <Time>2019-08-01T11:27:59.000Z</Time>
            <Position>
              <LatitudeDegrees>40.70842676796019077301025390625</LatitudeDegrees>
              <LongitudeDegrees>-4.00542343966662883758544921875</LongitudeDegrees>
            </Position>
            <AltitudeMeters>1120</AltitudeMeters>
            <DistanceMeters>NAN</DistanceMeters>
          </Trackpoint>
          <Trackpoint>
            <Time>2019-08-01T11:28:00.000Z</Time>
            <Position>
              <LatitudeDegrees>40.70846163667738437652587890625</LatitudeDegrees>
              <LongitudeDegrees>-4.00543249212205410003662109375</LongitudeDegrees>
            </Position>
            <AltitudeMeters>1120.4000244140625</AltitudeMeters>
            <DistanceMeters>NAN</DistanceMeters>
          </Trackpoint>
          <Trackpoint>
            <Time>2019-08-01T11:28:01.000Z</Time>
            <Position>
              <LatitudeDegrees>40.7084955833852291107177734375</LatitudeDegrees>
              <LongitudeDegrees>-4.00544120930135250091552734375</LongitudeDegrees>
            </Position>
            <AltitudeMeters>1120.800048828125</AltitudeMeters>
            <DistanceMeters>NAN</DistanceMeters>
          </Trackpoint>
          <Trackpoint>
            <Time>2019-08-01T11:28:02.000Z</Time>
            <Position>
              <LatitudeDegrees>40.70853003300726413726806640625</LatitudeDegrees>
              <LongitudeDegrees>-4.0054518543183803558349609375</LongitudeDegrees>
            </Position>
            <AltitudeMeters>1121</AltitudeMeters>
            <DistanceMeters>NAN</DistanceMeters>
          </Trackpoint>
          <Trackpoint>
            <Time>2019-08-01T11:28:03.000Z</Time>
            <Position>
              <LatitudeDegrees>40.708563141524791717529296875</LatitudeDegrees>
              <LongitudeDegrees>-4.005463756620883941650390625</LongitudeDegrees>
            </Position>
            <AltitudeMeters>1121.4000244140625</AltitudeMeters>
            <DistanceMeters>NAN</DistanceMeters>
          </Trackpoint>
          <Trackpoint>
            <Time>2019-08-01T11:28:04.000Z</Time>
            <Position>
              <LatitudeDegrees>40.70859641768038272857666015625</LatitudeDegrees>
              <LongitudeDegrees>-4.00547708384692668914794921875</LongitudeDegrees>
            </Position>
            <AltitudeMeters>1121.199951171875</AltitudeMeters>
            <DistanceMeters>NAN</DistanceMeters>
          </Trackpoint>
          <Trackpoint>
            <Time>2019-08-01T11:28:05.000Z</Time>
            <Position>
              <LatitudeDegrees>40.7086296938359737396240234375</LatitudeDegrees>
              <LongitudeDegrees>-4.0054897405207157135009765625</LongitudeDegrees>
            </Position>
            <AltitudeMeters>1121.800048828125</AltitudeMeters>
            <DistanceMeters>NAN</DistanceMeters>
          </Trackpoint>
          <Trackpoint>
            <Time>2019-08-01T11:28:06.000Z</Time>
            <Position>
              <LatitudeDegrees>40.70866380818188190460205078125</LatitudeDegrees>
              <LongitudeDegrees>-4.0055014751851558685302734375</LongitudeDegrees>
            </Position>
            <AltitudeMeters>1122.199951171875</AltitudeMeters>
            <DistanceMeters>NAN</DistanceMeters>
          </Trackpoint>
          <Trackpoint>
            <Time>2019-08-01T11:28:07.000Z</Time>
            <Position>
              <LatitudeDegrees>40.708698593080043792724609375</LatitudeDegrees>
              <LongitudeDegrees>-4.0055130422115325927734375</LongitudeDegrees>
            </Position>
            <AltitudeMeters>1122.4000244140625</AltitudeMeters>
            <DistanceMeters>NAN</DistanceMeters>
          </Trackpoint>
          <Trackpoint>
            <Time>2019-08-01T11:28:08.000Z</Time>
            <Position>
              <LatitudeDegrees>40.70873354561626911163330078125</LatitudeDegrees>
              <LongitudeDegrees>-4.005525112152099609375</LongitudeDegrees>
            </Position>
            <AltitudeMeters>1122.5999755859375</AltitudeMeters>
            <DistanceMeters>NAN</DistanceMeters>
          </Trackpoint>
          <Trackpoint>
            <Time>2019-08-01T11:28:09.000Z</Time>
            <Position>
              <LatitudeDegrees>40.708768665790557861328125</LatitudeDegrees>
              <LongitudeDegrees>-4.00553743354976177215576171875</LongitudeDegrees>
            </Position>
            <AltitudeMeters>1122.800048828125</AltitudeMeters>
            <DistanceMeters>NAN</DistanceMeters>
          </Trackpoint>
          <Trackpoint>
            <Time>2019-08-01T11:28:10.000Z</Time>
            <Position>
              <LatitudeDegrees>40.70880428887903690338134765625</LatitudeDegrees>
              <LongitudeDegrees>-4.005550257861614227294921875</LongitudeDegrees>
            </Position>
            <AltitudeMeters>1123.199951171875</AltitudeMeters>
            <DistanceMeters>NAN</DistanceMeters>
          </Trackpoint>
          <Trackpoint>
            <Time>2019-08-01T11:28:11.000Z</Time>
            <Position>
              <LatitudeDegrees>40.7088397443294525146484375</LatitudeDegrees>
              <LongitudeDegrees>-4.00556333363056182861328125</LongitudeDegrees>
            </Position>
            <AltitudeMeters>1123.4000244140625</AltitudeMeters>
            <DistanceMeters>NAN</DistanceMeters>
          </Trackpoint>
          <Trackpoint>
            <Time>2019-08-01T11:28:12.000Z</Time>
            <Position>
              <LatitudeDegrees>40.70887528359889984130859375</LatitudeDegrees>
              <LongitudeDegrees>-4.0055774152278900146484375</LongitudeDegrees>
            </Position>
            <AltitudeMeters>1123.800048828125</AltitudeMeters>
            <DistanceMeters>NAN</DistanceMeters>
          </Trackpoint>
          <Trackpoint>
            <Time>2019-08-01T11:28:13.000Z</Time>
            <Position>
              <LatitudeDegrees>40.70891006849706172943115234375</LatitudeDegrees>
              <LongitudeDegrees>-4.0055935084819793701171875</LongitudeDegrees>
            </Position>
            <AltitudeMeters>1124</AltitudeMeters>
            <DistanceMeters>NAN</DistanceMeters>
          </Trackpoint>
          <Trackpoint>
            <Time>2019-08-01T11:28:14.000Z</Time>
            <Position>
              <LatitudeDegrees>40.70894476957619190216064453125</LatitudeDegrees>
              <LongitudeDegrees>-4.0056096017360687255859375</LongitudeDegrees>
            </Position>
            <AltitudeMeters>1124.199951171875</AltitudeMeters>
            <DistanceMeters>NAN</DistanceMeters>
          </Trackpoint>
          <Trackpoint>
            <Time>2019-08-01T11:28:15.000Z</Time>
            <Position>
              <LatitudeDegrees>40.708979554474353790283203125</LatitudeDegrees>
              <LongitudeDegrees>-4.0056245215237140655517578125</LongitudeDegrees>
            </Position>
            <AltitudeMeters>1124.4000244140625</AltitudeMeters>
            <DistanceMeters>NAN</DistanceMeters>
          </Trackpoint>
          <Trackpoint>
            <Time>2019-08-01T11:28:16.000Z</Time>
            <Position>
              <LatitudeDegrees>40.70901467464864253997802734375</LatitudeDegrees>
              <LongitudeDegrees>-4.00563801638782024383544921875</LongitudeDegrees>
            </Position>
            <AltitudeMeters>1124.5999755859375</AltitudeMeters>
            <DistanceMeters>NAN</DistanceMeters>
          </Trackpoint>
          <Trackpoint>
            <Time>2019-08-01T11:28:17.000Z</Time>
            <Position>
              <LatitudeDegrees>40.70905004628002643585205078125</LatitudeDegrees>
              <LongitudeDegrees>-4.00565184652805328369140625</LongitudeDegrees>
            </Position>
            <AltitudeMeters>1125</AltitudeMeters>
            <DistanceMeters>NAN</DistanceMeters>
          </Trackpoint>
          <Trackpoint>
            <Time>2019-08-01T11:28:18.000Z</Time>
            <Position>
              <LatitudeDegrees>40.70908541791141033172607421875</LatitudeDegrees>
              <LongitudeDegrees>-4.00566668249666690826416015625</LongitudeDegrees>
            </Position>
            <AltitudeMeters>1125.199951171875</AltitudeMeters>
            <DistanceMeters>NAN</DistanceMeters>
          </Trackpoint>
          <Trackpoint>
            <Time>2019-08-01T11:28:19.000Z</Time>
            <Position>
              <LatitudeDegrees>40.7091208733618259429931640625</LatitudeDegrees>
              <LongitudeDegrees>-4.00568193756043910980224609375</LongitudeDegrees>
            </Position>
            <AltitudeMeters>1125.4000244140625</AltitudeMeters>
            <DistanceMeters>NAN</DistanceMeters>
          </Trackpoint>
          <Trackpoint>
            <Time>2019-08-01T11:28:20.000Z</Time>
            <Position>
              <LatitudeDegrees>40.70915649645030498504638671875</LatitudeDegrees>
              <LongitudeDegrees>-4.0056972764432430267333984375</LongitudeDegrees>
            </Position>
            <AltitudeMeters>1125.5999755859375</AltitudeMeters>
            <DistanceMeters>NAN</DistanceMeters>
          </Trackpoint>
          <Trackpoint>
            <Time>2019-08-01T11:28:21.000Z</Time>
            <Position>
              <LatitudeDegrees>40.70919186808168888092041015625</LatitudeDegrees>
              <LongitudeDegrees>-4.00571110658347606658935546875</LongitudeDegrees>
            </Position>
            <AltitudeMeters>1125.800048828125</AltitudeMeters>
            <DistanceMeters>NAN</DistanceMeters>
          </Trackpoint>
          <Trackpoint>
            <Time>2019-08-01T11:28:22.000Z</Time>
            <Position>
              <LatitudeDegrees>40.7092258147895336151123046875</LatitudeDegrees>
              <LongitudeDegrees>-4.00572585873305797576904296875</LongitudeDegrees>
            </Position>
            <AltitudeMeters>1126</AltitudeMeters>
            <DistanceMeters>NAN</DistanceMeters>
          </Trackpoint>
          <Trackpoint>
            <Time>2019-08-01T11:28:23.000Z</Time>
            <Position>
              <LatitudeDegrees>40.70926093496382236480712890625</LatitudeDegrees>
              <LongitudeDegrees>-4.00574128143489360809326171875</LongitudeDegrees>
            </Position>
            <AltitudeMeters>1126.4000244140625</AltitudeMeters>
            <DistanceMeters>NAN</DistanceMeters>
          </Trackpoint>
          <Trackpoint>
            <Time>2019-08-01T11:28:24.000Z</Time>
            <Position>
              <LatitudeDegrees>40.70929731242358684539794921875</LatitudeDegrees>
              <LongitudeDegrees>-4.0057562850415706634521484375</LongitudeDegrees>
            </Position>
            <AltitudeMeters>1126.800048828125</AltitudeMeters>
            <DistanceMeters>NAN</DistanceMeters>
          </Trackpoint>
          <Trackpoint>
            <Time>2019-08-01T11:28:25.000Z</Time>
            <Position>
              <LatitudeDegrees>40.7093341089785099029541015625</LatitudeDegrees>
              <LongitudeDegrees>-4.00577061809599399566650390625</LongitudeDegrees>
            </Position>
            <AltitudeMeters>1127</AltitudeMeters>
            <DistanceMeters>NAN</DistanceMeters>
          </Trackpoint>
          <Trackpoint>
            <Time>2019-08-01T11:28:26.000Z</Time>
            <Position>
              <LatitudeDegrees>40.70937174372375011444091796875</LatitudeDegrees>
              <LongitudeDegrees>-4.0057839453220367431640625</LongitudeDegrees>
            </Position>
            <AltitudeMeters>1127.4000244140625</AltitudeMeters>
            <DistanceMeters>NAN</DistanceMeters>
          </Trackpoint>
          <Trackpoint>
            <Time>2019-08-01T11:28:27.000Z</Time>
            <Position>
              <LatitudeDegrees>40.70940946228802204132080078125</LatitudeDegrees>
              <LongitudeDegrees>-4.00579475797712802886962890625</LongitudeDegrees>
            </Position>
            <AltitudeMeters>1127.5999755859375</AltitudeMeters>
            <DistanceMeters>NAN</DistanceMeters>
          </Trackpoint>
          <Trackpoint>
            <Time>2019-08-01T11:28:28.000Z</Time>
            <Position>
              <LatitudeDegrees>40.70944734849035739898681640625</LatitudeDegrees>
              <LongitudeDegrees>-4.00580364279448986053466796875</LongitudeDegrees>
            </Position>
            <AltitudeMeters>1128</AltitudeMeters>
            <DistanceMeters>NAN</DistanceMeters>
          </Trackpoint>
          <Trackpoint>
            <Time>2019-08-01T11:28:29.000Z</Time>
            <Position>
              <LatitudeDegrees>40.709485821425914764404296875</LatitudeDegrees>
              <LongitudeDegrees>-4.0058105997741222381591796875</LongitudeDegrees>
            </Position>
            <AltitudeMeters>1128.199951171875</AltitudeMeters>
            <DistanceMeters>NAN</DistanceMeters>
          </Trackpoint>
          <Trackpoint>
            <Time>2019-08-01T11:28:30.000Z</Time>
            <Position>
              <LatitudeDegrees>40.70952379144728183746337890625</LatitudeDegrees>
              <LongitudeDegrees>-4.0058186464011669158935546875</LongitudeDegrees>
            </Position>
            <AltitudeMeters>1128.199951171875</AltitudeMeters>
            <DistanceMeters>NAN</DistanceMeters>
          </Trackpoint>
          <Trackpoint>
            <Time>2019-08-01T11:28:31.000Z</Time>
            <Position>
              <LatitudeDegrees>40.709560923278331756591796875</LatitudeDegrees>
              <LongitudeDegrees>-4.0058260224759578704833984375</LongitudeDegrees>
            </Position>
            <AltitudeMeters>1128.4000244140625</AltitudeMeters>
            <DistanceMeters>NAN</DistanceMeters>
          </Trackpoint>
          <Trackpoint>
            <Time>2019-08-01T11:28:32.000Z</Time>
            <Position>
              <LatitudeDegrees>40.7095979712903499603271484375</LatitudeDegrees>
              <LongitudeDegrees>-4.0058330632746219635009765625</LongitudeDegrees>
            </Position>
            <AltitudeMeters>1128.5999755859375</AltitudeMeters>
            <DistanceMeters>NAN</DistanceMeters>
          </Trackpoint>
          <Trackpoint>
            <Time>2019-08-01T11:28:33.000Z</Time>
            <Position>
              <LatitudeDegrees>40.7096350193023681640625</LatitudeDegrees>
              <LongitudeDegrees>-4.0058384276926517486572265625</LongitudeDegrees>
            </Position>
            <AltitudeMeters>1129</AltitudeMeters>
            <DistanceMeters>NAN</DistanceMeters>
          </Trackpoint>
          <Trackpoint>
            <Time>2019-08-01T11:28:34.000Z</Time>
            <Position>
              <LatitudeDegrees>40.70967198349535465240478515625</LatitudeDegrees>
              <LongitudeDegrees>-4.00584287010133266448974609375</LongitudeDegrees>
            </Position>
            <AltitudeMeters>1129.4000244140625</AltitudeMeters>
            <DistanceMeters>NAN</DistanceMeters>
          </Trackpoint>
          <Trackpoint>
            <Time>2019-08-01T11:28:35.000Z</Time>
            <Position>
              <LatitudeDegrees>40.70970936678349971771240234375</LatitudeDegrees>
              <LongitudeDegrees>-4.005845971405506134033203125</LongitudeDegrees>
            </Position>
            <AltitudeMeters>1129.5999755859375</AltitudeMeters>
            <DistanceMeters>NAN</DistanceMeters>
          </Trackpoint>
          <Trackpoint>
            <Time>2019-08-01T11:28:36.000Z</Time>
            <Position>
              <LatitudeDegrees>40.70974641479551792144775390625</LatitudeDegrees>
              <LongitudeDegrees>-4.00584898889064788818359375</LongitudeDegrees>
            </Position>
            <AltitudeMeters>1129.800048828125</AltitudeMeters>
            <DistanceMeters>NAN</DistanceMeters>
          </Trackpoint>
          <Trackpoint>
            <Time>2019-08-01T11:28:37.000Z</Time>
            <Position>
              <LatitudeDegrees>40.70978295989334583282470703125</LatitudeDegrees>
              <LongitudeDegrees>-4.00585259310901165008544921875</LongitudeDegrees>
            </Position>
            <AltitudeMeters>1130</AltitudeMeters>
            <DistanceMeters>NAN</DistanceMeters>
          </Trackpoint>
          <Trackpoint>
            <Time>2019-08-01T11:28:38.000Z</Time>
            <Position>
              <LatitudeDegrees>40.7098199240863323211669921875</LatitudeDegrees>
              <LongitudeDegrees>-4.00585477240383625030517578125</LongitudeDegrees>
            </Position>
            <AltitudeMeters>1130.4000244140625</AltitudeMeters>
            <DistanceMeters>NAN</DistanceMeters>
          </Trackpoint>
          <Trackpoint>
            <Time>2019-08-01T11:28:39.000Z</Time>
            <Position>
              <LatitudeDegrees>40.7098563015460968017578125</LatitudeDegrees>
              <LongitudeDegrees>-4.00585561059415340423583984375</LongitudeDegrees>
            </Position>
            <AltitudeMeters>1130.5999755859375</AltitudeMeters>
            <DistanceMeters>NAN</DistanceMeters>
          </Trackpoint>
          <Trackpoint>
            <Time>2019-08-01T11:28:40.000Z</Time>
            <Position>
              <LatitudeDegrees>40.709892176091670989990234375</LatitudeDegrees>
              <LongitudeDegrees>-4.00585594587028026580810546875</LongitudeDegrees>
            </Position>
            <AltitudeMeters>1130.800048828125</AltitudeMeters>
            <DistanceMeters>NAN</DistanceMeters>
          </Trackpoint>
          <Trackpoint>
            <Time>2019-08-01T11:28:41.000Z</Time>
            <Position>
              <LatitudeDegrees>40.70992914028465747833251953125</LatitudeDegrees>
              <LongitudeDegrees>-4.005856029689311981201171875</LongitudeDegrees>
            </Position>
            <AltitudeMeters>1131</AltitudeMeters>
            <DistanceMeters>NAN</DistanceMeters>
          </Trackpoint>
          <Trackpoint>
            <Time>2019-08-01T11:28:42.000Z</Time>
            <Position>
              <LatitudeDegrees>40.709965266287326812744140625</LatitudeDegrees>
              <LongitudeDegrees>-4.005856700241565704345703125</LongitudeDegrees>
            </Position>
            <AltitudeMeters>1131.4000244140625</AltitudeMeters>
            <DistanceMeters>NAN</DistanceMeters>
          </Trackpoint>
          <Trackpoint>
            <Time>2019-08-01T11:28:43.000Z</Time>
            <Position>
              <LatitudeDegrees>40.71000189520418643951416015625</LatitudeDegrees>
              <LongitudeDegrees>-4.005857370793819427490234375</LongitudeDegrees>
            </Position>
            <AltitudeMeters>1131.5999755859375</AltitudeMeters>
            <DistanceMeters>NAN</DistanceMeters>
          </Trackpoint>
          <Trackpoint>
            <Time>2019-08-01T11:28:44.000Z</Time>
            <Position>
              <LatitudeDegrees>40.71003877557814121246337890625</LatitudeDegrees>
              <LongitudeDegrees>-4.00585577823221683502197265625</LongitudeDegrees>
            </Position>
            <AltitudeMeters>1132</AltitudeMeters>
            <DistanceMeters>NAN</DistanceMeters>
          </Trackpoint>
          <Trackpoint>
            <Time>2019-08-01T11:28:45.000Z</Time>
            <Position>
              <LatitudeDegrees>40.71007515303790569305419921875</LatitudeDegrees>
              <LongitudeDegrees>-4.0058538503944873809814453125</LongitudeDegrees>
            </Position>
            <AltitudeMeters>1132.199951171875</AltitudeMeters>
            <DistanceMeters>NAN</DistanceMeters>
          </Trackpoint>
          <Trackpoint>
            <Time>2019-08-01T11:28:46.000Z</Time>
            <Position>
              <LatitudeDegrees>40.7101112790405750274658203125</LatitudeDegrees>
              <LongitudeDegrees>-4.0058535151183605194091796875</LongitudeDegrees>
            </Position>
            <AltitudeMeters>1132.5999755859375</AltitudeMeters>
            <DistanceMeters>NAN</DistanceMeters>
          </Trackpoint>
          <Trackpoint>
            <Time>2019-08-01T11:28:47.000Z</Time>
            <Position>
              <LatitudeDegrees>40.71014757268130779266357421875</LatitudeDegrees>
              <LongitudeDegrees>-4.005852676928043365478515625</LongitudeDegrees>
            </Position>
            <AltitudeMeters>1132.800048828125</AltitudeMeters>
            <DistanceMeters>NAN</DistanceMeters>
          </Trackpoint>
          <Trackpoint>
            <Time>2019-08-01T11:28:48.000Z</Time>
            <Position>
              <LatitudeDegrees>40.71018378250300884246826171875</LatitudeDegrees>
              <LongitudeDegrees>-4.00585091672837734222412109375</LongitudeDegrees>
            </Position>
            <AltitudeMeters>1133.199951171875</AltitudeMeters>
            <DistanceMeters>NAN</DistanceMeters>
          </Trackpoint>
          <Trackpoint>
            <Time>2019-08-01T11:28:49.000Z</Time>
            <Position>
              <LatitudeDegrees>40.71021965704858303070068359375</LatitudeDegrees>
              <LongitudeDegrees>-4.00584890507161617279052734375</LongitudeDegrees>
            </Position>
            <AltitudeMeters>1133.4000244140625</AltitudeMeters>
            <DistanceMeters>NAN</DistanceMeters>
          </Trackpoint>
          <Trackpoint>
            <Time>2019-08-01T11:28:50.000Z</Time>
            <Position>
              <LatitudeDegrees>40.71025586687028408050537109375</LatitudeDegrees>
              <LongitudeDegrees>-4.00584655813872814178466796875</LongitudeDegrees>
            </Position>
            <AltitudeMeters>1133.5999755859375</AltitudeMeters>
            <DistanceMeters>NAN</DistanceMeters>
          </Trackpoint>
          <Trackpoint>
            <Time>2019-08-01T11:28:51.000Z</Time>
            <Position>
              <LatitudeDegrees>40.71029241196811199188232421875</LatitudeDegrees>
              <LongitudeDegrees>-4.0058447979390621185302734375</LongitudeDegrees>
            </Position>
            <AltitudeMeters>1134.199951171875</AltitudeMeters>
            <DistanceMeters>NAN</DistanceMeters>
          </Trackpoint>
          <Trackpoint>
            <Time>2019-08-01T11:28:52.000Z</Time>
            <Position>
              <LatitudeDegrees>40.71032862178981304168701171875</LatitudeDegrees>
              <LongitudeDegrees>-4.0058431215584278106689453125</LongitudeDegrees>
            </Position>
            <AltitudeMeters>1134.4000244140625</AltitudeMeters>
            <DistanceMeters>NAN</DistanceMeters>
          </Trackpoint>
          <Trackpoint>
            <Time>2019-08-01T11:28:53.000Z</Time>
            <Position>
              <LatitudeDegrees>40.710364915430545806884765625</LatitudeDegrees>
              <LongitudeDegrees>-4.0058411099016666412353515625</LongitudeDegrees>
            </Position>
            <AltitudeMeters>1134.5999755859375</AltitudeMeters>
            <DistanceMeters>NAN</DistanceMeters>
          </Trackpoint>
          <Trackpoint>
            <Time>2019-08-01T11:28:55.000Z</Time>
            <Position>
              <LatitudeDegrees>40.71043775416910648345947265625</LatitudeDegrees>
              <LongitudeDegrees>-4.0058384276926517486572265625</LongitudeDegrees>
            </Position>
            <AltitudeMeters>1135</AltitudeMeters>
            <DistanceMeters>NAN</DistanceMeters>
          </Trackpoint>
          <Trackpoint>
            <Time>2019-08-01T11:28:56.000Z</Time>
            <Position>
              <LatitudeDegrees>40.71047522127628326416015625</LatitudeDegrees>
              <LongitudeDegrees>-4.0058380924165248870849609375</LongitudeDegrees>
            </Position>
            <AltitudeMeters>1135.199951171875</AltitudeMeters>
            <DistanceMeters>NAN</DistanceMeters>
          </Trackpoint>
          <Trackpoint>
            <Time>2019-08-01T11:28:57.000Z</Time>
            <Position>
              <LatitudeDegrees>40.7105132751166820526123046875</LatitudeDegrees>
              <LongitudeDegrees>-4.00583960115909576416015625</LongitudeDegrees>
            </Position>
            <AltitudeMeters>1135.5999755859375</AltitudeMeters>
            <DistanceMeters>NAN</DistanceMeters>
          </Trackpoint>
          <Trackpoint>
            <Time>2019-08-01T11:28:58.000Z</Time>
            <Position>
              <LatitudeDegrees>40.7105508260428905487060546875</LatitudeDegrees>
              <LongitudeDegrees>-4.0058421157300472259521484375</LongitudeDegrees>
            </Position>
            <AltitudeMeters>1136</AltitudeMeters>
            <DistanceMeters>NAN</DistanceMeters>
          </Trackpoint>
          <Trackpoint>
            <Time>2019-08-01T11:28:59.000Z</Time>
            <Position>
              <LatitudeDegrees>40.71058779023587703704833984375</LatitudeDegrees>
              <LongitudeDegrees>-4.00584404356777667999267578125</LongitudeDegrees>
            </Position>
            <AltitudeMeters>1136.4000244140625</AltitudeMeters>
            <DistanceMeters>NAN</DistanceMeters>
          </Trackpoint>
          <Trackpoint>
            <Time>2019-08-01T11:29:00.000Z</Time>
            <Position>
              <LatitudeDegrees>40.7106235809624195098876953125</LatitudeDegrees>
              <LongitudeDegrees>-4.00584387592971324920654296875</LongitudeDegrees>
            </Position>
            <AltitudeMeters>1136.5999755859375</AltitudeMeters>
            <DistanceMeters>NAN</DistanceMeters>
          </Trackpoint>
          <Trackpoint>
            <Time>2019-08-01T11:29:01.000Z</Time>
            <Position>
              <LatitudeDegrees>40.71065937168896198272705078125</LatitudeDegrees>
              <LongitudeDegrees>-4.00584555231034755706787109375</LongitudeDegrees>
            </Position>
            <AltitudeMeters>1136.800048828125</AltitudeMeters>
            <DistanceMeters>NAN</DistanceMeters>
          </Trackpoint>
          <Trackpoint>
            <Time>2019-08-01T11:29:03.000Z</Time>
            <Position>
              <LatitudeDegrees>40.71073531173169612884521484375</LatitudeDegrees>
              <LongitudeDegrees>-4.00585259310901165008544921875</LongitudeDegrees>
            </Position>
            <AltitudeMeters>1137.199951171875</AltitudeMeters>
            <DistanceMeters>NAN</DistanceMeters>
          </Trackpoint>
          <Trackpoint>
            <Time>2019-08-01T11:29:04.000Z</Time>
            <Position>
              <LatitudeDegrees>40.710774958133697509765625</LatitudeDegrees>
              <LongitudeDegrees>-4.0058565326035022735595703125</LongitudeDegrees>
            </Position>
            <AltitudeMeters>1137.4000244140625</AltitudeMeters>
            <DistanceMeters>NAN</DistanceMeters>
          </Trackpoint>
          <Trackpoint>
            <Time>2019-08-01T11:29:05.000Z</Time>
            <Position>
              <LatitudeDegrees>40.71081527508795261383056640625</LatitudeDegrees>
              <LongitudeDegrees>-4.00586248375475406646728515625</LongitudeDegrees>
            </Position>
            <AltitudeMeters>1137.5999755859375</AltitudeMeters>
            <DistanceMeters>NAN</DistanceMeters>
          </Trackpoint>
          <Trackpoint>
            <Time>2019-08-01T11:29:06.000Z</Time>
            <Position>
              <LatitudeDegrees>40.7108559273183345794677734375</LatitudeDegrees>
              <LongitudeDegrees>-4.00587086565792560577392578125</LongitudeDegrees>
            </Position>
            <AltitudeMeters>1137.800048828125</AltitudeMeters>
            <DistanceMeters>NAN</DistanceMeters>
          </Trackpoint>
          <Trackpoint>
            <Time>2019-08-01T11:29:07.000Z</Time>
            <Position>
              <LatitudeDegrees>40.71089657954871654510498046875</LatitudeDegrees>
              <LongitudeDegrees>-4.005878828465938568115234375</LongitudeDegrees>
            </Position>
            <AltitudeMeters>1138.199951171875</AltitudeMeters>
            <DistanceMeters>NAN</DistanceMeters>
          </Trackpoint>
          <Trackpoint>
            <Time>2019-08-01T11:29:08.000Z</Time>
            <Position>
              <LatitudeDegrees>40.71093748323619365692138671875</LatitudeDegrees>
              <LongitudeDegrees>-4.005887210369110107421875</LongitudeDegrees>
            </Position>
            <AltitudeMeters>1138.4000244140625</AltitudeMeters>
            <DistanceMeters>NAN</DistanceMeters>
          </Trackpoint>
          <Trackpoint>
            <Time>2019-08-01T11:29:09.000Z</Time>
            <Position>
              <LatitudeDegrees>40.71097872219979763031005859375</LatitudeDegrees>
              <LongitudeDegrees>-4.0058974362909793853759765625</LongitudeDegrees>
            </Position>
            <AltitudeMeters>1138.5999755859375</AltitudeMeters>
            <DistanceMeters>NAN</DistanceMeters>
          </Trackpoint>
          <Trackpoint>
            <Time>2019-08-01T11:29:10.000Z</Time>
            <Position>
              <LatitudeDegrees>40.71101970970630645751953125</LatitudeDegrees>
              <LongitudeDegrees>-4.0059064887464046478271484375</LongitudeDegrees>
            </Position>
            <AltitudeMeters>1138.800048828125</AltitudeMeters>
            <DistanceMeters>NAN</DistanceMeters>
          </Trackpoint>
          <Trackpoint>
            <Time>2019-08-01T11:29:11.000Z</Time>
            <Position>
              <LatitudeDegrees>40.71106036193668842315673828125</LatitudeDegrees>
              <LongitudeDegrees>-4.00591738522052764892578125</LongitudeDegrees>
            </Position>
            <AltitudeMeters>1139</AltitudeMeters>
            <DistanceMeters>NAN</DistanceMeters>
          </Trackpoint>
          <Trackpoint>
            <Time>2019-08-01T11:29:12.000Z</Time>
            <Position>
              <LatitudeDegrees>40.71110176853835582733154296875</LatitudeDegrees>
              <LongitudeDegrees>-4.00593071244657039642333984375</LongitudeDegrees>
            </Position>
            <AltitudeMeters>1139.199951171875</AltitudeMeters>
            <DistanceMeters>NAN</DistanceMeters>
          </Trackpoint>
          <Trackpoint>
            <Time>2019-08-01T11:29:13.000Z</Time>
            <Position>
              <LatitudeDegrees>40.711146108806133270263671875</LatitudeDegrees>
              <LongitudeDegrees>-4.0059457160532474517822265625</LongitudeDegrees>
            </Position>
            <AltitudeMeters>1139.4000244140625</AltitudeMeters>
            <DistanceMeters>NAN</DistanceMeters>
          </Trackpoint>
          <Trackpoint>
            <Time>2019-08-01T11:29:14.000Z</Time>
            <Position>
              <LatitudeDegrees>40.71119061671197414398193359375</LatitudeDegrees>
              <LongitudeDegrees>-4.00596206076443195343017578125</LongitudeDegrees>
            </Position>
            <AltitudeMeters>1139.5999755859375</AltitudeMeters>
            <DistanceMeters>NAN</DistanceMeters>
          </Trackpoint>
          <Trackpoint>
            <Time>2019-08-01T11:29:15.000Z</Time>
            <Position>
              <LatitudeDegrees>40.7112368009984493255615234375</LatitudeDegrees>
              <LongitudeDegrees>-4.00598251260817050933837890625</LongitudeDegrees>
            </Position>
            <AltitudeMeters>1139.800048828125</AltitudeMeters>
            <DistanceMeters>NAN</DistanceMeters>
          </Trackpoint>
          <Trackpoint>
            <Time>2019-08-01T11:29:16.000Z</Time>
            <Position>
              <LatitudeDegrees>40.7112368009984493255615234375</LatitudeDegrees>
              <LongitudeDegrees>-4.00598251260817050933837890625</LongitudeDegrees>
            </Position>
            <AltitudeMeters>1139.5999755859375</AltitudeMeters>
            <DistanceMeters>NAN</DistanceMeters>
          </Trackpoint>
          <Trackpoint>
            <Time>2019-08-01T11:29:17.000Z</Time>
            <Position>
              <LatitudeDegrees>40.71133310906589031219482421875</LatitudeDegrees>
              <LongitudeDegrees>-4.00603816844522953033447265625</LongitudeDegrees>
            </Position>
            <AltitudeMeters>1139.5999755859375</AltitudeMeters>
            <DistanceMeters>NAN</DistanceMeters>
          </Trackpoint>
          <Trackpoint>
            <Time>2019-08-01T11:29:18.000Z</Time>
            <Position>
              <LatitudeDegrees>40.7113833166658878326416015625</LatitudeDegrees>
              <LongitudeDegrees>-4.00606784038245677947998046875</LongitudeDegrees>
            </Position>
            <AltitudeMeters>1139.800048828125</AltitudeMeters>
            <DistanceMeters>NAN</DistanceMeters>
          </Trackpoint>
          <Trackpoint>
            <Time>2019-08-01T11:29:19.000Z</Time>
            <Position>
              <LatitudeDegrees>40.7113833166658878326416015625</LatitudeDegrees>
              <LongitudeDegrees>-4.00606784038245677947998046875</LongitudeDegrees>
            </Position>
            <AltitudeMeters>1139.800048828125</AltitudeMeters>
            <DistanceMeters>NAN</DistanceMeters>
          </Trackpoint>
          <Trackpoint>
            <Time>2019-08-01T11:29:20.000Z</Time>
            <Position>
              <LatitudeDegrees>40.7114852406084537506103515625</LatitudeDegrees>
              <LongitudeDegrees>-4.00613271631300449371337890625</LongitudeDegrees>
            </Position>
            <AltitudeMeters>1139.800048828125</AltitudeMeters>
            <DistanceMeters>NAN</DistanceMeters>
          </Trackpoint>
          <Trackpoint>
            <Time>2019-08-01T11:29:21.000Z</Time>
            <Position>
              <LatitudeDegrees>40.7114852406084537506103515625</LatitudeDegrees>
              <LongitudeDegrees>-4.00613271631300449371337890625</LongitudeDegrees>
            </Position>
            <AltitudeMeters>1139.800048828125</AltitudeMeters>
            <DistanceMeters>NAN</DistanceMeters>
          </Trackpoint>
          <Trackpoint>
            <Time>2019-08-01T11:29:22.000Z</Time>
            <Position>
              <LatitudeDegrees>40.7114852406084537506103515625</LatitudeDegrees>
              <LongitudeDegrees>-4.00613271631300449371337890625</LongitudeDegrees>
            </Position>
            <AltitudeMeters>1139.800048828125</AltitudeMeters>
            <DistanceMeters>NAN</DistanceMeters>
          </Trackpoint>
          <Trackpoint>
            <Time>2019-08-01T11:29:23.000Z</Time>
            <Position>
              <LatitudeDegrees>40.71164156310260295867919921875</LatitudeDegrees>
              <LongitudeDegrees>-4.00624302215874195098876953125</LongitudeDegrees>
            </Position>
            <AltitudeMeters>1139.800048828125</AltitudeMeters>
            <DistanceMeters>NAN</DistanceMeters>
          </Trackpoint>
          <Trackpoint>
            <Time>2019-08-01T11:29:24.000Z</Time>
            <Position>
              <LatitudeDegrees>40.71164156310260295867919921875</LatitudeDegrees>
              <LongitudeDegrees>-4.00624302215874195098876953125</LongitudeDegrees>
            </Position>
            <AltitudeMeters>1139.5999755859375</AltitudeMeters>
            <DistanceMeters>NAN</DistanceMeters>
          </Trackpoint>
          <Trackpoint>
            <Time>2019-08-01T11:29:25.000Z</Time>
            <Position>
              <LatitudeDegrees>40.71174717508256435394287109375</LatitudeDegrees>
              <LongitudeDegrees>-4.0063205547630786895751953125</LongitudeDegrees>
            </Position>
            <AltitudeMeters>1139.5999755859375</AltitudeMeters>
            <DistanceMeters>NAN</DistanceMeters>
          </Trackpoint>
          <Trackpoint>
            <Time>2019-08-01T11:29:26.000Z</Time>
            <Position>
              <LatitudeDegrees>40.71180081926286220550537109375</LatitudeDegrees>
              <LongitudeDegrees>-4.0063597820699214935302734375</LongitudeDegrees>
            </Position>
            <AltitudeMeters>1139.4000244140625</AltitudeMeters>
            <DistanceMeters>NAN</DistanceMeters>
          </Trackpoint>
          <Trackpoint>
            <Time>2019-08-01T11:29:27.000Z</Time>
            <Position>
              <LatitudeDegrees>40.7118533737957477569580078125</LatitudeDegrees>
              <LongitudeDegrees>-4.0063983388245105743408203125</LongitudeDegrees>
            </Position>
            <AltitudeMeters>1139.4000244140625</AltitudeMeters>
            <DistanceMeters>NAN</DistanceMeters>
          </Trackpoint>
          <Trackpoint>
            <Time>2019-08-01T11:29:28.000Z</Time>
            <Position>
              <LatitudeDegrees>40.71190710179507732391357421875</LatitudeDegrees>
              <LongitudeDegrees>-4.00643681176006793975830078125</LongitudeDegrees>
            </Position>
            <AltitudeMeters>1139.199951171875</AltitudeMeters>
            <DistanceMeters>NAN</DistanceMeters>
          </Trackpoint>
          <Trackpoint>
            <Time>2019-08-01T11:29:29.000Z</Time>
            <Position>
              <LatitudeDegrees>40.7119609974324703216552734375</LatitudeDegrees>
              <LongitudeDegrees>-4.00647461414337158203125</LongitudeDegrees>
            </Position>
            <AltitudeMeters>1139.199951171875</AltitudeMeters>
            <DistanceMeters>NAN</DistanceMeters>
          </Trackpoint>
          <Trackpoint>
            <Time>2019-08-01T11:29:30.000Z</Time>
            <Position>
              <LatitudeDegrees>40.7120146416127681732177734375</LatitudeDegrees>
              <LongitudeDegrees>-4.0065116621553897857666015625</LongitudeDegrees>
            </Position>
            <AltitudeMeters>1139</AltitudeMeters>
            <DistanceMeters>NAN</DistanceMeters>
          </Trackpoint>
          <Trackpoint>
            <Time>2019-08-01T11:29:31.000Z</Time>
            <Position>
              <LatitudeDegrees>40.712068118155002593994140625</LatitudeDegrees>
              <LongitudeDegrees>-4.00654963217675685882568359375</LongitudeDegrees>
            </Position>
            <AltitudeMeters>1139</AltitudeMeters>
            <DistanceMeters>NAN</DistanceMeters>
          </Trackpoint>
          <Trackpoint>
            <Time>2019-08-01T11:29:32.000Z</Time>
            <Position>
              <LatitudeDegrees>40.71212201379239559173583984375</LatitudeDegrees>
              <LongitudeDegrees>-4.006588943302631378173828125</LongitudeDegrees>
            </Position>
            <AltitudeMeters>1139</AltitudeMeters>
            <DistanceMeters>NAN</DistanceMeters>
          </Trackpoint>
          <Trackpoint>
            <Time>2019-08-01T11:29:33.000Z</Time>
            <Position>
              <LatitudeDegrees>40.71217574179172515869140625</LatitudeDegrees>
              <LongitudeDegrees>-4.006630517542362213134765625</LongitudeDegrees>
            </Position>
            <AltitudeMeters>1139</AltitudeMeters>
            <DistanceMeters>NAN</DistanceMeters>
          </Trackpoint>
          <Trackpoint>
            <Time>2019-08-01T11:29:34.000Z</Time>
            <Position>
              <LatitudeDegrees>40.71222846396267414093017578125</LatitudeDegrees>
              <LongitudeDegrees>-4.00667334906756877899169921875</LongitudeDegrees>
            </Position>
            <AltitudeMeters>1139</AltitudeMeters>
            <DistanceMeters>NAN</DistanceMeters>
          </Trackpoint>
          <Trackpoint>
            <Time>2019-08-01T11:29:35.000Z</Time>
            <Position>
              <LatitudeDegrees>40.712281353771686553955078125</LatitudeDegrees>
              <LongitudeDegrees>-4.006716348230838775634765625</LongitudeDegrees>
            </Position>
            <AltitudeMeters>1139</AltitudeMeters>
            <DistanceMeters>NAN</DistanceMeters>
          </Trackpoint>
          <Trackpoint>
            <Time>2019-08-01T11:29:36.000Z</Time>
            <Position>
              <LatitudeDegrees>40.71233374066650867462158203125</LatitudeDegrees>
              <LongitudeDegrees>-4.00675817392766475677490234375</LongitudeDegrees>
            </Position>
            <AltitudeMeters>1139</AltitudeMeters>
            <DistanceMeters>NAN</DistanceMeters>
          </Trackpoint>
          <Trackpoint>
            <Time>2019-08-01T11:29:37.000Z</Time>
            <Position>
              <LatitudeDegrees>40.7123851217329502105712890625</LatitudeDegrees>
              <LongitudeDegrees>-4.0067993290722370147705078125</LongitudeDegrees>
            </Position>
            <AltitudeMeters>1139</AltitudeMeters>
            <DistanceMeters>NAN</DistanceMeters>
          </Trackpoint>
          <Trackpoint>
            <Time>2019-08-01T11:29:38.000Z</Time>
            <Position>
              <LatitudeDegrees>40.712435580790042877197265625</LatitudeDegrees>
              <LongitudeDegrees>-4.0068392269313335418701171875</LongitudeDegrees>
            </Position>
            <AltitudeMeters>1139</AltitudeMeters>
            <DistanceMeters>NAN</DistanceMeters>
          </Trackpoint>
          <Trackpoint>
            <Time>2019-08-01T11:29:39.000Z</Time>
            <Position>
              <LatitudeDegrees>40.71248427964746952056884765625</LatitudeDegrees>
              <LongitudeDegrees>-4.00687870569527149200439453125</LongitudeDegrees>
            </Position>
            <AltitudeMeters>1139</AltitudeMeters>
            <DistanceMeters>NAN</DistanceMeters>
          </Trackpoint>
          <Trackpoint>
            <Time>2019-08-01T11:29:40.000Z</Time>
            <Position>
              <LatitudeDegrees>40.71253113448619842529296875</LatitudeDegrees>
              <LongitudeDegrees>-4.0069183520972728729248046875</LongitudeDegrees>
            </Position>
            <AltitudeMeters>1139</AltitudeMeters>
            <DistanceMeters>NAN</DistanceMeters>
          </Trackpoint>
          <Trackpoint>
            <Time>2019-08-01T11:29:41.000Z</Time>
            <Position>
              <LatitudeDegrees>40.71257715113461017608642578125</LatitudeDegrees>
              <LongitudeDegrees>-4.00695732794702053070068359375</LongitudeDegrees>
            </Position>
            <AltitudeMeters>1139</AltitudeMeters>
            <DistanceMeters>NAN</DistanceMeters>
          </Trackpoint>
          <Trackpoint>
            <Time>2019-08-01T11:29:42.000Z</Time>
            <Position>
              <LatitudeDegrees>40.71262232959270477294921875</LatitudeDegrees>
              <LongitudeDegrees>-4.0069971419870853424072265625</LongitudeDegrees>
            </Position>
            <AltitudeMeters>1139.199951171875</AltitudeMeters>
            <DistanceMeters>NAN</DistanceMeters>
          </Trackpoint>
          <Trackpoint>
            <Time>2019-08-01T11:29:43.000Z</Time>
            <Position>
              <LatitudeDegrees>40.71266734041273593902587890625</LatitudeDegrees>
              <LongitudeDegrees>-4.0070383809506893157958984375</LongitudeDegrees>
            </Position>
            <AltitudeMeters>1139.199951171875</AltitudeMeters>
            <DistanceMeters>NAN</DistanceMeters>
          </Trackpoint>
          <Trackpoint>
            <Time>2019-08-01T11:29:44.000Z</Time>
            <Position>
              <LatitudeDegrees>40.7127116806805133819580078125</LatitudeDegrees>
              <LongitudeDegrees>-4.00707886554300785064697265625</LongitudeDegrees>
            </Position>
            <AltitudeMeters>1139.4000244140625</AltitudeMeters>
            <DistanceMeters>NAN</DistanceMeters>
          </Trackpoint>
          <Trackpoint>
            <Time>2019-08-01T11:29:45.000Z</Time>
            <Position>
              <LatitudeDegrees>40.712754763662815093994140625</LatitudeDegrees>
              <LongitudeDegrees>-4.00712027214467525482177734375</LongitudeDegrees>
            </Position>
            <AltitudeMeters>1139.4000244140625</AltitudeMeters>
            <DistanceMeters>NAN</DistanceMeters>
          </Trackpoint>
          <Trackpoint>
            <Time>2019-08-01T11:29:46.000Z</Time>
            <Position>
              <LatitudeDegrees>40.7127968408167362213134765625</LatitudeDegrees>
              <LongitudeDegrees>-4.007163941860198974609375</LongitudeDegrees>
            </Position>
            <AltitudeMeters>1139.5999755859375</AltitudeMeters>
            <DistanceMeters>NAN</DistanceMeters>
          </Trackpoint>
          <Trackpoint>
            <Time>2019-08-01T11:29:47.000Z</Time>
            <Position>
              <LatitudeDegrees>40.7128389179706573486328125</LatitudeDegrees>
              <LongitudeDegrees>-4.00720844976603984832763671875</LongitudeDegrees>
            </Position>
            <AltitudeMeters>1139.5999755859375</AltitudeMeters>
            <DistanceMeters>NAN</DistanceMeters>
          </Trackpoint>
          <Trackpoint>
            <Time>2019-08-01T11:29:48.000Z</Time>
            <Position>
              <LatitudeDegrees>40.71287973783910274505615234375</LatitudeDegrees>
              <LongitudeDegrees>-4.007253460586071014404296875</LongitudeDegrees>
            </Position>
            <AltitudeMeters>1139.800048828125</AltitudeMeters>
            <DistanceMeters>NAN</DistanceMeters>
          </Trackpoint>
          <Trackpoint>
            <Time>2019-08-01T11:29:49.000Z</Time>
            <Position>
              <LatitudeDegrees>40.712919048964977264404296875</LatitudeDegrees>
              <LongitudeDegrees>-4.007300399243831634521484375</LongitudeDegrees>
            </Position>
            <AltitudeMeters>1140</AltitudeMeters>
            <DistanceMeters>NAN</DistanceMeters>
          </Trackpoint>
          <Trackpoint>
            <Time>2019-08-01T11:29:50.000Z</Time>
            <Position>
              <LatitudeDegrees>40.71295752190053462982177734375</LatitudeDegrees>
              <LongitudeDegrees>-4.00734943337738513946533203125</LongitudeDegrees>
            </Position>
            <AltitudeMeters>1140.199951171875</AltitudeMeters>
            <DistanceMeters>NAN</DistanceMeters>
          </Trackpoint>
          <Trackpoint>
            <Time>2019-08-01T11:29:51.000Z</Time>
            <Position>
              <LatitudeDegrees>40.7129953242838382720947265625</LatitudeDegrees>
              <LongitudeDegrees>-4.0074004791676998138427734375</LongitudeDegrees>
            </Position>
            <AltitudeMeters>1140.199951171875</AltitudeMeters>
            <DistanceMeters>NAN</DistanceMeters>
          </Trackpoint>
          <Trackpoint>
            <Time>2019-08-01T11:29:52.000Z</Time>
            <Position>
              <LatitudeDegrees>40.713033042848110198974609375</LatitudeDegrees>
              <LongitudeDegrees>-4.00745152495801448822021484375</LongitudeDegrees>
            </Position>
            <AltitudeMeters>1140.4000244140625</AltitudeMeters>
            <DistanceMeters>NAN</DistanceMeters>
          </Trackpoint>
          <Trackpoint>
            <Time>2019-08-01T11:29:53.000Z</Time>
            <Position>
              <LatitudeDegrees>40.71307067759335041046142578125</LatitudeDegrees>
              <LongitudeDegrees>-4.007503576576709747314453125</LongitudeDegrees>
            </Position>
            <AltitudeMeters>1140.4000244140625</AltitudeMeters>
            <DistanceMeters>NAN</DistanceMeters>
          </Trackpoint>
          <Trackpoint>
            <Time>2019-08-01T11:29:54.000Z</Time>
            <Position>
              <LatitudeDegrees>40.7131069712340831756591796875</LatitudeDegrees>
              <LongitudeDegrees>-4.0075577236711978912353515625</LongitudeDegrees>
            </Position>
            <AltitudeMeters>1140.4000244140625</AltitudeMeters>
            <DistanceMeters>NAN</DistanceMeters>
          </Trackpoint>
          <Trackpoint>
            <Time>2019-08-01T11:29:55.000Z</Time>
            <Position>
              <LatitudeDegrees>40.7131069712340831756591796875</LatitudeDegrees>
              <LongitudeDegrees>-4.0075577236711978912353515625</LongitudeDegrees>
            </Position>
            <AltitudeMeters>1140.5999755859375</AltitudeMeters>
            <DistanceMeters>NAN</DistanceMeters>
          </Trackpoint>
          <Trackpoint>
            <Time>2019-08-01T11:29:56.000Z</Time>
            <Position>
              <LatitudeDegrees>40.7131773792207241058349609375</LatitudeDegrees>
              <LongitudeDegrees>-4.00766895152628421783447265625</LongitudeDegrees>
            </Position>
            <AltitudeMeters>1140.800048828125</AltitudeMeters>
            <DistanceMeters>NAN</DistanceMeters>
          </Trackpoint>
          <Trackpoint>
            <Time>2019-08-01T11:29:57.000Z</Time>
            <Position>
              <LatitudeDegrees>40.71321132592856884002685546875</LatitudeDegrees>
              <LongitudeDegrees>-4.00772544555366039276123046875</LongitudeDegrees>
            </Position>
            <AltitudeMeters>1141</AltitudeMeters>
            <DistanceMeters>NAN</DistanceMeters>
          </Trackpoint>
          <Trackpoint>
            <Time>2019-08-01T11:29:58.000Z</Time>
            <Position>
              <LatitudeDegrees>40.71324435062706470489501953125</LatitudeDegrees>
              <LongitudeDegrees>-4.007782526314258575439453125</LongitudeDegrees>
            </Position>
            <AltitudeMeters>1141</AltitudeMeters>
            <DistanceMeters>NAN</DistanceMeters>
          </Trackpoint>
          <Trackpoint>
            <Time>2019-08-01T11:29:59.000Z</Time>
            <Position>
              <LatitudeDegrees>40.71327469311654567718505859375</LatitudeDegrees>
              <LongitudeDegrees>-4.00784044526517391204833984375</LongitudeDegrees>
            </Position>
            <AltitudeMeters>1141.199951171875</AltitudeMeters>
            <DistanceMeters>NAN</DistanceMeters>
          </Trackpoint>
          <Trackpoint>
            <Time>2019-08-01T11:30:00.000Z</Time>
            <Position>
              <LatitudeDegrees>40.71330453269183635711669921875</LatitudeDegrees>
              <LongitudeDegrees>-4.00789777748286724090576171875</LongitudeDegrees>
            </Position>
            <AltitudeMeters>1141.5999755859375</AltitudeMeters>
            <DistanceMeters>NAN</DistanceMeters>
          </Trackpoint>
          <Trackpoint>
            <Time>2019-08-01T11:30:01.000Z</Time>
            <Position>
              <LatitudeDegrees>40.7133339531719684600830078125</LatitudeDegrees>
              <LongitudeDegrees>-4.00795578025281429290771484375</LongitudeDegrees>
            </Position>
            <AltitudeMeters>1142</AltitudeMeters>
            <DistanceMeters>NAN</DistanceMeters>
          </Trackpoint>
          <Trackpoint>
            <Time>2019-08-01T11:30:02.000Z</Time>
            <Position>
              <LatitudeDegrees>40.71336136199533939361572265625</LatitudeDegrees>
              <LongitudeDegrees>-4.00801495648920536041259765625</LongitudeDegrees>
            </Position>
            <AltitudeMeters>1142.199951171875</AltitudeMeters>
            <DistanceMeters>NAN</DistanceMeters>
          </Trackpoint>
          <Trackpoint>
            <Time>2019-08-01T11:30:03.000Z</Time>
            <Position>
              <LatitudeDegrees>40.71338701061904430389404296875</LatitudeDegrees>
              <LongitudeDegrees>-4.0080743841826915740966796875</LongitudeDegrees>
            </Position>
            <AltitudeMeters>1142.4000244140625</AltitudeMeters>
            <DistanceMeters>NAN</DistanceMeters>
          </Trackpoint>
          <Trackpoint>
            <Time>2019-08-01T11:30:04.000Z</Time>
            <Position>
              <LatitudeDegrees>40.71341115050017833709716796875</LatitudeDegrees>
              <LongitudeDegrees>-4.008134901523590087890625</LongitudeDegrees>
            </Position>
            <AltitudeMeters>1142.5999755859375</AltitudeMeters>
            <DistanceMeters>NAN</DistanceMeters>
          </Trackpoint>
          <Trackpoint>
            <Time>2019-08-01T11:30:05.000Z</Time>
            <Position>
              <LatitudeDegrees>40.71343478746712207794189453125</LatitudeDegrees>
              <LongitudeDegrees>-4.0081960894167423248291015625</LongitudeDegrees>
            </Position>
            <AltitudeMeters>1142.800048828125</AltitudeMeters>
            <DistanceMeters>NAN</DistanceMeters>
          </Trackpoint>
          <Trackpoint>
            <Time>2019-08-01T11:30:06.000Z</Time>
            <Position>
              <LatitudeDegrees>40.71345758624374866485595703125</LatitudeDegrees>
              <LongitudeDegrees>-4.00825786404311656951904296875</LongitudeDegrees>
            </Position>
            <AltitudeMeters>1142.800048828125</AltitudeMeters>
            <DistanceMeters>NAN</DistanceMeters>
          </Trackpoint>
          <Trackpoint>
            <Time>2019-08-01T11:30:07.000Z</Time>
            <Position>
              <LatitudeDegrees>40.71345758624374866485595703125</LatitudeDegrees>
              <LongitudeDegrees>-4.00825786404311656951904296875</LongitudeDegrees>
            </Position>
            <AltitudeMeters>1143</AltitudeMeters>
            <DistanceMeters>NAN</DistanceMeters>
          </Trackpoint>
          <Trackpoint>
            <Time>2019-08-01T11:30:08.000Z</Time>
            <Position>
              <LatitudeDegrees>40.71349916048347949981689453125</LatitudeDegrees>
              <LongitudeDegrees>-4.008386023342609405517578125</LongitudeDegrees>
            </Position>
            <AltitudeMeters>1143</AltitudeMeters>
            <DistanceMeters>NAN</DistanceMeters>
          </Trackpoint>
          <Trackpoint>
            <Time>2019-08-01T11:30:09.000Z</Time>
            <Position>
              <LatitudeDegrees>40.71351910941302776336669921875</LatitudeDegrees>
              <LongitudeDegrees>-4.00845207273960113525390625</LongitudeDegrees>
            </Position>
            <AltitudeMeters>1143</AltitudeMeters>
            <DistanceMeters>NAN</DistanceMeters>
          </Trackpoint>
          <Trackpoint>
            <Time>2019-08-01T11:30:10.000Z</Time>
            <Position>
              <LatitudeDegrees>40.71351910941302776336669921875</LatitudeDegrees>
              <LongitudeDegrees>-4.00845207273960113525390625</LongitudeDegrees>
            </Position>
            <AltitudeMeters>1143.199951171875</AltitudeMeters>
            <DistanceMeters>NAN</DistanceMeters>
          </Trackpoint>
          <Trackpoint>
            <Time>2019-08-01T11:30:11.000Z</Time>
            <Position>
              <LatitudeDegrees>40.7135616056621074676513671875</LatitudeDegrees>
              <LongitudeDegrees>-4.008584506809711456298828125</LongitudeDegrees>
            </Position>
            <AltitudeMeters>1143.199951171875</AltitudeMeters>
            <DistanceMeters>NAN</DistanceMeters>
          </Trackpoint>
          <Trackpoint>
            <Time>2019-08-01T11:30:12.000Z</Time>
            <Position>
              <LatitudeDegrees>40.7135837338864803314208984375</LatitudeDegrees>
              <LongitudeDegrees>-4.00864980183541774749755859375</LongitudeDegrees>
            </Position>
            <AltitudeMeters>1143.199951171875</AltitudeMeters>
            <DistanceMeters>NAN</DistanceMeters>
          </Trackpoint>
          <Trackpoint>
            <Time>2019-08-01T11:30:13.000Z</Time>
            <Position>
              <LatitudeDegrees>40.7136008329689502716064453125</LatitudeDegrees>
              <LongitudeDegrees>-4.00871719233691692352294921875</LongitudeDegrees>
            </Position>
            <AltitudeMeters>1143.199951171875</AltitudeMeters>
            <DistanceMeters>NAN</DistanceMeters>
          </Trackpoint>
          <Trackpoint>
            <Time>2019-08-01T11:30:14.000Z</Time>
            <Position>
              <LatitudeDegrees>40.71361332200467586517333984375</LatitudeDegrees>
              <LongitudeDegrees>-4.00878592394292354583740234375</LongitudeDegrees>
            </Position>
            <AltitudeMeters>1143.4000244140625</AltitudeMeters>
            <DistanceMeters>NAN</DistanceMeters>
          </Trackpoint>
          <Trackpoint>
            <Time>2019-08-01T11:30:15.000Z</Time>
            <Position>
              <LatitudeDegrees>40.713623128831386566162109375</LatitudeDegrees>
              <LongitudeDegrees>-4.008856080472469329833984375</LongitudeDegrees>
            </Position>
            <AltitudeMeters>1143.4000244140625</AltitudeMeters>
            <DistanceMeters>NAN</DistanceMeters>
          </Trackpoint>
          <Trackpoint>
            <Time>2019-08-01T11:30:16.000Z</Time>
            <Position>
              <LatitudeDegrees>40.713630504906177520751953125</LatitudeDegrees>
              <LongitudeDegrees>-4.00892816483974456787109375</LongitudeDegrees>
            </Position>
            <AltitudeMeters>1143.4000244140625</AltitudeMeters>
            <DistanceMeters>NAN</DistanceMeters>
          </Trackpoint>
          <Trackpoint>
            <Time>2019-08-01T11:30:17.000Z</Time>
            <Position>
              <LatitudeDegrees>40.71363754570484161376953125</LatitudeDegrees>
              <LongitudeDegrees>-4.00900133885443210601806640625</LongitudeDegrees>
            </Position>
            <AltitudeMeters>1143.800048828125</AltitudeMeters>
            <DistanceMeters>NAN</DistanceMeters>
          </Trackpoint>
          <Trackpoint>
            <Time>2019-08-01T11:30:18.000Z</Time>
            <Position>
              <LatitudeDegrees>40.71364416740834712982177734375</LatitudeDegrees>
              <LongitudeDegrees>-4.009076021611690521240234375</LongitudeDegrees>
            </Position>
            <AltitudeMeters>1143.800048828125</AltitudeMeters>
            <DistanceMeters>NAN</DistanceMeters>
          </Trackpoint>
          <Trackpoint>
            <Time>2019-08-01T11:30:19.000Z</Time>
            <Position>
              <LatitudeDegrees>40.71364416740834712982177734375</LatitudeDegrees>
              <LongitudeDegrees>-4.009076021611690521240234375</LongitudeDegrees>
            </Position>
            <AltitudeMeters>1144.199951171875</AltitudeMeters>
            <DistanceMeters>NAN</DistanceMeters>
          </Trackpoint>
          <Trackpoint>
            <Time>2019-08-01T11:30:20.000Z</Time>
            <Position>
              <LatitudeDegrees>40.7136554829776287078857421875</LatitudeDegrees>
              <LongitudeDegrees>-4.009227566421031951904296875</LongitudeDegrees>
            </Position>
            <AltitudeMeters>1144.4000244140625</AltitudeMeters>
            <DistanceMeters>NAN</DistanceMeters>
          </Trackpoint>
          <Trackpoint>
            <Time>2019-08-01T11:30:21.000Z</Time>
            <Position>
              <LatitudeDegrees>40.71365942247211933135986328125</LatitudeDegrees>
              <LongitudeDegrees>-4.0093055181205272674560546875</LongitudeDegrees>
            </Position>
            <AltitudeMeters>1144.5999755859375</AltitudeMeters>
            <DistanceMeters>NAN</DistanceMeters>
          </Trackpoint>
          <Trackpoint>
            <Time>2019-08-01T11:30:22.000Z</Time>
            <Position>
              <LatitudeDegrees>40.71366210468113422393798828125</LatitudeDegrees>
              <LongitudeDegrees>-4.00938422419130802154541015625</LongitudeDegrees>
            </Position>
            <AltitudeMeters>1144.800048828125</AltitudeMeters>
            <DistanceMeters>NAN</DistanceMeters>
          </Trackpoint>
          <Trackpoint>
            <Time>2019-08-01T11:30:23.000Z</Time>
            <Position>
              <LatitudeDegrees>40.71366369724273681640625</LatitudeDegrees>
              <LongitudeDegrees>-4.0094634331762790679931640625</LongitudeDegrees>
            </Position>
            <AltitudeMeters>1144.800048828125</AltitudeMeters>
            <DistanceMeters>NAN</DistanceMeters>
          </Trackpoint>
          <Trackpoint>
            <Time>2019-08-01T11:30:24.000Z</Time>
            <Position>
              <LatitudeDegrees>40.71366436779499053955078125</LatitudeDegrees>
              <LongitudeDegrees>-4.00954381562769412994384765625</LongitudeDegrees>
            </Position>
            <AltitudeMeters>1144.800048828125</AltitudeMeters>
            <DistanceMeters>NAN</DistanceMeters>
          </Trackpoint>
          <Trackpoint>
            <Time>2019-08-01T11:30:25.000Z</Time>
            <Position>
              <LatitudeDegrees>40.71366478689014911651611328125</LatitudeDegrees>
              <LongitudeDegrees>-4.0096250362694263458251953125</LongitudeDegrees>
            </Position>
            <AltitudeMeters>1145</AltitudeMeters>
            <DistanceMeters>NAN</DistanceMeters>
          </Trackpoint>
          <Trackpoint>
            <Time>2019-08-01T11:30:26.000Z</Time>
            <Position>
              <LatitudeDegrees>40.71366428397595882415771484375</LatitudeDegrees>
              <LongitudeDegrees>-4.00970793329179286956787109375</LongitudeDegrees>
            </Position>
            <AltitudeMeters>1145</AltitudeMeters>
            <DistanceMeters>NAN</DistanceMeters>
          </Trackpoint>
          <Trackpoint>
            <Time>2019-08-01T11:30:27.000Z</Time>
            <Position>
              <LatitudeDegrees>40.7136628590524196624755859375</LatitudeDegrees>
              <LongitudeDegrees>-4.00979275815188884735107421875</LongitudeDegrees>
            </Position>
            <AltitudeMeters>1145</AltitudeMeters>
            <DistanceMeters>NAN</DistanceMeters>
          </Trackpoint>
          <Trackpoint>
            <Time>2019-08-01T11:30:28.000Z</Time>
            <Position>
              <LatitudeDegrees>40.71366143412888050079345703125</LatitudeDegrees>
              <LongitudeDegrees>-4.00987858884036540985107421875</LongitudeDegrees>
            </Position>
            <AltitudeMeters>1145</AltitudeMeters>
            <DistanceMeters>NAN</DistanceMeters>
          </Trackpoint>
          <Trackpoint>
            <Time>2019-08-01T11:30:29.000Z</Time>
            <Position>
              <LatitudeDegrees>40.71366009302437305450439453125</LatitudeDegrees>
              <LongitudeDegrees>-4.0099653415381908416748046875</LongitudeDegrees>
            </Position>
            <AltitudeMeters>1145</AltitudeMeters>
            <DistanceMeters>NAN</DistanceMeters>
          </Trackpoint>
          <Trackpoint>
            <Time>2019-08-01T11:30:30.000Z</Time>
            <Position>
              <LatitudeDegrees>40.71365791372954845428466796875</LatitudeDegrees>
              <LongitudeDegrees>-4.0100521780550479888916015625</LongitudeDegrees>
            </Position>
            <AltitudeMeters>1145</AltitudeMeters>
            <DistanceMeters>NAN</DistanceMeters>
          </Trackpoint>
          <Trackpoint>
            <Time>2019-08-01T11:30:31.000Z</Time>
            <Position>
              <LatitudeDegrees>40.7136551477015018463134765625</LatitudeDegrees>
              <LongitudeDegrees>-4.010139517486095428466796875</LongitudeDegrees>
            </Position>
            <AltitudeMeters>1145</AltitudeMeters>
            <DistanceMeters>NAN</DistanceMeters>
          </Trackpoint>
          <Trackpoint>
            <Time>2019-08-01T11:30:32.000Z</Time>
            <Position>
              <LatitudeDegrees>40.71365229785442352294921875</LatitudeDegrees>
              <LongitudeDegrees>-4.01022694073617458343505859375</LongitudeDegrees>
            </Position>
            <AltitudeMeters>1145</AltitudeMeters>
            <DistanceMeters>NAN</DistanceMeters>
          </Trackpoint>
          <Trackpoint>
            <Time>2019-08-01T11:30:33.000Z</Time>
            <Position>
              <LatitudeDegrees>40.7136494480073451995849609375</LatitudeDegrees>
              <LongitudeDegrees>-4.01031444780528545379638671875</LongitudeDegrees>
            </Position>
            <AltitudeMeters>1144.800048828125</AltitudeMeters>
            <DistanceMeters>NAN</DistanceMeters>
          </Trackpoint>
          <Trackpoint>
            <Time>2019-08-01T11:30:34.000Z</Time>
            <Position>
              <LatitudeDegrees>40.7136462628841400146484375</LatitudeDegrees>
              <LongitudeDegrees>-4.01040195487439632415771484375</LongitudeDegrees>
            </Position>
            <AltitudeMeters>1144.800048828125</AltitudeMeters>
            <DistanceMeters>NAN</DistanceMeters>
          </Trackpoint>
          <Trackpoint>
            <Time>2019-08-01T11:30:35.000Z</Time>
            <Position>
              <LatitudeDegrees>40.71364316157996654510498046875</LatitudeDegrees>
              <LongitudeDegrees>-4.0104897134006023406982421875</LongitudeDegrees>
            </Position>
            <AltitudeMeters>1144.5999755859375</AltitudeMeters>
            <DistanceMeters>NAN</DistanceMeters>
          </Trackpoint>
          <Trackpoint>
            <Time>2019-08-01T11:30:36.000Z</Time>
            <Position>
              <LatitudeDegrees>40.71364081464707851409912109375</LatitudeDegrees>
              <LongitudeDegrees>-4.01057763956487178802490234375</LongitudeDegrees>
            </Position>
            <AltitudeMeters>1144.4000244140625</AltitudeMeters>
            <DistanceMeters>NAN</DistanceMeters>
          </Trackpoint>
          <Trackpoint>
            <Time>2019-08-01T11:30:37.000Z</Time>
            <Position>
              <LatitudeDegrees>40.71363712660968303680419921875</LatitudeDegrees>
              <LongitudeDegrees>-4.010663889348506927490234375</LongitudeDegrees>
            </Position>
            <AltitudeMeters>1144.199951171875</AltitudeMeters>
            <DistanceMeters>NAN</DistanceMeters>
          </Trackpoint>
          <Trackpoint>
            <Time>2019-08-01T11:30:38.000Z</Time>
            <Position>
              <LatitudeDegrees>40.71363218128681182861328125</LatitudeDegrees>
              <LongitudeDegrees>-4.01074846275150775909423828125</LongitudeDegrees>
            </Position>
            <AltitudeMeters>1143.800048828125</AltitudeMeters>
            <DistanceMeters>NAN</DistanceMeters>
          </Trackpoint>
          <Trackpoint>
            <Time>2019-08-01T11:30:39.000Z</Time>
            <Position>
              <LatitudeDegrees>40.71363218128681182861328125</LatitudeDegrees>
              <LongitudeDegrees>-4.01074846275150775909423828125</LongitudeDegrees>
            </Position>
            <AltitudeMeters>1143.800048828125</AltitudeMeters>
            <DistanceMeters>NAN</DistanceMeters>
          </Trackpoint>
          <Trackpoint>
            <Time>2019-08-01T11:30:40.000Z</Time>
            <Position>
              <LatitudeDegrees>40.7136248052120208740234375</LatitudeDegrees>
              <LongitudeDegrees>-4.0109158493578433990478515625</LongitudeDegrees>
            </Position>
            <AltitudeMeters>1143.800048828125</AltitudeMeters>
            <DistanceMeters>NAN</DistanceMeters>
          </Trackpoint>
          <Trackpoint>
            <Time>2019-08-01T11:30:41.000Z</Time>
            <Position>
              <LatitudeDegrees>40.7136248052120208740234375</LatitudeDegrees>
              <LongitudeDegrees>-4.0109158493578433990478515625</LongitudeDegrees>
            </Position>
            <AltitudeMeters>1143.800048828125</AltitudeMeters>
            <DistanceMeters>NAN</DistanceMeters>
          </Trackpoint>
          <Trackpoint>
            <Time>2019-08-01T11:30:42.000Z</Time>
            <Position>
              <LatitudeDegrees>40.71361952461302280426025390625</LatitudeDegrees>
              <LongitudeDegrees>-4.01108600199222564697265625</LongitudeDegrees>
            </Position>
            <AltitudeMeters>1143.800048828125</AltitudeMeters>
            <DistanceMeters>NAN</DistanceMeters>
          </Trackpoint>
          <Trackpoint>
            <Time>2019-08-01T11:30:43.000Z</Time>
            <Position>
              <LatitudeDegrees>40.7136169262230396270751953125</LatitudeDegrees>
              <LongitudeDegrees>-4.01117225177586078643798828125</LongitudeDegrees>
            </Position>
            <AltitudeMeters>1143.800048828125</AltitudeMeters>
            <DistanceMeters>NAN</DistanceMeters>
          </Trackpoint>
          <Trackpoint>
            <Time>2019-08-01T11:30:44.000Z</Time>
            <Position>
              <LatitudeDegrees>40.71361432783305644989013671875</LatitudeDegrees>
              <LongitudeDegrees>-4.0112598426640033721923828125</LongitudeDegrees>
            </Position>
            <AltitudeMeters>1143.800048828125</AltitudeMeters>
            <DistanceMeters>NAN</DistanceMeters>
          </Trackpoint>
          <Trackpoint>
            <Time>2019-08-01T11:30:45.000Z</Time>
            <Position>
              <LatitudeDegrees>40.71361072361469268798828125</LatitudeDegrees>
              <LongitudeDegrees>-4.0113483555614948272705078125</LongitudeDegrees>
            </Position>
            <AltitudeMeters>1143.800048828125</AltitudeMeters>
            <DistanceMeters>NAN</DistanceMeters>
          </Trackpoint>
          <Trackpoint>
            <Time>2019-08-01T11:30:46.000Z</Time>
            <Position>
              <LatitudeDegrees>40.7136068679392337799072265625</LatitudeDegrees>
              <LongitudeDegrees>-4.01143711991608142852783203125</LongitudeDegrees>
            </Position>
            <AltitudeMeters>1143.800048828125</AltitudeMeters>
            <DistanceMeters>NAN</DistanceMeters>
          </Trackpoint>
          <Trackpoint>
            <Time>2019-08-01T11:30:47.000Z</Time>
            <Position>
              <LatitudeDegrees>40.7136031799018383026123046875</LatitudeDegrees>
              <LongitudeDegrees>-4.01152663864195346832275390625</LongitudeDegrees>
            </Position>
            <AltitudeMeters>1143.800048828125</AltitudeMeters>
            <DistanceMeters>NAN</DistanceMeters>
          </Trackpoint>
          <Trackpoint>
            <Time>2019-08-01T11:30:48.000Z</Time>
            <Position>
              <LatitudeDegrees>40.71360007859766483306884765625</LatitudeDegrees>
              <LongitudeDegrees>-4.01161766611039638519287109375</LongitudeDegrees>
            </Position>
            <AltitudeMeters>1143.800048828125</AltitudeMeters>
            <DistanceMeters>NAN</DistanceMeters>
          </Trackpoint>
          <Trackpoint>
            <Time>2019-08-01T11:30:49.000Z</Time>
            <Position>
              <LatitudeDegrees>40.7135968096554279327392578125</LatitudeDegrees>
              <LongitudeDegrees>-4.01170953176915645599365234375</LongitudeDegrees>
            </Position>
            <AltitudeMeters>1143.800048828125</AltitudeMeters>
            <DistanceMeters>NAN</DistanceMeters>
          </Trackpoint>
          <Trackpoint>
            <Time>2019-08-01T11:30:50.000Z</Time>
            <Position>
              <LatitudeDegrees>40.71359287016093730926513671875</LatitudeDegrees>
              <LongitudeDegrees>-4.01180089451372623443603515625</LongitudeDegrees>
            </Position>
            <AltitudeMeters>1144</AltitudeMeters>
            <DistanceMeters>NAN</DistanceMeters>
          </Trackpoint>
          <Trackpoint>
            <Time>2019-08-01T11:30:51.000Z</Time>
            <Position>
              <LatitudeDegrees>40.7135894335806369781494140625</LatitudeDegrees>
              <LongitudeDegrees>-4.0118928439915180206298828125</LongitudeDegrees>
            </Position>
            <AltitudeMeters>1144</AltitudeMeters>
            <DistanceMeters>NAN</DistanceMeters>
          </Trackpoint>
          <Trackpoint>
            <Time>2019-08-01T11:30:52.000Z</Time>
            <Position>
              <LatitudeDegrees>40.71358658373355865478515625</LatitudeDegrees>
              <LongitudeDegrees>-4.011985547840595245361328125</LongitudeDegrees>
            </Position>
            <AltitudeMeters>1144</AltitudeMeters>
            <DistanceMeters>NAN</DistanceMeters>
          </Trackpoint>
          <Trackpoint>
            <Time>2019-08-01T11:30:53.000Z</Time>
            <Position>
              <LatitudeDegrees>40.7135832309722900390625</LatitudeDegrees>
              <LongitudeDegrees>-4.0120772458612918853759765625</LongitudeDegrees>
            </Position>
            <AltitudeMeters>1144</AltitudeMeters>
            <DistanceMeters>NAN</DistanceMeters>
          </Trackpoint>
          <Trackpoint>
            <Time>2019-08-01T11:30:54.000Z</Time>
            <Position>
              <LatitudeDegrees>40.71358012966811656951904296875</LatitudeDegrees>
              <LongitudeDegrees>-4.0121681056916713714599609375</LongitudeDegrees>
            </Position>
            <AltitudeMeters>1144</AltitudeMeters>
            <DistanceMeters>NAN</DistanceMeters>
          </Trackpoint>
          <Trackpoint>
            <Time>2019-08-01T11:30:55.000Z</Time>
            <Position>
              <LatitudeDegrees>40.7135770283639430999755859375</LatitudeDegrees>
              <LongitudeDegrees>-4.01225837878882884979248046875</LongitudeDegrees>
            </Position>
            <AltitudeMeters>1144.199951171875</AltitudeMeters>
            <DistanceMeters>NAN</DistanceMeters>
          </Trackpoint>
          <Trackpoint>
            <Time>2019-08-01T11:30:56.000Z</Time>
            <Position>
              <LatitudeDegrees>40.71357510052621364593505859375</LatitudeDegrees>
              <LongitudeDegrees>-4.01234940625727176666259765625</LongitudeDegrees>
            </Position>
            <AltitudeMeters>1144.199951171875</AltitudeMeters>
            <DistanceMeters>NAN</DistanceMeters>
          </Trackpoint>
          <Trackpoint>
            <Time>2019-08-01T11:30:57.000Z</Time>
            <Position>
              <LatitudeDegrees>40.71357258595526218414306640625</LatitudeDegrees>
              <LongitudeDegrees>-4.01244060136377811431884765625</LongitudeDegrees>
            </Position>
            <AltitudeMeters>1144.4000244140625</AltitudeMeters>
            <DistanceMeters>NAN</DistanceMeters>
          </Trackpoint>
          <Trackpoint>
            <Time>2019-08-01T11:30:58.000Z</Time>
            <Position>
              <LatitudeDegrees>40.7135711610317230224609375</LatitudeDegrees>
              <LongitudeDegrees>-4.0125323832035064697265625</LongitudeDegrees>
            </Position>
            <AltitudeMeters>1144.4000244140625</AltitudeMeters>
            <DistanceMeters>NAN</DistanceMeters>
          </Trackpoint>
          <Trackpoint>
            <Time>2019-08-01T11:30:59.000Z</Time>
            <Position>
              <LatitudeDegrees>40.71356889791786670684814453125</LatitudeDegrees>
              <LongitudeDegrees>-4.01262223720550537109375</LongitudeDegrees>
            </Position>
            <AltitudeMeters>1144.4000244140625</AltitudeMeters>
            <DistanceMeters>NAN</DistanceMeters>
          </Trackpoint>
          <Trackpoint>
            <Time>2019-08-01T11:31:00.000Z</Time>
            <Position>
              <LatitudeDegrees>40.7135669700801372528076171875</LatitudeDegrees>
              <LongitudeDegrees>-4.01271217502653598785400390625</LongitudeDegrees>
            </Position>
            <AltitudeMeters>1144.5999755859375</AltitudeMeters>
            <DistanceMeters>NAN</DistanceMeters>
          </Trackpoint>
          <Trackpoint>
            <Time>2019-08-01T11:31:01.000Z</Time>
            <Position>
              <LatitudeDegrees>40.71356755681335926055908203125</LatitudeDegrees>
              <LongitudeDegrees>-4.01280420832335948944091796875</LongitudeDegrees>
            </Position>
            <AltitudeMeters>1144.5999755859375</AltitudeMeters>
            <DistanceMeters>NAN</DistanceMeters>
          </Trackpoint>
          <Trackpoint>
            <Time>2019-08-01T11:31:02.000Z</Time>
            <Position>
              <LatitudeDegrees>40.71357040666043758392333984375</LatitudeDegrees>
              <LongitudeDegrees>-4.01289825327694416046142578125</LongitudeDegrees>
            </Position>
            <AltitudeMeters>1144.5999755859375</AltitudeMeters>
            <DistanceMeters>NAN</DistanceMeters>
          </Trackpoint>
          <Trackpoint>
            <Time>2019-08-01T11:31:03.000Z</Time>
            <Position>
              <LatitudeDegrees>40.7135746814310550689697265625</LatitudeDegrees>
              <LongitudeDegrees>-4.01299313642084598541259765625</LongitudeDegrees>
            </Position>
            <AltitudeMeters>1144.5999755859375</AltitudeMeters>
            <DistanceMeters>NAN</DistanceMeters>
          </Trackpoint>
          <Trackpoint>
            <Time>2019-08-01T11:31:04.000Z</Time>
            <Position>
              <LatitudeDegrees>40.71358029730618000030517578125</LatitudeDegrees>
              <LongitudeDegrees>-4.01308852247893810272216796875</LongitudeDegrees>
            </Position>
            <AltitudeMeters>1144.5999755859375</AltitudeMeters>
            <DistanceMeters>NAN</DistanceMeters>
          </Trackpoint>
          <Trackpoint>
            <Time>2019-08-01T11:31:05.000Z</Time>
            <Position>
              <LatitudeDegrees>40.71358800865709781646728515625</LatitudeDegrees>
              <LongitudeDegrees>-4.01318340562283992767333984375</LongitudeDegrees>
            </Position>
            <AltitudeMeters>1144.5999755859375</AltitudeMeters>
            <DistanceMeters>NAN</DistanceMeters>
          </Trackpoint>
          <Trackpoint>
            <Time>2019-08-01T11:31:06.000Z</Time>
            <Position>
              <LatitudeDegrees>40.71359806694090366363525390625</LatitudeDegrees>
              <LongitudeDegrees>-4.0132788754999637603759765625</LongitudeDegrees>
            </Position>
            <AltitudeMeters>1144.5999755859375</AltitudeMeters>
            <DistanceMeters>NAN</DistanceMeters>
          </Trackpoint>
          <Trackpoint>
            <Time>2019-08-01T11:31:07.000Z</Time>
            <Position>
              <LatitudeDegrees>40.71361080743372440338134765625</LatitudeDegrees>
              <LongitudeDegrees>-4.013372920453548431396484375</LongitudeDegrees>
            </Position>
            <AltitudeMeters>1144.5999755859375</AltitudeMeters>
            <DistanceMeters>NAN</DistanceMeters>
          </Trackpoint>
          <Trackpoint>
            <Time>2019-08-01T11:31:08.000Z</Time>
            <Position>
              <LatitudeDegrees>40.71362572722136974334716796875</LatitudeDegrees>
              <LongitudeDegrees>-4.01346671395003795623779296875</LongitudeDegrees>
            </Position>
            <AltitudeMeters>1144.5999755859375</AltitudeMeters>
            <DistanceMeters>NAN</DistanceMeters>
          </Trackpoint>
          <Trackpoint>
            <Time>2019-08-01T11:31:09.000Z</Time>
            <Position>
              <LatitudeDegrees>40.71364282630383968353271484375</LatitudeDegrees>
              <LongitudeDegrees>-4.01355958543717861175537109375</LongitudeDegrees>
            </Position>
            <AltitudeMeters>1144.5999755859375</AltitudeMeters>
            <DistanceMeters>NAN</DistanceMeters>
          </Trackpoint>
          <Trackpoint>
            <Time>2019-08-01T11:31:10.000Z</Time>
            <Position>
              <LatitudeDegrees>40.71366294287145137786865234375</LatitudeDegrees>
              <LongitudeDegrees>-4.0136503614485263824462890625</LongitudeDegrees>
            </Position>
            <AltitudeMeters>1144.4000244140625</AltitudeMeters>
            <DistanceMeters>NAN</DistanceMeters>
          </Trackpoint>
          <Trackpoint>
            <Time>2019-08-01T11:31:11.000Z</Time>
            <Position>
              <LatitudeDegrees>40.71366294287145137786865234375</LatitudeDegrees>
              <LongitudeDegrees>-4.0136503614485263824462890625</LongitudeDegrees>
            </Position>
            <AltitudeMeters>1144.4000244140625</AltitudeMeters>
            <DistanceMeters>NAN</DistanceMeters>
          </Trackpoint>
          <Trackpoint>
            <Time>2019-08-01T11:31:12.000Z</Time>
            <Position>
              <LatitudeDegrees>40.713709630072116851806640625</LatitudeDegrees>
              <LongitudeDegrees>-4.01382663287222385406494140625</LongitudeDegrees>
            </Position>
            <AltitudeMeters>1144.199951171875</AltitudeMeters>
            <DistanceMeters>NAN</DistanceMeters>
          </Trackpoint>
          <Trackpoint>
            <Time>2019-08-01T11:31:13.000Z</Time>
            <Position>
              <LatitudeDegrees>40.71373720653355121612548828125</LatitudeDegrees>
              <LongitudeDegrees>-4.01390877552330493927001953125</LongitudeDegrees>
            </Position>
            <AltitudeMeters>1144.199951171875</AltitudeMeters>
            <DistanceMeters>NAN</DistanceMeters>
          </Trackpoint>
          <Trackpoint>
            <Time>2019-08-01T11:31:14.000Z</Time>
            <Position>
              <LatitudeDegrees>40.71376570500433444976806640625</LatitudeDegrees>
              <LongitudeDegrees>-4.013988487422466278076171875</LongitudeDegrees>
            </Position>
            <AltitudeMeters>1144.199951171875</AltitudeMeters>
            <DistanceMeters>NAN</DistanceMeters>
          </Trackpoint>
          <Trackpoint>
            <Time>2019-08-01T11:31:15.000Z</Time>
            <Position>
              <LatitudeDegrees>40.71379420347511768341064453125</LatitudeDegrees>
              <LongitudeDegrees>-4.0140664391219615936279296875</LongitudeDegrees>
            </Position>
            <AltitudeMeters>1144.199951171875</AltitudeMeters>
            <DistanceMeters>NAN</DistanceMeters>
          </Trackpoint>
          <Trackpoint>
            <Time>2019-08-01T11:31:16.000Z</Time>
            <Position>
              <LatitudeDegrees>40.71382270194590091705322265625</LatitudeDegrees>
              <LongitudeDegrees>-4.01414237916469573974609375</LongitudeDegrees>
            </Position>
            <AltitudeMeters>1144.199951171875</AltitudeMeters>
            <DistanceMeters>NAN</DistanceMeters>
          </Trackpoint>
          <Trackpoint>
            <Time>2019-08-01T11:31:17.000Z</Time>
            <Position>
              <LatitudeDegrees>40.71385120041668415069580078125</LatitudeDegrees>
              <LongitudeDegrees>-4.0142154693603515625</LongitudeDegrees>
            </Position>
            <AltitudeMeters>1144.199951171875</AltitudeMeters>
            <DistanceMeters>NAN</DistanceMeters>
          </Trackpoint>
          <Trackpoint>
            <Time>2019-08-01T11:31:18.000Z</Time>
            <Position>
              <LatitudeDegrees>40.71388103999197483062744140625</LatitudeDegrees>
              <LongitudeDegrees>-4.01428579352796077728271484375</LongitudeDegrees>
            </Position>
            <AltitudeMeters>1144.199951171875</AltitudeMeters>
            <DistanceMeters>NAN</DistanceMeters>
          </Trackpoint>
          <Trackpoint>
            <Time>2019-08-01T11:31:19.000Z</Time>
            <Position>
              <LatitudeDegrees>40.71391339413821697235107421875</LatitudeDegrees>
              <LongitudeDegrees>-4.01435335166752338409423828125</LongitudeDegrees>
            </Position>
            <AltitudeMeters>1144.199951171875</AltitudeMeters>
            <DistanceMeters>NAN</DistanceMeters>
          </Trackpoint>
          <Trackpoint>
            <Time>2019-08-01T11:31:20.000Z</Time>
            <Position>
              <LatitudeDegrees>40.71391339413821697235107421875</LatitudeDegrees>
              <LongitudeDegrees>-4.01435335166752338409423828125</LongitudeDegrees>
            </Position>
            <AltitudeMeters>1144.199951171875</AltitudeMeters>
            <DistanceMeters>NAN</DistanceMeters>
          </Trackpoint>
          <Trackpoint>
            <Time>2019-08-01T11:31:21.000Z</Time>
            <Position>
              <LatitudeDegrees>40.71398220956325531005859375</LatitudeDegrees>
              <LongitudeDegrees>-4.0144815109670162200927734375</LongitudeDegrees>
            </Position>
            <AltitudeMeters>1144.4000244140625</AltitudeMeters>
            <DistanceMeters>NAN</DistanceMeters>
          </Trackpoint>
          <Trackpoint>
            <Time>2019-08-01T11:31:22.000Z</Time>
            <Position>
              <LatitudeDegrees>40.7140182517468929290771484375</LatitudeDegrees>
              <LongitudeDegrees>-4.01454177685081958770751953125</LongitudeDegrees>
            </Position>
            <AltitudeMeters>1144.5999755859375</AltitudeMeters>
            <DistanceMeters>NAN</DistanceMeters>
          </Trackpoint>
          <Trackpoint>
            <Time>2019-08-01T11:31:23.000Z</Time>
            <Position>
              <LatitudeDegrees>40.71405588649213314056396484375</LatitudeDegrees>
              <LongitudeDegrees>-4.01459994725883007049560546875</LongitudeDegrees>
            </Position>
            <AltitudeMeters>1144.5999755859375</AltitudeMeters>
            <DistanceMeters>NAN</DistanceMeters>
          </Trackpoint>
          <Trackpoint>
            <Time>2019-08-01T11:31:24.000Z</Time>
            <Position>
              <LatitudeDegrees>40.71409461088478565216064453125</LatitudeDegrees>
              <LongitudeDegrees>-4.014655686914920806884765625</LongitudeDegrees>
            </Position>
            <AltitudeMeters>1144.800048828125</AltitudeMeters>
            <DistanceMeters>NAN</DistanceMeters>
          </Trackpoint>
          <Trackpoint>
            <Time>2019-08-01T11:31:25.000Z</Time>
            <Position>
              <LatitudeDegrees>40.7141329161822795867919921875</LatitudeDegrees>
              <LongitudeDegrees>-4.014710672199726104736328125</LongitudeDegrees>
            </Position>
            <AltitudeMeters>1144.800048828125</AltitudeMeters>
            <DistanceMeters>NAN</DistanceMeters>
          </Trackpoint>
          <Trackpoint>
            <Time>2019-08-01T11:31:26.000Z</Time>
            <Position>
              <LatitudeDegrees>40.7141718082129955291748046875</LatitudeDegrees>
              <LongitudeDegrees>-4.01476523838937282562255859375</LongitudeDegrees>
            </Position>
            <AltitudeMeters>1145</AltitudeMeters>
            <DistanceMeters>NAN</DistanceMeters>
          </Trackpoint>
          <Trackpoint>
            <Time>2019-08-01T11:31:27.000Z</Time>
            <Position>
              <LatitudeDegrees>40.71421128697693347930908203125</LatitudeDegrees>
              <LongitudeDegrees>-4.014817290008068084716796875</LongitudeDegrees>
            </Position>
            <AltitudeMeters>1145</AltitudeMeters>
            <DistanceMeters>NAN</DistanceMeters>
          </Trackpoint>
          <Trackpoint>
            <Time>2019-08-01T11:31:28.000Z</Time>
            <Position>
              <LatitudeDegrees>40.7142505981028079986572265625</LatitudeDegrees>
              <LongitudeDegrees>-4.0148667432367801666259765625</LongitudeDegrees>
            </Position>
            <AltitudeMeters>1145</AltitudeMeters>
            <DistanceMeters>NAN</DistanceMeters>
          </Trackpoint>
          <Trackpoint>
            <Time>2019-08-01T11:31:29.000Z</Time>
            <Position>
              <LatitudeDegrees>40.7142898254096508026123046875</LatitudeDegrees>
              <LongitudeDegrees>-4.0149141848087310791015625</LongitudeDegrees>
            </Position>
            <AltitudeMeters>1145.199951171875</AltitudeMeters>
            <DistanceMeters>NAN</DistanceMeters>
          </Trackpoint>
          <Trackpoint>
            <Time>2019-08-01T11:31:30.000Z</Time>
            <Position>
              <LatitudeDegrees>40.7143293879926204681396484375</LatitudeDegrees>
              <LongitudeDegrees>-4.01495969854295253753662109375</LongitudeDegrees>
            </Position>
            <AltitudeMeters>1145.199951171875</AltitudeMeters>
            <DistanceMeters>NAN</DistanceMeters>
          </Trackpoint>
          <Trackpoint>
            <Time>2019-08-01T11:31:31.000Z</Time>
            <Position>
              <LatitudeDegrees>40.7143696211278438568115234375</LatitudeDegrees>
              <LongitudeDegrees>-4.01500244624912738800048828125</LongitudeDegrees>
            </Position>
            <AltitudeMeters>1145.199951171875</AltitudeMeters>
            <DistanceMeters>NAN</DistanceMeters>
          </Trackpoint>
          <Trackpoint>
            <Time>2019-08-01T11:31:32.000Z</Time>
            <Position>
              <LatitudeDegrees>40.7144108600914478302001953125</LatitudeDegrees>
              <LongitudeDegrees>-4.01504360139369964599609375</LongitudeDegrees>
            </Position>
            <AltitudeMeters>1145.4000244140625</AltitudeMeters>
            <DistanceMeters>NAN</DistanceMeters>
          </Trackpoint>
          <Trackpoint>
            <Time>2019-08-01T11:31:33.000Z</Time>
            <Position>
              <LatitudeDegrees>40.71445285342633724212646484375</LatitudeDegrees>
              <LongitudeDegrees>-4.0150846727192401885986328125</LongitudeDegrees>
            </Position>
            <AltitudeMeters>1145.5999755859375</AltitudeMeters>
            <DistanceMeters>NAN</DistanceMeters>
          </Trackpoint>
          <Trackpoint>
            <Time>2019-08-01T11:31:34.000Z</Time>
            <Position>
              <LatitudeDegrees>40.71445285342633724212646484375</LatitudeDegrees>
              <LongitudeDegrees>-4.0150846727192401885986328125</LongitudeDegrees>
            </Position>
            <AltitudeMeters>1145.5999755859375</AltitudeMeters>
            <DistanceMeters>NAN</DistanceMeters>
          </Trackpoint>
          <Trackpoint>
            <Time>2019-08-01T11:31:35.000Z</Time>
            <Position>
              <LatitudeDegrees>40.71453834883868694305419921875</LatitudeDegrees>
              <LongitudeDegrees>-4.015163965523242950439453125</LongitudeDegrees>
            </Position>
            <AltitudeMeters>1145.800048828125</AltitudeMeters>
            <DistanceMeters>NAN</DistanceMeters>
          </Trackpoint>
          <Trackpoint>
            <Time>2019-08-01T11:31:36.000Z</Time>
            <Position>
              <LatitudeDegrees>40.714582689106464385986328125</LatitudeDegrees>
              <LongitudeDegrees>-4.015200845897197723388671875</LongitudeDegrees>
            </Position>
            <AltitudeMeters>1146</AltitudeMeters>
            <DistanceMeters>NAN</DistanceMeters>
          </Trackpoint>
          <Trackpoint>
            <Time>2019-08-01T11:31:37.000Z</Time>
            <Position>
              <LatitudeDegrees>40.71462769992649555206298828125</LatitudeDegrees>
              <LongitudeDegrees>-4.01523697189986705780029296875</LongitudeDegrees>
            </Position>
            <AltitudeMeters>1146</AltitudeMeters>
            <DistanceMeters>NAN</DistanceMeters>
          </Trackpoint>
          <Trackpoint>
            <Time>2019-08-01T11:31:38.000Z</Time>
            <Position>
              <LatitudeDegrees>40.7146733812987804412841796875</LatitudeDegrees>
              <LongitudeDegrees>-4.01527234353125095367431640625</LongitudeDegrees>
            </Position>
            <AltitudeMeters>1146.199951171875</AltitudeMeters>
            <DistanceMeters>NAN</DistanceMeters>
          </Trackpoint>
          <Trackpoint>
            <Time>2019-08-01T11:31:39.000Z</Time>
            <Position>
              <LatitudeDegrees>40.71471956558525562286376953125</LatitudeDegrees>
              <LongitudeDegrees>-4.01530645787715911865234375</LongitudeDegrees>
            </Position>
            <AltitudeMeters>1146.4000244140625</AltitudeMeters>
            <DistanceMeters>NAN</DistanceMeters>
          </Trackpoint>
          <Trackpoint>
            <Time>2019-08-01T11:31:40.000Z</Time>
            <Position>
              <LatitudeDegrees>40.714767090976238250732421875</LatitudeDegrees>
              <LongitudeDegrees>-4.01533889584243297576904296875</LongitudeDegrees>
            </Position>
            <AltitudeMeters>1146.5999755859375</AltitudeMeters>
            <DistanceMeters>NAN</DistanceMeters>
          </Trackpoint>
          <Trackpoint>
            <Time>2019-08-01T11:31:41.000Z</Time>
            <Position>
              <LatitudeDegrees>40.714814364910125732421875</LatitudeDegrees>
              <LongitudeDegrees>-4.01537024416029453277587890625</LongitudeDegrees>
            </Position>
            <AltitudeMeters>1146.5999755859375</AltitudeMeters>
            <DistanceMeters>NAN</DistanceMeters>
          </Trackpoint>
          <Trackpoint>
            <Time>2019-08-01T11:31:42.000Z</Time>
            <Position>
              <LatitudeDegrees>40.71486222557723522186279296875</LatitudeDegrees>
              <LongitudeDegrees>-4.01539899408817291259765625</LongitudeDegrees>
            </Position>
            <AltitudeMeters>1146.800048828125</AltitudeMeters>
            <DistanceMeters>NAN</DistanceMeters>
          </Trackpoint>
          <Trackpoint>
            <Time>2019-08-01T11:31:43.000Z</Time>
            <Position>
              <LatitudeDegrees>40.71491050533950328826904296875</LatitudeDegrees>
              <LongitudeDegrees>-4.01542623527348041534423828125</LongitudeDegrees>
            </Position>
            <AltitudeMeters>1147</AltitudeMeters>
            <DistanceMeters>NAN</DistanceMeters>
          </Trackpoint>
          <Trackpoint>
            <Time>2019-08-01T11:31:44.000Z</Time>
            <Position>
              <LatitudeDegrees>40.7149597071111202239990234375</LatitudeDegrees>
              <LongitudeDegrees>-4.015452973544597625732421875</LongitudeDegrees>
            </Position>
            <AltitudeMeters>1147.199951171875</AltitudeMeters>
            <DistanceMeters>NAN</DistanceMeters>
          </Trackpoint>
          <Trackpoint>
            <Time>2019-08-01T11:31:45.000Z</Time>
            <Position>
              <LatitudeDegrees>40.715009160339832305908203125</LatitudeDegrees>
              <LongitudeDegrees>-4.0154786221683025360107421875</LongitudeDegrees>
            </Position>
            <AltitudeMeters>1147.199951171875</AltitudeMeters>
            <DistanceMeters>NAN</DistanceMeters>
          </Trackpoint>
          <Trackpoint>
            <Time>2019-08-01T11:31:46.000Z</Time>
            <Position>
              <LatitudeDegrees>40.71505920030176639556884765625</LatitudeDegrees>
              <LongitudeDegrees>-4.0155027620494365692138671875</LongitudeDegrees>
            </Position>
            <AltitudeMeters>1147.199951171875</AltitudeMeters>
            <DistanceMeters>NAN</DistanceMeters>
          </Trackpoint>
          <Trackpoint>
            <Time>2019-08-01T11:31:47.000Z</Time>
            <Position>
              <LatitudeDegrees>40.7151092402637004852294921875</LatitudeDegrees>
              <LongitudeDegrees>-4.01552371680736541748046875</LongitudeDegrees>
            </Position>
            <AltitudeMeters>1147.4000244140625</AltitudeMeters>
            <DistanceMeters>NAN</DistanceMeters>
          </Trackpoint>
          <Trackpoint>
            <Time>2019-08-01T11:31:48.000Z</Time>
            <Position>
              <LatitudeDegrees>40.7151598669588565826416015625</LatitudeDegrees>
              <LongitudeDegrees>-4.01554249227046966552734375</LongitudeDegrees>
            </Position>
            <AltitudeMeters>1147.4000244140625</AltitudeMeters>
            <DistanceMeters>NAN</DistanceMeters>
          </Trackpoint>
          <Trackpoint>
            <Time>2019-08-01T11:31:49.000Z</Time>
            <Position>
              <LatitudeDegrees>40.71521091274917125701904296875</LatitudeDegrees>
              <LongitudeDegrees>-4.01555950753390789031982421875</LongitudeDegrees>
            </Position>
            <AltitudeMeters>1147.5999755859375</AltitudeMeters>
            <DistanceMeters>NAN</DistanceMeters>
          </Trackpoint>
          <Trackpoint>
            <Time>2019-08-01T11:31:50.000Z</Time>
            <Position>
              <LatitudeDegrees>40.71526237763464450836181640625</LatitudeDegrees>
              <LongitudeDegrees>-4.01557526551187038421630859375</LongitudeDegrees>
            </Position>
            <AltitudeMeters>1147.800048828125</AltitudeMeters>
            <DistanceMeters>NAN</DistanceMeters>
          </Trackpoint>
          <Trackpoint>
            <Time>2019-08-01T11:31:51.000Z</Time>
            <Position>
              <LatitudeDegrees>40.71531350724399089813232421875</LatitudeDegrees>
              <LongitudeDegrees>-4.01558917947113513946533203125</LongitudeDegrees>
            </Position>
            <AltitudeMeters>1148</AltitudeMeters>
            <DistanceMeters>NAN</DistanceMeters>
          </Trackpoint>
          <Trackpoint>
            <Time>2019-08-01T11:31:52.000Z</Time>
            <Position>
              <LatitudeDegrees>40.7153647206723690032958984375</LatitudeDegrees>
              <LongitudeDegrees>-4.015601836144924163818359375</LongitudeDegrees>
            </Position>
            <AltitudeMeters>1148.4000244140625</AltitudeMeters>
            <DistanceMeters>NAN</DistanceMeters>
          </Trackpoint>
          <Trackpoint>
            <Time>2019-08-01T11:31:53.000Z</Time>
            <Position>
              <LatitudeDegrees>40.7154160179197788238525390625</LatitudeDegrees>
              <LongitudeDegrees>-4.01561432518064975738525390625</LongitudeDegrees>
            </Position>
            <AltitudeMeters>1148.5999755859375</AltitudeMeters>
            <DistanceMeters>NAN</DistanceMeters>
          </Trackpoint>
          <Trackpoint>
            <Time>2019-08-01T11:31:54.000Z</Time>
            <Position>
              <LatitudeDegrees>40.7154673151671886444091796875</LatitudeDegrees>
              <LongitudeDegrees>-4.0156268142163753509521484375</LongitudeDegrees>
            </Position>
            <AltitudeMeters>1148.5999755859375</AltitudeMeters>
            <DistanceMeters>NAN</DistanceMeters>
          </Trackpoint>
          <Trackpoint>
            <Time>2019-08-01T11:31:55.000Z</Time>
            <Position>
              <LatitudeDegrees>40.715519450604915618896484375</LatitudeDegrees>
              <LongitudeDegrees>-4.0156365372240543365478515625</LongitudeDegrees>
            </Position>
            <AltitudeMeters>1148.5999755859375</AltitudeMeters>
            <DistanceMeters>NAN</DistanceMeters>
          </Trackpoint>
          <Trackpoint>
            <Time>2019-08-01T11:31:56.000Z</Time>
            <Position>
              <LatitudeDegrees>40.7155719213187694549560546875</LatitudeDegrees>
              <LongitudeDegrees>-4.01564466767013072967529296875</LongitudeDegrees>
            </Position>
            <AltitudeMeters>1148.5999755859375</AltitudeMeters>
            <DistanceMeters>NAN</DistanceMeters>
          </Trackpoint>
          <Trackpoint>
            <Time>2019-08-01T11:31:57.000Z</Time>
            <Position>
              <LatitudeDegrees>40.715624392032623291015625</LatitudeDegrees>
              <LongitudeDegrees>-4.0156506188213825225830078125</LongitudeDegrees>
            </Position>
            <AltitudeMeters>1148.800048828125</AltitudeMeters>
            <DistanceMeters>NAN</DistanceMeters>
          </Trackpoint>
          <Trackpoint>
            <Time>2019-08-01T11:31:58.000Z</Time>
            <Position>
              <LatitudeDegrees>40.71567694656550884246826171875</LatitudeDegrees>
              <LongitudeDegrees>-4.01565388776361942291259765625</LongitudeDegrees>
            </Position>
            <AltitudeMeters>1148.800048828125</AltitudeMeters>
            <DistanceMeters>NAN</DistanceMeters>
          </Trackpoint>
          <Trackpoint>
            <Time>2019-08-01T11:31:59.000Z</Time>
            <Position>
              <LatitudeDegrees>40.71573008783161640167236328125</LatitudeDegrees>
              <LongitudeDegrees>-4.01565506123006343841552734375</LongitudeDegrees>
            </Position>
            <AltitudeMeters>1149.199951171875</AltitudeMeters>
            <DistanceMeters>NAN</DistanceMeters>
          </Trackpoint>
          <Trackpoint>
            <Time>2019-08-01T11:32:00.000Z</Time>
            <Position>
              <LatitudeDegrees>40.71578322909772396087646484375</LatitudeDegrees>
              <LongitudeDegrees>-4.0156553126871585845947265625</LongitudeDegrees>
            </Position>
            <AltitudeMeters>1149.199951171875</AltitudeMeters>
            <DistanceMeters>NAN</DistanceMeters>
          </Trackpoint>
          <Trackpoint>
            <Time>2019-08-01T11:32:01.000Z</Time>
            <Position>
              <LatitudeDegrees>40.71583687327802181243896484375</LatitudeDegrees>
              <LongitudeDegrees>-4.01565439067780971527099609375</LongitudeDegrees>
            </Position>
            <AltitudeMeters>1149.4000244140625</AltitudeMeters>
            <DistanceMeters>NAN</DistanceMeters>
          </Trackpoint>
          <Trackpoint>
            <Time>2019-08-01T11:32:02.000Z</Time>
            <Position>
              <LatitudeDegrees>40.71583687327802181243896484375</LatitudeDegrees>
              <LongitudeDegrees>-4.01565439067780971527099609375</LongitudeDegrees>
            </Position>
            <AltitudeMeters>1149.5999755859375</AltitudeMeters>
            <DistanceMeters>NAN</DistanceMeters>
          </Trackpoint>
          <Trackpoint>
            <Time>2019-08-01T11:32:03.000Z</Time>
            <Position>
              <LatitudeDegrees>40.715944580733776092529296875</LatitudeDegrees>
              <LongitudeDegrees>-4.015654139220714569091796875</LongitudeDegrees>
            </Position>
            <AltitudeMeters>1150</AltitudeMeters>
            <DistanceMeters>NAN</DistanceMeters>
          </Trackpoint>
          <Trackpoint>
            <Time>2019-08-01T11:32:04.000Z</Time>
            <Position>
              <LatitudeDegrees>40.71599897928535938262939453125</LatitudeDegrees>
              <LongitudeDegrees>-4.01565372012555599212646484375</LongitudeDegrees>
            </Position>
            <AltitudeMeters>1150.199951171875</AltitudeMeters>
            <DistanceMeters>NAN</DistanceMeters>
          </Trackpoint>
          <Trackpoint>
            <Time>2019-08-01T11:32:05.000Z</Time>
            <Position>
              <LatitudeDegrees>40.71605429984629154205322265625</LatitudeDegrees>
              <LongitudeDegrees>-4.0156517922878265380859375</LongitudeDegrees>
            </Position>
            <AltitudeMeters>1150.199951171875</AltitudeMeters>
            <DistanceMeters>NAN</DistanceMeters>
          </Trackpoint>
          <Trackpoint>
            <Time>2019-08-01T11:32:06.000Z</Time>
            <Position>
              <LatitudeDegrees>40.71611045859754085540771484375</LatitudeDegrees>
              <LongitudeDegrees>-4.0156502835452556610107421875</LongitudeDegrees>
            </Position>
            <AltitudeMeters>1150.5999755859375</AltitudeMeters>
            <DistanceMeters>NAN</DistanceMeters>
          </Trackpoint>
          <Trackpoint>
            <Time>2019-08-01T11:32:07.000Z</Time>
            <Position>
              <LatitudeDegrees>40.71616577915847301483154296875</LatitudeDegrees>
              <LongitudeDegrees>-4.0156482718884944915771484375</LongitudeDegrees>
            </Position>
            <AltitudeMeters>1150.5999755859375</AltitudeMeters>
            <DistanceMeters>NAN</DistanceMeters>
          </Trackpoint>
          <Trackpoint>
            <Time>2019-08-01T11:32:08.000Z</Time>
            <Position>
              <LatitudeDegrees>40.71622126735746860504150390625</LatitudeDegrees>
              <LongitudeDegrees>-4.0156442485749721527099609375</LongitudeDegrees>
            </Position>
            <AltitudeMeters>1150.5999755859375</AltitudeMeters>
            <DistanceMeters>NAN</DistanceMeters>
          </Trackpoint>
          <Trackpoint>
            <Time>2019-08-01T11:32:09.000Z</Time>
            <Position>
              <LatitudeDegrees>40.71627692319452762603759765625</LatitudeDegrees>
              <LongitudeDegrees>-4.01563997380435466766357421875</LongitudeDegrees>
            </Position>
            <AltitudeMeters>1150.800048828125</AltitudeMeters>
            <DistanceMeters>NAN</DistanceMeters>
          </Trackpoint>
          <Trackpoint>
            <Time>2019-08-01T11:32:10.000Z</Time>
            <Position>
              <LatitudeDegrees>40.7163329981267452239990234375</LatitudeDegrees>
              <LongitudeDegrees>-4.01563628576695919036865234375</LongitudeDegrees>
            </Position>
            <AltitudeMeters>1150.800048828125</AltitudeMeters>
            <DistanceMeters>NAN</DistanceMeters>
          </Trackpoint>
          <Trackpoint>
            <Time>2019-08-01T11:32:11.000Z</Time>
            <Position>
              <LatitudeDegrees>40.7163896597921848297119140625</LatitudeDegrees>
              <LongitudeDegrees>-4.01563393883407115936279296875</LongitudeDegrees>
            </Position>
            <AltitudeMeters>1150.800048828125</AltitudeMeters>
            <DistanceMeters>NAN</DistanceMeters>
          </Trackpoint>
          <Trackpoint>
            <Time>2019-08-01T11:32:12.000Z</Time>
            <Position>
              <LatitudeDegrees>40.7164466567337512969970703125</LatitudeDegrees>
              <LongitudeDegrees>-4.01563234627246856689453125</LongitudeDegrees>
            </Position>
            <AltitudeMeters>1151</AltitudeMeters>
            <DistanceMeters>NAN</DistanceMeters>
          </Trackpoint>
          <Trackpoint>
            <Time>2019-08-01T11:32:13.000Z</Time>
            <Position>
              <LatitudeDegrees>40.716504491865634918212890625</LatitudeDegrees>
              <LongitudeDegrees>-4.015631340444087982177734375</LongitudeDegrees>
            </Position>
            <AltitudeMeters>1151.199951171875</AltitudeMeters>
            <DistanceMeters>NAN</DistanceMeters>
          </Trackpoint>
          <Trackpoint>
            <Time>2019-08-01T11:32:14.000Z</Time>
            <Position>
              <LatitudeDegrees>40.71656241081655025482177734375</LatitudeDegrees>
              <LongitudeDegrees>-4.0156291611492633819580078125</LongitudeDegrees>
            </Position>
            <AltitudeMeters>1151.4000244140625</AltitudeMeters>
            <DistanceMeters>NAN</DistanceMeters>
          </Trackpoint>
          <Trackpoint>
            <Time>2019-08-01T11:32:15.000Z</Time>
            <Position>
              <LatitudeDegrees>40.716619826853275299072265625</LatitudeDegrees>
              <LongitudeDegrees>-4.0156278200447559356689453125</LongitudeDegrees>
            </Position>
            <AltitudeMeters>1151.5999755859375</AltitudeMeters>
            <DistanceMeters>NAN</DistanceMeters>
          </Trackpoint>
          <Trackpoint>
            <Time>2019-08-01T11:32:16.000Z</Time>
            <Position>
              <LatitudeDegrees>40.71667774580419063568115234375</LatitudeDegrees>
              <LongitudeDegrees>-4.01562622748315334320068359375</LongitudeDegrees>
            </Position>
            <AltitudeMeters>1151.800048828125</AltitudeMeters>
            <DistanceMeters>NAN</DistanceMeters>
          </Trackpoint>
          <Trackpoint>
            <Time>2019-08-01T11:32:17.000Z</Time>
            <Position>
              <LatitudeDegrees>40.71673683822154998779296875</LatitudeDegrees>
              <LongitudeDegrees>-4.01562220416963100433349609375</LongitudeDegrees>
            </Position>
            <AltitudeMeters>1152</AltitudeMeters>
            <DistanceMeters>NAN</DistanceMeters>
          </Trackpoint>
          <Trackpoint>
            <Time>2019-08-01T11:32:18.000Z</Time>
            <Position>
              <LatitudeDegrees>40.71679542772471904754638671875</LatitudeDegrees>
              <LongitudeDegrees>-4.01561767794191837310791015625</LongitudeDegrees>
            </Position>
            <AltitudeMeters>1152.199951171875</AltitudeMeters>
            <DistanceMeters>NAN</DistanceMeters>
          </Trackpoint>
          <Trackpoint>
            <Time>2019-08-01T11:32:19.000Z</Time>
            <Position>
              <LatitudeDegrees>40.716853849589824676513671875</LatitudeDegrees>
              <LongitudeDegrees>-4.0156137384474277496337890625</LongitudeDegrees>
            </Position>
            <AltitudeMeters>1152.4000244140625</AltitudeMeters>
            <DistanceMeters>NAN</DistanceMeters>
          </Trackpoint>
          <Trackpoint>
            <Time>2019-08-01T11:32:20.000Z</Time>
            <Position>
              <LatitudeDegrees>40.7169126905500888824462890625</LatitudeDegrees>
              <LongitudeDegrees>-4.01560694910585880279541015625</LongitudeDegrees>
            </Position>
            <AltitudeMeters>1152.5999755859375</AltitudeMeters>
            <DistanceMeters>NAN</DistanceMeters>
          </Trackpoint>
          <Trackpoint>
            <Time>2019-08-01T11:32:21.000Z</Time>
            <Position>
              <LatitudeDegrees>40.71697027422487735748291015625</LatitudeDegrees>
              <LongitudeDegrees>-4.01559881865978240966796875</LongitudeDegrees>
            </Position>
            <AltitudeMeters>1152.5999755859375</AltitudeMeters>
            <DistanceMeters>NAN</DistanceMeters>
          </Trackpoint>
          <Trackpoint>
            <Time>2019-08-01T11:32:22.000Z</Time>
            <Position>
              <LatitudeDegrees>40.717026852071285247802734375</LatitudeDegrees>
              <LongitudeDegrees>-4.015593789517879486083984375</LongitudeDegrees>
            </Position>
            <AltitudeMeters>1152.5999755859375</AltitudeMeters>
            <DistanceMeters>NAN</DistanceMeters>
          </Trackpoint>
          <Trackpoint>
            <Time>2019-08-01T11:32:23.000Z</Time>
            <Position>
              <LatitudeDegrees>40.7170846872031688690185546875</LatitudeDegrees>
              <LongitudeDegrees>-4.0155922807753086090087890625</LongitudeDegrees>
            </Position>
            <AltitudeMeters>1152.800048828125</AltitudeMeters>
            <DistanceMeters>NAN</DistanceMeters>
          </Trackpoint>
          <Trackpoint>
            <Time>2019-08-01T11:32:24.000Z</Time>
            <Position>
              <LatitudeDegrees>40.7171413488686084747314453125</LatitudeDegrees>
              <LongitudeDegrees>-4.01559412479400634765625</LongitudeDegrees>
            </Position>
            <AltitudeMeters>1152.800048828125</AltitudeMeters>
            <DistanceMeters>NAN</DistanceMeters>
          </Trackpoint>
          <Trackpoint>
            <Time>2019-08-01T11:32:25.000Z</Time>
            <Position>
              <LatitudeDegrees>40.7171980105340480804443359375</LatitudeDegrees>
              <LongitudeDegrees>-4.01559722609817981719970703125</LongitudeDegrees>
            </Position>
            <AltitudeMeters>1153</AltitudeMeters>
            <DistanceMeters>NAN</DistanceMeters>
          </Trackpoint>
          <Trackpoint>
            <Time>2019-08-01T11:32:26.000Z</Time>
            <Position>
              <LatitudeDegrees>40.71725475601851940155029296875</LatitudeDegrees>
              <LongitudeDegrees>-4.01560041122138500213623046875</LongitudeDegrees>
            </Position>
            <AltitudeMeters>1153</AltitudeMeters>
            <DistanceMeters>NAN</DistanceMeters>
          </Trackpoint>
          <Trackpoint>
            <Time>2019-08-01T11:32:27.000Z</Time>
            <Position>
              <LatitudeDegrees>40.71731141768395900726318359375</LatitudeDegrees>
              <LongitudeDegrees>-4.0156040154397487640380859375</LongitudeDegrees>
            </Position>
            <AltitudeMeters>1153.199951171875</AltitudeMeters>
            <DistanceMeters>NAN</DistanceMeters>
          </Trackpoint>
          <Trackpoint>
            <Time>2019-08-01T11:32:28.000Z</Time>
            <Position>
              <LatitudeDegrees>40.7173663191497325897216796875</LatitudeDegrees>
              <LongitudeDegrees>-4.0156090445816516876220703125</LongitudeDegrees>
            </Position>
            <AltitudeMeters>1153.199951171875</AltitudeMeters>
            <DistanceMeters>NAN</DistanceMeters>
          </Trackpoint>
          <Trackpoint>
            <Time>2019-08-01T11:32:29.000Z</Time>
            <Position>
              <LatitudeDegrees>40.71742105297744274139404296875</LatitudeDegrees>
              <LongitudeDegrees>-4.01561499573290348052978515625</LongitudeDegrees>
            </Position>
            <AltitudeMeters>1153.4000244140625</AltitudeMeters>
            <DistanceMeters>NAN</DistanceMeters>
          </Trackpoint>
          <Trackpoint>
            <Time>2019-08-01T11:32:30.000Z</Time>
            <Position>
              <LatitudeDegrees>40.71747603826224803924560546875</LatitudeDegrees>
              <LongitudeDegrees>-4.01561901904642581939697265625</LongitudeDegrees>
            </Position>
            <AltitudeMeters>1153.5999755859375</AltitudeMeters>
            <DistanceMeters>NAN</DistanceMeters>
          </Trackpoint>
          <Trackpoint>
            <Time>2019-08-01T11:32:31.000Z</Time>
            <Position>
              <LatitudeDegrees>40.71747603826224803924560546875</LatitudeDegrees>
              <LongitudeDegrees>-4.01561901904642581939697265625</LongitudeDegrees>
            </Position>
            <AltitudeMeters>1153.5999755859375</AltitudeMeters>
            <DistanceMeters>NAN</DistanceMeters>
          </Trackpoint>
          <Trackpoint>
            <Time>2019-08-01T11:32:32.000Z</Time>
            <Position>
              <LatitudeDegrees>40.7175768725574016571044921875</LatitudeDegrees>
              <LongitudeDegrees>-4.0156244672834873199462890625</LongitudeDegrees>
            </Position>
            <AltitudeMeters>1153.800048828125</AltitudeMeters>
            <DistanceMeters>NAN</DistanceMeters>
          </Trackpoint>
          <Trackpoint>
            <Time>2019-08-01T11:32:33.000Z</Time>
            <Position>
              <LatitudeDegrees>40.71762708015739917755126953125</LatitudeDegrees>
              <LongitudeDegrees>-4.01562773622572422027587890625</LongitudeDegrees>
            </Position>
            <AltitudeMeters>1154</AltitudeMeters>
            <DistanceMeters>NAN</DistanceMeters>
          </Trackpoint>
          <Trackpoint>
            <Time>2019-08-01T11:32:34.000Z</Time>
            <Position>
              <LatitudeDegrees>40.71767829358577728271484375</LatitudeDegrees>
              <LongitudeDegrees>-4.01563108898699283599853515625</LongitudeDegrees>
            </Position>
            <AltitudeMeters>1154.4000244140625</AltitudeMeters>
            <DistanceMeters>NAN</DistanceMeters>
          </Trackpoint>
          <Trackpoint>
            <Time>2019-08-01T11:32:35.000Z</Time>
            <Position>
              <LatitudeDegrees>40.717729590833187103271484375</LatitudeDegrees>
              <LongitudeDegrees>-4.0156348608434200286865234375</LongitudeDegrees>
            </Position>
            <AltitudeMeters>1154.5999755859375</AltitudeMeters>
            <DistanceMeters>NAN</DistanceMeters>
          </Trackpoint>
          <Trackpoint>
            <Time>2019-08-01T11:32:36.000Z</Time>
            <Position>
              <LatitudeDegrees>40.71778181008994579315185546875</LatitudeDegrees>
              <LongitudeDegrees>-4.0156408958137035369873046875</LongitudeDegrees>
            </Position>
            <AltitudeMeters>1154.5999755859375</AltitudeMeters>
            <DistanceMeters>NAN</DistanceMeters>
          </Trackpoint>
          <Trackpoint>
            <Time>2019-08-01T11:32:37.000Z</Time>
            <Position>
              <LatitudeDegrees>40.717836208641529083251953125</LatitudeDegrees>
              <LongitudeDegrees>-4.0156476013362407684326171875</LongitudeDegrees>
            </Position>
            <AltitudeMeters>1154.5999755859375</AltitudeMeters>
            <DistanceMeters>NAN</DistanceMeters>
          </Trackpoint>
          <Trackpoint>
            <Time>2019-08-01T11:32:38.000Z</Time>
            <Position>
              <LatitudeDegrees>40.717889852821826934814453125</LatitudeDegrees>
              <LongitudeDegrees>-4.01565472595393657684326171875</LongitudeDegrees>
            </Position>
            <AltitudeMeters>1154.800048828125</AltitudeMeters>
            <DistanceMeters>NAN</DistanceMeters>
          </Trackpoint>
          <Trackpoint>
            <Time>2019-08-01T11:32:39.000Z</Time>
            <Position>
              <LatitudeDegrees>40.717944838106632232666015625</LatitudeDegrees>
              <LongitudeDegrees>-4.01566428132355213165283203125</LongitudeDegrees>
            </Position>
            <AltitudeMeters>1154.800048828125</AltitudeMeters>
            <DistanceMeters>NAN</DistanceMeters>
          </Trackpoint>
          <Trackpoint>
            <Time>2019-08-01T11:32:40.000Z</Time>
            <Position>
              <LatitudeDegrees>40.71799873374402523040771484375</LatitudeDegrees>
              <LongitudeDegrees>-4.01567484252154827117919921875</LongitudeDegrees>
            </Position>
            <AltitudeMeters>1154.800048828125</AltitudeMeters>
            <DistanceMeters>NAN</DistanceMeters>
          </Trackpoint>
          <Trackpoint>
            <Time>2019-08-01T11:32:41.000Z</Time>
            <Position>
              <LatitudeDegrees>40.71805288083851337432861328125</LatitudeDegrees>
              <LongitudeDegrees>-4.01568490080535411834716796875</LongitudeDegrees>
            </Position>
            <AltitudeMeters>1155.199951171875</AltitudeMeters>
            <DistanceMeters>NAN</DistanceMeters>
          </Trackpoint>
          <Trackpoint>
            <Time>2019-08-01T11:32:42.000Z</Time>
            <Position>
              <LatitudeDegrees>40.7181089557707309722900390625</LatitudeDegrees>
              <LongitudeDegrees>-4.01569445617496967315673828125</LongitudeDegrees>
            </Position>
            <AltitudeMeters>1155.5999755859375</AltitudeMeters>
            <DistanceMeters>NAN</DistanceMeters>
          </Trackpoint>
          <Trackpoint>
            <Time>2019-08-01T11:32:43.000Z</Time>
            <Position>
              <LatitudeDegrees>40.71816704235970973968505859375</LatitudeDegrees>
              <LongitudeDegrees>-4.01570552028715610504150390625</LongitudeDegrees>
            </Position>
            <AltitudeMeters>1155.800048828125</AltitudeMeters>
            <DistanceMeters>NAN</DistanceMeters>
          </Trackpoint>
          <Trackpoint>
            <Time>2019-08-01T11:32:44.000Z</Time>
            <Position>
              <LatitudeDegrees>40.71822219528257846832275390625</LatitudeDegrees>
              <LongitudeDegrees>-4.01571750640869140625</LongitudeDegrees>
            </Position>
            <AltitudeMeters>1155.800048828125</AltitudeMeters>
            <DistanceMeters>NAN</DistanceMeters>
          </Trackpoint>
          <Trackpoint>
            <Time>2019-08-01T11:32:45.000Z</Time>
            <Position>
              <LatitudeDegrees>40.71827483363449573516845703125</LatitudeDegrees>
              <LongitudeDegrees>-4.01572982780635356903076171875</LongitudeDegrees>
            </Position>
            <AltitudeMeters>1156</AltitudeMeters>
            <DistanceMeters>NAN</DistanceMeters>
          </Trackpoint>
          <Trackpoint>
            <Time>2019-08-01T11:32:46.000Z</Time>
            <Position>
              <LatitudeDegrees>40.71832747198641300201416015625</LatitudeDegrees>
              <LongitudeDegrees>-4.01574307121336460113525390625</LongitudeDegrees>
            </Position>
            <AltitudeMeters>1156.199951171875</AltitudeMeters>
            <DistanceMeters>NAN</DistanceMeters>
          </Trackpoint>
          <Trackpoint>
            <Time>2019-08-01T11:32:47.000Z</Time>
            <Position>
              <LatitudeDegrees>40.718378685414791107177734375</LatitudeDegrees>
              <LongitudeDegrees>-4.01575681753456592559814453125</LongitudeDegrees>
            </Position>
            <AltitudeMeters>1156.5999755859375</AltitudeMeters>
            <DistanceMeters>NAN</DistanceMeters>
          </Trackpoint>
          <Trackpoint>
            <Time>2019-08-01T11:32:48.000Z</Time>
            <Position>
              <LatitudeDegrees>40.71843006648123264312744140625</LatitudeDegrees>
              <LongitudeDegrees>-4.0157724916934967041015625</LongitudeDegrees>
            </Position>
            <AltitudeMeters>1157</AltitudeMeters>
            <DistanceMeters>NAN</DistanceMeters>
          </Trackpoint>
          <Trackpoint>
            <Time>2019-08-01T11:32:49.000Z</Time>
            <Position>
              <LatitudeDegrees>40.71847935207188129425048828125</LatitudeDegrees>
              <LongitudeDegrees>-4.0157900936901569366455078125</LongitudeDegrees>
            </Position>
            <AltitudeMeters>1157.199951171875</AltitudeMeters>
            <DistanceMeters>NAN</DistanceMeters>
          </Trackpoint>
          <Trackpoint>
            <Time>2019-08-01T11:32:50.000Z</Time>
            <Position>
              <LatitudeDegrees>40.7185300625860691070556640625</LatitudeDegrees>
              <LongitudeDegrees>-4.015807695686817169189453125</LongitudeDegrees>
            </Position>
            <AltitudeMeters>1157.4000244140625</AltitudeMeters>
            <DistanceMeters>NAN</DistanceMeters>
          </Trackpoint>
          <Trackpoint>
            <Time>2019-08-01T11:32:51.000Z</Time>
            <Position>
              <LatitudeDegrees>40.718580186367034912109375</LatitudeDegrees>
              <LongitudeDegrees>-4.0158246271312236785888671875</LongitudeDegrees>
            </Position>
            <AltitudeMeters>1157.5999755859375</AltitudeMeters>
            <DistanceMeters>NAN</DistanceMeters>
          </Trackpoint>
          <Trackpoint>
            <Time>2019-08-01T11:32:52.000Z</Time>
            <Position>
              <LatitudeDegrees>40.7186299748718738555908203125</LatitudeDegrees>
              <LongitudeDegrees>-4.01584315113723278045654296875</LongitudeDegrees>
            </Position>
            <AltitudeMeters>1157.800048828125</AltitudeMeters>
            <DistanceMeters>NAN</DistanceMeters>
          </Trackpoint>
          <Trackpoint>
            <Time>2019-08-01T11:32:53.000Z</Time>
            <Position>
              <LatitudeDegrees>40.7186299748718738555908203125</LatitudeDegrees>
              <LongitudeDegrees>-4.01584315113723278045654296875</LongitudeDegrees>
            </Position>
            <AltitudeMeters>1158.199951171875</AltitudeMeters>
            <DistanceMeters>NAN</DistanceMeters>
          </Trackpoint>
          <Trackpoint>
            <Time>2019-08-01T11:32:54.000Z</Time>
            <Position>
              <LatitudeDegrees>40.718725025653839111328125</LatitudeDegrees>
              <LongitudeDegrees>-4.01587919332087039947509765625</LongitudeDegrees>
            </Position>
            <AltitudeMeters>1158.4000244140625</AltitudeMeters>
            <DistanceMeters>NAN</DistanceMeters>
          </Trackpoint>
          <Trackpoint>
            <Time>2019-08-01T11:32:55.000Z</Time>
            <Position>
              <LatitudeDegrees>40.718725025653839111328125</LatitudeDegrees>
              <LongitudeDegrees>-4.01587919332087039947509765625</LongitudeDegrees>
            </Position>
            <AltitudeMeters>1158.800048828125</AltitudeMeters>
            <DistanceMeters>NAN</DistanceMeters>
          </Trackpoint>
          <Trackpoint>
            <Time>2019-08-01T11:32:56.000Z</Time>
            <Position>
              <LatitudeDegrees>40.71881353855133056640625</LatitudeDegrees>
              <LongitudeDegrees>-4.015916325151920318603515625</LongitudeDegrees>
            </Position>
            <AltitudeMeters>1159</AltitudeMeters>
            <DistanceMeters>NAN</DistanceMeters>
          </Trackpoint>
          <Trackpoint>
            <Time>2019-08-01T11:32:57.000Z</Time>
            <Position>
              <LatitudeDegrees>40.71885569952428340911865234375</LatitudeDegrees>
              <LongitudeDegrees>-4.01593820191919803619384765625</LongitudeDegrees>
            </Position>
            <AltitudeMeters>1159.4000244140625</AltitudeMeters>
            <DistanceMeters>NAN</DistanceMeters>
          </Trackpoint>
          <Trackpoint>
            <Time>2019-08-01T11:32:58.000Z</Time>
            <Position>
              <LatitudeDegrees>40.71889735758304595947265625</LatitudeDegrees>
              <LongitudeDegrees>-4.01596225798130035400390625</LongitudeDegrees>
            </Position>
            <AltitudeMeters>1159.5999755859375</AltitudeMeters>
            <DistanceMeters>NAN</DistanceMeters>
          </Trackpoint>
          <Trackpoint>
            <Time>2019-08-01T11:32:59.000Z</Time>
            <Position>
              <LatitudeDegrees>40.71893851272761821746826171875</LatitudeDegrees>
              <LongitudeDegrees>-4.01598664931952953338623046875</LongitudeDegrees>
            </Position>
            <AltitudeMeters>1160</AltitudeMeters>
            <DistanceMeters>NAN</DistanceMeters>
          </Trackpoint>
          <Trackpoint>
            <Time>2019-08-01T11:33:00.000Z</Time>
            <Position>
              <LatitudeDegrees>40.71893851272761821746826171875</LatitudeDegrees>
              <LongitudeDegrees>-4.01598664931952953338623046875</LongitudeDegrees>
            </Position>
            <AltitudeMeters>1160.199951171875</AltitudeMeters>
            <DistanceMeters>NAN</DistanceMeters>
          </Trackpoint>
          <Trackpoint>
            <Time>2019-08-01T11:33:01.000Z</Time>
            <Position>
              <LatitudeDegrees>40.71901914663612842559814453125</LatitudeDegrees>
              <LongitudeDegrees>-4.0160324983298778533935546875</LongitudeDegrees>
            </Position>
            <AltitudeMeters>1160.4000244140625</AltitudeMeters>
            <DistanceMeters>NAN</DistanceMeters>
          </Trackpoint>
          <Trackpoint>
            <Time>2019-08-01T11:33:02.000Z</Time>
            <Position>
              <LatitudeDegrees>40.71905820630490779876708984375</LatitudeDegrees>
              <LongitudeDegrees>-4.016055129468441009521484375</LongitudeDegrees>
            </Position>
            <AltitudeMeters>1160.5999755859375</AltitudeMeters>
            <DistanceMeters>NAN</DistanceMeters>
          </Trackpoint>
          <Trackpoint>
            <Time>2019-08-01T11:33:03.000Z</Time>
            <Position>
              <LatitudeDegrees>40.71905820630490779876708984375</LatitudeDegrees>
              <LongitudeDegrees>-4.016055129468441009521484375</LongitudeDegrees>
            </Position>
            <AltitudeMeters>1161</AltitudeMeters>
            <DistanceMeters>NAN</DistanceMeters>
          </Trackpoint>
          <Trackpoint>
            <Time>2019-08-01T11:33:04.000Z</Time>
            <Position>
              <LatitudeDegrees>40.71905820630490779876708984375</LatitudeDegrees>
              <LongitudeDegrees>-4.016055129468441009521484375</LongitudeDegrees>
            </Position>
            <AltitudeMeters>1161.199951171875</AltitudeMeters>
            <DistanceMeters>NAN</DistanceMeters>
          </Trackpoint>
          <Trackpoint>
            <Time>2019-08-01T11:33:05.000Z</Time>
            <Position>
              <LatitudeDegrees>40.71917437948286533355712890625</LatitudeDegrees>
              <LongitudeDegrees>-4.01612025685608386993408203125</LongitudeDegrees>
            </Position>
            <AltitudeMeters>1161.4000244140625</AltitudeMeters>
            <DistanceMeters>NAN</DistanceMeters>
          </Trackpoint>
          <Trackpoint>
            <Time>2019-08-01T11:33:06.000Z</Time>
            <Position>
              <LatitudeDegrees>40.71921310387551784515380859375</LatitudeDegrees>
              <LongitudeDegrees>-4.01614322327077388763427734375</LongitudeDegrees>
            </Position>
            <AltitudeMeters>1161.4000244140625</AltitudeMeters>
            <DistanceMeters>NAN</DistanceMeters>
          </Trackpoint>
          <Trackpoint>
            <Time>2019-08-01T11:33:07.000Z</Time>
            <Position>
              <LatitudeDegrees>40.71925099007785320281982421875</LatitudeDegrees>
              <LongitudeDegrees>-4.01616635732352733612060546875</LongitudeDegrees>
            </Position>
            <AltitudeMeters>1161.800048828125</AltitudeMeters>
            <DistanceMeters>NAN</DistanceMeters>
          </Trackpoint>
          <Trackpoint>
            <Time>2019-08-01T11:33:08.000Z</Time>
            <Position>
              <LatitudeDegrees>40.719288289546966552734375</LatitudeDegrees>
              <LongitudeDegrees>-4.016188569366931915283203125</LongitudeDegrees>
            </Position>
            <AltitudeMeters>1162</AltitudeMeters>
            <DistanceMeters>NAN</DistanceMeters>
          </Trackpoint>
          <Trackpoint>
            <Time>2019-08-01T11:33:09.000Z</Time>
            <Position>
              <LatitudeDegrees>40.71932592429220676422119140625</LatitudeDegrees>
              <LongitudeDegrees>-4.0162101946771144866943359375</LongitudeDegrees>
            </Position>
            <AltitudeMeters>1162.5999755859375</AltitudeMeters>
            <DistanceMeters>NAN</DistanceMeters>
          </Trackpoint>
          <Trackpoint>
            <Time>2019-08-01T11:33:10.000Z</Time>
            <Position>
              <LatitudeDegrees>40.71936330758035182952880859375</LatitudeDegrees>
              <LongitudeDegrees>-4.01623240672051906585693359375</LongitudeDegrees>
            </Position>
            <AltitudeMeters>1162.800048828125</AltitudeMeters>
            <DistanceMeters>NAN</DistanceMeters>
          </Trackpoint>
          <Trackpoint>
            <Time>2019-08-01T11:33:11.000Z</Time>
            <Position>
              <LatitudeDegrees>40.71936330758035182952880859375</LatitudeDegrees>
              <LongitudeDegrees>-4.01623240672051906585693359375</LongitudeDegrees>
            </Position>
            <AltitudeMeters>1163</AltitudeMeters>
            <DistanceMeters>NAN</DistanceMeters>
          </Trackpoint>
          <Trackpoint>
            <Time>2019-08-01T11:33:12.000Z</Time>
            <Position>
              <LatitudeDegrees>40.719438157975673675537109375</LatitudeDegrees>
              <LongitudeDegrees>-4.016277752816677093505859375</LongitudeDegrees>
            </Position>
            <AltitudeMeters>1163.199951171875</AltitudeMeters>
            <DistanceMeters>NAN</DistanceMeters>
          </Trackpoint>
          <Trackpoint>
            <Time>2019-08-01T11:33:13.000Z</Time>
            <Position>
              <LatitudeDegrees>40.719438157975673675537109375</LatitudeDegrees>
              <LongitudeDegrees>-4.016277752816677093505859375</LongitudeDegrees>
            </Position>
            <AltitudeMeters>1163.4000244140625</AltitudeMeters>
            <DistanceMeters>NAN</DistanceMeters>
          </Trackpoint>
          <Trackpoint>
            <Time>2019-08-01T11:33:14.000Z</Time>
            <Position>
              <LatitudeDegrees>40.71951384656131267547607421875</LatitudeDegrees>
              <LongitudeDegrees>-4.01632226072251796722412109375</LongitudeDegrees>
            </Position>
            <AltitudeMeters>1163.5999755859375</AltitudeMeters>
            <DistanceMeters>NAN</DistanceMeters>
          </Trackpoint>
          <Trackpoint>
            <Time>2019-08-01T11:33:15.000Z</Time>
            <Position>
              <LatitudeDegrees>40.719551146030426025390625</LatitudeDegrees>
              <LongitudeDegrees>-4.01634556241333484649658203125</LongitudeDegrees>
            </Position>
            <AltitudeMeters>1164</AltitudeMeters>
            <DistanceMeters>NAN</DistanceMeters>
          </Trackpoint>
          <Trackpoint>
            <Time>2019-08-01T11:33:16.000Z</Time>
            <Position>
              <LatitudeDegrees>40.71958878077566623687744140625</LatitudeDegrees>
              <LongitudeDegrees>-4.01636861264705657958984375</LongitudeDegrees>
            </Position>
            <AltitudeMeters>1164.199951171875</AltitudeMeters>
            <DistanceMeters>NAN</DistanceMeters>
          </Trackpoint>
          <Trackpoint>
            <Time>2019-08-01T11:33:17.000Z</Time>
            <Position>
              <LatitudeDegrees>40.71962649933993816375732421875</LatitudeDegrees>
              <LongitudeDegrees>-4.01639132760465145111083984375</LongitudeDegrees>
            </Position>
            <AltitudeMeters>1164.4000244140625</AltitudeMeters>
            <DistanceMeters>NAN</DistanceMeters>
          </Trackpoint>
          <Trackpoint>
            <Time>2019-08-01T11:33:18.000Z</Time>
            <Position>
              <LatitudeDegrees>40.71966388262808322906494140625</LatitudeDegrees>
              <LongitudeDegrees>-4.0164130367338657379150390625</LongitudeDegrees>
            </Position>
            <AltitudeMeters>1164.5999755859375</AltitudeMeters>
            <DistanceMeters>NAN</DistanceMeters>
          </Trackpoint>
          <Trackpoint>
            <Time>2019-08-01T11:33:19.000Z</Time>
            <Position>
              <LatitudeDegrees>40.7197001762688159942626953125</LatitudeDegrees>
              <LongitudeDegrees>-4.01643558405339717864990234375</LongitudeDegrees>
            </Position>
            <AltitudeMeters>1165</AltitudeMeters>
            <DistanceMeters>NAN</DistanceMeters>
          </Trackpoint>
          <Trackpoint>
            <Time>2019-08-01T11:33:20.000Z</Time>
            <Position>
              <LatitudeDegrees>40.71973596699535846710205078125</LatitudeDegrees>
              <LongitudeDegrees>-4.016458801925182342529296875</LongitudeDegrees>
            </Position>
            <AltitudeMeters>1165.199951171875</AltitudeMeters>
            <DistanceMeters>NAN</DistanceMeters>
          </Trackpoint>
          <Trackpoint>
            <Time>2019-08-01T11:33:21.000Z</Time>
            <Position>
              <LatitudeDegrees>40.7197712548077106475830078125</LatitudeDegrees>
              <LongitudeDegrees>-4.01648151688277721405029296875</LongitudeDegrees>
            </Position>
            <AltitudeMeters>1165.4000244140625</AltitudeMeters>
            <DistanceMeters>NAN</DistanceMeters>
          </Trackpoint>
          <Trackpoint>
            <Time>2019-08-01T11:33:22.000Z</Time>
            <Position>
              <LatitudeDegrees>40.7198064588010311126708984375</LatitudeDegrees>
              <LongitudeDegrees>-4.016504399478435516357421875</LongitudeDegrees>
            </Position>
            <AltitudeMeters>1165.4000244140625</AltitudeMeters>
            <DistanceMeters>NAN</DistanceMeters>
          </Trackpoint>
          <Trackpoint>
            <Time>2019-08-01T11:33:23.000Z</Time>
            <Position>
              <LatitudeDegrees>40.719841830432415008544921875</LatitudeDegrees>
              <LongitudeDegrees>-4.01652753353118896484375</LongitudeDegrees>
            </Position>
            <AltitudeMeters>1165.5999755859375</AltitudeMeters>
            <DistanceMeters>NAN</DistanceMeters>
          </Trackpoint>
          <Trackpoint>
            <Time>2019-08-01T11:33:24.000Z</Time>
            <Position>
              <LatitudeDegrees>40.71987695060670375823974609375</LatitudeDegrees>
              <LongitudeDegrees>-4.016552008688449859619140625</LongitudeDegrees>
            </Position>
            <AltitudeMeters>1165.800048828125</AltitudeMeters>
            <DistanceMeters>NAN</DistanceMeters>
          </Trackpoint>
          <Trackpoint>
            <Time>2019-08-01T11:33:25.000Z</Time>
            <Position>
              <LatitudeDegrees>40.7199124060571193695068359375</LatitudeDegrees>
              <LongitudeDegrees>-4.016577489674091339111328125</LongitudeDegrees>
            </Position>
            <AltitudeMeters>1166</AltitudeMeters>
            <DistanceMeters>NAN</DistanceMeters>
          </Trackpoint>
          <Trackpoint>
            <Time>2019-08-01T11:33:26.000Z</Time>
            <Position>
              <LatitudeDegrees>40.7199124060571193695068359375</LatitudeDegrees>
              <LongitudeDegrees>-4.016577489674091339111328125</LongitudeDegrees>
            </Position>
            <AltitudeMeters>1166.199951171875</AltitudeMeters>
            <DistanceMeters>NAN</DistanceMeters>
          </Trackpoint>
          <Trackpoint>
            <Time>2019-08-01T11:33:27.000Z</Time>
            <Position>
              <LatitudeDegrees>40.719983316957950592041015625</LatitudeDegrees>
              <LongitudeDegrees>-4.01663037948310375213623046875</LongitudeDegrees>
            </Position>
            <AltitudeMeters>1166.199951171875</AltitudeMeters>
            <DistanceMeters>NAN</DistanceMeters>
          </Trackpoint>
          <Trackpoint>
            <Time>2019-08-01T11:33:28.000Z</Time>
            <Position>
              <LatitudeDegrees>40.72001826949417591094970703125</LatitudeDegrees>
              <LongitudeDegrees>-4.01665871031582355499267578125</LongitudeDegrees>
            </Position>
            <AltitudeMeters>1166.4000244140625</AltitudeMeters>
            <DistanceMeters>NAN</DistanceMeters>
          </Trackpoint>
          <Trackpoint>
            <Time>2019-08-01T11:33:29.000Z</Time>
            <Position>
              <LatitudeDegrees>40.72001826949417591094970703125</LatitudeDegrees>
              <LongitudeDegrees>-4.01665871031582355499267578125</LongitudeDegrees>
            </Position>
            <AltitudeMeters>1166.5999755859375</AltitudeMeters>
            <DistanceMeters>NAN</DistanceMeters>
          </Trackpoint>
          <Trackpoint>
            <Time>2019-08-01T11:33:30.000Z</Time>
            <Position>
              <LatitudeDegrees>40.72008716873824596405029296875</LatitudeDegrees>
              <LongitudeDegrees>-4.01671922765672206878662109375</LongitudeDegrees>
            </Position>
            <AltitudeMeters>1167.4000244140625</AltitudeMeters>
            <DistanceMeters>NAN</DistanceMeters>
          </Trackpoint>
          <Trackpoint>
            <Time>2019-08-01T11:33:31.000Z</Time>
            <Position>
              <LatitudeDegrees>40.7201216183602809906005859375</LatitudeDegrees>
              <LongitudeDegrees>-4.0167513303458690643310546875</LongitudeDegrees>
            </Position>
            <AltitudeMeters>1167.5999755859375</AltitudeMeters>
            <DistanceMeters>NAN</DistanceMeters>
          </Trackpoint>
          <Trackpoint>
            <Time>2019-08-01T11:33:32.000Z</Time>
            <Position>
              <LatitudeDegrees>40.720155648887157440185546875</LatitudeDegrees>
              <LongitudeDegrees>-4.0167851932346820831298828125</LongitudeDegrees>
            </Position>
            <AltitudeMeters>1167.800048828125</AltitudeMeters>
            <DistanceMeters>NAN</DistanceMeters>
          </Trackpoint>
          <Trackpoint>
            <Time>2019-08-01T11:33:33.000Z</Time>
            <Position>
              <LatitudeDegrees>40.720155648887157440185546875</LatitudeDegrees>
              <LongitudeDegrees>-4.0167851932346820831298828125</LongitudeDegrees>
            </Position>
            <AltitudeMeters>1168</AltitudeMeters>
            <DistanceMeters>NAN</DistanceMeters>
          </Trackpoint>
          <Trackpoint>
            <Time>2019-08-01T11:33:34.000Z</Time>
            <Position>
              <LatitudeDegrees>40.72022379375994205474853515625</LatitudeDegrees>
              <LongitudeDegrees>-4.01685384102165699005126953125</LongitudeDegrees>
            </Position>
            <AltitudeMeters>1168.199951171875</AltitudeMeters>
            <DistanceMeters>NAN</DistanceMeters>
          </Trackpoint>
          <Trackpoint>
            <Time>2019-08-01T11:33:35.000Z</Time>
            <Position>
              <LatitudeDegrees>40.7202580757439136505126953125</LatitudeDegrees>
              <LongitudeDegrees>-4.016889631748199462890625</LongitudeDegrees>
            </Position>
            <AltitudeMeters>1168.4000244140625</AltitudeMeters>
            <DistanceMeters>NAN</DistanceMeters>
          </Trackpoint>
          <Trackpoint>
            <Time>2019-08-01T11:33:36.000Z</Time>
            <Position>
              <LatitudeDegrees>40.7202919386327266693115234375</LatitudeDegrees>
              <LongitudeDegrees>-4.01692592538893222808837890625</LongitudeDegrees>
            </Position>
            <AltitudeMeters>1168.4000244140625</AltitudeMeters>
            <DistanceMeters>NAN</DistanceMeters>
          </Trackpoint>
          <Trackpoint>
            <Time>2019-08-01T11:33:37.000Z</Time>
            <Position>
              <LatitudeDegrees>40.720325969159603118896484375</LatitudeDegrees>
              <LongitudeDegrees>-4.01696314103901386260986328125</LongitudeDegrees>
            </Position>
            <AltitudeMeters>1168.5999755859375</AltitudeMeters>
            <DistanceMeters>NAN</DistanceMeters>
          </Trackpoint>
          <Trackpoint>
            <Time>2019-08-01T11:33:38.000Z</Time>
            <Position>
              <LatitudeDegrees>40.7203599996864795684814453125</LatitudeDegrees>
              <LongitudeDegrees>-4.017000608146190643310546875</LongitudeDegrees>
            </Position>
            <AltitudeMeters>1168.800048828125</AltitudeMeters>
            <DistanceMeters>NAN</DistanceMeters>
          </Trackpoint>
          <Trackpoint>
            <Time>2019-08-01T11:33:39.000Z</Time>
            <Position>
              <LatitudeDegrees>40.7203931920230388641357421875</LatitudeDegrees>
              <LongitudeDegrees>-4.0170389972627162933349609375</LongitudeDegrees>
            </Position>
            <AltitudeMeters>1169</AltitudeMeters>
            <DistanceMeters>NAN</DistanceMeters>
          </Trackpoint>
          <Trackpoint>
            <Time>2019-08-01T11:33:40.000Z</Time>
            <Position>
              <LatitudeDegrees>40.72042579762637615203857421875</LatitudeDegrees>
              <LongitudeDegrees>-4.0170782245695590972900390625</LongitudeDegrees>
            </Position>
            <AltitudeMeters>1169.199951171875</AltitudeMeters>
            <DistanceMeters>NAN</DistanceMeters>
          </Trackpoint>
          <Trackpoint>
            <Time>2019-08-01T11:33:41.000Z</Time>
            <Position>
              <LatitudeDegrees>40.7204585708677768707275390625</LatitudeDegrees>
              <LongitudeDegrees>-4.01711870916187763214111328125</LongitudeDegrees>
            </Position>
            <AltitudeMeters>1169.199951171875</AltitudeMeters>
            <DistanceMeters>NAN</DistanceMeters>
          </Trackpoint>
          <Trackpoint>
            <Time>2019-08-01T11:33:42.000Z</Time>
            <Position>
              <LatitudeDegrees>40.72049201466143131256103515625</LatitudeDegrees>
              <LongitudeDegrees>-4.01716162450611591339111328125</LongitudeDegrees>
            </Position>
            <AltitudeMeters>1169.4000244140625</AltitudeMeters>
            <DistanceMeters>NAN</DistanceMeters>
          </Trackpoint>
          <Trackpoint>
            <Time>2019-08-01T11:33:43.000Z</Time>
            <Position>
              <LatitudeDegrees>40.72052638046443462371826171875</LatitudeDegrees>
              <LongitudeDegrees>-4.01720571331679821014404296875</LongitudeDegrees>
            </Position>
            <AltitudeMeters>1169.5999755859375</AltitudeMeters>
            <DistanceMeters>NAN</DistanceMeters>
          </Trackpoint>
          <Trackpoint>
            <Time>2019-08-01T11:33:44.000Z</Time>
            <Position>
              <LatitudeDegrees>40.72056108154356479644775390625</LatitudeDegrees>
              <LongitudeDegrees>-4.0172508917748928070068359375</LongitudeDegrees>
            </Position>
            <AltitudeMeters>1169.800048828125</AltitudeMeters>
            <DistanceMeters>NAN</DistanceMeters>
          </Trackpoint>
          <Trackpoint>
            <Time>2019-08-01T11:33:45.000Z</Time>
            <Position>
              <LatitudeDegrees>40.72059527970850467681884765625</LatitudeDegrees>
              <LongitudeDegrees>-4.017297662794589996337890625</LongitudeDegrees>
            </Position>
            <AltitudeMeters>1169.800048828125</AltitudeMeters>
            <DistanceMeters>NAN</DistanceMeters>
          </Trackpoint>
          <Trackpoint>
            <Time>2019-08-01T11:33:46.000Z</Time>
            <Position>
              <LatitudeDegrees>40.72063006460666656494140625</LatitudeDegrees>
              <LongitudeDegrees>-4.01734619401395320892333984375</LongitudeDegrees>
            </Position>
            <AltitudeMeters>1170</AltitudeMeters>
            <DistanceMeters>NAN</DistanceMeters>
          </Trackpoint>
          <Trackpoint>
            <Time>2019-08-01T11:33:47.000Z</Time>
            <Position>
              <LatitudeDegrees>40.7206647656857967376708984375</LatitudeDegrees>
              <LongitudeDegrees>-4.0173960663378238677978515625</LongitudeDegrees>
            </Position>
            <AltitudeMeters>1170.199951171875</AltitudeMeters>
            <DistanceMeters>NAN</DistanceMeters>
          </Trackpoint>
          <Trackpoint>
            <Time>2019-08-01T11:33:48.000Z</Time>
            <Position>
              <LatitudeDegrees>40.72069955058395862579345703125</LatitudeDegrees>
              <LongitudeDegrees>-4.01744820177555084228515625</LongitudeDegrees>
            </Position>
            <AltitudeMeters>1170.199951171875</AltitudeMeters>
            <DistanceMeters>NAN</DistanceMeters>
          </Trackpoint>
          <Trackpoint>
            <Time>2019-08-01T11:33:49.000Z</Time>
            <Position>
              <LatitudeDegrees>40.72073374874889850616455078125</LatitudeDegrees>
              <LongitudeDegrees>-4.01750318706035614013671875</LongitudeDegrees>
            </Position>
            <AltitudeMeters>1170</AltitudeMeters>
            <DistanceMeters>NAN</DistanceMeters>
          </Trackpoint>
          <Trackpoint>
            <Time>2019-08-01T11:33:50.000Z</Time>
            <Position>
              <LatitudeDegrees>40.7207675278186798095703125</LatitudeDegrees>
              <LongitudeDegrees>-4.017559848725795745849609375</LongitudeDegrees>
            </Position>
            <AltitudeMeters>1170.199951171875</AltitudeMeters>
            <DistanceMeters>NAN</DistanceMeters>
          </Trackpoint>
          <Trackpoint>
            <Time>2019-08-01T11:33:51.000Z</Time>
            <Position>
              <LatitudeDegrees>40.72080147452652454376220703125</LatitudeDegrees>
              <LongitudeDegrees>-4.0176176838576793670654296875</LongitudeDegrees>
            </Position>
            <AltitudeMeters>1170.4000244140625</AltitudeMeters>
            <DistanceMeters>NAN</DistanceMeters>
          </Trackpoint>
          <Trackpoint>
            <Time>2019-08-01T11:33:52.000Z</Time>
            <Position>
              <LatitudeDegrees>40.720835588872432708740234375</LatitudeDegrees>
              <LongitudeDegrees>-4.01767744682729244232177734375</LongitudeDegrees>
            </Position>
            <AltitudeMeters>1170.4000244140625</AltitudeMeters>
            <DistanceMeters>NAN</DistanceMeters>
          </Trackpoint>
          <Trackpoint>
            <Time>2019-08-01T11:33:53.000Z</Time>
            <Position>
              <LatitudeDegrees>40.72086970321834087371826171875</LatitudeDegrees>
              <LongitudeDegrees>-4.01773930527269840240478515625</LongitudeDegrees>
            </Position>
            <AltitudeMeters>1170.5999755859375</AltitudeMeters>
            <DistanceMeters>NAN</DistanceMeters>
          </Trackpoint>
          <Trackpoint>
            <Time>2019-08-01T11:33:54.000Z</Time>
            <Position>
              <LatitudeDegrees>40.72090406902134418487548828125</LatitudeDegrees>
              <LongitudeDegrees>-4.01780300773680210113525390625</LongitudeDegrees>
            </Position>
            <AltitudeMeters>1170.5999755859375</AltitudeMeters>
            <DistanceMeters>NAN</DistanceMeters>
          </Trackpoint>
          <Trackpoint>
            <Time>2019-08-01T11:33:55.000Z</Time>
            <Position>
              <LatitudeDegrees>40.7209380157291889190673828125</LatitudeDegrees>
              <LongitudeDegrees>-4.0178694762289524078369140625</LongitudeDegrees>
            </Position>
            <AltitudeMeters>1170.5999755859375</AltitudeMeters>
            <DistanceMeters>NAN</DistanceMeters>
          </Trackpoint>
          <Trackpoint>
            <Time>2019-08-01T11:33:56.000Z</Time>
            <Position>
              <LatitudeDegrees>40.72097112424671649932861328125</LatitudeDegrees>
              <LongitudeDegrees>-4.01793812401592731475830078125</LongitudeDegrees>
            </Position>
            <AltitudeMeters>1170.5999755859375</AltitudeMeters>
            <DistanceMeters>NAN</DistanceMeters>
          </Trackpoint>
          <Trackpoint>
            <Time>2019-08-01T11:33:57.000Z</Time>
            <Position>
              <LatitudeDegrees>40.72100414894521236419677734375</LatitudeDegrees>
              <LongitudeDegrees>-4.01800786145031452178955078125</LongitudeDegrees>
            </Position>
            <AltitudeMeters>1170.5999755859375</AltitudeMeters>
            <DistanceMeters>NAN</DistanceMeters>
          </Trackpoint>
          <Trackpoint>
            <Time>2019-08-01T11:33:58.000Z</Time>
            <Position>
              <LatitudeDegrees>40.72103650309145450592041015625</LatitudeDegrees>
              <LongitudeDegrees>-4.01807893998920917510986328125</LongitudeDegrees>
            </Position>
            <AltitudeMeters>1170.5999755859375</AltitudeMeters>
            <DistanceMeters>NAN</DistanceMeters>
          </Trackpoint>
          <Trackpoint>
            <Time>2019-08-01T11:33:59.000Z</Time>
            <Position>
              <LatitudeDegrees>40.7210677675902843475341796875</LatitudeDegrees>
              <LongitudeDegrees>-4.0181521140038967132568359375</LongitudeDegrees>
            </Position>
            <AltitudeMeters>1170.5999755859375</AltitudeMeters>
            <DistanceMeters>NAN</DistanceMeters>
          </Trackpoint>
          <Trackpoint>
            <Time>2019-08-01T11:34:00.000Z</Time>
            <Position>
              <LatitudeDegrees>40.721098445355892181396484375</LatitudeDegrees>
              <LongitudeDegrees>-4.0182272158563137054443359375</LongitudeDegrees>
            </Position>
            <AltitudeMeters>1170.5999755859375</AltitudeMeters>
            <DistanceMeters>NAN</DistanceMeters>
          </Trackpoint>
          <Trackpoint>
            <Time>2019-08-01T11:34:01.000Z</Time>
            <Position>
              <LatitudeDegrees>40.721098445355892181396484375</LatitudeDegrees>
              <LongitudeDegrees>-4.0182272158563137054443359375</LongitudeDegrees>
            </Position>
            <AltitudeMeters>1170.5999755859375</AltitudeMeters>
            <DistanceMeters>NAN</DistanceMeters>
          </Trackpoint>
          <Trackpoint>
            <Time>2019-08-01T11:34:02.000Z</Time>
            <Position>
              <LatitudeDegrees>40.7211566157639026641845703125</LatitudeDegrees>
              <LongitudeDegrees>-4.018385969102382659912109375</LongitudeDegrees>
            </Position>
            <AltitudeMeters>1170.4000244140625</AltitudeMeters>
            <DistanceMeters>NAN</DistanceMeters>
          </Trackpoint>
          <Trackpoint>
            <Time>2019-08-01T11:34:03.000Z</Time>
            <Position>
              <LatitudeDegrees>40.72118285112082958221435546875</LatitudeDegrees>
              <LongitudeDegrees>-4.018467776477336883544921875</LongitudeDegrees>
            </Position>
            <AltitudeMeters>1170.4000244140625</AltitudeMeters>
            <DistanceMeters>NAN</DistanceMeters>
          </Trackpoint>
          <Trackpoint>
            <Time>2019-08-01T11:34:04.000Z</Time>
            <Position>
              <LatitudeDegrees>40.7212079130113124847412109375</LatitudeDegrees>
              <LongitudeDegrees>-4.018552601337432861328125</LongitudeDegrees>
            </Position>
            <AltitudeMeters>1170.199951171875</AltitudeMeters>
            <DistanceMeters>NAN</DistanceMeters>
          </Trackpoint>
          <Trackpoint>
            <Time>2019-08-01T11:34:05.000Z</Time>
            <Position>
              <LatitudeDegrees>40.7212330587208271026611328125</LatitudeDegrees>
              <LongitudeDegrees>-4.01863734237849712371826171875</LongitudeDegrees>
            </Position>
            <AltitudeMeters>1170</AltitudeMeters>
            <DistanceMeters>NAN</DistanceMeters>
          </Trackpoint>
          <Trackpoint>
            <Time>2019-08-01T11:34:06.000Z</Time>
            <Position>
              <LatitudeDegrees>40.7212582044303417205810546875</LatitudeDegrees>
              <LongitudeDegrees>-4.0187229216098785400390625</LongitudeDegrees>
            </Position>
            <AltitudeMeters>1169.800048828125</AltitudeMeters>
            <DistanceMeters>NAN</DistanceMeters>
          </Trackpoint>
          <Trackpoint>
            <Time>2019-08-01T11:34:07.000Z</Time>
            <Position>
              <LatitudeDegrees>40.72128259576857089996337890625</LatitudeDegrees>
              <LongitudeDegrees>-4.018809758126735687255859375</LongitudeDegrees>
            </Position>
            <AltitudeMeters>1169.5999755859375</AltitudeMeters>
            <DistanceMeters>NAN</DistanceMeters>
          </Trackpoint>
          <Trackpoint>
            <Time>2019-08-01T11:34:08.000Z</Time>
            <Position>
              <LatitudeDegrees>40.72130690328776836395263671875</LatitudeDegrees>
              <LongitudeDegrees>-4.01889718137681484222412109375</LongitudeDegrees>
            </Position>
            <AltitudeMeters>1169.4000244140625</AltitudeMeters>
            <DistanceMeters>NAN</DistanceMeters>
          </Trackpoint>
          <Trackpoint>
            <Time>2019-08-01T11:34:09.000Z</Time>
            <Position>
              <LatitudeDegrees>40.7213316299021244049072265625</LatitudeDegrees>
              <LongitudeDegrees>-4.01898435316979885101318359375</LongitudeDegrees>
            </Position>
            <AltitudeMeters>1169.4000244140625</AltitudeMeters>
            <DistanceMeters>NAN</DistanceMeters>
          </Trackpoint>
          <Trackpoint>
            <Time>2019-08-01T11:34:10.000Z</Time>
            <Position>
              <LatitudeDegrees>40.72135652415454387664794921875</LatitudeDegrees>
              <LongitudeDegrees>-4.01907085441052913665771484375</LongitudeDegrees>
            </Position>
            <AltitudeMeters>1169.4000244140625</AltitudeMeters>
            <DistanceMeters>NAN</DistanceMeters>
          </Trackpoint>
          <Trackpoint>
            <Time>2019-08-01T11:34:11.000Z</Time>
            <Position>
              <LatitudeDegrees>40.72138166986405849456787109375</LatitudeDegrees>
              <LongitudeDegrees>-4.019156433641910552978515625</LongitudeDegrees>
            </Position>
            <AltitudeMeters>1169.199951171875</AltitudeMeters>
            <DistanceMeters>NAN</DistanceMeters>
          </Trackpoint>
          <Trackpoint>
            <Time>2019-08-01T11:34:12.000Z</Time>
            <Position>
              <LatitudeDegrees>40.7214070670306682586669921875</LatitudeDegrees>
              <LongitudeDegrees>-4.01923983357846736907958984375</LongitudeDegrees>
            </Position>
            <AltitudeMeters>1169.199951171875</AltitudeMeters>
            <DistanceMeters>NAN</DistanceMeters>
          </Trackpoint>
          <Trackpoint>
            <Time>2019-08-01T11:34:13.000Z</Time>
            <Position>
              <LatitudeDegrees>40.72143212892115116119384765625</LatitudeDegrees>
              <LongitudeDegrees>-4.01932197622954845428466796875</LongitudeDegrees>
            </Position>
            <AltitudeMeters>1169.199951171875</AltitudeMeters>
            <DistanceMeters>NAN</DistanceMeters>
          </Trackpoint>
          <Trackpoint>
            <Time>2019-08-01T11:34:14.000Z</Time>
            <Position>
              <LatitudeDegrees>40.72145660407841205596923828125</LatitudeDegrees>
              <LongitudeDegrees>-4.019401855766773223876953125</LongitudeDegrees>
            </Position>
            <AltitudeMeters>1169.199951171875</AltitudeMeters>
            <DistanceMeters>NAN</DistanceMeters>
          </Trackpoint>
          <Trackpoint>
            <Time>2019-08-01T11:34:15.000Z</Time>
            <Position>
              <LatitudeDegrees>40.72148032486438751220703125</LatitudeDegrees>
              <LongitudeDegrees>-4.0194794721901416778564453125</LongitudeDegrees>
            </Position>
            <AltitudeMeters>1169.199951171875</AltitudeMeters>
            <DistanceMeters>NAN</DistanceMeters>
          </Trackpoint>
          <Trackpoint>
            <Time>2019-08-01T11:34:16.000Z</Time>
            <Position>
              <LatitudeDegrees>40.72148032486438751220703125</LatitudeDegrees>
              <LongitudeDegrees>-4.0194794721901416778564453125</LongitudeDegrees>
            </Position>
            <AltitudeMeters>1169.199951171875</AltitudeMeters>
            <DistanceMeters>NAN</DistanceMeters>
          </Trackpoint>
          <Trackpoint>
            <Time>2019-08-01T11:34:17.000Z</Time>
            <Position>
              <LatitudeDegrees>40.72152852080762386322021484375</LatitudeDegrees>
              <LongitudeDegrees>-4.01963797397911548614501953125</LongitudeDegrees>
            </Position>
            <AltitudeMeters>1169.199951171875</AltitudeMeters>
            <DistanceMeters>NAN</DistanceMeters>
          </Trackpoint>
          <Trackpoint>
            <Time>2019-08-01T11:34:18.000Z</Time>
            <Position>
              <LatitudeDegrees>40.72155316360294818878173828125</LatitudeDegrees>
              <LongitudeDegrees>-4.0197193622589111328125</LongitudeDegrees>
            </Position>
            <AltitudeMeters>1169</AltitudeMeters>
            <DistanceMeters>NAN</DistanceMeters>
          </Trackpoint>
          <Trackpoint>
            <Time>2019-08-01T11:34:19.000Z</Time>
            <Position>
              <LatitudeDegrees>40.72157663293182849884033203125</LatitudeDegrees>
              <LongitudeDegrees>-4.0198006667196750640869140625</LongitudeDegrees>
            </Position>
            <AltitudeMeters>1169.199951171875</AltitudeMeters>
            <DistanceMeters>NAN</DistanceMeters>
          </Trackpoint>
          <Trackpoint>
            <Time>2019-08-01T11:34:20.000Z</Time>
            <Position>
              <LatitudeDegrees>40.721601359546184539794921875</LatitudeDegrees>
              <LongitudeDegrees>-4.019879288971424102783203125</LongitudeDegrees>
            </Position>
            <AltitudeMeters>1169.199951171875</AltitudeMeters>
            <DistanceMeters>NAN</DistanceMeters>
          </Trackpoint>
          <Trackpoint>
            <Time>2019-08-01T11:34:21.000Z</Time>
            <Position>
              <LatitudeDegrees>40.72162759490311145782470703125</LatitudeDegrees>
              <LongitudeDegrees>-4.01995330117642879486083984375</LongitudeDegrees>
            </Position>
            <AltitudeMeters>1169.199951171875</AltitudeMeters>
            <DistanceMeters>NAN</DistanceMeters>
          </Trackpoint>
          <Trackpoint>
            <Time>2019-08-01T11:34:22.000Z</Time>
            <Position>
              <LatitudeDegrees>40.72165139950811862945556640625</LatitudeDegrees>
              <LongitudeDegrees>-4.02003058232367038726806640625</LongitudeDegrees>
            </Position>
            <AltitudeMeters>1169.199951171875</AltitudeMeters>
            <DistanceMeters>NAN</DistanceMeters>
          </Trackpoint>
          <Trackpoint>
            <Time>2019-08-01T11:34:23.000Z</Time>
            <Position>
              <LatitudeDegrees>40.72167386300861835479736328125</LatitudeDegrees>
              <LongitudeDegrees>-4.02010920457541942596435546875</LongitudeDegrees>
            </Position>
            <AltitudeMeters>1169.199951171875</AltitudeMeters>
            <DistanceMeters>NAN</DistanceMeters>
          </Trackpoint>
          <Trackpoint>
            <Time>2019-08-01T11:34:24.000Z</Time>
            <Position>
              <LatitudeDegrees>40.72169716469943523406982421875</LatitudeDegrees>
              <LongitudeDegrees>-4.0201879106462001800537109375</LongitudeDegrees>
            </Position>
            <AltitudeMeters>1169.199951171875</AltitudeMeters>
            <DistanceMeters>NAN</DistanceMeters>
          </Trackpoint>
          <Trackpoint>
            <Time>2019-08-01T11:34:25.000Z</Time>
            <Position>
              <LatitudeDegrees>40.7217212207615375518798828125</LatitudeDegrees>
              <LongitudeDegrees>-4.02026745490729808807373046875</LongitudeDegrees>
            </Position>
            <AltitudeMeters>1169.199951171875</AltitudeMeters>
            <DistanceMeters>NAN</DistanceMeters>
          </Trackpoint>
          <Trackpoint>
            <Time>2019-08-01T11:34:26.000Z</Time>
            <Position>
              <LatitudeDegrees>40.72174577973783016204833984375</LatitudeDegrees>
              <LongitudeDegrees>-4.02034792117774486541748046875</LongitudeDegrees>
            </Position>
            <AltitudeMeters>1169.199951171875</AltitudeMeters>
            <DistanceMeters>NAN</DistanceMeters>
          </Trackpoint>
          <Trackpoint>
            <Time>2019-08-01T11:34:27.000Z</Time>
            <Position>
              <LatitudeDegrees>40.72177092544734477996826171875</LatitudeDegrees>
              <LongitudeDegrees>-4.02042821981012821197509765625</LongitudeDegrees>
            </Position>
            <AltitudeMeters>1169.199951171875</AltitudeMeters>
            <DistanceMeters>NAN</DistanceMeters>
          </Trackpoint>
          <Trackpoint>
            <Time>2019-08-01T11:34:28.000Z</Time>
            <Position>
              <LatitudeDegrees>40.72179657407104969024658203125</LatitudeDegrees>
              <LongitudeDegrees>-4.0205074287950992584228515625</LongitudeDegrees>
            </Position>
            <AltitudeMeters>1169.199951171875</AltitudeMeters>
            <DistanceMeters>NAN</DistanceMeters>
          </Trackpoint>
          <Trackpoint>
            <Time>2019-08-01T11:34:29.000Z</Time>
            <Position>
              <LatitudeDegrees>40.72182004339993000030517578125</LatitudeDegrees>
              <LongitudeDegrees>-4.02059133164584636688232421875</LongitudeDegrees>
            </Position>
            <AltitudeMeters>1169.199951171875</AltitudeMeters>
            <DistanceMeters>NAN</DistanceMeters>
          </Trackpoint>
          <Trackpoint>
            <Time>2019-08-01T11:34:30.000Z</Time>
            <Position>
              <LatitudeDegrees>40.721842758357524871826171875</LatitudeDegrees>
              <LongitudeDegrees>-4.02067414484918117523193359375</LongitudeDegrees>
            </Position>
            <AltitudeMeters>1169.199951171875</AltitudeMeters>
            <DistanceMeters>NAN</DistanceMeters>
          </Trackpoint>
          <Trackpoint>
            <Time>2019-08-01T11:34:31.000Z</Time>
            <Position>
              <LatitudeDegrees>40.72186631150543689727783203125</LatitudeDegrees>
              <LongitudeDegrees>-4.02075662277638912200927734375</LongitudeDegrees>
            </Position>
            <AltitudeMeters>1169.199951171875</AltitudeMeters>
            <DistanceMeters>NAN</DistanceMeters>
          </Trackpoint>
          <Trackpoint>
            <Time>2019-08-01T11:34:32.000Z</Time>
            <Position>
              <LatitudeDegrees>40.72189229540526866912841796875</LatitudeDegrees>
              <LongitudeDegrees>-4.02083893306553363800048828125</LongitudeDegrees>
            </Position>
            <AltitudeMeters>1169.199951171875</AltitudeMeters>
            <DistanceMeters>NAN</DistanceMeters>
          </Trackpoint>
          <Trackpoint>
            <Time>2019-08-01T11:34:33.000Z</Time>
            <Position>
              <LatitudeDegrees>40.7219186984002590179443359375</LatitudeDegrees>
              <LongitudeDegrees>-4.0209225006401538848876953125</LongitudeDegrees>
            </Position>
            <AltitudeMeters>1169.199951171875</AltitudeMeters>
            <DistanceMeters>NAN</DistanceMeters>
          </Trackpoint>
          <Trackpoint>
            <Time>2019-08-01T11:34:34.000Z</Time>
            <Position>
              <LatitudeDegrees>40.721946023404598236083984375</LatitudeDegrees>
              <LongitudeDegrees>-4.02100539766252040863037109375</LongitudeDegrees>
            </Position>
            <AltitudeMeters>1169.199951171875</AltitudeMeters>
            <DistanceMeters>NAN</DistanceMeters>
          </Trackpoint>
          <Trackpoint>
            <Time>2019-08-01T11:34:35.000Z</Time>
            <Position>
              <LatitudeDegrees>40.72197477333247661590576171875</LatitudeDegrees>
              <LongitudeDegrees>-4.02108854614198207855224609375</LongitudeDegrees>
            </Position>
            <AltitudeMeters>1169.199951171875</AltitudeMeters>
            <DistanceMeters>NAN</DistanceMeters>
          </Trackpoint>
          <Trackpoint>
            <Time>2019-08-01T11:34:37.000Z</Time>
            <Position>
              <LatitudeDegrees>40.72203285992145538330078125</LatitudeDegrees>
              <LongitudeDegrees>-4.02125685475766658782958984375</LongitudeDegrees>
            </Position>
            <AltitudeMeters>1169.199951171875</AltitudeMeters>
            <DistanceMeters>NAN</DistanceMeters>
          </Trackpoint>
          <Trackpoint>
            <Time>2019-08-01T11:34:38.000Z</Time>
            <Position>
              <LatitudeDegrees>40.72206043638288974761962890625</LatitudeDegrees>
              <LongitudeDegrees>-4.021341092884540557861328125</LongitudeDegrees>
            </Position>
            <AltitudeMeters>1169</AltitudeMeters>
            <DistanceMeters>NAN</DistanceMeters>
          </Trackpoint>
          <Trackpoint>
            <Time>2019-08-01T11:34:39.000Z</Time>
            <Position>
              <LatitudeDegrees>40.72208725847303867340087890625</LatitudeDegrees>
              <LongitudeDegrees>-4.0214239060878753662109375</LongitudeDegrees>
            </Position>
            <AltitudeMeters>1169</AltitudeMeters>
            <DistanceMeters>NAN</DistanceMeters>
          </Trackpoint>
          <Trackpoint>
            <Time>2019-08-01T11:34:40.000Z</Time>
            <Position>
              <LatitudeDegrees>40.7221138291060924530029296875</LatitudeDegrees>
              <LongitudeDegrees>-4.02150412090122699737548828125</LongitudeDegrees>
            </Position>
            <AltitudeMeters>1168.800048828125</AltitudeMeters>
            <DistanceMeters>NAN</DistanceMeters>
          </Trackpoint>
          <Trackpoint>
            <Time>2019-08-01T11:34:41.000Z</Time>
            <Position>
              <LatitudeDegrees>40.722139142453670501708984375</LatitudeDegrees>
              <LongitudeDegrees>-4.02158106677234172821044921875</LongitudeDegrees>
            </Position>
            <AltitudeMeters>1168.5999755859375</AltitudeMeters>
            <DistanceMeters>NAN</DistanceMeters>
          </Trackpoint>
          <Trackpoint>
            <Time>2019-08-01T11:34:42.000Z</Time>
            <Position>
              <LatitudeDegrees>40.722167305648326873779296875</LatitudeDegrees>
              <LongitudeDegrees>-4.02165465988218784332275390625</LongitudeDegrees>
            </Position>
            <AltitudeMeters>1168.5999755859375</AltitudeMeters>
            <DistanceMeters>NAN</DistanceMeters>
          </Trackpoint>
          <Trackpoint>
            <Time>2019-08-01T11:34:43.000Z</Time>
            <Position>
              <LatitudeDegrees>40.72220141999423503875732421875</LatitudeDegrees>
              <LongitudeDegrees>-4.021723978221416473388671875</LongitudeDegrees>
            </Position>
            <AltitudeMeters>1168.4000244140625</AltitudeMeters>
            <DistanceMeters>NAN</DistanceMeters>
          </Trackpoint>
          <Trackpoint>
            <Time>2019-08-01T11:34:45.000Z</Time>
            <Position>
              <LatitudeDegrees>40.722282640635967254638671875</LatitudeDegrees>
              <LongitudeDegrees>-4.0218572504818439483642578125</LongitudeDegrees>
            </Position>
            <AltitudeMeters>1168.4000244140625</AltitudeMeters>
            <DistanceMeters>NAN</DistanceMeters>
          </Trackpoint>
          <Trackpoint>
            <Time>2019-08-01T11:34:46.000Z</Time>
            <Position>
              <LatitudeDegrees>40.72232790291309356689453125</LatitudeDegrees>
              <LongitudeDegrees>-4.0219209529459476470947265625</LongitudeDegrees>
            </Position>
            <AltitudeMeters>1168.199951171875</AltitudeMeters>
            <DistanceMeters>NAN</DistanceMeters>
          </Trackpoint>
          <Trackpoint>
            <Time>2019-08-01T11:34:47.000Z</Time>
            <Position>
              <LatitudeDegrees>40.7223709858953952789306640625</LatitudeDegrees>
              <LongitudeDegrees>-4.021987505257129669189453125</LongitudeDegrees>
            </Position>
            <AltitudeMeters>1168.199951171875</AltitudeMeters>
            <DistanceMeters>NAN</DistanceMeters>
          </Trackpoint>
          <Trackpoint>
            <Time>2019-08-01T11:34:48.000Z</Time>
            <Position>
              <LatitudeDegrees>40.722407363355159759521484375</LatitudeDegrees>
              <LongitudeDegrees>-4.02206017635762691497802734375</LongitudeDegrees>
            </Position>
            <AltitudeMeters>1168</AltitudeMeters>
            <DistanceMeters>NAN</DistanceMeters>
          </Trackpoint>
          <Trackpoint>
            <Time>2019-08-01T11:34:49.000Z</Time>
            <Position>
              <LatitudeDegrees>40.7224340178072452545166015625</LatitudeDegrees>
              <LongitudeDegrees>-4.02213997207581996917724609375</LongitudeDegrees>
            </Position>
            <AltitudeMeters>1167.800048828125</AltitudeMeters>
            <DistanceMeters>NAN</DistanceMeters>
          </Trackpoint>
          <Trackpoint>
            <Time>2019-08-01T11:34:50.000Z</Time>
            <Position>
              <LatitudeDegrees>40.72245036251842975616455078125</LatitudeDegrees>
              <LongitudeDegrees>-4.02222328819334506988525390625</LongitudeDegrees>
            </Position>
            <AltitudeMeters>1167.800048828125</AltitudeMeters>
            <DistanceMeters>NAN</DistanceMeters>
          </Trackpoint>
          <Trackpoint>
            <Time>2019-08-01T11:34:51.000Z</Time>
            <Position>
              <LatitudeDegrees>40.72245824150741100311279296875</LatitudeDegrees>
              <LongitudeDegrees>-4.02230710722506046295166015625</LongitudeDegrees>
            </Position>
            <AltitudeMeters>1167.800048828125</AltitudeMeters>
            <DistanceMeters>NAN</DistanceMeters>
          </Trackpoint>
          <Trackpoint>
            <Time>2019-08-01T11:34:52.000Z</Time>
            <Position>
              <LatitudeDegrees>40.72246310301125049591064453125</LatitudeDegrees>
              <LongitudeDegrees>-4.02238975279033184051513671875</LongitudeDegrees>
            </Position>
            <AltitudeMeters>1167.5999755859375</AltitudeMeters>
            <DistanceMeters>NAN</DistanceMeters>
          </Trackpoint>
          <Trackpoint>
            <Time>2019-08-01T11:34:53.000Z</Time>
            <Position>
              <LatitudeDegrees>40.722469054162502288818359375</LatitudeDegrees>
              <LongitudeDegrees>-4.02247088961303234100341796875</LongitudeDegrees>
            </Position>
            <AltitudeMeters>1167.5999755859375</AltitudeMeters>
            <DistanceMeters>NAN</DistanceMeters>
          </Trackpoint>
          <Trackpoint>
            <Time>2019-08-01T11:34:54.000Z</Time>
            <Position>
              <LatitudeDegrees>40.72247835807502269744873046875</LatitudeDegrees>
              <LongitudeDegrees>-4.02255152352154254913330078125</LongitudeDegrees>
            </Position>
            <AltitudeMeters>1167.5999755859375</AltitudeMeters>
            <DistanceMeters>NAN</DistanceMeters>
          </Trackpoint>
          <Trackpoint>
            <Time>2019-08-01T11:34:55.000Z</Time>
            <Position>
              <LatitudeDegrees>40.7224940322339534759521484375</LatitudeDegrees>
              <LongitudeDegrees>-4.02263081632554531097412109375</LongitudeDegrees>
            </Position>
            <AltitudeMeters>1167.5999755859375</AltitudeMeters>
            <DistanceMeters>NAN</DistanceMeters>
          </Trackpoint>
          <Trackpoint>
            <Time>2019-08-01T11:34:56.000Z</Time>
            <Position>
              <LatitudeDegrees>40.7225158251821994781494140625</LatitudeDegrees>
              <LongitudeDegrees>-4.02270742692053318023681640625</LongitudeDegrees>
            </Position>
            <AltitudeMeters>1167.5999755859375</AltitudeMeters>
            <DistanceMeters>NAN</DistanceMeters>
          </Trackpoint>
          <Trackpoint>
            <Time>2019-08-01T11:34:57.000Z</Time>
            <Position>
              <LatitudeDegrees>40.7225436531007289886474609375</LatitudeDegrees>
              <LongitudeDegrees>-4.0227802656590938568115234375</LongitudeDegrees>
            </Position>
            <AltitudeMeters>1167.5999755859375</AltitudeMeters>
            <DistanceMeters>NAN</DistanceMeters>
          </Trackpoint>
          <Trackpoint>
            <Time>2019-08-01T11:34:58.000Z</Time>
            <Position>
              <LatitudeDegrees>40.7225771807134151458740234375</LatitudeDegrees>
              <LongitudeDegrees>-4.0228489972651004791259765625</LongitudeDegrees>
            </Position>
            <AltitudeMeters>1167.800048828125</AltitudeMeters>
            <DistanceMeters>NAN</DistanceMeters>
          </Trackpoint>
          <Trackpoint>
            <Time>2019-08-01T11:34:59.000Z</Time>
            <Position>
              <LatitudeDegrees>40.72261313907802104949951171875</LatitudeDegrees>
              <LongitudeDegrees>-4.02291588485240936279296875</LongitudeDegrees>
            </Position>
            <AltitudeMeters>1167.800048828125</AltitudeMeters>
            <DistanceMeters>NAN</DistanceMeters>
          </Trackpoint>
          <Trackpoint>
            <Time>2019-08-01T11:35:00.000Z</Time>
            <Position>
              <LatitudeDegrees>40.72265001945197582244873046875</LatitudeDegrees>
              <LongitudeDegrees>-4.02298268862068653106689453125</LongitudeDegrees>
            </Position>
            <AltitudeMeters>1167.800048828125</AltitudeMeters>
            <DistanceMeters>NAN</DistanceMeters>
          </Trackpoint>
          <Trackpoint>
            <Time>2019-08-01T11:35:01.000Z</Time>
            <Position>
              <LatitudeDegrees>40.7226878218352794647216796875</LatitudeDegrees>
              <LongitudeDegrees>-4.0230481512844562530517578125</LongitudeDegrees>
            </Position>
            <AltitudeMeters>1168</AltitudeMeters>
            <DistanceMeters>NAN</DistanceMeters>
          </Trackpoint>
          <Trackpoint>
            <Time>2019-08-01T11:35:02.000Z</Time>
            <Position>
              <LatitudeDegrees>40.72272679768502712249755859375</LatitudeDegrees>
              <LongitudeDegrees>-4.0231115184724330902099609375</LongitudeDegrees>
            </Position>
            <AltitudeMeters>1168.199951171875</AltitudeMeters>
            <DistanceMeters>NAN</DistanceMeters>
          </Trackpoint>
          <Trackpoint>
            <Time>2019-08-01T11:35:03.000Z</Time>
            <Position>
              <LatitudeDegrees>40.7227659411728382110595703125</LatitudeDegrees>
              <LongitudeDegrees>-4.0231732092797756195068359375</LongitudeDegrees>
            </Position>
            <AltitudeMeters>1168.199951171875</AltitudeMeters>
            <DistanceMeters>NAN</DistanceMeters>
          </Trackpoint>
          <Trackpoint>
            <Time>2019-08-01T11:35:04.000Z</Time>
            <Position>
              <LatitudeDegrees>40.72280525229871273040771484375</LatitudeDegrees>
              <LongitudeDegrees>-4.023232720792293548583984375</LongitudeDegrees>
            </Position>
            <AltitudeMeters>1168.199951171875</AltitudeMeters>
            <DistanceMeters>NAN</DistanceMeters>
          </Trackpoint>
          <Trackpoint>
            <Time>2019-08-01T11:35:05.000Z</Time>
            <Position>
              <LatitudeDegrees>40.722844898700714111328125</LatitudeDegrees>
              <LongitudeDegrees>-4.02328896336257457733154296875</LongitudeDegrees>
            </Position>
            <AltitudeMeters>1168.199951171875</AltitudeMeters>
            <DistanceMeters>NAN</DistanceMeters>
          </Trackpoint>
          <Trackpoint>
            <Time>2019-08-01T11:35:06.000Z</Time>
            <Position>
              <LatitudeDegrees>40.7228859700262546539306640625</LatitudeDegrees>
              <LongitudeDegrees>-4.02334042824804782867431640625</LongitudeDegrees>
            </Position>
            <AltitudeMeters>1168.199951171875</AltitudeMeters>
            <DistanceMeters>NAN</DistanceMeters>
          </Trackpoint>
          <Trackpoint>
            <Time>2019-08-01T11:35:07.000Z</Time>
            <Position>
              <LatitudeDegrees>40.72292645461857318878173828125</LatitudeDegrees>
              <LongitudeDegrees>-4.023389630019664764404296875</LongitudeDegrees>
            </Position>
            <AltitudeMeters>1168.4000244140625</AltitudeMeters>
            <DistanceMeters>NAN</DistanceMeters>
          </Trackpoint>
          <Trackpoint>
            <Time>2019-08-01T11:35:08.000Z</Time>
            <Position>
              <LatitudeDegrees>40.7229674421250820159912109375</LatitudeDegrees>
              <LongitudeDegrees>-4.0234337188303470611572265625</LongitudeDegrees>
            </Position>
            <AltitudeMeters>1168.4000244140625</AltitudeMeters>
            <DistanceMeters>NAN</DistanceMeters>
          </Trackpoint>
          <Trackpoint>
            <Time>2019-08-01T11:35:09.000Z</Time>
            <Position>
              <LatitudeDegrees>40.72300960309803485870361328125</LatitudeDegrees>
              <LongitudeDegrees>-4.02347219176590442657470703125</LongitudeDegrees>
            </Position>
            <AltitudeMeters>1168.4000244140625</AltitudeMeters>
            <DistanceMeters>NAN</DistanceMeters>
          </Trackpoint>
          <Trackpoint>
            <Time>2019-08-01T11:35:10.000Z</Time>
            <Position>
              <LatitudeDegrees>40.7230515964329242706298828125</LatitudeDegrees>
              <LongitudeDegrees>-4.0235071443021297454833984375</LongitudeDegrees>
            </Position>
            <AltitudeMeters>1168.5999755859375</AltitudeMeters>
            <DistanceMeters>NAN</DistanceMeters>
          </Trackpoint>
          <Trackpoint>
            <Time>2019-08-01T11:35:11.000Z</Time>
            <Position>
              <LatitudeDegrees>40.72309367358684539794921875</LatitudeDegrees>
              <LongitudeDegrees>-4.02353773824870586395263671875</LongitudeDegrees>
            </Position>
            <AltitudeMeters>1168.800048828125</AltitudeMeters>
            <DistanceMeters>NAN</DistanceMeters>
          </Trackpoint>
          <Trackpoint>
            <Time>2019-08-01T11:35:12.000Z</Time>
            <Position>
              <LatitudeDegrees>40.7231347449123859405517578125</LatitudeDegrees>
              <LongitudeDegrees>-4.0235631354153156280517578125</LongitudeDegrees>
            </Position>
            <AltitudeMeters>1169.199951171875</AltitudeMeters>
            <DistanceMeters>NAN</DistanceMeters>
          </Trackpoint>
          <Trackpoint>
            <Time>2019-08-01T11:35:13.000Z</Time>
            <Position>
              <LatitudeDegrees>40.72317413985729217529296875</LatitudeDegrees>
              <LongitudeDegrees>-4.023584425449371337890625</LongitudeDegrees>
            </Position>
            <AltitudeMeters>1169.5999755859375</AltitudeMeters>
            <DistanceMeters>NAN</DistanceMeters>
          </Trackpoint>
          <Trackpoint>
            <Time>2019-08-01T11:35:14.000Z</Time>
            <Position>
              <LatitudeDegrees>40.72321345098316669464111328125</LatitudeDegrees>
              <LongitudeDegrees>-4.02360060252249240875244140625</LongitudeDegrees>
            </Position>
            <AltitudeMeters>1169.800048828125</AltitudeMeters>
            <DistanceMeters>NAN</DistanceMeters>
          </Trackpoint>
          <Trackpoint>
            <Time>2019-08-01T11:35:15.000Z</Time>
            <Position>
              <LatitudeDegrees>40.72325033135712146759033203125</LatitudeDegrees>
              <LongitudeDegrees>-4.02361535467207431793212890625</LongitudeDegrees>
            </Position>
            <AltitudeMeters>1170.199951171875</AltitudeMeters>
            <DistanceMeters>NAN</DistanceMeters>
          </Trackpoint>
          <Trackpoint>
            <Time>2019-08-01T11:35:16.000Z</Time>
            <Position>
              <LatitudeDegrees>40.72328411042690277099609375</LatitudeDegrees>
              <LongitudeDegrees>-4.02362960390746593475341796875</LongitudeDegrees>
            </Position>
            <AltitudeMeters>1170.4000244140625</AltitudeMeters>
            <DistanceMeters>NAN</DistanceMeters>
          </Trackpoint>
          <Trackpoint>
            <Time>2019-08-01T11:35:17.000Z</Time>
            <Position>
              <LatitudeDegrees>40.72331638075411319732666015625</LatitudeDegrees>
              <LongitudeDegrees>-4.0236399136483669281005859375</LongitudeDegrees>
            </Position>
            <AltitudeMeters>1170.800048828125</AltitudeMeters>
            <DistanceMeters>NAN</DistanceMeters>
          </Trackpoint>
          <Trackpoint>
            <Time>2019-08-01T11:35:18.000Z</Time>
            <Position>
              <LatitudeDegrees>40.72334848344326019287109375</LatitudeDegrees>
              <LongitudeDegrees>-4.02364703826606273651123046875</LongitudeDegrees>
            </Position>
            <AltitudeMeters>1171.199951171875</AltitudeMeters>
            <DistanceMeters>NAN</DistanceMeters>
          </Trackpoint>
          <Trackpoint>
            <Time>2019-08-01T11:35:19.000Z</Time>
            <Position>
              <LatitudeDegrees>40.723381005227565765380859375</LatitudeDegrees>
              <LongitudeDegrees>-4.0236516483128070831298828125</LongitudeDegrees>
            </Position>
            <AltitudeMeters>1171.5999755859375</AltitudeMeters>
            <DistanceMeters>NAN</DistanceMeters>
          </Trackpoint>
          <Trackpoint>
            <Time>2019-08-01T11:35:20.000Z</Time>
            <Position>
              <LatitudeDegrees>40.72341419756412506103515625</LatitudeDegrees>
              <LongitudeDegrees>-4.023653827607631683349609375</LongitudeDegrees>
            </Position>
            <AltitudeMeters>1172.199951171875</AltitudeMeters>
            <DistanceMeters>NAN</DistanceMeters>
          </Trackpoint>
          <Trackpoint>
            <Time>2019-08-01T11:35:21.000Z</Time>
            <Position>
              <LatitudeDegrees>40.72344713844358921051025390625</LatitudeDegrees>
              <LongitudeDegrees>-4.0236550010740756988525390625</LongitudeDegrees>
            </Position>
            <AltitudeMeters>1172.5999755859375</AltitudeMeters>
            <DistanceMeters>NAN</DistanceMeters>
          </Trackpoint>
          <Trackpoint>
            <Time>2019-08-01T11:35:22.000Z</Time>
            <Position>
              <LatitudeDegrees>40.7234800793230533599853515625</LatitudeDegrees>
              <LongitudeDegrees>-4.0236539952456951141357421875</LongitudeDegrees>
            </Position>
            <AltitudeMeters>1173.4000244140625</AltitudeMeters>
            <DistanceMeters>NAN</DistanceMeters>
          </Trackpoint>
          <Trackpoint>
            <Time>2019-08-01T11:35:23.000Z</Time>
            <Position>
              <LatitudeDegrees>40.7235136069357395172119140625</LatitudeDegrees>
              <LongitudeDegrees>-4.0236482955515384674072265625</LongitudeDegrees>
            </Position>
            <AltitudeMeters>1173.800048828125</AltitudeMeters>
            <DistanceMeters>NAN</DistanceMeters>
          </Trackpoint>
          <Trackpoint>
            <Time>2019-08-01T11:35:24.000Z</Time>
            <Position>
              <LatitudeDegrees>40.7235464639961719512939453125</LatitudeDegrees>
              <LongitudeDegrees>-4.0236405842006206512451171875</LongitudeDegrees>
            </Position>
            <AltitudeMeters>1174</AltitudeMeters>
            <DistanceMeters>NAN</DistanceMeters>
          </Trackpoint>
          <Trackpoint>
            <Time>2019-08-01T11:35:25.000Z</Time>
            <Position>
              <LatitudeDegrees>40.7235826738178730010986328125</LatitudeDegrees>
              <LongitudeDegrees>-4.02363203465938568115234375</LongitudeDegrees>
            </Position>
            <AltitudeMeters>1174.4000244140625</AltitudeMeters>
            <DistanceMeters>NAN</DistanceMeters>
          </Trackpoint>
          <Trackpoint>
            <Time>2019-08-01T11:35:26.000Z</Time>
            <Position>
              <LatitudeDegrees>40.723614357411861419677734375</LatitudeDegrees>
              <LongitudeDegrees>-4.02361862361431121826171875</LongitudeDegrees>
            </Position>
            <AltitudeMeters>1174.5999755859375</AltitudeMeters>
            <DistanceMeters>NAN</DistanceMeters>
          </Trackpoint>
          <Trackpoint>
            <Time>2019-08-01T11:35:27.000Z</Time>
            <Position>
              <LatitudeDegrees>40.7236470468342304229736328125</LatitudeDegrees>
              <LongitudeDegrees>-4.02360127307474613189697265625</LongitudeDegrees>
            </Position>
            <AltitudeMeters>1174.800048828125</AltitudeMeters>
            <DistanceMeters>NAN</DistanceMeters>
          </Trackpoint>
          <Trackpoint>
            <Time>2019-08-01T11:35:28.000Z</Time>
            <Position>
              <LatitudeDegrees>40.72368107736110687255859375</LatitudeDegrees>
              <LongitudeDegrees>-4.0235804021358489990234375</LongitudeDegrees>
            </Position>
            <AltitudeMeters>1175</AltitudeMeters>
            <DistanceMeters>NAN</DistanceMeters>
          </Trackpoint>
          <Trackpoint>
            <Time>2019-08-01T11:35:29.000Z</Time>
            <Position>
              <LatitudeDegrees>40.72371569462120532989501953125</LatitudeDegrees>
              <LongitudeDegrees>-4.02355869300663471221923828125</LongitudeDegrees>
            </Position>
            <AltitudeMeters>1175.199951171875</AltitudeMeters>
            <DistanceMeters>NAN</DistanceMeters>
          </Trackpoint>
          <Trackpoint>
            <Time>2019-08-01T11:35:30.000Z</Time>
            <Position>
              <LatitudeDegrees>40.72375223971903324127197265625</LatitudeDegrees>
              <LongitudeDegrees>-4.0235348045825958251953125</LongitudeDegrees>
            </Position>
            <AltitudeMeters>1175.4000244140625</AltitudeMeters>
            <DistanceMeters>NAN</DistanceMeters>
          </Trackpoint>
          <Trackpoint>
            <Time>2019-08-01T11:35:31.000Z</Time>
            <Position>
              <LatitudeDegrees>40.72378459386527538299560546875</LatitudeDegrees>
              <LongitudeDegrees>-4.0235078148543834686279296875</LongitudeDegrees>
            </Position>
            <AltitudeMeters>1175.800048828125</AltitudeMeters>
            <DistanceMeters>NAN</DistanceMeters>
          </Trackpoint>
          <Trackpoint>
            <Time>2019-08-01T11:35:32.000Z</Time>
            <Position>
              <LatitudeDegrees>40.723814852535724639892578125</LatitudeDegrees>
              <LongitudeDegrees>-4.0234783105552196502685546875</LongitudeDegrees>
            </Position>
            <AltitudeMeters>1176</AltitudeMeters>
            <DistanceMeters>NAN</DistanceMeters>
          </Trackpoint>
          <Trackpoint>
            <Time>2019-08-01T11:35:33.000Z</Time>
            <Position>
              <LatitudeDegrees>40.72384460829198360443115234375</LatitudeDegrees>
              <LongitudeDegrees>-4.02344763278961181640625</LongitudeDegrees>
            </Position>
            <AltitudeMeters>1176.199951171875</AltitudeMeters>
            <DistanceMeters>NAN</DistanceMeters>
          </Trackpoint>
          <Trackpoint>
            <Time>2019-08-01T11:35:34.000Z</Time>
            <Position>
              <LatitudeDegrees>40.72387260384857654571533203125</LatitudeDegrees>
              <LongitudeDegrees>-4.0234169550240039825439453125</LongitudeDegrees>
            </Position>
            <AltitudeMeters>1176.199951171875</AltitudeMeters>
            <DistanceMeters>NAN</DistanceMeters>
          </Trackpoint>
          <Trackpoint>
            <Time>2019-08-01T11:35:35.000Z</Time>
            <Position>
              <LatitudeDegrees>40.72389925830066204071044921875</LatitudeDegrees>
              <LongitudeDegrees>-4.0233864448964595794677734375</LongitudeDegrees>
            </Position>
            <AltitudeMeters>1176.4000244140625</AltitudeMeters>
            <DistanceMeters>NAN</DistanceMeters>
          </Trackpoint>
          <Trackpoint>
            <Time>2019-08-01T11:35:36.000Z</Time>
            <Position>
              <LatitudeDegrees>40.7239236496388912200927734375</LatitudeDegrees>
              <LongitudeDegrees>-4.023353755474090576171875</LongitudeDegrees>
            </Position>
            <AltitudeMeters>1176.5999755859375</AltitudeMeters>
            <DistanceMeters>NAN</DistanceMeters>
          </Trackpoint>
          <Trackpoint>
            <Time>2019-08-01T11:35:37.000Z</Time>
            <Position>
              <LatitudeDegrees>40.72394686751067638397216796875</LatitudeDegrees>
              <LongitudeDegrees>-4.02331980876624584197998046875</LongitudeDegrees>
            </Position>
            <AltitudeMeters>1177</AltitudeMeters>
            <DistanceMeters>NAN</DistanceMeters>
          </Trackpoint>
          <Trackpoint>
            <Time>2019-08-01T11:35:38.000Z</Time>
            <Position>
              <LatitudeDegrees>40.72397000156342983245849609375</LatitudeDegrees>
              <LongitudeDegrees>-4.023285694420337677001953125</LongitudeDegrees>
            </Position>
            <AltitudeMeters>1177.199951171875</AltitudeMeters>
            <DistanceMeters>NAN</DistanceMeters>
          </Trackpoint>
          <Trackpoint>
            <Time>2019-08-01T11:35:39.000Z</Time>
            <Position>
              <LatitudeDegrees>40.72399397380650043487548828125</LatitudeDegrees>
              <LongitudeDegrees>-4.02325191535055637359619140625</LongitudeDegrees>
            </Position>
            <AltitudeMeters>1177.4000244140625</AltitudeMeters>
            <DistanceMeters>NAN</DistanceMeters>
          </Trackpoint>
          <Trackpoint>
            <Time>2019-08-01T11:35:40.000Z</Time>
            <Position>
              <LatitudeDegrees>40.724019370973110198974609375</LatitudeDegrees>
              <LongitudeDegrees>-4.0232184715569019317626953125</LongitudeDegrees>
            </Position>
            <AltitudeMeters>1177.800048828125</AltitudeMeters>
            <DistanceMeters>NAN</DistanceMeters>
          </Trackpoint>
          <Trackpoint>
            <Time>2019-08-01T11:35:41.000Z</Time>
            <Position>
              <LatitudeDegrees>40.72404610924422740936279296875</LatitudeDegrees>
              <LongitudeDegrees>-4.02318452484905719757080078125</LongitudeDegrees>
            </Position>
            <AltitudeMeters>1178</AltitudeMeters>
            <DistanceMeters>NAN</DistanceMeters>
          </Trackpoint>
          <Trackpoint>
            <Time>2019-08-01T11:35:42.000Z</Time>
            <Position>
              <LatitudeDegrees>40.72407142259180545806884765625</LatitudeDegrees>
              <LongitudeDegrees>-4.02315032668411731719970703125</LongitudeDegrees>
            </Position>
            <AltitudeMeters>1178.199951171875</AltitudeMeters>
            <DistanceMeters>NAN</DistanceMeters>
          </Trackpoint>
          <Trackpoint>
            <Time>2019-08-01T11:35:43.000Z</Time>
            <Position>
              <LatitudeDegrees>40.7240973226726055145263671875</LatitudeDegrees>
              <LongitudeDegrees>-4.02311679907143115997314453125</LongitudeDegrees>
            </Position>
            <AltitudeMeters>1178.5999755859375</AltitudeMeters>
            <DistanceMeters>NAN</DistanceMeters>
          </Trackpoint>
          <Trackpoint>
            <Time>2019-08-01T11:35:44.000Z</Time>
            <Position>
              <LatitudeDegrees>40.7241207920014858245849609375</LatitudeDegrees>
              <LongitudeDegrees>-4.02308352291584014892578125</LongitudeDegrees>
            </Position>
            <AltitudeMeters>1179</AltitudeMeters>
            <DistanceMeters>NAN</DistanceMeters>
          </Trackpoint>
          <Trackpoint>
            <Time>2019-08-01T11:35:45.000Z</Time>
            <Position>
              <LatitudeDegrees>40.7241444289684295654296875</LatitudeDegrees>
              <LongitudeDegrees>-4.02304974384605884552001953125</LongitudeDegrees>
            </Position>
            <AltitudeMeters>1179.199951171875</AltitudeMeters>
            <DistanceMeters>NAN</DistanceMeters>
          </Trackpoint>
          <Trackpoint>
            <Time>2019-08-01T11:35:46.000Z</Time>
            <Position>
              <LatitudeDegrees>40.72416798211634159088134765625</LatitudeDegrees>
              <LongitudeDegrees>-4.02301604859530925750732421875</LongitudeDegrees>
            </Position>
            <AltitudeMeters>1179.5999755859375</AltitudeMeters>
            <DistanceMeters>NAN</DistanceMeters>
          </Trackpoint>
          <Trackpoint>
            <Time>2019-08-01T11:35:47.000Z</Time>
            <Position>
              <LatitudeDegrees>40.7241925410926342010498046875</LatitudeDegrees>
              <LongitudeDegrees>-4.02298185043036937713623046875</LongitudeDegrees>
            </Position>
            <AltitudeMeters>1179.800048828125</AltitudeMeters>
            <DistanceMeters>NAN</DistanceMeters>
          </Trackpoint>
          <Trackpoint>
            <Time>2019-08-01T11:35:48.000Z</Time>
            <Position>
              <LatitudeDegrees>40.724215842783451080322265625</LatitudeDegrees>
              <LongitudeDegrees>-4.0229485742747783660888671875</LongitudeDegrees>
            </Position>
            <AltitudeMeters>1180.199951171875</AltitudeMeters>
            <DistanceMeters>NAN</DistanceMeters>
          </Trackpoint>
          <Trackpoint>
            <Time>2019-08-01T11:35:49.000Z</Time>
            <Position>
              <LatitudeDegrees>40.7242378033697605133056640625</LatitudeDegrees>
              <LongitudeDegrees>-4.02291630394756793975830078125</LongitudeDegrees>
            </Position>
            <AltitudeMeters>1180.5999755859375</AltitudeMeters>
            <DistanceMeters>NAN</DistanceMeters>
          </Trackpoint>
          <Trackpoint>
            <Time>2019-08-01T11:35:50.000Z</Time>
            <Position>
              <LatitudeDegrees>40.724257417023181915283203125</LatitudeDegrees>
              <LongitudeDegrees>-4.02288445271551609039306640625</LongitudeDegrees>
            </Position>
            <AltitudeMeters>1180.5999755859375</AltitudeMeters>
            <DistanceMeters>NAN</DistanceMeters>
          </Trackpoint>
          <Trackpoint>
            <Time>2019-08-01T11:35:51.000Z</Time>
            <Position>
              <LatitudeDegrees>40.72428180836141109466552734375</LatitudeDegrees>
              <LongitudeDegrees>-4.02285151183605194091796875</LongitudeDegrees>
            </Position>
            <AltitudeMeters>1180.800048828125</AltitudeMeters>
            <DistanceMeters>NAN</DistanceMeters>
          </Trackpoint>
          <Trackpoint>
            <Time>2019-08-01T11:35:52.000Z</Time>
            <Position>
              <LatitudeDegrees>40.72430511005222797393798828125</LatitudeDegrees>
              <LongitudeDegrees>-4.02282041497528553009033203125</LongitudeDegrees>
            </Position>
            <AltitudeMeters>1181.199951171875</AltitudeMeters>
            <DistanceMeters>NAN</DistanceMeters>
          </Trackpoint>
          <Trackpoint>
            <Time>2019-08-01T11:35:53.000Z</Time>
            <Position>
              <LatitudeDegrees>40.72433226741850376129150390625</LatitudeDegrees>
              <LongitudeDegrees>-4.02279074303805828094482421875</LongitudeDegrees>
            </Position>
            <AltitudeMeters>1181.4000244140625</AltitudeMeters>
            <DistanceMeters>NAN</DistanceMeters>
          </Trackpoint>
          <Trackpoint>
            <Time>2019-08-01T11:35:54.000Z</Time>
            <Position>
              <LatitudeDegrees>40.72436294518411159515380859375</LatitudeDegrees>
              <LongitudeDegrees>-4.0227631665766239166259765625</LongitudeDegrees>
            </Position>
            <AltitudeMeters>1181.5999755859375</AltitudeMeters>
            <DistanceMeters>NAN</DistanceMeters>
          </Trackpoint>
          <Trackpoint>
            <Time>2019-08-01T11:35:55.000Z</Time>
            <Position>
              <LatitudeDegrees>40.7243938744068145751953125</LatitudeDegrees>
              <LongitudeDegrees>-4.02273776941001415252685546875</LongitudeDegrees>
            </Position>
            <AltitudeMeters>1181.800048828125</AltitudeMeters>
            <DistanceMeters>NAN</DistanceMeters>
          </Trackpoint>
          <Trackpoint>
            <Time>2019-08-01T11:35:56.000Z</Time>
            <Position>
              <LatitudeDegrees>40.72442530654370784759521484375</LatitudeDegrees>
              <LongitudeDegrees>-4.0227138809859752655029296875</LongitudeDegrees>
            </Position>
            <AltitudeMeters>1182.4000244140625</AltitudeMeters>
            <DistanceMeters>NAN</DistanceMeters>
          </Trackpoint>
          <Trackpoint>
            <Time>2019-08-01T11:35:57.000Z</Time>
            <Position>
              <LatitudeDegrees>40.7244567386806011199951171875</LatitudeDegrees>
              <LongitudeDegrees>-4.022690914571285247802734375</LongitudeDegrees>
            </Position>
            <AltitudeMeters>1182.5999755859375</AltitudeMeters>
            <DistanceMeters>NAN</DistanceMeters>
          </Trackpoint>
          <Trackpoint>
            <Time>2019-08-01T11:35:58.000Z</Time>
            <Position>
              <LatitudeDegrees>40.7244899310171604156494140625</LatitudeDegrees>
              <LongitudeDegrees>-4.02266937308013439178466796875</LongitudeDegrees>
            </Position>
            <AltitudeMeters>1183</AltitudeMeters>
            <DistanceMeters>NAN</DistanceMeters>
          </Trackpoint>
          <Trackpoint>
            <Time>2019-08-01T11:35:59.000Z</Time>
            <Position>
              <LatitudeDegrees>40.72452329099178314208984375</LatitudeDegrees>
              <LongitudeDegrees>-4.02264975942671298980712890625</LongitudeDegrees>
            </Position>
            <AltitudeMeters>1183.199951171875</AltitudeMeters>
            <DistanceMeters>NAN</DistanceMeters>
          </Trackpoint>
          <Trackpoint>
            <Time>2019-08-01T11:36:00.000Z</Time>
            <Position>
              <LatitudeDegrees>40.7245573215186595916748046875</LatitudeDegrees>
              <LongitudeDegrees>-4.02263333089649677276611328125</LongitudeDegrees>
            </Position>
            <AltitudeMeters>1183.5999755859375</AltitudeMeters>
            <DistanceMeters>NAN</DistanceMeters>
          </Trackpoint>
          <Trackpoint>
            <Time>2019-08-01T11:36:01.000Z</Time>
            <Position>
              <LatitudeDegrees>40.7245911844074726104736328125</LatitudeDegrees>
              <LongitudeDegrees>-4.02261815965175628662109375</LongitudeDegrees>
            </Position>
            <AltitudeMeters>1183.800048828125</AltitudeMeters>
            <DistanceMeters>NAN</DistanceMeters>
          </Trackpoint>
          <Trackpoint>
            <Time>2019-08-01T11:36:02.000Z</Time>
            <Position>
              <LatitudeDegrees>40.7246243767440319061279296875</LatitudeDegrees>
              <LongitudeDegrees>-4.022604413330554962158203125</LongitudeDegrees>
            </Position>
            <AltitudeMeters>1184.199951171875</AltitudeMeters>
            <DistanceMeters>NAN</DistanceMeters>
          </Trackpoint>
          <Trackpoint>
            <Time>2019-08-01T11:36:03.000Z</Time>
            <Position>
              <LatitudeDegrees>40.7246592454612255096435546875</LatitudeDegrees>
              <LongitudeDegrees>-4.0225915051996707916259765625</LongitudeDegrees>
            </Position>
            <AltitudeMeters>1184.4000244140625</AltitudeMeters>
            <DistanceMeters>NAN</DistanceMeters>
          </Trackpoint>
          <Trackpoint>
            <Time>2019-08-01T11:36:04.000Z</Time>
            <Position>
              <LatitudeDegrees>40.7246951200067996978759765625</LatitudeDegrees>
              <LongitudeDegrees>-4.02257918380200862884521484375</LongitudeDegrees>
            </Position>
            <AltitudeMeters>1184.5999755859375</AltitudeMeters>
            <DistanceMeters>NAN</DistanceMeters>
          </Trackpoint>
          <Trackpoint>
            <Time>2019-08-01T11:36:05.000Z</Time>
            <Position>
              <LatitudeDegrees>40.724732838571071624755859375</LatitudeDegrees>
              <LongitudeDegrees>-4.0225666947662830352783203125</LongitudeDegrees>
            </Position>
            <AltitudeMeters>1184.800048828125</AltitudeMeters>
            <DistanceMeters>NAN</DistanceMeters>
          </Trackpoint>
          <Trackpoint>
            <Time>2019-08-01T11:36:06.000Z</Time>
            <Position>
              <LatitudeDegrees>40.7247708924114704132080078125</LatitudeDegrees>
              <LongitudeDegrees>-4.0225526131689548492431640625</LongitudeDegrees>
            </Position>
            <AltitudeMeters>1185</AltitudeMeters>
            <DistanceMeters>NAN</DistanceMeters>
          </Trackpoint>
          <Trackpoint>
            <Time>2019-08-01T11:36:07.000Z</Time>
            <Position>
              <LatitudeDegrees>40.72480919770896434783935546875</LatitudeDegrees>
              <LongitudeDegrees>-4.022536687552928924560546875</LongitudeDegrees>
            </Position>
            <AltitudeMeters>1185.199951171875</AltitudeMeters>
            <DistanceMeters>NAN</DistanceMeters>
          </Trackpoint>
          <Trackpoint>
            <Time>2019-08-01T11:36:08.000Z</Time>
            <Position>
              <LatitudeDegrees>40.72484591044485569000244140625</LatitudeDegrees>
              <LongitudeDegrees>-4.0225182473659515380859375</LongitudeDegrees>
            </Position>
            <AltitudeMeters>1185.4000244140625</AltitudeMeters>
            <DistanceMeters>NAN</DistanceMeters>
          </Trackpoint>
          <Trackpoint>
            <Time>2019-08-01T11:36:09.000Z</Time>
            <Position>
              <LatitudeDegrees>40.7248822040855884552001953125</LatitudeDegrees>
              <LongitudeDegrees>-4.02249854989349842071533203125</LongitudeDegrees>
            </Position>
            <AltitudeMeters>1185.5999755859375</AltitudeMeters>
            <DistanceMeters>NAN</DistanceMeters>
          </Trackpoint>
          <Trackpoint>
            <Time>2019-08-01T11:36:10.000Z</Time>
            <Position>
              <LatitudeDegrees>40.72491900064051151275634765625</LatitudeDegrees>
              <LongitudeDegrees>-4.02247776277363300323486328125</LongitudeDegrees>
            </Position>
            <AltitudeMeters>1185.800048828125</AltitudeMeters>
            <DistanceMeters>NAN</DistanceMeters>
          </Trackpoint>
          <Trackpoint>
            <Time>2019-08-01T11:36:11.000Z</Time>
            <Position>
              <LatitudeDegrees>40.72495554573833942413330078125</LatitudeDegrees>
              <LongitudeDegrees>-4.022456891834735870361328125</LongitudeDegrees>
            </Position>
            <AltitudeMeters>1185.800048828125</AltitudeMeters>
            <DistanceMeters>NAN</DistanceMeters>
          </Trackpoint>
          <Trackpoint>
            <Time>2019-08-01T11:36:12.000Z</Time>
            <Position>
              <LatitudeDegrees>40.7249920070171356201171875</LatitudeDegrees>
              <LongitudeDegrees>-4.022434093058109283447265625</LongitudeDegrees>
            </Position>
            <AltitudeMeters>1186</AltitudeMeters>
            <DistanceMeters>NAN</DistanceMeters>
          </Trackpoint>
          <Trackpoint>
            <Time>2019-08-01T11:36:13.000Z</Time>
            <Position>
              <LatitudeDegrees>40.725025869905948638916015625</LatitudeDegrees>
              <LongitudeDegrees>-4.02241053991019725799560546875</LongitudeDegrees>
            </Position>
            <AltitudeMeters>1186.199951171875</AltitudeMeters>
            <DistanceMeters>NAN</DistanceMeters>
          </Trackpoint>
          <Trackpoint>
            <Time>2019-08-01T11:36:14.000Z</Time>
            <Position>
              <LatitudeDegrees>40.72505914606153964996337890625</LatitudeDegrees>
              <LongitudeDegrees>-4.02238707058131694793701171875</LongitudeDegrees>
            </Position>
            <AltitudeMeters>1186.199951171875</AltitudeMeters>
            <DistanceMeters>NAN</DistanceMeters>
          </Trackpoint>
          <Trackpoint>
            <Time>2019-08-01T11:36:15.000Z</Time>
            <Position>
              <LatitudeDegrees>40.725090242922306060791015625</LatitudeDegrees>
              <LongitudeDegrees>-4.0223626792430877685546875</LongitudeDegrees>
            </Position>
            <AltitudeMeters>1186.4000244140625</AltitudeMeters>
            <DistanceMeters>NAN</DistanceMeters>
          </Trackpoint>
          <Trackpoint>
            <Time>2019-08-01T11:36:16.000Z</Time>
            <Position>
              <LatitudeDegrees>40.72512150742113590240478515625</LatitudeDegrees>
              <LongitudeDegrees>-4.02233845554292201995849609375</LongitudeDegrees>
            </Position>
            <AltitudeMeters>1186.4000244140625</AltitudeMeters>
            <DistanceMeters>NAN</DistanceMeters>
          </Trackpoint>
          <Trackpoint>
            <Time>2019-08-01T11:36:17.000Z</Time>
            <Position>
              <LatitudeDegrees>40.72515361011028289794921875</LatitudeDegrees>
              <LongitudeDegrees>-4.02231398038566112518310546875</LongitudeDegrees>
            </Position>
            <AltitudeMeters>1186.800048828125</AltitudeMeters>
            <DistanceMeters>NAN</DistanceMeters>
          </Trackpoint>
          <Trackpoint>
            <Time>2019-08-01T11:36:18.000Z</Time>
            <Position>
              <LatitudeDegrees>40.72518646717071533203125</LatitudeDegrees>
              <LongitudeDegrees>-4.02228866703808307647705078125</LongitudeDegrees>
            </Position>
            <AltitudeMeters>1187</AltitudeMeters>
            <DistanceMeters>NAN</DistanceMeters>
          </Trackpoint>
          <Trackpoint>
            <Time>2019-08-01T11:36:19.000Z</Time>
            <Position>
              <LatitudeDegrees>40.7252191565930843353271484375</LatitudeDegrees>
              <LongitudeDegrees>-4.02226268313825130462646484375</LongitudeDegrees>
            </Position>
            <AltitudeMeters>1187.199951171875</AltitudeMeters>
            <DistanceMeters>NAN</DistanceMeters>
          </Trackpoint>
          <Trackpoint>
            <Time>2019-08-01T11:36:20.000Z</Time>
            <Position>
              <LatitudeDegrees>40.72525159455835819244384765625</LatitudeDegrees>
              <LongitudeDegrees>-4.0222366154193878173828125</LongitudeDegrees>
            </Position>
            <AltitudeMeters>1187.199951171875</AltitudeMeters>
            <DistanceMeters>NAN</DistanceMeters>
          </Trackpoint>
          <Trackpoint>
            <Time>2019-08-01T11:36:21.000Z</Time>
            <Position>
              <LatitudeDegrees>40.7252845354378223419189453125</LatitudeDegrees>
              <LongitudeDegrees>-4.0222106315195560455322265625</LongitudeDegrees>
            </Position>
            <AltitudeMeters>1187.4000244140625</AltitudeMeters>
            <DistanceMeters>NAN</DistanceMeters>
          </Trackpoint>
          <Trackpoint>
            <Time>2019-08-01T11:36:22.000Z</Time>
            <Position>
              <LatitudeDegrees>40.7253167219460010528564453125</LatitudeDegrees>
              <LongitudeDegrees>-4.0221844799816608428955078125</LongitudeDegrees>
            </Position>
            <AltitudeMeters>1187.5999755859375</AltitudeMeters>
            <DistanceMeters>NAN</DistanceMeters>
          </Trackpoint>
          <Trackpoint>
            <Time>2019-08-01T11:36:23.000Z</Time>
            <Position>
              <LatitudeDegrees>40.72534614242613315582275390625</LatitudeDegrees>
              <LongitudeDegrees>-4.02215723879635334014892578125</LongitudeDegrees>
            </Position>
            <AltitudeMeters>1187.800048828125</AltitudeMeters>
            <DistanceMeters>NAN</DistanceMeters>
          </Trackpoint>
          <Trackpoint>
            <Time>2019-08-01T11:36:24.000Z</Time>
            <Position>
              <LatitudeDegrees>40.725373886525630950927734375</LatitudeDegrees>
              <LongitudeDegrees>-4.0221288241446018218994140625</LongitudeDegrees>
            </Position>
            <AltitudeMeters>1188</AltitudeMeters>
            <DistanceMeters>NAN</DistanceMeters>
          </Trackpoint>
          <Trackpoint>
            <Time>2019-08-01T11:36:25.000Z</Time>
            <Position>
              <LatitudeDegrees>40.72539945133030414581298828125</LatitudeDegrees>
              <LongitudeDegrees>-4.022100158035755157470703125</LongitudeDegrees>
            </Position>
            <AltitudeMeters>1188.199951171875</AltitudeMeters>
            <DistanceMeters>NAN</DistanceMeters>
          </Trackpoint>
          <Trackpoint>
            <Time>2019-08-01T11:36:26.000Z</Time>
            <Position>
              <LatitudeDegrees>40.7254273630678653717041015625</LatitudeDegrees>
              <LongitudeDegrees>-4.02207434177398681640625</LongitudeDegrees>
            </Position>
            <AltitudeMeters>1188.4000244140625</AltitudeMeters>
            <DistanceMeters>NAN</DistanceMeters>
          </Trackpoint>
          <Trackpoint>
            <Time>2019-08-01T11:36:27.000Z</Time>
            <Position>
              <LatitudeDegrees>40.72545862756669521331787109375</LatitudeDegrees>
              <LongitudeDegrees>-4.02205087244510650634765625</LongitudeDegrees>
            </Position>
            <AltitudeMeters>1188.5999755859375</AltitudeMeters>
            <DistanceMeters>NAN</DistanceMeters>
          </Trackpoint>
          <Trackpoint>
            <Time>2019-08-01T11:36:28.000Z</Time>
            <Position>
              <LatitudeDegrees>40.72548762895166873931884765625</LatitudeDegrees>
              <LongitudeDegrees>-4.02202933095395565032958984375</LongitudeDegrees>
            </Position>
            <AltitudeMeters>1188.800048828125</AltitudeMeters>
            <DistanceMeters>NAN</DistanceMeters>
          </Trackpoint>
          <Trackpoint>
            <Time>2019-08-01T11:36:29.000Z</Time>
            <Position>
              <LatitudeDegrees>40.72551704943180084228515625</LatitudeDegrees>
              <LongitudeDegrees>-4.02200854383409023284912109375</LongitudeDegrees>
            </Position>
            <AltitudeMeters>1189</AltitudeMeters>
            <DistanceMeters>NAN</DistanceMeters>
          </Trackpoint>
          <Trackpoint>
            <Time>2019-08-01T11:36:30.000Z</Time>
            <Position>
              <LatitudeDegrees>40.725546889007091522216796875</LatitudeDegrees>
              <LongitudeDegrees>-4.0219866670668125152587890625</LongitudeDegrees>
            </Position>
            <AltitudeMeters>1189.199951171875</AltitudeMeters>
            <DistanceMeters>NAN</DistanceMeters>
          </Trackpoint>
          <Trackpoint>
            <Time>2019-08-01T11:36:31.000Z</Time>
            <Position>
              <LatitudeDegrees>40.72557513602077960968017578125</LatitudeDegrees>
              <LongitudeDegrees>-4.0219635330140590667724609375</LongitudeDegrees>
            </Position>
            <AltitudeMeters>1189.4000244140625</AltitudeMeters>
            <DistanceMeters>NAN</DistanceMeters>
          </Trackpoint>
          <Trackpoint>
            <Time>2019-08-01T11:36:32.000Z</Time>
            <Position>
              <LatitudeDegrees>40.725602209568023681640625</LatitudeDegrees>
              <LongitudeDegrees>-4.02194031514227390289306640625</LongitudeDegrees>
            </Position>
            <AltitudeMeters>1189.800048828125</AltitudeMeters>
            <DistanceMeters>NAN</DistanceMeters>
          </Trackpoint>
          <Trackpoint>
            <Time>2019-08-01T11:36:33.000Z</Time>
            <Position>
              <LatitudeDegrees>40.72562970221042633056640625</LatitudeDegrees>
              <LongitudeDegrees>-4.0219165943562984466552734375</LongitudeDegrees>
            </Position>
            <AltitudeMeters>1190.199951171875</AltitudeMeters>
            <DistanceMeters>NAN</DistanceMeters>
          </Trackpoint>
          <Trackpoint>
            <Time>2019-08-01T11:36:34.000Z</Time>
            <Position>
              <LatitudeDegrees>40.7256576977670192718505859375</LatitudeDegrees>
              <LongitudeDegrees>-4.02189572341740131378173828125</LongitudeDegrees>
            </Position>
            <AltitudeMeters>1190.5999755859375</AltitudeMeters>
            <DistanceMeters>NAN</DistanceMeters>
          </Trackpoint>
          <Trackpoint>
            <Time>2019-08-01T11:36:35.000Z</Time>
            <Position>
              <LatitudeDegrees>40.7256858609616756439208984375</LatitudeDegrees>
              <LongitudeDegrees>-4.02187644504010677337646484375</LongitudeDegrees>
            </Position>
            <AltitudeMeters>1190.800048828125</AltitudeMeters>
            <DistanceMeters>NAN</DistanceMeters>
          </Trackpoint>
          <Trackpoint>
            <Time>2019-08-01T11:36:36.000Z</Time>
            <Position>
              <LatitudeDegrees>40.72571310214698314666748046875</LatitudeDegrees>
              <LongitudeDegrees>-4.0218562446534633636474609375</LongitudeDegrees>
            </Position>
            <AltitudeMeters>1191.199951171875</AltitudeMeters>
            <DistanceMeters>NAN</DistanceMeters>
          </Trackpoint>
          <Trackpoint>
            <Time>2019-08-01T11:36:37.000Z</Time>
            <Position>
              <LatitudeDegrees>40.72574160061776638031005859375</LatitudeDegrees>
              <LongitudeDegrees>-4.0218361280858516693115234375</LongitudeDegrees>
            </Position>
            <AltitudeMeters>1191.4000244140625</AltitudeMeters>
            <DistanceMeters>NAN</DistanceMeters>
          </Trackpoint>
          <Trackpoint>
            <Time>2019-08-01T11:36:38.000Z</Time>
            <Position>
              <LatitudeDegrees>40.725768171250820159912109375</LatitudeDegrees>
              <LongitudeDegrees>-4.0218155086040496826171875</LongitudeDegrees>
            </Position>
            <AltitudeMeters>1191.800048828125</AltitudeMeters>
            <DistanceMeters>NAN</DistanceMeters>
          </Trackpoint>
          <Trackpoint>
            <Time>2019-08-01T11:36:39.000Z</Time>
            <Position>
              <LatitudeDegrees>40.72579340077936649322509765625</LatitudeDegrees>
              <LongitudeDegrees>-4.02179363183677196502685546875</LongitudeDegrees>
            </Position>
            <AltitudeMeters>1192</AltitudeMeters>
            <DistanceMeters>NAN</DistanceMeters>
          </Trackpoint>
          <Trackpoint>
            <Time>2019-08-01T11:36:40.000Z</Time>
            <Position>
              <LatitudeDegrees>40.72582106105983257293701171875</LatitudeDegrees>
              <LongitudeDegrees>-4.02176999486982822418212890625</LongitudeDegrees>
            </Position>
            <AltitudeMeters>1192</AltitudeMeters>
            <DistanceMeters>NAN</DistanceMeters>
          </Trackpoint>
          <Trackpoint>
            <Time>2019-08-01T11:36:41.000Z</Time>
            <Position>
              <LatitudeDegrees>40.72584587149322032928466796875</LatitudeDegrees>
              <LongitudeDegrees>-4.0217492915689945220947265625</LongitudeDegrees>
            </Position>
            <AltitudeMeters>1192.199951171875</AltitudeMeters>
            <DistanceMeters>NAN</DistanceMeters>
          </Trackpoint>
          <Trackpoint>
            <Time>2019-08-01T11:36:42.000Z</Time>
            <Position>
              <LatitudeDegrees>40.7258690893650054931640625</LatitudeDegrees>
              <LongitudeDegrees>-4.02172892354428768157958984375</LongitudeDegrees>
            </Position>
            <AltitudeMeters>1192.4000244140625</AltitudeMeters>
            <DistanceMeters>NAN</DistanceMeters>
          </Trackpoint>
          <Trackpoint>
            <Time>2019-08-01T11:36:43.000Z</Time>
            <Position>
              <LatitudeDegrees>40.7258933968842029571533203125</LatitudeDegrees>
              <LongitudeDegrees>-4.021706879138946533203125</LongitudeDegrees>
            </Position>
            <AltitudeMeters>1192.5999755859375</AltitudeMeters>
            <DistanceMeters>NAN</DistanceMeters>
          </Trackpoint>
          <Trackpoint>
            <Time>2019-08-01T11:36:44.000Z</Time>
            <Position>
              <LatitudeDegrees>40.72591762058436870574951171875</LatitudeDegrees>
              <LongitudeDegrees>-4.02168366126716136932373046875</LongitudeDegrees>
            </Position>
            <AltitudeMeters>1192.800048828125</AltitudeMeters>
            <DistanceMeters>NAN</DistanceMeters>
          </Trackpoint>
          <Trackpoint>
            <Time>2019-08-01T11:36:45.000Z</Time>
            <Position>
              <LatitudeDegrees>40.72594427503645420074462890625</LatitudeDegrees>
              <LongitudeDegrees>-4.0216611139476299285888671875</LongitudeDegrees>
            </Position>
            <AltitudeMeters>1193.5999755859375</AltitudeMeters>
            <DistanceMeters>NAN</DistanceMeters>
          </Trackpoint>
          <Trackpoint>
            <Time>2019-08-01T11:36:46.000Z</Time>
            <Position>
              <LatitudeDegrees>40.725970007479190826416015625</LatitudeDegrees>
              <LongitudeDegrees>-4.0216383151710033416748046875</LongitudeDegrees>
            </Position>
            <AltitudeMeters>1193.800048828125</AltitudeMeters>
            <DistanceMeters>NAN</DistanceMeters>
          </Trackpoint>
          <Trackpoint>
            <Time>2019-08-01T11:36:47.000Z</Time>
            <Position>
              <LatitudeDegrees>40.72599389590322971343994140625</LatitudeDegrees>
              <LongitudeDegrees>-4.0216155163943767547607421875</LongitudeDegrees>
            </Position>
            <AltitudeMeters>1194.199951171875</AltitudeMeters>
            <DistanceMeters>NAN</DistanceMeters>
          </Trackpoint>
          <Trackpoint>
            <Time>2019-08-01T11:36:48.000Z</Time>
            <Position>
              <LatitudeDegrees>40.72599389590322971343994140625</LatitudeDegrees>
              <LongitudeDegrees>-4.0216155163943767547607421875</LongitudeDegrees>
            </Position>
            <AltitudeMeters>1194.5999755859375</AltitudeMeters>
            <DistanceMeters>NAN</DistanceMeters>
          </Trackpoint>
          <Trackpoint>
            <Time>2019-08-01T11:36:49.000Z</Time>
            <Position>
              <LatitudeDegrees>40.72603949345648288726806640625</LatitudeDegrees>
              <LongitudeDegrees>-4.0215722657740116119384765625</LongitudeDegrees>
            </Position>
            <AltitudeMeters>1195</AltitudeMeters>
            <DistanceMeters>NAN</DistanceMeters>
          </Trackpoint>
          <Trackpoint>
            <Time>2019-08-01T11:36:50.000Z</Time>
            <Position>
              <LatitudeDegrees>40.72605893947184085845947265625</LatitudeDegrees>
              <LongitudeDegrees>-4.0215504728257656097412109375</LongitudeDegrees>
            </Position>
            <AltitudeMeters>1195.199951171875</AltitudeMeters>
            <DistanceMeters>NAN</DistanceMeters>
          </Trackpoint>
          <Trackpoint>
            <Time>2019-08-01T11:36:51.000Z</Time>
            <Position>
              <LatitudeDegrees>40.72607922367751598358154296875</LatitudeDegrees>
              <LongitudeDegrees>-4.021529518067836761474609375</LongitudeDegrees>
            </Position>
            <AltitudeMeters>1195.4000244140625</AltitudeMeters>
            <DistanceMeters>NAN</DistanceMeters>
          </Trackpoint>
          <Trackpoint>
            <Time>2019-08-01T11:36:52.000Z</Time>
            <Position>
              <LatitudeDegrees>40.72610336355865001678466796875</LatitudeDegrees>
              <LongitudeDegrees>-4.02150898240506649017333984375</LongitudeDegrees>
            </Position>
            <AltitudeMeters>1195.4000244140625</AltitudeMeters>
            <DistanceMeters>NAN</DistanceMeters>
          </Trackpoint>
          <Trackpoint>
            <Time>2019-08-01T11:36:53.000Z</Time>
            <Position>
              <LatitudeDegrees>40.72612985037267208099365234375</LatitudeDegrees>
              <LongitudeDegrees>-4.02148920111358165740966796875</LongitudeDegrees>
            </Position>
            <AltitudeMeters>1195.5999755859375</AltitudeMeters>
            <DistanceMeters>NAN</DistanceMeters>
          </Trackpoint>
          <Trackpoint>
            <Time>2019-08-01T11:36:54.000Z</Time>
            <Position>
              <LatitudeDegrees>40.72615541517734527587890625</LatitudeDegrees>
              <LongitudeDegrees>-4.0214710123836994171142578125</LongitudeDegrees>
            </Position>
            <AltitudeMeters>1195.800048828125</AltitudeMeters>
            <DistanceMeters>NAN</DistanceMeters>
          </Trackpoint>
          <Trackpoint>
            <Time>2019-08-01T11:36:55.000Z</Time>
            <Position>
              <LatitudeDegrees>40.7261857576668262481689453125</LatitudeDegrees>
              <LongitudeDegrees>-4.02145299129188060760498046875</LongitudeDegrees>
            </Position>
            <AltitudeMeters>1196</AltitudeMeters>
            <DistanceMeters>NAN</DistanceMeters>
          </Trackpoint>
          <Trackpoint>
            <Time>2019-08-01T11:36:56.000Z</Time>
            <Position>
              <LatitudeDegrees>40.72621450759470462799072265625</LatitudeDegrees>
              <LongitudeDegrees>-4.02143530547618865966796875</LongitudeDegrees>
            </Position>
            <AltitudeMeters>1196.199951171875</AltitudeMeters>
            <DistanceMeters>NAN</DistanceMeters>
          </Trackpoint>
          <Trackpoint>
            <Time>2019-08-01T11:36:57.000Z</Time>
            <Position>
              <LatitudeDegrees>40.72624803520739078521728515625</LatitudeDegrees>
              <LongitudeDegrees>-4.0214213915169239044189453125</LongitudeDegrees>
            </Position>
            <AltitudeMeters>1196.4000244140625</AltitudeMeters>
            <DistanceMeters>NAN</DistanceMeters>
          </Trackpoint>
          <Trackpoint>
            <Time>2019-08-01T11:36:58.000Z</Time>
            <Position>
              <LatitudeDegrees>40.72627888061106204986572265625</LatitudeDegrees>
              <LongitudeDegrees>-4.02140622027218341827392578125</LongitudeDegrees>
            </Position>
            <AltitudeMeters>1196.5999755859375</AltitudeMeters>
            <DistanceMeters>NAN</DistanceMeters>
          </Trackpoint>
          <Trackpoint>
            <Time>2019-08-01T11:36:59.000Z</Time>
            <Position>
              <LatitudeDegrees>40.72631190530955791473388671875</LatitudeDegrees>
              <LongitudeDegrees>-4.021390043199062347412109375</LongitudeDegrees>
            </Position>
            <AltitudeMeters>1196.800048828125</AltitudeMeters>
            <DistanceMeters>NAN</DistanceMeters>
          </Trackpoint>
          <Trackpoint>
            <Time>2019-08-01T11:37:00.000Z</Time>
            <Position>
              <LatitudeDegrees>40.726344175636768341064453125</LatitudeDegrees>
              <LongitudeDegrees>-4.02137495577335357666015625</LongitudeDegrees>
            </Position>
            <AltitudeMeters>1197</AltitudeMeters>
            <DistanceMeters>NAN</DistanceMeters>
          </Trackpoint>
          <Trackpoint>
            <Time>2019-08-01T11:37:01.000Z</Time>
            <Position>
              <LatitudeDegrees>40.726379044353961944580078125</LatitudeDegrees>
              <LongitudeDegrees>-4.02135944925248622894287109375</LongitudeDegrees>
            </Position>
            <AltitudeMeters>1197.199951171875</AltitudeMeters>
            <DistanceMeters>NAN</DistanceMeters>
          </Trackpoint>
          <Trackpoint>
            <Time>2019-08-01T11:37:02.000Z</Time>
            <Position>
              <LatitudeDegrees>40.7264110632240772247314453125</LatitudeDegrees>
              <LongitudeDegrees>-4.02134235017001628875732421875</LongitudeDegrees>
            </Position>
            <AltitudeMeters>1197.4000244140625</AltitudeMeters>
            <DistanceMeters>NAN</DistanceMeters>
          </Trackpoint>
          <Trackpoint>
            <Time>2019-08-01T11:37:03.000Z</Time>
            <Position>
              <LatitudeDegrees>40.72644299827516078948974609375</LatitudeDegrees>
              <LongitudeDegrees>-4.0213251672685146331787109375</LongitudeDegrees>
            </Position>
            <AltitudeMeters>1197.4000244140625</AltitudeMeters>
            <DistanceMeters>NAN</DistanceMeters>
          </Trackpoint>
          <Trackpoint>
            <Time>2019-08-01T11:37:04.000Z</Time>
            <Position>
              <LatitudeDegrees>40.72647518478333950042724609375</LatitudeDegrees>
              <LongitudeDegrees>-4.02130999602377414703369140625</LongitudeDegrees>
            </Position>
            <AltitudeMeters>1197.5999755859375</AltitudeMeters>
            <DistanceMeters>NAN</DistanceMeters>
          </Trackpoint>
          <Trackpoint>
            <Time>2019-08-01T11:37:05.000Z</Time>
            <Position>
              <LatitudeDegrees>40.72650678455829620361328125</LatitudeDegrees>
              <LongitudeDegrees>-4.02129407040774822235107421875</LongitudeDegrees>
            </Position>
            <AltitudeMeters>1197.5999755859375</AltitudeMeters>
            <DistanceMeters>NAN</DistanceMeters>
          </Trackpoint>
          <Trackpoint>
            <Time>2019-08-01T11:37:06.000Z</Time>
            <Position>
              <LatitudeDegrees>40.72653972543776035308837890625</LatitudeDegrees>
              <LongitudeDegrees>-4.021280072629451751708984375</LongitudeDegrees>
            </Position>
            <AltitudeMeters>1197.800048828125</AltitudeMeters>
            <DistanceMeters>NAN</DistanceMeters>
          </Trackpoint>
          <Trackpoint>
            <Time>2019-08-01T11:37:07.000Z</Time>
            <Position>
              <LatitudeDegrees>40.72657006792724132537841796875</LatitudeDegrees>
              <LongitudeDegrees>-4.021266661584377288818359375</LongitudeDegrees>
            </Position>
            <AltitudeMeters>1198.4000244140625</AltitudeMeters>
            <DistanceMeters>NAN</DistanceMeters>
          </Trackpoint>
          <Trackpoint>
            <Time>2019-08-01T11:37:08.000Z</Time>
            <Position>
              <LatitudeDegrees>40.72660175152122974395751953125</LatitudeDegrees>
              <LongitudeDegrees>-4.02125291526317596435546875</LongitudeDegrees>
            </Position>
            <AltitudeMeters>1198.800048828125</AltitudeMeters>
            <DistanceMeters>NAN</DistanceMeters>
          </Trackpoint>
          <Trackpoint>
            <Time>2019-08-01T11:37:09.000Z</Time>
            <Position>
              <LatitudeDegrees>40.72663242928683757781982421875</LatitudeDegrees>
              <LongitudeDegrees>-4.021239839494228363037109375</LongitudeDegrees>
            </Position>
            <AltitudeMeters>1199.5999755859375</AltitudeMeters>
            <DistanceMeters>NAN</DistanceMeters>
          </Trackpoint>
          <Trackpoint>
            <Time>2019-08-01T11:37:10.000Z</Time>
            <Position>
              <LatitudeDegrees>40.726663358509540557861328125</LatitudeDegrees>
              <LongitudeDegrees>-4.021227769553661346435546875</LongitudeDegrees>
            </Position>
            <AltitudeMeters>1200</AltitudeMeters>
            <DistanceMeters>NAN</DistanceMeters>
          </Trackpoint>
          <Trackpoint>
            <Time>2019-08-01T11:37:11.000Z</Time>
            <Position>
              <LatitudeDegrees>40.7266920246183872222900390625</LatitudeDegrees>
              <LongitudeDegrees>-4.02121603488922119140625</LongitudeDegrees>
            </Position>
            <AltitudeMeters>1200.199951171875</AltitudeMeters>
            <DistanceMeters>NAN</DistanceMeters>
          </Trackpoint>
          <Trackpoint>
            <Time>2019-08-01T11:37:12.000Z</Time>
            <Position>
              <LatitudeDegrees>40.72671658359467983245849609375</LatitudeDegrees>
              <LongitudeDegrees>-4.0212041325867176055908203125</LongitudeDegrees>
            </Position>
            <AltitudeMeters>1200.4000244140625</AltitudeMeters>
            <DistanceMeters>NAN</DistanceMeters>
          </Trackpoint>
          <Trackpoint>
            <Time>2019-08-01T11:37:13.000Z</Time>
            <Position>
              <LatitudeDegrees>40.72673904709517955780029296875</LatitudeDegrees>
              <LongitudeDegrees>-4.0211905539035797119140625</LongitudeDegrees>
            </Position>
            <AltitudeMeters>1200.5999755859375</AltitudeMeters>
            <DistanceMeters>NAN</DistanceMeters>
          </Trackpoint>
          <Trackpoint>
            <Time>2019-08-01T11:37:14.000Z</Time>
            <Position>
              <LatitudeDegrees>40.72675782255828380584716796875</LatitudeDegrees>
              <LongitudeDegrees>-4.02117420919239521026611328125</LongitudeDegrees>
            </Position>
            <AltitudeMeters>1200.800048828125</AltitudeMeters>
            <DistanceMeters>NAN</DistanceMeters>
          </Trackpoint>
          <Trackpoint>
            <Time>2019-08-01T11:37:15.000Z</Time>
            <Position>
              <LatitudeDegrees>40.7267812080681324005126953125</LatitudeDegrees>
              <LongitudeDegrees>-4.02116130106151103973388671875</LongitudeDegrees>
            </Position>
            <AltitudeMeters>1201</AltitudeMeters>
            <DistanceMeters>NAN</DistanceMeters>
          </Trackpoint>
          <Trackpoint>
            <Time>2019-08-01T11:37:16.000Z</Time>
            <Position>
              <LatitudeDegrees>40.7267812080681324005126953125</LatitudeDegrees>
              <LongitudeDegrees>-4.02116130106151103973388671875</LongitudeDegrees>
            </Position>
            <AltitudeMeters>1201</AltitudeMeters>
            <DistanceMeters>NAN</DistanceMeters>
          </Trackpoint>
          <Trackpoint>
            <Time>2019-08-01T11:37:17.000Z</Time>
            <Position>
              <LatitudeDegrees>40.72683862410485744476318359375</LatitudeDegrees>
              <LongitudeDegrees>-4.02113866992294788360595703125</LongitudeDegrees>
            </Position>
            <AltitudeMeters>1201.199951171875</AltitudeMeters>
            <DistanceMeters>NAN</DistanceMeters>
          </Trackpoint>
          <Trackpoint>
            <Time>2019-08-01T11:37:18.000Z</Time>
            <Position>
              <LatitudeDegrees>40.726867206394672393798828125</LatitudeDegrees>
              <LongitudeDegrees>-4.02112282812595367431640625</LongitudeDegrees>
            </Position>
            <AltitudeMeters>1201.199951171875</AltitudeMeters>
            <DistanceMeters>NAN</DistanceMeters>
          </Trackpoint>
          <Trackpoint>
            <Time>2019-08-01T11:37:19.000Z</Time>
            <Position>
              <LatitudeDegrees>40.726894028484821319580078125</LatitudeDegrees>
              <LongitudeDegrees>-4.02110899798572063446044921875</LongitudeDegrees>
            </Position>
            <AltitudeMeters>1201.4000244140625</AltitudeMeters>
            <DistanceMeters>NAN</DistanceMeters>
          </Trackpoint>
          <Trackpoint>
            <Time>2019-08-01T11:37:20.000Z</Time>
            <Position>
              <LatitudeDegrees>40.72692244313657283782958984375</LatitudeDegrees>
              <LongitudeDegrees>-4.02109474875032901763916015625</LongitudeDegrees>
            </Position>
            <AltitudeMeters>1201.5999755859375</AltitudeMeters>
            <DistanceMeters>NAN</DistanceMeters>
          </Trackpoint>
          <Trackpoint>
            <Time>2019-08-01T11:37:21.000Z</Time>
            <Position>
              <LatitudeDegrees>40.7269501872360706329345703125</LatitudeDegrees>
              <LongitudeDegrees>-4.0210797451436519622802734375</LongitudeDegrees>
            </Position>
            <AltitudeMeters>1201.5999755859375</AltitudeMeters>
            <DistanceMeters>NAN</DistanceMeters>
          </Trackpoint>
          <Trackpoint>
            <Time>2019-08-01T11:37:22.000Z</Time>
            <Position>
              <LatitudeDegrees>40.726978518068790435791015625</LatitudeDegrees>
              <LongitudeDegrees>-4.02106591500341892242431640625</LongitudeDegrees>
            </Position>
            <AltitudeMeters>1201.800048828125</AltitudeMeters>
            <DistanceMeters>NAN</DistanceMeters>
          </Trackpoint>
          <Trackpoint>
            <Time>2019-08-01T11:37:23.000Z</Time>
            <Position>
              <LatitudeDegrees>40.7270122133195400238037109375</LatitudeDegrees>
              <LongitudeDegrees>-4.0210539288818836212158203125</LongitudeDegrees>
            </Position>
            <AltitudeMeters>1202</AltitudeMeters>
            <DistanceMeters>NAN</DistanceMeters>
          </Trackpoint>
          <Trackpoint>
            <Time>2019-08-01T11:37:24.000Z</Time>
            <Position>
              <LatitudeDegrees>40.7270450703799724578857421875</LatitudeDegrees>
              <LongitudeDegrees>-4.02104177512228488922119140625</LongitudeDegrees>
            </Position>
            <AltitudeMeters>1202.4000244140625</AltitudeMeters>
            <DistanceMeters>NAN</DistanceMeters>
          </Trackpoint>
          <Trackpoint>
            <Time>2019-08-01T11:37:25.000Z</Time>
            <Position>
              <LatitudeDegrees>40.7270450703799724578857421875</LatitudeDegrees>
              <LongitudeDegrees>-4.02104177512228488922119140625</LongitudeDegrees>
            </Position>
            <AltitudeMeters>1202.5999755859375</AltitudeMeters>
            <DistanceMeters>NAN</DistanceMeters>
          </Trackpoint>
          <Trackpoint>
            <Time>2019-08-01T11:37:26.000Z</Time>
            <Position>
              <LatitudeDegrees>40.72710852138698101043701171875</LatitudeDegrees>
              <LongitudeDegrees>-4.02101629413664340972900390625</LongitudeDegrees>
            </Position>
            <AltitudeMeters>1203</AltitudeMeters>
            <DistanceMeters>NAN</DistanceMeters>
          </Trackpoint>
          <Trackpoint>
            <Time>2019-08-01T11:37:27.000Z</Time>
            <Position>
              <LatitudeDegrees>40.72713852860033512115478515625</LatitudeDegrees>
              <LongitudeDegrees>-4.0210053138434886932373046875</LongitudeDegrees>
            </Position>
            <AltitudeMeters>1203.5999755859375</AltitudeMeters>
            <DistanceMeters>NAN</DistanceMeters>
          </Trackpoint>
          <Trackpoint>
            <Time>2019-08-01T11:37:28.000Z</Time>
            <Position>
              <LatitudeDegrees>40.72716660797595977783203125</LatitudeDegrees>
              <LongitudeDegrees>-4.0209949202835559844970703125</LongitudeDegrees>
            </Position>
            <AltitudeMeters>1203.800048828125</AltitudeMeters>
            <DistanceMeters>NAN</DistanceMeters>
          </Trackpoint>
          <Trackpoint>
            <Time>2019-08-01T11:37:29.000Z</Time>
            <Position>
              <LatitudeDegrees>40.72720608673989772796630859375</LatitudeDegrees>
              <LongitudeDegrees>-4.02098243124783039093017578125</LongitudeDegrees>
            </Position>
            <AltitudeMeters>1204</AltitudeMeters>
            <DistanceMeters>NAN</DistanceMeters>
          </Trackpoint>
          <Trackpoint>
            <Time>2019-08-01T11:37:30.000Z</Time>
            <Position>
              <LatitudeDegrees>40.7272398658096790313720703125</LatitudeDegrees>
              <LongitudeDegrees>-4.0209704451262950897216796875</LongitudeDegrees>
            </Position>
            <AltitudeMeters>1204.199951171875</AltitudeMeters>
            <DistanceMeters>NAN</DistanceMeters>
          </Trackpoint>
          <Trackpoint>
            <Time>2019-08-01T11:37:31.000Z</Time>
            <Position>
              <LatitudeDegrees>40.72727230377495288848876953125</LatitudeDegrees>
              <LongitudeDegrees>-4.02095929719507694244384765625</LongitudeDegrees>
            </Position>
            <AltitudeMeters>1204.199951171875</AltitudeMeters>
            <DistanceMeters>NAN</DistanceMeters>
          </Trackpoint>
          <Trackpoint>
            <Time>2019-08-01T11:37:32.000Z</Time>
            <Position>
              <LatitudeDegrees>40.72727230377495288848876953125</LatitudeDegrees>
              <LongitudeDegrees>-4.02095929719507694244384765625</LongitudeDegrees>
            </Position>
            <AltitudeMeters>1204.4000244140625</AltitudeMeters>
            <DistanceMeters>NAN</DistanceMeters>
          </Trackpoint>
          <Trackpoint>
            <Time>2019-08-01T11:37:33.000Z</Time>
            <Position>
              <LatitudeDegrees>40.727335922420024871826171875</LatitudeDegrees>
              <LongitudeDegrees>-4.02094253338873386383056640625</LongitudeDegrees>
            </Position>
            <AltitudeMeters>1204.5999755859375</AltitudeMeters>
            <DistanceMeters>NAN</DistanceMeters>
          </Trackpoint>
          <Trackpoint>
            <Time>2019-08-01T11:37:34.000Z</Time>
            <Position>
              <LatitudeDegrees>40.7273756526410579681396484375</LatitudeDegrees>
              <LongitudeDegrees>-4.02093348093330860137939453125</LongitudeDegrees>
            </Position>
            <AltitudeMeters>1204.800048828125</AltitudeMeters>
            <DistanceMeters>NAN</DistanceMeters>
          </Trackpoint>
          <Trackpoint>
            <Time>2019-08-01T11:37:35.000Z</Time>
            <Position>
              <LatitudeDegrees>40.7273756526410579681396484375</LatitudeDegrees>
              <LongitudeDegrees>-4.02093348093330860137939453125</LongitudeDegrees>
            </Position>
            <AltitudeMeters>1205.199951171875</AltitudeMeters>
            <DistanceMeters>NAN</DistanceMeters>
          </Trackpoint>
          <Trackpoint>
            <Time>2019-08-01T11:37:36.000Z</Time>
            <Position>
              <LatitudeDegrees>40.7274423725903034210205078125</LatitudeDegrees>
              <LongitudeDegrees>-4.0209208242595195770263671875</LongitudeDegrees>
            </Position>
            <AltitudeMeters>1205.4000244140625</AltitudeMeters>
            <DistanceMeters>NAN</DistanceMeters>
          </Trackpoint>
          <Trackpoint>
            <Time>2019-08-01T11:37:37.000Z</Time>
            <Position>
              <LatitudeDegrees>40.72747380472719669342041015625</LatitudeDegrees>
              <LongitudeDegrees>-4.02091504074633121490478515625</LongitudeDegrees>
            </Position>
            <AltitudeMeters>1205.800048828125</AltitudeMeters>
            <DistanceMeters>NAN</DistanceMeters>
          </Trackpoint>
          <Trackpoint>
            <Time>2019-08-01T11:37:38.000Z</Time>
            <Position>
              <LatitudeDegrees>40.72750247083604335784912109375</LatitudeDegrees>
              <LongitudeDegrees>-4.02091252617537975311279296875</LongitudeDegrees>
            </Position>
            <AltitudeMeters>1206</AltitudeMeters>
            <DistanceMeters>NAN</DistanceMeters>
          </Trackpoint>
          <Trackpoint>
            <Time>2019-08-01T11:37:39.000Z</Time>
            <Position>
              <LatitudeDegrees>40.727531053125858306884765625</LatitudeDegrees>
              <LongitudeDegrees>-4.02091068215668201446533203125</LongitudeDegrees>
            </Position>
            <AltitudeMeters>1206.199951171875</AltitudeMeters>
            <DistanceMeters>NAN</DistanceMeters>
          </Trackpoint>
          <Trackpoint>
            <Time>2019-08-01T11:37:40.000Z</Time>
            <Position>
              <LatitudeDegrees>40.72756030596792697906494140625</LatitudeDegrees>
              <LongitudeDegrees>-4.0209094248712062835693359375</LongitudeDegrees>
            </Position>
            <AltitudeMeters>1206.5999755859375</AltitudeMeters>
            <DistanceMeters>NAN</DistanceMeters>
          </Trackpoint>
          <Trackpoint>
            <Time>2019-08-01T11:37:41.000Z</Time>
            <Position>
              <LatitudeDegrees>40.72759316302835941314697265625</LatitudeDegrees>
              <LongitudeDegrees>-4.020909257233142852783203125</LongitudeDegrees>
            </Position>
            <AltitudeMeters>1207</AltitudeMeters>
            <DistanceMeters>NAN</DistanceMeters>
          </Trackpoint>
          <Trackpoint>
            <Time>2019-08-01T11:37:42.000Z</Time>
            <Position>
              <LatitudeDegrees>40.72762794792652130126953125</LatitudeDegrees>
              <LongitudeDegrees>-4.02090799994766712188720703125</LongitudeDegrees>
            </Position>
            <AltitudeMeters>1207.199951171875</AltitudeMeters>
            <DistanceMeters>NAN</DistanceMeters>
          </Trackpoint>
          <Trackpoint>
            <Time>2019-08-01T11:37:43.000Z</Time>
            <Position>
              <LatitudeDegrees>40.7276592962443828582763671875</LatitudeDegrees>
              <LongitudeDegrees>-4.02090833522379398345947265625</LongitudeDegrees>
            </Position>
            <AltitudeMeters>1207.199951171875</AltitudeMeters>
            <DistanceMeters>NAN</DistanceMeters>
          </Trackpoint>
          <Trackpoint>
            <Time>2019-08-01T11:37:44.000Z</Time>
            <Position>
              <LatitudeDegrees>40.72768720798194408416748046875</LatitudeDegrees>
              <LongitudeDegrees>-4.02090934105217456817626953125</LongitudeDegrees>
            </Position>
            <AltitudeMeters>1207.4000244140625</AltitudeMeters>
            <DistanceMeters>NAN</DistanceMeters>
          </Trackpoint>
          <Trackpoint>
            <Time>2019-08-01T11:37:45.000Z</Time>
            <Position>
              <LatitudeDegrees>40.72770916856825351715087890625</LatitudeDegrees>
              <LongitudeDegrees>-4.02090934105217456817626953125</LongitudeDegrees>
            </Position>
            <AltitudeMeters>1207.5999755859375</AltitudeMeters>
            <DistanceMeters>NAN</DistanceMeters>
          </Trackpoint>
          <Trackpoint>
            <Time>2019-08-01T11:37:46.000Z</Time>
            <Position>
              <LatitudeDegrees>40.72772962041199207305908203125</LatitudeDegrees>
              <LongitudeDegrees>-4.02090900577604770660400390625</LongitudeDegrees>
            </Position>
            <AltitudeMeters>1208</AltitudeMeters>
            <DistanceMeters>NAN</DistanceMeters>
          </Trackpoint>
          <Trackpoint>
            <Time>2019-08-01T11:37:47.000Z</Time>
            <Position>
              <LatitudeDegrees>40.7277457974851131439208984375</LatitudeDegrees>
              <LongitudeDegrees>-4.02090900577604770660400390625</LongitudeDegrees>
            </Position>
            <AltitudeMeters>1208</AltitudeMeters>
            <DistanceMeters>NAN</DistanceMeters>
          </Trackpoint>
          <Trackpoint>
            <Time>2019-08-01T11:37:48.000Z</Time>
            <Position>
              <LatitudeDegrees>40.72776599787175655364990234375</LatitudeDegrees>
              <LongitudeDegrees>-4.02090347371995449066162109375</LongitudeDegrees>
            </Position>
            <AltitudeMeters>1208.199951171875</AltitudeMeters>
            <DistanceMeters>NAN</DistanceMeters>
          </Trackpoint>
          <Trackpoint>
            <Time>2019-08-01T11:37:49.000Z</Time>
            <Position>
              <LatitudeDegrees>40.72778762318193912506103515625</LatitudeDegrees>
              <LongitudeDegrees>-4.020892493426799774169921875</LongitudeDegrees>
            </Position>
            <AltitudeMeters>1208.4000244140625</AltitudeMeters>
            <DistanceMeters>NAN</DistanceMeters>
          </Trackpoint>
          <Trackpoint>
            <Time>2019-08-01T11:37:50.000Z</Time>
            <Position>
              <LatitudeDegrees>40.7278138585388660430908203125</LatitudeDegrees>
              <LongitudeDegrees>-4.02088008821010589599609375</LongitudeDegrees>
            </Position>
            <AltitudeMeters>1208.5999755859375</AltitudeMeters>
            <DistanceMeters>NAN</DistanceMeters>
          </Trackpoint>
          <Trackpoint>
            <Time>2019-08-01T11:37:51.000Z</Time>
            <Position>
              <LatitudeDegrees>40.7278353162109851837158203125</LatitudeDegrees>
              <LongitudeDegrees>-4.02086667716503143310546875</LongitudeDegrees>
            </Position>
            <AltitudeMeters>1209</AltitudeMeters>
            <DistanceMeters>NAN</DistanceMeters>
          </Trackpoint>
          <Trackpoint>
            <Time>2019-08-01T11:37:52.000Z</Time>
            <Position>
              <LatitudeDegrees>40.72786138392984867095947265625</LatitudeDegrees>
              <LongitudeDegrees>-4.020850919187068939208984375</LongitudeDegrees>
            </Position>
            <AltitudeMeters>1209.199951171875</AltitudeMeters>
            <DistanceMeters>NAN</DistanceMeters>
          </Trackpoint>
          <Trackpoint>
            <Time>2019-08-01T11:37:53.000Z</Time>
            <Position>
              <LatitudeDegrees>40.72790161706507205963134765625</LatitudeDegrees>
              <LongitudeDegrees>-4.02083440683782100677490234375</LongitudeDegrees>
            </Position>
            <AltitudeMeters>1209.4000244140625</AltitudeMeters>
            <DistanceMeters>NAN</DistanceMeters>
          </Trackpoint>
          <Trackpoint>
            <Time>2019-08-01T11:37:54.000Z</Time>
            <Position>
              <LatitudeDegrees>40.7279419340193271636962890625</LatitudeDegrees>
              <LongitudeDegrees>-4.02081445790827274322509765625</LongitudeDegrees>
            </Position>
            <AltitudeMeters>1209.4000244140625</AltitudeMeters>
            <DistanceMeters>NAN</DistanceMeters>
          </Trackpoint>
          <Trackpoint>
            <Time>2019-08-01T11:37:55.000Z</Time>
            <Position>
              <LatitudeDegrees>40.72798627428710460662841796875</LatitudeDegrees>
              <LongitudeDegrees>-4.020791910588741302490234375</LongitudeDegrees>
            </Position>
            <AltitudeMeters>1209.5999755859375</AltitudeMeters>
            <DistanceMeters>NAN</DistanceMeters>
          </Trackpoint>
          <Trackpoint>
            <Time>2019-08-01T11:37:56.000Z</Time>
            <Position>
              <LatitudeDegrees>40.72798627428710460662841796875</LatitudeDegrees>
              <LongitudeDegrees>-4.020791910588741302490234375</LongitudeDegrees>
            </Position>
            <AltitudeMeters>1209.800048828125</AltitudeMeters>
            <DistanceMeters>NAN</DistanceMeters>
          </Trackpoint>
          <Trackpoint>
            <Time>2019-08-01T11:37:57.000Z</Time>
            <Position>
              <LatitudeDegrees>40.72806003503501415252685546875</LatitudeDegrees>
              <LongitudeDegrees>-4.02074153535068035125732421875</LongitudeDegrees>
            </Position>
            <AltitudeMeters>1210</AltitudeMeters>
            <DistanceMeters>NAN</DistanceMeters>
          </Trackpoint>
          <Trackpoint>
            <Time>2019-08-01T11:37:58.000Z</Time>
            <Position>
              <LatitudeDegrees>40.72809272445738315582275390625</LatitudeDegrees>
              <LongitudeDegrees>-4.02071555145084857940673828125</LongitudeDegrees>
            </Position>
            <AltitudeMeters>1210.4000244140625</AltitudeMeters>
            <DistanceMeters>NAN</DistanceMeters>
          </Trackpoint>
          <Trackpoint>
            <Time>2019-08-01T11:37:59.000Z</Time>
            <Position>
              <LatitudeDegrees>40.72812558151781558990478515625</LatitudeDegrees>
              <LongitudeDegrees>-4.02068990282714366912841796875</LongitudeDegrees>
            </Position>
            <AltitudeMeters>1210.4000244140625</AltitudeMeters>
            <DistanceMeters>NAN</DistanceMeters>
          </Trackpoint>
          <Trackpoint>
            <Time>2019-08-01T11:38:00.000Z</Time>
            <Position>
              <LatitudeDegrees>40.72815760038793087005615234375</LatitudeDegrees>
              <LongitudeDegrees>-4.0206646732985973358154296875</LongitudeDegrees>
            </Position>
            <AltitudeMeters>1210.5999755859375</AltitudeMeters>
            <DistanceMeters>NAN</DistanceMeters>
          </Trackpoint>
          <Trackpoint>
            <Time>2019-08-01T11:38:01.000Z</Time>
            <Position>
              <LatitudeDegrees>40.7281892001628875732421875</LatitudeDegrees>
              <LongitudeDegrees>-4.02063944377005100250244140625</LongitudeDegrees>
            </Position>
            <AltitudeMeters>1210.800048828125</AltitudeMeters>
            <DistanceMeters>NAN</DistanceMeters>
          </Trackpoint>
          <Trackpoint>
            <Time>2019-08-01T11:38:02.000Z</Time>
            <Position>
              <LatitudeDegrees>40.728220045566558837890625</LatitudeDegrees>
              <LongitudeDegrees>-4.02061446569859981536865234375</LongitudeDegrees>
            </Position>
            <AltitudeMeters>1211</AltitudeMeters>
            <DistanceMeters>NAN</DistanceMeters>
          </Trackpoint>
          <Trackpoint>
            <Time>2019-08-01T11:38:03.000Z</Time>
            <Position>
              <LatitudeDegrees>40.7282503880560398101806640625</LatitudeDegrees>
              <LongitudeDegrees>-4.0205892361700534820556640625</LongitudeDegrees>
            </Position>
            <AltitudeMeters>1211</AltitudeMeters>
            <DistanceMeters>NAN</DistanceMeters>
          </Trackpoint>
          <Trackpoint>
            <Time>2019-08-01T11:38:04.000Z</Time>
            <Position>
              <LatitudeDegrees>40.72828098200261592864990234375</LatitudeDegrees>
              <LongitudeDegrees>-4.0205640904605388641357421875</LongitudeDegrees>
            </Position>
            <AltitudeMeters>1211.199951171875</AltitudeMeters>
            <DistanceMeters>NAN</DistanceMeters>
          </Trackpoint>
          <Trackpoint>
            <Time>2019-08-01T11:38:05.000Z</Time>
            <Position>
              <LatitudeDegrees>40.7283093966543674468994140625</LatitudeDegrees>
              <LongitudeDegrees>-4.02053986676037311553955078125</LongitudeDegrees>
            </Position>
            <AltitudeMeters>1211.4000244140625</AltitudeMeters>
            <DistanceMeters>NAN</DistanceMeters>
          </Trackpoint>
          <Trackpoint>
            <Time>2019-08-01T11:38:06.000Z</Time>
            <Position>
              <LatitudeDegrees>40.72833747602999210357666015625</LatitudeDegrees>
              <LongitudeDegrees>-4.0205181576311588287353515625</LongitudeDegrees>
            </Position>
            <AltitudeMeters>1211.5999755859375</AltitudeMeters>
            <DistanceMeters>NAN</DistanceMeters>
          </Trackpoint>
          <Trackpoint>
            <Time>2019-08-01T11:38:07.000Z</Time>
            <Position>
              <LatitudeDegrees>40.728367902338504791259765625</LatitudeDegrees>
              <LongitudeDegrees>-4.020498208701610565185546875</LongitudeDegrees>
            </Position>
            <AltitudeMeters>1211.800048828125</AltitudeMeters>
            <DistanceMeters>NAN</DistanceMeters>
          </Trackpoint>
          <Trackpoint>
            <Time>2019-08-01T11:38:08.000Z</Time>
            <Position>
              <LatitudeDegrees>40.728367902338504791259765625</LatitudeDegrees>
              <LongitudeDegrees>-4.020498208701610565185546875</LongitudeDegrees>
            </Position>
            <AltitudeMeters>1212.4000244140625</AltitudeMeters>
            <DistanceMeters>NAN</DistanceMeters>
          </Trackpoint>
          <Trackpoint>
            <Time>2019-08-01T11:38:09.000Z</Time>
            <Position>
              <LatitudeDegrees>40.72842716239392757415771484375</LatitudeDegrees>
              <LongitudeDegrees>-4.0204608254134654998779296875</LongitudeDegrees>
            </Position>
            <AltitudeMeters>1212.5999755859375</AltitudeMeters>
            <DistanceMeters>NAN</DistanceMeters>
          </Trackpoint>
          <Trackpoint>
            <Time>2019-08-01T11:38:10.000Z</Time>
            <Position>
              <LatitudeDegrees>40.7284574210643768310546875</LatitudeDegrees>
              <LongitudeDegrees>-4.0204448997974395751953125</LongitudeDegrees>
            </Position>
            <AltitudeMeters>1213</AltitudeMeters>
            <DistanceMeters>NAN</DistanceMeters>
          </Trackpoint>
          <Trackpoint>
            <Time>2019-08-01T11:38:11.000Z</Time>
            <Position>
              <LatitudeDegrees>40.72848667390644550323486328125</LatitudeDegrees>
              <LongitudeDegrees>-4.0204299800097942352294921875</LongitudeDegrees>
            </Position>
            <AltitudeMeters>1213.4000244140625</AltitudeMeters>
            <DistanceMeters>NAN</DistanceMeters>
          </Trackpoint>
          <Trackpoint>
            <Time>2019-08-01T11:38:12.000Z</Time>
            <Position>
              <LatitudeDegrees>40.72851517237722873687744140625</LatitudeDegrees>
              <LongitudeDegrees>-4.02041782625019550323486328125</LongitudeDegrees>
            </Position>
            <AltitudeMeters>1213.5999755859375</AltitudeMeters>
            <DistanceMeters>NAN</DistanceMeters>
          </Trackpoint>
          <Trackpoint>
            <Time>2019-08-01T11:38:13.000Z</Time>
            <Position>
              <LatitudeDegrees>40.72854367084801197052001953125</LatitudeDegrees>
              <LongitudeDegrees>-4.02040793560445308685302734375</LongitudeDegrees>
            </Position>
            <AltitudeMeters>1213.800048828125</AltitudeMeters>
            <DistanceMeters>NAN</DistanceMeters>
          </Trackpoint>
          <Trackpoint>
            <Time>2019-08-01T11:38:14.000Z</Time>
            <Position>
              <LatitudeDegrees>40.72856965474784374237060546875</LatitudeDegrees>
              <LongitudeDegrees>-4.02040240354835987091064453125</LongitudeDegrees>
            </Position>
            <AltitudeMeters>1214</AltitudeMeters>
            <DistanceMeters>NAN</DistanceMeters>
          </Trackpoint>
          <Trackpoint>
            <Time>2019-08-01T11:38:15.000Z</Time>
            <Position>
              <LatitudeDegrees>40.72859329171478748321533203125</LatitudeDegrees>
              <LongitudeDegrees>-4.02039729058742523193359375</LongitudeDegrees>
            </Position>
            <AltitudeMeters>1214.199951171875</AltitudeMeters>
            <DistanceMeters>NAN</DistanceMeters>
          </Trackpoint>
          <Trackpoint>
            <Time>2019-08-01T11:38:16.000Z</Time>
            <Position>
              <LatitudeDegrees>40.72861231863498687744140625</LatitudeDegrees>
              <LongitudeDegrees>-4.0203941054642200469970703125</LongitudeDegrees>
            </Position>
            <AltitudeMeters>1214.5999755859375</AltitudeMeters>
            <DistanceMeters>NAN</DistanceMeters>
          </Trackpoint>
          <Trackpoint>
            <Time>2019-08-01T11:38:17.000Z</Time>
            <Position>
              <LatitudeDegrees>40.72863067500293254852294921875</LatitudeDegrees>
              <LongitudeDegrees>-4.02039326727390289306640625</LongitudeDegrees>
            </Position>
            <AltitudeMeters>1214.800048828125</AltitudeMeters>
            <DistanceMeters>NAN</DistanceMeters>
          </Trackpoint>
          <Trackpoint>
            <Time>2019-08-01T11:38:18.000Z</Time>
            <Position>
              <LatitudeDegrees>40.72865112684667110443115234375</LatitudeDegrees>
              <LongitudeDegrees>-4.02039050124585628509521484375</LongitudeDegrees>
            </Position>
            <AltitudeMeters>1215</AltitudeMeters>
            <DistanceMeters>NAN</DistanceMeters>
          </Trackpoint>
          <Trackpoint>
            <Time>2019-08-01T11:38:19.000Z</Time>
            <Position>
              <LatitudeDegrees>40.72867560200393199920654296875</LatitudeDegrees>
              <LongitudeDegrees>-4.0203894115984439849853515625</LongitudeDegrees>
            </Position>
            <AltitudeMeters>1215.199951171875</AltitudeMeters>
            <DistanceMeters>NAN</DistanceMeters>
          </Trackpoint>
          <Trackpoint>
            <Time>2019-08-01T11:38:20.000Z</Time>
            <Position>
              <LatitudeDegrees>40.7286993227899074554443359375</LatitudeDegrees>
              <LongitudeDegrees>-4.02039033360779285430908203125</LongitudeDegrees>
            </Position>
            <AltitudeMeters>1215.5999755859375</AltitudeMeters>
            <DistanceMeters>NAN</DistanceMeters>
          </Trackpoint>
          <Trackpoint>
            <Time>2019-08-01T11:38:21.000Z</Time>
            <Position>
              <LatitudeDegrees>40.7287241332232952117919921875</LatitudeDegrees>
              <LongitudeDegrees>-4.02038991451263427734375</LongitudeDegrees>
            </Position>
            <AltitudeMeters>1215.800048828125</AltitudeMeters>
            <DistanceMeters>NAN</DistanceMeters>
          </Trackpoint>
          <Trackpoint>
            <Time>2019-08-01T11:38:22.000Z</Time>
            <Position>
              <LatitudeDegrees>40.7287489436566829681396484375</LatitudeDegrees>
              <LongitudeDegrees>-4.0203934349119663238525390625</LongitudeDegrees>
            </Position>
            <AltitudeMeters>1216.199951171875</AltitudeMeters>
            <DistanceMeters>NAN</DistanceMeters>
          </Trackpoint>
          <Trackpoint>
            <Time>2019-08-01T11:38:23.000Z</Time>
            <Position>
              <LatitudeDegrees>40.72877501137554645538330078125</LatitudeDegrees>
              <LongitudeDegrees>-4.02039569802582263946533203125</LongitudeDegrees>
            </Position>
            <AltitudeMeters>1216.5999755859375</AltitudeMeters>
            <DistanceMeters>NAN</DistanceMeters>
          </Trackpoint>
          <Trackpoint>
            <Time>2019-08-01T11:38:24.000Z</Time>
            <Position>
              <LatitudeDegrees>40.72880334220826625823974609375</LatitudeDegrees>
              <LongitudeDegrees>-4.02039997279644012451171875</LongitudeDegrees>
            </Position>
            <AltitudeMeters>1216.800048828125</AltitudeMeters>
            <DistanceMeters>NAN</DistanceMeters>
          </Trackpoint>
          <Trackpoint>
            <Time>2019-08-01T11:38:25.000Z</Time>
            <Position>
              <LatitudeDegrees>40.72883368469774723052978515625</LatitudeDegrees>
              <LongitudeDegrees>-4.020411036908626556396484375</LongitudeDegrees>
            </Position>
            <AltitudeMeters>1217</AltitudeMeters>
            <DistanceMeters>NAN</DistanceMeters>
          </Trackpoint>
          <Trackpoint>
            <Time>2019-08-01T11:38:26.000Z</Time>
            <Position>
              <LatitudeDegrees>40.7288592495024204254150390625</LatitudeDegrees>
              <LongitudeDegrees>-4.020423106849193572998046875</LongitudeDegrees>
            </Position>
            <AltitudeMeters>1217.4000244140625</AltitudeMeters>
            <DistanceMeters>NAN</DistanceMeters>
          </Trackpoint>
          <Trackpoint>
            <Time>2019-08-01T11:38:27.000Z</Time>
            <Position>
              <LatitudeDegrees>40.7288860715925693511962890625</LatitudeDegrees>
              <LongitudeDegrees>-4.02043710462749004364013671875</LongitudeDegrees>
            </Position>
            <AltitudeMeters>1217.5999755859375</AltitudeMeters>
            <DistanceMeters>NAN</DistanceMeters>
          </Trackpoint>
          <Trackpoint>
            <Time>2019-08-01T11:38:28.000Z</Time>
            <Position>
              <LatitudeDegrees>40.7288860715925693511962890625</LatitudeDegrees>
              <LongitudeDegrees>-4.02043710462749004364013671875</LongitudeDegrees>
            </Position>
            <AltitudeMeters>1218</AltitudeMeters>
            <DistanceMeters>NAN</DistanceMeters>
          </Trackpoint>
          <Trackpoint>
            <Time>2019-08-01T11:38:29.000Z</Time>
            <Position>
              <LatitudeDegrees>40.72894616983830928802490234375</LatitudeDegrees>
              <LongitudeDegrees>-4.02046543546020984649658203125</LongitudeDegrees>
            </Position>
            <AltitudeMeters>1218.199951171875</AltitudeMeters>
            <DistanceMeters>NAN</DistanceMeters>
          </Trackpoint>
          <Trackpoint>
            <Time>2019-08-01T11:38:30.000Z</Time>
            <Position>
              <LatitudeDegrees>40.72897735051810741424560546875</LatitudeDegrees>
              <LongitudeDegrees>-4.02048203162848949432373046875</LongitudeDegrees>
            </Position>
            <AltitudeMeters>1218.4000244140625</AltitudeMeters>
            <DistanceMeters>NAN</DistanceMeters>
          </Trackpoint>
          <Trackpoint>
            <Time>2019-08-01T11:38:31.000Z</Time>
            <Position>
              <LatitudeDegrees>40.72897735051810741424560546875</LatitudeDegrees>
              <LongitudeDegrees>-4.02048203162848949432373046875</LongitudeDegrees>
            </Position>
            <AltitudeMeters>1218.4000244140625</AltitudeMeters>
            <DistanceMeters>NAN</DistanceMeters>
          </Trackpoint>
          <Trackpoint>
            <Time>2019-08-01T11:38:32.000Z</Time>
            <Position>
              <LatitudeDegrees>40.72903669439256191253662109375</LatitudeDegrees>
              <LongitudeDegrees>-4.02051874436438083648681640625</LongitudeDegrees>
            </Position>
            <AltitudeMeters>1218.5999755859375</AltitudeMeters>
            <DistanceMeters>NAN</DistanceMeters>
          </Trackpoint>
          <Trackpoint>
            <Time>2019-08-01T11:38:33.000Z</Time>
            <Position>
              <LatitudeDegrees>40.72906686924397945404052734375</LatitudeDegrees>
              <LongitudeDegrees>-4.020534418523311614990234375</LongitudeDegrees>
            </Position>
            <AltitudeMeters>1218.800048828125</AltitudeMeters>
            <DistanceMeters>NAN</DistanceMeters>
          </Trackpoint>
          <Trackpoint>
            <Time>2019-08-01T11:38:34.000Z</Time>
            <Position>
              <LatitudeDegrees>40.7290989719331264495849609375</LatitudeDegrees>
              <LongitudeDegrees>-4.02055084705352783203125</LongitudeDegrees>
            </Position>
            <AltitudeMeters>1219</AltitudeMeters>
            <DistanceMeters>NAN</DistanceMeters>
          </Trackpoint>
          <Trackpoint>
            <Time>2019-08-01T11:38:35.000Z</Time>
            <Position>
              <LatitudeDegrees>40.7291321642696857452392578125</LatitudeDegrees>
              <LongitudeDegrees>-4.02056870050728321075439453125</LongitudeDegrees>
            </Position>
            <AltitudeMeters>1219.199951171875</AltitudeMeters>
            <DistanceMeters>NAN</DistanceMeters>
          </Trackpoint>
          <Trackpoint>
            <Time>2019-08-01T11:38:36.000Z</Time>
            <Position>
              <LatitudeDegrees>40.729166530072689056396484375</LatitudeDegrees>
              <LongitudeDegrees>-4.0205838717520236968994140625</LongitudeDegrees>
            </Position>
            <AltitudeMeters>1219.4000244140625</AltitudeMeters>
            <DistanceMeters>NAN</DistanceMeters>
          </Trackpoint>
          <Trackpoint>
            <Time>2019-08-01T11:38:37.000Z</Time>
            <Position>
              <LatitudeDegrees>40.7291972078382968902587890625</LatitudeDegrees>
              <LongitudeDegrees>-4.02059854008257389068603515625</LongitudeDegrees>
            </Position>
            <AltitudeMeters>1219.5999755859375</AltitudeMeters>
            <DistanceMeters>NAN</DistanceMeters>
          </Trackpoint>
          <Trackpoint>
            <Time>2019-08-01T11:38:38.000Z</Time>
            <Position>
              <LatitudeDegrees>40.729228556156158447265625</LatitudeDegrees>
              <LongitudeDegrees>-4.02061681263148784637451171875</LongitudeDegrees>
            </Position>
            <AltitudeMeters>1219.800048828125</AltitudeMeters>
            <DistanceMeters>NAN</DistanceMeters>
          </Trackpoint>
          <Trackpoint>
            <Time>2019-08-01T11:38:39.000Z</Time>
            <Position>
              <LatitudeDegrees>40.72925998829305171966552734375</LatitudeDegrees>
              <LongitudeDegrees>-4.02063491754233837127685546875</LongitudeDegrees>
            </Position>
            <AltitudeMeters>1220</AltitudeMeters>
            <DistanceMeters>NAN</DistanceMeters>
          </Trackpoint>
          <Trackpoint>
            <Time>2019-08-01T11:38:40.000Z</Time>
            <Position>
              <LatitudeDegrees>40.72925998829305171966552734375</LatitudeDegrees>
              <LongitudeDegrees>-4.02063491754233837127685546875</LongitudeDegrees>
            </Position>
            <AltitudeMeters>1220</AltitudeMeters>
            <DistanceMeters>NAN</DistanceMeters>
          </Trackpoint>
          <Trackpoint>
            <Time>2019-08-01T11:38:41.000Z</Time>
            <Position>
              <LatitudeDegrees>40.7293199189007282257080078125</LatitudeDegrees>
              <LongitudeDegrees>-4.02067716233432292938232421875</LongitudeDegrees>
            </Position>
            <AltitudeMeters>1220</AltitudeMeters>
            <DistanceMeters>NAN</DistanceMeters>
          </Trackpoint>
          <Trackpoint>
            <Time>2019-08-01T11:38:42.000Z</Time>
            <Position>
              <LatitudeDegrees>40.72934933938086032867431640625</LatitudeDegrees>
              <LongitudeDegrees>-4.02069644071161746978759765625</LongitudeDegrees>
            </Position>
            <AltitudeMeters>1220.199951171875</AltitudeMeters>
            <DistanceMeters>NAN</DistanceMeters>
          </Trackpoint>
          <Trackpoint>
            <Time>2019-08-01T11:38:43.000Z</Time>
            <Position>
              <LatitudeDegrees>40.72937733493745326995849609375</LatitudeDegrees>
              <LongitudeDegrees>-4.020716808736324310302734375</LongitudeDegrees>
            </Position>
            <AltitudeMeters>1220.4000244140625</AltitudeMeters>
            <DistanceMeters>NAN</DistanceMeters>
          </Trackpoint>
          <Trackpoint>
            <Time>2019-08-01T11:38:44.000Z</Time>
            <Position>
              <LatitudeDegrees>40.72940583340823650360107421875</LatitudeDegrees>
              <LongitudeDegrees>-4.02073835022747516632080078125</LongitudeDegrees>
            </Position>
            <AltitudeMeters>1220.5999755859375</AltitudeMeters>
            <DistanceMeters>NAN</DistanceMeters>
          </Trackpoint>
          <Trackpoint>
            <Time>2019-08-01T11:38:45.000Z</Time>
            <Position>
              <LatitudeDegrees>40.72943718172609806060791015625</LatitudeDegrees>
              <LongitudeDegrees>-4.0207595564424991607666015625</LongitudeDegrees>
            </Position>
            <AltitudeMeters>1221</AltitudeMeters>
            <DistanceMeters>NAN</DistanceMeters>
          </Trackpoint>
          <Trackpoint>
            <Time>2019-08-01T11:38:46.000Z</Time>
            <Position>
              <LatitudeDegrees>40.729469619691371917724609375</LatitudeDegrees>
              <LongitudeDegrees>-4.020779840648174285888671875</LongitudeDegrees>
            </Position>
            <AltitudeMeters>1221.199951171875</AltitudeMeters>
            <DistanceMeters>NAN</DistanceMeters>
          </Trackpoint>
          <Trackpoint>
            <Time>2019-08-01T11:38:47.000Z</Time>
            <Position>
              <LatitudeDegrees>40.72950012981891632080078125</LatitudeDegrees>
              <LongitudeDegrees>-4.0207974426448345184326171875</LongitudeDegrees>
            </Position>
            <AltitudeMeters>1221.4000244140625</AltitudeMeters>
            <DistanceMeters>NAN</DistanceMeters>
          </Trackpoint>
          <Trackpoint>
            <Time>2019-08-01T11:38:48.000Z</Time>
            <Position>
              <LatitudeDegrees>40.72953139431774616241455078125</LatitudeDegrees>
              <LongitudeDegrees>-4.0208138711750507354736328125</LongitudeDegrees>
            </Position>
            <AltitudeMeters>1221.800048828125</AltitudeMeters>
            <DistanceMeters>NAN</DistanceMeters>
          </Trackpoint>
          <Trackpoint>
            <Time>2019-08-01T11:38:49.000Z</Time>
            <Position>
              <LatitudeDegrees>40.72955855168402194976806640625</LatitudeDegrees>
              <LongitudeDegrees>-4.02083155699074268341064453125</LongitudeDegrees>
            </Position>
            <AltitudeMeters>1222.199951171875</AltitudeMeters>
            <DistanceMeters>NAN</DistanceMeters>
          </Trackpoint>
          <Trackpoint>
            <Time>2019-08-01T11:38:50.000Z</Time>
            <Position>
              <LatitudeDegrees>40.72958864271640777587890625</LatitudeDegrees>
              <LongitudeDegrees>-4.02085334993898868560791015625</LongitudeDegrees>
            </Position>
            <AltitudeMeters>1222.4000244140625</AltitudeMeters>
            <DistanceMeters>NAN</DistanceMeters>
          </Trackpoint>
          <Trackpoint>
            <Time>2019-08-01T11:38:51.000Z</Time>
            <Position>
              <LatitudeDegrees>40.72961521334946155548095703125</LatitudeDegrees>
              <LongitudeDegrees>-4.02087229304015636444091796875</LongitudeDegrees>
            </Position>
            <AltitudeMeters>1222.5999755859375</AltitudeMeters>
            <DistanceMeters>NAN</DistanceMeters>
          </Trackpoint>
          <Trackpoint>
            <Time>2019-08-01T11:38:52.000Z</Time>
            <Position>
              <LatitudeDegrees>40.7296421192586421966552734375</LatitudeDegrees>
              <LongitudeDegrees>-4.02089039795100688934326171875</LongitudeDegrees>
            </Position>
            <AltitudeMeters>1223</AltitudeMeters>
            <DistanceMeters>NAN</DistanceMeters>
          </Trackpoint>
          <Trackpoint>
            <Time>2019-08-01T11:38:53.000Z</Time>
            <Position>
              <LatitudeDegrees>40.7296729646623134613037109375</LatitudeDegrees>
              <LongitudeDegrees>-4.0209070779383182525634765625</LongitudeDegrees>
            </Position>
            <AltitudeMeters>1223.4000244140625</AltitudeMeters>
            <DistanceMeters>NAN</DistanceMeters>
          </Trackpoint>
          <Trackpoint>
            <Time>2019-08-01T11:38:54.000Z</Time>
            <Position>
              <LatitudeDegrees>40.72970204986631870269775390625</LatitudeDegrees>
              <LongitudeDegrees>-4.020926021039485931396484375</LongitudeDegrees>
            </Position>
            <AltitudeMeters>1223.5999755859375</AltitudeMeters>
            <DistanceMeters>NAN</DistanceMeters>
          </Trackpoint>
          <Trackpoint>
            <Time>2019-08-01T11:38:55.000Z</Time>
            <Position>
              <LatitudeDegrees>40.72973239235579967498779296875</LatitudeDegrees>
              <LongitudeDegrees>-4.0209419466555118560791015625</LongitudeDegrees>
            </Position>
            <AltitudeMeters>1223.800048828125</AltitudeMeters>
            <DistanceMeters>NAN</DistanceMeters>
          </Trackpoint>
          <Trackpoint>
            <Time>2019-08-01T11:38:56.000Z</Time>
            <Position>
              <LatitudeDegrees>40.72976105846464633941650390625</LatitudeDegrees>
              <LongitudeDegrees>-4.020955860614776611328125</LongitudeDegrees>
            </Position>
            <AltitudeMeters>1224</AltitudeMeters>
            <DistanceMeters>NAN</DistanceMeters>
          </Trackpoint>
          <Trackpoint>
            <Time>2019-08-01T11:38:57.000Z</Time>
            <Position>
              <LatitudeDegrees>40.72978980839252471923828125</LatitudeDegrees>
              <LongitudeDegrees>-4.0209694392979145050048828125</LongitudeDegrees>
            </Position>
            <AltitudeMeters>1224.199951171875</AltitudeMeters>
            <DistanceMeters>NAN</DistanceMeters>
          </Trackpoint>
          <Trackpoint>
            <Time>2019-08-01T11:38:58.000Z</Time>
            <Position>
              <LatitudeDegrees>40.7298184745013713836669921875</LatitudeDegrees>
              <LongitudeDegrees>-4.020982682704925537109375</LongitudeDegrees>
            </Position>
            <AltitudeMeters>1224.5999755859375</AltitudeMeters>
            <DistanceMeters>NAN</DistanceMeters>
          </Trackpoint>
          <Trackpoint>
            <Time>2019-08-01T11:38:59.000Z</Time>
            <Position>
              <LatitudeDegrees>40.729847140610218048095703125</LatitudeDegrees>
              <LongitudeDegrees>-4.02099366299808025360107421875</LongitudeDegrees>
            </Position>
            <AltitudeMeters>1224.5999755859375</AltitudeMeters>
            <DistanceMeters>NAN</DistanceMeters>
          </Trackpoint>
          <Trackpoint>
            <Time>2019-08-01T11:39:00.000Z</Time>
            <Position>
              <LatitudeDegrees>40.7298741303384304046630859375</LatitudeDegrees>
              <LongitudeDegrees>-4.0210053138434886932373046875</LongitudeDegrees>
            </Position>
            <AltitudeMeters>1225</AltitudeMeters>
            <DistanceMeters>NAN</DistanceMeters>
          </Trackpoint>
          <Trackpoint>
            <Time>2019-08-01T11:39:01.000Z</Time>
            <Position>
              <LatitudeDegrees>40.7299043051898479461669921875</LatitudeDegrees>
              <LongitudeDegrees>-4.02101763524115085601806640625</LongitudeDegrees>
            </Position>
            <AltitudeMeters>1225.199951171875</AltitudeMeters>
            <DistanceMeters>NAN</DistanceMeters>
          </Trackpoint>
          <Trackpoint>
            <Time>2019-08-01T11:39:02.000Z</Time>
            <Position>
              <LatitudeDegrees>40.72993573732674121856689453125</LatitudeDegrees>
              <LongitudeDegrees>-4.02102903462946414947509765625</LongitudeDegrees>
            </Position>
            <AltitudeMeters>1225.4000244140625</AltitudeMeters>
            <DistanceMeters>NAN</DistanceMeters>
          </Trackpoint>
          <Trackpoint>
            <Time>2019-08-01T11:39:03.000Z</Time>
            <Position>
              <LatitudeDegrees>40.72996591217815876007080078125</LatitudeDegrees>
              <LongitudeDegrees>-4.02103993110358715057373046875</LongitudeDegrees>
            </Position>
            <AltitudeMeters>1225.5999755859375</AltitudeMeters>
            <DistanceMeters>NAN</DistanceMeters>
          </Trackpoint>
          <Trackpoint>
            <Time>2019-08-01T11:39:04.000Z</Time>
            <Position>
              <LatitudeDegrees>40.72999499738216400146484375</LatitudeDegrees>
              <LongitudeDegrees>-4.0210499055683612823486328125</LongitudeDegrees>
            </Position>
            <AltitudeMeters>1226.199951171875</AltitudeMeters>
            <DistanceMeters>NAN</DistanceMeters>
          </Trackpoint>
          <Trackpoint>
            <Time>2019-08-01T11:39:05.000Z</Time>
            <Position>
              <LatitudeDegrees>40.73002508841454982757568359375</LatitudeDegrees>
              <LongitudeDegrees>-4.021060131490230560302734375</LongitudeDegrees>
            </Position>
            <AltitudeMeters>1226.5999755859375</AltitudeMeters>
            <DistanceMeters>NAN</DistanceMeters>
          </Trackpoint>
          <Trackpoint>
            <Time>2019-08-01T11:39:06.000Z</Time>
            <Position>
              <LatitudeDegrees>40.73005677200853824615478515625</LatitudeDegrees>
              <LongitudeDegrees>-4.02106993831694126129150390625</LongitudeDegrees>
            </Position>
            <AltitudeMeters>1226.800048828125</AltitudeMeters>
            <DistanceMeters>NAN</DistanceMeters>
          </Trackpoint>
          <Trackpoint>
            <Time>2019-08-01T11:39:07.000Z</Time>
            <Position>
              <LatitudeDegrees>40.73008594103157520294189453125</LatitudeDegrees>
              <LongitudeDegrees>-4.021077565848827362060546875</LongitudeDegrees>
            </Position>
            <AltitudeMeters>1227</AltitudeMeters>
            <DistanceMeters>NAN</DistanceMeters>
          </Trackpoint>
          <Trackpoint>
            <Time>2019-08-01T11:39:08.000Z</Time>
            <Position>
              <LatitudeDegrees>40.73011494241654872894287109375</LatitudeDegrees>
              <LongitudeDegrees>-4.0210857801139354705810546875</LongitudeDegrees>
            </Position>
            <AltitudeMeters>1227</AltitudeMeters>
            <DistanceMeters>NAN</DistanceMeters>
          </Trackpoint>
          <Trackpoint>
            <Time>2019-08-01T11:39:09.000Z</Time>
            <Position>
              <LatitudeDegrees>40.73014813475310802459716796875</LatitudeDegrees>
              <LongitudeDegrees>-4.0210948325693607330322265625</LongitudeDegrees>
            </Position>
            <AltitudeMeters>1227.199951171875</AltitudeMeters>
            <DistanceMeters>NAN</DistanceMeters>
          </Trackpoint>
          <Trackpoint>
            <Time>2019-08-01T11:39:10.000Z</Time>
            <Position>
              <LatitudeDegrees>40.73017864488065242767333984375</LatitudeDegrees>
              <LongitudeDegrees>-4.02110329829156398773193359375</LongitudeDegrees>
            </Position>
            <AltitudeMeters>1227.4000244140625</AltitudeMeters>
            <DistanceMeters>NAN</DistanceMeters>
          </Trackpoint>
          <Trackpoint>
            <Time>2019-08-01T11:39:11.000Z</Time>
            <Position>
              <LatitudeDegrees>40.73020781390368938446044921875</LatitudeDegrees>
              <LongitudeDegrees>-4.02111100964248180389404296875</LongitudeDegrees>
            </Position>
            <AltitudeMeters>1227.800048828125</AltitudeMeters>
            <DistanceMeters>NAN</DistanceMeters>
          </Trackpoint>
          <Trackpoint>
            <Time>2019-08-01T11:39:12.000Z</Time>
            <Position>
              <LatitudeDegrees>40.7302384078502655029296875</LatitudeDegrees>
              <LongitudeDegrees>-4.0211181342601776123046875</LongitudeDegrees>
            </Position>
            <AltitudeMeters>1227.800048828125</AltitudeMeters>
            <DistanceMeters>NAN</DistanceMeters>
          </Trackpoint>
          <Trackpoint>
            <Time>2019-08-01T11:39:13.000Z</Time>
            <Position>
              <LatitudeDegrees>40.73026967234909534454345703125</LatitudeDegrees>
              <LongitudeDegrees>-4.021125175058841705322265625</LongitudeDegrees>
            </Position>
            <AltitudeMeters>1228.199951171875</AltitudeMeters>
            <DistanceMeters>NAN</DistanceMeters>
          </Trackpoint>
          <Trackpoint>
            <Time>2019-08-01T11:39:14.000Z</Time>
            <Position>
              <LatitudeDegrees>40.73030403815209865570068359375</LatitudeDegrees>
              <LongitudeDegrees>-4.02113146148622035980224609375</LongitudeDegrees>
            </Position>
            <AltitudeMeters>1228.5999755859375</AltitudeMeters>
            <DistanceMeters>NAN</DistanceMeters>
          </Trackpoint>
          <Trackpoint>
            <Time>2019-08-01T11:39:15.000Z</Time>
            <Position>
              <LatitudeDegrees>40.7303381524980068206787109375</LatitudeDegrees>
              <LongitudeDegrees>-4.0211370773613452911376953125</LongitudeDegrees>
            </Position>
            <AltitudeMeters>1229</AltitudeMeters>
            <DistanceMeters>NAN</DistanceMeters>
          </Trackpoint>
          <Trackpoint>
            <Time>2019-08-01T11:39:16.000Z</Time>
            <Position>
              <LatitudeDegrees>40.73036891408264636993408203125</LatitudeDegrees>
              <LongitudeDegrees>-4.0211437828838825225830078125</LongitudeDegrees>
            </Position>
            <AltitudeMeters>1229.4000244140625</AltitudeMeters>
            <DistanceMeters>NAN</DistanceMeters>
          </Trackpoint>
          <Trackpoint>
            <Time>2019-08-01T11:39:17.000Z</Time>
            <Position>
              <LatitudeDegrees>40.73036891408264636993408203125</LatitudeDegrees>
              <LongitudeDegrees>-4.0211437828838825225830078125</LongitudeDegrees>
            </Position>
            <AltitudeMeters>1229.5999755859375</AltitudeMeters>
            <DistanceMeters>NAN</DistanceMeters>
          </Trackpoint>
          <Trackpoint>
            <Time>2019-08-01T11:39:18.000Z</Time>
            <Position>
              <LatitudeDegrees>40.73043244890868663787841796875</LatitudeDegrees>
              <LongitudeDegrees>-4.0211474709212779998779296875</LongitudeDegrees>
            </Position>
            <AltitudeMeters>1229.800048828125</AltitudeMeters>
            <DistanceMeters>NAN</DistanceMeters>
          </Trackpoint>
          <Trackpoint>
            <Time>2019-08-01T11:39:19.000Z</Time>
            <Position>
              <LatitudeDegrees>40.73046145029366016387939453125</LatitudeDegrees>
              <LongitudeDegrees>-4.02114755474030971527099609375</LongitudeDegrees>
            </Position>
            <AltitudeMeters>1230</AltitudeMeters>
            <DistanceMeters>NAN</DistanceMeters>
          </Trackpoint>
          <Trackpoint>
            <Time>2019-08-01T11:39:20.000Z</Time>
            <Position>
              <LatitudeDegrees>40.73048810474574565887451171875</LatitudeDegrees>
              <LongitudeDegrees>-4.021148644387722015380859375</LongitudeDegrees>
            </Position>
            <AltitudeMeters>1230.199951171875</AltitudeMeters>
            <DistanceMeters>NAN</DistanceMeters>
          </Trackpoint>
          <Trackpoint>
            <Time>2019-08-01T11:39:21.000Z</Time>
            <Position>
              <LatitudeDegrees>40.73051190935075283050537109375</LatitudeDegrees>
              <LongitudeDegrees>-4.021151326596736907958984375</LongitudeDegrees>
            </Position>
            <AltitudeMeters>1230.4000244140625</AltitudeMeters>
            <DistanceMeters>NAN</DistanceMeters>
          </Trackpoint>
          <Trackpoint>
            <Time>2019-08-01T11:39:22.000Z</Time>
            <Position>
              <LatitudeDegrees>40.73054107837378978729248046875</LatitudeDegrees>
              <LongitudeDegrees>-4.02115375734865665435791015625</LongitudeDegrees>
            </Position>
            <AltitudeMeters>1230.5999755859375</AltitudeMeters>
            <DistanceMeters>NAN</DistanceMeters>
          </Trackpoint>
          <Trackpoint>
            <Time>2019-08-01T11:39:23.000Z</Time>
            <Position>
              <LatitudeDegrees>40.73056706227362155914306640625</LatitudeDegrees>
              <LongitudeDegrees>-4.02115560136735439300537109375</LongitudeDegrees>
            </Position>
            <AltitudeMeters>1231</AltitudeMeters>
            <DistanceMeters>NAN</DistanceMeters>
          </Trackpoint>
          <Trackpoint>
            <Time>2019-08-01T11:39:24.000Z</Time>
            <Position>
              <LatitudeDegrees>40.73059388436377048492431640625</LatitudeDegrees>
              <LongitudeDegrees>-4.02115979231894016265869140625</LongitudeDegrees>
            </Position>
            <AltitudeMeters>1231.199951171875</AltitudeMeters>
            <DistanceMeters>NAN</DistanceMeters>
          </Trackpoint>
          <Trackpoint>
            <Time>2019-08-01T11:39:25.000Z</Time>
            <Position>
              <LatitudeDegrees>40.7306181080639362335205078125</LatitudeDegrees>
              <LongitudeDegrees>-4.0211635641753673553466796875</LongitudeDegrees>
            </Position>
            <AltitudeMeters>1231.4000244140625</AltitudeMeters>
            <DistanceMeters>NAN</DistanceMeters>
          </Trackpoint>
          <Trackpoint>
            <Time>2019-08-01T11:39:26.000Z</Time>
            <Position>
              <LatitudeDegrees>40.73064266704022884368896484375</LatitudeDegrees>
              <LongitudeDegrees>-4.02116783894598484039306640625</LongitudeDegrees>
            </Position>
            <AltitudeMeters>1231.5999755859375</AltitudeMeters>
            <DistanceMeters>NAN</DistanceMeters>
          </Trackpoint>
          <Trackpoint>
            <Time>2019-08-01T11:39:27.000Z</Time>
            <Position>
              <LatitudeDegrees>40.7306673936545848846435546875</LatitudeDegrees>
              <LongitudeDegrees>-4.02117035351693630218505859375</LongitudeDegrees>
            </Position>
            <AltitudeMeters>1232</AltitudeMeters>
            <DistanceMeters>NAN</DistanceMeters>
          </Trackpoint>
          <Trackpoint>
            <Time>2019-08-01T11:39:28.000Z</Time>
            <Position>
              <LatitudeDegrees>40.73069329373538494110107421875</LatitudeDegrees>
              <LongitudeDegrees>-4.021174125373363494873046875</LongitudeDegrees>
            </Position>
            <AltitudeMeters>1232.4000244140625</AltitudeMeters>
            <DistanceMeters>NAN</DistanceMeters>
          </Trackpoint>
          <Trackpoint>
            <Time>2019-08-01T11:39:29.000Z</Time>
            <Position>
              <LatitudeDegrees>40.73071793653070926666259765625</LatitudeDegrees>
              <LongitudeDegrees>-4.0211786516010761260986328125</LongitudeDegrees>
            </Position>
            <AltitudeMeters>1232.5999755859375</AltitudeMeters>
            <DistanceMeters>NAN</DistanceMeters>
          </Trackpoint>
          <Trackpoint>
            <Time>2019-08-01T11:39:30.000Z</Time>
            <Position>
              <LatitudeDegrees>40.7307399809360504150390625</LatitudeDegrees>
              <LongitudeDegrees>-4.02118384838104248046875</LongitudeDegrees>
            </Position>
            <AltitudeMeters>1233</AltitudeMeters>
            <DistanceMeters>NAN</DistanceMeters>
          </Trackpoint>
          <Trackpoint>
            <Time>2019-08-01T11:39:31.000Z</Time>
            <Position>
              <LatitudeDegrees>40.730755738914012908935546875</LatitudeDegrees>
              <LongitudeDegrees>-4.02118946425616741180419921875</LongitudeDegrees>
            </Position>
            <AltitudeMeters>1233.5999755859375</AltitudeMeters>
            <DistanceMeters>NAN</DistanceMeters>
          </Trackpoint>
          <Trackpoint>
            <Time>2019-08-01T11:39:32.000Z</Time>
            <Position>
              <LatitudeDegrees>40.73077149689197540283203125</LatitudeDegrees>
              <LongitudeDegrees>-4.0211957506835460662841796875</LongitudeDegrees>
            </Position>
            <AltitudeMeters>1233.800048828125</AltitudeMeters>
            <DistanceMeters>NAN</DistanceMeters>
          </Trackpoint>
          <Trackpoint>
            <Time>2019-08-01T11:39:33.000Z</Time>
            <Position>
              <LatitudeDegrees>40.7307874225080013275146484375</LatitudeDegrees>
              <LongitudeDegrees>-4.02120237238705158233642578125</LongitudeDegrees>
            </Position>
            <AltitudeMeters>1234</AltitudeMeters>
            <DistanceMeters>NAN</DistanceMeters>
          </Trackpoint>
          <Trackpoint>
            <Time>2019-08-01T11:39:34.000Z</Time>
            <Position>
              <LatitudeDegrees>40.73080544359982013702392578125</LatitudeDegrees>
              <LongitudeDegrees>-4.021207652986049652099609375</LongitudeDegrees>
            </Position>
            <AltitudeMeters>1234.4000244140625</AltitudeMeters>
            <DistanceMeters>NAN</DistanceMeters>
          </Trackpoint>
          <Trackpoint>
            <Time>2019-08-01T11:39:35.000Z</Time>
            <Position>
              <LatitudeDegrees>40.7308209501206874847412109375</LatitudeDegrees>
              <LongitudeDegrees>-4.02121058665215969085693359375</LongitudeDegrees>
            </Position>
            <AltitudeMeters>1234.5999755859375</AltitudeMeters>
            <DistanceMeters>NAN</DistanceMeters>
          </Trackpoint>
          <Trackpoint>
            <Time>2019-08-01T11:39:36.000Z</Time>
            <Position>
              <LatitudeDegrees>40.730840899050235748291015625</LatitudeDegrees>
              <LongitudeDegrees>-4.021213352680206298828125</LongitudeDegrees>
            </Position>
            <AltitudeMeters>1234.800048828125</AltitudeMeters>
            <DistanceMeters>NAN</DistanceMeters>
          </Trackpoint>
          <Trackpoint>
            <Time>2019-08-01T11:39:37.000Z</Time>
            <Position>
              <LatitudeDegrees>40.7308628596365451812744140625</LatitudeDegrees>
              <LongitudeDegrees>-4.0212162025272846221923828125</LongitudeDegrees>
            </Position>
            <AltitudeMeters>1235</AltitudeMeters>
            <DistanceMeters>NAN</DistanceMeters>
          </Trackpoint>
          <Trackpoint>
            <Time>2019-08-01T11:39:38.000Z</Time>
            <Position>
              <LatitudeDegrees>40.730887837707996368408203125</LatitudeDegrees>
              <LongitudeDegrees>-4.02121444232761859893798828125</LongitudeDegrees>
            </Position>
            <AltitudeMeters>1235.199951171875</AltitudeMeters>
            <DistanceMeters>NAN</DistanceMeters>
          </Trackpoint>
          <Trackpoint>
            <Time>2019-08-01T11:39:39.000Z</Time>
            <Position>
              <LatitudeDegrees>40.73091222904622554779052734375</LatitudeDegrees>
              <LongitudeDegrees>-4.021209664642810821533203125</LongitudeDegrees>
            </Position>
            <AltitudeMeters>1235.4000244140625</AltitudeMeters>
            <DistanceMeters>NAN</DistanceMeters>
          </Trackpoint>
          <Trackpoint>
            <Time>2019-08-01T11:39:40.000Z</Time>
            <Position>
              <LatitudeDegrees>40.73093720711767673492431640625</LatitudeDegrees>
              <LongitudeDegrees>-4.021202623844146728515625</LongitudeDegrees>
            </Position>
            <AltitudeMeters>1235.800048828125</AltitudeMeters>
            <DistanceMeters>NAN</DistanceMeters>
          </Trackpoint>
          <Trackpoint>
            <Time>2019-08-01T11:39:41.000Z</Time>
            <Position>
              <LatitudeDegrees>40.73096050880849361419677734375</LatitudeDegrees>
              <LongitudeDegrees>-4.02119432576000690460205078125</LongitudeDegrees>
            </Position>
            <AltitudeMeters>1235.800048828125</AltitudeMeters>
            <DistanceMeters>NAN</DistanceMeters>
          </Trackpoint>
          <Trackpoint>
            <Time>2019-08-01T11:39:42.000Z</Time>
            <Position>
              <LatitudeDegrees>40.73098749853670597076416015625</LatitudeDegrees>
              <LongitudeDegrees>-4.0211846865713596343994140625</LongitudeDegrees>
            </Position>
            <AltitudeMeters>1236</AltitudeMeters>
            <DistanceMeters>NAN</DistanceMeters>
          </Trackpoint>
          <Trackpoint>
            <Time>2019-08-01T11:39:43.000Z</Time>
            <Position>
              <LatitudeDegrees>40.73101582936942577362060546875</LatitudeDegrees>
              <LongitudeDegrees>-4.02117538265883922576904296875</LongitudeDegrees>
            </Position>
            <AltitudeMeters>1236.199951171875</AltitudeMeters>
            <DistanceMeters>NAN</DistanceMeters>
          </Trackpoint>
          <Trackpoint>
            <Time>2019-08-01T11:39:44.000Z</Time>
            <Position>
              <LatitudeDegrees>40.7310398854315280914306640625</LatitudeDegrees>
              <LongitudeDegrees>-4.02116297744214534759521484375</LongitudeDegrees>
            </Position>
            <AltitudeMeters>1236.4000244140625</AltitudeMeters>
            <DistanceMeters>NAN</DistanceMeters>
          </Trackpoint>
          <Trackpoint>
            <Time>2019-08-01T11:39:45.000Z</Time>
            <Position>
              <LatitudeDegrees>40.73107215575873851776123046875</LatitudeDegrees>
              <LongitudeDegrees>-4.02114688418805599212646484375</LongitudeDegrees>
            </Position>
            <AltitudeMeters>1236.5999755859375</AltitudeMeters>
            <DistanceMeters>NAN</DistanceMeters>
          </Trackpoint>
          <Trackpoint>
            <Time>2019-08-01T11:39:46.000Z</Time>
            <Position>
              <LatitudeDegrees>40.731103420257568359375</LatitudeDegrees>
              <LongitudeDegrees>-4.0211330540478229522705078125</LongitudeDegrees>
            </Position>
            <AltitudeMeters>1236.800048828125</AltitudeMeters>
            <DistanceMeters>NAN</DistanceMeters>
          </Trackpoint>
          <Trackpoint>
            <Time>2019-08-01T11:39:47.000Z</Time>
            <Position>
              <LatitudeDegrees>40.73113736696541309356689453125</LatitudeDegrees>
              <LongitudeDegrees>-4.02111905626952648162841796875</LongitudeDegrees>
            </Position>
            <AltitudeMeters>1237</AltitudeMeters>
            <DistanceMeters>NAN</DistanceMeters>
          </Trackpoint>
          <Trackpoint>
            <Time>2019-08-01T11:39:48.000Z</Time>
            <Position>
              <LatitudeDegrees>40.73116846382617950439453125</LatitudeDegrees>
              <LongitudeDegrees>-4.0211038850247859954833984375</LongitudeDegrees>
            </Position>
            <AltitudeMeters>1237.4000244140625</AltitudeMeters>
            <DistanceMeters>NAN</DistanceMeters>
          </Trackpoint>
          <Trackpoint>
            <Time>2019-08-01T11:39:49.000Z</Time>
            <Position>
              <LatitudeDegrees>40.73116846382617950439453125</LatitudeDegrees>
              <LongitudeDegrees>-4.0211038850247859954833984375</LongitudeDegrees>
            </Position>
            <AltitudeMeters>1237.5999755859375</AltitudeMeters>
            <DistanceMeters>NAN</DistanceMeters>
          </Trackpoint>
          <Trackpoint>
            <Time>2019-08-01T11:39:50.000Z</Time>
            <Position>
              <LatitudeDegrees>40.7312296517193317413330078125</LatitudeDegrees>
              <LongitudeDegrees>-4.02107044123113155364990234375</LongitudeDegrees>
            </Position>
            <AltitudeMeters>1237.800048828125</AltitudeMeters>
            <DistanceMeters>NAN</DistanceMeters>
          </Trackpoint>
          <Trackpoint>
            <Time>2019-08-01T11:39:51.000Z</Time>
            <Position>
              <LatitudeDegrees>40.731255970895290374755859375</LatitudeDegrees>
              <LongitudeDegrees>-4.02105703018605709075927734375</LongitudeDegrees>
            </Position>
            <AltitudeMeters>1238</AltitudeMeters>
            <DistanceMeters>NAN</DistanceMeters>
          </Trackpoint>
          <Trackpoint>
            <Time>2019-08-01T11:39:52.000Z</Time>
            <Position>
              <LatitudeDegrees>40.73128111660480499267578125</LatitudeDegrees>
              <LongitudeDegrees>-4.02104546315968036651611328125</LongitudeDegrees>
            </Position>
            <AltitudeMeters>1238.199951171875</AltitudeMeters>
            <DistanceMeters>NAN</DistanceMeters>
          </Trackpoint>
          <Trackpoint>
            <Time>2019-08-01T11:39:53.000Z</Time>
            <Position>
              <LatitudeDegrees>40.731308944523334503173828125</LatitudeDegrees>
              <LongitudeDegrees>-4.021033979952335357666015625</LongitudeDegrees>
            </Position>
            <AltitudeMeters>1238.4000244140625</AltitudeMeters>
            <DistanceMeters>NAN</DistanceMeters>
          </Trackpoint>
          <Trackpoint>
            <Time>2019-08-01T11:39:54.000Z</Time>
            <Position>
              <LatitudeDegrees>40.73134238831698894500732421875</LatitudeDegrees>
              <LongitudeDegrees>-4.021017216145992279052734375</LongitudeDegrees>
            </Position>
            <AltitudeMeters>1238.5999755859375</AltitudeMeters>
            <DistanceMeters>NAN</DistanceMeters>
          </Trackpoint>
          <Trackpoint>
            <Time>2019-08-01T11:39:55.000Z</Time>
            <Position>
              <LatitudeDegrees>40.7313676178455352783203125</LatitudeDegrees>
              <LongitudeDegrees>-4.02100506238639354705810546875</LongitudeDegrees>
            </Position>
            <AltitudeMeters>1238.800048828125</AltitudeMeters>
            <DistanceMeters>NAN</DistanceMeters>
          </Trackpoint>
          <Trackpoint>
            <Time>2019-08-01T11:39:56.000Z</Time>
            <Position>
              <LatitudeDegrees>40.73140106163918972015380859375</LatitudeDegrees>
              <LongitudeDegrees>-4.02099634520709514617919921875</LongitudeDegrees>
            </Position>
            <AltitudeMeters>1238.800048828125</AltitudeMeters>
            <DistanceMeters>NAN</DistanceMeters>
          </Trackpoint>
          <Trackpoint>
            <Time>2019-08-01T11:39:57.000Z</Time>
            <Position>
              <LatitudeDegrees>40.73143509216606616973876953125</LatitudeDegrees>
              <LongitudeDegrees>-4.020985029637813568115234375</LongitudeDegrees>
            </Position>
            <AltitudeMeters>1239</AltitudeMeters>
            <DistanceMeters>NAN</DistanceMeters>
          </Trackpoint>
          <Trackpoint>
            <Time>2019-08-01T11:39:58.000Z</Time>
            <Position>
              <LatitudeDegrees>40.7314740680158138275146484375</LatitudeDegrees>
              <LongitudeDegrees>-4.02096918784081935882568359375</LongitudeDegrees>
            </Position>
            <AltitudeMeters>1239</AltitudeMeters>
            <DistanceMeters>NAN</DistanceMeters>
          </Trackpoint>
          <Trackpoint>
            <Time>2019-08-01T11:39:59.000Z</Time>
            <Position>
              <LatitudeDegrees>40.7315096072852611541748046875</LatitudeDegrees>
              <LongitudeDegrees>-4.020954854786396026611328125</LongitudeDegrees>
            </Position>
            <AltitudeMeters>1239.4000244140625</AltitudeMeters>
            <DistanceMeters>NAN</DistanceMeters>
          </Trackpoint>
          <Trackpoint>
            <Time>2019-08-01T11:40:00.000Z</Time>
            <Position>
              <LatitudeDegrees>40.7315458171069622039794921875</LatitudeDegrees>
              <LongitudeDegrees>-4.020939432084560394287109375</LongitudeDegrees>
            </Position>
            <AltitudeMeters>1240</AltitudeMeters>
            <DistanceMeters>NAN</DistanceMeters>
          </Trackpoint>
          <Trackpoint>
            <Time>2019-08-01T11:40:01.000Z</Time>
            <Position>
              <LatitudeDegrees>40.7315458171069622039794921875</LatitudeDegrees>
              <LongitudeDegrees>-4.020939432084560394287109375</LongitudeDegrees>
            </Position>
            <AltitudeMeters>1240.4000244140625</AltitudeMeters>
            <DistanceMeters>NAN</DistanceMeters>
          </Trackpoint>
          <Trackpoint>
            <Time>2019-08-01T11:40:02.000Z</Time>
            <Position>
              <LatitudeDegrees>40.73162418790161609649658203125</LatitudeDegrees>
              <LongitudeDegrees>-4.02091152034699916839599609375</LongitudeDegrees>
            </Position>
            <AltitudeMeters>1240.800048828125</AltitudeMeters>
            <DistanceMeters>NAN</DistanceMeters>
          </Trackpoint>
          <Trackpoint>
            <Time>2019-08-01T11:40:03.000Z</Time>
            <Position>
              <LatitudeDegrees>40.73166073299944400787353515625</LatitudeDegrees>
              <LongitudeDegrees>-4.020895175635814666748046875</LongitudeDegrees>
            </Position>
            <AltitudeMeters>1241</AltitudeMeters>
            <DistanceMeters>NAN</DistanceMeters>
          </Trackpoint>
          <Trackpoint>
            <Time>2019-08-01T11:40:04.000Z</Time>
            <Position>
              <LatitudeDegrees>40.73166073299944400787353515625</LatitudeDegrees>
              <LongitudeDegrees>-4.020895175635814666748046875</LongitudeDegrees>
            </Position>
            <AltitudeMeters>1241.4000244140625</AltitudeMeters>
            <DistanceMeters>NAN</DistanceMeters>
          </Trackpoint>
          <Trackpoint>
            <Time>2019-08-01T11:40:05.000Z</Time>
            <Position>
              <LatitudeDegrees>40.731732062995433807373046875</LatitudeDegrees>
              <LongitudeDegrees>-4.0208658389747142791748046875</LongitudeDegrees>
            </Position>
            <AltitudeMeters>1241.800048828125</AltitudeMeters>
            <DistanceMeters>NAN</DistanceMeters>
          </Trackpoint>
          <Trackpoint>
            <Time>2019-08-01T11:40:06.000Z</Time>
            <Position>
              <LatitudeDegrees>40.7317664287984371185302734375</LatitudeDegrees>
              <LongitudeDegrees>-4.02085267938673496246337890625</LongitudeDegrees>
            </Position>
            <AltitudeMeters>1241.800048828125</AltitudeMeters>
            <DistanceMeters>NAN</DistanceMeters>
          </Trackpoint>
          <Trackpoint>
            <Time>2019-08-01T11:40:07.000Z</Time>
            <Position>
              <LatitudeDegrees>40.73180817067623138427734375</LatitudeDegrees>
              <LongitudeDegrees>-4.020836837589740753173828125</LongitudeDegrees>
            </Position>
            <AltitudeMeters>1242.199951171875</AltitudeMeters>
            <DistanceMeters>NAN</DistanceMeters>
          </Trackpoint>
          <Trackpoint>
            <Time>2019-08-01T11:40:08.000Z</Time>
            <Position>
              <LatitudeDegrees>40.7318391837179660797119140625</LatitudeDegrees>
              <LongitudeDegrees>-4.02082267217338085174560546875</LongitudeDegrees>
            </Position>
            <AltitudeMeters>1242.5999755859375</AltitudeMeters>
            <DistanceMeters>NAN</DistanceMeters>
          </Trackpoint>
          <Trackpoint>
            <Time>2019-08-01T11:40:09.000Z</Time>
            <Position>
              <LatitudeDegrees>40.73187078349292278289794921875</LatitudeDegrees>
              <LongitudeDegrees>-4.0208101831376552581787109375</LongitudeDegrees>
            </Position>
            <AltitudeMeters>1242.800048828125</AltitudeMeters>
            <DistanceMeters>NAN</DistanceMeters>
          </Trackpoint>
          <Trackpoint>
            <Time>2019-08-01T11:40:10.000Z</Time>
            <Position>
              <LatitudeDegrees>40.73187078349292278289794921875</LatitudeDegrees>
              <LongitudeDegrees>-4.0208101831376552581787109375</LongitudeDegrees>
            </Position>
            <AltitudeMeters>1243</AltitudeMeters>
            <DistanceMeters>NAN</DistanceMeters>
          </Trackpoint>
          <Trackpoint>
            <Time>2019-08-01T11:40:11.000Z</Time>
            <Position>
              <LatitudeDegrees>40.73192979209125041961669921875</LatitudeDegrees>
              <LongitudeDegrees>-4.02078352868556976318359375</LongitudeDegrees>
            </Position>
            <AltitudeMeters>1243.199951171875</AltitudeMeters>
            <DistanceMeters>NAN</DistanceMeters>
          </Trackpoint>
          <Trackpoint>
            <Time>2019-08-01T11:40:12.000Z</Time>
            <Position>
              <LatitudeDegrees>40.7319645769894123077392578125</LatitudeDegrees>
              <LongitudeDegrees>-4.02077145874500274658203125</LongitudeDegrees>
            </Position>
            <AltitudeMeters>1243.4000244140625</AltitudeMeters>
            <DistanceMeters>NAN</DistanceMeters>
          </Trackpoint>
          <Trackpoint>
            <Time>2019-08-01T11:40:14.000Z</Time>
            <Position>
              <LatitudeDegrees>40.7320366613566875457763671875</LatitudeDegrees>
              <LongitudeDegrees>-4.02074589394032955169677734375</LongitudeDegrees>
            </Position>
            <AltitudeMeters>1243.800048828125</AltitudeMeters>
            <DistanceMeters>NAN</DistanceMeters>
          </Trackpoint>
          <Trackpoint>
            <Time>2019-08-01T11:40:15.000Z</Time>
            <Position>
              <LatitudeDegrees>40.73207102715969085693359375</LatitudeDegrees>
              <LongitudeDegrees>-4.02073097415268421173095703125</LongitudeDegrees>
            </Position>
            <AltitudeMeters>1244</AltitudeMeters>
            <DistanceMeters>NAN</DistanceMeters>
          </Trackpoint>
          <Trackpoint>
            <Time>2019-08-01T11:40:16.000Z</Time>
            <Position>
              <LatitudeDegrees>40.732111595571041107177734375</LatitudeDegrees>
              <LongitudeDegrees>-4.02071638964116573333740234375</LongitudeDegrees>
            </Position>
            <AltitudeMeters>1244</AltitudeMeters>
            <DistanceMeters>NAN</DistanceMeters>
          </Trackpoint>
          <Trackpoint>
            <Time>2019-08-01T11:40:17.000Z</Time>
            <Position>
              <LatitudeDegrees>40.732148475944995880126953125</LatitudeDegrees>
              <LongitudeDegrees>-4.02070297859609127044677734375</LongitudeDegrees>
            </Position>
            <AltitudeMeters>1244.4000244140625</AltitudeMeters>
            <DistanceMeters>NAN</DistanceMeters>
          </Trackpoint>
          <Trackpoint>
            <Time>2019-08-01T11:40:18.000Z</Time>
            <Position>
              <LatitudeDegrees>40.73217672295868396759033203125</LatitudeDegrees>
              <LongitudeDegrees>-4.0206888131797313690185546875</LongitudeDegrees>
            </Position>
            <AltitudeMeters>1244.800048828125</AltitudeMeters>
            <DistanceMeters>NAN</DistanceMeters>
          </Trackpoint>
          <Trackpoint>
            <Time>2019-08-01T11:40:19.000Z</Time>
            <Position>
              <LatitudeDegrees>40.73220723308622837066650390625</LatitudeDegrees>
              <LongitudeDegrees>-4.0206747315824031829833984375</LongitudeDegrees>
            </Position>
            <AltitudeMeters>1245.199951171875</AltitudeMeters>
            <DistanceMeters>NAN</DistanceMeters>
          </Trackpoint>
          <Trackpoint>
            <Time>2019-08-01T11:40:20.000Z</Time>
            <Position>
              <LatitudeDegrees>40.73223187588155269622802734375</LatitudeDegrees>
              <LongitudeDegrees>-4.02066157199442386627197265625</LongitudeDegrees>
            </Position>
            <AltitudeMeters>1245.4000244140625</AltitudeMeters>
            <DistanceMeters>NAN</DistanceMeters>
          </Trackpoint>
          <Trackpoint>
            <Time>2019-08-01T11:40:21.000Z</Time>
            <Position>
              <LatitudeDegrees>40.73225618340075016021728515625</LatitudeDegrees>
              <LongitudeDegrees>-4.02064899913966655731201171875</LongitudeDegrees>
            </Position>
            <AltitudeMeters>1245.5999755859375</AltitudeMeters>
            <DistanceMeters>NAN</DistanceMeters>
          </Trackpoint>
          <Trackpoint>
            <Time>2019-08-01T11:40:22.000Z</Time>
            <Position>
              <LatitudeDegrees>40.73228199966251850128173828125</LatitudeDegrees>
              <LongitudeDegrees>-4.02063525281846523284912109375</LongitudeDegrees>
            </Position>
            <AltitudeMeters>1246</AltitudeMeters>
            <DistanceMeters>NAN</DistanceMeters>
          </Trackpoint>
          <Trackpoint>
            <Time>2019-08-01T11:40:23.000Z</Time>
            <Position>
              <LatitudeDegrees>40.73230949230492115020751953125</LatitudeDegrees>
              <LongitudeDegrees>-4.02062033303081989288330078125</LongitudeDegrees>
            </Position>
            <AltitudeMeters>1246</AltitudeMeters>
            <DistanceMeters>NAN</DistanceMeters>
          </Trackpoint>
          <Trackpoint>
            <Time>2019-08-01T11:40:24.000Z</Time>
            <Position>
              <LatitudeDegrees>40.73234251700341701507568359375</LatitudeDegrees>
              <LongitudeDegrees>-4.02060507796704769134521484375</LongitudeDegrees>
            </Position>
            <AltitudeMeters>1246.4000244140625</AltitudeMeters>
            <DistanceMeters>NAN</DistanceMeters>
          </Trackpoint>
          <Trackpoint>
            <Time>2019-08-01T11:40:25.000Z</Time>
            <Position>
              <LatitudeDegrees>40.732377469539642333984375</LatitudeDegrees>
              <LongitudeDegrees>-4.02059175074100494384765625</LongitudeDegrees>
            </Position>
            <AltitudeMeters>1246.800048828125</AltitudeMeters>
            <DistanceMeters>NAN</DistanceMeters>
          </Trackpoint>
          <Trackpoint>
            <Time>2019-08-01T11:40:26.000Z</Time>
            <Position>
              <LatitudeDegrees>40.73240898549556732177734375</LatitudeDegrees>
              <LongitudeDegrees>-4.02058043517172336578369140625</LongitudeDegrees>
            </Position>
            <AltitudeMeters>1247.199951171875</AltitudeMeters>
            <DistanceMeters>NAN</DistanceMeters>
          </Trackpoint>
          <Trackpoint>
            <Time>2019-08-01T11:40:27.000Z</Time>
            <Position>
              <LatitudeDegrees>40.7324396632611751556396484375</LatitudeDegrees>
              <LongitudeDegrees>-4.020567275583744049072265625</LongitudeDegrees>
            </Position>
            <AltitudeMeters>1247.4000244140625</AltitudeMeters>
            <DistanceMeters>NAN</DistanceMeters>
          </Trackpoint>
          <Trackpoint>
            <Time>2019-08-01T11:40:28.000Z</Time>
            <Position>
              <LatitudeDegrees>40.73247243650257587432861328125</LatitudeDegrees>
              <LongitudeDegrees>-4.02055361308157444000244140625</LongitudeDegrees>
            </Position>
            <AltitudeMeters>1247.5999755859375</AltitudeMeters>
            <DistanceMeters>NAN</DistanceMeters>
          </Trackpoint>
          <Trackpoint>
            <Time>2019-08-01T11:40:29.000Z</Time>
            <Position>
              <LatitudeDegrees>40.73250412009656429290771484375</LatitudeDegrees>
              <LongitudeDegrees>-4.02053986676037311553955078125</LongitudeDegrees>
            </Position>
            <AltitudeMeters>1248</AltitudeMeters>
            <DistanceMeters>NAN</DistanceMeters>
          </Trackpoint>
          <Trackpoint>
            <Time>2019-08-01T11:40:30.000Z</Time>
            <Position>
              <LatitudeDegrees>40.73253848589956760406494140625</LatitudeDegrees>
              <LongitudeDegrees>-4.02052528224885463714599609375</LongitudeDegrees>
            </Position>
            <AltitudeMeters>1248.4000244140625</AltitudeMeters>
            <DistanceMeters>NAN</DistanceMeters>
          </Trackpoint>
          <Trackpoint>
            <Time>2019-08-01T11:40:31.000Z</Time>
            <Position>
              <LatitudeDegrees>40.7325764559209346771240234375</LatitudeDegrees>
              <LongitudeDegrees>-4.02051069773733615875244140625</LongitudeDegrees>
            </Position>
            <AltitudeMeters>1248.5999755859375</AltitudeMeters>
            <DistanceMeters>NAN</DistanceMeters>
          </Trackpoint>
          <Trackpoint>
            <Time>2019-08-01T11:40:32.000Z</Time>
            <Position>
              <LatitudeDegrees>40.732611827552318572998046875</LatitudeDegrees>
              <LongitudeDegrees>-4.0204970352351665496826171875</LongitudeDegrees>
            </Position>
            <AltitudeMeters>1248.800048828125</AltitudeMeters>
            <DistanceMeters>NAN</DistanceMeters>
          </Trackpoint>
          <Trackpoint>
            <Time>2019-08-01T11:40:33.000Z</Time>
            <Position>
              <LatitudeDegrees>40.7326458580791950225830078125</LatitudeDegrees>
              <LongitudeDegrees>-4.0204836241900920867919921875</LongitudeDegrees>
            </Position>
            <AltitudeMeters>1249</AltitudeMeters>
            <DistanceMeters>NAN</DistanceMeters>
          </Trackpoint>
          <Trackpoint>
            <Time>2019-08-01T11:40:34.000Z</Time>
            <Position>
              <LatitudeDegrees>40.7326792180538177490234375</LatitudeDegrees>
              <LongitudeDegrees>-4.020468704402446746826171875</LongitudeDegrees>
            </Position>
            <AltitudeMeters>1249.199951171875</AltitudeMeters>
            <DistanceMeters>NAN</DistanceMeters>
          </Trackpoint>
          <Trackpoint>
            <Time>2019-08-01T11:40:35.000Z</Time>
            <Position>
              <LatitudeDegrees>40.73270796798169612884521484375</LatitudeDegrees>
              <LongitudeDegrees>-4.020455293357372283935546875</LongitudeDegrees>
            </Position>
            <AltitudeMeters>1249.4000244140625</AltitudeMeters>
            <DistanceMeters>NAN</DistanceMeters>
          </Trackpoint>
          <Trackpoint>
            <Time>2019-08-01T11:40:36.000Z</Time>
            <Position>
              <LatitudeDegrees>40.73273294605314731597900390625</LatitudeDegrees>
              <LongitudeDegrees>-4.020441882312297821044921875</LongitudeDegrees>
            </Position>
            <AltitudeMeters>1249.5999755859375</AltitudeMeters>
            <DistanceMeters>NAN</DistanceMeters>
          </Trackpoint>
          <Trackpoint>
            <Time>2019-08-01T11:40:37.000Z</Time>
            <Position>
              <LatitudeDegrees>40.7327628694474697113037109375</LatitudeDegrees>
              <LongitudeDegrees>-4.02042889036238193511962890625</LongitudeDegrees>
            </Position>
            <AltitudeMeters>1249.800048828125</AltitudeMeters>
            <DistanceMeters>NAN</DistanceMeters>
          </Trackpoint>
          <Trackpoint>
            <Time>2019-08-01T11:40:38.000Z</Time>
            <Position>
              <LatitudeDegrees>40.73279312811791896820068359375</LatitudeDegrees>
              <LongitudeDegrees>-4.0204152278602123260498046875</LongitudeDegrees>
            </Position>
            <AltitudeMeters>1249.800048828125</AltitudeMeters>
            <DistanceMeters>NAN</DistanceMeters>
          </Trackpoint>
          <Trackpoint>
            <Time>2019-08-01T11:40:39.000Z</Time>
            <Position>
              <LatitudeDegrees>40.73282095603644847869873046875</LatitudeDegrees>
              <LongitudeDegrees>-4.0204008109867572784423828125</LongitudeDegrees>
            </Position>
            <AltitudeMeters>1250.199951171875</AltitudeMeters>
            <DistanceMeters>NAN</DistanceMeters>
          </Trackpoint>
          <Trackpoint>
            <Time>2019-08-01T11:40:40.000Z</Time>
            <Position>
              <LatitudeDegrees>40.73284811340272426605224609375</LatitudeDegrees>
              <LongitudeDegrees>-4.02038664557039737701416015625</LongitudeDegrees>
            </Position>
            <AltitudeMeters>1250.199951171875</AltitudeMeters>
            <DistanceMeters>NAN</DistanceMeters>
          </Trackpoint>
          <Trackpoint>
            <Time>2019-08-01T11:40:41.000Z</Time>
            <Position>
              <LatitudeDegrees>40.73287543840706348419189453125</LatitudeDegrees>
              <LongitudeDegrees>-4.020374827086925506591796875</LongitudeDegrees>
            </Position>
            <AltitudeMeters>1250.4000244140625</AltitudeMeters>
            <DistanceMeters>NAN</DistanceMeters>
          </Trackpoint>
          <Trackpoint>
            <Time>2019-08-01T11:40:42.000Z</Time>
            <Position>
              <LatitudeDegrees>40.73290561325848102569580078125</LatitudeDegrees>
              <LongitudeDegrees>-4.0203617513179779052734375</LongitudeDegrees>
            </Position>
            <AltitudeMeters>1250.5999755859375</AltitudeMeters>
            <DistanceMeters>NAN</DistanceMeters>
          </Trackpoint>
          <Trackpoint>
            <Time>2019-08-01T11:40:43.000Z</Time>
            <Position>
              <LatitudeDegrees>40.73293394409120082855224609375</LatitudeDegrees>
              <LongitudeDegrees>-4.020348004996776580810546875</LongitudeDegrees>
            </Position>
            <AltitudeMeters>1250.800048828125</AltitudeMeters>
            <DistanceMeters>NAN</DistanceMeters>
          </Trackpoint>
          <Trackpoint>
            <Time>2019-08-01T11:40:44.000Z</Time>
            <Position>
              <LatitudeDegrees>40.73296629823744297027587890625</LatitudeDegrees>
              <LongitudeDegrees>-4.0203357674181461334228515625</LongitudeDegrees>
            </Position>
            <AltitudeMeters>1251.199951171875</AltitudeMeters>
            <DistanceMeters>NAN</DistanceMeters>
          </Trackpoint>
          <Trackpoint>
            <Time>2019-08-01T11:40:45.000Z</Time>
            <Position>
              <LatitudeDegrees>40.73299680836498737335205078125</LatitudeDegrees>
              <LongitudeDegrees>-4.0203242003917694091796875</LongitudeDegrees>
            </Position>
            <AltitudeMeters>1251.4000244140625</AltitudeMeters>
            <DistanceMeters>NAN</DistanceMeters>
          </Trackpoint>
          <Trackpoint>
            <Time>2019-08-01T11:40:46.000Z</Time>
            <Position>
              <LatitudeDegrees>40.73303402401506900787353515625</LatitudeDegrees>
              <LongitudeDegrees>-4.02031280100345611572265625</LongitudeDegrees>
            </Position>
            <AltitudeMeters>1251.5999755859375</AltitudeMeters>
            <DistanceMeters>NAN</DistanceMeters>
          </Trackpoint>
          <Trackpoint>
            <Time>2019-08-01T11:40:47.000Z</Time>
            <Position>
              <LatitudeDegrees>40.7330667972564697265625</LatitudeDegrees>
              <LongitudeDegrees>-4.02030349709093570709228515625</LongitudeDegrees>
            </Position>
            <AltitudeMeters>1251.800048828125</AltitudeMeters>
            <DistanceMeters>NAN</DistanceMeters>
          </Trackpoint>
          <Trackpoint>
            <Time>2019-08-01T11:40:48.000Z</Time>
            <Position>
              <LatitudeDegrees>40.73310242034494876861572265625</LatitudeDegrees>
              <LongitudeDegrees>-4.020296372473239898681640625</LongitudeDegrees>
            </Position>
            <AltitudeMeters>1252.199951171875</AltitudeMeters>
            <DistanceMeters>NAN</DistanceMeters>
          </Trackpoint>
          <Trackpoint>
            <Time>2019-08-01T11:40:49.000Z</Time>
            <Position>
              <LatitudeDegrees>40.73313728906214237213134765625</LatitudeDegrees>
              <LongitudeDegrees>-4.02029092423617839813232421875</LongitudeDegrees>
            </Position>
            <AltitudeMeters>1252.4000244140625</AltitudeMeters>
            <DistanceMeters>NAN</DistanceMeters>
          </Trackpoint>
          <Trackpoint>
            <Time>2019-08-01T11:40:50.000Z</Time>
            <Position>
              <LatitudeDegrees>40.73317316360771656036376953125</LatitudeDegrees>
              <LongitudeDegrees>-4.02028740383684635162353515625</LongitudeDegrees>
            </Position>
            <AltitudeMeters>1252.800048828125</AltitudeMeters>
            <DistanceMeters>NAN</DistanceMeters>
          </Trackpoint>
          <Trackpoint>
            <Time>2019-08-01T11:40:51.000Z</Time>
            <Position>
              <LatitudeDegrees>40.733207948505878448486328125</LatitudeDegrees>
              <LongitudeDegrees>-4.02028732001781463623046875</LongitudeDegrees>
            </Position>
            <AltitudeMeters>1253</AltitudeMeters>
            <DistanceMeters>NAN</DistanceMeters>
          </Trackpoint>
          <Trackpoint>
            <Time>2019-08-01T11:40:52.000Z</Time>
            <Position>
              <LatitudeDegrees>40.7332426495850086212158203125</LatitudeDegrees>
              <LongitudeDegrees>-4.0202905051410198211669921875</LongitudeDegrees>
            </Position>
            <AltitudeMeters>1253.199951171875</AltitudeMeters>
            <DistanceMeters>NAN</DistanceMeters>
          </Trackpoint>
          <Trackpoint>
            <Time>2019-08-01T11:40:53.000Z</Time>
            <Position>
              <LatitudeDegrees>40.7332773506641387939453125</LatitudeDegrees>
              <LongitudeDegrees>-4.02029511518776416778564453125</LongitudeDegrees>
            </Position>
            <AltitudeMeters>1253.4000244140625</AltitudeMeters>
            <DistanceMeters>NAN</DistanceMeters>
          </Trackpoint>
          <Trackpoint>
            <Time>2019-08-01T11:40:55.000Z</Time>
            <Position>
              <LatitudeDegrees>40.73334909975528717041015625</LatitudeDegrees>
              <LongitudeDegrees>-4.0203107893466949462890625</LongitudeDegrees>
            </Position>
            <AltitudeMeters>1253.800048828125</AltitudeMeters>
            <DistanceMeters>NAN</DistanceMeters>
          </Trackpoint>
          <Trackpoint>
            <Time>2019-08-01T11:40:56.000Z</Time>
            <Position>
              <LatitudeDegrees>40.73338321410119533538818359375</LatitudeDegrees>
              <LongitudeDegrees>-4.0203216858208179473876953125</LongitudeDegrees>
            </Position>
            <AltitudeMeters>1254.4000244140625</AltitudeMeters>
            <DistanceMeters>NAN</DistanceMeters>
          </Trackpoint>
          <Trackpoint>
            <Time>2019-08-01T11:40:57.000Z</Time>
            <Position>
              <LatitudeDegrees>40.73341523297131061553955078125</LatitudeDegrees>
              <LongitudeDegrees>-4.02033702470362186431884765625</LongitudeDegrees>
            </Position>
            <AltitudeMeters>1254.800048828125</AltitudeMeters>
            <DistanceMeters>NAN</DistanceMeters>
          </Trackpoint>
          <Trackpoint>
            <Time>2019-08-01T11:40:58.000Z</Time>
            <Position>
              <LatitudeDegrees>40.73344767093658447265625</LatitudeDegrees>
              <LongitudeDegrees>-4.0203538723289966583251953125</LongitudeDegrees>
            </Position>
            <AltitudeMeters>1255</AltitudeMeters>
            <DistanceMeters>NAN</DistanceMeters>
          </Trackpoint>
          <Trackpoint>
            <Time>2019-08-01T11:41:00.000Z</Time>
            <Position>
              <LatitudeDegrees>40.7335125468671321868896484375</LatitudeDegrees>
              <LongitudeDegrees>-4.02038999833166599273681640625</LongitudeDegrees>
            </Position>
            <AltitudeMeters>1255.4000244140625</AltitudeMeters>
            <DistanceMeters>NAN</DistanceMeters>
          </Trackpoint>
          <Trackpoint>
            <Time>2019-08-01T11:41:01.000Z</Time>
            <Position>
              <LatitudeDegrees>40.73354297317564487457275390625</LatitudeDegrees>
              <LongitudeDegrees>-4.02041195891797542572021484375</LongitudeDegrees>
            </Position>
            <AltitudeMeters>1255.5999755859375</AltitudeMeters>
            <DistanceMeters>NAN</DistanceMeters>
          </Trackpoint>
          <Trackpoint>
            <Time>2019-08-01T11:41:02.000Z</Time>
            <Position>
              <LatitudeDegrees>40.7335718907415866851806640625</LatitudeDegrees>
              <LongitudeDegrees>-4.0204368531703948974609375</LongitudeDegrees>
            </Position>
            <AltitudeMeters>1256</AltitudeMeters>
            <DistanceMeters>NAN</DistanceMeters>
          </Trackpoint>
          <Trackpoint>
            <Time>2019-08-01T11:41:03.000Z</Time>
            <Position>
              <LatitudeDegrees>40.7335997186601161956787109375</LatitudeDegrees>
              <LongitudeDegrees>-4.02046241797506809234619140625</LongitudeDegrees>
            </Position>
            <AltitudeMeters>1256.199951171875</AltitudeMeters>
            <DistanceMeters>NAN</DistanceMeters>
          </Trackpoint>
          <Trackpoint>
            <Time>2019-08-01T11:41:04.000Z</Time>
            <Position>
              <LatitudeDegrees>40.7335997186601161956787109375</LatitudeDegrees>
              <LongitudeDegrees>-4.02046241797506809234619140625</LongitudeDegrees>
            </Position>
            <AltitudeMeters>1256.5999755859375</AltitudeMeters>
            <DistanceMeters>NAN</DistanceMeters>
          </Trackpoint>
          <Trackpoint>
            <Time>2019-08-01T11:41:05.000Z</Time>
            <Position>
              <LatitudeDegrees>40.73365495540201663970947265625</LatitudeDegrees>
              <LongitudeDegrees>-4.02051572687923908233642578125</LongitudeDegrees>
            </Position>
            <AltitudeMeters>1256.800048828125</AltitudeMeters>
            <DistanceMeters>NAN</DistanceMeters>
          </Trackpoint>
          <Trackpoint>
            <Time>2019-08-01T11:41:06.000Z</Time>
            <Position>
              <LatitudeDegrees>40.73367959819734096527099609375</LatitudeDegrees>
              <LongitudeDegrees>-4.020545817911624908447265625</LongitudeDegrees>
            </Position>
            <AltitudeMeters>1257.199951171875</AltitudeMeters>
            <DistanceMeters>NAN</DistanceMeters>
          </Trackpoint>
          <Trackpoint>
            <Time>2019-08-01T11:41:07.000Z</Time>
            <Position>
              <LatitudeDegrees>40.7337039895355701446533203125</LatitudeDegrees>
              <LongitudeDegrees>-4.02057892642915248870849609375</LongitudeDegrees>
            </Position>
            <AltitudeMeters>1257.4000244140625</AltitudeMeters>
            <DistanceMeters>NAN</DistanceMeters>
          </Trackpoint>
          <Trackpoint>
            <Time>2019-08-01T11:41:08.000Z</Time>
            <Position>
              <LatitudeDegrees>40.73372460901737213134765625</LatitudeDegrees>
              <LongitudeDegrees>-4.02061413042247295379638671875</LongitudeDegrees>
            </Position>
            <AltitudeMeters>1257.5999755859375</AltitudeMeters>
            <DistanceMeters>NAN</DistanceMeters>
          </Trackpoint>
          <Trackpoint>
            <Time>2019-08-01T11:41:09.000Z</Time>
            <Position>
              <LatitudeDegrees>40.7337438873946666717529296875</LatitudeDegrees>
              <LongitudeDegrees>-4.02065050788223743438720703125</LongitudeDegrees>
            </Position>
            <AltitudeMeters>1257.5999755859375</AltitudeMeters>
            <DistanceMeters>NAN</DistanceMeters>
          </Trackpoint>
          <Trackpoint>
            <Time>2019-08-01T11:41:10.000Z</Time>
            <Position>
              <LatitudeDegrees>40.73376324959099292755126953125</LatitudeDegrees>
              <LongitudeDegrees>-4.0206862986087799072265625</LongitudeDegrees>
            </Position>
            <AltitudeMeters>1258</AltitudeMeters>
            <DistanceMeters>NAN</DistanceMeters>
          </Trackpoint>
          <Trackpoint>
            <Time>2019-08-01T11:41:11.000Z</Time>
            <Position>
              <LatitudeDegrees>40.73376324959099292755126953125</LatitudeDegrees>
              <LongitudeDegrees>-4.0206862986087799072265625</LongitudeDegrees>
            </Position>
            <AltitudeMeters>1258.199951171875</AltitudeMeters>
            <DistanceMeters>NAN</DistanceMeters>
          </Trackpoint>
          <Trackpoint>
            <Time>2019-08-01T11:41:12.000Z</Time>
            <Position>
              <LatitudeDegrees>40.73379761539399623870849609375</LatitudeDegrees>
              <LongitudeDegrees>-4.02075997553765773773193359375</LongitudeDegrees>
            </Position>
            <AltitudeMeters>1258.5999755859375</AltitudeMeters>
            <DistanceMeters>NAN</DistanceMeters>
          </Trackpoint>
          <Trackpoint>
            <Time>2019-08-01T11:41:13.000Z</Time>
            <Position>
              <LatitudeDegrees>40.733812116086483001708984375</LatitudeDegrees>
              <LongitudeDegrees>-4.02079937048256397247314453125</LongitudeDegrees>
            </Position>
            <AltitudeMeters>1258.800048828125</AltitudeMeters>
            <DistanceMeters>NAN</DistanceMeters>
          </Trackpoint>
          <Trackpoint>
            <Time>2019-08-01T11:41:14.000Z</Time>
            <Position>
              <LatitudeDegrees>40.73382527567446231842041015625</LatitudeDegrees>
              <LongitudeDegrees>-4.02083977125585079193115234375</LongitudeDegrees>
            </Position>
            <AltitudeMeters>1259</AltitudeMeters>
            <DistanceMeters>NAN</DistanceMeters>
          </Trackpoint>
          <Trackpoint>
            <Time>2019-08-01T11:41:15.000Z</Time>
            <Position>
              <LatitudeDegrees>40.73383768089115619659423828125</LatitudeDegrees>
              <LongitudeDegrees>-4.02088050730526447296142578125</LongitudeDegrees>
            </Position>
            <AltitudeMeters>1259</AltitudeMeters>
            <DistanceMeters>NAN</DistanceMeters>
          </Trackpoint>
          <Trackpoint>
            <Time>2019-08-01T11:41:16.000Z</Time>
            <Position>
              <LatitudeDegrees>40.73384933173656463623046875</LatitudeDegrees>
              <LongitudeDegrees>-4.0209214948117733001708984375</LongitudeDegrees>
            </Position>
            <AltitudeMeters>1259.199951171875</AltitudeMeters>
            <DistanceMeters>NAN</DistanceMeters>
          </Trackpoint>
          <Trackpoint>
            <Time>2019-08-01T11:41:17.000Z</Time>
            <Position>
              <LatitudeDegrees>40.73385897092521190643310546875</LatitudeDegrees>
              <LongitudeDegrees>-4.02096315287053585052490234375</LongitudeDegrees>
            </Position>
            <AltitudeMeters>1259.4000244140625</AltitudeMeters>
            <DistanceMeters>NAN</DistanceMeters>
          </Trackpoint>
          <Trackpoint>
            <Time>2019-08-01T11:41:18.000Z</Time>
            <Position>
              <LatitudeDegrees>40.733868777751922607421875</LatitudeDegrees>
              <LongitudeDegrees>-4.02100472711026668548583984375</LongitudeDegrees>
            </Position>
            <AltitudeMeters>1259.5999755859375</AltitudeMeters>
            <DistanceMeters>NAN</DistanceMeters>
          </Trackpoint>
          <Trackpoint>
            <Time>2019-08-01T11:41:19.000Z</Time>
            <Position>
              <LatitudeDegrees>40.73387883603572845458984375</LatitudeDegrees>
              <LongitudeDegrees>-4.02104563079774379730224609375</LongitudeDegrees>
            </Position>
            <AltitudeMeters>1260</AltitudeMeters>
            <DistanceMeters>NAN</DistanceMeters>
          </Trackpoint>
          <Trackpoint>
            <Time>2019-08-01T11:41:20.000Z</Time>
            <Position>
              <LatitudeDegrees>40.7338880561292171478271484375</LatitudeDegrees>
              <LongitudeDegrees>-4.02108636684715747833251953125</LongitudeDegrees>
            </Position>
            <AltitudeMeters>1260.199951171875</AltitudeMeters>
            <DistanceMeters>NAN</DistanceMeters>
          </Trackpoint>
          <Trackpoint>
            <Time>2019-08-01T11:41:21.000Z</Time>
            <Position>
              <LatitudeDegrees>40.7338964380323886871337890625</LatitudeDegrees>
              <LongitudeDegrees>-4.021127521991729736328125</LongitudeDegrees>
            </Position>
            <AltitudeMeters>1260.199951171875</AltitudeMeters>
            <DistanceMeters>NAN</DistanceMeters>
          </Trackpoint>
          <Trackpoint>
            <Time>2019-08-01T11:41:22.000Z</Time>
            <Position>
              <LatitudeDegrees>40.733904652297496795654296875</LatitudeDegrees>
              <LongitudeDegrees>-4.0211690962314605712890625</LongitudeDegrees>
            </Position>
            <AltitudeMeters>1260.4000244140625</AltitudeMeters>
            <DistanceMeters>NAN</DistanceMeters>
          </Trackpoint>
          <Trackpoint>
            <Time>2019-08-01T11:41:23.000Z</Time>
            <Position>
              <LatitudeDegrees>40.733904652297496795654296875</LatitudeDegrees>
              <LongitudeDegrees>-4.0211690962314605712890625</LongitudeDegrees>
            </Position>
            <AltitudeMeters>1260.5999755859375</AltitudeMeters>
            <DistanceMeters>NAN</DistanceMeters>
          </Trackpoint>
          <Trackpoint>
            <Time>2019-08-01T11:41:24.000Z</Time>
            <Position>
              <LatitudeDegrees>40.7339215837419033050537109375</LatitudeDegrees>
              <LongitudeDegrees>-4.0212514065206050872802734375</LongitudeDegrees>
            </Position>
            <AltitudeMeters>1261</AltitudeMeters>
            <DistanceMeters>NAN</DistanceMeters>
          </Trackpoint>
          <Trackpoint>
            <Time>2019-08-01T11:41:25.000Z</Time>
            <Position>
              <LatitudeDegrees>40.7339215837419033050537109375</LatitudeDegrees>
              <LongitudeDegrees>-4.0212514065206050872802734375</LongitudeDegrees>
            </Position>
            <AltitudeMeters>1261</AltitudeMeters>
            <DistanceMeters>NAN</DistanceMeters>
          </Trackpoint>
          <Trackpoint>
            <Time>2019-08-01T11:41:26.000Z</Time>
            <Position>
              <LatitudeDegrees>40.7339403592050075531005859375</LatitudeDegrees>
              <LongitudeDegrees>-4.02133212424814701080322265625</LongitudeDegrees>
            </Position>
            <AltitudeMeters>1261.199951171875</AltitudeMeters>
            <DistanceMeters>NAN</DistanceMeters>
          </Trackpoint>
          <Trackpoint>
            <Time>2019-08-01T11:41:27.000Z</Time>
            <Position>
              <LatitudeDegrees>40.73395150713622570037841796875</LatitudeDegrees>
              <LongitudeDegrees>-4.02137168683111667633056640625</LongitudeDegrees>
            </Position>
            <AltitudeMeters>1261.5999755859375</AltitudeMeters>
            <DistanceMeters>NAN</DistanceMeters>
          </Trackpoint>
          <Trackpoint>
            <Time>2019-08-01T11:41:28.000Z</Time>
            <Position>
              <LatitudeDegrees>40.7339638285338878631591796875</LatitudeDegrees>
              <LongitudeDegrees>-4.021410830318927764892578125</LongitudeDegrees>
            </Position>
            <AltitudeMeters>1261.800048828125</AltitudeMeters>
            <DistanceMeters>NAN</DistanceMeters>
          </Trackpoint>
          <Trackpoint>
            <Time>2019-08-01T11:41:29.000Z</Time>
            <Position>
              <LatitudeDegrees>40.7339772395789623260498046875</LatitudeDegrees>
              <LongitudeDegrees>-4.021448381245136260986328125</LongitudeDegrees>
            </Position>
            <AltitudeMeters>1262.199951171875</AltitudeMeters>
            <DistanceMeters>NAN</DistanceMeters>
          </Trackpoint>
          <Trackpoint>
            <Time>2019-08-01T11:41:30.000Z</Time>
            <Position>
              <LatitudeDegrees>40.73399014770984649658203125</LatitudeDegrees>
              <LongitudeDegrees>-4.02148551307618618011474609375</LongitudeDegrees>
            </Position>
            <AltitudeMeters>1262.4000244140625</AltitudeMeters>
            <DistanceMeters>NAN</DistanceMeters>
          </Trackpoint>
          <Trackpoint>
            <Time>2019-08-01T11:41:31.000Z</Time>
            <Position>
              <LatitudeDegrees>40.734003894031047821044921875</LatitudeDegrees>
              <LongitudeDegrees>-4.02151987887918949127197265625</LongitudeDegrees>
            </Position>
            <AltitudeMeters>1262.5999755859375</AltitudeMeters>
            <DistanceMeters>NAN</DistanceMeters>
          </Trackpoint>
          <Trackpoint>
            <Time>2019-08-01T11:41:32.000Z</Time>
            <Position>
              <LatitudeDegrees>40.73402157984673976898193359375</LatitudeDegrees>
              <LongitudeDegrees>-4.021550975739955902099609375</LongitudeDegrees>
            </Position>
            <AltitudeMeters>1263</AltitudeMeters>
            <DistanceMeters>NAN</DistanceMeters>
          </Trackpoint>
          <Trackpoint>
            <Time>2019-08-01T11:41:33.000Z</Time>
            <Position>
              <LatitudeDegrees>40.7340409420430660247802734375</LatitudeDegrees>
              <LongitudeDegrees>-4.0215806476771831512451171875</LongitudeDegrees>
            </Position>
            <AltitudeMeters>1263.199951171875</AltitudeMeters>
            <DistanceMeters>NAN</DistanceMeters>
          </Trackpoint>
          <Trackpoint>
            <Time>2019-08-01T11:41:34.000Z</Time>
            <Position>
              <LatitudeDegrees>40.7340603880584239959716796875</LatitudeDegrees>
              <LongitudeDegrees>-4.02161023579537868499755859375</LongitudeDegrees>
            </Position>
            <AltitudeMeters>1263.5999755859375</AltitudeMeters>
            <DistanceMeters>NAN</DistanceMeters>
          </Trackpoint>
          <Trackpoint>
            <Time>2019-08-01T11:41:35.000Z</Time>
            <Position>
              <LatitudeDegrees>40.73408008553087711334228515625</LatitudeDegrees>
              <LongitudeDegrees>-4.02163873426616191864013671875</LongitudeDegrees>
            </Position>
            <AltitudeMeters>1263.800048828125</AltitudeMeters>
            <DistanceMeters>NAN</DistanceMeters>
          </Trackpoint>
          <Trackpoint>
            <Time>2019-08-01T11:41:36.000Z</Time>
            <Position>
              <LatitudeDegrees>40.7341029681265354156494140625</LatitudeDegrees>
              <LongitudeDegrees>-4.02166589163243770599365234375</LongitudeDegrees>
            </Position>
            <AltitudeMeters>1264</AltitudeMeters>
            <DistanceMeters>NAN</DistanceMeters>
          </Trackpoint>
          <Trackpoint>
            <Time>2019-08-01T11:41:37.000Z</Time>
            <Position>
              <LatitudeDegrees>40.734128616750240325927734375</LatitudeDegrees>
              <LongitudeDegrees>-4.02169154025614261627197265625</LongitudeDegrees>
            </Position>
            <AltitudeMeters>1264.199951171875</AltitudeMeters>
            <DistanceMeters>NAN</DistanceMeters>
          </Trackpoint>
          <Trackpoint>
            <Time>2019-08-01T11:41:38.000Z</Time>
            <Position>
              <LatitudeDegrees>40.73415108025074005126953125</LatitudeDegrees>
              <LongitudeDegrees>-4.02171970345079898834228515625</LongitudeDegrees>
            </Position>
            <AltitudeMeters>1264.4000244140625</AltitudeMeters>
            <DistanceMeters>NAN</DistanceMeters>
          </Trackpoint>
          <Trackpoint>
            <Time>2019-08-01T11:41:39.000Z</Time>
            <Position>
              <LatitudeDegrees>40.7341723702847957611083984375</LatitudeDegrees>
              <LongitudeDegrees>-4.02174283750355243682861328125</LongitudeDegrees>
            </Position>
            <AltitudeMeters>1264.4000244140625</AltitudeMeters>
            <DistanceMeters>NAN</DistanceMeters>
          </Trackpoint>
          <Trackpoint>
            <Time>2019-08-01T11:41:40.000Z</Time>
            <Position>
              <LatitudeDegrees>40.73419491760432720184326171875</LatitudeDegrees>
              <LongitudeDegrees>-4.0217606909573078155517578125</LongitudeDegrees>
            </Position>
            <AltitudeMeters>1264.800048828125</AltitudeMeters>
            <DistanceMeters>NAN</DistanceMeters>
          </Trackpoint>
          <Trackpoint>
            <Time>2019-08-01T11:41:41.000Z</Time>
            <Position>
              <LatitudeDegrees>40.73421939276158809661865234375</LatitudeDegrees>
              <LongitudeDegrees>-4.02177770622074604034423828125</LongitudeDegrees>
            </Position>
            <AltitudeMeters>1265</AltitudeMeters>
            <DistanceMeters>NAN</DistanceMeters>
          </Trackpoint>
          <Trackpoint>
            <Time>2019-08-01T11:41:42.000Z</Time>
            <Position>
              <LatitudeDegrees>40.73421939276158809661865234375</LatitudeDegrees>
              <LongitudeDegrees>-4.02177770622074604034423828125</LongitudeDegrees>
            </Position>
            <AltitudeMeters>1265.199951171875</AltitudeMeters>
            <DistanceMeters>NAN</DistanceMeters>
          </Trackpoint>
          <Trackpoint>
            <Time>2019-08-01T11:41:43.000Z</Time>
            <Position>
              <LatitudeDegrees>40.7342739589512348175048828125</LatitudeDegrees>
              <LongitudeDegrees>-4.02181240729987621307373046875</LongitudeDegrees>
            </Position>
            <AltitudeMeters>1265.5999755859375</AltitudeMeters>
            <DistanceMeters>NAN</DistanceMeters>
          </Trackpoint>
          <Trackpoint>
            <Time>2019-08-01T11:41:44.000Z</Time>
            <Position>
              <LatitudeDegrees>40.734303630888462066650390625</LatitudeDegrees>
              <LongitudeDegrees>-4.02183151803910732269287109375</LongitudeDegrees>
            </Position>
            <AltitudeMeters>1266</AltitudeMeters>
            <DistanceMeters>NAN</DistanceMeters>
          </Trackpoint>
          <Trackpoint>
            <Time>2019-08-01T11:41:45.000Z</Time>
            <Position>
              <LatitudeDegrees>40.7343333028256893157958984375</LatitudeDegrees>
              <LongitudeDegrees>-4.02184945531189441680908203125</LongitudeDegrees>
            </Position>
            <AltitudeMeters>1266.4000244140625</AltitudeMeters>
            <DistanceMeters>NAN</DistanceMeters>
          </Trackpoint>
          <Trackpoint>
            <Time>2019-08-01T11:41:46.000Z</Time>
            <Position>
              <LatitudeDegrees>40.73436389677226543426513671875</LatitudeDegrees>
              <LongitudeDegrees>-4.02186554856598377227783203125</LongitudeDegrees>
            </Position>
            <AltitudeMeters>1266.5999755859375</AltitudeMeters>
            <DistanceMeters>NAN</DistanceMeters>
          </Trackpoint>
          <Trackpoint>
            <Time>2019-08-01T11:41:47.000Z</Time>
            <Position>
              <LatitudeDegrees>40.7343936525285243988037109375</LatitudeDegrees>
              <LongitudeDegrees>-4.02188147418200969696044921875</LongitudeDegrees>
            </Position>
            <AltitudeMeters>1266.800048828125</AltitudeMeters>
            <DistanceMeters>NAN</DistanceMeters>
          </Trackpoint>
          <Trackpoint>
            <Time>2019-08-01T11:41:48.000Z</Time>
            <Position>
              <LatitudeDegrees>40.73442273773252964019775390625</LatitudeDegrees>
              <LongitudeDegrees>-4.0218971483409404754638671875</LongitudeDegrees>
            </Position>
            <AltitudeMeters>1267.199951171875</AltitudeMeters>
            <DistanceMeters>NAN</DistanceMeters>
          </Trackpoint>
          <Trackpoint>
            <Time>2019-08-01T11:41:49.000Z</Time>
            <Position>
              <LatitudeDegrees>40.734453834593296051025390625</LatitudeDegrees>
              <LongitudeDegrees>-4.02191097848117351531982421875</LongitudeDegrees>
            </Position>
            <AltitudeMeters>1267.4000244140625</AltitudeMeters>
            <DistanceMeters>NAN</DistanceMeters>
          </Trackpoint>
          <Trackpoint>
            <Time>2019-08-01T11:41:50.000Z</Time>
            <Position>
              <LatitudeDegrees>40.7344851829111576080322265625</LatitudeDegrees>
              <LongitudeDegrees>-4.02192472480237483978271484375</LongitudeDegrees>
            </Position>
            <AltitudeMeters>1267.800048828125</AltitudeMeters>
            <DistanceMeters>NAN</DistanceMeters>
          </Trackpoint>
          <Trackpoint>
            <Time>2019-08-01T11:41:51.000Z</Time>
            <Position>
              <LatitudeDegrees>40.73451644740998744964599609375</LatitudeDegrees>
              <LongitudeDegrees>-4.0219390578567981719970703125</LongitudeDegrees>
            </Position>
            <AltitudeMeters>1268</AltitudeMeters>
            <DistanceMeters>NAN</DistanceMeters>
          </Trackpoint>
          <Trackpoint>
            <Time>2019-08-01T11:41:52.000Z</Time>
            <Position>
              <LatitudeDegrees>40.73454804718494415283203125</LatitudeDegrees>
              <LongitudeDegrees>-4.02195489965379238128662109375</LongitudeDegrees>
            </Position>
            <AltitudeMeters>1268.5999755859375</AltitudeMeters>
            <DistanceMeters>NAN</DistanceMeters>
          </Trackpoint>
          <Trackpoint>
            <Time>2019-08-01T11:41:53.000Z</Time>
            <Position>
              <LatitudeDegrees>40.7345777191221714019775390625</LatitudeDegrees>
              <LongitudeDegrees>-4.021971412003040313720703125</LongitudeDegrees>
            </Position>
            <AltitudeMeters>1268.800048828125</AltitudeMeters>
            <DistanceMeters>NAN</DistanceMeters>
          </Trackpoint>
          <Trackpoint>
            <Time>2019-08-01T11:41:54.000Z</Time>
            <Position>
              <LatitudeDegrees>40.73460764251649379730224609375</LatitudeDegrees>
              <LongitudeDegrees>-4.02198624797165393829345703125</LongitudeDegrees>
            </Position>
            <AltitudeMeters>1269</AltitudeMeters>
            <DistanceMeters>NAN</DistanceMeters>
          </Trackpoint>
          <Trackpoint>
            <Time>2019-08-01T11:41:55.000Z</Time>
            <Position>
              <LatitudeDegrees>40.734638236463069915771484375</LatitudeDegrees>
              <LongitudeDegrees>-4.021998904645442962646484375</LongitudeDegrees>
            </Position>
            <AltitudeMeters>1269.199951171875</AltitudeMeters>
            <DistanceMeters>NAN</DistanceMeters>
          </Trackpoint>
          <Trackpoint>
            <Time>2019-08-01T11:41:56.000Z</Time>
            <Position>
              <LatitudeDegrees>40.7346694171428680419921875</LatitudeDegrees>
              <LongitudeDegrees>-4.02201063930988311767578125</LongitudeDegrees>
            </Position>
            <AltitudeMeters>1269.4000244140625</AltitudeMeters>
            <DistanceMeters>NAN</DistanceMeters>
          </Trackpoint>
          <Trackpoint>
            <Time>2019-08-01T11:41:57.000Z</Time>
            <Position>
              <LatitudeDegrees>40.73470068164169788360595703125</LatitudeDegrees>
              <LongitudeDegrees>-4.02202463708817958831787109375</LongitudeDegrees>
            </Position>
            <AltitudeMeters>1269.800048828125</AltitudeMeters>
            <DistanceMeters>NAN</DistanceMeters>
          </Trackpoint>
          <Trackpoint>
            <Time>2019-08-01T11:41:58.000Z</Time>
            <Position>
              <LatitudeDegrees>40.7347311079502105712890625</LatitudeDegrees>
              <LongitudeDegrees>-4.02203972451388835906982421875</LongitudeDegrees>
            </Position>
            <AltitudeMeters>1270.199951171875</AltitudeMeters>
            <DistanceMeters>NAN</DistanceMeters>
          </Trackpoint>
          <Trackpoint>
            <Time>2019-08-01T11:41:59.000Z</Time>
            <Position>
              <LatitudeDegrees>40.73475918732583522796630859375</LatitudeDegrees>
              <LongitudeDegrees>-4.02205028571188449859619140625</LongitudeDegrees>
            </Position>
            <AltitudeMeters>1270.4000244140625</AltitudeMeters>
            <DistanceMeters>NAN</DistanceMeters>
          </Trackpoint>
          <Trackpoint>
            <Time>2019-08-01T11:42:00.000Z</Time>
            <Position>
              <LatitudeDegrees>40.73478500358760356903076171875</LatitudeDegrees>
              <LongitudeDegrees>-4.0220587514340877532958984375</LongitudeDegrees>
            </Position>
            <AltitudeMeters>1270.800048828125</AltitudeMeters>
            <DistanceMeters>NAN</DistanceMeters>
          </Trackpoint>
          <Trackpoint>
            <Time>2019-08-01T11:42:01.000Z</Time>
            <Position>
              <LatitudeDegrees>40.73481031693518161773681640625</LatitudeDegrees>
              <LongitudeDegrees>-4.02206973172724246978759765625</LongitudeDegrees>
            </Position>
            <AltitudeMeters>1271.199951171875</AltitudeMeters>
            <DistanceMeters>NAN</DistanceMeters>
          </Trackpoint>
          <Trackpoint>
            <Time>2019-08-01T11:42:02.000Z</Time>
            <Position>
              <LatitudeDegrees>40.73483864776790142059326171875</LatitudeDegrees>
              <LongitudeDegrees>-4.02208096347749233245849609375</LongitudeDegrees>
            </Position>
            <AltitudeMeters>1271.4000244140625</AltitudeMeters>
            <DistanceMeters>NAN</DistanceMeters>
          </Trackpoint>
          <Trackpoint>
            <Time>2019-08-01T11:42:03.000Z</Time>
            <Position>
              <LatitudeDegrees>40.73486513458192348480224609375</LatitudeDegrees>
              <LongitudeDegrees>-4.0220939554274082183837890625</LongitudeDegrees>
            </Position>
            <AltitudeMeters>1271.800048828125</AltitudeMeters>
            <DistanceMeters>NAN</DistanceMeters>
          </Trackpoint>
          <Trackpoint>
            <Time>2019-08-01T11:42:04.000Z</Time>
            <Position>
              <LatitudeDegrees>40.7348908670246601104736328125</LatitudeDegrees>
              <LongitudeDegrees>-4.02210527099668979644775390625</LongitudeDegrees>
            </Position>
            <AltitudeMeters>1272</AltitudeMeters>
            <DistanceMeters>NAN</DistanceMeters>
          </Trackpoint>
          <Trackpoint>
            <Time>2019-08-01T11:42:05.000Z</Time>
            <Position>
              <LatitudeDegrees>40.73491592891514301300048828125</LatitudeDegrees>
              <LongitudeDegrees>-4.0221167542040348052978515625</LongitudeDegrees>
            </Position>
            <AltitudeMeters>1272.4000244140625</AltitudeMeters>
            <DistanceMeters>NAN</DistanceMeters>
          </Trackpoint>
          <Trackpoint>
            <Time>2019-08-01T11:42:06.000Z</Time>
            <Position>
              <LatitudeDegrees>40.73494241572916507720947265625</LatitudeDegrees>
              <LongitudeDegrees>-4.022128321230411529541015625</LongitudeDegrees>
            </Position>
            <AltitudeMeters>1272.5999755859375</AltitudeMeters>
            <DistanceMeters>NAN</DistanceMeters>
          </Trackpoint>
          <Trackpoint>
            <Time>2019-08-01T11:42:07.000Z</Time>
            <Position>
              <LatitudeDegrees>40.7349698245525360107421875</LatitudeDegrees>
              <LongitudeDegrees>-4.02214315719902515411376953125</LongitudeDegrees>
            </Position>
            <AltitudeMeters>1272.5999755859375</AltitudeMeters>
            <DistanceMeters>NAN</DistanceMeters>
          </Trackpoint>
          <Trackpoint>
            <Time>2019-08-01T11:42:08.000Z</Time>
            <Position>
              <LatitudeDegrees>40.7349966466426849365234375</LatitudeDegrees>
              <LongitudeDegrees>-4.022159166634082794189453125</LongitudeDegrees>
            </Position>
            <AltitudeMeters>1272.800048828125</AltitudeMeters>
            <DistanceMeters>NAN</DistanceMeters>
          </Trackpoint>
          <Trackpoint>
            <Time>2019-08-01T11:42:09.000Z</Time>
            <Position>
              <LatitudeDegrees>40.73502707295119762420654296875</LatitudeDegrees>
              <LongitudeDegrees>-4.02217366732656955718994140625</LongitudeDegrees>
            </Position>
            <AltitudeMeters>1273</AltitudeMeters>
            <DistanceMeters>NAN</DistanceMeters>
          </Trackpoint>
          <Trackpoint>
            <Time>2019-08-01T11:42:10.000Z</Time>
            <Position>
              <LatitudeDegrees>40.7350608520209789276123046875</LatitudeDegrees>
              <LongitudeDegrees>-4.022187329828739166259765625</LongitudeDegrees>
            </Position>
            <AltitudeMeters>1273.199951171875</AltitudeMeters>
            <DistanceMeters>NAN</DistanceMeters>
          </Trackpoint>
          <Trackpoint>
            <Time>2019-08-01T11:42:11.000Z</Time>
            <Position>
              <LatitudeDegrees>40.735094547271728515625</LatitudeDegrees>
              <LongitudeDegrees>-4.02220166288316249847412109375</LongitudeDegrees>
            </Position>
            <AltitudeMeters>1273.5999755859375</AltitudeMeters>
            <DistanceMeters>NAN</DistanceMeters>
          </Trackpoint>
          <Trackpoint>
            <Time>2019-08-01T11:42:12.000Z</Time>
            <Position>
              <LatitudeDegrees>40.7351272366940975189208984375</LatitudeDegrees>
              <LongitudeDegrees>-4.02221574448049068450927734375</LongitudeDegrees>
            </Position>
            <AltitudeMeters>1273.800048828125</AltitudeMeters>
            <DistanceMeters>NAN</DistanceMeters>
          </Trackpoint>
          <Trackpoint>
            <Time>2019-08-01T11:42:13.000Z</Time>
            <Position>
              <LatitudeDegrees>40.73515950702130794525146484375</LatitudeDegrees>
              <LongitudeDegrees>-4.0222320891916751861572265625</LongitudeDegrees>
            </Position>
            <AltitudeMeters>1274</AltitudeMeters>
            <DistanceMeters>NAN</DistanceMeters>
          </Trackpoint>
          <Trackpoint>
            <Time>2019-08-01T11:42:14.000Z</Time>
            <Position>
              <LatitudeDegrees>40.73519286699593067169189453125</LatitudeDegrees>
              <LongitudeDegrees>-4.0222471766173839569091796875</LongitudeDegrees>
            </Position>
            <AltitudeMeters>1274.4000244140625</AltitudeMeters>
            <DistanceMeters>NAN</DistanceMeters>
          </Trackpoint>
          <Trackpoint>
            <Time>2019-08-01T11:42:15.000Z</Time>
            <Position>
              <LatitudeDegrees>40.73522505350410938262939453125</LatitudeDegrees>
              <LongitudeDegrees>-4.02226335369050502777099609375</LongitudeDegrees>
            </Position>
            <AltitudeMeters>1274.5999755859375</AltitudeMeters>
            <DistanceMeters>NAN</DistanceMeters>
          </Trackpoint>
          <Trackpoint>
            <Time>2019-08-01T11:42:16.000Z</Time>
            <Position>
              <LatitudeDegrees>40.7352566532790660858154296875</LatitudeDegrees>
              <LongitudeDegrees>-4.02227911166846752166748046875</LongitudeDegrees>
            </Position>
            <AltitudeMeters>1274.800048828125</AltitudeMeters>
            <DistanceMeters>NAN</DistanceMeters>
          </Trackpoint>
          <Trackpoint>
            <Time>2019-08-01T11:42:17.000Z</Time>
            <Position>
              <LatitudeDegrees>40.7352890074253082275390625</LatitudeDegrees>
              <LongitudeDegrees>-4.02229436673223972320556640625</LongitudeDegrees>
            </Position>
            <AltitudeMeters>1275</AltitudeMeters>
            <DistanceMeters>NAN</DistanceMeters>
          </Trackpoint>
          <Trackpoint>
            <Time>2019-08-01T11:42:18.000Z</Time>
            <Position>
              <LatitudeDegrees>40.73532052338123321533203125</LatitudeDegrees>
              <LongitudeDegrees>-4.02230693958699703216552734375</LongitudeDegrees>
            </Position>
            <AltitudeMeters>1275.199951171875</AltitudeMeters>
            <DistanceMeters>NAN</DistanceMeters>
          </Trackpoint>
          <Trackpoint>
            <Time>2019-08-01T11:42:19.000Z</Time>
            <Position>
              <LatitudeDegrees>40.73535262607038021087646484375</LatitudeDegrees>
              <LongitudeDegrees>-4.022319428622722625732421875</LongitudeDegrees>
            </Position>
            <AltitudeMeters>1275.4000244140625</AltitudeMeters>
            <DistanceMeters>NAN</DistanceMeters>
          </Trackpoint>
          <Trackpoint>
            <Time>2019-08-01T11:42:20.000Z</Time>
            <Position>
              <LatitudeDegrees>40.7353840582072734832763671875</LatitudeDegrees>
              <LongitudeDegrees>-4.02233191765844821929931640625</LongitudeDegrees>
            </Position>
            <AltitudeMeters>1275.800048828125</AltitudeMeters>
            <DistanceMeters>NAN</DistanceMeters>
          </Trackpoint>
          <Trackpoint>
            <Time>2019-08-01T11:42:21.000Z</Time>
            <Position>
              <LatitudeDegrees>40.73541549034416675567626953125</LatitudeDegrees>
              <LongitudeDegrees>-4.022341556847095489501953125</LongitudeDegrees>
            </Position>
            <AltitudeMeters>1276.199951171875</AltitudeMeters>
            <DistanceMeters>NAN</DistanceMeters>
          </Trackpoint>
          <Trackpoint>
            <Time>2019-08-01T11:42:22.000Z</Time>
            <Position>
              <LatitudeDegrees>40.7354472577571868896484375</LatitudeDegrees>
              <LongitudeDegrees>-4.02234993875026702880859375</LongitudeDegrees>
            </Position>
            <AltitudeMeters>1276.4000244140625</AltitudeMeters>
            <DistanceMeters>NAN</DistanceMeters>
          </Trackpoint>
          <Trackpoint>
            <Time>2019-08-01T11:42:23.000Z</Time>
            <Position>
              <LatitudeDegrees>40.73547852225601673126220703125</LatitudeDegrees>
              <LongitudeDegrees>-4.0223558060824871063232421875</LongitudeDegrees>
            </Position>
            <AltitudeMeters>1276.5999755859375</AltitudeMeters>
            <DistanceMeters>NAN</DistanceMeters>
          </Trackpoint>
          <Trackpoint>
            <Time>2019-08-01T11:42:24.000Z</Time>
            <Position>
              <LatitudeDegrees>40.735510289669036865234375</LatitudeDegrees>
              <LongitudeDegrees>-4.0223601646721363067626953125</LongitudeDegrees>
            </Position>
            <AltitudeMeters>1276.800048828125</AltitudeMeters>
            <DistanceMeters>NAN</DistanceMeters>
          </Trackpoint>
          <Trackpoint>
            <Time>2019-08-01T11:42:25.000Z</Time>
            <Position>
              <LatitudeDegrees>40.735542140901088714599609375</LatitudeDegrees>
              <LongitudeDegrees>-4.0223651938140392303466796875</LongitudeDegrees>
            </Position>
            <AltitudeMeters>1276.800048828125</AltitudeMeters>
            <DistanceMeters>NAN</DistanceMeters>
          </Trackpoint>
          <Trackpoint>
            <Time>2019-08-01T11:42:26.000Z</Time>
            <Position>
              <LatitudeDegrees>40.7355744950473308563232421875</LatitudeDegrees>
              <LongitudeDegrees>-4.022367708384990692138671875</LongitudeDegrees>
            </Position>
            <AltitudeMeters>1277</AltitudeMeters>
            <DistanceMeters>NAN</DistanceMeters>
          </Trackpoint>
          <Trackpoint>
            <Time>2019-08-01T11:42:27.000Z</Time>
            <Position>
              <LatitudeDegrees>40.73560777120292186737060546875</LatitudeDegrees>
              <LongitudeDegrees>-4.0223668701946735382080078125</LongitudeDegrees>
            </Position>
            <AltitudeMeters>1277.199951171875</AltitudeMeters>
            <DistanceMeters>NAN</DistanceMeters>
          </Trackpoint>
          <Trackpoint>
            <Time>2019-08-01T11:42:28.000Z</Time>
            <Position>
              <LatitudeDegrees>40.735642723739147186279296875</LatitudeDegrees>
              <LongitudeDegrees>-4.02236393652856349945068359375</LongitudeDegrees>
            </Position>
            <AltitudeMeters>1277.5999755859375</AltitudeMeters>
            <DistanceMeters>NAN</DistanceMeters>
          </Trackpoint>
          <Trackpoint>
            <Time>2019-08-01T11:42:29.000Z</Time>
            <Position>
              <LatitudeDegrees>40.7356767542660236358642578125</LatitudeDegrees>
              <LongitudeDegrees>-4.0223588235676288604736328125</LongitudeDegrees>
            </Position>
            <AltitudeMeters>1277.800048828125</AltitudeMeters>
            <DistanceMeters>NAN</DistanceMeters>
          </Trackpoint>
          <Trackpoint>
            <Time>2019-08-01T11:42:30.000Z</Time>
            <Position>
              <LatitudeDegrees>40.73571086861193180084228515625</LatitudeDegrees>
              <LongitudeDegrees>-4.02235304005444049835205078125</LongitudeDegrees>
            </Position>
            <AltitudeMeters>1278.199951171875</AltitudeMeters>
            <DistanceMeters>NAN</DistanceMeters>
          </Trackpoint>
          <Trackpoint>
            <Time>2019-08-01T11:42:31.000Z</Time>
            <Position>
              <LatitudeDegrees>40.73574422858655452728271484375</LatitudeDegrees>
              <LongitudeDegrees>-4.022344909608364105224609375</LongitudeDegrees>
            </Position>
            <AltitudeMeters>1278.199951171875</AltitudeMeters>
            <DistanceMeters>NAN</DistanceMeters>
          </Trackpoint>
          <Trackpoint>
            <Time>2019-08-01T11:42:32.000Z</Time>
            <Position>
              <LatitudeDegrees>40.73577909730374813079833984375</LatitudeDegrees>
              <LongitudeDegrees>-4.02233476750552654266357421875</LongitudeDegrees>
            </Position>
            <AltitudeMeters>1278.4000244140625</AltitudeMeters>
            <DistanceMeters>NAN</DistanceMeters>
          </Trackpoint>
          <Trackpoint>
            <Time>2019-08-01T11:42:33.000Z</Time>
            <Position>
              <LatitudeDegrees>40.73581396602094173431396484375</LatitudeDegrees>
              <LongitudeDegrees>-4.0223249606788158416748046875</LongitudeDegrees>
            </Position>
            <AltitudeMeters>1278.4000244140625</AltitudeMeters>
            <DistanceMeters>NAN</DistanceMeters>
          </Trackpoint>
          <Trackpoint>
            <Time>2019-08-01T11:42:34.000Z</Time>
            <Position>
              <LatitudeDegrees>40.735848248004913330078125</LatitudeDegrees>
              <LongitudeDegrees>-4.02231381274759769439697265625</LongitudeDegrees>
            </Position>
            <AltitudeMeters>1278.5999755859375</AltitudeMeters>
            <DistanceMeters>NAN</DistanceMeters>
          </Trackpoint>
          <Trackpoint>
            <Time>2019-08-01T11:42:35.000Z</Time>
            <Position>
              <LatitudeDegrees>40.7358832843601703643798828125</LatitudeDegrees>
              <LongitudeDegrees>-4.02230341918766498565673828125</LongitudeDegrees>
            </Position>
            <AltitudeMeters>1279</AltitudeMeters>
            <DistanceMeters>NAN</DistanceMeters>
          </Trackpoint>
          <Trackpoint>
            <Time>2019-08-01T11:42:36.000Z</Time>
            <Position>
              <LatitudeDegrees>40.73591739870607852935791015625</LatitudeDegrees>
              <LongitudeDegrees>-4.022291265428066253662109375</LongitudeDegrees>
            </Position>
            <AltitudeMeters>1279.4000244140625</AltitudeMeters>
            <DistanceMeters>NAN</DistanceMeters>
          </Trackpoint>
          <Trackpoint>
            <Time>2019-08-01T11:42:37.000Z</Time>
            <Position>
              <LatitudeDegrees>40.73595075868070125579833984375</LatitudeDegrees>
              <LongitudeDegrees>-4.0222750045359134674072265625</LongitudeDegrees>
            </Position>
            <AltitudeMeters>1279.5999755859375</AltitudeMeters>
            <DistanceMeters>NAN</DistanceMeters>
          </Trackpoint>
          <Trackpoint>
            <Time>2019-08-01T11:42:38.000Z</Time>
            <Position>
              <LatitudeDegrees>40.73598378337919712066650390625</LatitudeDegrees>
              <LongitudeDegrees>-4.02225874364376068115234375</LongitudeDegrees>
            </Position>
            <AltitudeMeters>1279.5999755859375</AltitudeMeters>
            <DistanceMeters>NAN</DistanceMeters>
          </Trackpoint>
          <Trackpoint>
            <Time>2019-08-01T11:42:39.000Z</Time>
            <Position>
              <LatitudeDegrees>40.7360173948109149932861328125</LatitudeDegrees>
              <LongitudeDegrees>-4.022243656218051910400390625</LongitudeDegrees>
            </Position>
            <AltitudeMeters>1279.800048828125</AltitudeMeters>
            <DistanceMeters>NAN</DistanceMeters>
          </Trackpoint>
          <Trackpoint>
            <Time>2019-08-01T11:42:40.000Z</Time>
            <Position>
              <LatitudeDegrees>40.73605134151875972747802734375</LatitudeDegrees>
              <LongitudeDegrees>-4.02222630567848682403564453125</LongitudeDegrees>
            </Position>
            <AltitudeMeters>1280.199951171875</AltitudeMeters>
            <DistanceMeters>NAN</DistanceMeters>
          </Trackpoint>
          <Trackpoint>
            <Time>2019-08-01T11:42:41.000Z</Time>
            <Position>
              <LatitudeDegrees>40.736084282398223876953125</LatitudeDegrees>
              <LongitudeDegrees>-4.02220820076763629913330078125</LongitudeDegrees>
            </Position>
            <AltitudeMeters>1280.5999755859375</AltitudeMeters>
            <DistanceMeters>NAN</DistanceMeters>
          </Trackpoint>
          <Trackpoint>
            <Time>2019-08-01T11:42:42.000Z</Time>
            <Position>
              <LatitudeDegrees>40.736084282398223876953125</LatitudeDegrees>
              <LongitudeDegrees>-4.02220820076763629913330078125</LongitudeDegrees>
            </Position>
            <AltitudeMeters>1281</AltitudeMeters>
            <DistanceMeters>NAN</DistanceMeters>
          </Trackpoint>
          <Trackpoint>
            <Time>2019-08-01T11:42:43.000Z</Time>
            <Position>
              <LatitudeDegrees>40.736153684556484222412109375</LatitudeDegrees>
              <LongitudeDegrees>-4.0221802890300750732421875</LongitudeDegrees>
            </Position>
            <AltitudeMeters>1281.4000244140625</AltitudeMeters>
            <DistanceMeters>NAN</DistanceMeters>
          </Trackpoint>
          <Trackpoint>
            <Time>2019-08-01T11:42:44.000Z</Time>
            <Position>
              <LatitudeDegrees>40.73618930764496326446533203125</LatitudeDegrees>
              <LongitudeDegrees>-4.022169895470142364501953125</LongitudeDegrees>
            </Position>
            <AltitudeMeters>1281.5999755859375</AltitudeMeters>
            <DistanceMeters>NAN</DistanceMeters>
          </Trackpoint>
          <Trackpoint>
            <Time>2019-08-01T11:42:45.000Z</Time>
            <Position>
              <LatitudeDegrees>40.73618930764496326446533203125</LatitudeDegrees>
              <LongitudeDegrees>-4.022169895470142364501953125</LongitudeDegrees>
            </Position>
            <AltitudeMeters>1281.800048828125</AltitudeMeters>
            <DistanceMeters>NAN</DistanceMeters>
          </Trackpoint>
          <Trackpoint>
            <Time>2019-08-01T11:42:46.000Z</Time>
            <Position>
              <LatitudeDegrees>40.736262984573841094970703125</LatitudeDegrees>
              <LongitudeDegrees>-4.02215707115828990936279296875</LongitudeDegrees>
            </Position>
            <AltitudeMeters>1281.800048828125</AltitudeMeters>
            <DistanceMeters>NAN</DistanceMeters>
          </Trackpoint>
          <Trackpoint>
            <Time>2019-08-01T11:42:47.000Z</Time>
            <Position>
              <LatitudeDegrees>40.7363007031381130218505859375</LatitudeDegrees>
              <LongitudeDegrees>-4.02215522713959217071533203125</LongitudeDegrees>
            </Position>
            <AltitudeMeters>1282</AltitudeMeters>
            <DistanceMeters>NAN</DistanceMeters>
          </Trackpoint>
          <Trackpoint>
            <Time>2019-08-01T11:42:48.000Z</Time>
            <Position>
              <LatitudeDegrees>40.73634018190205097198486328125</LatitudeDegrees>
              <LongitudeDegrees>-4.02215740643441677093505859375</LongitudeDegrees>
            </Position>
            <AltitudeMeters>1282.4000244140625</AltitudeMeters>
            <DistanceMeters>NAN</DistanceMeters>
          </Trackpoint>
          <Trackpoint>
            <Time>2019-08-01T11:42:49.000Z</Time>
            <Position>
              <LatitudeDegrees>40.73638058267533779144287109375</LatitudeDegrees>
              <LongitudeDegrees>-4.02216394431889057159423828125</LongitudeDegrees>
            </Position>
            <AltitudeMeters>1282.4000244140625</AltitudeMeters>
            <DistanceMeters>NAN</DistanceMeters>
          </Trackpoint>
          <Trackpoint>
            <Time>2019-08-01T11:42:50.000Z</Time>
            <Position>
              <LatitudeDegrees>40.73642198927700519561767578125</LatitudeDegrees>
              <LongitudeDegrees>-4.02217400260269641876220703125</LongitudeDegrees>
            </Position>
            <AltitudeMeters>1282.5999755859375</AltitudeMeters>
            <DistanceMeters>NAN</DistanceMeters>
          </Trackpoint>
          <Trackpoint>
            <Time>2019-08-01T11:42:51.000Z</Time>
            <Position>
              <LatitudeDegrees>40.73646322824060916900634765625</LatitudeDegrees>
              <LongitudeDegrees>-4.0221883356571197509765625</LongitudeDegrees>
            </Position>
            <AltitudeMeters>1282.5999755859375</AltitudeMeters>
            <DistanceMeters>NAN</DistanceMeters>
          </Trackpoint>
          <Trackpoint>
            <Time>2019-08-01T11:42:52.000Z</Time>
            <Position>
              <LatitudeDegrees>40.736502707004547119140625</LatitudeDegrees>
              <LongitudeDegrees>-4.02220568619668483734130859375</LongitudeDegrees>
            </Position>
            <AltitudeMeters>1282.5999755859375</AltitudeMeters>
            <DistanceMeters>NAN</DistanceMeters>
          </Trackpoint>
          <Trackpoint>
            <Time>2019-08-01T11:42:53.000Z</Time>
            <Position>
              <LatitudeDegrees>40.7365417666733264923095703125</LatitudeDegrees>
              <LongitudeDegrees>-4.02222546748816967010498046875</LongitudeDegrees>
            </Position>
            <AltitudeMeters>1282.800048828125</AltitudeMeters>
            <DistanceMeters>NAN</DistanceMeters>
          </Trackpoint>
          <Trackpoint>
            <Time>2019-08-01T11:42:54.000Z</Time>
            <Position>
              <LatitudeDegrees>40.73657982051372528076171875</LatitudeDegrees>
              <LongitudeDegrees>-4.02224759571254253387451171875</LongitudeDegrees>
            </Position>
            <AltitudeMeters>1282.800048828125</AltitudeMeters>
            <DistanceMeters>NAN</DistanceMeters>
          </Trackpoint>
          <Trackpoint>
            <Time>2019-08-01T11:42:55.000Z</Time>
            <Position>
              <LatitudeDegrees>40.73661779053509235382080078125</LatitudeDegrees>
              <LongitudeDegrees>-4.02227106504142284393310546875</LongitudeDegrees>
            </Position>
            <AltitudeMeters>1283</AltitudeMeters>
            <DistanceMeters>NAN</DistanceMeters>
          </Trackpoint>
          <Trackpoint>
            <Time>2019-08-01T11:42:56.000Z</Time>
            <Position>
              <LatitudeDegrees>40.73665534146130084991455078125</LatitudeDegrees>
              <LongitudeDegrees>-4.0222942829132080078125</LongitudeDegrees>
            </Position>
            <AltitudeMeters>1283</AltitudeMeters>
            <DistanceMeters>NAN</DistanceMeters>
          </Trackpoint>
          <Trackpoint>
            <Time>2019-08-01T11:42:57.000Z</Time>
            <Position>
              <LatitudeDegrees>40.736692808568477630615234375</LatitudeDegrees>
              <LongitudeDegrees>-4.02231884188950061798095703125</LongitudeDegrees>
            </Position>
            <AltitudeMeters>1283</AltitudeMeters>
            <DistanceMeters>NAN</DistanceMeters>
          </Trackpoint>
          <Trackpoint>
            <Time>2019-08-01T11:42:58.000Z</Time>
            <Position>
              <LatitudeDegrees>40.7367305271327495574951171875</LatitudeDegrees>
              <LongitudeDegrees>-4.022345244884490966796875</LongitudeDegrees>
            </Position>
            <AltitudeMeters>1283</AltitudeMeters>
            <DistanceMeters>NAN</DistanceMeters>
          </Trackpoint>
          <Trackpoint>
            <Time>2019-08-01T11:42:59.000Z</Time>
            <Position>
              <LatitudeDegrees>40.73676757514476776123046875</LatitudeDegrees>
              <LongitudeDegrees>-4.02237349189817905426025390625</LongitudeDegrees>
            </Position>
            <AltitudeMeters>1282.800048828125</AltitudeMeters>
            <DistanceMeters>NAN</DistanceMeters>
          </Trackpoint>
          <Trackpoint>
            <Time>2019-08-01T11:43:00.000Z</Time>
            <Position>
              <LatitudeDegrees>40.7368039526045322418212890625</LatitudeDegrees>
              <LongitudeDegrees>-4.022402577102184295654296875</LongitudeDegrees>
            </Position>
            <AltitudeMeters>1283.199951171875</AltitudeMeters>
            <DistanceMeters>NAN</DistanceMeters>
          </Trackpoint>
          <Trackpoint>
            <Time>2019-08-01T11:43:01.000Z</Time>
            <Position>
              <LatitudeDegrees>40.7368039526045322418212890625</LatitudeDegrees>
              <LongitudeDegrees>-4.022402577102184295654296875</LongitudeDegrees>
            </Position>
            <AltitudeMeters>1283.199951171875</AltitudeMeters>
            <DistanceMeters>NAN</DistanceMeters>
          </Trackpoint>
          <Trackpoint>
            <Time>2019-08-01T11:43:02.000Z</Time>
            <Position>
              <LatitudeDegrees>40.73687494732439517974853515625</LatitudeDegrees>
              <LongitudeDegrees>-4.02246301062405109405517578125</LongitudeDegrees>
            </Position>
            <AltitudeMeters>1283</AltitudeMeters>
            <DistanceMeters>NAN</DistanceMeters>
          </Trackpoint>
          <Trackpoint>
            <Time>2019-08-01T11:43:03.000Z</Time>
            <Position>
              <LatitudeDegrees>40.7369088940322399139404296875</LatitudeDegrees>
              <LongitudeDegrees>-4.02249519713222980499267578125</LongitudeDegrees>
            </Position>
            <AltitudeMeters>1283.199951171875</AltitudeMeters>
            <DistanceMeters>NAN</DistanceMeters>
          </Trackpoint>
          <Trackpoint>
            <Time>2019-08-01T11:43:04.000Z</Time>
            <Position>
              <LatitudeDegrees>40.7369088940322399139404296875</LatitudeDegrees>
              <LongitudeDegrees>-4.02249519713222980499267578125</LongitudeDegrees>
            </Position>
            <AltitudeMeters>1283.199951171875</AltitudeMeters>
            <DistanceMeters>NAN</DistanceMeters>
          </Trackpoint>
          <Trackpoint>
            <Time>2019-08-01T11:43:05.000Z</Time>
            <Position>
              <LatitudeDegrees>40.7369088940322399139404296875</LatitudeDegrees>
              <LongitudeDegrees>-4.02249519713222980499267578125</LongitudeDegrees>
            </Position>
            <AltitudeMeters>1283.4000244140625</AltitudeMeters>
            <DistanceMeters>NAN</DistanceMeters>
          </Trackpoint>
          <Trackpoint>
            <Time>2019-08-01T11:43:06.000Z</Time>
            <Position>
              <LatitudeDegrees>40.7370024360716342926025390625</LatitudeDegrees>
              <LongitudeDegrees>-4.02260198257863521575927734375</LongitudeDegrees>
            </Position>
            <AltitudeMeters>1283.4000244140625</AltitudeMeters>
            <DistanceMeters>NAN</DistanceMeters>
          </Trackpoint>
          <Trackpoint>
            <Time>2019-08-01T11:43:07.000Z</Time>
            <Position>
              <LatitudeDegrees>40.73703110218048095703125</LatitudeDegrees>
              <LongitudeDegrees>-4.022640623152256011962890625</LongitudeDegrees>
            </Position>
            <AltitudeMeters>1283.4000244140625</AltitudeMeters>
            <DistanceMeters>NAN</DistanceMeters>
          </Trackpoint>
          <Trackpoint>
            <Time>2019-08-01T11:43:08.000Z</Time>
            <Position>
              <LatitudeDegrees>40.7370584271848201751708984375</LatitudeDegrees>
              <LongitudeDegrees>-4.0226813592016696929931640625</LongitudeDegrees>
            </Position>
            <AltitudeMeters>1283.5999755859375</AltitudeMeters>
            <DistanceMeters>NAN</DistanceMeters>
          </Trackpoint>
          <Trackpoint>
            <Time>2019-08-01T11:43:09.000Z</Time>
            <Position>
              <LatitudeDegrees>40.7370834052562713623046875</LatitudeDegrees>
              <LongitudeDegrees>-4.0227249450981616973876953125</LongitudeDegrees>
            </Position>
            <AltitudeMeters>1283.800048828125</AltitudeMeters>
            <DistanceMeters>NAN</DistanceMeters>
          </Trackpoint>
          <Trackpoint>
            <Time>2019-08-01T11:43:10.000Z</Time>
            <Position>
              <LatitudeDegrees>40.7370834052562713623046875</LatitudeDegrees>
              <LongitudeDegrees>-4.0227249450981616973876953125</LongitudeDegrees>
            </Position>
            <AltitudeMeters>1283.800048828125</AltitudeMeters>
            <DistanceMeters>NAN</DistanceMeters>
          </Trackpoint>
          <Trackpoint>
            <Time>2019-08-01T11:43:11.000Z</Time>
            <Position>
              <LatitudeDegrees>40.7370834052562713623046875</LatitudeDegrees>
              <LongitudeDegrees>-4.0227249450981616973876953125</LongitudeDegrees>
            </Position>
            <AltitudeMeters>1284</AltitudeMeters>
            <DistanceMeters>NAN</DistanceMeters>
          </Trackpoint>
          <Trackpoint>
            <Time>2019-08-01T11:43:12.000Z</Time>
            <Position>
              <LatitudeDegrees>40.73714937083423137664794921875</LatitudeDegrees>
              <LongitudeDegrees>-4.02286349795758724212646484375</LongitudeDegrees>
            </Position>
            <AltitudeMeters>1284.199951171875</AltitudeMeters>
            <DistanceMeters>NAN</DistanceMeters>
          </Trackpoint>
          <Trackpoint>
            <Time>2019-08-01T11:43:13.000Z</Time>
            <Position>
              <LatitudeDegrees>40.73716512881219387054443359375</LatitudeDegrees>
              <LongitudeDegrees>-4.02291412465274333953857421875</LongitudeDegrees>
            </Position>
            <AltitudeMeters>1284.4000244140625</AltitudeMeters>
            <DistanceMeters>NAN</DistanceMeters>
          </Trackpoint>
          <Trackpoint>
            <Time>2019-08-01T11:43:14.000Z</Time>
            <Position>
              <LatitudeDegrees>40.737180300056934356689453125</LatitudeDegrees>
              <LongitudeDegrees>-4.0229646675288677215576171875</LongitudeDegrees>
            </Position>
            <AltitudeMeters>1284.5999755859375</AltitudeMeters>
            <DistanceMeters>NAN</DistanceMeters>
          </Trackpoint>
          <Trackpoint>
            <Time>2019-08-01T11:43:15.000Z</Time>
            <Position>
              <LatitudeDegrees>40.737195722758769989013671875</LatitudeDegrees>
              <LongitudeDegrees>-4.02301453985273838043212890625</LongitudeDegrees>
            </Position>
            <AltitudeMeters>1285.199951171875</AltitudeMeters>
            <DistanceMeters>NAN</DistanceMeters>
          </Trackpoint>
          <Trackpoint>
            <Time>2019-08-01T11:43:16.000Z</Time>
            <Position>
              <LatitudeDegrees>40.737195722758769989013671875</LatitudeDegrees>
              <LongitudeDegrees>-4.02301453985273838043212890625</LongitudeDegrees>
            </Position>
            <AltitudeMeters>1285.5999755859375</AltitudeMeters>
            <DistanceMeters>NAN</DistanceMeters>
          </Trackpoint>
          <Trackpoint>
            <Time>2019-08-01T11:43:17.000Z</Time>
            <Position>
              <LatitudeDegrees>40.73722011409699916839599609375</LatitudeDegrees>
              <LongitudeDegrees>-4.02311596088111400604248046875</LongitudeDegrees>
            </Position>
            <AltitudeMeters>1285.800048828125</AltitudeMeters>
            <DistanceMeters>NAN</DistanceMeters>
          </Trackpoint>
          <Trackpoint>
            <Time>2019-08-01T11:43:18.000Z</Time>
            <Position>
              <LatitudeDegrees>40.73722849600017070770263671875</LatitudeDegrees>
              <LongitudeDegrees>-4.02316709049046039581298828125</LongitudeDegrees>
            </Position>
            <AltitudeMeters>1286</AltitudeMeters>
            <DistanceMeters>NAN</DistanceMeters>
          </Trackpoint>
          <Trackpoint>
            <Time>2019-08-01T11:43:19.000Z</Time>
            <Position>
              <LatitudeDegrees>40.7372344471514225006103515625</LatitudeDegrees>
              <LongitudeDegrees>-4.0232184715569019317626953125</LongitudeDegrees>
            </Position>
            <AltitudeMeters>1286</AltitudeMeters>
            <DistanceMeters>NAN</DistanceMeters>
          </Trackpoint>
          <Trackpoint>
            <Time>2019-08-01T11:43:20.000Z</Time>
            <Position>
              <LatitudeDegrees>40.7372388057410717010498046875</LatitudeDegrees>
              <LongitudeDegrees>-4.02327127754688262939453125</LongitudeDegrees>
            </Position>
            <AltitudeMeters>1286.199951171875</AltitudeMeters>
            <DistanceMeters>NAN</DistanceMeters>
          </Trackpoint>
          <Trackpoint>
            <Time>2019-08-01T11:43:21.000Z</Time>
            <Position>
              <LatitudeDegrees>40.73724173940718173980712890625</LatitudeDegrees>
              <LongitudeDegrees>-4.023323915898799896240234375</LongitudeDegrees>
            </Position>
            <AltitudeMeters>1286.5999755859375</AltitudeMeters>
            <DistanceMeters>NAN</DistanceMeters>
          </Trackpoint>
          <Trackpoint>
            <Time>2019-08-01T11:43:22.000Z</Time>
            <Position>
              <LatitudeDegrees>40.737244002521038055419921875</LatitudeDegrees>
              <LongitudeDegrees>-4.02337697334587574005126953125</LongitudeDegrees>
            </Position>
            <AltitudeMeters>1286.5999755859375</AltitudeMeters>
            <DistanceMeters>NAN</DistanceMeters>
          </Trackpoint>
          <Trackpoint>
            <Time>2019-08-01T11:43:23.000Z</Time>
            <Position>
              <LatitudeDegrees>40.7372455112636089324951171875</LatitudeDegrees>
              <LongitudeDegrees>-4.02342961169779300689697265625</LongitudeDegrees>
            </Position>
            <AltitudeMeters>1286.800048828125</AltitudeMeters>
            <DistanceMeters>NAN</DistanceMeters>
          </Trackpoint>
          <Trackpoint>
            <Time>2019-08-01T11:43:24.000Z</Time>
            <Position>
              <LatitudeDegrees>40.7372465170919895172119140625</LatitudeDegrees>
              <LongitudeDegrees>-4.0234811604022979736328125</LongitudeDegrees>
            </Position>
            <AltitudeMeters>1287</AltitudeMeters>
            <DistanceMeters>NAN</DistanceMeters>
          </Trackpoint>
          <Trackpoint>
            <Time>2019-08-01T11:43:25.000Z</Time>
            <Position>
              <LatitudeDegrees>40.73724660091102123260498046875</LatitudeDegrees>
              <LongitudeDegrees>-4.0235332958400249481201171875</LongitudeDegrees>
            </Position>
            <AltitudeMeters>1287</AltitudeMeters>
            <DistanceMeters>NAN</DistanceMeters>
          </Trackpoint>
          <Trackpoint>
            <Time>2019-08-01T11:43:26.000Z</Time>
            <Position>
              <LatitudeDegrees>40.7372470200061798095703125</LatitudeDegrees>
              <LongitudeDegrees>-4.0235852636396884918212890625</LongitudeDegrees>
            </Position>
            <AltitudeMeters>1287.4000244140625</AltitudeMeters>
            <DistanceMeters>NAN</DistanceMeters>
          </Trackpoint>
          <Trackpoint>
            <Time>2019-08-01T11:43:27.000Z</Time>
            <Position>
              <LatitudeDegrees>40.73724760673940181732177734375</LatitudeDegrees>
              <LongitudeDegrees>-4.02363765053451061248779296875</LongitudeDegrees>
            </Position>
            <AltitudeMeters>1287.5999755859375</AltitudeMeters>
            <DistanceMeters>NAN</DistanceMeters>
          </Trackpoint>
          <Trackpoint>
            <Time>2019-08-01T11:43:28.000Z</Time>
            <Position>
              <LatitudeDegrees>40.7372478581964969635009765625</LatitudeDegrees>
              <LongitudeDegrees>-4.02368928305804729461669921875</LongitudeDegrees>
            </Position>
            <AltitudeMeters>1287.5999755859375</AltitudeMeters>
            <DistanceMeters>NAN</DistanceMeters>
          </Trackpoint>
          <Trackpoint>
            <Time>2019-08-01T11:43:29.000Z</Time>
            <Position>
              <LatitudeDegrees>40.737248025834560394287109375</LatitudeDegrees>
              <LongitudeDegrees>-4.0237421728670597076416015625</LongitudeDegrees>
            </Position>
            <AltitudeMeters>1287.800048828125</AltitudeMeters>
            <DistanceMeters>NAN</DistanceMeters>
          </Trackpoint>
          <Trackpoint>
            <Time>2019-08-01T11:43:30.000Z</Time>
            <Position>
              <LatitudeDegrees>40.73724827729165554046630859375</LatitudeDegrees>
              <LongitudeDegrees>-4.02379439212381839752197265625</LongitudeDegrees>
            </Position>
            <AltitudeMeters>1288.199951171875</AltitudeMeters>
            <DistanceMeters>NAN</DistanceMeters>
          </Trackpoint>
          <Trackpoint>
            <Time>2019-08-01T11:43:31.000Z</Time>
            <Position>
              <LatitudeDegrees>40.73725163005292415618896484375</LatitudeDegrees>
              <LongitudeDegrees>-4.0238451026380062103271484375</LongitudeDegrees>
            </Position>
            <AltitudeMeters>1288.4000244140625</AltitudeMeters>
            <DistanceMeters>NAN</DistanceMeters>
          </Trackpoint>
          <Trackpoint>
            <Time>2019-08-01T11:43:32.000Z</Time>
            <Position>
              <LatitudeDegrees>40.7372548989951610565185546875</LatitudeDegrees>
              <LongitudeDegrees>-4.02389614842832088470458984375</LongitudeDegrees>
            </Position>
            <AltitudeMeters>1288.5999755859375</AltitudeMeters>
            <DistanceMeters>NAN</DistanceMeters>
          </Trackpoint>
          <Trackpoint>
            <Time>2019-08-01T11:43:33.000Z</Time>
            <Position>
              <LatitudeDegrees>40.7372548989951610565185546875</LatitudeDegrees>
              <LongitudeDegrees>-4.02389614842832088470458984375</LongitudeDegrees>
            </Position>
            <AltitudeMeters>1288.800048828125</AltitudeMeters>
            <DistanceMeters>NAN</DistanceMeters>
          </Trackpoint>
          <Trackpoint>
            <Time>2019-08-01T11:43:34.000Z</Time>
            <Position>
              <LatitudeDegrees>40.737258754670619964599609375</LatitudeDegrees>
              <LongitudeDegrees>-4.0240010060369968414306640625</LongitudeDegrees>
            </Position>
            <AltitudeMeters>1288.800048828125</AltitudeMeters>
            <DistanceMeters>NAN</DistanceMeters>
          </Trackpoint>
          <Trackpoint>
            <Time>2019-08-01T11:43:35.000Z</Time>
            <Position>
              <LatitudeDegrees>40.73726034723222255706787109375</LatitudeDegrees>
              <LongitudeDegrees>-4.02405221946537494659423828125</LongitudeDegrees>
            </Position>
            <AltitudeMeters>1289</AltitudeMeters>
            <DistanceMeters>NAN</DistanceMeters>
          </Trackpoint>
          <Trackpoint>
            <Time>2019-08-01T11:43:36.000Z</Time>
            <Position>
              <LatitudeDegrees>40.73726319707930088043212890625</LatitudeDegrees>
              <LongitudeDegrees>-4.02410301379859447479248046875</LongitudeDegrees>
            </Position>
            <AltitudeMeters>1289</AltitudeMeters>
            <DistanceMeters>NAN</DistanceMeters>
          </Trackpoint>
          <Trackpoint>
            <Time>2019-08-01T11:43:37.000Z</Time>
            <Position>
              <LatitudeDegrees>40.7372662983834743499755859375</LatitudeDegrees>
              <LongitudeDegrees>-4.0241538919508457183837890625</LongitudeDegrees>
            </Position>
            <AltitudeMeters>1289.4000244140625</AltitudeMeters>
            <DistanceMeters>NAN</DistanceMeters>
          </Trackpoint>
          <Trackpoint>
            <Time>2019-08-01T11:43:38.000Z</Time>
            <Position>
              <LatitudeDegrees>40.737270824611186981201171875</LatitudeDegrees>
              <LongitudeDegrees>-4.02420242317020893096923828125</LongitudeDegrees>
            </Position>
            <AltitudeMeters>1289.4000244140625</AltitudeMeters>
            <DistanceMeters>NAN</DistanceMeters>
          </Trackpoint>
          <Trackpoint>
            <Time>2019-08-01T11:43:39.000Z</Time>
            <Position>
              <LatitudeDegrees>40.73727292008697986602783203125</LatitudeDegrees>
              <LongitudeDegrees>-4.0242548100650310516357421875</LongitudeDegrees>
            </Position>
            <AltitudeMeters>1289.5999755859375</AltitudeMeters>
            <DistanceMeters>NAN</DistanceMeters>
          </Trackpoint>
          <Trackpoint>
            <Time>2019-08-01T11:43:40.000Z</Time>
            <Position>
              <LatitudeDegrees>40.73727509938180446624755859375</LatitudeDegrees>
              <LongitudeDegrees>-4.02430753223598003387451171875</LongitudeDegrees>
            </Position>
            <AltitudeMeters>1289.800048828125</AltitudeMeters>
            <DistanceMeters>NAN</DistanceMeters>
          </Trackpoint>
          <Trackpoint>
            <Time>2019-08-01T11:43:41.000Z</Time>
            <Position>
              <LatitudeDegrees>40.73727828450500965118408203125</LatitudeDegrees>
              <LongitudeDegrees>-4.0243594162166118621826171875</LongitudeDegrees>
            </Position>
            <AltitudeMeters>1290</AltitudeMeters>
            <DistanceMeters>NAN</DistanceMeters>
          </Trackpoint>
          <Trackpoint>
            <Time>2019-08-01T11:43:42.000Z</Time>
            <Position>
              <LatitudeDegrees>40.73727828450500965118408203125</LatitudeDegrees>
              <LongitudeDegrees>-4.0243594162166118621826171875</LongitudeDegrees>
            </Position>
            <AltitudeMeters>1290.199951171875</AltitudeMeters>
            <DistanceMeters>NAN</DistanceMeters>
          </Trackpoint>
          <Trackpoint>
            <Time>2019-08-01T11:43:43.000Z</Time>
            <Position>
              <LatitudeDegrees>40.73728314600884914398193359375</LatitudeDegrees>
              <LongitudeDegrees>-4.0244630165398120880126953125</LongitudeDegrees>
            </Position>
            <AltitudeMeters>1290.4000244140625</AltitudeMeters>
            <DistanceMeters>NAN</DistanceMeters>
          </Trackpoint>
          <Trackpoint>
            <Time>2019-08-01T11:43:44.000Z</Time>
            <Position>
              <LatitudeDegrees>40.73728658258914947509765625</LatitudeDegrees>
              <LongitudeDegrees>-4.02451339177787303924560546875</LongitudeDegrees>
            </Position>
            <AltitudeMeters>1290.800048828125</AltitudeMeters>
            <DistanceMeters>NAN</DistanceMeters>
          </Trackpoint>
          <Trackpoint>
            <Time>2019-08-01T11:43:45.000Z</Time>
            <Position>
              <LatitudeDegrees>40.7372899353504180908203125</LatitudeDegrees>
              <LongitudeDegrees>-4.02456301264464855194091796875</LongitudeDegrees>
            </Position>
            <AltitudeMeters>1291</AltitudeMeters>
            <DistanceMeters>NAN</DistanceMeters>
          </Trackpoint>
          <Trackpoint>
            <Time>2019-08-01T11:43:46.000Z</Time>
            <Position>
              <LatitudeDegrees>40.7372914440929889678955078125</LatitudeDegrees>
              <LongitudeDegrees>-4.02461640536785125732421875</LongitudeDegrees>
            </Position>
            <AltitudeMeters>1291.199951171875</AltitudeMeters>
            <DistanceMeters>NAN</DistanceMeters>
          </Trackpoint>
          <Trackpoint>
            <Time>2019-08-01T11:43:47.000Z</Time>
            <Position>
              <LatitudeDegrees>40.73729454539716243743896484375</LatitudeDegrees>
              <LongitudeDegrees>-4.0246692113578319549560546875</LongitudeDegrees>
            </Position>
            <AltitudeMeters>1291.4000244140625</AltitudeMeters>
            <DistanceMeters>NAN</DistanceMeters>
          </Trackpoint>
          <Trackpoint>
            <Time>2019-08-01T11:43:48.000Z</Time>
            <Position>
              <LatitudeDegrees>40.73729806579649448394775390625</LatitudeDegrees>
              <LongitudeDegrees>-4.0247218497097492218017578125</LongitudeDegrees>
            </Position>
            <AltitudeMeters>1291.5999755859375</AltitudeMeters>
            <DistanceMeters>NAN</DistanceMeters>
          </Trackpoint>
          <Trackpoint>
            <Time>2019-08-01T11:43:49.000Z</Time>
            <Position>
              <LatitudeDegrees>40.73730292730033397674560546875</LatitudeDegrees>
              <LongitudeDegrees>-4.024773649871349334716796875</LongitudeDegrees>
            </Position>
            <AltitudeMeters>1291.800048828125</AltitudeMeters>
            <DistanceMeters>NAN</DistanceMeters>
          </Trackpoint>
          <Trackpoint>
            <Time>2019-08-01T11:43:50.000Z</Time>
            <Position>
              <LatitudeDegrees>40.73730292730033397674560546875</LatitudeDegrees>
              <LongitudeDegrees>-4.024773649871349334716796875</LongitudeDegrees>
            </Position>
            <AltitudeMeters>1292</AltitudeMeters>
            <DistanceMeters>NAN</DistanceMeters>
          </Trackpoint>
          <Trackpoint>
            <Time>2019-08-01T11:43:51.000Z</Time>
            <Position>
              <LatitudeDegrees>40.7373172603547573089599609375</LatitudeDegrees>
              <LongitudeDegrees>-4.0248757414519786834716796875</LongitudeDegrees>
            </Position>
            <AltitudeMeters>1292.199951171875</AltitudeMeters>
            <DistanceMeters>NAN</DistanceMeters>
          </Trackpoint>
          <Trackpoint>
            <Time>2019-08-01T11:43:52.000Z</Time>
            <Position>
              <LatitudeDegrees>40.7373172603547573089599609375</LatitudeDegrees>
              <LongitudeDegrees>-4.0248757414519786834716796875</LongitudeDegrees>
            </Position>
            <AltitudeMeters>1292.199951171875</AltitudeMeters>
            <DistanceMeters>NAN</DistanceMeters>
          </Trackpoint>
          <Trackpoint>
            <Time>2019-08-01T11:43:53.000Z</Time>
            <Position>
              <LatitudeDegrees>40.73733796365559101104736328125</LatitudeDegrees>
              <LongitudeDegrees>-4.02497607283294200897216796875</LongitudeDegrees>
            </Position>
            <AltitudeMeters>1292.4000244140625</AltitudeMeters>
            <DistanceMeters>NAN</DistanceMeters>
          </Trackpoint>
          <Trackpoint>
            <Time>2019-08-01T11:43:54.000Z</Time>
            <Position>
              <LatitudeDegrees>40.7373494468629360198974609375</LatitudeDegrees>
              <LongitudeDegrees>-4.02502418495714664459228515625</LongitudeDegrees>
            </Position>
            <AltitudeMeters>1292.4000244140625</AltitudeMeters>
            <DistanceMeters>NAN</DistanceMeters>
          </Trackpoint>
          <Trackpoint>
            <Time>2019-08-01T11:43:55.000Z</Time>
            <Position>
              <LatitudeDegrees>40.7373611815273761749267578125</LatitudeDegrees>
              <LongitudeDegrees>-4.0250717103481292724609375</LongitudeDegrees>
            </Position>
            <AltitudeMeters>1292.4000244140625</AltitudeMeters>
            <DistanceMeters>NAN</DistanceMeters>
          </Trackpoint>
          <Trackpoint>
            <Time>2019-08-01T11:43:56.000Z</Time>
            <Position>
              <LatitudeDegrees>40.7373611815273761749267578125</LatitudeDegrees>
              <LongitudeDegrees>-4.0250717103481292724609375</LongitudeDegrees>
            </Position>
            <AltitudeMeters>1292.5999755859375</AltitudeMeters>
            <DistanceMeters>NAN</DistanceMeters>
          </Trackpoint>
          <Trackpoint>
            <Time>2019-08-01T11:43:57.000Z</Time>
            <Position>
              <LatitudeDegrees>40.73738758452236652374267578125</LatitudeDegrees>
              <LongitudeDegrees>-4.0251587145030498504638671875</LongitudeDegrees>
            </Position>
            <AltitudeMeters>1293</AltitudeMeters>
            <DistanceMeters>NAN</DistanceMeters>
          </Trackpoint>
          <Trackpoint>
            <Time>2019-08-01T11:43:58.000Z</Time>
            <Position>
              <LatitudeDegrees>40.73740191757678985595703125</LatitudeDegrees>
              <LongitudeDegrees>-4.0251996181905269622802734375</LongitudeDegrees>
            </Position>
            <AltitudeMeters>1293.4000244140625</AltitudeMeters>
            <DistanceMeters>NAN</DistanceMeters>
          </Trackpoint>
          <Trackpoint>
            <Time>2019-08-01T11:43:59.000Z</Time>
            <Position>
              <LatitudeDegrees>40.73741658590734004974365234375</LatitudeDegrees>
              <LongitudeDegrees>-4.0252401866018772125244140625</LongitudeDegrees>
            </Position>
            <AltitudeMeters>1293.4000244140625</AltitudeMeters>
            <DistanceMeters>NAN</DistanceMeters>
          </Trackpoint>
          <Trackpoint>
            <Time>2019-08-01T11:44:00.000Z</Time>
            <Position>
              <LatitudeDegrees>40.73743100278079509735107421875</LatitudeDegrees>
              <LongitudeDegrees>-4.02528134174644947052001953125</LongitudeDegrees>
            </Position>
            <AltitudeMeters>1293.5999755859375</AltitudeMeters>
            <DistanceMeters>NAN</DistanceMeters>
          </Trackpoint>
          <Trackpoint>
            <Time>2019-08-01T11:44:01.000Z</Time>
            <Position>
              <LatitudeDegrees>40.7374446652829647064208984375</LatitudeDegrees>
              <LongitudeDegrees>-4.025322496891021728515625</LongitudeDegrees>
            </Position>
            <AltitudeMeters>1294</AltitudeMeters>
            <DistanceMeters>NAN</DistanceMeters>
          </Trackpoint>
          <Trackpoint>
            <Time>2019-08-01T11:44:02.000Z</Time>
            <Position>
              <LatitudeDegrees>40.73745933361351490020751953125</LatitudeDegrees>
              <LongitudeDegrees>-4.02536231093108654022216796875</LongitudeDegrees>
            </Position>
            <AltitudeMeters>1294.199951171875</AltitudeMeters>
            <DistanceMeters>NAN</DistanceMeters>
          </Trackpoint>
          <Trackpoint>
            <Time>2019-08-01T11:44:03.000Z</Time>
            <Position>
              <LatitudeDegrees>40.7374748401343822479248046875</LatitudeDegrees>
              <LongitudeDegrees>-4.0254016220569610595703125</LongitudeDegrees>
            </Position>
            <AltitudeMeters>1294.4000244140625</AltitudeMeters>
            <DistanceMeters>NAN</DistanceMeters>
          </Trackpoint>
          <Trackpoint>
            <Time>2019-08-01T11:44:04.000Z</Time>
            <Position>
              <LatitudeDegrees>40.73749034665524959564208984375</LatitudeDegrees>
              <LongitudeDegrees>-4.02544009499251842498779296875</LongitudeDegrees>
            </Position>
            <AltitudeMeters>1294.5999755859375</AltitudeMeters>
            <DistanceMeters>NAN</DistanceMeters>
          </Trackpoint>
          <Trackpoint>
            <Time>2019-08-01T11:44:05.000Z</Time>
            <Position>
              <LatitudeDegrees>40.7375056855380535125732421875</LatitudeDegrees>
              <LongitudeDegrees>-4.02547831647098064422607421875</LongitudeDegrees>
            </Position>
            <AltitudeMeters>1295</AltitudeMeters>
            <DistanceMeters>NAN</DistanceMeters>
          </Trackpoint>
          <Trackpoint>
            <Time>2019-08-01T11:44:06.000Z</Time>
            <Position>
              <LatitudeDegrees>40.73752169497311115264892578125</LatitudeDegrees>
              <LongitudeDegrees>-4.0255147777497768402099609375</LongitudeDegrees>
            </Position>
            <AltitudeMeters>1295.199951171875</AltitudeMeters>
            <DistanceMeters>NAN</DistanceMeters>
          </Trackpoint>
          <Trackpoint>
            <Time>2019-08-01T11:44:07.000Z</Time>
            <Position>
              <LatitudeDegrees>40.7375378720462322235107421875</LatitudeDegrees>
              <LongitudeDegrees>-4.0255489759147167205810546875</LongitudeDegrees>
            </Position>
            <AltitudeMeters>1295.4000244140625</AltitudeMeters>
            <DistanceMeters>NAN</DistanceMeters>
          </Trackpoint>
          <Trackpoint>
            <Time>2019-08-01T11:44:08.000Z</Time>
            <Position>
              <LatitudeDegrees>40.73755404911935329437255859375</LatitudeDegrees>
              <LongitudeDegrees>-4.0255825035274028778076171875</LongitudeDegrees>
            </Position>
            <AltitudeMeters>1295.800048828125</AltitudeMeters>
            <DistanceMeters>NAN</DistanceMeters>
          </Trackpoint>
          <Trackpoint>
            <Time>2019-08-01T11:44:09.000Z</Time>
            <Position>
              <LatitudeDegrees>40.7375710643827915191650390625</LatitudeDegrees>
              <LongitudeDegrees>-4.025614522397518157958984375</LongitudeDegrees>
            </Position>
            <AltitudeMeters>1296.199951171875</AltitudeMeters>
            <DistanceMeters>NAN</DistanceMeters>
          </Trackpoint>
          <Trackpoint>
            <Time>2019-08-01T11:44:10.000Z</Time>
            <Position>
              <LatitudeDegrees>40.73758858256042003631591796875</LatitudeDegrees>
              <LongitudeDegrees>-4.02564628981053829193115234375</LongitudeDegrees>
            </Position>
            <AltitudeMeters>1296.199951171875</AltitudeMeters>
            <DistanceMeters>NAN</DistanceMeters>
          </Trackpoint>
          <Trackpoint>
            <Time>2019-08-01T11:44:11.000Z</Time>
            <Position>
              <LatitudeDegrees>40.73760576546192169189453125</LatitudeDegrees>
              <LongitudeDegrees>-4.0256787277758121490478515625</LongitudeDegrees>
            </Position>
            <AltitudeMeters>1296.4000244140625</AltitudeMeters>
            <DistanceMeters>NAN</DistanceMeters>
          </Trackpoint>
          <Trackpoint>
            <Time>2019-08-01T11:44:12.000Z</Time>
            <Position>
              <LatitudeDegrees>40.73762311600148677825927734375</LatitudeDegrees>
              <LongitudeDegrees>-4.0257122553884983062744140625</LongitudeDegrees>
            </Position>
            <AltitudeMeters>1296.800048828125</AltitudeMeters>
            <DistanceMeters>NAN</DistanceMeters>
          </Trackpoint>
          <Trackpoint>
            <Time>2019-08-01T11:44:13.000Z</Time>
            <Position>
              <LatitudeDegrees>40.737641640007495880126953125</LatitudeDegrees>
              <LongitudeDegrees>-4.02574561536312103271484375</LongitudeDegrees>
            </Position>
            <AltitudeMeters>1297</AltitudeMeters>
            <DistanceMeters>NAN</DistanceMeters>
          </Trackpoint>
          <Trackpoint>
            <Time>2019-08-01T11:44:14.000Z</Time>
            <Position>
              <LatitudeDegrees>40.73766100220382213592529296875</LatitudeDegrees>
              <LongitudeDegrees>-4.02577822096645832061767578125</LongitudeDegrees>
            </Position>
            <AltitudeMeters>1297.199951171875</AltitudeMeters>
            <DistanceMeters>NAN</DistanceMeters>
          </Trackpoint>
          <Trackpoint>
            <Time>2019-08-01T11:44:15.000Z</Time>
            <Position>
              <LatitudeDegrees>40.73766100220382213592529296875</LatitudeDegrees>
              <LongitudeDegrees>-4.02577822096645832061767578125</LongitudeDegrees>
            </Position>
            <AltitudeMeters>1297.4000244140625</AltitudeMeters>
            <DistanceMeters>NAN</DistanceMeters>
          </Trackpoint>
          <Trackpoint>
            <Time>2019-08-01T11:44:16.000Z</Time>
            <Position>
              <LatitudeDegrees>40.73770232498645782470703125</LatitudeDegrees>
              <LongitudeDegrees>-4.025843180716037750244140625</LongitudeDegrees>
            </Position>
            <AltitudeMeters>1297.800048828125</AltitudeMeters>
            <DistanceMeters>NAN</DistanceMeters>
          </Trackpoint>
          <Trackpoint>
            <Time>2019-08-01T11:44:17.000Z</Time>
            <Position>
              <LatitudeDegrees>40.73772302828729152679443359375</LatitudeDegrees>
              <LongitudeDegrees>-4.0258755348622798919677734375</LongitudeDegrees>
            </Position>
            <AltitudeMeters>1298.199951171875</AltitudeMeters>
            <DistanceMeters>NAN</DistanceMeters>
          </Trackpoint>
          <Trackpoint>
            <Time>2019-08-01T11:44:18.000Z</Time>
            <Position>
              <LatitudeDegrees>40.73772302828729152679443359375</LatitudeDegrees>
              <LongitudeDegrees>-4.0258755348622798919677734375</LongitudeDegrees>
            </Position>
            <AltitudeMeters>1298.4000244140625</AltitudeMeters>
            <DistanceMeters>NAN</DistanceMeters>
          </Trackpoint>
          <Trackpoint>
            <Time>2019-08-01T11:44:19.000Z</Time>
            <Position>
              <LatitudeDegrees>40.7377655245363712310791015625</LatitudeDegrees>
              <LongitudeDegrees>-4.02593831531703472137451171875</LongitudeDegrees>
            </Position>
            <AltitudeMeters>1298.5999755859375</AltitudeMeters>
            <DistanceMeters>NAN</DistanceMeters>
          </Trackpoint>
          <Trackpoint>
            <Time>2019-08-01T11:44:20.000Z</Time>
            <Position>
              <LatitudeDegrees>40.73778773657977581024169921875</LatitudeDegrees>
              <LongitudeDegrees>-4.02596823871135711669921875</LongitudeDegrees>
            </Position>
            <AltitudeMeters>1299</AltitudeMeters>
            <DistanceMeters>NAN</DistanceMeters>
          </Trackpoint>
          <Trackpoint>
            <Time>2019-08-01T11:44:21.000Z</Time>
            <Position>
              <LatitudeDegrees>40.73781020008027553558349609375</LatitudeDegrees>
              <LongitudeDegrees>-4.0259982459247112274169921875</LongitudeDegrees>
            </Position>
            <AltitudeMeters>1299.199951171875</AltitudeMeters>
            <DistanceMeters>NAN</DistanceMeters>
          </Trackpoint>
          <Trackpoint>
            <Time>2019-08-01T11:44:22.000Z</Time>
            <Position>
              <LatitudeDegrees>40.73783316649496555328369140625</LatitudeDegrees>
              <LongitudeDegrees>-4.0260274149477481842041015625</LongitudeDegrees>
            </Position>
            <AltitudeMeters>1299.5999755859375</AltitudeMeters>
            <DistanceMeters>NAN</DistanceMeters>
          </Trackpoint>
          <Trackpoint>
            <Time>2019-08-01T11:44:23.000Z</Time>
            <Position>
              <LatitudeDegrees>40.7378567196428775787353515625</LatitudeDegrees>
              <LongitudeDegrees>-4.02605633251368999481201171875</LongitudeDegrees>
            </Position>
            <AltitudeMeters>1300</AltitudeMeters>
            <DistanceMeters>NAN</DistanceMeters>
          </Trackpoint>
          <Trackpoint>
            <Time>2019-08-01T11:44:24.000Z</Time>
            <Position>
              <LatitudeDegrees>40.73788094334304332733154296875</LatitudeDegrees>
              <LongitudeDegrees>-4.026084579527378082275390625</LongitudeDegrees>
            </Position>
            <AltitudeMeters>1300.199951171875</AltitudeMeters>
            <DistanceMeters>NAN</DistanceMeters>
          </Trackpoint>
          <Trackpoint>
            <Time>2019-08-01T11:44:25.000Z</Time>
            <Position>
              <LatitudeDegrees>40.737905167043209075927734375</LatitudeDegrees>
              <LongitudeDegrees>-4.02611265890300273895263671875</LongitudeDegrees>
            </Position>
            <AltitudeMeters>1300.5999755859375</AltitudeMeters>
            <DistanceMeters>NAN</DistanceMeters>
          </Trackpoint>
          <Trackpoint>
            <Time>2019-08-01T11:44:26.000Z</Time>
            <Position>
              <LatitudeDegrees>40.73792922310531139373779296875</LatitudeDegrees>
              <LongitudeDegrees>-4.02613998390734195709228515625</LongitudeDegrees>
            </Position>
            <AltitudeMeters>1300.800048828125</AltitudeMeters>
            <DistanceMeters>NAN</DistanceMeters>
          </Trackpoint>
          <Trackpoint>
            <Time>2019-08-01T11:44:27.000Z</Time>
            <Position>
              <LatitudeDegrees>40.73795386590063571929931640625</LatitudeDegrees>
              <LongitudeDegrees>-4.02616596780717372894287109375</LongitudeDegrees>
            </Position>
            <AltitudeMeters>1301</AltitudeMeters>
            <DistanceMeters>NAN</DistanceMeters>
          </Trackpoint>
          <Trackpoint>
            <Time>2019-08-01T11:44:28.000Z</Time>
            <Position>
              <LatitudeDegrees>40.73797850869596004486083984375</LatitudeDegrees>
              <LongitudeDegrees>-4.0261920355260372161865234375</LongitudeDegrees>
            </Position>
            <AltitudeMeters>1301.199951171875</AltitudeMeters>
            <DistanceMeters>NAN</DistanceMeters>
          </Trackpoint>
          <Trackpoint>
            <Time>2019-08-01T11:44:29.000Z</Time>
            <Position>
              <LatitudeDegrees>40.738003738224506378173828125</LatitudeDegrees>
              <LongitudeDegrees>-4.02621642686426639556884765625</LongitudeDegrees>
            </Position>
            <AltitudeMeters>1301.199951171875</AltitudeMeters>
            <DistanceMeters>NAN</DistanceMeters>
          </Trackpoint>
          <Trackpoint>
            <Time>2019-08-01T11:44:30.000Z</Time>
            <Position>
              <LatitudeDegrees>40.7380293868482112884521484375</LatitudeDegrees>
              <LongitudeDegrees>-4.02624090202152729034423828125</LongitudeDegrees>
            </Position>
            <AltitudeMeters>1301.4000244140625</AltitudeMeters>
            <DistanceMeters>NAN</DistanceMeters>
          </Trackpoint>
          <Trackpoint>
            <Time>2019-08-01T11:44:31.000Z</Time>
            <Position>
              <LatitudeDegrees>40.73805545456707477569580078125</LatitudeDegrees>
              <LongitudeDegrees>-4.02626462280750274658203125</LongitudeDegrees>
            </Position>
            <AltitudeMeters>1301.800048828125</AltitudeMeters>
            <DistanceMeters>NAN</DistanceMeters>
          </Trackpoint>
          <Trackpoint>
            <Time>2019-08-01T11:44:32.000Z</Time>
            <Position>
              <LatitudeDegrees>40.7380820252001285552978515625</LatitudeDegrees>
              <LongitudeDegrees>-4.026288092136383056640625</LongitudeDegrees>
            </Position>
            <AltitudeMeters>1302</AltitudeMeters>
            <DistanceMeters>NAN</DistanceMeters>
          </Trackpoint>
          <Trackpoint>
            <Time>2019-08-01T11:44:33.000Z</Time>
            <Position>
              <LatitudeDegrees>40.73810859583318233489990234375</LatitudeDegrees>
              <LongitudeDegrees>-4.02631231583654880523681640625</LongitudeDegrees>
            </Position>
            <AltitudeMeters>1302.199951171875</AltitudeMeters>
            <DistanceMeters>NAN</DistanceMeters>
          </Trackpoint>
          <Trackpoint>
            <Time>2019-08-01T11:44:34.000Z</Time>
            <Position>
              <LatitudeDegrees>40.73813541792333126068115234375</LatitudeDegrees>
              <LongitudeDegrees>-4.0263355337083339691162109375</LongitudeDegrees>
            </Position>
            <AltitudeMeters>1302.5999755859375</AltitudeMeters>
            <DistanceMeters>NAN</DistanceMeters>
          </Trackpoint>
          <Trackpoint>
            <Time>2019-08-01T11:44:35.000Z</Time>
            <Position>
              <LatitudeDegrees>40.73816341347992420196533203125</LatitudeDegrees>
              <LongitudeDegrees>-4.0263573266565799713134765625</LongitudeDegrees>
            </Position>
            <AltitudeMeters>1302.800048828125</AltitudeMeters>
            <DistanceMeters>NAN</DistanceMeters>
          </Trackpoint>
          <Trackpoint>
            <Time>2019-08-01T11:44:36.000Z</Time>
            <Position>
              <LatitudeDegrees>40.738192163407802581787109375</LatitudeDegrees>
              <LongitudeDegrees>-4.02637727558612823486328125</LongitudeDegrees>
            </Position>
            <AltitudeMeters>1303</AltitudeMeters>
            <DistanceMeters>NAN</DistanceMeters>
          </Trackpoint>
          <Trackpoint>
            <Time>2019-08-01T11:44:37.000Z</Time>
            <Position>
              <LatitudeDegrees>40.73822041042149066925048828125</LatitudeDegrees>
              <LongitudeDegrees>-4.02639730833470821380615234375</LongitudeDegrees>
            </Position>
            <AltitudeMeters>1303.4000244140625</AltitudeMeters>
            <DistanceMeters>NAN</DistanceMeters>
          </Trackpoint>
          <Trackpoint>
            <Time>2019-08-01T11:44:38.000Z</Time>
            <Position>
              <LatitudeDegrees>40.73824874125421047210693359375</LatitudeDegrees>
              <LongitudeDegrees>-4.02641750872135162353515625</LongitudeDegrees>
            </Position>
            <AltitudeMeters>1303.5999755859375</AltitudeMeters>
            <DistanceMeters>NAN</DistanceMeters>
          </Trackpoint>
          <Trackpoint>
            <Time>2019-08-01T11:44:39.000Z</Time>
            <Position>
              <LatitudeDegrees>40.73827723972499370574951171875</LatitudeDegrees>
              <LongitudeDegrees>-4.02643804438412189483642578125</LongitudeDegrees>
            </Position>
            <AltitudeMeters>1303.5999755859375</AltitudeMeters>
            <DistanceMeters>NAN</DistanceMeters>
          </Trackpoint>
          <Trackpoint>
            <Time>2019-08-01T11:44:40.000Z</Time>
            <Position>
              <LatitudeDegrees>40.738306157290935516357421875</LatitudeDegrees>
              <LongitudeDegrees>-4.02645849622786045074462890625</LongitudeDegrees>
            </Position>
            <AltitudeMeters>1304.4000244140625</AltitudeMeters>
            <DistanceMeters>NAN</DistanceMeters>
          </Trackpoint>
          <Trackpoint>
            <Time>2019-08-01T11:44:41.000Z</Time>
            <Position>
              <LatitudeDegrees>40.7383351586759090423583984375</LatitudeDegrees>
              <LongitudeDegrees>-4.02647844515740871429443359375</LongitudeDegrees>
            </Position>
            <AltitudeMeters>1304.5999755859375</AltitudeMeters>
            <DistanceMeters>NAN</DistanceMeters>
          </Trackpoint>
          <Trackpoint>
            <Time>2019-08-01T11:44:42.000Z</Time>
            <Position>
              <LatitudeDegrees>40.73836348950862884521484375</LatitudeDegrees>
              <LongitudeDegrees>-4.0264981426298618316650390625</LongitudeDegrees>
            </Position>
            <AltitudeMeters>1304.800048828125</AltitudeMeters>
            <DistanceMeters>NAN</DistanceMeters>
          </Trackpoint>
          <Trackpoint>
            <Time>2019-08-01T11:44:43.000Z</Time>
            <Position>
              <LatitudeDegrees>40.73839106597006320953369140625</LatitudeDegrees>
              <LongitudeDegrees>-4.0265185944736003875732421875</LongitudeDegrees>
            </Position>
            <AltitudeMeters>1305</AltitudeMeters>
            <DistanceMeters>NAN</DistanceMeters>
          </Trackpoint>
          <Trackpoint>
            <Time>2019-08-01T11:44:44.000Z</Time>
            <Position>
              <LatitudeDegrees>40.7384179718792438507080078125</LatitudeDegrees>
              <LongitudeDegrees>-4.02653829194605350494384765625</LongitudeDegrees>
            </Position>
            <AltitudeMeters>1305</AltitudeMeters>
            <DistanceMeters>NAN</DistanceMeters>
          </Trackpoint>
          <Trackpoint>
            <Time>2019-08-01T11:44:45.000Z</Time>
            <Position>
              <LatitudeDegrees>40.738444626331329345703125</LatitudeDegrees>
              <LongitudeDegrees>-4.02655706740915775299072265625</LongitudeDegrees>
            </Position>
            <AltitudeMeters>1305.199951171875</AltitudeMeters>
            <DistanceMeters>NAN</DistanceMeters>
          </Trackpoint>
          <Trackpoint>
            <Time>2019-08-01T11:44:46.000Z</Time>
            <Position>
              <LatitudeDegrees>40.7384729571640491485595703125</LatitudeDegrees>
              <LongitudeDegrees>-4.0265764296054840087890625</LongitudeDegrees>
            </Position>
            <AltitudeMeters>1305.4000244140625</AltitudeMeters>
            <DistanceMeters>NAN</DistanceMeters>
          </Trackpoint>
          <Trackpoint>
            <Time>2019-08-01T11:44:47.000Z</Time>
            <Position>
              <LatitudeDegrees>40.73850204236805438995361328125</LatitudeDegrees>
              <LongitudeDegrees>-4.02659587562084197998046875</LongitudeDegrees>
            </Position>
            <AltitudeMeters>1305.5999755859375</AltitudeMeters>
            <DistanceMeters>NAN</DistanceMeters>
          </Trackpoint>
          <Trackpoint>
            <Time>2019-08-01T11:44:48.000Z</Time>
            <Position>
              <LatitudeDegrees>40.73853154666721820831298828125</LatitudeDegrees>
              <LongitudeDegrees>-4.026614986360073089599609375</LongitudeDegrees>
            </Position>
            <AltitudeMeters>1306</AltitudeMeters>
            <DistanceMeters>NAN</DistanceMeters>
          </Trackpoint>
          <Trackpoint>
            <Time>2019-08-01T11:44:49.000Z</Time>
            <Position>
              <LatitudeDegrees>40.7385604642331600189208984375</LatitudeDegrees>
              <LongitudeDegrees>-4.0266346000134944915771484375</LongitudeDegrees>
            </Position>
            <AltitudeMeters>1306.199951171875</AltitudeMeters>
            <DistanceMeters>NAN</DistanceMeters>
          </Trackpoint>
          <Trackpoint>
            <Time>2019-08-01T11:44:50.000Z</Time>
            <Position>
              <LatitudeDegrees>40.73858954943716526031494140625</LatitudeDegrees>
              <LongitudeDegrees>-4.02665379457175731658935546875</LongitudeDegrees>
            </Position>
            <AltitudeMeters>1306.199951171875</AltitudeMeters>
            <DistanceMeters>NAN</DistanceMeters>
          </Trackpoint>
          <Trackpoint>
            <Time>2019-08-01T11:44:51.000Z</Time>
            <Position>
              <LatitudeDegrees>40.73861896991729736328125</LatitudeDegrees>
              <LongitudeDegrees>-4.02667231857776641845703125</LongitudeDegrees>
            </Position>
            <AltitudeMeters>1306.4000244140625</AltitudeMeters>
            <DistanceMeters>NAN</DistanceMeters>
          </Trackpoint>
          <Trackpoint>
            <Time>2019-08-01T11:44:52.000Z</Time>
            <Position>
              <LatitudeDegrees>40.73864805512130260467529296875</LatitudeDegrees>
              <LongitudeDegrees>-4.0266909264028072357177734375</LongitudeDegrees>
            </Position>
            <AltitudeMeters>1306.199951171875</AltitudeMeters>
            <DistanceMeters>NAN</DistanceMeters>
          </Trackpoint>
          <Trackpoint>
            <Time>2019-08-01T11:44:53.000Z</Time>
            <Position>
              <LatitudeDegrees>40.73867755942046642303466796875</LatitudeDegrees>
              <LongitudeDegrees>-4.02670995332300662994384765625</LongitudeDegrees>
            </Position>
            <AltitudeMeters>1306.5999755859375</AltitudeMeters>
            <DistanceMeters>NAN</DistanceMeters>
          </Trackpoint>
          <Trackpoint>
            <Time>2019-08-01T11:44:54.000Z</Time>
            <Position>
              <LatitudeDegrees>40.73870739899575710296630859375</LatitudeDegrees>
              <LongitudeDegrees>-4.02672872878611087799072265625</LongitudeDegrees>
            </Position>
            <AltitudeMeters>1306.800048828125</AltitudeMeters>
            <DistanceMeters>NAN</DistanceMeters>
          </Trackpoint>
          <Trackpoint>
            <Time>2019-08-01T11:44:55.000Z</Time>
            <Position>
              <LatitudeDegrees>40.73873723857104778289794921875</LatitudeDegrees>
              <LongitudeDegrees>-4.02674742043018341064453125</LongitudeDegrees>
            </Position>
            <AltitudeMeters>1307</AltitudeMeters>
            <DistanceMeters>NAN</DistanceMeters>
          </Trackpoint>
          <Trackpoint>
            <Time>2019-08-01T11:44:56.000Z</Time>
            <Position>
              <LatitudeDegrees>40.7387666590511798858642578125</LatitudeDegrees>
              <LongitudeDegrees>-4.0267663635313510894775390625</LongitudeDegrees>
            </Position>
            <AltitudeMeters>1307.199951171875</AltitudeMeters>
            <DistanceMeters>NAN</DistanceMeters>
          </Trackpoint>
          <Trackpoint>
            <Time>2019-08-01T11:44:57.000Z</Time>
            <Position>
              <LatitudeDegrees>40.73879624716937541961669921875</LatitudeDegrees>
              <LongitudeDegrees>-4.02678522281348705291748046875</LongitudeDegrees>
            </Position>
            <AltitudeMeters>1307.4000244140625</AltitudeMeters>
            <DistanceMeters>NAN</DistanceMeters>
          </Trackpoint>
          <Trackpoint>
            <Time>2019-08-01T11:44:58.000Z</Time>
            <Position>
              <LatitudeDegrees>40.738825835287570953369140625</LatitudeDegrees>
              <LongitudeDegrees>-4.0268039144575595855712890625</LongitudeDegrees>
            </Position>
            <AltitudeMeters>1307.5999755859375</AltitudeMeters>
            <DistanceMeters>NAN</DistanceMeters>
          </Trackpoint>
          <Trackpoint>
            <Time>2019-08-01T11:44:59.000Z</Time>
            <Position>
              <LatitudeDegrees>40.738855339586734771728515625</LatitudeDegrees>
              <LongitudeDegrees>-4.0268218517303466796875</LongitudeDegrees>
            </Position>
            <AltitudeMeters>1307.5999755859375</AltitudeMeters>
            <DistanceMeters>NAN</DistanceMeters>
          </Trackpoint>
          <Trackpoint>
            <Time>2019-08-01T11:45:00.000Z</Time>
            <Position>
              <LatitudeDegrees>40.73888442479074001312255859375</LatitudeDegrees>
              <LongitudeDegrees>-4.02684054337441921234130859375</LongitudeDegrees>
            </Position>
            <AltitudeMeters>1307.800048828125</AltitudeMeters>
            <DistanceMeters>NAN</DistanceMeters>
          </Trackpoint>
          <Trackpoint>
            <Time>2019-08-01T11:45:01.000Z</Time>
            <Position>
              <LatitudeDegrees>40.73888442479074001312255859375</LatitudeDegrees>
              <LongitudeDegrees>-4.02684054337441921234130859375</LongitudeDegrees>
            </Position>
            <AltitudeMeters>1308.199951171875</AltitudeMeters>
            <DistanceMeters>NAN</DistanceMeters>
          </Trackpoint>
          <Trackpoint>
            <Time>2019-08-01T11:45:02.000Z</Time>
            <Position>
              <LatitudeDegrees>40.7389386557042598724365234375</LatitudeDegrees>
              <LongitudeDegrees>-4.02687692083418369293212890625</LongitudeDegrees>
            </Position>
            <AltitudeMeters>1308.4000244140625</AltitudeMeters>
            <DistanceMeters>NAN</DistanceMeters>
          </Trackpoint>
          <Trackpoint>
            <Time>2019-08-01T11:45:03.000Z</Time>
            <Position>
              <LatitudeDegrees>40.738965980708599090576171875</LatitudeDegrees>
              <LongitudeDegrees>-4.02689502574503421783447265625</LongitudeDegrees>
            </Position>
            <AltitudeMeters>1308.5999755859375</AltitudeMeters>
            <DistanceMeters>NAN</DistanceMeters>
          </Trackpoint>
          <Trackpoint>
            <Time>2019-08-01T11:45:04.000Z</Time>
            <Position>
              <LatitudeDegrees>40.73899439536035060882568359375</LatitudeDegrees>
              <LongitudeDegrees>-4.02691447176039218902587890625</LongitudeDegrees>
            </Position>
            <AltitudeMeters>1308.800048828125</AltitudeMeters>
            <DistanceMeters>NAN</DistanceMeters>
          </Trackpoint>
          <Trackpoint>
            <Time>2019-08-01T11:45:05.000Z</Time>
            <Position>
              <LatitudeDegrees>40.7390224747359752655029296875</LatitudeDegrees>
              <LongitudeDegrees>-4.0269358456134796142578125</LongitudeDegrees>
            </Position>
            <AltitudeMeters>1308.800048828125</AltitudeMeters>
            <DistanceMeters>NAN</DistanceMeters>
          </Trackpoint>
          <Trackpoint>
            <Time>2019-08-01T11:45:06.000Z</Time>
            <Position>
              <LatitudeDegrees>40.73904971592128276824951171875</LatitudeDegrees>
              <LongitudeDegrees>-4.02695663273334503173828125</LongitudeDegrees>
            </Position>
            <AltitudeMeters>1309</AltitudeMeters>
            <DistanceMeters>NAN</DistanceMeters>
          </Trackpoint>
          <Trackpoint>
            <Time>2019-08-01T11:45:07.000Z</Time>
            <Position>
              <LatitudeDegrees>40.739077962934970855712890625</LatitudeDegrees>
              <LongitudeDegrees>-4.026974402368068695068359375</LongitudeDegrees>
            </Position>
            <AltitudeMeters>1309.199951171875</AltitudeMeters>
            <DistanceMeters>NAN</DistanceMeters>
          </Trackpoint>
          <Trackpoint>
            <Time>2019-08-01T11:45:08.000Z</Time>
            <Position>
              <LatitudeDegrees>40.73910671286284923553466796875</LatitudeDegrees>
              <LongitudeDegrees>-4.02699124999344348907470703125</LongitudeDegrees>
            </Position>
            <AltitudeMeters>1310</AltitudeMeters>
            <DistanceMeters>NAN</DistanceMeters>
          </Trackpoint>
          <Trackpoint>
            <Time>2019-08-01T11:45:09.000Z</Time>
            <Position>
              <LatitudeDegrees>40.73913537897169589996337890625</LatitudeDegrees>
              <LongitudeDegrees>-4.02700969018042087554931640625</LongitudeDegrees>
            </Position>
            <AltitudeMeters>1310.199951171875</AltitudeMeters>
            <DistanceMeters>NAN</DistanceMeters>
          </Trackpoint>
          <Trackpoint>
            <Time>2019-08-01T11:45:10.000Z</Time>
            <Position>
              <LatitudeDegrees>40.7391639612615108489990234375</LatitudeDegrees>
              <LongitudeDegrees>-4.02702813036739826202392578125</LongitudeDegrees>
            </Position>
            <AltitudeMeters>1310.4000244140625</AltitudeMeters>
            <DistanceMeters>NAN</DistanceMeters>
          </Trackpoint>
          <Trackpoint>
            <Time>2019-08-01T11:45:11.000Z</Time>
            <Position>
              <LatitudeDegrees>40.73919321410357952117919921875</LatitudeDegrees>
              <LongitudeDegrees>-4.02704514563083648681640625</LongitudeDegrees>
            </Position>
            <AltitudeMeters>1310.800048828125</AltitudeMeters>
            <DistanceMeters>NAN</DistanceMeters>
          </Trackpoint>
          <Trackpoint>
            <Time>2019-08-01T11:45:12.000Z</Time>
            <Position>
              <LatitudeDegrees>40.7392238080501556396484375</LatitudeDegrees>
              <LongitudeDegrees>-4.027060233056545257568359375</LongitudeDegrees>
            </Position>
            <AltitudeMeters>1311</AltitudeMeters>
            <DistanceMeters>NAN</DistanceMeters>
          </Trackpoint>
          <Trackpoint>
            <Time>2019-08-01T11:45:13.000Z</Time>
            <Position>
              <LatitudeDegrees>40.73925398290157318115234375</LatitudeDegrees>
              <LongitudeDegrees>-4.02707397937774658203125</LongitudeDegrees>
            </Position>
            <AltitudeMeters>1311.199951171875</AltitudeMeters>
            <DistanceMeters>NAN</DistanceMeters>
          </Trackpoint>
          <Trackpoint>
            <Time>2019-08-01T11:45:14.000Z</Time>
            <Position>
              <LatitudeDegrees>40.73928424157202243804931640625</LatitudeDegrees>
              <LongitudeDegrees>-4.027087390422821044921875</LongitudeDegrees>
            </Position>
            <AltitudeMeters>1311.4000244140625</AltitudeMeters>
            <DistanceMeters>NAN</DistanceMeters>
          </Trackpoint>
          <Trackpoint>
            <Time>2019-08-01T11:45:15.000Z</Time>
            <Position>
              <LatitudeDegrees>40.73931433260440826416015625</LatitudeDegrees>
              <LongitudeDegrees>-4.0271008014678955078125</LongitudeDegrees>
            </Position>
            <AltitudeMeters>1311.5999755859375</AltitudeMeters>
            <DistanceMeters>NAN</DistanceMeters>
          </Trackpoint>
          <Trackpoint>
            <Time>2019-08-01T11:45:16.000Z</Time>
            <Position>
              <LatitudeDegrees>40.739344842731952667236328125</LatitudeDegrees>
              <LongitudeDegrees>-4.0271133743226528167724609375</LongitudeDegrees>
            </Position>
            <AltitudeMeters>1312</AltitudeMeters>
            <DistanceMeters>NAN</DistanceMeters>
          </Trackpoint>
          <Trackpoint>
            <Time>2019-08-01T11:45:17.000Z</Time>
            <Position>
              <LatitudeDegrees>40.7393758557736873626708984375</LatitudeDegrees>
              <LongitudeDegrees>-4.027125276625156402587890625</LongitudeDegrees>
            </Position>
            <AltitudeMeters>1312.199951171875</AltitudeMeters>
            <DistanceMeters>NAN</DistanceMeters>
          </Trackpoint>
          <Trackpoint>
            <Time>2019-08-01T11:45:18.000Z</Time>
            <Position>
              <LatitudeDegrees>40.7394087128341197967529296875</LatitudeDegrees>
              <LongitudeDegrees>-4.027135334908962249755859375</LongitudeDegrees>
            </Position>
            <AltitudeMeters>1312.4000244140625</AltitudeMeters>
            <DistanceMeters>NAN</DistanceMeters>
          </Trackpoint>
          <Trackpoint>
            <Time>2019-08-01T11:45:19.000Z</Time>
            <Position>
              <LatitudeDegrees>40.73944098316133022308349609375</LatitudeDegrees>
              <LongitudeDegrees>-4.0271448902785778045654296875</LongitudeDegrees>
            </Position>
            <AltitudeMeters>1312.5999755859375</AltitudeMeters>
            <DistanceMeters>NAN</DistanceMeters>
          </Trackpoint>
          <Trackpoint>
            <Time>2019-08-01T11:45:20.000Z</Time>
            <Position>
              <LatitudeDegrees>40.73947316966950893402099609375</LatitudeDegrees>
              <LongitudeDegrees>-4.02715134434401988983154296875</LongitudeDegrees>
            </Position>
            <AltitudeMeters>1312.800048828125</AltitudeMeters>
            <DistanceMeters>NAN</DistanceMeters>
          </Trackpoint>
          <Trackpoint>
            <Time>2019-08-01T11:45:21.000Z</Time>
            <Position>
              <LatitudeDegrees>40.7395049370825290679931640625</LatitudeDegrees>
              <LongitudeDegrees>-4.02715570293366909027099609375</LongitudeDegrees>
            </Position>
            <AltitudeMeters>1313.199951171875</AltitudeMeters>
            <DistanceMeters>NAN</DistanceMeters>
          </Trackpoint>
          <Trackpoint>
            <Time>2019-08-01T11:45:22.000Z</Time>
            <Position>
              <LatitudeDegrees>40.73953670449554920196533203125</LatitudeDegrees>
              <LongitudeDegrees>-4.02715737931430339813232421875</LongitudeDegrees>
            </Position>
            <AltitudeMeters>1313.4000244140625</AltitudeMeters>
            <DistanceMeters>NAN</DistanceMeters>
          </Trackpoint>
          <Trackpoint>
            <Time>2019-08-01T11:45:23.000Z</Time>
            <Position>
              <LatitudeDegrees>40.73953670449554920196533203125</LatitudeDegrees>
              <LongitudeDegrees>-4.02715737931430339813232421875</LongitudeDegrees>
            </Position>
            <AltitudeMeters>1313.4000244140625</AltitudeMeters>
            <DistanceMeters>NAN</DistanceMeters>
          </Trackpoint>
          <Trackpoint>
            <Time>2019-08-01T11:45:24.000Z</Time>
            <Position>
              <LatitudeDegrees>40.73959998786449432373046875</LatitudeDegrees>
              <LongitudeDegrees>-4.02715620584785938262939453125</LongitudeDegrees>
            </Position>
            <AltitudeMeters>1313.800048828125</AltitudeMeters>
            <DistanceMeters>NAN</DistanceMeters>
          </Trackpoint>
          <Trackpoint>
            <Time>2019-08-01T11:45:25.000Z</Time>
            <Position>
              <LatitudeDegrees>40.7396313361823558807373046875</LatitudeDegrees>
              <LongitudeDegrees>-4.02715520001947879791259765625</LongitudeDegrees>
            </Position>
            <AltitudeMeters>1314</AltitudeMeters>
            <DistanceMeters>NAN</DistanceMeters>
          </Trackpoint>
          <Trackpoint>
            <Time>2019-08-01T11:45:26.000Z</Time>
            <Position>
              <LatitudeDegrees>40.73966260068118572235107421875</LatitudeDegrees>
              <LongitudeDegrees>-4.02715285308659076690673828125</LongitudeDegrees>
            </Position>
            <AltitudeMeters>1314.4000244140625</AltitudeMeters>
            <DistanceMeters>NAN</DistanceMeters>
          </Trackpoint>
          <Trackpoint>
            <Time>2019-08-01T11:45:27.000Z</Time>
            <Position>
              <LatitudeDegrees>40.73969411663711071014404296875</LatitudeDegrees>
              <LongitudeDegrees>-4.02714933268725872039794921875</LongitudeDegrees>
            </Position>
            <AltitudeMeters>1314.4000244140625</AltitudeMeters>
            <DistanceMeters>NAN</DistanceMeters>
          </Trackpoint>
          <Trackpoint>
            <Time>2019-08-01T11:45:28.000Z</Time>
            <Position>
              <LatitudeDegrees>40.73972546495497226715087890625</LatitudeDegrees>
              <LongitudeDegrees>-4.02714631520211696624755859375</LongitudeDegrees>
            </Position>
            <AltitudeMeters>1314.800048828125</AltitudeMeters>
            <DistanceMeters>NAN</DistanceMeters>
          </Trackpoint>
          <Trackpoint>
            <Time>2019-08-01T11:45:29.000Z</Time>
            <Position>
              <LatitudeDegrees>40.73975681327283382415771484375</LatitudeDegrees>
              <LongitudeDegrees>-4.02714363299310207366943359375</LongitudeDegrees>
            </Position>
            <AltitudeMeters>1315</AltitudeMeters>
            <DistanceMeters>NAN</DistanceMeters>
          </Trackpoint>
          <Trackpoint>
            <Time>2019-08-01T11:45:30.000Z</Time>
            <Position>
              <LatitudeDegrees>40.739788748323917388916015625</LatitudeDegrees>
              <LongitudeDegrees>-4.0271396934986114501953125</LongitudeDegrees>
            </Position>
            <AltitudeMeters>1315.4000244140625</AltitudeMeters>
            <DistanceMeters>NAN</DistanceMeters>
          </Trackpoint>
          <Trackpoint>
            <Time>2019-08-01T11:45:31.000Z</Time>
            <Position>
              <LatitudeDegrees>40.73982059955596923828125</LatitudeDegrees>
              <LongitudeDegrees>-4.02713407762348651885986328125</LongitudeDegrees>
            </Position>
            <AltitudeMeters>1315.4000244140625</AltitudeMeters>
            <DistanceMeters>NAN</DistanceMeters>
          </Trackpoint>
          <Trackpoint>
            <Time>2019-08-01T11:45:32.000Z</Time>
            <Position>
              <LatitudeDegrees>40.73985211551189422607421875</LatitudeDegrees>
              <LongitudeDegrees>-4.0271287970244884490966796875</LongitudeDegrees>
            </Position>
            <AltitudeMeters>1315.5999755859375</AltitudeMeters>
            <DistanceMeters>NAN</DistanceMeters>
          </Trackpoint>
          <Trackpoint>
            <Time>2019-08-01T11:45:33.000Z</Time>
            <Position>
              <LatitudeDegrees>40.73985211551189422607421875</LatitudeDegrees>
              <LongitudeDegrees>-4.0271287970244884490966796875</LongitudeDegrees>
            </Position>
            <AltitudeMeters>1316</AltitudeMeters>
            <DistanceMeters>NAN</DistanceMeters>
          </Trackpoint>
          <Trackpoint>
            <Time>2019-08-01T11:45:34.000Z</Time>
            <Position>
              <LatitudeDegrees>40.7399146445095539093017578125</LatitudeDegrees>
              <LongitudeDegrees>-4.02712049894034862518310546875</LongitudeDegrees>
            </Position>
            <AltitudeMeters>1316.4000244140625</AltitudeMeters>
            <DistanceMeters>NAN</DistanceMeters>
          </Trackpoint>
          <Trackpoint>
            <Time>2019-08-01T11:45:35.000Z</Time>
            <Position>
              <LatitudeDegrees>40.73994557373225688934326171875</LatitudeDegrees>
              <LongitudeDegrees>-4.02711488306522369384765625</LongitudeDegrees>
            </Position>
            <AltitudeMeters>1316.5999755859375</AltitudeMeters>
            <DistanceMeters>NAN</DistanceMeters>
          </Trackpoint>
          <Trackpoint>
            <Time>2019-08-01T11:45:36.000Z</Time>
            <Position>
              <LatitudeDegrees>40.7399760000407695770263671875</LatitudeDegrees>
              <LongitudeDegrees>-4.02711027301847934722900390625</LongitudeDegrees>
            </Position>
            <AltitudeMeters>1317.4000244140625</AltitudeMeters>
            <DistanceMeters>NAN</DistanceMeters>
          </Trackpoint>
          <Trackpoint>
            <Time>2019-08-01T11:45:37.000Z</Time>
            <Position>
              <LatitudeDegrees>40.7400065101683139801025390625</LatitudeDegrees>
              <LongitudeDegrees>-4.02710608206689357757568359375</LongitudeDegrees>
            </Position>
            <AltitudeMeters>1317.5999755859375</AltitudeMeters>
            <DistanceMeters>NAN</DistanceMeters>
          </Trackpoint>
          <Trackpoint>
            <Time>2019-08-01T11:45:38.000Z</Time>
            <Position>
              <LatitudeDegrees>40.7400366850197315216064453125</LatitudeDegrees>
              <LongitudeDegrees>-4.02710088528692722320556640625</LongitudeDegrees>
            </Position>
            <AltitudeMeters>1317.800048828125</AltitudeMeters>
            <DistanceMeters>NAN</DistanceMeters>
          </Trackpoint>
          <Trackpoint>
            <Time>2019-08-01T11:45:39.000Z</Time>
            <Position>
              <LatitudeDegrees>40.74006736278533935546875</LatitudeDegrees>
              <LongitudeDegrees>-4.02709568850696086883544921875</LongitudeDegrees>
            </Position>
            <AltitudeMeters>1318</AltitudeMeters>
            <DistanceMeters>NAN</DistanceMeters>
          </Trackpoint>
          <Trackpoint>
            <Time>2019-08-01T11:45:40.000Z</Time>
            <Position>
              <LatitudeDegrees>40.740098543465137481689453125</LatitudeDegrees>
              <LongitudeDegrees>-4.0270899049937725067138671875</LongitudeDegrees>
            </Position>
            <AltitudeMeters>1318.199951171875</AltitudeMeters>
            <DistanceMeters>NAN</DistanceMeters>
          </Trackpoint>
          <Trackpoint>
            <Time>2019-08-01T11:45:41.000Z</Time>
            <Position>
              <LatitudeDegrees>40.74012964032590389251708984375</LatitudeDegrees>
              <LongitudeDegrees>-4.02708227746188640594482421875</LongitudeDegrees>
            </Position>
            <AltitudeMeters>1318.4000244140625</AltitudeMeters>
            <DistanceMeters>NAN</DistanceMeters>
          </Trackpoint>
          <Trackpoint>
            <Time>2019-08-01T11:45:42.000Z</Time>
            <Position>
              <LatitudeDegrees>40.74016065336763858795166015625</LatitudeDegrees>
              <LongitudeDegrees>-4.0270741470158100128173828125</LongitudeDegrees>
            </Position>
            <AltitudeMeters>1318.5999755859375</AltitudeMeters>
            <DistanceMeters>NAN</DistanceMeters>
          </Trackpoint>
          <Trackpoint>
            <Time>2019-08-01T11:45:43.000Z</Time>
            <Position>
              <LatitudeDegrees>40.7401915825903415679931640625</LatitudeDegrees>
              <LongitudeDegrees>-4.0270657651126384735107421875</LongitudeDegrees>
            </Position>
            <AltitudeMeters>1319</AltitudeMeters>
            <DistanceMeters>NAN</DistanceMeters>
          </Trackpoint>
          <Trackpoint>
            <Time>2019-08-01T11:45:44.000Z</Time>
            <Position>
              <LatitudeDegrees>40.74022217653691768646240234375</LatitudeDegrees>
              <LongitudeDegrees>-4.0270553715527057647705078125</LongitudeDegrees>
            </Position>
            <AltitudeMeters>1319.199951171875</AltitudeMeters>
            <DistanceMeters>NAN</DistanceMeters>
          </Trackpoint>
          <Trackpoint>
            <Time>2019-08-01T11:45:45.000Z</Time>
            <Position>
              <LatitudeDegrees>40.74022217653691768646240234375</LatitudeDegrees>
              <LongitudeDegrees>-4.0270553715527057647705078125</LongitudeDegrees>
            </Position>
            <AltitudeMeters>1319.4000244140625</AltitudeMeters>
            <DistanceMeters>NAN</DistanceMeters>
          </Trackpoint>
          <Trackpoint>
            <Time>2019-08-01T11:45:46.000Z</Time>
            <Position>
              <LatitudeDegrees>40.74028202332556247711181640625</LatitudeDegrees>
              <LongitudeDegrees>-4.02703265659511089324951171875</LongitudeDegrees>
            </Position>
            <AltitudeMeters>1319.4000244140625</AltitudeMeters>
            <DistanceMeters>NAN</DistanceMeters>
          </Trackpoint>
          <Trackpoint>
            <Time>2019-08-01T11:45:47.000Z</Time>
            <Position>
              <LatitudeDegrees>40.74031169526278972625732421875</LatitudeDegrees>
              <LongitudeDegrees>-4.0270201675593852996826171875</LongitudeDegrees>
            </Position>
            <AltitudeMeters>1319.5999755859375</AltitudeMeters>
            <DistanceMeters>NAN</DistanceMeters>
          </Trackpoint>
          <Trackpoint>
            <Time>2019-08-01T11:45:48.000Z</Time>
            <Position>
              <LatitudeDegrees>40.74034153483808040618896484375</LatitudeDegrees>
              <LongitudeDegrees>-4.0270057506859302520751953125</LongitudeDegrees>
            </Position>
            <AltitudeMeters>1319.800048828125</AltitudeMeters>
            <DistanceMeters>NAN</DistanceMeters>
          </Trackpoint>
          <Trackpoint>
            <Time>2019-08-01T11:45:49.000Z</Time>
            <Position>
              <LatitudeDegrees>40.74036986567080020904541015625</LatitudeDegrees>
              <LongitudeDegrees>-4.02699024416506290435791015625</LongitudeDegrees>
            </Position>
            <AltitudeMeters>1320</AltitudeMeters>
            <DistanceMeters>NAN</DistanceMeters>
          </Trackpoint>
          <Trackpoint>
            <Time>2019-08-01T11:45:50.000Z</Time>
            <Position>
              <LatitudeDegrees>40.74039869941771030426025390625</LatitudeDegrees>
              <LongitudeDegrees>-4.02697532437741756439208984375</LongitudeDegrees>
            </Position>
            <AltitudeMeters>1320.199951171875</AltitudeMeters>
            <DistanceMeters>NAN</DistanceMeters>
          </Trackpoint>
          <Trackpoint>
            <Time>2019-08-01T11:45:51.000Z</Time>
            <Position>
              <LatitudeDegrees>40.7404279522597789764404296875</LatitudeDegrees>
              <LongitudeDegrees>-4.02695931494235992431640625</LongitudeDegrees>
            </Position>
            <AltitudeMeters>1320.4000244140625</AltitudeMeters>
            <DistanceMeters>NAN</DistanceMeters>
          </Trackpoint>
          <Trackpoint>
            <Time>2019-08-01T11:45:52.000Z</Time>
            <Position>
              <LatitudeDegrees>40.7404564507305622100830078125</LatitudeDegrees>
              <LongitudeDegrees>-4.02694112621247768402099609375</LongitudeDegrees>
            </Position>
            <AltitudeMeters>1320.5999755859375</AltitudeMeters>
            <DistanceMeters>NAN</DistanceMeters>
          </Trackpoint>
          <Trackpoint>
            <Time>2019-08-01T11:45:53.000Z</Time>
            <Position>
              <LatitudeDegrees>40.7404564507305622100830078125</LatitudeDegrees>
              <LongitudeDegrees>-4.02694112621247768402099609375</LongitudeDegrees>
            </Position>
            <AltitudeMeters>1321</AltitudeMeters>
            <DistanceMeters>NAN</DistanceMeters>
          </Trackpoint>
          <Trackpoint>
            <Time>2019-08-01T11:45:54.000Z</Time>
            <Position>
              <LatitudeDegrees>40.74051269330084323883056640625</LatitudeDegrees>
              <LongitudeDegrees>-4.02690256945788860321044921875</LongitudeDegrees>
            </Position>
            <AltitudeMeters>1321.199951171875</AltitudeMeters>
            <DistanceMeters>NAN</DistanceMeters>
          </Trackpoint>
          <Trackpoint>
            <Time>2019-08-01T11:45:55.000Z</Time>
            <Position>
              <LatitudeDegrees>40.7405402697622776031494140625</LatitudeDegrees>
              <LongitudeDegrees>-4.02688228525221347808837890625</LongitudeDegrees>
            </Position>
            <AltitudeMeters>1321.800048828125</AltitudeMeters>
            <DistanceMeters>NAN</DistanceMeters>
          </Trackpoint>
          <Trackpoint>
            <Time>2019-08-01T11:45:56.000Z</Time>
            <Position>
              <LatitudeDegrees>40.74056801386177539825439453125</LatitudeDegrees>
              <LongitudeDegrees>-4.02686166577041149139404296875</LongitudeDegrees>
            </Position>
            <AltitudeMeters>1322</AltitudeMeters>
            <DistanceMeters>NAN</DistanceMeters>
          </Trackpoint>
          <Trackpoint>
            <Time>2019-08-01T11:45:57.000Z</Time>
            <Position>
              <LatitudeDegrees>40.74059533886611461639404296875</LatitudeDegrees>
              <LongitudeDegrees>-4.02684020809829235076904296875</LongitudeDegrees>
            </Position>
            <AltitudeMeters>1322.199951171875</AltitudeMeters>
            <DistanceMeters>NAN</DistanceMeters>
          </Trackpoint>
          <Trackpoint>
            <Time>2019-08-01T11:45:58.000Z</Time>
            <Position>
              <LatitudeDegrees>40.74059533886611461639404296875</LatitudeDegrees>
              <LongitudeDegrees>-4.02684020809829235076904296875</LongitudeDegrees>
            </Position>
            <AltitudeMeters>1322.5999755859375</AltitudeMeters>
            <DistanceMeters>NAN</DistanceMeters>
          </Trackpoint>
          <Trackpoint>
            <Time>2019-08-01T11:45:59.000Z</Time>
            <Position>
              <LatitudeDegrees>40.7406485639512538909912109375</LatitudeDegrees>
              <LongitudeDegrees>-4.0267948620021343231201171875</LongitudeDegrees>
            </Position>
            <AltitudeMeters>1322.800048828125</AltitudeMeters>
            <DistanceMeters>NAN</DistanceMeters>
          </Trackpoint>
          <Trackpoint>
            <Time>2019-08-01T11:46:00.000Z</Time>
            <Position>
              <LatitudeDegrees>40.7406750507652759552001953125</LatitudeDegrees>
              <LongitudeDegrees>-4.0267727337777614593505859375</LongitudeDegrees>
            </Position>
            <AltitudeMeters>1323.199951171875</AltitudeMeters>
            <DistanceMeters>NAN</DistanceMeters>
          </Trackpoint>
          <Trackpoint>
            <Time>2019-08-01T11:46:01.000Z</Time>
            <Position>
              <LatitudeDegrees>40.7406750507652759552001953125</LatitudeDegrees>
              <LongitudeDegrees>-4.0267727337777614593505859375</LongitudeDegrees>
            </Position>
            <AltitudeMeters>1323.4000244140625</AltitudeMeters>
            <DistanceMeters>NAN</DistanceMeters>
          </Trackpoint>
          <Trackpoint>
            <Time>2019-08-01T11:46:02.000Z</Time>
            <Position>
              <LatitudeDegrees>40.7407263480126857757568359375</LatitudeDegrees>
              <LongitudeDegrees>-4.0267278067767620086669921875</LongitudeDegrees>
            </Position>
            <AltitudeMeters>1323.5999755859375</AltitudeMeters>
            <DistanceMeters>NAN</DistanceMeters>
          </Trackpoint>
          <Trackpoint>
            <Time>2019-08-01T11:46:03.000Z</Time>
            <Position>
              <LatitudeDegrees>40.74075224809348583221435546875</LatitudeDegrees>
              <LongitudeDegrees>-4.0267063491046428680419921875</LongitudeDegrees>
            </Position>
            <AltitudeMeters>1323.800048828125</AltitudeMeters>
            <DistanceMeters>NAN</DistanceMeters>
          </Trackpoint>
          <Trackpoint>
            <Time>2019-08-01T11:46:04.000Z</Time>
            <Position>
              <LatitudeDegrees>40.7407779805362224578857421875</LatitudeDegrees>
              <LongitudeDegrees>-4.0266842208802700042724609375</LongitudeDegrees>
            </Position>
            <AltitudeMeters>1324.199951171875</AltitudeMeters>
            <DistanceMeters>NAN</DistanceMeters>
          </Trackpoint>
          <Trackpoint>
            <Time>2019-08-01T11:46:05.000Z</Time>
            <Position>
              <LatitudeDegrees>40.74080421589314937591552734375</LatitudeDegrees>
              <LongitudeDegrees>-4.0266630984842777252197265625</LongitudeDegrees>
            </Position>
            <AltitudeMeters>1324.5999755859375</AltitudeMeters>
            <DistanceMeters>NAN</DistanceMeters>
          </Trackpoint>
          <Trackpoint>
            <Time>2019-08-01T11:46:06.000Z</Time>
            <Position>
              <LatitudeDegrees>40.74083053506910800933837890625</LatitudeDegrees>
              <LongitudeDegrees>-4.02664205990731716156005859375</LongitudeDegrees>
            </Position>
            <AltitudeMeters>1324.800048828125</AltitudeMeters>
            <DistanceMeters>NAN</DistanceMeters>
          </Trackpoint>
          <Trackpoint>
            <Time>2019-08-01T11:46:07.000Z</Time>
            <Position>
              <LatitudeDegrees>40.740856938064098358154296875</LatitudeDegrees>
              <LongitudeDegrees>-4.026620686054229736328125</LongitudeDegrees>
            </Position>
            <AltitudeMeters>1325</AltitudeMeters>
            <DistanceMeters>NAN</DistanceMeters>
          </Trackpoint>
          <Trackpoint>
            <Time>2019-08-01T11:46:08.000Z</Time>
            <Position>
              <LatitudeDegrees>40.74088434688746929168701171875</LatitudeDegrees>
              <LongitudeDegrees>-4.02659989893436431884765625</LongitudeDegrees>
            </Position>
            <AltitudeMeters>1325.4000244140625</AltitudeMeters>
            <DistanceMeters>NAN</DistanceMeters>
          </Trackpoint>
          <Trackpoint>
            <Time>2019-08-01T11:46:09.000Z</Time>
            <Position>
              <LatitudeDegrees>40.7409117557108402252197265625</LatitudeDegrees>
              <LongitudeDegrees>-4.02657835744321346282958984375</LongitudeDegrees>
            </Position>
            <AltitudeMeters>1325.5999755859375</AltitudeMeters>
            <DistanceMeters>NAN</DistanceMeters>
          </Trackpoint>
          <Trackpoint>
            <Time>2019-08-01T11:46:10.000Z</Time>
            <Position>
              <LatitudeDegrees>40.74093866162002086639404296875</LatitudeDegrees>
              <LongitudeDegrees>-4.026555977761745452880859375</LongitudeDegrees>
            </Position>
            <AltitudeMeters>1325.800048828125</AltitudeMeters>
            <DistanceMeters>NAN</DistanceMeters>
          </Trackpoint>
          <Trackpoint>
            <Time>2019-08-01T11:46:11.000Z</Time>
            <Position>
              <LatitudeDegrees>40.74093866162002086639404296875</LatitudeDegrees>
              <LongitudeDegrees>-4.026555977761745452880859375</LongitudeDegrees>
            </Position>
            <AltitudeMeters>1325.5999755859375</AltitudeMeters>
            <DistanceMeters>NAN</DistanceMeters>
          </Trackpoint>
          <Trackpoint>
            <Time>2019-08-01T11:46:12.000Z</Time>
            <Position>
              <LatitudeDegrees>40.74099297635257244110107421875</LatitudeDegrees>
              <LongitudeDegrees>-4.02651163749396800994873046875</LongitudeDegrees>
            </Position>
            <AltitudeMeters>1325.800048828125</AltitudeMeters>
            <DistanceMeters>NAN</DistanceMeters>
          </Trackpoint>
          <Trackpoint>
            <Time>2019-08-01T11:46:13.000Z</Time>
            <Position>
              <LatitudeDegrees>40.74102013371884822845458984375</LatitudeDegrees>
              <LongitudeDegrees>-4.02648900635540485382080078125</LongitudeDegrees>
            </Position>
            <AltitudeMeters>1326</AltitudeMeters>
            <DistanceMeters>NAN</DistanceMeters>
          </Trackpoint>
          <Trackpoint>
            <Time>2019-08-01T11:46:14.000Z</Time>
            <Position>
              <LatitudeDegrees>40.741046704351902008056640625</LatitudeDegrees>
              <LongitudeDegrees>-4.02646587230265140533447265625</LongitudeDegrees>
            </Position>
            <AltitudeMeters>1326.199951171875</AltitudeMeters>
            <DistanceMeters>NAN</DistanceMeters>
          </Trackpoint>
          <Trackpoint>
            <Time>2019-08-01T11:46:15.000Z</Time>
            <Position>
              <LatitudeDegrees>40.74107386171817779541015625</LatitudeDegrees>
              <LongitudeDegrees>-4.0264421515166759490966796875</LongitudeDegrees>
            </Position>
            <AltitudeMeters>1326.5999755859375</AltitudeMeters>
            <DistanceMeters>NAN</DistanceMeters>
          </Trackpoint>
          <Trackpoint>
            <Time>2019-08-01T11:46:16.000Z</Time>
            <Position>
              <LatitudeDegrees>40.7411008514463901519775390625</LatitudeDegrees>
              <LongitudeDegrees>-4.02641859836876392364501953125</LongitudeDegrees>
            </Position>
            <AltitudeMeters>1326.800048828125</AltitudeMeters>
            <DistanceMeters>NAN</DistanceMeters>
          </Trackpoint>
          <Trackpoint>
            <Time>2019-08-01T11:46:17.000Z</Time>
            <Position>
              <LatitudeDegrees>40.74112809263169765472412109375</LatitudeDegrees>
              <LongitudeDegrees>-4.0263972245156764984130859375</LongitudeDegrees>
            </Position>
            <AltitudeMeters>1327</AltitudeMeters>
            <DistanceMeters>NAN</DistanceMeters>
          </Trackpoint>
          <Trackpoint>
            <Time>2019-08-01T11:46:18.000Z</Time>
            <Position>
              <LatitudeDegrees>40.7411563396453857421875</LatitudeDegrees>
              <LongitudeDegrees>-4.026374928653240203857421875</LongitudeDegrees>
            </Position>
            <AltitudeMeters>1327.199951171875</AltitudeMeters>
            <DistanceMeters>NAN</DistanceMeters>
          </Trackpoint>
          <Trackpoint>
            <Time>2019-08-01T11:46:19.000Z</Time>
            <Position>
              <LatitudeDegrees>40.74118358083069324493408203125</LatitudeDegrees>
              <LongitudeDegrees>-4.02635187841951847076416015625</LongitudeDegrees>
            </Position>
            <AltitudeMeters>1327.4000244140625</AltitudeMeters>
            <DistanceMeters>NAN</DistanceMeters>
          </Trackpoint>
          <Trackpoint>
            <Time>2019-08-01T11:46:20.000Z</Time>
            <Position>
              <LatitudeDegrees>40.7412094809114933013916015625</LatitudeDegrees>
              <LongitudeDegrees>-4.02632765471935272216796875</LongitudeDegrees>
            </Position>
            <AltitudeMeters>1327.4000244140625</AltitudeMeters>
            <DistanceMeters>NAN</DistanceMeters>
          </Trackpoint>
          <Trackpoint>
            <Time>2019-08-01T11:46:21.000Z</Time>
            <Position>
              <LatitudeDegrees>40.74123487807810306549072265625</LatitudeDegrees>
              <LongitudeDegrees>-4.0263026766479015350341796875</LongitudeDegrees>
            </Position>
            <AltitudeMeters>1327.5999755859375</AltitudeMeters>
            <DistanceMeters>NAN</DistanceMeters>
          </Trackpoint>
          <Trackpoint>
            <Time>2019-08-01T11:46:22.000Z</Time>
            <Position>
              <LatitudeDegrees>40.7412604428827762603759765625</LatitudeDegrees>
              <LongitudeDegrees>-4.0262771956622600555419921875</LongitudeDegrees>
            </Position>
            <AltitudeMeters>1327.800048828125</AltitudeMeters>
            <DistanceMeters>NAN</DistanceMeters>
          </Trackpoint>
          <Trackpoint>
            <Time>2019-08-01T11:46:23.000Z</Time>
            <Position>
              <LatitudeDegrees>40.74128500185906887054443359375</LatitudeDegrees>
              <LongitudeDegrees>-4.0262507088482379913330078125</LongitudeDegrees>
            </Position>
            <AltitudeMeters>1327.800048828125</AltitudeMeters>
            <DistanceMeters>NAN</DistanceMeters>
          </Trackpoint>
          <Trackpoint>
            <Time>2019-08-01T11:46:24.000Z</Time>
            <Position>
              <LatitudeDegrees>40.7413093931972980499267578125</LatitudeDegrees>
              <LongitudeDegrees>-4.026223383843898773193359375</LongitudeDegrees>
            </Position>
            <AltitudeMeters>1328.199951171875</AltitudeMeters>
            <DistanceMeters>NAN</DistanceMeters>
          </Trackpoint>
          <Trackpoint>
            <Time>2019-08-01T11:46:25.000Z</Time>
            <Position>
              <LatitudeDegrees>40.7413342036306858062744140625</LatitudeDegrees>
              <LongitudeDegrees>-4.02619631029665470123291015625</LongitudeDegrees>
            </Position>
            <AltitudeMeters>1328.5999755859375</AltitudeMeters>
            <DistanceMeters>NAN</DistanceMeters>
          </Trackpoint>
          <Trackpoint>
            <Time>2019-08-01T11:46:26.000Z</Time>
            <Position>
              <LatitudeDegrees>40.74135909788310527801513671875</LatitudeDegrees>
              <LongitudeDegrees>-4.02616940438747406005859375</LongitudeDegrees>
            </Position>
            <AltitudeMeters>1328.800048828125</AltitudeMeters>
            <DistanceMeters>NAN</DistanceMeters>
          </Trackpoint>
          <Trackpoint>
            <Time>2019-08-01T11:46:27.000Z</Time>
            <Position>
              <LatitudeDegrees>40.741383321583271026611328125</LatitudeDegrees>
              <LongitudeDegrees>-4.02614115737378597259521484375</LongitudeDegrees>
            </Position>
            <AltitudeMeters>1329.199951171875</AltitudeMeters>
            <DistanceMeters>NAN</DistanceMeters>
          </Trackpoint>
          <Trackpoint>
            <Time>2019-08-01T11:46:28.000Z</Time>
            <Position>
              <LatitudeDegrees>40.7414076291024684906005859375</LatitudeDegrees>
              <LongitudeDegrees>-4.02611299417912960052490234375</LongitudeDegrees>
            </Position>
            <AltitudeMeters>1329.4000244140625</AltitudeMeters>
            <DistanceMeters>NAN</DistanceMeters>
          </Trackpoint>
          <Trackpoint>
            <Time>2019-08-01T11:46:29.000Z</Time>
            <Position>
              <LatitudeDegrees>40.74143285863101482391357421875</LatitudeDegrees>
              <LongitudeDegrees>-4.02608516626060009002685546875</LongitudeDegrees>
            </Position>
            <AltitudeMeters>1329.5999755859375</AltitudeMeters>
            <DistanceMeters>NAN</DistanceMeters>
          </Trackpoint>
          <Trackpoint>
            <Time>2019-08-01T11:46:30.000Z</Time>
            <Position>
              <LatitudeDegrees>40.74145750142633914947509765625</LatitudeDegrees>
              <LongitudeDegrees>-4.02605717070400714874267578125</LongitudeDegrees>
            </Position>
            <AltitudeMeters>1329.800048828125</AltitudeMeters>
            <DistanceMeters>NAN</DistanceMeters>
          </Trackpoint>
          <Trackpoint>
            <Time>2019-08-01T11:46:31.000Z</Time>
            <Position>
              <LatitudeDegrees>40.74148247949779033660888671875</LatitudeDegrees>
              <LongitudeDegrees>-4.0260290913283824920654296875</LongitudeDegrees>
            </Position>
            <AltitudeMeters>1330</AltitudeMeters>
            <DistanceMeters>NAN</DistanceMeters>
          </Trackpoint>
          <Trackpoint>
            <Time>2019-08-01T11:46:32.000Z</Time>
            <Position>
              <LatitudeDegrees>40.74150863103568553924560546875</LatitudeDegrees>
              <LongitudeDegrees>-4.0260012634098529815673828125</LongitudeDegrees>
            </Position>
            <AltitudeMeters>1330.5999755859375</AltitudeMeters>
            <DistanceMeters>NAN</DistanceMeters>
          </Trackpoint>
          <Trackpoint>
            <Time>2019-08-01T11:46:33.000Z</Time>
            <Position>
              <LatitudeDegrees>40.7415331900119781494140625</LatitudeDegrees>
              <LongitudeDegrees>-4.0259729325771331787109375</LongitudeDegrees>
            </Position>
            <AltitudeMeters>1331</AltitudeMeters>
            <DistanceMeters>NAN</DistanceMeters>
          </Trackpoint>
          <Trackpoint>
            <Time>2019-08-01T11:46:34.000Z</Time>
            <Position>
              <LatitudeDegrees>40.74155523441731929779052734375</LatitudeDegrees>
              <LongitudeDegrees>-4.02594351209700107574462890625</LongitudeDegrees>
            </Position>
            <AltitudeMeters>1331.199951171875</AltitudeMeters>
            <DistanceMeters>NAN</DistanceMeters>
          </Trackpoint>
          <Trackpoint>
            <Time>2019-08-01T11:46:35.000Z</Time>
            <Position>
              <LatitudeDegrees>40.7415759377181529998779296875</LatitudeDegrees>
              <LongitudeDegrees>-4.025914259254932403564453125</LongitudeDegrees>
            </Position>
            <AltitudeMeters>1331.4000244140625</AltitudeMeters>
            <DistanceMeters>NAN</DistanceMeters>
          </Trackpoint>
          <Trackpoint>
            <Time>2019-08-01T11:46:36.000Z</Time>
            <Position>
              <LatitudeDegrees>40.74159731157124042510986328125</LatitudeDegrees>
              <LongitudeDegrees>-4.02588550932705402374267578125</LongitudeDegrees>
            </Position>
            <AltitudeMeters>1331.5999755859375</AltitudeMeters>
            <DistanceMeters>NAN</DistanceMeters>
          </Trackpoint>
          <Trackpoint>
            <Time>2019-08-01T11:46:37.000Z</Time>
            <Position>
              <LatitudeDegrees>40.74161835014820098876953125</LatitudeDegrees>
              <LongitudeDegrees>-4.025859273970127105712890625</LongitudeDegrees>
            </Position>
            <AltitudeMeters>1331.800048828125</AltitudeMeters>
            <DistanceMeters>NAN</DistanceMeters>
          </Trackpoint>
          <Trackpoint>
            <Time>2019-08-01T11:46:38.000Z</Time>
            <Position>
              <LatitudeDegrees>40.741638801991939544677734375</LatitudeDegrees>
              <LongitudeDegrees>-4.02583421207964420318603515625</LongitudeDegrees>
            </Position>
            <AltitudeMeters>1332</AltitudeMeters>
            <DistanceMeters>NAN</DistanceMeters>
          </Trackpoint>
          <Trackpoint>
            <Time>2019-08-01T11:46:39.000Z</Time>
            <Position>
              <LatitudeDegrees>40.7416592538356781005859375</LatitudeDegrees>
              <LongitudeDegrees>-4.02580705471336841583251953125</LongitudeDegrees>
            </Position>
            <AltitudeMeters>1332.199951171875</AltitudeMeters>
            <DistanceMeters>NAN</DistanceMeters>
          </Trackpoint>
          <Trackpoint>
            <Time>2019-08-01T11:46:40.000Z</Time>
            <Position>
              <LatitudeDegrees>40.741683058440685272216796875</LatitudeDegrees>
              <LongitudeDegrees>-4.025780819356441497802734375</LongitudeDegrees>
            </Position>
            <AltitudeMeters>1332.199951171875</AltitudeMeters>
            <DistanceMeters>NAN</DistanceMeters>
          </Trackpoint>
          <Trackpoint>
            <Time>2019-08-01T11:46:41.000Z</Time>
            <Position>
              <LatitudeDegrees>40.741683058440685272216796875</LatitudeDegrees>
              <LongitudeDegrees>-4.025780819356441497802734375</LongitudeDegrees>
            </Position>
            <AltitudeMeters>1332.4000244140625</AltitudeMeters>
            <DistanceMeters>NAN</DistanceMeters>
          </Trackpoint>
          <Trackpoint>
            <Time>2019-08-01T11:46:42.000Z</Time>
            <Position>
              <LatitudeDegrees>40.74173242785036563873291015625</LatitudeDegrees>
              <LongitudeDegrees>-4.02572675608098506927490234375</LongitudeDegrees>
            </Position>
            <AltitudeMeters>1332.4000244140625</AltitudeMeters>
            <DistanceMeters>NAN</DistanceMeters>
          </Trackpoint>
          <Trackpoint>
            <Time>2019-08-01T11:46:43.000Z</Time>
            <Position>
              <LatitudeDegrees>40.74175640009343624114990234375</LatitudeDegrees>
              <LongitudeDegrees>-4.02569725178182125091552734375</LongitudeDegrees>
            </Position>
            <AltitudeMeters>1332.5999755859375</AltitudeMeters>
            <DistanceMeters>NAN</DistanceMeters>
          </Trackpoint>
          <Trackpoint>
            <Time>2019-08-01T11:46:44.000Z</Time>
            <Position>
              <LatitudeDegrees>40.74177919887006282806396484375</LatitudeDegrees>
              <LongitudeDegrees>-4.0256676636636257171630859375</LongitudeDegrees>
            </Position>
            <AltitudeMeters>1332.5999755859375</AltitudeMeters>
            <DistanceMeters>NAN</DistanceMeters>
          </Trackpoint>
          <Trackpoint>
            <Time>2019-08-01T11:46:45.000Z</Time>
            <Position>
              <LatitudeDegrees>40.7418059371411800384521484375</LatitudeDegrees>
              <LongitudeDegrees>-4.02563774026930332183837890625</LongitudeDegrees>
            </Position>
            <AltitudeMeters>1333</AltitudeMeters>
            <DistanceMeters>NAN</DistanceMeters>
          </Trackpoint>
          <Trackpoint>
            <Time>2019-08-01T11:46:46.000Z</Time>
            <Position>
              <LatitudeDegrees>40.74183267541229724884033203125</LatitudeDegrees>
              <LongitudeDegrees>-4.025609157979488372802734375</LongitudeDegrees>
            </Position>
            <AltitudeMeters>1333.4000244140625</AltitudeMeters>
            <DistanceMeters>NAN</DistanceMeters>
          </Trackpoint>
          <Trackpoint>
            <Time>2019-08-01T11:46:47.000Z</Time>
            <Position>
              <LatitudeDegrees>40.74185840785503387451171875</LatitudeDegrees>
              <LongitudeDegrees>-4.02558141387999057769775390625</LongitudeDegrees>
            </Position>
            <AltitudeMeters>1333.5999755859375</AltitudeMeters>
            <DistanceMeters>NAN</DistanceMeters>
          </Trackpoint>
          <Trackpoint>
            <Time>2019-08-01T11:46:48.000Z</Time>
            <Position>
              <LatitudeDegrees>40.74188363738358020782470703125</LatitudeDegrees>
              <LongitudeDegrees>-4.02555274777114391326904296875</LongitudeDegrees>
            </Position>
            <AltitudeMeters>1334</AltitudeMeters>
            <DistanceMeters>NAN</DistanceMeters>
          </Trackpoint>
          <Trackpoint>
            <Time>2019-08-01T11:46:49.000Z</Time>
            <Position>
              <LatitudeDegrees>40.7419078610837459564208984375</LatitudeDegrees>
              <LongitudeDegrees>-4.02552433311939239501953125</LongitudeDegrees>
            </Position>
            <AltitudeMeters>1334.199951171875</AltitudeMeters>
            <DistanceMeters>NAN</DistanceMeters>
          </Trackpoint>
          <Trackpoint>
            <Time>2019-08-01T11:46:50.000Z</Time>
            <Position>
              <LatitudeDegrees>40.74193392880260944366455078125</LatitudeDegrees>
              <LongitudeDegrees>-4.02549491263926029205322265625</LongitudeDegrees>
            </Position>
            <AltitudeMeters>1334.4000244140625</AltitudeMeters>
            <DistanceMeters>NAN</DistanceMeters>
          </Trackpoint>
          <Trackpoint>
            <Time>2019-08-01T11:46:51.000Z</Time>
            <Position>
              <LatitudeDegrees>40.741961337625980377197265625</LatitudeDegrees>
              <LongitudeDegrees>-4.0254659950733184814453125</LongitudeDegrees>
            </Position>
            <AltitudeMeters>1334.800048828125</AltitudeMeters>
            <DistanceMeters>NAN</DistanceMeters>
          </Trackpoint>
          <Trackpoint>
            <Time>2019-08-01T11:46:52.000Z</Time>
            <Position>
              <LatitudeDegrees>40.74198891408741474151611328125</LatitudeDegrees>
              <LongitudeDegrees>-4.02543825097382068634033203125</LongitudeDegrees>
            </Position>
            <AltitudeMeters>1335</AltitudeMeters>
            <DistanceMeters>NAN</DistanceMeters>
          </Trackpoint>
          <Trackpoint>
            <Time>2019-08-01T11:46:53.000Z</Time>
            <Position>
              <LatitudeDegrees>40.7420146465301513671875</LatitudeDegrees>
              <LongitudeDegrees>-4.02540941722691059112548828125</LongitudeDegrees>
            </Position>
            <AltitudeMeters>1335.199951171875</AltitudeMeters>
            <DistanceMeters>NAN</DistanceMeters>
          </Trackpoint>
          <Trackpoint>
            <Time>2019-08-01T11:46:54.000Z</Time>
            <Position>
              <LatitudeDegrees>40.74203920550644397735595703125</LatitudeDegrees>
              <LongitudeDegrees>-4.02537790127098560333251953125</LongitudeDegrees>
            </Position>
            <AltitudeMeters>1335.4000244140625</AltitudeMeters>
            <DistanceMeters>NAN</DistanceMeters>
          </Trackpoint>
          <Trackpoint>
            <Time>2019-08-01T11:46:55.000Z</Time>
            <Position>
              <LatitudeDegrees>40.74206502176821231842041015625</LatitudeDegrees>
              <LongitudeDegrees>-4.02534772641956806182861328125</LongitudeDegrees>
            </Position>
            <AltitudeMeters>1335.5999755859375</AltitudeMeters>
            <DistanceMeters>NAN</DistanceMeters>
          </Trackpoint>
          <Trackpoint>
            <Time>2019-08-01T11:46:56.000Z</Time>
            <Position>
              <LatitudeDegrees>40.7420912571251392364501953125</LatitudeDegrees>
              <LongitudeDegrees>-4.02531973086297512054443359375</LongitudeDegrees>
            </Position>
            <AltitudeMeters>1336</AltitudeMeters>
            <DistanceMeters>NAN</DistanceMeters>
          </Trackpoint>
          <Trackpoint>
            <Time>2019-08-01T11:46:57.000Z</Time>
            <Position>
              <LatitudeDegrees>40.7421150617301464080810546875</LatitudeDegrees>
              <LongitudeDegrees>-4.025290310382843017578125</LongitudeDegrees>
            </Position>
            <AltitudeMeters>1336.199951171875</AltitudeMeters>
            <DistanceMeters>NAN</DistanceMeters>
          </Trackpoint>
          <Trackpoint>
            <Time>2019-08-01T11:46:58.000Z</Time>
            <Position>
              <LatitudeDegrees>40.7421368546783924102783203125</LatitudeDegrees>
              <LongitudeDegrees>-4.0252589620649814605712890625</LongitudeDegrees>
            </Position>
            <AltitudeMeters>1336.4000244140625</AltitudeMeters>
            <DistanceMeters>NAN</DistanceMeters>
          </Trackpoint>
          <Trackpoint>
            <Time>2019-08-01T11:46:59.000Z</Time>
            <Position>
              <LatitudeDegrees>40.74215671978890895843505859375</LatitudeDegrees>
              <LongitudeDegrees>-4.0252271108329296112060546875</LongitudeDegrees>
            </Position>
            <AltitudeMeters>1336.800048828125</AltitudeMeters>
            <DistanceMeters>NAN</DistanceMeters>
          </Trackpoint>
          <Trackpoint>
            <Time>2019-08-01T11:47:00.000Z</Time>
            <Position>
              <LatitudeDegrees>40.7421774230897426605224609375</LatitudeDegrees>
              <LongitudeDegrees>-4.0251972712576389312744140625</LongitudeDegrees>
            </Position>
            <AltitudeMeters>1336.800048828125</AltitudeMeters>
            <DistanceMeters>NAN</DistanceMeters>
          </Trackpoint>
          <Trackpoint>
            <Time>2019-08-01T11:47:01.000Z</Time>
            <Position>
              <LatitudeDegrees>40.74220533482730388641357421875</LatitudeDegrees>
              <LongitudeDegrees>-4.02516617439687252044677734375</LongitudeDegrees>
            </Position>
            <AltitudeMeters>1337.199951171875</AltitudeMeters>
            <DistanceMeters>NAN</DistanceMeters>
          </Trackpoint>
          <Trackpoint>
            <Time>2019-08-01T11:47:02.000Z</Time>
            <Position>
              <LatitudeDegrees>40.74222980998456478118896484375</LatitudeDegrees>
              <LongitudeDegrees>-4.025135077536106109619140625</LongitudeDegrees>
            </Position>
            <AltitudeMeters>1337.4000244140625</AltitudeMeters>
            <DistanceMeters>NAN</DistanceMeters>
          </Trackpoint>
          <Trackpoint>
            <Time>2019-08-01T11:47:03.000Z</Time>
            <Position>
              <LatitudeDegrees>40.74225545860826969146728515625</LatitudeDegrees>
              <LongitudeDegrees>-4.02510532177984714508056640625</LongitudeDegrees>
            </Position>
            <AltitudeMeters>1337.5999755859375</AltitudeMeters>
            <DistanceMeters>NAN</DistanceMeters>
          </Trackpoint>
          <Trackpoint>
            <Time>2019-08-01T11:47:04.000Z</Time>
            <Position>
              <LatitudeDegrees>40.742280185222625732421875</LatitudeDegrees>
              <LongitudeDegrees>-4.02507598511874675750732421875</LongitudeDegrees>
            </Position>
            <AltitudeMeters>1338</AltitudeMeters>
            <DistanceMeters>NAN</DistanceMeters>
          </Trackpoint>
          <Trackpoint>
            <Time>2019-08-01T11:47:05.000Z</Time>
            <Position>
              <LatitudeDegrees>40.742304325103759765625</LatitudeDegrees>
              <LongitudeDegrees>-4.02504698373377323150634765625</LongitudeDegrees>
            </Position>
            <AltitudeMeters>1338.199951171875</AltitudeMeters>
            <DistanceMeters>NAN</DistanceMeters>
          </Trackpoint>
          <Trackpoint>
            <Time>2019-08-01T11:47:06.000Z</Time>
            <Position>
              <LatitudeDegrees>40.74232921935617923736572265625</LatitudeDegrees>
              <LongitudeDegrees>-4.0250165574252605438232421875</LongitudeDegrees>
            </Position>
            <AltitudeMeters>1338.4000244140625</AltitudeMeters>
            <DistanceMeters>NAN</DistanceMeters>
          </Trackpoint>
          <Trackpoint>
            <Time>2019-08-01T11:47:07.000Z</Time>
            <Position>
              <LatitudeDegrees>40.74235587380826473236083984375</LatitudeDegrees>
              <LongitudeDegrees>-4.024987556040287017822265625</LongitudeDegrees>
            </Position>
            <AltitudeMeters>1338.5999755859375</AltitudeMeters>
            <DistanceMeters>NAN</DistanceMeters>
          </Trackpoint>
          <Trackpoint>
            <Time>2019-08-01T11:47:08.000Z</Time>
            <Position>
              <LatitudeDegrees>40.74238101951777935028076171875</LatitudeDegrees>
              <LongitudeDegrees>-4.02495780028402805328369140625</LongitudeDegrees>
            </Position>
            <AltitudeMeters>1339.199951171875</AltitudeMeters>
            <DistanceMeters>NAN</DistanceMeters>
          </Trackpoint>
          <Trackpoint>
            <Time>2019-08-01T11:47:09.000Z</Time>
            <Position>
              <LatitudeDegrees>40.7424094341695308685302734375</LatitudeDegrees>
              <LongitudeDegrees>-4.0249277092516422271728515625</LongitudeDegrees>
            </Position>
            <AltitudeMeters>1339.199951171875</AltitudeMeters>
            <DistanceMeters>NAN</DistanceMeters>
          </Trackpoint>
          <Trackpoint>
            <Time>2019-08-01T11:47:10.000Z</Time>
            <Position>
              <LatitudeDegrees>40.74243600480258464813232421875</LatitudeDegrees>
              <LongitudeDegrees>-4.02489812113344669342041015625</LongitudeDegrees>
            </Position>
            <AltitudeMeters>1339.199951171875</AltitudeMeters>
            <DistanceMeters>NAN</DistanceMeters>
          </Trackpoint>
          <Trackpoint>
            <Time>2019-08-01T11:47:11.000Z</Time>
            <Position>
              <LatitudeDegrees>40.74246567673981189727783203125</LatitudeDegrees>
              <LongitudeDegrees>-4.02486844919621944427490234375</LongitudeDegrees>
            </Position>
            <AltitudeMeters>1339.5999755859375</AltitudeMeters>
            <DistanceMeters>NAN</DistanceMeters>
          </Trackpoint>
          <Trackpoint>
            <Time>2019-08-01T11:47:12.000Z</Time>
            <Position>
              <LatitudeDegrees>40.74249752797186374664306640625</LatitudeDegrees>
              <LongitudeDegrees>-4.02484112419188022613525390625</LongitudeDegrees>
            </Position>
            <AltitudeMeters>1339.800048828125</AltitudeMeters>
            <DistanceMeters>NAN</DistanceMeters>
          </Trackpoint>
          <Trackpoint>
            <Time>2019-08-01T11:47:13.000Z</Time>
            <Position>
              <LatitudeDegrees>40.74249752797186374664306640625</LatitudeDegrees>
              <LongitudeDegrees>-4.02484112419188022613525390625</LongitudeDegrees>
            </Position>
            <AltitudeMeters>1340</AltitudeMeters>
            <DistanceMeters>NAN</DistanceMeters>
          </Trackpoint>
          <Trackpoint>
            <Time>2019-08-01T11:47:14.000Z</Time>
            <Position>
              <LatitudeDegrees>40.74255712330341339111328125</LatitudeDegrees>
              <LongitudeDegrees>-4.02478764764964580535888671875</LongitudeDegrees>
            </Position>
            <AltitudeMeters>1340.4000244140625</AltitudeMeters>
            <DistanceMeters>NAN</DistanceMeters>
          </Trackpoint>
          <Trackpoint>
            <Time>2019-08-01T11:47:15.000Z</Time>
            <Position>
              <LatitudeDegrees>40.7425871305167675018310546875</LatitudeDegrees>
              <LongitudeDegrees>-4.0247617475688457489013671875</LongitudeDegrees>
            </Position>
            <AltitudeMeters>1340.5999755859375</AltitudeMeters>
            <DistanceMeters>NAN</DistanceMeters>
          </Trackpoint>
          <Trackpoint>
            <Time>2019-08-01T11:47:16.000Z</Time>
            <Position>
              <LatitudeDegrees>40.7426179759204387664794921875</LatitudeDegrees>
              <LongitudeDegrees>-4.024736769497394561767578125</LongitudeDegrees>
            </Position>
            <AltitudeMeters>1340.800048828125</AltitudeMeters>
            <DistanceMeters>NAN</DistanceMeters>
          </Trackpoint>
          <Trackpoint>
            <Time>2019-08-01T11:47:17.000Z</Time>
            <Position>
              <LatitudeDegrees>40.74264924041926860809326171875</LatitudeDegrees>
              <LongitudeDegrees>-4.024711959064006805419921875</LongitudeDegrees>
            </Position>
            <AltitudeMeters>1341</AltitudeMeters>
            <DistanceMeters>NAN</DistanceMeters>
          </Trackpoint>
          <Trackpoint>
            <Time>2019-08-01T11:47:18.000Z</Time>
            <Position>
              <LatitudeDegrees>40.7426786608994007110595703125</LatitudeDegrees>
              <LongitudeDegrees>-4.024687819182872772216796875</LongitudeDegrees>
            </Position>
            <AltitudeMeters>1341.199951171875</AltitudeMeters>
            <DistanceMeters>NAN</DistanceMeters>
          </Trackpoint>
          <Trackpoint>
            <Time>2019-08-01T11:47:19.000Z</Time>
            <Position>
              <LatitudeDegrees>40.74270992539823055267333984375</LatitudeDegrees>
              <LongitudeDegrees>-4.02466309256851673126220703125</LongitudeDegrees>
            </Position>
            <AltitudeMeters>1341.4000244140625</AltitudeMeters>
            <DistanceMeters>NAN</DistanceMeters>
          </Trackpoint>
          <Trackpoint>
            <Time>2019-08-01T11:47:20.000Z</Time>
            <Position>
              <LatitudeDegrees>40.74274395592510700225830078125</LatitudeDegrees>
              <LongitudeDegrees>-4.02463962323963642120361328125</LongitudeDegrees>
            </Position>
            <AltitudeMeters>1341.800048828125</AltitudeMeters>
            <DistanceMeters>NAN</DistanceMeters>
          </Trackpoint>
          <Trackpoint>
            <Time>2019-08-01T11:47:21.000Z</Time>
            <Position>
              <LatitudeDegrees>40.74277631007134914398193359375</LatitudeDegrees>
              <LongitudeDegrees>-4.0246172435581684112548828125</LongitudeDegrees>
            </Position>
            <AltitudeMeters>1342</AltitudeMeters>
            <DistanceMeters>NAN</DistanceMeters>
          </Trackpoint>
          <Trackpoint>
            <Time>2019-08-01T11:47:22.000Z</Time>
            <Position>
              <LatitudeDegrees>40.74280983768403530120849609375</LatitudeDegrees>
              <LongitudeDegrees>-4.0245961211621761322021484375</LongitudeDegrees>
            </Position>
            <AltitudeMeters>1342.199951171875</AltitudeMeters>
            <DistanceMeters>NAN</DistanceMeters>
          </Trackpoint>
          <Trackpoint>
            <Time>2019-08-01T11:47:23.000Z</Time>
            <Position>
              <LatitudeDegrees>40.74284411966800689697265625</LatitudeDegrees>
              <LongitudeDegrees>-4.024578519165515899658203125</LongitudeDegrees>
            </Position>
            <AltitudeMeters>1342.4000244140625</AltitudeMeters>
            <DistanceMeters>NAN</DistanceMeters>
          </Trackpoint>
          <Trackpoint>
            <Time>2019-08-01T11:47:24.000Z</Time>
            <Position>
              <LatitudeDegrees>40.7428764738142490386962890625</LatitudeDegrees>
              <LongitudeDegrees>-4.02456100098788738250732421875</LongitudeDegrees>
            </Position>
            <AltitudeMeters>1342.5999755859375</AltitudeMeters>
            <DistanceMeters>NAN</DistanceMeters>
          </Trackpoint>
          <Trackpoint>
            <Time>2019-08-01T11:47:25.000Z</Time>
            <Position>
              <LatitudeDegrees>40.74290891177952289581298828125</LatitudeDegrees>
              <LongitudeDegrees>-4.024544991552829742431640625</LongitudeDegrees>
            </Position>
            <AltitudeMeters>1342.800048828125</AltitudeMeters>
            <DistanceMeters>NAN</DistanceMeters>
          </Trackpoint>
          <Trackpoint>
            <Time>2019-08-01T11:47:26.000Z</Time>
            <Position>
              <LatitudeDegrees>40.74294160120189189910888671875</LatitudeDegrees>
              <LongitudeDegrees>-4.0245294012129306793212890625</LongitudeDegrees>
            </Position>
            <AltitudeMeters>1343</AltitudeMeters>
            <DistanceMeters>NAN</DistanceMeters>
          </Trackpoint>
          <Trackpoint>
            <Time>2019-08-01T11:47:27.000Z</Time>
            <Position>
              <LatitudeDegrees>40.74297244660556316375732421875</LatitudeDegrees>
              <LongitudeDegrees>-4.02451389469206333160400390625</LongitudeDegrees>
            </Position>
            <AltitudeMeters>1343.199951171875</AltitudeMeters>
            <DistanceMeters>NAN</DistanceMeters>
          </Trackpoint>
          <Trackpoint>
            <Time>2019-08-01T11:47:28.000Z</Time>
            <Position>
              <LatitudeDegrees>40.74300262145698070526123046875</LatitudeDegrees>
              <LongitudeDegrees>-4.02450031600892543792724609375</LongitudeDegrees>
            </Position>
            <AltitudeMeters>1343.4000244140625</AltitudeMeters>
            <DistanceMeters>NAN</DistanceMeters>
          </Trackpoint>
          <Trackpoint>
            <Time>2019-08-01T11:47:29.000Z</Time>
            <Position>
              <LatitudeDegrees>40.7430330477654933929443359375</LatitudeDegrees>
              <LongitudeDegrees>-4.02448765933513641357421875</LongitudeDegrees>
            </Position>
            <AltitudeMeters>1343.800048828125</AltitudeMeters>
            <DistanceMeters>NAN</DistanceMeters>
          </Trackpoint>
          <Trackpoint>
            <Time>2019-08-01T11:47:30.000Z</Time>
            <Position>
              <LatitudeDegrees>40.7430645637214183807373046875</LatitudeDegrees>
              <LongitudeDegrees>-4.024474583566188812255859375</LongitudeDegrees>
            </Position>
            <AltitudeMeters>1343.800048828125</AltitudeMeters>
            <DistanceMeters>NAN</DistanceMeters>
          </Trackpoint>
          <Trackpoint>
            <Time>2019-08-01T11:47:31.000Z</Time>
            <Position>
              <LatitudeDegrees>40.743095241487026214599609375</LatitudeDegrees>
              <LongitudeDegrees>-4.02446217834949493408203125</LongitudeDegrees>
            </Position>
            <AltitudeMeters>1344</AltitudeMeters>
            <DistanceMeters>NAN</DistanceMeters>
          </Trackpoint>
          <Trackpoint>
            <Time>2019-08-01T11:47:32.000Z</Time>
            <Position>
              <LatitudeDegrees>40.7431239075958728790283203125</LatitudeDegrees>
              <LongitudeDegrees>-4.0244485996663570404052734375</LongitudeDegrees>
            </Position>
            <AltitudeMeters>1344</AltitudeMeters>
            <DistanceMeters>NAN</DistanceMeters>
          </Trackpoint>
          <Trackpoint>
            <Time>2019-08-01T11:47:33.000Z</Time>
            <Position>
              <LatitudeDegrees>40.74315257370471954345703125</LatitudeDegrees>
              <LongitudeDegrees>-4.02443544007837772369384765625</LongitudeDegrees>
            </Position>
            <AltitudeMeters>1344.4000244140625</AltitudeMeters>
            <DistanceMeters>NAN</DistanceMeters>
          </Trackpoint>
          <Trackpoint>
            <Time>2019-08-01T11:47:34.000Z</Time>
            <Position>
              <LatitudeDegrees>40.74318098835647106170654296875</LatitudeDegrees>
              <LongitudeDegrees>-4.02442269958555698394775390625</LongitudeDegrees>
            </Position>
            <AltitudeMeters>1344.800048828125</AltitudeMeters>
            <DistanceMeters>NAN</DistanceMeters>
          </Trackpoint>
          <Trackpoint>
            <Time>2019-08-01T11:47:35.000Z</Time>
            <Position>
              <LatitudeDegrees>40.74321032501757144927978515625</LatitudeDegrees>
              <LongitudeDegrees>-4.02441113255918025970458984375</LongitudeDegrees>
            </Position>
            <AltitudeMeters>1345</AltitudeMeters>
            <DistanceMeters>NAN</DistanceMeters>
          </Trackpoint>
          <Trackpoint>
            <Time>2019-08-01T11:47:36.000Z</Time>
            <Position>
              <LatitudeDegrees>40.74323899112641811370849609375</LatitudeDegrees>
              <LongitudeDegrees>-4.024400152266025543212890625</LongitudeDegrees>
            </Position>
            <AltitudeMeters>1345.4000244140625</AltitudeMeters>
            <DistanceMeters>NAN</DistanceMeters>
          </Trackpoint>
          <Trackpoint>
            <Time>2019-08-01T11:47:37.000Z</Time>
            <Position>
              <LatitudeDegrees>40.743268914520740509033203125</LatitudeDegrees>
              <LongitudeDegrees>-4.02438900433480739593505859375</LongitudeDegrees>
            </Position>
            <AltitudeMeters>1345.5999755859375</AltitudeMeters>
            <DistanceMeters>NAN</DistanceMeters>
          </Trackpoint>
          <Trackpoint>
            <Time>2019-08-01T11:47:38.000Z</Time>
            <Position>
              <LatitudeDegrees>40.7432979159057140350341796875</LatitudeDegrees>
              <LongitudeDegrees>-4.02437768876552581787109375</LongitudeDegrees>
            </Position>
            <AltitudeMeters>1345.800048828125</AltitudeMeters>
            <DistanceMeters>NAN</DistanceMeters>
          </Trackpoint>
          <Trackpoint>
            <Time>2019-08-01T11:47:39.000Z</Time>
            <Position>
              <LatitudeDegrees>40.74332666583359241485595703125</LatitudeDegrees>
              <LongitudeDegrees>-4.02436654083430767059326171875</LongitudeDegrees>
            </Position>
            <AltitudeMeters>1346</AltitudeMeters>
            <DistanceMeters>NAN</DistanceMeters>
          </Trackpoint>
          <Trackpoint>
            <Time>2019-08-01T11:47:40.000Z</Time>
            <Position>
              <LatitudeDegrees>40.74335566721856594085693359375</LatitudeDegrees>
              <LongitudeDegrees>-4.02435497380793094635009765625</LongitudeDegrees>
            </Position>
            <AltitudeMeters>1346.199951171875</AltitudeMeters>
            <DistanceMeters>NAN</DistanceMeters>
          </Trackpoint>
          <Trackpoint>
            <Time>2019-08-01T11:47:41.000Z</Time>
            <Position>
              <LatitudeDegrees>40.743385590612888336181640625</LatitudeDegrees>
              <LongitudeDegrees>-4.0243439935147762298583984375</LongitudeDegrees>
            </Position>
            <AltitudeMeters>1346.4000244140625</AltitudeMeters>
            <DistanceMeters>NAN</DistanceMeters>
          </Trackpoint>
          <Trackpoint>
            <Time>2019-08-01T11:47:42.000Z</Time>
            <Position>
              <LatitudeDegrees>40.74341702274978160858154296875</LatitudeDegrees>
              <LongitudeDegrees>-4.02433368377387523651123046875</LongitudeDegrees>
            </Position>
            <AltitudeMeters>1346.800048828125</AltitudeMeters>
            <DistanceMeters>NAN</DistanceMeters>
          </Trackpoint>
          <Trackpoint>
            <Time>2019-08-01T11:47:43.000Z</Time>
            <Position>
              <LatitudeDegrees>40.74345021508634090423583984375</LatitudeDegrees>
              <LongitudeDegrees>-4.024322032928466796875</LongitudeDegrees>
            </Position>
            <AltitudeMeters>1346.800048828125</AltitudeMeters>
            <DistanceMeters>NAN</DistanceMeters>
          </Trackpoint>
          <Trackpoint>
            <Time>2019-08-01T11:47:44.000Z</Time>
            <Position>
              <LatitudeDegrees>40.74348189868032932281494140625</LatitudeDegrees>
              <LongitudeDegrees>-4.02430937625467777252197265625</LongitudeDegrees>
            </Position>
            <AltitudeMeters>1347</AltitudeMeters>
            <DistanceMeters>NAN</DistanceMeters>
          </Trackpoint>
          <Trackpoint>
            <Time>2019-08-01T11:47:45.000Z</Time>
            <Position>
              <LatitudeDegrees>40.743513666093349456787109375</LatitudeDegrees>
              <LongitudeDegrees>-4.02429588139057159423828125</LongitudeDegrees>
            </Position>
            <AltitudeMeters>1347</AltitudeMeters>
            <DistanceMeters>NAN</DistanceMeters>
          </Trackpoint>
          <Trackpoint>
            <Time>2019-08-01T11:47:46.000Z</Time>
            <Position>
              <LatitudeDegrees>40.7435470260679721832275390625</LatitudeDegrees>
              <LongitudeDegrees>-4.024283476173877716064453125</LongitudeDegrees>
            </Position>
            <AltitudeMeters>1347.199951171875</AltitudeMeters>
            <DistanceMeters>NAN</DistanceMeters>
          </Trackpoint>
          <Trackpoint>
            <Time>2019-08-01T11:47:47.000Z</Time>
            <Position>
              <LatitudeDegrees>40.743579380214214324951171875</LatitudeDegrees>
              <LongitudeDegrees>-4.02427098713815212249755859375</LongitudeDegrees>
            </Position>
            <AltitudeMeters>1347.5999755859375</AltitudeMeters>
            <DistanceMeters>NAN</DistanceMeters>
          </Trackpoint>
          <Trackpoint>
            <Time>2019-08-01T11:47:48.000Z</Time>
            <Position>
              <LatitudeDegrees>40.74361081235110759735107421875</LatitudeDegrees>
              <LongitudeDegrees>-4.02425841428339481353759765625</LongitudeDegrees>
            </Position>
            <AltitudeMeters>1347.5999755859375</AltitudeMeters>
            <DistanceMeters>NAN</DistanceMeters>
          </Trackpoint>
          <Trackpoint>
            <Time>2019-08-01T11:47:49.000Z</Time>
            <Position>
              <LatitudeDegrees>40.74364031665027141571044921875</LatitudeDegrees>
              <LongitudeDegrees>-4.0242455899715423583984375</LongitudeDegrees>
            </Position>
            <AltitudeMeters>1347.800048828125</AltitudeMeters>
            <DistanceMeters>NAN</DistanceMeters>
          </Trackpoint>
          <Trackpoint>
            <Time>2019-08-01T11:47:50.000Z</Time>
            <Position>
              <LatitudeDegrees>40.74367300607264041900634765625</LatitudeDegrees>
              <LongitudeDegrees>-4.0242316760122776031494140625</LongitudeDegrees>
            </Position>
            <AltitudeMeters>1347.800048828125</AltitudeMeters>
            <DistanceMeters>NAN</DistanceMeters>
          </Trackpoint>
          <Trackpoint>
            <Time>2019-08-01T11:47:51.000Z</Time>
            <Position>
              <LatitudeDegrees>40.74370435439050197601318359375</LatitudeDegrees>
              <LongitudeDegrees>-4.0242162533104419708251953125</LongitudeDegrees>
            </Position>
            <AltitudeMeters>1348.4000244140625</AltitudeMeters>
            <DistanceMeters>NAN</DistanceMeters>
          </Trackpoint>
          <Trackpoint>
            <Time>2019-08-01T11:47:52.000Z</Time>
            <Position>
              <LatitudeDegrees>40.74373553507030010223388671875</LatitudeDegrees>
              <LongitudeDegrees>-4.02419974096119403839111328125</LongitudeDegrees>
            </Position>
            <AltitudeMeters>1348.5999755859375</AltitudeMeters>
            <DistanceMeters>NAN</DistanceMeters>
          </Trackpoint>
          <Trackpoint>
            <Time>2019-08-01T11:47:53.000Z</Time>
            <Position>
              <LatitudeDegrees>40.743766129016876220703125</LatitudeDegrees>
              <LongitudeDegrees>-4.024182893335819244384765625</LongitudeDegrees>
            </Position>
            <AltitudeMeters>1348.800048828125</AltitudeMeters>
            <DistanceMeters>NAN</DistanceMeters>
          </Trackpoint>
          <Trackpoint>
            <Time>2019-08-01T11:47:54.000Z</Time>
            <Position>
              <LatitudeDegrees>40.74379605241119861602783203125</LatitudeDegrees>
              <LongitudeDegrees>-4.024166800081729888916015625</LongitudeDegrees>
            </Position>
            <AltitudeMeters>1348.800048828125</AltitudeMeters>
            <DistanceMeters>NAN</DistanceMeters>
          </Trackpoint>
          <Trackpoint>
            <Time>2019-08-01T11:47:55.000Z</Time>
            <Position>
              <LatitudeDegrees>40.74382589198648929595947265625</LatitudeDegrees>
              <LongitudeDegrees>-4.02414978481829166412353515625</LongitudeDegrees>
            </Position>
            <AltitudeMeters>1349</AltitudeMeters>
            <DistanceMeters>NAN</DistanceMeters>
          </Trackpoint>
          <Trackpoint>
            <Time>2019-08-01T11:47:56.000Z</Time>
            <Position>
              <LatitudeDegrees>40.7438559830188751220703125</LatitudeDegrees>
              <LongitudeDegrees>-4.02413218282163143157958984375</LongitudeDegrees>
            </Position>
            <AltitudeMeters>1349.4000244140625</AltitudeMeters>
            <DistanceMeters>NAN</DistanceMeters>
          </Trackpoint>
          <Trackpoint>
            <Time>2019-08-01T11:47:57.000Z</Time>
            <Position>
              <LatitudeDegrees>40.74388640932738780975341796875</LatitudeDegrees>
              <LongitudeDegrees>-4.0241141617298126220703125</LongitudeDegrees>
            </Position>
            <AltitudeMeters>1349.5999755859375</AltitudeMeters>
            <DistanceMeters>NAN</DistanceMeters>
          </Trackpoint>
          <Trackpoint>
            <Time>2019-08-01T11:47:58.000Z</Time>
            <Position>
              <LatitudeDegrees>40.7439161650836467742919921875</LatitudeDegrees>
              <LongitudeDegrees>-4.02409630827605724334716796875</LongitudeDegrees>
            </Position>
            <AltitudeMeters>1349.800048828125</AltitudeMeters>
            <DistanceMeters>NAN</DistanceMeters>
          </Trackpoint>
          <Trackpoint>
            <Time>2019-08-01T11:47:59.000Z</Time>
            <Position>
              <LatitudeDegrees>40.7439161650836467742919921875</LatitudeDegrees>
              <LongitudeDegrees>-4.02409630827605724334716796875</LongitudeDegrees>
            </Position>
            <AltitudeMeters>1350.199951171875</AltitudeMeters>
            <DistanceMeters>NAN</DistanceMeters>
          </Trackpoint>
          <Trackpoint>
            <Time>2019-08-01T11:48:00.000Z</Time>
            <Position>
              <LatitudeDegrees>40.7439734973013401031494140625</LatitudeDegrees>
              <LongitudeDegrees>-4.02406060136854648590087890625</LongitudeDegrees>
            </Position>
            <AltitudeMeters>1350.4000244140625</AltitudeMeters>
            <DistanceMeters>NAN</DistanceMeters>
          </Trackpoint>
          <Trackpoint>
            <Time>2019-08-01T11:48:01.000Z</Time>
            <Position>
              <LatitudeDegrees>40.7440006546676158905029296875</LatitudeDegrees>
              <LongitudeDegrees>-4.024043418467044830322265625</LongitudeDegrees>
            </Position>
            <AltitudeMeters>1350.5999755859375</AltitudeMeters>
            <DistanceMeters>NAN</DistanceMeters>
          </Trackpoint>
          <Trackpoint>
            <Time>2019-08-01T11:48:02.000Z</Time>
            <Position>
              <LatitudeDegrees>40.7440264709293842315673828125</LatitudeDegrees>
              <LongitudeDegrees>-4.0240258164703845977783203125</LongitudeDegrees>
            </Position>
            <AltitudeMeters>1350.5999755859375</AltitudeMeters>
            <DistanceMeters>NAN</DistanceMeters>
          </Trackpoint>
          <Trackpoint>
            <Time>2019-08-01T11:48:03.000Z</Time>
            <Position>
              <LatitudeDegrees>40.7440544664859771728515625</LatitudeDegrees>
              <LongitudeDegrees>-4.024007879197597503662109375</LongitudeDegrees>
            </Position>
            <AltitudeMeters>1351</AltitudeMeters>
            <DistanceMeters>NAN</DistanceMeters>
          </Trackpoint>
          <Trackpoint>
            <Time>2019-08-01T11:48:04.000Z</Time>
            <Position>
              <LatitudeDegrees>40.7440544664859771728515625</LatitudeDegrees>
              <LongitudeDegrees>-4.024007879197597503662109375</LongitudeDegrees>
            </Position>
            <AltitudeMeters>1351.4000244140625</AltitudeMeters>
            <DistanceMeters>NAN</DistanceMeters>
          </Trackpoint>
          <Trackpoint>
            <Time>2019-08-01T11:48:05.000Z</Time>
            <Position>
              <LatitudeDegrees>40.74411087669432163238525390625</LatitudeDegrees>
              <LongitudeDegrees>-4.0239728428423404693603515625</LongitudeDegrees>
            </Position>
            <AltitudeMeters>1351.5999755859375</AltitudeMeters>
            <DistanceMeters>NAN</DistanceMeters>
          </Trackpoint>
          <Trackpoint>
            <Time>2019-08-01T11:48:06.000Z</Time>
            <Position>
              <LatitudeDegrees>40.74413853697478771209716796875</LatitudeDegrees>
              <LongitudeDegrees>-4.023955576121807098388671875</LongitudeDegrees>
            </Position>
            <AltitudeMeters>1352</AltitudeMeters>
            <DistanceMeters>NAN</DistanceMeters>
          </Trackpoint>
          <Trackpoint>
            <Time>2019-08-01T11:48:07.000Z</Time>
            <Position>
              <LatitudeDegrees>40.7441662810742855072021484375</LatitudeDegrees>
              <LongitudeDegrees>-4.0239389799535274505615234375</LongitudeDegrees>
            </Position>
            <AltitudeMeters>1352</AltitudeMeters>
            <DistanceMeters>NAN</DistanceMeters>
          </Trackpoint>
          <Trackpoint>
            <Time>2019-08-01T11:48:08.000Z</Time>
            <Position>
              <LatitudeDegrees>40.7441662810742855072021484375</LatitudeDegrees>
              <LongitudeDegrees>-4.0239389799535274505615234375</LongitudeDegrees>
            </Position>
            <AltitudeMeters>1352.199951171875</AltitudeMeters>
            <DistanceMeters>NAN</DistanceMeters>
          </Trackpoint>
          <Trackpoint>
            <Time>2019-08-01T11:48:09.000Z</Time>
            <Position>
              <LatitudeDegrees>40.74422235600650310516357421875</LatitudeDegrees>
              <LongitudeDegrees>-4.02390561997890472412109375</LongitudeDegrees>
            </Position>
            <AltitudeMeters>1352.5999755859375</AltitudeMeters>
            <DistanceMeters>NAN</DistanceMeters>
          </Trackpoint>
          <Trackpoint>
            <Time>2019-08-01T11:48:10.000Z</Time>
            <Position>
              <LatitudeDegrees>40.74425102211534976959228515625</LatitudeDegrees>
              <LongitudeDegrees>-4.0238876827061176300048828125</LongitudeDegrees>
            </Position>
            <AltitudeMeters>1352.800048828125</AltitudeMeters>
            <DistanceMeters>NAN</DistanceMeters>
          </Trackpoint>
          <Trackpoint>
            <Time>2019-08-01T11:48:11.000Z</Time>
            <Position>
              <LatitudeDegrees>40.744280777871608734130859375</LatitudeDegrees>
              <LongitudeDegrees>-4.0238682366907596588134765625</LongitudeDegrees>
            </Position>
            <AltitudeMeters>1353</AltitudeMeters>
            <DistanceMeters>NAN</DistanceMeters>
          </Trackpoint>
          <Trackpoint>
            <Time>2019-08-01T11:48:12.000Z</Time>
            <Position>
              <LatitudeDegrees>40.7443094439804553985595703125</LatitudeDegrees>
              <LongitudeDegrees>-4.02385105378925800323486328125</LongitudeDegrees>
            </Position>
            <AltitudeMeters>1353</AltitudeMeters>
            <DistanceMeters>NAN</DistanceMeters>
          </Trackpoint>
          <Trackpoint>
            <Time>2019-08-01T11:48:13.000Z</Time>
            <Position>
              <LatitudeDegrees>40.7443369366228580474853515625</LatitudeDegrees>
              <LongitudeDegrees>-4.02383579872548580169677734375</LongitudeDegrees>
            </Position>
            <AltitudeMeters>1353</AltitudeMeters>
            <DistanceMeters>NAN</DistanceMeters>
          </Trackpoint>
          <Trackpoint>
            <Time>2019-08-01T11:48:14.000Z</Time>
            <Position>
              <LatitudeDegrees>40.7443644292652606964111328125</LatitudeDegrees>
              <LongitudeDegrees>-4.02382113039493560791015625</LongitudeDegrees>
            </Position>
            <AltitudeMeters>1353.4000244140625</AltitudeMeters>
            <DistanceMeters>NAN</DistanceMeters>
          </Trackpoint>
          <Trackpoint>
            <Time>2019-08-01T11:48:15.000Z</Time>
            <Position>
              <LatitudeDegrees>40.74439234100282192230224609375</LatitudeDegrees>
              <LongitudeDegrees>-4.02380369603633880615234375</LongitudeDegrees>
            </Position>
            <AltitudeMeters>1353.5999755859375</AltitudeMeters>
            <DistanceMeters>NAN</DistanceMeters>
          </Trackpoint>
          <Trackpoint>
            <Time>2019-08-01T11:48:16.000Z</Time>
            <Position>
              <LatitudeDegrees>40.7444204203784465789794921875</LatitudeDegrees>
              <LongitudeDegrees>-4.0237870998680591583251953125</LongitudeDegrees>
            </Position>
            <AltitudeMeters>1353.5999755859375</AltitudeMeters>
            <DistanceMeters>NAN</DistanceMeters>
          </Trackpoint>
          <Trackpoint>
            <Time>2019-08-01T11:48:17.000Z</Time>
            <Position>
              <LatitudeDegrees>40.7444489188492298126220703125</LatitudeDegrees>
              <LongitudeDegrees>-4.023772180080413818359375</LongitudeDegrees>
            </Position>
            <AltitudeMeters>1354</AltitudeMeters>
            <DistanceMeters>NAN</DistanceMeters>
          </Trackpoint>
          <Trackpoint>
            <Time>2019-08-01T11:48:18.000Z</Time>
            <Position>
              <LatitudeDegrees>40.7444489188492298126220703125</LatitudeDegrees>
              <LongitudeDegrees>-4.023772180080413818359375</LongitudeDegrees>
            </Position>
            <AltitudeMeters>1354</AltitudeMeters>
            <DistanceMeters>NAN</DistanceMeters>
          </Trackpoint>
          <Trackpoint>
            <Time>2019-08-01T11:48:19.000Z</Time>
            <Position>
              <LatitudeDegrees>40.7445059157907962799072265625</LatitudeDegrees>
              <LongitudeDegrees>-4.02374267578125</LongitudeDegrees>
            </Position>
            <AltitudeMeters>1354.4000244140625</AltitudeMeters>
            <DistanceMeters>NAN</DistanceMeters>
          </Trackpoint>
          <Trackpoint>
            <Time>2019-08-01T11:48:20.000Z</Time>
            <Position>
              <LatitudeDegrees>40.7445334084331989288330078125</LatitudeDegrees>
              <LongitudeDegrees>-4.0237307734787464141845703125</LongitudeDegrees>
            </Position>
            <AltitudeMeters>1354.800048828125</AltitudeMeters>
            <DistanceMeters>NAN</DistanceMeters>
          </Trackpoint>
          <Trackpoint>
            <Time>2019-08-01T11:48:21.000Z</Time>
            <Position>
              <LatitudeDegrees>40.74456165544688701629638671875</LatitudeDegrees>
              <LongitudeDegrees>-4.0237173624336719512939453125</LongitudeDegrees>
            </Position>
            <AltitudeMeters>1355</AltitudeMeters>
            <DistanceMeters>NAN</DistanceMeters>
          </Trackpoint>
          <Trackpoint>
            <Time>2019-08-01T11:48:22.000Z</Time>
            <Position>
              <LatitudeDegrees>40.744588561356067657470703125</LatitudeDegrees>
              <LongitudeDegrees>-4.0237037837505340576171875</LongitudeDegrees>
            </Position>
            <AltitudeMeters>1355.199951171875</AltitudeMeters>
            <DistanceMeters>NAN</DistanceMeters>
          </Trackpoint>
          <Trackpoint>
            <Time>2019-08-01T11:48:23.000Z</Time>
            <Position>
              <LatitudeDegrees>40.7446152158081531524658203125</LatitudeDegrees>
              <LongitudeDegrees>-4.023690707981586456298828125</LongitudeDegrees>
            </Position>
            <AltitudeMeters>1355.4000244140625</AltitudeMeters>
            <DistanceMeters>NAN</DistanceMeters>
          </Trackpoint>
          <Trackpoint>
            <Time>2019-08-01T11:48:24.000Z</Time>
            <Position>
              <LatitudeDegrees>40.74464413337409496307373046875</LatitudeDegrees>
              <LongitudeDegrees>-4.02367838658392429351806640625</LongitudeDegrees>
            </Position>
            <AltitudeMeters>1355.5999755859375</AltitudeMeters>
            <DistanceMeters>NAN</DistanceMeters>
          </Trackpoint>
          <Trackpoint>
            <Time>2019-08-01T11:48:25.000Z</Time>
            <Position>
              <LatitudeDegrees>40.74467212893068790435791015625</LatitudeDegrees>
              <LongitudeDegrees>-4.023664556443691253662109375</LongitudeDegrees>
            </Position>
            <AltitudeMeters>1356</AltitudeMeters>
            <DistanceMeters>NAN</DistanceMeters>
          </Trackpoint>
          <Trackpoint>
            <Time>2019-08-01T11:48:26.000Z</Time>
            <Position>
              <LatitudeDegrees>40.74467212893068790435791015625</LatitudeDegrees>
              <LongitudeDegrees>-4.023664556443691253662109375</LongitudeDegrees>
            </Position>
            <AltitudeMeters>1356.199951171875</AltitudeMeters>
            <DistanceMeters>NAN</DistanceMeters>
          </Trackpoint>
          <Trackpoint>
            <Time>2019-08-01T11:48:27.000Z</Time>
            <Position>
              <LatitudeDegrees>40.7447278685867786407470703125</LatitudeDegrees>
              <LongitudeDegrees>-4.02364267967641353607177734375</LongitudeDegrees>
            </Position>
            <AltitudeMeters>1356.5999755859375</AltitudeMeters>
            <DistanceMeters>NAN</DistanceMeters>
          </Trackpoint>
          <Trackpoint>
            <Time>2019-08-01T11:48:28.000Z</Time>
            <Position>
              <LatitudeDegrees>40.744752846658229827880859375</LatitudeDegrees>
              <LongitudeDegrees>-4.02363245375454425811767578125</LongitudeDegrees>
            </Position>
            <AltitudeMeters>1356.800048828125</AltitudeMeters>
            <DistanceMeters>NAN</DistanceMeters>
          </Trackpoint>
          <Trackpoint>
            <Time>2019-08-01T11:48:29.000Z</Time>
            <Position>
              <LatitudeDegrees>40.74477732181549072265625</LatitudeDegrees>
              <LongitudeDegrees>-4.0236204676330089569091796875</LongitudeDegrees>
            </Position>
            <AltitudeMeters>1357</AltitudeMeters>
            <DistanceMeters>NAN</DistanceMeters>
          </Trackpoint>
          <Trackpoint>
            <Time>2019-08-01T11:48:30.000Z</Time>
            <Position>
              <LatitudeDegrees>40.7448043115437030792236328125</LatitudeDegrees>
              <LongitudeDegrees>-4.0236072242259979248046875</LongitudeDegrees>
            </Position>
            <AltitudeMeters>1357.199951171875</AltitudeMeters>
            <DistanceMeters>NAN</DistanceMeters>
          </Trackpoint>
          <Trackpoint>
            <Time>2019-08-01T11:48:31.000Z</Time>
            <Position>
              <LatitudeDegrees>40.74482752941548824310302734375</LatitudeDegrees>
              <LongitudeDegrees>-4.02359582483768463134765625</LongitudeDegrees>
            </Position>
            <AltitudeMeters>1357.4000244140625</AltitudeMeters>
            <DistanceMeters>NAN</DistanceMeters>
          </Trackpoint>
          <Trackpoint>
            <Time>2019-08-01T11:48:32.000Z</Time>
            <Position>
              <LatitudeDegrees>40.7448525913059711456298828125</LatitudeDegrees>
              <LongitudeDegrees>-4.0235855989158153533935546875</LongitudeDegrees>
            </Position>
            <AltitudeMeters>1357.5999755859375</AltitudeMeters>
            <DistanceMeters>NAN</DistanceMeters>
          </Trackpoint>
          <Trackpoint>
            <Time>2019-08-01T11:48:33.000Z</Time>
            <Position>
              <LatitudeDegrees>40.74487782083451747894287109375</LatitudeDegrees>
              <LongitudeDegrees>-4.0235752053558826446533203125</LongitudeDegrees>
            </Position>
            <AltitudeMeters>1358</AltitudeMeters>
            <DistanceMeters>NAN</DistanceMeters>
          </Trackpoint>
          <Trackpoint>
            <Time>2019-08-01T11:48:34.000Z</Time>
            <Position>
              <LatitudeDegrees>40.74490263126790523529052734375</LatitudeDegrees>
              <LongitudeDegrees>-4.02356506325304508209228515625</LongitudeDegrees>
            </Position>
            <AltitudeMeters>1358.4000244140625</AltitudeMeters>
            <DistanceMeters>NAN</DistanceMeters>
          </Trackpoint>
          <Trackpoint>
            <Time>2019-08-01T11:48:35.000Z</Time>
            <Position>
              <LatitudeDegrees>40.74493280611932277679443359375</LatitudeDegrees>
              <LongitudeDegrees>-4.02355366386473178863525390625</LongitudeDegrees>
            </Position>
            <AltitudeMeters>1358.5999755859375</AltitudeMeters>
            <DistanceMeters>NAN</DistanceMeters>
          </Trackpoint>
          <Trackpoint>
            <Time>2019-08-01T11:48:36.000Z</Time>
            <Position>
              <LatitudeDegrees>40.74496348388493061065673828125</LatitudeDegrees>
              <LongitudeDegrees>-4.023542515933513641357421875</LongitudeDegrees>
            </Position>
            <AltitudeMeters>1358.5999755859375</AltitudeMeters>
            <DistanceMeters>NAN</DistanceMeters>
          </Trackpoint>
          <Trackpoint>
            <Time>2019-08-01T11:48:37.000Z</Time>
            <Position>
              <LatitudeDegrees>40.7449927367269992828369140625</LatitudeDegrees>
              <LongitudeDegrees>-4.02352876961231231689453125</LongitudeDegrees>
            </Position>
            <AltitudeMeters>1359</AltitudeMeters>
            <DistanceMeters>NAN</DistanceMeters>
          </Trackpoint>
          <Trackpoint>
            <Time>2019-08-01T11:48:38.000Z</Time>
            <Position>
              <LatitudeDegrees>40.745019726455211639404296875</LatitudeDegrees>
              <LongitudeDegrees>-4.023513682186603546142578125</LongitudeDegrees>
            </Position>
            <AltitudeMeters>1359.199951171875</AltitudeMeters>
            <DistanceMeters>NAN</DistanceMeters>
          </Trackpoint>
          <Trackpoint>
            <Time>2019-08-01T11:48:39.000Z</Time>
            <Position>
              <LatitudeDegrees>40.74504889547824859619140625</LatitudeDegrees>
              <LongitudeDegrees>-4.02349867857992649078369140625</LongitudeDegrees>
            </Position>
            <AltitudeMeters>1359.5999755859375</AltitudeMeters>
            <DistanceMeters>NAN</DistanceMeters>
          </Trackpoint>
          <Trackpoint>
            <Time>2019-08-01T11:48:40.000Z</Time>
            <Position>
              <LatitudeDegrees>40.74507831595838069915771484375</LatitudeDegrees>
              <LongitudeDegrees>-4.02348375879228115081787109375</LongitudeDegrees>
            </Position>
            <AltitudeMeters>1360</AltitudeMeters>
            <DistanceMeters>NAN</DistanceMeters>
          </Trackpoint>
          <Trackpoint>
            <Time>2019-08-01T11:48:41.000Z</Time>
            <Position>
              <LatitudeDegrees>40.7451080717146396636962890625</LatitudeDegrees>
              <LongitudeDegrees>-4.0234655700623989105224609375</LongitudeDegrees>
            </Position>
            <AltitudeMeters>1360.4000244140625</AltitudeMeters>
            <DistanceMeters>NAN</DistanceMeters>
          </Trackpoint>
          <Trackpoint>
            <Time>2019-08-01T11:48:42.000Z</Time>
            <Position>
              <LatitudeDegrees>40.74514168314635753631591796875</LatitudeDegrees>
              <LongitudeDegrees>-4.02344654314219951629638671875</LongitudeDegrees>
            </Position>
            <AltitudeMeters>1360.800048828125</AltitudeMeters>
            <DistanceMeters>NAN</DistanceMeters>
          </Trackpoint>
          <Trackpoint>
            <Time>2019-08-01T11:48:43.000Z</Time>
            <Position>
              <LatitudeDegrees>40.745171271264553070068359375</LatitudeDegrees>
              <LongitudeDegrees>-4.02342684566974639892578125</LongitudeDegrees>
            </Position>
            <AltitudeMeters>1361.199951171875</AltitudeMeters>
            <DistanceMeters>NAN</DistanceMeters>
          </Trackpoint>
          <Trackpoint>
            <Time>2019-08-01T11:48:44.000Z</Time>
            <Position>
              <LatitudeDegrees>40.7452006079256534576416015625</LatitudeDegrees>
              <LongitudeDegrees>-4.02340614236891269683837890625</LongitudeDegrees>
            </Position>
            <AltitudeMeters>1361.4000244140625</AltitudeMeters>
            <DistanceMeters>NAN</DistanceMeters>
          </Trackpoint>
          <Trackpoint>
            <Time>2019-08-01T11:48:45.000Z</Time>
            <Position>
              <LatitudeDegrees>40.74522667564451694488525390625</LatitudeDegrees>
              <LongitudeDegrees>-4.02338485233485698699951171875</LongitudeDegrees>
            </Position>
            <AltitudeMeters>1361.4000244140625</AltitudeMeters>
            <DistanceMeters>NAN</DistanceMeters>
          </Trackpoint>
          <Trackpoint>
            <Time>2019-08-01T11:48:46.000Z</Time>
            <Position>
              <LatitudeDegrees>40.74525617994368076324462890625</LatitudeDegrees>
              <LongitudeDegrees>-4.02336222119629383087158203125</LongitudeDegrees>
            </Position>
            <AltitudeMeters>1361.800048828125</AltitudeMeters>
            <DistanceMeters>NAN</DistanceMeters>
          </Trackpoint>
          <Trackpoint>
            <Time>2019-08-01T11:48:47.000Z</Time>
            <Position>
              <LatitudeDegrees>40.74528551660478115081787109375</LatitudeDegrees>
              <LongitudeDegrees>-4.0233390033245086669921875</LongitudeDegrees>
            </Position>
            <AltitudeMeters>1362</AltitudeMeters>
            <DistanceMeters>NAN</DistanceMeters>
          </Trackpoint>
          <Trackpoint>
            <Time>2019-08-01T11:48:48.000Z</Time>
            <Position>
              <LatitudeDegrees>40.7453149370849132537841796875</LatitudeDegrees>
              <LongitudeDegrees>-4.02331419289112091064453125</LongitudeDegrees>
            </Position>
            <AltitudeMeters>1362.4000244140625</AltitudeMeters>
            <DistanceMeters>NAN</DistanceMeters>
          </Trackpoint>
          <Trackpoint>
            <Time>2019-08-01T11:48:49.000Z</Time>
            <Position>
              <LatitudeDegrees>40.74534393846988677978515625</LatitudeDegrees>
              <LongitudeDegrees>-4.023289717733860015869140625</LongitudeDegrees>
            </Position>
            <AltitudeMeters>1362.5999755859375</AltitudeMeters>
            <DistanceMeters>NAN</DistanceMeters>
          </Trackpoint>
          <Trackpoint>
            <Time>2019-08-01T11:48:50.000Z</Time>
            <Position>
              <LatitudeDegrees>40.74537201784551143646240234375</LatitudeDegrees>
              <LongitudeDegrees>-4.0232640691101551055908203125</LongitudeDegrees>
            </Position>
            <AltitudeMeters>1362.800048828125</AltitudeMeters>
            <DistanceMeters>NAN</DistanceMeters>
          </Trackpoint>
          <Trackpoint>
            <Time>2019-08-01T11:48:51.000Z</Time>
            <Position>
              <LatitudeDegrees>40.7454004324972629547119140625</LatitudeDegrees>
              <LongitudeDegrees>-4.023238755762577056884765625</LongitudeDegrees>
            </Position>
            <AltitudeMeters>1363</AltitudeMeters>
            <DistanceMeters>NAN</DistanceMeters>
          </Trackpoint>
          <Trackpoint>
            <Time>2019-08-01T11:48:52.000Z</Time>
            <Position>
              <LatitudeDegrees>40.7454292662441730499267578125</LatitudeDegrees>
              <LongitudeDegrees>-4.023214615881443023681640625</LongitudeDegrees>
            </Position>
            <AltitudeMeters>1363.199951171875</AltitudeMeters>
            <DistanceMeters>NAN</DistanceMeters>
          </Trackpoint>
          <Trackpoint>
            <Time>2019-08-01T11:48:53.000Z</Time>
            <Position>
              <LatitudeDegrees>40.7454580999910831451416015625</LatitudeDegrees>
              <LongitudeDegrees>-4.02319055981934070587158203125</LongitudeDegrees>
            </Position>
            <AltitudeMeters>1363.5999755859375</AltitudeMeters>
            <DistanceMeters>NAN</DistanceMeters>
          </Trackpoint>
          <Trackpoint>
            <Time>2019-08-01T11:48:54.000Z</Time>
            <Position>
              <LatitudeDegrees>40.74548701755702495574951171875</LatitudeDegrees>
              <LongitudeDegrees>-4.0231661684811115264892578125</LongitudeDegrees>
            </Position>
            <AltitudeMeters>1364</AltitudeMeters>
            <DistanceMeters>NAN</DistanceMeters>
          </Trackpoint>
          <Trackpoint>
            <Time>2019-08-01T11:48:55.000Z</Time>
            <Position>
              <LatitudeDegrees>40.7455144263803958892822265625</LatitudeDegrees>
              <LongitudeDegrees>-4.023142196238040924072265625</LongitudeDegrees>
            </Position>
            <AltitudeMeters>1364.199951171875</AltitudeMeters>
            <DistanceMeters>NAN</DistanceMeters>
          </Trackpoint>
          <Trackpoint>
            <Time>2019-08-01T11:48:56.000Z</Time>
            <Position>
              <LatitudeDegrees>40.7455422542989253997802734375</LatitudeDegrees>
              <LongitudeDegrees>-4.02311973273754119873046875</LongitudeDegrees>
            </Position>
            <AltitudeMeters>1364.4000244140625</AltitudeMeters>
            <DistanceMeters>NAN</DistanceMeters>
          </Trackpoint>
          <Trackpoint>
            <Time>2019-08-01T11:48:57.000Z</Time>
            <Position>
              <LatitudeDegrees>40.74556949548423290252685546875</LatitudeDegrees>
              <LongitudeDegrees>-4.0230964310467243194580078125</LongitudeDegrees>
            </Position>
            <AltitudeMeters>1364.5999755859375</AltitudeMeters>
            <DistanceMeters>NAN</DistanceMeters>
          </Trackpoint>
          <Trackpoint>
            <Time>2019-08-01T11:48:58.000Z</Time>
            <Position>
              <LatitudeDegrees>40.74556949548423290252685546875</LatitudeDegrees>
              <LongitudeDegrees>-4.0230964310467243194580078125</LongitudeDegrees>
            </Position>
            <AltitudeMeters>1364.800048828125</AltitudeMeters>
            <DistanceMeters>NAN</DistanceMeters>
          </Trackpoint>
          <Trackpoint>
            <Time>2019-08-01T11:48:59.000Z</Time>
            <Position>
              <LatitudeDegrees>40.7456235587596893310546875</LatitudeDegrees>
              <LongitudeDegrees>-4.02304823510348796844482421875</LongitudeDegrees>
            </Position>
            <AltitudeMeters>1365</AltitudeMeters>
            <DistanceMeters>NAN</DistanceMeters>
          </Trackpoint>
          <Trackpoint>
            <Time>2019-08-01T11:49:00.000Z</Time>
            <Position>
              <LatitudeDegrees>40.74565096758306026458740234375</LatitudeDegrees>
              <LongitudeDegrees>-4.02302359230816364288330078125</LongitudeDegrees>
            </Position>
            <AltitudeMeters>1365</AltitudeMeters>
            <DistanceMeters>NAN</DistanceMeters>
          </Trackpoint>
          <Trackpoint>
            <Time>2019-08-01T11:49:01.000Z</Time>
            <Position>
              <LatitudeDegrees>40.74567829258739948272705078125</LatitudeDegrees>
              <LongitudeDegrees>-4.02299962006509304046630859375</LongitudeDegrees>
            </Position>
            <AltitudeMeters>1365.199951171875</AltitudeMeters>
            <DistanceMeters>NAN</DistanceMeters>
          </Trackpoint>
          <Trackpoint>
            <Time>2019-08-01T11:49:02.000Z</Time>
            <Position>
              <LatitudeDegrees>40.74570494703948497772216796875</LatitudeDegrees>
              <LongitudeDegrees>-4.022974558174610137939453125</LongitudeDegrees>
            </Position>
            <AltitudeMeters>1365.4000244140625</AltitudeMeters>
            <DistanceMeters>NAN</DistanceMeters>
          </Trackpoint>
          <Trackpoint>
            <Time>2019-08-01T11:49:03.000Z</Time>
            <Position>
              <LatitudeDegrees>40.74573151767253875732421875</LatitudeDegrees>
              <LongitudeDegrees>-4.02294849045574665069580078125</LongitudeDegrees>
            </Position>
            <AltitudeMeters>1365.5999755859375</AltitudeMeters>
            <DistanceMeters>NAN</DistanceMeters>
          </Trackpoint>
          <Trackpoint>
            <Time>2019-08-01T11:49:04.000Z</Time>
            <Position>
              <LatitudeDegrees>40.74575859121978282928466796875</LatitudeDegrees>
              <LongitudeDegrees>-4.02292334474623203277587890625</LongitudeDegrees>
            </Position>
            <AltitudeMeters>1366.199951171875</AltitudeMeters>
            <DistanceMeters>NAN</DistanceMeters>
          </Trackpoint>
          <Trackpoint>
            <Time>2019-08-01T11:49:05.000Z</Time>
            <Position>
              <LatitudeDegrees>40.74578524567186832427978515625</LatitudeDegrees>
              <LongitudeDegrees>-4.02289836667478084564208984375</LongitudeDegrees>
            </Position>
            <AltitudeMeters>1366.4000244140625</AltitudeMeters>
            <DistanceMeters>NAN</DistanceMeters>
          </Trackpoint>
          <Trackpoint>
            <Time>2019-08-01T11:49:06.000Z</Time>
            <Position>
              <LatitudeDegrees>40.74581273831427097320556640625</LatitudeDegrees>
              <LongitudeDegrees>-4.0228728018701076507568359375</LongitudeDegrees>
            </Position>
            <AltitudeMeters>1366.5999755859375</AltitudeMeters>
            <DistanceMeters>NAN</DistanceMeters>
          </Trackpoint>
          <Trackpoint>
            <Time>2019-08-01T11:49:07.000Z</Time>
            <Position>
              <LatitudeDegrees>40.74584006331861019134521484375</LatitudeDegrees>
              <LongitudeDegrees>-4.02284773997962474822998046875</LongitudeDegrees>
            </Position>
            <AltitudeMeters>1366.800048828125</AltitudeMeters>
            <DistanceMeters>NAN</DistanceMeters>
          </Trackpoint>
          <Trackpoint>
            <Time>2019-08-01T11:49:08.000Z</Time>
            <Position>
              <LatitudeDegrees>40.7458664663136005401611328125</LatitudeDegrees>
              <LongitudeDegrees>-4.02282158844172954559326171875</LongitudeDegrees>
            </Position>
            <AltitudeMeters>1367</AltitudeMeters>
            <DistanceMeters>NAN</DistanceMeters>
          </Trackpoint>
          <Trackpoint>
            <Time>2019-08-01T11:49:09.000Z</Time>
            <Position>
              <LatitudeDegrees>40.74589152820408344268798828125</LatitudeDegrees>
              <LongitudeDegrees>-4.02279426343739032745361328125</LongitudeDegrees>
            </Position>
            <AltitudeMeters>1367.199951171875</AltitudeMeters>
            <DistanceMeters>NAN</DistanceMeters>
          </Trackpoint>
          <Trackpoint>
            <Time>2019-08-01T11:49:10.000Z</Time>
            <Position>
              <LatitudeDegrees>40.74591617099940776824951171875</LatitudeDegrees>
              <LongitudeDegrees>-4.02276677079498767852783203125</LongitudeDegrees>
            </Position>
            <AltitudeMeters>1367.5999755859375</AltitudeMeters>
            <DistanceMeters>NAN</DistanceMeters>
          </Trackpoint>
          <Trackpoint>
            <Time>2019-08-01T11:49:11.000Z</Time>
            <Position>
              <LatitudeDegrees>40.74591617099940776824951171875</LatitudeDegrees>
              <LongitudeDegrees>-4.02276677079498767852783203125</LongitudeDegrees>
            </Position>
            <AltitudeMeters>1367.800048828125</AltitudeMeters>
            <DistanceMeters>NAN</DistanceMeters>
          </Trackpoint>
          <Trackpoint>
            <Time>2019-08-01T11:49:12.000Z</Time>
            <Position>
              <LatitudeDegrees>40.745965205132961273193359375</LatitudeDegrees>
              <LongitudeDegrees>-4.02271111495792865753173828125</LongitudeDegrees>
            </Position>
            <AltitudeMeters>1368</AltitudeMeters>
            <DistanceMeters>NAN</DistanceMeters>
          </Trackpoint>
          <Trackpoint>
            <Time>2019-08-01T11:49:13.000Z</Time>
            <Position>
              <LatitudeDegrees>40.745988003909587860107421875</LatitudeDegrees>
              <LongitudeDegrees>-4.022682867944240570068359375</LongitudeDegrees>
            </Position>
            <AltitudeMeters>1368</AltitudeMeters>
            <DistanceMeters>NAN</DistanceMeters>
          </Trackpoint>
          <Trackpoint>
            <Time>2019-08-01T11:49:14.000Z</Time>
            <Position>
              <LatitudeDegrees>40.7460109703242778778076171875</LatitudeDegrees>
              <LongitudeDegrees>-4.02265529148280620574951171875</LongitudeDegrees>
            </Position>
            <AltitudeMeters>1368.5999755859375</AltitudeMeters>
            <DistanceMeters>NAN</DistanceMeters>
          </Trackpoint>
          <Trackpoint>
            <Time>2019-08-01T11:49:15.000Z</Time>
            <Position>
              <LatitudeDegrees>40.7460341043770313262939453125</LatitudeDegrees>
              <LongitudeDegrees>-4.0226290561258792877197265625</LongitudeDegrees>
            </Position>
            <AltitudeMeters>1368.800048828125</AltitudeMeters>
            <DistanceMeters>NAN</DistanceMeters>
          </Trackpoint>
          <Trackpoint>
            <Time>2019-08-01T11:49:16.000Z</Time>
            <Position>
              <LatitudeDegrees>40.74605631642043590545654296875</LatitudeDegrees>
              <LongitudeDegrees>-4.022602736949920654296875</LongitudeDegrees>
            </Position>
            <AltitudeMeters>1369</AltitudeMeters>
            <DistanceMeters>NAN</DistanceMeters>
          </Trackpoint>
          <Trackpoint>
            <Time>2019-08-01T11:49:17.000Z</Time>
            <Position>
              <LatitudeDegrees>40.74607886373996734619140625</LatitudeDegrees>
              <LongitudeDegrees>-4.02257583104074001312255859375</LongitudeDegrees>
            </Position>
            <AltitudeMeters>1369.199951171875</AltitudeMeters>
            <DistanceMeters>NAN</DistanceMeters>
          </Trackpoint>
          <Trackpoint>
            <Time>2019-08-01T11:49:18.000Z</Time>
            <Position>
              <LatitudeDegrees>40.746101327240467071533203125</LatitudeDegrees>
              <LongitudeDegrees>-4.022548757493495941162109375</LongitudeDegrees>
            </Position>
            <AltitudeMeters>1369.5999755859375</AltitudeMeters>
            <DistanceMeters>NAN</DistanceMeters>
          </Trackpoint>
          <Trackpoint>
            <Time>2019-08-01T11:49:19.000Z</Time>
            <Position>
              <LatitudeDegrees>40.74612253345549106597900390625</LatitudeDegrees>
              <LongitudeDegrees>-4.02252160012722015380859375</LongitudeDegrees>
            </Position>
            <AltitudeMeters>1369.800048828125</AltitudeMeters>
            <DistanceMeters>NAN</DistanceMeters>
          </Trackpoint>
          <Trackpoint>
            <Time>2019-08-01T11:49:20.000Z</Time>
            <Position>
              <LatitudeDegrees>40.74614432640373706817626953125</LatitudeDegrees>
              <LongitudeDegrees>-4.022494442760944366455078125</LongitudeDegrees>
            </Position>
            <AltitudeMeters>1370.199951171875</AltitudeMeters>
            <DistanceMeters>NAN</DistanceMeters>
          </Trackpoint>
          <Trackpoint>
            <Time>2019-08-01T11:49:21.000Z</Time>
            <Position>
              <LatitudeDegrees>40.74616645462810993194580078125</LatitudeDegrees>
              <LongitudeDegrees>-4.0224674530327320098876953125</LongitudeDegrees>
            </Position>
            <AltitudeMeters>1370.199951171875</AltitudeMeters>
            <DistanceMeters>NAN</DistanceMeters>
          </Trackpoint>
          <Trackpoint>
            <Time>2019-08-01T11:49:22.000Z</Time>
            <Position>
              <LatitudeDegrees>40.74618908576667308807373046875</LatitudeDegrees>
              <LongitudeDegrees>-4.0224402956664562225341796875</LongitudeDegrees>
            </Position>
            <AltitudeMeters>1370.4000244140625</AltitudeMeters>
            <DistanceMeters>NAN</DistanceMeters>
          </Trackpoint>
          <Trackpoint>
            <Time>2019-08-01T11:49:23.000Z</Time>
            <Position>
              <LatitudeDegrees>40.74621171690523624420166015625</LatitudeDegrees>
              <LongitudeDegrees>-4.0224131383001804351806640625</LongitudeDegrees>
            </Position>
            <AltitudeMeters>1370.5999755859375</AltitudeMeters>
            <DistanceMeters>NAN</DistanceMeters>
          </Trackpoint>
          <Trackpoint>
            <Time>2019-08-01T11:49:24.000Z</Time>
            <Position>
              <LatitudeDegrees>40.746232755482196807861328125</LatitudeDegrees>
              <LongitudeDegrees>-4.0223863162100315093994140625</LongitudeDegrees>
            </Position>
            <AltitudeMeters>1370.800048828125</AltitudeMeters>
            <DistanceMeters>NAN</DistanceMeters>
          </Trackpoint>
          <Trackpoint>
            <Time>2019-08-01T11:49:25.000Z</Time>
            <Position>
              <LatitudeDegrees>40.746258236467838287353515625</LatitudeDegrees>
              <LongitudeDegrees>-4.02235387824475765228271484375</LongitudeDegrees>
            </Position>
            <AltitudeMeters>1371.199951171875</AltitudeMeters>
            <DistanceMeters>NAN</DistanceMeters>
          </Trackpoint>
          <Trackpoint>
            <Time>2019-08-01T11:49:26.000Z</Time>
            <Position>
              <LatitudeDegrees>40.7462822087109088897705078125</LatitudeDegrees>
              <LongitudeDegrees>-4.02232487685978412628173828125</LongitudeDegrees>
            </Position>
            <AltitudeMeters>1371.4000244140625</AltitudeMeters>
            <DistanceMeters>NAN</DistanceMeters>
          </Trackpoint>
          <Trackpoint>
            <Time>2019-08-01T11:49:27.000Z</Time>
            <Position>
              <LatitudeDegrees>40.746305845677852630615234375</LatitudeDegrees>
              <LongitudeDegrees>-4.02229621075093746185302734375</LongitudeDegrees>
            </Position>
            <AltitudeMeters>1371.4000244140625</AltitudeMeters>
            <DistanceMeters>NAN</DistanceMeters>
          </Trackpoint>
          <Trackpoint>
            <Time>2019-08-01T11:49:28.000Z</Time>
            <Position>
              <LatitudeDegrees>40.74632856063544750213623046875</LatitudeDegrees>
              <LongitudeDegrees>-4.02226787991821765899658203125</LongitudeDegrees>
            </Position>
            <AltitudeMeters>1371.800048828125</AltitudeMeters>
            <DistanceMeters>NAN</DistanceMeters>
          </Trackpoint>
          <Trackpoint>
            <Time>2019-08-01T11:49:29.000Z</Time>
            <Position>
              <LatitudeDegrees>40.74635119177401065826416015625</LatitudeDegrees>
              <LongitudeDegrees>-4.02223996818065643310546875</LongitudeDegrees>
            </Position>
            <AltitudeMeters>1372.199951171875</AltitudeMeters>
            <DistanceMeters>NAN</DistanceMeters>
          </Trackpoint>
          <Trackpoint>
            <Time>2019-08-01T11:49:30.000Z</Time>
            <Position>
              <LatitudeDegrees>40.74637466110289096832275390625</LatitudeDegrees>
              <LongitudeDegrees>-4.0222126431763172149658203125</LongitudeDegrees>
            </Position>
            <AltitudeMeters>1372.4000244140625</AltitudeMeters>
            <DistanceMeters>NAN</DistanceMeters>
          </Trackpoint>
          <Trackpoint>
            <Time>2019-08-01T11:49:31.000Z</Time>
            <Position>
              <LatitudeDegrees>40.74639745987951755523681640625</LatitudeDegrees>
              <LongitudeDegrees>-4.02218439616262912750244140625</LongitudeDegrees>
            </Position>
            <AltitudeMeters>1372.5999755859375</AltitudeMeters>
            <DistanceMeters>NAN</DistanceMeters>
          </Trackpoint>
          <Trackpoint>
            <Time>2019-08-01T11:49:32.000Z</Time>
            <Position>
              <LatitudeDegrees>40.74641858227550983428955078125</LatitudeDegrees>
              <LongitudeDegrees>-4.02215656824409961700439453125</LongitudeDegrees>
            </Position>
            <AltitudeMeters>1372.800048828125</AltitudeMeters>
            <DistanceMeters>NAN</DistanceMeters>
          </Trackpoint>
          <Trackpoint>
            <Time>2019-08-01T11:49:33.000Z</Time>
            <Position>
              <LatitudeDegrees>40.74643970467150211334228515625</LatitudeDegrees>
              <LongitudeDegrees>-4.0221274830400943756103515625</LongitudeDegrees>
            </Position>
            <AltitudeMeters>1373</AltitudeMeters>
            <DistanceMeters>NAN</DistanceMeters>
          </Trackpoint>
          <Trackpoint>
            <Time>2019-08-01T11:49:34.000Z</Time>
            <Position>
              <LatitudeDegrees>40.7464642636477947235107421875</LatitudeDegrees>
              <LongitudeDegrees>-4.022097475826740264892578125</LongitudeDegrees>
            </Position>
            <AltitudeMeters>1373.199951171875</AltitudeMeters>
            <DistanceMeters>NAN</DistanceMeters>
          </Trackpoint>
          <Trackpoint>
            <Time>2019-08-01T11:49:35.000Z</Time>
            <Position>
              <LatitudeDegrees>40.74648697860538959503173828125</LatitudeDegrees>
              <LongitudeDegrees>-4.022067971527576446533203125</LongitudeDegrees>
            </Position>
            <AltitudeMeters>1373.5999755859375</AltitudeMeters>
            <DistanceMeters>NAN</DistanceMeters>
          </Trackpoint>
          <Trackpoint>
            <Time>2019-08-01T11:49:36.000Z</Time>
            <Position>
              <LatitudeDegrees>40.74650994502007961273193359375</LatitudeDegrees>
              <LongitudeDegrees>-4.02203888632357120513916015625</LongitudeDegrees>
            </Position>
            <AltitudeMeters>1373.800048828125</AltitudeMeters>
            <DistanceMeters>NAN</DistanceMeters>
          </Trackpoint>
          <Trackpoint>
            <Time>2019-08-01T11:49:37.000Z</Time>
            <Position>
              <LatitudeDegrees>40.746532492339611053466796875</LatitudeDegrees>
              <LongitudeDegrees>-4.02200971730053424835205078125</LongitudeDegrees>
            </Position>
            <AltitudeMeters>1374.199951171875</AltitudeMeters>
            <DistanceMeters>NAN</DistanceMeters>
          </Trackpoint>
          <Trackpoint>
            <Time>2019-08-01T11:49:38.000Z</Time>
            <Position>
              <LatitudeDegrees>40.746532492339611053466796875</LatitudeDegrees>
              <LongitudeDegrees>-4.02200971730053424835205078125</LongitudeDegrees>
            </Position>
            <AltitudeMeters>1374.4000244140625</AltitudeMeters>
            <DistanceMeters>NAN</DistanceMeters>
          </Trackpoint>
          <Trackpoint>
            <Time>2019-08-01T11:49:39.000Z</Time>
            <Position>
              <LatitudeDegrees>40.74657448567450046539306640625</LatitudeDegrees>
              <LongitudeDegrees>-4.0219524689018726348876953125</LongitudeDegrees>
            </Position>
            <AltitudeMeters>1374.5999755859375</AltitudeMeters>
            <DistanceMeters>NAN</DistanceMeters>
          </Trackpoint>
          <Trackpoint>
            <Time>2019-08-01T11:49:40.000Z</Time>
            <Position>
              <LatitudeDegrees>40.74659577570855617523193359375</LatitudeDegrees>
              <LongitudeDegrees>-4.02192438952624797821044921875</LongitudeDegrees>
            </Position>
            <AltitudeMeters>1375</AltitudeMeters>
            <DistanceMeters>NAN</DistanceMeters>
          </Trackpoint>
          <Trackpoint>
            <Time>2019-08-01T11:49:41.000Z</Time>
            <Position>
              <LatitudeDegrees>40.7466171495616436004638671875</LatitudeDegrees>
              <LongitudeDegrees>-4.021896980702877044677734375</LongitudeDegrees>
            </Position>
            <AltitudeMeters>1375.199951171875</AltitudeMeters>
            <DistanceMeters>NAN</DistanceMeters>
          </Trackpoint>
          <Trackpoint>
            <Time>2019-08-01T11:49:42.000Z</Time>
            <Position>
              <LatitudeDegrees>40.746637098491191864013671875</LatitudeDegrees>
              <LongitudeDegrees>-4.0218683145940303802490234375</LongitudeDegrees>
            </Position>
            <AltitudeMeters>1375.5999755859375</AltitudeMeters>
            <DistanceMeters>NAN</DistanceMeters>
          </Trackpoint>
          <Trackpoint>
            <Time>2019-08-01T11:49:43.000Z</Time>
            <Position>
              <LatitudeDegrees>40.74665763415396213531494140625</LatitudeDegrees>
              <LongitudeDegrees>-4.0218391455709934234619140625</LongitudeDegrees>
            </Position>
            <AltitudeMeters>1375.800048828125</AltitudeMeters>
            <DistanceMeters>NAN</DistanceMeters>
          </Trackpoint>
          <Trackpoint>
            <Time>2019-08-01T11:49:44.000Z</Time>
            <Position>
              <LatitudeDegrees>40.74668210931122303009033203125</LatitudeDegrees>
              <LongitudeDegrees>-4.021810479462146759033203125</LongitudeDegrees>
            </Position>
            <AltitudeMeters>1375.800048828125</AltitudeMeters>
            <DistanceMeters>NAN</DistanceMeters>
          </Trackpoint>
          <Trackpoint>
            <Time>2019-08-01T11:49:45.000Z</Time>
            <Position>
              <LatitudeDegrees>40.74670591391623020172119140625</LatitudeDegrees>
              <LongitudeDegrees>-4.02178223244845867156982421875</LongitudeDegrees>
            </Position>
            <AltitudeMeters>1376</AltitudeMeters>
            <DistanceMeters>NAN</DistanceMeters>
          </Trackpoint>
          <Trackpoint>
            <Time>2019-08-01T11:49:46.000Z</Time>
            <Position>
              <LatitudeDegrees>40.7467286288738250732421875</LatitudeDegrees>
              <LongitudeDegrees>-4.02175356633961200714111328125</LongitudeDegrees>
            </Position>
            <AltitudeMeters>1376.199951171875</AltitudeMeters>
            <DistanceMeters>NAN</DistanceMeters>
          </Trackpoint>
          <Trackpoint>
            <Time>2019-08-01T11:49:47.000Z</Time>
            <Position>
              <LatitudeDegrees>40.7467519305646419525146484375</LatitudeDegrees>
              <LongitudeDegrees>-4.02172523550689220428466796875</LongitudeDegrees>
            </Position>
            <AltitudeMeters>1376.4000244140625</AltitudeMeters>
            <DistanceMeters>NAN</DistanceMeters>
          </Trackpoint>
          <Trackpoint>
            <Time>2019-08-01T11:49:48.000Z</Time>
            <Position>
              <LatitudeDegrees>40.74677514843642711639404296875</LatitudeDegrees>
              <LongitudeDegrees>-4.02169656939804553985595703125</LongitudeDegrees>
            </Position>
            <AltitudeMeters>1376.5999755859375</AltitudeMeters>
            <DistanceMeters>NAN</DistanceMeters>
          </Trackpoint>
          <Trackpoint>
            <Time>2019-08-01T11:49:49.000Z</Time>
            <Position>
              <LatitudeDegrees>40.74679845012724399566650390625</LatitudeDegrees>
              <LongitudeDegrees>-4.02166865766048431396484375</LongitudeDegrees>
            </Position>
            <AltitudeMeters>1377.4000244140625</AltitudeMeters>
            <DistanceMeters>NAN</DistanceMeters>
          </Trackpoint>
          <Trackpoint>
            <Time>2019-08-01T11:49:50.000Z</Time>
            <Position>
              <LatitudeDegrees>40.7468213327229022979736328125</LatitudeDegrees>
              <LongitudeDegrees>-4.0216416679322719573974609375</LongitudeDegrees>
            </Position>
            <AltitudeMeters>1377.5999755859375</AltitudeMeters>
            <DistanceMeters>NAN</DistanceMeters>
          </Trackpoint>
          <Trackpoint>
            <Time>2019-08-01T11:49:51.000Z</Time>
            <Position>
              <LatitudeDegrees>40.74684287421405315399169921875</LatitudeDegrees>
              <LongitudeDegrees>-4.02161425910890102386474609375</LongitudeDegrees>
            </Position>
            <AltitudeMeters>1377.800048828125</AltitudeMeters>
            <DistanceMeters>NAN</DistanceMeters>
          </Trackpoint>
          <Trackpoint>
            <Time>2019-08-01T11:49:52.000Z</Time>
            <Position>
              <LatitudeDegrees>40.7468635775148868560791015625</LatitudeDegrees>
              <LongitudeDegrees>-4.02158676646649837493896484375</LongitudeDegrees>
            </Position>
            <AltitudeMeters>1378</AltitudeMeters>
            <DistanceMeters>NAN</DistanceMeters>
          </Trackpoint>
          <Trackpoint>
            <Time>2019-08-01T11:49:53.000Z</Time>
            <Position>
              <LatitudeDegrees>40.7468846999108791351318359375</LatitudeDegrees>
              <LongitudeDegrees>-4.02155944146215915679931640625</LongitudeDegrees>
            </Position>
            <AltitudeMeters>1378.199951171875</AltitudeMeters>
            <DistanceMeters>NAN</DistanceMeters>
          </Trackpoint>
          <Trackpoint>
            <Time>2019-08-01T11:49:54.000Z</Time>
            <Position>
              <LatitudeDegrees>40.746908001601696014404296875</LatitudeDegrees>
              <LongitudeDegrees>-4.021530859172344207763671875</LongitudeDegrees>
            </Position>
            <AltitudeMeters>1378.5999755859375</AltitudeMeters>
            <DistanceMeters>NAN</DistanceMeters>
          </Trackpoint>
          <Trackpoint>
            <Time>2019-08-01T11:49:55.000Z</Time>
            <Position>
              <LatitudeDegrees>40.7469299621880054473876953125</LatitudeDegrees>
              <LongitudeDegrees>-4.0215038694441318511962890625</LongitudeDegrees>
            </Position>
            <AltitudeMeters>1379</AltitudeMeters>
            <DistanceMeters>NAN</DistanceMeters>
          </Trackpoint>
          <Trackpoint>
            <Time>2019-08-01T11:49:56.000Z</Time>
            <Position>
              <LatitudeDegrees>40.7469490729272365570068359375</LatitudeDegrees>
              <LongitudeDegrees>-4.0214777179062366485595703125</LongitudeDegrees>
            </Position>
            <AltitudeMeters>1379.199951171875</AltitudeMeters>
            <DistanceMeters>NAN</DistanceMeters>
          </Trackpoint>
          <Trackpoint>
            <Time>2019-08-01T11:49:57.000Z</Time>
            <Position>
              <LatitudeDegrees>40.74696675874292850494384765625</LatitudeDegrees>
              <LongitudeDegrees>-4.02145131491124629974365234375</LongitudeDegrees>
            </Position>
            <AltitudeMeters>1379.800048828125</AltitudeMeters>
            <DistanceMeters>NAN</DistanceMeters>
          </Trackpoint>
          <Trackpoint>
            <Time>2019-08-01T11:49:58.000Z</Time>
            <Position>
              <LatitudeDegrees>40.74698436073958873748779296875</LatitudeDegrees>
              <LongitudeDegrees>-4.0214239060878753662109375</LongitudeDegrees>
            </Position>
            <AltitudeMeters>1380</AltitudeMeters>
            <DistanceMeters>NAN</DistanceMeters>
          </Trackpoint>
          <Trackpoint>
            <Time>2019-08-01T11:49:59.000Z</Time>
            <Position>
              <LatitudeDegrees>40.7470030523836612701416015625</LatitudeDegrees>
              <LongitudeDegrees>-4.02139767073094844818115234375</LongitudeDegrees>
            </Position>
            <AltitudeMeters>1380</AltitudeMeters>
            <DistanceMeters>NAN</DistanceMeters>
          </Trackpoint>
          <Trackpoint>
            <Time>2019-08-01T11:50:00.000Z</Time>
            <Position>
              <LatitudeDegrees>40.74702342040836811065673828125</LatitudeDegrees>
              <LongitudeDegrees>-4.021369926631450653076171875</LongitudeDegrees>
            </Position>
            <AltitudeMeters>1380.4000244140625</AltitudeMeters>
            <DistanceMeters>NAN</DistanceMeters>
          </Trackpoint>
          <Trackpoint>
            <Time>2019-08-01T11:50:01.000Z</Time>
            <Position>
              <LatitudeDegrees>40.7470489852130413055419921875</LatitudeDegrees>
              <LongitudeDegrees>-4.0213395841419696807861328125</LongitudeDegrees>
            </Position>
            <AltitudeMeters>1380.800048828125</AltitudeMeters>
            <DistanceMeters>NAN</DistanceMeters>
          </Trackpoint>
          <Trackpoint>
            <Time>2019-08-01T11:50:02.000Z</Time>
            <Position>
              <LatitudeDegrees>40.7470489852130413055419921875</LatitudeDegrees>
              <LongitudeDegrees>-4.0213395841419696807861328125</LongitudeDegrees>
            </Position>
            <AltitudeMeters>1381</AltitudeMeters>
            <DistanceMeters>NAN</DistanceMeters>
          </Trackpoint>
          <Trackpoint>
            <Time>2019-08-01T11:50:03.000Z</Time>
            <Position>
              <LatitudeDegrees>40.74709114618599414825439453125</LatitudeDegrees>
              <LongitudeDegrees>-4.02128233574330806732177734375</LongitudeDegrees>
            </Position>
            <AltitudeMeters>1381.199951171875</AltitudeMeters>
            <DistanceMeters>NAN</DistanceMeters>
          </Trackpoint>
          <Trackpoint>
            <Time>2019-08-01T11:50:04.000Z</Time>
            <Position>
              <LatitudeDegrees>40.7471113465726375579833984375</LatitudeDegrees>
              <LongitudeDegrees>-4.021253921091556549072265625</LongitudeDegrees>
            </Position>
            <AltitudeMeters>1381.5999755859375</AltitudeMeters>
            <DistanceMeters>NAN</DistanceMeters>
          </Trackpoint>
          <Trackpoint>
            <Time>2019-08-01T11:50:05.000Z</Time>
            <Position>
              <LatitudeDegrees>40.74713154695928096771240234375</LatitudeDegrees>
              <LongitudeDegrees>-4.0212262608110904693603515625</LongitudeDegrees>
            </Position>
            <AltitudeMeters>1381.800048828125</AltitudeMeters>
            <DistanceMeters>NAN</DistanceMeters>
          </Trackpoint>
          <Trackpoint>
            <Time>2019-08-01T11:50:06.000Z</Time>
            <Position>
              <LatitudeDegrees>40.74715434573590755462646484375</LatitudeDegrees>
              <LongitudeDegrees>-4.02119901962578296661376953125</LongitudeDegrees>
            </Position>
            <AltitudeMeters>1382.4000244140625</AltitudeMeters>
            <DistanceMeters>NAN</DistanceMeters>
          </Trackpoint>
          <Trackpoint>
            <Time>2019-08-01T11:50:07.000Z</Time>
            <Position>
              <LatitudeDegrees>40.747174210846424102783203125</LatitudeDegrees>
              <LongitudeDegrees>-4.021172784268856048583984375</LongitudeDegrees>
            </Position>
            <AltitudeMeters>1382.5999755859375</AltitudeMeters>
            <DistanceMeters>NAN</DistanceMeters>
          </Trackpoint>
          <Trackpoint>
            <Time>2019-08-01T11:50:08.000Z</Time>
            <Position>
              <LatitudeDegrees>40.747196674346923828125</LatitudeDegrees>
              <LongitudeDegrees>-4.02114562690258026123046875</LongitudeDegrees>
            </Position>
            <AltitudeMeters>1383</AltitudeMeters>
            <DistanceMeters>NAN</DistanceMeters>
          </Trackpoint>
          <Trackpoint>
            <Time>2019-08-01T11:50:09.000Z</Time>
            <Position>
              <LatitudeDegrees>40.74722089804708957672119140625</LatitudeDegrees>
              <LongitudeDegrees>-4.0211189724504947662353515625</LongitudeDegrees>
            </Position>
            <AltitudeMeters>1383.199951171875</AltitudeMeters>
            <DistanceMeters>NAN</DistanceMeters>
          </Trackpoint>
          <Trackpoint>
            <Time>2019-08-01T11:50:10.000Z</Time>
            <Position>
              <LatitudeDegrees>40.74724654667079448699951171875</LatitudeDegrees>
              <LongitudeDegrees>-4.02109407819807529449462890625</LongitudeDegrees>
            </Position>
            <AltitudeMeters>1383.4000244140625</AltitudeMeters>
            <DistanceMeters>NAN</DistanceMeters>
          </Trackpoint>
          <Trackpoint>
            <Time>2019-08-01T11:50:11.000Z</Time>
            <Position>
              <LatitudeDegrees>40.74726934544742107391357421875</LatitudeDegrees>
              <LongitudeDegrees>-4.02106943540275096893310546875</LongitudeDegrees>
            </Position>
            <AltitudeMeters>1383.5999755859375</AltitudeMeters>
            <DistanceMeters>NAN</DistanceMeters>
          </Trackpoint>
          <Trackpoint>
            <Time>2019-08-01T11:50:12.000Z</Time>
            <Position>
              <LatitudeDegrees>40.74729650281369686126708984375</LatitudeDegrees>
              <LongitudeDegrees>-4.02104412205517292022705078125</LongitudeDegrees>
            </Position>
            <AltitudeMeters>1383.800048828125</AltitudeMeters>
            <DistanceMeters>NAN</DistanceMeters>
          </Trackpoint>
          <Trackpoint>
            <Time>2019-08-01T11:50:13.000Z</Time>
            <Position>
              <LatitudeDegrees>40.74732500128448009490966796875</LatitudeDegrees>
              <LongitudeDegrees>-4.021020568907260894775390625</LongitudeDegrees>
            </Position>
            <AltitudeMeters>1384.199951171875</AltitudeMeters>
            <DistanceMeters>NAN</DistanceMeters>
          </Trackpoint>
          <Trackpoint>
            <Time>2019-08-01T11:50:14.000Z</Time>
            <Position>
              <LatitudeDegrees>40.7473594509065151214599609375</LatitudeDegrees>
              <LongitudeDegrees>-4.02099869213998317718505859375</LongitudeDegrees>
            </Position>
            <AltitudeMeters>1384.199951171875</AltitudeMeters>
            <DistanceMeters>NAN</DistanceMeters>
          </Trackpoint>
          <Trackpoint>
            <Time>2019-08-01T11:50:15.000Z</Time>
            <Position>
              <LatitudeDegrees>40.7473889552056789398193359375</LatitudeDegrees>
              <LongitudeDegrees>-4.02097689919173717498779296875</LongitudeDegrees>
            </Position>
            <AltitudeMeters>1384.4000244140625</AltitudeMeters>
            <DistanceMeters>NAN</DistanceMeters>
          </Trackpoint>
          <Trackpoint>
            <Time>2019-08-01T11:50:16.000Z</Time>
            <Position>
              <LatitudeDegrees>40.74741787277162075042724609375</LatitudeDegrees>
              <LongitudeDegrees>-4.0209545195102691650390625</LongitudeDegrees>
            </Position>
            <AltitudeMeters>1384.4000244140625</AltitudeMeters>
            <DistanceMeters>NAN</DistanceMeters>
          </Trackpoint>
          <Trackpoint>
            <Time>2019-08-01T11:50:17.000Z</Time>
            <Position>
              <LatitudeDegrees>40.74744637124240398406982421875</LatitudeDegrees>
              <LongitudeDegrees>-4.02093197219073772430419921875</LongitudeDegrees>
            </Position>
            <AltitudeMeters>1385</AltitudeMeters>
            <DistanceMeters>NAN</DistanceMeters>
          </Trackpoint>
          <Trackpoint>
            <Time>2019-08-01T11:50:18.000Z</Time>
            <Position>
              <LatitudeDegrees>40.74747537262737751007080078125</LatitudeDegrees>
              <LongitudeDegrees>-4.02090867049992084503173828125</LongitudeDegrees>
            </Position>
            <AltitudeMeters>1385.199951171875</AltitudeMeters>
            <DistanceMeters>NAN</DistanceMeters>
          </Trackpoint>
          <Trackpoint>
            <Time>2019-08-01T11:50:19.000Z</Time>
            <Position>
              <LatitudeDegrees>40.7475029490888118743896484375</LatitudeDegrees>
              <LongitudeDegrees>-4.020884446799755096435546875</LongitudeDegrees>
            </Position>
            <AltitudeMeters>1385.4000244140625</AltitudeMeters>
            <DistanceMeters>NAN</DistanceMeters>
          </Trackpoint>
          <Trackpoint>
            <Time>2019-08-01T11:50:20.000Z</Time>
            <Position>
              <LatitudeDegrees>40.74753002263605594635009765625</LatitudeDegrees>
              <LongitudeDegrees>-4.02085871435701847076416015625</LongitudeDegrees>
            </Position>
            <AltitudeMeters>1385.5999755859375</AltitudeMeters>
            <DistanceMeters>NAN</DistanceMeters>
          </Trackpoint>
          <Trackpoint>
            <Time>2019-08-01T11:50:21.000Z</Time>
            <Position>
              <LatitudeDegrees>40.74755684472620487213134765625</LatitudeDegrees>
              <LongitudeDegrees>-4.02083180844783782958984375</LongitudeDegrees>
            </Position>
            <AltitudeMeters>1385.800048828125</AltitudeMeters>
            <DistanceMeters>NAN</DistanceMeters>
          </Trackpoint>
          <Trackpoint>
            <Time>2019-08-01T11:50:22.000Z</Time>
            <Position>
              <LatitudeDegrees>40.74758492410182952880859375</LatitudeDegrees>
              <LongitudeDegrees>-4.0208031423389911651611328125</LongitudeDegrees>
            </Position>
            <AltitudeMeters>1386</AltitudeMeters>
            <DistanceMeters>NAN</DistanceMeters>
          </Trackpoint>
          <Trackpoint>
            <Time>2019-08-01T11:50:23.000Z</Time>
            <Position>
              <LatitudeDegrees>40.747611410915851593017578125</LatitudeDegrees>
              <LongitudeDegrees>-4.0207736380398273468017578125</LongitudeDegrees>
            </Position>
            <AltitudeMeters>1386.4000244140625</AltitudeMeters>
            <DistanceMeters>NAN</DistanceMeters>
          </Trackpoint>
          <Trackpoint>
            <Time>2019-08-01T11:50:24.000Z</Time>
            <Position>
              <LatitudeDegrees>40.74763664044439792633056640625</LatitudeDegrees>
              <LongitudeDegrees>-4.02074220590293407440185546875</LongitudeDegrees>
            </Position>
            <AltitudeMeters>1386.5999755859375</AltitudeMeters>
            <DistanceMeters>NAN</DistanceMeters>
          </Trackpoint>
          <Trackpoint>
            <Time>2019-08-01T11:50:25.000Z</Time>
            <Position>
              <LatitudeDegrees>40.74766061268746852874755859375</LatitudeDegrees>
              <LongitudeDegrees>-4.02070834301412105560302734375</LongitudeDegrees>
            </Position>
            <AltitudeMeters>1386.5999755859375</AltitudeMeters>
            <DistanceMeters>NAN</DistanceMeters>
          </Trackpoint>
          <Trackpoint>
            <Time>2019-08-01T11:50:26.000Z</Time>
            <Position>
              <LatitudeDegrees>40.7476839981973171234130859375</LatitudeDegrees>
              <LongitudeDegrees>-4.02067347429692745208740234375</LongitudeDegrees>
            </Position>
            <AltitudeMeters>1386.800048828125</AltitudeMeters>
            <DistanceMeters>NAN</DistanceMeters>
          </Trackpoint>
          <Trackpoint>
            <Time>2019-08-01T11:50:27.000Z</Time>
            <Position>
              <LatitudeDegrees>40.74770721606910228729248046875</LatitudeDegrees>
              <LongitudeDegrees>-4.02063827030360698699951171875</LongitudeDegrees>
            </Position>
            <AltitudeMeters>1387</AltitudeMeters>
            <DistanceMeters>NAN</DistanceMeters>
          </Trackpoint>
          <Trackpoint>
            <Time>2019-08-01T11:50:28.000Z</Time>
            <Position>
              <LatitudeDegrees>40.74773102067410945892333984375</LatitudeDegrees>
              <LongitudeDegrees>-4.0206031501293182373046875</LongitudeDegrees>
            </Position>
            <AltitudeMeters>1387.199951171875</AltitudeMeters>
            <DistanceMeters>NAN</DistanceMeters>
          </Trackpoint>
          <Trackpoint>
            <Time>2019-08-01T11:50:29.000Z</Time>
            <Position>
              <LatitudeDegrees>40.74775415472686290740966796875</LatitudeDegrees>
              <LongitudeDegrees>-4.02056761085987091064453125</LongitudeDegrees>
            </Position>
            <AltitudeMeters>1387.4000244140625</AltitudeMeters>
            <DistanceMeters>NAN</DistanceMeters>
          </Trackpoint>
          <Trackpoint>
            <Time>2019-08-01T11:50:30.000Z</Time>
            <Position>
              <LatitudeDegrees>40.7477768696844577789306640625</LatitudeDegrees>
              <LongitudeDegrees>-4.02053198777139186859130859375</LongitudeDegrees>
            </Position>
            <AltitudeMeters>1387.4000244140625</AltitudeMeters>
            <DistanceMeters>NAN</DistanceMeters>
          </Trackpoint>
          <Trackpoint>
            <Time>2019-08-01T11:50:31.000Z</Time>
            <Position>
              <LatitudeDegrees>40.7478000037372112274169921875</LatitudeDegrees>
              <LongitudeDegrees>-4.02049787342548370361328125</LongitudeDegrees>
            </Position>
            <AltitudeMeters>1387.5999755859375</AltitudeMeters>
            <DistanceMeters>NAN</DistanceMeters>
          </Trackpoint>
          <Trackpoint>
            <Time>2019-08-01T11:50:32.000Z</Time>
            <Position>
              <LatitudeDegrees>40.74782456271350383758544921875</LatitudeDegrees>
              <LongitudeDegrees>-4.0204635076224803924560546875</LongitudeDegrees>
            </Position>
            <AltitudeMeters>1387.800048828125</AltitudeMeters>
            <DistanceMeters>NAN</DistanceMeters>
          </Trackpoint>
          <Trackpoint>
            <Time>2019-08-01T11:50:33.000Z</Time>
            <Position>
              <LatitudeDegrees>40.74784836731851100921630859375</LatitudeDegrees>
              <LongitudeDegrees>-4.0204286389052867889404296875</LongitudeDegrees>
            </Position>
            <AltitudeMeters>1388.199951171875</AltitudeMeters>
            <DistanceMeters>NAN</DistanceMeters>
          </Trackpoint>
          <Trackpoint>
            <Time>2019-08-01T11:50:34.000Z</Time>
            <Position>
              <LatitudeDegrees>40.7478710822761058807373046875</LatitudeDegrees>
              <LongitudeDegrees>-4.0203934349119663238525390625</LongitudeDegrees>
            </Position>
            <AltitudeMeters>1388.5999755859375</AltitudeMeters>
            <DistanceMeters>NAN</DistanceMeters>
          </Trackpoint>
          <Trackpoint>
            <Time>2019-08-01T11:50:35.000Z</Time>
            <Position>
              <LatitudeDegrees>40.7478940486907958984375</LatitudeDegrees>
              <LongitudeDegrees>-4.020359404385089874267578125</LongitudeDegrees>
            </Position>
            <AltitudeMeters>1388.800048828125</AltitudeMeters>
            <DistanceMeters>NAN</DistanceMeters>
          </Trackpoint>
          <Trackpoint>
            <Time>2019-08-01T11:50:36.000Z</Time>
            <Position>
              <LatitudeDegrees>40.747915171086788177490234375</LatitudeDegrees>
              <LongitudeDegrees>-4.02032730169594287872314453125</LongitudeDegrees>
            </Position>
            <AltitudeMeters>1389.199951171875</AltitudeMeters>
            <DistanceMeters>NAN</DistanceMeters>
          </Trackpoint>
          <Trackpoint>
            <Time>2019-08-01T11:50:37.000Z</Time>
            <Position>
              <LatitudeDegrees>40.747935287654399871826171875</LatitudeDegrees>
              <LongitudeDegrees>-4.02029595337808132171630859375</LongitudeDegrees>
            </Position>
            <AltitudeMeters>1389.4000244140625</AltitudeMeters>
            <DistanceMeters>NAN</DistanceMeters>
          </Trackpoint>
          <Trackpoint>
            <Time>2019-08-01T11:50:38.000Z</Time>
            <Position>
              <LatitudeDegrees>40.747954733669757843017578125</LatitudeDegrees>
              <LongitudeDegrees>-4.0202646888792514801025390625</LongitudeDegrees>
            </Position>
            <AltitudeMeters>1389.5999755859375</AltitudeMeters>
            <DistanceMeters>NAN</DistanceMeters>
          </Trackpoint>
          <Trackpoint>
            <Time>2019-08-01T11:50:39.000Z</Time>
            <Position>
              <LatitudeDegrees>40.74797459878027439117431640625</LatitudeDegrees>
              <LongitudeDegrees>-4.02023367583751678466796875</LongitudeDegrees>
            </Position>
            <AltitudeMeters>1389.800048828125</AltitudeMeters>
            <DistanceMeters>NAN</DistanceMeters>
          </Trackpoint>
          <Trackpoint>
            <Time>2019-08-01T11:50:40.000Z</Time>
            <Position>
              <LatitudeDegrees>40.74799588881433010101318359375</LatitudeDegrees>
              <LongitudeDegrees>-4.02020190842449665069580078125</LongitudeDegrees>
            </Position>
            <AltitudeMeters>1390.199951171875</AltitudeMeters>
            <DistanceMeters>NAN</DistanceMeters>
          </Trackpoint>
          <Trackpoint>
            <Time>2019-08-01T11:50:41.000Z</Time>
            <Position>
              <LatitudeDegrees>40.74801617302000522613525390625</LatitudeDegrees>
              <LongitudeDegrees>-4.02016938664019107818603515625</LongitudeDegrees>
            </Position>
            <AltitudeMeters>1390.4000244140625</AltitudeMeters>
            <DistanceMeters>NAN</DistanceMeters>
          </Trackpoint>
          <Trackpoint>
            <Time>2019-08-01T11:50:42.000Z</Time>
            <Position>
              <LatitudeDegrees>40.74803528375923633575439453125</LatitudeDegrees>
              <LongitudeDegrees>-4.02013686485588550567626953125</LongitudeDegrees>
            </Position>
            <AltitudeMeters>1390.4000244140625</AltitudeMeters>
            <DistanceMeters>NAN</DistanceMeters>
          </Trackpoint>
          <Trackpoint>
            <Time>2019-08-01T11:50:43.000Z</Time>
            <Position>
              <LatitudeDegrees>40.74803528375923633575439453125</LatitudeDegrees>
              <LongitudeDegrees>-4.02013686485588550567626953125</LongitudeDegrees>
            </Position>
            <AltitudeMeters>1390.800048828125</AltitudeMeters>
            <DistanceMeters>NAN</DistanceMeters>
          </Trackpoint>
          <Trackpoint>
            <Time>2019-08-01T11:50:44.000Z</Time>
            <Position>
              <LatitudeDegrees>40.74806914664804935455322265625</LatitudeDegrees>
              <LongitudeDegrees>-4.020076431334018707275390625</LongitudeDegrees>
            </Position>
            <AltitudeMeters>1391.199951171875</AltitudeMeters>
            <DistanceMeters>NAN</DistanceMeters>
          </Trackpoint>
          <Trackpoint>
            <Time>2019-08-01T11:50:45.000Z</Time>
            <Position>
              <LatitudeDegrees>40.7480858266353607177734375</LatitudeDegrees>
              <LongitudeDegrees>-4.0200457535684108734130859375</LongitudeDegrees>
            </Position>
            <AltitudeMeters>1391.800048828125</AltitudeMeters>
            <DistanceMeters>NAN</DistanceMeters>
          </Trackpoint>
          <Trackpoint>
            <Time>2019-08-01T11:50:46.000Z</Time>
            <Position>
              <LatitudeDegrees>40.74811072088778018951416015625</LatitudeDegrees>
              <LongitudeDegrees>-4.0200139023363590240478515625</LongitudeDegrees>
            </Position>
            <AltitudeMeters>1392.199951171875</AltitudeMeters>
            <DistanceMeters>NAN</DistanceMeters>
          </Trackpoint>
          <Trackpoint>
            <Time>2019-08-01T11:50:47.000Z</Time>
            <Position>
              <LatitudeDegrees>40.74813385494053363800048828125</LatitudeDegrees>
              <LongitudeDegrees>-4.01998297311365604400634765625</LongitudeDegrees>
            </Position>
            <AltitudeMeters>1392.4000244140625</AltitudeMeters>
            <DistanceMeters>NAN</DistanceMeters>
          </Trackpoint>
          <Trackpoint>
            <Time>2019-08-01T11:50:48.000Z</Time>
            <Position>
              <LatitudeDegrees>40.7481564022600650787353515625</LatitudeDegrees>
              <LongitudeDegrees>-4.01995162479579448699951171875</LongitudeDegrees>
            </Position>
            <AltitudeMeters>1392.5999755859375</AltitudeMeters>
            <DistanceMeters>NAN</DistanceMeters>
          </Trackpoint>
          <Trackpoint>
            <Time>2019-08-01T11:50:49.000Z</Time>
            <Position>
              <LatitudeDegrees>40.74817928485572338104248046875</LatitudeDegrees>
              <LongitudeDegrees>-4.0199217014014720916748046875</LongitudeDegrees>
            </Position>
            <AltitudeMeters>1392.800048828125</AltitudeMeters>
            <DistanceMeters>NAN</DistanceMeters>
          </Trackpoint>
          <Trackpoint>
            <Time>2019-08-01T11:50:50.000Z</Time>
            <Position>
              <LatitudeDegrees>40.74820124544203281402587890625</LatitudeDegrees>
              <LongitudeDegrees>-4.01989244855940341949462890625</LongitudeDegrees>
            </Position>
            <AltitudeMeters>1393</AltitudeMeters>
            <DistanceMeters>NAN</DistanceMeters>
          </Trackpoint>
          <Trackpoint>
            <Time>2019-08-01T11:50:51.000Z</Time>
            <Position>
              <LatitudeDegrees>40.74822588823735713958740234375</LatitudeDegrees>
              <LongitudeDegrees>-4.01986378245055675506591796875</LongitudeDegrees>
            </Position>
            <AltitudeMeters>1393.199951171875</AltitudeMeters>
            <DistanceMeters>NAN</DistanceMeters>
          </Trackpoint>
          <Trackpoint>
            <Time>2019-08-01T11:50:52.000Z</Time>
            <Position>
              <LatitudeDegrees>40.74825036339461803436279296875</LatitudeDegrees>
              <LongitudeDegrees>-4.0198355354368686676025390625</LongitudeDegrees>
            </Position>
            <AltitudeMeters>1393.4000244140625</AltitudeMeters>
            <DistanceMeters>NAN</DistanceMeters>
          </Trackpoint>
          <Trackpoint>
            <Time>2019-08-01T11:50:53.000Z</Time>
            <Position>
              <LatitudeDegrees>40.74827400036156177520751953125</LatitudeDegrees>
              <LongitudeDegrees>-4.01980795897543430328369140625</LongitudeDegrees>
            </Position>
            <AltitudeMeters>1393.800048828125</AltitudeMeters>
            <DistanceMeters>NAN</DistanceMeters>
          </Trackpoint>
          <Trackpoint>
            <Time>2019-08-01T11:50:54.000Z</Time>
            <Position>
              <LatitudeDegrees>40.74829612858593463897705078125</LatitudeDegrees>
              <LongitudeDegrees>-4.01977962814271450042724609375</LongitudeDegrees>
            </Position>
            <AltitudeMeters>1393.800048828125</AltitudeMeters>
            <DistanceMeters>NAN</DistanceMeters>
          </Trackpoint>
          <Trackpoint>
            <Time>2019-08-01T11:50:55.000Z</Time>
            <Position>
              <LatitudeDegrees>40.74832412414252758026123046875</LatitudeDegrees>
              <LongitudeDegrees>-4.01975163258612155914306640625</LongitudeDegrees>
            </Position>
            <AltitudeMeters>1394.199951171875</AltitudeMeters>
            <DistanceMeters>NAN</DistanceMeters>
          </Trackpoint>
          <Trackpoint>
            <Time>2019-08-01T11:50:56.000Z</Time>
            <Position>
              <LatitudeDegrees>40.74835094623267650604248046875</LatitudeDegrees>
              <LongitudeDegrees>-4.01972330175340175628662109375</LongitudeDegrees>
            </Position>
            <AltitudeMeters>1394.5999755859375</AltitudeMeters>
            <DistanceMeters>NAN</DistanceMeters>
          </Trackpoint>
          <Trackpoint>
            <Time>2019-08-01T11:50:57.000Z</Time>
            <Position>
              <LatitudeDegrees>40.7483773492276668548583984375</LatitudeDegrees>
              <LongitudeDegrees>-4.01969564147293567657470703125</LongitudeDegrees>
            </Position>
            <AltitudeMeters>1394.800048828125</AltitudeMeters>
            <DistanceMeters>NAN</DistanceMeters>
          </Trackpoint>
          <Trackpoint>
            <Time>2019-08-01T11:50:58.000Z</Time>
            <Position>
              <LatitudeDegrees>40.7484018243849277496337890625</LatitudeDegrees>
              <LongitudeDegrees>-4.01966814883053302764892578125</LongitudeDegrees>
            </Position>
            <AltitudeMeters>1395</AltitudeMeters>
            <DistanceMeters>NAN</DistanceMeters>
          </Trackpoint>
          <Trackpoint>
            <Time>2019-08-01T11:50:59.000Z</Time>
            <Position>
              <LatitudeDegrees>40.74842420406639575958251953125</LatitudeDegrees>
              <LongitudeDegrees>-4.01963931508362293243408203125</LongitudeDegrees>
            </Position>
            <AltitudeMeters>1395.199951171875</AltitudeMeters>
            <DistanceMeters>NAN</DistanceMeters>
          </Trackpoint>
          <Trackpoint>
            <Time>2019-08-01T11:51:00.000Z</Time>
            <Position>
              <LatitudeDegrees>40.7484474219381809234619140625</LatitudeDegrees>
              <LongitudeDegrees>-4.01961232535541057586669921875</LongitudeDegrees>
            </Position>
            <AltitudeMeters>1395.4000244140625</AltitudeMeters>
            <DistanceMeters>NAN</DistanceMeters>
          </Trackpoint>
          <Trackpoint>
            <Time>2019-08-01T11:51:01.000Z</Time>
            <Position>
              <LatitudeDegrees>40.74847265146672725677490234375</LatitudeDegrees>
              <LongitudeDegrees>-4.0195864252746105194091796875</LongitudeDegrees>
            </Position>
            <AltitudeMeters>1395.5999755859375</AltitudeMeters>
            <DistanceMeters>NAN</DistanceMeters>
          </Trackpoint>
          <Trackpoint>
            <Time>2019-08-01T11:51:02.000Z</Time>
            <Position>
              <LatitudeDegrees>40.74850098229944705963134765625</LatitudeDegrees>
              <LongitudeDegrees>-4.019559435546398162841796875</LongitudeDegrees>
            </Position>
            <AltitudeMeters>1395.800048828125</AltitudeMeters>
            <DistanceMeters>NAN</DistanceMeters>
          </Trackpoint>
          <Trackpoint>
            <Time>2019-08-01T11:51:03.000Z</Time>
            <Position>
              <LatitudeDegrees>40.7485275529325008392333984375</LatitudeDegrees>
              <LongitudeDegrees>-4.01953202672302722930908203125</LongitudeDegrees>
            </Position>
            <AltitudeMeters>1395.800048828125</AltitudeMeters>
            <DistanceMeters>NAN</DistanceMeters>
          </Trackpoint>
          <Trackpoint>
            <Time>2019-08-01T11:51:04.000Z</Time>
            <Position>
              <LatitudeDegrees>40.7485543750226497650146484375</LatitudeDegrees>
              <LongitudeDegrees>-4.019503109157085418701171875</LongitudeDegrees>
            </Position>
            <AltitudeMeters>1396</AltitudeMeters>
            <DistanceMeters>NAN</DistanceMeters>
          </Trackpoint>
          <Trackpoint>
            <Time>2019-08-01T11:51:05.000Z</Time>
            <Position>
              <LatitudeDegrees>40.7485808618366718292236328125</LatitudeDegrees>
              <LongitudeDegrees>-4.019474945962429046630859375</LongitudeDegrees>
            </Position>
            <AltitudeMeters>1396.4000244140625</AltitudeMeters>
            <DistanceMeters>NAN</DistanceMeters>
          </Trackpoint>
          <Trackpoint>
            <Time>2019-08-01T11:51:06.000Z</Time>
            <Position>
              <LatitudeDegrees>40.74860475026071071624755859375</LatitudeDegrees>
              <LongitudeDegrees>-4.01944552548229694366455078125</LongitudeDegrees>
            </Position>
            <AltitudeMeters>1396.5999755859375</AltitudeMeters>
            <DistanceMeters>NAN</DistanceMeters>
          </Trackpoint>
          <Trackpoint>
            <Time>2019-08-01T11:51:07.000Z</Time>
            <Position>
              <LatitudeDegrees>40.74862830340862274169921875</LatitudeDegrees>
              <LongitudeDegrees>-4.0194157697260379791259765625</LongitudeDegrees>
            </Position>
            <AltitudeMeters>1396.800048828125</AltitudeMeters>
            <DistanceMeters>NAN</DistanceMeters>
          </Trackpoint>
          <Trackpoint>
            <Time>2019-08-01T11:51:08.000Z</Time>
            <Position>
              <LatitudeDegrees>40.74865269474685192108154296875</LatitudeDegrees>
              <LongitudeDegrees>-4.01938567869365215301513671875</LongitudeDegrees>
            </Position>
            <AltitudeMeters>1397</AltitudeMeters>
            <DistanceMeters>NAN</DistanceMeters>
          </Trackpoint>
          <Trackpoint>
            <Time>2019-08-01T11:51:09.000Z</Time>
            <Position>
              <LatitudeDegrees>40.74867934919893741607666015625</LatitudeDegrees>
              <LongitudeDegrees>-4.0193557552993297576904296875</LongitudeDegrees>
            </Position>
            <AltitudeMeters>1397.199951171875</AltitudeMeters>
            <DistanceMeters>NAN</DistanceMeters>
          </Trackpoint>
          <Trackpoint>
            <Time>2019-08-01T11:51:10.000Z</Time>
            <Position>
              <LatitudeDegrees>40.7487059198319911956787109375</LatitudeDegrees>
              <LongitudeDegrees>-4.0193264186382293701171875</LongitudeDegrees>
            </Position>
            <AltitudeMeters>1397.5999755859375</AltitudeMeters>
            <DistanceMeters>NAN</DistanceMeters>
          </Trackpoint>
          <Trackpoint>
            <Time>2019-08-01T11:51:11.000Z</Time>
            <Position>
              <LatitudeDegrees>40.748731233179569244384765625</LatitudeDegrees>
              <LongitudeDegrees>-4.01929632760584354400634765625</LongitudeDegrees>
            </Position>
            <AltitudeMeters>1398</AltitudeMeters>
            <DistanceMeters>NAN</DistanceMeters>
          </Trackpoint>
          <Trackpoint>
            <Time>2019-08-01T11:51:12.000Z</Time>
            <Position>
              <LatitudeDegrees>40.74875562451779842376708984375</LatitudeDegrees>
              <LongitudeDegrees>-4.01926481164991855621337890625</LongitudeDegrees>
            </Position>
            <AltitudeMeters>1398.199951171875</AltitudeMeters>
            <DistanceMeters>NAN</DistanceMeters>
          </Trackpoint>
          <Trackpoint>
            <Time>2019-08-01T11:51:13.000Z</Time>
            <Position>
              <LatitudeDegrees>40.74877926148474216461181640625</LatitudeDegrees>
              <LongitudeDegrees>-4.01923413388431072235107421875</LongitudeDegrees>
            </Position>
            <AltitudeMeters>1398.5999755859375</AltitudeMeters>
            <DistanceMeters>NAN</DistanceMeters>
          </Trackpoint>
          <Trackpoint>
            <Time>2019-08-01T11:51:14.000Z</Time>
            <Position>
              <LatitudeDegrees>40.7488024793565273284912109375</LatitudeDegrees>
              <LongitudeDegrees>-4.01920370757579803466796875</LongitudeDegrees>
            </Position>
            <AltitudeMeters>1398.800048828125</AltitudeMeters>
            <DistanceMeters>NAN</DistanceMeters>
          </Trackpoint>
          <Trackpoint>
            <Time>2019-08-01T11:51:15.000Z</Time>
            <Position>
              <LatitudeDegrees>40.74882754124701023101806640625</LatitudeDegrees>
              <LongitudeDegrees>-4.01917294599115848541259765625</LongitudeDegrees>
            </Position>
            <AltitudeMeters>1399</AltitudeMeters>
            <DistanceMeters>NAN</DistanceMeters>
          </Trackpoint>
          <Trackpoint>
            <Time>2019-08-01T11:51:16.000Z</Time>
            <Position>
              <LatitudeDegrees>40.74885084293782711029052734375</LatitudeDegrees>
              <LongitudeDegrees>-4.01914109475910663604736328125</LongitudeDegrees>
            </Position>
            <AltitudeMeters>1399.4000244140625</AltitudeMeters>
            <DistanceMeters>NAN</DistanceMeters>
          </Trackpoint>
          <Trackpoint>
            <Time>2019-08-01T11:51:17.000Z</Time>
            <Position>
              <LatitudeDegrees>40.74885084293782711029052734375</LatitudeDegrees>
              <LongitudeDegrees>-4.01914109475910663604736328125</LongitudeDegrees>
            </Position>
            <AltitudeMeters>1399.5999755859375</AltitudeMeters>
            <DistanceMeters>NAN</DistanceMeters>
          </Trackpoint>
          <Trackpoint>
            <Time>2019-08-01T11:51:18.000Z</Time>
            <Position>
              <LatitudeDegrees>40.748892836272716522216796875</LatitudeDegrees>
              <LongitudeDegrees>-4.01907990686595439910888671875</LongitudeDegrees>
            </Position>
            <AltitudeMeters>1400.199951171875</AltitudeMeters>
            <DistanceMeters>NAN</DistanceMeters>
          </Trackpoint>
          <Trackpoint>
            <Time>2019-08-01T11:51:19.000Z</Time>
            <Position>
              <LatitudeDegrees>40.74891353957355022430419921875</LatitudeDegrees>
              <LongitudeDegrees>-4.01905023492872714996337890625</LongitudeDegrees>
            </Position>
            <AltitudeMeters>1400.4000244140625</AltitudeMeters>
            <DistanceMeters>NAN</DistanceMeters>
          </Trackpoint>
          <Trackpoint>
            <Time>2019-08-01T11:51:20.000Z</Time>
            <Position>
              <LatitudeDegrees>40.74893415905535221099853515625</LatitudeDegrees>
              <LongitudeDegrees>-4.01902106590569019317626953125</LongitudeDegrees>
            </Position>
            <AltitudeMeters>1400.5999755859375</AltitudeMeters>
            <DistanceMeters>NAN</DistanceMeters>
          </Trackpoint>
          <Trackpoint>
            <Time>2019-08-01T11:51:21.000Z</Time>
            <Position>
              <LatitudeDegrees>40.74895243160426616668701171875</LatitudeDegrees>
              <LongitudeDegrees>-4.0189911425113677978515625</LongitudeDegrees>
            </Position>
            <AltitudeMeters>1401</AltitudeMeters>
            <DistanceMeters>NAN</DistanceMeters>
          </Trackpoint>
          <Trackpoint>
            <Time>2019-08-01T11:51:22.000Z</Time>
            <Position>
              <LatitudeDegrees>40.74897020123898983001708984375</LatitudeDegrees>
              <LongitudeDegrees>-4.0189618058502674102783203125</LongitudeDegrees>
            </Position>
            <AltitudeMeters>1401.199951171875</AltitudeMeters>
            <DistanceMeters>NAN</DistanceMeters>
          </Trackpoint>
          <Trackpoint>
            <Time>2019-08-01T11:51:23.000Z</Time>
            <Position>
              <LatitudeDegrees>40.7489885576069355010986328125</LatitudeDegrees>
              <LongitudeDegrees>-4.0189326368272304534912109375</LongitudeDegrees>
            </Position>
            <AltitudeMeters>1401.4000244140625</AltitudeMeters>
            <DistanceMeters>NAN</DistanceMeters>
          </Trackpoint>
          <Trackpoint>
            <Time>2019-08-01T11:51:24.000Z</Time>
            <Position>
              <LatitudeDegrees>40.74900641106069087982177734375</LatitudeDegrees>
              <LongitudeDegrees>-4.01890187524259090423583984375</LongitudeDegrees>
            </Position>
            <AltitudeMeters>1401.4000244140625</AltitudeMeters>
            <DistanceMeters>NAN</DistanceMeters>
          </Trackpoint>
          <Trackpoint>
            <Time>2019-08-01T11:51:25.000Z</Time>
            <Position>
              <LatitudeDegrees>40.7490234263241291046142578125</LatitudeDegrees>
              <LongitudeDegrees>-4.018869437277317047119140625</LongitudeDegrees>
            </Position>
            <AltitudeMeters>1401.4000244140625</AltitudeMeters>
            <DistanceMeters>NAN</DistanceMeters>
          </Trackpoint>
          <Trackpoint>
            <Time>2019-08-01T11:51:26.000Z</Time>
            <Position>
              <LatitudeDegrees>40.7490428723394870758056640625</LatitudeDegrees>
              <LongitudeDegrees>-4.018836915493011474609375</LongitudeDegrees>
            </Position>
            <AltitudeMeters>1401.800048828125</AltitudeMeters>
            <DistanceMeters>NAN</DistanceMeters>
          </Trackpoint>
          <Trackpoint>
            <Time>2019-08-01T11:51:27.000Z</Time>
            <Position>
              <LatitudeDegrees>40.749063156545162200927734375</LatitudeDegrees>
              <LongitudeDegrees>-4.01880531571805477142333984375</LongitudeDegrees>
            </Position>
            <AltitudeMeters>1402</AltitudeMeters>
            <DistanceMeters>NAN</DistanceMeters>
          </Trackpoint>
          <Trackpoint>
            <Time>2019-08-01T11:51:28.000Z</Time>
            <Position>
              <LatitudeDegrees>40.749063156545162200927734375</LatitudeDegrees>
              <LongitudeDegrees>-4.01880531571805477142333984375</LongitudeDegrees>
            </Position>
            <AltitudeMeters>1402.199951171875</AltitudeMeters>
            <DistanceMeters>NAN</DistanceMeters>
          </Trackpoint>
          <Trackpoint>
            <Time>2019-08-01T11:51:29.000Z</Time>
            <Position>
              <LatitudeDegrees>40.74910280294716358184814453125</LatitudeDegrees>
              <LongitudeDegrees>-4.01873909868299961090087890625</LongitudeDegrees>
            </Position>
            <AltitudeMeters>1402.4000244140625</AltitudeMeters>
            <DistanceMeters>NAN</DistanceMeters>
          </Trackpoint>
          <Trackpoint>
            <Time>2019-08-01T11:51:30.000Z</Time>
            <Position>
              <LatitudeDegrees>40.7491199858486652374267578125</LatitudeDegrees>
              <LongitudeDegrees>-4.018707834184169769287109375</LongitudeDegrees>
            </Position>
            <AltitudeMeters>1402.5999755859375</AltitudeMeters>
            <DistanceMeters>NAN</DistanceMeters>
          </Trackpoint>
          <Trackpoint>
            <Time>2019-08-01T11:51:31.000Z</Time>
            <Position>
              <LatitudeDegrees>40.7491407729685306549072265625</LatitudeDegrees>
              <LongitudeDegrees>-4.018674306571483612060546875</LongitudeDegrees>
            </Position>
            <AltitudeMeters>1402.800048828125</AltitudeMeters>
            <DistanceMeters>NAN</DistanceMeters>
          </Trackpoint>
          <Trackpoint>
            <Time>2019-08-01T11:51:32.000Z</Time>
            <Position>
              <LatitudeDegrees>40.749161727726459503173828125</LatitudeDegrees>
              <LongitudeDegrees>-4.018641449511051177978515625</LongitudeDegrees>
            </Position>
            <AltitudeMeters>1403</AltitudeMeters>
            <DistanceMeters>NAN</DistanceMeters>
          </Trackpoint>
          <Trackpoint>
            <Time>2019-08-01T11:51:33.000Z</Time>
            <Position>
              <LatitudeDegrees>40.749161727726459503173828125</LatitudeDegrees>
              <LongitudeDegrees>-4.018641449511051177978515625</LongitudeDegrees>
            </Position>
            <AltitudeMeters>1403.199951171875</AltitudeMeters>
            <DistanceMeters>NAN</DistanceMeters>
          </Trackpoint>
          <Trackpoint>
            <Time>2019-08-01T11:51:34.000Z</Time>
            <Position>
              <LatitudeDegrees>40.7492031343281269073486328125</LatitudeDegrees>
              <LongitudeDegrees>-4.01857615448534488677978515625</LongitudeDegrees>
            </Position>
            <AltitudeMeters>1403.4000244140625</AltitudeMeters>
            <DistanceMeters>NAN</DistanceMeters>
          </Trackpoint>
          <Trackpoint>
            <Time>2019-08-01T11:51:35.000Z</Time>
            <Position>
              <LatitudeDegrees>40.74921713210642337799072265625</LatitudeDegrees>
              <LongitudeDegrees>-4.0185427106916904449462890625</LongitudeDegrees>
            </Position>
            <AltitudeMeters>1403.800048828125</AltitudeMeters>
            <DistanceMeters>NAN</DistanceMeters>
          </Trackpoint>
          <Trackpoint>
            <Time>2019-08-01T11:51:36.000Z</Time>
            <Position>
              <LatitudeDegrees>40.74923154897987842559814453125</LatitudeDegrees>
              <LongitudeDegrees>-4.01850742287933826446533203125</LongitudeDegrees>
            </Position>
            <AltitudeMeters>1404</AltitudeMeters>
            <DistanceMeters>NAN</DistanceMeters>
          </Trackpoint>
          <Trackpoint>
            <Time>2019-08-01T11:51:37.000Z</Time>
            <Position>
              <LatitudeDegrees>40.74924848042428493499755859375</LatitudeDegrees>
              <LongitudeDegrees>-4.01847255416214466094970703125</LongitudeDegrees>
            </Position>
            <AltitudeMeters>1404.199951171875</AltitudeMeters>
            <DistanceMeters>NAN</DistanceMeters>
          </Trackpoint>
          <Trackpoint>
            <Time>2019-08-01T11:51:38.000Z</Time>
            <Position>
              <LatitudeDegrees>40.7492681778967380523681640625</LatitudeDegrees>
              <LongitudeDegrees>-4.01843785308301448822021484375</LongitudeDegrees>
            </Position>
            <AltitudeMeters>1404.4000244140625</AltitudeMeters>
            <DistanceMeters>NAN</DistanceMeters>
          </Trackpoint>
          <Trackpoint>
            <Time>2019-08-01T11:51:39.000Z</Time>
            <Position>
              <LatitudeDegrees>40.7492681778967380523681640625</LatitudeDegrees>
              <LongitudeDegrees>-4.01843785308301448822021484375</LongitudeDegrees>
            </Position>
            <AltitudeMeters>1404.5999755859375</AltitudeMeters>
            <DistanceMeters>NAN</DistanceMeters>
          </Trackpoint>
          <Trackpoint>
            <Time>2019-08-01T11:51:40.000Z</Time>
            <Position>
              <LatitudeDegrees>40.74929877184331417083740234375</LatitudeDegrees>
              <LongitudeDegrees>-4.0183697082102298736572265625</LongitudeDegrees>
            </Position>
            <AltitudeMeters>1405.199951171875</AltitudeMeters>
            <DistanceMeters>NAN</DistanceMeters>
          </Trackpoint>
          <Trackpoint>
            <Time>2019-08-01T11:51:41.000Z</Time>
            <Position>
              <LatitudeDegrees>40.7493115961551666259765625</LatitudeDegrees>
              <LongitudeDegrees>-4.0183371864259243011474609375</LongitudeDegrees>
            </Position>
            <AltitudeMeters>1405.4000244140625</AltitudeMeters>
            <DistanceMeters>NAN</DistanceMeters>
          </Trackpoint>
          <Trackpoint>
            <Time>2019-08-01T11:51:42.000Z</Time>
            <Position>
              <LatitudeDegrees>40.74932592920958995819091796875</LatitudeDegrees>
              <LongitudeDegrees>-4.0183046646416187286376953125</LongitudeDegrees>
            </Position>
            <AltitudeMeters>1405.800048828125</AltitudeMeters>
            <DistanceMeters>NAN</DistanceMeters>
          </Trackpoint>
          <Trackpoint>
            <Time>2019-08-01T11:51:43.000Z</Time>
            <Position>
              <LatitudeDegrees>40.749339759349822998046875</LatitudeDegrees>
              <LongitudeDegrees>-4.0182708017528057098388671875</LongitudeDegrees>
            </Position>
            <AltitudeMeters>1406</AltitudeMeters>
            <DistanceMeters>NAN</DistanceMeters>
          </Trackpoint>
          <Trackpoint>
            <Time>2019-08-01T11:51:44.000Z</Time>
            <Position>
              <LatitudeDegrees>40.7493540085852146148681640625</LatitudeDegrees>
              <LongitudeDegrees>-4.0182374417781829833984375</LongitudeDegrees>
            </Position>
            <AltitudeMeters>1406.199951171875</AltitudeMeters>
            <DistanceMeters>NAN</DistanceMeters>
          </Trackpoint>
          <Trackpoint>
            <Time>2019-08-01T11:51:45.000Z</Time>
            <Position>
              <LatitudeDegrees>40.74936733581125736236572265625</LatitudeDegrees>
              <LongitudeDegrees>-4.0182070992887020111083984375</LongitudeDegrees>
            </Position>
            <AltitudeMeters>1406</AltitudeMeters>
            <DistanceMeters>NAN</DistanceMeters>
          </Trackpoint>
          <Trackpoint>
            <Time>2019-08-01T11:51:46.000Z</Time>
            <Position>
              <LatitudeDegrees>40.7493815012276172637939453125</LatitudeDegrees>
              <LongitudeDegrees>-4.018176756799221038818359375</LongitudeDegrees>
            </Position>
            <AltitudeMeters>1406.199951171875</AltitudeMeters>
            <DistanceMeters>NAN</DistanceMeters>
          </Trackpoint>
          <Trackpoint>
            <Time>2019-08-01T11:51:47.000Z</Time>
            <Position>
              <LatitudeDegrees>40.7493815012276172637939453125</LatitudeDegrees>
              <LongitudeDegrees>-4.018176756799221038818359375</LongitudeDegrees>
            </Position>
            <AltitudeMeters>1406.4000244140625</AltitudeMeters>
            <DistanceMeters>NAN</DistanceMeters>
          </Trackpoint>
          <Trackpoint>
            <Time>2019-08-01T11:51:48.000Z</Time>
            <Position>
              <LatitudeDegrees>40.74941226281225681304931640625</LatitudeDegrees>
              <LongitudeDegrees>-4.01810777373611927032470703125</LongitudeDegrees>
            </Position>
            <AltitudeMeters>1406.800048828125</AltitudeMeters>
            <DistanceMeters>NAN</DistanceMeters>
          </Trackpoint>
          <Trackpoint>
            <Time>2019-08-01T11:51:49.000Z</Time>
            <Position>
              <LatitudeDegrees>40.74942902661859989166259765625</LatitudeDegrees>
              <LongitudeDegrees>-4.01807307265698909759521484375</LongitudeDegrees>
            </Position>
            <AltitudeMeters>1407</AltitudeMeters>
            <DistanceMeters>NAN</DistanceMeters>
          </Trackpoint>
          <Trackpoint>
            <Time>2019-08-01T11:51:50.000Z</Time>
            <Position>
              <LatitudeDegrees>40.74942902661859989166259765625</LatitudeDegrees>
              <LongitudeDegrees>-4.01807307265698909759521484375</LongitudeDegrees>
            </Position>
            <AltitudeMeters>1407.199951171875</AltitudeMeters>
            <DistanceMeters>NAN</DistanceMeters>
          </Trackpoint>
          <Trackpoint>
            <Time>2019-08-01T11:51:51.000Z</Time>
            <Position>
              <LatitudeDegrees>40.74945752508938312530517578125</LatitudeDegrees>
              <LongitudeDegrees>-4.0180002339184284210205078125</LongitudeDegrees>
            </Position>
            <AltitudeMeters>1407.5999755859375</AltitudeMeters>
            <DistanceMeters>NAN</DistanceMeters>
          </Trackpoint>
          <Trackpoint>
            <Time>2019-08-01T11:51:52.000Z</Time>
            <Position>
              <LatitudeDegrees>40.74947177432477474212646484375</LatitudeDegrees>
              <LongitudeDegrees>-4.0179667063057422637939453125</LongitudeDegrees>
            </Position>
            <AltitudeMeters>1408</AltitudeMeters>
            <DistanceMeters>NAN</DistanceMeters>
          </Trackpoint>
          <Trackpoint>
            <Time>2019-08-01T11:51:53.000Z</Time>
            <Position>
              <LatitudeDegrees>40.74949122034013271331787109375</LatitudeDegrees>
              <LongitudeDegrees>-4.01793301105499267578125</LongitudeDegrees>
            </Position>
            <AltitudeMeters>1408</AltitudeMeters>
            <DistanceMeters>NAN</DistanceMeters>
          </Trackpoint>
          <Trackpoint>
            <Time>2019-08-01T11:51:54.000Z</Time>
            <Position>
              <LatitudeDegrees>40.7495115883648395538330078125</LatitudeDegrees>
              <LongitudeDegrees>-4.0178993158042430877685546875</LongitudeDegrees>
            </Position>
            <AltitudeMeters>1408.4000244140625</AltitudeMeters>
            <DistanceMeters>NAN</DistanceMeters>
          </Trackpoint>
          <Trackpoint>
            <Time>2019-08-01T11:51:55.000Z</Time>
            <Position>
              <LatitudeDegrees>40.7495115883648395538330078125</LatitudeDegrees>
              <LongitudeDegrees>-4.0178993158042430877685546875</LongitudeDegrees>
            </Position>
            <AltitudeMeters>1408.5999755859375</AltitudeMeters>
            <DistanceMeters>NAN</DistanceMeters>
          </Trackpoint>
          <Trackpoint>
            <Time>2019-08-01T11:51:56.000Z</Time>
            <Position>
              <LatitudeDegrees>40.749551989138126373291015625</LatitudeDegrees>
              <LongitudeDegrees>-4.0178336016833782196044921875</LongitudeDegrees>
            </Position>
            <AltitudeMeters>1408.800048828125</AltitudeMeters>
            <DistanceMeters>NAN</DistanceMeters>
          </Trackpoint>
          <Trackpoint>
            <Time>2019-08-01T11:51:57.000Z</Time>
            <Position>
              <LatitudeDegrees>40.74957654811441898345947265625</LatitudeDegrees>
              <LongitudeDegrees>-4.01780166663229465484619140625</LongitudeDegrees>
            </Position>
            <AltitudeMeters>1409</AltitudeMeters>
            <DistanceMeters>NAN</DistanceMeters>
          </Trackpoint>
          <Trackpoint>
            <Time>2019-08-01T11:51:58.000Z</Time>
            <Position>
              <LatitudeDegrees>40.74957654811441898345947265625</LatitudeDegrees>
              <LongitudeDegrees>-4.01780166663229465484619140625</LongitudeDegrees>
            </Position>
            <AltitudeMeters>1409.199951171875</AltitudeMeters>
            <DistanceMeters>NAN</DistanceMeters>
          </Trackpoint>
          <Trackpoint>
            <Time>2019-08-01T11:51:59.000Z</Time>
            <Position>
              <LatitudeDegrees>40.749622397124767303466796875</LatitudeDegrees>
              <LongitudeDegrees>-4.01774064637720584869384765625</LongitudeDegrees>
            </Position>
            <AltitudeMeters>1409.4000244140625</AltitudeMeters>
            <DistanceMeters>NAN</DistanceMeters>
          </Trackpoint>
          <Trackpoint>
            <Time>2019-08-01T11:52:00.000Z</Time>
            <Position>
              <LatitudeDegrees>40.74964561499655246734619140625</LatitudeDegrees>
              <LongitudeDegrees>-4.01771080680191516876220703125</LongitudeDegrees>
            </Position>
            <AltitudeMeters>1409.5999755859375</AltitudeMeters>
            <DistanceMeters>NAN</DistanceMeters>
          </Trackpoint>
          <Trackpoint>
            <Time>2019-08-01T11:52:01.000Z</Time>
            <Position>
              <LatitudeDegrees>40.74966925196349620819091796875</LatitudeDegrees>
              <LongitudeDegrees>-4.0176822245121002197265625</LongitudeDegrees>
            </Position>
            <AltitudeMeters>1409.800048828125</AltitudeMeters>
            <DistanceMeters>NAN</DistanceMeters>
          </Trackpoint>
          <Trackpoint>
            <Time>2019-08-01T11:52:02.000Z</Time>
            <Position>
              <LatitudeDegrees>40.74969582259654998779296875</LatitudeDegrees>
              <LongitudeDegrees>-4.01765473186969757080078125</LongitudeDegrees>
            </Position>
            <AltitudeMeters>1410</AltitudeMeters>
            <DistanceMeters>NAN</DistanceMeters>
          </Trackpoint>
          <Trackpoint>
            <Time>2019-08-01T11:52:03.000Z</Time>
            <Position>
              <LatitudeDegrees>40.74972256086766719818115234375</LatitudeDegrees>
              <LongitudeDegrees>-4.0176285803318023681640625</LongitudeDegrees>
            </Position>
            <AltitudeMeters>1410.4000244140625</AltitudeMeters>
            <DistanceMeters>NAN</DistanceMeters>
          </Trackpoint>
          <Trackpoint>
            <Time>2019-08-01T11:52:04.000Z</Time>
            <Position>
              <LatitudeDegrees>40.74972256086766719818115234375</LatitudeDegrees>
              <LongitudeDegrees>-4.0176285803318023681640625</LongitudeDegrees>
            </Position>
            <AltitudeMeters>1410.800048828125</AltitudeMeters>
            <DistanceMeters>NAN</DistanceMeters>
          </Trackpoint>
          <Trackpoint>
            <Time>2019-08-01T11:52:05.000Z</Time>
            <Position>
              <LatitudeDegrees>40.7497818209230899810791015625</LatitudeDegrees>
              <LongitudeDegrees>-4.0175749361515045166015625</LongitudeDegrees>
            </Position>
            <AltitudeMeters>1411</AltitudeMeters>
            <DistanceMeters>NAN</DistanceMeters>
          </Trackpoint>
          <Trackpoint>
            <Time>2019-08-01T11:52:06.000Z</Time>
            <Position>
              <LatitudeDegrees>40.74981057085096836090087890625</LatitudeDegrees>
              <LongitudeDegrees>-4.017549455165863037109375</LongitudeDegrees>
            </Position>
            <AltitudeMeters>1411.199951171875</AltitudeMeters>
            <DistanceMeters>NAN</DistanceMeters>
          </Trackpoint>
          <Trackpoint>
            <Time>2019-08-01T11:52:07.000Z</Time>
            <Position>
              <LatitudeDegrees>40.74984292499721050262451171875</LatitudeDegrees>
              <LongitudeDegrees>-4.01752523146569728851318359375</LongitudeDegrees>
            </Position>
            <AltitudeMeters>1411.4000244140625</AltitudeMeters>
            <DistanceMeters>NAN</DistanceMeters>
          </Trackpoint>
          <Trackpoint>
            <Time>2019-08-01T11:52:08.000Z</Time>
            <Position>
              <LatitudeDegrees>40.74987511150538921356201171875</LatitudeDegrees>
              <LongitudeDegrees>-4.01750184595584869384765625</LongitudeDegrees>
            </Position>
            <AltitudeMeters>1411.800048828125</AltitudeMeters>
            <DistanceMeters>NAN</DistanceMeters>
          </Trackpoint>
          <Trackpoint>
            <Time>2019-08-01T11:52:09.000Z</Time>
            <Position>
              <LatitudeDegrees>40.749908052384853363037109375</LatitudeDegrees>
              <LongitudeDegrees>-4.0174783766269683837890625</LongitudeDegrees>
            </Position>
            <AltitudeMeters>1412</AltitudeMeters>
            <DistanceMeters>NAN</DistanceMeters>
          </Trackpoint>
          <Trackpoint>
            <Time>2019-08-01T11:52:10.000Z</Time>
            <Position>
              <LatitudeDegrees>40.74994132854044437408447265625</LatitudeDegrees>
              <LongitudeDegrees>-4.01745901443064212799072265625</LongitudeDegrees>
            </Position>
            <AltitudeMeters>1412</AltitudeMeters>
            <DistanceMeters>NAN</DistanceMeters>
          </Trackpoint>
          <Trackpoint>
            <Time>2019-08-01T11:52:11.000Z</Time>
            <Position>
              <LatitudeDegrees>40.7499759458005428314208984375</LatitudeDegrees>
              <LongitudeDegrees>-4.01744124479591846466064453125</LongitudeDegrees>
            </Position>
            <AltitudeMeters>1412.199951171875</AltitudeMeters>
            <DistanceMeters>NAN</DistanceMeters>
          </Trackpoint>
          <Trackpoint>
            <Time>2019-08-01T11:52:12.000Z</Time>
            <Position>
              <LatitudeDegrees>40.7500088028609752655029296875</LatitudeDegrees>
              <LongitudeDegrees>-4.01742716319859027862548828125</LongitudeDegrees>
            </Position>
            <AltitudeMeters>1412.5999755859375</AltitudeMeters>
            <DistanceMeters>NAN</DistanceMeters>
          </Trackpoint>
          <Trackpoint>
            <Time>2019-08-01T11:52:13.000Z</Time>
            <Position>
              <LatitudeDegrees>40.75004358775913715362548828125</LatitudeDegrees>
              <LongitudeDegrees>-4.01741391979157924652099609375</LongitudeDegrees>
            </Position>
            <AltitudeMeters>1412.800048828125</AltitudeMeters>
            <DistanceMeters>NAN</DistanceMeters>
          </Trackpoint>
          <Trackpoint>
            <Time>2019-08-01T11:52:14.000Z</Time>
            <Position>
              <LatitudeDegrees>40.7500761933624744415283203125</LatitudeDegrees>
              <LongitudeDegrees>-4.01740218512713909149169921875</LongitudeDegrees>
            </Position>
            <AltitudeMeters>1413</AltitudeMeters>
            <DistanceMeters>NAN</DistanceMeters>
          </Trackpoint>
          <Trackpoint>
            <Time>2019-08-01T11:52:15.000Z</Time>
            <Position>
              <LatitudeDegrees>40.7501100562512874603271484375</LatitudeDegrees>
              <LongitudeDegrees>-4.0173937194049358367919921875</LongitudeDegrees>
            </Position>
            <AltitudeMeters>1413.199951171875</AltitudeMeters>
            <DistanceMeters>NAN</DistanceMeters>
          </Trackpoint>
          <Trackpoint>
            <Time>2019-08-01T11:52:16.000Z</Time>
            <Position>
              <LatitudeDegrees>40.75014567933976650238037109375</LatitudeDegrees>
              <LongitudeDegrees>-4.017387516796588897705078125</LongitudeDegrees>
            </Position>
            <AltitudeMeters>1413.199951171875</AltitudeMeters>
            <DistanceMeters>NAN</DistanceMeters>
          </Trackpoint>
          <Trackpoint>
            <Time>2019-08-01T11:52:17.000Z</Time>
            <Position>
              <LatitudeDegrees>40.7501740939915180206298828125</LatitudeDegrees>
              <LongitudeDegrees>-4.0173789672553539276123046875</LongitudeDegrees>
            </Position>
            <AltitudeMeters>1413.4000244140625</AltitudeMeters>
            <DistanceMeters>NAN</DistanceMeters>
          </Trackpoint>
          <Trackpoint>
            <Time>2019-08-01T11:52:18.000Z</Time>
            <Position>
              <LatitudeDegrees>40.750207789242267608642578125</LatitudeDegrees>
              <LongitudeDegrees>-4.01737402193248271942138671875</LongitudeDegrees>
            </Position>
            <AltitudeMeters>1413.800048828125</AltitudeMeters>
            <DistanceMeters>NAN</DistanceMeters>
          </Trackpoint>
          <Trackpoint>
            <Time>2019-08-01T11:52:19.000Z</Time>
            <Position>
              <LatitudeDegrees>40.75024408288300037384033203125</LatitudeDegrees>
              <LongitudeDegrees>-4.01737150736153125762939453125</LongitudeDegrees>
            </Position>
            <AltitudeMeters>1414</AltitudeMeters>
            <DistanceMeters>NAN</DistanceMeters>
          </Trackpoint>
          <Trackpoint>
            <Time>2019-08-01T11:52:20.000Z</Time>
            <Position>
              <LatitudeDegrees>40.750278197228908538818359375</LatitudeDegrees>
              <LongitudeDegrees>-4.0173668973147869110107421875</LongitudeDegrees>
            </Position>
            <AltitudeMeters>1414.199951171875</AltitudeMeters>
            <DistanceMeters>NAN</DistanceMeters>
          </Trackpoint>
          <Trackpoint>
            <Time>2019-08-01T11:52:21.000Z</Time>
            <Position>
              <LatitudeDegrees>40.75030912645161151885986328125</LatitudeDegrees>
              <LongitudeDegrees>-4.0173622034490108489990234375</LongitudeDegrees>
            </Position>
            <AltitudeMeters>1414.4000244140625</AltitudeMeters>
            <DistanceMeters>NAN</DistanceMeters>
          </Trackpoint>
          <Trackpoint>
            <Time>2019-08-01T11:52:22.000Z</Time>
            <Position>
              <LatitudeDegrees>40.750342570245265960693359375</LatitudeDegrees>
              <LongitudeDegrees>-4.01735834777355194091796875</LongitudeDegrees>
            </Position>
            <AltitudeMeters>1414.5999755859375</AltitudeMeters>
            <DistanceMeters>NAN</DistanceMeters>
          </Trackpoint>
          <Trackpoint>
            <Time>2019-08-01T11:52:23.000Z</Time>
            <Position>
              <LatitudeDegrees>40.750377438962459564208984375</LatitudeDegrees>
              <LongitudeDegrees>-4.0173551626503467559814453125</LongitudeDegrees>
            </Position>
            <AltitudeMeters>1414.800048828125</AltitudeMeters>
            <DistanceMeters>NAN</DistanceMeters>
          </Trackpoint>
          <Trackpoint>
            <Time>2019-08-01T11:52:24.000Z</Time>
            <Position>
              <LatitudeDegrees>40.75040903873741626739501953125</LatitudeDegrees>
              <LongitudeDegrees>-4.0173518098890781402587890625</LongitudeDegrees>
            </Position>
            <AltitudeMeters>1415.199951171875</AltitudeMeters>
            <DistanceMeters>NAN</DistanceMeters>
          </Trackpoint>
          <Trackpoint>
            <Time>2019-08-01T11:52:25.000Z</Time>
            <Position>
              <LatitudeDegrees>40.75044223107397556304931640625</LatitudeDegrees>
              <LongitudeDegrees>-4.017344601452350616455078125</LongitudeDegrees>
            </Position>
            <AltitudeMeters>1415.4000244140625</AltitudeMeters>
            <DistanceMeters>NAN</DistanceMeters>
          </Trackpoint>
          <Trackpoint>
            <Time>2019-08-01T11:52:26.000Z</Time>
            <Position>
              <LatitudeDegrees>40.75047542341053485870361328125</LatitudeDegrees>
              <LongitudeDegrees>-4.01734066195785999298095703125</LongitudeDegrees>
            </Position>
            <AltitudeMeters>1415.5999755859375</AltitudeMeters>
            <DistanceMeters>NAN</DistanceMeters>
          </Trackpoint>
          <Trackpoint>
            <Time>2019-08-01T11:52:27.000Z</Time>
            <Position>
              <LatitudeDegrees>40.75050744228065013885498046875</LatitudeDegrees>
              <LongitudeDegrees>-4.01733462698757648468017578125</LongitudeDegrees>
            </Position>
            <AltitudeMeters>1415.800048828125</AltitudeMeters>
            <DistanceMeters>NAN</DistanceMeters>
          </Trackpoint>
          <Trackpoint>
            <Time>2019-08-01T11:52:28.000Z</Time>
            <Position>
              <LatitudeDegrees>40.75053979642689228057861328125</LatitudeDegrees>
              <LongitudeDegrees>-4.01732741855084896087646484375</LongitudeDegrees>
            </Position>
            <AltitudeMeters>1416</AltitudeMeters>
            <DistanceMeters>NAN</DistanceMeters>
          </Trackpoint>
          <Trackpoint>
            <Time>2019-08-01T11:52:29.000Z</Time>
            <Position>
              <LatitudeDegrees>40.75053979642689228057861328125</LatitudeDegrees>
              <LongitudeDegrees>-4.01732741855084896087646484375</LongitudeDegrees>
            </Position>
            <AltitudeMeters>1416.199951171875</AltitudeMeters>
            <DistanceMeters>NAN</DistanceMeters>
          </Trackpoint>
          <Trackpoint>
            <Time>2019-08-01T11:52:30.000Z</Time>
            <Position>
              <LatitudeDegrees>40.75060115195810794830322265625</LatitudeDegrees>
              <LongitudeDegrees>-4.01731400750577449798583984375</LongitudeDegrees>
            </Position>
            <AltitudeMeters>1416.4000244140625</AltitudeMeters>
            <DistanceMeters>NAN</DistanceMeters>
          </Trackpoint>
          <Trackpoint>
            <Time>2019-08-01T11:52:31.000Z</Time>
            <Position>
              <LatitudeDegrees>40.750633589923381805419921875</LatitudeDegrees>
              <LongitudeDegrees>-4.017309062182903289794921875</LongitudeDegrees>
            </Position>
            <AltitudeMeters>1416.4000244140625</AltitudeMeters>
            <DistanceMeters>NAN</DistanceMeters>
          </Trackpoint>
          <Trackpoint>
            <Time>2019-08-01T11:52:32.000Z</Time>
            <Position>
              <LatitudeDegrees>40.7506672851741313934326171875</LatitudeDegrees>
              <LongitudeDegrees>-4.01730830781161785125732421875</LongitudeDegrees>
            </Position>
            <AltitudeMeters>1416.800048828125</AltitudeMeters>
            <DistanceMeters>NAN</DistanceMeters>
          </Trackpoint>
          <Trackpoint>
            <Time>2019-08-01T11:52:33.000Z</Time>
            <Position>
              <LatitudeDegrees>40.750701986253261566162109375</LatitudeDegrees>
              <LongitudeDegrees>-4.01730529032647609710693359375</LongitudeDegrees>
            </Position>
            <AltitudeMeters>1417</AltitudeMeters>
            <DistanceMeters>NAN</DistanceMeters>
          </Trackpoint>
          <Trackpoint>
            <Time>2019-08-01T11:52:34.000Z</Time>
            <Position>
              <LatitudeDegrees>40.75073576532304286956787109375</LatitudeDegrees>
              <LongitudeDegrees>-4.01730210520327091217041015625</LongitudeDegrees>
            </Position>
            <AltitudeMeters>1417.199951171875</AltitudeMeters>
            <DistanceMeters>NAN</DistanceMeters>
          </Trackpoint>
          <Trackpoint>
            <Time>2019-08-01T11:52:35.000Z</Time>
            <Position>
              <LatitudeDegrees>40.75076828710734844207763671875</LatitudeDegrees>
              <LongitudeDegrees>-4.017298333346843719482421875</LongitudeDegrees>
            </Position>
            <AltitudeMeters>1417.4000244140625</AltitudeMeters>
            <DistanceMeters>NAN</DistanceMeters>
          </Trackpoint>
          <Trackpoint>
            <Time>2019-08-01T11:52:36.000Z</Time>
            <Position>
              <LatitudeDegrees>40.75080080889165401458740234375</LatitudeDegrees>
              <LongitudeDegrees>-4.01729305274784564971923828125</LongitudeDegrees>
            </Position>
            <AltitudeMeters>1418</AltitudeMeters>
            <DistanceMeters>NAN</DistanceMeters>
          </Trackpoint>
          <Trackpoint>
            <Time>2019-08-01T11:52:37.000Z</Time>
            <Position>
              <LatitudeDegrees>40.75080080889165401458740234375</LatitudeDegrees>
              <LongitudeDegrees>-4.01729305274784564971923828125</LongitudeDegrees>
            </Position>
            <AltitudeMeters>1418.4000244140625</AltitudeMeters>
            <DistanceMeters>NAN</DistanceMeters>
          </Trackpoint>
          <Trackpoint>
            <Time>2019-08-01T11:52:38.000Z</Time>
            <Position>
              <LatitudeDegrees>40.75086283497512340545654296875</LatitudeDegrees>
              <LongitudeDegrees>-4.01728064753115177154541015625</LongitudeDegrees>
            </Position>
            <AltitudeMeters>1418.5999755859375</AltitudeMeters>
            <DistanceMeters>NAN</DistanceMeters>
          </Trackpoint>
          <Trackpoint>
            <Time>2019-08-01T11:52:39.000Z</Time>
            <Position>
              <LatitudeDegrees>40.750893764197826385498046875</LatitudeDegrees>
              <LongitudeDegrees>-4.01727578602731227874755859375</LongitudeDegrees>
            </Position>
            <AltitudeMeters>1418.800048828125</AltitudeMeters>
            <DistanceMeters>NAN</DistanceMeters>
          </Trackpoint>
          <Trackpoint>
            <Time>2019-08-01T11:52:40.000Z</Time>
            <Position>
              <LatitudeDegrees>40.750924609601497650146484375</LatitudeDegrees>
              <LongitudeDegrees>-4.017270840704441070556640625</LongitudeDegrees>
            </Position>
            <AltitudeMeters>1419</AltitudeMeters>
            <DistanceMeters>NAN</DistanceMeters>
          </Trackpoint>
          <Trackpoint>
            <Time>2019-08-01T11:52:41.000Z</Time>
            <Position>
              <LatitudeDegrees>40.750954784452915191650390625</LatitudeDegrees>
              <LongitudeDegrees>-4.017265476286411285400390625</LongitudeDegrees>
            </Position>
            <AltitudeMeters>1419.199951171875</AltitudeMeters>
            <DistanceMeters>NAN</DistanceMeters>
          </Trackpoint>
          <Trackpoint>
            <Time>2019-08-01T11:52:42.000Z</Time>
            <Position>
              <LatitudeDegrees>40.75098571367561817169189453125</LatitudeDegrees>
              <LongitudeDegrees>-4.01726069860160350799560546875</LongitudeDegrees>
            </Position>
            <AltitudeMeters>1419.4000244140625</AltitudeMeters>
            <DistanceMeters>NAN</DistanceMeters>
          </Trackpoint>
          <Trackpoint>
            <Time>2019-08-01T11:52:43.000Z</Time>
            <Position>
              <LatitudeDegrees>40.7510163076221942901611328125</LatitudeDegrees>
              <LongitudeDegrees>-4.0172517299652099609375</LongitudeDegrees>
            </Position>
            <AltitudeMeters>1419.5999755859375</AltitudeMeters>
            <DistanceMeters>NAN</DistanceMeters>
          </Trackpoint>
          <Trackpoint>
            <Time>2019-08-01T11:52:44.000Z</Time>
            <Position>
              <LatitudeDegrees>40.7510461471974849700927734375</LatitudeDegrees>
              <LongitudeDegrees>-4.01724628172814846038818359375</LongitudeDegrees>
            </Position>
            <AltitudeMeters>1419.800048828125</AltitudeMeters>
            <DistanceMeters>NAN</DistanceMeters>
          </Trackpoint>
          <Trackpoint>
            <Time>2019-08-01T11:52:45.000Z</Time>
            <Position>
              <LatitudeDegrees>40.75107581913471221923828125</LatitudeDegrees>
              <LongitudeDegrees>-4.01724125258624553680419921875</LongitudeDegrees>
            </Position>
            <AltitudeMeters>1420.199951171875</AltitudeMeters>
            <DistanceMeters>NAN</DistanceMeters>
          </Trackpoint>
          <Trackpoint>
            <Time>2019-08-01T11:52:46.000Z</Time>
            <Position>
              <LatitudeDegrees>40.7511061616241931915283203125</LatitudeDegrees>
              <LongitudeDegrees>-4.01723605580627918243408203125</LongitudeDegrees>
            </Position>
            <AltitudeMeters>1420.4000244140625</AltitudeMeters>
            <DistanceMeters>NAN</DistanceMeters>
          </Trackpoint>
          <Trackpoint>
            <Time>2019-08-01T11:52:47.000Z</Time>
            <Position>
              <LatitudeDegrees>40.7511360011994838714599609375</LatitudeDegrees>
              <LongitudeDegrees>-4.01723035611212253570556640625</LongitudeDegrees>
            </Position>
            <AltitudeMeters>1420.800048828125</AltitudeMeters>
            <DistanceMeters>NAN</DistanceMeters>
          </Trackpoint>
          <Trackpoint>
            <Time>2019-08-01T11:52:48.000Z</Time>
            <Position>
              <LatitudeDegrees>40.7511644996702671051025390625</LatitudeDegrees>
              <LongitudeDegrees>-4.01722281239926815032958984375</LongitudeDegrees>
            </Position>
            <AltitudeMeters>1421.199951171875</AltitudeMeters>
            <DistanceMeters>NAN</DistanceMeters>
          </Trackpoint>
          <Trackpoint>
            <Time>2019-08-01T11:52:49.000Z</Time>
            <Position>
              <LatitudeDegrees>40.7511919923126697540283203125</LatitudeDegrees>
              <LongitudeDegrees>-4.01721258647739887237548828125</LongitudeDegrees>
            </Position>
            <AltitudeMeters>1421.4000244140625</AltitudeMeters>
            <DistanceMeters>NAN</DistanceMeters>
          </Trackpoint>
          <Trackpoint>
            <Time>2019-08-01T11:52:50.000Z</Time>
            <Position>
              <LatitudeDegrees>40.75121906585991382598876953125</LatitudeDegrees>
              <LongitudeDegrees>-4.0172076411545276641845703125</LongitudeDegrees>
            </Position>
            <AltitudeMeters>1421.5999755859375</AltitudeMeters>
            <DistanceMeters>NAN</DistanceMeters>
          </Trackpoint>
          <Trackpoint>
            <Time>2019-08-01T11:52:51.000Z</Time>
            <Position>
              <LatitudeDegrees>40.75124773196876049041748046875</LatitudeDegrees>
              <LongitudeDegrees>-4.01720269583165645599365234375</LongitudeDegrees>
            </Position>
            <AltitudeMeters>1421.800048828125</AltitudeMeters>
            <DistanceMeters>NAN</DistanceMeters>
          </Trackpoint>
          <Trackpoint>
            <Time>2019-08-01T11:52:52.000Z</Time>
            <Position>
              <LatitudeDegrees>40.7512749731540679931640625</LatitudeDegrees>
              <LongitudeDegrees>-4.01720018126070499420166015625</LongitudeDegrees>
            </Position>
            <AltitudeMeters>1422.199951171875</AltitudeMeters>
            <DistanceMeters>NAN</DistanceMeters>
          </Trackpoint>
          <Trackpoint>
            <Time>2019-08-01T11:52:53.000Z</Time>
            <Position>
              <LatitudeDegrees>40.75130372308194637298583984375</LatitudeDegrees>
              <LongitudeDegrees>-4.0172006003558635711669921875</LongitudeDegrees>
            </Position>
            <AltitudeMeters>1422.4000244140625</AltitudeMeters>
            <DistanceMeters>NAN</DistanceMeters>
          </Trackpoint>
          <Trackpoint>
            <Time>2019-08-01T11:52:54.000Z</Time>
            <Position>
              <LatitudeDegrees>40.75133540667593479156494140625</LatitudeDegrees>
              <LongitudeDegrees>-4.01720185764133930206298828125</LongitudeDegrees>
            </Position>
            <AltitudeMeters>1422.800048828125</AltitudeMeters>
            <DistanceMeters>NAN</DistanceMeters>
          </Trackpoint>
          <Trackpoint>
            <Time>2019-08-01T11:52:55.000Z</Time>
            <Position>
              <LatitudeDegrees>40.75136675499379634857177734375</LatitudeDegrees>
              <LongitudeDegrees>-4.01720856316387653350830078125</LongitudeDegrees>
            </Position>
            <AltitudeMeters>1423.199951171875</AltitudeMeters>
            <DistanceMeters>NAN</DistanceMeters>
          </Trackpoint>
          <Trackpoint>
            <Time>2019-08-01T11:52:56.000Z</Time>
            <Position>
              <LatitudeDegrees>40.75140078552067279815673828125</LatitudeDegrees>
              <LongitudeDegrees>-4.0172176994383335113525390625</LongitudeDegrees>
            </Position>
            <AltitudeMeters>1423.4000244140625</AltitudeMeters>
            <DistanceMeters>NAN</DistanceMeters>
          </Trackpoint>
          <Trackpoint>
            <Time>2019-08-01T11:52:57.000Z</Time>
            <Position>
              <LatitudeDegrees>40.7514345645904541015625</LatitudeDegrees>
              <LongitudeDegrees>-4.01722532697021961212158203125</LongitudeDegrees>
            </Position>
            <AltitudeMeters>1423.4000244140625</AltitudeMeters>
            <DistanceMeters>NAN</DistanceMeters>
          </Trackpoint>
          <Trackpoint>
            <Time>2019-08-01T11:52:58.000Z</Time>
            <Position>
              <LatitudeDegrees>40.75146608054637908935546875</LatitudeDegrees>
              <LongitudeDegrees>-4.01723773218691349029541015625</LongitudeDegrees>
            </Position>
            <AltitudeMeters>1423.800048828125</AltitudeMeters>
            <DistanceMeters>NAN</DistanceMeters>
          </Trackpoint>
          <Trackpoint>
            <Time>2019-08-01T11:52:59.000Z</Time>
            <Position>
              <LatitudeDegrees>40.75149885378777980804443359375</LatitudeDegrees>
              <LongitudeDegrees>-4.0172503888607025146484375</LongitudeDegrees>
            </Position>
            <AltitudeMeters>1424.199951171875</AltitudeMeters>
            <DistanceMeters>NAN</DistanceMeters>
          </Trackpoint>
          <Trackpoint>
            <Time>2019-08-01T11:53:00.000Z</Time>
            <Position>
              <LatitudeDegrees>40.751531124114990234375</LatitudeDegrees>
              <LongitudeDegrees>-4.01726690120995044708251953125</LongitudeDegrees>
            </Position>
            <AltitudeMeters>1424.4000244140625</AltitudeMeters>
            <DistanceMeters>NAN</DistanceMeters>
          </Trackpoint>
          <Trackpoint>
            <Time>2019-08-01T11:53:01.000Z</Time>
            <Position>
              <LatitudeDegrees>40.751531124114990234375</LatitudeDegrees>
              <LongitudeDegrees>-4.01726690120995044708251953125</LongitudeDegrees>
            </Position>
            <AltitudeMeters>1424.5999755859375</AltitudeMeters>
            <DistanceMeters>NAN</DistanceMeters>
          </Trackpoint>
          <Trackpoint>
            <Time>2019-08-01T11:53:02.000Z</Time>
            <Position>
              <LatitudeDegrees>40.751597173511981964111328125</LatitudeDegrees>
              <LongitudeDegrees>-4.01730847544968128204345703125</LongitudeDegrees>
            </Position>
            <AltitudeMeters>1424.800048828125</AltitudeMeters>
            <DistanceMeters>NAN</DistanceMeters>
          </Trackpoint>
          <Trackpoint>
            <Time>2019-08-01T11:53:03.000Z</Time>
            <Position>
              <LatitudeDegrees>40.7516281865537166595458984375</LatitudeDegrees>
              <LongitudeDegrees>-4.01733194477856159210205078125</LongitudeDegrees>
            </Position>
            <AltitudeMeters>1424.800048828125</AltitudeMeters>
            <DistanceMeters>NAN</DistanceMeters>
          </Trackpoint>
          <Trackpoint>
            <Time>2019-08-01T11:53:04.000Z</Time>
            <Position>
              <LatitudeDegrees>40.7516281865537166595458984375</LatitudeDegrees>
              <LongitudeDegrees>-4.01733194477856159210205078125</LongitudeDegrees>
            </Position>
            <AltitudeMeters>1425.199951171875</AltitudeMeters>
            <DistanceMeters>NAN</DistanceMeters>
          </Trackpoint>
          <Trackpoint>
            <Time>2019-08-01T11:53:05.000Z</Time>
            <Position>
              <LatitudeDegrees>40.75168669223785400390625</LatitudeDegrees>
              <LongitudeDegrees>-4.01738408021628856658935546875</LongitudeDegrees>
            </Position>
            <AltitudeMeters>1425.5999755859375</AltitudeMeters>
            <DistanceMeters>NAN</DistanceMeters>
          </Trackpoint>
          <Trackpoint>
            <Time>2019-08-01T11:53:06.000Z</Time>
            <Position>
              <LatitudeDegrees>40.7517143525183200836181640625</LatitudeDegrees>
              <LongitudeDegrees>-4.0174108184874057769775390625</LongitudeDegrees>
            </Position>
            <AltitudeMeters>1425.800048828125</AltitudeMeters>
            <DistanceMeters>NAN</DistanceMeters>
          </Trackpoint>
          <Trackpoint>
            <Time>2019-08-01T11:53:07.000Z</Time>
            <Position>
              <LatitudeDegrees>40.75174192897975444793701171875</LatitudeDegrees>
              <LongitudeDegrees>-4.01743990369141101837158203125</LongitudeDegrees>
            </Position>
            <AltitudeMeters>1425.800048828125</AltitudeMeters>
            <DistanceMeters>NAN</DistanceMeters>
          </Trackpoint>
          <Trackpoint>
            <Time>2019-08-01T11:53:08.000Z</Time>
            <Position>
              <LatitudeDegrees>40.75176858343183994293212890625</LatitudeDegrees>
              <LongitudeDegrees>-4.0174711681902408599853515625</LongitudeDegrees>
            </Position>
            <AltitudeMeters>1426</AltitudeMeters>
            <DistanceMeters>NAN</DistanceMeters>
          </Trackpoint>
          <Trackpoint>
            <Time>2019-08-01T11:53:09.000Z</Time>
            <Position>
              <LatitudeDegrees>40.7517938129603862762451171875</LatitudeDegrees>
              <LongitudeDegrees>-4.0175036899745464324951171875</LongitudeDegrees>
            </Position>
            <AltitudeMeters>1426</AltitudeMeters>
            <DistanceMeters>NAN</DistanceMeters>
          </Trackpoint>
          <Trackpoint>
            <Time>2019-08-01T11:53:10.000Z</Time>
            <Position>
              <LatitudeDegrees>40.7518179528415203094482421875</LatitudeDegrees>
              <LongitudeDegrees>-4.017538391053676605224609375</LongitudeDegrees>
            </Position>
            <AltitudeMeters>1426.199951171875</AltitudeMeters>
            <DistanceMeters>NAN</DistanceMeters>
          </Trackpoint>
          <Trackpoint>
            <Time>2019-08-01T11:53:11.000Z</Time>
            <Position>
              <LatitudeDegrees>40.75184301473200321197509765625</LatitudeDegrees>
              <LongitudeDegrees>-4.017573930323123931884765625</LongitudeDegrees>
            </Position>
            <AltitudeMeters>1426.199951171875</AltitudeMeters>
            <DistanceMeters>NAN</DistanceMeters>
          </Trackpoint>
          <Trackpoint>
            <Time>2019-08-01T11:53:12.000Z</Time>
            <Position>
              <LatitudeDegrees>40.75186908245086669921875</LatitudeDegrees>
              <LongitudeDegrees>-4.0176066197454929351806640625</LongitudeDegrees>
            </Position>
            <AltitudeMeters>1426.4000244140625</AltitudeMeters>
            <DistanceMeters>NAN</DistanceMeters>
          </Trackpoint>
          <Trackpoint>
            <Time>2019-08-01T11:53:13.000Z</Time>
            <Position>
              <LatitudeDegrees>40.75189548544585704803466796875</LatitudeDegrees>
              <LongitudeDegrees>-4.01763738133013248443603515625</LongitudeDegrees>
            </Position>
            <AltitudeMeters>1426.5999755859375</AltitudeMeters>
            <DistanceMeters>NAN</DistanceMeters>
          </Trackpoint>
          <Trackpoint>
            <Time>2019-08-01T11:53:14.000Z</Time>
            <Position>
              <LatitudeDegrees>40.751920379698276519775390625</LatitudeDegrees>
              <LongitudeDegrees>-4.017670154571533203125</LongitudeDegrees>
            </Position>
            <AltitudeMeters>1426.800048828125</AltitudeMeters>
            <DistanceMeters>NAN</DistanceMeters>
          </Trackpoint>
          <Trackpoint>
            <Time>2019-08-01T11:53:15.000Z</Time>
            <Position>
              <LatitudeDegrees>40.751943849027156829833984375</LatitudeDegrees>
              <LongitudeDegrees>-4.017704688012599945068359375</LongitudeDegrees>
            </Position>
            <AltitudeMeters>1427</AltitudeMeters>
            <DistanceMeters>NAN</DistanceMeters>
          </Trackpoint>
          <Trackpoint>
            <Time>2019-08-01T11:53:16.000Z</Time>
            <Position>
              <LatitudeDegrees>40.7519674859941005706787109375</LatitudeDegrees>
              <LongitudeDegrees>-4.01773997582495212554931640625</LongitudeDegrees>
            </Position>
            <AltitudeMeters>1427</AltitudeMeters>
            <DistanceMeters>NAN</DistanceMeters>
          </Trackpoint>
          <Trackpoint>
            <Time>2019-08-01T11:53:17.000Z</Time>
            <Position>
              <LatitudeDegrees>40.751991458237171173095703125</LatitudeDegrees>
              <LongitudeDegrees>-4.01777501218020915985107421875</LongitudeDegrees>
            </Position>
            <AltitudeMeters>1427</AltitudeMeters>
            <DistanceMeters>NAN</DistanceMeters>
          </Trackpoint>
          <Trackpoint>
            <Time>2019-08-01T11:53:18.000Z</Time>
            <Position>
              <LatitudeDegrees>40.75201652012765407562255859375</LatitudeDegrees>
              <LongitudeDegrees>-4.017809294164180755615234375</LongitudeDegrees>
            </Position>
            <AltitudeMeters>1427.199951171875</AltitudeMeters>
            <DistanceMeters>NAN</DistanceMeters>
          </Trackpoint>
          <Trackpoint>
            <Time>2019-08-01T11:53:19.000Z</Time>
            <Position>
              <LatitudeDegrees>40.752041079103946685791015625</LatitudeDegrees>
              <LongitudeDegrees>-4.01784407906234264373779296875</LongitudeDegrees>
            </Position>
            <AltitudeMeters>1427.199951171875</AltitudeMeters>
            <DistanceMeters>NAN</DistanceMeters>
          </Trackpoint>
          <Trackpoint>
            <Time>2019-08-01T11:53:20.000Z</Time>
            <Position>
              <LatitudeDegrees>40.752064883708953857421875</LatitudeDegrees>
              <LongitudeDegrees>-4.01787894777953624725341796875</LongitudeDegrees>
            </Position>
            <AltitudeMeters>1427.4000244140625</AltitudeMeters>
            <DistanceMeters>NAN</DistanceMeters>
          </Trackpoint>
          <Trackpoint>
            <Time>2019-08-01T11:53:21.000Z</Time>
            <Position>
              <LatitudeDegrees>40.75208877213299274444580078125</LatitudeDegrees>
              <LongitudeDegrees>-4.01791297830641269683837890625</LongitudeDegrees>
            </Position>
            <AltitudeMeters>1427.5999755859375</AltitudeMeters>
            <DistanceMeters>NAN</DistanceMeters>
          </Trackpoint>
          <Trackpoint>
            <Time>2019-08-01T11:53:22.000Z</Time>
            <Position>
              <LatitudeDegrees>40.7521136663854122161865234375</LatitudeDegrees>
              <LongitudeDegrees>-4.0179462544620037078857421875</LongitudeDegrees>
            </Position>
            <AltitudeMeters>1428</AltitudeMeters>
            <DistanceMeters>NAN</DistanceMeters>
          </Trackpoint>
          <Trackpoint>
            <Time>2019-08-01T11:53:23.000Z</Time>
            <Position>
              <LatitudeDegrees>40.7521394826471805572509765625</LatitudeDegrees>
              <LongitudeDegrees>-4.0179799497127532958984375</LongitudeDegrees>
            </Position>
            <AltitudeMeters>1428.199951171875</AltitudeMeters>
            <DistanceMeters>NAN</DistanceMeters>
          </Trackpoint>
          <Trackpoint>
            <Time>2019-08-01T11:53:24.000Z</Time>
            <Position>
              <LatitudeDegrees>40.75216479599475860595703125</LatitudeDegrees>
              <LongitudeDegrees>-4.01801490224897861480712890625</LongitudeDegrees>
            </Position>
            <AltitudeMeters>1428.4000244140625</AltitudeMeters>
            <DistanceMeters>NAN</DistanceMeters>
          </Trackpoint>
          <Trackpoint>
            <Time>2019-08-01T11:53:25.000Z</Time>
            <Position>
              <LatitudeDegrees>40.75219036079943180084228515625</LatitudeDegrees>
              <LongitudeDegrees>-4.0180498547852039337158203125</LongitudeDegrees>
            </Position>
            <AltitudeMeters>1428.4000244140625</AltitudeMeters>
            <DistanceMeters>NAN</DistanceMeters>
          </Trackpoint>
          <Trackpoint>
            <Time>2019-08-01T11:53:26.000Z</Time>
            <Position>
              <LatitudeDegrees>40.7522162608802318572998046875</LatitudeDegrees>
              <LongitudeDegrees>-4.01808145456016063690185546875</LongitudeDegrees>
            </Position>
            <AltitudeMeters>1428.800048828125</AltitudeMeters>
            <DistanceMeters>NAN</DistanceMeters>
          </Trackpoint>
          <Trackpoint>
            <Time>2019-08-01T11:53:27.000Z</Time>
            <Position>
              <LatitudeDegrees>40.75224526226520538330078125</LatitudeDegrees>
              <LongitudeDegrees>-4.0181102044880390167236328125</LongitudeDegrees>
            </Position>
            <AltitudeMeters>1429</AltitudeMeters>
            <DistanceMeters>NAN</DistanceMeters>
          </Trackpoint>
          <Trackpoint>
            <Time>2019-08-01T11:53:28.000Z</Time>
            <Position>
              <LatitudeDegrees>40.7522752694785594940185546875</LatitudeDegrees>
              <LongitudeDegrees>-4.01813685894012451171875</LongitudeDegrees>
            </Position>
            <AltitudeMeters>1429</AltitudeMeters>
            <DistanceMeters>NAN</DistanceMeters>
          </Trackpoint>
          <Trackpoint>
            <Time>2019-08-01T11:53:29.000Z</Time>
            <Position>
              <LatitudeDegrees>40.75230603106319904327392578125</LatitudeDegrees>
              <LongitudeDegrees>-4.01816326193511486053466796875</LongitudeDegrees>
            </Position>
            <AltitudeMeters>1429.199951171875</AltitudeMeters>
            <DistanceMeters>NAN</DistanceMeters>
          </Trackpoint>
          <Trackpoint>
            <Time>2019-08-01T11:53:30.000Z</Time>
            <Position>
              <LatitudeDegrees>40.75233771465718746185302734375</LatitudeDegrees>
              <LongitudeDegrees>-4.01818706654012203216552734375</LongitudeDegrees>
            </Position>
            <AltitudeMeters>1429.199951171875</AltitudeMeters>
            <DistanceMeters>NAN</DistanceMeters>
          </Trackpoint>
          <Trackpoint>
            <Time>2019-08-01T11:53:31.000Z</Time>
            <Position>
              <LatitudeDegrees>40.7523701526224613189697265625</LatitudeDegrees>
              <LongitudeDegrees>-4.01821003295481204986572265625</LongitudeDegrees>
            </Position>
            <AltitudeMeters>1429.4000244140625</AltitudeMeters>
            <DistanceMeters>NAN</DistanceMeters>
          </Trackpoint>
          <Trackpoint>
            <Time>2019-08-01T11:53:32.000Z</Time>
            <Position>
              <LatitudeDegrees>40.7524033449590206146240234375</LatitudeDegrees>
              <LongitudeDegrees>-4.01823232881724834442138671875</LongitudeDegrees>
            </Position>
            <AltitudeMeters>1430.199951171875</AltitudeMeters>
            <DistanceMeters>NAN</DistanceMeters>
          </Trackpoint>
          <Trackpoint>
            <Time>2019-08-01T11:53:33.000Z</Time>
            <Position>
              <LatitudeDegrees>40.75243745930492877960205078125</LatitudeDegrees>
              <LongitudeDegrees>-4.01825160719454288482666015625</LongitudeDegrees>
            </Position>
            <AltitudeMeters>1430.4000244140625</AltitudeMeters>
            <DistanceMeters>NAN</DistanceMeters>
          </Trackpoint>
          <Trackpoint>
            <Time>2019-08-01T11:53:34.000Z</Time>
            <Position>
              <LatitudeDegrees>40.7524717412889003753662109375</LatitudeDegrees>
              <LongitudeDegrees>-4.01826669462025165557861328125</LongitudeDegrees>
            </Position>
            <AltitudeMeters>1430.5999755859375</AltitudeMeters>
            <DistanceMeters>NAN</DistanceMeters>
          </Trackpoint>
          <Trackpoint>
            <Time>2019-08-01T11:53:35.000Z</Time>
            <Position>
              <LatitudeDegrees>40.75250669382512569427490234375</LatitudeDegrees>
              <LongitudeDegrees>-4.0182808600366115570068359375</LongitudeDegrees>
            </Position>
            <AltitudeMeters>1430.800048828125</AltitudeMeters>
            <DistanceMeters>NAN</DistanceMeters>
          </Trackpoint>
          <Trackpoint>
            <Time>2019-08-01T11:53:36.000Z</Time>
            <Position>
              <LatitudeDegrees>40.75254139490425586700439453125</LatitudeDegrees>
              <LongitudeDegrees>-4.01829334907233715057373046875</LongitudeDegrees>
            </Position>
            <AltitudeMeters>1430.800048828125</AltitudeMeters>
            <DistanceMeters>NAN</DistanceMeters>
          </Trackpoint>
          <Trackpoint>
            <Time>2019-08-01T11:53:37.000Z</Time>
            <Position>
              <LatitudeDegrees>40.75257542543113231658935546875</LatitudeDegrees>
              <LongitudeDegrees>-4.0183026529848575592041015625</LongitudeDegrees>
            </Position>
            <AltitudeMeters>1431</AltitudeMeters>
            <DistanceMeters>NAN</DistanceMeters>
          </Trackpoint>
          <Trackpoint>
            <Time>2019-08-01T11:53:38.000Z</Time>
            <Position>
              <LatitudeDegrees>40.75261012651026248931884765625</LatitudeDegrees>
              <LongitudeDegrees>-4.018312878906726837158203125</LongitudeDegrees>
            </Position>
            <AltitudeMeters>1431.199951171875</AltitudeMeters>
            <DistanceMeters>NAN</DistanceMeters>
          </Trackpoint>
          <Trackpoint>
            <Time>2019-08-01T11:53:39.000Z</Time>
            <Position>
              <LatitudeDegrees>40.7526454143226146697998046875</LatitudeDegrees>
              <LongitudeDegrees>-4.01832318864762783050537109375</LongitudeDegrees>
            </Position>
            <AltitudeMeters>1431.199951171875</AltitudeMeters>
            <DistanceMeters>NAN</DistanceMeters>
          </Trackpoint>
          <Trackpoint>
            <Time>2019-08-01T11:53:40.000Z</Time>
            <Position>
              <LatitudeDegrees>40.75268137268722057342529296875</LatitudeDegrees>
              <LongitudeDegrees>-4.018336348235607147216796875</LongitudeDegrees>
            </Position>
            <AltitudeMeters>1431.5999755859375</AltitudeMeters>
            <DistanceMeters>NAN</DistanceMeters>
          </Trackpoint>
          <Trackpoint>
            <Time>2019-08-01T11:53:41.000Z</Time>
            <Position>
              <LatitudeDegrees>40.75271657668054103851318359375</LatitudeDegrees>
              <LongitudeDegrees>-4.01835017837584018707275390625</LongitudeDegrees>
            </Position>
            <AltitudeMeters>1432</AltitudeMeters>
            <DistanceMeters>NAN</DistanceMeters>
          </Trackpoint>
          <Trackpoint>
            <Time>2019-08-01T11:53:42.000Z</Time>
            <Position>
              <LatitudeDegrees>40.7527533732354640960693359375</LatitudeDegrees>
              <LongitudeDegrees>-4.0183630026876926422119140625</LongitudeDegrees>
            </Position>
            <AltitudeMeters>1432</AltitudeMeters>
            <DistanceMeters>NAN</DistanceMeters>
          </Trackpoint>
          <Trackpoint>
            <Time>2019-08-01T11:53:43.000Z</Time>
            <Position>
              <LatitudeDegrees>40.7527865655720233917236328125</LatitudeDegrees>
              <LongitudeDegrees>-4.0183744020760059356689453125</LongitudeDegrees>
            </Position>
            <AltitudeMeters>1432.199951171875</AltitudeMeters>
            <DistanceMeters>NAN</DistanceMeters>
          </Trackpoint>
          <Trackpoint>
            <Time>2019-08-01T11:53:44.000Z</Time>
            <Position>
              <LatitudeDegrees>40.75281816534698009490966796875</LatitudeDegrees>
              <LongitudeDegrees>-4.018387310206890106201171875</LongitudeDegrees>
            </Position>
            <AltitudeMeters>1432.4000244140625</AltitudeMeters>
            <DistanceMeters>NAN</DistanceMeters>
          </Trackpoint>
          <Trackpoint>
            <Time>2019-08-01T11:53:45.000Z</Time>
            <Position>
              <LatitudeDegrees>40.75285135768353939056396484375</LatitudeDegrees>
              <LongitudeDegrees>-4.01839904487133026123046875</LongitudeDegrees>
            </Position>
            <AltitudeMeters>1432.5999755859375</AltitudeMeters>
            <DistanceMeters>NAN</DistanceMeters>
          </Trackpoint>
          <Trackpoint>
            <Time>2019-08-01T11:53:46.000Z</Time>
            <Position>
              <LatitudeDegrees>40.75285135768353939056396484375</LatitudeDegrees>
              <LongitudeDegrees>-4.01839904487133026123046875</LongitudeDegrees>
            </Position>
            <AltitudeMeters>1432.5999755859375</AltitudeMeters>
            <DistanceMeters>NAN</DistanceMeters>
          </Trackpoint>
          <Trackpoint>
            <Time>2019-08-01T11:53:47.000Z</Time>
            <Position>
              <LatitudeDegrees>40.75292159803211688995361328125</LatitudeDegrees>
              <LongitudeDegrees>-4.01842243038117885589599609375</LongitudeDegrees>
            </Position>
            <AltitudeMeters>1432.800048828125</AltitudeMeters>
            <DistanceMeters>NAN</DistanceMeters>
          </Trackpoint>
          <Trackpoint>
            <Time>2019-08-01T11:53:48.000Z</Time>
            <Position>
              <LatitudeDegrees>40.75295738875865936279296875</LatitudeDegrees>
              <LongitudeDegrees>-4.0184344165027141571044921875</LongitudeDegrees>
            </Position>
            <AltitudeMeters>1433</AltitudeMeters>
            <DistanceMeters>NAN</DistanceMeters>
          </Trackpoint>
          <Trackpoint>
            <Time>2019-08-01T11:53:49.000Z</Time>
            <Position>
              <LatitudeDegrees>40.75295738875865936279296875</LatitudeDegrees>
              <LongitudeDegrees>-4.0184344165027141571044921875</LongitudeDegrees>
            </Position>
            <AltitudeMeters>1433.199951171875</AltitudeMeters>
            <DistanceMeters>NAN</DistanceMeters>
          </Trackpoint>
          <Trackpoint>
            <Time>2019-08-01T11:53:50.000Z</Time>
            <Position>
              <LatitudeDegrees>40.75303249061107635498046875</LatitudeDegrees>
              <LongitudeDegrees>-4.01846501044929027557373046875</LongitudeDegrees>
            </Position>
            <AltitudeMeters>1433.4000244140625</AltitudeMeters>
            <DistanceMeters>NAN</DistanceMeters>
          </Trackpoint>
          <Trackpoint>
            <Time>2019-08-01T11:53:51.000Z</Time>
            <Position>
              <LatitudeDegrees>40.75307029299437999725341796875</LatitudeDegrees>
              <LongitudeDegrees>-4.0184813551604747772216796875</LongitudeDegrees>
            </Position>
            <AltitudeMeters>1433.5999755859375</AltitudeMeters>
            <DistanceMeters>NAN</DistanceMeters>
          </Trackpoint>
          <Trackpoint>
            <Time>2019-08-01T11:53:52.000Z</Time>
            <Position>
              <LatitudeDegrees>40.75310759246349334716796875</LatitudeDegrees>
              <LongitudeDegrees>-4.01849535293877124786376953125</LongitudeDegrees>
            </Position>
            <AltitudeMeters>1433.800048828125</AltitudeMeters>
            <DistanceMeters>NAN</DistanceMeters>
          </Trackpoint>
          <Trackpoint>
            <Time>2019-08-01T11:53:53.000Z</Time>
            <Position>
              <LatitudeDegrees>40.75314422138035297393798828125</LatitudeDegrees>
              <LongitudeDegrees>-4.01851169764995574951171875</LongitudeDegrees>
            </Position>
            <AltitudeMeters>1434.199951171875</AltitudeMeters>
            <DistanceMeters>NAN</DistanceMeters>
          </Trackpoint>
          <Trackpoint>
            <Time>2019-08-01T11:53:54.000Z</Time>
            <Position>
              <LatitudeDegrees>40.7531815208494663238525390625</LatitudeDegrees>
              <LongitudeDegrees>-4.018527455627918243408203125</LongitudeDegrees>
            </Position>
            <AltitudeMeters>1434.4000244140625</AltitudeMeters>
            <DistanceMeters>NAN</DistanceMeters>
          </Trackpoint>
          <Trackpoint>
            <Time>2019-08-01T11:53:55.000Z</Time>
            <Position>
              <LatitudeDegrees>40.75321756303310394287109375</LatitudeDegrees>
              <LongitudeDegrees>-4.01854413561522960662841796875</LongitudeDegrees>
            </Position>
            <AltitudeMeters>1434.5999755859375</AltitudeMeters>
            <DistanceMeters>NAN</DistanceMeters>
          </Trackpoint>
          <Trackpoint>
            <Time>2019-08-01T11:53:56.000Z</Time>
            <Position>
              <LatitudeDegrees>40.753250755369663238525390625</LatitudeDegrees>
              <LongitudeDegrees>-4.01856022886931896209716796875</LongitudeDegrees>
            </Position>
            <AltitudeMeters>1434.800048828125</AltitudeMeters>
            <DistanceMeters>NAN</DistanceMeters>
          </Trackpoint>
          <Trackpoint>
            <Time>2019-08-01T11:53:57.000Z</Time>
            <Position>
              <LatitudeDegrees>40.75328595936298370361328125</LatitudeDegrees>
              <LongitudeDegrees>-4.0185782499611377716064453125</LongitudeDegrees>
            </Position>
            <AltitudeMeters>1435.199951171875</AltitudeMeters>
            <DistanceMeters>NAN</DistanceMeters>
          </Trackpoint>
          <Trackpoint>
            <Time>2019-08-01T11:53:58.000Z</Time>
            <Position>
              <LatitudeDegrees>40.75332216918468475341796875</LatitudeDegrees>
              <LongitudeDegrees>-4.018590487539768218994140625</LongitudeDegrees>
            </Position>
            <AltitudeMeters>1435.199951171875</AltitudeMeters>
            <DistanceMeters>NAN</DistanceMeters>
          </Trackpoint>
          <Trackpoint>
            <Time>2019-08-01T11:53:59.000Z</Time>
            <Position>
              <LatitudeDegrees>40.75335762463510036468505859375</LatitudeDegrees>
              <LongitudeDegrees>-4.01860264129936695098876953125</LongitudeDegrees>
            </Position>
            <AltitudeMeters>1435.4000244140625</AltitudeMeters>
            <DistanceMeters>NAN</DistanceMeters>
          </Trackpoint>
          <Trackpoint>
            <Time>2019-08-01T11:54:00.000Z</Time>
            <Position>
              <LatitudeDegrees>40.75339131988584995269775390625</LatitudeDegrees>
              <LongitudeDegrees>-4.01861538179218769073486328125</LongitudeDegrees>
            </Position>
            <AltitudeMeters>1435.800048828125</AltitudeMeters>
            <DistanceMeters>NAN</DistanceMeters>
          </Trackpoint>
          <Trackpoint>
            <Time>2019-08-01T11:54:01.000Z</Time>
            <Position>
              <LatitudeDegrees>40.75342350639402866363525390625</LatitudeDegrees>
              <LongitudeDegrees>-4.01862694881856441497802734375</LongitudeDegrees>
            </Position>
            <AltitudeMeters>1436</AltitudeMeters>
            <DistanceMeters>NAN</DistanceMeters>
          </Trackpoint>
          <Trackpoint>
            <Time>2019-08-01T11:54:02.000Z</Time>
            <Position>
              <LatitudeDegrees>40.7534574531018733978271484375</LatitudeDegrees>
              <LongitudeDegrees>-4.01864320971071720123291015625</LongitudeDegrees>
            </Position>
            <AltitudeMeters>1436.199951171875</AltitudeMeters>
            <DistanceMeters>NAN</DistanceMeters>
          </Trackpoint>
          <Trackpoint>
            <Time>2019-08-01T11:54:03.000Z</Time>
            <Position>
              <LatitudeDegrees>40.753490142524242401123046875</LatitudeDegrees>
              <LongitudeDegrees>-4.01865947060286998748779296875</LongitudeDegrees>
            </Position>
            <AltitudeMeters>1436.4000244140625</AltitudeMeters>
            <DistanceMeters>NAN</DistanceMeters>
          </Trackpoint>
          <Trackpoint>
            <Time>2019-08-01T11:54:04.000Z</Time>
            <Position>
              <LatitudeDegrees>40.75352258048951625823974609375</LatitudeDegrees>
              <LongitudeDegrees>-4.01867665350437164306640625</LongitudeDegrees>
            </Position>
            <AltitudeMeters>1436.5999755859375</AltitudeMeters>
            <DistanceMeters>NAN</DistanceMeters>
          </Trackpoint>
          <Trackpoint>
            <Time>2019-08-01T11:54:05.000Z</Time>
            <Position>
              <LatitudeDegrees>40.753553844988346099853515625</LatitudeDegrees>
              <LongitudeDegrees>-4.0186907351016998291015625</LongitudeDegrees>
            </Position>
            <AltitudeMeters>1436.800048828125</AltitudeMeters>
            <DistanceMeters>NAN</DistanceMeters>
          </Trackpoint>
          <Trackpoint>
            <Time>2019-08-01T11:54:06.000Z</Time>
            <Position>
              <LatitudeDegrees>40.7535831816494464874267578125</LatitudeDegrees>
              <LongitudeDegrees>-4.01870154775679111480712890625</LongitudeDegrees>
            </Position>
            <AltitudeMeters>1437</AltitudeMeters>
            <DistanceMeters>NAN</DistanceMeters>
          </Trackpoint>
          <Trackpoint>
            <Time>2019-08-01T11:54:07.000Z</Time>
            <Position>
              <LatitudeDegrees>40.75361310504376888275146484375</LatitudeDegrees>
              <LongitudeDegrees>-4.01871546171605587005615234375</LongitudeDegrees>
            </Position>
            <AltitudeMeters>1437.199951171875</AltitudeMeters>
            <DistanceMeters>NAN</DistanceMeters>
          </Trackpoint>
          <Trackpoint>
            <Time>2019-08-01T11:54:08.000Z</Time>
            <Position>
              <LatitudeDegrees>40.753643698990345001220703125</LatitudeDegrees>
              <LongitudeDegrees>-4.01872719638049602508544921875</LongitudeDegrees>
            </Position>
            <AltitudeMeters>1437.4000244140625</AltitudeMeters>
            <DistanceMeters>NAN</DistanceMeters>
          </Trackpoint>
          <Trackpoint>
            <Time>2019-08-01T11:54:09.000Z</Time>
            <Position>
              <LatitudeDegrees>40.75367311947047710418701171875</LatitudeDegrees>
              <LongitudeDegrees>-4.01873524300754070281982421875</LongitudeDegrees>
            </Position>
            <AltitudeMeters>1437.5999755859375</AltitudeMeters>
            <DistanceMeters>NAN</DistanceMeters>
          </Trackpoint>
          <Trackpoint>
            <Time>2019-08-01T11:54:10.000Z</Time>
            <Position>
              <LatitudeDegrees>40.75370228849351406097412109375</LatitudeDegrees>
              <LongitudeDegrees>-4.0187445469200611114501953125</LongitudeDegrees>
            </Position>
            <AltitudeMeters>1438</AltitudeMeters>
            <DistanceMeters>NAN</DistanceMeters>
          </Trackpoint>
          <Trackpoint>
            <Time>2019-08-01T11:54:11.000Z</Time>
            <Position>
              <LatitudeDegrees>40.75373388826847076416015625</LatitudeDegrees>
              <LongitudeDegrees>-4.01876910589635372161865234375</LongitudeDegrees>
            </Position>
            <AltitudeMeters>1438.199951171875</AltitudeMeters>
            <DistanceMeters>NAN</DistanceMeters>
          </Trackpoint>
          <Trackpoint>
            <Time>2019-08-01T11:54:12.000Z</Time>
            <Position>
              <LatitudeDegrees>40.7537581957876682281494140625</LatitudeDegrees>
              <LongitudeDegrees>-4.01880011893808841705322265625</LongitudeDegrees>
            </Position>
            <AltitudeMeters>1438.199951171875</AltitudeMeters>
            <DistanceMeters>NAN</DistanceMeters>
          </Trackpoint>
          <Trackpoint>
            <Time>2019-08-01T11:54:13.000Z</Time>
            <Position>
              <LatitudeDegrees>40.7537853531539440155029296875</LatitudeDegrees>
              <LongitudeDegrees>-4.01882174424827098846435546875</LongitudeDegrees>
            </Position>
            <AltitudeMeters>1438.4000244140625</AltitudeMeters>
            <DistanceMeters>NAN</DistanceMeters>
          </Trackpoint>
          <Trackpoint>
            <Time>2019-08-01T11:54:14.000Z</Time>
            <Position>
              <LatitudeDegrees>40.75381301343441009521484375</LatitudeDegrees>
              <LongitudeDegrees>-4.01884697377681732177734375</LongitudeDegrees>
            </Position>
            <AltitudeMeters>1438.5999755859375</AltitudeMeters>
            <DistanceMeters>NAN</DistanceMeters>
          </Trackpoint>
          <Trackpoint>
            <Time>2019-08-01T11:54:15.000Z</Time>
            <Position>
              <LatitudeDegrees>40.753838829696178436279296875</LatitudeDegrees>
              <LongitudeDegrees>-4.01887723244726657867431640625</LongitudeDegrees>
            </Position>
            <AltitudeMeters>1438.800048828125</AltitudeMeters>
            <DistanceMeters>NAN</DistanceMeters>
          </Trackpoint>
          <Trackpoint>
            <Time>2019-08-01T11:54:16.000Z</Time>
            <Position>
              <LatitudeDegrees>40.75387042947113513946533203125</LatitudeDegrees>
              <LongitudeDegrees>-4.01890464127063751220703125</LongitudeDegrees>
            </Position>
            <AltitudeMeters>1439</AltitudeMeters>
            <DistanceMeters>NAN</DistanceMeters>
          </Trackpoint>
          <Trackpoint>
            <Time>2019-08-01T11:54:17.000Z</Time>
            <Position>
              <LatitudeDegrees>40.75390647165477275848388671875</LatitudeDegrees>
              <LongitudeDegrees>-4.01893012225627899169921875</LongitudeDegrees>
            </Position>
            <AltitudeMeters>1439.199951171875</AltitudeMeters>
            <DistanceMeters>NAN</DistanceMeters>
          </Trackpoint>
          <Trackpoint>
            <Time>2019-08-01T11:54:18.000Z</Time>
            <Position>
              <LatitudeDegrees>40.7539446093142032623291015625</LatitudeDegrees>
              <LongitudeDegrees>-4.01895694434642791748046875</LongitudeDegrees>
            </Position>
            <AltitudeMeters>1439.4000244140625</AltitudeMeters>
            <DistanceMeters>NAN</DistanceMeters>
          </Trackpoint>
          <Trackpoint>
            <Time>2019-08-01T11:54:19.000Z</Time>
            <Position>
              <LatitudeDegrees>40.7539754547178745269775390625</LatitudeDegrees>
              <LongitudeDegrees>-4.01898301206529140472412109375</LongitudeDegrees>
            </Position>
            <AltitudeMeters>1439.5999755859375</AltitudeMeters>
            <DistanceMeters>NAN</DistanceMeters>
          </Trackpoint>
          <Trackpoint>
            <Time>2019-08-01T11:54:20.000Z</Time>
            <Position>
              <LatitudeDegrees>40.75400420464575290679931640625</LatitudeDegrees>
              <LongitudeDegrees>-4.01901503093540668487548828125</LongitudeDegrees>
            </Position>
            <AltitudeMeters>1439.5999755859375</AltitudeMeters>
            <DistanceMeters>NAN</DistanceMeters>
          </Trackpoint>
          <Trackpoint>
            <Time>2019-08-01T11:54:21.000Z</Time>
            <Position>
              <LatitudeDegrees>40.75403722934424877166748046875</LatitudeDegrees>
              <LongitudeDegrees>-4.0190489776432514190673828125</LongitudeDegrees>
            </Position>
            <AltitudeMeters>1439.800048828125</AltitudeMeters>
            <DistanceMeters>NAN</DistanceMeters>
          </Trackpoint>
          <Trackpoint>
            <Time>2019-08-01T11:54:22.000Z</Time>
            <Position>
              <LatitudeDegrees>40.75406807474792003631591796875</LatitudeDegrees>
              <LongitudeDegrees>-4.0190741233527660369873046875</LongitudeDegrees>
            </Position>
            <AltitudeMeters>1439.800048828125</AltitudeMeters>
            <DistanceMeters>NAN</DistanceMeters>
          </Trackpoint>
          <Trackpoint>
            <Time>2019-08-01T11:54:23.000Z</Time>
            <Position>
              <LatitudeDegrees>40.7541008479893207550048828125</LatitudeDegrees>
              <LongitudeDegrees>-4.01909834705293178558349609375</LongitudeDegrees>
            </Position>
            <AltitudeMeters>1440</AltitudeMeters>
            <DistanceMeters>NAN</DistanceMeters>
          </Trackpoint>
          <Trackpoint>
            <Time>2019-08-01T11:54:24.000Z</Time>
            <Position>
              <LatitudeDegrees>40.75414049439132213592529296875</LatitudeDegrees>
              <LongitudeDegrees>-4.01913640089333057403564453125</LongitudeDegrees>
            </Position>
            <AltitudeMeters>1440.4000244140625</AltitudeMeters>
            <DistanceMeters>NAN</DistanceMeters>
          </Trackpoint>
          <Trackpoint>
            <Time>2019-08-01T11:54:25.000Z</Time>
            <Position>
              <LatitudeDegrees>40.75417754240334033966064453125</LatitudeDegrees>
              <LongitudeDegrees>-4.0191720239818096160888671875</LongitudeDegrees>
            </Position>
            <AltitudeMeters>1440.4000244140625</AltitudeMeters>
            <DistanceMeters>NAN</DistanceMeters>
          </Trackpoint>
          <Trackpoint>
            <Time>2019-08-01T11:54:26.000Z</Time>
            <Position>
              <LatitudeDegrees>40.7542133331298828125</LatitudeDegrees>
              <LongitudeDegrees>-4.01920731179416179656982421875</LongitudeDegrees>
            </Position>
            <AltitudeMeters>1440.5999755859375</AltitudeMeters>
            <DistanceMeters>NAN</DistanceMeters>
          </Trackpoint>
          <Trackpoint>
            <Time>2019-08-01T11:54:27.000Z</Time>
            <Position>
              <LatitudeDegrees>40.754245184361934661865234375</LatitudeDegrees>
              <LongitudeDegrees>-4.0192410908639430999755859375</LongitudeDegrees>
            </Position>
            <AltitudeMeters>1440.800048828125</AltitudeMeters>
            <DistanceMeters>NAN</DistanceMeters>
          </Trackpoint>
          <Trackpoint>
            <Time>2019-08-01T11:54:28.000Z</Time>
            <Position>
              <LatitudeDegrees>40.75427628122270107269287109375</LatitudeDegrees>
              <LongitudeDegrees>-4.01927269063889980316162109375</LongitudeDegrees>
            </Position>
            <AltitudeMeters>1441.199951171875</AltitudeMeters>
            <DistanceMeters>NAN</DistanceMeters>
          </Trackpoint>
          <Trackpoint>
            <Time>2019-08-01T11:54:29.000Z</Time>
            <Position>
              <LatitudeDegrees>40.7543063722550868988037109375</LatitudeDegrees>
              <LongitudeDegrees>-4.01930294930934906005859375</LongitudeDegrees>
            </Position>
            <AltitudeMeters>1441.4000244140625</AltitudeMeters>
            <DistanceMeters>NAN</DistanceMeters>
          </Trackpoint>
          <Trackpoint>
            <Time>2019-08-01T11:54:30.000Z</Time>
            <Position>
              <LatitudeDegrees>40.75433679856359958648681640625</LatitudeDegrees>
              <LongitudeDegrees>-4.01933589018881320953369140625</LongitudeDegrees>
            </Position>
            <AltitudeMeters>1441.5999755859375</AltitudeMeters>
            <DistanceMeters>NAN</DistanceMeters>
          </Trackpoint>
          <Trackpoint>
            <Time>2019-08-01T11:54:31.000Z</Time>
            <Position>
              <LatitudeDegrees>40.75436898507177829742431640625</LatitudeDegrees>
              <LongitudeDegrees>-4.01937000453472137451171875</LongitudeDegrees>
            </Position>
            <AltitudeMeters>1441.800048828125</AltitudeMeters>
            <DistanceMeters>NAN</DistanceMeters>
          </Trackpoint>
          <Trackpoint>
            <Time>2019-08-01T11:54:32.000Z</Time>
            <Position>
              <LatitudeDegrees>40.75440083630383014678955078125</LatitudeDegrees>
              <LongitudeDegrees>-4.0194023586809635162353515625</LongitudeDegrees>
            </Position>
            <AltitudeMeters>1441.800048828125</AltitudeMeters>
            <DistanceMeters>NAN</DistanceMeters>
          </Trackpoint>
          <Trackpoint>
            <Time>2019-08-01T11:54:33.000Z</Time>
            <Position>
              <LatitudeDegrees>40.75443394482135772705078125</LatitudeDegrees>
              <LongitudeDegrees>-4.0194352157413959503173828125</LongitudeDegrees>
            </Position>
            <AltitudeMeters>1442</AltitudeMeters>
            <DistanceMeters>NAN</DistanceMeters>
          </Trackpoint>
          <Trackpoint>
            <Time>2019-08-01T11:54:34.000Z</Time>
            <Position>
              <LatitudeDegrees>40.75446705333888530731201171875</LatitudeDegrees>
              <LongitudeDegrees>-4.01946865953505039215087890625</LongitudeDegrees>
            </Position>
            <AltitudeMeters>1442</AltitudeMeters>
            <DistanceMeters>NAN</DistanceMeters>
          </Trackpoint>
          <Trackpoint>
            <Time>2019-08-01T11:54:35.000Z</Time>
            <Position>
              <LatitudeDegrees>40.75449789874255657196044921875</LatitudeDegrees>
              <LongitudeDegrees>-4.01950386352837085723876953125</LongitudeDegrees>
            </Position>
            <AltitudeMeters>1442</AltitudeMeters>
            <DistanceMeters>NAN</DistanceMeters>
          </Trackpoint>
          <Trackpoint>
            <Time>2019-08-01T11:54:36.000Z</Time>
            <Position>
              <LatitudeDegrees>40.75452807359397411346435546875</LatitudeDegrees>
              <LongitudeDegrees>-4.01953957043588161468505859375</LongitudeDegrees>
            </Position>
            <AltitudeMeters>1442.199951171875</AltitudeMeters>
            <DistanceMeters>NAN</DistanceMeters>
          </Trackpoint>
          <Trackpoint>
            <Time>2019-08-01T11:54:37.000Z</Time>
            <Position>
              <LatitudeDegrees>40.75455623678863048553466796875</LatitudeDegrees>
              <LongitudeDegrees>-4.0195750258862972259521484375</LongitudeDegrees>
            </Position>
            <AltitudeMeters>1442.4000244140625</AltitudeMeters>
            <DistanceMeters>NAN</DistanceMeters>
          </Trackpoint>
          <Trackpoint>
            <Time>2019-08-01T11:54:38.000Z</Time>
            <Position>
              <LatitudeDegrees>40.75458389706909656524658203125</LatitudeDegrees>
              <LongitudeDegrees>-4.01961383409798145294189453125</LongitudeDegrees>
            </Position>
            <AltitudeMeters>1442.800048828125</AltitudeMeters>
            <DistanceMeters>NAN</DistanceMeters>
          </Trackpoint>
          <Trackpoint>
            <Time>2019-08-01T11:54:39.000Z</Time>
            <Position>
              <LatitudeDegrees>40.75461097061634063720703125</LatitudeDegrees>
              <LongitudeDegrees>-4.019657671451568603515625</LongitudeDegrees>
            </Position>
            <AltitudeMeters>1443</AltitudeMeters>
            <DistanceMeters>NAN</DistanceMeters>
          </Trackpoint>
          <Trackpoint>
            <Time>2019-08-01T11:54:40.000Z</Time>
            <Position>
              <LatitudeDegrees>40.754638127982616424560546875</LatitudeDegrees>
              <LongitudeDegrees>-4.019695557653903961181640625</LongitudeDegrees>
            </Position>
            <AltitudeMeters>1443.199951171875</AltitudeMeters>
            <DistanceMeters>NAN</DistanceMeters>
          </Trackpoint>
          <Trackpoint>
            <Time>2019-08-01T11:54:41.000Z</Time>
            <Position>
              <LatitudeDegrees>40.7546631060540676116943359375</LatitudeDegrees>
              <LongitudeDegrees>-4.01974425651133060455322265625</LongitudeDegrees>
            </Position>
            <AltitudeMeters>1443.4000244140625</AltitudeMeters>
            <DistanceMeters>NAN</DistanceMeters>
          </Trackpoint>
          <Trackpoint>
            <Time>2019-08-01T11:54:42.000Z</Time>
            <Position>
              <LatitudeDegrees>40.7546631060540676116943359375</LatitudeDegrees>
              <LongitudeDegrees>-4.01974425651133060455322265625</LongitudeDegrees>
            </Position>
            <AltitudeMeters>1443.5999755859375</AltitudeMeters>
            <DistanceMeters>NAN</DistanceMeters>
          </Trackpoint>
          <Trackpoint>
            <Time>2019-08-01T11:54:43.000Z</Time>
            <Position>
              <LatitudeDegrees>40.75471683405339717864990234375</LatitudeDegrees>
              <LongitudeDegrees>-4.01982321403920650482177734375</LongitudeDegrees>
            </Position>
            <AltitudeMeters>1443.800048828125</AltitudeMeters>
            <DistanceMeters>NAN</DistanceMeters>
          </Trackpoint>
          <Trackpoint>
            <Time>2019-08-01T11:54:44.000Z</Time>
            <Position>
              <LatitudeDegrees>40.754740722477436065673828125</LatitudeDegrees>
              <LongitudeDegrees>-4.019864536821842193603515625</LongitudeDegrees>
            </Position>
            <AltitudeMeters>1444.199951171875</AltitudeMeters>
            <DistanceMeters>NAN</DistanceMeters>
          </Trackpoint>
          <Trackpoint>
            <Time>2019-08-01T11:54:45.000Z</Time>
            <Position>
              <LatitudeDegrees>40.7547623477876186370849609375</LatitudeDegrees>
              <LongitudeDegrees>-4.01990711688995361328125</LongitudeDegrees>
            </Position>
            <AltitudeMeters>1444.4000244140625</AltitudeMeters>
            <DistanceMeters>NAN</DistanceMeters>
          </Trackpoint>
          <Trackpoint>
            <Time>2019-08-01T11:54:46.000Z</Time>
            <Position>
              <LatitudeDegrees>40.754784308373928070068359375</LatitudeDegrees>
              <LongitudeDegrees>-4.01994860731065273284912109375</LongitudeDegrees>
            </Position>
            <AltitudeMeters>1444.5999755859375</AltitudeMeters>
            <DistanceMeters>NAN</DistanceMeters>
          </Trackpoint>
          <Trackpoint>
            <Time>2019-08-01T11:54:47.000Z</Time>
            <Position>
              <LatitudeDegrees>40.75480467639863491058349609375</LatitudeDegrees>
              <LongitudeDegrees>-4.0199916064739227294921875</LongitudeDegrees>
            </Position>
            <AltitudeMeters>1444.800048828125</AltitudeMeters>
            <DistanceMeters>NAN</DistanceMeters>
          </Trackpoint>
          <Trackpoint>
            <Time>2019-08-01T11:54:48.000Z</Time>
            <Position>
              <LatitudeDegrees>40.75482152402400970458984375</LatitudeDegrees>
              <LongitudeDegrees>-4.02003745548427104949951171875</LongitudeDegrees>
            </Position>
            <AltitudeMeters>1445</AltitudeMeters>
            <DistanceMeters>NAN</DistanceMeters>
          </Trackpoint>
          <Trackpoint>
            <Time>2019-08-01T11:54:49.000Z</Time>
            <Position>
              <LatitudeDegrees>40.754839964210987091064453125</LatitudeDegrees>
              <LongitudeDegrees>-4.02008590288460254669189453125</LongitudeDegrees>
            </Position>
            <AltitudeMeters>1445.199951171875</AltitudeMeters>
            <DistanceMeters>NAN</DistanceMeters>
          </Trackpoint>
          <Trackpoint>
            <Time>2019-08-01T11:54:50.000Z</Time>
            <Position>
              <LatitudeDegrees>40.75485932640731334686279296875</LatitudeDegrees>
              <LongitudeDegrees>-4.0201356075704097747802734375</LongitudeDegrees>
            </Position>
            <AltitudeMeters>1445.199951171875</AltitudeMeters>
            <DistanceMeters>NAN</DistanceMeters>
          </Trackpoint>
          <Trackpoint>
            <Time>2019-08-01T11:54:51.000Z</Time>
            <Position>
              <LatitudeDegrees>40.7548756711184978485107421875</LatitudeDegrees>
              <LongitudeDegrees>-4.02018363587558269500732421875</LongitudeDegrees>
            </Position>
            <AltitudeMeters>1445.4000244140625</AltitudeMeters>
            <DistanceMeters>NAN</DistanceMeters>
          </Trackpoint>
          <Trackpoint>
            <Time>2019-08-01T11:54:52.000Z</Time>
            <Position>
              <LatitudeDegrees>40.75489067472517490386962890625</LatitudeDegrees>
              <LongitudeDegrees>-4.02023158036172389984130859375</LongitudeDegrees>
            </Position>
            <AltitudeMeters>1445.5999755859375</AltitudeMeters>
            <DistanceMeters>NAN</DistanceMeters>
          </Trackpoint>
          <Trackpoint>
            <Time>2019-08-01T11:54:53.000Z</Time>
            <Position>
              <LatitudeDegrees>40.75490492396056652069091796875</LatitudeDegrees>
              <LongitudeDegrees>-4.02028061449527740478515625</LongitudeDegrees>
            </Position>
            <AltitudeMeters>1446</AltitudeMeters>
            <DistanceMeters>NAN</DistanceMeters>
          </Trackpoint>
          <Trackpoint>
            <Time>2019-08-01T11:54:54.000Z</Time>
            <Position>
              <LatitudeDegrees>40.7549172453582286834716796875</LatitudeDegrees>
              <LongitudeDegrees>-4.02032889425754547119140625</LongitudeDegrees>
            </Position>
            <AltitudeMeters>1446.199951171875</AltitudeMeters>
            <DistanceMeters>NAN</DistanceMeters>
          </Trackpoint>
          <Trackpoint>
            <Time>2019-08-01T11:54:55.000Z</Time>
            <Position>
              <LatitudeDegrees>40.7549279741942882537841796875</LatitudeDegrees>
              <LongitudeDegrees>-4.02037759311497211456298828125</LongitudeDegrees>
            </Position>
            <AltitudeMeters>1446.199951171875</AltitudeMeters>
            <DistanceMeters>NAN</DistanceMeters>
          </Trackpoint>
          <Trackpoint>
            <Time>2019-08-01T11:54:56.000Z</Time>
            <Position>
              <LatitudeDegrees>40.7549380324780941009521484375</LatitudeDegrees>
              <LongitudeDegrees>-4.0204256214201450347900390625</LongitudeDegrees>
            </Position>
            <AltitudeMeters>1446.4000244140625</AltitudeMeters>
            <DistanceMeters>NAN</DistanceMeters>
          </Trackpoint>
          <Trackpoint>
            <Time>2019-08-01T11:54:57.000Z</Time>
            <Position>
              <LatitudeDegrees>40.7549474202096462249755859375</LatitudeDegrees>
              <LongitudeDegrees>-4.0204695425927639007568359375</LongitudeDegrees>
            </Position>
            <AltitudeMeters>1446.5999755859375</AltitudeMeters>
            <DistanceMeters>NAN</DistanceMeters>
          </Trackpoint>
          <Trackpoint>
            <Time>2019-08-01T11:54:58.000Z</Time>
            <Position>
              <LatitudeDegrees>40.75495689176023006439208984375</LatitudeDegrees>
              <LongitudeDegrees>-4.020515643060207366943359375</LongitudeDegrees>
            </Position>
            <AltitudeMeters>1447</AltitudeMeters>
            <DistanceMeters>NAN</DistanceMeters>
          </Trackpoint>
          <Trackpoint>
            <Time>2019-08-01T11:54:59.000Z</Time>
            <Position>
              <LatitudeDegrees>40.75496862642467021942138671875</LatitudeDegrees>
              <LongitudeDegrees>-4.02056048624217510223388671875</LongitudeDegrees>
            </Position>
            <AltitudeMeters>1447</AltitudeMeters>
            <DistanceMeters>NAN</DistanceMeters>
          </Trackpoint>
          <Trackpoint>
            <Time>2019-08-01T11:55:00.000Z</Time>
            <Position>
              <LatitudeDegrees>40.754983127117156982421875</LatitudeDegrees>
              <LongitudeDegrees>-4.020608849823474884033203125</LongitudeDegrees>
            </Position>
            <AltitudeMeters>1447</AltitudeMeters>
            <DistanceMeters>NAN</DistanceMeters>
          </Trackpoint>
          <Trackpoint>
            <Time>2019-08-01T11:55:01.000Z</Time>
            <Position>
              <LatitudeDegrees>40.75499796308577060699462890625</LatitudeDegrees>
              <LongitudeDegrees>-4.02065570466220378875732421875</LongitudeDegrees>
            </Position>
            <AltitudeMeters>1447.4000244140625</AltitudeMeters>
            <DistanceMeters>NAN</DistanceMeters>
          </Trackpoint>
          <Trackpoint>
            <Time>2019-08-01T11:55:02.000Z</Time>
            <Position>
              <LatitudeDegrees>40.7550148107111454010009765625</LatitudeDegrees>
              <LongitudeDegrees>-4.0207023918628692626953125</LongitudeDegrees>
            </Position>
            <AltitudeMeters>1447.5999755859375</AltitudeMeters>
            <DistanceMeters>NAN</DistanceMeters>
          </Trackpoint>
          <Trackpoint>
            <Time>2019-08-01T11:55:03.000Z</Time>
            <Position>
              <LatitudeDegrees>40.75503341853618621826171875</LatitudeDegrees>
              <LongitudeDegrees>-4.02074991725385189056396484375</LongitudeDegrees>
            </Position>
            <AltitudeMeters>1447.800048828125</AltitudeMeters>
            <DistanceMeters>NAN</DistanceMeters>
          </Trackpoint>
          <Trackpoint>
            <Time>2019-08-01T11:55:04.000Z</Time>
            <Position>
              <LatitudeDegrees>40.75504926033318042755126953125</LatitudeDegrees>
              <LongitudeDegrees>-4.02079551480710506439208984375</LongitudeDegrees>
            </Position>
            <AltitudeMeters>1448</AltitudeMeters>
            <DistanceMeters>NAN</DistanceMeters>
          </Trackpoint>
          <Trackpoint>
            <Time>2019-08-01T11:55:05.000Z</Time>
            <Position>
              <LatitudeDegrees>40.7550651021301746368408203125</LatitudeDegrees>
              <LongitudeDegrees>-4.02084052562713623046875</LongitudeDegrees>
            </Position>
            <AltitudeMeters>1448.199951171875</AltitudeMeters>
            <DistanceMeters>NAN</DistanceMeters>
          </Trackpoint>
          <Trackpoint>
            <Time>2019-08-01T11:55:06.000Z</Time>
            <Position>
              <LatitudeDegrees>40.7550818659365177154541015625</LatitudeDegrees>
              <LongitudeDegrees>-4.0208802558481693267822265625</LongitudeDegrees>
            </Position>
            <AltitudeMeters>1448.4000244140625</AltitudeMeters>
            <DistanceMeters>NAN</DistanceMeters>
          </Trackpoint>
          <Trackpoint>
            <Time>2019-08-01T11:55:07.000Z</Time>
            <Position>
              <LatitudeDegrees>40.75510256923735141754150390625</LatitudeDegrees>
              <LongitudeDegrees>-4.02091705240309238433837890625</LongitudeDegrees>
            </Position>
            <AltitudeMeters>1448.800048828125</AltitudeMeters>
            <DistanceMeters>NAN</DistanceMeters>
          </Trackpoint>
          <Trackpoint>
            <Time>2019-08-01T11:55:08.000Z</Time>
            <Position>
              <LatitudeDegrees>40.75512302108108997344970703125</LatitudeDegrees>
              <LongitudeDegrees>-4.02095410041511058807373046875</LongitudeDegrees>
            </Position>
            <AltitudeMeters>1449</AltitudeMeters>
            <DistanceMeters>NAN</DistanceMeters>
          </Trackpoint>
          <Trackpoint>
            <Time>2019-08-01T11:55:09.000Z</Time>
            <Position>
              <LatitudeDegrees>40.75514162890613079071044921875</LatitudeDegrees>
              <LongitudeDegrees>-4.02098427526652812957763671875</LongitudeDegrees>
            </Position>
            <AltitudeMeters>1449.199951171875</AltitudeMeters>
            <DistanceMeters>NAN</DistanceMeters>
          </Trackpoint>
          <Trackpoint>
            <Time>2019-08-01T11:55:10.000Z</Time>
            <Position>
              <LatitudeDegrees>40.75514162890613079071044921875</LatitudeDegrees>
              <LongitudeDegrees>-4.02098427526652812957763671875</LongitudeDegrees>
            </Position>
            <AltitudeMeters>1449.4000244140625</AltitudeMeters>
            <DistanceMeters>NAN</DistanceMeters>
          </Trackpoint>
          <Trackpoint>
            <Time>2019-08-01T11:55:11.000Z</Time>
            <Position>
              <LatitudeDegrees>40.75518940575420856475830078125</LatitudeDegrees>
              <LongitudeDegrees>-4.0210277773439884185791015625</LongitudeDegrees>
            </Position>
            <AltitudeMeters>1449.5999755859375</AltitudeMeters>
            <DistanceMeters>NAN</DistanceMeters>
          </Trackpoint>
          <Trackpoint>
            <Time>2019-08-01T11:55:12.000Z</Time>
            <Position>
              <LatitudeDegrees>40.75521237216889858245849609375</LatitudeDegrees>
              <LongitudeDegrees>-4.0210468880832195281982421875</LongitudeDegrees>
            </Position>
            <AltitudeMeters>1449.800048828125</AltitudeMeters>
            <DistanceMeters>NAN</DistanceMeters>
          </Trackpoint>
          <Trackpoint>
            <Time>2019-08-01T11:55:13.000Z</Time>
            <Position>
              <LatitudeDegrees>40.75523500330746173858642578125</LatitudeDegrees>
              <LongitudeDegrees>-4.021063148975372314453125</LongitudeDegrees>
            </Position>
            <AltitudeMeters>1450</AltitudeMeters>
            <DistanceMeters>NAN</DistanceMeters>
          </Trackpoint>
          <Trackpoint>
            <Time>2019-08-01T11:55:14.000Z</Time>
            <Position>
              <LatitudeDegrees>40.75526031665503978729248046875</LatitudeDegrees>
              <LongitudeDegrees>-4.02107530273497104644775390625</LongitudeDegrees>
            </Position>
            <AltitudeMeters>1450.4000244140625</AltitudeMeters>
            <DistanceMeters>NAN</DistanceMeters>
          </Trackpoint>
          <Trackpoint>
            <Time>2019-08-01T11:55:16.000Z</Time>
            <Position>
              <LatitudeDegrees>40.7553095184266567230224609375</LatitudeDegrees>
              <LongitudeDegrees>-4.02109600603580474853515625</LongitudeDegrees>
            </Position>
            <AltitudeMeters>1450.800048828125</AltitudeMeters>
            <DistanceMeters>NAN</DistanceMeters>
          </Trackpoint>
          <Trackpoint>
            <Time>2019-08-01T11:55:17.000Z</Time>
            <Position>
              <LatitudeDegrees>40.75533474795520305633544921875</LatitudeDegrees>
              <LongitudeDegrees>-4.02111134491860866546630859375</LongitudeDegrees>
            </Position>
            <AltitudeMeters>1451</AltitudeMeters>
            <DistanceMeters>NAN</DistanceMeters>
          </Trackpoint>
          <Trackpoint>
            <Time>2019-08-01T11:55:18.000Z</Time>
            <Position>
              <LatitudeDegrees>40.75536140240728855133056640625</LatitudeDegrees>
              <LongitudeDegrees>-4.0211208164691925048828125</LongitudeDegrees>
            </Position>
            <AltitudeMeters>1451.199951171875</AltitudeMeters>
            <DistanceMeters>NAN</DistanceMeters>
          </Trackpoint>
          <Trackpoint>
            <Time>2019-08-01T11:55:19.000Z</Time>
            <Position>
              <LatitudeDegrees>40.7553894817829132080078125</LatitudeDegrees>
              <LongitudeDegrees>-4.02112551033496856689453125</LongitudeDegrees>
            </Position>
            <AltitudeMeters>1451.4000244140625</AltitudeMeters>
            <DistanceMeters>NAN</DistanceMeters>
          </Trackpoint>
          <Trackpoint>
            <Time>2019-08-01T11:55:20.000Z</Time>
            <Position>
              <LatitudeDegrees>40.7554164715111255645751953125</LatitudeDegrees>
              <LongitudeDegrees>-4.021127857267856597900390625</LongitudeDegrees>
            </Position>
            <AltitudeMeters>1451.800048828125</AltitudeMeters>
            <DistanceMeters>NAN</DistanceMeters>
          </Trackpoint>
          <Trackpoint>
            <Time>2019-08-01T11:55:21.000Z</Time>
            <Position>
              <LatitudeDegrees>40.75544186867773532867431640625</LatitudeDegrees>
              <LongitudeDegrees>-4.02112458832561969757080078125</LongitudeDegrees>
            </Position>
            <AltitudeMeters>1452.199951171875</AltitudeMeters>
            <DistanceMeters>NAN</DistanceMeters>
          </Trackpoint>
          <Trackpoint>
            <Time>2019-08-01T11:55:22.000Z</Time>
            <Position>
              <LatitudeDegrees>40.75546802021563053131103515625</LatitudeDegrees>
              <LongitudeDegrees>-4.02111838571727275848388671875</LongitudeDegrees>
            </Position>
            <AltitudeMeters>1452.5999755859375</AltitudeMeters>
            <DistanceMeters>NAN</DistanceMeters>
          </Trackpoint>
          <Trackpoint>
            <Time>2019-08-01T11:55:23.000Z</Time>
            <Position>
              <LatitudeDegrees>40.75549417175352573394775390625</LatitudeDegrees>
              <LongitudeDegrees>-4.0211085788905620574951171875</LongitudeDegrees>
            </Position>
            <AltitudeMeters>1453.199951171875</AltitudeMeters>
            <DistanceMeters>NAN</DistanceMeters>
          </Trackpoint>
          <Trackpoint>
            <Time>2019-08-01T11:55:24.000Z</Time>
            <Position>
              <LatitudeDegrees>40.7555204071104526519775390625</LatitudeDegrees>
              <LongitudeDegrees>-4.02109324000775814056396484375</LongitudeDegrees>
            </Position>
            <AltitudeMeters>1453.4000244140625</AltitudeMeters>
            <DistanceMeters>NAN</DistanceMeters>
          </Trackpoint>
          <Trackpoint>
            <Time>2019-08-01T11:55:25.000Z</Time>
            <Position>
              <LatitudeDegrees>40.75554613955318927764892578125</LatitudeDegrees>
              <LongitudeDegrees>-4.0210760571062564849853515625</LongitudeDegrees>
            </Position>
            <AltitudeMeters>1453.800048828125</AltitudeMeters>
            <DistanceMeters>NAN</DistanceMeters>
          </Trackpoint>
          <Trackpoint>
            <Time>2019-08-01T11:55:26.000Z</Time>
            <Position>
              <LatitudeDegrees>40.75557027943432331085205078125</LatitudeDegrees>
              <LongitudeDegrees>-4.021058119833469390869140625</LongitudeDegrees>
            </Position>
            <AltitudeMeters>1454</AltitudeMeters>
            <DistanceMeters>NAN</DistanceMeters>
          </Trackpoint>
          <Trackpoint>
            <Time>2019-08-01T11:55:27.000Z</Time>
            <Position>
              <LatitudeDegrees>40.75559400022029876708984375</LatitudeDegrees>
              <LongitudeDegrees>-4.021038003265857696533203125</LongitudeDegrees>
            </Position>
            <AltitudeMeters>1454.199951171875</AltitudeMeters>
            <DistanceMeters>NAN</DistanceMeters>
          </Trackpoint>
          <Trackpoint>
            <Time>2019-08-01T11:55:28.000Z</Time>
            <Position>
              <LatitudeDegrees>40.75559400022029876708984375</LatitudeDegrees>
              <LongitudeDegrees>-4.021038003265857696533203125</LongitudeDegrees>
            </Position>
            <AltitudeMeters>1454.4000244140625</AltitudeMeters>
            <DistanceMeters>NAN</DistanceMeters>
          </Trackpoint>
          <Trackpoint>
            <Time>2019-08-01T11:55:29.000Z</Time>
            <Position>
              <LatitudeDegrees>40.75564093887805938720703125</LatitudeDegrees>
              <LongitudeDegrees>-4.0209955908358097076416015625</LongitudeDegrees>
            </Position>
            <AltitudeMeters>1454.5999755859375</AltitudeMeters>
            <DistanceMeters>NAN</DistanceMeters>
          </Trackpoint>
          <Trackpoint>
            <Time>2019-08-01T11:55:30.000Z</Time>
            <Position>
              <LatitudeDegrees>40.75566432438790798187255859375</LatitudeDegrees>
              <LongitudeDegrees>-4.0209731273353099822998046875</LongitudeDegrees>
            </Position>
            <AltitudeMeters>1454.800048828125</AltitudeMeters>
            <DistanceMeters>NAN</DistanceMeters>
          </Trackpoint>
          <Trackpoint>
            <Time>2019-08-01T11:55:32.000Z</Time>
            <Position>
              <LatitudeDegrees>40.75570941902697086334228515625</LatitudeDegrees>
              <LongitudeDegrees>-4.02092694304883480072021484375</LongitudeDegrees>
            </Position>
            <AltitudeMeters>1455.199951171875</AltitudeMeters>
            <DistanceMeters>NAN</DistanceMeters>
          </Trackpoint>
          <Trackpoint>
            <Time>2019-08-01T11:55:33.000Z</Time>
            <Position>
              <LatitudeDegrees>40.75573146343231201171875</LatitudeDegrees>
              <LongitudeDegrees>-4.02090397663414478302001953125</LongitudeDegrees>
            </Position>
            <AltitudeMeters>1455.5999755859375</AltitudeMeters>
            <DistanceMeters>NAN</DistanceMeters>
          </Trackpoint>
          <Trackpoint>
            <Time>2019-08-01T11:55:34.000Z</Time>
            <Position>
              <LatitudeDegrees>40.75575350783765316009521484375</LatitudeDegrees>
              <LongitudeDegrees>-4.020881764590740203857421875</LongitudeDegrees>
            </Position>
            <AltitudeMeters>1455.800048828125</AltitudeMeters>
            <DistanceMeters>NAN</DistanceMeters>
          </Trackpoint>
          <Trackpoint>
            <Time>2019-08-01T11:55:35.000Z</Time>
            <Position>
              <LatitudeDegrees>40.75577463023364543914794921875</LatitudeDegrees>
              <LongitudeDegrees>-4.02085821144282817840576171875</LongitudeDegrees>
            </Position>
            <AltitudeMeters>1456</AltitudeMeters>
            <DistanceMeters>NAN</DistanceMeters>
          </Trackpoint>
          <Trackpoint>
            <Time>2019-08-01T11:55:36.000Z</Time>
            <Position>
              <LatitudeDegrees>40.75579516589641571044921875</LatitudeDegrees>
              <LongitudeDegrees>-4.02083474211394786834716796875</LongitudeDegrees>
            </Position>
            <AltitudeMeters>1456.199951171875</AltitudeMeters>
            <DistanceMeters>NAN</DistanceMeters>
          </Trackpoint>
          <Trackpoint>
            <Time>2019-08-01T11:55:37.000Z</Time>
            <Position>
              <LatitudeDegrees>40.75579516589641571044921875</LatitudeDegrees>
              <LongitudeDegrees>-4.02083474211394786834716796875</LongitudeDegrees>
            </Position>
            <AltitudeMeters>1456.4000244140625</AltitudeMeters>
            <DistanceMeters>NAN</DistanceMeters>
          </Trackpoint>
          <Trackpoint>
            <Time>2019-08-01T11:55:38.000Z</Time>
            <Position>
              <LatitudeDegrees>40.755836404860019683837890625</LatitudeDegrees>
              <LongitudeDegrees>-4.02078512124717235565185546875</LongitudeDegrees>
            </Position>
            <AltitudeMeters>1456.5999755859375</AltitudeMeters>
            <DistanceMeters>NAN</DistanceMeters>
          </Trackpoint>
          <Trackpoint>
            <Time>2019-08-01T11:55:39.000Z</Time>
            <Position>
              <LatitudeDegrees>40.7558583654463291168212890625</LatitudeDegrees>
              <LongitudeDegrees>-4.0207605622708797454833984375</LongitudeDegrees>
            </Position>
            <AltitudeMeters>1456.800048828125</AltitudeMeters>
            <DistanceMeters>NAN</DistanceMeters>
          </Trackpoint>
          <Trackpoint>
            <Time>2019-08-01T11:55:40.000Z</Time>
            <Position>
              <LatitudeDegrees>40.75587965548038482666015625</LatitudeDegrees>
              <LongitudeDegrees>-4.020736254751682281494140625</LongitudeDegrees>
            </Position>
            <AltitudeMeters>1457</AltitudeMeters>
            <DistanceMeters>NAN</DistanceMeters>
          </Trackpoint>
          <Trackpoint>
            <Time>2019-08-01T11:55:41.000Z</Time>
            <Position>
              <LatitudeDegrees>40.755900777876377105712890625</LatitudeDegrees>
              <LongitudeDegrees>-4.02071320451796054840087890625</LongitudeDegrees>
            </Position>
            <AltitudeMeters>1457.4000244140625</AltitudeMeters>
            <DistanceMeters>NAN</DistanceMeters>
          </Trackpoint>
          <Trackpoint>
            <Time>2019-08-01T11:55:42.000Z</Time>
            <Position>
              <LatitudeDegrees>40.75592114590108394622802734375</LatitudeDegrees>
              <LongitudeDegrees>-4.0206911601126194000244140625</LongitudeDegrees>
            </Position>
            <AltitudeMeters>1457.5999755859375</AltitudeMeters>
            <DistanceMeters>NAN</DistanceMeters>
          </Trackpoint>
          <Trackpoint>
            <Time>2019-08-01T11:55:43.000Z</Time>
            <Position>
              <LatitudeDegrees>40.7559411786496639251708984375</LatitudeDegrees>
              <LongitudeDegrees>-4.02066794224083423614501953125</LongitudeDegrees>
            </Position>
            <AltitudeMeters>1457.800048828125</AltitudeMeters>
            <DistanceMeters>NAN</DistanceMeters>
          </Trackpoint>
          <Trackpoint>
            <Time>2019-08-01T11:55:44.000Z</Time>
            <Position>
              <LatitudeDegrees>40.75596087612211704254150390625</LatitudeDegrees>
              <LongitudeDegrees>-4.02064380235970020294189453125</LongitudeDegrees>
            </Position>
            <AltitudeMeters>1458.199951171875</AltitudeMeters>
            <DistanceMeters>NAN</DistanceMeters>
          </Trackpoint>
          <Trackpoint>
            <Time>2019-08-01T11:55:45.000Z</Time>
            <Position>
              <LatitudeDegrees>40.7559797354042530059814453125</LatitudeDegrees>
              <LongitudeDegrees>-4.02061798609793186187744140625</LongitudeDegrees>
            </Position>
            <AltitudeMeters>1458.4000244140625</AltitudeMeters>
            <DistanceMeters>NAN</DistanceMeters>
          </Trackpoint>
          <Trackpoint>
            <Time>2019-08-01T11:55:46.000Z</Time>
            <Position>
              <LatitudeDegrees>40.7559985108673572540283203125</LatitudeDegrees>
              <LongitudeDegrees>-4.02059300802648067474365234375</LongitudeDegrees>
            </Position>
            <AltitudeMeters>1458.5999755859375</AltitudeMeters>
            <DistanceMeters>NAN</DistanceMeters>
          </Trackpoint>
          <Trackpoint>
            <Time>2019-08-01T11:55:47.000Z</Time>
            <Position>
              <LatitudeDegrees>40.7560192979872226715087890625</LatitudeDegrees>
              <LongitudeDegrees>-4.02056367136538028717041015625</LongitudeDegrees>
            </Position>
            <AltitudeMeters>1458.800048828125</AltitudeMeters>
            <DistanceMeters>NAN</DistanceMeters>
          </Trackpoint>
          <Trackpoint>
            <Time>2019-08-01T11:55:48.000Z</Time>
            <Position>
              <LatitudeDegrees>40.756038911640644073486328125</LatitudeDegrees>
              <LongitudeDegrees>-4.02053584344685077667236328125</LongitudeDegrees>
            </Position>
            <AltitudeMeters>1459.199951171875</AltitudeMeters>
            <DistanceMeters>NAN</DistanceMeters>
          </Trackpoint>
          <Trackpoint>
            <Time>2019-08-01T11:55:49.000Z</Time>
            <Position>
              <LatitudeDegrees>40.75605810619890689849853515625</LatitudeDegrees>
              <LongitudeDegrees>-4.02050784789025783538818359375</LongitudeDegrees>
            </Position>
            <AltitudeMeters>1459.4000244140625</AltitudeMeters>
            <DistanceMeters>NAN</DistanceMeters>
          </Trackpoint>
          <Trackpoint>
            <Time>2019-08-01T11:55:50.000Z</Time>
            <Position>
              <LatitudeDegrees>40.7560766302049160003662109375</LatitudeDegrees>
              <LongitudeDegrees>-4.02047851122915744781494140625</LongitudeDegrees>
            </Position>
            <AltitudeMeters>1459.800048828125</AltitudeMeters>
            <DistanceMeters>NAN</DistanceMeters>
          </Trackpoint>
          <Trackpoint>
            <Time>2019-08-01T11:55:51.000Z</Time>
            <Position>
              <LatitudeDegrees>40.7560766302049160003662109375</LatitudeDegrees>
              <LongitudeDegrees>-4.02047851122915744781494140625</LongitudeDegrees>
            </Position>
            <AltitudeMeters>1460.4000244140625</AltitudeMeters>
            <DistanceMeters>NAN</DistanceMeters>
          </Trackpoint>
          <Trackpoint>
            <Time>2019-08-01T11:55:52.000Z</Time>
            <Position>
              <LatitudeDegrees>40.7561118341982364654541015625</LatitudeDegrees>
              <LongitudeDegrees>-4.02042067609727382659912109375</LongitudeDegrees>
            </Position>
            <AltitudeMeters>1460.5999755859375</AltitudeMeters>
            <DistanceMeters>NAN</DistanceMeters>
          </Trackpoint>
          <Trackpoint>
            <Time>2019-08-01T11:55:53.000Z</Time>
            <Position>
              <LatitudeDegrees>40.75612851418554782867431640625</LatitudeDegrees>
              <LongitudeDegrees>-4.0203927643597126007080078125</LongitudeDegrees>
            </Position>
            <AltitudeMeters>1460.800048828125</AltitudeMeters>
            <DistanceMeters>NAN</DistanceMeters>
          </Trackpoint>
          <Trackpoint>
            <Time>2019-08-01T11:55:54.000Z</Time>
            <Position>
              <LatitudeDegrees>40.75614376924932003021240234375</LatitudeDegrees>
              <LongitudeDegrees>-4.02036401443183422088623046875</LongitudeDegrees>
            </Position>
            <AltitudeMeters>1461</AltitudeMeters>
            <DistanceMeters>NAN</DistanceMeters>
          </Trackpoint>
          <Trackpoint>
            <Time>2019-08-01T11:55:55.000Z</Time>
            <Position>
              <LatitudeDegrees>40.75614376924932003021240234375</LatitudeDegrees>
              <LongitudeDegrees>-4.02036401443183422088623046875</LongitudeDegrees>
            </Position>
            <AltitudeMeters>1461.199951171875</AltitudeMeters>
            <DistanceMeters>NAN</DistanceMeters>
          </Trackpoint>
          <Trackpoint>
            <Time>2019-08-01T11:55:56.000Z</Time>
            <Position>
              <LatitudeDegrees>40.756174363195896148681640625</LatitudeDegrees>
              <LongitudeDegrees>-4.0203022398054599761962890625</LongitudeDegrees>
            </Position>
            <AltitudeMeters>1461.5999755859375</AltitudeMeters>
            <DistanceMeters>NAN</DistanceMeters>
          </Trackpoint>
          <Trackpoint>
            <Time>2019-08-01T11:55:57.000Z</Time>
            <Position>
              <LatitudeDegrees>40.756190121173858642578125</LatitudeDegrees>
              <LongitudeDegrees>-4.02027181349694728851318359375</LongitudeDegrees>
            </Position>
            <AltitudeMeters>1461.800048828125</AltitudeMeters>
            <DistanceMeters>NAN</DistanceMeters>
          </Trackpoint>
          <Trackpoint>
            <Time>2019-08-01T11:55:58.000Z</Time>
            <Position>
              <LatitudeDegrees>40.75620613060891628265380859375</LatitudeDegrees>
              <LongitudeDegrees>-4.02024063281714916229248046875</LongitudeDegrees>
            </Position>
            <AltitudeMeters>1462</AltitudeMeters>
            <DistanceMeters>NAN</DistanceMeters>
          </Trackpoint>
          <Trackpoint>
            <Time>2019-08-01T11:55:59.000Z</Time>
            <Position>
              <LatitudeDegrees>40.756221972405910491943359375</LatitudeDegrees>
              <LongitudeDegrees>-4.0202093683183193206787109375</LongitudeDegrees>
            </Position>
            <AltitudeMeters>1462.199951171875</AltitudeMeters>
            <DistanceMeters>NAN</DistanceMeters>
          </Trackpoint>
          <Trackpoint>
            <Time>2019-08-01T11:56:00.000Z</Time>
            <Position>
              <LatitudeDegrees>40.75623798184096813201904296875</LatitudeDegrees>
              <LongitudeDegrees>-4.02017776854336261749267578125</LongitudeDegrees>
            </Position>
            <AltitudeMeters>1462.5999755859375</AltitudeMeters>
            <DistanceMeters>NAN</DistanceMeters>
          </Trackpoint>
          <Trackpoint>
            <Time>2019-08-01T11:56:01.000Z</Time>
            <Position>
              <LatitudeDegrees>40.75625340454280376434326171875</LatitudeDegrees>
              <LongitudeDegrees>-4.02014608494937419891357421875</LongitudeDegrees>
            </Position>
            <AltitudeMeters>1462.800048828125</AltitudeMeters>
            <DistanceMeters>NAN</DistanceMeters>
          </Trackpoint>
          <Trackpoint>
            <Time>2019-08-01T11:56:02.000Z</Time>
            <Position>
              <LatitudeDegrees>40.75626933015882968902587890625</LatitudeDegrees>
              <LongitudeDegrees>-4.02011490426957607269287109375</LongitudeDegrees>
            </Position>
            <AltitudeMeters>1463</AltitudeMeters>
            <DistanceMeters>NAN</DistanceMeters>
          </Trackpoint>
          <Trackpoint>
            <Time>2019-08-01T11:56:03.000Z</Time>
            <Position>
              <LatitudeDegrees>40.756284333765506744384765625</LatitudeDegrees>
              <LongitudeDegrees>-4.0200829692184925079345703125</LongitudeDegrees>
            </Position>
            <AltitudeMeters>1463.4000244140625</AltitudeMeters>
            <DistanceMeters>NAN</DistanceMeters>
          </Trackpoint>
          <Trackpoint>
            <Time>2019-08-01T11:56:04.000Z</Time>
            <Position>
              <LatitudeDegrees>40.75629816390573978424072265625</LatitudeDegrees>
              <LongitudeDegrees>-4.02005086652934551239013671875</LongitudeDegrees>
            </Position>
            <AltitudeMeters>1463.800048828125</AltitudeMeters>
            <DistanceMeters>NAN</DistanceMeters>
          </Trackpoint>
          <Trackpoint>
            <Time>2019-08-01T11:56:05.000Z</Time>
            <Position>
              <LatitudeDegrees>40.75631157495081424713134765625</LatitudeDegrees>
              <LongitudeDegrees>-4.0200185962021350860595703125</LongitudeDegrees>
            </Position>
            <AltitudeMeters>1464</AltitudeMeters>
            <DistanceMeters>NAN</DistanceMeters>
          </Trackpoint>
          <Trackpoint>
            <Time>2019-08-01T11:56:06.000Z</Time>
            <Position>
              <LatitudeDegrees>40.75632498599588871002197265625</LatitudeDegrees>
              <LongitudeDegrees>-4.01998498477041721343994140625</LongitudeDegrees>
            </Position>
            <AltitudeMeters>1464.4000244140625</AltitudeMeters>
            <DistanceMeters>NAN</DistanceMeters>
          </Trackpoint>
          <Trackpoint>
            <Time>2019-08-01T11:56:07.000Z</Time>
            <Position>
              <LatitudeDegrees>40.75633755885064601898193359375</LatitudeDegrees>
              <LongitudeDegrees>-4.0199508704245090484619140625</LongitudeDegrees>
            </Position>
            <AltitudeMeters>1464.800048828125</AltitudeMeters>
            <DistanceMeters>NAN</DistanceMeters>
          </Trackpoint>
          <Trackpoint>
            <Time>2019-08-01T11:56:08.000Z</Time>
            <Position>
              <LatitudeDegrees>40.75634979642927646636962890625</LatitudeDegrees>
              <LongitudeDegrees>-4.01991759426891803741455078125</LongitudeDegrees>
            </Position>
            <AltitudeMeters>1465</AltitudeMeters>
            <DistanceMeters>NAN</DistanceMeters>
          </Trackpoint>
          <Trackpoint>
            <Time>2019-08-01T11:56:09.000Z</Time>
            <Position>
              <LatitudeDegrees>40.756361782550811767578125</LatitudeDegrees>
              <LongitudeDegrees>-4.019883982837200164794921875</LongitudeDegrees>
            </Position>
            <AltitudeMeters>1465.199951171875</AltitudeMeters>
            <DistanceMeters>NAN</DistanceMeters>
          </Trackpoint>
          <Trackpoint>
            <Time>2019-08-01T11:56:10.000Z</Time>
            <Position>
              <LatitudeDegrees>40.75637360103428363800048828125</LatitudeDegrees>
              <LongitudeDegrees>-4.01984970085322856903076171875</LongitudeDegrees>
            </Position>
            <AltitudeMeters>1465.4000244140625</AltitudeMeters>
            <DistanceMeters>NAN</DistanceMeters>
          </Trackpoint>
          <Trackpoint>
            <Time>2019-08-01T11:56:11.000Z</Time>
            <Position>
              <LatitudeDegrees>40.75638500042259693145751953125</LatitudeDegrees>
              <LongitudeDegrees>-4.0198157541453838348388671875</LongitudeDegrees>
            </Position>
            <AltitudeMeters>1465.800048828125</AltitudeMeters>
            <DistanceMeters>NAN</DistanceMeters>
          </Trackpoint>
          <Trackpoint>
            <Time>2019-08-01T11:56:12.000Z</Time>
            <Position>
              <LatitudeDegrees>40.75638500042259693145751953125</LatitudeDegrees>
              <LongitudeDegrees>-4.0198157541453838348388671875</LongitudeDegrees>
            </Position>
            <AltitudeMeters>1466</AltitudeMeters>
            <DistanceMeters>NAN</DistanceMeters>
          </Trackpoint>
          <Trackpoint>
            <Time>2019-08-01T11:56:13.000Z</Time>
            <Position>
              <LatitudeDegrees>40.75640310533344745635986328125</LatitudeDegrees>
              <LongitudeDegrees>-4.019748531281948089599609375</LongitudeDegrees>
            </Position>
            <AltitudeMeters>1466.199951171875</AltitudeMeters>
            <DistanceMeters>NAN</DistanceMeters>
          </Trackpoint>
          <Trackpoint>
            <Time>2019-08-01T11:56:14.000Z</Time>
            <Position>
              <LatitudeDegrees>40.75640310533344745635986328125</LatitudeDegrees>
              <LongitudeDegrees>-4.019748531281948089599609375</LongitudeDegrees>
            </Position>
            <AltitudeMeters>1466.4000244140625</AltitudeMeters>
            <DistanceMeters>NAN</DistanceMeters>
          </Trackpoint>
          <Trackpoint>
            <Time>2019-08-01T11:56:15.000Z</Time>
            <Position>
              <LatitudeDegrees>40.75642288662493228912353515625</LatitudeDegrees>
              <LongitudeDegrees>-4.0196799673140048980712890625</LongitudeDegrees>
            </Position>
            <AltitudeMeters>1466.800048828125</AltitudeMeters>
            <DistanceMeters>NAN</DistanceMeters>
          </Trackpoint>
          <Trackpoint>
            <Time>2019-08-01T11:56:16.000Z</Time>
            <Position>
              <LatitudeDegrees>40.75642288662493228912353515625</LatitudeDegrees>
              <LongitudeDegrees>-4.0196799673140048980712890625</LongitudeDegrees>
            </Position>
            <AltitudeMeters>1467</AltitudeMeters>
            <DistanceMeters>NAN</DistanceMeters>
          </Trackpoint>
          <Trackpoint>
            <Time>2019-08-01T11:56:17.000Z</Time>
            <Position>
              <LatitudeDegrees>40.756445266306400299072265625</LatitudeDegrees>
              <LongitudeDegrees>-4.01961098425090312957763671875</LongitudeDegrees>
            </Position>
            <AltitudeMeters>1467</AltitudeMeters>
            <DistanceMeters>NAN</DistanceMeters>
          </Trackpoint>
          <Trackpoint>
            <Time>2019-08-01T11:56:18.000Z</Time>
            <Position>
              <LatitudeDegrees>40.75645364820957183837890625</LatitudeDegrees>
              <LongitudeDegrees>-4.01957661844789981842041015625</LongitudeDegrees>
            </Position>
            <AltitudeMeters>1467.4000244140625</AltitudeMeters>
            <DistanceMeters>NAN</DistanceMeters>
          </Trackpoint>
          <Trackpoint>
            <Time>2019-08-01T11:56:19.000Z</Time>
            <Position>
              <LatitudeDegrees>40.7564605213701725006103515625</LatitudeDegrees>
              <LongitudeDegrees>-4.0195431746542453765869140625</LongitudeDegrees>
            </Position>
            <AltitudeMeters>1468</AltitudeMeters>
            <DistanceMeters>NAN</DistanceMeters>
          </Trackpoint>
          <Trackpoint>
            <Time>2019-08-01T11:56:20.000Z</Time>
            <Position>
              <LatitudeDegrees>40.7564605213701725006103515625</LatitudeDegrees>
              <LongitudeDegrees>-4.0195431746542453765869140625</LongitudeDegrees>
            </Position>
            <AltitudeMeters>1468.199951171875</AltitudeMeters>
            <DistanceMeters>NAN</DistanceMeters>
          </Trackpoint>
          <Trackpoint>
            <Time>2019-08-01T11:56:21.000Z</Time>
            <Position>
              <LatitudeDegrees>40.7564752735197544097900390625</LatitudeDegrees>
              <LongitudeDegrees>-4.0194791369140148162841796875</LongitudeDegrees>
            </Position>
            <AltitudeMeters>1468.4000244140625</AltitudeMeters>
            <DistanceMeters>NAN</DistanceMeters>
          </Trackpoint>
          <Trackpoint>
            <Time>2019-08-01T11:56:22.000Z</Time>
            <Position>
              <LatitudeDegrees>40.7564809732139110565185546875</LatitudeDegrees>
              <LongitudeDegrees>-4.01944644749164581298828125</LongitudeDegrees>
            </Position>
            <AltitudeMeters>1468.4000244140625</AltitudeMeters>
            <DistanceMeters>NAN</DistanceMeters>
          </Trackpoint>
          <Trackpoint>
            <Time>2019-08-01T11:56:23.000Z</Time>
            <Position>
              <LatitudeDegrees>40.7564866729080677032470703125</LatitudeDegrees>
              <LongitudeDegrees>-4.01941417716443538665771484375</LongitudeDegrees>
            </Position>
            <AltitudeMeters>1468.5999755859375</AltitudeMeters>
            <DistanceMeters>NAN</DistanceMeters>
          </Trackpoint>
          <Trackpoint>
            <Time>2019-08-01T11:56:24.000Z</Time>
            <Position>
              <LatitudeDegrees>40.756509639322757720947265625</LatitudeDegrees>
              <LongitudeDegrees>-4.01937880553305149078369140625</LongitudeDegrees>
            </Position>
            <AltitudeMeters>1469</AltitudeMeters>
            <DistanceMeters>NAN</DistanceMeters>
          </Trackpoint>
          <Trackpoint>
            <Time>2019-08-01T11:56:25.000Z</Time>
            <Position>
              <LatitudeDegrees>40.75652078725397586822509765625</LatitudeDegrees>
              <LongitudeDegrees>-4.019345529377460479736328125</LongitudeDegrees>
            </Position>
            <AltitudeMeters>1469.199951171875</AltitudeMeters>
            <DistanceMeters>NAN</DistanceMeters>
          </Trackpoint>
          <Trackpoint>
            <Time>2019-08-01T11:56:26.000Z</Time>
            <Position>
              <LatitudeDegrees>40.75652078725397586822509765625</LatitudeDegrees>
              <LongitudeDegrees>-4.019345529377460479736328125</LongitudeDegrees>
            </Position>
            <AltitudeMeters>1469.4000244140625</AltitudeMeters>
            <DistanceMeters>NAN</DistanceMeters>
          </Trackpoint>
          <Trackpoint>
            <Time>2019-08-01T11:56:27.000Z</Time>
            <Position>
              <LatitudeDegrees>40.7565399818122386932373046875</LatitudeDegrees>
              <LongitudeDegrees>-4.01927906088531017303466796875</LongitudeDegrees>
            </Position>
            <AltitudeMeters>1469.5999755859375</AltitudeMeters>
            <DistanceMeters>NAN</DistanceMeters>
          </Trackpoint>
          <Trackpoint>
            <Time>2019-08-01T11:56:28.000Z</Time>
            <Position>
              <LatitudeDegrees>40.75654895044863224029541015625</LatitudeDegrees>
              <LongitudeDegrees>-4.019246958196163177490234375</LongitudeDegrees>
            </Position>
            <AltitudeMeters>1470</AltitudeMeters>
            <DistanceMeters>NAN</DistanceMeters>
          </Trackpoint>
          <Trackpoint>
            <Time>2019-08-01T11:56:29.000Z</Time>
            <Position>
              <LatitudeDegrees>40.7565577514469623565673828125</LatitudeDegrees>
              <LongitudeDegrees>-4.01921502314507961273193359375</LongitudeDegrees>
            </Position>
            <AltitudeMeters>1470.4000244140625</AltitudeMeters>
            <DistanceMeters>NAN</DistanceMeters>
          </Trackpoint>
          <Trackpoint>
            <Time>2019-08-01T11:56:30.000Z</Time>
            <Position>
              <LatitudeDegrees>40.7565641216933727264404296875</LatitudeDegrees>
              <LongitudeDegrees>-4.0191820822656154632568359375</LongitudeDegrees>
            </Position>
            <AltitudeMeters>1470.5999755859375</AltitudeMeters>
            <DistanceMeters>NAN</DistanceMeters>
          </Trackpoint>
          <Trackpoint>
            <Time>2019-08-01T11:56:31.000Z</Time>
            <Position>
              <LatitudeDegrees>40.75657141394913196563720703125</LatitudeDegrees>
              <LongitudeDegrees>-4.0191492252051830291748046875</LongitudeDegrees>
            </Position>
            <AltitudeMeters>1471</AltitudeMeters>
            <DistanceMeters>NAN</DistanceMeters>
          </Trackpoint>
          <Trackpoint>
            <Time>2019-08-01T11:56:32.000Z</Time>
            <Position>
              <LatitudeDegrees>40.756577365100383758544921875</LatitudeDegrees>
              <LongitudeDegrees>-4.0191173739731311798095703125</LongitudeDegrees>
            </Position>
            <AltitudeMeters>1471.4000244140625</AltitudeMeters>
            <DistanceMeters>NAN</DistanceMeters>
          </Trackpoint>
          <Trackpoint>
            <Time>2019-08-01T11:56:33.000Z</Time>
            <Position>
              <LatitudeDegrees>40.75658398680388927459716796875</LatitudeDegrees>
              <LongitudeDegrees>-4.01908594183623790740966796875</LongitudeDegrees>
            </Position>
            <AltitudeMeters>1471.800048828125</AltitudeMeters>
            <DistanceMeters>NAN</DistanceMeters>
          </Trackpoint>
          <Trackpoint>
            <Time>2019-08-01T11:56:34.000Z</Time>
            <Position>
              <LatitudeDegrees>40.75659044086933135986328125</LatitudeDegrees>
              <LongitudeDegrees>-4.019053839147090911865234375</LongitudeDegrees>
            </Position>
            <AltitudeMeters>1472.199951171875</AltitudeMeters>
            <DistanceMeters>NAN</DistanceMeters>
          </Trackpoint>
          <Trackpoint>
            <Time>2019-08-01T11:56:35.000Z</Time>
            <Position>
              <LatitudeDegrees>40.75659454800188541412353515625</LatitudeDegrees>
              <LongitudeDegrees>-4.019021652638912200927734375</LongitudeDegrees>
            </Position>
            <AltitudeMeters>1472.5999755859375</AltitudeMeters>
            <DistanceMeters>NAN</DistanceMeters>
          </Trackpoint>
          <Trackpoint>
            <Time>2019-08-01T11:56:36.000Z</Time>
            <Position>
              <LatitudeDegrees>40.75660192407667636871337890625</LatitudeDegrees>
              <LongitudeDegrees>-4.01898988522589206695556640625</LongitudeDegrees>
            </Position>
            <AltitudeMeters>1472.800048828125</AltitudeMeters>
            <DistanceMeters>NAN</DistanceMeters>
          </Trackpoint>
          <Trackpoint>
            <Time>2019-08-01T11:56:37.000Z</Time>
            <Position>
              <LatitudeDegrees>40.75660779140889644622802734375</LatitudeDegrees>
              <LongitudeDegrees>-4.01895828545093536376953125</LongitudeDegrees>
            </Position>
            <AltitudeMeters>1473</AltitudeMeters>
            <DistanceMeters>NAN</DistanceMeters>
          </Trackpoint>
          <Trackpoint>
            <Time>2019-08-01T11:56:38.000Z</Time>
            <Position>
              <LatitudeDegrees>40.7566124014556407928466796875</LatitudeDegrees>
              <LongitudeDegrees>-4.01892651803791522979736328125</LongitudeDegrees>
            </Position>
            <AltitudeMeters>1473.199951171875</AltitudeMeters>
            <DistanceMeters>NAN</DistanceMeters>
          </Trackpoint>
          <Trackpoint>
            <Time>2019-08-01T11:56:39.000Z</Time>
            <Position>
              <LatitudeDegrees>40.75661751441657543182373046875</LatitudeDegrees>
              <LongitudeDegrees>-4.01889433152973651885986328125</LongitudeDegrees>
            </Position>
            <AltitudeMeters>1473.5999755859375</AltitudeMeters>
            <DistanceMeters>NAN</DistanceMeters>
          </Trackpoint>
          <Trackpoint>
            <Time>2019-08-01T11:56:40.000Z</Time>
            <Position>
              <LatitudeDegrees>40.756620950996875762939453125</LatitudeDegrees>
              <LongitudeDegrees>-4.01886231265962123870849609375</LongitudeDegrees>
            </Position>
            <AltitudeMeters>1473.5999755859375</AltitudeMeters>
            <DistanceMeters>NAN</DistanceMeters>
          </Trackpoint>
          <Trackpoint>
            <Time>2019-08-01T11:56:41.000Z</Time>
            <Position>
              <LatitudeDegrees>40.756620950996875762939453125</LatitudeDegrees>
              <LongitudeDegrees>-4.01886231265962123870849609375</LongitudeDegrees>
            </Position>
            <AltitudeMeters>1474</AltitudeMeters>
            <DistanceMeters>NAN</DistanceMeters>
          </Trackpoint>
          <Trackpoint>
            <Time>2019-08-01T11:56:42.000Z</Time>
            <Position>
              <LatitudeDegrees>40.75664903037250041961669921875</LatitudeDegrees>
              <LongitudeDegrees>-4.01879492215812206268310546875</LongitudeDegrees>
            </Position>
            <AltitudeMeters>1474.199951171875</AltitudeMeters>
            <DistanceMeters>NAN</DistanceMeters>
          </Trackpoint>
          <Trackpoint>
            <Time>2019-08-01T11:56:43.000Z</Time>
            <Position>
              <LatitudeDegrees>40.75666747055947780609130859375</LatitudeDegrees>
              <LongitudeDegrees>-4.0187599696218967437744140625</LongitudeDegrees>
            </Position>
            <AltitudeMeters>1474.4000244140625</AltitudeMeters>
            <DistanceMeters>NAN</DistanceMeters>
          </Trackpoint>
          <Trackpoint>
            <Time>2019-08-01T11:56:44.000Z</Time>
            <Position>
              <LatitudeDegrees>40.75666747055947780609130859375</LatitudeDegrees>
              <LongitudeDegrees>-4.0187599696218967437744140625</LongitudeDegrees>
            </Position>
            <AltitudeMeters>1474.5999755859375</AltitudeMeters>
            <DistanceMeters>NAN</DistanceMeters>
          </Trackpoint>
          <Trackpoint>
            <Time>2019-08-01T11:56:45.000Z</Time>
            <Position>
              <LatitudeDegrees>40.7566928677260875701904296875</LatitudeDegrees>
              <LongitudeDegrees>-4.01869115419685840606689453125</LongitudeDegrees>
            </Position>
            <AltitudeMeters>1474.5999755859375</AltitudeMeters>
            <DistanceMeters>NAN</DistanceMeters>
          </Trackpoint>
          <Trackpoint>
            <Time>2019-08-01T11:56:46.000Z</Time>
            <Position>
              <LatitudeDegrees>40.7567049376666545867919921875</LatitudeDegrees>
              <LongitudeDegrees>-4.018656872212886810302734375</LongitudeDegrees>
            </Position>
            <AltitudeMeters>1474.800048828125</AltitudeMeters>
            <DistanceMeters>NAN</DistanceMeters>
          </Trackpoint>
          <Trackpoint>
            <Time>2019-08-01T11:56:47.000Z</Time>
            <Position>
              <LatitudeDegrees>40.75671516358852386474609375</LatitudeDegrees>
              <LongitudeDegrees>-4.01862275786697864532470703125</LongitudeDegrees>
            </Position>
            <AltitudeMeters>1475.4000244140625</AltitudeMeters>
            <DistanceMeters>NAN</DistanceMeters>
          </Trackpoint>
          <Trackpoint>
            <Time>2019-08-01T11:56:48.000Z</Time>
            <Position>
              <LatitudeDegrees>40.75671516358852386474609375</LatitudeDegrees>
              <LongitudeDegrees>-4.01862275786697864532470703125</LongitudeDegrees>
            </Position>
            <AltitudeMeters>1475.800048828125</AltitudeMeters>
            <DistanceMeters>NAN</DistanceMeters>
          </Trackpoint>
          <Trackpoint>
            <Time>2019-08-01T11:56:49.000Z</Time>
            <Position>
              <LatitudeDegrees>40.75673117302358150482177734375</LatitudeDegrees>
              <LongitudeDegrees>-4.0185566246509552001953125</LongitudeDegrees>
            </Position>
            <AltitudeMeters>1476</AltitudeMeters>
            <DistanceMeters>NAN</DistanceMeters>
          </Trackpoint>
          <Trackpoint>
            <Time>2019-08-01T11:56:50.000Z</Time>
            <Position>
              <LatitudeDegrees>40.756738968193531036376953125</LatitudeDegrees>
              <LongitudeDegrees>-4.01852301321923732757568359375</LongitudeDegrees>
            </Position>
            <AltitudeMeters>1476.4000244140625</AltitudeMeters>
            <DistanceMeters>NAN</DistanceMeters>
          </Trackpoint>
          <Trackpoint>
            <Time>2019-08-01T11:56:51.000Z</Time>
            <Position>
              <LatitudeDegrees>40.756747014820575714111328125</LatitudeDegrees>
              <LongitudeDegrees>-4.01849015615880489349365234375</LongitudeDegrees>
            </Position>
            <AltitudeMeters>1476.800048828125</AltitudeMeters>
            <DistanceMeters>NAN</DistanceMeters>
          </Trackpoint>
          <Trackpoint>
            <Time>2019-08-01T11:56:52.000Z</Time>
            <Position>
              <LatitudeDegrees>40.75675380416214466094970703125</LatitudeDegrees>
              <LongitudeDegrees>-4.01845746673643589019775390625</LongitudeDegrees>
            </Position>
            <AltitudeMeters>1477</AltitudeMeters>
            <DistanceMeters>NAN</DistanceMeters>
          </Trackpoint>
          <Trackpoint>
            <Time>2019-08-01T11:56:53.000Z</Time>
            <Position>
              <LatitudeDegrees>40.75676067732274532318115234375</LatitudeDegrees>
              <LongitudeDegrees>-4.01842528022825717926025390625</LongitudeDegrees>
            </Position>
            <AltitudeMeters>1477.199951171875</AltitudeMeters>
            <DistanceMeters>NAN</DistanceMeters>
          </Trackpoint>
          <Trackpoint>
            <Time>2019-08-01T11:56:54.000Z</Time>
            <Position>
              <LatitudeDegrees>40.75676880776882171630859375</LatitudeDegrees>
              <LongitudeDegrees>-4.01839225552976131439208984375</LongitudeDegrees>
            </Position>
            <AltitudeMeters>1477.4000244140625</AltitudeMeters>
            <DistanceMeters>NAN</DistanceMeters>
          </Trackpoint>
          <Trackpoint>
            <Time>2019-08-01T11:56:55.000Z</Time>
            <Position>
              <LatitudeDegrees>40.75677341781556606292724609375</LatitudeDegrees>
              <LongitudeDegrees>-4.0183603204786777496337890625</LongitudeDegrees>
            </Position>
            <AltitudeMeters>1477.800048828125</AltitudeMeters>
            <DistanceMeters>NAN</DistanceMeters>
          </Trackpoint>
          <Trackpoint>
            <Time>2019-08-01T11:56:56.000Z</Time>
            <Position>
              <LatitudeDegrees>40.756778530776500701904296875</LatitudeDegrees>
              <LongitudeDegrees>-4.0183284692466259002685546875</LongitudeDegrees>
            </Position>
            <AltitudeMeters>1478</AltitudeMeters>
            <DistanceMeters>NAN</DistanceMeters>
          </Trackpoint>
          <Trackpoint>
            <Time>2019-08-01T11:56:57.000Z</Time>
            <Position>
              <LatitudeDegrees>40.7567847333848476409912109375</LatitudeDegrees>
              <LongitudeDegrees>-4.01829670183360576629638671875</LongitudeDegrees>
            </Position>
            <AltitudeMeters>1478.199951171875</AltitudeMeters>
            <DistanceMeters>NAN</DistanceMeters>
          </Trackpoint>
          <Trackpoint>
            <Time>2019-08-01T11:56:58.000Z</Time>
            <Position>
              <LatitudeDegrees>40.75679336674511432647705078125</LatitudeDegrees>
              <LongitudeDegrees>-4.0182644315063953399658203125</LongitudeDegrees>
            </Position>
            <AltitudeMeters>1478.5999755859375</AltitudeMeters>
            <DistanceMeters>NAN</DistanceMeters>
          </Trackpoint>
          <Trackpoint>
            <Time>2019-08-01T11:56:59.000Z</Time>
            <Position>
              <LatitudeDegrees>40.75680241920053958892822265625</LatitudeDegrees>
              <LongitudeDegrees>-4.0182319097220897674560546875</LongitudeDegrees>
            </Position>
            <AltitudeMeters>1479</AltitudeMeters>
            <DistanceMeters>NAN</DistanceMeters>
          </Trackpoint>
          <Trackpoint>
            <Time>2019-08-01T11:57:00.000Z</Time>
            <Position>
              <LatitudeDegrees>40.75681197457015514373779296875</LatitudeDegrees>
              <LongitudeDegrees>-4.01819980703294277191162109375</LongitudeDegrees>
            </Position>
            <AltitudeMeters>1479.199951171875</AltitudeMeters>
            <DistanceMeters>NAN</DistanceMeters>
          </Trackpoint>
          <Trackpoint>
            <Time>2019-08-01T11:57:01.000Z</Time>
            <Position>
              <LatitudeDegrees>40.7568253017961978912353515625</LatitudeDegrees>
              <LongitudeDegrees>-4.01816745288670063018798828125</LongitudeDegrees>
            </Position>
            <AltitudeMeters>1479.5999755859375</AltitudeMeters>
            <DistanceMeters>NAN</DistanceMeters>
          </Trackpoint>
          <Trackpoint>
            <Time>2019-08-01T11:57:02.000Z</Time>
            <Position>
              <LatitudeDegrees>40.75683452188968658447265625</LatitudeDegrees>
              <LongitudeDegrees>-4.018135853111743927001953125</LongitudeDegrees>
            </Position>
            <AltitudeMeters>1479.800048828125</AltitudeMeters>
            <DistanceMeters>NAN</DistanceMeters>
          </Trackpoint>
          <Trackpoint>
            <Time>2019-08-01T11:57:03.000Z</Time>
            <Position>
              <LatitudeDegrees>40.7568564824759960174560546875</LatitudeDegrees>
              <LongitudeDegrees>-4.018101654946804046630859375</LongitudeDegrees>
            </Position>
            <AltitudeMeters>1480</AltitudeMeters>
            <DistanceMeters>NAN</DistanceMeters>
          </Trackpoint>
          <Trackpoint>
            <Time>2019-08-01T11:57:04.000Z</Time>
            <Position>
              <LatitudeDegrees>40.75687282718718051910400390625</LatitudeDegrees>
              <LongitudeDegrees>-4.018068127334117889404296875</LongitudeDegrees>
            </Position>
            <AltitudeMeters>1480.4000244140625</AltitudeMeters>
            <DistanceMeters>NAN</DistanceMeters>
          </Trackpoint>
          <Trackpoint>
            <Time>2019-08-01T11:57:05.000Z</Time>
            <Position>
              <LatitudeDegrees>40.7568873278796672821044921875</LatitudeDegrees>
              <LongitudeDegrees>-4.0180354379117488861083984375</LongitudeDegrees>
            </Position>
            <AltitudeMeters>1480.5999755859375</AltitudeMeters>
            <DistanceMeters>NAN</DistanceMeters>
          </Trackpoint>
          <Trackpoint>
            <Time>2019-08-01T11:57:06.000Z</Time>
            <Position>
              <LatitudeDegrees>40.75690090656280517578125</LatitudeDegrees>
              <LongitudeDegrees>-4.01800266467034816741943359375</LongitudeDegrees>
            </Position>
            <AltitudeMeters>1481</AltitudeMeters>
            <DistanceMeters>NAN</DistanceMeters>
          </Trackpoint>
          <Trackpoint>
            <Time>2019-08-01T11:57:07.000Z</Time>
            <Position>
              <LatitudeDegrees>40.7569164969027042388916015625</LatitudeDegrees>
              <LongitudeDegrees>-4.01796863414347171783447265625</LongitudeDegrees>
            </Position>
            <AltitudeMeters>1481</AltitudeMeters>
            <DistanceMeters>NAN</DistanceMeters>
          </Trackpoint>
          <Trackpoint>
            <Time>2019-08-01T11:57:08.000Z</Time>
            <Position>
              <LatitudeDegrees>40.75693066231906414031982421875</LatitudeDegrees>
              <LongitudeDegrees>-4.01793502271175384521484375</LongitudeDegrees>
            </Position>
            <AltitudeMeters>1481.199951171875</AltitudeMeters>
            <DistanceMeters>NAN</DistanceMeters>
          </Trackpoint>
          <Trackpoint>
            <Time>2019-08-01T11:57:09.000Z</Time>
            <Position>
              <LatitudeDegrees>40.7569424808025360107421875</LatitudeDegrees>
              <LongitudeDegrees>-4.01790141128003597259521484375</LongitudeDegrees>
            </Position>
            <AltitudeMeters>1481.4000244140625</AltitudeMeters>
            <DistanceMeters>NAN</DistanceMeters>
          </Trackpoint>
          <Trackpoint>
            <Time>2019-08-01T11:57:10.000Z</Time>
            <Position>
              <LatitudeDegrees>40.75695647858083248138427734375</LatitudeDegrees>
              <LongitudeDegrees>-4.01786771602928638458251953125</LongitudeDegrees>
            </Position>
            <AltitudeMeters>1481.800048828125</AltitudeMeters>
            <DistanceMeters>NAN</DistanceMeters>
          </Trackpoint>
          <Trackpoint>
            <Time>2019-08-01T11:57:11.000Z</Time>
            <Position>
              <LatitudeDegrees>40.7569666206836700439453125</LatitudeDegrees>
              <LongitudeDegrees>-4.0178342722356319427490234375</LongitudeDegrees>
            </Position>
            <AltitudeMeters>1482.199951171875</AltitudeMeters>
            <DistanceMeters>NAN</DistanceMeters>
          </Trackpoint>
          <Trackpoint>
            <Time>2019-08-01T11:57:12.000Z</Time>
            <Position>
              <LatitudeDegrees>40.75697558932006359100341796875</LatitudeDegrees>
              <LongitudeDegrees>-4.017801918089389801025390625</LongitudeDegrees>
            </Position>
            <AltitudeMeters>1482.4000244140625</AltitudeMeters>
            <DistanceMeters>NAN</DistanceMeters>
          </Trackpoint>
          <Trackpoint>
            <Time>2019-08-01T11:57:13.000Z</Time>
            <Position>
              <LatitudeDegrees>40.756983719766139984130859375</LatitudeDegrees>
              <LongitudeDegrees>-4.01776864193379878997802734375</LongitudeDegrees>
            </Position>
            <AltitudeMeters>1482.5999755859375</AltitudeMeters>
            <DistanceMeters>NAN</DistanceMeters>
          </Trackpoint>
          <Trackpoint>
            <Time>2019-08-01T11:57:14.000Z</Time>
            <Position>
              <LatitudeDegrees>40.75699319131672382354736328125</LatitudeDegrees>
              <LongitudeDegrees>-4.01773427613079547882080078125</LongitudeDegrees>
            </Position>
            <AltitudeMeters>1482.800048828125</AltitudeMeters>
            <DistanceMeters>NAN</DistanceMeters>
          </Trackpoint>
          <Trackpoint>
            <Time>2019-08-01T11:57:15.000Z</Time>
            <Position>
              <LatitudeDegrees>40.75700140558183193206787109375</LatitudeDegrees>
              <LongitudeDegrees>-4.01769957505166530609130859375</LongitudeDegrees>
            </Position>
            <AltitudeMeters>1483.199951171875</AltitudeMeters>
            <DistanceMeters>NAN</DistanceMeters>
          </Trackpoint>
          <Trackpoint>
            <Time>2019-08-01T11:57:16.000Z</Time>
            <Position>
              <LatitudeDegrees>40.7570113800466060638427734375</LatitudeDegrees>
              <LongitudeDegrees>-4.01766520924866199493408203125</LongitudeDegrees>
            </Position>
            <AltitudeMeters>1483.5999755859375</AltitudeMeters>
            <DistanceMeters>NAN</DistanceMeters>
          </Trackpoint>
          <Trackpoint>
            <Time>2019-08-01T11:57:17.000Z</Time>
            <Position>
              <LatitudeDegrees>40.75701917521655559539794921875</LatitudeDegrees>
              <LongitudeDegrees>-4.01763084344565868377685546875</LongitudeDegrees>
            </Position>
            <AltitudeMeters>1483.800048828125</AltitudeMeters>
            <DistanceMeters>NAN</DistanceMeters>
          </Trackpoint>
          <Trackpoint>
            <Time>2019-08-01T11:57:18.000Z</Time>
            <Position>
              <LatitudeDegrees>40.75702822767198085784912109375</LatitudeDegrees>
              <LongitudeDegrees>-4.0175968967378139495849609375</LongitudeDegrees>
            </Position>
            <AltitudeMeters>1484</AltitudeMeters>
            <DistanceMeters>NAN</DistanceMeters>
          </Trackpoint>
          <Trackpoint>
            <Time>2019-08-01T11:57:19.000Z</Time>
            <Position>
              <LatitudeDegrees>40.75704901479184627532958984375</LatitudeDegrees>
              <LongitudeDegrees>-4.01756144128739833831787109375</LongitudeDegrees>
            </Position>
            <AltitudeMeters>1484.4000244140625</AltitudeMeters>
            <DistanceMeters>NAN</DistanceMeters>
          </Trackpoint>
          <Trackpoint>
            <Time>2019-08-01T11:57:20.000Z</Time>
            <Position>
              <LatitudeDegrees>40.7570653595030307769775390625</LatitudeDegrees>
              <LongitudeDegrees>-4.0175258181989192962646484375</LongitudeDegrees>
            </Position>
            <AltitudeMeters>1484.4000244140625</AltitudeMeters>
            <DistanceMeters>NAN</DistanceMeters>
          </Trackpoint>
          <Trackpoint>
            <Time>2019-08-01T11:57:21.000Z</Time>
            <Position>
              <LatitudeDegrees>40.75707851909101009368896484375</LatitudeDegrees>
              <LongitudeDegrees>-4.01749086566269397735595703125</LongitudeDegrees>
            </Position>
            <AltitudeMeters>1484.800048828125</AltitudeMeters>
            <DistanceMeters>NAN</DistanceMeters>
          </Trackpoint>
          <Trackpoint>
            <Time>2019-08-01T11:57:22.000Z</Time>
            <Position>
              <LatitudeDegrees>40.75709042139351367950439453125</LatitudeDegrees>
              <LongitudeDegrees>-4.0174580924212932586669921875</LongitudeDegrees>
            </Position>
            <AltitudeMeters>1485</AltitudeMeters>
            <DistanceMeters>NAN</DistanceMeters>
          </Trackpoint>
          <Trackpoint>
            <Time>2019-08-01T11:57:23.000Z</Time>
            <Position>
              <LatitudeDegrees>40.757101736962795257568359375</LatitudeDegrees>
              <LongitudeDegrees>-4.01742649264633655548095703125</LongitudeDegrees>
            </Position>
            <AltitudeMeters>1485.199951171875</AltitudeMeters>
            <DistanceMeters>NAN</DistanceMeters>
          </Trackpoint>
          <Trackpoint>
            <Time>2019-08-01T11:57:24.000Z</Time>
            <Position>
              <LatitudeDegrees>40.757101736962795257568359375</LatitudeDegrees>
              <LongitudeDegrees>-4.01742649264633655548095703125</LongitudeDegrees>
            </Position>
            <AltitudeMeters>1485.4000244140625</AltitudeMeters>
            <DistanceMeters>NAN</DistanceMeters>
          </Trackpoint>
          <Trackpoint>
            <Time>2019-08-01T11:57:25.000Z</Time>
            <Position>
              <LatitudeDegrees>40.7571186684072017669677734375</LatitudeDegrees>
              <LongitudeDegrees>-4.01736237108707427978515625</LongitudeDegrees>
            </Position>
            <AltitudeMeters>1485.800048828125</AltitudeMeters>
            <DistanceMeters>NAN</DistanceMeters>
          </Trackpoint>
          <Trackpoint>
            <Time>2019-08-01T11:57:26.000Z</Time>
            <Position>
              <LatitudeDegrees>40.75713501311838626861572265625</LatitudeDegrees>
              <LongitudeDegrees>-4.01732725091278553009033203125</LongitudeDegrees>
            </Position>
            <AltitudeMeters>1486.199951171875</AltitudeMeters>
            <DistanceMeters>NAN</DistanceMeters>
          </Trackpoint>
          <Trackpoint>
            <Time>2019-08-01T11:57:27.000Z</Time>
            <Position>
              <LatitudeDegrees>40.75714507140219211578369140625</LatitudeDegrees>
              <LongitudeDegrees>-4.017292968928813934326171875</LongitudeDegrees>
            </Position>
            <AltitudeMeters>1486.4000244140625</AltitudeMeters>
            <DistanceMeters>NAN</DistanceMeters>
          </Trackpoint>
          <Trackpoint>
            <Time>2019-08-01T11:57:28.000Z</Time>
            <Position>
              <LatitudeDegrees>40.757154040038585662841796875</LatitudeDegrees>
              <LongitudeDegrees>-4.0172582678496837615966796875</LongitudeDegrees>
            </Position>
            <AltitudeMeters>1486.5999755859375</AltitudeMeters>
            <DistanceMeters>NAN</DistanceMeters>
          </Trackpoint>
          <Trackpoint>
            <Time>2019-08-01T11:57:29.000Z</Time>
            <Position>
              <LatitudeDegrees>40.7571646012365818023681640625</LatitudeDegrees>
              <LongitudeDegrees>-4.01722281239926815032958984375</LongitudeDegrees>
            </Position>
            <AltitudeMeters>1486.800048828125</AltitudeMeters>
            <DistanceMeters>NAN</DistanceMeters>
          </Trackpoint>
          <Trackpoint>
            <Time>2019-08-01T11:57:30.000Z</Time>
            <Position>
              <LatitudeDegrees>40.757172144949436187744140625</LatitudeDegrees>
              <LongitudeDegrees>-4.01718668639659881591796875</LongitudeDegrees>
            </Position>
            <AltitudeMeters>1487.199951171875</AltitudeMeters>
            <DistanceMeters>NAN</DistanceMeters>
          </Trackpoint>
          <Trackpoint>
            <Time>2019-08-01T11:57:31.000Z</Time>
            <Position>
              <LatitudeDegrees>40.7571785151958465576171875</LatitudeDegrees>
              <LongitudeDegrees>-4.01715039275586605072021484375</LongitudeDegrees>
            </Position>
            <AltitudeMeters>1487.4000244140625</AltitudeMeters>
            <DistanceMeters>NAN</DistanceMeters>
          </Trackpoint>
          <Trackpoint>
            <Time>2019-08-01T11:57:32.000Z</Time>
            <Position>
              <LatitudeDegrees>40.7571840472519397735595703125</LatitudeDegrees>
              <LongitudeDegrees>-4.01711426675319671630859375</LongitudeDegrees>
            </Position>
            <AltitudeMeters>1487.800048828125</AltitudeMeters>
            <DistanceMeters>NAN</DistanceMeters>
          </Trackpoint>
          <Trackpoint>
            <Time>2019-08-01T11:57:33.000Z</Time>
            <Position>
              <LatitudeDegrees>40.7571887411177158355712890625</LatitudeDegrees>
              <LongitudeDegrees>-4.01707864366471767425537109375</LongitudeDegrees>
            </Position>
            <AltitudeMeters>1488</AltitudeMeters>
            <DistanceMeters>NAN</DistanceMeters>
          </Trackpoint>
          <Trackpoint>
            <Time>2019-08-01T11:57:34.000Z</Time>
            <Position>
              <LatitudeDegrees>40.7571887411177158355712890625</LatitudeDegrees>
              <LongitudeDegrees>-4.01707864366471767425537109375</LongitudeDegrees>
            </Position>
            <AltitudeMeters>1488.199951171875</AltitudeMeters>
            <DistanceMeters>NAN</DistanceMeters>
          </Trackpoint>
          <Trackpoint>
            <Time>2019-08-01T11:57:35.000Z</Time>
            <Position>
              <LatitudeDegrees>40.7571954466402530670166015625</LatitudeDegrees>
              <LongitudeDegrees>-4.01700689457356929779052734375</LongitudeDegrees>
            </Position>
            <AltitudeMeters>1488.4000244140625</AltitudeMeters>
            <DistanceMeters>NAN</DistanceMeters>
          </Trackpoint>
          <Trackpoint>
            <Time>2019-08-01T11:57:36.000Z</Time>
            <Position>
              <LatitudeDegrees>40.7571981288492679595947265625</LatitudeDegrees>
              <LongitudeDegrees>-4.01697135530412197113037109375</LongitudeDegrees>
            </Position>
            <AltitudeMeters>1488.5999755859375</AltitudeMeters>
            <DistanceMeters>NAN</DistanceMeters>
          </Trackpoint>
          <Trackpoint>
            <Time>2019-08-01T11:57:37.000Z</Time>
            <Position>
              <LatitudeDegrees>40.757199637591838836669921875</LatitudeDegrees>
              <LongitudeDegrees>-4.01693682186305522918701171875</LongitudeDegrees>
            </Position>
            <AltitudeMeters>1489</AltitudeMeters>
            <DistanceMeters>NAN</DistanceMeters>
          </Trackpoint>
          <Trackpoint>
            <Time>2019-08-01T11:57:38.000Z</Time>
            <Position>
              <LatitudeDegrees>40.75720156542956829071044921875</LatitudeDegrees>
              <LongitudeDegrees>-4.0169038809835910797119140625</LongitudeDegrees>
            </Position>
            <AltitudeMeters>1489.199951171875</AltitudeMeters>
            <DistanceMeters>NAN</DistanceMeters>
          </Trackpoint>
          <Trackpoint>
            <Time>2019-08-01T11:57:39.000Z</Time>
            <Position>
              <LatitudeDegrees>40.75720793567597866058349609375</LatitudeDegrees>
              <LongitudeDegrees>-4.01687085628509521484375</LongitudeDegrees>
            </Position>
            <AltitudeMeters>1489.5999755859375</AltitudeMeters>
            <DistanceMeters>NAN</DistanceMeters>
          </Trackpoint>
          <Trackpoint>
            <Time>2019-08-01T11:57:40.000Z</Time>
            <Position>
              <LatitudeDegrees>40.7572098635137081146240234375</LatitudeDegrees>
              <LongitudeDegrees>-4.0168373286724090576171875</LongitudeDegrees>
            </Position>
            <AltitudeMeters>1489.5999755859375</AltitudeMeters>
            <DistanceMeters>NAN</DistanceMeters>
          </Trackpoint>
          <Trackpoint>
            <Time>2019-08-01T11:57:41.000Z</Time>
            <Position>
              <LatitudeDegrees>40.757211036980152130126953125</LatitudeDegrees>
              <LongitudeDegrees>-4.0168024599552154541015625</LongitudeDegrees>
            </Position>
            <AltitudeMeters>1489.800048828125</AltitudeMeters>
            <DistanceMeters>NAN</DistanceMeters>
          </Trackpoint>
          <Trackpoint>
            <Time>2019-08-01T11:57:42.000Z</Time>
            <Position>
              <LatitudeDegrees>40.7572155632078647613525390625</LatitudeDegrees>
              <LongitudeDegrees>-4.01676700450479984283447265625</LongitudeDegrees>
            </Position>
            <AltitudeMeters>1490.4000244140625</AltitudeMeters>
            <DistanceMeters>NAN</DistanceMeters>
          </Trackpoint>
          <Trackpoint>
            <Time>2019-08-01T11:57:43.000Z</Time>
            <Position>
              <LatitudeDegrees>40.7572199217975139617919921875</LatitudeDegrees>
              <LongitudeDegrees>-4.016732387244701385498046875</LongitudeDegrees>
            </Position>
            <AltitudeMeters>1490.5999755859375</AltitudeMeters>
            <DistanceMeters>NAN</DistanceMeters>
          </Trackpoint>
          <Trackpoint>
            <Time>2019-08-01T11:57:44.000Z</Time>
            <Position>
              <LatitudeDegrees>40.75722319073975086212158203125</LatitudeDegrees>
              <LongitudeDegrees>-4.01669693179428577423095703125</LongitudeDegrees>
            </Position>
            <AltitudeMeters>1491</AltitudeMeters>
            <DistanceMeters>NAN</DistanceMeters>
          </Trackpoint>
          <Trackpoint>
            <Time>2019-08-01T11:57:45.000Z</Time>
            <Position>
              <LatitudeDegrees>40.7572410441935062408447265625</LatitudeDegrees>
              <LongitudeDegrees>-4.01665938086807727813720703125</LongitudeDegrees>
            </Position>
            <AltitudeMeters>1491.199951171875</AltitudeMeters>
            <DistanceMeters>NAN</DistanceMeters>
          </Trackpoint>
          <Trackpoint>
            <Time>2019-08-01T11:57:46.000Z</Time>
            <Position>
              <LatitudeDegrees>40.7572497613728046417236328125</LatitudeDegrees>
              <LongitudeDegrees>-4.016624428331851959228515625</LongitudeDegrees>
            </Position>
            <AltitudeMeters>1491.4000244140625</AltitudeMeters>
            <DistanceMeters>NAN</DistanceMeters>
          </Trackpoint>
          <Trackpoint>
            <Time>2019-08-01T11:57:47.000Z</Time>
            <Position>
              <LatitudeDegrees>40.757257305085659027099609375</LatitudeDegrees>
              <LongitudeDegrees>-4.01658997870981693267822265625</LongitudeDegrees>
            </Position>
            <AltitudeMeters>1491.5999755859375</AltitudeMeters>
            <DistanceMeters>NAN</DistanceMeters>
          </Trackpoint>
          <Trackpoint>
            <Time>2019-08-01T11:57:48.000Z</Time>
            <Position>
              <LatitudeDegrees>40.75726040638983249664306640625</LatitudeDegrees>
              <LongitudeDegrees>-4.01655494235455989837646484375</LongitudeDegrees>
            </Position>
            <AltitudeMeters>1492</AltitudeMeters>
            <DistanceMeters>NAN</DistanceMeters>
          </Trackpoint>
          <Trackpoint>
            <Time>2019-08-01T11:57:49.000Z</Time>
            <Position>
              <LatitudeDegrees>40.75726493261754512786865234375</LatitudeDegrees>
              <LongitudeDegrees>-4.01652057655155658721923828125</LongitudeDegrees>
            </Position>
            <AltitudeMeters>1492.199951171875</AltitudeMeters>
            <DistanceMeters>NAN</DistanceMeters>
          </Trackpoint>
          <Trackpoint>
            <Time>2019-08-01T11:57:50.000Z</Time>
            <Position>
              <LatitudeDegrees>40.75727733783423900604248046875</LatitudeDegrees>
              <LongitudeDegrees>-4.01648486964404582977294921875</LongitudeDegrees>
            </Position>
            <AltitudeMeters>1492.4000244140625</AltitudeMeters>
            <DistanceMeters>NAN</DistanceMeters>
          </Trackpoint>
          <Trackpoint>
            <Time>2019-08-01T11:57:51.000Z</Time>
            <Position>
              <LatitudeDegrees>40.75728571973741054534912109375</LatitudeDegrees>
              <LongitudeDegrees>-4.01644907891750335693359375</LongitudeDegrees>
            </Position>
            <AltitudeMeters>1492.5999755859375</AltitudeMeters>
            <DistanceMeters>NAN</DistanceMeters>
          </Trackpoint>
          <Trackpoint>
            <Time>2019-08-01T11:57:52.000Z</Time>
            <Position>
              <LatitudeDegrees>40.75728571973741054534912109375</LatitudeDegrees>
              <LongitudeDegrees>-4.01644907891750335693359375</LongitudeDegrees>
            </Position>
            <AltitudeMeters>1493</AltitudeMeters>
            <DistanceMeters>NAN</DistanceMeters>
          </Trackpoint>
          <Trackpoint>
            <Time>2019-08-01T11:57:53.000Z</Time>
            <Position>
              <LatitudeDegrees>40.7572983764111995697021484375</LatitudeDegrees>
              <LongitudeDegrees>-4.01637909002602100372314453125</LongitudeDegrees>
            </Position>
            <AltitudeMeters>1493.4000244140625</AltitudeMeters>
            <DistanceMeters>NAN</DistanceMeters>
          </Trackpoint>
          <Trackpoint>
            <Time>2019-08-01T11:57:54.000Z</Time>
            <Position>
              <LatitudeDegrees>40.7573070935904979705810546875</LatitudeDegrees>
              <LongitudeDegrees>-4.016346149146556854248046875</LongitudeDegrees>
            </Position>
            <AltitudeMeters>1493.4000244140625</AltitudeMeters>
            <DistanceMeters>NAN</DistanceMeters>
          </Trackpoint>
          <Trackpoint>
            <Time>2019-08-01T11:57:55.000Z</Time>
            <Position>
              <LatitudeDegrees>40.75731338001787662506103515625</LatitudeDegrees>
              <LongitudeDegrees>-4.01631237007677555084228515625</LongitudeDegrees>
            </Position>
            <AltitudeMeters>1493.5999755859375</AltitudeMeters>
            <DistanceMeters>NAN</DistanceMeters>
          </Trackpoint>
          <Trackpoint>
            <Time>2019-08-01T11:57:56.000Z</Time>
            <Position>
              <LatitudeDegrees>40.75731840915977954864501953125</LatitudeDegrees>
              <LongitudeDegrees>-4.01627766899764537811279296875</LongitudeDegrees>
            </Position>
            <AltitudeMeters>1493.800048828125</AltitudeMeters>
            <DistanceMeters>NAN</DistanceMeters>
          </Trackpoint>
          <Trackpoint>
            <Time>2019-08-01T11:57:57.000Z</Time>
            <Position>
              <LatitudeDegrees>40.7573238573968410491943359375</LatitudeDegrees>
              <LongitudeDegrees>-4.0162420459091663360595703125</LongitudeDegrees>
            </Position>
            <AltitudeMeters>1494.199951171875</AltitudeMeters>
            <DistanceMeters>NAN</DistanceMeters>
          </Trackpoint>
          <Trackpoint>
            <Time>2019-08-01T11:57:58.000Z</Time>
            <Position>
              <LatitudeDegrees>40.75732427649199962615966796875</LatitudeDegrees>
              <LongitudeDegrees>-4.01620742864906787872314453125</LongitudeDegrees>
            </Position>
            <AltitudeMeters>1494.4000244140625</AltitudeMeters>
            <DistanceMeters>NAN</DistanceMeters>
          </Trackpoint>
          <Trackpoint>
            <Time>2019-08-01T11:57:59.000Z</Time>
            <Position>
              <LatitudeDegrees>40.7573262043297290802001953125</LatitudeDegrees>
              <LongitudeDegrees>-4.01617222465574741363525390625</LongitudeDegrees>
            </Position>
            <AltitudeMeters>1494.5999755859375</AltitudeMeters>
            <DistanceMeters>NAN</DistanceMeters>
          </Trackpoint>
          <Trackpoint>
            <Time>2019-08-01T11:58:00.000Z</Time>
            <Position>
              <LatitudeDegrees>40.7573453150689601898193359375</LatitudeDegrees>
              <LongitudeDegrees>-4.0161354281008243560791015625</LongitudeDegrees>
            </Position>
            <AltitudeMeters>1494.800048828125</AltitudeMeters>
            <DistanceMeters>NAN</DistanceMeters>
          </Trackpoint>
          <Trackpoint>
            <Time>2019-08-01T11:58:01.000Z</Time>
            <Position>
              <LatitudeDegrees>40.75735679827630519866943359375</LatitudeDegrees>
              <LongitudeDegrees>-4.0161002241075038909912109375</LongitudeDegrees>
            </Position>
            <AltitudeMeters>1495</AltitudeMeters>
            <DistanceMeters>NAN</DistanceMeters>
          </Trackpoint>
          <Trackpoint>
            <Time>2019-08-01T11:58:02.000Z</Time>
            <Position>
              <LatitudeDegrees>40.7573647610843181610107421875</LatitudeDegrees>
              <LongitudeDegrees>-4.01606493629515171051025390625</LongitudeDegrees>
            </Position>
            <AltitudeMeters>1495.4000244140625</AltitudeMeters>
            <DistanceMeters>NAN</DistanceMeters>
          </Trackpoint>
          <Trackpoint>
            <Time>2019-08-01T11:58:03.000Z</Time>
            <Position>
              <LatitudeDegrees>40.7573721371591091156005859375</LatitudeDegrees>
              <LongitudeDegrees>-4.01602931320667266845703125</LongitudeDegrees>
            </Position>
            <AltitudeMeters>1495.5999755859375</AltitudeMeters>
            <DistanceMeters>NAN</DistanceMeters>
          </Trackpoint>
          <Trackpoint>
            <Time>2019-08-01T11:58:04.000Z</Time>
            <Position>
              <LatitudeDegrees>40.757381021976470947265625</LatitudeDegrees>
              <LongitudeDegrees>-4.0159942768514156341552734375</LongitudeDegrees>
            </Position>
            <AltitudeMeters>1495.800048828125</AltitudeMeters>
            <DistanceMeters>NAN</DistanceMeters>
          </Trackpoint>
          <Trackpoint>
            <Time>2019-08-01T11:58:05.000Z</Time>
            <Position>
              <LatitudeDegrees>40.75738864950835704803466796875</LatitudeDegrees>
              <LongitudeDegrees>-4.0159602463245391845703125</LongitudeDegrees>
            </Position>
            <AltitudeMeters>1496</AltitudeMeters>
            <DistanceMeters>NAN</DistanceMeters>
          </Trackpoint>
          <Trackpoint>
            <Time>2019-08-01T11:58:06.000Z</Time>
            <Position>
              <LatitudeDegrees>40.757402814924716949462890625</LatitudeDegrees>
              <LongitudeDegrees>-4.0159255452454090118408203125</LongitudeDegrees>
            </Position>
            <AltitudeMeters>1496.199951171875</AltitudeMeters>
            <DistanceMeters>NAN</DistanceMeters>
          </Trackpoint>
          <Trackpoint>
            <Time>2019-08-01T11:58:07.000Z</Time>
            <Position>
              <LatitudeDegrees>40.757418237626552581787109375</LatitudeDegrees>
              <LongitudeDegrees>-4.0158910118043422698974609375</LongitudeDegrees>
            </Position>
            <AltitudeMeters>1496.5999755859375</AltitudeMeters>
            <DistanceMeters>NAN</DistanceMeters>
          </Trackpoint>
          <Trackpoint>
            <Time>2019-08-01T11:58:08.000Z</Time>
            <Position>
              <LatitudeDegrees>40.75743156485259532928466796875</LatitudeDegrees>
              <LongitudeDegrees>-4.01585823856294155120849609375</LongitudeDegrees>
            </Position>
            <AltitudeMeters>1496.800048828125</AltitudeMeters>
            <DistanceMeters>NAN</DistanceMeters>
          </Trackpoint>
          <Trackpoint>
            <Time>2019-08-01T11:58:09.000Z</Time>
            <Position>
              <LatitudeDegrees>40.75744497589766979217529296875</LatitudeDegrees>
              <LongitudeDegrees>-4.0158261358737945556640625</LongitudeDegrees>
            </Position>
            <AltitudeMeters>1497.199951171875</AltitudeMeters>
            <DistanceMeters>NAN</DistanceMeters>
          </Trackpoint>
          <Trackpoint>
            <Time>2019-08-01T11:58:10.000Z</Time>
            <Position>
              <LatitudeDegrees>40.757456459105014801025390625</LatitudeDegrees>
              <LongitudeDegrees>-4.0157937817275524139404296875</LongitudeDegrees>
            </Position>
            <AltitudeMeters>1497.4000244140625</AltitudeMeters>
            <DistanceMeters>NAN</DistanceMeters>
          </Trackpoint>
          <Trackpoint>
            <Time>2019-08-01T11:58:11.000Z</Time>
            <Position>
              <LatitudeDegrees>40.75746894814074039459228515625</LatitudeDegrees>
              <LongitudeDegrees>-4.01576184667646884918212890625</LongitudeDegrees>
            </Position>
            <AltitudeMeters>1497.800048828125</AltitudeMeters>
            <DistanceMeters>NAN</DistanceMeters>
          </Trackpoint>
          <Trackpoint>
            <Time>2019-08-01T11:58:12.000Z</Time>
            <Position>
              <LatitudeDegrees>40.75748026371002197265625</LatitudeDegrees>
              <LongitudeDegrees>-4.01573049835860729217529296875</LongitudeDegrees>
            </Position>
            <AltitudeMeters>1498</AltitudeMeters>
            <DistanceMeters>NAN</DistanceMeters>
          </Trackpoint>
          <Trackpoint>
            <Time>2019-08-01T11:58:13.000Z</Time>
            <Position>
              <LatitudeDegrees>40.75749040581285953521728515625</LatitudeDegrees>
              <LongitudeDegrees>-4.01569948531687259674072265625</LongitudeDegrees>
            </Position>
            <AltitudeMeters>1498.199951171875</AltitudeMeters>
            <DistanceMeters>NAN</DistanceMeters>
          </Trackpoint>
          <Trackpoint>
            <Time>2019-08-01T11:58:14.000Z</Time>
            <Position>
              <LatitudeDegrees>40.75750264339148998260498046875</LatitudeDegrees>
              <LongitudeDegrees>-4.0156700648367404937744140625</LongitudeDegrees>
            </Position>
            <AltitudeMeters>1498.5999755859375</AltitudeMeters>
            <DistanceMeters>NAN</DistanceMeters>
          </Trackpoint>
          <Trackpoint>
            <Time>2019-08-01T11:58:15.000Z</Time>
            <Position>
              <LatitudeDegrees>40.7575199939310550689697265625</LatitudeDegrees>
              <LongitudeDegrees>-4.0156410634517669677734375</LongitudeDegrees>
            </Position>
            <AltitudeMeters>1498.5999755859375</AltitudeMeters>
            <DistanceMeters>NAN</DistanceMeters>
          </Trackpoint>
          <Trackpoint>
            <Time>2019-08-01T11:58:16.000Z</Time>
            <Position>
              <LatitudeDegrees>40.75753457844257354736328125</LatitudeDegrees>
              <LongitudeDegrees>-4.01561231352388858795166015625</LongitudeDegrees>
            </Position>
            <AltitudeMeters>1498.800048828125</AltitudeMeters>
            <DistanceMeters>NAN</DistanceMeters>
          </Trackpoint>
          <Trackpoint>
            <Time>2019-08-01T11:58:17.000Z</Time>
            <Position>
              <LatitudeDegrees>40.75754757039248943328857421875</LatitudeDegrees>
              <LongitudeDegrees>-4.01558381505310535430908203125</LongitudeDegrees>
            </Position>
            <AltitudeMeters>1499.199951171875</AltitudeMeters>
            <DistanceMeters>NAN</DistanceMeters>
          </Trackpoint>
          <Trackpoint>
            <Time>2019-08-01T11:58:18.000Z</Time>
            <Position>
              <LatitudeDegrees>40.75756014324724674224853515625</LatitudeDegrees>
              <LongitudeDegrees>-4.01555296964943408966064453125</LongitudeDegrees>
            </Position>
            <AltitudeMeters>1499.4000244140625</AltitudeMeters>
            <DistanceMeters>NAN</DistanceMeters>
          </Trackpoint>
          <Trackpoint>
            <Time>2019-08-01T11:58:19.000Z</Time>
            <Position>
              <LatitudeDegrees>40.75757221318781375885009765625</LatitudeDegrees>
              <LongitudeDegrees>-4.01552262715995311737060546875</LongitudeDegrees>
            </Position>
            <AltitudeMeters>1499.5999755859375</AltitudeMeters>
            <DistanceMeters>NAN</DistanceMeters>
          </Trackpoint>
          <Trackpoint>
            <Time>2019-08-01T11:58:20.000Z</Time>
            <Position>
              <LatitudeDegrees>40.75758579187095165252685546875</LatitudeDegrees>
              <LongitudeDegrees>-4.0154923684895038604736328125</LongitudeDegrees>
            </Position>
            <AltitudeMeters>1500</AltitudeMeters>
            <DistanceMeters>NAN</DistanceMeters>
          </Trackpoint>
          <Trackpoint>
            <Time>2019-08-01T11:58:21.000Z</Time>
            <Position>
              <LatitudeDegrees>40.75759903527796268463134765625</LatitudeDegrees>
              <LongitudeDegrees>-4.015463031828403472900390625</LongitudeDegrees>
            </Position>
            <AltitudeMeters>1500.199951171875</AltitudeMeters>
            <DistanceMeters>NAN</DistanceMeters>
          </Trackpoint>
          <Trackpoint>
            <Time>2019-08-01T11:58:22.000Z</Time>
            <Position>
              <LatitudeDegrees>40.75761076994240283966064453125</LatitudeDegrees>
              <LongitudeDegrees>-4.015433527529239654541015625</LongitudeDegrees>
            </Position>
            <AltitudeMeters>1500.5999755859375</AltitudeMeters>
            <DistanceMeters>NAN</DistanceMeters>
          </Trackpoint>
          <Trackpoint>
            <Time>2019-08-01T11:58:23.000Z</Time>
            <Position>
              <LatitudeDegrees>40.7576189003884792327880859375</LatitudeDegrees>
              <LongitudeDegrees>-4.01540326885879039764404296875</LongitudeDegrees>
            </Position>
            <AltitudeMeters>1500.800048828125</AltitudeMeters>
            <DistanceMeters>NAN</DistanceMeters>
          </Trackpoint>
          <Trackpoint>
            <Time>2019-08-01T11:58:24.000Z</Time>
            <Position>
              <LatitudeDegrees>40.757622756063938140869140625</LatitudeDegrees>
              <LongitudeDegrees>-4.01537275873124599456787109375</LongitudeDegrees>
            </Position>
            <AltitudeMeters>1500.800048828125</AltitudeMeters>
            <DistanceMeters>NAN</DistanceMeters>
          </Trackpoint>
          <Trackpoint>
            <Time>2019-08-01T11:58:25.000Z</Time>
            <Position>
              <LatitudeDegrees>40.75762367807328701019287109375</LatitudeDegrees>
              <LongitudeDegrees>-4.01534258387982845306396484375</LongitudeDegrees>
            </Position>
            <AltitudeMeters>1501</AltitudeMeters>
            <DistanceMeters>NAN</DistanceMeters>
          </Trackpoint>
          <Trackpoint>
            <Time>2019-08-01T11:58:26.000Z</Time>
            <Position>
              <LatitudeDegrees>40.75762870721518993377685546875</LatitudeDegrees>
              <LongitudeDegrees>-4.01531517505645751953125</LongitudeDegrees>
            </Position>
            <AltitudeMeters>1501.199951171875</AltitudeMeters>
            <DistanceMeters>NAN</DistanceMeters>
          </Trackpoint>
          <Trackpoint>
            <Time>2019-08-01T11:58:27.000Z</Time>
            <Position>
              <LatitudeDegrees>40.75763541273772716522216796875</LatitudeDegrees>
              <LongitudeDegrees>-4.01528692804276943206787109375</LongitudeDegrees>
            </Position>
            <AltitudeMeters>1501.199951171875</AltitudeMeters>
            <DistanceMeters>NAN</DistanceMeters>
          </Trackpoint>
          <Trackpoint>
            <Time>2019-08-01T11:58:28.000Z</Time>
            <Position>
              <LatitudeDegrees>40.7576470635831356048583984375</LatitudeDegrees>
              <LongitudeDegrees>-4.0152590163052082061767578125</LongitudeDegrees>
            </Position>
            <AltitudeMeters>1501.4000244140625</AltitudeMeters>
            <DistanceMeters>NAN</DistanceMeters>
          </Trackpoint>
          <Trackpoint>
            <Time>2019-08-01T11:58:29.000Z</Time>
            <Position>
              <LatitudeDegrees>40.757657624781131744384765625</LatitudeDegrees>
              <LongitudeDegrees>-4.015231691300868988037109375</LongitudeDegrees>
            </Position>
            <AltitudeMeters>1501.5999755859375</AltitudeMeters>
            <DistanceMeters>NAN</DistanceMeters>
          </Trackpoint>
          <Trackpoint>
            <Time>2019-08-01T11:58:30.000Z</Time>
            <Position>
              <LatitudeDegrees>40.75766575522720813751220703125</LatitudeDegrees>
              <LongitudeDegrees>-4.0152038633823394775390625</LongitudeDegrees>
            </Position>
            <AltitudeMeters>1501.800048828125</AltitudeMeters>
            <DistanceMeters>NAN</DistanceMeters>
          </Trackpoint>
          <Trackpoint>
            <Time>2019-08-01T11:58:31.000Z</Time>
            <Position>
              <LatitudeDegrees>40.7576769031584262847900390625</LatitudeDegrees>
              <LongitudeDegrees>-4.0151728503406047821044921875</LongitudeDegrees>
            </Position>
            <AltitudeMeters>1502</AltitudeMeters>
            <DistanceMeters>NAN</DistanceMeters>
          </Trackpoint>
          <Trackpoint>
            <Time>2019-08-01T11:58:32.000Z</Time>
            <Position>
              <LatitudeDegrees>40.7576852850615978240966796875</LatitudeDegrees>
              <LongitudeDegrees>-4.01514359749853610992431640625</LongitudeDegrees>
            </Position>
            <AltitudeMeters>1502.4000244140625</AltitudeMeters>
            <DistanceMeters>NAN</DistanceMeters>
          </Trackpoint>
          <Trackpoint>
            <Time>2019-08-01T11:58:33.000Z</Time>
            <Position>
              <LatitudeDegrees>40.7576852850615978240966796875</LatitudeDegrees>
              <LongitudeDegrees>-4.01514359749853610992431640625</LongitudeDegrees>
            </Position>
            <AltitudeMeters>1502.5999755859375</AltitudeMeters>
            <DistanceMeters>NAN</DistanceMeters>
          </Trackpoint>
          <Trackpoint>
            <Time>2019-08-01T11:58:34.000Z</Time>
            <Position>
              <LatitudeDegrees>40.757703892886638641357421875</LatitudeDegrees>
              <LongitudeDegrees>-4.0150863490998744964599609375</LongitudeDegrees>
            </Position>
            <AltitudeMeters>1502.800048828125</AltitudeMeters>
            <DistanceMeters>NAN</DistanceMeters>
          </Trackpoint>
          <Trackpoint>
            <Time>2019-08-01T11:58:35.000Z</Time>
            <Position>
              <LatitudeDegrees>40.75771202333271503448486328125</LatitudeDegrees>
              <LongitudeDegrees>-4.0150581859052181243896484375</LongitudeDegrees>
            </Position>
            <AltitudeMeters>1503</AltitudeMeters>
            <DistanceMeters>NAN</DistanceMeters>
          </Trackpoint>
          <Trackpoint>
            <Time>2019-08-01T11:58:36.000Z</Time>
            <Position>
              <LatitudeDegrees>40.75771872885525226593017578125</LatitudeDegrees>
              <LongitudeDegrees>-4.0150306932628154754638671875</LongitudeDegrees>
            </Position>
            <AltitudeMeters>1503.4000244140625</AltitudeMeters>
            <DistanceMeters>NAN</DistanceMeters>
          </Trackpoint>
          <Trackpoint>
            <Time>2019-08-01T11:58:37.000Z</Time>
            <Position>
              <LatitudeDegrees>40.75772761367261409759521484375</LatitudeDegrees>
              <LongitudeDegrees>-4.01500227861106395721435546875</LongitudeDegrees>
            </Position>
            <AltitudeMeters>1503.5999755859375</AltitudeMeters>
            <DistanceMeters>NAN</DistanceMeters>
          </Trackpoint>
          <Trackpoint>
            <Time>2019-08-01T11:58:38.000Z</Time>
            <Position>
              <LatitudeDegrees>40.75773934833705425262451171875</LatitudeDegrees>
              <LongitudeDegrees>-4.01497378014028072357177734375</LongitudeDegrees>
            </Position>
            <AltitudeMeters>1503.800048828125</AltitudeMeters>
            <DistanceMeters>NAN</DistanceMeters>
          </Trackpoint>
          <Trackpoint>
            <Time>2019-08-01T11:58:39.000Z</Time>
            <Position>
              <LatitudeDegrees>40.757753849029541015625</LatitudeDegrees>
              <LongitudeDegrees>-4.01494645513594150543212890625</LongitudeDegrees>
            </Position>
            <AltitudeMeters>1504.5999755859375</AltitudeMeters>
            <DistanceMeters>NAN</DistanceMeters>
          </Trackpoint>
          <Trackpoint>
            <Time>2019-08-01T11:58:40.000Z</Time>
            <Position>
              <LatitudeDegrees>40.757770948112010955810546875</LatitudeDegrees>
              <LongitudeDegrees>-4.014918543398380279541015625</LongitudeDegrees>
            </Position>
            <AltitudeMeters>1505</AltitudeMeters>
            <DistanceMeters>NAN</DistanceMeters>
          </Trackpoint>
          <Trackpoint>
            <Time>2019-08-01T11:58:41.000Z</Time>
            <Position>
              <LatitudeDegrees>40.7577875442802906036376953125</LatitudeDegrees>
              <LongitudeDegrees>-4.01488996110856533050537109375</LongitudeDegrees>
            </Position>
            <AltitudeMeters>1505.199951171875</AltitudeMeters>
            <DistanceMeters>NAN</DistanceMeters>
          </Trackpoint>
          <Trackpoint>
            <Time>2019-08-01T11:58:42.000Z</Time>
            <Position>
              <LatitudeDegrees>40.757810175418853759765625</LatitudeDegrees>
              <LongitudeDegrees>-4.01485894806683063507080078125</LongitudeDegrees>
            </Position>
            <AltitudeMeters>1505.5999755859375</AltitudeMeters>
            <DistanceMeters>NAN</DistanceMeters>
          </Trackpoint>
          <Trackpoint>
            <Time>2019-08-01T11:58:43.000Z</Time>
            <Position>
              <LatitudeDegrees>40.75782903470098972320556640625</LatitudeDegrees>
              <LongitudeDegrees>-4.0148301981389522552490234375</LongitudeDegrees>
            </Position>
            <AltitudeMeters>1505.800048828125</AltitudeMeters>
            <DistanceMeters>NAN</DistanceMeters>
          </Trackpoint>
          <Trackpoint>
            <Time>2019-08-01T11:58:44.000Z</Time>
            <Position>
              <LatitudeDegrees>40.75784630142152309417724609375</LatitudeDegrees>
              <LongitudeDegrees>-4.0148023702204227447509765625</LongitudeDegrees>
            </Position>
            <AltitudeMeters>1506</AltitudeMeters>
            <DistanceMeters>NAN</DistanceMeters>
          </Trackpoint>
          <Trackpoint>
            <Time>2019-08-01T11:58:45.000Z</Time>
            <Position>
              <LatitudeDegrees>40.75786608271300792694091796875</LatitudeDegrees>
              <LongitudeDegrees>-4.01477261446416378021240234375</LongitudeDegrees>
            </Position>
            <AltitudeMeters>1506.199951171875</AltitudeMeters>
            <DistanceMeters>NAN</DistanceMeters>
          </Trackpoint>
          <Trackpoint>
            <Time>2019-08-01T11:58:46.000Z</Time>
            <Position>
              <LatitudeDegrees>40.7578874565660953521728515625</LatitudeDegrees>
              <LongitudeDegrees>-4.01474227197468280792236328125</LongitudeDegrees>
            </Position>
            <AltitudeMeters>1506.4000244140625</AltitudeMeters>
            <DistanceMeters>NAN</DistanceMeters>
          </Trackpoint>
          <Trackpoint>
            <Time>2019-08-01T11:58:47.000Z</Time>
            <Position>
              <LatitudeDegrees>40.75790916569530963897705078125</LatitudeDegrees>
              <LongitudeDegrees>-4.0147141925990581512451171875</LongitudeDegrees>
            </Position>
            <AltitudeMeters>1506.5999755859375</AltitudeMeters>
            <DistanceMeters>NAN</DistanceMeters>
          </Trackpoint>
          <Trackpoint>
            <Time>2019-08-01T11:58:48.000Z</Time>
            <Position>
              <LatitudeDegrees>40.75792995281517505645751953125</LatitudeDegrees>
              <LongitudeDegrees>-4.01469097472727298736572265625</LongitudeDegrees>
            </Position>
            <AltitudeMeters>1506.800048828125</AltitudeMeters>
            <DistanceMeters>NAN</DistanceMeters>
          </Trackpoint>
          <Trackpoint>
            <Time>2019-08-01T11:58:49.000Z</Time>
            <Position>
              <LatitudeDegrees>40.7579484768211841583251953125</LatitudeDegrees>
              <LongitudeDegrees>-4.01466918177902698516845703125</LongitudeDegrees>
            </Position>
            <AltitudeMeters>1507</AltitudeMeters>
            <DistanceMeters>NAN</DistanceMeters>
          </Trackpoint>
          <Trackpoint>
            <Time>2019-08-01T11:58:50.000Z</Time>
            <Position>
              <LatitudeDegrees>40.757964737713336944580078125</LatitudeDegrees>
              <LongitudeDegrees>-4.01464797556400299072265625</LongitudeDegrees>
            </Position>
            <AltitudeMeters>1507.199951171875</AltitudeMeters>
            <DistanceMeters>NAN</DistanceMeters>
          </Trackpoint>
          <Trackpoint>
            <Time>2019-08-01T11:58:51.000Z</Time>
            <Position>
              <LatitudeDegrees>40.7579779811203479766845703125</LatitudeDegrees>
              <LongitudeDegrees>-4.0146298706531524658203125</LongitudeDegrees>
            </Position>
            <AltitudeMeters>1507.4000244140625</AltitudeMeters>
            <DistanceMeters>NAN</DistanceMeters>
          </Trackpoint>
          <Trackpoint>
            <Time>2019-08-01T11:58:52.000Z</Time>
            <Position>
              <LatitudeDegrees>40.75799298472702503204345703125</LatitudeDegrees>
              <LongitudeDegrees>-4.01460899971425533294677734375</LongitudeDegrees>
            </Position>
            <AltitudeMeters>1507.5999755859375</AltitudeMeters>
            <DistanceMeters>NAN</DistanceMeters>
          </Trackpoint>
          <Trackpoint>
            <Time>2019-08-01T11:58:53.000Z</Time>
            <Position>
              <LatitudeDegrees>40.758003629744052886962890625</LatitudeDegrees>
              <LongitudeDegrees>-4.01458494365215301513671875</LongitudeDegrees>
            </Position>
            <AltitudeMeters>1507.800048828125</AltitudeMeters>
            <DistanceMeters>NAN</DistanceMeters>
          </Trackpoint>
          <Trackpoint>
            <Time>2019-08-01T11:58:54.000Z</Time>
            <Position>
              <LatitudeDegrees>40.75801511295139789581298828125</LatitudeDegrees>
              <LongitudeDegrees>-4.01455954648554325103759765625</LongitudeDegrees>
            </Position>
            <AltitudeMeters>1508</AltitudeMeters>
            <DistanceMeters>NAN</DistanceMeters>
          </Trackpoint>
          <Trackpoint>
            <Time>2019-08-01T11:58:55.000Z</Time>
            <Position>
              <LatitudeDegrees>40.75801737606525421142578125</LatitudeDegrees>
              <LongitudeDegrees>-4.01453507132828235626220703125</LongitudeDegrees>
            </Position>
            <AltitudeMeters>1508.199951171875</AltitudeMeters>
            <DistanceMeters>NAN</DistanceMeters>
          </Trackpoint>
          <Trackpoint>
            <Time>2019-08-01T11:58:56.000Z</Time>
            <Position>
              <LatitudeDegrees>40.7580366544425487518310546875</LatitudeDegrees>
              <LongitudeDegrees>-4.0145063214004039764404296875</LongitudeDegrees>
            </Position>
            <AltitudeMeters>1508.5999755859375</AltitudeMeters>
            <DistanceMeters>NAN</DistanceMeters>
          </Trackpoint>
          <Trackpoint>
            <Time>2019-08-01T11:58:57.000Z</Time>
            <Position>
              <LatitudeDegrees>40.7580587826669216156005859375</LatitudeDegrees>
              <LongitudeDegrees>-4.0144801698625087738037109375</LongitudeDegrees>
            </Position>
            <AltitudeMeters>1509</AltitudeMeters>
            <DistanceMeters>NAN</DistanceMeters>
          </Trackpoint>
          <Trackpoint>
            <Time>2019-08-01T11:58:58.000Z</Time>
            <Position>
              <LatitudeDegrees>40.7580819167196750640869140625</LatitudeDegrees>
              <LongitudeDegrees>-4.01445494033396244049072265625</LongitudeDegrees>
            </Position>
            <AltitudeMeters>1509</AltitudeMeters>
            <DistanceMeters>NAN</DistanceMeters>
          </Trackpoint>
          <Trackpoint>
            <Time>2019-08-01T11:58:59.000Z</Time>
            <Position>
              <LatitudeDegrees>40.7580983452498912811279296875</LatitudeDegrees>
              <LongitudeDegrees>-4.01443046517670154571533203125</LongitudeDegrees>
            </Position>
            <AltitudeMeters>1509.199951171875</AltitudeMeters>
            <DistanceMeters>NAN</DistanceMeters>
          </Trackpoint>
          <Trackpoint>
            <Time>2019-08-01T11:59:00.000Z</Time>
            <Position>
              <LatitudeDegrees>40.75811552815139293670654296875</LatitudeDegrees>
              <LongitudeDegrees>-4.01440414600074291229248046875</LongitudeDegrees>
            </Position>
            <AltitudeMeters>1509.4000244140625</AltitudeMeters>
            <DistanceMeters>NAN</DistanceMeters>
          </Trackpoint>
          <Trackpoint>
            <Time>2019-08-01T11:59:01.000Z</Time>
            <Position>
              <LatitudeDegrees>40.75814520008862018585205078125</LatitudeDegrees>
              <LongitudeDegrees>-4.01437330059707164764404296875</LongitudeDegrees>
            </Position>
            <AltitudeMeters>1509.800048828125</AltitudeMeters>
            <DistanceMeters>NAN</DistanceMeters>
          </Trackpoint>
          <Trackpoint>
            <Time>2019-08-01T11:59:02.000Z</Time>
            <Position>
              <LatitudeDegrees>40.75817034579813480377197265625</LatitudeDegrees>
              <LongitudeDegrees>-4.014343209564685821533203125</LongitudeDegrees>
            </Position>
            <AltitudeMeters>1510</AltitudeMeters>
            <DistanceMeters>NAN</DistanceMeters>
          </Trackpoint>
          <Trackpoint>
            <Time>2019-08-01T11:59:03.000Z</Time>
            <Position>
              <LatitudeDegrees>40.75819012708961963653564453125</LatitudeDegrees>
              <LongitudeDegrees>-4.01431563310325145721435546875</LongitudeDegrees>
            </Position>
            <AltitudeMeters>1510.199951171875</AltitudeMeters>
            <DistanceMeters>NAN</DistanceMeters>
          </Trackpoint>
          <Trackpoint>
            <Time>2019-08-01T11:59:04.000Z</Time>
            <Position>
              <LatitudeDegrees>40.75821678154170513153076171875</LatitudeDegrees>
              <LongitudeDegrees>-4.0142836980521678924560546875</LongitudeDegrees>
            </Position>
            <AltitudeMeters>1510.5999755859375</AltitudeMeters>
            <DistanceMeters>NAN</DistanceMeters>
          </Trackpoint>
          <Trackpoint>
            <Time>2019-08-01T11:59:05.000Z</Time>
            <Position>
              <LatitudeDegrees>40.75824008323252201080322265625</LatitudeDegrees>
              <LongitudeDegrees>-4.01425578631460666656494140625</LongitudeDegrees>
            </Position>
            <AltitudeMeters>1510.800048828125</AltitudeMeters>
            <DistanceMeters>NAN</DistanceMeters>
          </Trackpoint>
          <Trackpoint>
            <Time>2019-08-01T11:59:06.000Z</Time>
            <Position>
              <LatitudeDegrees>40.758263133466243743896484375</LatitudeDegrees>
              <LongitudeDegrees>-4.01422527618706226348876953125</LongitudeDegrees>
            </Position>
            <AltitudeMeters>1511.199951171875</AltitudeMeters>
            <DistanceMeters>NAN</DistanceMeters>
          </Trackpoint>
          <Trackpoint>
            <Time>2019-08-01T11:59:07.000Z</Time>
            <Position>
              <LatitudeDegrees>40.75828425586223602294921875</LatitudeDegrees>
              <LongitudeDegrees>-4.01419778354465961456298828125</LongitudeDegrees>
            </Position>
            <AltitudeMeters>1511.5999755859375</AltitudeMeters>
            <DistanceMeters>NAN</DistanceMeters>
          </Trackpoint>
          <Trackpoint>
            <Time>2019-08-01T11:59:08.000Z</Time>
            <Position>
              <LatitudeDegrees>40.758306719362735748291015625</LatitudeDegrees>
              <LongitudeDegrees>-4.0141693688929080963134765625</LongitudeDegrees>
            </Position>
            <AltitudeMeters>1511.800048828125</AltitudeMeters>
            <DistanceMeters>NAN</DistanceMeters>
          </Trackpoint>
          <Trackpoint>
            <Time>2019-08-01T11:59:09.000Z</Time>
            <Position>
              <LatitudeDegrees>40.75833060778677463531494140625</LatitudeDegrees>
              <LongitudeDegrees>-4.01414229534566402435302734375</LongitudeDegrees>
            </Position>
            <AltitudeMeters>1512.199951171875</AltitudeMeters>
            <DistanceMeters>NAN</DistanceMeters>
          </Trackpoint>
          <Trackpoint>
            <Time>2019-08-01T11:59:10.000Z</Time>
            <Position>
              <LatitudeDegrees>40.75835533440113067626953125</LatitudeDegrees>
              <LongitudeDegrees>-4.0141160599887371063232421875</LongitudeDegrees>
            </Position>
            <AltitudeMeters>1512.4000244140625</AltitudeMeters>
            <DistanceMeters>NAN</DistanceMeters>
          </Trackpoint>
          <Trackpoint>
            <Time>2019-08-01T11:59:11.000Z</Time>
            <Position>
              <LatitudeDegrees>40.7583803124725818634033203125</LatitudeDegrees>
              <LongitudeDegrees>-4.01409015990793704986572265625</LongitudeDegrees>
            </Position>
            <AltitudeMeters>1512.5999755859375</AltitudeMeters>
            <DistanceMeters>NAN</DistanceMeters>
          </Trackpoint>
          <Trackpoint>
            <Time>2019-08-01T11:59:12.000Z</Time>
            <Position>
              <LatitudeDegrees>40.7584044523537158966064453125</LatitudeDegrees>
              <LongitudeDegrees>-4.01406719349324703216552734375</LongitudeDegrees>
            </Position>
            <AltitudeMeters>1513</AltitudeMeters>
            <DistanceMeters>NAN</DistanceMeters>
          </Trackpoint>
          <Trackpoint>
            <Time>2019-08-01T11:59:13.000Z</Time>
            <Position>
              <LatitudeDegrees>40.75843035243451595306396484375</LatitudeDegrees>
              <LongitudeDegrees>-4.01404456235468387603759765625</LongitudeDegrees>
            </Position>
            <AltitudeMeters>1513.199951171875</AltitudeMeters>
            <DistanceMeters>NAN</DistanceMeters>
          </Trackpoint>
          <Trackpoint>
            <Time>2019-08-01T11:59:14.000Z</Time>
            <Position>
              <LatitudeDegrees>40.75845516286790370941162109375</LatitudeDegrees>
              <LongitudeDegrees>-4.0140195004642009735107421875</LongitudeDegrees>
            </Position>
            <AltitudeMeters>1513.4000244140625</AltitudeMeters>
            <DistanceMeters>NAN</DistanceMeters>
          </Trackpoint>
          <Trackpoint>
            <Time>2019-08-01T11:59:15.000Z</Time>
            <Position>
              <LatitudeDegrees>40.7584805600345134735107421875</LatitudeDegrees>
              <LongitudeDegrees>-4.01399485766887664794921875</LongitudeDegrees>
            </Position>
            <AltitudeMeters>1513.4000244140625</AltitudeMeters>
            <DistanceMeters>NAN</DistanceMeters>
          </Trackpoint>
          <Trackpoint>
            <Time>2019-08-01T11:59:16.000Z</Time>
            <Position>
              <LatitudeDegrees>40.75850763358175754547119140625</LatitudeDegrees>
              <LongitudeDegrees>-4.013971723616123199462890625</LongitudeDegrees>
            </Position>
            <AltitudeMeters>1513.5999755859375</AltitudeMeters>
            <DistanceMeters>NAN</DistanceMeters>
          </Trackpoint>
          <Trackpoint>
            <Time>2019-08-01T11:59:17.000Z</Time>
            <Position>
              <LatitudeDegrees>40.75853294692933559417724609375</LatitudeDegrees>
              <LongitudeDegrees>-4.01394716463983058929443359375</LongitudeDegrees>
            </Position>
            <AltitudeMeters>1513.800048828125</AltitudeMeters>
            <DistanceMeters>NAN</DistanceMeters>
          </Trackpoint>
          <Trackpoint>
            <Time>2019-08-01T11:59:18.000Z</Time>
            <Position>
              <LatitudeDegrees>40.7585596852004528045654296875</LatitudeDegrees>
              <LongitudeDegrees>-4.013923443853855133056640625</LongitudeDegrees>
            </Position>
            <AltitudeMeters>1514</AltitudeMeters>
            <DistanceMeters>NAN</DistanceMeters>
          </Trackpoint>
          <Trackpoint>
            <Time>2019-08-01T11:59:19.000Z</Time>
            <Position>
              <LatitudeDegrees>40.75858625583350658416748046875</LatitudeDegrees>
              <LongitudeDegrees>-4.01390324346721172332763671875</LongitudeDegrees>
            </Position>
            <AltitudeMeters>1514.199951171875</AltitudeMeters>
            <DistanceMeters>NAN</DistanceMeters>
          </Trackpoint>
          <Trackpoint>
            <Time>2019-08-01T11:59:20.000Z</Time>
            <Position>
              <LatitudeDegrees>40.75861156918108463287353515625</LatitudeDegrees>
              <LongitudeDegrees>-4.01388765312731266021728515625</LongitudeDegrees>
            </Position>
            <AltitudeMeters>1514.4000244140625</AltitudeMeters>
            <DistanceMeters>NAN</DistanceMeters>
          </Trackpoint>
          <Trackpoint>
            <Time>2019-08-01T11:59:21.000Z</Time>
            <Position>
              <LatitudeDegrees>40.75863621197640895843505859375</LatitudeDegrees>
              <LongitudeDegrees>-4.0138761699199676513671875</LongitudeDegrees>
            </Position>
            <AltitudeMeters>1514.800048828125</AltitudeMeters>
            <DistanceMeters>NAN</DistanceMeters>
          </Trackpoint>
          <Trackpoint>
            <Time>2019-08-01T11:59:22.000Z</Time>
            <Position>
              <LatitudeDegrees>40.75866110622882843017578125</LatitudeDegrees>
              <LongitudeDegrees>-4.01386770419776439666748046875</LongitudeDegrees>
            </Position>
            <AltitudeMeters>1515</AltitudeMeters>
            <DistanceMeters>NAN</DistanceMeters>
          </Trackpoint>
          <Trackpoint>
            <Time>2019-08-01T11:59:23.000Z</Time>
            <Position>
              <LatitudeDegrees>40.75866110622882843017578125</LatitudeDegrees>
              <LongitudeDegrees>-4.01386770419776439666748046875</LongitudeDegrees>
            </Position>
            <AltitudeMeters>1515.4000244140625</AltitudeMeters>
            <DistanceMeters>NAN</DistanceMeters>
          </Trackpoint>
          <Trackpoint>
            <Time>2019-08-01T11:59:24.000Z</Time>
            <Position>
              <LatitudeDegrees>40.75870745815336704254150390625</LatitudeDegrees>
              <LongitudeDegrees>-4.01385211385786533355712890625</LongitudeDegrees>
            </Position>
            <AltitudeMeters>1515.800048828125</AltitudeMeters>
            <DistanceMeters>NAN</DistanceMeters>
          </Trackpoint>
          <Trackpoint>
            <Time>2019-08-01T11:59:25.000Z</Time>
            <Position>
              <LatitudeDegrees>40.75873193331062793731689453125</LatitudeDegrees>
              <LongitudeDegrees>-4.0138413012027740478515625</LongitudeDegrees>
            </Position>
            <AltitudeMeters>1516.199951171875</AltitudeMeters>
            <DistanceMeters>NAN</DistanceMeters>
          </Trackpoint>
          <Trackpoint>
            <Time>2019-08-01T11:59:26.000Z</Time>
            <Position>
              <LatitudeDegrees>40.7587588392198085784912109375</LatitudeDegrees>
              <LongitudeDegrees>-4.01383233256638050079345703125</LongitudeDegrees>
            </Position>
            <AltitudeMeters>1516.199951171875</AltitudeMeters>
            <DistanceMeters>NAN</DistanceMeters>
          </Trackpoint>
          <Trackpoint>
            <Time>2019-08-01T11:59:27.000Z</Time>
            <Position>
              <LatitudeDegrees>40.75878574512898921966552734375</LatitudeDegrees>
              <LongitudeDegrees>-4.0138257108628749847412109375</LongitudeDegrees>
            </Position>
            <AltitudeMeters>1516.4000244140625</AltitudeMeters>
            <DistanceMeters>NAN</DistanceMeters>
          </Trackpoint>
          <Trackpoint>
            <Time>2019-08-01T11:59:28.000Z</Time>
            <Position>
              <LatitudeDegrees>40.75881407596170902252197265625</LatitudeDegrees>
              <LongitudeDegrees>-4.0138183347880840301513671875</LongitudeDegrees>
            </Position>
            <AltitudeMeters>1516.5999755859375</AltitudeMeters>
            <DistanceMeters>NAN</DistanceMeters>
          </Trackpoint>
          <Trackpoint>
            <Time>2019-08-01T11:59:29.000Z</Time>
            <Position>
              <LatitudeDegrees>40.75884140096604824066162109375</LatitudeDegrees>
              <LongitudeDegrees>-4.01381271891295909881591796875</LongitudeDegrees>
            </Position>
            <AltitudeMeters>1516.5999755859375</AltitudeMeters>
            <DistanceMeters>NAN</DistanceMeters>
          </Trackpoint>
          <Trackpoint>
            <Time>2019-08-01T11:59:30.000Z</Time>
            <Position>
              <LatitudeDegrees>40.75887124054133892059326171875</LatitudeDegrees>
              <LongitudeDegrees>-4.013806767761707305908203125</LongitudeDegrees>
            </Position>
            <AltitudeMeters>1516.800048828125</AltitudeMeters>
            <DistanceMeters>NAN</DistanceMeters>
          </Trackpoint>
          <Trackpoint>
            <Time>2019-08-01T11:59:31.000Z</Time>
            <Position>
              <LatitudeDegrees>40.758899487555027008056640625</LatitudeDegrees>
              <LongitudeDegrees>-4.013800062239170074462890625</LongitudeDegrees>
            </Position>
            <AltitudeMeters>1517.199951171875</AltitudeMeters>
            <DistanceMeters>NAN</DistanceMeters>
          </Trackpoint>
          <Trackpoint>
            <Time>2019-08-01T11:59:32.000Z</Time>
            <Position>
              <LatitudeDegrees>40.75892639346420764923095703125</LatitudeDegrees>
              <LongitudeDegrees>-4.01379637420177459716796875</LongitudeDegrees>
            </Position>
            <AltitudeMeters>1517.4000244140625</AltitudeMeters>
            <DistanceMeters>NAN</DistanceMeters>
          </Trackpoint>
          <Trackpoint>
            <Time>2019-08-01T11:59:33.000Z</Time>
            <Position>
              <LatitudeDegrees>40.75894969515502452850341796875</LatitudeDegrees>
              <LongitudeDegrees>-4.01379427872598171234130859375</LongitudeDegrees>
            </Position>
            <AltitudeMeters>1517.800048828125</AltitudeMeters>
            <DistanceMeters>NAN</DistanceMeters>
          </Trackpoint>
          <Trackpoint>
            <Time>2019-08-01T11:59:34.000Z</Time>
            <Position>
              <LatitudeDegrees>40.75896947644650936126708984375</LatitudeDegrees>
              <LongitudeDegrees>-4.01379243470728397369384765625</LongitudeDegrees>
            </Position>
            <AltitudeMeters>1518</AltitudeMeters>
            <DistanceMeters>NAN</DistanceMeters>
          </Trackpoint>
          <Trackpoint>
            <Time>2019-08-01T11:59:35.000Z</Time>
            <Position>
              <LatitudeDegrees>40.758990012109279632568359375</LatitudeDegrees>
              <LongitudeDegrees>-4.01378992013633251190185546875</LongitudeDegrees>
            </Position>
            <AltitudeMeters>1518.5999755859375</AltitudeMeters>
            <DistanceMeters>NAN</DistanceMeters>
          </Trackpoint>
          <Trackpoint>
            <Time>2019-08-01T11:59:36.000Z</Time>
            <Position>
              <LatitudeDegrees>40.75901239179074764251708984375</LatitudeDegrees>
              <LongitudeDegrees>-4.01378698647022247314453125</LongitudeDegrees>
            </Position>
            <AltitudeMeters>1519</AltitudeMeters>
            <DistanceMeters>NAN</DistanceMeters>
          </Trackpoint>
          <Trackpoint>
            <Time>2019-08-01T11:59:37.000Z</Time>
            <Position>
              <LatitudeDegrees>40.759037621319293975830078125</LatitudeDegrees>
              <LongitudeDegrees>-4.01378338225185871124267578125</LongitudeDegrees>
            </Position>
            <AltitudeMeters>1519.199951171875</AltitudeMeters>
            <DistanceMeters>NAN</DistanceMeters>
          </Trackpoint>
          <Trackpoint>
            <Time>2019-08-01T11:59:38.000Z</Time>
            <Position>
              <LatitudeDegrees>40.7590622641146183013916015625</LatitudeDegrees>
              <LongitudeDegrees>-4.01377818547189235687255859375</LongitudeDegrees>
            </Position>
            <AltitudeMeters>1519.4000244140625</AltitudeMeters>
            <DistanceMeters>NAN</DistanceMeters>
          </Trackpoint>
          <Trackpoint>
            <Time>2019-08-01T11:59:39.000Z</Time>
            <Position>
              <LatitudeDegrees>40.7590622641146183013916015625</LatitudeDegrees>
              <LongitudeDegrees>-4.01377818547189235687255859375</LongitudeDegrees>
            </Position>
            <AltitudeMeters>1519.800048828125</AltitudeMeters>
            <DistanceMeters>NAN</DistanceMeters>
          </Trackpoint>
          <Trackpoint>
            <Time>2019-08-01T11:59:40.000Z</Time>
            <Position>
              <LatitudeDegrees>40.75911104679107666015625</LatitudeDegrees>
              <LongitudeDegrees>-4.013771228492259979248046875</LongitudeDegrees>
            </Position>
            <AltitudeMeters>1520</AltitudeMeters>
            <DistanceMeters>NAN</DistanceMeters>
          </Trackpoint>
          <Trackpoint>
            <Time>2019-08-01T11:59:41.000Z</Time>
            <Position>
              <LatitudeDegrees>40.75911104679107666015625</LatitudeDegrees>
              <LongitudeDegrees>-4.013771228492259979248046875</LongitudeDegrees>
            </Position>
            <AltitudeMeters>1520.199951171875</AltitudeMeters>
            <DistanceMeters>NAN</DistanceMeters>
          </Trackpoint>
          <Trackpoint>
            <Time>2019-08-01T11:59:42.000Z</Time>
            <Position>
              <LatitudeDegrees>40.7591564767062664031982421875</LatitudeDegrees>
              <LongitudeDegrees>-4.01376695372164249420166015625</LongitudeDegrees>
            </Position>
            <AltitudeMeters>1520.4000244140625</AltitudeMeters>
            <DistanceMeters>NAN</DistanceMeters>
          </Trackpoint>
          <Trackpoint>
            <Time>2019-08-01T11:59:43.000Z</Time>
            <Position>
              <LatitudeDegrees>40.75917600654065608978271484375</LatitudeDegrees>
              <LongitudeDegrees>-4.0137635171413421630859375</LongitudeDegrees>
            </Position>
            <AltitudeMeters>1520.4000244140625</AltitudeMeters>
            <DistanceMeters>NAN</DistanceMeters>
          </Trackpoint>
          <Trackpoint>
            <Time>2019-08-01T11:59:44.000Z</Time>
            <Position>
              <LatitudeDegrees>40.75919427908957004547119140625</LatitudeDegrees>
              <LongitudeDegrees>-4.01376242749392986297607421875</LongitudeDegrees>
            </Position>
            <AltitudeMeters>1520.5999755859375</AltitudeMeters>
            <DistanceMeters>NAN</DistanceMeters>
          </Trackpoint>
          <Trackpoint>
            <Time>2019-08-01T11:59:45.000Z</Time>
            <Position>
              <LatitudeDegrees>40.75921221636235713958740234375</LatitudeDegrees>
              <LongitudeDegrees>-4.0137606672942638397216796875</LongitudeDegrees>
            </Position>
            <AltitudeMeters>1521</AltitudeMeters>
            <DistanceMeters>NAN</DistanceMeters>
          </Trackpoint>
          <Trackpoint>
            <Time>2019-08-01T11:59:46.000Z</Time>
            <Position>
              <LatitudeDegrees>40.759227387607097625732421875</LatitudeDegrees>
              <LongitudeDegrees>-4.01376150548458099365234375</LongitudeDegrees>
            </Position>
            <AltitudeMeters>1521.199951171875</AltitudeMeters>
            <DistanceMeters>NAN</DistanceMeters>
          </Trackpoint>
          <Trackpoint>
            <Time>2019-08-01T11:59:47.000Z</Time>
            <Position>
              <LatitudeDegrees>40.7592439837753772735595703125</LatitudeDegrees>
              <LongitudeDegrees>-4.0137579850852489471435546875</LongitudeDegrees>
            </Position>
            <AltitudeMeters>1521.4000244140625</AltitudeMeters>
            <DistanceMeters>NAN</DistanceMeters>
          </Trackpoint>
          <Trackpoint>
            <Time>2019-08-01T11:59:48.000Z</Time>
            <Position>
              <LatitudeDegrees>40.75926317833364009857177734375</LatitudeDegrees>
              <LongitudeDegrees>-4.013753794133663177490234375</LongitudeDegrees>
            </Position>
            <AltitudeMeters>1521.5999755859375</AltitudeMeters>
            <DistanceMeters>NAN</DistanceMeters>
          </Trackpoint>
          <Trackpoint>
            <Time>2019-08-01T11:59:49.000Z</Time>
            <Position>
              <LatitudeDegrees>40.75928782112896442413330078125</LatitudeDegrees>
              <LongitudeDegrees>-4.01374918408691883087158203125</LongitudeDegrees>
            </Position>
            <AltitudeMeters>1522</AltitudeMeters>
            <DistanceMeters>NAN</DistanceMeters>
          </Trackpoint>
          <Trackpoint>
            <Time>2019-08-01T11:59:50.000Z</Time>
            <Position>
              <LatitudeDegrees>40.75931061990559101104736328125</LatitudeDegrees>
              <LongitudeDegrees>-4.01374541223049163818359375</LongitudeDegrees>
            </Position>
            <AltitudeMeters>1522.4000244140625</AltitudeMeters>
            <DistanceMeters>NAN</DistanceMeters>
          </Trackpoint>
          <Trackpoint>
            <Time>2019-08-01T11:59:51.000Z</Time>
            <Position>
              <LatitudeDegrees>40.75933241285383701324462890625</LatitudeDegrees>
              <LongitudeDegrees>-4.01374407112598419189453125</LongitudeDegrees>
            </Position>
            <AltitudeMeters>1522.5999755859375</AltitudeMeters>
            <DistanceMeters>NAN</DistanceMeters>
          </Trackpoint>
          <Trackpoint>
            <Time>2019-08-01T11:59:52.000Z</Time>
            <Position>
              <LatitudeDegrees>40.759356804192066192626953125</LatitudeDegrees>
              <LongitudeDegrees>-4.01374398730695247650146484375</LongitudeDegrees>
            </Position>
            <AltitudeMeters>1522.800048828125</AltitudeMeters>
            <DistanceMeters>NAN</DistanceMeters>
          </Trackpoint>
          <Trackpoint>
            <Time>2019-08-01T11:59:53.000Z</Time>
            <Position>
              <LatitudeDegrees>40.759382955729961395263671875</LatitudeDegrees>
              <LongitudeDegrees>-4.013740718364715576171875</LongitudeDegrees>
            </Position>
            <AltitudeMeters>1523.199951171875</AltitudeMeters>
            <DistanceMeters>NAN</DistanceMeters>
          </Trackpoint>
          <Trackpoint>
            <Time>2019-08-01T11:59:54.000Z</Time>
            <Position>
              <LatitudeDegrees>40.75941036455333232879638671875</LatitudeDegrees>
              <LongitudeDegrees>-4.01373334228992462158203125</LongitudeDegrees>
            </Position>
            <AltitudeMeters>1523.4000244140625</AltitudeMeters>
            <DistanceMeters>NAN</DistanceMeters>
          </Trackpoint>
          <Trackpoint>
            <Time>2019-08-01T11:59:55.000Z</Time>
            <Position>
              <LatitudeDegrees>40.75943718664348125457763671875</LatitudeDegrees>
              <LongitudeDegrees>-4.01372755877673625946044921875</LongitudeDegrees>
            </Position>
            <AltitudeMeters>1523.800048828125</AltitudeMeters>
            <DistanceMeters>NAN</DistanceMeters>
          </Trackpoint>
          <Trackpoint>
            <Time>2019-08-01T11:59:56.000Z</Time>
            <Position>
              <LatitudeDegrees>40.7594666071236133575439453125</LatitudeDegrees>
              <LongitudeDegrees>-4.0137244574725627899169921875</LongitudeDegrees>
            </Position>
            <AltitudeMeters>1524</AltitudeMeters>
            <DistanceMeters>NAN</DistanceMeters>
          </Trackpoint>
          <Trackpoint>
            <Time>2019-08-01T11:59:57.000Z</Time>
            <Position>
              <LatitudeDegrees>40.75949334539473056793212890625</LatitudeDegrees>
              <LongitudeDegrees>-4.013722278177738189697265625</LongitudeDegrees>
            </Position>
            <AltitudeMeters>1524.4000244140625</AltitudeMeters>
            <DistanceMeters>NAN</DistanceMeters>
          </Trackpoint>
          <Trackpoint>
            <Time>2019-08-01T11:59:58.000Z</Time>
            <Position>
              <LatitudeDegrees>40.759521089494228363037109375</LatitudeDegrees>
              <LongitudeDegrees>-4.01371800340712070465087890625</LongitudeDegrees>
            </Position>
            <AltitudeMeters>1524.5999755859375</AltitudeMeters>
            <DistanceMeters>NAN</DistanceMeters>
          </Trackpoint>
          <Trackpoint>
            <Time>2019-08-01T11:59:59.000Z</Time>
            <Position>
              <LatitudeDegrees>40.759550593793392181396484375</LatitudeDegrees>
              <LongitudeDegrees>-4.01371649466454982757568359375</LongitudeDegrees>
            </Position>
            <AltitudeMeters>1525</AltitudeMeters>
            <DistanceMeters>NAN</DistanceMeters>
          </Trackpoint>
          <Trackpoint>
            <Time>2019-08-01T12:00:00.000Z</Time>
            <Position>
              <LatitudeDegrees>40.7595790922641754150390625</LatitudeDegrees>
              <LongitudeDegrees>-4.0137137286365032196044921875</LongitudeDegrees>
            </Position>
            <AltitudeMeters>1525.199951171875</AltitudeMeters>
            <DistanceMeters>NAN</DistanceMeters>
          </Trackpoint>
          <Trackpoint>
            <Time>2019-08-01T12:00:01.000Z</Time>
            <Position>
              <LatitudeDegrees>40.7596060819923877716064453125</LatitudeDegrees>
              <LongitudeDegrees>-4.0137098729610443115234375</LongitudeDegrees>
            </Position>
            <AltitudeMeters>1525.5999755859375</AltitudeMeters>
            <DistanceMeters>NAN</DistanceMeters>
          </Trackpoint>
          <Trackpoint>
            <Time>2019-08-01T12:00:02.000Z</Time>
            <Position>
              <LatitudeDegrees>40.7596329040825366973876953125</LatitudeDegrees>
              <LongitudeDegrees>-4.01370543055236339569091796875</LongitudeDegrees>
            </Position>
            <AltitudeMeters>1525.800048828125</AltitudeMeters>
            <DistanceMeters>NAN</DistanceMeters>
          </Trackpoint>
          <Trackpoint>
            <Time>2019-08-01T12:00:03.000Z</Time>
            <Position>
              <LatitudeDegrees>40.7596329040825366973876953125</LatitudeDegrees>
              <LongitudeDegrees>-4.01370543055236339569091796875</LongitudeDegrees>
            </Position>
            <AltitudeMeters>1526</AltitudeMeters>
            <DistanceMeters>NAN</DistanceMeters>
          </Trackpoint>
          <Trackpoint>
            <Time>2019-08-01T12:00:04.000Z</Time>
            <Position>
              <LatitudeDegrees>40.75968277640640735626220703125</LatitudeDegrees>
              <LongitudeDegrees>-4.01369537226855754852294921875</LongitudeDegrees>
            </Position>
            <AltitudeMeters>1526.4000244140625</AltitudeMeters>
            <DistanceMeters>NAN</DistanceMeters>
          </Trackpoint>
          <Trackpoint>
            <Time>2019-08-01T12:00:05.000Z</Time>
            <Position>
              <LatitudeDegrees>40.759705491364002227783203125</LatitudeDegrees>
              <LongitudeDegrees>-4.01368715800344944000244140625</LongitudeDegrees>
            </Position>
            <AltitudeMeters>1526.5999755859375</AltitudeMeters>
            <DistanceMeters>NAN</DistanceMeters>
          </Trackpoint>
          <Trackpoint>
            <Time>2019-08-01T12:00:06.000Z</Time>
            <Position>
              <LatitudeDegrees>40.75973306782543659210205078125</LatitudeDegrees>
              <LongitudeDegrees>-4.01367726735770702362060546875</LongitudeDegrees>
            </Position>
            <AltitudeMeters>1526.800048828125</AltitudeMeters>
            <DistanceMeters>NAN</DistanceMeters>
          </Trackpoint>
          <Trackpoint>
            <Time>2019-08-01T12:00:07.000Z</Time>
            <Position>
              <LatitudeDegrees>40.759762488305568695068359375</LatitudeDegrees>
              <LongitudeDegrees>-4.01366754435002803802490234375</LongitudeDegrees>
            </Position>
            <AltitudeMeters>1527</AltitudeMeters>
            <DistanceMeters>NAN</DistanceMeters>
          </Trackpoint>
          <Trackpoint>
            <Time>2019-08-01T12:00:08.000Z</Time>
            <Position>
              <LatitudeDegrees>40.75979123823344707489013671875</LatitudeDegrees>
              <LongitudeDegrees>-4.013663269579410552978515625</LongitudeDegrees>
            </Position>
            <AltitudeMeters>1527.199951171875</AltitudeMeters>
            <DistanceMeters>NAN</DistanceMeters>
          </Trackpoint>
          <Trackpoint>
            <Time>2019-08-01T12:00:09.000Z</Time>
            <Position>
              <LatitudeDegrees>40.75981822796165943145751953125</LatitudeDegrees>
              <LongitudeDegrees>-4.01365614496171474456787109375</LongitudeDegrees>
            </Position>
            <AltitudeMeters>1527.5999755859375</AltitudeMeters>
            <DistanceMeters>NAN</DistanceMeters>
          </Trackpoint>
          <Trackpoint>
            <Time>2019-08-01T12:00:10.000Z</Time>
            <Position>
              <LatitudeDegrees>40.75984052382409572601318359375</LatitudeDegrees>
              <LongitudeDegrees>-4.01365153491497039794921875</LongitudeDegrees>
            </Position>
            <AltitudeMeters>1527.5999755859375</AltitudeMeters>
            <DistanceMeters>NAN</DistanceMeters>
          </Trackpoint>
          <Trackpoint>
            <Time>2019-08-01T12:00:11.000Z</Time>
            <Position>
              <LatitudeDegrees>40.75986675918102264404296875</LatitudeDegrees>
              <LongitudeDegrees>-4.01364290155470371246337890625</LongitudeDegrees>
            </Position>
            <AltitudeMeters>1527.5999755859375</AltitudeMeters>
            <DistanceMeters>NAN</DistanceMeters>
          </Trackpoint>
          <Trackpoint>
            <Time>2019-08-01T12:00:12.000Z</Time>
            <Position>
              <LatitudeDegrees>40.75989282689988613128662109375</LatitudeDegrees>
              <LongitudeDegrees>-4.0136346034705638885498046875</LongitudeDegrees>
            </Position>
            <AltitudeMeters>1527.800048828125</AltitudeMeters>
            <DistanceMeters>NAN</DistanceMeters>
          </Trackpoint>
          <Trackpoint>
            <Time>2019-08-01T12:00:13.000Z</Time>
            <Position>
              <LatitudeDegrees>40.75992149300873279571533203125</LatitudeDegrees>
              <LongitudeDegrees>-4.0136240422725677490234375</LongitudeDegrees>
            </Position>
            <AltitudeMeters>1528.4000244140625</AltitudeMeters>
            <DistanceMeters>NAN</DistanceMeters>
          </Trackpoint>
          <Trackpoint>
            <Time>2019-08-01T12:00:14.000Z</Time>
            <Position>
              <LatitudeDegrees>40.75992149300873279571533203125</LatitudeDegrees>
              <LongitudeDegrees>-4.0136240422725677490234375</LongitudeDegrees>
            </Position>
            <AltitudeMeters>1528.4000244140625</AltitudeMeters>
            <DistanceMeters>NAN</DistanceMeters>
          </Trackpoint>
          <Trackpoint>
            <Time>2019-08-01T12:00:15.000Z</Time>
            <Position>
              <LatitudeDegrees>40.75997983105480670928955078125</LatitudeDegrees>
              <LongitudeDegrees>-4.01360870338976383209228515625</LongitudeDegrees>
            </Position>
            <AltitudeMeters>1528.5999755859375</AltitudeMeters>
            <DistanceMeters>NAN</DistanceMeters>
          </Trackpoint>
          <Trackpoint>
            <Time>2019-08-01T12:00:16.000Z</Time>
            <Position>
              <LatitudeDegrees>40.76000665314495563507080078125</LatitudeDegrees>
              <LongitudeDegrees>-4.0136017464101314544677734375</LongitudeDegrees>
            </Position>
            <AltitudeMeters>1529</AltitudeMeters>
            <DistanceMeters>NAN</DistanceMeters>
          </Trackpoint>
          <Trackpoint>
            <Time>2019-08-01T12:00:17.000Z</Time>
            <Position>
              <LatitudeDegrees>40.76003498397767543792724609375</LatitudeDegrees>
              <LongitudeDegrees>-4.0135950408875942230224609375</LongitudeDegrees>
            </Position>
            <AltitudeMeters>1529.199951171875</AltitudeMeters>
            <DistanceMeters>NAN</DistanceMeters>
          </Trackpoint>
          <Trackpoint>
            <Time>2019-08-01T12:00:18.000Z</Time>
            <Position>
              <LatitudeDegrees>40.76006348244845867156982421875</LatitudeDegrees>
              <LongitudeDegrees>-4.01358791626989841461181640625</LongitudeDegrees>
            </Position>
            <AltitudeMeters>1529.199951171875</AltitudeMeters>
            <DistanceMeters>NAN</DistanceMeters>
          </Trackpoint>
          <Trackpoint>
            <Time>2019-08-01T12:00:19.000Z</Time>
            <Position>
              <LatitudeDegrees>40.7600932382047176361083984375</LatitudeDegrees>
              <LongitudeDegrees>-4.0135796181857585906982421875</LongitudeDegrees>
            </Position>
            <AltitudeMeters>1529.5999755859375</AltitudeMeters>
            <DistanceMeters>NAN</DistanceMeters>
          </Trackpoint>
          <Trackpoint>
            <Time>2019-08-01T12:00:20.000Z</Time>
            <Position>
              <LatitudeDegrees>40.76012349687516689300537109375</LatitudeDegrees>
              <LongitudeDegrees>-4.01357919909060001373291015625</LongitudeDegrees>
            </Position>
            <AltitudeMeters>1529.800048828125</AltitudeMeters>
            <DistanceMeters>NAN</DistanceMeters>
          </Trackpoint>
          <Trackpoint>
            <Time>2019-08-01T12:00:21.000Z</Time>
            <Position>
              <LatitudeDegrees>40.76015174388885498046875</LatitudeDegrees>
              <LongitudeDegrees>-4.013571403920650482177734375</LongitudeDegrees>
            </Position>
            <AltitudeMeters>1530.199951171875</AltitudeMeters>
            <DistanceMeters>NAN</DistanceMeters>
          </Trackpoint>
          <Trackpoint>
            <Time>2019-08-01T12:00:22.000Z</Time>
            <Position>
              <LatitudeDegrees>40.7601799070835113525390625</LatitudeDegrees>
              <LongitudeDegrees>-4.01356511749327182769775390625</LongitudeDegrees>
            </Position>
            <AltitudeMeters>1530.5999755859375</AltitudeMeters>
            <DistanceMeters>NAN</DistanceMeters>
          </Trackpoint>
          <Trackpoint>
            <Time>2019-08-01T12:00:23.000Z</Time>
            <Position>
              <LatitudeDegrees>40.7602082379162311553955078125</LatitudeDegrees>
              <LongitudeDegrees>-4.01356075890362262725830078125</LongitudeDegrees>
            </Position>
            <AltitudeMeters>1530.800048828125</AltitudeMeters>
            <DistanceMeters>NAN</DistanceMeters>
          </Trackpoint>
          <Trackpoint>
            <Time>2019-08-01T12:00:24.000Z</Time>
            <Position>
              <LatitudeDegrees>40.7602335512638092041015625</LatitudeDegrees>
              <LongitudeDegrees>-4.0135501138865947723388671875</LongitudeDegrees>
            </Position>
            <AltitudeMeters>1531</AltitudeMeters>
            <DistanceMeters>NAN</DistanceMeters>
          </Trackpoint>
          <Trackpoint>
            <Time>2019-08-01T12:00:25.000Z</Time>
            <Position>
              <LatitudeDegrees>40.7602581940591335296630859375</LatitudeDegrees>
              <LongitudeDegrees>-4.01354231871664524078369140625</LongitudeDegrees>
            </Position>
            <AltitudeMeters>1531.199951171875</AltitudeMeters>
            <DistanceMeters>NAN</DistanceMeters>
          </Trackpoint>
          <Trackpoint>
            <Time>2019-08-01T12:00:26.000Z</Time>
            <Position>
              <LatitudeDegrees>40.7602856867015361785888671875</LatitudeDegrees>
              <LongitudeDegrees>-4.0135420672595500946044921875</LongitudeDegrees>
            </Position>
            <AltitudeMeters>1531.5999755859375</AltitudeMeters>
            <DistanceMeters>NAN</DistanceMeters>
          </Trackpoint>
          <Trackpoint>
            <Time>2019-08-01T12:00:27.000Z</Time>
            <Position>
              <LatitudeDegrees>40.7603131793439388275146484375</LatitudeDegrees>
              <LongitudeDegrees>-4.01353963650763034820556640625</LongitudeDegrees>
            </Position>
            <AltitudeMeters>1531.800048828125</AltitudeMeters>
            <DistanceMeters>NAN</DistanceMeters>
          </Trackpoint>
          <Trackpoint>
            <Time>2019-08-01T12:00:28.000Z</Time>
            <Position>
              <LatitudeDegrees>40.760342180728912353515625</LatitudeDegrees>
              <LongitudeDegrees>-4.013537876307964324951171875</LongitudeDegrees>
            </Position>
            <AltitudeMeters>1532</AltitudeMeters>
            <DistanceMeters>NAN</DistanceMeters>
          </Trackpoint>
          <Trackpoint>
            <Time>2019-08-01T12:00:29.000Z</Time>
            <Position>
              <LatitudeDegrees>40.76037235558032989501953125</LatitudeDegrees>
              <LongitudeDegrees>-4.0135370381176471710205078125</LongitudeDegrees>
            </Position>
            <AltitudeMeters>1532</AltitudeMeters>
            <DistanceMeters>NAN</DistanceMeters>
          </Trackpoint>
          <Trackpoint>
            <Time>2019-08-01T12:00:30.000Z</Time>
            <Position>
              <LatitudeDegrees>40.7604013569653034210205078125</LatitudeDegrees>
              <LongitudeDegrees>-4.01353477500379085540771484375</LongitudeDegrees>
            </Position>
            <AltitudeMeters>1532.199951171875</AltitudeMeters>
            <DistanceMeters>NAN</DistanceMeters>
          </Trackpoint>
          <Trackpoint>
            <Time>2019-08-01T12:00:31.000Z</Time>
            <Position>
              <LatitudeDegrees>40.760431028902530670166015625</LatitudeDegrees>
              <LongitudeDegrees>-4.013535194098949432373046875</LongitudeDegrees>
            </Position>
            <AltitudeMeters>1532.5999755859375</AltitudeMeters>
            <DistanceMeters>NAN</DistanceMeters>
          </Trackpoint>
          <Trackpoint>
            <Time>2019-08-01T12:00:32.000Z</Time>
            <Position>
              <LatitudeDegrees>40.76045810244977474212646484375</LatitudeDegrees>
              <LongitudeDegrees>-4.01353460736572742462158203125</LongitudeDegrees>
            </Position>
            <AltitudeMeters>1533</AltitudeMeters>
            <DistanceMeters>NAN</DistanceMeters>
          </Trackpoint>
          <Trackpoint>
            <Time>2019-08-01T12:00:33.000Z</Time>
            <Position>
              <LatitudeDegrees>40.76047830283641815185546875</LatitudeDegrees>
              <LongitudeDegrees>-4.01353209279477596282958984375</LongitudeDegrees>
            </Position>
            <AltitudeMeters>1533.199951171875</AltitudeMeters>
            <DistanceMeters>NAN</DistanceMeters>
          </Trackpoint>
          <Trackpoint>
            <Time>2019-08-01T12:00:34.000Z</Time>
            <Position>
              <LatitudeDegrees>40.76049917377531528472900390625</LatitudeDegrees>
              <LongitudeDegrees>-4.01353326626121997833251953125</LongitudeDegrees>
            </Position>
            <AltitudeMeters>1533.5999755859375</AltitudeMeters>
            <DistanceMeters>NAN</DistanceMeters>
          </Trackpoint>
          <Trackpoint>
            <Time>2019-08-01T12:00:35.000Z</Time>
            <Position>
              <LatitudeDegrees>40.76052398420870304107666015625</LatitudeDegrees>
              <LongitudeDegrees>-4.0135286562144756317138671875</LongitudeDegrees>
            </Position>
            <AltitudeMeters>1533.800048828125</AltitudeMeters>
            <DistanceMeters>NAN</DistanceMeters>
          </Trackpoint>
          <Trackpoint>
            <Time>2019-08-01T12:00:36.000Z</Time>
            <Position>
              <LatitudeDegrees>40.76055181212723255157470703125</LatitudeDegrees>
              <LongitudeDegrees>-4.0135222859680652618408203125</LongitudeDegrees>
            </Position>
            <AltitudeMeters>1534</AltitudeMeters>
            <DistanceMeters>NAN</DistanceMeters>
          </Trackpoint>
          <Trackpoint>
            <Time>2019-08-01T12:00:37.000Z</Time>
            <Position>
              <LatitudeDegrees>40.7605807296931743621826171875</LatitudeDegrees>
              <LongitudeDegrees>-4.01351918466389179229736328125</LongitudeDegrees>
            </Position>
            <AltitudeMeters>1534.4000244140625</AltitudeMeters>
            <DistanceMeters>NAN</DistanceMeters>
          </Trackpoint>
          <Trackpoint>
            <Time>2019-08-01T12:00:38.000Z</Time>
            <Position>
              <LatitudeDegrees>40.7606062106788158416748046875</LatitudeDegrees>
              <LongitudeDegrees>-4.01352169923484325408935546875</LongitudeDegrees>
            </Position>
            <AltitudeMeters>1534.5999755859375</AltitudeMeters>
            <DistanceMeters>NAN</DistanceMeters>
          </Trackpoint>
          <Trackpoint>
            <Time>2019-08-01T12:00:39.000Z</Time>
            <Position>
              <LatitudeDegrees>40.76063211075961589813232421875</LatitudeDegrees>
              <LongitudeDegrees>-4.01351851411163806915283203125</LongitudeDegrees>
            </Position>
            <AltitudeMeters>1534.800048828125</AltitudeMeters>
            <DistanceMeters>NAN</DistanceMeters>
          </Trackpoint>
          <Trackpoint>
            <Time>2019-08-01T12:00:40.000Z</Time>
            <Position>
              <LatitudeDegrees>40.76065859757363796234130859375</LatitudeDegrees>
              <LongitudeDegrees>-4.01351281441748142242431640625</LongitudeDegrees>
            </Position>
            <AltitudeMeters>1535</AltitudeMeters>
            <DistanceMeters>NAN</DistanceMeters>
          </Trackpoint>
          <Trackpoint>
            <Time>2019-08-01T12:00:41.000Z</Time>
            <Position>
              <LatitudeDegrees>40.76068709604442119598388671875</LatitudeDegrees>
              <LongitudeDegrees>-4.01350669562816619873046875</LongitudeDegrees>
            </Position>
            <AltitudeMeters>1535.199951171875</AltitudeMeters>
            <DistanceMeters>NAN</DistanceMeters>
          </Trackpoint>
          <Trackpoint>
            <Time>2019-08-01T12:00:42.000Z</Time>
            <Position>
              <LatitudeDegrees>40.7607158459722995758056640625</LatitudeDegrees>
              <LongitudeDegrees>-4.01350208558142185211181640625</LongitudeDegrees>
            </Position>
            <AltitudeMeters>1535.4000244140625</AltitudeMeters>
            <DistanceMeters>NAN</DistanceMeters>
          </Trackpoint>
          <Trackpoint>
            <Time>2019-08-01T12:00:43.000Z</Time>
            <Position>
              <LatitudeDegrees>40.76074023731052875518798828125</LatitudeDegrees>
              <LongitudeDegrees>-4.0134991519153118133544921875</LongitudeDegrees>
            </Position>
            <AltitudeMeters>1535.5999755859375</AltitudeMeters>
            <DistanceMeters>NAN</DistanceMeters>
          </Trackpoint>
          <Trackpoint>
            <Time>2019-08-01T12:00:44.000Z</Time>
            <Position>
              <LatitudeDegrees>40.76076538302004337310791015625</LatitudeDegrees>
              <LongitudeDegrees>-4.0134937874972820281982421875</LongitudeDegrees>
            </Position>
            <AltitudeMeters>1536</AltitudeMeters>
            <DistanceMeters>NAN</DistanceMeters>
          </Trackpoint>
          <Trackpoint>
            <Time>2019-08-01T12:00:45.000Z</Time>
            <Position>
              <LatitudeDegrees>40.760791115462779998779296875</LatitudeDegrees>
              <LongitudeDegrees>-4.01348548941314220428466796875</LongitudeDegrees>
            </Position>
            <AltitudeMeters>1536.199951171875</AltitudeMeters>
            <DistanceMeters>NAN</DistanceMeters>
          </Trackpoint>
          <Trackpoint>
            <Time>2019-08-01T12:00:46.000Z</Time>
            <Position>
              <LatitudeDegrees>40.76081651262938976287841796875</LatitudeDegrees>
              <LongitudeDegrees>-4.013477526605129241943359375</LongitudeDegrees>
            </Position>
            <AltitudeMeters>1536.5999755859375</AltitudeMeters>
            <DistanceMeters>NAN</DistanceMeters>
          </Trackpoint>
          <Trackpoint>
            <Time>2019-08-01T12:00:47.000Z</Time>
            <Position>
              <LatitudeDegrees>40.76084266416728496551513671875</LatitudeDegrees>
              <LongitudeDegrees>-4.0134696476161479949951171875</LongitudeDegrees>
            </Position>
            <AltitudeMeters>1536.800048828125</AltitudeMeters>
            <DistanceMeters>NAN</DistanceMeters>
          </Trackpoint>
          <Trackpoint>
            <Time>2019-08-01T12:00:48.000Z</Time>
            <Position>
              <LatitudeDegrees>40.76086722314357757568359375</LatitudeDegrees>
              <LongitudeDegrees>-4.01346218772232532501220703125</LongitudeDegrees>
            </Position>
            <AltitudeMeters>1537.199951171875</AltitudeMeters>
            <DistanceMeters>NAN</DistanceMeters>
          </Trackpoint>
          <Trackpoint>
            <Time>2019-08-01T12:00:49.000Z</Time>
            <Position>
              <LatitudeDegrees>40.760891698300838470458984375</LatitudeDegrees>
              <LongitudeDegrees>-4.0134525485336780548095703125</LongitudeDegrees>
            </Position>
            <AltitudeMeters>1537.4000244140625</AltitudeMeters>
            <DistanceMeters>NAN</DistanceMeters>
          </Trackpoint>
          <Trackpoint>
            <Time>2019-08-01T12:00:50.000Z</Time>
            <Position>
              <LatitudeDegrees>40.7609203644096851348876953125</LatitudeDegrees>
              <LongitudeDegrees>-4.01344173587858676910400390625</LongitudeDegrees>
            </Position>
            <AltitudeMeters>1537.4000244140625</AltitudeMeters>
            <DistanceMeters>NAN</DistanceMeters>
          </Trackpoint>
          <Trackpoint>
            <Time>2019-08-01T12:00:51.000Z</Time>
            <Position>
              <LatitudeDegrees>40.760950036346912384033203125</LatitudeDegrees>
              <LongitudeDegrees>-4.0134327672421932220458984375</LongitudeDegrees>
            </Position>
            <AltitudeMeters>1537.5999755859375</AltitudeMeters>
            <DistanceMeters>NAN</DistanceMeters>
          </Trackpoint>
          <Trackpoint>
            <Time>2019-08-01T12:00:52.000Z</Time>
            <Position>
              <LatitudeDegrees>40.760950036346912384033203125</LatitudeDegrees>
              <LongitudeDegrees>-4.0134327672421932220458984375</LongitudeDegrees>
            </Position>
            <AltitudeMeters>1537.800048828125</AltitudeMeters>
            <DistanceMeters>NAN</DistanceMeters>
          </Trackpoint>
          <Trackpoint>
            <Time>2019-08-01T12:00:53.000Z</Time>
            <Position>
              <LatitudeDegrees>40.76100669801235198974609375</LatitudeDegrees>
              <LongitudeDegrees>-4.01341156102716922760009765625</LongitudeDegrees>
            </Position>
            <AltitudeMeters>1538.199951171875</AltitudeMeters>
            <DistanceMeters>NAN</DistanceMeters>
          </Trackpoint>
          <Trackpoint>
            <Time>2019-08-01T12:00:54.000Z</Time>
            <Position>
              <LatitudeDegrees>40.76102874241769313812255859375</LatitudeDegrees>
              <LongitudeDegrees>-4.0134002454578876495361328125</LongitudeDegrees>
            </Position>
            <AltitudeMeters>1538.4000244140625</AltitudeMeters>
            <DistanceMeters>NAN</DistanceMeters>
          </Trackpoint>
          <Trackpoint>
            <Time>2019-08-01T12:00:55.000Z</Time>
            <Position>
              <LatitudeDegrees>40.76105271466076374053955078125</LatitudeDegrees>
              <LongitudeDegrees>-4.01338892988860607147216796875</LongitudeDegrees>
            </Position>
            <AltitudeMeters>1538.800048828125</AltitudeMeters>
            <DistanceMeters>NAN</DistanceMeters>
          </Trackpoint>
          <Trackpoint>
            <Time>2019-08-01T12:00:56.000Z</Time>
            <Position>
              <LatitudeDegrees>40.76107836328446865081787109375</LatitudeDegrees>
              <LongitudeDegrees>-4.0133777819573879241943359375</LongitudeDegrees>
            </Position>
            <AltitudeMeters>1539</AltitudeMeters>
            <DistanceMeters>NAN</DistanceMeters>
          </Trackpoint>
          <Trackpoint>
            <Time>2019-08-01T12:00:57.000Z</Time>
            <Position>
              <LatitudeDegrees>40.76110803522169589996337890625</LatitudeDegrees>
              <LongitudeDegrees>-4.013367556035518646240234375</LongitudeDegrees>
            </Position>
            <AltitudeMeters>1539.199951171875</AltitudeMeters>
            <DistanceMeters>NAN</DistanceMeters>
          </Trackpoint>
          <Trackpoint>
            <Time>2019-08-01T12:00:58.000Z</Time>
            <Position>
              <LatitudeDegrees>40.76113988645374774932861328125</LatitudeDegrees>
              <LongitudeDegrees>-4.013354480266571044921875</LongitudeDegrees>
            </Position>
            <AltitudeMeters>1539.4000244140625</AltitudeMeters>
            <DistanceMeters>NAN</DistanceMeters>
          </Trackpoint>
          <Trackpoint>
            <Time>2019-08-01T12:00:59.000Z</Time>
            <Position>
              <LatitudeDegrees>40.76117173768579959869384765625</LatitudeDegrees>
              <LongitudeDegrees>-4.0133449248969554901123046875</LongitudeDegrees>
            </Position>
            <AltitudeMeters>1540</AltitudeMeters>
            <DistanceMeters>NAN</DistanceMeters>
          </Trackpoint>
          <Trackpoint>
            <Time>2019-08-01T12:01:00.000Z</Time>
            <Position>
              <LatitudeDegrees>40.76120342127978801727294921875</LatitudeDegrees>
              <LongitudeDegrees>-4.01333293877542018890380859375</LongitudeDegrees>
            </Position>
            <AltitudeMeters>1540.4000244140625</AltitudeMeters>
            <DistanceMeters>NAN</DistanceMeters>
          </Trackpoint>
          <Trackpoint>
            <Time>2019-08-01T12:01:01.000Z</Time>
            <Position>
              <LatitudeDegrees>40.7612298242747783660888671875</LatitudeDegrees>
              <LongitudeDegrees>-4.01332204230129718780517578125</LongitudeDegrees>
            </Position>
            <AltitudeMeters>1540.800048828125</AltitudeMeters>
            <DistanceMeters>NAN</DistanceMeters>
          </Trackpoint>
          <Trackpoint>
            <Time>2019-08-01T12:01:02.000Z</Time>
            <Position>
              <LatitudeDegrees>40.76125253923237323760986328125</LatitudeDegrees>
              <LongitudeDegrees>-4.0133090503513813018798828125</LongitudeDegrees>
            </Position>
            <AltitudeMeters>1541</AltitudeMeters>
            <DistanceMeters>NAN</DistanceMeters>
          </Trackpoint>
          <Trackpoint>
            <Time>2019-08-01T12:01:03.000Z</Time>
            <Position>
              <LatitudeDegrees>40.76125253923237323760986328125</LatitudeDegrees>
              <LongitudeDegrees>-4.0133090503513813018798828125</LongitudeDegrees>
            </Position>
            <AltitudeMeters>1541.4000244140625</AltitudeMeters>
            <DistanceMeters>NAN</DistanceMeters>
          </Trackpoint>
          <Trackpoint>
            <Time>2019-08-01T12:01:04.000Z</Time>
            <Position>
              <LatitudeDegrees>40.76129159890115261077880859375</LatitudeDegrees>
              <LongitudeDegrees>-4.01329186744987964630126953125</LongitudeDegrees>
            </Position>
            <AltitudeMeters>1541.5999755859375</AltitudeMeters>
            <DistanceMeters>NAN</DistanceMeters>
          </Trackpoint>
          <Trackpoint>
            <Time>2019-08-01T12:01:05.000Z</Time>
            <Position>
              <LatitudeDegrees>40.76131054200232028961181640625</LatitudeDegrees>
              <LongitudeDegrees>-4.0132805518805980682373046875</LongitudeDegrees>
            </Position>
            <AltitudeMeters>1541.5999755859375</AltitudeMeters>
            <DistanceMeters>NAN</DistanceMeters>
          </Trackpoint>
          <Trackpoint>
            <Time>2019-08-01T12:01:06.000Z</Time>
            <Position>
              <LatitudeDegrees>40.761332251131534576416015625</LatitudeDegrees>
              <LongitudeDegrees>-4.0132694877684116363525390625</LongitudeDegrees>
            </Position>
            <AltitudeMeters>1541.800048828125</AltitudeMeters>
            <DistanceMeters>NAN</DistanceMeters>
          </Trackpoint>
          <Trackpoint>
            <Time>2019-08-01T12:01:07.000Z</Time>
            <Position>
              <LatitudeDegrees>40.76135429553687572479248046875</LatitudeDegrees>
              <LongitudeDegrees>-4.0132604353129863739013671875</LongitudeDegrees>
            </Position>
            <AltitudeMeters>1542</AltitudeMeters>
            <DistanceMeters>NAN</DistanceMeters>
          </Trackpoint>
          <Trackpoint>
            <Time>2019-08-01T12:01:08.000Z</Time>
            <Position>
              <LatitudeDegrees>40.76135429553687572479248046875</LatitudeDegrees>
              <LongitudeDegrees>-4.0132604353129863739013671875</LongitudeDegrees>
            </Position>
            <AltitudeMeters>1542.4000244140625</AltitudeMeters>
            <DistanceMeters>NAN</DistanceMeters>
          </Trackpoint>
          <Trackpoint>
            <Time>2019-08-01T12:01:09.000Z</Time>
            <Position>
              <LatitudeDegrees>40.7613910920917987823486328125</LatitudeDegrees>
              <LongitudeDegrees>-4.013244844973087310791015625</LongitudeDegrees>
            </Position>
            <AltitudeMeters>1542.800048828125</AltitudeMeters>
            <DistanceMeters>NAN</DistanceMeters>
          </Trackpoint>
          <Trackpoint>
            <Time>2019-08-01T12:01:10.000Z</Time>
            <Position>
              <LatitudeDegrees>40.76141632162034511566162109375</LatitudeDegrees>
              <LongitudeDegrees>-4.013235457241535186767578125</LongitudeDegrees>
            </Position>
            <AltitudeMeters>1543</AltitudeMeters>
            <DistanceMeters>NAN</DistanceMeters>
          </Trackpoint>
          <Trackpoint>
            <Time>2019-08-01T12:01:11.000Z</Time>
            <Position>
              <LatitudeDegrees>40.76144549064338207244873046875</LatitudeDegrees>
              <LongitudeDegrees>-4.0132202021777629852294921875</LongitudeDegrees>
            </Position>
            <AltitudeMeters>1543.199951171875</AltitudeMeters>
            <DistanceMeters>NAN</DistanceMeters>
          </Trackpoint>
          <Trackpoint>
            <Time>2019-08-01T12:01:12.000Z</Time>
            <Position>
              <LatitudeDegrees>40.76147365383803844451904296875</LatitudeDegrees>
              <LongitudeDegrees>-4.01320771314203739166259765625</LongitudeDegrees>
            </Position>
            <AltitudeMeters>1543.4000244140625</AltitudeMeters>
            <DistanceMeters>NAN</DistanceMeters>
          </Trackpoint>
          <Trackpoint>
            <Time>2019-08-01T12:01:13.000Z</Time>
            <Position>
              <LatitudeDegrees>40.76150449924170970916748046875</LatitudeDegrees>
              <LongitudeDegrees>-4.0131960622966289520263671875</LongitudeDegrees>
            </Position>
            <AltitudeMeters>1543.800048828125</AltitudeMeters>
            <DistanceMeters>NAN</DistanceMeters>
          </Trackpoint>
          <Trackpoint>
            <Time>2019-08-01T12:01:14.000Z</Time>
            <Position>
              <LatitudeDegrees>40.7615332491695880889892578125</LatitudeDegrees>
              <LongitudeDegrees>-4.01318575255572795867919921875</LongitudeDegrees>
            </Position>
            <AltitudeMeters>1544</AltitudeMeters>
            <DistanceMeters>NAN</DistanceMeters>
          </Trackpoint>
          <Trackpoint>
            <Time>2019-08-01T12:01:15.000Z</Time>
            <Position>
              <LatitudeDegrees>40.76156283728778362274169921875</LatitudeDegrees>
              <LongitudeDegrees>-4.01317368261516094207763671875</LongitudeDegrees>
            </Position>
            <AltitudeMeters>1544.4000244140625</AltitudeMeters>
            <DistanceMeters>NAN</DistanceMeters>
          </Trackpoint>
          <Trackpoint>
            <Time>2019-08-01T12:01:16.000Z</Time>
            <Position>
              <LatitudeDegrees>40.76156283728778362274169921875</LatitudeDegrees>
              <LongitudeDegrees>-4.01317368261516094207763671875</LongitudeDegrees>
            </Position>
            <AltitudeMeters>1544.5999755859375</AltitudeMeters>
            <DistanceMeters>NAN</DistanceMeters>
          </Trackpoint>
          <Trackpoint>
            <Time>2019-08-01T12:01:17.000Z</Time>
            <Position>
              <LatitudeDegrees>40.76161555945873260498046875</LatitudeDegrees>
              <LongitudeDegrees>-4.01315825991332530975341796875</LongitudeDegrees>
            </Position>
            <AltitudeMeters>1544.800048828125</AltitudeMeters>
            <DistanceMeters>NAN</DistanceMeters>
          </Trackpoint>
          <Trackpoint>
            <Time>2019-08-01T12:01:18.000Z</Time>
            <Position>
              <LatitudeDegrees>40.761646069586277008056640625</LatitudeDegrees>
              <LongitudeDegrees>-4.0131501294672489166259765625</LongitudeDegrees>
            </Position>
            <AltitudeMeters>1545</AltitudeMeters>
            <DistanceMeters>NAN</DistanceMeters>
          </Trackpoint>
          <Trackpoint>
            <Time>2019-08-01T12:01:19.000Z</Time>
            <Position>
              <LatitudeDegrees>40.7616760767996311187744140625</LatitudeDegrees>
              <LongitudeDegrees>-4.01314434595406055450439453125</LongitudeDegrees>
            </Position>
            <AltitudeMeters>1545.4000244140625</AltitudeMeters>
            <DistanceMeters>NAN</DistanceMeters>
          </Trackpoint>
          <Trackpoint>
            <Time>2019-08-01T12:01:20.000Z</Time>
            <Position>
              <LatitudeDegrees>40.7616760767996311187744140625</LatitudeDegrees>
              <LongitudeDegrees>-4.01314434595406055450439453125</LongitudeDegrees>
            </Position>
            <AltitudeMeters>1545.5999755859375</AltitudeMeters>
            <DistanceMeters>NAN</DistanceMeters>
          </Trackpoint>
          <Trackpoint>
            <Time>2019-08-01T12:01:21.000Z</Time>
            <Position>
              <LatitudeDegrees>40.76172963716089725494384765625</LatitudeDegrees>
              <LongitudeDegrees>-4.0131363831460475921630859375</LongitudeDegrees>
            </Position>
            <AltitudeMeters>1545.800048828125</AltitudeMeters>
            <DistanceMeters>NAN</DistanceMeters>
          </Trackpoint>
          <Trackpoint>
            <Time>2019-08-01T12:01:22.000Z</Time>
            <Position>
              <LatitudeDegrees>40.76175427995622158050537109375</LatitudeDegrees>
              <LongitudeDegrees>-4.01313143782317638397216796875</LongitudeDegrees>
            </Position>
            <AltitudeMeters>1546.199951171875</AltitudeMeters>
            <DistanceMeters>NAN</DistanceMeters>
          </Trackpoint>
          <Trackpoint>
            <Time>2019-08-01T12:01:23.000Z</Time>
            <Position>
              <LatitudeDegrees>40.76178244315087795257568359375</LatitudeDegrees>
              <LongitudeDegrees>-4.0131269954144954681396484375</LongitudeDegrees>
            </Position>
            <AltitudeMeters>1546.199951171875</AltitudeMeters>
            <DistanceMeters>NAN</DistanceMeters>
          </Trackpoint>
          <Trackpoint>
            <Time>2019-08-01T12:01:24.000Z</Time>
            <Position>
              <LatitudeDegrees>40.761807002127170562744140625</LatitudeDegrees>
              <LongitudeDegrees>-4.01312104426324367523193359375</LongitudeDegrees>
            </Position>
            <AltitudeMeters>1546.5999755859375</AltitudeMeters>
            <DistanceMeters>NAN</DistanceMeters>
          </Trackpoint>
          <Trackpoint>
            <Time>2019-08-01T12:01:25.000Z</Time>
            <Position>
              <LatitudeDegrees>40.76182820834219455718994140625</LatitudeDegrees>
              <LongitudeDegrees>-4.01311106979846954345703125</LongitudeDegrees>
            </Position>
            <AltitudeMeters>1547</AltitudeMeters>
            <DistanceMeters>NAN</DistanceMeters>
          </Trackpoint>
          <Trackpoint>
            <Time>2019-08-01T12:01:26.000Z</Time>
            <Position>
              <LatitudeDegrees>40.76185293495655059814453125</LatitudeDegrees>
              <LongitudeDegrees>-4.0131038613617420196533203125</LongitudeDegrees>
            </Position>
            <AltitudeMeters>1547.199951171875</AltitudeMeters>
            <DistanceMeters>NAN</DistanceMeters>
          </Trackpoint>
          <Trackpoint>
            <Time>2019-08-01T12:01:27.000Z</Time>
            <Position>
              <LatitudeDegrees>40.76187648810446262359619140625</LatitudeDegrees>
              <LongitudeDegrees>-4.01309497654438018798828125</LongitudeDegrees>
            </Position>
            <AltitudeMeters>1547.800048828125</AltitudeMeters>
            <DistanceMeters>NAN</DistanceMeters>
          </Trackpoint>
          <Trackpoint>
            <Time>2019-08-01T12:01:28.000Z</Time>
            <Position>
              <LatitudeDegrees>40.76189928688108921051025390625</LatitudeDegrees>
              <LongitudeDegrees>-4.0130887739360332489013671875</LongitudeDegrees>
            </Position>
            <AltitudeMeters>1548</AltitudeMeters>
            <DistanceMeters>NAN</DistanceMeters>
          </Trackpoint>
          <Trackpoint>
            <Time>2019-08-01T12:01:29.000Z</Time>
            <Position>
              <LatitudeDegrees>40.76189928688108921051025390625</LatitudeDegrees>
              <LongitudeDegrees>-4.0130887739360332489013671875</LongitudeDegrees>
            </Position>
            <AltitudeMeters>1548.199951171875</AltitudeMeters>
            <DistanceMeters>NAN</DistanceMeters>
          </Trackpoint>
          <Trackpoint>
            <Time>2019-08-01T12:01:30.000Z</Time>
            <Position>
              <LatitudeDegrees>40.761965252459049224853515625</LatitudeDegrees>
              <LongitudeDegrees>-4.0130636282265186309814453125</LongitudeDegrees>
            </Position>
            <AltitudeMeters>1548.4000244140625</AltitudeMeters>
            <DistanceMeters>NAN</DistanceMeters>
          </Trackpoint>
          <Trackpoint>
            <Time>2019-08-01T12:01:31.000Z</Time>
            <Position>
              <LatitudeDegrees>40.7619969360530376434326171875</LatitudeDegrees>
              <LongitudeDegrees>-4.013053067028522491455078125</LongitudeDegrees>
            </Position>
            <AltitudeMeters>1548.800048828125</AltitudeMeters>
            <DistanceMeters>NAN</DistanceMeters>
          </Trackpoint>
          <Trackpoint>
            <Time>2019-08-01T12:01:32.000Z</Time>
            <Position>
              <LatitudeDegrees>40.76202861964702606201171875</LatitudeDegrees>
              <LongitudeDegrees>-4.01304175145924091339111328125</LongitudeDegrees>
            </Position>
            <AltitudeMeters>1549.199951171875</AltitudeMeters>
            <DistanceMeters>NAN</DistanceMeters>
          </Trackpoint>
          <Trackpoint>
            <Time>2019-08-01T12:01:33.000Z</Time>
            <Position>
              <LatitudeDegrees>40.76206214725971221923828125</LatitudeDegrees>
              <LongitudeDegrees>-4.01302817277610301971435546875</LongitudeDegrees>
            </Position>
            <AltitudeMeters>1549.199951171875</AltitudeMeters>
            <DistanceMeters>NAN</DistanceMeters>
          </Trackpoint>
          <Trackpoint>
            <Time>2019-08-01T12:01:34.000Z</Time>
            <Position>
              <LatitudeDegrees>40.76209374703466892242431640625</LatitudeDegrees>
              <LongitudeDegrees>-4.01301275007426738739013671875</LongitudeDegrees>
            </Position>
            <AltitudeMeters>1549.5999755859375</AltitudeMeters>
            <DistanceMeters>NAN</DistanceMeters>
          </Trackpoint>
          <Trackpoint>
            <Time>2019-08-01T12:01:35.000Z</Time>
            <Position>
              <LatitudeDegrees>40.76209374703466892242431640625</LatitudeDegrees>
              <LongitudeDegrees>-4.01301275007426738739013671875</LongitudeDegrees>
            </Position>
            <AltitudeMeters>1550</AltitudeMeters>
            <DistanceMeters>NAN</DistanceMeters>
          </Trackpoint>
          <Trackpoint>
            <Time>2019-08-01T12:01:36.000Z</Time>
            <Position>
              <LatitudeDegrees>40.76215359382331371307373046875</LatitudeDegrees>
              <LongitudeDegrees>-4.01297067292034626007080078125</LongitudeDegrees>
            </Position>
            <AltitudeMeters>1550.199951171875</AltitudeMeters>
            <DistanceMeters>NAN</DistanceMeters>
          </Trackpoint>
          <Trackpoint>
            <Time>2019-08-01T12:01:37.000Z</Time>
            <Position>
              <LatitudeDegrees>40.762184523046016693115234375</LatitudeDegrees>
              <LongitudeDegrees>-4.01295055635273456573486328125</LongitudeDegrees>
            </Position>
            <AltitudeMeters>1550.4000244140625</AltitudeMeters>
            <DistanceMeters>NAN</DistanceMeters>
          </Trackpoint>
          <Trackpoint>
            <Time>2019-08-01T12:01:38.000Z</Time>
            <Position>
              <LatitudeDegrees>40.7622138597071170806884765625</LatitudeDegrees>
              <LongitudeDegrees>-4.01292993687093257904052734375</LongitudeDegrees>
            </Position>
            <AltitudeMeters>1550.5999755859375</AltitudeMeters>
            <DistanceMeters>NAN</DistanceMeters>
          </Trackpoint>
          <Trackpoint>
            <Time>2019-08-01T12:01:39.000Z</Time>
            <Position>
              <LatitudeDegrees>40.76223858632147312164306640625</LatitudeDegrees>
              <LongitudeDegrees>-4.0129094012081623077392578125</LongitudeDegrees>
            </Position>
            <AltitudeMeters>1551</AltitudeMeters>
            <DistanceMeters>NAN</DistanceMeters>
          </Trackpoint>
          <Trackpoint>
            <Time>2019-08-01T12:01:40.000Z</Time>
            <Position>
              <LatitudeDegrees>40.76226641424000263214111328125</LatitudeDegrees>
              <LongitudeDegrees>-4.012887775897979736328125</LongitudeDegrees>
            </Position>
            <AltitudeMeters>1551.199951171875</AltitudeMeters>
            <DistanceMeters>NAN</DistanceMeters>
          </Trackpoint>
          <Trackpoint>
            <Time>2019-08-01T12:01:41.000Z</Time>
            <Position>
              <LatitudeDegrees>40.76229306869208812713623046875</LatitudeDegrees>
              <LongitudeDegrees>-4.01286690495908260345458984375</LongitudeDegrees>
            </Position>
            <AltitudeMeters>1551.4000244140625</AltitudeMeters>
            <DistanceMeters>NAN</DistanceMeters>
          </Trackpoint>
          <Trackpoint>
            <Time>2019-08-01T12:01:42.000Z</Time>
            <Position>
              <LatitudeDegrees>40.7623184658586978912353515625</LatitudeDegrees>
              <LongitudeDegrees>-4.01284611783921718597412109375</LongitudeDegrees>
            </Position>
            <AltitudeMeters>1551.800048828125</AltitudeMeters>
            <DistanceMeters>NAN</DistanceMeters>
          </Trackpoint>
          <Trackpoint>
            <Time>2019-08-01T12:01:43.000Z</Time>
            <Position>
              <LatitudeDegrees>40.762346126139163970947265625</LatitudeDegrees>
              <LongitudeDegrees>-4.0128249116241931915283203125</LongitudeDegrees>
            </Position>
            <AltitudeMeters>1552.199951171875</AltitudeMeters>
            <DistanceMeters>NAN</DistanceMeters>
          </Trackpoint>
          <Trackpoint>
            <Time>2019-08-01T12:01:44.000Z</Time>
            <Position>
              <LatitudeDegrees>40.7623751275241374969482421875</LatitudeDegrees>
              <LongitudeDegrees>-4.0128051303327083587646484375</LongitudeDegrees>
            </Position>
            <AltitudeMeters>1552.4000244140625</AltitudeMeters>
            <DistanceMeters>NAN</DistanceMeters>
          </Trackpoint>
          <Trackpoint>
            <Time>2019-08-01T12:01:45.000Z</Time>
            <Position>
              <LatitudeDegrees>40.7623751275241374969482421875</LatitudeDegrees>
              <LongitudeDegrees>-4.0128051303327083587646484375</LongitudeDegrees>
            </Position>
            <AltitudeMeters>1552.5999755859375</AltitudeMeters>
            <DistanceMeters>NAN</DistanceMeters>
          </Trackpoint>
          <Trackpoint>
            <Time>2019-08-01T12:01:46.000Z</Time>
            <Position>
              <LatitudeDegrees>40.76242885552346706390380859375</LatitudeDegrees>
              <LongitudeDegrees>-4.0127550065517425537109375</LongitudeDegrees>
            </Position>
            <AltitudeMeters>1552.800048828125</AltitudeMeters>
            <DistanceMeters>NAN</DistanceMeters>
          </Trackpoint>
          <Trackpoint>
            <Time>2019-08-01T12:01:47.000Z</Time>
            <Position>
              <LatitudeDegrees>40.76245550997555255889892578125</LatitudeDegrees>
              <LongitudeDegrees>-4.01272860355675220489501953125</LongitudeDegrees>
            </Position>
            <AltitudeMeters>1553.199951171875</AltitudeMeters>
            <DistanceMeters>NAN</DistanceMeters>
          </Trackpoint>
          <Trackpoint>
            <Time>2019-08-01T12:01:48.000Z</Time>
            <Position>
              <LatitudeDegrees>40.7624817453324794769287109375</LatitudeDegrees>
              <LongitudeDegrees>-4.01270345784723758697509765625</LongitudeDegrees>
            </Position>
            <AltitudeMeters>1553.4000244140625</AltitudeMeters>
            <DistanceMeters>NAN</DistanceMeters>
          </Trackpoint>
          <Trackpoint>
            <Time>2019-08-01T12:01:49.000Z</Time>
            <Position>
              <LatitudeDegrees>40.76250596903264522552490234375</LatitudeDegrees>
              <LongitudeDegrees>-4.01267831213772296905517578125</LongitudeDegrees>
            </Position>
            <AltitudeMeters>1553.800048828125</AltitudeMeters>
            <DistanceMeters>NAN</DistanceMeters>
          </Trackpoint>
          <Trackpoint>
            <Time>2019-08-01T12:01:50.000Z</Time>
            <Position>
              <LatitudeDegrees>40.76250596903264522552490234375</LatitudeDegrees>
              <LongitudeDegrees>-4.01267831213772296905517578125</LongitudeDegrees>
            </Position>
            <AltitudeMeters>1554</AltitudeMeters>
            <DistanceMeters>NAN</DistanceMeters>
          </Trackpoint>
          <Trackpoint>
            <Time>2019-08-01T12:01:51.000Z</Time>
            <Position>
              <LatitudeDegrees>40.76255391351878643035888671875</LatitudeDegrees>
              <LongitudeDegrees>-4.01262433268129825592041015625</LongitudeDegrees>
            </Position>
            <AltitudeMeters>1554.199951171875</AltitudeMeters>
            <DistanceMeters>NAN</DistanceMeters>
          </Trackpoint>
          <Trackpoint>
            <Time>2019-08-01T12:01:52.000Z</Time>
            <Position>
              <LatitudeDegrees>40.76257579028606414794921875</LatitudeDegrees>
              <LongitudeDegrees>-4.012597091495990753173828125</LongitudeDegrees>
            </Position>
            <AltitudeMeters>1554.5999755859375</AltitudeMeters>
            <DistanceMeters>NAN</DistanceMeters>
          </Trackpoint>
          <Trackpoint>
            <Time>2019-08-01T12:01:53.000Z</Time>
            <Position>
              <LatitudeDegrees>40.7625974155962467193603515625</LatitudeDegrees>
              <LongitudeDegrees>-4.01256884448230266571044921875</LongitudeDegrees>
            </Position>
            <AltitudeMeters>1554.800048828125</AltitudeMeters>
            <DistanceMeters>NAN</DistanceMeters>
          </Trackpoint>
          <Trackpoint>
            <Time>2019-08-01T12:01:54.000Z</Time>
            <Position>
              <LatitudeDegrees>40.7626222260296344757080078125</LatitudeDegrees>
              <LongitudeDegrees>-4.0125416032969951629638671875</LongitudeDegrees>
            </Position>
            <AltitudeMeters>1555.199951171875</AltitudeMeters>
            <DistanceMeters>NAN</DistanceMeters>
          </Trackpoint>
          <Trackpoint>
            <Time>2019-08-01T12:01:55.000Z</Time>
            <Position>
              <LatitudeDegrees>40.7626470364630222320556640625</LatitudeDegrees>
              <LongitudeDegrees>-4.01251469738781452178955078125</LongitudeDegrees>
            </Position>
            <AltitudeMeters>1555.800048828125</AltitudeMeters>
            <DistanceMeters>NAN</DistanceMeters>
          </Trackpoint>
          <Trackpoint>
            <Time>2019-08-01T12:01:56.000Z</Time>
            <Position>
              <LatitudeDegrees>40.7626470364630222320556640625</LatitudeDegrees>
              <LongitudeDegrees>-4.01251469738781452178955078125</LongitudeDegrees>
            </Position>
            <AltitudeMeters>1556</AltitudeMeters>
            <DistanceMeters>NAN</DistanceMeters>
          </Trackpoint>
          <Trackpoint>
            <Time>2019-08-01T12:01:57.000Z</Time>
            <Position>
              <LatitudeDegrees>40.76269540004432201385498046875</LatitudeDegrees>
              <LongitudeDegrees>-4.012458622455596923828125</LongitudeDegrees>
            </Position>
            <AltitudeMeters>1556.199951171875</AltitudeMeters>
            <DistanceMeters>NAN</DistanceMeters>
          </Trackpoint>
          <Trackpoint>
            <Time>2019-08-01T12:01:58.000Z</Time>
            <Position>
              <LatitudeDegrees>40.76271903701126575469970703125</LatitudeDegrees>
              <LongitudeDegrees>-4.012430123984813690185546875</LongitudeDegrees>
            </Position>
            <AltitudeMeters>1556.4000244140625</AltitudeMeters>
            <DistanceMeters>NAN</DistanceMeters>
          </Trackpoint>
          <Trackpoint>
            <Time>2019-08-01T12:01:59.000Z</Time>
            <Position>
              <LatitudeDegrees>40.76274183578789234161376953125</LatitudeDegrees>
              <LongitudeDegrees>-4.012401960790157318115234375</LongitudeDegrees>
            </Position>
            <AltitudeMeters>1556.800048828125</AltitudeMeters>
            <DistanceMeters>NAN</DistanceMeters>
          </Trackpoint>
          <Trackpoint>
            <Time>2019-08-01T12:02:00.000Z</Time>
            <Position>
              <LatitudeDegrees>40.76276396401226520538330078125</LatitudeDegrees>
              <LongitudeDegrees>-4.012373127043247222900390625</LongitudeDegrees>
            </Position>
            <AltitudeMeters>1557</AltitudeMeters>
            <DistanceMeters>NAN</DistanceMeters>
          </Trackpoint>
          <Trackpoint>
            <Time>2019-08-01T12:02:01.000Z</Time>
            <Position>
              <LatitudeDegrees>40.7627870142459869384765625</LatitudeDegrees>
              <LongitudeDegrees>-4.01234454475343227386474609375</LongitudeDegrees>
            </Position>
            <AltitudeMeters>1557.199951171875</AltitudeMeters>
            <DistanceMeters>NAN</DistanceMeters>
          </Trackpoint>
          <Trackpoint>
            <Time>2019-08-01T12:02:02.000Z</Time>
            <Position>
              <LatitudeDegrees>40.7628079690039157867431640625</LatitudeDegrees>
              <LongitudeDegrees>-4.01231504045426845550537109375</LongitudeDegrees>
            </Position>
            <AltitudeMeters>1557.4000244140625</AltitudeMeters>
            <DistanceMeters>NAN</DistanceMeters>
          </Trackpoint>
          <Trackpoint>
            <Time>2019-08-01T12:02:03.000Z</Time>
            <Position>
              <LatitudeDegrees>40.7628270797431468963623046875</LatitudeDegrees>
              <LongitudeDegrees>-4.01228469796478748321533203125</LongitudeDegrees>
            </Position>
            <AltitudeMeters>1557.5999755859375</AltitudeMeters>
            <DistanceMeters>NAN</DistanceMeters>
          </Trackpoint>
          <Trackpoint>
            <Time>2019-08-01T12:02:04.000Z</Time>
            <Position>
              <LatitudeDegrees>40.762843005359172821044921875</LatitudeDegrees>
              <LongitudeDegrees>-4.01225435547530651092529296875</LongitudeDegrees>
            </Position>
            <AltitudeMeters>1557.800048828125</AltitudeMeters>
            <DistanceMeters>NAN</DistanceMeters>
          </Trackpoint>
          <Trackpoint>
            <Time>2019-08-01T12:02:05.000Z</Time>
            <Position>
              <LatitudeDegrees>40.76286010444164276123046875</LatitudeDegrees>
              <LongitudeDegrees>-4.01222451590001583099365234375</LongitudeDegrees>
            </Position>
            <AltitudeMeters>1558.199951171875</AltitudeMeters>
            <DistanceMeters>NAN</DistanceMeters>
          </Trackpoint>
          <Trackpoint>
            <Time>2019-08-01T12:02:06.000Z</Time>
            <Position>
              <LatitudeDegrees>40.7628770358860492706298828125</LatitudeDegrees>
              <LongitudeDegrees>-4.01219517923891544342041015625</LongitudeDegrees>
            </Position>
            <AltitudeMeters>1558.4000244140625</AltitudeMeters>
            <DistanceMeters>NAN</DistanceMeters>
          </Trackpoint>
          <Trackpoint>
            <Time>2019-08-01T12:02:07.000Z</Time>
            <Position>
              <LatitudeDegrees>40.76289488933980464935302734375</LatitudeDegrees>
              <LongitudeDegrees>-4.0121676027774810791015625</LongitudeDegrees>
            </Position>
            <AltitudeMeters>1558.4000244140625</AltitudeMeters>
            <DistanceMeters>NAN</DistanceMeters>
          </Trackpoint>
          <Trackpoint>
            <Time>2019-08-01T12:02:08.000Z</Time>
            <Position>
              <LatitudeDegrees>40.76291316188871860504150390625</LatitudeDegrees>
              <LongitudeDegrees>-4.01213985867798328399658203125</LongitudeDegrees>
            </Position>
            <AltitudeMeters>1558.800048828125</AltitudeMeters>
            <DistanceMeters>NAN</DistanceMeters>
          </Trackpoint>
          <Trackpoint>
            <Time>2019-08-01T12:02:09.000Z</Time>
            <Position>
              <LatitudeDegrees>40.76293042860925197601318359375</LatitudeDegrees>
              <LongitudeDegrees>-4.012112282216548919677734375</LongitudeDegrees>
            </Position>
            <AltitudeMeters>1559</AltitudeMeters>
            <DistanceMeters>NAN</DistanceMeters>
          </Trackpoint>
          <Trackpoint>
            <Time>2019-08-01T12:02:10.000Z</Time>
            <Position>
              <LatitudeDegrees>40.76294585131108760833740234375</LatitudeDegrees>
              <LongitudeDegrees>-4.012083113193511962890625</LongitudeDegrees>
            </Position>
            <AltitudeMeters>1559.4000244140625</AltitudeMeters>
            <DistanceMeters>NAN</DistanceMeters>
          </Trackpoint>
          <Trackpoint>
            <Time>2019-08-01T12:02:11.000Z</Time>
            <Position>
              <LatitudeDegrees>40.76296227984130382537841796875</LatitudeDegrees>
              <LongitudeDegrees>-4.01205520145595073699951171875</LongitudeDegrees>
            </Position>
            <AltitudeMeters>1559.5999755859375</AltitudeMeters>
            <DistanceMeters>NAN</DistanceMeters>
          </Trackpoint>
          <Trackpoint>
            <Time>2019-08-01T12:02:12.000Z</Time>
            <Position>
              <LatitudeDegrees>40.7629774510860443115234375</LatitudeDegrees>
              <LongitudeDegrees>-4.01202837936580181121826171875</LongitudeDegrees>
            </Position>
            <AltitudeMeters>1560</AltitudeMeters>
            <DistanceMeters>NAN</DistanceMeters>
          </Trackpoint>
          <Trackpoint>
            <Time>2019-08-01T12:02:13.000Z</Time>
            <Position>
              <LatitudeDegrees>40.76299429871141910552978515625</LatitudeDegrees>
              <LongitudeDegrees>-4.011999629437923431396484375</LongitudeDegrees>
            </Position>
            <AltitudeMeters>1560.4000244140625</AltitudeMeters>
            <DistanceMeters>NAN</DistanceMeters>
          </Trackpoint>
          <Trackpoint>
            <Time>2019-08-01T12:02:14.000Z</Time>
            <Position>
              <LatitudeDegrees>40.7630235515534877777099609375</LatitudeDegrees>
              <LongitudeDegrees>-4.01196668855845928192138671875</LongitudeDegrees>
            </Position>
            <AltitudeMeters>1560.800048828125</AltitudeMeters>
            <DistanceMeters>NAN</DistanceMeters>
          </Trackpoint>
          <Trackpoint>
            <Time>2019-08-01T12:02:15.000Z</Time>
            <Position>
              <LatitudeDegrees>40.76304274611175060272216796875</LatitudeDegrees>
              <LongitudeDegrees>-4.01193383149802684783935546875</LongitudeDegrees>
            </Position>
            <AltitudeMeters>1561</AltitudeMeters>
            <DistanceMeters>NAN</DistanceMeters>
          </Trackpoint>
          <Trackpoint>
            <Time>2019-08-01T12:02:16.000Z</Time>
            <Position>
              <LatitudeDegrees>40.76306018047034740447998046875</LatitudeDegrees>
              <LongitudeDegrees>-4.01190047152340412139892578125</LongitudeDegrees>
            </Position>
            <AltitudeMeters>1561.199951171875</AltitudeMeters>
            <DistanceMeters>NAN</DistanceMeters>
          </Trackpoint>
          <Trackpoint>
            <Time>2019-08-01T12:02:17.000Z</Time>
            <Position>
              <LatitudeDegrees>40.763075016438961029052734375</LatitudeDegrees>
              <LongitudeDegrees>-4.0118671953678131103515625</LongitudeDegrees>
            </Position>
            <AltitudeMeters>1561.5999755859375</AltitudeMeters>
            <DistanceMeters>NAN</DistanceMeters>
          </Trackpoint>
          <Trackpoint>
            <Time>2019-08-01T12:02:18.000Z</Time>
            <Position>
              <LatitudeDegrees>40.7630879245698451995849609375</LatitudeDegrees>
              <LongitudeDegrees>-4.0118328295648097991943359375</LongitudeDegrees>
            </Position>
            <AltitudeMeters>1561.800048828125</AltitudeMeters>
            <DistanceMeters>NAN</DistanceMeters>
          </Trackpoint>
          <Trackpoint>
            <Time>2019-08-01T12:02:19.000Z</Time>
            <Position>
              <LatitudeDegrees>40.763101167976856231689453125</LatitudeDegrees>
              <LongitudeDegrees>-4.01179737411439418792724609375</LongitudeDegrees>
            </Position>
            <AltitudeMeters>1562</AltitudeMeters>
            <DistanceMeters>NAN</DistanceMeters>
          </Trackpoint>
          <Trackpoint>
            <Time>2019-08-01T12:02:20.000Z</Time>
            <Position>
              <LatitudeDegrees>40.76311382465064525604248046875</LatitudeDegrees>
              <LongitudeDegrees>-4.0117610804736614227294921875</LongitudeDegrees>
            </Position>
            <AltitudeMeters>1562.4000244140625</AltitudeMeters>
            <DistanceMeters>NAN</DistanceMeters>
          </Trackpoint>
          <Trackpoint>
            <Time>2019-08-01T12:02:21.000Z</Time>
            <Position>
              <LatitudeDegrees>40.76312723569571971893310546875</LatitudeDegrees>
              <LongitudeDegrees>-4.0117245353758335113525390625</LongitudeDegrees>
            </Position>
            <AltitudeMeters>1562.5999755859375</AltitudeMeters>
            <DistanceMeters>NAN</DistanceMeters>
          </Trackpoint>
          <Trackpoint>
            <Time>2019-08-01T12:02:22.000Z</Time>
            <Position>
              <LatitudeDegrees>40.76313746161758899688720703125</LatitudeDegrees>
              <LongitudeDegrees>-4.01168723590672016143798828125</LongitudeDegrees>
            </Position>
            <AltitudeMeters>1562.5999755859375</AltitudeMeters>
            <DistanceMeters>NAN</DistanceMeters>
          </Trackpoint>
          <Trackpoint>
            <Time>2019-08-01T12:02:23.000Z</Time>
            <Position>
              <LatitudeDegrees>40.76314710080623626708984375</LatitudeDegrees>
              <LongitudeDegrees>-4.0116487629711627960205078125</LongitudeDegrees>
            </Position>
            <AltitudeMeters>1563</AltitudeMeters>
            <DistanceMeters>NAN</DistanceMeters>
          </Trackpoint>
          <Trackpoint>
            <Time>2019-08-01T12:02:24.000Z</Time>
            <Position>
              <LatitudeDegrees>40.763156153261661529541015625</LatitudeDegrees>
              <LongitudeDegrees>-4.01161037385463714599609375</LongitudeDegrees>
            </Position>
            <AltitudeMeters>1563.199951171875</AltitudeMeters>
            <DistanceMeters>NAN</DistanceMeters>
          </Trackpoint>
          <Trackpoint>
            <Time>2019-08-01T12:02:25.000Z</Time>
            <Position>
              <LatitudeDegrees>40.76317199505865573883056640625</LatitudeDegrees>
              <LongitudeDegrees>-4.0115706436336040496826171875</LongitudeDegrees>
            </Position>
            <AltitudeMeters>1563.4000244140625</AltitudeMeters>
            <DistanceMeters>NAN</DistanceMeters>
          </Trackpoint>
          <Trackpoint>
            <Time>2019-08-01T12:02:26.000Z</Time>
            <Position>
              <LatitudeDegrees>40.76318331062793731689453125</LatitudeDegrees>
              <LongitudeDegrees>-4.0115320868790149688720703125</LongitudeDegrees>
            </Position>
            <AltitudeMeters>1563.5999755859375</AltitudeMeters>
            <DistanceMeters>NAN</DistanceMeters>
          </Trackpoint>
          <Trackpoint>
            <Time>2019-08-01T12:02:27.000Z</Time>
            <Position>
              <LatitudeDegrees>40.7631938718259334564208984375</LatitudeDegrees>
              <LongitudeDegrees>-4.01149394921958446502685546875</LongitudeDegrees>
            </Position>
            <AltitudeMeters>1563.800048828125</AltitudeMeters>
            <DistanceMeters>NAN</DistanceMeters>
          </Trackpoint>
          <Trackpoint>
            <Time>2019-08-01T12:02:28.000Z</Time>
            <Position>
              <LatitudeDegrees>40.76320250518620014190673828125</LatitudeDegrees>
              <LongitudeDegrees>-4.011455476284027099609375</LongitudeDegrees>
            </Position>
            <AltitudeMeters>1563.800048828125</AltitudeMeters>
            <DistanceMeters>NAN</DistanceMeters>
          </Trackpoint>
          <Trackpoint>
            <Time>2019-08-01T12:02:29.000Z</Time>
            <Position>
              <LatitudeDegrees>40.76321139000356197357177734375</LatitudeDegrees>
              <LongitudeDegrees>-4.0114164166152477264404296875</LongitudeDegrees>
            </Position>
            <AltitudeMeters>1564</AltitudeMeters>
            <DistanceMeters>NAN</DistanceMeters>
          </Trackpoint>
          <Trackpoint>
            <Time>2019-08-01T12:02:30.000Z</Time>
            <Position>
              <LatitudeDegrees>40.76321960426867008209228515625</LatitudeDegrees>
              <LongitudeDegrees>-4.0113775245845317840576171875</LongitudeDegrees>
            </Position>
            <AltitudeMeters>1564.4000244140625</AltitudeMeters>
            <DistanceMeters>NAN</DistanceMeters>
          </Trackpoint>
          <Trackpoint>
            <Time>2019-08-01T12:02:31.000Z</Time>
            <Position>
              <LatitudeDegrees>40.76322882436215877532958984375</LatitudeDegrees>
              <LongitudeDegrees>-4.0113393031060695648193359375</LongitudeDegrees>
            </Position>
            <AltitudeMeters>1564.5999755859375</AltitudeMeters>
            <DistanceMeters>NAN</DistanceMeters>
          </Trackpoint>
          <Trackpoint>
            <Time>2019-08-01T12:02:32.000Z</Time>
            <Position>
              <LatitudeDegrees>40.76323670335114002227783203125</LatitudeDegrees>
              <LongitudeDegrees>-4.01130191981792449951171875</LongitudeDegrees>
            </Position>
            <AltitudeMeters>1564.800048828125</AltitudeMeters>
            <DistanceMeters>NAN</DistanceMeters>
          </Trackpoint>
          <Trackpoint>
            <Time>2019-08-01T12:02:33.000Z</Time>
            <Position>
              <LatitudeDegrees>40.76324424706399440765380859375</LatitudeDegrees>
              <LongitudeDegrees>-4.01126512326300144195556640625</LongitudeDegrees>
            </Position>
            <AltitudeMeters>1565.199951171875</AltitudeMeters>
            <DistanceMeters>NAN</DistanceMeters>
          </Trackpoint>
          <Trackpoint>
            <Time>2019-08-01T12:02:34.000Z</Time>
            <Position>
              <LatitudeDegrees>40.763249695301055908203125</LatitudeDegrees>
              <LongitudeDegrees>-4.0112288296222686767578125</LongitudeDegrees>
            </Position>
            <AltitudeMeters>1565.4000244140625</AltitudeMeters>
            <DistanceMeters>NAN</DistanceMeters>
          </Trackpoint>
          <Trackpoint>
            <Time>2019-08-01T12:02:35.000Z</Time>
            <Position>
              <LatitudeDegrees>40.76325397007167339324951171875</LatitudeDegrees>
              <LongitudeDegrees>-4.01119220070540904998779296875</LongitudeDegrees>
            </Position>
            <AltitudeMeters>1565.5999755859375</AltitudeMeters>
            <DistanceMeters>NAN</DistanceMeters>
          </Trackpoint>
          <Trackpoint>
            <Time>2019-08-01T12:02:36.000Z</Time>
            <Position>
              <LatitudeDegrees>40.76325698755681514739990234375</LatitudeDegrees>
              <LongitudeDegrees>-4.011155404150485992431640625</LongitudeDegrees>
            </Position>
            <AltitudeMeters>1566</AltitudeMeters>
            <DistanceMeters>NAN</DistanceMeters>
          </Trackpoint>
          <Trackpoint>
            <Time>2019-08-01T12:02:37.000Z</Time>
            <Position>
              <LatitudeDegrees>40.76325950212776660919189453125</LatitudeDegrees>
              <LongitudeDegrees>-4.01111911050975322723388671875</LongitudeDegrees>
            </Position>
            <AltitudeMeters>1566.4000244140625</AltitudeMeters>
            <DistanceMeters>NAN</DistanceMeters>
          </Trackpoint>
          <Trackpoint>
            <Time>2019-08-01T12:02:38.000Z</Time>
            <Position>
              <LatitudeDegrees>40.76327475719153881072998046875</LatitudeDegrees>
              <LongitudeDegrees>-4.01108038611710071563720703125</LongitudeDegrees>
            </Position>
            <AltitudeMeters>1566.5999755859375</AltitudeMeters>
            <DistanceMeters>NAN</DistanceMeters>
          </Trackpoint>
          <Trackpoint>
            <Time>2019-08-01T12:02:39.000Z</Time>
            <Position>
              <LatitudeDegrees>40.76328012160956859588623046875</LatitudeDegrees>
              <LongitudeDegrees>-4.0110442601144313812255859375</LongitudeDegrees>
            </Position>
            <AltitudeMeters>1567</AltitudeMeters>
            <DistanceMeters>NAN</DistanceMeters>
          </Trackpoint>
          <Trackpoint>
            <Time>2019-08-01T12:02:40.000Z</Time>
            <Position>
              <LatitudeDegrees>40.76328515075147151947021484375</LatitudeDegrees>
              <LongitudeDegrees>-4.01100880466401576995849609375</LongitudeDegrees>
            </Position>
            <AltitudeMeters>1567.199951171875</AltitudeMeters>
            <DistanceMeters>NAN</DistanceMeters>
          </Trackpoint>
          <Trackpoint>
            <Time>2019-08-01T12:02:41.000Z</Time>
            <Position>
              <LatitudeDegrees>40.7632912695407867431640625</LatitudeDegrees>
              <LongitudeDegrees>-4.01097494177520275115966796875</LongitudeDegrees>
            </Position>
            <AltitudeMeters>1567.4000244140625</AltitudeMeters>
            <DistanceMeters>NAN</DistanceMeters>
          </Trackpoint>
          <Trackpoint>
            <Time>2019-08-01T12:02:42.000Z</Time>
            <Position>
              <LatitudeDegrees>40.763296298682689666748046875</LatitudeDegrees>
              <LongitudeDegrees>-4.01094443164765834808349609375</LongitudeDegrees>
            </Position>
            <AltitudeMeters>1567.800048828125</AltitudeMeters>
            <DistanceMeters>NAN</DistanceMeters>
          </Trackpoint>
          <Trackpoint>
            <Time>2019-08-01T12:02:43.000Z</Time>
            <Position>
              <LatitudeDegrees>40.7633004896342754364013671875</LatitudeDegrees>
              <LongitudeDegrees>-4.0109150111675262451171875</LongitudeDegrees>
            </Position>
            <AltitudeMeters>1568</AltitudeMeters>
            <DistanceMeters>NAN</DistanceMeters>
          </Trackpoint>
          <Trackpoint>
            <Time>2019-08-01T12:02:44.000Z</Time>
            <Position>
              <LatitudeDegrees>40.76330392621457576751708984375</LatitudeDegrees>
              <LongitudeDegrees>-4.01088257320225238800048828125</LongitudeDegrees>
            </Position>
            <AltitudeMeters>1568.4000244140625</AltitudeMeters>
            <DistanceMeters>NAN</DistanceMeters>
          </Trackpoint>
          <Trackpoint>
            <Time>2019-08-01T12:02:45.000Z</Time>
            <Position>
              <LatitudeDegrees>40.76330727897584438323974609375</LatitudeDegrees>
              <LongitudeDegrees>-4.01084770448505878448486328125</LongitudeDegrees>
            </Position>
            <AltitudeMeters>1568.5999755859375</AltitudeMeters>
            <DistanceMeters>NAN</DistanceMeters>
          </Trackpoint>
          <Trackpoint>
            <Time>2019-08-01T12:02:46.000Z</Time>
            <Position>
              <LatitudeDegrees>40.76331297867000102996826171875</LatitudeDegrees>
              <LongitudeDegrees>-4.010814093053340911865234375</LongitudeDegrees>
            </Position>
            <AltitudeMeters>1568.800048828125</AltitudeMeters>
            <DistanceMeters>NAN</DistanceMeters>
          </Trackpoint>
          <Trackpoint>
            <Time>2019-08-01T12:02:47.000Z</Time>
            <Position>
              <LatitudeDegrees>40.7633236236870288848876953125</LatitudeDegrees>
              <LongitudeDegrees>-4.0107814036309719085693359375</LongitudeDegrees>
            </Position>
            <AltitudeMeters>1568.800048828125</AltitudeMeters>
            <DistanceMeters>NAN</DistanceMeters>
          </Trackpoint>
          <Trackpoint>
            <Time>2019-08-01T12:02:48.000Z</Time>
            <Position>
              <LatitudeDegrees>40.76333309523761272430419921875</LatitudeDegrees>
              <LongitudeDegrees>-4.0107495523989200592041015625</LongitudeDegrees>
            </Position>
            <AltitudeMeters>1569</AltitudeMeters>
            <DistanceMeters>NAN</DistanceMeters>
          </Trackpoint>
          <Trackpoint>
            <Time>2019-08-01T12:02:49.000Z</Time>
            <Position>
              <LatitudeDegrees>40.76333309523761272430419921875</LatitudeDegrees>
              <LongitudeDegrees>-4.0107495523989200592041015625</LongitudeDegrees>
            </Position>
            <AltitudeMeters>1569.199951171875</AltitudeMeters>
            <DistanceMeters>NAN</DistanceMeters>
          </Trackpoint>
          <Trackpoint>
            <Time>2019-08-01T12:02:50.000Z</Time>
            <Position>
              <LatitudeDegrees>40.76335103251039981842041015625</LatitudeDegrees>
              <LongitudeDegrees>-4.01068408973515033721923828125</LongitudeDegrees>
            </Position>
            <AltitudeMeters>1569.5999755859375</AltitudeMeters>
            <DistanceMeters>NAN</DistanceMeters>
          </Trackpoint>
          <Trackpoint>
            <Time>2019-08-01T12:02:51.000Z</Time>
            <Position>
              <LatitudeDegrees>40.76335103251039981842041015625</LatitudeDegrees>
              <LongitudeDegrees>-4.01068408973515033721923828125</LongitudeDegrees>
            </Position>
            <AltitudeMeters>1569.800048828125</AltitudeMeters>
            <DistanceMeters>NAN</DistanceMeters>
          </Trackpoint>
          <Trackpoint>
            <Time>2019-08-01T12:02:52.000Z</Time>
            <Position>
              <LatitudeDegrees>40.76337550766766071319580078125</LatitudeDegrees>
              <LongitudeDegrees>-4.01062876917421817779541015625</LongitudeDegrees>
            </Position>
            <AltitudeMeters>1569.800048828125</AltitudeMeters>
            <DistanceMeters>NAN</DistanceMeters>
          </Trackpoint>
          <Trackpoint>
            <Time>2019-08-01T12:02:53.000Z</Time>
            <Position>
              <LatitudeDegrees>40.76338791288435459136962890625</LatitudeDegrees>
              <LongitudeDegrees>-4.01060412637889385223388671875</LongitudeDegrees>
            </Position>
            <AltitudeMeters>1570.199951171875</AltitudeMeters>
            <DistanceMeters>NAN</DistanceMeters>
          </Trackpoint>
          <Trackpoint>
            <Time>2019-08-01T12:02:54.000Z</Time>
            <Position>
              <LatitudeDegrees>40.76338791288435459136962890625</LatitudeDegrees>
              <LongitudeDegrees>-4.01060412637889385223388671875</LongitudeDegrees>
            </Position>
            <AltitudeMeters>1570.4000244140625</AltitudeMeters>
            <DistanceMeters>NAN</DistanceMeters>
          </Trackpoint>
          <Trackpoint>
            <Time>2019-08-01T12:02:55.000Z</Time>
            <Position>
              <LatitudeDegrees>40.76341473497450351715087890625</LatitudeDegrees>
              <LongitudeDegrees>-4.01055752299726009368896484375</LongitudeDegrees>
            </Position>
            <AltitudeMeters>1570.4000244140625</AltitudeMeters>
            <DistanceMeters>NAN</DistanceMeters>
          </Trackpoint>
          <Trackpoint>
            <Time>2019-08-01T12:02:56.000Z</Time>
            <Position>
              <LatitudeDegrees>40.76343409717082977294921875</LatitudeDegrees>
              <LongitudeDegrees>-4.01053656823933124542236328125</LongitudeDegrees>
            </Position>
            <AltitudeMeters>1570.5999755859375</AltitudeMeters>
            <DistanceMeters>NAN</DistanceMeters>
          </Trackpoint>
          <Trackpoint>
            <Time>2019-08-01T12:02:57.000Z</Time>
            <Position>
              <LatitudeDegrees>40.76346033252775669097900390625</LatitudeDegrees>
              <LongitudeDegrees>-4.01051460765302181243896484375</LongitudeDegrees>
            </Position>
            <AltitudeMeters>1570.800048828125</AltitudeMeters>
            <DistanceMeters>NAN</DistanceMeters>
          </Trackpoint>
          <Trackpoint>
            <Time>2019-08-01T12:02:58.000Z</Time>
            <Position>
              <LatitudeDegrees>40.76348832808434963226318359375</LatitudeDegrees>
              <LongitudeDegrees>-4.0104937367141246795654296875</LongitudeDegrees>
            </Position>
            <AltitudeMeters>1571</AltitudeMeters>
            <DistanceMeters>NAN</DistanceMeters>
          </Trackpoint>
          <Trackpoint>
            <Time>2019-08-01T12:02:59.000Z</Time>
            <Position>
              <LatitudeDegrees>40.76351447962224483489990234375</LatitudeDegrees>
              <LongitudeDegrees>-4.01047236286103725433349609375</LongitudeDegrees>
            </Position>
            <AltitudeMeters>1571</AltitudeMeters>
            <DistanceMeters>NAN</DistanceMeters>
          </Trackpoint>
          <Trackpoint>
            <Time>2019-08-01T12:03:00.000Z</Time>
            <Position>
              <LatitudeDegrees>40.76354264281690120697021484375</LatitudeDegrees>
              <LongitudeDegrees>-4.01045341975986957550048828125</LongitudeDegrees>
            </Position>
            <AltitudeMeters>1571.4000244140625</AltitudeMeters>
            <DistanceMeters>NAN</DistanceMeters>
          </Trackpoint>
          <Trackpoint>
            <Time>2019-08-01T12:03:01.000Z</Time>
            <Position>
              <LatitudeDegrees>40.76357231475412845611572265625</LatitudeDegrees>
              <LongitudeDegrees>-4.0104330517351627349853515625</LongitudeDegrees>
            </Position>
            <AltitudeMeters>1571.5999755859375</AltitudeMeters>
            <DistanceMeters>NAN</DistanceMeters>
          </Trackpoint>
          <Trackpoint>
            <Time>2019-08-01T12:03:02.000Z</Time>
            <Position>
              <LatitudeDegrees>40.7636015675961971282958984375</LatitudeDegrees>
              <LongitudeDegrees>-4.0104139409959316253662109375</LongitudeDegrees>
            </Position>
            <AltitudeMeters>1571.800048828125</AltitudeMeters>
            <DistanceMeters>NAN</DistanceMeters>
          </Trackpoint>
          <Trackpoint>
            <Time>2019-08-01T12:03:03.000Z</Time>
            <Position>
              <LatitudeDegrees>40.7636300660669803619384765625</LatitudeDegrees>
              <LongitudeDegrees>-4.01039742864668369293212890625</LongitudeDegrees>
            </Position>
            <AltitudeMeters>1572</AltitudeMeters>
            <DistanceMeters>NAN</DistanceMeters>
          </Trackpoint>
          <Trackpoint>
            <Time>2019-08-01T12:03:04.000Z</Time>
            <Position>
              <LatitudeDegrees>40.7636300660669803619384765625</LatitudeDegrees>
              <LongitudeDegrees>-4.01039742864668369293212890625</LongitudeDegrees>
            </Position>
            <AltitudeMeters>1572.199951171875</AltitudeMeters>
            <DistanceMeters>NAN</DistanceMeters>
          </Trackpoint>
          <Trackpoint>
            <Time>2019-08-01T12:03:05.000Z</Time>
            <Position>
              <LatitudeDegrees>40.7636810280382633209228515625</LatitudeDegrees>
              <LongitudeDegrees>-4.01036825962364673614501953125</LongitudeDegrees>
            </Position>
            <AltitudeMeters>1572.199951171875</AltitudeMeters>
            <DistanceMeters>NAN</DistanceMeters>
          </Trackpoint>
          <Trackpoint>
            <Time>2019-08-01T12:03:06.000Z</Time>
            <Position>
              <LatitudeDegrees>40.76370676048099994659423828125</LatitudeDegrees>
              <LongitudeDegrees>-4.01035015471279621124267578125</LongitudeDegrees>
            </Position>
            <AltitudeMeters>1572.4000244140625</AltitudeMeters>
            <DistanceMeters>NAN</DistanceMeters>
          </Trackpoint>
          <Trackpoint>
            <Time>2019-08-01T12:03:07.000Z</Time>
            <Position>
              <LatitudeDegrees>40.76373307965695858001708984375</LatitudeDegrees>
              <LongitudeDegrees>-4.01033439673483371734619140625</LongitudeDegrees>
            </Position>
            <AltitudeMeters>1572.5999755859375</AltitudeMeters>
            <DistanceMeters>NAN</DistanceMeters>
          </Trackpoint>
          <Trackpoint>
            <Time>2019-08-01T12:03:08.000Z</Time>
            <Position>
              <LatitudeDegrees>40.7637618295848369598388671875</LatitudeDegrees>
              <LongitudeDegrees>-4.010317884385585784912109375</LongitudeDegrees>
            </Position>
            <AltitudeMeters>1572.800048828125</AltitudeMeters>
            <DistanceMeters>NAN</DistanceMeters>
          </Trackpoint>
          <Trackpoint>
            <Time>2019-08-01T12:03:09.000Z</Time>
            <Position>
              <LatitudeDegrees>40.763789154589176177978515625</LatitudeDegrees>
              <LongitudeDegrees>-4.01029885746538639068603515625</LongitudeDegrees>
            </Position>
            <AltitudeMeters>1574</AltitudeMeters>
            <DistanceMeters>NAN</DistanceMeters>
          </Trackpoint>
          <Trackpoint>
            <Time>2019-08-01T12:03:10.000Z</Time>
            <Position>
              <LatitudeDegrees>40.7638161443173885345458984375</LatitudeDegrees>
              <LongitudeDegrees>-4.010280668735504150390625</LongitudeDegrees>
            </Position>
            <AltitudeMeters>1574.5999755859375</AltitudeMeters>
            <DistanceMeters>NAN</DistanceMeters>
          </Trackpoint>
          <Trackpoint>
            <Time>2019-08-01T12:03:11.000Z</Time>
            <Position>
              <LatitudeDegrees>40.76384355314075946807861328125</LatitudeDegrees>
              <LongitudeDegrees>-4.010261557996273040771484375</LongitudeDegrees>
            </Position>
            <AltitudeMeters>1574.800048828125</AltitudeMeters>
            <DistanceMeters>NAN</DistanceMeters>
          </Trackpoint>
          <Trackpoint>
            <Time>2019-08-01T12:03:12.000Z</Time>
            <Position>
              <LatitudeDegrees>40.7638706266880035400390625</LatitudeDegrees>
              <LongitudeDegrees>-4.01024806313216686248779296875</LongitudeDegrees>
            </Position>
            <AltitudeMeters>1575</AltitudeMeters>
            <DistanceMeters>NAN</DistanceMeters>
          </Trackpoint>
          <Trackpoint>
            <Time>2019-08-01T12:03:13.000Z</Time>
            <Position>
              <LatitudeDegrees>40.7638949342072010040283203125</LatitudeDegrees>
              <LongitudeDegrees>-4.01023297570645809173583984375</LongitudeDegrees>
            </Position>
            <AltitudeMeters>1575.199951171875</AltitudeMeters>
            <DistanceMeters>NAN</DistanceMeters>
          </Trackpoint>
          <Trackpoint>
            <Time>2019-08-01T12:03:14.000Z</Time>
            <Position>
              <LatitudeDegrees>40.76391915790736675262451171875</LatitudeDegrees>
              <LongitudeDegrees>-4.0102178044617176055908203125</LongitudeDegrees>
            </Position>
            <AltitudeMeters>1575.199951171875</AltitudeMeters>
            <DistanceMeters>NAN</DistanceMeters>
          </Trackpoint>
          <Trackpoint>
            <Time>2019-08-01T12:03:15.000Z</Time>
            <Position>
              <LatitudeDegrees>40.76394103467464447021484375</LatitudeDegrees>
              <LongitudeDegrees>-4.01020464487373828887939453125</LongitudeDegrees>
            </Position>
            <AltitudeMeters>1575.4000244140625</AltitudeMeters>
            <DistanceMeters>NAN</DistanceMeters>
          </Trackpoint>
          <Trackpoint>
            <Time>2019-08-01T12:03:16.000Z</Time>
            <Position>
              <LatitudeDegrees>40.76396291144192218780517578125</LatitudeDegrees>
              <LongitudeDegrees>-4.0101881325244903564453125</LongitudeDegrees>
            </Position>
            <AltitudeMeters>1575.5999755859375</AltitudeMeters>
            <DistanceMeters>NAN</DistanceMeters>
          </Trackpoint>
          <Trackpoint>
            <Time>2019-08-01T12:03:17.000Z</Time>
            <Position>
              <LatitudeDegrees>40.7639861293137073516845703125</LatitudeDegrees>
              <LongitudeDegrees>-4.010175056755542755126953125</LongitudeDegrees>
            </Position>
            <AltitudeMeters>1575.5999755859375</AltitudeMeters>
            <DistanceMeters>NAN</DistanceMeters>
          </Trackpoint>
          <Trackpoint>
            <Time>2019-08-01T12:03:18.000Z</Time>
            <Position>
              <LatitudeDegrees>40.76400767080485820770263671875</LatitudeDegrees>
              <LongitudeDegrees>-4.010160304605960845947265625</LongitudeDegrees>
            </Position>
            <AltitudeMeters>1576</AltitudeMeters>
            <DistanceMeters>NAN</DistanceMeters>
          </Trackpoint>
          <Trackpoint>
            <Time>2019-08-01T12:03:19.000Z</Time>
            <Position>
              <LatitudeDegrees>40.7640246860682964324951171875</LatitudeDegrees>
              <LongitudeDegrees>-4.01014513336122035980224609375</LongitudeDegrees>
            </Position>
            <AltitudeMeters>1576.4000244140625</AltitudeMeters>
            <DistanceMeters>NAN</DistanceMeters>
          </Trackpoint>
          <Trackpoint>
            <Time>2019-08-01T12:03:20.000Z</Time>
            <Position>
              <LatitudeDegrees>40.76403625309467315673828125</LatitudeDegrees>
              <LongitudeDegrees>-4.01013356633484363555908203125</LongitudeDegrees>
            </Position>
            <AltitudeMeters>1576.5999755859375</AltitudeMeters>
            <DistanceMeters>NAN</DistanceMeters>
          </Trackpoint>
          <Trackpoint>
            <Time>2019-08-01T12:03:21.000Z</Time>
            <Position>
              <LatitudeDegrees>40.76404807157814502716064453125</LatitudeDegrees>
              <LongitudeDegrees>-4.01012401096522808074951171875</LongitudeDegrees>
            </Position>
            <AltitudeMeters>1577</AltitudeMeters>
            <DistanceMeters>NAN</DistanceMeters>
          </Trackpoint>
          <Trackpoint>
            <Time>2019-08-01T12:03:22.000Z</Time>
            <Position>
              <LatitudeDegrees>40.76404807157814502716064453125</LatitudeDegrees>
              <LongitudeDegrees>-4.01012401096522808074951171875</LongitudeDegrees>
            </Position>
            <AltitudeMeters>1577.199951171875</AltitudeMeters>
            <DistanceMeters>NAN</DistanceMeters>
          </Trackpoint>
          <Trackpoint>
            <Time>2019-08-01T12:03:23.000Z</Time>
            <Position>
              <LatitudeDegrees>40.76408294029533863067626953125</LatitudeDegrees>
              <LongitudeDegrees>-4.01010565459728240966796875</LongitudeDegrees>
            </Position>
            <AltitudeMeters>1577.199951171875</AltitudeMeters>
            <DistanceMeters>NAN</DistanceMeters>
          </Trackpoint>
          <Trackpoint>
            <Time>2019-08-01T12:03:24.000Z</Time>
            <Position>
              <LatitudeDegrees>40.76410020701587200164794921875</LatitudeDegrees>
              <LongitudeDegrees>-4.010093919932842254638671875</LongitudeDegrees>
            </Position>
            <AltitudeMeters>1577.4000244140625</AltitudeMeters>
            <DistanceMeters>NAN</DistanceMeters>
          </Trackpoint>
          <Trackpoint>
            <Time>2019-08-01T12:03:25.000Z</Time>
            <Position>
              <LatitudeDegrees>40.76412099413573741912841796875</LatitudeDegrees>
              <LongitudeDegrees>-4.01007958687841892242431640625</LongitudeDegrees>
            </Position>
            <AltitudeMeters>1577.800048828125</AltitudeMeters>
            <DistanceMeters>NAN</DistanceMeters>
          </Trackpoint>
          <Trackpoint>
            <Time>2019-08-01T12:03:26.000Z</Time>
            <Position>
              <LatitudeDegrees>40.76414220035076141357421875</LatitudeDegrees>
              <LongitudeDegrees>-4.01006542146205902099609375</LongitudeDegrees>
            </Position>
            <AltitudeMeters>1578.199951171875</AltitudeMeters>
            <DistanceMeters>NAN</DistanceMeters>
          </Trackpoint>
          <Trackpoint>
            <Time>2019-08-01T12:03:27.000Z</Time>
            <Position>
              <LatitudeDegrees>40.76416826806962490081787109375</LatitudeDegrees>
              <LongitudeDegrees>-4.010049998760223388671875</LongitudeDegrees>
            </Position>
            <AltitudeMeters>1578.4000244140625</AltitudeMeters>
            <DistanceMeters>NAN</DistanceMeters>
          </Trackpoint>
          <Trackpoint>
            <Time>2019-08-01T12:03:28.000Z</Time>
            <Position>
              <LatitudeDegrees>40.76416826806962490081787109375</LatitudeDegrees>
              <LongitudeDegrees>-4.010049998760223388671875</LongitudeDegrees>
            </Position>
            <AltitudeMeters>1578.5999755859375</AltitudeMeters>
            <DistanceMeters>NAN</DistanceMeters>
          </Trackpoint>
          <Trackpoint>
            <Time>2019-08-01T12:03:29.000Z</Time>
            <Position>
              <LatitudeDegrees>40.76421461999416351318359375</LatitudeDegrees>
              <LongitudeDegrees>-4.01002108119428157806396484375</LongitudeDegrees>
            </Position>
            <AltitudeMeters>1579</AltitudeMeters>
            <DistanceMeters>NAN</DistanceMeters>
          </Trackpoint>
          <Trackpoint>
            <Time>2019-08-01T12:03:30.000Z</Time>
            <Position>
              <LatitudeDegrees>40.76423917897045612335205078125</LatitudeDegrees>
              <LongitudeDegrees>-4.0100106038153171539306640625</LongitudeDegrees>
            </Position>
            <AltitudeMeters>1579.199951171875</AltitudeMeters>
            <DistanceMeters>NAN</DistanceMeters>
          </Trackpoint>
          <Trackpoint>
            <Time>2019-08-01T12:03:31.000Z</Time>
            <Position>
              <LatitudeDegrees>40.7642627321183681488037109375</LatitudeDegrees>
              <LongitudeDegrees>-4.0100002102553844451904296875</LongitudeDegrees>
            </Position>
            <AltitudeMeters>1579.5999755859375</AltitudeMeters>
            <DistanceMeters>NAN</DistanceMeters>
          </Trackpoint>
          <Trackpoint>
            <Time>2019-08-01T12:03:32.000Z</Time>
            <Position>
              <LatitudeDegrees>40.76428838074207305908203125</LatitudeDegrees>
              <LongitudeDegrees>-4.00998554192483425140380859375</LongitudeDegrees>
            </Position>
            <AltitudeMeters>1579.800048828125</AltitudeMeters>
            <DistanceMeters>NAN</DistanceMeters>
          </Trackpoint>
          <Trackpoint>
            <Time>2019-08-01T12:03:33.000Z</Time>
            <Position>
              <LatitudeDegrees>40.76431528665125370025634765625</LatitudeDegrees>
              <LongitudeDegrees>-4.009974561631679534912109375</LongitudeDegrees>
            </Position>
            <AltitudeMeters>1580</AltitudeMeters>
            <DistanceMeters>NAN</DistanceMeters>
          </Trackpoint>
          <Trackpoint>
            <Time>2019-08-01T12:03:34.000Z</Time>
            <Position>
              <LatitudeDegrees>40.7643415220081806182861328125</LatitudeDegrees>
              <LongitudeDegrees>-4.0099616535007953643798828125</LongitudeDegrees>
            </Position>
            <AltitudeMeters>1580.199951171875</AltitudeMeters>
            <DistanceMeters>NAN</DistanceMeters>
          </Trackpoint>
          <Trackpoint>
            <Time>2019-08-01T12:03:35.000Z</Time>
            <Position>
              <LatitudeDegrees>40.76436725445091724395751953125</LatitudeDegrees>
              <LongitudeDegrees>-4.009951762855052947998046875</LongitudeDegrees>
            </Position>
            <AltitudeMeters>1580.4000244140625</AltitudeMeters>
            <DistanceMeters>NAN</DistanceMeters>
          </Trackpoint>
          <Trackpoint>
            <Time>2019-08-01T12:03:36.000Z</Time>
            <Position>
              <LatitudeDegrees>40.7643938250839710235595703125</LatitudeDegrees>
              <LongitudeDegrees>-4.00993801653385162353515625</LongitudeDegrees>
            </Position>
            <AltitudeMeters>1580.5999755859375</AltitudeMeters>
            <DistanceMeters>NAN</DistanceMeters>
          </Trackpoint>
          <Trackpoint>
            <Time>2019-08-01T12:03:37.000Z</Time>
            <Position>
              <LatitudeDegrees>40.7644219882786273956298828125</LatitudeDegrees>
              <LongitudeDegrees>-4.009923599660396575927734375</LongitudeDegrees>
            </Position>
            <AltitudeMeters>1580.5999755859375</AltitudeMeters>
            <DistanceMeters>NAN</DistanceMeters>
          </Trackpoint>
          <Trackpoint>
            <Time>2019-08-01T12:03:38.000Z</Time>
            <Position>
              <LatitudeDegrees>40.7644494809210300445556640625</LatitudeDegrees>
              <LongitudeDegrees>-4.0099106915295124053955078125</LongitudeDegrees>
            </Position>
            <AltitudeMeters>1580.800048828125</AltitudeMeters>
            <DistanceMeters>NAN</DistanceMeters>
          </Trackpoint>
          <Trackpoint>
            <Time>2019-08-01T12:03:39.000Z</Time>
            <Position>
              <LatitudeDegrees>40.76447554863989353179931640625</LatitudeDegrees>
              <LongitudeDegrees>-4.009900130331516265869140625</LongitudeDegrees>
            </Position>
            <AltitudeMeters>1581</AltitudeMeters>
            <DistanceMeters>NAN</DistanceMeters>
          </Trackpoint>
          <Trackpoint>
            <Time>2019-08-01T12:03:40.000Z</Time>
            <Position>
              <LatitudeDegrees>40.7645022869110107421875</LatitudeDegrees>
              <LongitudeDegrees>-4.00988780893385410308837890625</LongitudeDegrees>
            </Position>
            <AltitudeMeters>1581.199951171875</AltitudeMeters>
            <DistanceMeters>NAN</DistanceMeters>
          </Trackpoint>
          <Trackpoint>
            <Time>2019-08-01T12:03:41.000Z</Time>
            <Position>
              <LatitudeDegrees>40.7645292766392230987548828125</LatitudeDegrees>
              <LongitudeDegrees>-4.00987490080296993255615234375</LongitudeDegrees>
            </Position>
            <AltitudeMeters>1581.4000244140625</AltitudeMeters>
            <DistanceMeters>NAN</DistanceMeters>
          </Trackpoint>
          <Trackpoint>
            <Time>2019-08-01T12:03:42.000Z</Time>
            <Position>
              <LatitudeDegrees>40.76455651782453060150146484375</LatitudeDegrees>
              <LongitudeDegrees>-4.00986266322433948516845703125</LongitudeDegrees>
            </Position>
            <AltitudeMeters>1581.800048828125</AltitudeMeters>
            <DistanceMeters>NAN</DistanceMeters>
          </Trackpoint>
          <Trackpoint>
            <Time>2019-08-01T12:03:43.000Z</Time>
            <Position>
              <LatitudeDegrees>40.7645845972001552581787109375</LatitudeDegrees>
              <LongitudeDegrees>-4.0098516829311847686767578125</LongitudeDegrees>
            </Position>
            <AltitudeMeters>1582</AltitudeMeters>
            <DistanceMeters>NAN</DistanceMeters>
          </Trackpoint>
          <Trackpoint>
            <Time>2019-08-01T12:03:44.000Z</Time>
            <Position>
              <LatitudeDegrees>40.7645845972001552581787109375</LatitudeDegrees>
              <LongitudeDegrees>-4.0098516829311847686767578125</LongitudeDegrees>
            </Position>
            <AltitudeMeters>1582.199951171875</AltitudeMeters>
            <DistanceMeters>NAN</DistanceMeters>
          </Trackpoint>
          <Trackpoint>
            <Time>2019-08-01T12:03:45.000Z</Time>
            <Position>
              <LatitudeDegrees>40.76463648118078708648681640625</LatitudeDegrees>
              <LongitudeDegrees>-4.0098352544009685516357421875</LongitudeDegrees>
            </Position>
            <AltitudeMeters>1582.4000244140625</AltitudeMeters>
            <DistanceMeters>NAN</DistanceMeters>
          </Trackpoint>
          <Trackpoint>
            <Time>2019-08-01T12:03:46.000Z</Time>
            <Position>
              <LatitudeDegrees>40.76465944759547710418701171875</LatitudeDegrees>
              <LongitudeDegrees>-4.0098245255649089813232421875</LongitudeDegrees>
            </Position>
            <AltitudeMeters>1582.5999755859375</AltitudeMeters>
            <DistanceMeters>NAN</DistanceMeters>
          </Trackpoint>
          <Trackpoint>
            <Time>2019-08-01T12:03:47.000Z</Time>
            <Position>
              <LatitudeDegrees>40.7646833360195159912109375</LatitudeDegrees>
              <LongitudeDegrees>-4.0098153054714202880859375</LongitudeDegrees>
            </Position>
            <AltitudeMeters>1583</AltitudeMeters>
            <DistanceMeters>NAN</DistanceMeters>
          </Trackpoint>
          <Trackpoint>
            <Time>2019-08-01T12:03:48.000Z</Time>
            <Position>
              <LatitudeDegrees>40.7647106610238552093505859375</LatitudeDegrees>
              <LongitudeDegrees>-4.0098044089972972869873046875</LongitudeDegrees>
            </Position>
            <AltitudeMeters>1583.4000244140625</AltitudeMeters>
            <DistanceMeters>NAN</DistanceMeters>
          </Trackpoint>
          <Trackpoint>
            <Time>2019-08-01T12:03:49.000Z</Time>
            <Position>
              <LatitudeDegrees>40.76473656110465526580810546875</LatitudeDegrees>
              <LongitudeDegrees>-4.00979627855122089385986328125</LongitudeDegrees>
            </Position>
            <AltitudeMeters>1583.5999755859375</AltitudeMeters>
            <DistanceMeters>NAN</DistanceMeters>
          </Trackpoint>
          <Trackpoint>
            <Time>2019-08-01T12:03:50.000Z</Time>
            <Position>
              <LatitudeDegrees>40.7647612877190113067626953125</LatitudeDegrees>
              <LongitudeDegrees>-4.00978571735322475433349609375</LongitudeDegrees>
            </Position>
            <AltitudeMeters>1584</AltitudeMeters>
            <DistanceMeters>NAN</DistanceMeters>
          </Trackpoint>
          <Trackpoint>
            <Time>2019-08-01T12:03:51.000Z</Time>
            <Position>
              <LatitudeDegrees>40.7647884450852870941162109375</LatitudeDegrees>
              <LongitudeDegrees>-4.0097749046981334686279296875</LongitudeDegrees>
            </Position>
            <AltitudeMeters>1584.199951171875</AltitudeMeters>
            <DistanceMeters>NAN</DistanceMeters>
          </Trackpoint>
          <Trackpoint>
            <Time>2019-08-01T12:03:52.000Z</Time>
            <Position>
              <LatitudeDegrees>40.76481585390865802764892578125</LatitudeDegrees>
              <LongitudeDegrees>-4.0097631700336933135986328125</LongitudeDegrees>
            </Position>
            <AltitudeMeters>1584.5999755859375</AltitudeMeters>
            <DistanceMeters>NAN</DistanceMeters>
          </Trackpoint>
          <Trackpoint>
            <Time>2019-08-01T12:03:53.000Z</Time>
            <Position>
              <LatitudeDegrees>40.76484359800815582275390625</LatitudeDegrees>
              <LongitudeDegrees>-4.00975294411182403564453125</LongitudeDegrees>
            </Position>
            <AltitudeMeters>1584.800048828125</AltitudeMeters>
            <DistanceMeters>NAN</DistanceMeters>
          </Trackpoint>
          <Trackpoint>
            <Time>2019-08-01T12:03:54.000Z</Time>
            <Position>
              <LatitudeDegrees>40.76487042009830474853515625</LatitudeDegrees>
              <LongitudeDegrees>-4.0097440592944622039794921875</LongitudeDegrees>
            </Position>
            <AltitudeMeters>1585</AltitudeMeters>
            <DistanceMeters>NAN</DistanceMeters>
          </Trackpoint>
          <Trackpoint>
            <Time>2019-08-01T12:03:55.000Z</Time>
            <Position>
              <LatitudeDegrees>40.76489665545523166656494140625</LatitudeDegrees>
              <LongitudeDegrees>-4.00973416864871978759765625</LongitudeDegrees>
            </Position>
            <AltitudeMeters>1585.199951171875</AltitudeMeters>
            <DistanceMeters>NAN</DistanceMeters>
          </Trackpoint>
          <Trackpoint>
            <Time>2019-08-01T12:03:56.000Z</Time>
            <Position>
              <LatitudeDegrees>40.7649228908121585845947265625</LatitudeDegrees>
              <LongitudeDegrees>-4.00972151197493076324462890625</LongitudeDegrees>
            </Position>
            <AltitudeMeters>1585.5999755859375</AltitudeMeters>
            <DistanceMeters>NAN</DistanceMeters>
          </Trackpoint>
          <Trackpoint>
            <Time>2019-08-01T12:03:57.000Z</Time>
            <Position>
              <LatitudeDegrees>40.76494929380714893341064453125</LatitudeDegrees>
              <LongitudeDegrees>-4.00971028022468090057373046875</LongitudeDegrees>
            </Position>
            <AltitudeMeters>1586</AltitudeMeters>
            <DistanceMeters>NAN</DistanceMeters>
          </Trackpoint>
          <Trackpoint>
            <Time>2019-08-01T12:03:58.000Z</Time>
            <Position>
              <LatitudeDegrees>40.7649772055447101593017578125</LatitudeDegrees>
              <LongitudeDegrees>-4.0097004733979701995849609375</LongitudeDegrees>
            </Position>
            <AltitudeMeters>1586.4000244140625</AltitudeMeters>
            <DistanceMeters>NAN</DistanceMeters>
          </Trackpoint>
          <Trackpoint>
            <Time>2019-08-01T12:03:59.000Z</Time>
            <Position>
              <LatitudeDegrees>40.7649772055447101593017578125</LatitudeDegrees>
              <LongitudeDegrees>-4.0097004733979701995849609375</LongitudeDegrees>
            </Position>
            <AltitudeMeters>1586.5999755859375</AltitudeMeters>
            <DistanceMeters>NAN</DistanceMeters>
          </Trackpoint>
          <Trackpoint>
            <Time>2019-08-01T12:04:00.000Z</Time>
            <Position>
              <LatitudeDegrees>40.7650293409824371337890625</LatitudeDegrees>
              <LongitudeDegrees>-4.00968144647777080535888671875</LongitudeDegrees>
            </Position>
            <AltitudeMeters>1586.5999755859375</AltitudeMeters>
            <DistanceMeters>NAN</DistanceMeters>
          </Trackpoint>
          <Trackpoint>
            <Time>2019-08-01T12:04:01.000Z</Time>
            <Position>
              <LatitudeDegrees>40.7650580070912837982177734375</LatitudeDegrees>
              <LongitudeDegrees>-4.00967407040297985076904296875</LongitudeDegrees>
            </Position>
            <AltitudeMeters>1586.800048828125</AltitudeMeters>
            <DistanceMeters>NAN</DistanceMeters>
          </Trackpoint>
          <Trackpoint>
            <Time>2019-08-01T12:04:02.000Z</Time>
            <Position>
              <LatitudeDegrees>40.765086673200130462646484375</LatitudeDegrees>
              <LongitudeDegrees>-4.00966619141399860382080078125</LongitudeDegrees>
            </Position>
            <AltitudeMeters>1587</AltitudeMeters>
            <DistanceMeters>NAN</DistanceMeters>
          </Trackpoint>
          <Trackpoint>
            <Time>2019-08-01T12:04:03.000Z</Time>
            <Position>
              <LatitudeDegrees>40.765114165842533111572265625</LatitudeDegrees>
              <LongitudeDegrees>-4.00966082699596881866455078125</LongitudeDegrees>
            </Position>
            <AltitudeMeters>1587.4000244140625</AltitudeMeters>
            <DistanceMeters>NAN</DistanceMeters>
          </Trackpoint>
          <Trackpoint>
            <Time>2019-08-01T12:04:04.000Z</Time>
            <Position>
              <LatitudeDegrees>40.76514241285622119903564453125</LatitudeDegrees>
              <LongitudeDegrees>-4.00965294800698757171630859375</LongitudeDegrees>
            </Position>
            <AltitudeMeters>1587.5999755859375</AltitudeMeters>
            <DistanceMeters>NAN</DistanceMeters>
          </Trackpoint>
          <Trackpoint>
            <Time>2019-08-01T12:04:05.000Z</Time>
            <Position>
              <LatitudeDegrees>40.765167810022830963134765625</LatitudeDegrees>
              <LongitudeDegrees>-4.00964758358895778656005859375</LongitudeDegrees>
            </Position>
            <AltitudeMeters>1587.800048828125</AltitudeMeters>
            <DistanceMeters>NAN</DistanceMeters>
          </Trackpoint>
          <Trackpoint>
            <Time>2019-08-01T12:04:06.000Z</Time>
            <Position>
              <LatitudeDegrees>40.7651927880942821502685546875</LatitudeDegrees>
              <LongitudeDegrees>-4.00964389555156230926513671875</LongitudeDegrees>
            </Position>
            <AltitudeMeters>1588</AltitudeMeters>
            <DistanceMeters>NAN</DistanceMeters>
          </Trackpoint>
          <Trackpoint>
            <Time>2019-08-01T12:04:07.000Z</Time>
            <Position>
              <LatitudeDegrees>40.7651927880942821502685546875</LatitudeDegrees>
              <LongitudeDegrees>-4.00964389555156230926513671875</LongitudeDegrees>
            </Position>
            <AltitudeMeters>1588.4000244140625</AltitudeMeters>
            <DistanceMeters>NAN</DistanceMeters>
          </Trackpoint>
          <Trackpoint>
            <Time>2019-08-01T12:04:08.000Z</Time>
            <Position>
              <LatitudeDegrees>40.76524567790329456329345703125</LatitudeDegrees>
              <LongitudeDegrees>-4.00963769294321537017822265625</LongitudeDegrees>
            </Position>
            <AltitudeMeters>1588.4000244140625</AltitudeMeters>
            <DistanceMeters>NAN</DistanceMeters>
          </Trackpoint>
          <Trackpoint>
            <Time>2019-08-01T12:04:09.000Z</Time>
            <Position>
              <LatitudeDegrees>40.76527367345988750457763671875</LatitudeDegrees>
              <LongitudeDegrees>-4.0096344240009784698486328125</LongitudeDegrees>
            </Position>
            <AltitudeMeters>1588.800048828125</AltitudeMeters>
            <DistanceMeters>NAN</DistanceMeters>
          </Trackpoint>
          <Trackpoint>
            <Time>2019-08-01T12:04:10.000Z</Time>
            <Position>
              <LatitudeDegrees>40.76530225574970245361328125</LatitudeDegrees>
              <LongitudeDegrees>-4.0096330828964710235595703125</LongitudeDegrees>
            </Position>
            <AltitudeMeters>1589</AltitudeMeters>
            <DistanceMeters>NAN</DistanceMeters>
          </Trackpoint>
          <Trackpoint>
            <Time>2019-08-01T12:04:11.000Z</Time>
            <Position>
              <LatitudeDegrees>40.7653295807540416717529296875</LatitudeDegrees>
              <LongitudeDegrees>-4.009630568325519561767578125</LongitudeDegrees>
            </Position>
            <AltitudeMeters>1589.4000244140625</AltitudeMeters>
            <DistanceMeters>NAN</DistanceMeters>
          </Trackpoint>
          <Trackpoint>
            <Time>2019-08-01T12:04:12.000Z</Time>
            <Position>
              <LatitudeDegrees>40.7653295807540416717529296875</LatitudeDegrees>
              <LongitudeDegrees>-4.009630568325519561767578125</LongitudeDegrees>
            </Position>
            <AltitudeMeters>1589.5999755859375</AltitudeMeters>
            <DistanceMeters>NAN</DistanceMeters>
          </Trackpoint>
          <Trackpoint>
            <Time>2019-08-01T12:04:13.000Z</Time>
            <Position>
              <LatitudeDegrees>40.7653295807540416717529296875</LatitudeDegrees>
              <LongitudeDegrees>-4.009630568325519561767578125</LongitudeDegrees>
            </Position>
            <AltitudeMeters>1589.800048828125</AltitudeMeters>
            <DistanceMeters>NAN</DistanceMeters>
          </Trackpoint>
          <Trackpoint>
            <Time>2019-08-01T12:04:14.000Z</Time>
            <Position>
              <LatitudeDegrees>40.76540912501513957977294921875</LatitudeDegrees>
              <LongitudeDegrees>-4.00962796993553638458251953125</LongitudeDegrees>
            </Position>
            <AltitudeMeters>1590.5999755859375</AltitudeMeters>
            <DistanceMeters>NAN</DistanceMeters>
          </Trackpoint>
          <Trackpoint>
            <Time>2019-08-01T12:04:15.000Z</Time>
            <Position>
              <LatitudeDegrees>40.76543225906789302825927734375</LatitudeDegrees>
              <LongitudeDegrees>-4.0096290595829486846923828125</LongitudeDegrees>
            </Position>
            <AltitudeMeters>1591</AltitudeMeters>
            <DistanceMeters>NAN</DistanceMeters>
          </Trackpoint>
          <Trackpoint>
            <Time>2019-08-01T12:04:16.000Z</Time>
            <Position>
              <LatitudeDegrees>40.76545539312064647674560546875</LatitudeDegrees>
              <LongitudeDegrees>-4.00963115505874156951904296875</LongitudeDegrees>
            </Position>
            <AltitudeMeters>1591.4000244140625</AltitudeMeters>
            <DistanceMeters>NAN</DistanceMeters>
          </Trackpoint>
          <Trackpoint>
            <Time>2019-08-01T12:04:17.000Z</Time>
            <Position>
              <LatitudeDegrees>40.76545539312064647674560546875</LatitudeDegrees>
              <LongitudeDegrees>-4.00963115505874156951904296875</LongitudeDegrees>
            </Position>
            <AltitudeMeters>1591.800048828125</AltitudeMeters>
            <DistanceMeters>NAN</DistanceMeters>
          </Trackpoint>
          <Trackpoint>
            <Time>2019-08-01T12:04:18.000Z</Time>
            <Position>
              <LatitudeDegrees>40.765505097806453704833984375</LatitudeDegrees>
              <LongitudeDegrees>-4.0096401236951351165771484375</LongitudeDegrees>
            </Position>
            <AltitudeMeters>1592</AltitudeMeters>
            <DistanceMeters>NAN</DistanceMeters>
          </Trackpoint>
          <Trackpoint>
            <Time>2019-08-01T12:04:19.000Z</Time>
            <Position>
              <LatitudeDegrees>40.765505097806453704833984375</LatitudeDegrees>
              <LongitudeDegrees>-4.0096401236951351165771484375</LongitudeDegrees>
            </Position>
            <AltitudeMeters>1592.4000244140625</AltitudeMeters>
            <DistanceMeters>NAN</DistanceMeters>
          </Trackpoint>
          <Trackpoint>
            <Time>2019-08-01T12:04:20.000Z</Time>
            <Position>
              <LatitudeDegrees>40.76555530540645122528076171875</LatitudeDegrees>
              <LongitudeDegrees>-4.0096552111208438873291015625</LongitudeDegrees>
            </Position>
            <AltitudeMeters>1592.5999755859375</AltitudeMeters>
            <DistanceMeters>NAN</DistanceMeters>
          </Trackpoint>
          <Trackpoint>
            <Time>2019-08-01T12:04:21.000Z</Time>
            <Position>
              <LatitudeDegrees>40.76555530540645122528076171875</LatitudeDegrees>
              <LongitudeDegrees>-4.0096552111208438873291015625</LongitudeDegrees>
            </Position>
            <AltitudeMeters>1592.800048828125</AltitudeMeters>
            <DistanceMeters>NAN</DistanceMeters>
          </Trackpoint>
          <Trackpoint>
            <Time>2019-08-01T12:04:22.000Z</Time>
            <Position>
              <LatitudeDegrees>40.7655984722077846527099609375</LatitudeDegrees>
              <LongitudeDegrees>-4.00967809371650218963623046875</LongitudeDegrees>
            </Position>
            <AltitudeMeters>1593</AltitudeMeters>
            <DistanceMeters>NAN</DistanceMeters>
          </Trackpoint>
          <Trackpoint>
            <Time>2019-08-01T12:04:23.000Z</Time>
            <Position>
              <LatitudeDegrees>40.7656202651560306549072265625</LatitudeDegrees>
              <LongitudeDegrees>-4.00968982838094234466552734375</LongitudeDegrees>
            </Position>
            <AltitudeMeters>1593.4000244140625</AltitudeMeters>
            <DistanceMeters>NAN</DistanceMeters>
          </Trackpoint>
          <Trackpoint>
            <Time>2019-08-01T12:04:24.000Z</Time>
            <Position>
              <LatitudeDegrees>40.7656413875520229339599609375</LatitudeDegrees>
              <LongitudeDegrees>-4.00969929993152618408203125</LongitudeDegrees>
            </Position>
            <AltitudeMeters>1593.5999755859375</AltitudeMeters>
            <DistanceMeters>NAN</DistanceMeters>
          </Trackpoint>
          <Trackpoint>
            <Time>2019-08-01T12:04:25.000Z</Time>
            <Position>
              <LatitudeDegrees>40.765664018690586090087890625</LatitudeDegrees>
              <LongitudeDegrees>-4.00971405208110809326171875</LongitudeDegrees>
            </Position>
            <AltitudeMeters>1593.800048828125</AltitudeMeters>
            <DistanceMeters>NAN</DistanceMeters>
          </Trackpoint>
          <Trackpoint>
            <Time>2019-08-01T12:04:26.000Z</Time>
            <Position>
              <LatitudeDegrees>40.76568589545786380767822265625</LatitudeDegrees>
              <LongitudeDegrees>-4.00973509065806865692138671875</LongitudeDegrees>
            </Position>
            <AltitudeMeters>1594</AltitudeMeters>
            <DistanceMeters>NAN</DistanceMeters>
          </Trackpoint>
          <Trackpoint>
            <Time>2019-08-01T12:04:27.000Z</Time>
            <Position>
              <LatitudeDegrees>40.76570651493966579437255859375</LatitudeDegrees>
              <LongitudeDegrees>-4.0097541175782680511474609375</LongitudeDegrees>
            </Position>
            <AltitudeMeters>1594.199951171875</AltitudeMeters>
            <DistanceMeters>NAN</DistanceMeters>
          </Trackpoint>
          <Trackpoint>
            <Time>2019-08-01T12:04:28.000Z</Time>
            <Position>
              <LatitudeDegrees>40.76570651493966579437255859375</LatitudeDegrees>
              <LongitudeDegrees>-4.0097541175782680511474609375</LongitudeDegrees>
            </Position>
            <AltitudeMeters>1594.4000244140625</AltitudeMeters>
            <DistanceMeters>NAN</DistanceMeters>
          </Trackpoint>
          <Trackpoint>
            <Time>2019-08-01T12:04:29.000Z</Time>
            <Position>
              <LatitudeDegrees>40.76574808917939662933349609375</LatitudeDegrees>
              <LongitudeDegrees>-4.0097903273999691009521484375</LongitudeDegrees>
            </Position>
            <AltitudeMeters>1594.5999755859375</AltitudeMeters>
            <DistanceMeters>NAN</DistanceMeters>
          </Trackpoint>
          <Trackpoint>
            <Time>2019-08-01T12:04:30.000Z</Time>
            <Position>
              <LatitudeDegrees>40.765771977603435516357421875</LatitudeDegrees>
              <LongitudeDegrees>-4.00981170125305652618408203125</LongitudeDegrees>
            </Position>
            <AltitudeMeters>1594.800048828125</AltitudeMeters>
            <DistanceMeters>NAN</DistanceMeters>
          </Trackpoint>
          <Trackpoint>
            <Time>2019-08-01T12:04:31.000Z</Time>
            <Position>
              <LatitudeDegrees>40.76579653657972812652587890625</LatitudeDegrees>
              <LongitudeDegrees>-4.00983609259128570556640625</LongitudeDegrees>
            </Position>
            <AltitudeMeters>1595</AltitudeMeters>
            <DistanceMeters>NAN</DistanceMeters>
          </Trackpoint>
          <Trackpoint>
            <Time>2019-08-01T12:04:32.000Z</Time>
            <Position>
              <LatitudeDegrees>40.76582000590860843658447265625</LatitudeDegrees>
              <LongitudeDegrees>-4.009859897196292877197265625</LongitudeDegrees>
            </Position>
            <AltitudeMeters>1595</AltitudeMeters>
            <DistanceMeters>NAN</DistanceMeters>
          </Trackpoint>
          <Trackpoint>
            <Time>2019-08-01T12:04:33.000Z</Time>
            <Position>
              <LatitudeDegrees>40.76584464870393276214599609375</LatitudeDegrees>
              <LongitudeDegrees>-4.0098823606967926025390625</LongitudeDegrees>
            </Position>
            <AltitudeMeters>1595.4000244140625</AltitudeMeters>
            <DistanceMeters>NAN</DistanceMeters>
          </Trackpoint>
          <Trackpoint>
            <Time>2019-08-01T12:04:34.000Z</Time>
            <Position>
              <LatitudeDegrees>40.7658703811466693878173828125</LatitudeDegrees>
              <LongitudeDegrees>-4.00989937596023082733154296875</LongitudeDegrees>
            </Position>
            <AltitudeMeters>1595.5999755859375</AltitudeMeters>
            <DistanceMeters>NAN</DistanceMeters>
          </Trackpoint>
          <Trackpoint>
            <Time>2019-08-01T12:04:35.000Z</Time>
            <Position>
              <LatitudeDegrees>40.765896700322628021240234375</LatitudeDegrees>
              <LongitudeDegrees>-4.00991681031882762908935546875</LongitudeDegrees>
            </Position>
            <AltitudeMeters>1595.800048828125</AltitudeMeters>
            <DistanceMeters>NAN</DistanceMeters>
          </Trackpoint>
          <Trackpoint>
            <Time>2019-08-01T12:04:36.000Z</Time>
            <Position>
              <LatitudeDegrees>40.7659251987934112548828125</LatitudeDegrees>
              <LongitudeDegrees>-4.00993441231548786163330078125</LongitudeDegrees>
            </Position>
            <AltitudeMeters>1596</AltitudeMeters>
            <DistanceMeters>NAN</DistanceMeters>
          </Trackpoint>
          <Trackpoint>
            <Time>2019-08-01T12:04:37.000Z</Time>
            <Position>
              <LatitudeDegrees>40.76595344580709934234619140625</LatitudeDegrees>
              <LongitudeDegrees>-4.0099532715976238250732421875</LongitudeDegrees>
            </Position>
            <AltitudeMeters>1596.199951171875</AltitudeMeters>
            <DistanceMeters>NAN</DistanceMeters>
          </Trackpoint>
          <Trackpoint>
            <Time>2019-08-01T12:04:38.000Z</Time>
            <Position>
              <LatitudeDegrees>40.76597976498305797576904296875</LatitudeDegrees>
              <LongitudeDegrees>-4.00997095741331577301025390625</LongitudeDegrees>
            </Position>
            <AltitudeMeters>1596.199951171875</AltitudeMeters>
            <DistanceMeters>NAN</DistanceMeters>
          </Trackpoint>
          <Trackpoint>
            <Time>2019-08-01T12:04:39.000Z</Time>
            <Position>
              <LatitudeDegrees>40.766007341444492340087890625</LatitudeDegrees>
              <LongitudeDegrees>-4.0099842846393585205078125</LongitudeDegrees>
            </Position>
            <AltitudeMeters>1596.4000244140625</AltitudeMeters>
            <DistanceMeters>NAN</DistanceMeters>
          </Trackpoint>
          <Trackpoint>
            <Time>2019-08-01T12:04:40.000Z</Time>
            <Position>
              <LatitudeDegrees>40.76603424735367298126220703125</LatitudeDegrees>
              <LongitudeDegrees>-4.00999643839895725250244140625</LongitudeDegrees>
            </Position>
            <AltitudeMeters>1596.5999755859375</AltitudeMeters>
            <DistanceMeters>NAN</DistanceMeters>
          </Trackpoint>
          <Trackpoint>
            <Time>2019-08-01T12:04:41.000Z</Time>
            <Position>
              <LatitudeDegrees>40.76606375165283679962158203125</LatitudeDegrees>
              <LongitudeDegrees>-4.0100082568824291229248046875</LongitudeDegrees>
            </Position>
            <AltitudeMeters>1596.800048828125</AltitudeMeters>
            <DistanceMeters>NAN</DistanceMeters>
          </Trackpoint>
          <Trackpoint>
            <Time>2019-08-01T12:04:42.000Z</Time>
            <Position>
              <LatitudeDegrees>40.7660926692187786102294921875</LatitudeDegrees>
              <LongitudeDegrees>-4.010014124214649200439453125</LongitudeDegrees>
            </Position>
            <AltitudeMeters>1597.199951171875</AltitudeMeters>
            <DistanceMeters>NAN</DistanceMeters>
          </Trackpoint>
          <Trackpoint>
            <Time>2019-08-01T12:04:43.000Z</Time>
            <Position>
              <LatitudeDegrees>40.76612175442278385162353515625</LatitudeDegrees>
              <LongitudeDegrees>-4.01002007536590099334716796875</LongitudeDegrees>
            </Position>
            <AltitudeMeters>1597.5999755859375</AltitudeMeters>
            <DistanceMeters>NAN</DistanceMeters>
          </Trackpoint>
          <Trackpoint>
            <Time>2019-08-01T12:04:44.000Z</Time>
            <Position>
              <LatitudeDegrees>40.76614941470324993133544921875</LatitudeDegrees>
              <LongitudeDegrees>-4.0100245177745819091796875</LongitudeDegrees>
            </Position>
            <AltitudeMeters>1598</AltitudeMeters>
            <DistanceMeters>NAN</DistanceMeters>
          </Trackpoint>
          <Trackpoint>
            <Time>2019-08-01T12:04:45.000Z</Time>
            <Position>
              <LatitudeDegrees>40.766176991164684295654296875</LatitudeDegrees>
              <LongitudeDegrees>-4.010030888020992279052734375</LongitudeDegrees>
            </Position>
            <AltitudeMeters>1598.199951171875</AltitudeMeters>
            <DistanceMeters>NAN</DistanceMeters>
          </Trackpoint>
          <Trackpoint>
            <Time>2019-08-01T12:04:46.000Z</Time>
            <Position>
              <LatitudeDegrees>40.766176991164684295654296875</LatitudeDegrees>
              <LongitudeDegrees>-4.010030888020992279052734375</LongitudeDegrees>
            </Position>
            <AltitudeMeters>1598.5999755859375</AltitudeMeters>
            <DistanceMeters>NAN</DistanceMeters>
          </Trackpoint>
          <Trackpoint>
            <Time>2019-08-01T12:04:47.000Z</Time>
            <Position>
              <LatitudeDegrees>40.76622284017503261566162109375</LatitudeDegrees>
              <LongitudeDegrees>-4.01003901846706867218017578125</LongitudeDegrees>
            </Position>
            <AltitudeMeters>1598.800048828125</AltitudeMeters>
            <DistanceMeters>NAN</DistanceMeters>
          </Trackpoint>
          <Trackpoint>
            <Time>2019-08-01T12:04:48.000Z</Time>
            <Position>
              <LatitudeDegrees>40.76624639332294464111328125</LatitudeDegrees>
              <LongitudeDegrees>-4.0100421197712421417236328125</LongitudeDegrees>
            </Position>
            <AltitudeMeters>1599</AltitudeMeters>
            <DistanceMeters>NAN</DistanceMeters>
          </Trackpoint>
          <Trackpoint>
            <Time>2019-08-01T12:04:49.000Z</Time>
            <Position>
              <LatitudeDegrees>40.7662683539092540740966796875</LatitudeDegrees>
              <LongitudeDegrees>-4.01004186831414699554443359375</LongitudeDegrees>
            </Position>
            <AltitudeMeters>1599</AltitudeMeters>
            <DistanceMeters>NAN</DistanceMeters>
          </Trackpoint>
          <Trackpoint>
            <Time>2019-08-01T12:04:50.000Z</Time>
            <Position>
              <LatitudeDegrees>40.766290985047817230224609375</LatitudeDegrees>
              <LongitudeDegrees>-4.01004203595221042633056640625</LongitudeDegrees>
            </Position>
            <AltitudeMeters>1599.4000244140625</AltitudeMeters>
            <DistanceMeters>NAN</DistanceMeters>
          </Trackpoint>
          <Trackpoint>
            <Time>2019-08-01T12:04:51.000Z</Time>
            <Position>
              <LatitudeDegrees>40.7663142867386341094970703125</LatitudeDegrees>
              <LongitudeDegrees>-4.01004220359027385711669921875</LongitudeDegrees>
            </Position>
            <AltitudeMeters>1599.800048828125</AltitudeMeters>
            <DistanceMeters>NAN</DistanceMeters>
          </Trackpoint>
          <Trackpoint>
            <Time>2019-08-01T12:04:52.000Z</Time>
            <Position>
              <LatitudeDegrees>40.76634236611425876617431640625</LatitudeDegrees>
              <LongitudeDegrees>-4.01004203595221042633056640625</LongitudeDegrees>
            </Position>
            <AltitudeMeters>1600</AltitudeMeters>
            <DistanceMeters>NAN</DistanceMeters>
          </Trackpoint>
          <Trackpoint>
            <Time>2019-08-01T12:04:53.000Z</Time>
            <Position>
              <LatitudeDegrees>40.76636801473796367645263671875</LatitudeDegrees>
              <LongitudeDegrees>-4.01004287414252758026123046875</LongitudeDegrees>
            </Position>
            <AltitudeMeters>1600.199951171875</AltitudeMeters>
            <DistanceMeters>NAN</DistanceMeters>
          </Trackpoint>
          <Trackpoint>
            <Time>2019-08-01T12:04:54.000Z</Time>
            <Position>
              <LatitudeDegrees>40.76636801473796367645263671875</LatitudeDegrees>
              <LongitudeDegrees>-4.01004287414252758026123046875</LongitudeDegrees>
            </Position>
            <AltitudeMeters>1600.4000244140625</AltitudeMeters>
            <DistanceMeters>NAN</DistanceMeters>
          </Trackpoint>
          <Trackpoint>
            <Time>2019-08-01T12:04:55.000Z</Time>
            <Position>
              <LatitudeDegrees>40.7664219103753566741943359375</LatitudeDegrees>
              <LongitudeDegrees>-4.0100394375622272491455078125</LongitudeDegrees>
            </Position>
            <AltitudeMeters>1600.800048828125</AltitudeMeters>
            <DistanceMeters>NAN</DistanceMeters>
          </Trackpoint>
          <Trackpoint>
            <Time>2019-08-01T12:04:56.000Z</Time>
            <Position>
              <LatitudeDegrees>40.76644646935164928436279296875</LatitudeDegrees>
              <LongitudeDegrees>-4.010039605200290679931640625</LongitudeDegrees>
            </Position>
            <AltitudeMeters>1601</AltitudeMeters>
            <DistanceMeters>NAN</DistanceMeters>
          </Trackpoint>
          <Trackpoint>
            <Time>2019-08-01T12:04:57.000Z</Time>
            <Position>
              <LatitudeDegrees>40.76644646935164928436279296875</LatitudeDegrees>
              <LongitudeDegrees>-4.010039605200290679931640625</LongitudeDegrees>
            </Position>
            <AltitudeMeters>1601.4000244140625</AltitudeMeters>
            <DistanceMeters>NAN</DistanceMeters>
          </Trackpoint>
          <Trackpoint>
            <Time>2019-08-01T12:04:58.000Z</Time>
            <Position>
              <LatitudeDegrees>40.7664939947426319122314453125</LatitudeDegrees>
              <LongitudeDegrees>-4.01003549806773662567138671875</LongitudeDegrees>
            </Position>
            <AltitudeMeters>1601.5999755859375</AltitudeMeters>
            <DistanceMeters>NAN</DistanceMeters>
          </Trackpoint>
          <Trackpoint>
            <Time>2019-08-01T12:04:59.000Z</Time>
            <Position>
              <LatitudeDegrees>40.76651972718536853790283203125</LatitudeDegrees>
              <LongitudeDegrees>-4.01003549806773662567138671875</LongitudeDegrees>
            </Position>
            <AltitudeMeters>1601.800048828125</AltitudeMeters>
            <DistanceMeters>NAN</DistanceMeters>
          </Trackpoint>
          <Trackpoint>
            <Time>2019-08-01T12:05:00.000Z</Time>
            <Position>
              <LatitudeDegrees>40.76654638163745403289794921875</LatitudeDegrees>
              <LongitudeDegrees>-4.01003298349678516387939453125</LongitudeDegrees>
            </Position>
            <AltitudeMeters>1602</AltitudeMeters>
            <DistanceMeters>NAN</DistanceMeters>
          </Trackpoint>
          <Trackpoint>
            <Time>2019-08-01T12:05:01.000Z</Time>
            <Position>
              <LatitudeDegrees>40.7665734551846981048583984375</LatitudeDegrees>
              <LongitudeDegrees>-4.01002963073551654815673828125</LongitudeDegrees>
            </Position>
            <AltitudeMeters>1602.199951171875</AltitudeMeters>
            <DistanceMeters>NAN</DistanceMeters>
          </Trackpoint>
          <Trackpoint>
            <Time>2019-08-01T12:05:02.000Z</Time>
            <Position>
              <LatitudeDegrees>40.76660044491291046142578125</LatitudeDegrees>
              <LongitudeDegrees>-4.010023176670074462890625</LongitudeDegrees>
            </Position>
            <AltitudeMeters>1602.5999755859375</AltitudeMeters>
            <DistanceMeters>NAN</DistanceMeters>
          </Trackpoint>
          <Trackpoint>
            <Time>2019-08-01T12:05:03.000Z</Time>
            <Position>
              <LatitudeDegrees>40.7666267640888690948486328125</LatitudeDegrees>
              <LongitudeDegrees>-4.0100159682333469390869140625</LongitudeDegrees>
            </Position>
            <AltitudeMeters>1602.800048828125</AltitudeMeters>
            <DistanceMeters>NAN</DistanceMeters>
          </Trackpoint>
          <Trackpoint>
            <Time>2019-08-01T12:05:04.000Z</Time>
            <Position>
              <LatitudeDegrees>40.76665299944579601287841796875</LatitudeDegrees>
              <LongitudeDegrees>-4.0100095979869365692138671875</LongitudeDegrees>
            </Position>
            <AltitudeMeters>1603</AltitudeMeters>
            <DistanceMeters>NAN</DistanceMeters>
          </Trackpoint>
          <Trackpoint>
            <Time>2019-08-01T12:05:05.000Z</Time>
            <Position>
              <LatitudeDegrees>40.76667864806950092315673828125</LatitudeDegrees>
              <LongitudeDegrees>-4.0100075863301753997802734375</LongitudeDegrees>
            </Position>
            <AltitudeMeters>1603.199951171875</AltitudeMeters>
            <DistanceMeters>NAN</DistanceMeters>
          </Trackpoint>
          <Trackpoint>
            <Time>2019-08-01T12:05:06.000Z</Time>
            <Position>
              <LatitudeDegrees>40.7667045481503009796142578125</LatitudeDegrees>
              <LongitudeDegrees>-4.01000297628343105316162109375</LongitudeDegrees>
            </Position>
            <AltitudeMeters>1603.4000244140625</AltitudeMeters>
            <DistanceMeters>NAN</DistanceMeters>
          </Trackpoint>
          <Trackpoint>
            <Time>2019-08-01T12:05:07.000Z</Time>
            <Position>
              <LatitudeDegrees>40.7667303644120693206787109375</LatitudeDegrees>
              <LongitudeDegrees>-4.00999828241765499114990234375</LongitudeDegrees>
            </Position>
            <AltitudeMeters>1603.800048828125</AltitudeMeters>
            <DistanceMeters>NAN</DistanceMeters>
          </Trackpoint>
          <Trackpoint>
            <Time>2019-08-01T12:05:08.000Z</Time>
            <Position>
              <LatitudeDegrees>40.76675601303577423095703125</LatitudeDegrees>
              <LongitudeDegrees>-4.0099941752851009368896484375</LongitudeDegrees>
            </Position>
            <AltitudeMeters>1604</AltitudeMeters>
            <DistanceMeters>NAN</DistanceMeters>
          </Trackpoint>
          <Trackpoint>
            <Time>2019-08-01T12:05:09.000Z</Time>
            <Position>
              <LatitudeDegrees>40.7667806558310985565185546875</LatitudeDegrees>
              <LongitudeDegrees>-4.00999392382800579071044921875</LongitudeDegrees>
            </Position>
            <AltitudeMeters>1604.199951171875</AltitudeMeters>
            <DistanceMeters>NAN</DistanceMeters>
          </Trackpoint>
          <Trackpoint>
            <Time>2019-08-01T12:05:10.000Z</Time>
            <Position>
              <LatitudeDegrees>40.7668041251599788665771484375</LatitudeDegrees>
              <LongitudeDegrees>-4.00999191217124462127685546875</LongitudeDegrees>
            </Position>
            <AltitudeMeters>1604.5999755859375</AltitudeMeters>
            <DistanceMeters>NAN</DistanceMeters>
          </Trackpoint>
          <Trackpoint>
            <Time>2019-08-01T12:05:11.000Z</Time>
            <Position>
              <LatitudeDegrees>40.76682868413627147674560546875</LatitudeDegrees>
              <LongitudeDegrees>-4.00998763740062713623046875</LongitudeDegrees>
            </Position>
            <AltitudeMeters>1604.800048828125</AltitudeMeters>
            <DistanceMeters>NAN</DistanceMeters>
          </Trackpoint>
          <Trackpoint>
            <Time>2019-08-01T12:05:12.000Z</Time>
            <Position>
              <LatitudeDegrees>40.7668544165790081024169921875</LatitudeDegrees>
              <LongitudeDegrees>-4.00998017750680446624755859375</LongitudeDegrees>
            </Position>
            <AltitudeMeters>1605</AltitudeMeters>
            <DistanceMeters>NAN</DistanceMeters>
          </Trackpoint>
          <Trackpoint>
            <Time>2019-08-01T12:05:13.000Z</Time>
            <Position>
              <LatitudeDegrees>40.7668798975646495819091796875</LatitudeDegrees>
              <LongitudeDegrees>-4.00997221469879150390625</LongitudeDegrees>
            </Position>
            <AltitudeMeters>1605.199951171875</AltitudeMeters>
            <DistanceMeters>NAN</DistanceMeters>
          </Trackpoint>
          <Trackpoint>
            <Time>2019-08-01T12:05:14.000Z</Time>
            <Position>
              <LatitudeDegrees>40.76690563000738620758056640625</LatitudeDegrees>
              <LongitudeDegrees>-4.0099656768143177032470703125</LongitudeDegrees>
            </Position>
            <AltitudeMeters>1605.4000244140625</AltitudeMeters>
            <DistanceMeters>NAN</DistanceMeters>
          </Trackpoint>
          <Trackpoint>
            <Time>2019-08-01T12:05:15.000Z</Time>
            <Position>
              <LatitudeDegrees>40.766930691897869110107421875</LatitudeDegrees>
              <LongitudeDegrees>-4.00996224023401737213134765625</LongitudeDegrees>
            </Position>
            <AltitudeMeters>1605.4000244140625</AltitudeMeters>
            <DistanceMeters>NAN</DistanceMeters>
          </Trackpoint>
          <Trackpoint>
            <Time>2019-08-01T12:05:16.000Z</Time>
            <Position>
              <LatitudeDegrees>40.766952820122241973876953125</LatitudeDegrees>
              <LongitudeDegrees>-4.00995838455855846405029296875</LongitudeDegrees>
            </Position>
            <AltitudeMeters>1605.800048828125</AltitudeMeters>
            <DistanceMeters>NAN</DistanceMeters>
          </Trackpoint>
          <Trackpoint>
            <Time>2019-08-01T12:05:17.000Z</Time>
            <Position>
              <LatitudeDegrees>40.76697017066180706024169921875</LatitudeDegrees>
              <LongitudeDegrees>-4.00995570234954357147216796875</LongitudeDegrees>
            </Position>
            <AltitudeMeters>1606</AltitudeMeters>
            <DistanceMeters>NAN</DistanceMeters>
          </Trackpoint>
          <Trackpoint>
            <Time>2019-08-01T12:05:18.000Z</Time>
            <Position>
              <LatitudeDegrees>40.76699263416230678558349609375</LatitudeDegrees>
              <LongitudeDegrees>-4.00995402596890926361083984375</LongitudeDegrees>
            </Position>
            <AltitudeMeters>1606.199951171875</AltitudeMeters>
            <DistanceMeters>NAN</DistanceMeters>
          </Trackpoint>
          <Trackpoint>
            <Time>2019-08-01T12:05:19.000Z</Time>
            <Position>
              <LatitudeDegrees>40.767017193138599395751953125</LatitudeDegrees>
              <LongitudeDegrees>-4.009951762855052947998046875</LongitudeDegrees>
            </Position>
            <AltitudeMeters>1606.5999755859375</AltitudeMeters>
            <DistanceMeters>NAN</DistanceMeters>
          </Trackpoint>
          <Trackpoint>
            <Time>2019-08-01T12:05:20.000Z</Time>
            <Position>
              <LatitudeDegrees>40.767017193138599395751953125</LatitudeDegrees>
              <LongitudeDegrees>-4.009951762855052947998046875</LongitudeDegrees>
            </Position>
            <AltitudeMeters>1606.800048828125</AltitudeMeters>
            <DistanceMeters>NAN</DistanceMeters>
          </Trackpoint>
          <Trackpoint>
            <Time>2019-08-01T12:05:21.000Z</Time>
            <Position>
              <LatitudeDegrees>40.76707008294761180877685546875</LatitudeDegrees>
              <LongitudeDegrees>-4.00993977673351764678955078125</LongitudeDegrees>
            </Position>
            <AltitudeMeters>1607.199951171875</AltitudeMeters>
            <DistanceMeters>NAN</DistanceMeters>
          </Trackpoint>
          <Trackpoint>
            <Time>2019-08-01T12:05:22.000Z</Time>
            <Position>
              <LatitudeDegrees>40.76709589920938014984130859375</LatitudeDegrees>
              <LongitudeDegrees>-4.00993441231548786163330078125</LongitudeDegrees>
            </Position>
            <AltitudeMeters>1607.5999755859375</AltitudeMeters>
            <DistanceMeters>NAN</DistanceMeters>
          </Trackpoint>
          <Trackpoint>
            <Time>2019-08-01T12:05:23.000Z</Time>
            <Position>
              <LatitudeDegrees>40.767121128737926483154296875</LatitudeDegrees>
              <LongitudeDegrees>-4.00993810035288333892822265625</LongitudeDegrees>
            </Position>
            <AltitudeMeters>1607.800048828125</AltitudeMeters>
            <DistanceMeters>NAN</DistanceMeters>
          </Trackpoint>
          <Trackpoint>
            <Time>2019-08-01T12:05:24.000Z</Time>
            <Position>
              <LatitudeDegrees>40.76714987866580486297607421875</LatitudeDegrees>
              <LongitudeDegrees>-4.009941034018993377685546875</LongitudeDegrees>
            </Position>
            <AltitudeMeters>1608</AltitudeMeters>
            <DistanceMeters>NAN</DistanceMeters>
          </Trackpoint>
          <Trackpoint>
            <Time>2019-08-01T12:05:25.000Z</Time>
            <Position>
              <LatitudeDegrees>40.76717770658433437347412109375</LatitudeDegrees>
              <LongitudeDegrees>-4.00993935763835906982421875</LongitudeDegrees>
            </Position>
            <AltitudeMeters>1608.199951171875</AltitudeMeters>
            <DistanceMeters>NAN</DistanceMeters>
          </Trackpoint>
          <Trackpoint>
            <Time>2019-08-01T12:05:26.000Z</Time>
            <Position>
              <LatitudeDegrees>40.7672067917883396148681640625</LatitudeDegrees>
              <LongitudeDegrees>-4.00993877090513706207275390625</LongitudeDegrees>
            </Position>
            <AltitudeMeters>1608.4000244140625</AltitudeMeters>
            <DistanceMeters>NAN</DistanceMeters>
          </Trackpoint>
          <Trackpoint>
            <Time>2019-08-01T12:05:27.000Z</Time>
            <Position>
              <LatitudeDegrees>40.7672359608113765716552734375</LatitudeDegrees>
              <LongitudeDegrees>-4.00993625633418560028076171875</LongitudeDegrees>
            </Position>
            <AltitudeMeters>1608.5999755859375</AltitudeMeters>
            <DistanceMeters>NAN</DistanceMeters>
          </Trackpoint>
          <Trackpoint>
            <Time>2019-08-01T12:05:28.000Z</Time>
            <Position>
              <LatitudeDegrees>40.7672654651105403900146484375</LatitudeDegrees>
              <LongitudeDegrees>-4.00993256829679012298583984375</LongitudeDegrees>
            </Position>
            <AltitudeMeters>1609</AltitudeMeters>
            <DistanceMeters>NAN</DistanceMeters>
          </Trackpoint>
          <Trackpoint>
            <Time>2019-08-01T12:05:29.000Z</Time>
            <Position>
              <LatitudeDegrees>40.76729706488549709320068359375</LatitudeDegrees>
              <LongitudeDegrees>-4.0099271200597286224365234375</LongitudeDegrees>
            </Position>
            <AltitudeMeters>1609</AltitudeMeters>
            <DistanceMeters>NAN</DistanceMeters>
          </Trackpoint>
          <Trackpoint>
            <Time>2019-08-01T12:05:30.000Z</Time>
            <Position>
              <LatitudeDegrees>40.76732858084142208099365234375</LatitudeDegrees>
              <LongitudeDegrees>-4.00992267765104770660400390625</LongitudeDegrees>
            </Position>
            <AltitudeMeters>1609.4000244140625</AltitudeMeters>
            <DistanceMeters>NAN</DistanceMeters>
          </Trackpoint>
          <Trackpoint>
            <Time>2019-08-01T12:05:31.000Z</Time>
            <Position>
              <LatitudeDegrees>40.76735892333090305328369140625</LatitudeDegrees>
              <LongitudeDegrees>-4.009920917451381683349609375</LongitudeDegrees>
            </Position>
            <AltitudeMeters>1609.5999755859375</AltitudeMeters>
            <DistanceMeters>NAN</DistanceMeters>
          </Trackpoint>
          <Trackpoint>
            <Time>2019-08-01T12:05:32.000Z</Time>
            <Position>
              <LatitudeDegrees>40.76738960109651088714599609375</LatitudeDegrees>
              <LongitudeDegrees>-4.00991655886173248291015625</LongitudeDegrees>
            </Position>
            <AltitudeMeters>1609.800048828125</AltitudeMeters>
            <DistanceMeters>NAN</DistanceMeters>
          </Trackpoint>
          <Trackpoint>
            <Time>2019-08-01T12:05:33.000Z</Time>
            <Position>
              <LatitudeDegrees>40.76741843484342098236083984375</LatitudeDegrees>
              <LongitudeDegrees>-4.00991312228143215179443359375</LongitudeDegrees>
            </Position>
            <AltitudeMeters>1610</AltitudeMeters>
            <DistanceMeters>NAN</DistanceMeters>
          </Trackpoint>
          <Trackpoint>
            <Time>2019-08-01T12:05:34.000Z</Time>
            <Position>
              <LatitudeDegrees>40.76744441874325275421142578125</LatitudeDegrees>
              <LongitudeDegrees>-4.009912870824337005615234375</LongitudeDegrees>
            </Position>
            <AltitudeMeters>1610.199951171875</AltitudeMeters>
            <DistanceMeters>NAN</DistanceMeters>
          </Trackpoint>
          <Trackpoint>
            <Time>2019-08-01T12:05:35.000Z</Time>
            <Position>
              <LatitudeDegrees>40.76746956445276737213134765625</LatitudeDegrees>
              <LongitudeDegrees>-4.0099091827869415283203125</LongitudeDegrees>
            </Position>
            <AltitudeMeters>1610.4000244140625</AltitudeMeters>
            <DistanceMeters>NAN</DistanceMeters>
          </Trackpoint>
          <Trackpoint>
            <Time>2019-08-01T12:05:36.000Z</Time>
            <Position>
              <LatitudeDegrees>40.7674974761903285980224609375</LatitudeDegrees>
              <LongitudeDegrees>-4.00990926660597324371337890625</LongitudeDegrees>
            </Position>
            <AltitudeMeters>1610.800048828125</AltitudeMeters>
            <DistanceMeters>NAN</DistanceMeters>
          </Trackpoint>
          <Trackpoint>
            <Time>2019-08-01T12:05:37.000Z</Time>
            <Position>
              <LatitudeDegrees>40.7675259746611118316650390625</LatitudeDegrees>
              <LongitudeDegrees>-4.00990784168243408203125</LongitudeDegrees>
            </Position>
            <AltitudeMeters>1611</AltitudeMeters>
            <DistanceMeters>NAN</DistanceMeters>
          </Trackpoint>
          <Trackpoint>
            <Time>2019-08-01T12:05:38.000Z</Time>
            <Position>
              <LatitudeDegrees>40.767553634941577911376953125</LatitudeDegrees>
              <LongitudeDegrees>-4.00990624912083148956298828125</LongitudeDegrees>
            </Position>
            <AltitudeMeters>1611.4000244140625</AltitudeMeters>
            <DistanceMeters>NAN</DistanceMeters>
          </Trackpoint>
          <Trackpoint>
            <Time>2019-08-01T12:05:39.000Z</Time>
            <Position>
              <LatitudeDegrees>40.76757903210818767547607421875</LatitudeDegrees>
              <LongitudeDegrees>-4.0099043212831020355224609375</LongitudeDegrees>
            </Position>
            <AltitudeMeters>1611.800048828125</AltitudeMeters>
            <DistanceMeters>NAN</DistanceMeters>
          </Trackpoint>
          <Trackpoint>
            <Time>2019-08-01T12:05:40.000Z</Time>
            <Position>
              <LatitudeDegrees>40.7676067762076854705810546875</LatitudeDegrees>
              <LongitudeDegrees>-4.009899795055389404296875</LongitudeDegrees>
            </Position>
            <AltitudeMeters>1612.199951171875</AltitudeMeters>
            <DistanceMeters>NAN</DistanceMeters>
          </Trackpoint>
          <Trackpoint>
            <Time>2019-08-01T12:05:41.000Z</Time>
            <Position>
              <LatitudeDegrees>40.7676337659358978271484375</LatitudeDegrees>
              <LongitudeDegrees>-4.00989451445639133453369140625</LongitudeDegrees>
            </Position>
            <AltitudeMeters>1612.4000244140625</AltitudeMeters>
            <DistanceMeters>NAN</DistanceMeters>
          </Trackpoint>
          <Trackpoint>
            <Time>2019-08-01T12:05:42.000Z</Time>
            <Position>
              <LatitudeDegrees>40.767658911645412445068359375</LatitudeDegrees>
              <LongitudeDegrees>-4.009889066219329833984375</LongitudeDegrees>
            </Position>
            <AltitudeMeters>1612.5999755859375</AltitudeMeters>
            <DistanceMeters>NAN</DistanceMeters>
          </Trackpoint>
          <Trackpoint>
            <Time>2019-08-01T12:05:43.000Z</Time>
            <Position>
              <LatitudeDegrees>40.76768682338297367095947265625</LatitudeDegrees>
              <LongitudeDegrees>-4.00988160632550716400146484375</LongitudeDegrees>
            </Position>
            <AltitudeMeters>1613</AltitudeMeters>
            <DistanceMeters>NAN</DistanceMeters>
          </Trackpoint>
          <Trackpoint>
            <Time>2019-08-01T12:05:44.000Z</Time>
            <Position>
              <LatitudeDegrees>40.76771515421569347381591796875</LatitudeDegrees>
              <LongitudeDegrees>-4.0098714642226696014404296875</LongitudeDegrees>
            </Position>
            <AltitudeMeters>1613.199951171875</AltitudeMeters>
            <DistanceMeters>NAN</DistanceMeters>
          </Trackpoint>
          <Trackpoint>
            <Time>2019-08-01T12:05:45.000Z</Time>
            <Position>
              <LatitudeDegrees>40.76774281449615955352783203125</LatitudeDegrees>
              <LongitudeDegrees>-4.00986148975789546966552734375</LongitudeDegrees>
            </Position>
            <AltitudeMeters>1613.5999755859375</AltitudeMeters>
            <DistanceMeters>NAN</DistanceMeters>
          </Trackpoint>
          <Trackpoint>
            <Time>2019-08-01T12:05:46.000Z</Time>
            <Position>
              <LatitudeDegrees>40.7677693851292133331298828125</LatitudeDegrees>
              <LongitudeDegrees>-4.00985143147408962249755859375</LongitudeDegrees>
            </Position>
            <AltitudeMeters>1614</AltitudeMeters>
            <DistanceMeters>NAN</DistanceMeters>
          </Trackpoint>
          <Trackpoint>
            <Time>2019-08-01T12:05:47.000Z</Time>
            <Position>
              <LatitudeDegrees>40.7677945308387279510498046875</LatitudeDegrees>
              <LongitudeDegrees>-4.009841792285442352294921875</LongitudeDegrees>
            </Position>
            <AltitudeMeters>1614.199951171875</AltitudeMeters>
            <DistanceMeters>NAN</DistanceMeters>
          </Trackpoint>
          <Trackpoint>
            <Time>2019-08-01T12:05:48.000Z</Time>
            <Position>
              <LatitudeDegrees>40.76781992800533771514892578125</LatitudeDegrees>
              <LongitudeDegrees>-4.00983114726841449737548828125</LongitudeDegrees>
            </Position>
            <AltitudeMeters>1614.4000244140625</AltitudeMeters>
            <DistanceMeters>NAN</DistanceMeters>
          </Trackpoint>
          <Trackpoint>
            <Time>2019-08-01T12:05:49.000Z</Time>
            <Position>
              <LatitudeDegrees>40.76784498989582061767578125</LatitudeDegrees>
              <LongitudeDegrees>-4.00981857441365718841552734375</LongitudeDegrees>
            </Position>
            <AltitudeMeters>1614.5999755859375</AltitudeMeters>
            <DistanceMeters>NAN</DistanceMeters>
          </Trackpoint>
          <Trackpoint>
            <Time>2019-08-01T12:05:50.000Z</Time>
            <Position>
              <LatitudeDegrees>40.76787038706243038177490234375</LatitudeDegrees>
              <LongitudeDegrees>-4.00980600155889987945556640625</LongitudeDegrees>
            </Position>
            <AltitudeMeters>1614.5999755859375</AltitudeMeters>
            <DistanceMeters>NAN</DistanceMeters>
          </Trackpoint>
          <Trackpoint>
            <Time>2019-08-01T12:05:51.000Z</Time>
            <Position>
              <LatitudeDegrees>40.7678954489529132843017578125</LatitudeDegrees>
              <LongitudeDegrees>-4.00979242287576198577880859375</LongitudeDegrees>
            </Position>
            <AltitudeMeters>1615</AltitudeMeters>
            <DistanceMeters>NAN</DistanceMeters>
          </Trackpoint>
          <Trackpoint>
            <Time>2019-08-01T12:05:52.000Z</Time>
            <Position>
              <LatitudeDegrees>40.7679205946624279022216796875</LatitudeDegrees>
              <LongitudeDegrees>-4.00977909564971923828125</LongitudeDegrees>
            </Position>
            <AltitudeMeters>1615</AltitudeMeters>
            <DistanceMeters>NAN</DistanceMeters>
          </Trackpoint>
          <Trackpoint>
            <Time>2019-08-01T12:05:53.000Z</Time>
            <Position>
              <LatitudeDegrees>40.76794691383838653564453125</LatitudeDegrees>
              <LongitudeDegrees>-4.0097645111382007598876953125</LongitudeDegrees>
            </Position>
            <AltitudeMeters>1615.199951171875</AltitudeMeters>
            <DistanceMeters>NAN</DistanceMeters>
          </Trackpoint>
          <Trackpoint>
            <Time>2019-08-01T12:05:54.000Z</Time>
            <Position>
              <LatitudeDegrees>40.76797507703304290771484375</LatitudeDegrees>
              <LongitudeDegrees>-4.00974892079830169677734375</LongitudeDegrees>
            </Position>
            <AltitudeMeters>1615.4000244140625</AltitudeMeters>
            <DistanceMeters>NAN</DistanceMeters>
          </Trackpoint>
          <Trackpoint>
            <Time>2019-08-01T12:05:55.000Z</Time>
            <Position>
              <LatitudeDegrees>40.7680020667612552642822265625</LatitudeDegrees>
              <LongitudeDegrees>-4.0097333304584026336669921875</LongitudeDegrees>
            </Position>
            <AltitudeMeters>1615.5999755859375</AltitudeMeters>
            <DistanceMeters>NAN</DistanceMeters>
          </Trackpoint>
          <Trackpoint>
            <Time>2019-08-01T12:05:56.000Z</Time>
            <Position>
              <LatitudeDegrees>40.7680020667612552642822265625</LatitudeDegrees>
              <LongitudeDegrees>-4.0097333304584026336669921875</LongitudeDegrees>
            </Position>
            <AltitudeMeters>1616</AltitudeMeters>
            <DistanceMeters>NAN</DistanceMeters>
          </Trackpoint>
          <Trackpoint>
            <Time>2019-08-01T12:05:57.000Z</Time>
            <Position>
              <LatitudeDegrees>40.76805680058896541595458984375</LatitudeDegrees>
              <LongitudeDegrees>-4.00970106013119220733642578125</LongitudeDegrees>
            </Position>
            <AltitudeMeters>1616.199951171875</AltitudeMeters>
            <DistanceMeters>NAN</DistanceMeters>
          </Trackpoint>
          <Trackpoint>
            <Time>2019-08-01T12:05:58.000Z</Time>
            <Position>
              <LatitudeDegrees>40.76807959936559200286865234375</LatitudeDegrees>
              <LongitudeDegrees>-4.0096860565245151519775390625</LongitudeDegrees>
            </Position>
            <AltitudeMeters>1616.5999755859375</AltitudeMeters>
            <DistanceMeters>NAN</DistanceMeters>
          </Trackpoint>
          <Trackpoint>
            <Time>2019-08-01T12:05:59.000Z</Time>
            <Position>
              <LatitudeDegrees>40.7681026495993137359619140625</LatitudeDegrees>
              <LongitudeDegrees>-4.00967247784137725830078125</LongitudeDegrees>
            </Position>
            <AltitudeMeters>1616.800048828125</AltitudeMeters>
            <DistanceMeters>NAN</DistanceMeters>
          </Trackpoint>
          <Trackpoint>
            <Time>2019-08-01T12:06:00.000Z</Time>
            <Position>
              <LatitudeDegrees>40.76812720857560634613037109375</LatitudeDegrees>
              <LongitudeDegrees>-4.0096582286059856414794921875</LongitudeDegrees>
            </Position>
            <AltitudeMeters>1617</AltitudeMeters>
            <DistanceMeters>NAN</DistanceMeters>
          </Trackpoint>
          <Trackpoint>
            <Time>2019-08-01T12:06:01.000Z</Time>
            <Position>
              <LatitudeDegrees>40.768152438104152679443359375</LatitudeDegrees>
              <LongitudeDegrees>-4.00964138098061084747314453125</LongitudeDegrees>
            </Position>
            <AltitudeMeters>1617.199951171875</AltitudeMeters>
            <DistanceMeters>NAN</DistanceMeters>
          </Trackpoint>
          <Trackpoint>
            <Time>2019-08-01T12:06:02.000Z</Time>
            <Position>
              <LatitudeDegrees>40.76817934401333332061767578125</LatitudeDegrees>
              <LongitudeDegrees>-4.0096240304410457611083984375</LongitudeDegrees>
            </Position>
            <AltitudeMeters>1617.5999755859375</AltitudeMeters>
            <DistanceMeters>NAN</DistanceMeters>
          </Trackpoint>
          <Trackpoint>
            <Time>2019-08-01T12:06:03.000Z</Time>
            <Position>
              <LatitudeDegrees>40.76820733956992626190185546875</LatitudeDegrees>
              <LongitudeDegrees>-4.00960718281567096710205078125</LongitudeDegrees>
            </Position>
            <AltitudeMeters>1617.800048828125</AltitudeMeters>
            <DistanceMeters>NAN</DistanceMeters>
          </Trackpoint>
          <Trackpoint>
            <Time>2019-08-01T12:06:04.000Z</Time>
            <Position>
              <LatitudeDegrees>40.76823550276458263397216796875</LatitudeDegrees>
              <LongitudeDegrees>-4.0095911733806133270263671875</LongitudeDegrees>
            </Position>
            <AltitudeMeters>1618.199951171875</AltitudeMeters>
            <DistanceMeters>NAN</DistanceMeters>
          </Trackpoint>
          <Trackpoint>
            <Time>2019-08-01T12:06:05.000Z</Time>
            <Position>
              <LatitudeDegrees>40.76823550276458263397216796875</LatitudeDegrees>
              <LongitudeDegrees>-4.0095911733806133270263671875</LongitudeDegrees>
            </Position>
            <AltitudeMeters>1618.4000244140625</AltitudeMeters>
            <DistanceMeters>NAN</DistanceMeters>
          </Trackpoint>
          <Trackpoint>
            <Time>2019-08-01T12:06:06.000Z</Time>
            <Position>
              <LatitudeDegrees>40.768290571868419647216796875</LatitudeDegrees>
              <LongitudeDegrees>-4.00955907069146633148193359375</LongitudeDegrees>
            </Position>
            <AltitudeMeters>1618.800048828125</AltitudeMeters>
            <DistanceMeters>NAN</DistanceMeters>
          </Trackpoint>
          <Trackpoint>
            <Time>2019-08-01T12:06:07.000Z</Time>
            <Position>
              <LatitudeDegrees>40.768317393958568572998046875</LatitudeDegrees>
              <LongitudeDegrees>-4.009545743465423583984375</LongitudeDegrees>
            </Position>
            <AltitudeMeters>1619</AltitudeMeters>
            <DistanceMeters>NAN</DistanceMeters>
          </Trackpoint>
          <Trackpoint>
            <Time>2019-08-01T12:06:08.000Z</Time>
            <Position>
              <LatitudeDegrees>40.76834530569612979888916015625</LatitudeDegrees>
              <LongitudeDegrees>-4.0095301531255245208740234375</LongitudeDegrees>
            </Position>
            <AltitudeMeters>1619.199951171875</AltitudeMeters>
            <DistanceMeters>NAN</DistanceMeters>
          </Trackpoint>
          <Trackpoint>
            <Time>2019-08-01T12:06:09.000Z</Time>
            <Position>
              <LatitudeDegrees>40.7683752290904521942138671875</LatitudeDegrees>
              <LongitudeDegrees>-4.0095130540430545806884765625</LongitudeDegrees>
            </Position>
            <AltitudeMeters>1619.4000244140625</AltitudeMeters>
            <DistanceMeters>NAN</DistanceMeters>
          </Trackpoint>
          <Trackpoint>
            <Time>2019-08-01T12:06:10.000Z</Time>
            <Position>
              <LatitudeDegrees>40.7684054039418697357177734375</LatitudeDegrees>
              <LongitudeDegrees>-4.0094962902367115020751953125</LongitudeDegrees>
            </Position>
            <AltitudeMeters>1619.5999755859375</AltitudeMeters>
            <DistanceMeters>NAN</DistanceMeters>
          </Trackpoint>
          <Trackpoint>
            <Time>2019-08-01T12:06:11.000Z</Time>
            <Position>
              <LatitudeDegrees>40.7684339024126529693603515625</LatitudeDegrees>
              <LongitudeDegrees>-4.00947944261133670806884765625</LongitudeDegrees>
            </Position>
            <AltitudeMeters>1620</AltitudeMeters>
            <DistanceMeters>NAN</DistanceMeters>
          </Trackpoint>
          <Trackpoint>
            <Time>2019-08-01T12:06:12.000Z</Time>
            <Position>
              <LatitudeDegrees>40.76846055686473846435546875</LatitudeDegrees>
              <LongitudeDegrees>-4.00946267880499362945556640625</LongitudeDegrees>
            </Position>
            <AltitudeMeters>1620.199951171875</AltitudeMeters>
            <DistanceMeters>NAN</DistanceMeters>
          </Trackpoint>
          <Trackpoint>
            <Time>2019-08-01T12:06:13.000Z</Time>
            <Position>
              <LatitudeDegrees>40.76848469674587249755859375</LatitudeDegrees>
              <LongitudeDegrees>-4.0094476751983165740966796875</LongitudeDegrees>
            </Position>
            <AltitudeMeters>1620.5999755859375</AltitudeMeters>
            <DistanceMeters>NAN</DistanceMeters>
          </Trackpoint>
          <Trackpoint>
            <Time>2019-08-01T12:06:14.000Z</Time>
            <Position>
              <LatitudeDegrees>40.7685106806457042694091796875</LatitudeDegrees>
              <LongitudeDegrees>-4.00943242013454437255859375</LongitudeDegrees>
            </Position>
            <AltitudeMeters>1620.800048828125</AltitudeMeters>
            <DistanceMeters>NAN</DistanceMeters>
          </Trackpoint>
          <Trackpoint>
            <Time>2019-08-01T12:06:15.000Z</Time>
            <Position>
              <LatitudeDegrees>40.7685106806457042694091796875</LatitudeDegrees>
              <LongitudeDegrees>-4.00943242013454437255859375</LongitudeDegrees>
            </Position>
            <AltitudeMeters>1621.199951171875</AltitudeMeters>
            <DistanceMeters>NAN</DistanceMeters>
          </Trackpoint>
          <Trackpoint>
            <Time>2019-08-01T12:06:16.000Z</Time>
            <Position>
              <LatitudeDegrees>40.7685676775872707366943359375</LatitudeDegrees>
              <LongitudeDegrees>-4.00940132327377796173095703125</LongitudeDegrees>
            </Position>
            <AltitudeMeters>1621.4000244140625</AltitudeMeters>
            <DistanceMeters>NAN</DistanceMeters>
          </Trackpoint>
          <Trackpoint>
            <Time>2019-08-01T12:06:17.000Z</Time>
            <Position>
              <LatitudeDegrees>40.7685676775872707366943359375</LatitudeDegrees>
              <LongitudeDegrees>-4.00940132327377796173095703125</LongitudeDegrees>
            </Position>
            <AltitudeMeters>1621.5999755859375</AltitudeMeters>
            <DistanceMeters>NAN</DistanceMeters>
          </Trackpoint>
          <Trackpoint>
            <Time>2019-08-01T12:06:18.000Z</Time>
            <Position>
              <LatitudeDegrees>40.7686236687004566192626953125</LatitudeDegrees>
              <LongitudeDegrees>-4.0093668736517429351806640625</LongitudeDegrees>
            </Position>
            <AltitudeMeters>1621.800048828125</AltitudeMeters>
            <DistanceMeters>NAN</DistanceMeters>
          </Trackpoint>
          <Trackpoint>
            <Time>2019-08-01T12:06:19.000Z</Time>
            <Position>
              <LatitudeDegrees>40.76865241862833499908447265625</LatitudeDegrees>
              <LongitudeDegrees>-4.0093507803976535797119140625</LongitudeDegrees>
            </Position>
            <AltitudeMeters>1622</AltitudeMeters>
            <DistanceMeters>NAN</DistanceMeters>
          </Trackpoint>
          <Trackpoint>
            <Time>2019-08-01T12:06:20.000Z</Time>
            <Position>
              <LatitudeDegrees>40.76865241862833499908447265625</LatitudeDegrees>
              <LongitudeDegrees>-4.0093507803976535797119140625</LongitudeDegrees>
            </Position>
            <AltitudeMeters>1622.199951171875</AltitudeMeters>
            <DistanceMeters>NAN</DistanceMeters>
          </Trackpoint>
          <Trackpoint>
            <Time>2019-08-01T12:06:21.000Z</Time>
            <Position>
              <LatitudeDegrees>40.76871042139828205108642578125</LatitudeDegrees>
              <LongitudeDegrees>-4.0093202702701091766357421875</LongitudeDegrees>
            </Position>
            <AltitudeMeters>1622.4000244140625</AltitudeMeters>
            <DistanceMeters>NAN</DistanceMeters>
          </Trackpoint>
          <Trackpoint>
            <Time>2019-08-01T12:06:22.000Z</Time>
            <Position>
              <LatitudeDegrees>40.76871042139828205108642578125</LatitudeDegrees>
              <LongitudeDegrees>-4.0093202702701091766357421875</LongitudeDegrees>
            </Position>
            <AltitudeMeters>1622.5999755859375</AltitudeMeters>
            <DistanceMeters>NAN</DistanceMeters>
          </Trackpoint>
          <Trackpoint>
            <Time>2019-08-01T12:06:23.000Z</Time>
            <Position>
              <LatitudeDegrees>40.768764652311801910400390625</LatitudeDegrees>
              <LongitudeDegrees>-4.00928984396159648895263671875</LongitudeDegrees>
            </Position>
            <AltitudeMeters>1622.800048828125</AltitudeMeters>
            <DistanceMeters>NAN</DistanceMeters>
          </Trackpoint>
          <Trackpoint>
            <Time>2019-08-01T12:06:24.000Z</Time>
            <Position>
              <LatitudeDegrees>40.768764652311801910400390625</LatitudeDegrees>
              <LongitudeDegrees>-4.00928984396159648895263671875</LongitudeDegrees>
            </Position>
            <AltitudeMeters>1623</AltitudeMeters>
            <DistanceMeters>NAN</DistanceMeters>
          </Trackpoint>
          <Trackpoint>
            <Time>2019-08-01T12:06:25.000Z</Time>
            <Position>
              <LatitudeDegrees>40.7688193023204803466796875</LatitudeDegrees>
              <LongitudeDegrees>-4.00926084257662296295166015625</LongitudeDegrees>
            </Position>
            <AltitudeMeters>1623.199951171875</AltitudeMeters>
            <DistanceMeters>NAN</DistanceMeters>
          </Trackpoint>
          <Trackpoint>
            <Time>2019-08-01T12:06:26.000Z</Time>
            <Position>
              <LatitudeDegrees>40.7688461244106292724609375</LatitudeDegrees>
              <LongitudeDegrees>-4.00924609042704105377197265625</LongitudeDegrees>
            </Position>
            <AltitudeMeters>1623.5999755859375</AltitudeMeters>
            <DistanceMeters>NAN</DistanceMeters>
          </Trackpoint>
          <Trackpoint>
            <Time>2019-08-01T12:06:27.000Z</Time>
            <Position>
              <LatitudeDegrees>40.76887319795787334442138671875</LatitudeDegrees>
              <LongitudeDegrees>-4.0092297457158565521240234375</LongitudeDegrees>
            </Position>
            <AltitudeMeters>1623.5999755859375</AltitudeMeters>
            <DistanceMeters>NAN</DistanceMeters>
          </Trackpoint>
          <Trackpoint>
            <Time>2019-08-01T12:06:28.000Z</Time>
            <Position>
              <LatitudeDegrees>40.7689006067812442779541015625</LatitudeDegrees>
              <LongitudeDegrees>-4.0092133171856403350830078125</LongitudeDegrees>
            </Position>
            <AltitudeMeters>1624</AltitudeMeters>
            <DistanceMeters>NAN</DistanceMeters>
          </Trackpoint>
          <Trackpoint>
            <Time>2019-08-01T12:06:29.000Z</Time>
            <Position>
              <LatitudeDegrees>40.7689274288713932037353515625</LatitudeDegrees>
              <LongitudeDegrees>-4.00919697247445583343505859375</LongitudeDegrees>
            </Position>
            <AltitudeMeters>1624</AltitudeMeters>
            <DistanceMeters>NAN</DistanceMeters>
          </Trackpoint>
          <Trackpoint>
            <Time>2019-08-01T12:06:30.000Z</Time>
            <Position>
              <LatitudeDegrees>40.768954753875732421875</LatitudeDegrees>
              <LongitudeDegrees>-4.0091804601252079010009765625</LongitudeDegrees>
            </Position>
            <AltitudeMeters>1624.4000244140625</AltitudeMeters>
            <DistanceMeters>NAN</DistanceMeters>
          </Trackpoint>
          <Trackpoint>
            <Time>2019-08-01T12:06:31.000Z</Time>
            <Position>
              <LatitudeDegrees>40.768954753875732421875</LatitudeDegrees>
              <LongitudeDegrees>-4.0091804601252079010009765625</LongitudeDegrees>
            </Position>
            <AltitudeMeters>1624.800048828125</AltitudeMeters>
            <DistanceMeters>NAN</DistanceMeters>
          </Trackpoint>
          <Trackpoint>
            <Time>2019-08-01T12:06:32.000Z</Time>
            <Position>
              <LatitudeDegrees>40.7690089009702205657958984375</LatitudeDegrees>
              <LongitudeDegrees>-4.009143747389316558837890625</LongitudeDegrees>
            </Position>
            <AltitudeMeters>1625</AltitudeMeters>
            <DistanceMeters>NAN</DistanceMeters>
          </Trackpoint>
          <Trackpoint>
            <Time>2019-08-01T12:06:33.000Z</Time>
            <Position>
              <LatitudeDegrees>40.769036225974559783935546875</LatitudeDegrees>
              <LongitudeDegrees>-4.0091284923255443572998046875</LongitudeDegrees>
            </Position>
            <AltitudeMeters>1625.5999755859375</AltitudeMeters>
            <DistanceMeters>NAN</DistanceMeters>
          </Trackpoint>
          <Trackpoint>
            <Time>2019-08-01T12:06:34.000Z</Time>
            <Position>
              <LatitudeDegrees>40.7690628804266452789306640625</LatitudeDegrees>
              <LongitudeDegrees>-4.00911348871886730194091796875</LongitudeDegrees>
            </Position>
            <AltitudeMeters>1625.800048828125</AltitudeMeters>
            <DistanceMeters>NAN</DistanceMeters>
          </Trackpoint>
          <Trackpoint>
            <Time>2019-08-01T12:06:35.000Z</Time>
            <Position>
              <LatitudeDegrees>40.7690628804266452789306640625</LatitudeDegrees>
              <LongitudeDegrees>-4.00911348871886730194091796875</LongitudeDegrees>
            </Position>
            <AltitudeMeters>1626.199951171875</AltitudeMeters>
            <DistanceMeters>NAN</DistanceMeters>
          </Trackpoint>
          <Trackpoint>
            <Time>2019-08-01T12:06:36.000Z</Time>
            <Position>
              <LatitudeDegrees>40.7691192068159580230712890625</LatitudeDegrees>
              <LongitudeDegrees>-4.00907945819199085235595703125</LongitudeDegrees>
            </Position>
            <AltitudeMeters>1626.4000244140625</AltitudeMeters>
            <DistanceMeters>NAN</DistanceMeters>
          </Trackpoint>
          <Trackpoint>
            <Time>2019-08-01T12:06:37.000Z</Time>
            <Position>
              <LatitudeDegrees>40.76914762146770954132080078125</LatitudeDegrees>
              <LongitudeDegrees>-4.00906336493790149688720703125</LongitudeDegrees>
            </Position>
            <AltitudeMeters>1626.4000244140625</AltitudeMeters>
            <DistanceMeters>NAN</DistanceMeters>
          </Trackpoint>
          <Trackpoint>
            <Time>2019-08-01T12:06:38.000Z</Time>
            <Position>
              <LatitudeDegrees>40.7691725157201290130615234375</LatitudeDegrees>
              <LongitudeDegrees>-4.0090476907789707183837890625</LongitudeDegrees>
            </Position>
            <AltitudeMeters>1626.4000244140625</AltitudeMeters>
            <DistanceMeters>NAN</DistanceMeters>
          </Trackpoint>
          <Trackpoint>
            <Time>2019-08-01T12:06:39.000Z</Time>
            <Position>
              <LatitudeDegrees>40.7691959850490093231201171875</LatitudeDegrees>
              <LongitudeDegrees>-4.0090305916965007781982421875</LongitudeDegrees>
            </Position>
            <AltitudeMeters>1626.5999755859375</AltitudeMeters>
            <DistanceMeters>NAN</DistanceMeters>
          </Trackpoint>
          <Trackpoint>
            <Time>2019-08-01T12:06:40.000Z</Time>
            <Position>
              <LatitudeDegrees>40.76922037638723850250244140625</LatitudeDegrees>
              <LongitudeDegrees>-4.00901525281369686126708984375</LongitudeDegrees>
            </Position>
            <AltitudeMeters>1626.800048828125</AltitudeMeters>
            <DistanceMeters>NAN</DistanceMeters>
          </Trackpoint>
          <Trackpoint>
            <Time>2019-08-01T12:06:41.000Z</Time>
            <Position>
              <LatitudeDegrees>40.769246108829975128173828125</LatitudeDegrees>
              <LongitudeDegrees>-4.00899983011186122894287109375</LongitudeDegrees>
            </Position>
            <AltitudeMeters>1627.199951171875</AltitudeMeters>
            <DistanceMeters>NAN</DistanceMeters>
          </Trackpoint>
          <Trackpoint>
            <Time>2019-08-01T12:06:42.000Z</Time>
            <Position>
              <LatitudeDegrees>40.7692724280059337615966796875</LatitudeDegrees>
              <LongitudeDegrees>-4.00898423977196216583251953125</LongitudeDegrees>
            </Position>
            <AltitudeMeters>1627.4000244140625</AltitudeMeters>
            <DistanceMeters>NAN</DistanceMeters>
          </Trackpoint>
          <Trackpoint>
            <Time>2019-08-01T12:06:43.000Z</Time>
            <Position>
              <LatitudeDegrees>40.76929748989641666412353515625</LatitudeDegrees>
              <LongitudeDegrees>-4.00896663777530193328857421875</LongitudeDegrees>
            </Position>
            <AltitudeMeters>1627.5999755859375</AltitudeMeters>
            <DistanceMeters>NAN</DistanceMeters>
          </Trackpoint>
          <Trackpoint>
            <Time>2019-08-01T12:06:44.000Z</Time>
            <Position>
              <LatitudeDegrees>40.7693247310817241668701171875</LatitudeDegrees>
              <LongitudeDegrees>-4.0089494548738002777099609375</LongitudeDegrees>
            </Position>
            <AltitudeMeters>1627.800048828125</AltitudeMeters>
            <DistanceMeters>NAN</DistanceMeters>
          </Trackpoint>
          <Trackpoint>
            <Time>2019-08-01T12:06:45.000Z</Time>
            <Position>
              <LatitudeDegrees>40.7693247310817241668701171875</LatitudeDegrees>
              <LongitudeDegrees>-4.0089494548738002777099609375</LongitudeDegrees>
            </Position>
            <AltitudeMeters>1628.199951171875</AltitudeMeters>
            <DistanceMeters>NAN</DistanceMeters>
          </Trackpoint>
          <Trackpoint>
            <Time>2019-08-01T12:06:46.000Z</Time>
            <Position>
              <LatitudeDegrees>40.76937653124332427978515625</LatitudeDegrees>
              <LongitudeDegrees>-4.0089149214327335357666015625</LongitudeDegrees>
            </Position>
            <AltitudeMeters>1628.4000244140625</AltitudeMeters>
            <DistanceMeters>NAN</DistanceMeters>
          </Trackpoint>
          <Trackpoint>
            <Time>2019-08-01T12:06:47.000Z</Time>
            <Position>
              <LatitudeDegrees>40.76940025202929973602294921875</LatitudeDegrees>
              <LongitudeDegrees>-4.00889790616929531097412109375</LongitudeDegrees>
            </Position>
            <AltitudeMeters>1628.5999755859375</AltitudeMeters>
            <DistanceMeters>NAN</DistanceMeters>
          </Trackpoint>
          <Trackpoint>
            <Time>2019-08-01T12:06:48.000Z</Time>
            <Position>
              <LatitudeDegrees>40.7694266550242900848388671875</LatitudeDegrees>
              <LongitudeDegrees>-4.00888147763907909393310546875</LongitudeDegrees>
            </Position>
            <AltitudeMeters>1628.800048828125</AltitudeMeters>
            <DistanceMeters>NAN</DistanceMeters>
          </Trackpoint>
          <Trackpoint>
            <Time>2019-08-01T12:06:49.000Z</Time>
            <Position>
              <LatitudeDegrees>40.76945255510509014129638671875</LatitudeDegrees>
              <LongitudeDegrees>-4.00886588729918003082275390625</LongitudeDegrees>
            </Position>
            <AltitudeMeters>1629</AltitudeMeters>
            <DistanceMeters>NAN</DistanceMeters>
          </Trackpoint>
          <Trackpoint>
            <Time>2019-08-01T12:06:50.000Z</Time>
            <Position>
              <LatitudeDegrees>40.769478119909763336181640625</LatitudeDegrees>
              <LongitudeDegrees>-4.00884945876896381378173828125</LongitudeDegrees>
            </Position>
            <AltitudeMeters>1629.4000244140625</AltitudeMeters>
            <DistanceMeters>NAN</DistanceMeters>
          </Trackpoint>
          <Trackpoint>
            <Time>2019-08-01T12:06:51.000Z</Time>
            <Position>
              <LatitudeDegrees>40.7695030979812145233154296875</LatitudeDegrees>
              <LongitudeDegrees>-4.00883185677230358123779296875</LongitudeDegrees>
            </Position>
            <AltitudeMeters>1629.5999755859375</AltitudeMeters>
            <DistanceMeters>NAN</DistanceMeters>
          </Trackpoint>
          <Trackpoint>
            <Time>2019-08-01T12:06:52.000Z</Time>
            <Position>
              <LatitudeDegrees>40.769527740776538848876953125</LatitudeDegrees>
              <LongitudeDegrees>-4.0088160149753093719482421875</LongitudeDegrees>
            </Position>
            <AltitudeMeters>1630</AltitudeMeters>
            <DistanceMeters>NAN</DistanceMeters>
          </Trackpoint>
          <Trackpoint>
            <Time>2019-08-01T12:06:53.000Z</Time>
            <Position>
              <LatitudeDegrees>40.76955213211476802825927734375</LatitudeDegrees>
              <LongitudeDegrees>-4.00879916734993457794189453125</LongitudeDegrees>
            </Position>
            <AltitudeMeters>1630.4000244140625</AltitudeMeters>
            <DistanceMeters>NAN</DistanceMeters>
          </Trackpoint>
          <Trackpoint>
            <Time>2019-08-01T12:06:54.000Z</Time>
            <Position>
              <LatitudeDegrees>40.7695792056620121002197265625</LatitudeDegrees>
              <LongitudeDegrees>-4.00878139771521091461181640625</LongitudeDegrees>
            </Position>
            <AltitudeMeters>1630.4000244140625</AltitudeMeters>
            <DistanceMeters>NAN</DistanceMeters>
          </Trackpoint>
          <Trackpoint>
            <Time>2019-08-01T12:06:55.000Z</Time>
            <Position>
              <LatitudeDegrees>40.76960560865700244903564453125</LatitudeDegrees>
              <LongitudeDegrees>-4.008761532604694366455078125</LongitudeDegrees>
            </Position>
            <AltitudeMeters>1630.5999755859375</AltitudeMeters>
            <DistanceMeters>NAN</DistanceMeters>
          </Trackpoint>
          <Trackpoint>
            <Time>2019-08-01T12:06:56.000Z</Time>
            <Position>
              <LatitudeDegrees>40.7696321792900562286376953125</LatitudeDegrees>
              <LongitudeDegrees>-4.008743427693843841552734375</LongitudeDegrees>
            </Position>
            <AltitudeMeters>1630.800048828125</AltitudeMeters>
            <DistanceMeters>NAN</DistanceMeters>
          </Trackpoint>
          <Trackpoint>
            <Time>2019-08-01T12:06:57.000Z</Time>
            <Position>
              <LatitudeDegrees>40.76966009102761745452880859375</LatitudeDegrees>
              <LongitudeDegrees>-4.008724652230739593505859375</LongitudeDegrees>
            </Position>
            <AltitudeMeters>1631.199951171875</AltitudeMeters>
            <DistanceMeters>NAN</DistanceMeters>
          </Trackpoint>
          <Trackpoint>
            <Time>2019-08-01T12:06:58.000Z</Time>
            <Position>
              <LatitudeDegrees>40.7696858234703540802001953125</LatitudeDegrees>
              <LongitudeDegrees>-4.0087048709392547607421875</LongitudeDegrees>
            </Position>
            <AltitudeMeters>1631.4000244140625</AltitudeMeters>
            <DistanceMeters>NAN</DistanceMeters>
          </Trackpoint>
          <Trackpoint>
            <Time>2019-08-01T12:06:59.000Z</Time>
            <Position>
              <LatitudeDegrees>40.769711472094058990478515625</LatitudeDegrees>
              <LongitudeDegrees>-4.00868668220937252044677734375</LongitudeDegrees>
            </Position>
            <AltitudeMeters>1631.5999755859375</AltitudeMeters>
            <DistanceMeters>NAN</DistanceMeters>
          </Trackpoint>
          <Trackpoint>
            <Time>2019-08-01T12:07:00.000Z</Time>
            <Position>
              <LatitudeDegrees>40.769733600318431854248046875</LatitudeDegrees>
              <LongitudeDegrees>-4.008668996393680572509765625</LongitudeDegrees>
            </Position>
            <AltitudeMeters>1631.800048828125</AltitudeMeters>
            <DistanceMeters>NAN</DistanceMeters>
          </Trackpoint>
          <Trackpoint>
            <Time>2019-08-01T12:07:01.000Z</Time>
            <Position>
              <LatitudeDegrees>40.76975447125732898712158203125</LatitudeDegrees>
              <LongitudeDegrees>-4.00865114293992519378662109375</LongitudeDegrees>
            </Position>
            <AltitudeMeters>1632.4000244140625</AltitudeMeters>
            <DistanceMeters>NAN</DistanceMeters>
          </Trackpoint>
          <Trackpoint>
            <Time>2019-08-01T12:07:02.000Z</Time>
            <Position>
              <LatitudeDegrees>40.76977743767201900482177734375</LatitudeDegrees>
              <LongitudeDegrees>-4.0086319483816623687744140625</LongitudeDegrees>
            </Position>
            <AltitudeMeters>1632.5999755859375</AltitudeMeters>
            <DistanceMeters>NAN</DistanceMeters>
          </Trackpoint>
          <Trackpoint>
            <Time>2019-08-01T12:07:03.000Z</Time>
            <Position>
              <LatitudeDegrees>40.76980191282927989959716796875</LatitudeDegrees>
              <LongitudeDegrees>-4.0086111612617969512939453125</LongitudeDegrees>
            </Position>
            <AltitudeMeters>1633</AltitudeMeters>
            <DistanceMeters>NAN</DistanceMeters>
          </Trackpoint>
          <Trackpoint>
            <Time>2019-08-01T12:07:04.000Z</Time>
            <Position>
              <LatitudeDegrees>40.76982940547168254852294921875</LatitudeDegrees>
              <LongitudeDegrees>-4.00859062559902667999267578125</LongitudeDegrees>
            </Position>
            <AltitudeMeters>1633.199951171875</AltitudeMeters>
            <DistanceMeters>NAN</DistanceMeters>
          </Trackpoint>
          <Trackpoint>
            <Time>2019-08-01T12:07:05.000Z</Time>
            <Position>
              <LatitudeDegrees>40.769855976104736328125</LatitudeDegrees>
              <LongitudeDegrees>-4.008571095764636993408203125</LongitudeDegrees>
            </Position>
            <AltitudeMeters>1633.4000244140625</AltitudeMeters>
            <DistanceMeters>NAN</DistanceMeters>
          </Trackpoint>
          <Trackpoint>
            <Time>2019-08-01T12:07:06.000Z</Time>
            <Position>
              <LatitudeDegrees>40.76988279819488525390625</LatitudeDegrees>
              <LongitudeDegrees>-4.00855106301605701446533203125</LongitudeDegrees>
            </Position>
            <AltitudeMeters>1633.5999755859375</AltitudeMeters>
            <DistanceMeters>NAN</DistanceMeters>
          </Trackpoint>
          <Trackpoint>
            <Time>2019-08-01T12:07:07.000Z</Time>
            <Position>
              <LatitudeDegrees>40.76990853063762187957763671875</LatitudeDegrees>
              <LongitudeDegrees>-4.00852977298200130462646484375</LongitudeDegrees>
            </Position>
            <AltitudeMeters>1634</AltitudeMeters>
            <DistanceMeters>NAN</DistanceMeters>
          </Trackpoint>
          <Trackpoint>
            <Time>2019-08-01T12:07:08.000Z</Time>
            <Position>
              <LatitudeDegrees>40.76993853785097599029541015625</LatitudeDegrees>
              <LongitudeDegrees>-4.0085085667669773101806640625</LongitudeDegrees>
            </Position>
            <AltitudeMeters>1634.199951171875</AltitudeMeters>
            <DistanceMeters>NAN</DistanceMeters>
          </Trackpoint>
          <Trackpoint>
            <Time>2019-08-01T12:07:09.000Z</Time>
            <Position>
              <LatitudeDegrees>40.76996527612209320068359375</LatitudeDegrees>
              <LongitudeDegrees>-4.008487276732921600341796875</LongitudeDegrees>
            </Position>
            <AltitudeMeters>1634.4000244140625</AltitudeMeters>
            <DistanceMeters>NAN</DistanceMeters>
          </Trackpoint>
          <Trackpoint>
            <Time>2019-08-01T12:07:10.000Z</Time>
            <Position>
              <LatitudeDegrees>40.76999008655548095703125</LatitudeDegrees>
              <LongitudeDegrees>-4.00846774689853191375732421875</LongitudeDegrees>
            </Position>
            <AltitudeMeters>1634.5999755859375</AltitudeMeters>
            <DistanceMeters>NAN</DistanceMeters>
          </Trackpoint>
          <Trackpoint>
            <Time>2019-08-01T12:07:11.000Z</Time>
            <Position>
              <LatitudeDegrees>40.77001699246466159820556640625</LatitudeDegrees>
              <LongitudeDegrees>-4.00844645686447620391845703125</LongitudeDegrees>
            </Position>
            <AltitudeMeters>1635</AltitudeMeters>
            <DistanceMeters>NAN</DistanceMeters>
          </Trackpoint>
          <Trackpoint>
            <Time>2019-08-01T12:07:12.000Z</Time>
            <Position>
              <LatitudeDegrees>40.77004331164062023162841796875</LatitudeDegrees>
              <LongitudeDegrees>-4.008426256477832794189453125</LongitudeDegrees>
            </Position>
            <AltitudeMeters>1635.5999755859375</AltitudeMeters>
            <DistanceMeters>NAN</DistanceMeters>
          </Trackpoint>
          <Trackpoint>
            <Time>2019-08-01T12:07:13.000Z</Time>
            <Position>
              <LatitudeDegrees>40.770070552825927734375</LatitudeDegrees>
              <LongitudeDegrees>-4.00840580463409423828125</LongitudeDegrees>
            </Position>
            <AltitudeMeters>1635.800048828125</AltitudeMeters>
            <DistanceMeters>NAN</DistanceMeters>
          </Trackpoint>
          <Trackpoint>
            <Time>2019-08-01T12:07:14.000Z</Time>
            <Position>
              <LatitudeDegrees>40.77009796164929866790771484375</LatitudeDegrees>
              <LongitudeDegrees>-4.00838392786681652069091796875</LongitudeDegrees>
            </Position>
            <AltitudeMeters>1635.800048828125</AltitudeMeters>
            <DistanceMeters>NAN</DistanceMeters>
          </Trackpoint>
          <Trackpoint>
            <Time>2019-08-01T12:07:15.000Z</Time>
            <Position>
              <LatitudeDegrees>40.7701263763010501861572265625</LatitudeDegrees>
              <LongitudeDegrees>-4.00836230255663394927978515625</LongitudeDegrees>
            </Position>
            <AltitudeMeters>1636</AltitudeMeters>
            <DistanceMeters>NAN</DistanceMeters>
          </Trackpoint>
          <Trackpoint>
            <Time>2019-08-01T12:07:16.000Z</Time>
            <Position>
              <LatitudeDegrees>40.77015562914311885833740234375</LatitudeDegrees>
              <LongitudeDegrees>-4.0083412639796733856201171875</LongitudeDegrees>
            </Position>
            <AltitudeMeters>1636</AltitudeMeters>
            <DistanceMeters>NAN</DistanceMeters>
          </Trackpoint>
          <Trackpoint>
            <Time>2019-08-01T12:07:17.000Z</Time>
            <Position>
              <LatitudeDegrees>40.77018412761390209197998046875</LatitudeDegrees>
              <LongitudeDegrees>-4.00831955485045909881591796875</LongitudeDegrees>
            </Position>
            <AltitudeMeters>1636.199951171875</AltitudeMeters>
            <DistanceMeters>NAN</DistanceMeters>
          </Trackpoint>
          <Trackpoint>
            <Time>2019-08-01T12:07:18.000Z</Time>
            <Position>
              <LatitudeDegrees>40.7702122069895267486572265625</LatitudeDegrees>
              <LongitudeDegrees>-4.00829809717833995819091796875</LongitudeDegrees>
            </Position>
            <AltitudeMeters>1636.4000244140625</AltitudeMeters>
            <DistanceMeters>NAN</DistanceMeters>
          </Trackpoint>
          <Trackpoint>
            <Time>2019-08-01T12:07:19.000Z</Time>
            <Position>
              <LatitudeDegrees>40.7702122069895267486572265625</LatitudeDegrees>
              <LongitudeDegrees>-4.00829809717833995819091796875</LongitudeDegrees>
            </Position>
            <AltitudeMeters>1636.5999755859375</AltitudeMeters>
            <DistanceMeters>NAN</DistanceMeters>
          </Trackpoint>
          <Trackpoint>
            <Time>2019-08-01T12:07:20.000Z</Time>
            <Position>
              <LatitudeDegrees>40.77026811428368091583251953125</LatitudeDegrees>
              <LongitudeDegrees>-4.0082584507763385772705078125</LongitudeDegrees>
            </Position>
            <AltitudeMeters>1636.800048828125</AltitudeMeters>
            <DistanceMeters>NAN</DistanceMeters>
          </Trackpoint>
          <Trackpoint>
            <Time>2019-08-01T12:07:21.000Z</Time>
            <Position>
              <LatitudeDegrees>40.77029678039252758026123046875</LatitudeDegrees>
              <LongitudeDegrees>-4.008237831294536590576171875</LongitudeDegrees>
            </Position>
            <AltitudeMeters>1637</AltitudeMeters>
            <DistanceMeters>NAN</DistanceMeters>
          </Trackpoint>
          <Trackpoint>
            <Time>2019-08-01T12:07:22.000Z</Time>
            <Position>
              <LatitudeDegrees>40.7703248597681522369384765625</LatitudeDegrees>
              <LongitudeDegrees>-4.00821662507951259613037109375</LongitudeDegrees>
            </Position>
            <AltitudeMeters>1637.4000244140625</AltitudeMeters>
            <DistanceMeters>NAN</DistanceMeters>
          </Trackpoint>
          <Trackpoint>
            <Time>2019-08-01T12:07:23.000Z</Time>
            <Position>
              <LatitudeDegrees>40.7703510113060474395751953125</LatitudeDegrees>
              <LongitudeDegrees>-4.00819583795964717864990234375</LongitudeDegrees>
            </Position>
            <AltitudeMeters>1637.5999755859375</AltitudeMeters>
            <DistanceMeters>NAN</DistanceMeters>
          </Trackpoint>
          <Trackpoint>
            <Time>2019-08-01T12:07:24.000Z</Time>
            <Position>
              <LatitudeDegrees>40.7703764922916889190673828125</LatitudeDegrees>
              <LongitudeDegrees>-4.00817580521106719970703125</LongitudeDegrees>
            </Position>
            <AltitudeMeters>1638</AltitudeMeters>
            <DistanceMeters>NAN</DistanceMeters>
          </Trackpoint>
          <Trackpoint>
            <Time>2019-08-01T12:07:25.000Z</Time>
            <Position>
              <LatitudeDegrees>40.77040205709636211395263671875</LatitudeDegrees>
              <LongitudeDegrees>-4.0081578679382801055908203125</LongitudeDegrees>
            </Position>
            <AltitudeMeters>1638.199951171875</AltitudeMeters>
            <DistanceMeters>NAN</DistanceMeters>
          </Trackpoint>
          <Trackpoint>
            <Time>2019-08-01T12:07:26.000Z</Time>
            <Position>
              <LatitudeDegrees>40.770427621901035308837890625</LatitudeDegrees>
              <LongitudeDegrees>-4.0081397630274295806884765625</LongitudeDegrees>
            </Position>
            <AltitudeMeters>1638.4000244140625</AltitudeMeters>
            <DistanceMeters>NAN</DistanceMeters>
          </Trackpoint>
          <Trackpoint>
            <Time>2019-08-01T12:07:27.000Z</Time>
            <Position>
              <LatitudeDegrees>40.77045268379151821136474609375</LatitudeDegrees>
              <LongitudeDegrees>-4.0081223286688327789306640625</LongitudeDegrees>
            </Position>
            <AltitudeMeters>1638.5999755859375</AltitudeMeters>
            <DistanceMeters>NAN</DistanceMeters>
          </Trackpoint>
          <Trackpoint>
            <Time>2019-08-01T12:07:28.000Z</Time>
            <Position>
              <LatitudeDegrees>40.77047665603458881378173828125</LatitudeDegrees>
              <LongitudeDegrees>-4.0081035532057285308837890625</LongitudeDegrees>
            </Position>
            <AltitudeMeters>1639</AltitudeMeters>
            <DistanceMeters>NAN</DistanceMeters>
          </Trackpoint>
          <Trackpoint>
            <Time>2019-08-01T12:07:29.000Z</Time>
            <Position>
              <LatitudeDegrees>40.77047665603458881378173828125</LatitudeDegrees>
              <LongitudeDegrees>-4.0081035532057285308837890625</LongitudeDegrees>
            </Position>
            <AltitudeMeters>1639.5999755859375</AltitudeMeters>
            <DistanceMeters>NAN</DistanceMeters>
          </Trackpoint>
          <Trackpoint>
            <Time>2019-08-01T12:07:30.000Z</Time>
            <Position>
              <LatitudeDegrees>40.77047665603458881378173828125</LatitudeDegrees>
              <LongitudeDegrees>-4.0081035532057285308837890625</LongitudeDegrees>
            </Position>
            <AltitudeMeters>1639.5999755859375</AltitudeMeters>
            <DistanceMeters>NAN</DistanceMeters>
          </Trackpoint>
          <Trackpoint>
            <Time>2019-08-01T12:07:31.000Z</Time>
            <Position>
              <LatitudeDegrees>40.77055494301021099090576171875</LatitudeDegrees>
              <LongitudeDegrees>-4.00804848410189151763916015625</LongitudeDegrees>
            </Position>
            <AltitudeMeters>1639.800048828125</AltitudeMeters>
            <DistanceMeters>NAN</DistanceMeters>
          </Trackpoint>
          <Trackpoint>
            <Time>2019-08-01T12:07:32.000Z</Time>
            <Position>
              <LatitudeDegrees>40.7705783285200595855712890625</LatitudeDegrees>
              <LongitudeDegrees>-4.00803222320973873138427734375</LongitudeDegrees>
            </Position>
            <AltitudeMeters>1640.4000244140625</AltitudeMeters>
            <DistanceMeters>NAN</DistanceMeters>
          </Trackpoint>
          <Trackpoint>
            <Time>2019-08-01T12:07:33.000Z</Time>
            <Position>
              <LatitudeDegrees>40.77060171402990818023681640625</LatitudeDegrees>
              <LongitudeDegrees>-4.00801487267017364501953125</LongitudeDegrees>
            </Position>
            <AltitudeMeters>1640.5999755859375</AltitudeMeters>
            <DistanceMeters>NAN</DistanceMeters>
          </Trackpoint>
          <Trackpoint>
            <Time>2019-08-01T12:07:34.000Z</Time>
            <Position>
              <LatitudeDegrees>40.77062786556780338287353515625</LatitudeDegrees>
              <LongitudeDegrees>-4.00799768976867198944091796875</LongitudeDegrees>
            </Position>
            <AltitudeMeters>1640.5999755859375</AltitudeMeters>
            <DistanceMeters>NAN</DistanceMeters>
          </Trackpoint>
          <Trackpoint>
            <Time>2019-08-01T12:07:35.000Z</Time>
            <Position>
              <LatitudeDegrees>40.77065468765795230865478515625</LatitudeDegrees>
              <LongitudeDegrees>-4.007979333400726318359375</LongitudeDegrees>
            </Position>
            <AltitudeMeters>1641</AltitudeMeters>
            <DistanceMeters>NAN</DistanceMeters>
          </Trackpoint>
          <Trackpoint>
            <Time>2019-08-01T12:07:36.000Z</Time>
            <Position>
              <LatitudeDegrees>40.77067916281521320343017578125</LatitudeDegrees>
              <LongitudeDegrees>-4.00796282105147838592529296875</LongitudeDegrees>
            </Position>
            <AltitudeMeters>1641.4000244140625</AltitudeMeters>
            <DistanceMeters>NAN</DistanceMeters>
          </Trackpoint>
          <Trackpoint>
            <Time>2019-08-01T12:07:37.000Z</Time>
            <Position>
              <LatitudeDegrees>40.7707048952579498291015625</LatitudeDegrees>
              <LongitudeDegrees>-4.0079449675977230072021484375</LongitudeDegrees>
            </Position>
            <AltitudeMeters>1641.4000244140625</AltitudeMeters>
            <DistanceMeters>NAN</DistanceMeters>
          </Trackpoint>
          <Trackpoint>
            <Time>2019-08-01T12:07:38.000Z</Time>
            <Position>
              <LatitudeDegrees>40.77073414810001850128173828125</LatitudeDegrees>
              <LongitudeDegrees>-4.00792778469622135162353515625</LongitudeDegrees>
            </Position>
            <AltitudeMeters>1641.5999755859375</AltitudeMeters>
            <DistanceMeters>NAN</DistanceMeters>
          </Trackpoint>
          <Trackpoint>
            <Time>2019-08-01T12:07:39.000Z</Time>
            <Position>
              <LatitudeDegrees>40.770761556923389434814453125</LatitudeDegrees>
              <LongitudeDegrees>-4.00791185908019542694091796875</LongitudeDegrees>
            </Position>
            <AltitudeMeters>1642</AltitudeMeters>
            <DistanceMeters>NAN</DistanceMeters>
          </Trackpoint>
          <Trackpoint>
            <Time>2019-08-01T12:07:40.000Z</Time>
            <Position>
              <LatitudeDegrees>40.770788379013538360595703125</LatitudeDegrees>
              <LongitudeDegrees>-4.00789425708353519439697265625</LongitudeDegrees>
            </Position>
            <AltitudeMeters>1642.199951171875</AltitudeMeters>
            <DistanceMeters>NAN</DistanceMeters>
          </Trackpoint>
          <Trackpoint>
            <Time>2019-08-01T12:07:41.000Z</Time>
            <Position>
              <LatitudeDegrees>40.77081679366528987884521484375</LatitudeDegrees>
              <LongitudeDegrees>-4.0078769065439701080322265625</LongitudeDegrees>
            </Position>
            <AltitudeMeters>1642.4000244140625</AltitudeMeters>
            <DistanceMeters>NAN</DistanceMeters>
          </Trackpoint>
          <Trackpoint>
            <Time>2019-08-01T12:07:42.000Z</Time>
            <Position>
              <LatitudeDegrees>40.7708452083170413970947265625</LatitudeDegrees>
              <LongitudeDegrees>-4.007859639823436737060546875</LongitudeDegrees>
            </Position>
            <AltitudeMeters>1642.5999755859375</AltitudeMeters>
            <DistanceMeters>NAN</DistanceMeters>
          </Trackpoint>
          <Trackpoint>
            <Time>2019-08-01T12:07:43.000Z</Time>
            <Position>
              <LatitudeDegrees>40.77087588608264923095703125</LatitudeDegrees>
              <LongitudeDegrees>-4.0078410319983959197998046875</LongitudeDegrees>
            </Position>
            <AltitudeMeters>1642.5999755859375</AltitudeMeters>
            <DistanceMeters>NAN</DistanceMeters>
          </Trackpoint>
          <Trackpoint>
            <Time>2019-08-01T12:07:44.000Z</Time>
            <Position>
              <LatitudeDegrees>40.77090564183890819549560546875</LatitudeDegrees>
              <LongitudeDegrees>-4.00782401673495769500732421875</LongitudeDegrees>
            </Position>
            <AltitudeMeters>1642.800048828125</AltitudeMeters>
            <DistanceMeters>NAN</DistanceMeters>
          </Trackpoint>
          <Trackpoint>
            <Time>2019-08-01T12:07:45.000Z</Time>
            <Position>
              <LatitudeDegrees>40.7709340564906597137451171875</LatitudeDegrees>
              <LongitudeDegrees>-4.0078071691095829010009765625</LongitudeDegrees>
            </Position>
            <AltitudeMeters>1643.199951171875</AltitudeMeters>
            <DistanceMeters>NAN</DistanceMeters>
          </Trackpoint>
          <Trackpoint>
            <Time>2019-08-01T12:07:46.000Z</Time>
            <Position>
              <LatitudeDegrees>40.770963393151760101318359375</LatitudeDegrees>
              <LongitudeDegrees>-4.00779132731258869171142578125</LongitudeDegrees>
            </Position>
            <AltitudeMeters>1643.4000244140625</AltitudeMeters>
            <DistanceMeters>NAN</DistanceMeters>
          </Trackpoint>
          <Trackpoint>
            <Time>2019-08-01T12:07:47.000Z</Time>
            <Position>
              <LatitudeDegrees>40.770963393151760101318359375</LatitudeDegrees>
              <LongitudeDegrees>-4.00779132731258869171142578125</LongitudeDegrees>
            </Position>
            <AltitudeMeters>1643.5999755859375</AltitudeMeters>
            <DistanceMeters>NAN</DistanceMeters>
          </Trackpoint>
          <Trackpoint>
            <Time>2019-08-01T12:07:48.000Z</Time>
            <Position>
              <LatitudeDegrees>40.77101594768464565277099609375</LatitudeDegrees>
              <LongitudeDegrees>-4.00775897316634654998779296875</LongitudeDegrees>
            </Position>
            <AltitudeMeters>1643.800048828125</AltitudeMeters>
            <DistanceMeters>NAN</DistanceMeters>
          </Trackpoint>
          <Trackpoint>
            <Time>2019-08-01T12:07:49.000Z</Time>
            <Position>
              <LatitudeDegrees>40.77104209922254085540771484375</LatitudeDegrees>
              <LongitudeDegrees>-4.0077438019216060638427734375</LongitudeDegrees>
            </Position>
            <AltitudeMeters>1644</AltitudeMeters>
            <DistanceMeters>NAN</DistanceMeters>
          </Trackpoint>
          <Trackpoint>
            <Time>2019-08-01T12:07:50.000Z</Time>
            <Position>
              <LatitudeDegrees>40.77106892131268978118896484375</LatitudeDegrees>
              <LongitudeDegrees>-4.0077290497720241546630859375</LongitudeDegrees>
            </Position>
            <AltitudeMeters>1644.199951171875</AltitudeMeters>
            <DistanceMeters>NAN</DistanceMeters>
          </Trackpoint>
          <Trackpoint>
            <Time>2019-08-01T12:07:51.000Z</Time>
            <Position>
              <LatitudeDegrees>40.7710966654121875762939453125</LatitudeDegrees>
              <LongitudeDegrees>-4.007713459432125091552734375</LongitudeDegrees>
            </Position>
            <AltitudeMeters>1644.4000244140625</AltitudeMeters>
            <DistanceMeters>NAN</DistanceMeters>
          </Trackpoint>
          <Trackpoint>
            <Time>2019-08-01T12:07:52.000Z</Time>
            <Position>
              <LatitudeDegrees>40.7710966654121875762939453125</LatitudeDegrees>
              <LongitudeDegrees>-4.007713459432125091552734375</LongitudeDegrees>
            </Position>
            <AltitudeMeters>1644.199951171875</AltitudeMeters>
            <DistanceMeters>NAN</DistanceMeters>
          </Trackpoint>
          <Trackpoint>
            <Time>2019-08-01T12:07:53.000Z</Time>
            <Position>
              <LatitudeDegrees>40.7711570151150226593017578125</LatitudeDegrees>
              <LongitudeDegrees>-4.0076774172484874725341796875</LongitudeDegrees>
            </Position>
            <AltitudeMeters>1644.4000244140625</AltitudeMeters>
            <DistanceMeters>NAN</DistanceMeters>
          </Trackpoint>
          <Trackpoint>
            <Time>2019-08-01T12:07:54.000Z</Time>
            <Position>
              <LatitudeDegrees>40.77118844725191593170166015625</LatitudeDegrees>
              <LongitudeDegrees>-4.00766107253730297088623046875</LongitudeDegrees>
            </Position>
            <AltitudeMeters>1644.5999755859375</AltitudeMeters>
            <DistanceMeters>NAN</DistanceMeters>
          </Trackpoint>
          <Trackpoint>
            <Time>2019-08-01T12:07:55.000Z</Time>
            <Position>
              <LatitudeDegrees>40.77118844725191593170166015625</LatitudeDegrees>
              <LongitudeDegrees>-4.00766107253730297088623046875</LongitudeDegrees>
            </Position>
            <AltitudeMeters>1644.800048828125</AltitudeMeters>
            <DistanceMeters>NAN</DistanceMeters>
          </Trackpoint>
          <Trackpoint>
            <Time>2019-08-01T12:07:56.000Z</Time>
            <Position>
              <LatitudeDegrees>40.77124862931668758392333984375</LatitudeDegrees>
              <LongitudeDegrees>-4.00762452743947505950927734375</LongitudeDegrees>
            </Position>
            <AltitudeMeters>1645</AltitudeMeters>
            <DistanceMeters>NAN</DistanceMeters>
          </Trackpoint>
          <Trackpoint>
            <Time>2019-08-01T12:07:57.000Z</Time>
            <Position>
              <LatitudeDegrees>40.77127796597778797149658203125</LatitudeDegrees>
              <LongitudeDegrees>-4.0076070092618465423583984375</LongitudeDegrees>
            </Position>
            <AltitudeMeters>1645.5999755859375</AltitudeMeters>
            <DistanceMeters>NAN</DistanceMeters>
          </Trackpoint>
          <Trackpoint>
            <Time>2019-08-01T12:07:58.000Z</Time>
            <Position>
              <LatitudeDegrees>40.7713072188198566436767578125</LatitudeDegrees>
              <LongitudeDegrees>-4.00758982636034488677978515625</LongitudeDegrees>
            </Position>
            <AltitudeMeters>1646</AltitudeMeters>
            <DistanceMeters>NAN</DistanceMeters>
          </Trackpoint>
          <Trackpoint>
            <Time>2019-08-01T12:07:59.000Z</Time>
            <Position>
              <LatitudeDegrees>40.77133680693805217742919921875</LatitudeDegrees>
              <LongitudeDegrees>-4.00757138617336750030517578125</LongitudeDegrees>
            </Position>
            <AltitudeMeters>1646.4000244140625</AltitudeMeters>
            <DistanceMeters>NAN</DistanceMeters>
          </Trackpoint>
          <Trackpoint>
            <Time>2019-08-01T12:08:00.000Z</Time>
            <Position>
              <LatitudeDegrees>40.77136647887527942657470703125</LatitudeDegrees>
              <LongitudeDegrees>-4.0075553767383098602294921875</LongitudeDegrees>
            </Position>
            <AltitudeMeters>1646.5999755859375</AltitudeMeters>
            <DistanceMeters>NAN</DistanceMeters>
          </Trackpoint>
          <Trackpoint>
            <Time>2019-08-01T12:08:01.000Z</Time>
            <Position>
              <LatitudeDegrees>40.77139623463153839111328125</LatitudeDegrees>
              <LongitudeDegrees>-4.00754012167453765869140625</LongitudeDegrees>
            </Position>
            <AltitudeMeters>1647</AltitudeMeters>
            <DistanceMeters>NAN</DistanceMeters>
          </Trackpoint>
          <Trackpoint>
            <Time>2019-08-01T12:08:02.000Z</Time>
            <Position>
              <LatitudeDegrees>40.7714259065687656402587890625</LatitudeDegrees>
              <LongitudeDegrees>-4.00752427987754344940185546875</LongitudeDegrees>
            </Position>
            <AltitudeMeters>1647.4000244140625</AltitudeMeters>
            <DistanceMeters>NAN</DistanceMeters>
          </Trackpoint>
          <Trackpoint>
            <Time>2019-08-01T12:08:03.000Z</Time>
            <Position>
              <LatitudeDegrees>40.77145499177277088165283203125</LatitudeDegrees>
              <LongitudeDegrees>-4.00750868953764438629150390625</LongitudeDegrees>
            </Position>
            <AltitudeMeters>1647.5999755859375</AltitudeMeters>
            <DistanceMeters>NAN</DistanceMeters>
          </Trackpoint>
          <Trackpoint>
            <Time>2019-08-01T12:08:04.000Z</Time>
            <Position>
              <LatitudeDegrees>40.771482400596141815185546875</LatitudeDegrees>
              <LongitudeDegrees>-4.00749309919774532318115234375</LongitudeDegrees>
            </Position>
            <AltitudeMeters>1647.800048828125</AltitudeMeters>
            <DistanceMeters>NAN</DistanceMeters>
          </Trackpoint>
          <Trackpoint>
            <Time>2019-08-01T12:08:05.000Z</Time>
            <Position>
              <LatitudeDegrees>40.77150695957243442535400390625</LatitudeDegrees>
              <LongitudeDegrees>-4.00747851468622684478759765625</LongitudeDegrees>
            </Position>
            <AltitudeMeters>1648</AltitudeMeters>
            <DistanceMeters>NAN</DistanceMeters>
          </Trackpoint>
          <Trackpoint>
            <Time>2019-08-01T12:08:06.000Z</Time>
            <Position>
              <LatitudeDegrees>40.77152841724455356597900390625</LatitudeDegrees>
              <LongitudeDegrees>-4.007466696202754974365234375</LongitudeDegrees>
            </Position>
            <AltitudeMeters>1648.199951171875</AltitudeMeters>
            <DistanceMeters>NAN</DistanceMeters>
          </Trackpoint>
          <Trackpoint>
            <Time>2019-08-01T12:08:07.000Z</Time>
            <Position>
              <LatitudeDegrees>40.77155188657343387603759765625</LatitudeDegrees>
              <LongitudeDegrees>-4.00745487771928310394287109375</LongitudeDegrees>
            </Position>
            <AltitudeMeters>1648.199951171875</AltitudeMeters>
            <DistanceMeters>NAN</DistanceMeters>
          </Trackpoint>
          <Trackpoint>
            <Time>2019-08-01T12:08:08.000Z</Time>
            <Position>
              <LatitudeDegrees>40.77157569117844104766845703125</LatitudeDegrees>
              <LongitudeDegrees>-4.007442556321620941162109375</LongitudeDegrees>
            </Position>
            <AltitudeMeters>1648.4000244140625</AltitudeMeters>
            <DistanceMeters>NAN</DistanceMeters>
          </Trackpoint>
          <Trackpoint>
            <Time>2019-08-01T12:08:09.000Z</Time>
            <Position>
              <LatitudeDegrees>40.77159530483186244964599609375</LatitudeDegrees>
              <LongitudeDegrees>-4.00743149220943450927734375</LongitudeDegrees>
            </Position>
            <AltitudeMeters>1648.5999755859375</AltitudeMeters>
            <DistanceMeters>NAN</DistanceMeters>
          </Trackpoint>
          <Trackpoint>
            <Time>2019-08-01T12:08:10.000Z</Time>
            <Position>
              <LatitudeDegrees>40.77161575667560100555419921875</LatitudeDegrees>
              <LongitudeDegrees>-4.007421098649501800537109375</LongitudeDegrees>
            </Position>
            <AltitudeMeters>1649</AltitudeMeters>
            <DistanceMeters>NAN</DistanceMeters>
          </Trackpoint>
          <Trackpoint>
            <Time>2019-08-01T12:08:11.000Z</Time>
            <Position>
              <LatitudeDegrees>40.771634280681610107421875</LatitudeDegrees>
              <LongitudeDegrees>-4.007410369813442230224609375</LongitudeDegrees>
            </Position>
            <AltitudeMeters>1649.199951171875</AltitudeMeters>
            <DistanceMeters>NAN</DistanceMeters>
          </Trackpoint>
          <Trackpoint>
            <Time>2019-08-01T12:08:12.000Z</Time>
            <Position>
              <LatitudeDegrees>40.77165213413536548614501953125</LatitudeDegrees>
              <LongitudeDegrees>-4.007402323186397552490234375</LongitudeDegrees>
            </Position>
            <AltitudeMeters>1649.4000244140625</AltitudeMeters>
            <DistanceMeters>NAN</DistanceMeters>
          </Trackpoint>
          <Trackpoint>
            <Time>2019-08-01T12:08:13.000Z</Time>
            <Position>
              <LatitudeDegrees>40.77167191542685031890869140625</LatitudeDegrees>
              <LongitudeDegrees>-4.007392935454845428466796875</LongitudeDegrees>
            </Position>
            <AltitudeMeters>1649.5999755859375</AltitudeMeters>
            <DistanceMeters>NAN</DistanceMeters>
          </Trackpoint>
          <Trackpoint>
            <Time>2019-08-01T12:08:14.000Z</Time>
            <Position>
              <LatitudeDegrees>40.77169219963252544403076171875</LatitudeDegrees>
              <LongitudeDegrees>-4.007382206618785858154296875</LongitudeDegrees>
            </Position>
            <AltitudeMeters>1649.800048828125</AltitudeMeters>
            <DistanceMeters>NAN</DistanceMeters>
          </Trackpoint>
          <Trackpoint>
            <Time>2019-08-01T12:08:15.000Z</Time>
            <Position>
              <LatitudeDegrees>40.7717159204185009002685546875</LatitudeDegrees>
              <LongitudeDegrees>-4.00737139396369457244873046875</LongitudeDegrees>
            </Position>
            <AltitudeMeters>1650</AltitudeMeters>
            <DistanceMeters>NAN</DistanceMeters>
          </Trackpoint>
          <Trackpoint>
            <Time>2019-08-01T12:08:16.000Z</Time>
            <Position>
              <LatitudeDegrees>40.77173997648060321807861328125</LatitudeDegrees>
              <LongitudeDegrees>-4.00736183859407901763916015625</LongitudeDegrees>
            </Position>
            <AltitudeMeters>1650.199951171875</AltitudeMeters>
            <DistanceMeters>NAN</DistanceMeters>
          </Trackpoint>
          <Trackpoint>
            <Time>2019-08-01T12:08:17.000Z</Time>
            <Position>
              <LatitudeDegrees>40.77176772058010101318359375</LatitudeDegrees>
              <LongitudeDegrees>-4.0073508583009243011474609375</LongitudeDegrees>
            </Position>
            <AltitudeMeters>1650.199951171875</AltitudeMeters>
            <DistanceMeters>NAN</DistanceMeters>
          </Trackpoint>
          <Trackpoint>
            <Time>2019-08-01T12:08:18.000Z</Time>
            <Position>
              <LatitudeDegrees>40.77179328538477420806884765625</LatitudeDegrees>
              <LongitudeDegrees>-4.00734155438840389251708984375</LongitudeDegrees>
            </Position>
            <AltitudeMeters>1650.5999755859375</AltitudeMeters>
            <DistanceMeters>NAN</DistanceMeters>
          </Trackpoint>
          <Trackpoint>
            <Time>2019-08-01T12:08:19.000Z</Time>
            <Position>
              <LatitudeDegrees>40.7718181796371936798095703125</LatitudeDegrees>
              <LongitudeDegrees>-4.0073340944945812225341796875</LongitudeDegrees>
            </Position>
            <AltitudeMeters>1651</AltitudeMeters>
            <DistanceMeters>NAN</DistanceMeters>
          </Trackpoint>
          <Trackpoint>
            <Time>2019-08-01T12:08:20.000Z</Time>
            <Position>
              <LatitudeDegrees>40.77184257097542285919189453125</LatitudeDegrees>
              <LongitudeDegrees>-4.00732822716236114501953125</LongitudeDegrees>
            </Position>
            <AltitudeMeters>1651.199951171875</AltitudeMeters>
            <DistanceMeters>NAN</DistanceMeters>
          </Trackpoint>
          <Trackpoint>
            <Time>2019-08-01T12:08:21.000Z</Time>
            <Position>
              <LatitudeDegrees>40.77186486683785915374755859375</LatitudeDegrees>
              <LongitudeDegrees>-4.00732311420142650604248046875</LongitudeDegrees>
            </Position>
            <AltitudeMeters>1651.4000244140625</AltitudeMeters>
            <DistanceMeters>NAN</DistanceMeters>
          </Trackpoint>
          <Trackpoint>
            <Time>2019-08-01T12:08:22.000Z</Time>
            <Position>
              <LatitudeDegrees>40.77188867144286632537841796875</LatitudeDegrees>
              <LongitudeDegrees>-4.00731691159307956695556640625</LongitudeDegrees>
            </Position>
            <AltitudeMeters>1651.5999755859375</AltitudeMeters>
            <DistanceMeters>NAN</DistanceMeters>
          </Trackpoint>
          <Trackpoint>
            <Time>2019-08-01T12:08:23.000Z</Time>
            <Position>
              <LatitudeDegrees>40.771912895143032073974609375</LatitudeDegrees>
              <LongitudeDegrees>-4.00731104426085948944091796875</LongitudeDegrees>
            </Position>
            <AltitudeMeters>1651.800048828125</AltitudeMeters>
            <DistanceMeters>NAN</DistanceMeters>
          </Trackpoint>
          <Trackpoint>
            <Time>2019-08-01T12:08:24.000Z</Time>
            <Position>
              <LatitudeDegrees>40.771912895143032073974609375</LatitudeDegrees>
              <LongitudeDegrees>-4.00731104426085948944091796875</LongitudeDegrees>
            </Position>
            <AltitudeMeters>1652</AltitudeMeters>
            <DistanceMeters>NAN</DistanceMeters>
          </Trackpoint>
          <Trackpoint>
            <Time>2019-08-01T12:08:25.000Z</Time>
            <Position>
              <LatitudeDegrees>40.77195539139211177825927734375</LatitudeDegrees>
              <LongitudeDegrees>-4.0073022432625293731689453125</LongitudeDegrees>
            </Position>
            <AltitudeMeters>1652.4000244140625</AltitudeMeters>
            <DistanceMeters>NAN</DistanceMeters>
          </Trackpoint>
          <Trackpoint>
            <Time>2019-08-01T12:08:26.000Z</Time>
            <Position>
              <LatitudeDegrees>40.77195539139211177825927734375</LatitudeDegrees>
              <LongitudeDegrees>-4.0073022432625293731689453125</LongitudeDegrees>
            </Position>
            <AltitudeMeters>1652.5999755859375</AltitudeMeters>
            <DistanceMeters>NAN</DistanceMeters>
          </Trackpoint>
          <Trackpoint>
            <Time>2019-08-01T12:08:27.000Z</Time>
            <Position>
              <LatitudeDegrees>40.7720042578876018524169921875</LatitudeDegrees>
              <LongitudeDegrees>-4.00729444809257984161376953125</LongitudeDegrees>
            </Position>
            <AltitudeMeters>1652.800048828125</AltitudeMeters>
            <DistanceMeters>NAN</DistanceMeters>
          </Trackpoint>
          <Trackpoint>
            <Time>2019-08-01T12:08:28.000Z</Time>
            <Position>
              <LatitudeDegrees>40.772032923996448516845703125</LatitudeDegrees>
              <LongitudeDegrees>-4.007287658751010894775390625</LongitudeDegrees>
            </Position>
            <AltitudeMeters>1653</AltitudeMeters>
            <DistanceMeters>NAN</DistanceMeters>
          </Trackpoint>
          <Trackpoint>
            <Time>2019-08-01T12:08:29.000Z</Time>
            <Position>
              <LatitudeDegrees>40.7720612548291683197021484375</LatitudeDegrees>
              <LongitudeDegrees>-4.0072811208665370941162109375</LongitudeDegrees>
            </Position>
            <AltitudeMeters>1653.199951171875</AltitudeMeters>
            <DistanceMeters>NAN</DistanceMeters>
          </Trackpoint>
          <Trackpoint>
            <Time>2019-08-01T12:08:30.000Z</Time>
            <Position>
              <LatitudeDegrees>40.77208916656672954559326171875</LatitudeDegrees>
              <LongitudeDegrees>-4.0072744153439998626708984375</LongitudeDegrees>
            </Position>
            <AltitudeMeters>1653.199951171875</AltitudeMeters>
            <DistanceMeters>NAN</DistanceMeters>
          </Trackpoint>
          <Trackpoint>
            <Time>2019-08-01T12:08:31.000Z</Time>
            <Position>
              <LatitudeDegrees>40.77211774885654449462890625</LatitudeDegrees>
              <LongitudeDegrees>-4.007268883287906646728515625</LongitudeDegrees>
            </Position>
            <AltitudeMeters>1653.4000244140625</AltitudeMeters>
            <DistanceMeters>NAN</DistanceMeters>
          </Trackpoint>
          <Trackpoint>
            <Time>2019-08-01T12:08:32.000Z</Time>
            <Position>
              <LatitudeDegrees>40.772146917879581451416015625</LatitudeDegrees>
              <LongitudeDegrees>-4.007264859974384307861328125</LongitudeDegrees>
            </Position>
            <AltitudeMeters>1653.5999755859375</AltitudeMeters>
            <DistanceMeters>NAN</DistanceMeters>
          </Trackpoint>
          <Trackpoint>
            <Time>2019-08-01T12:08:33.000Z</Time>
            <Position>
              <LatitudeDegrees>40.772146917879581451416015625</LatitudeDegrees>
              <LongitudeDegrees>-4.007264859974384307861328125</LongitudeDegrees>
            </Position>
            <AltitudeMeters>1653.800048828125</AltitudeMeters>
            <DistanceMeters>NAN</DistanceMeters>
          </Trackpoint>
          <Trackpoint>
            <Time>2019-08-01T12:08:34.000Z</Time>
            <Position>
              <LatitudeDegrees>40.77220215462148189544677734375</LatitudeDegrees>
              <LongitudeDegrees>-4.00725924409925937652587890625</LongitudeDegrees>
            </Position>
            <AltitudeMeters>1654</AltitudeMeters>
            <DistanceMeters>NAN</DistanceMeters>
          </Trackpoint>
          <Trackpoint>
            <Time>2019-08-01T12:08:35.000Z</Time>
            <Position>
              <LatitudeDegrees>40.77223182655870914459228515625</LatitudeDegrees>
              <LongitudeDegrees>-4.0072526223957538604736328125</LongitudeDegrees>
            </Position>
            <AltitudeMeters>1654.4000244140625</AltitudeMeters>
            <DistanceMeters>NAN</DistanceMeters>
          </Trackpoint>
          <Trackpoint>
            <Time>2019-08-01T12:08:36.000Z</Time>
            <Position>
              <LatitudeDegrees>40.7722610794007778167724609375</LatitudeDegrees>
              <LongitudeDegrees>-4.00724776089191436767578125</LongitudeDegrees>
            </Position>
            <AltitudeMeters>1654.4000244140625</AltitudeMeters>
            <DistanceMeters>NAN</DistanceMeters>
          </Trackpoint>
          <Trackpoint>
            <Time>2019-08-01T12:08:37.000Z</Time>
            <Position>
              <LatitudeDegrees>40.7722610794007778167724609375</LatitudeDegrees>
              <LongitudeDegrees>-4.00724776089191436767578125</LongitudeDegrees>
            </Position>
            <AltitudeMeters>1654.800048828125</AltitudeMeters>
            <DistanceMeters>NAN</DistanceMeters>
          </Trackpoint>
          <Trackpoint>
            <Time>2019-08-01T12:08:38.000Z</Time>
            <Position>
              <LatitudeDegrees>40.77232427895069122314453125</LatitudeDegrees>
              <LongitudeDegrees>-4.00723845697939395904541015625</LongitudeDegrees>
            </Position>
            <AltitudeMeters>1655</AltitudeMeters>
            <DistanceMeters>NAN</DistanceMeters>
          </Trackpoint>
          <Trackpoint>
            <Time>2019-08-01T12:08:39.000Z</Time>
            <Position>
              <LatitudeDegrees>40.7723559625446796417236328125</LatitudeDegrees>
              <LongitudeDegrees>-4.00723166763782501220703125</LongitudeDegrees>
            </Position>
            <AltitudeMeters>1655.4000244140625</AltitudeMeters>
            <DistanceMeters>NAN</DistanceMeters>
          </Trackpoint>
          <Trackpoint>
            <Time>2019-08-01T12:08:40.000Z</Time>
            <Position>
              <LatitudeDegrees>40.7723871432244777679443359375</LatitudeDegrees>
              <LongitudeDegrees>-4.00722621940076351165771484375</LongitudeDegrees>
            </Position>
            <AltitudeMeters>1655.800048828125</AltitudeMeters>
            <DistanceMeters>NAN</DistanceMeters>
          </Trackpoint>
          <Trackpoint>
            <Time>2019-08-01T12:08:41.000Z</Time>
            <Position>
              <LatitudeDegrees>40.772418491542339324951171875</LatitudeDegrees>
              <LongitudeDegrees>-4.0072221122682094573974609375</LongitudeDegrees>
            </Position>
            <AltitudeMeters>1656</AltitudeMeters>
            <DistanceMeters>NAN</DistanceMeters>
          </Trackpoint>
          <Trackpoint>
            <Time>2019-08-01T12:08:42.000Z</Time>
            <Position>
              <LatitudeDegrees>40.77245034277439117431640625</LatitudeDegrees>
              <LongitudeDegrees>-4.0072174184024333953857421875</LongitudeDegrees>
            </Position>
            <AltitudeMeters>1656</AltitudeMeters>
            <DistanceMeters>NAN</DistanceMeters>
          </Trackpoint>
          <Trackpoint>
            <Time>2019-08-01T12:08:43.000Z</Time>
            <Position>
              <LatitudeDegrees>40.77248261310160160064697265625</LatitudeDegrees>
              <LongitudeDegrees>-4.00721163488924503326416015625</LongitudeDegrees>
            </Position>
            <AltitudeMeters>1656.4000244140625</AltitudeMeters>
            <DistanceMeters>NAN</DistanceMeters>
          </Trackpoint>
          <Trackpoint>
            <Time>2019-08-01T12:08:44.000Z</Time>
            <Position>
              <LatitudeDegrees>40.77251136302947998046875</LatitudeDegrees>
              <LongitudeDegrees>-4.0072070248425006866455078125</LongitudeDegrees>
            </Position>
            <AltitudeMeters>1656.4000244140625</AltitudeMeters>
            <DistanceMeters>NAN</DistanceMeters>
          </Trackpoint>
          <Trackpoint>
            <Time>2019-08-01T12:08:45.000Z</Time>
            <Position>
              <LatitudeDegrees>40.7725393585860729217529296875</LatitudeDegrees>
              <LongitudeDegrees>-4.00720291770994663238525390625</LongitudeDegrees>
            </Position>
            <AltitudeMeters>1656.800048828125</AltitudeMeters>
            <DistanceMeters>NAN</DistanceMeters>
          </Trackpoint>
          <Trackpoint>
            <Time>2019-08-01T12:08:46.000Z</Time>
            <Position>
              <LatitudeDegrees>40.7725661806762218475341796875</LatitudeDegrees>
              <LongitudeDegrees>-4.00719872675836086273193359375</LongitudeDegrees>
            </Position>
            <AltitudeMeters>1656.800048828125</AltitudeMeters>
            <DistanceMeters>NAN</DistanceMeters>
          </Trackpoint>
          <Trackpoint>
            <Time>2019-08-01T12:08:47.000Z</Time>
            <Position>
              <LatitudeDegrees>40.7725940085947513580322265625</LatitudeDegrees>
              <LongitudeDegrees>-4.0071939490735530853271484375</LongitudeDegrees>
            </Position>
            <AltitudeMeters>1657</AltitudeMeters>
            <DistanceMeters>NAN</DistanceMeters>
          </Trackpoint>
          <Trackpoint>
            <Time>2019-08-01T12:08:48.000Z</Time>
            <Position>
              <LatitudeDegrees>40.7726198248565196990966796875</LatitudeDegrees>
              <LongitudeDegrees>-4.0071894228458404541015625</LongitudeDegrees>
            </Position>
            <AltitudeMeters>1657</AltitudeMeters>
            <DistanceMeters>NAN</DistanceMeters>
          </Trackpoint>
          <Trackpoint>
            <Time>2019-08-01T12:08:49.000Z</Time>
            <Position>
              <LatitudeDegrees>40.77264748513698577880859375</LatitudeDegrees>
              <LongitudeDegrees>-4.00718280114233493804931640625</LongitudeDegrees>
            </Position>
            <AltitudeMeters>1657.199951171875</AltitudeMeters>
            <DistanceMeters>NAN</DistanceMeters>
          </Trackpoint>
          <Trackpoint>
            <Time>2019-08-01T12:08:50.000Z</Time>
            <Position>
              <LatitudeDegrees>40.77267522923648357391357421875</LatitudeDegrees>
              <LongitudeDegrees>-4.00717626325786113739013671875</LongitudeDegrees>
            </Position>
            <AltitudeMeters>1657.4000244140625</AltitudeMeters>
            <DistanceMeters>NAN</DistanceMeters>
          </Trackpoint>
          <Trackpoint>
            <Time>2019-08-01T12:08:51.000Z</Time>
            <Position>
              <LatitudeDegrees>40.77270003966987133026123046875</LatitudeDegrees>
              <LongitudeDegrees>-4.00717089883983135223388671875</LongitudeDegrees>
            </Position>
            <AltitudeMeters>1657.800048828125</AltitudeMeters>
            <DistanceMeters>NAN</DistanceMeters>
          </Trackpoint>
          <Trackpoint>
            <Time>2019-08-01T12:08:52.000Z</Time>
            <Position>
              <LatitudeDegrees>40.77272535301744937896728515625</LatitudeDegrees>
              <LongitudeDegrees>-4.00716486386954784393310546875</LongitudeDegrees>
            </Position>
            <AltitudeMeters>1658.199951171875</AltitudeMeters>
            <DistanceMeters>NAN</DistanceMeters>
          </Trackpoint>
          <Trackpoint>
            <Time>2019-08-01T12:08:53.000Z</Time>
            <Position>
              <LatitudeDegrees>40.77272535301744937896728515625</LatitudeDegrees>
              <LongitudeDegrees>-4.00716486386954784393310546875</LongitudeDegrees>
            </Position>
            <AltitudeMeters>1658.5999755859375</AltitudeMeters>
            <DistanceMeters>NAN</DistanceMeters>
          </Trackpoint>
          <Trackpoint>
            <Time>2019-08-01T12:08:54.000Z</Time>
            <Position>
              <LatitudeDegrees>40.7727740518748760223388671875</LatitudeDegrees>
              <LongitudeDegrees>-4.00714910589158535003662109375</LongitudeDegrees>
            </Position>
            <AltitudeMeters>1658.800048828125</AltitudeMeters>
            <DistanceMeters>NAN</DistanceMeters>
          </Trackpoint>
          <Trackpoint>
            <Time>2019-08-01T12:08:55.000Z</Time>
            <Position>
              <LatitudeDegrees>40.7727740518748760223388671875</LatitudeDegrees>
              <LongitudeDegrees>-4.00714910589158535003662109375</LongitudeDegrees>
            </Position>
            <AltitudeMeters>1659</AltitudeMeters>
            <DistanceMeters>NAN</DistanceMeters>
          </Trackpoint>
          <Trackpoint>
            <Time>2019-08-01T12:08:56.000Z</Time>
            <Position>
              <LatitudeDegrees>40.7728287018835544586181640625</LatitudeDegrees>
              <LongitudeDegrees>-4.007129408419132232666015625</LongitudeDegrees>
            </Position>
            <AltitudeMeters>1659.199951171875</AltitudeMeters>
            <DistanceMeters>NAN</DistanceMeters>
          </Trackpoint>
          <Trackpoint>
            <Time>2019-08-01T12:08:57.000Z</Time>
            <Position>
              <LatitudeDegrees>40.77285879291594028472900390625</LatitudeDegrees>
              <LongitudeDegrees>-4.007118009030818939208984375</LongitudeDegrees>
            </Position>
            <AltitudeMeters>1659.4000244140625</AltitudeMeters>
            <DistanceMeters>NAN</DistanceMeters>
          </Trackpoint>
          <Trackpoint>
            <Time>2019-08-01T12:08:58.000Z</Time>
            <Position>
              <LatitudeDegrees>40.77288620173931121826171875</LatitudeDegrees>
              <LongitudeDegrees>-4.00710904039442539215087890625</LongitudeDegrees>
            </Position>
            <AltitudeMeters>1659.5999755859375</AltitudeMeters>
            <DistanceMeters>NAN</DistanceMeters>
          </Trackpoint>
          <Trackpoint>
            <Time>2019-08-01T12:08:59.000Z</Time>
            <Position>
              <LatitudeDegrees>40.7729150354862213134765625</LatitudeDegrees>
              <LongitudeDegrees>-4.00709747336804866790771484375</LongitudeDegrees>
            </Position>
            <AltitudeMeters>1659.800048828125</AltitudeMeters>
            <DistanceMeters>NAN</DistanceMeters>
          </Trackpoint>
          <Trackpoint>
            <Time>2019-08-01T12:09:00.000Z</Time>
            <Position>
              <LatitudeDegrees>40.77294479124248027801513671875</LatitudeDegrees>
              <LongitudeDegrees>-4.00708607397973537445068359375</LongitudeDegrees>
            </Position>
            <AltitudeMeters>1660.199951171875</AltitudeMeters>
            <DistanceMeters>NAN</DistanceMeters>
          </Trackpoint>
          <Trackpoint>
            <Time>2019-08-01T12:09:01.000Z</Time>
            <Position>
              <LatitudeDegrees>40.77297496609389781951904296875</LatitudeDegrees>
              <LongitudeDegrees>-4.007075764238834381103515625</LongitudeDegrees>
            </Position>
            <AltitudeMeters>1660.199951171875</AltitudeMeters>
            <DistanceMeters>NAN</DistanceMeters>
          </Trackpoint>
          <Trackpoint>
            <Time>2019-08-01T12:09:02.000Z</Time>
            <Position>
              <LatitudeDegrees>40.77300488948822021484375</LatitudeDegrees>
              <LongitudeDegrees>-4.0070655383169651031494140625</LongitudeDegrees>
            </Position>
            <AltitudeMeters>1660.4000244140625</AltitudeMeters>
            <DistanceMeters>NAN</DistanceMeters>
          </Trackpoint>
          <Trackpoint>
            <Time>2019-08-01T12:09:03.000Z</Time>
            <Position>
              <LatitudeDegrees>40.77303380705416202545166015625</LatitudeDegrees>
              <LongitudeDegrees>-4.00705464184284210205078125</LongitudeDegrees>
            </Position>
            <AltitudeMeters>1660.800048828125</AltitudeMeters>
            <DistanceMeters>NAN</DistanceMeters>
          </Trackpoint>
          <Trackpoint>
            <Time>2019-08-01T12:09:04.000Z</Time>
            <Position>
              <LatitudeDegrees>40.77306213788688182830810546875</LatitudeDegrees>
              <LongitudeDegrees>-4.0070424042642116546630859375</LongitudeDegrees>
            </Position>
            <AltitudeMeters>1661</AltitudeMeters>
            <DistanceMeters>NAN</DistanceMeters>
          </Trackpoint>
          <Trackpoint>
            <Time>2019-08-01T12:09:05.000Z</Time>
            <Position>
              <LatitudeDegrees>40.77308845706284046173095703125</LatitudeDegrees>
              <LongitudeDegrees>-4.00703142397105693817138671875</LongitudeDegrees>
            </Position>
            <AltitudeMeters>1661.199951171875</AltitudeMeters>
            <DistanceMeters>NAN</DistanceMeters>
          </Trackpoint>
          <Trackpoint>
            <Time>2019-08-01T12:09:06.000Z</Time>
            <Position>
              <LatitudeDegrees>40.77311242930591106414794921875</LatitudeDegrees>
              <LongitudeDegrees>-4.00702086277306079864501953125</LongitudeDegrees>
            </Position>
            <AltitudeMeters>1661.5999755859375</AltitudeMeters>
            <DistanceMeters>NAN</DistanceMeters>
          </Trackpoint>
          <Trackpoint>
            <Time>2019-08-01T12:09:07.000Z</Time>
            <Position>
              <LatitudeDegrees>40.77313874848186969757080078125</LatitudeDegrees>
              <LongitudeDegrees>-4.00701030157506465911865234375</LongitudeDegrees>
            </Position>
            <AltitudeMeters>1661.5999755859375</AltitudeMeters>
            <DistanceMeters>NAN</DistanceMeters>
          </Trackpoint>
          <Trackpoint>
            <Time>2019-08-01T12:09:08.000Z</Time>
            <Position>
              <LatitudeDegrees>40.773168504238128662109375</LatitudeDegrees>
              <LongitudeDegrees>-4.006998650729656219482421875</LongitudeDegrees>
            </Position>
            <AltitudeMeters>1661.800048828125</AltitudeMeters>
            <DistanceMeters>NAN</DistanceMeters>
          </Trackpoint>
          <Trackpoint>
            <Time>2019-08-01T12:09:09.000Z</Time>
            <Position>
              <LatitudeDegrees>40.773197002708911895751953125</LatitudeDegrees>
              <LongitudeDegrees>-4.00698750279843807220458984375</LongitudeDegrees>
            </Position>
            <AltitudeMeters>1662</AltitudeMeters>
            <DistanceMeters>NAN</DistanceMeters>
          </Trackpoint>
          <Trackpoint>
            <Time>2019-08-01T12:09:10.000Z</Time>
            <Position>
              <LatitudeDegrees>40.77322189696133136749267578125</LatitudeDegrees>
              <LongitudeDegrees>-4.006976522505283355712890625</LongitudeDegrees>
            </Position>
            <AltitudeMeters>1662.199951171875</AltitudeMeters>
            <DistanceMeters>NAN</DistanceMeters>
          </Trackpoint>
          <Trackpoint>
            <Time>2019-08-01T12:09:11.000Z</Time>
            <Position>
              <LatitudeDegrees>40.77324754558503627777099609375</LatitudeDegrees>
              <LongitudeDegrees>-4.00696721859276294708251953125</LongitudeDegrees>
            </Position>
            <AltitudeMeters>1662.800048828125</AltitudeMeters>
            <DistanceMeters>NAN</DistanceMeters>
          </Trackpoint>
          <Trackpoint>
            <Time>2019-08-01T12:09:12.000Z</Time>
            <Position>
              <LatitudeDegrees>40.7732732780277729034423828125</LatitudeDegrees>
              <LongitudeDegrees>-4.0069545619189739227294921875</LongitudeDegrees>
            </Position>
            <AltitudeMeters>1663.199951171875</AltitudeMeters>
            <DistanceMeters>NAN</DistanceMeters>
          </Trackpoint>
          <Trackpoint>
            <Time>2019-08-01T12:09:13.000Z</Time>
            <Position>
              <LatitudeDegrees>40.7733004353940486907958984375</LatitudeDegrees>
              <LongitudeDegrees>-4.00694039650261402130126953125</LongitudeDegrees>
            </Position>
            <AltitudeMeters>1663.199951171875</AltitudeMeters>
            <DistanceMeters>NAN</DistanceMeters>
          </Trackpoint>
          <Trackpoint>
            <Time>2019-08-01T12:09:14.000Z</Time>
            <Position>
              <LatitudeDegrees>40.7733254134654998779296875</LatitudeDegrees>
              <LongitudeDegrees>-4.0069277398288249969482421875</LongitudeDegrees>
            </Position>
            <AltitudeMeters>1663.4000244140625</AltitudeMeters>
            <DistanceMeters>NAN</DistanceMeters>
          </Trackpoint>
          <Trackpoint>
            <Time>2019-08-01T12:09:15.000Z</Time>
            <Position>
              <LatitudeDegrees>40.77335164882242679595947265625</LatitudeDegrees>
              <LongitudeDegrees>-4.00691407732665538787841796875</LongitudeDegrees>
            </Position>
            <AltitudeMeters>1663.5999755859375</AltitudeMeters>
            <DistanceMeters>NAN</DistanceMeters>
          </Trackpoint>
          <Trackpoint>
            <Time>2019-08-01T12:09:16.000Z</Time>
            <Position>
              <LatitudeDegrees>40.7733763754367828369140625</LatitudeDegrees>
              <LongitudeDegrees>-4.00690049864351749420166015625</LongitudeDegrees>
            </Position>
            <AltitudeMeters>1663.800048828125</AltitudeMeters>
            <DistanceMeters>NAN</DistanceMeters>
          </Trackpoint>
          <Trackpoint>
            <Time>2019-08-01T12:09:17.000Z</Time>
            <Position>
              <LatitudeDegrees>40.7734050415456295013427734375</LatitudeDegrees>
              <LongitudeDegrees>-4.00688457302749156951904296875</LongitudeDegrees>
            </Position>
            <AltitudeMeters>1664</AltitudeMeters>
            <DistanceMeters>NAN</DistanceMeters>
          </Trackpoint>
          <Trackpoint>
            <Time>2019-08-01T12:09:18.000Z</Time>
            <Position>
              <LatitudeDegrees>40.77343471348285675048828125</LatitudeDegrees>
              <LongitudeDegrees>-4.00686822831630706787109375</LongitudeDegrees>
            </Position>
            <AltitudeMeters>1664.4000244140625</AltitudeMeters>
            <DistanceMeters>NAN</DistanceMeters>
          </Trackpoint>
          <Trackpoint>
            <Time>2019-08-01T12:09:19.000Z</Time>
            <Position>
              <LatitudeDegrees>40.77346296049654483795166015625</LatitudeDegrees>
              <LongitudeDegrees>-4.006852470338344573974609375</LongitudeDegrees>
            </Position>
            <AltitudeMeters>1664.5999755859375</AltitudeMeters>
            <DistanceMeters>NAN</DistanceMeters>
          </Trackpoint>
          <Trackpoint>
            <Time>2019-08-01T12:09:20.000Z</Time>
            <Position>
              <LatitudeDegrees>40.7734943926334381103515625</LatitudeDegrees>
              <LongitudeDegrees>-4.0068352036178112030029296875</LongitudeDegrees>
            </Position>
            <AltitudeMeters>1664.800048828125</AltitudeMeters>
            <DistanceMeters>NAN</DistanceMeters>
          </Trackpoint>
          <Trackpoint>
            <Time>2019-08-01T12:09:21.000Z</Time>
            <Position>
              <LatitudeDegrees>40.77352431602776050567626953125</LatitudeDegrees>
              <LongitudeDegrees>-4.0068181045353412628173828125</LongitudeDegrees>
            </Position>
            <AltitudeMeters>1665</AltitudeMeters>
            <DistanceMeters>NAN</DistanceMeters>
          </Trackpoint>
          <Trackpoint>
            <Time>2019-08-01T12:09:22.000Z</Time>
            <Position>
              <LatitudeDegrees>40.773553736507892608642578125</LatitudeDegrees>
              <LongitudeDegrees>-4.00680159218609333038330078125</LongitudeDegrees>
            </Position>
            <AltitudeMeters>1665</AltitudeMeters>
            <DistanceMeters>NAN</DistanceMeters>
          </Trackpoint>
          <Trackpoint>
            <Time>2019-08-01T12:09:23.000Z</Time>
            <Position>
              <LatitudeDegrees>40.77358332462608814239501953125</LatitudeDegrees>
              <LongitudeDegrees>-4.00678399018943309783935546875</LongitudeDegrees>
            </Position>
            <AltitudeMeters>1665.199951171875</AltitudeMeters>
            <DistanceMeters>NAN</DistanceMeters>
          </Trackpoint>
          <Trackpoint>
            <Time>2019-08-01T12:09:24.000Z</Time>
            <Position>
              <LatitudeDegrees>40.77361132018268108367919921875</LatitudeDegrees>
              <LongitudeDegrees>-4.00676630437374114990234375</LongitudeDegrees>
            </Position>
            <AltitudeMeters>1665.5999755859375</AltitudeMeters>
            <DistanceMeters>NAN</DistanceMeters>
          </Trackpoint>
          <Trackpoint>
            <Time>2019-08-01T12:09:25.000Z</Time>
            <Position>
              <LatitudeDegrees>40.7736404053866863250732421875</LatitudeDegrees>
              <LongitudeDegrees>-4.006749205291271209716796875</LongitudeDegrees>
            </Position>
            <AltitudeMeters>1665.800048828125</AltitudeMeters>
            <DistanceMeters>NAN</DistanceMeters>
          </Trackpoint>
          <Trackpoint>
            <Time>2019-08-01T12:09:26.000Z</Time>
            <Position>
              <LatitudeDegrees>40.77366848476231098175048828125</LatitudeDegrees>
              <LongitudeDegrees>-4.0067329443991184234619140625</LongitudeDegrees>
            </Position>
            <AltitudeMeters>1666.199951171875</AltitudeMeters>
            <DistanceMeters>NAN</DistanceMeters>
          </Trackpoint>
          <Trackpoint>
            <Time>2019-08-01T12:09:27.000Z</Time>
            <Position>
              <LatitudeDegrees>40.77369631268084049224853515625</LatitudeDegrees>
              <LongitudeDegrees>-4.006715677678585052490234375</LongitudeDegrees>
            </Position>
            <AltitudeMeters>1666.4000244140625</AltitudeMeters>
            <DistanceMeters>NAN</DistanceMeters>
          </Trackpoint>
          <Trackpoint>
            <Time>2019-08-01T12:09:28.000Z</Time>
            <Position>
              <LatitudeDegrees>40.77372481115162372589111328125</LatitudeDegrees>
              <LongitudeDegrees>-4.00669715367257595062255859375</LongitudeDegrees>
            </Position>
            <AltitudeMeters>1666.5999755859375</AltitudeMeters>
            <DistanceMeters>NAN</DistanceMeters>
          </Trackpoint>
          <Trackpoint>
            <Time>2019-08-01T12:09:29.000Z</Time>
            <Position>
              <LatitudeDegrees>40.7737543992698192596435546875</LatitudeDegrees>
              <LongitudeDegrees>-4.00667955167591571807861328125</LongitudeDegrees>
            </Position>
            <AltitudeMeters>1666.800048828125</AltitudeMeters>
            <DistanceMeters>NAN</DistanceMeters>
          </Trackpoint>
          <Trackpoint>
            <Time>2019-08-01T12:09:30.000Z</Time>
            <Position>
              <LatitudeDegrees>40.77378482557833194732666015625</LatitudeDegrees>
              <LongitudeDegrees>-4.0066615305840969085693359375</LongitudeDegrees>
            </Position>
            <AltitudeMeters>1667</AltitudeMeters>
            <DistanceMeters>NAN</DistanceMeters>
          </Trackpoint>
          <Trackpoint>
            <Time>2019-08-01T12:09:31.000Z</Time>
            <Position>
              <LatitudeDegrees>40.77378482557833194732666015625</LatitudeDegrees>
              <LongitudeDegrees>-4.0066615305840969085693359375</LongitudeDegrees>
            </Position>
            <AltitudeMeters>1667</AltitudeMeters>
            <DistanceMeters>NAN</DistanceMeters>
          </Trackpoint>
          <Trackpoint>
            <Time>2019-08-01T12:09:32.000Z</Time>
            <Position>
              <LatitudeDegrees>40.77384416945278644561767578125</LatitudeDegrees>
              <LongitudeDegrees>-4.00662490166723728179931640625</LongitudeDegrees>
            </Position>
            <AltitudeMeters>1667.4000244140625</AltitudeMeters>
            <DistanceMeters>NAN</DistanceMeters>
          </Trackpoint>
          <Trackpoint>
            <Time>2019-08-01T12:09:33.000Z</Time>
            <Position>
              <LatitudeDegrees>40.773872919380664825439453125</LatitudeDegrees>
              <LongitudeDegrees>-4.0066073834896087646484375</LongitudeDegrees>
            </Position>
            <AltitudeMeters>1667.5999755859375</AltitudeMeters>
            <DistanceMeters>NAN</DistanceMeters>
          </Trackpoint>
          <Trackpoint>
            <Time>2019-08-01T12:09:34.000Z</Time>
            <Position>
              <LatitudeDegrees>40.77389932237565517425537109375</LatitudeDegrees>
              <LongitudeDegrees>-4.00659003295004367828369140625</LongitudeDegrees>
            </Position>
            <AltitudeMeters>1667.800048828125</AltitudeMeters>
            <DistanceMeters>NAN</DistanceMeters>
          </Trackpoint>
          <Trackpoint>
            <Time>2019-08-01T12:09:35.000Z</Time>
            <Position>
              <LatitudeDegrees>40.77392480336129665374755859375</LatitudeDegrees>
              <LongitudeDegrees>-4.0065723471343517303466796875</LongitudeDegrees>
            </Position>
            <AltitudeMeters>1668.199951171875</AltitudeMeters>
            <DistanceMeters>NAN</DistanceMeters>
          </Trackpoint>
          <Trackpoint>
            <Time>2019-08-01T12:09:36.000Z</Time>
            <Position>
              <LatitudeDegrees>40.77392480336129665374755859375</LatitudeDegrees>
              <LongitudeDegrees>-4.0065723471343517303466796875</LongitudeDegrees>
            </Position>
            <AltitudeMeters>1668.5999755859375</AltitudeMeters>
            <DistanceMeters>NAN</DistanceMeters>
          </Trackpoint>
          <Trackpoint>
            <Time>2019-08-01T12:09:37.000Z</Time>
            <Position>
              <LatitudeDegrees>40.7739729993045330047607421875</LatitudeDegrees>
              <LongitudeDegrees>-4.00654342956840991973876953125</LongitudeDegrees>
            </Position>
            <AltitudeMeters>1668.800048828125</AltitudeMeters>
            <DistanceMeters>NAN</DistanceMeters>
          </Trackpoint>
          <Trackpoint>
            <Time>2019-08-01T12:09:38.000Z</Time>
            <Position>
              <LatitudeDegrees>40.77399940229952335357666015625</LatitudeDegrees>
              <LongitudeDegrees>-4.00652733631432056427001953125</LongitudeDegrees>
            </Position>
            <AltitudeMeters>1669.4000244140625</AltitudeMeters>
            <DistanceMeters>NAN</DistanceMeters>
          </Trackpoint>
          <Trackpoint>
            <Time>2019-08-01T12:09:39.000Z</Time>
            <Position>
              <LatitudeDegrees>40.77402689494192600250244140625</LatitudeDegrees>
              <LongitudeDegrees>-4.006509147584438323974609375</LongitudeDegrees>
            </Position>
            <AltitudeMeters>1669.5999755859375</AltitudeMeters>
            <DistanceMeters>NAN</DistanceMeters>
          </Trackpoint>
          <Trackpoint>
            <Time>2019-08-01T12:09:40.000Z</Time>
            <Position>
              <LatitudeDegrees>40.7740548066794872283935546875</LatitudeDegrees>
              <LongitudeDegrees>-4.00649079121649265289306640625</LongitudeDegrees>
            </Position>
            <AltitudeMeters>1669.800048828125</AltitudeMeters>
            <DistanceMeters>NAN</DistanceMeters>
          </Trackpoint>
          <Trackpoint>
            <Time>2019-08-01T12:09:41.000Z</Time>
            <Position>
              <LatitudeDegrees>40.77408204786479473114013671875</LatitudeDegrees>
              <LongitudeDegrees>-4.00647268630564212799072265625</LongitudeDegrees>
            </Position>
            <AltitudeMeters>1670.199951171875</AltitudeMeters>
            <DistanceMeters>NAN</DistanceMeters>
          </Trackpoint>
          <Trackpoint>
            <Time>2019-08-01T12:09:42.000Z</Time>
            <Position>
              <LatitudeDegrees>40.7741114683449268341064453125</LatitudeDegrees>
              <LongitudeDegrees>-4.0064571797847747802734375</LongitudeDegrees>
            </Position>
            <AltitudeMeters>1670.199951171875</AltitudeMeters>
            <DistanceMeters>NAN</DistanceMeters>
          </Trackpoint>
          <Trackpoint>
            <Time>2019-08-01T12:09:43.000Z</Time>
            <Position>
              <LatitudeDegrees>40.7741396315395832061767578125</LatitudeDegrees>
              <LongitudeDegrees>-4.00644217617809772491455078125</LongitudeDegrees>
            </Position>
            <AltitudeMeters>1670.4000244140625</AltitudeMeters>
            <DistanceMeters>NAN</DistanceMeters>
          </Trackpoint>
          <Trackpoint>
            <Time>2019-08-01T12:09:44.000Z</Time>
            <Position>
              <LatitudeDegrees>40.77416804619133472442626953125</LatitudeDegrees>
              <LongitudeDegrees>-4.00642675347626209259033203125</LongitudeDegrees>
            </Position>
            <AltitudeMeters>1670.5999755859375</AltitudeMeters>
            <DistanceMeters>NAN</DistanceMeters>
          </Trackpoint>
          <Trackpoint>
            <Time>2019-08-01T12:09:45.000Z</Time>
            <Position>
              <LatitudeDegrees>40.774196125566959381103515625</LatitudeDegrees>
              <LongitudeDegrees>-4.00641099549829959869384765625</LongitudeDegrees>
            </Position>
            <AltitudeMeters>1670.800048828125</AltitudeMeters>
            <DistanceMeters>NAN</DistanceMeters>
          </Trackpoint>
          <Trackpoint>
            <Time>2019-08-01T12:09:46.000Z</Time>
            <Position>
              <LatitudeDegrees>40.77422554604709148406982421875</LatitudeDegrees>
              <LongitudeDegrees>-4.00639389641582965850830078125</LongitudeDegrees>
            </Position>
            <AltitudeMeters>1671</AltitudeMeters>
            <DistanceMeters>NAN</DistanceMeters>
          </Trackpoint>
          <Trackpoint>
            <Time>2019-08-01T12:09:47.000Z</Time>
            <Position>
              <LatitudeDegrees>40.77425404451787471771240234375</LatitudeDegrees>
              <LongitudeDegrees>-4.00637830607593059539794921875</LongitudeDegrees>
            </Position>
            <AltitudeMeters>1671.199951171875</AltitudeMeters>
            <DistanceMeters>NAN</DistanceMeters>
          </Trackpoint>
          <Trackpoint>
            <Time>2019-08-01T12:09:48.000Z</Time>
            <Position>
              <LatitudeDegrees>40.77428354881703853607177734375</LatitudeDegrees>
              <LongitudeDegrees>-4.0063621290028095245361328125</LongitudeDegrees>
            </Position>
            <AltitudeMeters>1671.4000244140625</AltitudeMeters>
            <DistanceMeters>NAN</DistanceMeters>
          </Trackpoint>
          <Trackpoint>
            <Time>2019-08-01T12:09:49.000Z</Time>
            <Position>
              <LatitudeDegrees>40.77431238256394863128662109375</LatitudeDegrees>
              <LongitudeDegrees>-4.0063467063009738922119140625</LongitudeDegrees>
            </Position>
            <AltitudeMeters>1671.800048828125</AltitudeMeters>
            <DistanceMeters>NAN</DistanceMeters>
          </Trackpoint>
          <Trackpoint>
            <Time>2019-08-01T12:09:50.000Z</Time>
            <Position>
              <LatitudeDegrees>40.77434171922504901885986328125</LatitudeDegrees>
              <LongitudeDegrees>-4.006330780684947967529296875</LongitudeDegrees>
            </Position>
            <AltitudeMeters>1672</AltitudeMeters>
            <DistanceMeters>NAN</DistanceMeters>
          </Trackpoint>
          <Trackpoint>
            <Time>2019-08-01T12:09:51.000Z</Time>
            <Position>
              <LatitudeDegrees>40.774369798600673675537109375</LatitudeDegrees>
              <LongitudeDegrees>-4.0063158608973026275634765625</LongitudeDegrees>
            </Position>
            <AltitudeMeters>1672.199951171875</AltitudeMeters>
            <DistanceMeters>NAN</DistanceMeters>
          </Trackpoint>
          <Trackpoint>
            <Time>2019-08-01T12:09:52.000Z</Time>
            <Position>
              <LatitudeDegrees>40.7743974588811397552490234375</LatitudeDegrees>
              <LongitudeDegrees>-4.006300270557403564453125</LongitudeDegrees>
            </Position>
            <AltitudeMeters>1672.4000244140625</AltitudeMeters>
            <DistanceMeters>NAN</DistanceMeters>
          </Trackpoint>
          <Trackpoint>
            <Time>2019-08-01T12:09:53.000Z</Time>
            <Position>
              <LatitudeDegrees>40.7743974588811397552490234375</LatitudeDegrees>
              <LongitudeDegrees>-4.006300270557403564453125</LongitudeDegrees>
            </Position>
            <AltitudeMeters>1672.5999755859375</AltitudeMeters>
            <DistanceMeters>NAN</DistanceMeters>
          </Trackpoint>
          <Trackpoint>
            <Time>2019-08-01T12:09:54.000Z</Time>
            <Position>
              <LatitudeDegrees>40.77445453964173793792724609375</LatitudeDegrees>
              <LongitudeDegrees>-4.00627017952501773834228515625</LongitudeDegrees>
            </Position>
            <AltitudeMeters>1672.800048828125</AltitudeMeters>
            <DistanceMeters>NAN</DistanceMeters>
          </Trackpoint>
          <Trackpoint>
            <Time>2019-08-01T12:09:55.000Z</Time>
            <Position>
              <LatitudeDegrees>40.77448303811252117156982421875</LatitudeDegrees>
              <LongitudeDegrees>-4.00625609792768955230712890625</LongitudeDegrees>
            </Position>
            <AltitudeMeters>1673.199951171875</AltitudeMeters>
            <DistanceMeters>NAN</DistanceMeters>
          </Trackpoint>
          <Trackpoint>
            <Time>2019-08-01T12:09:56.000Z</Time>
            <Position>
              <LatitudeDegrees>40.7745124585926532745361328125</LatitudeDegrees>
              <LongitudeDegrees>-4.006242938339710235595703125</LongitudeDegrees>
            </Position>
            <AltitudeMeters>1673.4000244140625</AltitudeMeters>
            <DistanceMeters>NAN</DistanceMeters>
          </Trackpoint>
          <Trackpoint>
            <Time>2019-08-01T12:09:57.000Z</Time>
            <Position>
              <LatitudeDegrees>40.7745412923395633697509765625</LatitudeDegrees>
              <LongitudeDegrees>-4.0062300302088260650634765625</LongitudeDegrees>
            </Position>
            <AltitudeMeters>1673.4000244140625</AltitudeMeters>
            <DistanceMeters>NAN</DistanceMeters>
          </Trackpoint>
          <Trackpoint>
            <Time>2019-08-01T12:09:58.000Z</Time>
            <Position>
              <LatitudeDegrees>40.77456987462937831878662109375</LatitudeDegrees>
              <LongitudeDegrees>-4.00621670298278331756591796875</LongitudeDegrees>
            </Position>
            <AltitudeMeters>1673.5999755859375</AltitudeMeters>
            <DistanceMeters>NAN</DistanceMeters>
          </Trackpoint>
          <Trackpoint>
            <Time>2019-08-01T12:09:59.000Z</Time>
            <Position>
              <LatitudeDegrees>40.77459870837628841400146484375</LatitudeDegrees>
              <LongitudeDegrees>-4.00620362721383571624755859375</LongitudeDegrees>
            </Position>
            <AltitudeMeters>1673.800048828125</AltitudeMeters>
            <DistanceMeters>NAN</DistanceMeters>
          </Trackpoint>
          <Trackpoint>
            <Time>2019-08-01T12:10:00.000Z</Time>
            <Position>
              <LatitudeDegrees>40.77462737448513507843017578125</LatitudeDegrees>
              <LongitudeDegrees>-4.00619097054004669189453125</LongitudeDegrees>
            </Position>
            <AltitudeMeters>1673.800048828125</AltitudeMeters>
            <DistanceMeters>NAN</DistanceMeters>
          </Trackpoint>
          <Trackpoint>
            <Time>2019-08-01T12:10:01.000Z</Time>
            <Position>
              <LatitudeDegrees>40.77465570531785488128662109375</LatitudeDegrees>
              <LongitudeDegrees>-4.0061780624091625213623046875</LongitudeDegrees>
            </Position>
            <AltitudeMeters>1674</AltitudeMeters>
            <DistanceMeters>NAN</DistanceMeters>
          </Trackpoint>
          <Trackpoint>
            <Time>2019-08-01T12:10:02.000Z</Time>
            <Position>
              <LatitudeDegrees>40.7746841199696063995361328125</LatitudeDegrees>
              <LongitudeDegrees>-4.0061639808118343353271484375</LongitudeDegrees>
            </Position>
            <AltitudeMeters>1674.199951171875</AltitudeMeters>
            <DistanceMeters>NAN</DistanceMeters>
          </Trackpoint>
          <Trackpoint>
            <Time>2019-08-01T12:10:03.000Z</Time>
            <Position>
              <LatitudeDegrees>40.7747132889926433563232421875</LatitudeDegrees>
              <LongitudeDegrees>-4.00614931248128414154052734375</LongitudeDegrees>
            </Position>
            <AltitudeMeters>1674.4000244140625</AltitudeMeters>
            <DistanceMeters>NAN</DistanceMeters>
          </Trackpoint>
          <Trackpoint>
            <Time>2019-08-01T12:10:04.000Z</Time>
            <Position>
              <LatitudeDegrees>40.7747424580156803131103515625</LatitudeDegrees>
              <LongitudeDegrees>-4.006135649979114532470703125</LongitudeDegrees>
            </Position>
            <AltitudeMeters>1674.800048828125</AltitudeMeters>
            <DistanceMeters>NAN</DistanceMeters>
          </Trackpoint>
          <Trackpoint>
            <Time>2019-08-01T12:10:05.000Z</Time>
            <Position>
              <LatitudeDegrees>40.77477179467678070068359375</LatitudeDegrees>
              <LongitudeDegrees>-4.00612299330532550811767578125</LongitudeDegrees>
            </Position>
            <AltitudeMeters>1675</AltitudeMeters>
            <DistanceMeters>NAN</DistanceMeters>
          </Trackpoint>
          <Trackpoint>
            <Time>2019-08-01T12:10:06.000Z</Time>
            <Position>
              <LatitudeDegrees>40.77480188570916652679443359375</LatitudeDegrees>
              <LongitudeDegrees>-4.0061103366315364837646484375</LongitudeDegrees>
            </Position>
            <AltitudeMeters>1675.199951171875</AltitudeMeters>
            <DistanceMeters>NAN</DistanceMeters>
          </Trackpoint>
          <Trackpoint>
            <Time>2019-08-01T12:10:07.000Z</Time>
            <Position>
              <LatitudeDegrees>40.7748316414654254913330078125</LatitudeDegrees>
              <LongitudeDegrees>-4.0060986019670963287353515625</LongitudeDegrees>
            </Position>
            <AltitudeMeters>1675.4000244140625</AltitudeMeters>
            <DistanceMeters>NAN</DistanceMeters>
          </Trackpoint>
          <Trackpoint>
            <Time>2019-08-01T12:10:08.000Z</Time>
            <Position>
              <LatitudeDegrees>40.7748614810407161712646484375</LatitudeDegrees>
              <LongitudeDegrees>-4.00608661584556102752685546875</LongitudeDegrees>
            </Position>
            <AltitudeMeters>1675.5999755859375</AltitudeMeters>
            <DistanceMeters>NAN</DistanceMeters>
          </Trackpoint>
          <Trackpoint>
            <Time>2019-08-01T12:10:09.000Z</Time>
            <Position>
              <LatitudeDegrees>40.7748906500637531280517578125</LatitudeDegrees>
              <LongitudeDegrees>-4.00607638992369174957275390625</LongitudeDegrees>
            </Position>
            <AltitudeMeters>1675.5999755859375</AltitudeMeters>
            <DistanceMeters>NAN</DistanceMeters>
          </Trackpoint>
          <Trackpoint>
            <Time>2019-08-01T12:10:10.000Z</Time>
            <Position>
              <LatitudeDegrees>40.7748906500637531280517578125</LatitudeDegrees>
              <LongitudeDegrees>-4.00607638992369174957275390625</LongitudeDegrees>
            </Position>
            <AltitudeMeters>1675.800048828125</AltitudeMeters>
            <DistanceMeters>NAN</DistanceMeters>
          </Trackpoint>
          <Trackpoint>
            <Time>2019-08-01T12:10:11.000Z</Time>
            <Position>
              <LatitudeDegrees>40.77494890429079532623291015625</LatitudeDegrees>
              <LongitudeDegrees>-4.00605275295674800872802734375</LongitudeDegrees>
            </Position>
            <AltitudeMeters>1676</AltitudeMeters>
            <DistanceMeters>NAN</DistanceMeters>
          </Trackpoint>
          <Trackpoint>
            <Time>2019-08-01T12:10:12.000Z</Time>
            <Position>
              <LatitudeDegrees>40.7749776542186737060546875</LatitudeDegrees>
              <LongitudeDegrees>-4.00604152120649814605712890625</LongitudeDegrees>
            </Position>
            <AltitudeMeters>1676.199951171875</AltitudeMeters>
            <DistanceMeters>NAN</DistanceMeters>
          </Trackpoint>
          <Trackpoint>
            <Time>2019-08-01T12:10:13.000Z</Time>
            <Position>
              <LatitudeDegrees>40.775006823241710662841796875</LatitudeDegrees>
              <LongitudeDegrees>-4.00603129528462886810302734375</LongitudeDegrees>
            </Position>
            <AltitudeMeters>1676.4000244140625</AltitudeMeters>
            <DistanceMeters>NAN</DistanceMeters>
          </Trackpoint>
          <Trackpoint>
            <Time>2019-08-01T12:10:14.000Z</Time>
            <Position>
              <LatitudeDegrees>40.77503456734120845794677734375</LatitudeDegrees>
              <LongitudeDegrees>-4.00602039881050586700439453125</LongitudeDegrees>
            </Position>
            <AltitudeMeters>1676.5999755859375</AltitudeMeters>
            <DistanceMeters>NAN</DistanceMeters>
          </Trackpoint>
          <Trackpoint>
            <Time>2019-08-01T12:10:15.000Z</Time>
            <Position>
              <LatitudeDegrees>40.7750623114407062530517578125</LatitudeDegrees>
              <LongitudeDegrees>-4.006007574498653411865234375</LongitudeDegrees>
            </Position>
            <AltitudeMeters>1677</AltitudeMeters>
            <DistanceMeters>NAN</DistanceMeters>
          </Trackpoint>
          <Trackpoint>
            <Time>2019-08-01T12:10:16.000Z</Time>
            <Position>
              <LatitudeDegrees>40.775091983377933502197265625</LatitudeDegrees>
              <LongitudeDegrees>-4.005994834005832672119140625</LongitudeDegrees>
            </Position>
            <AltitudeMeters>1677.5999755859375</AltitudeMeters>
            <DistanceMeters>NAN</DistanceMeters>
          </Trackpoint>
          <Trackpoint>
            <Time>2019-08-01T12:10:17.000Z</Time>
            <Position>
              <LatitudeDegrees>40.77512173913419246673583984375</LatitudeDegrees>
              <LongitudeDegrees>-4.0059824287891387939453125</LongitudeDegrees>
            </Position>
            <AltitudeMeters>1678</AltitudeMeters>
            <DistanceMeters>NAN</DistanceMeters>
          </Trackpoint>
          <Trackpoint>
            <Time>2019-08-01T12:10:18.000Z</Time>
            <Position>
              <LatitudeDegrees>40.77515191398561000823974609375</LatitudeDegrees>
              <LongitudeDegrees>-4.00597044266760349273681640625</LongitudeDegrees>
            </Position>
            <AltitudeMeters>1678</AltitudeMeters>
            <DistanceMeters>NAN</DistanceMeters>
          </Trackpoint>
          <Trackpoint>
            <Time>2019-08-01T12:10:19.000Z</Time>
            <Position>
              <LatitudeDegrees>40.77518242411315441131591796875</LatitudeDegrees>
              <LongitudeDegrees>-4.0059584565460681915283203125</LongitudeDegrees>
            </Position>
            <AltitudeMeters>1678.199951171875</AltitudeMeters>
            <DistanceMeters>NAN</DistanceMeters>
          </Trackpoint>
          <Trackpoint>
            <Time>2019-08-01T12:10:20.000Z</Time>
            <Position>
              <LatitudeDegrees>40.77521293424069881439208984375</LatitudeDegrees>
              <LongitudeDegrees>-4.0059457160532474517822265625</LongitudeDegrees>
            </Position>
            <AltitudeMeters>1678.4000244140625</AltitudeMeters>
            <DistanceMeters>NAN</DistanceMeters>
          </Trackpoint>
          <Trackpoint>
            <Time>2019-08-01T12:10:21.000Z</Time>
            <Position>
              <LatitudeDegrees>40.7752431929111480712890625</LatitudeDegrees>
              <LongitudeDegrees>-4.0059329755604267120361328125</LongitudeDegrees>
            </Position>
            <AltitudeMeters>1678.5999755859375</AltitudeMeters>
            <DistanceMeters>NAN</DistanceMeters>
          </Trackpoint>
          <Trackpoint>
            <Time>2019-08-01T12:10:22.000Z</Time>
            <Position>
              <LatitudeDegrees>40.77527311630547046661376953125</LatitudeDegrees>
              <LongitudeDegrees>-4.00591998361051082611083984375</LongitudeDegrees>
            </Position>
            <AltitudeMeters>1678.800048828125</AltitudeMeters>
            <DistanceMeters>NAN</DistanceMeters>
          </Trackpoint>
          <Trackpoint>
            <Time>2019-08-01T12:10:23.000Z</Time>
            <Position>
              <LatitudeDegrees>40.7753033749759197235107421875</LatitudeDegrees>
              <LongitudeDegrees>-4.0059051476418972015380859375</LongitudeDegrees>
            </Position>
            <AltitudeMeters>1678.800048828125</AltitudeMeters>
            <DistanceMeters>NAN</DistanceMeters>
          </Trackpoint>
          <Trackpoint>
            <Time>2019-08-01T12:10:24.000Z</Time>
            <Position>
              <LatitudeDegrees>40.77533304691314697265625</LatitudeDegrees>
              <LongitudeDegrees>-4.0058903954923152923583984375</LongitudeDegrees>
            </Position>
            <AltitudeMeters>1678.800048828125</AltitudeMeters>
            <DistanceMeters>NAN</DistanceMeters>
          </Trackpoint>
          <Trackpoint>
            <Time>2019-08-01T12:10:25.000Z</Time>
            <Position>
              <LatitudeDegrees>40.775362215936183929443359375</LatitudeDegrees>
              <LongitudeDegrees>-4.00587421841919422149658203125</LongitudeDegrees>
            </Position>
            <AltitudeMeters>1679</AltitudeMeters>
            <DistanceMeters>NAN</DistanceMeters>
          </Trackpoint>
          <Trackpoint>
            <Time>2019-08-01T12:10:26.000Z</Time>
            <Position>
              <LatitudeDegrees>40.7753918878734111785888671875</LatitudeDegrees>
              <LongitudeDegrees>-4.00585711933672428131103515625</LongitudeDegrees>
            </Position>
            <AltitudeMeters>1679.199951171875</AltitudeMeters>
            <DistanceMeters>NAN</DistanceMeters>
          </Trackpoint>
          <Trackpoint>
            <Time>2019-08-01T12:10:27.000Z</Time>
            <Position>
              <LatitudeDegrees>40.77542130835354328155517578125</LatitudeDegrees>
              <LongitudeDegrees>-4.005838930606842041015625</LongitudeDegrees>
            </Position>
            <AltitudeMeters>1679.4000244140625</AltitudeMeters>
            <DistanceMeters>NAN</DistanceMeters>
          </Trackpoint>
          <Trackpoint>
            <Time>2019-08-01T12:10:28.000Z</Time>
            <Position>
              <LatitudeDegrees>40.77545039355754852294921875</LatitudeDegrees>
              <LongitudeDegrees>-4.00582040660083293914794921875</LongitudeDegrees>
            </Position>
            <AltitudeMeters>1679.5999755859375</AltitudeMeters>
            <DistanceMeters>NAN</DistanceMeters>
          </Trackpoint>
          <Trackpoint>
            <Time>2019-08-01T12:10:29.000Z</Time>
            <Position>
              <LatitudeDegrees>40.7754790596663951873779296875</LatitudeDegrees>
              <LongitudeDegrees>-4.005802385509014129638671875</LongitudeDegrees>
            </Position>
            <AltitudeMeters>1679.5999755859375</AltitudeMeters>
            <DistanceMeters>NAN</DistanceMeters>
          </Trackpoint>
          <Trackpoint>
            <Time>2019-08-01T12:10:30.000Z</Time>
            <Position>
              <LatitudeDegrees>40.77550806105136871337890625</LatitudeDegrees>
              <LongitudeDegrees>-4.00578604079782962799072265625</LongitudeDegrees>
            </Position>
            <AltitudeMeters>1680</AltitudeMeters>
            <DistanceMeters>NAN</DistanceMeters>
          </Trackpoint>
          <Trackpoint>
            <Time>2019-08-01T12:10:31.000Z</Time>
            <Position>
              <LatitudeDegrees>40.77553748153150081634521484375</LatitudeDegrees>
              <LongitudeDegrees>-4.00577112101018428802490234375</LongitudeDegrees>
            </Position>
            <AltitudeMeters>1680.4000244140625</AltitudeMeters>
            <DistanceMeters>NAN</DistanceMeters>
          </Trackpoint>
          <Trackpoint>
            <Time>2019-08-01T12:10:32.000Z</Time>
            <Position>
              <LatitudeDegrees>40.7755672372877597808837890625</LatitudeDegrees>
              <LongitudeDegrees>-4.0057572908699512481689453125</LongitudeDegrees>
            </Position>
            <AltitudeMeters>1680.800048828125</AltitudeMeters>
            <DistanceMeters>NAN</DistanceMeters>
          </Trackpoint>
          <Trackpoint>
            <Time>2019-08-01T12:10:33.000Z</Time>
            <Position>
              <LatitudeDegrees>40.77559649012982845306396484375</LatitudeDegrees>
              <LongitudeDegrees>-4.005742371082305908203125</LongitudeDegrees>
            </Position>
            <AltitudeMeters>1681</AltitudeMeters>
            <DistanceMeters>NAN</DistanceMeters>
          </Trackpoint>
          <Trackpoint>
            <Time>2019-08-01T12:10:34.000Z</Time>
            <Position>
              <LatitudeDegrees>40.775625072419643402099609375</LatitudeDegrees>
              <LongitudeDegrees>-4.00572552345693111419677734375</LongitudeDegrees>
            </Position>
            <AltitudeMeters>1681.4000244140625</AltitudeMeters>
            <DistanceMeters>NAN</DistanceMeters>
          </Trackpoint>
          <Trackpoint>
            <Time>2019-08-01T12:10:35.000Z</Time>
            <Position>
              <LatitudeDegrees>40.775653235614299774169921875</LatitudeDegrees>
              <LongitudeDegrees>-4.00570725090801715850830078125</LongitudeDegrees>
            </Position>
            <AltitudeMeters>1681.5999755859375</AltitudeMeters>
            <DistanceMeters>NAN</DistanceMeters>
          </Trackpoint>
          <Trackpoint>
            <Time>2019-08-01T12:10:36.000Z</Time>
            <Position>
              <LatitudeDegrees>40.77568198554217815399169921875</LatitudeDegrees>
              <LongitudeDegrees>-4.00568998418748378753662109375</LongitudeDegrees>
            </Position>
            <AltitudeMeters>1681.800048828125</AltitudeMeters>
            <DistanceMeters>NAN</DistanceMeters>
          </Trackpoint>
          <Trackpoint>
            <Time>2019-08-01T12:10:37.000Z</Time>
            <Position>
              <LatitudeDegrees>40.7757107354700565338134765625</LatitudeDegrees>
              <LongitudeDegrees>-4.00567389093339443206787109375</LongitudeDegrees>
            </Position>
            <AltitudeMeters>1682.199951171875</AltitudeMeters>
            <DistanceMeters>NAN</DistanceMeters>
          </Trackpoint>
          <Trackpoint>
            <Time>2019-08-01T12:10:38.000Z</Time>
            <Position>
              <LatitudeDegrees>40.775739736855030059814453125</LatitudeDegrees>
              <LongitudeDegrees>-4.00565947405993938446044921875</LongitudeDegrees>
            </Position>
            <AltitudeMeters>1682.5999755859375</AltitudeMeters>
            <DistanceMeters>NAN</DistanceMeters>
          </Trackpoint>
          <Trackpoint>
            <Time>2019-08-01T12:10:39.000Z</Time>
            <Position>
              <LatitudeDegrees>40.77576865442097187042236328125</LatitudeDegrees>
              <LongitudeDegrees>-4.0056453086435794830322265625</LongitudeDegrees>
            </Position>
            <AltitudeMeters>1682.800048828125</AltitudeMeters>
            <DistanceMeters>NAN</DistanceMeters>
          </Trackpoint>
          <Trackpoint>
            <Time>2019-08-01T12:10:40.000Z</Time>
            <Position>
              <LatitudeDegrees>40.7757962308824062347412109375</LatitudeDegrees>
              <LongitudeDegrees>-4.0056315623223781585693359375</LongitudeDegrees>
            </Position>
            <AltitudeMeters>1683</AltitudeMeters>
            <DistanceMeters>NAN</DistanceMeters>
          </Trackpoint>
          <Trackpoint>
            <Time>2019-08-01T12:10:41.000Z</Time>
            <Position>
              <LatitudeDegrees>40.77582347206771373748779296875</LatitudeDegrees>
              <LongitudeDegrees>-4.00561588816344738006591796875</LongitudeDegrees>
            </Position>
            <AltitudeMeters>1683.199951171875</AltitudeMeters>
            <DistanceMeters>NAN</DistanceMeters>
          </Trackpoint>
          <Trackpoint>
            <Time>2019-08-01T12:10:42.000Z</Time>
            <Position>
              <LatitudeDegrees>40.7758505456149578094482421875</LatitudeDegrees>
              <LongitudeDegrees>-4.005598537623882293701171875</LongitudeDegrees>
            </Position>
            <AltitudeMeters>1683.199951171875</AltitudeMeters>
            <DistanceMeters>NAN</DistanceMeters>
          </Trackpoint>
          <Trackpoint>
            <Time>2019-08-01T12:10:43.000Z</Time>
            <Position>
              <LatitudeDegrees>40.7758766971528530120849609375</LatitudeDegrees>
              <LongitudeDegrees>-4.0055819414556026458740234375</LongitudeDegrees>
            </Position>
            <AltitudeMeters>1683.199951171875</AltitudeMeters>
            <DistanceMeters>NAN</DistanceMeters>
          </Trackpoint>
          <Trackpoint>
            <Time>2019-08-01T12:10:44.000Z</Time>
            <Position>
              <LatitudeDegrees>40.7759028486907482147216796875</LatitudeDegrees>
              <LongitudeDegrees>-4.00556744076311588287353515625</LongitudeDegrees>
            </Position>
            <AltitudeMeters>1683.5999755859375</AltitudeMeters>
            <DistanceMeters>NAN</DistanceMeters>
          </Trackpoint>
          <Trackpoint>
            <Time>2019-08-01T12:10:45.000Z</Time>
            <Position>
              <LatitudeDegrees>40.77593092806637287139892578125</LatitudeDegrees>
              <LongitudeDegrees>-4.0055567957460880279541015625</LongitudeDegrees>
            </Position>
            <AltitudeMeters>1684</AltitudeMeters>
            <DistanceMeters>NAN</DistanceMeters>
          </Trackpoint>
          <Trackpoint>
            <Time>2019-08-01T12:10:46.000Z</Time>
            <Position>
              <LatitudeDegrees>40.775959677994251251220703125</LatitudeDegrees>
              <LongitudeDegrees>-4.005547575652599334716796875</LongitudeDegrees>
            </Position>
            <AltitudeMeters>1684.199951171875</AltitudeMeters>
            <DistanceMeters>NAN</DistanceMeters>
          </Trackpoint>
          <Trackpoint>
            <Time>2019-08-01T12:10:47.000Z</Time>
            <Position>
              <LatitudeDegrees>40.775987841188907623291015625</LatitudeDegrees>
              <LongitudeDegrees>-4.00553743354976177215576171875</LongitudeDegrees>
            </Position>
            <AltitudeMeters>1684.4000244140625</AltitudeMeters>
            <DistanceMeters>NAN</DistanceMeters>
          </Trackpoint>
          <Trackpoint>
            <Time>2019-08-01T12:10:48.000Z</Time>
            <Position>
              <LatitudeDegrees>40.77601323835551738739013671875</LatitudeDegrees>
              <LongitudeDegrees>-4.00552771054208278656005859375</LongitudeDegrees>
            </Position>
            <AltitudeMeters>1684.4000244140625</AltitudeMeters>
            <DistanceMeters>NAN</DistanceMeters>
          </Trackpoint>
          <Trackpoint>
            <Time>2019-08-01T12:10:49.000Z</Time>
            <Position>
              <LatitudeDegrees>40.776038132607936859130859375</LatitudeDegrees>
              <LongitudeDegrees>-4.00551647879183292388916015625</LongitudeDegrees>
            </Position>
            <AltitudeMeters>1684.5999755859375</AltitudeMeters>
            <DistanceMeters>NAN</DistanceMeters>
          </Trackpoint>
          <Trackpoint>
            <Time>2019-08-01T12:10:50.000Z</Time>
            <Position>
              <LatitudeDegrees>40.77606403268873691558837890625</LatitudeDegrees>
              <LongitudeDegrees>-4.0055038221180438995361328125</LongitudeDegrees>
            </Position>
            <AltitudeMeters>1684.800048828125</AltitudeMeters>
            <DistanceMeters>NAN</DistanceMeters>
          </Trackpoint>
          <Trackpoint>
            <Time>2019-08-01T12:10:51.000Z</Time>
            <Position>
              <LatitudeDegrees>40.77608800493180751800537109375</LatitudeDegrees>
              <LongitudeDegrees>-4.0054900757968425750732421875</LongitudeDegrees>
            </Position>
            <AltitudeMeters>1685</AltitudeMeters>
            <DistanceMeters>NAN</DistanceMeters>
          </Trackpoint>
          <Trackpoint>
            <Time>2019-08-01T12:10:52.000Z</Time>
            <Position>
              <LatitudeDegrees>40.7761147432029247283935546875</LatitudeDegrees>
              <LongitudeDegrees>-4.00547616183757781982421875</LongitudeDegrees>
            </Position>
            <AltitudeMeters>1685.4000244140625</AltitudeMeters>
            <DistanceMeters>NAN</DistanceMeters>
          </Trackpoint>
          <Trackpoint>
            <Time>2019-08-01T12:10:53.000Z</Time>
            <Position>
              <LatitudeDegrees>40.7761147432029247283935546875</LatitudeDegrees>
              <LongitudeDegrees>-4.00547616183757781982421875</LongitudeDegrees>
            </Position>
            <AltitudeMeters>1685.800048828125</AltitudeMeters>
            <DistanceMeters>NAN</DistanceMeters>
          </Trackpoint>
          <Trackpoint>
            <Time>2019-08-01T12:10:54.000Z</Time>
            <Position>
              <LatitudeDegrees>40.77616595663130283355712890625</LatitudeDegrees>
              <LongitudeDegrees>-4.005444981157779693603515625</LongitudeDegrees>
            </Position>
            <AltitudeMeters>1686.199951171875</AltitudeMeters>
            <DistanceMeters>NAN</DistanceMeters>
          </Trackpoint>
          <Trackpoint>
            <Time>2019-08-01T12:10:55.000Z</Time>
            <Position>
              <LatitudeDegrees>40.7761895097792148590087890625</LatitudeDegrees>
              <LongitudeDegrees>-4.0054314024746417999267578125</LongitudeDegrees>
            </Position>
            <AltitudeMeters>1686.4000244140625</AltitudeMeters>
            <DistanceMeters>NAN</DistanceMeters>
          </Trackpoint>
          <Trackpoint>
            <Time>2019-08-01T12:10:56.000Z</Time>
            <Position>
              <LatitudeDegrees>40.7762143202126026153564453125</LatitudeDegrees>
              <LongitudeDegrees>-4.0054159797728061676025390625</LongitudeDegrees>
            </Position>
            <AltitudeMeters>1686.5999755859375</AltitudeMeters>
            <DistanceMeters>NAN</DistanceMeters>
          </Trackpoint>
          <Trackpoint>
            <Time>2019-08-01T12:10:57.000Z</Time>
            <Position>
              <LatitudeDegrees>40.77623896300792694091796875</LatitudeDegrees>
              <LongitudeDegrees>-4.00539846159517765045166015625</LongitudeDegrees>
            </Position>
            <AltitudeMeters>1686.800048828125</AltitudeMeters>
            <DistanceMeters>NAN</DistanceMeters>
          </Trackpoint>
          <Trackpoint>
            <Time>2019-08-01T12:10:58.000Z</Time>
            <Position>
              <LatitudeDegrees>40.776264108717441558837890625</LatitudeDegrees>
              <LongitudeDegrees>-4.00537960231304168701171875</LongitudeDegrees>
            </Position>
            <AltitudeMeters>1687</AltitudeMeters>
            <DistanceMeters>NAN</DistanceMeters>
          </Trackpoint>
          <Trackpoint>
            <Time>2019-08-01T12:10:59.000Z</Time>
            <Position>
              <LatitudeDegrees>40.77629051171243190765380859375</LatitudeDegrees>
              <LongitudeDegrees>-4.0053609944880008697509765625</LongitudeDegrees>
            </Position>
            <AltitudeMeters>1687.199951171875</AltitudeMeters>
            <DistanceMeters>NAN</DistanceMeters>
          </Trackpoint>
          <Trackpoint>
            <Time>2019-08-01T12:11:00.000Z</Time>
            <Position>
              <LatitudeDegrees>40.7763182558119297027587890625</LatitudeDegrees>
              <LongitudeDegrees>-4.00534196756780147552490234375</LongitudeDegrees>
            </Position>
            <AltitudeMeters>1687.4000244140625</AltitudeMeters>
            <DistanceMeters>NAN</DistanceMeters>
          </Trackpoint>
          <Trackpoint>
            <Time>2019-08-01T12:11:01.000Z</Time>
            <Position>
              <LatitudeDegrees>40.77634549699723720550537109375</LatitudeDegrees>
              <LongitudeDegrees>-4.005324281752109527587890625</LongitudeDegrees>
            </Position>
            <AltitudeMeters>1687.5999755859375</AltitudeMeters>
            <DistanceMeters>NAN</DistanceMeters>
          </Trackpoint>
          <Trackpoint>
            <Time>2019-08-01T12:11:02.000Z</Time>
            <Position>
              <LatitudeDegrees>40.77637131325900554656982421875</LatitudeDegrees>
              <LongitudeDegrees>-4.00530584156513214111328125</LongitudeDegrees>
            </Position>
            <AltitudeMeters>1687.800048828125</AltitudeMeters>
            <DistanceMeters>NAN</DistanceMeters>
          </Trackpoint>
          <Trackpoint>
            <Time>2019-08-01T12:11:03.000Z</Time>
            <Position>
              <LatitudeDegrees>40.7763965427875518798828125</LatitudeDegrees>
              <LongitudeDegrees>-4.00528647936880588531494140625</LongitudeDegrees>
            </Position>
            <AltitudeMeters>1688.199951171875</AltitudeMeters>
            <DistanceMeters>NAN</DistanceMeters>
          </Trackpoint>
          <Trackpoint>
            <Time>2019-08-01T12:11:04.000Z</Time>
            <Position>
              <LatitudeDegrees>40.776423700153827667236328125</LatitudeDegrees>
              <LongitudeDegrees>-4.0052674524486064910888671875</LongitudeDegrees>
            </Position>
            <AltitudeMeters>1688.4000244140625</AltitudeMeters>
            <DistanceMeters>NAN</DistanceMeters>
          </Trackpoint>
          <Trackpoint>
            <Time>2019-08-01T12:11:05.000Z</Time>
            <Position>
              <LatitudeDegrees>40.7764506898820400238037109375</LatitudeDegrees>
              <LongitudeDegrees>-4.00524725206196308135986328125</LongitudeDegrees>
            </Position>
            <AltitudeMeters>1688.5999755859375</AltitudeMeters>
            <DistanceMeters>NAN</DistanceMeters>
          </Trackpoint>
          <Trackpoint>
            <Time>2019-08-01T12:11:06.000Z</Time>
            <Position>
              <LatitudeDegrees>40.7764778472483158111572265625</LatitudeDegrees>
              <LongitudeDegrees>-4.00522897951304912567138671875</LongitudeDegrees>
            </Position>
            <AltitudeMeters>1688.800048828125</AltitudeMeters>
            <DistanceMeters>NAN</DistanceMeters>
          </Trackpoint>
          <Trackpoint>
            <Time>2019-08-01T12:11:07.000Z</Time>
            <Position>
              <LatitudeDegrees>40.7765053398907184600830078125</LatitudeDegrees>
              <LongitudeDegrees>-4.00521003641188144683837890625</LongitudeDegrees>
            </Position>
            <AltitudeMeters>1689</AltitudeMeters>
            <DistanceMeters>NAN</DistanceMeters>
          </Trackpoint>
          <Trackpoint>
            <Time>2019-08-01T12:11:08.000Z</Time>
            <Position>
              <LatitudeDegrees>40.7765304856002330780029296875</LatitudeDegrees>
              <LongitudeDegrees>-4.005192853510379791259765625</LongitudeDegrees>
            </Position>
            <AltitudeMeters>1689.199951171875</AltitudeMeters>
            <DistanceMeters>NAN</DistanceMeters>
          </Trackpoint>
          <Trackpoint>
            <Time>2019-08-01T12:11:09.000Z</Time>
            <Position>
              <LatitudeDegrees>40.7765556313097476959228515625</LatitudeDegrees>
              <LongitudeDegrees>-4.0051750838756561279296875</LongitudeDegrees>
            </Position>
            <AltitudeMeters>1689.199951171875</AltitudeMeters>
            <DistanceMeters>NAN</DistanceMeters>
          </Trackpoint>
          <Trackpoint>
            <Time>2019-08-01T12:11:10.000Z</Time>
            <Position>
              <LatitudeDegrees>40.7765811122953891754150390625</LatitudeDegrees>
              <LongitudeDegrees>-4.00515689514577388763427734375</LongitudeDegrees>
            </Position>
            <AltitudeMeters>1689.4000244140625</AltitudeMeters>
            <DistanceMeters>NAN</DistanceMeters>
          </Trackpoint>
          <Trackpoint>
            <Time>2019-08-01T12:11:11.000Z</Time>
            <Position>
              <LatitudeDegrees>40.7766084372997283935546875</LatitudeDegrees>
              <LongitudeDegrees>-4.0051375329494476318359375</LongitudeDegrees>
            </Position>
            <AltitudeMeters>1689.5999755859375</AltitudeMeters>
            <DistanceMeters>NAN</DistanceMeters>
          </Trackpoint>
          <Trackpoint>
            <Time>2019-08-01T12:11:12.000Z</Time>
            <Position>
              <LatitudeDegrees>40.7766379415988922119140625</LatitudeDegrees>
              <LongitudeDegrees>-4.005120433866977691650390625</LongitudeDegrees>
            </Position>
            <AltitudeMeters>1690.199951171875</AltitudeMeters>
            <DistanceMeters>NAN</DistanceMeters>
          </Trackpoint>
          <Trackpoint>
            <Time>2019-08-01T12:11:13.000Z</Time>
            <Position>
              <LatitudeDegrees>40.7766662724316120147705078125</LatitudeDegrees>
              <LongitudeDegrees>-4.00510442443192005157470703125</LongitudeDegrees>
            </Position>
            <AltitudeMeters>1690.199951171875</AltitudeMeters>
            <DistanceMeters>NAN</DistanceMeters>
          </Trackpoint>
          <Trackpoint>
            <Time>2019-08-01T12:11:14.000Z</Time>
            <Position>
              <LatitudeDegrees>40.77669401653110980987548828125</LatitudeDegrees>
              <LongitudeDegrees>-4.00508724153041839599609375</LongitudeDegrees>
            </Position>
            <AltitudeMeters>1690.199951171875</AltitudeMeters>
            <DistanceMeters>NAN</DistanceMeters>
          </Trackpoint>
          <Trackpoint>
            <Time>2019-08-01T12:11:15.000Z</Time>
            <Position>
              <LatitudeDegrees>40.77672201208770275115966796875</LatitudeDegrees>
              <LongitudeDegrees>-4.00506838224828243255615234375</LongitudeDegrees>
            </Position>
            <AltitudeMeters>1690.4000244140625</AltitudeMeters>
            <DistanceMeters>NAN</DistanceMeters>
          </Trackpoint>
          <Trackpoint>
            <Time>2019-08-01T12:11:16.000Z</Time>
            <Position>
              <LatitudeDegrees>40.77674866653978824615478515625</LatitudeDegrees>
              <LongitudeDegrees>-4.00504994206130504608154296875</LongitudeDegrees>
            </Position>
            <AltitudeMeters>1690.4000244140625</AltitudeMeters>
            <DistanceMeters>NAN</DistanceMeters>
          </Trackpoint>
          <Trackpoint>
            <Time>2019-08-01T12:11:17.000Z</Time>
            <Position>
              <LatitudeDegrees>40.77677615918219089508056640625</LatitudeDegrees>
              <LongitudeDegrees>-4.00503359735012054443359375</LongitudeDegrees>
            </Position>
            <AltitudeMeters>1690.5999755859375</AltitudeMeters>
            <DistanceMeters>NAN</DistanceMeters>
          </Trackpoint>
          <Trackpoint>
            <Time>2019-08-01T12:11:18.000Z</Time>
            <Position>
              <LatitudeDegrees>40.7768020592629909515380859375</LatitudeDegrees>
              <LongitudeDegrees>-4.00501876138150691986083984375</LongitudeDegrees>
            </Position>
            <AltitudeMeters>1691</AltitudeMeters>
            <DistanceMeters>NAN</DistanceMeters>
          </Trackpoint>
          <Trackpoint>
            <Time>2019-08-01T12:11:19.000Z</Time>
            <Position>
              <LatitudeDegrees>40.776825360953807830810546875</LatitudeDegrees>
              <LongitudeDegrees>-4.005003087222576141357421875</LongitudeDegrees>
            </Position>
            <AltitudeMeters>1691.4000244140625</AltitudeMeters>
            <DistanceMeters>NAN</DistanceMeters>
          </Trackpoint>
          <Trackpoint>
            <Time>2019-08-01T12:11:20.000Z</Time>
            <Position>
              <LatitudeDegrees>40.776825360953807830810546875</LatitudeDegrees>
              <LongitudeDegrees>-4.005003087222576141357421875</LongitudeDegrees>
            </Position>
            <AltitudeMeters>1691.5999755859375</AltitudeMeters>
            <DistanceMeters>NAN</DistanceMeters>
          </Trackpoint>
          <Trackpoint>
            <Time>2019-08-01T12:11:21.000Z</Time>
            <Position>
              <LatitudeDegrees>40.77687866985797882080078125</LatitudeDegrees>
              <LongitudeDegrees>-4.004973582923412322998046875</LongitudeDegrees>
            </Position>
            <AltitudeMeters>1691.800048828125</AltitudeMeters>
            <DistanceMeters>NAN</DistanceMeters>
          </Trackpoint>
          <Trackpoint>
            <Time>2019-08-01T12:11:22.000Z</Time>
            <Position>
              <LatitudeDegrees>40.77690490521490573883056640625</LatitudeDegrees>
              <LongitudeDegrees>-4.0049586631357669830322265625</LongitudeDegrees>
            </Position>
            <AltitudeMeters>1692</AltitudeMeters>
            <DistanceMeters>NAN</DistanceMeters>
          </Trackpoint>
          <Trackpoint>
            <Time>2019-08-01T12:11:23.000Z</Time>
            <Position>
              <LatitudeDegrees>40.776930637657642364501953125</LatitudeDegrees>
              <LongitudeDegrees>-4.004945419728755950927734375</LongitudeDegrees>
            </Position>
            <AltitudeMeters>1692.199951171875</AltitudeMeters>
            <DistanceMeters>NAN</DistanceMeters>
          </Trackpoint>
          <Trackpoint>
            <Time>2019-08-01T12:11:24.000Z</Time>
            <Position>
              <LatitudeDegrees>40.77695771120488643646240234375</LatitudeDegrees>
              <LongitudeDegrees>-4.00493091903626918792724609375</LongitudeDegrees>
            </Position>
            <AltitudeMeters>1692.199951171875</AltitudeMeters>
            <DistanceMeters>NAN</DistanceMeters>
          </Trackpoint>
          <Trackpoint>
            <Time>2019-08-01T12:11:25.000Z</Time>
            <Position>
              <LatitudeDegrees>40.7769841141998767852783203125</LatitudeDegrees>
              <LongitudeDegrees>-4.00491683743894100189208984375</LongitudeDegrees>
            </Position>
            <AltitudeMeters>1692.5999755859375</AltitudeMeters>
            <DistanceMeters>NAN</DistanceMeters>
          </Trackpoint>
          <Trackpoint>
            <Time>2019-08-01T12:11:26.000Z</Time>
            <Position>
              <LatitudeDegrees>40.777011103928089141845703125</LatitudeDegrees>
              <LongitudeDegrees>-4.00490828789770603179931640625</LongitudeDegrees>
            </Position>
            <AltitudeMeters>1692.800048828125</AltitudeMeters>
            <DistanceMeters>NAN</DistanceMeters>
          </Trackpoint>
          <Trackpoint>
            <Time>2019-08-01T12:11:27.000Z</Time>
            <Position>
              <LatitudeDegrees>40.777037926018238067626953125</LatitudeDegrees>
              <LongitudeDegrees>-4.00489822961390018463134765625</LongitudeDegrees>
            </Position>
            <AltitudeMeters>1692.800048828125</AltitudeMeters>
            <DistanceMeters>NAN</DistanceMeters>
          </Trackpoint>
          <Trackpoint>
            <Time>2019-08-01T12:11:28.000Z</Time>
            <Position>
              <LatitudeDegrees>40.77706667594611644744873046875</LatitudeDegrees>
              <LongitudeDegrees>-4.0048854053020477294921875</LongitudeDegrees>
            </Position>
            <AltitudeMeters>1693</AltitudeMeters>
            <DistanceMeters>NAN</DistanceMeters>
          </Trackpoint>
          <Trackpoint>
            <Time>2019-08-01T12:11:29.000Z</Time>
            <Position>
              <LatitudeDegrees>40.777094922959804534912109375</LatitudeDegrees>
              <LongitudeDegrees>-4.004870988428592681884765625</LongitudeDegrees>
            </Position>
            <AltitudeMeters>1693.4000244140625</AltitudeMeters>
            <DistanceMeters>NAN</DistanceMeters>
          </Trackpoint>
          <Trackpoint>
            <Time>2019-08-01T12:11:30.000Z</Time>
            <Position>
              <LatitudeDegrees>40.777124427258968353271484375</LatitudeDegrees>
              <LongitudeDegrees>-4.0048570744693279266357421875</LongitudeDegrees>
            </Position>
            <AltitudeMeters>1693.5999755859375</AltitudeMeters>
            <DistanceMeters>NAN</DistanceMeters>
          </Trackpoint>
          <Trackpoint>
            <Time>2019-08-01T12:11:31.000Z</Time>
            <Position>
              <LatitudeDegrees>40.77715384773910045623779296875</LatitudeDegrees>
              <LongitudeDegrees>-4.00484475307166576385498046875</LongitudeDegrees>
            </Position>
            <AltitudeMeters>1693.800048828125</AltitudeMeters>
            <DistanceMeters>NAN</DistanceMeters>
          </Trackpoint>
          <Trackpoint>
            <Time>2019-08-01T12:11:32.000Z</Time>
            <Position>
              <LatitudeDegrees>40.77718201093375682830810546875</LatitudeDegrees>
              <LongitudeDegrees>-4.00483301840722560882568359375</LongitudeDegrees>
            </Position>
            <AltitudeMeters>1694</AltitudeMeters>
            <DistanceMeters>NAN</DistanceMeters>
          </Trackpoint>
          <Trackpoint>
            <Time>2019-08-01T12:11:33.000Z</Time>
            <Position>
              <LatitudeDegrees>40.77721034176647663116455078125</LatitudeDegrees>
              <LongitudeDegrees>-4.00482262484729290008544921875</LongitudeDegrees>
            </Position>
            <AltitudeMeters>1694.4000244140625</AltitudeMeters>
            <DistanceMeters>NAN</DistanceMeters>
          </Trackpoint>
          <Trackpoint>
            <Time>2019-08-01T12:11:34.000Z</Time>
            <Position>
              <LatitudeDegrees>40.77723884023725986480712890625</LatitudeDegrees>
              <LongitudeDegrees>-4.0048118121922016143798828125</LongitudeDegrees>
            </Position>
            <AltitudeMeters>1695</AltitudeMeters>
            <DistanceMeters>NAN</DistanceMeters>
          </Trackpoint>
          <Trackpoint>
            <Time>2019-08-01T12:11:35.000Z</Time>
            <Position>
              <LatitudeDegrees>40.77726817689836025238037109375</LatitudeDegrees>
              <LongitudeDegrees>-4.0048024244606494903564453125</LongitudeDegrees>
            </Position>
            <AltitudeMeters>1695.199951171875</AltitudeMeters>
            <DistanceMeters>NAN</DistanceMeters>
          </Trackpoint>
          <Trackpoint>
            <Time>2019-08-01T12:11:36.000Z</Time>
            <Position>
              <LatitudeDegrees>40.7772979326546192169189453125</LatitudeDegrees>
              <LongitudeDegrees>-4.00479127652943134307861328125</LongitudeDegrees>
            </Position>
            <AltitudeMeters>1695.5999755859375</AltitudeMeters>
            <DistanceMeters>NAN</DistanceMeters>
          </Trackpoint>
          <Trackpoint>
            <Time>2019-08-01T12:11:37.000Z</Time>
            <Position>
              <LatitudeDegrees>40.7773284427821636199951171875</LatitudeDegrees>
              <LongitudeDegrees>-4.0047796256840229034423828125</LongitudeDegrees>
            </Position>
            <AltitudeMeters>1695.800048828125</AltitudeMeters>
            <DistanceMeters>NAN</DistanceMeters>
          </Trackpoint>
          <Trackpoint>
            <Time>2019-08-01T12:11:38.000Z</Time>
            <Position>
              <LatitudeDegrees>40.77735836617648601531982421875</LatitudeDegrees>
              <LongitudeDegrees>-4.0047675557434558868408203125</LongitudeDegrees>
            </Position>
            <AltitudeMeters>1696.199951171875</AltitudeMeters>
            <DistanceMeters>NAN</DistanceMeters>
          </Trackpoint>
          <Trackpoint>
            <Time>2019-08-01T12:11:39.000Z</Time>
            <Position>
              <LatitudeDegrees>40.77738787047564983367919921875</LatitudeDegrees>
              <LongitudeDegrees>-4.00475841946899890899658203125</LongitudeDegrees>
            </Position>
            <AltitudeMeters>1696.4000244140625</AltitudeMeters>
            <DistanceMeters>NAN</DistanceMeters>
          </Trackpoint>
          <Trackpoint>
            <Time>2019-08-01T12:11:40.000Z</Time>
            <Position>
              <LatitudeDegrees>40.77741670422255992889404296875</LatitudeDegrees>
              <LongitudeDegrees>-4.0047507919371128082275390625</LongitudeDegrees>
            </Position>
            <AltitudeMeters>1696.5999755859375</AltitudeMeters>
            <DistanceMeters>NAN</DistanceMeters>
          </Trackpoint>
          <Trackpoint>
            <Time>2019-08-01T12:11:41.000Z</Time>
            <Position>
              <LatitudeDegrees>40.77744419686496257781982421875</LatitudeDegrees>
              <LongitudeDegrees>-4.0047424100339412689208984375</LongitudeDegrees>
            </Position>
            <AltitudeMeters>1696.800048828125</AltitudeMeters>
            <DistanceMeters>NAN</DistanceMeters>
          </Trackpoint>
          <Trackpoint>
            <Time>2019-08-01T12:11:42.000Z</Time>
            <Position>
              <LatitudeDegrees>40.777472443878650665283203125</LatitudeDegrees>
              <LongitudeDegrees>-4.00473176501691341400146484375</LongitudeDegrees>
            </Position>
            <AltitudeMeters>1697</AltitudeMeters>
            <DistanceMeters>NAN</DistanceMeters>
          </Trackpoint>
          <Trackpoint>
            <Time>2019-08-01T12:11:43.000Z</Time>
            <Position>
              <LatitudeDegrees>40.7775021158158779144287109375</LatitudeDegrees>
              <LongitudeDegrees>-4.004722125828266143798828125</LongitudeDegrees>
            </Position>
            <AltitudeMeters>1697.4000244140625</AltitudeMeters>
            <DistanceMeters>NAN</DistanceMeters>
          </Trackpoint>
          <Trackpoint>
            <Time>2019-08-01T12:11:44.000Z</Time>
            <Position>
              <LatitudeDegrees>40.7775311172008514404296875</LatitudeDegrees>
              <LongitudeDegrees>-4.0047137439250946044921875</LongitudeDegrees>
            </Position>
            <AltitudeMeters>1697.5999755859375</AltitudeMeters>
            <DistanceMeters>NAN</DistanceMeters>
          </Trackpoint>
          <Trackpoint>
            <Time>2019-08-01T12:11:45.000Z</Time>
            <Position>
              <LatitudeDegrees>40.7775594480335712432861328125</LatitudeDegrees>
              <LongitudeDegrees>-4.00470293127000331878662109375</LongitudeDegrees>
            </Position>
            <AltitudeMeters>1697.800048828125</AltitudeMeters>
            <DistanceMeters>NAN</DistanceMeters>
          </Trackpoint>
          <Trackpoint>
            <Time>2019-08-01T12:11:46.000Z</Time>
            <Position>
              <LatitudeDegrees>40.777587778866291046142578125</LatitudeDegrees>
              <LongitudeDegrees>-4.00469237007200717926025390625</LongitudeDegrees>
            </Position>
            <AltitudeMeters>1698</AltitudeMeters>
            <DistanceMeters>NAN</DistanceMeters>
          </Trackpoint>
          <Trackpoint>
            <Time>2019-08-01T12:11:47.000Z</Time>
            <Position>
              <LatitudeDegrees>40.777615942060947418212890625</LatitudeDegrees>
              <LongitudeDegrees>-4.00468482635915279388427734375</LongitudeDegrees>
            </Position>
            <AltitudeMeters>1698</AltitudeMeters>
            <DistanceMeters>NAN</DistanceMeters>
          </Trackpoint>
          <Trackpoint>
            <Time>2019-08-01T12:11:48.000Z</Time>
            <Position>
              <LatitudeDegrees>40.77764578163623809814453125</LatitudeDegrees>
              <LongitudeDegrees>-4.004674851894378662109375</LongitudeDegrees>
            </Position>
            <AltitudeMeters>1698.4000244140625</AltitudeMeters>
            <DistanceMeters>NAN</DistanceMeters>
          </Trackpoint>
          <Trackpoint>
            <Time>2019-08-01T12:11:49.000Z</Time>
            <Position>
              <LatitudeDegrees>40.77767620794475078582763671875</LatitudeDegrees>
              <LongitudeDegrees>-4.00466538034379482269287109375</LongitudeDegrees>
            </Position>
            <AltitudeMeters>1698.5999755859375</AltitudeMeters>
            <DistanceMeters>NAN</DistanceMeters>
          </Trackpoint>
          <Trackpoint>
            <Time>2019-08-01T12:11:50.000Z</Time>
            <Position>
              <LatitudeDegrees>40.777706466615200042724609375</LatitudeDegrees>
              <LongitudeDegrees>-4.0046575851738452911376953125</LongitudeDegrees>
            </Position>
            <AltitudeMeters>1699</AltitudeMeters>
            <DistanceMeters>NAN</DistanceMeters>
          </Trackpoint>
          <Trackpoint>
            <Time>2019-08-01T12:11:51.000Z</Time>
            <Position>
              <LatitudeDegrees>40.77773555181920528411865234375</LatitudeDegrees>
              <LongitudeDegrees>-4.00464828126132488250732421875</LongitudeDegrees>
            </Position>
            <AltitudeMeters>1699.199951171875</AltitudeMeters>
            <DistanceMeters>NAN</DistanceMeters>
          </Trackpoint>
          <Trackpoint>
            <Time>2019-08-01T12:11:52.000Z</Time>
            <Position>
              <LatitudeDegrees>40.77776455320417881011962890625</LatitudeDegrees>
              <LongitudeDegrees>-4.0046386420726776123046875</LongitudeDegrees>
            </Position>
            <AltitudeMeters>1699.5999755859375</AltitudeMeters>
            <DistanceMeters>NAN</DistanceMeters>
          </Trackpoint>
          <Trackpoint>
            <Time>2019-08-01T12:11:53.000Z</Time>
            <Position>
              <LatitudeDegrees>40.77776455320417881011962890625</LatitudeDegrees>
              <LongitudeDegrees>-4.0046386420726776123046875</LongitudeDegrees>
            </Position>
            <AltitudeMeters>1700</AltitudeMeters>
            <DistanceMeters>NAN</DistanceMeters>
          </Trackpoint>
          <Trackpoint>
            <Time>2019-08-01T12:11:54.000Z</Time>
            <Position>
              <LatitudeDegrees>40.77782238833606243133544921875</LatitudeDegrees>
              <LongitudeDegrees>-4.00462397374212741851806640625</LongitudeDegrees>
            </Position>
            <AltitudeMeters>1700.199951171875</AltitudeMeters>
            <DistanceMeters>NAN</DistanceMeters>
          </Trackpoint>
          <Trackpoint>
            <Time>2019-08-01T12:11:55.000Z</Time>
            <Position>
              <LatitudeDegrees>40.7778528146445751190185546875</LatitudeDegrees>
              <LongitudeDegrees>-4.0046156756579875946044921875</LongitudeDegrees>
            </Position>
            <AltitudeMeters>1700.199951171875</AltitudeMeters>
            <DistanceMeters>NAN</DistanceMeters>
          </Trackpoint>
          <Trackpoint>
            <Time>2019-08-01T12:11:56.000Z</Time>
            <Position>
              <LatitudeDegrees>40.7778824865818023681640625</LatitudeDegrees>
              <LongitudeDegrees>-4.0046093054115772247314453125</LongitudeDegrees>
            </Position>
            <AltitudeMeters>1700.4000244140625</AltitudeMeters>
            <DistanceMeters>NAN</DistanceMeters>
          </Trackpoint>
          <Trackpoint>
            <Time>2019-08-01T12:11:57.000Z</Time>
            <Position>
              <LatitudeDegrees>40.7779128290712833404541015625</LatitudeDegrees>
              <LongitudeDegrees>-4.00460218079388141632080078125</LongitudeDegrees>
            </Position>
            <AltitudeMeters>1700.5999755859375</AltitudeMeters>
            <DistanceMeters>NAN</DistanceMeters>
          </Trackpoint>
          <Trackpoint>
            <Time>2019-08-01T12:11:58.000Z</Time>
            <Position>
              <LatitudeDegrees>40.777942836284637451171875</LatitudeDegrees>
              <LongitudeDegrees>-4.00459430180490016937255859375</LongitudeDegrees>
            </Position>
            <AltitudeMeters>1700.800048828125</AltitudeMeters>
            <DistanceMeters>NAN</DistanceMeters>
          </Trackpoint>
          <Trackpoint>
            <Time>2019-08-01T12:11:59.000Z</Time>
            <Position>
              <LatitudeDegrees>40.77797141857445240020751953125</LatitudeDegrees>
              <LongitudeDegrees>-4.0045871771872043609619140625</LongitudeDegrees>
            </Position>
            <AltitudeMeters>1701</AltitudeMeters>
            <DistanceMeters>NAN</DistanceMeters>
          </Trackpoint>
          <Trackpoint>
            <Time>2019-08-01T12:12:00.000Z</Time>
            <Position>
              <LatitudeDegrees>40.778000839054584503173828125</LatitudeDegrees>
              <LongitudeDegrees>-4.00457820855081081390380859375</LongitudeDegrees>
            </Position>
            <AltitudeMeters>1701.4000244140625</AltitudeMeters>
            <DistanceMeters>NAN</DistanceMeters>
          </Trackpoint>
          <Trackpoint>
            <Time>2019-08-01T12:12:01.000Z</Time>
            <Position>
              <LatitudeDegrees>40.7780305109918117523193359375</LatitudeDegrees>
              <LongitudeDegrees>-4.00457049719989299774169921875</LongitudeDegrees>
            </Position>
            <AltitudeMeters>1701.5999755859375</AltitudeMeters>
            <DistanceMeters>NAN</DistanceMeters>
          </Trackpoint>
          <Trackpoint>
            <Time>2019-08-01T12:12:02.000Z</Time>
            <Position>
              <LatitudeDegrees>40.778060518205165863037109375</LatitudeDegrees>
              <LongitudeDegrees>-4.00456245057284832000732421875</LongitudeDegrees>
            </Position>
            <AltitudeMeters>1701.800048828125</AltitudeMeters>
            <DistanceMeters>NAN</DistanceMeters>
          </Trackpoint>
          <Trackpoint>
            <Time>2019-08-01T12:12:03.000Z</Time>
            <Position>
              <LatitudeDegrees>40.77809060923755168914794921875</LatitudeDegrees>
              <LongitudeDegrees>-4.00455348193645477294921875</LongitudeDegrees>
            </Position>
            <AltitudeMeters>1702</AltitudeMeters>
            <DistanceMeters>NAN</DistanceMeters>
          </Trackpoint>
          <Trackpoint>
            <Time>2019-08-01T12:12:04.000Z</Time>
            <Position>
              <LatitudeDegrees>40.77812053263187408447265625</LatitudeDegrees>
              <LongitudeDegrees>-4.00454568676650524139404296875</LongitudeDegrees>
            </Position>
            <AltitudeMeters>1702</AltitudeMeters>
            <DistanceMeters>NAN</DistanceMeters>
          </Trackpoint>
          <Trackpoint>
            <Time>2019-08-01T12:12:05.000Z</Time>
            <Position>
              <LatitudeDegrees>40.7781498692929744720458984375</LatitudeDegrees>
              <LongitudeDegrees>-4.0045362152159214019775390625</LongitudeDegrees>
            </Position>
            <AltitudeMeters>1702.199951171875</AltitudeMeters>
            <DistanceMeters>NAN</DistanceMeters>
          </Trackpoint>
          <Trackpoint>
            <Time>2019-08-01T12:12:06.000Z</Time>
            <Position>
              <LatitudeDegrees>40.778177864849567413330078125</LatitudeDegrees>
              <LongitudeDegrees>-4.00452707894146442413330078125</LongitudeDegrees>
            </Position>
            <AltitudeMeters>1702</AltitudeMeters>
            <DistanceMeters>NAN</DistanceMeters>
          </Trackpoint>
          <Trackpoint>
            <Time>2019-08-01T12:12:07.000Z</Time>
            <Position>
              <LatitudeDegrees>40.778206698596477508544921875</LatitudeDegrees>
              <LongitudeDegrees>-4.0045167692005634307861328125</LongitudeDegrees>
            </Position>
            <AltitudeMeters>1702.199951171875</AltitudeMeters>
            <DistanceMeters>NAN</DistanceMeters>
          </Trackpoint>
          <Trackpoint>
            <Time>2019-08-01T12:12:08.000Z</Time>
            <Position>
              <LatitudeDegrees>40.77823477797210216522216796875</LatitudeDegrees>
              <LongitudeDegrees>-4.0045058727264404296875</LongitudeDegrees>
            </Position>
            <AltitudeMeters>1702.4000244140625</AltitudeMeters>
            <DistanceMeters>NAN</DistanceMeters>
          </Trackpoint>
          <Trackpoint>
            <Time>2019-08-01T12:12:09.000Z</Time>
            <Position>
              <LatitudeDegrees>40.77826268970966339111328125</LatitudeDegrees>
              <LongitudeDegrees>-4.00449355132877826690673828125</LongitudeDegrees>
            </Position>
            <AltitudeMeters>1702.5999755859375</AltitudeMeters>
            <DistanceMeters>NAN</DistanceMeters>
          </Trackpoint>
          <Trackpoint>
            <Time>2019-08-01T12:12:10.000Z</Time>
            <Position>
              <LatitudeDegrees>40.77829060144722461700439453125</LatitudeDegrees>
              <LongitudeDegrees>-4.0044829063117504119873046875</LongitudeDegrees>
            </Position>
            <AltitudeMeters>1702.800048828125</AltitudeMeters>
            <DistanceMeters>NAN</DistanceMeters>
          </Trackpoint>
          <Trackpoint>
            <Time>2019-08-01T12:12:11.000Z</Time>
            <Position>
              <LatitudeDegrees>40.77831926755607128143310546875</LatitudeDegrees>
              <LongitudeDegrees>-4.00447092019021511077880859375</LongitudeDegrees>
            </Position>
            <AltitudeMeters>1703.199951171875</AltitudeMeters>
            <DistanceMeters>NAN</DistanceMeters>
          </Trackpoint>
          <Trackpoint>
            <Time>2019-08-01T12:12:12.000Z</Time>
            <Position>
              <LatitudeDegrees>40.7783491909503936767578125</LatitudeDegrees>
              <LongitudeDegrees>-4.00445784442126750946044921875</LongitudeDegrees>
            </Position>
            <AltitudeMeters>1703.5999755859375</AltitudeMeters>
            <DistanceMeters>NAN</DistanceMeters>
          </Trackpoint>
          <Trackpoint>
            <Time>2019-08-01T12:12:13.000Z</Time>
            <Position>
              <LatitudeDegrees>40.778379030525684356689453125</LatitudeDegrees>
              <LongitudeDegrees>-4.00444485247135162353515625</LongitudeDegrees>
            </Position>
            <AltitudeMeters>1703.800048828125</AltitudeMeters>
            <DistanceMeters>NAN</DistanceMeters>
          </Trackpoint>
          <Trackpoint>
            <Time>2019-08-01T12:12:14.000Z</Time>
            <Position>
              <LatitudeDegrees>40.778379030525684356689453125</LatitudeDegrees>
              <LongitudeDegrees>-4.00444485247135162353515625</LongitudeDegrees>
            </Position>
            <AltitudeMeters>1704</AltitudeMeters>
            <DistanceMeters>NAN</DistanceMeters>
          </Trackpoint>
          <Trackpoint>
            <Time>2019-08-01T12:12:15.000Z</Time>
            <Position>
              <LatitudeDegrees>40.77843795530498027801513671875</LatitudeDegrees>
              <LongitudeDegrees>-4.004417695105075836181640625</LongitudeDegrees>
            </Position>
            <AltitudeMeters>1704.199951171875</AltitudeMeters>
            <DistanceMeters>NAN</DistanceMeters>
          </Trackpoint>
          <Trackpoint>
            <Time>2019-08-01T12:12:16.000Z</Time>
            <Position>
              <LatitudeDegrees>40.7784660346806049346923828125</LatitudeDegrees>
              <LongitudeDegrees>-4.00440420024096965789794921875</LongitudeDegrees>
            </Position>
            <AltitudeMeters>1704.4000244140625</AltitudeMeters>
            <DistanceMeters>NAN</DistanceMeters>
          </Trackpoint>
          <Trackpoint>
            <Time>2019-08-01T12:12:17.000Z</Time>
            <Position>
              <LatitudeDegrees>40.7784921862185001373291015625</LatitudeDegrees>
              <LongitudeDegrees>-4.004390873014926910400390625</LongitudeDegrees>
            </Position>
            <AltitudeMeters>1704.4000244140625</AltitudeMeters>
            <DistanceMeters>NAN</DistanceMeters>
          </Trackpoint>
          <Trackpoint>
            <Time>2019-08-01T12:12:18.000Z</Time>
            <Position>
              <LatitudeDegrees>40.7785208523273468017578125</LatitudeDegrees>
              <LongitudeDegrees>-4.0043776296079158782958984375</LongitudeDegrees>
            </Position>
            <AltitudeMeters>1704.800048828125</AltitudeMeters>
            <DistanceMeters>NAN</DistanceMeters>
          </Trackpoint>
          <Trackpoint>
            <Time>2019-08-01T12:12:19.000Z</Time>
            <Position>
              <LatitudeDegrees>40.7785208523273468017578125</LatitudeDegrees>
              <LongitudeDegrees>-4.0043776296079158782958984375</LongitudeDegrees>
            </Position>
            <AltitudeMeters>1705</AltitudeMeters>
            <DistanceMeters>NAN</DistanceMeters>
          </Trackpoint>
          <Trackpoint>
            <Time>2019-08-01T12:12:20.000Z</Time>
            <Position>
              <LatitudeDegrees>40.7785208523273468017578125</LatitudeDegrees>
              <LongitudeDegrees>-4.0043776296079158782958984375</LongitudeDegrees>
            </Position>
            <AltitudeMeters>1705.199951171875</AltitudeMeters>
            <DistanceMeters>NAN</DistanceMeters>
          </Trackpoint>
          <Trackpoint>
            <Time>2019-08-01T12:12:21.000Z</Time>
            <Position>
              <LatitudeDegrees>40.77860735356807708740234375</LatitudeDegrees>
              <LongitudeDegrees>-4.00433488190174102783203125</LongitudeDegrees>
            </Position>
            <AltitudeMeters>1705.4000244140625</AltitudeMeters>
            <DistanceMeters>NAN</DistanceMeters>
          </Trackpoint>
          <Trackpoint>
            <Time>2019-08-01T12:12:22.000Z</Time>
            <Position>
              <LatitudeDegrees>40.77863643877208232879638671875</LatitudeDegrees>
              <LongitudeDegrees>-4.00431904010474681854248046875</LongitudeDegrees>
            </Position>
            <AltitudeMeters>1705.5999755859375</AltitudeMeters>
            <DistanceMeters>NAN</DistanceMeters>
          </Trackpoint>
          <Trackpoint>
            <Time>2019-08-01T12:12:23.000Z</Time>
            <Position>
              <LatitudeDegrees>40.77866510488092899322509765625</LatitudeDegrees>
              <LongitudeDegrees>-4.00430344976484775543212890625</LongitudeDegrees>
            </Position>
            <AltitudeMeters>1706</AltitudeMeters>
            <DistanceMeters>NAN</DistanceMeters>
          </Trackpoint>
          <Trackpoint>
            <Time>2019-08-01T12:12:24.000Z</Time>
            <Position>
              <LatitudeDegrees>40.7786933518946170806884765625</LatitudeDegrees>
              <LongitudeDegrees>-4.0042887814342975616455078125</LongitudeDegrees>
            </Position>
            <AltitudeMeters>1706.199951171875</AltitudeMeters>
            <DistanceMeters>NAN</DistanceMeters>
          </Trackpoint>
          <Trackpoint>
            <Time>2019-08-01T12:12:25.000Z</Time>
            <Position>
              <LatitudeDegrees>40.778721012175083160400390625</LatitudeDegrees>
              <LongitudeDegrees>-4.004272855818271636962890625</LongitudeDegrees>
            </Position>
            <AltitudeMeters>1706.5999755859375</AltitudeMeters>
            <DistanceMeters>NAN</DistanceMeters>
          </Trackpoint>
          <Trackpoint>
            <Time>2019-08-01T12:12:26.000Z</Time>
            <Position>
              <LatitudeDegrees>40.77874791808426380157470703125</LatitudeDegrees>
              <LongitudeDegrees>-4.00425600819289684295654296875</LongitudeDegrees>
            </Position>
            <AltitudeMeters>1706.800048828125</AltitudeMeters>
            <DistanceMeters>NAN</DistanceMeters>
          </Trackpoint>
          <Trackpoint>
            <Time>2019-08-01T12:12:27.000Z</Time>
            <Position>
              <LatitudeDegrees>40.778774321079254150390625</LatitudeDegrees>
              <LongitudeDegrees>-4.004238657653331756591796875</LongitudeDegrees>
            </Position>
            <AltitudeMeters>1706.800048828125</AltitudeMeters>
            <DistanceMeters>NAN</DistanceMeters>
          </Trackpoint>
          <Trackpoint>
            <Time>2019-08-01T12:12:28.000Z</Time>
            <Position>
              <LatitudeDegrees>40.77880038879811763763427734375</LatitudeDegrees>
              <LongitudeDegrees>-4.004222564399242401123046875</LongitudeDegrees>
            </Position>
            <AltitudeMeters>1707.199951171875</AltitudeMeters>
            <DistanceMeters>NAN</DistanceMeters>
          </Trackpoint>
          <Trackpoint>
            <Time>2019-08-01T12:12:29.000Z</Time>
            <Position>
              <LatitudeDegrees>40.77882620505988597869873046875</LatitudeDegrees>
              <LongitudeDegrees>-4.00420521385967731475830078125</LongitudeDegrees>
            </Position>
            <AltitudeMeters>1707.4000244140625</AltitudeMeters>
            <DistanceMeters>NAN</DistanceMeters>
          </Trackpoint>
          <Trackpoint>
            <Time>2019-08-01T12:12:30.000Z</Time>
            <Position>
              <LatitudeDegrees>40.7788516022264957427978515625</LatitudeDegrees>
              <LongitudeDegrees>-4.00418794713914394378662109375</LongitudeDegrees>
            </Position>
            <AltitudeMeters>1707.5999755859375</AltitudeMeters>
            <DistanceMeters>NAN</DistanceMeters>
          </Trackpoint>
          <Trackpoint>
            <Time>2019-08-01T12:12:31.000Z</Time>
            <Position>
              <LatitudeDegrees>40.7788744010031223297119140625</LatitudeDegrees>
              <LongitudeDegrees>-4.00417126715183258056640625</LongitudeDegrees>
            </Position>
            <AltitudeMeters>1708</AltitudeMeters>
            <DistanceMeters>NAN</DistanceMeters>
          </Trackpoint>
          <Trackpoint>
            <Time>2019-08-01T12:12:32.000Z</Time>
            <Position>
              <LatitudeDegrees>40.77889569103717803955078125</LatitudeDegrees>
              <LongitudeDegrees>-4.0041531622409820556640625</LongitudeDegrees>
            </Position>
            <AltitudeMeters>1708</AltitudeMeters>
            <DistanceMeters>NAN</DistanceMeters>
          </Trackpoint>
          <Trackpoint>
            <Time>2019-08-01T12:12:33.000Z</Time>
            <Position>
              <LatitudeDegrees>40.77891890890896320343017578125</LatitudeDegrees>
              <LongitudeDegrees>-4.0041348896920680999755859375</LongitudeDegrees>
            </Position>
            <AltitudeMeters>1708.4000244140625</AltitudeMeters>
            <DistanceMeters>NAN</DistanceMeters>
          </Trackpoint>
          <Trackpoint>
            <Time>2019-08-01T12:12:34.000Z</Time>
            <Position>
              <LatitudeDegrees>40.77894371934235095977783203125</LatitudeDegrees>
              <LongitudeDegrees>-4.00411552749574184417724609375</LongitudeDegrees>
            </Position>
            <AltitudeMeters>1708.800048828125</AltitudeMeters>
            <DistanceMeters>NAN</DistanceMeters>
          </Trackpoint>
          <Trackpoint>
            <Time>2019-08-01T12:12:35.000Z</Time>
            <Position>
              <LatitudeDegrees>40.77896953560411930084228515625</LatitudeDegrees>
              <LongitudeDegrees>-4.004096500575542449951171875</LongitudeDegrees>
            </Position>
            <AltitudeMeters>1709</AltitudeMeters>
            <DistanceMeters>NAN</DistanceMeters>
          </Trackpoint>
          <Trackpoint>
            <Time>2019-08-01T12:12:36.000Z</Time>
            <Position>
              <LatitudeDegrees>40.77899518422782421112060546875</LatitudeDegrees>
              <LongitudeDegrees>-4.00407613255083560943603515625</LongitudeDegrees>
            </Position>
            <AltitudeMeters>1709.199951171875</AltitudeMeters>
            <DistanceMeters>NAN</DistanceMeters>
          </Trackpoint>
          <Trackpoint>
            <Time>2019-08-01T12:12:37.000Z</Time>
            <Position>
              <LatitudeDegrees>40.77901965938508510589599609375</LatitudeDegrees>
              <LongitudeDegrees>-4.00405459105968475341796875</LongitudeDegrees>
            </Position>
            <AltitudeMeters>1709.4000244140625</AltitudeMeters>
            <DistanceMeters>NAN</DistanceMeters>
          </Trackpoint>
          <Trackpoint>
            <Time>2019-08-01T12:12:38.000Z</Time>
            <Position>
              <LatitudeDegrees>40.779044218361377716064453125</LatitudeDegrees>
              <LongitudeDegrees>-4.0040333010256290435791015625</LongitudeDegrees>
            </Position>
            <AltitudeMeters>1709.5999755859375</AltitudeMeters>
            <DistanceMeters>NAN</DistanceMeters>
          </Trackpoint>
          <Trackpoint>
            <Time>2019-08-01T12:12:39.000Z</Time>
            <Position>
              <LatitudeDegrees>40.77907028608024120330810546875</LatitudeDegrees>
              <LongitudeDegrees>-4.004009999334812164306640625</LongitudeDegrees>
            </Position>
            <AltitudeMeters>1709.5999755859375</AltitudeMeters>
            <DistanceMeters>NAN</DistanceMeters>
          </Trackpoint>
          <Trackpoint>
            <Time>2019-08-01T12:12:40.000Z</Time>
            <Position>
              <LatitudeDegrees>40.77909526415169239044189453125</LatitudeDegrees>
              <LongitudeDegrees>-4.00398577563464641571044921875</LongitudeDegrees>
            </Position>
            <AltitudeMeters>1710</AltitudeMeters>
            <DistanceMeters>NAN</DistanceMeters>
          </Trackpoint>
          <Trackpoint>
            <Time>2019-08-01T12:12:41.000Z</Time>
            <Position>
              <LatitudeDegrees>40.77912007458508014678955078125</LatitudeDegrees>
              <LongitudeDegrees>-4.0039605461061000823974609375</LongitudeDegrees>
            </Position>
            <AltitudeMeters>1710.4000244140625</AltitudeMeters>
            <DistanceMeters>NAN</DistanceMeters>
          </Trackpoint>
          <Trackpoint>
            <Time>2019-08-01T12:12:42.000Z</Time>
            <Position>
              <LatitudeDegrees>40.779144465923309326171875</LatitudeDegrees>
              <LongitudeDegrees>-4.00393531657755374908447265625</LongitudeDegrees>
            </Position>
            <AltitudeMeters>1710.5999755859375</AltitudeMeters>
            <DistanceMeters>NAN</DistanceMeters>
          </Trackpoint>
          <Trackpoint>
            <Time>2019-08-01T12:12:43.000Z</Time>
            <Position>
              <LatitudeDegrees>40.77916852198541164398193359375</LatitudeDegrees>
              <LongitudeDegrees>-4.00391000322997570037841796875</LongitudeDegrees>
            </Position>
            <AltitudeMeters>1710.5999755859375</AltitudeMeters>
            <DistanceMeters>NAN</DistanceMeters>
          </Trackpoint>
          <Trackpoint>
            <Time>2019-08-01T12:12:44.000Z</Time>
            <Position>
              <LatitudeDegrees>40.7791905663907527923583984375</LatitudeDegrees>
              <LongitudeDegrees>-4.0038827620446681976318359375</LongitudeDegrees>
            </Position>
            <AltitudeMeters>1710.800048828125</AltitudeMeters>
            <DistanceMeters>NAN</DistanceMeters>
          </Trackpoint>
          <Trackpoint>
            <Time>2019-08-01T12:12:45.000Z</Time>
            <Position>
              <LatitudeDegrees>40.77921277843415737152099609375</LatitudeDegrees>
              <LongitudeDegrees>-4.00385485030710697174072265625</LongitudeDegrees>
            </Position>
            <AltitudeMeters>1711.199951171875</AltitudeMeters>
            <DistanceMeters>NAN</DistanceMeters>
          </Trackpoint>
          <Trackpoint>
            <Time>2019-08-01T12:12:46.000Z</Time>
            <Position>
              <LatitudeDegrees>40.7792351581156253814697265625</LatitudeDegrees>
              <LongitudeDegrees>-4.00382869876921176910400390625</LongitudeDegrees>
            </Position>
            <AltitudeMeters>1711.4000244140625</AltitudeMeters>
            <DistanceMeters>NAN</DistanceMeters>
          </Trackpoint>
          <Trackpoint>
            <Time>2019-08-01T12:12:47.000Z</Time>
            <Position>
              <LatitudeDegrees>40.77925778925418853759765625</LatitudeDegrees>
              <LongitudeDegrees>-4.00380204431712627410888671875</LongitudeDegrees>
            </Position>
            <AltitudeMeters>1711.4000244140625</AltitudeMeters>
            <DistanceMeters>NAN</DistanceMeters>
          </Trackpoint>
          <Trackpoint>
            <Time>2019-08-01T12:12:48.000Z</Time>
            <Position>
              <LatitudeDegrees>40.77927983365952968597412109375</LatitudeDegrees>
              <LongitudeDegrees>-4.00377538986504077911376953125</LongitudeDegrees>
            </Position>
            <AltitudeMeters>1712</AltitudeMeters>
            <DistanceMeters>NAN</DistanceMeters>
          </Trackpoint>
          <Trackpoint>
            <Time>2019-08-01T12:12:49.000Z</Time>
            <Position>
              <LatitudeDegrees>40.779301710426807403564453125</LatitudeDegrees>
              <LongitudeDegrees>-4.00374823249876499176025390625</LongitudeDegrees>
            </Position>
            <AltitudeMeters>1712.199951171875</AltitudeMeters>
            <DistanceMeters>NAN</DistanceMeters>
          </Trackpoint>
          <Trackpoint>
            <Time>2019-08-01T12:12:50.000Z</Time>
            <Position>
              <LatitudeDegrees>40.77932350337505340576171875</LatitudeDegrees>
              <LongitudeDegrees>-4.00372258387506008148193359375</LongitudeDegrees>
            </Position>
            <AltitudeMeters>1712.4000244140625</AltitudeMeters>
            <DistanceMeters>NAN</DistanceMeters>
          </Trackpoint>
          <Trackpoint>
            <Time>2019-08-01T12:12:51.000Z</Time>
            <Position>
              <LatitudeDegrees>40.77934361994266510009765625</LatitudeDegrees>
              <LongitudeDegrees>-4.0036966837942600250244140625</LongitudeDegrees>
            </Position>
            <AltitudeMeters>1712.199951171875</AltitudeMeters>
            <DistanceMeters>NAN</DistanceMeters>
          </Trackpoint>
          <Trackpoint>
            <Time>2019-08-01T12:12:52.000Z</Time>
            <Position>
              <LatitudeDegrees>40.7793630659580230712890625</LatitudeDegrees>
              <LongitudeDegrees>-4.00367095135152339935302734375</LongitudeDegrees>
            </Position>
            <AltitudeMeters>1712.5999755859375</AltitudeMeters>
            <DistanceMeters>NAN</DistanceMeters>
          </Trackpoint>
          <Trackpoint>
            <Time>2019-08-01T12:12:53.000Z</Time>
            <Position>
              <LatitudeDegrees>40.77938075177371501922607421875</LatitudeDegrees>
              <LongitudeDegrees>-4.00364764966070652008056640625</LongitudeDegrees>
            </Position>
            <AltitudeMeters>1712.800048828125</AltitudeMeters>
            <DistanceMeters>NAN</DistanceMeters>
          </Trackpoint>
          <Trackpoint>
            <Time>2019-08-01T12:12:54.000Z</Time>
            <Position>
              <LatitudeDegrees>40.77939768321812152862548828125</LatitudeDegrees>
              <LongitudeDegrees>-4.0036239288747310638427734375</LongitudeDegrees>
            </Position>
            <AltitudeMeters>1713</AltitudeMeters>
            <DistanceMeters>NAN</DistanceMeters>
          </Trackpoint>
          <Trackpoint>
            <Time>2019-08-01T12:12:55.000Z</Time>
            <Position>
              <LatitudeDegrees>40.77941603958606719970703125</LatitudeDegrees>
              <LongitudeDegrees>-4.00359903462231159210205078125</LongitudeDegrees>
            </Position>
            <AltitudeMeters>1713.199951171875</AltitudeMeters>
            <DistanceMeters>NAN</DistanceMeters>
          </Trackpoint>
          <Trackpoint>
            <Time>2019-08-01T12:12:56.000Z</Time>
            <Position>
              <LatitudeDegrees>40.7794329710304737091064453125</LatitudeDegrees>
              <LongitudeDegrees>-4.0035746432840824127197265625</LongitudeDegrees>
            </Position>
            <AltitudeMeters>1713.5999755859375</AltitudeMeters>
            <DistanceMeters>NAN</DistanceMeters>
          </Trackpoint>
          <Trackpoint>
            <Time>2019-08-01T12:12:57.000Z</Time>
            <Position>
              <LatitudeDegrees>40.779450237751007080078125</LatitudeDegrees>
              <LongitudeDegrees>-4.0035491622984409332275390625</LongitudeDegrees>
            </Position>
            <AltitudeMeters>1714</AltitudeMeters>
            <DistanceMeters>NAN</DistanceMeters>
          </Trackpoint>
          <Trackpoint>
            <Time>2019-08-01T12:12:58.000Z</Time>
            <Position>
              <LatitudeDegrees>40.77946708537638187408447265625</LatitudeDegrees>
              <LongitudeDegrees>-4.00352418422698974609375</LongitudeDegrees>
            </Position>
            <AltitudeMeters>1714.199951171875</AltitudeMeters>
            <DistanceMeters>NAN</DistanceMeters>
          </Trackpoint>
          <Trackpoint>
            <Time>2019-08-01T12:12:59.000Z</Time>
            <Position>
              <LatitudeDegrees>40.77947982586920261383056640625</LatitudeDegrees>
              <LongitudeDegrees>-4.0034973621368408203125</LongitudeDegrees>
            </Position>
            <AltitudeMeters>1714.5999755859375</AltitudeMeters>
            <DistanceMeters>NAN</DistanceMeters>
          </Trackpoint>
          <Trackpoint>
            <Time>2019-08-01T12:13:00.000Z</Time>
            <Position>
              <LatitudeDegrees>40.7794944941997528076171875</LatitudeDegrees>
              <LongitudeDegrees>-4.0034690313041210174560546875</LongitudeDegrees>
            </Position>
            <AltitudeMeters>1714.800048828125</AltitudeMeters>
            <DistanceMeters>NAN</DistanceMeters>
          </Trackpoint>
          <Trackpoint>
            <Time>2019-08-01T12:13:01.000Z</Time>
            <Position>
              <LatitudeDegrees>40.77951033599674701690673828125</LatitudeDegrees>
              <LongitudeDegrees>-4.003442041575908660888671875</LongitudeDegrees>
            </Position>
            <AltitudeMeters>1715</AltitudeMeters>
            <DistanceMeters>NAN</DistanceMeters>
          </Trackpoint>
          <Trackpoint>
            <Time>2019-08-01T12:13:02.000Z</Time>
            <Position>
              <LatitudeDegrees>40.77952693216502666473388671875</LatitudeDegrees>
              <LongitudeDegrees>-4.00341262109577655792236328125</LongitudeDegrees>
            </Position>
            <AltitudeMeters>1715.199951171875</AltitudeMeters>
            <DistanceMeters>NAN</DistanceMeters>
          </Trackpoint>
          <Trackpoint>
            <Time>2019-08-01T12:13:03.000Z</Time>
            <Position>
              <LatitudeDegrees>40.77954201959073543548583984375</LatitudeDegrees>
              <LongitudeDegrees>-4.00338429026305675506591796875</LongitudeDegrees>
            </Position>
            <AltitudeMeters>1715.4000244140625</AltitudeMeters>
            <DistanceMeters>NAN</DistanceMeters>
          </Trackpoint>
          <Trackpoint>
            <Time>2019-08-01T12:13:04.000Z</Time>
            <Position>
              <LatitudeDegrees>40.77955685555934906005859375</LatitudeDegrees>
              <LongitudeDegrees>-4.0033547021448612213134765625</LongitudeDegrees>
            </Position>
            <AltitudeMeters>1715.800048828125</AltitudeMeters>
            <DistanceMeters>NAN</DistanceMeters>
          </Trackpoint>
          <Trackpoint>
            <Time>2019-08-01T12:13:05.000Z</Time>
            <Position>
              <LatitudeDegrees>40.77957135625183582305908203125</LatitudeDegrees>
              <LongitudeDegrees>-4.00332477875053882598876953125</LongitudeDegrees>
            </Position>
            <AltitudeMeters>1716.199951171875</AltitudeMeters>
            <DistanceMeters>NAN</DistanceMeters>
          </Trackpoint>
          <Trackpoint>
            <Time>2019-08-01T12:13:06.000Z</Time>
            <Position>
              <LatitudeDegrees>40.77958594076335430145263671875</LatitudeDegrees>
              <LongitudeDegrees>-4.00329510681331157684326171875</LongitudeDegrees>
            </Position>
            <AltitudeMeters>1716.5999755859375</AltitudeMeters>
            <DistanceMeters>NAN</DistanceMeters>
          </Trackpoint>
          <Trackpoint>
            <Time>2019-08-01T12:13:07.000Z</Time>
            <Position>
              <LatitudeDegrees>40.77960102818906307220458984375</LatitudeDegrees>
              <LongitudeDegrees>-4.00326426140964031219482421875</LongitudeDegrees>
            </Position>
            <AltitudeMeters>1716.800048828125</AltitudeMeters>
            <DistanceMeters>NAN</DistanceMeters>
          </Trackpoint>
          <Trackpoint>
            <Time>2019-08-01T12:13:08.000Z</Time>
            <Position>
              <LatitudeDegrees>40.77961720526218414306640625</LatitudeDegrees>
              <LongitudeDegrees>-4.00323358364403247833251953125</LongitudeDegrees>
            </Position>
            <AltitudeMeters>1717</AltitudeMeters>
            <DistanceMeters>NAN</DistanceMeters>
          </Trackpoint>
          <Trackpoint>
            <Time>2019-08-01T12:13:09.000Z</Time>
            <Position>
              <LatitudeDegrees>40.779632292687892913818359375</LatitudeDegrees>
              <LongitudeDegrees>-4.003201983869075775146484375</LongitudeDegrees>
            </Position>
            <AltitudeMeters>1717.199951171875</AltitudeMeters>
            <DistanceMeters>NAN</DistanceMeters>
          </Trackpoint>
          <Trackpoint>
            <Time>2019-08-01T12:13:10.000Z</Time>
            <Position>
              <LatitudeDegrees>40.77964947558939456939697265625</LatitudeDegrees>
              <LongitudeDegrees>-4.00317038409411907196044921875</LongitudeDegrees>
            </Position>
            <AltitudeMeters>1717.5999755859375</AltitudeMeters>
            <DistanceMeters>NAN</DistanceMeters>
          </Trackpoint>
          <Trackpoint>
            <Time>2019-08-01T12:13:11.000Z</Time>
            <Position>
              <LatitudeDegrees>40.77966749668121337890625</LatitudeDegrees>
              <LongitudeDegrees>-4.00313995778560638427734375</LongitudeDegrees>
            </Position>
            <AltitudeMeters>1717.5999755859375</AltitudeMeters>
            <DistanceMeters>NAN</DistanceMeters>
          </Trackpoint>
          <Trackpoint>
            <Time>2019-08-01T12:13:12.000Z</Time>
            <Position>
              <LatitudeDegrees>40.7796804048120975494384765625</LatitudeDegrees>
              <LongitudeDegrees>-4.00310953147709369659423828125</LongitudeDegrees>
            </Position>
            <AltitudeMeters>1718</AltitudeMeters>
            <DistanceMeters>NAN</DistanceMeters>
          </Trackpoint>
          <Trackpoint>
            <Time>2019-08-01T12:13:13.000Z</Time>
            <Position>
              <LatitudeDegrees>40.77969524078071117401123046875</LatitudeDegrees>
              <LongitudeDegrees>-4.003077931702136993408203125</LongitudeDegrees>
            </Position>
            <AltitudeMeters>1718.199951171875</AltitudeMeters>
            <DistanceMeters>NAN</DistanceMeters>
          </Trackpoint>
          <Trackpoint>
            <Time>2019-08-01T12:13:14.000Z</Time>
            <Position>
              <LatitudeDegrees>40.77971066348254680633544921875</LatitudeDegrees>
              <LongitudeDegrees>-4.00304582901298999786376953125</LongitudeDegrees>
            </Position>
            <AltitudeMeters>1718.4000244140625</AltitudeMeters>
            <DistanceMeters>NAN</DistanceMeters>
          </Trackpoint>
          <Trackpoint>
            <Time>2019-08-01T12:13:15.000Z</Time>
            <Position>
              <LatitudeDegrees>40.77972692437469959259033203125</LatitudeDegrees>
              <LongitudeDegrees>-4.00301414541900157928466796875</LongitudeDegrees>
            </Position>
            <AltitudeMeters>1718.800048828125</AltitudeMeters>
            <DistanceMeters>NAN</DistanceMeters>
          </Trackpoint>
          <Trackpoint>
            <Time>2019-08-01T12:13:16.000Z</Time>
            <Position>
              <LatitudeDegrees>40.779743604362010955810546875</LatitudeDegrees>
              <LongitudeDegrees>-4.00298363529145717620849609375</LongitudeDegrees>
            </Position>
            <AltitudeMeters>1718.800048828125</AltitudeMeters>
            <DistanceMeters>NAN</DistanceMeters>
          </Trackpoint>
          <Trackpoint>
            <Time>2019-08-01T12:13:17.000Z</Time>
            <Position>
              <LatitudeDegrees>40.77976212836802005767822265625</LatitudeDegrees>
              <LongitudeDegrees>-4.0029515326023101806640625</LongitudeDegrees>
            </Position>
            <AltitudeMeters>1719.199951171875</AltitudeMeters>
            <DistanceMeters>NAN</DistanceMeters>
          </Trackpoint>
          <Trackpoint>
            <Time>2019-08-01T12:13:18.000Z</Time>
            <Position>
              <LatitudeDegrees>40.77977671287953853607177734375</LatitudeDegrees>
              <LongitudeDegrees>-4.002920687198638916015625</LongitudeDegrees>
            </Position>
            <AltitudeMeters>1719.5999755859375</AltitudeMeters>
            <DistanceMeters>NAN</DistanceMeters>
          </Trackpoint>
          <Trackpoint>
            <Time>2019-08-01T12:13:19.000Z</Time>
            <Position>
              <LatitudeDegrees>40.77979280613362789154052734375</LatitudeDegrees>
              <LongitudeDegrees>-4.00288975797593593597412109375</LongitudeDegrees>
            </Position>
            <AltitudeMeters>1719.800048828125</AltitudeMeters>
            <DistanceMeters>NAN</DistanceMeters>
          </Trackpoint>
          <Trackpoint>
            <Time>2019-08-01T12:13:20.000Z</Time>
            <Position>
              <LatitudeDegrees>40.7798098213970661163330078125</LatitudeDegrees>
              <LongitudeDegrees>-4.00285899639129638671875</LongitudeDegrees>
            </Position>
            <AltitudeMeters>1719.800048828125</AltitudeMeters>
            <DistanceMeters>NAN</DistanceMeters>
          </Trackpoint>
          <Trackpoint>
            <Time>2019-08-01T12:13:21.000Z</Time>
            <Position>
              <LatitudeDegrees>40.77982365153729915618896484375</LatitudeDegrees>
              <LongitudeDegrees>-4.00282907299697399139404296875</LongitudeDegrees>
            </Position>
            <AltitudeMeters>1720.4000244140625</AltitudeMeters>
            <DistanceMeters>NAN</DistanceMeters>
          </Trackpoint>
          <Trackpoint>
            <Time>2019-08-01T12:13:22.000Z</Time>
            <Position>
              <LatitudeDegrees>40.7798389904201030731201171875</LatitudeDegrees>
              <LongitudeDegrees>-4.002797640860080718994140625</LongitudeDegrees>
            </Position>
            <AltitudeMeters>1720.5999755859375</AltitudeMeters>
            <DistanceMeters>NAN</DistanceMeters>
          </Trackpoint>
          <Trackpoint>
            <Time>2019-08-01T12:13:23.000Z</Time>
            <Position>
              <LatitudeDegrees>40.779855251312255859375</LatitudeDegrees>
              <LongitudeDegrees>-4.0027666278183460235595703125</LongitudeDegrees>
            </Position>
            <AltitudeMeters>1720.800048828125</AltitudeMeters>
            <DistanceMeters>NAN</DistanceMeters>
          </Trackpoint>
          <Trackpoint>
            <Time>2019-08-01T12:13:24.000Z</Time>
            <Position>
              <LatitudeDegrees>40.77987226657569408416748046875</LatitudeDegrees>
              <LongitudeDegrees>-4.00273586623370647430419921875</LongitudeDegrees>
            </Position>
            <AltitudeMeters>1720.800048828125</AltitudeMeters>
            <DistanceMeters>NAN</DistanceMeters>
          </Trackpoint>
          <Trackpoint>
            <Time>2019-08-01T12:13:25.000Z</Time>
            <Position>
              <LatitudeDegrees>40.77988852746784687042236328125</LatitudeDegrees>
              <LongitudeDegrees>-4.0027056075632572174072265625</LongitudeDegrees>
            </Position>
            <AltitudeMeters>1720.800048828125</AltitudeMeters>
            <DistanceMeters>NAN</DistanceMeters>
          </Trackpoint>
          <Trackpoint>
            <Time>2019-08-01T12:13:26.000Z</Time>
            <Position>
              <LatitudeDegrees>40.77990554273128509521484375</LatitudeDegrees>
              <LongitudeDegrees>-4.0026757679879665374755859375</LongitudeDegrees>
            </Position>
            <AltitudeMeters>1721</AltitudeMeters>
            <DistanceMeters>NAN</DistanceMeters>
          </Trackpoint>
          <Trackpoint>
            <Time>2019-08-01T12:13:27.000Z</Time>
            <Position>
              <LatitudeDegrees>40.77992557547986507415771484375</LatitudeDegrees>
              <LongitudeDegrees>-4.002645425498485565185546875</LongitudeDegrees>
            </Position>
            <AltitudeMeters>1721</AltitudeMeters>
            <DistanceMeters>NAN</DistanceMeters>
          </Trackpoint>
          <Trackpoint>
            <Time>2019-08-01T12:13:28.000Z</Time>
            <Position>
              <LatitudeDegrees>40.779945440590381622314453125</LatitudeDegrees>
              <LongitudeDegrees>-4.0026160888373851776123046875</LongitudeDegrees>
            </Position>
            <AltitudeMeters>1721.4000244140625</AltitudeMeters>
            <DistanceMeters>NAN</DistanceMeters>
          </Trackpoint>
          <Trackpoint>
            <Time>2019-08-01T12:13:29.000Z</Time>
            <Position>
              <LatitudeDegrees>40.7799638807773590087890625</LatitudeDegrees>
              <LongitudeDegrees>-4.00258566252887248992919921875</LongitudeDegrees>
            </Position>
            <AltitudeMeters>1722</AltitudeMeters>
            <DistanceMeters>NAN</DistanceMeters>
          </Trackpoint>
          <Trackpoint>
            <Time>2019-08-01T12:13:30.000Z</Time>
            <Position>
              <LatitudeDegrees>40.779982320964336395263671875</LatitudeDegrees>
              <LongitudeDegrees>-4.00255448184907436370849609375</LongitudeDegrees>
            </Position>
            <AltitudeMeters>1722.199951171875</AltitudeMeters>
            <DistanceMeters>NAN</DistanceMeters>
          </Trackpoint>
          <Trackpoint>
            <Time>2019-08-01T12:13:31.000Z</Time>
            <Position>
              <LatitudeDegrees>40.78000252135097980499267578125</LatitudeDegrees>
              <LongitudeDegrees>-4.002524726092815399169921875</LongitudeDegrees>
            </Position>
            <AltitudeMeters>1722.4000244140625</AltitudeMeters>
            <DistanceMeters>NAN</DistanceMeters>
          </Trackpoint>
          <Trackpoint>
            <Time>2019-08-01T12:13:32.000Z</Time>
            <Position>
              <LatitudeDegrees>40.78002163209021091461181640625</LatitudeDegrees>
              <LongitudeDegrees>-4.0024963952600955963134765625</LongitudeDegrees>
            </Position>
            <AltitudeMeters>1722.800048828125</AltitudeMeters>
            <DistanceMeters>NAN</DistanceMeters>
          </Trackpoint>
          <Trackpoint>
            <Time>2019-08-01T12:13:33.000Z</Time>
            <Position>
              <LatitudeDegrees>40.7800418324768543243408203125</LatitudeDegrees>
              <LongitudeDegrees>-4.002469740808010101318359375</LongitudeDegrees>
            </Position>
            <AltitudeMeters>1723.199951171875</AltitudeMeters>
            <DistanceMeters>NAN</DistanceMeters>
          </Trackpoint>
          <Trackpoint>
            <Time>2019-08-01T12:13:34.000Z</Time>
            <Position>
              <LatitudeDegrees>40.780061446130275726318359375</LatitudeDegrees>
              <LongitudeDegrees>-4.00244451127946376800537109375</LongitudeDegrees>
            </Position>
            <AltitudeMeters>1723.199951171875</AltitudeMeters>
            <DistanceMeters>NAN</DistanceMeters>
          </Trackpoint>
          <Trackpoint>
            <Time>2019-08-01T12:13:35.000Z</Time>
            <Position>
              <LatitudeDegrees>40.78007980249822139739990234375</LatitudeDegrees>
              <LongitudeDegrees>-4.0024189464747905731201171875</LongitudeDegrees>
            </Position>
            <AltitudeMeters>1723.4000244140625</AltitudeMeters>
            <DistanceMeters>NAN</DistanceMeters>
          </Trackpoint>
          <Trackpoint>
            <Time>2019-08-01T12:13:36.000Z</Time>
            <Position>
              <LatitudeDegrees>40.78009891323745250701904296875</LatitudeDegrees>
              <LongitudeDegrees>-4.0023936331272125244140625</LongitudeDegrees>
            </Position>
            <AltitudeMeters>1723.4000244140625</AltitudeMeters>
            <DistanceMeters>NAN</DistanceMeters>
          </Trackpoint>
          <Trackpoint>
            <Time>2019-08-01T12:13:37.000Z</Time>
            <Position>
              <LatitudeDegrees>40.7801209576427936553955078125</LatitudeDegrees>
              <LongitudeDegrees>-4.00236957706511020660400390625</LongitudeDegrees>
            </Position>
            <AltitudeMeters>1723.5999755859375</AltitudeMeters>
            <DistanceMeters>NAN</DistanceMeters>
          </Trackpoint>
          <Trackpoint>
            <Time>2019-08-01T12:13:38.000Z</Time>
            <Position>
              <LatitudeDegrees>40.78014434315264225006103515625</LatitudeDegrees>
              <LongitudeDegrees>-4.0023455210030078887939453125</LongitudeDegrees>
            </Position>
            <AltitudeMeters>1723.800048828125</AltitudeMeters>
            <DistanceMeters>NAN</DistanceMeters>
          </Trackpoint>
          <Trackpoint>
            <Time>2019-08-01T12:13:39.000Z</Time>
            <Position>
              <LatitudeDegrees>40.7801662199199199676513671875</LatitudeDegrees>
              <LongitudeDegrees>-4.002320207655429840087890625</LongitudeDegrees>
            </Position>
            <AltitudeMeters>1723.800048828125</AltitudeMeters>
            <DistanceMeters>NAN</DistanceMeters>
          </Trackpoint>
          <Trackpoint>
            <Time>2019-08-01T12:13:40.000Z</Time>
            <Position>
              <LatitudeDegrees>40.780193544924259185791015625</LatitudeDegrees>
              <LongitudeDegrees>-4.002293385565280914306640625</LongitudeDegrees>
            </Position>
            <AltitudeMeters>1724</AltitudeMeters>
            <DistanceMeters>NAN</DistanceMeters>
          </Trackpoint>
          <Trackpoint>
            <Time>2019-08-01T12:13:41.000Z</Time>
            <Position>
              <LatitudeDegrees>40.780216343700885772705078125</LatitudeDegrees>
              <LongitudeDegrees>-4.00226815603673458099365234375</LongitudeDegrees>
            </Position>
            <AltitudeMeters>1724</AltitudeMeters>
            <DistanceMeters>NAN</DistanceMeters>
          </Trackpoint>
          <Trackpoint>
            <Time>2019-08-01T12:13:42.000Z</Time>
            <Position>
              <LatitudeDegrees>40.780240483582019805908203125</LatitudeDegrees>
              <LongitudeDegrees>-4.00224418379366397857666015625</LongitudeDegrees>
            </Position>
            <AltitudeMeters>1724.199951171875</AltitudeMeters>
            <DistanceMeters>NAN</DistanceMeters>
          </Trackpoint>
          <Trackpoint>
            <Time>2019-08-01T12:13:43.000Z</Time>
            <Position>
              <LatitudeDegrees>40.780240483582019805908203125</LatitudeDegrees>
              <LongitudeDegrees>-4.00224418379366397857666015625</LongitudeDegrees>
            </Position>
            <AltitudeMeters>1724.4000244140625</AltitudeMeters>
            <DistanceMeters>NAN</DistanceMeters>
          </Trackpoint>
          <Trackpoint>
            <Time>2019-08-01T12:13:44.000Z</Time>
            <Position>
              <LatitudeDegrees>40.780289433896541595458984375</LatitudeDegrees>
              <LongitudeDegrees>-4.0021986700594425201416015625</LongitudeDegrees>
            </Position>
            <AltitudeMeters>1724.4000244140625</AltitudeMeters>
            <DistanceMeters>NAN</DistanceMeters>
          </Trackpoint>
          <Trackpoint>
            <Time>2019-08-01T12:13:45.000Z</Time>
            <Position>
              <LatitudeDegrees>40.78031348995864391326904296875</LatitudeDegrees>
              <LongitudeDegrees>-4.0021745301783084869384765625</LongitudeDegrees>
            </Position>
            <AltitudeMeters>1724.5999755859375</AltitudeMeters>
            <DistanceMeters>NAN</DistanceMeters>
          </Trackpoint>
          <Trackpoint>
            <Time>2019-08-01T12:13:46.000Z</Time>
            <Position>
              <LatitudeDegrees>40.78033746220171451568603515625</LatitudeDegrees>
              <LongitudeDegrees>-4.00215030647814273834228515625</LongitudeDegrees>
            </Position>
            <AltitudeMeters>1724.800048828125</AltitudeMeters>
            <DistanceMeters>NAN</DistanceMeters>
          </Trackpoint>
          <Trackpoint>
            <Time>2019-08-01T12:13:47.000Z</Time>
            <Position>
              <LatitudeDegrees>40.78036176972091197967529296875</LatitudeDegrees>
              <LongitudeDegrees>-4.00212666951119899749755859375</LongitudeDegrees>
            </Position>
            <AltitudeMeters>1725</AltitudeMeters>
            <DistanceMeters>NAN</DistanceMeters>
          </Trackpoint>
          <Trackpoint>
            <Time>2019-08-01T12:13:48.000Z</Time>
            <Position>
              <LatitudeDegrees>40.78038574196398258209228515625</LatitudeDegrees>
              <LongitudeDegrees>-4.00210236199200153350830078125</LongitudeDegrees>
            </Position>
            <AltitudeMeters>1725.199951171875</AltitudeMeters>
            <DistanceMeters>NAN</DistanceMeters>
          </Trackpoint>
          <Trackpoint>
            <Time>2019-08-01T12:13:49.000Z</Time>
            <Position>
              <LatitudeDegrees>40.7804096303880214691162109375</LatitudeDegrees>
              <LongitudeDegrees>-4.002078473567962646484375</LongitudeDegrees>
            </Position>
            <AltitudeMeters>1725.4000244140625</AltitudeMeters>
            <DistanceMeters>NAN</DistanceMeters>
          </Trackpoint>
          <Trackpoint>
            <Time>2019-08-01T12:13:50.000Z</Time>
            <Position>
              <LatitudeDegrees>40.7804337702691555023193359375</LatitudeDegrees>
              <LongitudeDegrees>-4.0020541660487651824951171875</LongitudeDegrees>
            </Position>
            <AltitudeMeters>1725.5999755859375</AltitudeMeters>
            <DistanceMeters>NAN</DistanceMeters>
          </Trackpoint>
          <Trackpoint>
            <Time>2019-08-01T12:13:51.000Z</Time>
            <Position>
              <LatitudeDegrees>40.7804575748741626739501953125</LatitudeDegrees>
              <LongitudeDegrees>-4.0020296908915042877197265625</LongitudeDegrees>
            </Position>
            <AltitudeMeters>1725.800048828125</AltitudeMeters>
            <DistanceMeters>NAN</DistanceMeters>
          </Trackpoint>
          <Trackpoint>
            <Time>2019-08-01T12:13:52.000Z</Time>
            <Position>
              <LatitudeDegrees>40.7804823853075504302978515625</LatitudeDegrees>
              <LongitudeDegrees>-4.00200529955327510833740234375</LongitudeDegrees>
            </Position>
            <AltitudeMeters>1726</AltitudeMeters>
            <DistanceMeters>NAN</DistanceMeters>
          </Trackpoint>
          <Trackpoint>
            <Time>2019-08-01T12:13:53.000Z</Time>
            <Position>
              <LatitudeDegrees>40.78050744719803333282470703125</LatitudeDegrees>
              <LongitudeDegrees>-4.00198048911988735198974609375</LongitudeDegrees>
            </Position>
            <AltitudeMeters>1726.5999755859375</AltitudeMeters>
            <DistanceMeters>NAN</DistanceMeters>
          </Trackpoint>
          <Trackpoint>
            <Time>2019-08-01T12:13:54.000Z</Time>
            <Position>
              <LatitudeDegrees>40.78053141944110393524169921875</LatitudeDegrees>
              <LongitudeDegrees>-4.00195467285811901092529296875</LongitudeDegrees>
            </Position>
            <AltitudeMeters>1726.800048828125</AltitudeMeters>
            <DistanceMeters>NAN</DistanceMeters>
          </Trackpoint>
          <Trackpoint>
            <Time>2019-08-01T12:13:55.000Z</Time>
            <Position>
              <LatitudeDegrees>40.78055421821773052215576171875</LatitudeDegrees>
              <LongitudeDegrees>-4.0019284375011920928955078125</LongitudeDegrees>
            </Position>
            <AltitudeMeters>1727.199951171875</AltitudeMeters>
            <DistanceMeters>NAN</DistanceMeters>
          </Trackpoint>
          <Trackpoint>
            <Time>2019-08-01T12:13:56.000Z</Time>
            <Position>
              <LatitudeDegrees>40.7805769331753253936767578125</LatitudeDegrees>
              <LongitudeDegrees>-4.0019022859632968902587890625</LongitudeDegrees>
            </Position>
            <AltitudeMeters>1727.199951171875</AltitudeMeters>
            <DistanceMeters>NAN</DistanceMeters>
          </Trackpoint>
          <Trackpoint>
            <Time>2019-08-01T12:13:57.000Z</Time>
            <Position>
              <LatitudeDegrees>40.780599229037761688232421875</LatitudeDegrees>
              <LongitudeDegrees>-4.0018754638731479644775390625</LongitudeDegrees>
            </Position>
            <AltitudeMeters>1727.4000244140625</AltitudeMeters>
            <DistanceMeters>NAN</DistanceMeters>
          </Trackpoint>
          <Trackpoint>
            <Time>2019-08-01T12:13:58.000Z</Time>
            <Position>
              <LatitudeDegrees>40.78062026761472225189208984375</LatitudeDegrees>
              <LongitudeDegrees>-4.00184872560203075408935546875</LongitudeDegrees>
            </Position>
            <AltitudeMeters>1727.800048828125</AltitudeMeters>
            <DistanceMeters>NAN</DistanceMeters>
          </Trackpoint>
          <Trackpoint>
            <Time>2019-08-01T12:13:59.000Z</Time>
            <Position>
              <LatitudeDegrees>40.7806416414678096771240234375</LatitudeDegrees>
              <LongitudeDegrees>-4.001823328435420989990234375</LongitudeDegrees>
            </Position>
            <AltitudeMeters>1728.199951171875</AltitudeMeters>
            <DistanceMeters>NAN</DistanceMeters>
          </Trackpoint>
          <Trackpoint>
            <Time>2019-08-01T12:14:00.000Z</Time>
            <Position>
              <LatitudeDegrees>40.78066200949251651763916015625</LatitudeDegrees>
              <LongitudeDegrees>-4.00179960764944553375244140625</LongitudeDegrees>
            </Position>
            <AltitudeMeters>1728.5999755859375</AltitudeMeters>
            <DistanceMeters>NAN</DistanceMeters>
          </Trackpoint>
          <Trackpoint>
            <Time>2019-08-01T12:14:01.000Z</Time>
            <Position>
              <LatitudeDegrees>40.78068179078400135040283203125</LatitudeDegrees>
              <LongitudeDegrees>-4.00177605450153350830078125</LongitudeDegrees>
            </Position>
            <AltitudeMeters>1728.5999755859375</AltitudeMeters>
            <DistanceMeters>NAN</DistanceMeters>
          </Trackpoint>
          <Trackpoint>
            <Time>2019-08-01T12:14:02.000Z</Time>
            <Position>
              <LatitudeDegrees>40.78068179078400135040283203125</LatitudeDegrees>
              <LongitudeDegrees>-4.00177605450153350830078125</LongitudeDegrees>
            </Position>
            <AltitudeMeters>1728.5999755859375</AltitudeMeters>
            <DistanceMeters>NAN</DistanceMeters>
          </Trackpoint>
          <Trackpoint>
            <Time>2019-08-01T12:14:03.000Z</Time>
            <Position>
              <LatitudeDegrees>40.78072587959468364715576171875</LatitudeDegrees>
              <LongitudeDegrees>-4.00172911584377288818359375</LongitudeDegrees>
            </Position>
            <AltitudeMeters>1728.800048828125</AltitudeMeters>
            <DistanceMeters>NAN</DistanceMeters>
          </Trackpoint>
          <Trackpoint>
            <Time>2019-08-01T12:14:04.000Z</Time>
            <Position>
              <LatitudeDegrees>40.7807479240000247955322265625</LatitudeDegrees>
              <LongitudeDegrees>-4.00170489214360713958740234375</LongitudeDegrees>
            </Position>
            <AltitudeMeters>1729</AltitudeMeters>
            <DistanceMeters>NAN</DistanceMeters>
          </Trackpoint>
          <Trackpoint>
            <Time>2019-08-01T12:14:05.000Z</Time>
            <Position>
              <LatitudeDegrees>40.7807703875005245208740234375</LatitudeDegrees>
              <LongitudeDegrees>-4.00167941115796566009521484375</LongitudeDegrees>
            </Position>
            <AltitudeMeters>1729.199951171875</AltitudeMeters>
            <DistanceMeters>NAN</DistanceMeters>
          </Trackpoint>
          <Trackpoint>
            <Time>2019-08-01T12:14:06.000Z</Time>
            <Position>
              <LatitudeDegrees>40.78079402446746826171875</LatitudeDegrees>
              <LongitudeDegrees>-4.001654684543609619140625</LongitudeDegrees>
            </Position>
            <AltitudeMeters>1729.5999755859375</AltitudeMeters>
            <DistanceMeters>NAN</DistanceMeters>
          </Trackpoint>
          <Trackpoint>
            <Time>2019-08-01T12:14:07.000Z</Time>
            <Position>
              <LatitudeDegrees>40.78081690706312656402587890625</LatitudeDegrees>
              <LongitudeDegrees>-4.001633226871490478515625</LongitudeDegrees>
            </Position>
            <AltitudeMeters>1729.800048828125</AltitudeMeters>
            <DistanceMeters>NAN</DistanceMeters>
          </Trackpoint>
          <Trackpoint>
            <Time>2019-08-01T12:14:08.000Z</Time>
            <Position>
              <LatitudeDegrees>40.78084004111588001251220703125</LatitudeDegrees>
              <LongitudeDegrees>-4.001612775027751922607421875</LongitudeDegrees>
            </Position>
            <AltitudeMeters>1730</AltitudeMeters>
            <DistanceMeters>NAN</DistanceMeters>
          </Trackpoint>
          <Trackpoint>
            <Time>2019-08-01T12:14:09.000Z</Time>
            <Position>
              <LatitudeDegrees>40.7808639295399188995361328125</LatitudeDegrees>
              <LongitudeDegrees>-4.00159156881272792816162109375</LongitudeDegrees>
            </Position>
            <AltitudeMeters>1730.199951171875</AltitudeMeters>
            <DistanceMeters>NAN</DistanceMeters>
          </Trackpoint>
          <Trackpoint>
            <Time>2019-08-01T12:14:10.000Z</Time>
            <Position>
              <LatitudeDegrees>40.7808863930404186248779296875</LatitudeDegrees>
              <LongitudeDegrees>-4.00157061405479907989501953125</LongitudeDegrees>
            </Position>
            <AltitudeMeters>1730.5999755859375</AltitudeMeters>
            <DistanceMeters>NAN</DistanceMeters>
          </Trackpoint>
          <Trackpoint>
            <Time>2019-08-01T12:14:11.000Z</Time>
            <Position>
              <LatitudeDegrees>40.78090659342706203460693359375</LatitudeDegrees>
              <LongitudeDegrees>-4.0015519224107265472412109375</LongitudeDegrees>
            </Position>
            <AltitudeMeters>1730.5999755859375</AltitudeMeters>
            <DistanceMeters>NAN</DistanceMeters>
          </Trackpoint>
          <Trackpoint>
            <Time>2019-08-01T12:14:12.000Z</Time>
            <Position>
              <LatitudeDegrees>40.780932493507862091064453125</LatitudeDegrees>
              <LongitudeDegrees>-4.0015348233282566070556640625</LongitudeDegrees>
            </Position>
            <AltitudeMeters>1730.800048828125</AltitudeMeters>
            <DistanceMeters>NAN</DistanceMeters>
          </Trackpoint>
          <Trackpoint>
            <Time>2019-08-01T12:14:13.000Z</Time>
            <Position>
              <LatitudeDegrees>40.78095822595059871673583984375</LatitudeDegrees>
              <LongitudeDegrees>-4.00151998735964298248291015625</LongitudeDegrees>
            </Position>
            <AltitudeMeters>1731</AltitudeMeters>
            <DistanceMeters>NAN</DistanceMeters>
          </Trackpoint>
          <Trackpoint>
            <Time>2019-08-01T12:14:14.000Z</Time>
            <Position>
              <LatitudeDegrees>40.78098001889884471893310546875</LatitudeDegrees>
              <LongitudeDegrees>-4.0015058219432830810546875</LongitudeDegrees>
            </Position>
            <AltitudeMeters>1731.5999755859375</AltitudeMeters>
            <DistanceMeters>NAN</DistanceMeters>
          </Trackpoint>
          <Trackpoint>
            <Time>2019-08-01T12:14:15.000Z</Time>
            <Position>
              <LatitudeDegrees>40.78100482933223247528076171875</LatitudeDegrees>
              <LongitudeDegrees>-4.00149299763143062591552734375</LongitudeDegrees>
            </Position>
            <AltitudeMeters>1732</AltitudeMeters>
            <DistanceMeters>NAN</DistanceMeters>
          </Trackpoint>
          <Trackpoint>
            <Time>2019-08-01T12:14:16.000Z</Time>
            <Position>
              <LatitudeDegrees>40.78103131614625453948974609375</LatitudeDegrees>
              <LongitudeDegrees>-4.00148344226181507110595703125</LongitudeDegrees>
            </Position>
            <AltitudeMeters>1732.4000244140625</AltitudeMeters>
            <DistanceMeters>NAN</DistanceMeters>
          </Trackpoint>
          <Trackpoint>
            <Time>2019-08-01T12:14:17.000Z</Time>
            <Position>
              <LatitudeDegrees>40.7810583896934986114501953125</LatitudeDegrees>
              <LongitudeDegrees>-4.00147422216832637786865234375</LongitudeDegrees>
            </Position>
            <AltitudeMeters>1732.5999755859375</AltitudeMeters>
            <DistanceMeters>NAN</DistanceMeters>
          </Trackpoint>
          <Trackpoint>
            <Time>2019-08-01T12:14:18.000Z</Time>
            <Position>
              <LatitudeDegrees>40.7810865528881549835205078125</LatitudeDegrees>
              <LongitudeDegrees>-4.0014640800654888153076171875</LongitudeDegrees>
            </Position>
            <AltitudeMeters>1732.5999755859375</AltitudeMeters>
            <DistanceMeters>NAN</DistanceMeters>
          </Trackpoint>
          <Trackpoint>
            <Time>2019-08-01T12:14:19.000Z</Time>
            <Position>
              <LatitudeDegrees>40.78111714683473110198974609375</LatitudeDegrees>
              <LongitudeDegrees>-4.0014567039906978607177734375</LongitudeDegrees>
            </Position>
            <AltitudeMeters>1732.800048828125</AltitudeMeters>
            <DistanceMeters>NAN</DistanceMeters>
          </Trackpoint>
          <Trackpoint>
            <Time>2019-08-01T12:14:20.000Z</Time>
            <Position>
              <LatitudeDegrees>40.78114715404808521270751953125</LatitudeDegrees>
              <LongitudeDegrees>-4.0014530159533023834228515625</LongitudeDegrees>
            </Position>
            <AltitudeMeters>1733</AltitudeMeters>
            <DistanceMeters>NAN</DistanceMeters>
          </Trackpoint>
          <Trackpoint>
            <Time>2019-08-01T12:14:21.000Z</Time>
            <Position>
              <LatitudeDegrees>40.7811757363379001617431640625</LatitudeDegrees>
              <LongitudeDegrees>-4.00145293213427066802978515625</LongitudeDegrees>
            </Position>
            <AltitudeMeters>1733</AltitudeMeters>
            <DistanceMeters>NAN</DistanceMeters>
          </Trackpoint>
          <Trackpoint>
            <Time>2019-08-01T12:14:22.000Z</Time>
            <Position>
              <LatitudeDegrees>40.7812032289803028106689453125</LatitudeDegrees>
              <LongitudeDegrees>-4.0014550276100635528564453125</LongitudeDegrees>
            </Position>
            <AltitudeMeters>1733.4000244140625</AltitudeMeters>
            <DistanceMeters>NAN</DistanceMeters>
          </Trackpoint>
          <Trackpoint>
            <Time>2019-08-01T12:14:23.000Z</Time>
            <Position>
              <LatitudeDegrees>40.78123097307980060577392578125</LatitudeDegrees>
              <LongitudeDegrees>-4.00145963765680789947509765625</LongitudeDegrees>
            </Position>
            <AltitudeMeters>1733.5999755859375</AltitudeMeters>
            <DistanceMeters>NAN</DistanceMeters>
          </Trackpoint>
          <Trackpoint>
            <Time>2019-08-01T12:14:24.000Z</Time>
            <Position>
              <LatitudeDegrees>40.78125829808413982391357421875</LatitudeDegrees>
              <LongitudeDegrees>-4.0014667622745037078857421875</LongitudeDegrees>
            </Position>
            <AltitudeMeters>1734</AltitudeMeters>
            <DistanceMeters>NAN</DistanceMeters>
          </Trackpoint>
          <Trackpoint>
            <Time>2019-08-01T12:14:25.000Z</Time>
            <Position>
              <LatitudeDegrees>40.7812853716313838958740234375</LatitudeDegrees>
              <LongitudeDegrees>-4.001477323472499847412109375</LongitudeDegrees>
            </Position>
            <AltitudeMeters>1734.199951171875</AltitudeMeters>
            <DistanceMeters>NAN</DistanceMeters>
          </Trackpoint>
          <Trackpoint>
            <Time>2019-08-01T12:14:26.000Z</Time>
            <Position>
              <LatitudeDegrees>40.78131110407412052154541015625</LatitudeDegrees>
              <LongitudeDegrees>-4.00149048306047916412353515625</LongitudeDegrees>
            </Position>
            <AltitudeMeters>1734.4000244140625</AltitudeMeters>
            <DistanceMeters>NAN</DistanceMeters>
          </Trackpoint>
          <Trackpoint>
            <Time>2019-08-01T12:14:27.000Z</Time>
            <Position>
              <LatitudeDegrees>40.7813349924981594085693359375</LatitudeDegrees>
              <LongitudeDegrees>-4.0015058219432830810546875</LongitudeDegrees>
            </Position>
            <AltitudeMeters>1734.800048828125</AltitudeMeters>
            <DistanceMeters>NAN</DistanceMeters>
          </Trackpoint>
          <Trackpoint>
            <Time>2019-08-01T12:14:28.000Z</Time>
            <Position>
              <LatitudeDegrees>40.78135795891284942626953125</LatitudeDegrees>
              <LongitudeDegrees>-4.0015224181115627288818359375</LongitudeDegrees>
            </Position>
            <AltitudeMeters>1735.199951171875</AltitudeMeters>
            <DistanceMeters>NAN</DistanceMeters>
          </Trackpoint>
          <Trackpoint>
            <Time>2019-08-01T12:14:29.000Z</Time>
            <Position>
              <LatitudeDegrees>40.7813802547752857208251953125</LatitudeDegrees>
              <LongitudeDegrees>-4.00153825990855693817138671875</LongitudeDegrees>
            </Position>
            <AltitudeMeters>1735.4000244140625</AltitudeMeters>
            <DistanceMeters>NAN</DistanceMeters>
          </Trackpoint>
          <Trackpoint>
            <Time>2019-08-01T12:14:30.000Z</Time>
            <Position>
              <LatitudeDegrees>40.781404562294483184814453125</LatitudeDegrees>
              <LongitudeDegrees>-4.00156156159937381744384765625</LongitudeDegrees>
            </Position>
            <AltitudeMeters>1735.4000244140625</AltitudeMeters>
            <DistanceMeters>NAN</DistanceMeters>
          </Trackpoint>
          <Trackpoint>
            <Time>2019-08-01T12:14:31.000Z</Time>
            <Position>
              <LatitudeDegrees>40.78142727725207805633544921875</LatitudeDegrees>
              <LongitudeDegrees>-4.00158620439469814300537109375</LongitudeDegrees>
            </Position>
            <AltitudeMeters>1735.5999755859375</AltitudeMeters>
            <DistanceMeters>NAN</DistanceMeters>
          </Trackpoint>
          <Trackpoint>
            <Time>2019-08-01T12:14:32.000Z</Time>
            <Position>
              <LatitudeDegrees>40.78144923783838748931884765625</LatitudeDegrees>
              <LongitudeDegrees>-4.00161235593259334564208984375</LongitudeDegrees>
            </Position>
            <AltitudeMeters>1735.800048828125</AltitudeMeters>
            <DistanceMeters>NAN</DistanceMeters>
          </Trackpoint>
          <Trackpoint>
            <Time>2019-08-01T12:14:33.000Z</Time>
            <Position>
              <LatitudeDegrees>40.78147170133888721466064453125</LatitudeDegrees>
              <LongitudeDegrees>-4.00164001621305942535400390625</LongitudeDegrees>
            </Position>
            <AltitudeMeters>1736</AltitudeMeters>
            <DistanceMeters>NAN</DistanceMeters>
          </Trackpoint>
          <Trackpoint>
            <Time>2019-08-01T12:14:34.000Z</Time>
            <Position>
              <LatitudeDegrees>40.78149416483938694000244140625</LatitudeDegrees>
              <LongitudeDegrees>-4.00166616775095462799072265625</LongitudeDegrees>
            </Position>
            <AltitudeMeters>1736.199951171875</AltitudeMeters>
            <DistanceMeters>NAN</DistanceMeters>
          </Trackpoint>
          <Trackpoint>
            <Time>2019-08-01T12:14:35.000Z</Time>
            <Position>
              <LatitudeDegrees>40.78151830472052097320556640625</LatitudeDegrees>
              <LongitudeDegrees>-4.0016950853168964385986328125</LongitudeDegrees>
            </Position>
            <AltitudeMeters>1736.199951171875</AltitudeMeters>
            <DistanceMeters>NAN</DistanceMeters>
          </Trackpoint>
          <Trackpoint>
            <Time>2019-08-01T12:14:36.000Z</Time>
            <Position>
              <LatitudeDegrees>40.781542360782623291015625</LatitudeDegrees>
              <LongitudeDegrees>-4.0017252601683139801025390625</LongitudeDegrees>
            </Position>
            <AltitudeMeters>1736.4000244140625</AltitudeMeters>
            <DistanceMeters>NAN</DistanceMeters>
          </Trackpoint>
          <Trackpoint>
            <Time>2019-08-01T12:14:38.000Z</Time>
            <Position>
              <LatitudeDegrees>40.78158636577427387237548828125</LatitudeDegrees>
              <LongitudeDegrees>-4.00177932344377040863037109375</LongitudeDegrees>
            </Position>
            <AltitudeMeters>1736.800048828125</AltitudeMeters>
            <DistanceMeters>NAN</DistanceMeters>
          </Trackpoint>
          <Trackpoint>
            <Time>2019-08-01T12:14:39.000Z</Time>
            <Position>
              <LatitudeDegrees>40.78160614706575870513916015625</LatitudeDegrees>
              <LongitudeDegrees>-4.0018020384013652801513671875</LongitudeDegrees>
            </Position>
            <AltitudeMeters>1736.800048828125</AltitudeMeters>
            <DistanceMeters>NAN</DistanceMeters>
          </Trackpoint>
          <Trackpoint>
            <Time>2019-08-01T12:14:40.000Z</Time>
            <Position>
              <LatitudeDegrees>40.78162609599530696868896484375</LatitudeDegrees>
              <LongitudeDegrees>-4.0018255077302455902099609375</LongitudeDegrees>
            </Position>
            <AltitudeMeters>1737</AltitudeMeters>
            <DistanceMeters>NAN</DistanceMeters>
          </Trackpoint>
          <Trackpoint>
            <Time>2019-08-01T12:14:41.000Z</Time>
            <Position>
              <LatitudeDegrees>40.78164638020098209381103515625</LatitudeDegrees>
              <LongitudeDegrees>-4.00184889324009418487548828125</LongitudeDegrees>
            </Position>
            <AltitudeMeters>1737.199951171875</AltitudeMeters>
            <DistanceMeters>NAN</DistanceMeters>
          </Trackpoint>
          <Trackpoint>
            <Time>2019-08-01T12:14:42.000Z</Time>
            <Position>
              <LatitudeDegrees>40.781667418777942657470703125</LatitudeDegrees>
              <LongitudeDegrees>-4.0018724463880062103271484375</LongitudeDegrees>
            </Position>
            <AltitudeMeters>1737.199951171875</AltitudeMeters>
            <DistanceMeters>NAN</DistanceMeters>
          </Trackpoint>
          <Trackpoint>
            <Time>2019-08-01T12:14:43.000Z</Time>
            <Position>
              <LatitudeDegrees>40.78168787062168121337890625</LatitudeDegrees>
              <LongitudeDegrees>-4.00189566425979137420654296875</LongitudeDegrees>
            </Position>
            <AltitudeMeters>1737.4000244140625</AltitudeMeters>
            <DistanceMeters>NAN</DistanceMeters>
          </Trackpoint>
          <Trackpoint>
            <Time>2019-08-01T12:14:44.000Z</Time>
            <Position>
              <LatitudeDegrees>40.78170924447476863861083984375</LatitudeDegrees>
              <LongitudeDegrees>-4.00191712193191051483154296875</LongitudeDegrees>
            </Position>
            <AltitudeMeters>1737.4000244140625</AltitudeMeters>
            <DistanceMeters>NAN</DistanceMeters>
          </Trackpoint>
          <Trackpoint>
            <Time>2019-08-01T12:14:45.000Z</Time>
            <Position>
              <LatitudeDegrees>40.7817322947084903717041015625</LatitudeDegrees>
              <LongitudeDegrees>-4.00193707086145877838134765625</LongitudeDegrees>
            </Position>
            <AltitudeMeters>1737.5999755859375</AltitudeMeters>
            <DistanceMeters>NAN</DistanceMeters>
          </Trackpoint>
          <Trackpoint>
            <Time>2019-08-01T12:14:46.000Z</Time>
            <Position>
              <LatitudeDegrees>40.7817567698657512664794921875</LatitudeDegrees>
              <LongitudeDegrees>-4.0019559301435947418212890625</LongitudeDegrees>
            </Position>
            <AltitudeMeters>1737.5999755859375</AltitudeMeters>
            <DistanceMeters>NAN</DistanceMeters>
          </Trackpoint>
          <Trackpoint>
            <Time>2019-08-01T12:14:47.000Z</Time>
            <Position>
              <LatitudeDegrees>40.781782083213329315185546875</LatitudeDegrees>
              <LongitudeDegrees>-4.0019780583679676055908203125</LongitudeDegrees>
            </Position>
            <AltitudeMeters>1737.800048828125</AltitudeMeters>
            <DistanceMeters>NAN</DistanceMeters>
          </Trackpoint>
          <Trackpoint>
            <Time>2019-08-01T12:14:48.000Z</Time>
            <Position>
              <LatitudeDegrees>40.78180857002735137939453125</LatitudeDegrees>
              <LongitudeDegrees>-4.001997672021389007568359375</LongitudeDegrees>
            </Position>
            <AltitudeMeters>1738.4000244140625</AltitudeMeters>
            <DistanceMeters>NAN</DistanceMeters>
          </Trackpoint>
          <Trackpoint>
            <Time>2019-08-01T12:14:49.000Z</Time>
            <Position>
              <LatitudeDegrees>40.78183631412684917449951171875</LatitudeDegrees>
              <LongitudeDegrees>-4.002017118036746978759765625</LongitudeDegrees>
            </Position>
            <AltitudeMeters>1738.5999755859375</AltitudeMeters>
            <DistanceMeters>NAN</DistanceMeters>
          </Trackpoint>
          <Trackpoint>
            <Time>2019-08-01T12:14:50.000Z</Time>
            <Position>
              <LatitudeDegrees>40.781864561140537261962890625</LatitudeDegrees>
              <LongitudeDegrees>-4.002035893499851226806640625</LongitudeDegrees>
            </Position>
            <AltitudeMeters>1738.800048828125</AltitudeMeters>
            <DistanceMeters>NAN</DistanceMeters>
          </Trackpoint>
          <Trackpoint>
            <Time>2019-08-01T12:14:51.000Z</Time>
            <Position>
              <LatitudeDegrees>40.78189264051616191864013671875</LatitudeDegrees>
              <LongitudeDegrees>-4.00204955600202083587646484375</LongitudeDegrees>
            </Position>
            <AltitudeMeters>1739.199951171875</AltitudeMeters>
            <DistanceMeters>NAN</DistanceMeters>
          </Trackpoint>
          <Trackpoint>
            <Time>2019-08-01T12:14:52.000Z</Time>
            <Position>
              <LatitudeDegrees>40.78192097134888172149658203125</LatitudeDegrees>
              <LongitudeDegrees>-4.00206170976161956787109375</LongitudeDegrees>
            </Position>
            <AltitudeMeters>1739.4000244140625</AltitudeMeters>
            <DistanceMeters>NAN</DistanceMeters>
          </Trackpoint>
          <Trackpoint>
            <Time>2019-08-01T12:14:53.000Z</Time>
            <Position>
              <LatitudeDegrees>40.78194997273385524749755859375</LatitudeDegrees>
              <LongitudeDegrees>-4.00207512080669403076171875</LongitudeDegrees>
            </Position>
            <AltitudeMeters>1739.5999755859375</AltitudeMeters>
            <DistanceMeters>NAN</DistanceMeters>
          </Trackpoint>
          <Trackpoint>
            <Time>2019-08-01T12:14:54.000Z</Time>
            <Position>
              <LatitudeDegrees>40.78197914175689220428466796875</LatitudeDegrees>
              <LongitudeDegrees>-4.00208610109984874725341796875</LongitudeDegrees>
            </Position>
            <AltitudeMeters>1739.5999755859375</AltitudeMeters>
            <DistanceMeters>NAN</DistanceMeters>
          </Trackpoint>
          <Trackpoint>
            <Time>2019-08-01T12:14:55.000Z</Time>
            <Position>
              <LatitudeDegrees>40.78200831077992916107177734375</LatitudeDegrees>
              <LongitudeDegrees>-4.00209582410752773284912109375</LongitudeDegrees>
            </Position>
            <AltitudeMeters>1739.800048828125</AltitudeMeters>
            <DistanceMeters>NAN</DistanceMeters>
          </Trackpoint>
          <Trackpoint>
            <Time>2019-08-01T12:14:56.000Z</Time>
            <Position>
              <LatitudeDegrees>40.7820384018123149871826171875</LatitudeDegrees>
              <LongitudeDegrees>-4.00210303254425525665283203125</LongitudeDegrees>
            </Position>
            <AltitudeMeters>1740</AltitudeMeters>
            <DistanceMeters>NAN</DistanceMeters>
          </Trackpoint>
          <Trackpoint>
            <Time>2019-08-01T12:14:57.000Z</Time>
            <Position>
              <LatitudeDegrees>40.78206849284470081329345703125</LatitudeDegrees>
              <LongitudeDegrees>-4.00210957042872905731201171875</LongitudeDegrees>
            </Position>
            <AltitudeMeters>1740.4000244140625</AltitudeMeters>
            <DistanceMeters>NAN</DistanceMeters>
          </Trackpoint>
          <Trackpoint>
            <Time>2019-08-01T12:14:58.000Z</Time>
            <Position>
              <LatitudeDegrees>40.78209824860095977783203125</LatitudeDegrees>
              <LongitudeDegrees>-4.00211728177964687347412109375</LongitudeDegrees>
            </Position>
            <AltitudeMeters>1740.800048828125</AltitudeMeters>
            <DistanceMeters>NAN</DistanceMeters>
          </Trackpoint>
          <Trackpoint>
            <Time>2019-08-01T12:14:59.000Z</Time>
            <Position>
              <LatitudeDegrees>40.78212850727140903472900390625</LatitudeDegrees>
              <LongitudeDegrees>-4.00212281383574008941650390625</LongitudeDegrees>
            </Position>
            <AltitudeMeters>1741</AltitudeMeters>
            <DistanceMeters>NAN</DistanceMeters>
          </Trackpoint>
          <Trackpoint>
            <Time>2019-08-01T12:15:00.000Z</Time>
            <Position>
              <LatitudeDegrees>40.78215884976089000701904296875</LatitudeDegrees>
              <LongitudeDegrees>-4.00212817825376987457275390625</LongitudeDegrees>
            </Position>
            <AltitudeMeters>1741.199951171875</AltitudeMeters>
            <DistanceMeters>NAN</DistanceMeters>
          </Trackpoint>
          <Trackpoint>
            <Time>2019-08-01T12:15:01.000Z</Time>
            <Position>
              <LatitudeDegrees>40.782189778983592987060546875</LatitudeDegrees>
              <LongitudeDegrees>-4.00213454850018024444580078125</LongitudeDegrees>
            </Position>
            <AltitudeMeters>1741.4000244140625</AltitudeMeters>
            <DistanceMeters>NAN</DistanceMeters>
          </Trackpoint>
          <Trackpoint>
            <Time>2019-08-01T12:15:02.000Z</Time>
            <Position>
              <LatitudeDegrees>40.78222121112048625946044921875</LatitudeDegrees>
              <LongitudeDegrees>-4.0021410025656223297119140625</LongitudeDegrees>
            </Position>
            <AltitudeMeters>1741.5999755859375</AltitudeMeters>
            <DistanceMeters>NAN</DistanceMeters>
          </Trackpoint>
          <Trackpoint>
            <Time>2019-08-01T12:15:03.000Z</Time>
            <Position>
              <LatitudeDegrees>40.7822519727051258087158203125</LatitudeDegrees>
              <LongitudeDegrees>-4.0021470375359058380126953125</LongitudeDegrees>
            </Position>
            <AltitudeMeters>1741.800048828125</AltitudeMeters>
            <DistanceMeters>NAN</DistanceMeters>
          </Trackpoint>
          <Trackpoint>
            <Time>2019-08-01T12:15:04.000Z</Time>
            <Position>
              <LatitudeDegrees>40.78228172846138477325439453125</LatitudeDegrees>
              <LongitudeDegrees>-4.00215315632522106170654296875</LongitudeDegrees>
            </Position>
            <AltitudeMeters>1742</AltitudeMeters>
            <DistanceMeters>NAN</DistanceMeters>
          </Trackpoint>
          <Trackpoint>
            <Time>2019-08-01T12:15:05.000Z</Time>
            <Position>
              <LatitudeDegrees>40.78231207095086574554443359375</LatitudeDegrees>
              <LongitudeDegrees>-4.00215634144842624664306640625</LongitudeDegrees>
            </Position>
            <AltitudeMeters>1742</AltitudeMeters>
            <DistanceMeters>NAN</DistanceMeters>
          </Trackpoint>
          <Trackpoint>
            <Time>2019-08-01T12:15:06.000Z</Time>
            <Position>
              <LatitudeDegrees>40.7823431678116321563720703125</LatitudeDegrees>
              <LongitudeDegrees>-4.00216070003807544708251953125</LongitudeDegrees>
            </Position>
            <AltitudeMeters>1742.199951171875</AltitudeMeters>
            <DistanceMeters>NAN</DistanceMeters>
          </Trackpoint>
          <Trackpoint>
            <Time>2019-08-01T12:15:07.000Z</Time>
            <Position>
              <LatitudeDegrees>40.78237426467239856719970703125</LatitudeDegrees>
              <LongitudeDegrees>-4.00216639973223209381103515625</LongitudeDegrees>
            </Position>
            <AltitudeMeters>1742.5999755859375</AltitudeMeters>
            <DistanceMeters>NAN</DistanceMeters>
          </Trackpoint>
          <Trackpoint>
            <Time>2019-08-01T12:15:09.000Z</Time>
            <Position>
              <LatitudeDegrees>40.7824373804032802581787109375</LatitudeDegrees>
              <LongitudeDegrees>-4.00217578746378421783447265625</LongitudeDegrees>
            </Position>
            <AltitudeMeters>1743</AltitudeMeters>
            <DistanceMeters>NAN</DistanceMeters>
          </Trackpoint>
          <Trackpoint>
            <Time>2019-08-01T12:15:10.000Z</Time>
            <Position>
              <LatitudeDegrees>40.782468728721141815185546875</LatitudeDegrees>
              <LongitudeDegrees>-4.00217838585376739501953125</LongitudeDegrees>
            </Position>
            <AltitudeMeters>1743.4000244140625</AltitudeMeters>
            <DistanceMeters>NAN</DistanceMeters>
          </Trackpoint>
          <Trackpoint>
            <Time>2019-08-01T12:15:11.000Z</Time>
            <Position>
              <LatitudeDegrees>40.78249999321997165679931640625</LatitudeDegrees>
              <LongitudeDegrees>-4.002182073891162872314453125</LongitudeDegrees>
            </Position>
            <AltitudeMeters>1743.4000244140625</AltitudeMeters>
            <DistanceMeters>NAN</DistanceMeters>
          </Trackpoint>
          <Trackpoint>
            <Time>2019-08-01T12:15:12.000Z</Time>
            <Position>
              <LatitudeDegrees>40.7825307548046112060546875</LatitudeDegrees>
              <LongitudeDegrees>-4.00218643248081207275390625</LongitudeDegrees>
            </Position>
            <AltitudeMeters>1743.5999755859375</AltitudeMeters>
            <DistanceMeters>NAN</DistanceMeters>
          </Trackpoint>
          <Trackpoint>
            <Time>2019-08-01T12:15:13.000Z</Time>
            <Position>
              <LatitudeDegrees>40.782561264932155609130859375</LatitudeDegrees>
              <LongitudeDegrees>-4.0021896176040172576904296875</LongitudeDegrees>
            </Position>
            <AltitudeMeters>1743.800048828125</AltitudeMeters>
            <DistanceMeters>NAN</DistanceMeters>
          </Trackpoint>
          <Trackpoint>
            <Time>2019-08-01T12:15:14.000Z</Time>
            <Position>
              <LatitudeDegrees>40.78259169124066829681396484375</LatitudeDegrees>
              <LongitudeDegrees>-4.00219121016561985015869140625</LongitudeDegrees>
            </Position>
            <AltitudeMeters>1744</AltitudeMeters>
            <DistanceMeters>NAN</DistanceMeters>
          </Trackpoint>
          <Trackpoint>
            <Time>2019-08-01T12:15:15.000Z</Time>
            <Position>
              <LatitudeDegrees>40.78262203373014926910400390625</LatitudeDegrees>
              <LongitudeDegrees>-4.0021919645369052886962890625</LongitudeDegrees>
            </Position>
            <AltitudeMeters>1744.199951171875</AltitudeMeters>
            <DistanceMeters>NAN</DistanceMeters>
          </Trackpoint>
          <Trackpoint>
            <Time>2019-08-01T12:15:16.000Z</Time>
            <Position>
              <LatitudeDegrees>40.7826529629528522491455078125</LatitudeDegrees>
              <LongitudeDegrees>-4.00219447910785675048828125</LongitudeDegrees>
            </Position>
            <AltitudeMeters>1744.4000244140625</AltitudeMeters>
            <DistanceMeters>NAN</DistanceMeters>
          </Trackpoint>
          <Trackpoint>
            <Time>2019-08-01T12:15:17.000Z</Time>
            <Position>
              <LatitudeDegrees>40.782683305442333221435546875</LatitudeDegrees>
              <LongitudeDegrees>-4.00219305418431758880615234375</LongitudeDegrees>
            </Position>
            <AltitudeMeters>1744.4000244140625</AltitudeMeters>
            <DistanceMeters>NAN</DistanceMeters>
          </Trackpoint>
          <Trackpoint>
            <Time>2019-08-01T12:15:18.000Z</Time>
            <Position>
              <LatitudeDegrees>40.78271440230309963226318359375</LatitudeDegrees>
              <LongitudeDegrees>-4.00219154544174671173095703125</LongitudeDegrees>
            </Position>
            <AltitudeMeters>1744.5999755859375</AltitudeMeters>
            <DistanceMeters>NAN</DistanceMeters>
          </Trackpoint>
          <Trackpoint>
            <Time>2019-08-01T12:15:19.000Z</Time>
            <Position>
              <LatitudeDegrees>40.782745666801929473876953125</LatitudeDegrees>
              <LongitudeDegrees>-4.00218836031854152679443359375</LongitudeDegrees>
            </Position>
            <AltitudeMeters>1744.800048828125</AltitudeMeters>
            <DistanceMeters>NAN</DistanceMeters>
          </Trackpoint>
          <Trackpoint>
            <Time>2019-08-01T12:15:20.000Z</Time>
            <Position>
              <LatitudeDegrees>40.7827766798436641693115234375</LatitudeDegrees>
              <LongitudeDegrees>-4.002185426652431488037109375</LongitudeDegrees>
            </Position>
            <AltitudeMeters>1745</AltitudeMeters>
            <DistanceMeters>NAN</DistanceMeters>
          </Trackpoint>
          <Trackpoint>
            <Time>2019-08-01T12:15:21.000Z</Time>
            <Position>
              <LatitudeDegrees>40.7828070223331451416015625</LatitudeDegrees>
              <LongitudeDegrees>-4.0021835826337337493896484375</LongitudeDegrees>
            </Position>
            <AltitudeMeters>1745.4000244140625</AltitudeMeters>
            <DistanceMeters>NAN</DistanceMeters>
          </Trackpoint>
          <Trackpoint>
            <Time>2019-08-01T12:15:22.000Z</Time>
            <Position>
              <LatitudeDegrees>40.782836861908435821533203125</LatitudeDegrees>
              <LongitudeDegrees>-4.00217981077730655670166015625</LongitudeDegrees>
            </Position>
            <AltitudeMeters>1745.4000244140625</AltitudeMeters>
            <DistanceMeters>NAN</DistanceMeters>
          </Trackpoint>
          <Trackpoint>
            <Time>2019-08-01T12:15:23.000Z</Time>
            <Position>
              <LatitudeDegrees>40.78286695294082164764404296875</LatitudeDegrees>
              <LongitudeDegrees>-4.002174697816371917724609375</LongitudeDegrees>
            </Position>
            <AltitudeMeters>1745.5999755859375</AltitudeMeters>
            <DistanceMeters>NAN</DistanceMeters>
          </Trackpoint>
          <Trackpoint>
            <Time>2019-08-01T12:15:24.000Z</Time>
            <Position>
              <LatitudeDegrees>40.78289687633514404296875</LatitudeDegrees>
              <LongitudeDegrees>-4.00216924957931041717529296875</LongitudeDegrees>
            </Position>
            <AltitudeMeters>1746.199951171875</AltitudeMeters>
            <DistanceMeters>NAN</DistanceMeters>
          </Trackpoint>
          <Trackpoint>
            <Time>2019-08-01T12:15:25.000Z</Time>
            <Position>
              <LatitudeDegrees>40.782926715910434722900390625</LatitudeDegrees>
              <LongitudeDegrees>-4.002165980637073516845703125</LongitudeDegrees>
            </Position>
            <AltitudeMeters>1746.5999755859375</AltitudeMeters>
            <DistanceMeters>NAN</DistanceMeters>
          </Trackpoint>
          <Trackpoint>
            <Time>2019-08-01T12:15:26.000Z</Time>
            <Position>
              <LatitudeDegrees>40.7829577289521694183349609375</LatitudeDegrees>
              <LongitudeDegrees>-4.00215961039066314697265625</LongitudeDegrees>
            </Position>
            <AltitudeMeters>1746.800048828125</AltitudeMeters>
            <DistanceMeters>NAN</DistanceMeters>
          </Trackpoint>
          <Trackpoint>
            <Time>2019-08-01T12:15:27.000Z</Time>
            <Position>
              <LatitudeDegrees>40.78298832289874553680419921875</LatitudeDegrees>
              <LongitudeDegrees>-4.0021517314016819000244140625</LongitudeDegrees>
            </Position>
            <AltitudeMeters>1746.800048828125</AltitudeMeters>
            <DistanceMeters>NAN</DistanceMeters>
          </Trackpoint>
          <Trackpoint>
            <Time>2019-08-01T12:15:28.000Z</Time>
            <Position>
              <LatitudeDegrees>40.7830184139311313629150390625</LatitudeDegrees>
              <LongitudeDegrees>-4.00214544497430324554443359375</LongitudeDegrees>
            </Position>
            <AltitudeMeters>1747</AltitudeMeters>
            <DistanceMeters>NAN</DistanceMeters>
          </Trackpoint>
          <Trackpoint>
            <Time>2019-08-01T12:15:29.000Z</Time>
            <Position>
              <LatitudeDegrees>40.783048756420612335205078125</LatitudeDegrees>
              <LongitudeDegrees>-4.00213890708982944488525390625</LongitudeDegrees>
            </Position>
            <AltitudeMeters>1747.199951171875</AltitudeMeters>
            <DistanceMeters>NAN</DistanceMeters>
          </Trackpoint>
          <Trackpoint>
            <Time>2019-08-01T12:15:30.000Z</Time>
            <Position>
              <LatitudeDegrees>40.78307918272912502288818359375</LatitudeDegrees>
              <LongitudeDegrees>-4.0021326206624507904052734375</LongitudeDegrees>
            </Position>
            <AltitudeMeters>1747</AltitudeMeters>
            <DistanceMeters>NAN</DistanceMeters>
          </Trackpoint>
          <Trackpoint>
            <Time>2019-08-01T12:15:31.000Z</Time>
            <Position>
              <LatitudeDegrees>40.783110447227954864501953125</LatitudeDegrees>
              <LongitudeDegrees>-4.0021262504160404205322265625</LongitudeDegrees>
            </Position>
            <AltitudeMeters>1747.199951171875</AltitudeMeters>
            <DistanceMeters>NAN</DistanceMeters>
          </Trackpoint>
          <Trackpoint>
            <Time>2019-08-01T12:15:32.000Z</Time>
            <Position>
              <LatitudeDegrees>40.78314137645065784454345703125</LatitudeDegrees>
              <LongitudeDegrees>-4.002121053636074066162109375</LongitudeDegrees>
            </Position>
            <AltitudeMeters>1747.199951171875</AltitudeMeters>
            <DistanceMeters>NAN</DistanceMeters>
          </Trackpoint>
          <Trackpoint>
            <Time>2019-08-01T12:15:33.000Z</Time>
            <Position>
              <LatitudeDegrees>40.78317138366401195526123046875</LatitudeDegrees>
              <LongitudeDegrees>-4.0021173655986785888671875</LongitudeDegrees>
            </Position>
            <AltitudeMeters>1747.5999755859375</AltitudeMeters>
            <DistanceMeters>NAN</DistanceMeters>
          </Trackpoint>
          <Trackpoint>
            <Time>2019-08-01T12:15:34.000Z</Time>
            <Position>
              <LatitudeDegrees>40.7832014746963977813720703125</LatitudeDegrees>
              <LongitudeDegrees>-4.0021121688187122344970703125</LongitudeDegrees>
            </Position>
            <AltitudeMeters>1747.5999755859375</AltitudeMeters>
            <DistanceMeters>NAN</DistanceMeters>
          </Trackpoint>
          <Trackpoint>
            <Time>2019-08-01T12:15:35.000Z</Time>
            <Position>
              <LatitudeDegrees>40.7832313142716884613037109375</LatitudeDegrees>
              <LongitudeDegrees>-4.00210403837263584136962890625</LongitudeDegrees>
            </Position>
            <AltitudeMeters>1747.800048828125</AltitudeMeters>
            <DistanceMeters>NAN</DistanceMeters>
          </Trackpoint>
          <Trackpoint>
            <Time>2019-08-01T12:15:36.000Z</Time>
            <Position>
              <LatitudeDegrees>40.78326165676116943359375</LatitudeDegrees>
              <LongitudeDegrees>-4.0020964108407497406005859375</LongitudeDegrees>
            </Position>
            <AltitudeMeters>1748</AltitudeMeters>
            <DistanceMeters>NAN</DistanceMeters>
          </Trackpoint>
          <Trackpoint>
            <Time>2019-08-01T12:15:37.000Z</Time>
            <Position>
              <LatitudeDegrees>40.78329174779355525970458984375</LatitudeDegrees>
              <LongitudeDegrees>-4.0020878612995147705078125</LongitudeDegrees>
            </Position>
            <AltitudeMeters>1748.199951171875</AltitudeMeters>
            <DistanceMeters>NAN</DistanceMeters>
          </Trackpoint>
          <Trackpoint>
            <Time>2019-08-01T12:15:38.000Z</Time>
            <Position>
              <LatitudeDegrees>40.78332292847335338592529296875</LatitudeDegrees>
              <LongitudeDegrees>-4.00207889266312122344970703125</LongitudeDegrees>
            </Position>
            <AltitudeMeters>1748.4000244140625</AltitudeMeters>
            <DistanceMeters>NAN</DistanceMeters>
          </Trackpoint>
          <Trackpoint>
            <Time>2019-08-01T12:15:39.000Z</Time>
            <Position>
              <LatitudeDegrees>40.78335394151508808135986328125</LatitudeDegrees>
              <LongitudeDegrees>-4.0020685829222202301025390625</LongitudeDegrees>
            </Position>
            <AltitudeMeters>1748.5999755859375</AltitudeMeters>
            <DistanceMeters>NAN</DistanceMeters>
          </Trackpoint>
          <Trackpoint>
            <Time>2019-08-01T12:15:40.000Z</Time>
            <Position>
              <LatitudeDegrees>40.78338411636650562286376953125</LatitudeDegrees>
              <LongitudeDegrees>-4.00205844081938266754150390625</LongitudeDegrees>
            </Position>
            <AltitudeMeters>1748.800048828125</AltitudeMeters>
            <DistanceMeters>NAN</DistanceMeters>
          </Trackpoint>
          <Trackpoint>
            <Time>2019-08-01T12:15:41.000Z</Time>
            <Position>
              <LatitudeDegrees>40.78341395594179630279541015625</LatitudeDegrees>
              <LongitudeDegrees>-4.00205005891621112823486328125</LongitudeDegrees>
            </Position>
            <AltitudeMeters>1749.199951171875</AltitudeMeters>
            <DistanceMeters>NAN</DistanceMeters>
          </Trackpoint>
          <Trackpoint>
            <Time>2019-08-01T12:15:42.000Z</Time>
            <Position>
              <LatitudeDegrees>40.78344337642192840576171875</LatitudeDegrees>
              <LongitudeDegrees>-4.00204352103173732757568359375</LongitudeDegrees>
            </Position>
            <AltitudeMeters>1749.4000244140625</AltitudeMeters>
            <DistanceMeters>NAN</DistanceMeters>
          </Trackpoint>
          <Trackpoint>
            <Time>2019-08-01T12:15:43.000Z</Time>
            <Position>
              <LatitudeDegrees>40.78347288072109222412109375</LatitudeDegrees>
              <LongitudeDegrees>-4.00203597731888294219970703125</LongitudeDegrees>
            </Position>
            <AltitudeMeters>1749.5999755859375</AltitudeMeters>
            <DistanceMeters>NAN</DistanceMeters>
          </Trackpoint>
          <Trackpoint>
            <Time>2019-08-01T12:15:44.000Z</Time>
            <Position>
              <LatitudeDegrees>40.78350129537284374237060546875</LatitudeDegrees>
              <LongitudeDegrees>-4.00202692486345767974853515625</LongitudeDegrees>
            </Position>
            <AltitudeMeters>1749.800048828125</AltitudeMeters>
            <DistanceMeters>NAN</DistanceMeters>
          </Trackpoint>
          <Trackpoint>
            <Time>2019-08-01T12:15:45.000Z</Time>
            <Position>
              <LatitudeDegrees>40.7835270278155803680419921875</LatitudeDegrees>
              <LongitudeDegrees>-4.00201736949384212493896484375</LongitudeDegrees>
            </Position>
            <AltitudeMeters>1749.800048828125</AltitudeMeters>
            <DistanceMeters>NAN</DistanceMeters>
          </Trackpoint>
          <Trackpoint>
            <Time>2019-08-01T12:15:46.000Z</Time>
            <Position>
              <LatitudeDegrees>40.78354991041123867034912109375</LatitudeDegrees>
              <LongitudeDegrees>-4.00200714357197284698486328125</LongitudeDegrees>
            </Position>
            <AltitudeMeters>1750</AltitudeMeters>
            <DistanceMeters>NAN</DistanceMeters>
          </Trackpoint>
          <Trackpoint>
            <Time>2019-08-01T12:15:47.000Z</Time>
            <Position>
              <LatitudeDegrees>40.78357346355915069580078125</LatitudeDegrees>
              <LongitudeDegrees>-4.001998007297515869140625</LongitudeDegrees>
            </Position>
            <AltitudeMeters>1750.199951171875</AltitudeMeters>
            <DistanceMeters>NAN</DistanceMeters>
          </Trackpoint>
          <Trackpoint>
            <Time>2019-08-01T12:15:48.000Z</Time>
            <Position>
              <LatitudeDegrees>40.783595256507396697998046875</LatitudeDegrees>
              <LongitudeDegrees>-4.0019897930324077606201171875</LongitudeDegrees>
            </Position>
            <AltitudeMeters>1750.4000244140625</AltitudeMeters>
            <DistanceMeters>NAN</DistanceMeters>
          </Trackpoint>
          <Trackpoint>
            <Time>2019-08-01T12:15:49.000Z</Time>
            <Position>
              <LatitudeDegrees>40.783615373075008392333984375</LatitudeDegrees>
              <LongitudeDegrees>-4.0019830875098705291748046875</LongitudeDegrees>
            </Position>
            <AltitudeMeters>1750.5999755859375</AltitudeMeters>
            <DistanceMeters>NAN</DistanceMeters>
          </Trackpoint>
          <Trackpoint>
            <Time>2019-08-01T12:15:50.000Z</Time>
            <Position>
              <LatitudeDegrees>40.78363825567066669464111328125</LatitudeDegrees>
              <LongitudeDegrees>-4.00197948329150676727294921875</LongitudeDegrees>
            </Position>
            <AltitudeMeters>1750.800048828125</AltitudeMeters>
            <DistanceMeters>NAN</DistanceMeters>
          </Trackpoint>
          <Trackpoint>
            <Time>2019-08-01T12:15:51.000Z</Time>
            <Position>
              <LatitudeDegrees>40.7836641557514667510986328125</LatitudeDegrees>
              <LongitudeDegrees>-4.001975543797016143798828125</LongitudeDegrees>
            </Position>
            <AltitudeMeters>1751</AltitudeMeters>
            <DistanceMeters>NAN</DistanceMeters>
          </Trackpoint>
          <Trackpoint>
            <Time>2019-08-01T12:15:52.000Z</Time>
            <Position>
              <LatitudeDegrees>40.7836882956326007843017578125</LatitudeDegrees>
              <LongitudeDegrees>-4.00196925736963748931884765625</LongitudeDegrees>
            </Position>
            <AltitudeMeters>1751.4000244140625</AltitudeMeters>
            <DistanceMeters>NAN</DistanceMeters>
          </Trackpoint>
          <Trackpoint>
            <Time>2019-08-01T12:15:53.000Z</Time>
            <Position>
              <LatitudeDegrees>40.7837097533047199249267578125</LatitudeDegrees>
              <LongitudeDegrees>-4.0019602887332439422607421875</LongitudeDegrees>
            </Position>
            <AltitudeMeters>1751.5999755859375</AltitudeMeters>
            <DistanceMeters>NAN</DistanceMeters>
          </Trackpoint>
          <Trackpoint>
            <Time>2019-08-01T12:15:54.000Z</Time>
            <Position>
              <LatitudeDegrees>40.7837325520813465118408203125</LatitudeDegrees>
              <LongitudeDegrees>-4.00194830261170864105224609375</LongitudeDegrees>
            </Position>
            <AltitudeMeters>1752</AltitudeMeters>
            <DistanceMeters>NAN</DistanceMeters>
          </Trackpoint>
          <Trackpoint>
            <Time>2019-08-01T12:15:55.000Z</Time>
            <Position>
              <LatitudeDegrees>40.78375526703894138336181640625</LatitudeDegrees>
              <LongitudeDegrees>-4.0019351430237293243408203125</LongitudeDegrees>
            </Position>
            <AltitudeMeters>1752.4000244140625</AltitudeMeters>
            <DistanceMeters>NAN</DistanceMeters>
          </Trackpoint>
          <Trackpoint>
            <Time>2019-08-01T12:15:56.000Z</Time>
            <Position>
              <LatitudeDegrees>40.7837781496345996856689453125</LatitudeDegrees>
              <LongitudeDegrees>-4.00192089378833770751953125</LongitudeDegrees>
            </Position>
            <AltitudeMeters>1752.4000244140625</AltitudeMeters>
            <DistanceMeters>NAN</DistanceMeters>
          </Trackpoint>
          <Trackpoint>
            <Time>2019-08-01T12:15:57.000Z</Time>
            <Position>
              <LatitudeDegrees>40.7837999425828456878662109375</LatitudeDegrees>
              <LongitudeDegrees>-4.001905806362628936767578125</LongitudeDegrees>
            </Position>
            <AltitudeMeters>1752.5999755859375</AltitudeMeters>
            <DistanceMeters>NAN</DistanceMeters>
          </Trackpoint>
          <Trackpoint>
            <Time>2019-08-01T12:15:58.000Z</Time>
            <Position>
              <LatitudeDegrees>40.78382282517850399017333984375</LatitudeDegrees>
              <LongitudeDegrees>-4.00188996456563472747802734375</LongitudeDegrees>
            </Position>
            <AltitudeMeters>1752.800048828125</AltitudeMeters>
            <DistanceMeters>NAN</DistanceMeters>
          </Trackpoint>
          <Trackpoint>
            <Time>2019-08-01T12:15:59.000Z</Time>
            <Position>
              <LatitudeDegrees>40.783843696117401123046875</LatitudeDegrees>
              <LongitudeDegrees>-4.001874625682830810546875</LongitudeDegrees>
            </Position>
            <AltitudeMeters>1753</AltitudeMeters>
            <DistanceMeters>NAN</DistanceMeters>
          </Trackpoint>
          <Trackpoint>
            <Time>2019-08-01T12:16:00.000Z</Time>
            <Position>
              <LatitudeDegrees>40.78386322595179080963134765625</LatitudeDegrees>
              <LongitudeDegrees>-4.00185844860970973968505859375</LongitudeDegrees>
            </Position>
            <AltitudeMeters>1753.199951171875</AltitudeMeters>
            <DistanceMeters>NAN</DistanceMeters>
          </Trackpoint>
          <Trackpoint>
            <Time>2019-08-01T12:16:01.000Z</Time>
            <Position>
              <LatitudeDegrees>40.7838825881481170654296875</LatitudeDegrees>
              <LongitudeDegrees>-4.00184101425111293792724609375</LongitudeDegrees>
            </Position>
            <AltitudeMeters>1753.4000244140625</AltitudeMeters>
            <DistanceMeters>NAN</DistanceMeters>
          </Trackpoint>
          <Trackpoint>
            <Time>2019-08-01T12:16:02.000Z</Time>
            <Position>
              <LatitudeDegrees>40.78390337526798248291015625</LatitudeDegrees>
              <LongitudeDegrees>-4.0018228255212306976318359375</LongitudeDegrees>
            </Position>
            <AltitudeMeters>1753.5999755859375</AltitudeMeters>
            <DistanceMeters>NAN</DistanceMeters>
          </Trackpoint>
          <Trackpoint>
            <Time>2019-08-01T12:16:03.000Z</Time>
            <Position>
              <LatitudeDegrees>40.78392541967332363128662109375</LatitudeDegrees>
              <LongitudeDegrees>-4.00180446915328502655029296875</LongitudeDegrees>
            </Position>
            <AltitudeMeters>1754</AltitudeMeters>
            <DistanceMeters>NAN</DistanceMeters>
          </Trackpoint>
          <Trackpoint>
            <Time>2019-08-01T12:16:04.000Z</Time>
            <Position>
              <LatitudeDegrees>40.7839451171457767486572265625</LatitudeDegrees>
              <LongitudeDegrees>-4.001786448061466217041015625</LongitudeDegrees>
            </Position>
            <AltitudeMeters>1754.199951171875</AltitudeMeters>
            <DistanceMeters>NAN</DistanceMeters>
          </Trackpoint>
          <Trackpoint>
            <Time>2019-08-01T12:16:05.000Z</Time>
            <Position>
              <LatitudeDegrees>40.78396498225629329681396484375</LatitudeDegrees>
              <LongitudeDegrees>-4.00176859460771083831787109375</LongitudeDegrees>
            </Position>
            <AltitudeMeters>1754.5999755859375</AltitudeMeters>
            <DistanceMeters>NAN</DistanceMeters>
          </Trackpoint>
          <Trackpoint>
            <Time>2019-08-01T12:16:06.000Z</Time>
            <Position>
              <LatitudeDegrees>40.783983506262302398681640625</LatitudeDegrees>
              <LongitudeDegrees>-4.0017507411539554595947265625</LongitudeDegrees>
            </Position>
            <AltitudeMeters>1754.800048828125</AltitudeMeters>
            <DistanceMeters>NAN</DistanceMeters>
          </Trackpoint>
          <Trackpoint>
            <Time>2019-08-01T12:16:07.000Z</Time>
            <Position>
              <LatitudeDegrees>40.78400052152574062347412109375</LatitudeDegrees>
              <LongitudeDegrees>-4.001731462776660919189453125</LongitudeDegrees>
            </Position>
            <AltitudeMeters>1755</AltitudeMeters>
            <DistanceMeters>NAN</DistanceMeters>
          </Trackpoint>
          <Trackpoint>
            <Time>2019-08-01T12:16:08.000Z</Time>
            <Position>
              <LatitudeDegrees>40.784017704427242279052734375</LatitudeDegrees>
              <LongitudeDegrees>-4.00171101093292236328125</LongitudeDegrees>
            </Position>
            <AltitudeMeters>1755.199951171875</AltitudeMeters>
            <DistanceMeters>NAN</DistanceMeters>
          </Trackpoint>
          <Trackpoint>
            <Time>2019-08-01T12:16:09.000Z</Time>
            <Position>
              <LatitudeDegrees>40.78403522260487079620361328125</LatitudeDegrees>
              <LongitudeDegrees>-4.00168955326080322265625</LongitudeDegrees>
            </Position>
            <AltitudeMeters>1755.4000244140625</AltitudeMeters>
            <DistanceMeters>NAN</DistanceMeters>
          </Trackpoint>
          <Trackpoint>
            <Time>2019-08-01T12:16:10.000Z</Time>
            <Position>
              <LatitudeDegrees>40.784053243696689605712890625</LatitudeDegrees>
              <LongitudeDegrees>-4.0016675926744937896728515625</LongitudeDegrees>
            </Position>
            <AltitudeMeters>1755.5999755859375</AltitudeMeters>
            <DistanceMeters>NAN</DistanceMeters>
          </Trackpoint>
          <Trackpoint>
            <Time>2019-08-01T12:16:11.000Z</Time>
            <Position>
              <LatitudeDegrees>40.7840711809694766998291015625</LatitudeDegrees>
              <LongitudeDegrees>-4.001646302640438079833984375</LongitudeDegrees>
            </Position>
            <AltitudeMeters>1756</AltitudeMeters>
            <DistanceMeters>NAN</DistanceMeters>
          </Trackpoint>
          <Trackpoint>
            <Time>2019-08-01T12:16:12.000Z</Time>
            <Position>
              <LatitudeDegrees>40.78408769331872463226318359375</LatitudeDegrees>
              <LongitudeDegrees>-4.001624844968318939208984375</LongitudeDegrees>
            </Position>
            <AltitudeMeters>1756</AltitudeMeters>
            <DistanceMeters>NAN</DistanceMeters>
          </Trackpoint>
          <Trackpoint>
            <Time>2019-08-01T12:16:13.000Z</Time>
            <Position>
              <LatitudeDegrees>40.7841033674776554107666015625</LatitudeDegrees>
              <LongitudeDegrees>-4.00160229764878749847412109375</LongitudeDegrees>
            </Position>
            <AltitudeMeters>1756.4000244140625</AltitudeMeters>
            <DistanceMeters>NAN</DistanceMeters>
          </Trackpoint>
          <Trackpoint>
            <Time>2019-08-01T12:16:14.000Z</Time>
            <Position>
              <LatitudeDegrees>40.78411954455077648162841796875</LatitudeDegrees>
              <LongitudeDegrees>-4.00158050470054149627685546875</LongitudeDegrees>
            </Position>
            <AltitudeMeters>1757</AltitudeMeters>
            <DistanceMeters>NAN</DistanceMeters>
          </Trackpoint>
          <Trackpoint>
            <Time>2019-08-01T12:16:15.000Z</Time>
            <Position>
              <LatitudeDegrees>40.78413580544292926788330078125</LatitudeDegrees>
              <LongitudeDegrees>-4.0015576221048831939697265625</LongitudeDegrees>
            </Position>
            <AltitudeMeters>1757.199951171875</AltitudeMeters>
            <DistanceMeters>NAN</DistanceMeters>
          </Trackpoint>
          <Trackpoint>
            <Time>2019-08-01T12:16:16.000Z</Time>
            <Position>
              <LatitudeDegrees>40.78415223397314548492431640625</LatitudeDegrees>
              <LongitudeDegrees>-4.0015351586043834686279296875</LongitudeDegrees>
            </Position>
            <AltitudeMeters>1757.4000244140625</AltitudeMeters>
            <DistanceMeters>NAN</DistanceMeters>
          </Trackpoint>
          <Trackpoint>
            <Time>2019-08-01T12:16:17.000Z</Time>
            <Position>
              <LatitudeDegrees>40.78416799195110797882080078125</LatitudeDegrees>
              <LongitudeDegrees>-4.001514203846454620361328125</LongitudeDegrees>
            </Position>
            <AltitudeMeters>1757.5999755859375</AltitudeMeters>
            <DistanceMeters>NAN</DistanceMeters>
          </Trackpoint>
          <Trackpoint>
            <Time>2019-08-01T12:16:18.000Z</Time>
            <Position>
              <LatitudeDegrees>40.784181989729404449462890625</LatitudeDegrees>
              <LongitudeDegrees>-4.00149232707917690277099609375</LongitudeDegrees>
            </Position>
            <AltitudeMeters>1757.5999755859375</AltitudeMeters>
            <DistanceMeters>NAN</DistanceMeters>
          </Trackpoint>
          <Trackpoint>
            <Time>2019-08-01T12:16:19.000Z</Time>
            <Position>
              <LatitudeDegrees>40.784196071326732635498046875</LatitudeDegrees>
              <LongitudeDegrees>-4.0014691092073917388916015625</LongitudeDegrees>
            </Position>
            <AltitudeMeters>1757.800048828125</AltitudeMeters>
            <DistanceMeters>NAN</DistanceMeters>
          </Trackpoint>
          <Trackpoint>
            <Time>2019-08-01T12:16:20.000Z</Time>
            <Position>
              <LatitudeDegrees>40.7842116616666316986083984375</LatitudeDegrees>
              <LongitudeDegrees>-4.0014449693262577056884765625</LongitudeDegrees>
            </Position>
            <AltitudeMeters>1758.199951171875</AltitudeMeters>
            <DistanceMeters>NAN</DistanceMeters>
          </Trackpoint>
          <Trackpoint>
            <Time>2019-08-01T12:16:21.000Z</Time>
            <Position>
              <LatitudeDegrees>40.784227587282657623291015625</LatitudeDegrees>
              <LongitudeDegrees>-4.00142091326415538787841796875</LongitudeDegrees>
            </Position>
            <AltitudeMeters>1758.199951171875</AltitudeMeters>
            <DistanceMeters>NAN</DistanceMeters>
          </Trackpoint>
          <Trackpoint>
            <Time>2019-08-01T12:16:22.000Z</Time>
            <Position>
              <LatitudeDegrees>40.78424225561320781707763671875</LatitudeDegrees>
              <LongitudeDegrees>-4.0013990364968776702880859375</LongitudeDegrees>
            </Position>
            <AltitudeMeters>1758.5999755859375</AltitudeMeters>
            <DistanceMeters>NAN</DistanceMeters>
          </Trackpoint>
          <Trackpoint>
            <Time>2019-08-01T12:16:23.000Z</Time>
            <Position>
              <LatitudeDegrees>40.784257762134075164794921875</LatitudeDegrees>
              <LongitudeDegrees>-4.00137598626315593719482421875</LongitudeDegrees>
            </Position>
            <AltitudeMeters>1758.800048828125</AltitudeMeters>
            <DistanceMeters>NAN</DistanceMeters>
          </Trackpoint>
          <Trackpoint>
            <Time>2019-08-01T12:16:24.000Z</Time>
            <Position>
              <LatitudeDegrees>40.7842696644365787506103515625</LatitudeDegrees>
              <LongitudeDegrees>-4.00135369040071964263916015625</LongitudeDegrees>
            </Position>
            <AltitudeMeters>1758.800048828125</AltitudeMeters>
            <DistanceMeters>NAN</DistanceMeters>
          </Trackpoint>
          <Trackpoint>
            <Time>2019-08-01T12:16:25.000Z</Time>
            <Position>
              <LatitudeDegrees>40.7842822372913360595703125</LatitudeDegrees>
              <LongitudeDegrees>-4.00133390910923480987548828125</LongitudeDegrees>
            </Position>
            <AltitudeMeters>1759</AltitudeMeters>
            <DistanceMeters>NAN</DistanceMeters>
          </Trackpoint>
          <Trackpoint>
            <Time>2019-08-01T12:16:26.000Z</Time>
            <Position>
              <LatitudeDegrees>40.78429388813674449920654296875</LatitudeDegrees>
              <LongitudeDegrees>-4.001312367618083953857421875</LongitudeDegrees>
            </Position>
            <AltitudeMeters>1759.199951171875</AltitudeMeters>
            <DistanceMeters>NAN</DistanceMeters>
          </Trackpoint>
          <Trackpoint>
            <Time>2019-08-01T12:16:27.000Z</Time>
            <Position>
              <LatitudeDegrees>40.7843065448105335235595703125</LatitudeDegrees>
              <LongitudeDegrees>-4.00128931738436222076416015625</LongitudeDegrees>
            </Position>
            <AltitudeMeters>1759.4000244140625</AltitudeMeters>
            <DistanceMeters>NAN</DistanceMeters>
          </Trackpoint>
          <Trackpoint>
            <Time>2019-08-01T12:16:28.000Z</Time>
            <Position>
              <LatitudeDegrees>40.78431953676044940948486328125</LatitudeDegrees>
              <LongitudeDegrees>-4.00126685388386249542236328125</LongitudeDegrees>
            </Position>
            <AltitudeMeters>1759.800048828125</AltitudeMeters>
            <DistanceMeters>NAN</DistanceMeters>
          </Trackpoint>
          <Trackpoint>
            <Time>2019-08-01T12:16:29.000Z</Time>
            <Position>
              <LatitudeDegrees>40.78433294780552387237548828125</LatitudeDegrees>
              <LongitudeDegrees>-4.00124363601207733154296875</LongitudeDegrees>
            </Position>
            <AltitudeMeters>1759.800048828125</AltitudeMeters>
            <DistanceMeters>NAN</DistanceMeters>
          </Trackpoint>
          <Trackpoint>
            <Time>2019-08-01T12:16:30.000Z</Time>
            <Position>
              <LatitudeDegrees>40.7843494601547718048095703125</LatitudeDegrees>
              <LongitudeDegrees>-4.00121924467384815216064453125</LongitudeDegrees>
            </Position>
            <AltitudeMeters>1760.199951171875</AltitudeMeters>
            <DistanceMeters>NAN</DistanceMeters>
          </Trackpoint>
          <Trackpoint>
            <Time>2019-08-01T12:16:31.000Z</Time>
            <Position>
              <LatitudeDegrees>40.78436530195176601409912109375</LatitudeDegrees>
              <LongitudeDegrees>-4.00119259022176265716552734375</LongitudeDegrees>
            </Position>
            <AltitudeMeters>1760.5999755859375</AltitudeMeters>
            <DistanceMeters>NAN</DistanceMeters>
          </Trackpoint>
          <Trackpoint>
            <Time>2019-08-01T12:16:32.000Z</Time>
            <Position>
              <LatitudeDegrees>40.78437938354909420013427734375</LatitudeDegrees>
              <LongitudeDegrees>-4.001166187226772308349609375</LongitudeDegrees>
            </Position>
            <AltitudeMeters>1760.800048828125</AltitudeMeters>
            <DistanceMeters>NAN</DistanceMeters>
          </Trackpoint>
          <Trackpoint>
            <Time>2019-08-01T12:16:33.000Z</Time>
            <Position>
              <LatitudeDegrees>40.78439556062221527099609375</LatitudeDegrees>
              <LongitudeDegrees>-4.0011405386030673980712890625</LongitudeDegrees>
            </Position>
            <AltitudeMeters>1761.199951171875</AltitudeMeters>
            <DistanceMeters>NAN</DistanceMeters>
          </Trackpoint>
          <Trackpoint>
            <Time>2019-08-01T12:16:34.000Z</Time>
            <Position>
              <LatitudeDegrees>40.7844118215143680572509765625</LatitudeDegrees>
              <LongitudeDegrees>-4.0011153928935527801513671875</LongitudeDegrees>
            </Position>
            <AltitudeMeters>1761.4000244140625</AltitudeMeters>
            <DistanceMeters>NAN</DistanceMeters>
          </Trackpoint>
          <Trackpoint>
            <Time>2019-08-01T12:16:35.000Z</Time>
            <Position>
              <LatitudeDegrees>40.78442816622555255889892578125</LatitudeDegrees>
              <LongitudeDegrees>-4.0010902471840381622314453125</LongitudeDegrees>
            </Position>
            <AltitudeMeters>1761.5999755859375</AltitudeMeters>
            <DistanceMeters>NAN</DistanceMeters>
          </Trackpoint>
          <Trackpoint>
            <Time>2019-08-01T12:16:36.000Z</Time>
            <Position>
              <LatitudeDegrees>40.7844436727464199066162109375</LatitudeDegrees>
              <LongitudeDegrees>-4.0010664425790309906005859375</LongitudeDegrees>
            </Position>
            <AltitudeMeters>1761.800048828125</AltitudeMeters>
            <DistanceMeters>NAN</DistanceMeters>
          </Trackpoint>
          <Trackpoint>
            <Time>2019-08-01T12:16:37.000Z</Time>
            <Position>
              <LatitudeDegrees>40.78446102328598499298095703125</LatitudeDegrees>
              <LongitudeDegrees>-4.0010423026978969573974609375</LongitudeDegrees>
            </Position>
            <AltitudeMeters>1762</AltitudeMeters>
            <DistanceMeters>NAN</DistanceMeters>
          </Trackpoint>
          <Trackpoint>
            <Time>2019-08-01T12:16:38.000Z</Time>
            <Position>
              <LatitudeDegrees>40.7844792120158672332763671875</LatitudeDegrees>
              <LongitudeDegrees>-4.00101824663579463958740234375</LongitudeDegrees>
            </Position>
            <AltitudeMeters>1762.4000244140625</AltitudeMeters>
            <DistanceMeters>NAN</DistanceMeters>
          </Trackpoint>
          <Trackpoint>
            <Time>2019-08-01T12:16:39.000Z</Time>
            <Position>
              <LatitudeDegrees>40.78449706546962261199951171875</LatitudeDegrees>
              <LongitudeDegrees>-4.00099745951592922210693359375</LongitudeDegrees>
            </Position>
            <AltitudeMeters>1762.5999755859375</AltitudeMeters>
            <DistanceMeters>NAN</DistanceMeters>
          </Trackpoint>
          <Trackpoint>
            <Time>2019-08-01T12:16:40.000Z</Time>
            <Position>
              <LatitudeDegrees>40.784513242542743682861328125</LatitudeDegrees>
              <LongitudeDegrees>-4.000975750386714935302734375</LongitudeDegrees>
            </Position>
            <AltitudeMeters>1763</AltitudeMeters>
            <DistanceMeters>NAN</DistanceMeters>
          </Trackpoint>
          <Trackpoint>
            <Time>2019-08-01T12:16:41.000Z</Time>
            <Position>
              <LatitudeDegrees>40.78452791087329387664794921875</LatitudeDegrees>
              <LongitudeDegrees>-4.0009524486958980560302734375</LongitudeDegrees>
            </Position>
            <AltitudeMeters>1763.199951171875</AltitudeMeters>
            <DistanceMeters>NAN</DistanceMeters>
          </Trackpoint>
          <Trackpoint>
            <Time>2019-08-01T12:16:42.000Z</Time>
            <Position>
              <LatitudeDegrees>40.784544087946414947509765625</LatitudeDegrees>
              <LongitudeDegrees>-4.00092889554798603057861328125</LongitudeDegrees>
            </Position>
            <AltitudeMeters>1763.4000244140625</AltitudeMeters>
            <DistanceMeters>NAN</DistanceMeters>
          </Trackpoint>
          <Trackpoint>
            <Time>2019-08-01T12:16:43.000Z</Time>
            <Position>
              <LatitudeDegrees>40.78455984592437744140625</LatitudeDegrees>
              <LongitudeDegrees>-4.00090592913329601287841796875</LongitudeDegrees>
            </Position>
            <AltitudeMeters>1763.5999755859375</AltitudeMeters>
            <DistanceMeters>NAN</DistanceMeters>
          </Trackpoint>
          <Trackpoint>
            <Time>2019-08-01T12:16:44.000Z</Time>
            <Position>
              <LatitudeDegrees>40.7845797948539257049560546875</LatitudeDegrees>
              <LongitudeDegrees>-4.00088422000408172607421875</LongitudeDegrees>
            </Position>
            <AltitudeMeters>1763.800048828125</AltitudeMeters>
            <DistanceMeters>NAN</DistanceMeters>
          </Trackpoint>
          <Trackpoint>
            <Time>2019-08-01T12:16:45.000Z</Time>
            <Position>
              <LatitudeDegrees>40.78459748066961765289306640625</LatitudeDegrees>
              <LongitudeDegrees>-4.00086301378905773162841796875</LongitudeDegrees>
            </Position>
            <AltitudeMeters>1764</AltitudeMeters>
            <DistanceMeters>NAN</DistanceMeters>
          </Trackpoint>
          <Trackpoint>
            <Time>2019-08-01T12:16:46.000Z</Time>
            <Position>
              <LatitudeDegrees>40.7846139930188655853271484375</LatitudeDegrees>
              <LongitudeDegrees>-4.0008384548127651214599609375</LongitudeDegrees>
            </Position>
            <AltitudeMeters>1764.199951171875</AltitudeMeters>
            <DistanceMeters>NAN</DistanceMeters>
          </Trackpoint>
          <Trackpoint>
            <Time>2019-08-01T12:16:47.000Z</Time>
            <Position>
              <LatitudeDegrees>40.78463251702487468719482421875</LatitudeDegrees>
              <LongitudeDegrees>-4.0008143149316310882568359375</LongitudeDegrees>
            </Position>
            <AltitudeMeters>1764.5999755859375</AltitudeMeters>
            <DistanceMeters>NAN</DistanceMeters>
          </Trackpoint>
          <Trackpoint>
            <Time>2019-08-01T12:16:48.000Z</Time>
            <Position>
              <LatitudeDegrees>40.7846508733928203582763671875</LatitudeDegrees>
              <LongitudeDegrees>-4.0007925219833850860595703125</LongitudeDegrees>
            </Position>
            <AltitudeMeters>1764.800048828125</AltitudeMeters>
            <DistanceMeters>NAN</DistanceMeters>
          </Trackpoint>
          <Trackpoint>
            <Time>2019-08-01T12:16:49.000Z</Time>
            <Position>
              <LatitudeDegrees>40.784670151770114898681640625</LatitudeDegrees>
              <LongitudeDegrees>-4.0007693879306316375732421875</LongitudeDegrees>
            </Position>
            <AltitudeMeters>1765</AltitudeMeters>
            <DistanceMeters>NAN</DistanceMeters>
          </Trackpoint>
          <Trackpoint>
            <Time>2019-08-01T12:16:50.000Z</Time>
            <Position>
              <LatitudeDegrees>40.78468733467161655426025390625</LatitudeDegrees>
              <LongitudeDegrees>-4.00074600242078304290771484375</LongitudeDegrees>
            </Position>
            <AltitudeMeters>1765.199951171875</AltitudeMeters>
            <DistanceMeters>NAN</DistanceMeters>
          </Trackpoint>
          <Trackpoint>
            <Time>2019-08-01T12:16:51.000Z</Time>
            <Position>
              <LatitudeDegrees>40.78470326028764247894287109375</LatitudeDegrees>
              <LongitudeDegrees>-4.00072186253964900970458984375</LongitudeDegrees>
            </Position>
            <AltitudeMeters>1765.4000244140625</AltitudeMeters>
            <DistanceMeters>NAN</DistanceMeters>
          </Trackpoint>
          <Trackpoint>
            <Time>2019-08-01T12:16:52.000Z</Time>
            <Position>
              <LatitudeDegrees>40.78472019173204898834228515625</LatitudeDegrees>
              <LongitudeDegrees>-4.000698141753673553466796875</LongitudeDegrees>
            </Position>
            <AltitudeMeters>1765.800048828125</AltitudeMeters>
            <DistanceMeters>NAN</DistanceMeters>
          </Trackpoint>
          <Trackpoint>
            <Time>2019-08-01T12:16:53.000Z</Time>
            <Position>
              <LatitudeDegrees>40.78473745845258235931396484375</LatitudeDegrees>
              <LongitudeDegrees>-4.00067626498639583587646484375</LongitudeDegrees>
            </Position>
            <AltitudeMeters>1766.199951171875</AltitudeMeters>
            <DistanceMeters>NAN</DistanceMeters>
          </Trackpoint>
          <Trackpoint>
            <Time>2019-08-01T12:16:54.000Z</Time>
            <Position>
              <LatitudeDegrees>40.7847554795444011688232421875</LatitudeDegrees>
              <LongitudeDegrees>-4.00065514259040355682373046875</LongitudeDegrees>
            </Position>
            <AltitudeMeters>1766.199951171875</AltitudeMeters>
            <DistanceMeters>NAN</DistanceMeters>
          </Trackpoint>
          <Trackpoint>
            <Time>2019-08-01T12:16:55.000Z</Time>
            <Position>
              <LatitudeDegrees>40.78477467410266399383544921875</LatitudeDegrees>
              <LongitudeDegrees>-4.00063477456569671630859375</LongitudeDegrees>
            </Position>
            <AltitudeMeters>1766.4000244140625</AltitudeMeters>
            <DistanceMeters>NAN</DistanceMeters>
          </Trackpoint>
          <Trackpoint>
            <Time>2019-08-01T12:16:56.000Z</Time>
            <Position>
              <LatitudeDegrees>40.78479344956576824188232421875</LatitudeDegrees>
              <LongitudeDegrees>-4.00061423890292644500732421875</LongitudeDegrees>
            </Position>
            <AltitudeMeters>1766.4000244140625</AltitudeMeters>
            <DistanceMeters>NAN</DistanceMeters>
          </Trackpoint>
          <Trackpoint>
            <Time>2019-08-01T12:16:57.000Z</Time>
            <Position>
              <LatitudeDegrees>40.7848108001053333282470703125</LatitudeDegrees>
              <LongitudeDegrees>-4.00059445761144161224365234375</LongitudeDegrees>
            </Position>
            <AltitudeMeters>1766.5999755859375</AltitudeMeters>
            <DistanceMeters>NAN</DistanceMeters>
          </Trackpoint>
          <Trackpoint>
            <Time>2019-08-01T12:16:58.000Z</Time>
            <Position>
              <LatitudeDegrees>40.7848294079303741455078125</LatitudeDegrees>
              <LongitudeDegrees>-4.0005752630531787872314453125</LongitudeDegrees>
            </Position>
            <AltitudeMeters>1767.199951171875</AltitudeMeters>
            <DistanceMeters>NAN</DistanceMeters>
          </Trackpoint>
          <Trackpoint>
            <Time>2019-08-01T12:16:59.000Z</Time>
            <Position>
              <LatitudeDegrees>40.78484860248863697052001953125</LatitudeDegrees>
              <LongitudeDegrees>-4.0005561523139476776123046875</LongitudeDegrees>
            </Position>
            <AltitudeMeters>1767.4000244140625</AltitudeMeters>
            <DistanceMeters>NAN</DistanceMeters>
          </Trackpoint>
          <Trackpoint>
            <Time>2019-08-01T12:17:00.000Z</Time>
            <Position>
              <LatitudeDegrees>40.784868299961090087890625</LatitudeDegrees>
              <LongitudeDegrees>-4.00053762830793857574462890625</LongitudeDegrees>
            </Position>
            <AltitudeMeters>1767.800048828125</AltitudeMeters>
            <DistanceMeters>NAN</DistanceMeters>
          </Trackpoint>
          <Trackpoint>
            <Time>2019-08-01T12:17:01.000Z</Time>
            <Position>
              <LatitudeDegrees>40.78488900326192378997802734375</LatitudeDegrees>
              <LongitudeDegrees>-4.000520445406436920166015625</LongitudeDegrees>
            </Position>
            <AltitudeMeters>1768.199951171875</AltitudeMeters>
            <DistanceMeters>NAN</DistanceMeters>
          </Trackpoint>
          <Trackpoint>
            <Time>2019-08-01T12:17:02.000Z</Time>
            <Position>
              <LatitudeDegrees>40.78490677289664745330810546875</LatitudeDegrees>
              <LongitudeDegrees>-4.0005048550665378570556640625</LongitudeDegrees>
            </Position>
            <AltitudeMeters>1768.5999755859375</AltitudeMeters>
            <DistanceMeters>NAN</DistanceMeters>
          </Trackpoint>
          <Trackpoint>
            <Time>2019-08-01T12:17:03.000Z</Time>
            <Position>
              <LatitudeDegrees>40.78492940403521060943603515625</LatitudeDegrees>
              <LongitudeDegrees>-4.00049136020243167877197265625</LongitudeDegrees>
            </Position>
            <AltitudeMeters>1769</AltitudeMeters>
            <DistanceMeters>NAN</DistanceMeters>
          </Trackpoint>
          <Trackpoint>
            <Time>2019-08-01T12:17:04.000Z</Time>
            <Position>
              <LatitudeDegrees>40.7849502749741077423095703125</LatitudeDegrees>
              <LongitudeDegrees>-4.00048012845218181610107421875</LongitudeDegrees>
            </Position>
            <AltitudeMeters>1769.199951171875</AltitudeMeters>
            <DistanceMeters>NAN</DistanceMeters>
          </Trackpoint>
          <Trackpoint>
            <Time>2019-08-01T12:17:05.000Z</Time>
            <Position>
              <LatitudeDegrees>40.784971900284290313720703125</LatitudeDegrees>
              <LongitudeDegrees>-4.00046839378774166107177734375</LongitudeDegrees>
            </Position>
            <AltitudeMeters>1769.199951171875</AltitudeMeters>
            <DistanceMeters>NAN</DistanceMeters>
          </Trackpoint>
          <Trackpoint>
            <Time>2019-08-01T12:17:06.000Z</Time>
            <Position>
              <LatitudeDegrees>40.7849925197660923004150390625</LatitudeDegrees>
              <LongitudeDegrees>-4.0004562400281429290771484375</LongitudeDegrees>
            </Position>
            <AltitudeMeters>1769.4000244140625</AltitudeMeters>
            <DistanceMeters>NAN</DistanceMeters>
          </Trackpoint>
          <Trackpoint>
            <Time>2019-08-01T12:17:07.000Z</Time>
            <Position>
              <LatitudeDegrees>40.78501087613403797149658203125</LatitudeDegrees>
              <LongitudeDegrees>-4.000443331897258758544921875</LongitudeDegrees>
            </Position>
            <AltitudeMeters>1769.800048828125</AltitudeMeters>
            <DistanceMeters>NAN</DistanceMeters>
          </Trackpoint>
          <Trackpoint>
            <Time>2019-08-01T12:17:08.000Z</Time>
            <Position>
              <LatitudeDegrees>40.7850300706923007965087890625</LatitudeDegrees>
              <LongitudeDegrees>-4.00043092668056488037109375</LongitudeDegrees>
            </Position>
            <AltitudeMeters>1770</AltitudeMeters>
            <DistanceMeters>NAN</DistanceMeters>
          </Trackpoint>
          <Trackpoint>
            <Time>2019-08-01T12:17:09.000Z</Time>
            <Position>
              <LatitudeDegrees>40.78505010344088077545166015625</LatitudeDegrees>
              <LongitudeDegrees>-4.00041827000677585601806640625</LongitudeDegrees>
            </Position>
            <AltitudeMeters>1770.4000244140625</AltitudeMeters>
            <DistanceMeters>NAN</DistanceMeters>
          </Trackpoint>
          <Trackpoint>
            <Time>2019-08-01T12:17:10.000Z</Time>
            <Position>
              <LatitudeDegrees>40.78507038764655590057373046875</LatitudeDegrees>
              <LongitudeDegrees>-4.00040653534233570098876953125</LongitudeDegrees>
            </Position>
            <AltitudeMeters>1770.5999755859375</AltitudeMeters>
            <DistanceMeters>NAN</DistanceMeters>
          </Trackpoint>
          <Trackpoint>
            <Time>2019-08-01T12:17:11.000Z</Time>
            <Position>
              <LatitudeDegrees>40.78509301878511905670166015625</LatitudeDegrees>
              <LongitudeDegrees>-4.000395722687244415283203125</LongitudeDegrees>
            </Position>
            <AltitudeMeters>1771</AltitudeMeters>
            <DistanceMeters>NAN</DistanceMeters>
          </Trackpoint>
          <Trackpoint>
            <Time>2019-08-01T12:17:12.000Z</Time>
            <Position>
              <LatitudeDegrees>40.7851182483136653900146484375</LatitudeDegrees>
              <LongitudeDegrees>-4.0003858320415019989013671875</LongitudeDegrees>
            </Position>
            <AltitudeMeters>1771.199951171875</AltitudeMeters>
            <DistanceMeters>NAN</DistanceMeters>
          </Trackpoint>
          <Trackpoint>
            <Time>2019-08-01T12:17:13.000Z</Time>
            <Position>
              <LatitudeDegrees>40.78514347784221172332763671875</LatitudeDegrees>
              <LongitudeDegrees>-4.00037518702447414398193359375</LongitudeDegrees>
            </Position>
            <AltitudeMeters>1771.4000244140625</AltitudeMeters>
            <DistanceMeters>NAN</DistanceMeters>
          </Trackpoint>
          <Trackpoint>
            <Time>2019-08-01T12:17:14.000Z</Time>
            <Position>
              <LatitudeDegrees>40.78516912646591663360595703125</LatitudeDegrees>
              <LongitudeDegrees>-4.0003667213022708892822265625</LongitudeDegrees>
            </Position>
            <AltitudeMeters>1772</AltitudeMeters>
            <DistanceMeters>NAN</DistanceMeters>
          </Trackpoint>
          <Trackpoint>
            <Time>2019-08-01T12:17:15.000Z</Time>
            <Position>
              <LatitudeDegrees>40.785194523632526397705078125</LatitudeDegrees>
              <LongitudeDegrees>-4.00036026723682880401611328125</LongitudeDegrees>
            </Position>
            <AltitudeMeters>1772.5999755859375</AltitudeMeters>
            <DistanceMeters>NAN</DistanceMeters>
          </Trackpoint>
          <Trackpoint>
            <Time>2019-08-01T12:17:16.000Z</Time>
            <Position>
              <LatitudeDegrees>40.785219334065914154052734375</LatitudeDegrees>
              <LongitudeDegrees>-4.00035439990460872650146484375</LongitudeDegrees>
            </Position>
            <AltitudeMeters>1772.5999755859375</AltitudeMeters>
            <DistanceMeters>NAN</DistanceMeters>
          </Trackpoint>
          <Trackpoint>
            <Time>2019-08-01T12:17:17.000Z</Time>
            <Position>
              <LatitudeDegrees>40.78524406068027019500732421875</LatitudeDegrees>
              <LongitudeDegrees>-4.0003466047346591949462890625</LongitudeDegrees>
            </Position>
            <AltitudeMeters>1772.800048828125</AltitudeMeters>
            <DistanceMeters>NAN</DistanceMeters>
          </Trackpoint>
          <Trackpoint>
            <Time>2019-08-01T12:17:18.000Z</Time>
            <Position>
              <LatitudeDegrees>40.7852677814662456512451171875</LatitudeDegrees>
              <LongitudeDegrees>-4.00034082122147083282470703125</LongitudeDegrees>
            </Position>
            <AltitudeMeters>1773</AltitudeMeters>
            <DistanceMeters>NAN</DistanceMeters>
          </Trackpoint>
          <Trackpoint>
            <Time>2019-08-01T12:17:19.000Z</Time>
            <Position>
              <LatitudeDegrees>40.78529284335672855377197265625</LatitudeDegrees>
              <LongitudeDegrees>-4.0003352053463459014892578125</LongitudeDegrees>
            </Position>
            <AltitudeMeters>1773.199951171875</AltitudeMeters>
            <DistanceMeters>NAN</DistanceMeters>
          </Trackpoint>
          <Trackpoint>
            <Time>2019-08-01T12:17:20.000Z</Time>
            <Position>
              <LatitudeDegrees>40.78531798906624317169189453125</LatitudeDegrees>
              <LongitudeDegrees>-4.000329338014125823974609375</LongitudeDegrees>
            </Position>
            <AltitudeMeters>1773.4000244140625</AltitudeMeters>
            <DistanceMeters>NAN</DistanceMeters>
          </Trackpoint>
          <Trackpoint>
            <Time>2019-08-01T12:17:21.000Z</Time>
            <Position>
              <LatitudeDegrees>40.78534246422350406646728515625</LatitudeDegrees>
              <LongitudeDegrees>-4.00032456032931804656982421875</LongitudeDegrees>
            </Position>
            <AltitudeMeters>1773.5999755859375</AltitudeMeters>
            <DistanceMeters>NAN</DistanceMeters>
          </Trackpoint>
          <Trackpoint>
            <Time>2019-08-01T12:17:22.000Z</Time>
            <Position>
              <LatitudeDegrees>40.78536727465689182281494140625</LatitudeDegrees>
              <LongitudeDegrees>-4.0003202855587005615234375</LongitudeDegrees>
            </Position>
            <AltitudeMeters>1774</AltitudeMeters>
            <DistanceMeters>NAN</DistanceMeters>
          </Trackpoint>
          <Trackpoint>
            <Time>2019-08-01T12:17:23.000Z</Time>
            <Position>
              <LatitudeDegrees>40.78539057634770870208740234375</LatitudeDegrees>
              <LongitudeDegrees>-4.00031835772097110748291015625</LongitudeDegrees>
            </Position>
            <AltitudeMeters>1774.199951171875</AltitudeMeters>
            <DistanceMeters>NAN</DistanceMeters>
          </Trackpoint>
          <Trackpoint>
            <Time>2019-08-01T12:17:24.000Z</Time>
            <Position>
              <LatitudeDegrees>40.78541371040046215057373046875</LatitudeDegrees>
              <LongitudeDegrees>-4.00031827390193939208984375</LongitudeDegrees>
            </Position>
            <AltitudeMeters>1774.5999755859375</AltitudeMeters>
            <DistanceMeters>NAN</DistanceMeters>
          </Trackpoint>
          <Trackpoint>
            <Time>2019-08-01T12:17:25.000Z</Time>
            <Position>
              <LatitudeDegrees>40.78543835319578647613525390625</LatitudeDegrees>
              <LongitudeDegrees>-4.000317938625812530517578125</LongitudeDegrees>
            </Position>
            <AltitudeMeters>1775</AltitudeMeters>
            <DistanceMeters>NAN</DistanceMeters>
          </Trackpoint>
          <Trackpoint>
            <Time>2019-08-01T12:17:26.000Z</Time>
            <Position>
              <LatitudeDegrees>40.78546349890530109405517578125</LatitudeDegrees>
              <LongitudeDegrees>-4.00031835772097110748291015625</LongitudeDegrees>
            </Position>
            <AltitudeMeters>1775.199951171875</AltitudeMeters>
            <DistanceMeters>NAN</DistanceMeters>
          </Trackpoint>
          <Trackpoint>
            <Time>2019-08-01T12:17:27.000Z</Time>
            <Position>
              <LatitudeDegrees>40.78548965044319629669189453125</LatitudeDegrees>
              <LongitudeDegrees>-4.00031936354935169219970703125</LongitudeDegrees>
            </Position>
            <AltitudeMeters>1775.5999755859375</AltitudeMeters>
            <DistanceMeters>NAN</DistanceMeters>
          </Trackpoint>
          <Trackpoint>
            <Time>2019-08-01T12:17:28.000Z</Time>
            <Position>
              <LatitudeDegrees>40.78551496379077434539794921875</LatitudeDegrees>
              <LongitudeDegrees>-4.000318609178066253662109375</LongitudeDegrees>
            </Position>
            <AltitudeMeters>1775.800048828125</AltitudeMeters>
            <DistanceMeters>NAN</DistanceMeters>
          </Trackpoint>
          <Trackpoint>
            <Time>2019-08-01T12:17:29.000Z</Time>
            <Position>
              <LatitudeDegrees>40.7855396904051303863525390625</LatitudeDegrees>
              <LongitudeDegrees>-4.0003176033496856689453125</LongitudeDegrees>
            </Position>
            <AltitudeMeters>1775.800048828125</AltitudeMeters>
            <DistanceMeters>NAN</DistanceMeters>
          </Trackpoint>
          <Trackpoint>
            <Time>2019-08-01T12:17:30.000Z</Time>
            <Position>
              <LatitudeDegrees>40.78556424938142299652099609375</LatitudeDegrees>
              <LongitudeDegrees>-4.00031785480678081512451171875</LongitudeDegrees>
            </Position>
            <AltitudeMeters>1776.199951171875</AltitudeMeters>
            <DistanceMeters>NAN</DistanceMeters>
          </Trackpoint>
          <Trackpoint>
            <Time>2019-08-01T12:17:31.000Z</Time>
            <Position>
              <LatitudeDegrees>40.78558973036706447601318359375</LatitudeDegrees>
              <LongitudeDegrees>-4.00031819008290767669677734375</LongitudeDegrees>
            </Position>
            <AltitudeMeters>1776.4000244140625</AltitudeMeters>
            <DistanceMeters>NAN</DistanceMeters>
          </Trackpoint>
          <Trackpoint>
            <Time>2019-08-01T12:17:32.000Z</Time>
            <Position>
              <LatitudeDegrees>40.78561487607657909393310546875</LatitudeDegrees>
              <LongitudeDegrees>-4.00031819008290767669677734375</LongitudeDegrees>
            </Position>
            <AltitudeMeters>1776.4000244140625</AltitudeMeters>
            <DistanceMeters>NAN</DistanceMeters>
          </Trackpoint>
          <Trackpoint>
            <Time>2019-08-01T12:17:33.000Z</Time>
            <Position>
              <LatitudeDegrees>40.78564018942415714263916015625</LatitudeDegrees>
              <LongitudeDegrees>-4.00031986646354198455810546875</LongitudeDegrees>
            </Position>
            <AltitudeMeters>1776.5999755859375</AltitudeMeters>
            <DistanceMeters>NAN</DistanceMeters>
          </Trackpoint>
          <Trackpoint>
            <Time>2019-08-01T12:17:34.000Z</Time>
            <Position>
              <LatitudeDegrees>40.7856654189527034759521484375</LatitudeDegrees>
              <LongitudeDegrees>-4.000324308872222900390625</LongitudeDegrees>
            </Position>
            <AltitudeMeters>1777</AltitudeMeters>
            <DistanceMeters>NAN</DistanceMeters>
          </Trackpoint>
          <Trackpoint>
            <Time>2019-08-01T12:17:35.000Z</Time>
            <Position>
              <LatitudeDegrees>40.7856905646622180938720703125</LatitudeDegrees>
              <LongitudeDegrees>-4.00032958947122097015380859375</LongitudeDegrees>
            </Position>
            <AltitudeMeters>1777.4000244140625</AltitudeMeters>
            <DistanceMeters>NAN</DistanceMeters>
          </Trackpoint>
          <Trackpoint>
            <Time>2019-08-01T12:17:36.000Z</Time>
            <Position>
              <LatitudeDegrees>40.78571612946689128875732421875</LatitudeDegrees>
              <LongitudeDegrees>-4.00033545680344104766845703125</LongitudeDegrees>
            </Position>
            <AltitudeMeters>1777.5999755859375</AltitudeMeters>
            <DistanceMeters>NAN</DistanceMeters>
          </Trackpoint>
          <Trackpoint>
            <Time>2019-08-01T12:17:37.000Z</Time>
            <Position>
              <LatitudeDegrees>40.785741694271564483642578125</LatitudeDegrees>
              <LongitudeDegrees>-4.00034199468791484832763671875</LongitudeDegrees>
            </Position>
            <AltitudeMeters>1777.800048828125</AltitudeMeters>
            <DistanceMeters>NAN</DistanceMeters>
          </Trackpoint>
          <Trackpoint>
            <Time>2019-08-01T12:17:38.000Z</Time>
            <Position>
              <LatitudeDegrees>40.78576692380011081695556640625</LatitudeDegrees>
              <LongitudeDegrees>-4.000352136790752410888671875</LongitudeDegrees>
            </Position>
            <AltitudeMeters>1778.4000244140625</AltitudeMeters>
            <DistanceMeters>NAN</DistanceMeters>
          </Trackpoint>
          <Trackpoint>
            <Time>2019-08-01T12:17:39.000Z</Time>
            <Position>
              <LatitudeDegrees>40.78579190187156200408935546875</LatitudeDegrees>
              <LongitudeDegrees>-4.0003637038171291351318359375</LongitudeDegrees>
            </Position>
            <AltitudeMeters>1778.5999755859375</AltitudeMeters>
            <DistanceMeters>NAN</DistanceMeters>
          </Trackpoint>
          <Trackpoint>
            <Time>2019-08-01T12:17:40.000Z</Time>
            <Position>
              <LatitudeDegrees>40.785816796123981475830078125</LatitudeDegrees>
              <LongitudeDegrees>-4.000376276671886444091796875</LongitudeDegrees>
            </Position>
            <AltitudeMeters>1778.800048828125</AltitudeMeters>
            <DistanceMeters>NAN</DistanceMeters>
          </Trackpoint>
          <Trackpoint>
            <Time>2019-08-01T12:17:41.000Z</Time>
            <Position>
              <LatitudeDegrees>40.7858411036431789398193359375</LatitudeDegrees>
              <LongitudeDegrees>-4.000391028821468353271484375</LongitudeDegrees>
            </Position>
            <AltitudeMeters>1779.199951171875</AltitudeMeters>
            <DistanceMeters>NAN</DistanceMeters>
          </Trackpoint>
          <Trackpoint>
            <Time>2019-08-01T12:17:42.000Z</Time>
            <Position>
              <LatitudeDegrees>40.785865075886249542236328125</LatitudeDegrees>
              <LongitudeDegrees>-4.0004074573516845703125</LongitudeDegrees>
            </Position>
            <AltitudeMeters>1779.4000244140625</AltitudeMeters>
            <DistanceMeters>NAN</DistanceMeters>
          </Trackpoint>
          <Trackpoint>
            <Time>2019-08-01T12:17:43.000Z</Time>
            <Position>
              <LatitudeDegrees>40.785887539386749267578125</LatitudeDegrees>
              <LongitudeDegrees>-4.000427909195423126220703125</LongitudeDegrees>
            </Position>
            <AltitudeMeters>1779.800048828125</AltitudeMeters>
            <DistanceMeters>NAN</DistanceMeters>
          </Trackpoint>
          <Trackpoint>
            <Time>2019-08-01T12:17:44.000Z</Time>
            <Position>
              <LatitudeDegrees>40.78591226600110530853271484375</LatitudeDegrees>
              <LongitudeDegrees>-4.000447355210781097412109375</LongitudeDegrees>
            </Position>
            <AltitudeMeters>1780.199951171875</AltitudeMeters>
            <DistanceMeters>NAN</DistanceMeters>
          </Trackpoint>
          <Trackpoint>
            <Time>2019-08-01T12:17:45.000Z</Time>
            <Position>
              <LatitudeDegrees>40.7859329693019390106201171875</LatitudeDegrees>
              <LongitudeDegrees>-4.00047040544450283050537109375</LongitudeDegrees>
            </Position>
            <AltitudeMeters>1780.199951171875</AltitudeMeters>
            <DistanceMeters>NAN</DistanceMeters>
          </Trackpoint>
          <Trackpoint>
            <Time>2019-08-01T12:17:46.000Z</Time>
            <Position>
              <LatitudeDegrees>40.7859544269740581512451171875</LatitudeDegrees>
              <LongitudeDegrees>-4.00049136020243167877197265625</LongitudeDegrees>
            </Position>
            <AltitudeMeters>1780.4000244140625</AltitudeMeters>
            <DistanceMeters>NAN</DistanceMeters>
          </Trackpoint>
          <Trackpoint>
            <Time>2019-08-01T12:17:47.000Z</Time>
            <Position>
              <LatitudeDegrees>40.78597378917038440704345703125</LatitudeDegrees>
              <LongitudeDegrees>-4.00051348842680454254150390625</LongitudeDegrees>
            </Position>
            <AltitudeMeters>1780.5999755859375</AltitudeMeters>
            <DistanceMeters>NAN</DistanceMeters>
          </Trackpoint>
          <Trackpoint>
            <Time>2019-08-01T12:17:48.000Z</Time>
            <Position>
              <LatitudeDegrees>40.7859909720718860626220703125</LatitudeDegrees>
              <LongitudeDegrees>-4.00053813122212886810302734375</LongitudeDegrees>
            </Position>
            <AltitudeMeters>1780.800048828125</AltitudeMeters>
            <DistanceMeters>NAN</DistanceMeters>
          </Trackpoint>
          <Trackpoint>
            <Time>2019-08-01T12:17:49.000Z</Time>
            <Position>
              <LatitudeDegrees>40.7859909720718860626220703125</LatitudeDegrees>
              <LongitudeDegrees>-4.00053813122212886810302734375</LongitudeDegrees>
            </Position>
            <AltitudeMeters>1781</AltitudeMeters>
            <DistanceMeters>NAN</DistanceMeters>
          </Trackpoint>
          <Trackpoint>
            <Time>2019-08-01T12:17:50.000Z</Time>
            <Position>
              <LatitudeDegrees>40.78602475114166736602783203125</LatitudeDegrees>
              <LongitudeDegrees>-4.0005910210311412811279296875</LongitudeDegrees>
            </Position>
            <AltitudeMeters>1781.199951171875</AltitudeMeters>
            <DistanceMeters>NAN</DistanceMeters>
          </Trackpoint>
          <Trackpoint>
            <Time>2019-08-01T12:17:51.000Z</Time>
            <Position>
              <LatitudeDegrees>40.7860409282147884368896484375</LatitudeDegrees>
              <LongitudeDegrees>-4.00061876513063907623291015625</LongitudeDegrees>
            </Position>
            <AltitudeMeters>1781.199951171875</AltitudeMeters>
            <DistanceMeters>NAN</DistanceMeters>
          </Trackpoint>
          <Trackpoint>
            <Time>2019-08-01T12:17:52.000Z</Time>
            <Position>
              <LatitudeDegrees>40.78605593182146549224853515625</LatitudeDegrees>
              <LongitudeDegrees>-4.000649191439151763916015625</LongitudeDegrees>
            </Position>
            <AltitudeMeters>1781.4000244140625</AltitudeMeters>
            <DistanceMeters>NAN</DistanceMeters>
          </Trackpoint>
          <Trackpoint>
            <Time>2019-08-01T12:17:53.000Z</Time>
            <Position>
              <LatitudeDegrees>40.78607018105685710906982421875</LatitudeDegrees>
              <LongitudeDegrees>-4.0006812103092670440673828125</LongitudeDegrees>
            </Position>
            <AltitudeMeters>1781.5999755859375</AltitudeMeters>
            <DistanceMeters>NAN</DistanceMeters>
          </Trackpoint>
          <Trackpoint>
            <Time>2019-08-01T12:17:54.000Z</Time>
            <Position>
              <LatitudeDegrees>40.7860814966261386871337890625</LatitudeDegrees>
              <LongitudeDegrees>-4.00070912204682826995849609375</LongitudeDegrees>
            </Position>
            <AltitudeMeters>1782</AltitudeMeters>
            <DistanceMeters>NAN</DistanceMeters>
          </Trackpoint>
          <Trackpoint>
            <Time>2019-08-01T12:17:55.000Z</Time>
            <Position>
              <LatitudeDegrees>40.78609113581478595733642578125</LatitudeDegrees>
              <LongitudeDegrees>-4.000743068754673004150390625</LongitudeDegrees>
            </Position>
            <AltitudeMeters>1782.199951171875</AltitudeMeters>
            <DistanceMeters>NAN</DistanceMeters>
          </Trackpoint>
          <Trackpoint>
            <Time>2019-08-01T12:17:56.000Z</Time>
            <Position>
              <LatitudeDegrees>40.78609968535602092742919921875</LatitudeDegrees>
              <LongitudeDegrees>-4.00077735073864459991455078125</LongitudeDegrees>
            </Position>
            <AltitudeMeters>1782.4000244140625</AltitudeMeters>
            <DistanceMeters>NAN</DistanceMeters>
          </Trackpoint>
          <Trackpoint>
            <Time>2019-08-01T12:17:57.000Z</Time>
            <Position>
              <LatitudeDegrees>40.7861088216304779052734375</LatitudeDegrees>
              <LongitudeDegrees>-4.0008136443793773651123046875</LongitudeDegrees>
            </Position>
            <AltitudeMeters>1782.800048828125</AltitudeMeters>
            <DistanceMeters>NAN</DistanceMeters>
          </Trackpoint>
          <Trackpoint>
            <Time>2019-08-01T12:17:58.000Z</Time>
            <Position>
              <LatitudeDegrees>40.786118544638156890869140625</LatitudeDegrees>
              <LongitudeDegrees>-4.00085203349590301513671875</LongitudeDegrees>
            </Position>
            <AltitudeMeters>1783</AltitudeMeters>
            <DistanceMeters>NAN</DistanceMeters>
          </Trackpoint>
          <Trackpoint>
            <Time>2019-08-01T12:17:59.000Z</Time>
            <Position>
              <LatitudeDegrees>40.78612516634166240692138671875</LatitudeDegrees>
              <LongitudeDegrees>-4.0008884109556674957275390625</LongitudeDegrees>
            </Position>
            <AltitudeMeters>1783.199951171875</AltitudeMeters>
            <DistanceMeters>NAN</DistanceMeters>
          </Trackpoint>
          <Trackpoint>
            <Time>2019-08-01T12:18:00.000Z</Time>
            <Position>
              <LatitudeDegrees>40.78613354824483394622802734375</LatitudeDegrees>
              <LongitudeDegrees>-4.0009279735386371612548828125</LongitudeDegrees>
            </Position>
            <AltitudeMeters>1783.4000244140625</AltitudeMeters>
            <DistanceMeters>NAN</DistanceMeters>
          </Trackpoint>
          <Trackpoint>
            <Time>2019-08-01T12:18:01.000Z</Time>
            <Position>
              <LatitudeDegrees>40.78614293597638607025146484375</LatitudeDegrees>
              <LongitudeDegrees>-4.00096728466451168060302734375</LongitudeDegrees>
            </Position>
            <AltitudeMeters>1783.4000244140625</AltitudeMeters>
            <DistanceMeters>NAN</DistanceMeters>
          </Trackpoint>
          <Trackpoint>
            <Time>2019-08-01T12:18:02.000Z</Time>
            <Position>
              <LatitudeDegrees>40.786152072250843048095703125</LatitudeDegrees>
              <LongitudeDegrees>-4.00100952945649623870849609375</LongitudeDegrees>
            </Position>
            <AltitudeMeters>1783.5999755859375</AltitudeMeters>
            <DistanceMeters>NAN</DistanceMeters>
          </Trackpoint>
          <Trackpoint>
            <Time>2019-08-01T12:18:03.000Z</Time>
            <Position>
              <LatitudeDegrees>40.7861616276204586029052734375</LatitudeDegrees>
              <LongitudeDegrees>-4.001051522791385650634765625</LongitudeDegrees>
            </Position>
            <AltitudeMeters>1783.5999755859375</AltitudeMeters>
            <DistanceMeters>NAN</DistanceMeters>
          </Trackpoint>
          <Trackpoint>
            <Time>2019-08-01T12:18:04.000Z</Time>
            <Position>
              <LatitudeDegrees>40.78617093153297901153564453125</LatitudeDegrees>
              <LongitudeDegrees>-4.0010915882885456085205078125</LongitudeDegrees>
            </Position>
            <AltitudeMeters>1783.800048828125</AltitudeMeters>
            <DistanceMeters>NAN</DistanceMeters>
          </Trackpoint>
          <Trackpoint>
            <Time>2019-08-01T12:18:05.000Z</Time>
            <Position>
              <LatitudeDegrees>40.78617948107421398162841796875</LatitudeDegrees>
              <LongitudeDegrees>-4.00113106705248355865478515625</LongitudeDegrees>
            </Position>
            <AltitudeMeters>1784</AltitudeMeters>
            <DistanceMeters>NAN</DistanceMeters>
          </Trackpoint>
          <Trackpoint>
            <Time>2019-08-01T12:18:06.000Z</Time>
            <Position>
              <LatitudeDegrees>40.78618702478706836700439453125</LatitudeDegrees>
              <LongitudeDegrees>-4.001171551644802093505859375</LongitudeDegrees>
            </Position>
            <AltitudeMeters>1784.199951171875</AltitudeMeters>
            <DistanceMeters>NAN</DistanceMeters>
          </Trackpoint>
          <Trackpoint>
            <Time>2019-08-01T12:18:07.000Z</Time>
            <Position>
              <LatitudeDegrees>40.7861941494047641754150390625</LatitudeDegrees>
              <LongitudeDegrees>-4.0012116171419620513916015625</LongitudeDegrees>
            </Position>
            <AltitudeMeters>1784</AltitudeMeters>
            <DistanceMeters>NAN</DistanceMeters>
          </Trackpoint>
          <Trackpoint>
            <Time>2019-08-01T12:18:08.000Z</Time>
            <Position>
              <LatitudeDegrees>40.78620227985084056854248046875</LatitudeDegrees>
              <LongitudeDegrees>-4.00125226937234401702880859375</LongitudeDegrees>
            </Position>
            <AltitudeMeters>1784.199951171875</AltitudeMeters>
            <DistanceMeters>NAN</DistanceMeters>
          </Trackpoint>
          <Trackpoint>
            <Time>2019-08-01T12:18:09.000Z</Time>
            <Position>
              <LatitudeDegrees>40.78621141612529754638671875</LatitudeDegrees>
              <LongitudeDegrees>-4.00129300542175769805908203125</LongitudeDegrees>
            </Position>
            <AltitudeMeters>1784.4000244140625</AltitudeMeters>
            <DistanceMeters>NAN</DistanceMeters>
          </Trackpoint>
          <Trackpoint>
            <Time>2019-08-01T12:18:10.000Z</Time>
            <Position>
              <LatitudeDegrees>40.78622105531394481658935546875</LatitudeDegrees>
              <LongitudeDegrees>-4.0013343282043933868408203125</LongitudeDegrees>
            </Position>
            <AltitudeMeters>1784.800048828125</AltitudeMeters>
            <DistanceMeters>NAN</DistanceMeters>
          </Trackpoint>
          <Trackpoint>
            <Time>2019-08-01T12:18:11.000Z</Time>
            <Position>
              <LatitudeDegrees>40.78623329289257526397705078125</LatitudeDegrees>
              <LongitudeDegrees>-4.0013742260634899139404296875</LongitudeDegrees>
            </Position>
            <AltitudeMeters>1784.800048828125</AltitudeMeters>
            <DistanceMeters>NAN</DistanceMeters>
          </Trackpoint>
          <Trackpoint>
            <Time>2019-08-01T12:18:12.000Z</Time>
            <Position>
              <LatitudeDegrees>40.78624804504215717315673828125</LatitudeDegrees>
              <LongitudeDegrees>-4.0014131180942058563232421875</LongitudeDegrees>
            </Position>
            <AltitudeMeters>1785</AltitudeMeters>
            <DistanceMeters>NAN</DistanceMeters>
          </Trackpoint>
          <Trackpoint>
            <Time>2019-08-01T12:18:13.000Z</Time>
            <Position>
              <LatitudeDegrees>40.78626346774399280548095703125</LatitudeDegrees>
              <LongitudeDegrees>-4.0014523454010486602783203125</LongitudeDegrees>
            </Position>
            <AltitudeMeters>1785.199951171875</AltitudeMeters>
            <DistanceMeters>NAN</DistanceMeters>
          </Trackpoint>
          <Trackpoint>
            <Time>2019-08-01T12:18:14.000Z</Time>
            <Position>
              <LatitudeDegrees>40.786280147731304168701171875</LatitudeDegrees>
              <LongitudeDegrees>-4.0014919079840183258056640625</LongitudeDegrees>
            </Position>
            <AltitudeMeters>1785.4000244140625</AltitudeMeters>
            <DistanceMeters>NAN</DistanceMeters>
          </Trackpoint>
          <Trackpoint>
            <Time>2019-08-01T12:18:15.000Z</Time>
            <Position>
              <LatitudeDegrees>40.78629900701344013214111328125</LatitudeDegrees>
              <LongitudeDegrees>-4.0015297941863536834716796875</LongitudeDegrees>
            </Position>
            <AltitudeMeters>1785.5999755859375</AltitudeMeters>
            <DistanceMeters>NAN</DistanceMeters>
          </Trackpoint>
          <Trackpoint>
            <Time>2019-08-01T12:18:16.000Z</Time>
            <Position>
              <LatitudeDegrees>40.7863212190568447113037109375</LatitudeDegrees>
              <LongitudeDegrees>-4.001566506922245025634765625</LongitudeDegrees>
            </Position>
            <AltitudeMeters>1785.5999755859375</AltitudeMeters>
            <DistanceMeters>NAN</DistanceMeters>
          </Trackpoint>
          <Trackpoint>
            <Time>2019-08-01T12:18:17.000Z</Time>
            <Position>
              <LatitudeDegrees>40.7863453589379787445068359375</LatitudeDegrees>
              <LongitudeDegrees>-4.00160263292491436004638671875</LongitudeDegrees>
            </Position>
            <AltitudeMeters>1785.800048828125</AltitudeMeters>
            <DistanceMeters>NAN</DistanceMeters>
          </Trackpoint>
          <Trackpoint>
            <Time>2019-08-01T12:18:18.000Z</Time>
            <Position>
              <LatitudeDegrees>40.78637058846652507781982421875</LatitudeDegrees>
              <LongitudeDegrees>-4.00163699872791767120361328125</LongitudeDegrees>
            </Position>
            <AltitudeMeters>1786</AltitudeMeters>
            <DistanceMeters>NAN</DistanceMeters>
          </Trackpoint>
          <Trackpoint>
            <Time>2019-08-01T12:18:19.000Z</Time>
            <Position>
              <LatitudeDegrees>40.78639623709022998809814453125</LatitudeDegrees>
              <LongitudeDegrees>-4.00167086161673069000244140625</LongitudeDegrees>
            </Position>
            <AltitudeMeters>1786</AltitudeMeters>
            <DistanceMeters>NAN</DistanceMeters>
          </Trackpoint>
          <Trackpoint>
            <Time>2019-08-01T12:18:20.000Z</Time>
            <Position>
              <LatitudeDegrees>40.78642138279974460601806640625</LatitudeDegrees>
              <LongitudeDegrees>-4.0017051436007022857666015625</LongitudeDegrees>
            </Position>
            <AltitudeMeters>1786</AltitudeMeters>
            <DistanceMeters>NAN</DistanceMeters>
          </Trackpoint>
          <Trackpoint>
            <Time>2019-08-01T12:18:21.000Z</Time>
            <Position>
              <LatitudeDegrees>40.78644652850925922393798828125</LatitudeDegrees>
              <LongitudeDegrees>-4.00173892267048358917236328125</LongitudeDegrees>
            </Position>
            <AltitudeMeters>1786.199951171875</AltitudeMeters>
            <DistanceMeters>NAN</DistanceMeters>
          </Trackpoint>
          <Trackpoint>
            <Time>2019-08-01T12:18:22.000Z</Time>
            <Position>
              <LatitudeDegrees>40.78647184185683727264404296875</LatitudeDegrees>
              <LongitudeDegrees>-4.0017715282738208770751953125</LongitudeDegrees>
            </Position>
            <AltitudeMeters>1786.199951171875</AltitudeMeters>
            <DistanceMeters>NAN</DistanceMeters>
          </Trackpoint>
          <Trackpoint>
            <Time>2019-08-01T12:18:23.000Z</Time>
            <Position>
              <LatitudeDegrees>40.7864977419376373291015625</LatitudeDegrees>
              <LongitudeDegrees>-4.00180413387715816497802734375</LongitudeDegrees>
            </Position>
            <AltitudeMeters>1786.199951171875</AltitudeMeters>
            <DistanceMeters>NAN</DistanceMeters>
          </Trackpoint>
          <Trackpoint>
            <Time>2019-08-01T12:18:24.000Z</Time>
            <Position>
              <LatitudeDegrees>40.78652322292327880859375</LatitudeDegrees>
              <LongitudeDegrees>-4.00183581747114658355712890625</LongitudeDegrees>
            </Position>
            <AltitudeMeters>1786.199951171875</AltitudeMeters>
            <DistanceMeters>NAN</DistanceMeters>
          </Trackpoint>
          <Trackpoint>
            <Time>2019-08-01T12:18:25.000Z</Time>
            <Position>
              <LatitudeDegrees>40.78654878772795200347900390625</LatitudeDegrees>
              <LongitudeDegrees>-4.00186431594192981719970703125</LongitudeDegrees>
            </Position>
            <AltitudeMeters>1786.4000244140625</AltitudeMeters>
            <DistanceMeters>NAN</DistanceMeters>
          </Trackpoint>
          <Trackpoint>
            <Time>2019-08-01T12:18:26.000Z</Time>
            <Position>
              <LatitudeDegrees>40.78657393343746662139892578125</LatitudeDegrees>
              <LongitudeDegrees>-4.001891054213047027587890625</LongitudeDegrees>
            </Position>
            <AltitudeMeters>1786.4000244140625</AltitudeMeters>
            <DistanceMeters>NAN</DistanceMeters>
          </Trackpoint>
          <Trackpoint>
            <Time>2019-08-01T12:18:27.000Z</Time>
            <Position>
              <LatitudeDegrees>40.7865994982421398162841796875</LatitudeDegrees>
              <LongitudeDegrees>-4.00191611610352993011474609375</LongitudeDegrees>
            </Position>
            <AltitudeMeters>1786.4000244140625</AltitudeMeters>
            <DistanceMeters>NAN</DistanceMeters>
          </Trackpoint>
          <Trackpoint>
            <Time>2019-08-01T12:18:28.000Z</Time>
            <Position>
              <LatitudeDegrees>40.78662472777068614959716796875</LatitudeDegrees>
              <LongitudeDegrees>-4.0019401721656322479248046875</LongitudeDegrees>
            </Position>
            <AltitudeMeters>1786.5999755859375</AltitudeMeters>
            <DistanceMeters>NAN</DistanceMeters>
          </Trackpoint>
          <Trackpoint>
            <Time>2019-08-01T12:18:29.000Z</Time>
            <Position>
              <LatitudeDegrees>40.7866506278514862060546875</LatitudeDegrees>
              <LongitudeDegrees>-4.00196389295160770416259765625</LongitudeDegrees>
            </Position>
            <AltitudeMeters>1786.800048828125</AltitudeMeters>
            <DistanceMeters>NAN</DistanceMeters>
          </Trackpoint>
          <Trackpoint>
            <Time>2019-08-01T12:18:30.000Z</Time>
            <Position>
              <LatitudeDegrees>40.78667719848453998565673828125</LatitudeDegrees>
              <LongitudeDegrees>-4.00198535062372684478759765625</LongitudeDegrees>
            </Position>
            <AltitudeMeters>1787</AltitudeMeters>
            <DistanceMeters>NAN</DistanceMeters>
          </Trackpoint>
          <Trackpoint>
            <Time>2019-08-01T12:18:31.000Z</Time>
            <Position>
              <LatitudeDegrees>40.78670402057468891143798828125</LatitudeDegrees>
              <LongitudeDegrees>-4.002007730305194854736328125</LongitudeDegrees>
            </Position>
            <AltitudeMeters>1787.199951171875</AltitudeMeters>
            <DistanceMeters>NAN</DistanceMeters>
          </Trackpoint>
          <Trackpoint>
            <Time>2019-08-01T12:18:32.000Z</Time>
            <Position>
              <LatitudeDegrees>40.7867322675883769989013671875</LatitudeDegrees>
              <LongitudeDegrees>-4.0020286850631237030029296875</LongitudeDegrees>
            </Position>
            <AltitudeMeters>1787.199951171875</AltitudeMeters>
            <DistanceMeters>NAN</DistanceMeters>
          </Trackpoint>
          <Trackpoint>
            <Time>2019-08-01T12:18:33.000Z</Time>
            <Position>
              <LatitudeDegrees>40.78676068224012851715087890625</LatitudeDegrees>
              <LongitudeDegrees>-4.0020503103733062744140625</LongitudeDegrees>
            </Position>
            <AltitudeMeters>1787.199951171875</AltitudeMeters>
            <DistanceMeters>NAN</DistanceMeters>
          </Trackpoint>
          <Trackpoint>
            <Time>2019-08-01T12:18:34.000Z</Time>
            <Position>
              <LatitudeDegrees>40.7867879234254360198974609375</LatitudeDegrees>
              <LongitudeDegrees>-4.0020692534744739532470703125</LongitudeDegrees>
            </Position>
            <AltitudeMeters>1787.4000244140625</AltitudeMeters>
            <DistanceMeters>NAN</DistanceMeters>
          </Trackpoint>
          <Trackpoint>
            <Time>2019-08-01T12:18:35.000Z</Time>
            <Position>
              <LatitudeDegrees>40.786815918982028961181640625</LatitudeDegrees>
              <LongitudeDegrees>-4.00208677165210247039794921875</LongitudeDegrees>
            </Position>
            <AltitudeMeters>1787.5999755859375</AltitudeMeters>
            <DistanceMeters>NAN</DistanceMeters>
          </Trackpoint>
          <Trackpoint>
            <Time>2019-08-01T12:18:36.000Z</Time>
            <Position>
              <LatitudeDegrees>40.7868422381579875946044921875</LatitudeDegrees>
              <LongitudeDegrees>-4.002105295658111572265625</LongitudeDegrees>
            </Position>
            <AltitudeMeters>1788</AltitudeMeters>
            <DistanceMeters>NAN</DistanceMeters>
          </Trackpoint>
          <Trackpoint>
            <Time>2019-08-01T12:18:37.000Z</Time>
            <Position>
              <LatitudeDegrees>40.78686654567718505859375</LatitudeDegrees>
              <LongitudeDegrees>-4.00212298147380352020263671875</LongitudeDegrees>
            </Position>
            <AltitudeMeters>1788.4000244140625</AltitudeMeters>
            <DistanceMeters>NAN</DistanceMeters>
          </Trackpoint>
          <Trackpoint>
            <Time>2019-08-01T12:18:38.000Z</Time>
            <Position>
              <LatitudeDegrees>40.78689211048185825347900390625</LatitudeDegrees>
              <LongitudeDegrees>-4.00214024819433689117431640625</LongitudeDegrees>
            </Position>
            <AltitudeMeters>1789.199951171875</AltitudeMeters>
            <DistanceMeters>NAN</DistanceMeters>
          </Trackpoint>
          <Trackpoint>
            <Time>2019-08-01T12:18:39.000Z</Time>
            <Position>
              <LatitudeDegrees>40.78691926784813404083251953125</LatitudeDegrees>
              <LongitudeDegrees>-4.00215885601937770843505859375</LongitudeDegrees>
            </Position>
            <AltitudeMeters>1789.4000244140625</AltitudeMeters>
            <DistanceMeters>NAN</DistanceMeters>
          </Trackpoint>
          <Trackpoint>
            <Time>2019-08-01T12:18:40.000Z</Time>
            <Position>
              <LatitudeDegrees>40.7869478501379489898681640625</LatitudeDegrees>
              <LongitudeDegrees>-4.0021735243499279022216796875</LongitudeDegrees>
            </Position>
            <AltitudeMeters>1790</AltitudeMeters>
            <DistanceMeters>NAN</DistanceMeters>
          </Trackpoint>
          <Trackpoint>
            <Time>2019-08-01T12:18:41.000Z</Time>
            <Position>
              <LatitudeDegrees>40.7869478501379489898681640625</LatitudeDegrees>
              <LongitudeDegrees>-4.0021735243499279022216796875</LongitudeDegrees>
            </Position>
            <AltitudeMeters>1790.4000244140625</AltitudeMeters>
            <DistanceMeters>NAN</DistanceMeters>
          </Trackpoint>
          <Trackpoint>
            <Time>2019-08-01T12:18:42.000Z</Time>
            <Position>
              <LatitudeDegrees>40.78700576908886432647705078125</LatitudeDegrees>
              <LongitudeDegrees>-4.0022110752761363983154296875</LongitudeDegrees>
            </Position>
            <AltitudeMeters>1790.5999755859375</AltitudeMeters>
            <DistanceMeters>NAN</DistanceMeters>
          </Trackpoint>
          <Trackpoint>
            <Time>2019-08-01T12:18:43.000Z</Time>
            <Position>
              <LatitudeDegrees>40.78703460283577442169189453125</LatitudeDegrees>
              <LongitudeDegrees>-4.0022325329482555389404296875</LongitudeDegrees>
            </Position>
            <AltitudeMeters>1791</AltitudeMeters>
            <DistanceMeters>NAN</DistanceMeters>
          </Trackpoint>
          <Trackpoint>
            <Time>2019-08-01T12:18:44.000Z</Time>
            <Position>
              <LatitudeDegrees>40.787061341106891632080078125</LatitudeDegrees>
              <LongitudeDegrees>-4.00224904529750347137451171875</LongitudeDegrees>
            </Position>
            <AltitudeMeters>1791.199951171875</AltitudeMeters>
            <DistanceMeters>NAN</DistanceMeters>
          </Trackpoint>
          <Trackpoint>
            <Time>2019-08-01T12:18:45.000Z</Time>
            <Position>
              <LatitudeDegrees>40.7870873250067234039306640625</LatitudeDegrees>
              <LongitudeDegrees>-4.0022684074938297271728515625</LongitudeDegrees>
            </Position>
            <AltitudeMeters>1791.4000244140625</AltitudeMeters>
            <DistanceMeters>NAN</DistanceMeters>
          </Trackpoint>
          <Trackpoint>
            <Time>2019-08-01T12:18:46.000Z</Time>
            <Position>
              <LatitudeDegrees>40.78711397945880889892578125</LatitudeDegrees>
              <LongitudeDegrees>-4.00228969752788543701171875</LongitudeDegrees>
            </Position>
            <AltitudeMeters>1791.5999755859375</AltitudeMeters>
            <DistanceMeters>NAN</DistanceMeters>
          </Trackpoint>
          <Trackpoint>
            <Time>2019-08-01T12:18:47.000Z</Time>
            <Position>
              <LatitudeDegrees>40.787141807377338409423828125</LatitudeDegrees>
              <LongitudeDegrees>-4.0023089759051799774169921875</LongitudeDegrees>
            </Position>
            <AltitudeMeters>1791.5999755859375</AltitudeMeters>
            <DistanceMeters>NAN</DistanceMeters>
          </Trackpoint>
          <Trackpoint>
            <Time>2019-08-01T12:18:48.000Z</Time>
            <Position>
              <LatitudeDegrees>40.78717072494328022003173828125</LatitudeDegrees>
              <LongitudeDegrees>-4.00232850573956966400146484375</LongitudeDegrees>
            </Position>
            <AltitudeMeters>1792</AltitudeMeters>
            <DistanceMeters>NAN</DistanceMeters>
          </Trackpoint>
          <Trackpoint>
            <Time>2019-08-01T12:18:49.000Z</Time>
            <Position>
              <LatitudeDegrees>40.7871989719569683074951171875</LatitudeDegrees>
              <LongitudeDegrees>-4.0023453533649444580078125</LongitudeDegrees>
            </Position>
            <AltitudeMeters>1792.4000244140625</AltitudeMeters>
            <DistanceMeters>NAN</DistanceMeters>
          </Trackpoint>
          <Trackpoint>
            <Time>2019-08-01T12:18:50.000Z</Time>
            <Position>
              <LatitudeDegrees>40.78722621314227581024169921875</LatitudeDegrees>
              <LongitudeDegrees>-4.00236287154257297515869140625</LongitudeDegrees>
            </Position>
            <AltitudeMeters>1792.5999755859375</AltitudeMeters>
            <DistanceMeters>NAN</DistanceMeters>
          </Trackpoint>
          <Trackpoint>
            <Time>2019-08-01T12:18:51.000Z</Time>
            <Position>
              <LatitudeDegrees>40.78725454397499561309814453125</LatitudeDegrees>
              <LongitudeDegrees>-4.00238248519599437713623046875</LongitudeDegrees>
            </Position>
            <AltitudeMeters>1792.5999755859375</AltitudeMeters>
            <DistanceMeters>NAN</DistanceMeters>
          </Trackpoint>
          <Trackpoint>
            <Time>2019-08-01T12:18:52.000Z</Time>
            <Position>
              <LatitudeDegrees>40.787283293902873992919921875</LatitudeDegrees>
              <LongitudeDegrees>-4.0024030208587646484375</LongitudeDegrees>
            </Position>
            <AltitudeMeters>1792.800048828125</AltitudeMeters>
            <DistanceMeters>NAN</DistanceMeters>
          </Trackpoint>
          <Trackpoint>
            <Time>2019-08-01T12:18:53.000Z</Time>
            <Position>
              <LatitudeDegrees>40.78731221146881580352783203125</LatitudeDegrees>
              <LongitudeDegrees>-4.00242338888347148895263671875</LongitudeDegrees>
            </Position>
            <AltitudeMeters>1792.5999755859375</AltitudeMeters>
            <DistanceMeters>NAN</DistanceMeters>
          </Trackpoint>
          <Trackpoint>
            <Time>2019-08-01T12:18:54.000Z</Time>
            <Position>
              <LatitudeDegrees>40.78734154812991619110107421875</LatitudeDegrees>
              <LongitudeDegrees>-4.002446271479129791259765625</LongitudeDegrees>
            </Position>
            <AltitudeMeters>1793</AltitudeMeters>
            <DistanceMeters>NAN</DistanceMeters>
          </Trackpoint>
          <Trackpoint>
            <Time>2019-08-01T12:18:55.000Z</Time>
            <Position>
              <LatitudeDegrees>40.7873709686100482940673828125</LatitudeDegrees>
              <LongitudeDegrees>-4.0024658851325511932373046875</LongitudeDegrees>
            </Position>
            <AltitudeMeters>1793.4000244140625</AltitudeMeters>
            <DistanceMeters>NAN</DistanceMeters>
          </Trackpoint>
          <Trackpoint>
            <Time>2019-08-01T12:18:56.000Z</Time>
            <Position>
              <LatitudeDegrees>40.7874001376330852508544921875</LatitudeDegrees>
              <LongitudeDegrees>-4.002486504614353179931640625</LongitudeDegrees>
            </Position>
            <AltitudeMeters>1793.5999755859375</AltitudeMeters>
            <DistanceMeters>NAN</DistanceMeters>
          </Trackpoint>
          <Trackpoint>
            <Time>2019-08-01T12:18:57.000Z</Time>
            <Position>
              <LatitudeDegrees>40.78742905519902706146240234375</LatitudeDegrees>
              <LongitudeDegrees>-4.0025064535439014434814453125</LongitudeDegrees>
            </Position>
            <AltitudeMeters>1794</AltitudeMeters>
            <DistanceMeters>NAN</DistanceMeters>
          </Trackpoint>
          <Trackpoint>
            <Time>2019-08-01T12:18:58.000Z</Time>
            <Position>
              <LatitudeDegrees>40.7874578051269054412841796875</LatitudeDegrees>
              <LongitudeDegrees>-4.00252707302570343017578125</LongitudeDegrees>
            </Position>
            <AltitudeMeters>1794.199951171875</AltitudeMeters>
            <DistanceMeters>NAN</DistanceMeters>
          </Trackpoint>
          <Trackpoint>
            <Time>2019-08-01T12:18:59.000Z</Time>
            <Position>
              <LatitudeDegrees>40.78748571686446666717529296875</LatitudeDegrees>
              <LongitudeDegrees>-4.00254853069782257080078125</LongitudeDegrees>
            </Position>
            <AltitudeMeters>1794.4000244140625</AltitudeMeters>
            <DistanceMeters>NAN</DistanceMeters>
          </Trackpoint>
          <Trackpoint>
            <Time>2019-08-01T12:19:00.000Z</Time>
            <Position>
              <LatitudeDegrees>40.787512958049774169921875</LatitudeDegrees>
              <LongitudeDegrees>-4.00256940163671970367431640625</LongitudeDegrees>
            </Position>
            <AltitudeMeters>1794.5999755859375</AltitudeMeters>
            <DistanceMeters>NAN</DistanceMeters>
          </Trackpoint>
          <Trackpoint>
            <Time>2019-08-01T12:19:01.000Z</Time>
            <Position>
              <LatitudeDegrees>40.78754053451120853424072265625</LatitudeDegrees>
              <LongitudeDegrees>-4.00258800946176052093505859375</LongitudeDegrees>
            </Position>
            <AltitudeMeters>1795</AltitudeMeters>
            <DistanceMeters>NAN</DistanceMeters>
          </Trackpoint>
          <Trackpoint>
            <Time>2019-08-01T12:19:02.000Z</Time>
            <Position>
              <LatitudeDegrees>40.7875707931816577911376953125</LatitudeDegrees>
              <LongitudeDegrees>-4.002605192363262176513671875</LongitudeDegrees>
            </Position>
            <AltitudeMeters>1795.199951171875</AltitudeMeters>
            <DistanceMeters>NAN</DistanceMeters>
          </Trackpoint>
          <Trackpoint>
            <Time>2019-08-01T12:19:03.000Z</Time>
            <Position>
              <LatitudeDegrees>40.7876002974808216094970703125</LatitudeDegrees>
              <LongitudeDegrees>-4.002625644207000732421875</LongitudeDegrees>
            </Position>
            <AltitudeMeters>1795.5999755859375</AltitudeMeters>
            <DistanceMeters>NAN</DistanceMeters>
          </Trackpoint>
          <Trackpoint>
            <Time>2019-08-01T12:19:04.000Z</Time>
            <Position>
              <LatitudeDegrees>40.78762921504676342010498046875</LatitudeDegrees>
              <LongitudeDegrees>-4.00264643132686614990234375</LongitudeDegrees>
            </Position>
            <AltitudeMeters>1795.800048828125</AltitudeMeters>
            <DistanceMeters>NAN</DistanceMeters>
          </Trackpoint>
          <Trackpoint>
            <Time>2019-08-01T12:19:05.000Z</Time>
            <Position>
              <LatitudeDegrees>40.78765704296529293060302734375</LatitudeDegrees>
              <LongitudeDegrees>-4.00266746990382671356201171875</LongitudeDegrees>
            </Position>
            <AltitudeMeters>1796</AltitudeMeters>
            <DistanceMeters>NAN</DistanceMeters>
          </Trackpoint>
          <Trackpoint>
            <Time>2019-08-01T12:19:06.000Z</Time>
            <Position>
              <LatitudeDegrees>40.78768470324575901031494140625</LatitudeDegrees>
              <LongitudeDegrees>-4.00268842466175556182861328125</LongitudeDegrees>
            </Position>
            <AltitudeMeters>1796.4000244140625</AltitudeMeters>
            <DistanceMeters>NAN</DistanceMeters>
          </Trackpoint>
          <Trackpoint>
            <Time>2019-08-01T12:19:07.000Z</Time>
            <Position>
              <LatitudeDegrees>40.78771253116428852081298828125</LatitudeDegrees>
              <LongitudeDegrees>-4.0027089603245258331298828125</LongitudeDegrees>
            </Position>
            <AltitudeMeters>1796.5999755859375</AltitudeMeters>
            <DistanceMeters>NAN</DistanceMeters>
          </Trackpoint>
          <Trackpoint>
            <Time>2019-08-01T12:19:08.000Z</Time>
            <Position>
              <LatitudeDegrees>40.78774027526378631591796875</LatitudeDegrees>
              <LongitudeDegrees>-4.0027289092540740966796875</LongitudeDegrees>
            </Position>
            <AltitudeMeters>1796.800048828125</AltitudeMeters>
            <DistanceMeters>NAN</DistanceMeters>
          </Trackpoint>
          <Trackpoint>
            <Time>2019-08-01T12:19:09.000Z</Time>
            <Position>
              <LatitudeDegrees>40.78776936046779155731201171875</LatitudeDegrees>
              <LongitudeDegrees>-4.00274659506976604461669921875</LongitudeDegrees>
            </Position>
            <AltitudeMeters>1797</AltitudeMeters>
            <DistanceMeters>NAN</DistanceMeters>
          </Trackpoint>
          <Trackpoint>
            <Time>2019-08-01T12:19:10.000Z</Time>
            <Position>
              <LatitudeDegrees>40.7877986133098602294921875</LatitudeDegrees>
              <LongitudeDegrees>-4.0027652867138385772705078125</LongitudeDegrees>
            </Position>
            <AltitudeMeters>1797.199951171875</AltitudeMeters>
            <DistanceMeters>NAN</DistanceMeters>
          </Trackpoint>
          <Trackpoint>
            <Time>2019-08-01T12:19:11.000Z</Time>
            <Position>
              <LatitudeDegrees>40.78782652504742145538330078125</LatitudeDegrees>
              <LongitudeDegrees>-4.00278599001467227935791015625</LongitudeDegrees>
            </Position>
            <AltitudeMeters>1797.199951171875</AltitudeMeters>
            <DistanceMeters>NAN</DistanceMeters>
          </Trackpoint>
          <Trackpoint>
            <Time>2019-08-01T12:19:12.000Z</Time>
            <Position>
              <LatitudeDegrees>40.787854604423046112060546875</LatitudeDegrees>
              <LongitudeDegrees>-4.00280543603003025054931640625</LongitudeDegrees>
            </Position>
            <AltitudeMeters>1797.5999755859375</AltitudeMeters>
            <DistanceMeters>NAN</DistanceMeters>
          </Trackpoint>
          <Trackpoint>
            <Time>2019-08-01T12:19:13.000Z</Time>
            <Position>
              <LatitudeDegrees>40.78788268379867076873779296875</LatitudeDegrees>
              <LongitudeDegrees>-4.0028229542076587677001953125</LongitudeDegrees>
            </Position>
            <AltitudeMeters>1798</AltitudeMeters>
            <DistanceMeters>NAN</DistanceMeters>
          </Trackpoint>
          <Trackpoint>
            <Time>2019-08-01T12:19:14.000Z</Time>
            <Position>
              <LatitudeDegrees>40.787908919155597686767578125</LatitudeDegrees>
              <LongitudeDegrees>-4.00284181348979473114013671875</LongitudeDegrees>
            </Position>
            <AltitudeMeters>1798.199951171875</AltitudeMeters>
            <DistanceMeters>NAN</DistanceMeters>
          </Trackpoint>
          <Trackpoint>
            <Time>2019-08-01T12:19:15.000Z</Time>
            <Position>
              <LatitudeDegrees>40.78793364576995372772216796875</LatitudeDegrees>
              <LongitudeDegrees>-4.00286109186708927154541015625</LongitudeDegrees>
            </Position>
            <AltitudeMeters>1798.4000244140625</AltitudeMeters>
            <DistanceMeters>NAN</DistanceMeters>
          </Trackpoint>
          <Trackpoint>
            <Time>2019-08-01T12:19:16.000Z</Time>
            <Position>
              <LatitudeDegrees>40.78795795328915119171142578125</LatitudeDegrees>
              <LongitudeDegrees>-4.0028809569776058197021484375</LongitudeDegrees>
            </Position>
            <AltitudeMeters>1798.5999755859375</AltitudeMeters>
            <DistanceMeters>NAN</DistanceMeters>
          </Trackpoint>
          <Trackpoint>
            <Time>2019-08-01T12:19:17.000Z</Time>
            <Position>
              <LatitudeDegrees>40.78798192553222179412841796875</LatitudeDegrees>
              <LongitudeDegrees>-4.002902247011661529541015625</LongitudeDegrees>
            </Position>
            <AltitudeMeters>1798.800048828125</AltitudeMeters>
            <DistanceMeters>NAN</DistanceMeters>
          </Trackpoint>
          <Trackpoint>
            <Time>2019-08-01T12:19:18.000Z</Time>
            <Position>
              <LatitudeDegrees>40.78800640068948268890380859375</LatitudeDegrees>
              <LongitudeDegrees>-4.00292244739830493927001953125</LongitudeDegrees>
            </Position>
            <AltitudeMeters>1798.800048828125</AltitudeMeters>
            <DistanceMeters>NAN</DistanceMeters>
          </Trackpoint>
          <Trackpoint>
            <Time>2019-08-01T12:19:19.000Z</Time>
            <Position>
              <LatitudeDegrees>40.788030959665775299072265625</LatitudeDegrees>
              <LongitudeDegrees>-4.0029423125088214874267578125</LongitudeDegrees>
            </Position>
            <AltitudeMeters>1799</AltitudeMeters>
            <DistanceMeters>NAN</DistanceMeters>
          </Trackpoint>
          <Trackpoint>
            <Time>2019-08-01T12:19:20.000Z</Time>
            <Position>
              <LatitudeDegrees>40.78805468045175075531005859375</LatitudeDegrees>
              <LongitudeDegrees>-4.002961255609989166259765625</LongitudeDegrees>
            </Position>
            <AltitudeMeters>1799.199951171875</AltitudeMeters>
            <DistanceMeters>NAN</DistanceMeters>
          </Trackpoint>
          <Trackpoint>
            <Time>2019-08-01T12:19:21.000Z</Time>
            <Position>
              <LatitudeDegrees>40.78807890415191650390625</LatitudeDegrees>
              <LongitudeDegrees>-4.00297609157860279083251953125</LongitudeDegrees>
            </Position>
            <AltitudeMeters>1799.4000244140625</AltitudeMeters>
            <DistanceMeters>NAN</DistanceMeters>
          </Trackpoint>
          <Trackpoint>
            <Time>2019-08-01T12:19:22.000Z</Time>
            <Position>
              <LatitudeDegrees>40.78810446895658969879150390625</LatitudeDegrees>
              <LongitudeDegrees>-4.0029899217188358306884765625</LongitudeDegrees>
            </Position>
            <AltitudeMeters>1799.800048828125</AltitudeMeters>
            <DistanceMeters>NAN</DistanceMeters>
          </Trackpoint>
          <Trackpoint>
            <Time>2019-08-01T12:19:23.000Z</Time>
            <Position>
              <LatitudeDegrees>40.788129866123199462890625</LatitudeDegrees>
              <LongitudeDegrees>-4.00300609879195690155029296875</LongitudeDegrees>
            </Position>
            <AltitudeMeters>1800.199951171875</AltitudeMeters>
            <DistanceMeters>NAN</DistanceMeters>
          </Trackpoint>
          <Trackpoint>
            <Time>2019-08-01T12:19:24.000Z</Time>
            <Position>
              <LatitudeDegrees>40.7881551794707775115966796875</LatitudeDegrees>
              <LongitudeDegrees>-4.0030239522457122802734375</LongitudeDegrees>
            </Position>
            <AltitudeMeters>1800.199951171875</AltitudeMeters>
            <DistanceMeters>NAN</DistanceMeters>
          </Trackpoint>
          <Trackpoint>
            <Time>2019-08-01T12:19:25.000Z</Time>
            <Position>
              <LatitudeDegrees>40.78818175010383129119873046875</LatitudeDegrees>
              <LongitudeDegrees>-4.003043062984943389892578125</LongitudeDegrees>
            </Position>
            <AltitudeMeters>1800.800048828125</AltitudeMeters>
            <DistanceMeters>NAN</DistanceMeters>
          </Trackpoint>
          <Trackpoint>
            <Time>2019-08-01T12:19:26.000Z</Time>
            <Position>
              <LatitudeDegrees>40.78820790164172649383544921875</LatitudeDegrees>
              <LongitudeDegrees>-4.00306083261966705322265625</LongitudeDegrees>
            </Position>
            <AltitudeMeters>1801</AltitudeMeters>
            <DistanceMeters>NAN</DistanceMeters>
          </Trackpoint>
          <Trackpoint>
            <Time>2019-08-01T12:19:27.000Z</Time>
            <Position>
              <LatitudeDegrees>40.78823371790349483489990234375</LatitudeDegrees>
              <LongitudeDegrees>-4.0030757524073123931884765625</LongitudeDegrees>
            </Position>
            <AltitudeMeters>1801.4000244140625</AltitudeMeters>
            <DistanceMeters>NAN</DistanceMeters>
          </Trackpoint>
          <Trackpoint>
            <Time>2019-08-01T12:19:28.000Z</Time>
            <Position>
              <LatitudeDegrees>40.7882604561746120452880859375</LatitudeDegrees>
              <LongitudeDegrees>-4.0030915103852748870849609375</LongitudeDegrees>
            </Position>
            <AltitudeMeters>1801.5999755859375</AltitudeMeters>
            <DistanceMeters>NAN</DistanceMeters>
          </Trackpoint>
          <Trackpoint>
            <Time>2019-08-01T12:19:29.000Z</Time>
            <Position>
              <LatitudeDegrees>40.78828870318830013275146484375</LatitudeDegrees>
              <LongitudeDegrees>-4.0031143091619014739990234375</LongitudeDegrees>
            </Position>
            <AltitudeMeters>1801.800048828125</AltitudeMeters>
            <DistanceMeters>NAN</DistanceMeters>
          </Trackpoint>
          <Trackpoint>
            <Time>2019-08-01T12:19:30.000Z</Time>
            <Position>
              <LatitudeDegrees>40.7883177883923053741455078125</LatitudeDegrees>
              <LongitudeDegrees>-4.00313652120530605316162109375</LongitudeDegrees>
            </Position>
            <AltitudeMeters>1802</AltitudeMeters>
            <DistanceMeters>NAN</DistanceMeters>
          </Trackpoint>
          <Trackpoint>
            <Time>2019-08-01T12:19:31.000Z</Time>
            <Position>
              <LatitudeDegrees>40.78834570012986660003662109375</LatitudeDegrees>
              <LongitudeDegrees>-4.003155715763568878173828125</LongitudeDegrees>
            </Position>
            <AltitudeMeters>1802.199951171875</AltitudeMeters>
            <DistanceMeters>NAN</DistanceMeters>
          </Trackpoint>
          <Trackpoint>
            <Time>2019-08-01T12:19:32.000Z</Time>
            <Position>
              <LatitudeDegrees>40.78837302513420581817626953125</LatitudeDegrees>
              <LongitudeDegrees>-4.0031749941408634185791015625</LongitudeDegrees>
            </Position>
            <AltitudeMeters>1802.4000244140625</AltitudeMeters>
            <DistanceMeters>NAN</DistanceMeters>
          </Trackpoint>
          <Trackpoint>
            <Time>2019-08-01T12:19:33.000Z</Time>
            <Position>
              <LatitudeDegrees>40.7884022779762744903564453125</LatitudeDegrees>
              <LongitudeDegrees>-4.003199972212314605712890625</LongitudeDegrees>
            </Position>
            <AltitudeMeters>1802.800048828125</AltitudeMeters>
            <DistanceMeters>NAN</DistanceMeters>
          </Trackpoint>
          <Trackpoint>
            <Time>2019-08-01T12:19:34.000Z</Time>
            <Position>
              <LatitudeDegrees>40.78843228518962860107421875</LatitudeDegrees>
              <LongitudeDegrees>-4.00322444736957550048828125</LongitudeDegrees>
            </Position>
            <AltitudeMeters>1803</AltitudeMeters>
            <DistanceMeters>NAN</DistanceMeters>
          </Trackpoint>
          <Trackpoint>
            <Time>2019-08-01T12:19:35.000Z</Time>
            <Position>
              <LatitudeDegrees>40.78846204094588756561279296875</LatitudeDegrees>
              <LongitudeDegrees>-4.0032492578029632568359375</LongitudeDegrees>
            </Position>
            <AltitudeMeters>1803.199951171875</AltitudeMeters>
            <DistanceMeters>NAN</DistanceMeters>
          </Trackpoint>
          <Trackpoint>
            <Time>2019-08-01T12:19:36.000Z</Time>
            <Position>
              <LatitudeDegrees>40.7884924672544002532958984375</LatitudeDegrees>
              <LongitudeDegrees>-4.0032752417027950286865234375</LongitudeDegrees>
            </Position>
            <AltitudeMeters>1803.4000244140625</AltitudeMeters>
            <DistanceMeters>NAN</DistanceMeters>
          </Trackpoint>
          <Trackpoint>
            <Time>2019-08-01T12:19:37.000Z</Time>
            <Position>
              <LatitudeDegrees>40.78852289356291294097900390625</LatitudeDegrees>
              <LongitudeDegrees>-4.00329594500362873077392578125</LongitudeDegrees>
            </Position>
            <AltitudeMeters>1803.5999755859375</AltitudeMeters>
            <DistanceMeters>NAN</DistanceMeters>
          </Trackpoint>
          <Trackpoint>
            <Time>2019-08-01T12:19:38.000Z</Time>
            <Position>
              <LatitudeDegrees>40.78855474479496479034423828125</LatitudeDegrees>
              <LongitudeDegrees>-4.0033131279051303863525390625</LongitudeDegrees>
            </Position>
            <AltitudeMeters>1803.5999755859375</AltitudeMeters>
            <DistanceMeters>NAN</DistanceMeters>
          </Trackpoint>
          <Trackpoint>
            <Time>2019-08-01T12:19:39.000Z</Time>
            <Position>
              <LatitudeDegrees>40.78858877532184123992919921875</LatitudeDegrees>
              <LongitudeDegrees>-4.0033258683979511260986328125</LongitudeDegrees>
            </Position>
            <AltitudeMeters>1803.5999755859375</AltitudeMeters>
            <DistanceMeters>NAN</DistanceMeters>
          </Trackpoint>
          <Trackpoint>
            <Time>2019-08-01T12:19:40.000Z</Time>
            <Position>
              <LatitudeDegrees>40.7886252366006374359130859375</LatitudeDegrees>
              <LongitudeDegrees>-4.00333081372082233428955078125</LongitudeDegrees>
            </Position>
            <AltitudeMeters>1803.5999755859375</AltitudeMeters>
            <DistanceMeters>NAN</DistanceMeters>
          </Trackpoint>
          <Trackpoint>
            <Time>2019-08-01T12:19:41.000Z</Time>
            <Position>
              <LatitudeDegrees>40.78866295516490936279296875</LatitudeDegrees>
              <LongitudeDegrees>-4.0033255331218242645263671875</LongitudeDegrees>
            </Position>
            <AltitudeMeters>1803.5999755859375</AltitudeMeters>
            <DistanceMeters>NAN</DistanceMeters>
          </Trackpoint>
          <Trackpoint>
            <Time>2019-08-01T12:19:42.000Z</Time>
            <Position>
              <LatitudeDegrees>40.7887010090053081512451171875</LatitudeDegrees>
              <LongitudeDegrees>-4.00331237353384494781494140625</LongitudeDegrees>
            </Position>
            <AltitudeMeters>1803.5999755859375</AltitudeMeters>
            <DistanceMeters>NAN</DistanceMeters>
          </Trackpoint>
          <Trackpoint>
            <Time>2019-08-01T12:19:43.000Z</Time>
            <Position>
              <LatitudeDegrees>40.788739062845706939697265625</LatitudeDegrees>
              <LongitudeDegrees>-4.00329418480396270751953125</LongitudeDegrees>
            </Position>
            <AltitudeMeters>1803.5999755859375</AltitudeMeters>
            <DistanceMeters>NAN</DistanceMeters>
          </Trackpoint>
          <Trackpoint>
            <Time>2019-08-01T12:19:44.000Z</Time>
            <Position>
              <LatitudeDegrees>40.78877669759094715118408203125</LatitudeDegrees>
              <LongitudeDegrees>-4.00327180512249469757080078125</LongitudeDegrees>
            </Position>
            <AltitudeMeters>1803.5999755859375</AltitudeMeters>
            <DistanceMeters>NAN</DistanceMeters>
          </Trackpoint>
          <Trackpoint>
            <Time>2019-08-01T12:19:45.000Z</Time>
            <Position>
              <LatitudeDegrees>40.78881449997425079345703125</LatitudeDegrees>
              <LongitudeDegrees>-4.003246910870075225830078125</LongitudeDegrees>
            </Position>
            <AltitudeMeters>1803.800048828125</AltitudeMeters>
            <DistanceMeters>NAN</DistanceMeters>
          </Trackpoint>
          <Trackpoint>
            <Time>2019-08-01T12:19:46.000Z</Time>
            <Position>
              <LatitudeDegrees>40.78885246999561786651611328125</LatitudeDegrees>
              <LongitudeDegrees>-4.00322034023702144622802734375</LongitudeDegrees>
            </Position>
            <AltitudeMeters>1803.800048828125</AltitudeMeters>
            <DistanceMeters>NAN</DistanceMeters>
          </Trackpoint>
          <Trackpoint>
            <Time>2019-08-01T12:19:47.000Z</Time>
            <Position>
              <LatitudeDegrees>40.7888917811214923858642578125</LatitudeDegrees>
              <LongitudeDegrees>-4.0031964518129825592041015625</LongitudeDegrees>
            </Position>
            <AltitudeMeters>1803.800048828125</AltitudeMeters>
            <DistanceMeters>NAN</DistanceMeters>
          </Trackpoint>
          <Trackpoint>
            <Time>2019-08-01T12:19:48.000Z</Time>
            <Position>
              <LatitudeDegrees>40.78893251717090606689453125</LatitudeDegrees>
              <LongitudeDegrees>-4.00317843072116374969482421875</LongitudeDegrees>
            </Position>
            <AltitudeMeters>1803.800048828125</AltitudeMeters>
            <DistanceMeters>NAN</DistanceMeters>
          </Trackpoint>
          <Trackpoint>
            <Time>2019-08-01T12:19:49.000Z</Time>
            <Position>
              <LatitudeDegrees>40.788975097239017486572265625</LatitudeDegrees>
              <LongitudeDegrees>-4.00317306630313396453857421875</LongitudeDegrees>
            </Position>
            <AltitudeMeters>1803.800048828125</AltitudeMeters>
            <DistanceMeters>NAN</DistanceMeters>
          </Trackpoint>
          <Trackpoint>
            <Time>2019-08-01T12:19:50.000Z</Time>
            <Position>
              <LatitudeDegrees>40.7890175096690654754638671875</LatitudeDegrees>
              <LongitudeDegrees>-4.00318547151982784271240234375</LongitudeDegrees>
            </Position>
            <AltitudeMeters>1803.800048828125</AltitudeMeters>
            <DistanceMeters>NAN</DistanceMeters>
          </Trackpoint>
          <Trackpoint>
            <Time>2019-08-01T12:19:51.000Z</Time>
            <Position>
              <LatitudeDegrees>40.78905480913817882537841796875</LatitudeDegrees>
              <LongitudeDegrees>-4.0032185800373554229736328125</LongitudeDegrees>
            </Position>
            <AltitudeMeters>1803.5999755859375</AltitudeMeters>
            <DistanceMeters>NAN</DistanceMeters>
          </Trackpoint>
          <Trackpoint>
            <Time>2019-08-01T12:19:52.000Z</Time>
            <Position>
              <LatitudeDegrees>40.7890761829912662506103515625</LatitudeDegrees>
              <LongitudeDegrees>-4.00327130220830440521240234375</LongitudeDegrees>
            </Position>
            <AltitudeMeters>1803.5999755859375</AltitudeMeters>
            <DistanceMeters>NAN</DistanceMeters>
          </Trackpoint>
          <Trackpoint>
            <Time>2019-08-01T12:19:53.000Z</Time>
            <Position>
              <LatitudeDegrees>40.78907668590545654296875</LatitudeDegrees>
              <LongitudeDegrees>-4.00333416648209095001220703125</LongitudeDegrees>
            </Position>
            <AltitudeMeters>1803.5999755859375</AltitudeMeters>
            <DistanceMeters>NAN</DistanceMeters>
          </Trackpoint>
          <Trackpoint>
            <Time>2019-08-01T12:19:54.000Z</Time>
            <Position>
              <LatitudeDegrees>40.789058245718479156494140625</LatitudeDegrees>
              <LongitudeDegrees>-4.0033929236233234405517578125</LongitudeDegrees>
            </Position>
            <AltitudeMeters>1803.5999755859375</AltitudeMeters>
            <DistanceMeters>NAN</DistanceMeters>
          </Trackpoint>
          <Trackpoint>
            <Time>2019-08-01T12:19:55.000Z</Time>
            <Position>
              <LatitudeDegrees>40.7890292443335056304931640625</LatitudeDegrees>
              <LongitudeDegrees>-4.0034458972513675689697265625</LongitudeDegrees>
            </Position>
            <AltitudeMeters>1803.5999755859375</AltitudeMeters>
            <DistanceMeters>NAN</DistanceMeters>
          </Trackpoint>
          <Trackpoint>
            <Time>2019-08-01T12:19:56.000Z</Time>
            <Position>
              <LatitudeDegrees>40.7889953814446926116943359375</LatitudeDegrees>
              <LongitudeDegrees>-4.00349157862365245819091796875</LongitudeDegrees>
            </Position>
            <AltitudeMeters>1803.5999755859375</AltitudeMeters>
            <DistanceMeters>NAN</DistanceMeters>
          </Trackpoint>
          <Trackpoint>
            <Time>2019-08-01T12:19:57.000Z</Time>
            <Position>
              <LatitudeDegrees>40.78895892016589641571044921875</LatitudeDegrees>
              <LongitudeDegrees>-4.00353248231112957000732421875</LongitudeDegrees>
            </Position>
            <AltitudeMeters>1803.800048828125</AltitudeMeters>
            <DistanceMeters>NAN</DistanceMeters>
          </Trackpoint>
          <Trackpoint>
            <Time>2019-08-01T12:19:58.000Z</Time>
            <Position>
              <LatitudeDegrees>40.788918770849704742431640625</LatitudeDegrees>
              <LongitudeDegrees>-4.00356316007673740386962890625</LongitudeDegrees>
            </Position>
            <AltitudeMeters>1803.800048828125</AltitudeMeters>
            <DistanceMeters>NAN</DistanceMeters>
          </Trackpoint>
          <Trackpoint>
            <Time>2019-08-01T12:19:59.000Z</Time>
            <Position>
              <LatitudeDegrees>40.78887510113418102264404296875</LatitudeDegrees>
              <LongitudeDegrees>-4.00358193553984165191650390625</LongitudeDegrees>
            </Position>
            <AltitudeMeters>1803.800048828125</AltitudeMeters>
            <DistanceMeters>NAN</DistanceMeters>
          </Trackpoint>
          <Trackpoint>
            <Time>2019-08-01T12:20:00.000Z</Time>
            <Position>
              <LatitudeDegrees>40.78883017413318157196044921875</LatitudeDegrees>
              <LongitudeDegrees>-4.00358562357723712921142578125</LongitudeDegrees>
            </Position>
            <AltitudeMeters>1803.800048828125</AltitudeMeters>
            <DistanceMeters>NAN</DistanceMeters>
          </Trackpoint>
          <Trackpoint>
            <Time>2019-08-01T12:20:01.000Z</Time>
            <Position>
              <LatitudeDegrees>40.78878608532249927520751953125</LatitudeDegrees>
              <LongitudeDegrees>-4.00357715785503387451171875</LongitudeDegrees>
            </Position>
            <AltitudeMeters>1803.800048828125</AltitudeMeters>
            <DistanceMeters>NAN</DistanceMeters>
          </Trackpoint>
          <Trackpoint>
            <Time>2019-08-01T12:20:02.000Z</Time>
            <Position>
              <LatitudeDegrees>40.78874249942600727081298828125</LatitudeDegrees>
              <LongitudeDegrees>-4.00356198661029338836669921875</LongitudeDegrees>
            </Position>
            <AltitudeMeters>1803.800048828125</AltitudeMeters>
            <DistanceMeters>NAN</DistanceMeters>
          </Trackpoint>
          <Trackpoint>
            <Time>2019-08-01T12:20:03.000Z</Time>
            <Position>
              <LatitudeDegrees>40.7887020148336887359619140625</LatitudeDegrees>
              <LongitudeDegrees>-4.0035414509475231170654296875</LongitudeDegrees>
            </Position>
            <AltitudeMeters>1803.5999755859375</AltitudeMeters>
            <DistanceMeters>NAN</DistanceMeters>
          </Trackpoint>
          <Trackpoint>
            <Time>2019-08-01T12:20:04.000Z</Time>
            <Position>
              <LatitudeDegrees>40.7886637933552265167236328125</LatitudeDegrees>
              <LongitudeDegrees>-4.00352041237056255340576171875</LongitudeDegrees>
            </Position>
            <AltitudeMeters>1803.800048828125</AltitudeMeters>
            <DistanceMeters>NAN</DistanceMeters>
          </Trackpoint>
          <Trackpoint>
            <Time>2019-08-01T12:20:05.000Z</Time>
            <Position>
              <LatitudeDegrees>40.78862599097192287445068359375</LatitudeDegrees>
              <LongitudeDegrees>-4.0034978650510311126708984375</LongitudeDegrees>
            </Position>
            <AltitudeMeters>1803.800048828125</AltitudeMeters>
            <DistanceMeters>NAN</DistanceMeters>
          </Trackpoint>
          <Trackpoint>
            <Time>2019-08-01T12:20:06.000Z</Time>
            <Position>
              <LatitudeDegrees>40.788588188588619232177734375</LatitudeDegrees>
              <LongitudeDegrees>-4.003472886979579925537109375</LongitudeDegrees>
            </Position>
            <AltitudeMeters>1803.800048828125</AltitudeMeters>
            <DistanceMeters>NAN</DistanceMeters>
          </Trackpoint>
          <Trackpoint>
            <Time>2019-08-01T12:20:07.000Z</Time>
            <Position>
              <LatitudeDegrees>40.788547955453395843505859375</LatitudeDegrees>
              <LongitudeDegrees>-4.00344598107039928436279296875</LongitudeDegrees>
            </Position>
            <AltitudeMeters>1804</AltitudeMeters>
            <DistanceMeters>NAN</DistanceMeters>
          </Trackpoint>
          <Trackpoint>
            <Time>2019-08-01T12:20:08.000Z</Time>
            <Position>
              <LatitudeDegrees>40.7885055430233478546142578125</LatitudeDegrees>
              <LongitudeDegrees>-4.003419242799282073974609375</LongitudeDegrees>
            </Position>
            <AltitudeMeters>1804.199951171875</AltitudeMeters>
            <DistanceMeters>NAN</DistanceMeters>
          </Trackpoint>
          <Trackpoint>
            <Time>2019-08-01T12:20:09.000Z</Time>
            <Position>
              <LatitudeDegrees>40.788460783660411834716796875</LatitudeDegrees>
              <LongitudeDegrees>-4.00338931940495967864990234375</LongitudeDegrees>
            </Position>
            <AltitudeMeters>1804.199951171875</AltitudeMeters>
            <DistanceMeters>NAN</DistanceMeters>
          </Trackpoint>
          <Trackpoint>
            <Time>2019-08-01T12:20:10.000Z</Time>
            <Position>
              <LatitudeDegrees>40.78841350972652435302734375</LatitudeDegrees>
              <LongitudeDegrees>-4.00335662998259067535400390625</LongitudeDegrees>
            </Position>
            <AltitudeMeters>1804.199951171875</AltitudeMeters>
            <DistanceMeters>NAN</DistanceMeters>
          </Trackpoint>
          <Trackpoint>
            <Time>2019-08-01T12:20:11.000Z</Time>
            <Position>
              <LatitudeDegrees>40.78836254775524139404296875</LatitudeDegrees>
              <LongitudeDegrees>-4.00331991724669933319091796875</LongitudeDegrees>
            </Position>
            <AltitudeMeters>1804.199951171875</AltitudeMeters>
            <DistanceMeters>NAN</DistanceMeters>
          </Trackpoint>
          <Trackpoint>
            <Time>2019-08-01T12:20:12.000Z</Time>
            <Position>
              <LatitudeDegrees>40.7883090712130069732666015625</LatitudeDegrees>
              <LongitudeDegrees>-4.00328085757791996002197265625</LongitudeDegrees>
            </Position>
            <AltitudeMeters>1804.4000244140625</AltitudeMeters>
            <DistanceMeters>NAN</DistanceMeters>
          </Trackpoint>
          <Trackpoint>
            <Time>2019-08-01T12:20:13.000Z</Time>
            <Position>
              <LatitudeDegrees>40.788252241909503936767578125</LatitudeDegrees>
              <LongitudeDegrees>-4.003241546452045440673828125</LongitudeDegrees>
            </Position>
            <AltitudeMeters>1804.4000244140625</AltitudeMeters>
            <DistanceMeters>NAN</DistanceMeters>
          </Trackpoint>
          <Trackpoint>
            <Time>2019-08-01T12:20:14.000Z</Time>
            <Position>
              <LatitudeDegrees>40.78819214366376399993896484375</LatitudeDegrees>
              <LongitudeDegrees>-4.00320022366940975189208984375</LongitudeDegrees>
            </Position>
            <AltitudeMeters>1804.4000244140625</AltitudeMeters>
            <DistanceMeters>NAN</DistanceMeters>
          </Trackpoint>
          <Trackpoint>
            <Time>2019-08-01T12:20:15.000Z</Time>
            <Position>
              <LatitudeDegrees>40.7881303690373897552490234375</LatitudeDegrees>
              <LongitudeDegrees>-4.0031622536480426788330078125</LongitudeDegrees>
            </Position>
            <AltitudeMeters>1804.4000244140625</AltitudeMeters>
            <DistanceMeters>NAN</DistanceMeters>
          </Trackpoint>
          <Trackpoint>
            <Time>2019-08-01T12:20:16.000Z</Time>
            <Position>
              <LatitudeDegrees>40.78806482255458831787109375</LatitudeDegrees>
              <LongitudeDegrees>-4.003118164837360382080078125</LongitudeDegrees>
            </Position>
            <AltitudeMeters>1804.4000244140625</AltitudeMeters>
            <DistanceMeters>NAN</DistanceMeters>
          </Trackpoint>
          <Trackpoint>
            <Time>2019-08-01T12:20:17.000Z</Time>
            <Position>
              <LatitudeDegrees>40.787996090948581695556640625</LatitudeDegrees>
              <LongitudeDegrees>-4.00306778959929943084716796875</LongitudeDegrees>
            </Position>
            <AltitudeMeters>1804.4000244140625</AltitudeMeters>
            <DistanceMeters>NAN</DistanceMeters>
          </Trackpoint>
          <Trackpoint>
            <Time>2019-08-01T12:20:18.000Z</Time>
            <Position>
              <LatitudeDegrees>40.7879204861819744110107421875</LatitudeDegrees>
              <LongitudeDegrees>-4.003012888133525848388671875</LongitudeDegrees>
            </Position>
            <AltitudeMeters>1804.199951171875</AltitudeMeters>
            <DistanceMeters>NAN</DistanceMeters>
          </Trackpoint>
          <Trackpoint>
            <Time>2019-08-01T12:20:19.000Z</Time>
            <Position>
              <LatitudeDegrees>40.78784144483506679534912109375</LatitudeDegrees>
              <LongitudeDegrees>-4.00295631028711795806884765625</LongitudeDegrees>
            </Position>
            <AltitudeMeters>1804.199951171875</AltitudeMeters>
            <DistanceMeters>NAN</DistanceMeters>
          </Trackpoint>
          <Trackpoint>
            <Time>2019-08-01T12:20:20.000Z</Time>
            <Position>
              <LatitudeDegrees>40.787757374346256256103515625</LatitudeDegrees>
              <LongitudeDegrees>-4.00289780460298061370849609375</LongitudeDegrees>
            </Position>
            <AltitudeMeters>1804.199951171875</AltitudeMeters>
            <DistanceMeters>NAN</DistanceMeters>
          </Trackpoint>
          <Trackpoint>
            <Time>2019-08-01T12:20:21.000Z</Time>
            <Position>
              <LatitudeDegrees>40.78766877762973308563232421875</LatitudeDegrees>
              <LongitudeDegrees>-4.00283795781433582305908203125</LongitudeDegrees>
            </Position>
            <AltitudeMeters>1804</AltitudeMeters>
            <DistanceMeters>NAN</DistanceMeters>
          </Trackpoint>
          <Trackpoint>
            <Time>2019-08-01T12:20:22.000Z</Time>
            <Position>
              <LatitudeDegrees>40.7875759899616241455078125</LatitudeDegrees>
              <LongitudeDegrees>-4.002775512635707855224609375</LongitudeDegrees>
            </Position>
            <AltitudeMeters>1803.800048828125</AltitudeMeters>
            <DistanceMeters>NAN</DistanceMeters>
          </Trackpoint>
          <Trackpoint>
            <Time>2019-08-01T12:20:23.000Z</Time>
            <Position>
              <LatitudeDegrees>40.78747917897999286651611328125</LatitudeDegrees>
              <LongitudeDegrees>-4.00270812213420867919921875</LongitudeDegrees>
            </Position>
            <AltitudeMeters>1803.4000244140625</AltitudeMeters>
            <DistanceMeters>NAN</DistanceMeters>
          </Trackpoint>
          <Trackpoint>
            <Time>2019-08-01T12:20:24.000Z</Time>
            <Position>
              <LatitudeDegrees>40.78737842850387096405029296875</LatitudeDegrees>
              <LongitudeDegrees>-4.002639390528202056884765625</LongitudeDegrees>
            </Position>
            <AltitudeMeters>1802.800048828125</AltitudeMeters>
            <DistanceMeters>NAN</DistanceMeters>
          </Trackpoint>
          <Trackpoint>
            <Time>2019-08-01T12:20:25.000Z</Time>
            <Position>
              <LatitudeDegrees>40.7872750796377658843994140625</LatitudeDegrees>
              <LongitudeDegrees>-4.0025701560080051422119140625</LongitudeDegrees>
            </Position>
            <AltitudeMeters>1802.4000244140625</AltitudeMeters>
            <DistanceMeters>NAN</DistanceMeters>
          </Trackpoint>
          <Trackpoint>
            <Time>2019-08-01T12:20:26.000Z</Time>
            <Position>
              <LatitudeDegrees>40.78716888092458248138427734375</LatitudeDegrees>
              <LongitudeDegrees>-4.0024982392787933349609375</LongitudeDegrees>
            </Position>
            <AltitudeMeters>1801.5999755859375</AltitudeMeters>
            <DistanceMeters>NAN</DistanceMeters>
          </Trackpoint>
          <Trackpoint>
            <Time>2019-08-01T12:20:27.000Z</Time>
            <Position>
              <LatitudeDegrees>40.78706092201173305511474609375</LatitudeDegrees>
              <LongitudeDegrees>-4.00242523290216922760009765625</LongitudeDegrees>
            </Position>
            <AltitudeMeters>1800.800048828125</AltitudeMeters>
            <DistanceMeters>NAN</DistanceMeters>
          </Trackpoint>
          <Trackpoint>
            <Time>2019-08-01T12:20:28.000Z</Time>
            <Position>
              <LatitudeDegrees>40.786952041089534759521484375</LatitudeDegrees>
              <LongitudeDegrees>-4.00235541164875030517578125</LongitudeDegrees>
            </Position>
            <AltitudeMeters>1799.5999755859375</AltitudeMeters>
            <DistanceMeters>NAN</DistanceMeters>
          </Trackpoint>
          <Trackpoint>
            <Time>2019-08-01T12:20:29.000Z</Time>
            <Position>
              <LatitudeDegrees>40.7868415676057338714599609375</LatitudeDegrees>
              <LongitudeDegrees>-4.00228659622371196746826171875</LongitudeDegrees>
            </Position>
            <AltitudeMeters>1797.800048828125</AltitudeMeters>
            <DistanceMeters>NAN</DistanceMeters>
          </Trackpoint>
          <Trackpoint>
            <Time>2019-08-01T12:20:30.000Z</Time>
            <Position>
              <LatitudeDegrees>40.7867292501032352447509765625</LatitudeDegrees>
              <LongitudeDegrees>-4.002211578190326690673828125</LongitudeDegrees>
            </Position>
            <AltitudeMeters>1796.5999755859375</AltitudeMeters>
            <DistanceMeters>NAN</DistanceMeters>
          </Trackpoint>
          <Trackpoint>
            <Time>2019-08-01T12:20:31.000Z</Time>
            <Position>
              <LatitudeDegrees>40.7866172678768634796142578125</LatitudeDegrees>
              <LongitudeDegrees>-4.00213186629116535186767578125</LongitudeDegrees>
            </Position>
            <AltitudeMeters>1795.800048828125</AltitudeMeters>
            <DistanceMeters>NAN</DistanceMeters>
          </Trackpoint>
          <Trackpoint>
            <Time>2019-08-01T12:20:32.000Z</Time>
            <Position>
              <LatitudeDegrees>40.78651039861142635345458984375</LatitudeDegrees>
              <LongitudeDegrees>-4.00204293429851531982421875</LongitudeDegrees>
            </Position>
            <AltitudeMeters>1794.800048828125</AltitudeMeters>
            <DistanceMeters>NAN</DistanceMeters>
          </Trackpoint>
          <Trackpoint>
            <Time>2019-08-01T12:20:33.000Z</Time>
            <Position>
              <LatitudeDegrees>40.78641031868755817413330078125</LatitudeDegrees>
              <LongitudeDegrees>-4.001928269863128662109375</LongitudeDegrees>
            </Position>
            <AltitudeMeters>1793.5999755859375</AltitudeMeters>
            <DistanceMeters>NAN</DistanceMeters>
          </Trackpoint>
          <Trackpoint>
            <Time>2019-08-01T12:20:34.000Z</Time>
            <Position>
              <LatitudeDegrees>40.78632541000843048095703125</LatitudeDegrees>
              <LongitudeDegrees>-4.0017981827259063720703125</LongitudeDegrees>
            </Position>
            <AltitudeMeters>1792</AltitudeMeters>
            <DistanceMeters>NAN</DistanceMeters>
          </Trackpoint>
          <Trackpoint>
            <Time>2019-08-01T12:20:35.000Z</Time>
            <Position>
              <LatitudeDegrees>40.78625692985951900482177734375</LatitudeDegrees>
              <LongitudeDegrees>-4.0016565285623073577880859375</LongitudeDegrees>
            </Position>
            <AltitudeMeters>1790.199951171875</AltitudeMeters>
            <DistanceMeters>NAN</DistanceMeters>
          </Trackpoint>
          <Trackpoint>
            <Time>2019-08-01T12:20:36.000Z</Time>
            <Position>
              <LatitudeDegrees>40.78620077110826969146728515625</LatitudeDegrees>
              <LongitudeDegrees>-4.00150573812425136566162109375</LongitudeDegrees>
            </Position>
            <AltitudeMeters>1789</AltitudeMeters>
            <DistanceMeters>NAN</DistanceMeters>
          </Trackpoint>
          <Trackpoint>
            <Time>2019-08-01T12:20:37.000Z</Time>
            <Position>
              <LatitudeDegrees>40.7861559279263019561767578125</LatitudeDegrees>
              <LongitudeDegrees>-4.0013477392494678497314453125</LongitudeDegrees>
            </Position>
            <AltitudeMeters>1788.199951171875</AltitudeMeters>
            <DistanceMeters>NAN</DistanceMeters>
          </Trackpoint>
          <Trackpoint>
            <Time>2019-08-01T12:20:38.000Z</Time>
            <Position>
              <LatitudeDegrees>40.78612156212329864501953125</LatitudeDegrees>
              <LongitudeDegrees>-4.00118487887084484100341796875</LongitudeDegrees>
            </Position>
            <AltitudeMeters>1787.5999755859375</AltitudeMeters>
            <DistanceMeters>NAN</DistanceMeters>
          </Trackpoint>
          <Trackpoint>
            <Time>2019-08-01T12:20:39.000Z</Time>
            <Position>
              <LatitudeDegrees>40.786093063652515411376953125</LatitudeDegrees>
              <LongitudeDegrees>-4.001018665730953216552734375</LongitudeDegrees>
            </Position>
            <AltitudeMeters>1786.5999755859375</AltitudeMeters>
            <DistanceMeters>NAN</DistanceMeters>
          </Trackpoint>
          <Trackpoint>
            <Time>2019-08-01T12:20:40.000Z</Time>
            <Position>
              <LatitudeDegrees>40.78605945222079753875732421875</LatitudeDegrees>
              <LongitudeDegrees>-4.000853709876537322998046875</LongitudeDegrees>
            </Position>
            <AltitudeMeters>1785</AltitudeMeters>
            <DistanceMeters>NAN</DistanceMeters>
          </Trackpoint>
          <Trackpoint>
            <Time>2019-08-01T12:20:41.000Z</Time>
            <Position>
              <LatitudeDegrees>40.78600312583148479461669921875</LatitudeDegrees>
              <LongitudeDegrees>-4.00070224888622760772705078125</LongitudeDegrees>
            </Position>
            <AltitudeMeters>1784.199951171875</AltitudeMeters>
            <DistanceMeters>NAN</DistanceMeters>
          </Trackpoint>
          <Trackpoint>
            <Time>2019-08-01T12:20:42.000Z</Time>
            <Position>
              <LatitudeDegrees>40.7859128527343273162841796875</LatitudeDegrees>
              <LongitudeDegrees>-4.0005786158144474029541015625</LongitudeDegrees>
            </Position>
            <AltitudeMeters>1783.5999755859375</AltitudeMeters>
            <DistanceMeters>NAN</DistanceMeters>
          </Trackpoint>
          <Trackpoint>
            <Time>2019-08-01T12:20:43.000Z</Time>
            <Position>
              <LatitudeDegrees>40.785790979862213134765625</LatitudeDegrees>
              <LongitudeDegrees>-4.000490605831146240234375</LongitudeDegrees>
            </Position>
            <AltitudeMeters>1782.800048828125</AltitudeMeters>
            <DistanceMeters>NAN</DistanceMeters>
          </Trackpoint>
          <Trackpoint>
            <Time>2019-08-01T12:20:44.000Z</Time>
            <Position>
              <LatitudeDegrees>40.7856555283069610595703125</LatitudeDegrees>
              <LongitudeDegrees>-4.00044240988790988922119140625</LongitudeDegrees>
            </Position>
            <AltitudeMeters>1782</AltitudeMeters>
            <DistanceMeters>NAN</DistanceMeters>
          </Trackpoint>
          <Trackpoint>
            <Time>2019-08-01T12:20:45.000Z</Time>
            <Position>
              <LatitudeDegrees>40.7855142094194889068603515625</LatitudeDegrees>
              <LongitudeDegrees>-4.0004277415573596954345703125</LongitudeDegrees>
            </Position>
            <AltitudeMeters>1781.5999755859375</AltitudeMeters>
            <DistanceMeters>NAN</DistanceMeters>
          </Trackpoint>
          <Trackpoint>
            <Time>2019-08-01T12:20:46.000Z</Time>
            <Position>
              <LatitudeDegrees>40.78537263907492160797119140625</LatitudeDegrees>
              <LongitudeDegrees>-4.00044140405952930450439453125</LongitudeDegrees>
            </Position>
            <AltitudeMeters>1781.199951171875</AltitudeMeters>
            <DistanceMeters>NAN</DistanceMeters>
          </Trackpoint>
          <Trackpoint>
            <Time>2019-08-01T12:20:47.000Z</Time>
            <Position>
              <LatitudeDegrees>40.7852290570735931396484375</LatitudeDegrees>
              <LongitudeDegrees>-4.00047644041478633880615234375</LongitudeDegrees>
            </Position>
            <AltitudeMeters>1780.800048828125</AltitudeMeters>
            <DistanceMeters>NAN</DistanceMeters>
          </Trackpoint>
          <Trackpoint>
            <Time>2019-08-01T12:20:48.000Z</Time>
            <Position>
              <LatitudeDegrees>40.78508488833904266357421875</LatitudeDegrees>
              <LongitudeDegrees>-4.00053410790860652923583984375</LongitudeDegrees>
            </Position>
            <AltitudeMeters>1780.800048828125</AltitudeMeters>
            <DistanceMeters>NAN</DistanceMeters>
          </Trackpoint>
          <Trackpoint>
            <Time>2019-08-01T12:20:49.000Z</Time>
            <Position>
              <LatitudeDegrees>40.7849442400038242340087890625</LatitudeDegrees>
              <LongitudeDegrees>-4.000618346035480499267578125</LongitudeDegrees>
            </Position>
            <AltitudeMeters>1780.199951171875</AltitudeMeters>
            <DistanceMeters>NAN</DistanceMeters>
          </Trackpoint>
          <Trackpoint>
            <Time>2019-08-01T12:20:50.000Z</Time>
            <Position>
              <LatitudeDegrees>40.7848141528666019439697265625</LatitudeDegrees>
              <LongitudeDegrees>-4.000737033784389495849609375</LongitudeDegrees>
            </Position>
            <AltitudeMeters>1779</AltitudeMeters>
            <DistanceMeters>NAN</DistanceMeters>
          </Trackpoint>
          <Trackpoint>
            <Time>2019-08-01T12:20:51.000Z</Time>
            <Position>
              <LatitudeDegrees>40.78469404019415378570556640625</LatitudeDegrees>
              <LongitudeDegrees>-4.00088111869990825653076171875</LongitudeDegrees>
            </Position>
            <AltitudeMeters>1776.800048828125</AltitudeMeters>
            <DistanceMeters>NAN</DistanceMeters>
          </Trackpoint>
          <Trackpoint>
            <Time>2019-08-01T12:20:52.000Z</Time>
            <Position>
              <LatitudeDegrees>40.78458474017679691314697265625</LatitudeDegrees>
              <LongitudeDegrees>-4.0010443143546581268310546875</LongitudeDegrees>
            </Position>
            <AltitudeMeters>1774.800048828125</AltitudeMeters>
            <DistanceMeters>NAN</DistanceMeters>
          </Trackpoint>
          <Trackpoint>
            <Time>2019-08-01T12:20:53.000Z</Time>
            <Position>
              <LatitudeDegrees>40.78448331914842128753662109375</LatitudeDegrees>
              <LongitudeDegrees>-4.00122108869254589080810546875</LongitudeDegrees>
            </Position>
            <AltitudeMeters>1773.199951171875</AltitudeMeters>
            <DistanceMeters>NAN</DistanceMeters>
          </Trackpoint>
          <Trackpoint>
            <Time>2019-08-01T12:20:54.000Z</Time>
            <Position>
              <LatitudeDegrees>40.7843823172152042388916015625</LatitudeDegrees>
              <LongitudeDegrees>-4.0014003776013851165771484375</LongitudeDegrees>
            </Position>
            <AltitudeMeters>1772</AltitudeMeters>
            <DistanceMeters>NAN</DistanceMeters>
          </Trackpoint>
          <Trackpoint>
            <Time>2019-08-01T12:20:55.000Z</Time>
            <Position>
              <LatitudeDegrees>40.78427326865494251251220703125</LatitudeDegrees>
              <LongitudeDegrees>-4.0015720389783382415771484375</LongitudeDegrees>
            </Position>
            <AltitudeMeters>1770.800048828125</AltitudeMeters>
            <DistanceMeters>NAN</DistanceMeters>
          </Trackpoint>
          <Trackpoint>
            <Time>2019-08-01T12:20:56.000Z</Time>
            <Position>
              <LatitudeDegrees>40.78415223397314548492431640625</LatitudeDegrees>
              <LongitudeDegrees>-4.001732133328914642333984375</LongitudeDegrees>
            </Position>
            <AltitudeMeters>1769.4000244140625</AltitudeMeters>
            <DistanceMeters>NAN</DistanceMeters>
          </Trackpoint>
          <Trackpoint>
            <Time>2019-08-01T12:20:57.000Z</Time>
            <Position>
              <LatitudeDegrees>40.784021727740764617919921875</LatitudeDegrees>
              <LongitudeDegrees>-4.00187772698700428009033203125</LongitudeDegrees>
            </Position>
            <AltitudeMeters>1766.199951171875</AltitudeMeters>
            <DistanceMeters>NAN</DistanceMeters>
          </Trackpoint>
          <Trackpoint>
            <Time>2019-08-01T12:20:58.000Z</Time>
            <Position>
              <LatitudeDegrees>40.7838760502636432647705078125</LatitudeDegrees>
              <LongitudeDegrees>-4.00200538337230682373046875</LongitudeDegrees>
            </Position>
            <AltitudeMeters>1764.199951171875</AltitudeMeters>
            <DistanceMeters>NAN</DistanceMeters>
          </Trackpoint>
          <Trackpoint>
            <Time>2019-08-01T12:20:59.000Z</Time>
            <Position>
              <LatitudeDegrees>40.78371989540755748748779296875</LatitudeDegrees>
              <LongitudeDegrees>-4.00210537947714328765869140625</LongitudeDegrees>
            </Position>
            <AltitudeMeters>1762.199951171875</AltitudeMeters>
            <DistanceMeters>NAN</DistanceMeters>
          </Trackpoint>
          <Trackpoint>
            <Time>2019-08-01T12:21:00.000Z</Time>
            <Position>
              <LatitudeDegrees>40.78355510719120502471923828125</LatitudeDegrees>
              <LongitudeDegrees>-4.002180397510528564453125</LongitudeDegrees>
            </Position>
            <AltitudeMeters>1760.199951171875</AltitudeMeters>
            <DistanceMeters>NAN</DistanceMeters>
          </Trackpoint>
          <Trackpoint>
            <Time>2019-08-01T12:21:01.000Z</Time>
            <Position>
              <LatitudeDegrees>40.78338629566133022308349609375</LatitudeDegrees>
              <LongitudeDegrees>-4.0022385679185390472412109375</LongitudeDegrees>
            </Position>
            <AltitudeMeters>1757.800048828125</AltitudeMeters>
            <DistanceMeters>NAN</DistanceMeters>
          </Trackpoint>
          <Trackpoint>
            <Time>2019-08-01T12:21:02.000Z</Time>
            <Position>
              <LatitudeDegrees>40.783216394484043121337890625</LatitudeDegrees>
              <LongitudeDegrees>-4.002285338938236236572265625</LongitudeDegrees>
            </Position>
            <AltitudeMeters>1755.800048828125</AltitudeMeters>
            <DistanceMeters>NAN</DistanceMeters>
          </Trackpoint>
          <Trackpoint>
            <Time>2019-08-01T12:21:03.000Z</Time>
            <Position>
              <LatitudeDegrees>40.783044397830963134765625</LatitudeDegrees>
              <LongitudeDegrees>-4.00231978856027126312255859375</LongitudeDegrees>
            </Position>
            <AltitudeMeters>1753.800048828125</AltitudeMeters>
            <DistanceMeters>NAN</DistanceMeters>
          </Trackpoint>
          <Trackpoint>
            <Time>2019-08-01T12:21:04.000Z</Time>
            <Position>
              <LatitudeDegrees>40.78287231735885143280029296875</LatitudeDegrees>
              <LongitudeDegrees>-4.0023399889469146728515625</LongitudeDegrees>
            </Position>
            <AltitudeMeters>1751.800048828125</AltitudeMeters>
            <DistanceMeters>NAN</DistanceMeters>
          </Trackpoint>
          <Trackpoint>
            <Time>2019-08-01T12:21:05.000Z</Time>
            <Position>
              <LatitudeDegrees>40.782701075077056884765625</LatitudeDegrees>
              <LongitudeDegrees>-4.0023478679358959197998046875</LongitudeDegrees>
            </Position>
            <AltitudeMeters>1750.199951171875</AltitudeMeters>
            <DistanceMeters>NAN</DistanceMeters>
          </Trackpoint>
          <Trackpoint>
            <Time>2019-08-01T12:21:06.000Z</Time>
            <Position>
              <LatitudeDegrees>40.78253268264234066009521484375</LatitudeDegrees>
              <LongitudeDegrees>-4.0023441798985004425048828125</LongitudeDegrees>
            </Position>
            <AltitudeMeters>1748.800048828125</AltitudeMeters>
            <DistanceMeters>NAN</DistanceMeters>
          </Trackpoint>
          <Trackpoint>
            <Time>2019-08-01T12:21:07.000Z</Time>
            <Position>
              <LatitudeDegrees>40.78236621804535388946533203125</LatitudeDegrees>
              <LongitudeDegrees>-4.0023294277489185333251953125</LongitudeDegrees>
            </Position>
            <AltitudeMeters>1747.199951171875</AltitudeMeters>
            <DistanceMeters>NAN</DistanceMeters>
          </Trackpoint>
          <Trackpoint>
            <Time>2019-08-01T12:21:08.000Z</Time>
            <Position>
              <LatitudeDegrees>40.78220210038125514984130859375</LatitudeDegrees>
              <LongitudeDegrees>-4.002306796610355377197265625</LongitudeDegrees>
            </Position>
            <AltitudeMeters>1745.4000244140625</AltitudeMeters>
            <DistanceMeters>NAN</DistanceMeters>
          </Trackpoint>
          <Trackpoint>
            <Time>2019-08-01T12:21:09.000Z</Time>
            <Position>
              <LatitudeDegrees>40.7820404134690761566162109375</LatitudeDegrees>
              <LongitudeDegrees>-4.00227301754057407379150390625</LongitudeDegrees>
            </Position>
            <AltitudeMeters>1743.800048828125</AltitudeMeters>
            <DistanceMeters>NAN</DistanceMeters>
          </Trackpoint>
          <Trackpoint>
            <Time>2019-08-01T12:21:10.000Z</Time>
            <Position>
              <LatitudeDegrees>40.78188501298427581787109375</LatitudeDegrees>
              <LongitudeDegrees>-4.00221400894224643707275390625</LongitudeDegrees>
            </Position>
            <AltitudeMeters>1742.800048828125</AltitudeMeters>
            <DistanceMeters>NAN</DistanceMeters>
          </Trackpoint>
          <Trackpoint>
            <Time>2019-08-01T12:21:11.000Z</Time>
            <Position>
              <LatitudeDegrees>40.78174109570682048797607421875</LatitudeDegrees>
              <LongitudeDegrees>-4.002126418054103851318359375</LongitudeDegrees>
            </Position>
            <AltitudeMeters>1741.800048828125</AltitudeMeters>
            <DistanceMeters>NAN</DistanceMeters>
          </Trackpoint>
          <Trackpoint>
            <Time>2019-08-01T12:21:12.000Z</Time>
            <Position>
              <LatitudeDegrees>40.78161142766475677490234375</LatitudeDegrees>
              <LongitudeDegrees>-4.0020095743238925933837890625</LongitudeDegrees>
            </Position>
            <AltitudeMeters>1740.4000244140625</AltitudeMeters>
            <DistanceMeters>NAN</DistanceMeters>
          </Trackpoint>
          <Trackpoint>
            <Time>2019-08-01T12:21:13.000Z</Time>
            <Position>
              <LatitudeDegrees>40.78149517066776752471923828125</LatitudeDegrees>
              <LongitudeDegrees>-4.0018737874925136566162109375</LongitudeDegrees>
            </Position>
            <AltitudeMeters>1738.5999755859375</AltitudeMeters>
            <DistanceMeters>NAN</DistanceMeters>
          </Trackpoint>
          <Trackpoint>
            <Time>2019-08-01T12:21:14.000Z</Time>
            <Position>
              <LatitudeDegrees>40.7813854515552520751953125</LatitudeDegrees>
              <LongitudeDegrees>-4.00174789130687713623046875</LongitudeDegrees>
            </Position>
            <AltitudeMeters>1737.800048828125</AltitudeMeters>
            <DistanceMeters>NAN</DistanceMeters>
          </Trackpoint>
          <Trackpoint>
            <Time>2019-08-01T12:21:15.000Z</Time>
            <Position>
              <LatitudeDegrees>40.78126450069248676300048828125</LatitudeDegrees>
              <LongitudeDegrees>-4.0016568638384342193603515625</LongitudeDegrees>
            </Position>
            <AltitudeMeters>1737.199951171875</AltitudeMeters>
            <DistanceMeters>NAN</DistanceMeters>
          </Trackpoint>
          <Trackpoint>
            <Time>2019-08-01T12:21:16.000Z</Time>
            <Position>
              <LatitudeDegrees>40.78113374300301074981689453125</LatitudeDegrees>
              <LongitudeDegrees>-4.0016146190464496612548828125</LongitudeDegrees>
            </Position>
            <AltitudeMeters>1736.5999755859375</AltitudeMeters>
            <DistanceMeters>NAN</DistanceMeters>
          </Trackpoint>
          <Trackpoint>
            <Time>2019-08-01T12:21:17.000Z</Time>
            <Position>
              <LatitudeDegrees>40.7809987105429172515869140625</LatitudeDegrees>
              <LongitudeDegrees>-4.00164454244077205657958984375</LongitudeDegrees>
            </Position>
            <AltitudeMeters>1735.800048828125</AltitudeMeters>
            <DistanceMeters>NAN</DistanceMeters>
          </Trackpoint>
          <Trackpoint>
            <Time>2019-08-01T12:21:18.000Z</Time>
            <Position>
              <LatitudeDegrees>40.7808823697268962860107421875</LatitudeDegrees>
              <LongitudeDegrees>-4.00172886438667774200439453125</LongitudeDegrees>
            </Position>
            <AltitudeMeters>1735</AltitudeMeters>
            <DistanceMeters>NAN</DistanceMeters>
          </Trackpoint>
          <Trackpoint>
            <Time>2019-08-01T12:21:19.000Z</Time>
            <Position>
              <LatitudeDegrees>40.780772231519222259521484375</LatitudeDegrees>
              <LongitudeDegrees>-4.0018451213836669921875</LongitudeDegrees>
            </Position>
            <AltitudeMeters>1734</AltitudeMeters>
            <DistanceMeters>NAN</DistanceMeters>
          </Trackpoint>
          <Trackpoint>
            <Time>2019-08-01T12:21:20.000Z</Time>
            <Position>
              <LatitudeDegrees>40.78066100366413593292236328125</LatitudeDegrees>
              <LongitudeDegrees>-4.00196439586579799652099609375</LongitudeDegrees>
            </Position>
            <AltitudeMeters>1732.4000244140625</AltitudeMeters>
            <DistanceMeters>NAN</DistanceMeters>
          </Trackpoint>
          <Trackpoint>
            <Time>2019-08-01T12:21:21.000Z</Time>
            <Position>
              <LatitudeDegrees>40.780546925961971282958984375</LatitudeDegrees>
              <LongitudeDegrees>-4.002080820500850677490234375</LongitudeDegrees>
            </Position>
            <AltitudeMeters>1730.5999755859375</AltitudeMeters>
            <DistanceMeters>NAN</DistanceMeters>
          </Trackpoint>
          <Trackpoint>
            <Time>2019-08-01T12:21:22.000Z</Time>
            <Position>
              <LatitudeDegrees>40.7804320938885211944580078125</LatitudeDegrees>
              <LongitudeDegrees>-4.0021986700594425201416015625</LongitudeDegrees>
            </Position>
            <AltitudeMeters>1729.4000244140625</AltitudeMeters>
            <DistanceMeters>NAN</DistanceMeters>
          </Trackpoint>
          <Trackpoint>
            <Time>2019-08-01T12:21:23.000Z</Time>
            <Position>
              <LatitudeDegrees>40.7803157530725002288818359375</LatitudeDegrees>
              <LongitudeDegrees>-4.0023186989128589630126953125</LongitudeDegrees>
            </Position>
            <AltitudeMeters>1728.800048828125</AltitudeMeters>
            <DistanceMeters>NAN</DistanceMeters>
          </Trackpoint>
          <Trackpoint>
            <Time>2019-08-01T12:21:24.000Z</Time>
            <Position>
              <LatitudeDegrees>40.7802017591893672943115234375</LatitudeDegrees>
              <LongitudeDegrees>-4.00244618766009807586669921875</LongitudeDegrees>
            </Position>
            <AltitudeMeters>1728</AltitudeMeters>
            <DistanceMeters>NAN</DistanceMeters>
          </Trackpoint>
          <Trackpoint>
            <Time>2019-08-01T12:21:25.000Z</Time>
            <Position>
              <LatitudeDegrees>40.78009421937167644500732421875</LatitudeDegrees>
              <LongitudeDegrees>-4.00258566252887248992919921875</LongitudeDegrees>
            </Position>
            <AltitudeMeters>1727.5999755859375</AltitudeMeters>
            <DistanceMeters>NAN</DistanceMeters>
          </Trackpoint>
          <Trackpoint>
            <Time>2019-08-01T12:21:26.000Z</Time>
            <Position>
              <LatitudeDegrees>40.77999481000006198883056640625</LatitudeDegrees>
              <LongitudeDegrees>-4.00273703970015048980712890625</LongitudeDegrees>
            </Position>
            <AltitudeMeters>1727</AltitudeMeters>
            <DistanceMeters>NAN</DistanceMeters>
          </Trackpoint>
          <Trackpoint>
            <Time>2019-08-01T12:21:27.000Z</Time>
            <Position>
              <LatitudeDegrees>40.77990227378904819488525390625</LatitudeDegrees>
              <LongitudeDegrees>-4.00289813987910747528076171875</LongitudeDegrees>
            </Position>
            <AltitudeMeters>1726.199951171875</AltitudeMeters>
            <DistanceMeters>NAN</DistanceMeters>
          </Trackpoint>
          <Trackpoint>
            <Time>2019-08-01T12:21:28.000Z</Time>
            <Position>
              <LatitudeDegrees>40.77981392852962017059326171875</LatitudeDegrees>
              <LongitudeDegrees>-4.00306544266641139984130859375</LongitudeDegrees>
            </Position>
            <AltitudeMeters>1725.5999755859375</AltitudeMeters>
            <DistanceMeters>NAN</DistanceMeters>
          </Trackpoint>
          <Trackpoint>
            <Time>2019-08-01T12:21:29.000Z</Time>
            <Position>
              <LatitudeDegrees>40.7797256670892238616943359375</LatitudeDegrees>
              <LongitudeDegrees>-4.003235511481761932373046875</LongitudeDegrees>
            </Position>
            <AltitudeMeters>1725</AltitudeMeters>
            <DistanceMeters>NAN</DistanceMeters>
          </Trackpoint>
          <Trackpoint>
            <Time>2019-08-01T12:21:30.000Z</Time>
            <Position>
              <LatitudeDegrees>40.77963531017303466796875</LatitudeDegrees>
              <LongitudeDegrees>-4.0034070052206516265869140625</LongitudeDegrees>
            </Position>
            <AltitudeMeters>1724.4000244140625</AltitudeMeters>
            <DistanceMeters>NAN</DistanceMeters>
          </Trackpoint>
          <Trackpoint>
            <Time>2019-08-01T12:21:31.000Z</Time>
            <Position>
              <LatitudeDegrees>40.77954185195267200469970703125</LatitudeDegrees>
              <LongitudeDegrees>-4.00357807986438274383544921875</LongitudeDegrees>
            </Position>
            <AltitudeMeters>1723</AltitudeMeters>
            <DistanceMeters>NAN</DistanceMeters>
          </Trackpoint>
          <Trackpoint>
            <Time>2019-08-01T12:21:32.000Z</Time>
            <Position>
              <LatitudeDegrees>40.77944126911461353302001953125</LatitudeDegrees>
              <LongitudeDegrees>-4.00374286808073520660400390625</LongitudeDegrees>
            </Position>
            <AltitudeMeters>1721.4000244140625</AltitudeMeters>
            <DistanceMeters>NAN</DistanceMeters>
          </Trackpoint>
          <Trackpoint>
            <Time>2019-08-01T12:21:33.000Z</Time>
            <Position>
              <LatitudeDegrees>40.7793317176401615142822265625</LatitudeDegrees>
              <LongitudeDegrees>-4.0038978494703769683837890625</LongitudeDegrees>
            </Position>
            <AltitudeMeters>1720.199951171875</AltitudeMeters>
            <DistanceMeters>NAN</DistanceMeters>
          </Trackpoint>
          <Trackpoint>
            <Time>2019-08-01T12:21:34.000Z</Time>
            <Position>
              <LatitudeDegrees>40.7792123593389987945556640625</LatitudeDegrees>
              <LongitudeDegrees>-4.004041515290737152099609375</LongitudeDegrees>
            </Position>
            <AltitudeMeters>1719</AltitudeMeters>
            <DistanceMeters>NAN</DistanceMeters>
          </Trackpoint>
          <Trackpoint>
            <Time>2019-08-01T12:21:35.000Z</Time>
            <Position>
              <LatitudeDegrees>40.7790849544107913970947265625</LatitudeDegrees>
              <LongitudeDegrees>-4.00417285971343517303466796875</LongitudeDegrees>
            </Position>
            <AltitudeMeters>1717.800048828125</AltitudeMeters>
            <DistanceMeters>NAN</DistanceMeters>
          </Trackpoint>
          <Trackpoint>
            <Time>2019-08-01T12:21:36.000Z</Time>
            <Position>
              <LatitudeDegrees>40.77894824557006359100341796875</LatitudeDegrees>
              <LongitudeDegrees>-4.00429037399590015411376953125</LongitudeDegrees>
            </Position>
            <AltitudeMeters>1716.800048828125</AltitudeMeters>
            <DistanceMeters>NAN</DistanceMeters>
          </Trackpoint>
          <Trackpoint>
            <Time>2019-08-01T12:21:37.000Z</Time>
            <Position>
              <LatitudeDegrees>40.77880382537841796875</LatitudeDegrees>
              <LongitudeDegrees>-4.00439112447202205657958984375</LongitudeDegrees>
            </Position>
            <AltitudeMeters>1715.5999755859375</AltitudeMeters>
            <DistanceMeters>NAN</DistanceMeters>
          </Trackpoint>
          <Trackpoint>
            <Time>2019-08-01T12:21:38.000Z</Time>
            <Position>
              <LatitudeDegrees>40.77865487895905971527099609375</LatitudeDegrees>
              <LongitudeDegrees>-4.00447477586567401885986328125</LongitudeDegrees>
            </Position>
            <AltitudeMeters>1714</AltitudeMeters>
            <DistanceMeters>NAN</DistanceMeters>
          </Trackpoint>
          <Trackpoint>
            <Time>2019-08-01T12:21:39.000Z</Time>
            <Position>
              <LatitudeDegrees>40.77849981375038623809814453125</LatitudeDegrees>
              <LongitudeDegrees>-4.004550464451313018798828125</LongitudeDegrees>
            </Position>
            <AltitudeMeters>1712.4000244140625</AltitudeMeters>
            <DistanceMeters>NAN</DistanceMeters>
          </Trackpoint>
          <Trackpoint>
            <Time>2019-08-01T12:21:40.000Z</Time>
            <Position>
              <LatitudeDegrees>40.7783436588943004608154296875</LatitudeDegrees>
              <LongitudeDegrees>-4.00462062098085880279541015625</LongitudeDegrees>
            </Position>
            <AltitudeMeters>1710.800048828125</AltitudeMeters>
            <DistanceMeters>NAN</DistanceMeters>
          </Trackpoint>
          <Trackpoint>
            <Time>2019-08-01T12:21:41.000Z</Time>
            <Position>
              <LatitudeDegrees>40.77818566001951694488525390625</LatitudeDegrees>
              <LongitudeDegrees>-4.00468281470239162445068359375</LongitudeDegrees>
            </Position>
            <AltitudeMeters>1709</AltitudeMeters>
            <DistanceMeters>NAN</DistanceMeters>
          </Trackpoint>
          <Trackpoint>
            <Time>2019-08-01T12:21:42.000Z</Time>
            <Position>
              <LatitudeDegrees>40.77802598476409912109375</LatitudeDegrees>
              <LongitudeDegrees>-4.00473679415881633758544921875</LongitudeDegrees>
            </Position>
            <AltitudeMeters>1707.800048828125</AltitudeMeters>
            <DistanceMeters>NAN</DistanceMeters>
          </Trackpoint>
          <Trackpoint>
            <Time>2019-08-01T12:21:43.000Z</Time>
            <Position>
              <LatitudeDegrees>40.7778655551373958587646484375</LatitudeDegrees>
              <LongitudeDegrees>-4.004782475531101226806640625</LongitudeDegrees>
            </Position>
            <AltitudeMeters>1706.5999755859375</AltitudeMeters>
            <DistanceMeters>NAN</DistanceMeters>
          </Trackpoint>
          <Trackpoint>
            <Time>2019-08-01T12:21:44.000Z</Time>
            <Position>
              <LatitudeDegrees>40.77770520932972431182861328125</LatitudeDegrees>
              <LongitudeDegrees>-4.00482396595180034637451171875</LongitudeDegrees>
            </Position>
            <AltitudeMeters>1705.199951171875</AltitudeMeters>
            <DistanceMeters>NAN</DistanceMeters>
          </Trackpoint>
          <Trackpoint>
            <Time>2019-08-01T12:21:45.000Z</Time>
            <Position>
              <LatitudeDegrees>40.7775470428168773651123046875</LatitudeDegrees>
              <LongitudeDegrees>-4.0048678033053874969482421875</LongitudeDegrees>
            </Position>
            <AltitudeMeters>1704</AltitudeMeters>
            <DistanceMeters>NAN</DistanceMeters>
          </Trackpoint>
          <Trackpoint>
            <Time>2019-08-01T12:21:46.000Z</Time>
            <Position>
              <LatitudeDegrees>40.77739139087498188018798828125</LatitudeDegrees>
              <LongitudeDegrees>-4.004919268190860748291015625</LongitudeDegrees>
            </Position>
            <AltitudeMeters>1703</AltitudeMeters>
            <DistanceMeters>NAN</DistanceMeters>
          </Trackpoint>
          <Trackpoint>
            <Time>2019-08-01T12:21:47.000Z</Time>
            <Position>
              <LatitudeDegrees>40.777238421142101287841796875</LatitudeDegrees>
              <LongitudeDegrees>-4.0049739181995391845703125</LongitudeDegrees>
            </Position>
            <AltitudeMeters>1701.800048828125</AltitudeMeters>
            <DistanceMeters>NAN</DistanceMeters>
          </Trackpoint>
          <Trackpoint>
            <Time>2019-08-01T12:21:48.000Z</Time>
            <Position>
              <LatitudeDegrees>40.77708654105663299560546875</LatitudeDegrees>
              <LongitudeDegrees>-4.00503267534077167510986328125</LongitudeDegrees>
            </Position>
            <AltitudeMeters>1700.199951171875</AltitudeMeters>
            <DistanceMeters>NAN</DistanceMeters>
          </Trackpoint>
          <Trackpoint>
            <Time>2019-08-01T12:21:49.000Z</Time>
            <Position>
              <LatitudeDegrees>40.77693407423794269561767578125</LatitudeDegrees>
              <LongitudeDegrees>-4.00510123930871486663818359375</LongitudeDegrees>
            </Position>
            <AltitudeMeters>1698.5999755859375</AltitudeMeters>
            <DistanceMeters>NAN</DistanceMeters>
          </Trackpoint>
          <Trackpoint>
            <Time>2019-08-01T12:21:50.000Z</Time>
            <Position>
              <LatitudeDegrees>40.77678102068603038787841796875</LatitudeDegrees>
              <LongitudeDegrees>-4.005180783569812774658203125</LongitudeDegrees>
            </Position>
            <AltitudeMeters>1696.800048828125</AltitudeMeters>
            <DistanceMeters>NAN</DistanceMeters>
          </Trackpoint>
          <Trackpoint>
            <Time>2019-08-01T12:21:51.000Z</Time>
            <Position>
              <LatitudeDegrees>40.7766298949718475341796875</LatitudeDegrees>
              <LongitudeDegrees>-4.0052731521427631378173828125</LongitudeDegrees>
            </Position>
            <AltitudeMeters>1695.199951171875</AltitudeMeters>
            <DistanceMeters>NAN</DistanceMeters>
          </Trackpoint>
          <Trackpoint>
            <Time>2019-08-01T12:21:52.000Z</Time>
            <Position>
              <LatitudeDegrees>40.77648078091442584991455078125</LatitudeDegrees>
              <LongitudeDegrees>-4.00537549518048763275146484375</LongitudeDegrees>
            </Position>
            <AltitudeMeters>1693.800048828125</AltitudeMeters>
            <DistanceMeters>NAN</DistanceMeters>
          </Trackpoint>
          <Trackpoint>
            <Time>2019-08-01T12:21:53.000Z</Time>
            <Position>
              <LatitudeDegrees>40.7763313315808773040771484375</LatitudeDegrees>
              <LongitudeDegrees>-4.0054773353040218353271484375</LongitudeDegrees>
            </Position>
            <AltitudeMeters>1690.800048828125</AltitudeMeters>
            <DistanceMeters>NAN</DistanceMeters>
          </Trackpoint>
          <Trackpoint>
            <Time>2019-08-01T12:21:54.000Z</Time>
            <Position>
              <LatitudeDegrees>40.776179619133472442626953125</LatitudeDegrees>
              <LongitudeDegrees>-4.0055789239704608917236328125</LongitudeDegrees>
            </Position>
            <AltitudeMeters>1689.4000244140625</AltitudeMeters>
            <DistanceMeters>NAN</DistanceMeters>
          </Trackpoint>
          <Trackpoint>
            <Time>2019-08-01T12:21:55.000Z</Time>
            <Position>
              <LatitudeDegrees>40.776024051010608673095703125</LatitudeDegrees>
              <LongitudeDegrees>-4.00567389093339443206787109375</LongitudeDegrees>
            </Position>
            <AltitudeMeters>1688</AltitudeMeters>
            <DistanceMeters>NAN</DistanceMeters>
          </Trackpoint>
          <Trackpoint>
            <Time>2019-08-01T12:21:56.000Z</Time>
            <Position>
              <LatitudeDegrees>40.7758649624884128570556640625</LatitudeDegrees>
              <LongitudeDegrees>-4.0057623200118541717529296875</LongitudeDegrees>
            </Position>
            <AltitudeMeters>1687.199951171875</AltitudeMeters>
            <DistanceMeters>NAN</DistanceMeters>
          </Trackpoint>
          <Trackpoint>
            <Time>2019-08-01T12:21:57.000Z</Time>
            <Position>
              <LatitudeDegrees>40.77570277266204357147216796875</LatitudeDegrees>
              <LongitudeDegrees>-4.00584806688129901885986328125</LongitudeDegrees>
            </Position>
            <AltitudeMeters>1686.5999755859375</AltitudeMeters>
            <DistanceMeters>NAN</DistanceMeters>
          </Trackpoint>
          <Trackpoint>
            <Time>2019-08-01T12:21:58.000Z</Time>
            <Position>
              <LatitudeDegrees>40.7755380682647228240966796875</LatitudeDegrees>
              <LongitudeDegrees>-4.00592903606593608856201171875</LongitudeDegrees>
            </Position>
            <AltitudeMeters>1685.5999755859375</AltitudeMeters>
            <DistanceMeters>NAN</DistanceMeters>
          </Trackpoint>
          <Trackpoint>
            <Time>2019-08-01T12:21:59.000Z</Time>
            <Position>
              <LatitudeDegrees>40.7753704302012920379638671875</LatitudeDegrees>
              <LongitudeDegrees>-4.00601000525057315826416015625</LongitudeDegrees>
            </Position>
            <AltitudeMeters>1684.199951171875</AltitudeMeters>
            <DistanceMeters>NAN</DistanceMeters>
          </Trackpoint>
          <Trackpoint>
            <Time>2019-08-01T12:22:00.000Z</Time>
            <Position>
              <LatitudeDegrees>40.775199942290782928466796875</LatitudeDegrees>
              <LongitudeDegrees>-4.00608795695006847381591796875</LongitudeDegrees>
            </Position>
            <AltitudeMeters>1682.800048828125</AltitudeMeters>
            <DistanceMeters>NAN</DistanceMeters>
          </Trackpoint>
          <Trackpoint>
            <Time>2019-08-01T12:22:01.000Z</Time>
            <Position>
              <LatitudeDegrees>40.7750267721712589263916015625</LatitudeDegrees>
              <LongitudeDegrees>-4.006161130964756011962890625</LongitudeDegrees>
            </Position>
            <AltitudeMeters>1681</AltitudeMeters>
            <DistanceMeters>NAN</DistanceMeters>
          </Trackpoint>
          <Trackpoint>
            <Time>2019-08-01T12:22:02.000Z</Time>
            <Position>
              <LatitudeDegrees>40.77485184185206890106201171875</LatitudeDegrees>
              <LongitudeDegrees>-4.0062340535223484039306640625</LongitudeDegrees>
            </Position>
            <AltitudeMeters>1679.199951171875</AltitudeMeters>
            <DistanceMeters>NAN</DistanceMeters>
          </Trackpoint>
          <Trackpoint>
            <Time>2019-08-01T12:22:03.000Z</Time>
            <Position>
              <LatitudeDegrees>40.77467682771384716033935546875</LatitudeDegrees>
              <LongitudeDegrees>-4.00630773045122623443603515625</LongitudeDegrees>
            </Position>
            <AltitudeMeters>1677.5999755859375</AltitudeMeters>
            <DistanceMeters>NAN</DistanceMeters>
          </Trackpoint>
          <Trackpoint>
            <Time>2019-08-01T12:22:04.000Z</Time>
            <Position>
              <LatitudeDegrees>40.77450281940400600433349609375</LatitudeDegrees>
              <LongitudeDegrees>-4.00638945400714874267578125</LongitudeDegrees>
            </Position>
            <AltitudeMeters>1675.5999755859375</AltitudeMeters>
            <DistanceMeters>NAN</DistanceMeters>
          </Trackpoint>
          <Trackpoint>
            <Time>2019-08-01T12:22:05.000Z</Time>
            <Position>
              <LatitudeDegrees>40.7743287272751331329345703125</LatitudeDegrees>
              <LongitudeDegrees>-4.00647603906691074371337890625</LongitudeDegrees>
            </Position>
            <AltitudeMeters>1674.4000244140625</AltitudeMeters>
            <DistanceMeters>NAN</DistanceMeters>
          </Trackpoint>
          <Trackpoint>
            <Time>2019-08-01T12:22:06.000Z</Time>
            <Position>
              <LatitudeDegrees>40.774157233536243438720703125</LatitudeDegrees>
              <LongitudeDegrees>-4.0065723471343517303466796875</LongitudeDegrees>
            </Position>
            <AltitudeMeters>1673.5999755859375</AltitudeMeters>
            <DistanceMeters>NAN</DistanceMeters>
          </Trackpoint>
          <Trackpoint>
            <Time>2019-08-01T12:22:07.000Z</Time>
            <Position>
              <LatitudeDegrees>40.7739879190921783447265625</LatitudeDegrees>
              <LongitudeDegrees>-4.00667586363852024078369140625</LongitudeDegrees>
            </Position>
            <AltitudeMeters>1672.4000244140625</AltitudeMeters>
            <DistanceMeters>NAN</DistanceMeters>
          </Trackpoint>
          <Trackpoint>
            <Time>2019-08-01T12:22:08.000Z</Time>
            <Position>
              <LatitudeDegrees>40.77381818555295467376708984375</LatitudeDegrees>
              <LongitudeDegrees>-4.006780050694942474365234375</LongitudeDegrees>
            </Position>
            <AltitudeMeters>1671.4000244140625</AltitudeMeters>
            <DistanceMeters>NAN</DistanceMeters>
          </Trackpoint>
          <Trackpoint>
            <Time>2019-08-01T12:22:09.000Z</Time>
            <Position>
              <LatitudeDegrees>40.7736467756330966949462890625</LatitudeDegrees>
              <LongitudeDegrees>-4.0068828128278255462646484375</LongitudeDegrees>
            </Position>
            <AltitudeMeters>1669.800048828125</AltitudeMeters>
            <DistanceMeters>NAN</DistanceMeters>
          </Trackpoint>
          <Trackpoint>
            <Time>2019-08-01T12:22:10.000Z</Time>
            <Position>
              <LatitudeDegrees>40.77347469516098499298095703125</LatitudeDegrees>
              <LongitudeDegrees>-4.006982557475566864013671875</LongitudeDegrees>
            </Position>
            <AltitudeMeters>1668.4000244140625</AltitudeMeters>
            <DistanceMeters>NAN</DistanceMeters>
          </Trackpoint>
          <Trackpoint>
            <Time>2019-08-01T12:22:11.000Z</Time>
            <Position>
              <LatitudeDegrees>40.77329884283244609832763671875</LatitudeDegrees>
              <LongitudeDegrees>-4.00707500986754894256591796875</LongitudeDegrees>
            </Position>
            <AltitudeMeters>1667.199951171875</AltitudeMeters>
            <DistanceMeters>NAN</DistanceMeters>
          </Trackpoint>
          <Trackpoint>
            <Time>2019-08-01T12:22:12.000Z</Time>
            <Position>
              <LatitudeDegrees>40.77311997301876544952392578125</LatitudeDegrees>
              <LongitudeDegrees>-4.00715547613799571990966796875</LongitudeDegrees>
            </Position>
            <AltitudeMeters>1665.4000244140625</AltitudeMeters>
            <DistanceMeters>NAN</DistanceMeters>
          </Trackpoint>
          <Trackpoint>
            <Time>2019-08-01T12:22:13.000Z</Time>
            <Position>
              <LatitudeDegrees>40.772937834262847900390625</LatitudeDegrees>
              <LongitudeDegrees>-4.00723527185618877410888671875</LongitudeDegrees>
            </Position>
            <AltitudeMeters>1663.5999755859375</AltitudeMeters>
            <DistanceMeters>NAN</DistanceMeters>
          </Trackpoint>
          <Trackpoint>
            <Time>2019-08-01T12:22:14.000Z</Time>
            <Position>
              <LatitudeDegrees>40.772753767669200897216796875</LatitudeDegrees>
              <LongitudeDegrees>-4.0073005668818950653076171875</LongitudeDegrees>
            </Position>
            <AltitudeMeters>1662</AltitudeMeters>
            <DistanceMeters>NAN</DistanceMeters>
          </Trackpoint>
          <Trackpoint>
            <Time>2019-08-01T12:22:15.000Z</Time>
            <Position>
              <LatitudeDegrees>40.77256743796169757843017578125</LatitudeDegrees>
              <LongitudeDegrees>-4.007351361215114593505859375</LongitudeDegrees>
            </Position>
            <AltitudeMeters>1661</AltitudeMeters>
            <DistanceMeters>NAN</DistanceMeters>
          </Trackpoint>
          <Trackpoint>
            <Time>2019-08-01T12:22:16.000Z</Time>
            <Position>
              <LatitudeDegrees>40.7723797671496868133544921875</LatitudeDegrees>
              <LongitudeDegrees>-4.0073880739510059356689453125</LongitudeDegrees>
            </Position>
            <AltitudeMeters>1659.800048828125</AltitudeMeters>
            <DistanceMeters>NAN</DistanceMeters>
          </Trackpoint>
          <Trackpoint>
            <Time>2019-08-01T12:22:17.000Z</Time>
            <Position>
              <LatitudeDegrees>40.77218924649059772491455078125</LatitudeDegrees>
              <LongitudeDegrees>-4.00742076337337493896484375</LongitudeDegrees>
            </Position>
            <AltitudeMeters>1657.5999755859375</AltitudeMeters>
            <DistanceMeters>NAN</DistanceMeters>
          </Trackpoint>
          <Trackpoint>
            <Time>2019-08-01T12:22:18.000Z</Time>
            <Position>
              <LatitudeDegrees>40.7719985581934452056884765625</LatitudeDegrees>
              <LongitudeDegrees>-4.00745638646185398101806640625</LongitudeDegrees>
            </Position>
            <AltitudeMeters>1654.800048828125</AltitudeMeters>
            <DistanceMeters>NAN</DistanceMeters>
          </Trackpoint>
          <Trackpoint>
            <Time>2019-08-01T12:22:19.000Z</Time>
            <Position>
              <LatitudeDegrees>40.7718104682862758636474609375</LatitudeDegrees>
              <LongitudeDegrees>-4.00750164873898029327392578125</LongitudeDegrees>
            </Position>
            <AltitudeMeters>1652.800048828125</AltitudeMeters>
            <DistanceMeters>NAN</DistanceMeters>
          </Trackpoint>
          <Trackpoint>
            <Time>2019-08-01T12:22:20.000Z</Time>
            <Position>
              <LatitudeDegrees>40.77162556350231170654296875</LatitudeDegrees>
              <LongitudeDegrees>-4.007567949593067169189453125</LongitudeDegrees>
            </Position>
            <AltitudeMeters>1651.800048828125</AltitudeMeters>
            <DistanceMeters>NAN</DistanceMeters>
          </Trackpoint>
          <Trackpoint>
            <Time>2019-08-01T12:22:21.000Z</Time>
            <Position>
              <LatitudeDegrees>40.77144510112702846527099609375</LatitudeDegrees>
              <LongitudeDegrees>-4.00765336118638515472412109375</LongitudeDegrees>
            </Position>
            <AltitudeMeters>1649.4000244140625</AltitudeMeters>
            <DistanceMeters>NAN</DistanceMeters>
          </Trackpoint>
          <Trackpoint>
            <Time>2019-08-01T12:22:22.000Z</Time>
            <Position>
              <LatitudeDegrees>40.77126774005591869354248046875</LatitudeDegrees>
              <LongitudeDegrees>-4.00775008834898471832275390625</LongitudeDegrees>
            </Position>
            <AltitudeMeters>1648</AltitudeMeters>
            <DistanceMeters>NAN</DistanceMeters>
          </Trackpoint>
          <Trackpoint>
            <Time>2019-08-01T12:22:23.000Z</Time>
            <Position>
              <LatitudeDegrees>40.77109255827963352203369140625</LatitudeDegrees>
              <LongitudeDegrees>-4.00785134173929691314697265625</LongitudeDegrees>
            </Position>
            <AltitudeMeters>1646.4000244140625</AltitudeMeters>
            <DistanceMeters>NAN</DistanceMeters>
          </Trackpoint>
          <Trackpoint>
            <Time>2019-08-01T12:22:24.000Z</Time>
            <Position>
              <LatitudeDegrees>40.770914442837238311767578125</LatitudeDegrees>
              <LongitudeDegrees>-4.00795427151024341583251953125</LongitudeDegrees>
            </Position>
            <AltitudeMeters>1645.199951171875</AltitudeMeters>
            <DistanceMeters>NAN</DistanceMeters>
          </Trackpoint>
          <Trackpoint>
            <Time>2019-08-01T12:22:25.000Z</Time>
            <Position>
              <LatitudeDegrees>40.77073884196579456329345703125</LatitudeDegrees>
              <LongitudeDegrees>-4.00806239806115627288818359375</LongitudeDegrees>
            </Position>
            <AltitudeMeters>1644</AltitudeMeters>
            <DistanceMeters>NAN</DistanceMeters>
          </Trackpoint>
          <Trackpoint>
            <Time>2019-08-01T12:22:26.000Z</Time>
            <Position>
              <LatitudeDegrees>40.7705679349601268768310546875</LatitudeDegrees>
              <LongitudeDegrees>-4.0081766434013843536376953125</LongitudeDegrees>
            </Position>
            <AltitudeMeters>1642.4000244140625</AltitudeMeters>
            <DistanceMeters>NAN</DistanceMeters>
          </Trackpoint>
          <Trackpoint>
            <Time>2019-08-01T12:22:27.000Z</Time>
            <Position>
              <LatitudeDegrees>40.7703952677547931671142578125</LatitudeDegrees>
              <LongitudeDegrees>-4.0083006955683231353759765625</LongitudeDegrees>
            </Position>
            <AltitudeMeters>1640.4000244140625</AltitudeMeters>
            <DistanceMeters>NAN</DistanceMeters>
          </Trackpoint>
          <Trackpoint>
            <Time>2019-08-01T12:22:28.000Z</Time>
            <Position>
              <LatitudeDegrees>40.7702262885868549346923828125</LatitudeDegrees>
              <LongitudeDegrees>-4.00842818431556224822998046875</LongitudeDegrees>
            </Position>
            <AltitudeMeters>1638.4000244140625</AltitudeMeters>
            <DistanceMeters>NAN</DistanceMeters>
          </Trackpoint>
          <Trackpoint>
            <Time>2019-08-01T12:22:29.000Z</Time>
            <Position>
              <LatitudeDegrees>40.770059488713741302490234375</LatitudeDegrees>
              <LongitudeDegrees>-4.00856112129986286163330078125</LongitudeDegrees>
            </Position>
            <AltitudeMeters>1636.199951171875</AltitudeMeters>
            <DistanceMeters>NAN</DistanceMeters>
          </Trackpoint>
          <Trackpoint>
            <Time>2019-08-01T12:22:30.000Z</Time>
            <Position>
              <LatitudeDegrees>40.7698906771838665008544921875</LatitudeDegrees>
              <LongitudeDegrees>-4.00869439356029033660888671875</LongitudeDegrees>
            </Position>
            <AltitudeMeters>1634.4000244140625</AltitudeMeters>
            <DistanceMeters>NAN</DistanceMeters>
          </Trackpoint>
          <Trackpoint>
            <Time>2019-08-01T12:22:31.000Z</Time>
            <Position>
              <LatitudeDegrees>40.7697253860533237457275390625</LatitudeDegrees>
              <LongitudeDegrees>-4.0088173560798168182373046875</LongitudeDegrees>
            </Position>
            <AltitudeMeters>1632.800048828125</AltitudeMeters>
            <DistanceMeters>NAN</DistanceMeters>
          </Trackpoint>
          <Trackpoint>
            <Time>2019-08-01T12:22:32.000Z</Time>
            <Position>
              <LatitudeDegrees>40.76956302858889102935791015625</LatitudeDegrees>
              <LongitudeDegrees>-4.00893151760101318359375</LongitudeDegrees>
            </Position>
            <AltitudeMeters>1631.5999755859375</AltitudeMeters>
            <DistanceMeters>NAN</DistanceMeters>
          </Trackpoint>
          <Trackpoint>
            <Time>2019-08-01T12:22:33.000Z</Time>
            <Position>
              <LatitudeDegrees>40.76938994228839874267578125</LatitudeDegrees>
              <LongitudeDegrees>-4.00904693640768527984619140625</LongitudeDegrees>
            </Position>
            <AltitudeMeters>1630.199951171875</AltitudeMeters>
            <DistanceMeters>NAN</DistanceMeters>
          </Trackpoint>
          <Trackpoint>
            <Time>2019-08-01T12:22:34.000Z</Time>
            <Position>
              <LatitudeDegrees>40.76921568252146244049072265625</LatitudeDegrees>
              <LongitudeDegrees>-4.0091546438634395599365234375</LongitudeDegrees>
            </Position>
            <AltitudeMeters>1629</AltitudeMeters>
            <DistanceMeters>NAN</DistanceMeters>
          </Trackpoint>
          <Trackpoint>
            <Time>2019-08-01T12:22:35.000Z</Time>
            <Position>
              <LatitudeDegrees>40.76903932727873325347900390625</LatitudeDegrees>
              <LongitudeDegrees>-4.00925941765308380126953125</LongitudeDegrees>
            </Position>
            <AltitudeMeters>1628</AltitudeMeters>
            <DistanceMeters>NAN</DistanceMeters>
          </Trackpoint>
          <Trackpoint>
            <Time>2019-08-01T12:22:36.000Z</Time>
            <Position>
              <LatitudeDegrees>40.76886230148375034332275390625</LatitudeDegrees>
              <LongitudeDegrees>-4.00936528109014034271240234375</LongitudeDegrees>
            </Position>
            <AltitudeMeters>1626.4000244140625</AltitudeMeters>
            <DistanceMeters>NAN</DistanceMeters>
          </Trackpoint>
          <Trackpoint>
            <Time>2019-08-01T12:22:37.000Z</Time>
            <Position>
              <LatitudeDegrees>40.76868225820362567901611328125</LatitudeDegrees>
              <LongitudeDegrees>-4.009473659098148345947265625</LongitudeDegrees>
            </Position>
            <AltitudeMeters>1624.5999755859375</AltitudeMeters>
            <DistanceMeters>NAN</DistanceMeters>
          </Trackpoint>
          <Trackpoint>
            <Time>2019-08-01T12:22:38.000Z</Time>
            <Position>
              <LatitudeDegrees>40.7685046456754207611083984375</LatitudeDegrees>
              <LongitudeDegrees>-4.00958036072552204132080078125</LongitudeDegrees>
            </Position>
            <AltitudeMeters>1622.4000244140625</AltitudeMeters>
            <DistanceMeters>NAN</DistanceMeters>
          </Trackpoint>
          <Trackpoint>
            <Time>2019-08-01T12:22:39.000Z</Time>
            <Position>
              <LatitudeDegrees>40.76832711696624755859375</LatitudeDegrees>
              <LongitudeDegrees>-4.0096863918006420135498046875</LongitudeDegrees>
            </Position>
            <AltitudeMeters>1619.199951171875</AltitudeMeters>
            <DistanceMeters>NAN</DistanceMeters>
          </Trackpoint>
          <Trackpoint>
            <Time>2019-08-01T12:22:40.000Z</Time>
            <Position>
              <LatitudeDegrees>40.76814933679997920989990234375</LatitudeDegrees>
              <LongitudeDegrees>-4.0097911655902862548828125</LongitudeDegrees>
            </Position>
            <AltitudeMeters>1616.800048828125</AltitudeMeters>
            <DistanceMeters>NAN</DistanceMeters>
          </Trackpoint>
          <Trackpoint>
            <Time>2019-08-01T12:22:41.000Z</Time>
            <Position>
              <LatitudeDegrees>40.7679749093949794769287109375</LatitudeDegrees>
              <LongitudeDegrees>-4.00989049114286899566650390625</LongitudeDegrees>
            </Position>
            <AltitudeMeters>1615.199951171875</AltitudeMeters>
            <DistanceMeters>NAN</DistanceMeters>
          </Trackpoint>
          <Trackpoint>
            <Time>2019-08-01T12:22:42.000Z</Time>
            <Position>
              <LatitudeDegrees>40.76779964379966259002685546875</LatitudeDegrees>
              <LongitudeDegrees>-4.00997514836490154266357421875</LongitudeDegrees>
            </Position>
            <AltitudeMeters>1613.800048828125</AltitudeMeters>
            <DistanceMeters>NAN</DistanceMeters>
          </Trackpoint>
          <Trackpoint>
            <Time>2019-08-01T12:22:43.000Z</Time>
            <Position>
              <LatitudeDegrees>40.7676225341856479644775390625</LatitudeDegrees>
              <LongitudeDegrees>-4.0100350789725780487060546875</LongitudeDegrees>
            </Position>
            <AltitudeMeters>1612.199951171875</AltitudeMeters>
            <DistanceMeters>NAN</DistanceMeters>
          </Trackpoint>
          <Trackpoint>
            <Time>2019-08-01T12:22:44.000Z</Time>
            <Position>
              <LatitudeDegrees>40.767440311610698699951171875</LatitudeDegrees>
              <LongitudeDegrees>-4.01007254607975482940673828125</LongitudeDegrees>
            </Position>
            <AltitudeMeters>1611</AltitudeMeters>
            <DistanceMeters>NAN</DistanceMeters>
          </Trackpoint>
          <Trackpoint>
            <Time>2019-08-01T12:22:45.000Z</Time>
            <Position>
              <LatitudeDegrees>40.7672587595880031585693359375</LatitudeDegrees>
              <LongitudeDegrees>-4.0100981108844280242919921875</LongitudeDegrees>
            </Position>
            <AltitudeMeters>1610.5999755859375</AltitudeMeters>
            <DistanceMeters>NAN</DistanceMeters>
          </Trackpoint>
          <Trackpoint>
            <Time>2019-08-01T12:22:46.000Z</Time>
            <Position>
              <LatitudeDegrees>40.7670746929943561553955078125</LatitudeDegrees>
              <LongitudeDegrees>-4.0101202391088008880615234375</LongitudeDegrees>
            </Position>
            <AltitudeMeters>1610.199951171875</AltitudeMeters>
            <DistanceMeters>NAN</DistanceMeters>
          </Trackpoint>
          <Trackpoint>
            <Time>2019-08-01T12:22:47.000Z</Time>
            <Position>
              <LatitudeDegrees>40.76689205132424831390380859375</LatitudeDegrees>
              <LongitudeDegrees>-4.010138176381587982177734375</LongitudeDegrees>
            </Position>
            <AltitudeMeters>1609.199951171875</AltitudeMeters>
            <DistanceMeters>NAN</DistanceMeters>
          </Trackpoint>
          <Trackpoint>
            <Time>2019-08-01T12:22:48.000Z</Time>
            <Position>
              <LatitudeDegrees>40.76671284623444080352783203125</LatitudeDegrees>
              <LongitudeDegrees>-4.0101541019976139068603515625</LongitudeDegrees>
            </Position>
            <AltitudeMeters>1608</AltitudeMeters>
            <DistanceMeters>NAN</DistanceMeters>
          </Trackpoint>
          <Trackpoint>
            <Time>2019-08-01T12:22:49.000Z</Time>
            <Position>
              <LatitudeDegrees>40.76653473079204559326171875</LatitudeDegrees>
              <LongitudeDegrees>-4.01017270982265472412109375</LongitudeDegrees>
            </Position>
            <AltitudeMeters>1606</AltitudeMeters>
            <DistanceMeters>NAN</DistanceMeters>
          </Trackpoint>
          <Trackpoint>
            <Time>2019-08-01T12:22:50.000Z</Time>
            <Position>
              <LatitudeDegrees>40.76635762117803096771240234375</LatitudeDegrees>
              <LongitudeDegrees>-4.01018369011580944061279296875</LongitudeDegrees>
            </Position>
            <AltitudeMeters>1604.5999755859375</AltitudeMeters>
            <DistanceMeters>NAN</DistanceMeters>
          </Trackpoint>
          <Trackpoint>
            <Time>2019-08-01T12:22:51.000Z</Time>
            <Position>
              <LatitudeDegrees>40.76618579216301441192626953125</LatitudeDegrees>
              <LongitudeDegrees>-4.0101775713264942169189453125</LongitudeDegrees>
            </Position>
            <AltitudeMeters>1603.199951171875</AltitudeMeters>
            <DistanceMeters>NAN</DistanceMeters>
          </Trackpoint>
          <Trackpoint>
            <Time>2019-08-01T12:22:52.000Z</Time>
            <Position>
              <LatitudeDegrees>40.76602737419307231903076171875</LatitudeDegrees>
              <LongitudeDegrees>-4.01013490743935108184814453125</LongitudeDegrees>
            </Position>
            <AltitudeMeters>1601.800048828125</AltitudeMeters>
            <DistanceMeters>NAN</DistanceMeters>
          </Trackpoint>
          <Trackpoint>
            <Time>2019-08-01T12:22:53.000Z</Time>
            <Position>
              <LatitudeDegrees>40.7658831216394901275634765625</LatitudeDegrees>
              <LongitudeDegrees>-4.01005561463534832000732421875</LongitudeDegrees>
            </Position>
            <AltitudeMeters>1600.199951171875</AltitudeMeters>
            <DistanceMeters>NAN</DistanceMeters>
          </Trackpoint>
          <Trackpoint>
            <Time>2019-08-01T12:22:54.000Z</Time>
            <Position>
              <LatitudeDegrees>40.76575328595936298370361328125</LatitudeDegrees>
              <LongitudeDegrees>-4.0099532715976238250732421875</LongitudeDegrees>
            </Position>
            <AltitudeMeters>1598.5999755859375</AltitudeMeters>
            <DistanceMeters>NAN</DistanceMeters>
          </Trackpoint>
          <Trackpoint>
            <Time>2019-08-01T12:22:55.000Z</Time>
            <Position>
              <LatitudeDegrees>40.76561515219509601593017578125</LatitudeDegrees>
              <LongitudeDegrees>-4.00986098684370517730712890625</LongitudeDegrees>
            </Position>
            <AltitudeMeters>1597</AltitudeMeters>
            <DistanceMeters>NAN</DistanceMeters>
          </Trackpoint>
          <Trackpoint>
            <Time>2019-08-01T12:22:56.000Z</Time>
            <Position>
              <LatitudeDegrees>40.76547098346054553985595703125</LatitudeDegrees>
              <LongitudeDegrees>-4.00978923775255680084228515625</LongitudeDegrees>
            </Position>
            <AltitudeMeters>1595.4000244140625</AltitudeMeters>
            <DistanceMeters>NAN</DistanceMeters>
          </Trackpoint>
          <Trackpoint>
            <Time>2019-08-01T12:22:57.000Z</Time>
            <Position>
              <LatitudeDegrees>40.7653190195560455322265625</LatitudeDegrees>
              <LongitudeDegrees>-4.0097671933472156524658203125</LongitudeDegrees>
            </Position>
            <AltitudeMeters>1593.4000244140625</AltitudeMeters>
            <DistanceMeters>NAN</DistanceMeters>
          </Trackpoint>
          <Trackpoint>
            <Time>2019-08-01T12:22:58.000Z</Time>
            <Position>
              <LatitudeDegrees>40.76515833847224712371826171875</LatitudeDegrees>
              <LongitudeDegrees>-4.009791500866413116455078125</LongitudeDegrees>
            </Position>
            <AltitudeMeters>1591.800048828125</AltitudeMeters>
            <DistanceMeters>NAN</DistanceMeters>
          </Trackpoint>
          <Trackpoint>
            <Time>2019-08-01T12:22:59.000Z</Time>
            <Position>
              <LatitudeDegrees>40.76499941758811473846435546875</LatitudeDegrees>
              <LongitudeDegrees>-4.00983165018260478973388671875</LongitudeDegrees>
            </Position>
            <AltitudeMeters>1590.199951171875</AltitudeMeters>
            <DistanceMeters>NAN</DistanceMeters>
          </Trackpoint>
          <Trackpoint>
            <Time>2019-08-01T12:23:00.000Z</Time>
            <Position>
              <LatitudeDegrees>40.76484133489429950714111328125</LatitudeDegrees>
              <LongitudeDegrees>-4.00988076813519001007080078125</LongitudeDegrees>
            </Position>
            <AltitudeMeters>1589.199951171875</AltitudeMeters>
            <DistanceMeters>NAN</DistanceMeters>
          </Trackpoint>
          <Trackpoint>
            <Time>2019-08-01T12:23:01.000Z</Time>
            <Position>
              <LatitudeDegrees>40.76468157581984996795654296875</LatitudeDegrees>
              <LongitudeDegrees>-4.009943045675754547119140625</LongitudeDegrees>
            </Position>
            <AltitudeMeters>1588.5999755859375</AltitudeMeters>
            <DistanceMeters>NAN</DistanceMeters>
          </Trackpoint>
          <Trackpoint>
            <Time>2019-08-01T12:23:02.000Z</Time>
            <Position>
              <LatitudeDegrees>40.76452500186860561370849609375</LatitudeDegrees>
              <LongitudeDegrees>-4.010009765625</LongitudeDegrees>
            </Position>
            <AltitudeMeters>1588</AltitudeMeters>
            <DistanceMeters>NAN</DistanceMeters>
          </Trackpoint>
          <Trackpoint>
            <Time>2019-08-01T12:23:03.000Z</Time>
            <Position>
              <LatitudeDegrees>40.76437479816377162933349609375</LatitudeDegrees>
              <LongitudeDegrees>-4.0100867114961147308349609375</LongitudeDegrees>
            </Position>
            <AltitudeMeters>1587</AltitudeMeters>
            <DistanceMeters>NAN</DistanceMeters>
          </Trackpoint>
          <Trackpoint>
            <Time>2019-08-01T12:23:04.000Z</Time>
            <Position>
              <LatitudeDegrees>40.76421772129833698272705078125</LatitudeDegrees>
              <LongitudeDegrees>-4.0101722069084644317626953125</LongitudeDegrees>
            </Position>
            <AltitudeMeters>1585.4000244140625</AltitudeMeters>
            <DistanceMeters>NAN</DistanceMeters>
          </Trackpoint>
          <Trackpoint>
            <Time>2019-08-01T12:23:05.000Z</Time>
            <Position>
              <LatitudeDegrees>40.764054693281650543212890625</LatitudeDegrees>
              <LongitudeDegrees>-4.0102670900523662567138671875</LongitudeDegrees>
            </Position>
            <AltitudeMeters>1584</AltitudeMeters>
            <DistanceMeters>NAN</DistanceMeters>
          </Trackpoint>
          <Trackpoint>
            <Time>2019-08-01T12:23:06.000Z</Time>
            <Position>
              <LatitudeDegrees>40.76389367692172527313232421875</LatitudeDegrees>
              <LongitudeDegrees>-4.01036339811980724334716796875</LongitudeDegrees>
            </Position>
            <AltitudeMeters>1582</AltitudeMeters>
            <DistanceMeters>NAN</DistanceMeters>
          </Trackpoint>
          <Trackpoint>
            <Time>2019-08-01T12:23:07.000Z</Time>
            <Position>
              <LatitudeDegrees>40.76373123563826084136962890625</LatitudeDegrees>
              <LongitudeDegrees>-4.0104605443775653839111328125</LongitudeDegrees>
            </Position>
            <AltitudeMeters>1580.199951171875</AltitudeMeters>
            <DistanceMeters>NAN</DistanceMeters>
          </Trackpoint>
          <Trackpoint>
            <Time>2019-08-01T12:23:08.000Z</Time>
            <Position>
              <LatitudeDegrees>40.76356912963092327117919921875</LatitudeDegrees>
              <LongitudeDegrees>-4.0105638094246387481689453125</LongitudeDegrees>
            </Position>
            <AltitudeMeters>1578.4000244140625</AltitudeMeters>
            <DistanceMeters>NAN</DistanceMeters>
          </Trackpoint>
          <Trackpoint>
            <Time>2019-08-01T12:23:09.000Z</Time>
            <Position>
              <LatitudeDegrees>40.7634305767714977264404296875</LatitudeDegrees>
              <LongitudeDegrees>-4.0107036195695400238037109375</LongitudeDegrees>
            </Position>
            <AltitudeMeters>1576.800048828125</AltitudeMeters>
            <DistanceMeters>NAN</DistanceMeters>
          </Trackpoint>
          <Trackpoint>
            <Time>2019-08-01T12:23:10.000Z</Time>
            <Position>
              <LatitudeDegrees>40.76334214769303798675537109375</LatitudeDegrees>
              <LongitudeDegrees>-4.0108803100883960723876953125</LongitudeDegrees>
            </Position>
            <AltitudeMeters>1575.5999755859375</AltitudeMeters>
            <DistanceMeters>NAN</DistanceMeters>
          </Trackpoint>
          <Trackpoint>
            <Time>2019-08-01T12:23:11.000Z</Time>
            <Position>
              <LatitudeDegrees>40.76329772360622882843017578125</LatitudeDegrees>
              <LongitudeDegrees>-4.01109714992344379425048828125</LongitudeDegrees>
            </Position>
            <AltitudeMeters>1574</AltitudeMeters>
            <DistanceMeters>NAN</DistanceMeters>
          </Trackpoint>
          <Trackpoint>
            <Time>2019-08-01T12:23:12.000Z</Time>
            <Position>
              <LatitudeDegrees>40.76326637528836727142333984375</LatitudeDegrees>
              <LongitudeDegrees>-4.01131625287234783172607421875</LongitudeDegrees>
            </Position>
            <AltitudeMeters>1572.4000244140625</AltitudeMeters>
            <DistanceMeters>NAN</DistanceMeters>
          </Trackpoint>
          <Trackpoint>
            <Time>2019-08-01T12:23:13.000Z</Time>
            <Position>
              <LatitudeDegrees>40.76322463341057300567626953125</LatitudeDegrees>
              <LongitudeDegrees>-4.011530578136444091796875</LongitudeDegrees>
            </Position>
            <AltitudeMeters>1571.199951171875</AltitudeMeters>
            <DistanceMeters>NAN</DistanceMeters>
          </Trackpoint>
          <Trackpoint>
            <Time>2019-08-01T12:23:14.000Z</Time>
            <Position>
              <LatitudeDegrees>40.7631652057170867919921875</LatitudeDegrees>
              <LongitudeDegrees>-4.01174155063927173614501953125</LongitudeDegrees>
            </Position>
            <AltitudeMeters>1569.800048828125</AltitudeMeters>
            <DistanceMeters>NAN</DistanceMeters>
          </Trackpoint>
          <Trackpoint>
            <Time>2019-08-01T12:23:15.000Z</Time>
            <Position>
              <LatitudeDegrees>40.7630919478833675384521484375</LatitudeDegrees>
              <LongitudeDegrees>-4.01194288395345211029052734375</LongitudeDegrees>
            </Position>
            <AltitudeMeters>1568</AltitudeMeters>
            <DistanceMeters>NAN</DistanceMeters>
          </Trackpoint>
          <Trackpoint>
            <Time>2019-08-01T12:23:16.000Z</Time>
            <Position>
              <LatitudeDegrees>40.7630067877471446990966796875</LatitudeDegrees>
              <LongitudeDegrees>-4.01213164441287517547607421875</LongitudeDegrees>
            </Position>
            <AltitudeMeters>1566.800048828125</AltitudeMeters>
            <DistanceMeters>NAN</DistanceMeters>
          </Trackpoint>
          <Trackpoint>
            <Time>2019-08-01T12:23:17.000Z</Time>
            <Position>
              <LatitudeDegrees>40.76290511526167392730712890625</LatitudeDegrees>
              <LongitudeDegrees>-4.0123070776462554931640625</LongitudeDegrees>
            </Position>
            <AltitudeMeters>1565.199951171875</AltitudeMeters>
            <DistanceMeters>NAN</DistanceMeters>
          </Trackpoint>
          <Trackpoint>
            <Time>2019-08-01T12:23:18.000Z</Time>
            <Position>
              <LatitudeDegrees>40.7627955637872219085693359375</LatitudeDegrees>
              <LongitudeDegrees>-4.01247530244290828704833984375</LongitudeDegrees>
            </Position>
            <AltitudeMeters>1564.199951171875</AltitudeMeters>
            <DistanceMeters>NAN</DistanceMeters>
          </Trackpoint>
          <Trackpoint>
            <Time>2019-08-01T12:23:19.000Z</Time>
            <Position>
              <LatitudeDegrees>40.7626775465905666351318359375</LatitudeDegrees>
              <LongitudeDegrees>-4.0126351453363895416259765625</LongitudeDegrees>
            </Position>
            <AltitudeMeters>1563</AltitudeMeters>
            <DistanceMeters>NAN</DistanceMeters>
          </Trackpoint>
          <Trackpoint>
            <Time>2019-08-01T12:23:20.000Z</Time>
            <Position>
              <LatitudeDegrees>40.76255567371845245361328125</LatitudeDegrees>
              <LongitudeDegrees>-4.01278518140316009521484375</LongitudeDegrees>
            </Position>
            <AltitudeMeters>1561.5999755859375</AltitudeMeters>
            <DistanceMeters>NAN</DistanceMeters>
          </Trackpoint>
          <Trackpoint>
            <Time>2019-08-01T12:23:21.000Z</Time>
            <Position>
              <LatitudeDegrees>40.76242516748607158660888671875</LatitudeDegrees>
              <LongitudeDegrees>-4.01292138732969760894775390625</LongitudeDegrees>
            </Position>
            <AltitudeMeters>1560.199951171875</AltitudeMeters>
            <DistanceMeters>NAN</DistanceMeters>
          </Trackpoint>
          <Trackpoint>
            <Time>2019-08-01T12:23:22.000Z</Time>
            <Position>
              <LatitudeDegrees>40.76228233985602855682373046875</LatitudeDegrees>
              <LongitudeDegrees>-4.0130408294498920440673828125</LongitudeDegrees>
            </Position>
            <AltitudeMeters>1558.4000244140625</AltitudeMeters>
            <DistanceMeters>NAN</DistanceMeters>
          </Trackpoint>
          <Trackpoint>
            <Time>2019-08-01T12:23:23.000Z</Time>
            <Position>
              <LatitudeDegrees>40.76212794519960880279541015625</LatitudeDegrees>
              <LongitudeDegrees>-4.013132192194461822509765625</LongitudeDegrees>
            </Position>
            <AltitudeMeters>1556.5999755859375</AltitudeMeters>
            <DistanceMeters>NAN</DistanceMeters>
          </Trackpoint>
          <Trackpoint>
            <Time>2019-08-01T12:23:24.000Z</Time>
            <Position>
              <LatitudeDegrees>40.76196567155420780181884765625</LatitudeDegrees>
              <LongitudeDegrees>-4.01320586912333965301513671875</LongitudeDegrees>
            </Position>
            <AltitudeMeters>1554.4000244140625</AltitudeMeters>
            <DistanceMeters>NAN</DistanceMeters>
          </Trackpoint>
          <Trackpoint>
            <Time>2019-08-01T12:23:25.000Z</Time>
            <Position>
              <LatitudeDegrees>40.76179652474820613861083984375</LatitudeDegrees>
              <LongitudeDegrees>-4.01327024213969707489013671875</LongitudeDegrees>
            </Position>
            <AltitudeMeters>1552.199951171875</AltitudeMeters>
            <DistanceMeters>NAN</DistanceMeters>
          </Trackpoint>
          <Trackpoint>
            <Time>2019-08-01T12:23:26.000Z</Time>
            <Position>
              <LatitudeDegrees>40.7616184093058109283447265625</LatitudeDegrees>
              <LongitudeDegrees>-4.01333008892834186553955078125</LongitudeDegrees>
            </Position>
            <AltitudeMeters>1550.199951171875</AltitudeMeters>
            <DistanceMeters>NAN</DistanceMeters>
          </Trackpoint>
          <Trackpoint>
            <Time>2019-08-01T12:23:27.000Z</Time>
            <Position>
              <LatitudeDegrees>40.761438868939876556396484375</LatitudeDegrees>
              <LongitudeDegrees>-4.013393037021160125732421875</LongitudeDegrees>
            </Position>
            <AltitudeMeters>1548.5999755859375</AltitudeMeters>
            <DistanceMeters>NAN</DistanceMeters>
          </Trackpoint>
          <Trackpoint>
            <Time>2019-08-01T12:23:28.000Z</Time>
            <Position>
              <LatitudeDegrees>40.761259496212005615234375</LatitudeDegrees>
              <LongitudeDegrees>-4.0134616009891033172607421875</LongitudeDegrees>
            </Position>
            <AltitudeMeters>1547</AltitudeMeters>
            <DistanceMeters>NAN</DistanceMeters>
          </Trackpoint>
          <Trackpoint>
            <Time>2019-08-01T12:23:29.000Z</Time>
            <Position>
              <LatitudeDegrees>40.76107400469481945037841796875</LatitudeDegrees>
              <LongitudeDegrees>-4.0135273151099681854248046875</LongitudeDegrees>
            </Position>
            <AltitudeMeters>1545</AltitudeMeters>
            <DistanceMeters>NAN</DistanceMeters>
          </Trackpoint>
          <Trackpoint>
            <Time>2019-08-01T12:23:30.000Z</Time>
            <Position>
              <LatitudeDegrees>40.76089228503406047821044921875</LatitudeDegrees>
              <LongitudeDegrees>-4.01358590461313724517822265625</LongitudeDegrees>
            </Position>
            <AltitudeMeters>1543</AltitudeMeters>
            <DistanceMeters>NAN</DistanceMeters>
          </Trackpoint>
          <Trackpoint>
            <Time>2019-08-01T12:23:31.000Z</Time>
            <Position>
              <LatitudeDegrees>40.76070201583206653594970703125</LatitudeDegrees>
              <LongitudeDegrees>-4.01363166980445384979248046875</LongitudeDegrees>
            </Position>
            <AltitudeMeters>1541.199951171875</AltitudeMeters>
            <DistanceMeters>NAN</DistanceMeters>
          </Trackpoint>
          <Trackpoint>
            <Time>2019-08-01T12:23:32.000Z</Time>
            <Position>
              <LatitudeDegrees>40.76050923205912113189697265625</LatitudeDegrees>
              <LongitudeDegrees>-4.01366855017840862274169921875</LongitudeDegrees>
            </Position>
            <AltitudeMeters>1539.5999755859375</AltitudeMeters>
            <DistanceMeters>NAN</DistanceMeters>
          </Trackpoint>
          <Trackpoint>
            <Time>2019-08-01T12:23:33.000Z</Time>
            <Position>
              <LatitudeDegrees>40.76031737029552459716796875</LatitudeDegrees>
              <LongitudeDegrees>-4.01369889266788959503173828125</LongitudeDegrees>
            </Position>
            <AltitudeMeters>1537.800048828125</AltitudeMeters>
            <DistanceMeters>NAN</DistanceMeters>
          </Trackpoint>
          <Trackpoint>
            <Time>2019-08-01T12:23:34.000Z</Time>
            <Position>
              <LatitudeDegrees>40.7601254247128963470458984375</LatitudeDegrees>
              <LongitudeDegrees>-4.01372789405286312103271484375</LongitudeDegrees>
            </Position>
            <AltitudeMeters>1535.800048828125</AltitudeMeters>
            <DistanceMeters>NAN</DistanceMeters>
          </Trackpoint>
          <Trackpoint>
            <Time>2019-08-01T12:23:35.000Z</Time>
            <Position>
              <LatitudeDegrees>40.7599353231489658355712890625</LatitudeDegrees>
              <LongitudeDegrees>-4.0137693844735622406005859375</LongitudeDegrees>
            </Position>
            <AltitudeMeters>1533.800048828125</AltitudeMeters>
            <DistanceMeters>NAN</DistanceMeters>
          </Trackpoint>
          <Trackpoint>
            <Time>2019-08-01T12:23:36.000Z</Time>
            <Position>
              <LatitudeDegrees>40.75974631123244762420654296875</LatitudeDegrees>
              <LongitudeDegrees>-4.01381372474133968353271484375</LongitudeDegrees>
            </Position>
            <AltitudeMeters>1531.800048828125</AltitudeMeters>
            <DistanceMeters>NAN</DistanceMeters>
          </Trackpoint>
          <Trackpoint>
            <Time>2019-08-01T12:23:37.000Z</Time>
            <Position>
              <LatitudeDegrees>40.75955620966851711273193359375</LatitudeDegrees>
              <LongitudeDegrees>-4.01385362260043621063232421875</LongitudeDegrees>
            </Position>
            <AltitudeMeters>1529.5999755859375</AltitudeMeters>
            <DistanceMeters>NAN</DistanceMeters>
          </Trackpoint>
          <Trackpoint>
            <Time>2019-08-01T12:23:38.000Z</Time>
            <Position>
              <LatitudeDegrees>40.75936275534331798553466796875</LatitudeDegrees>
              <LongitudeDegrees>-4.01388815604150295257568359375</LongitudeDegrees>
            </Position>
            <AltitudeMeters>1527.199951171875</AltitudeMeters>
            <DistanceMeters>NAN</DistanceMeters>
          </Trackpoint>
          <Trackpoint>
            <Time>2019-08-01T12:23:39.000Z</Time>
            <Position>
              <LatitudeDegrees>40.75917315669357776641845703125</LatitudeDegrees>
              <LongitudeDegrees>-4.0139152295887470245361328125</LongitudeDegrees>
            </Position>
            <AltitudeMeters>1525.199951171875</AltitudeMeters>
            <DistanceMeters>NAN</DistanceMeters>
          </Trackpoint>
          <Trackpoint>
            <Time>2019-08-01T12:23:40.000Z</Time>
            <Position>
              <LatitudeDegrees>40.7589863240718841552734375</LatitudeDegrees>
              <LongitudeDegrees>-4.01393123902380466461181640625</LongitudeDegrees>
            </Position>
            <AltitudeMeters>1523.199951171875</AltitudeMeters>
            <DistanceMeters>NAN</DistanceMeters>
          </Trackpoint>
          <Trackpoint>
            <Time>2019-08-01T12:23:41.000Z</Time>
            <Position>
              <LatitudeDegrees>40.75880502350628376007080078125</LatitudeDegrees>
              <LongitudeDegrees>-4.01396677829325199127197265625</LongitudeDegrees>
            </Position>
            <AltitudeMeters>1521.5999755859375</AltitudeMeters>
            <DistanceMeters>NAN</DistanceMeters>
          </Trackpoint>
          <Trackpoint>
            <Time>2019-08-01T12:23:42.000Z</Time>
            <Position>
              <LatitudeDegrees>40.75862917117774486541748046875</LatitudeDegrees>
              <LongitudeDegrees>-4.0140453167259693145751953125</LongitudeDegrees>
            </Position>
            <AltitudeMeters>1519.4000244140625</AltitudeMeters>
            <DistanceMeters>NAN</DistanceMeters>
          </Trackpoint>
          <Trackpoint>
            <Time>2019-08-01T12:23:43.000Z</Time>
            <Position>
              <LatitudeDegrees>40.75846438296139240264892578125</LatitudeDegrees>
              <LongitudeDegrees>-4.0141670219600200653076171875</LongitudeDegrees>
            </Position>
            <AltitudeMeters>1517.5999755859375</AltitudeMeters>
            <DistanceMeters>NAN</DistanceMeters>
          </Trackpoint>
          <Trackpoint>
            <Time>2019-08-01T12:23:44.000Z</Time>
            <Position>
              <LatitudeDegrees>40.75832423754036426544189453125</LatitudeDegrees>
              <LongitudeDegrees>-4.01432619430124759674072265625</LongitudeDegrees>
            </Position>
            <AltitudeMeters>1515.800048828125</AltitudeMeters>
            <DistanceMeters>NAN</DistanceMeters>
          </Trackpoint>
          <Trackpoint>
            <Time>2019-08-01T12:23:45.000Z</Time>
            <Position>
              <LatitudeDegrees>40.75820337049663066864013671875</LatitudeDegrees>
              <LongitudeDegrees>-4.01451176963746547698974609375</LongitudeDegrees>
            </Position>
            <AltitudeMeters>1512.4000244140625</AltitudeMeters>
            <DistanceMeters>NAN</DistanceMeters>
          </Trackpoint>
          <Trackpoint>
            <Time>2019-08-01T12:23:46.000Z</Time>
            <Position>
              <LatitudeDegrees>40.758090130984783172607421875</LatitudeDegrees>
              <LongitudeDegrees>-4.014701284468173980712890625</LongitudeDegrees>
            </Position>
            <AltitudeMeters>1510.800048828125</AltitudeMeters>
            <DistanceMeters>NAN</DistanceMeters>
          </Trackpoint>
          <Trackpoint>
            <Time>2019-08-01T12:23:47.000Z</Time>
            <Position>
              <LatitudeDegrees>40.75797856785356998443603515625</LatitudeDegrees>
              <LongitudeDegrees>-4.0148962475359439849853515625</LongitudeDegrees>
            </Position>
            <AltitudeMeters>1509.5999755859375</AltitudeMeters>
            <DistanceMeters>NAN</DistanceMeters>
          </Trackpoint>
          <Trackpoint>
            <Time>2019-08-01T12:23:48.000Z</Time>
            <Position>
              <LatitudeDegrees>40.75786910019814968109130859375</LatitudeDegrees>
              <LongitudeDegrees>-4.01508945040404796600341796875</LongitudeDegrees>
            </Position>
            <AltitudeMeters>1509</AltitudeMeters>
            <DistanceMeters>NAN</DistanceMeters>
          </Trackpoint>
          <Trackpoint>
            <Time>2019-08-01T12:23:49.000Z</Time>
            <Position>
              <LatitudeDegrees>40.75775929726660251617431640625</LatitudeDegrees>
              <LongitudeDegrees>-4.01528743095695972442626953125</LongitudeDegrees>
            </Position>
            <AltitudeMeters>1508.199951171875</AltitudeMeters>
            <DistanceMeters>NAN</DistanceMeters>
          </Trackpoint>
          <Trackpoint>
            <Time>2019-08-01T12:23:50.000Z</Time>
            <Position>
              <LatitudeDegrees>40.75765033252537250518798828125</LatitudeDegrees>
              <LongitudeDegrees>-4.01548759080469608306884765625</LongitudeDegrees>
            </Position>
            <AltitudeMeters>1507.199951171875</AltitudeMeters>
            <DistanceMeters>NAN</DistanceMeters>
          </Trackpoint>
          <Trackpoint>
            <Time>2019-08-01T12:23:51.000Z</Time>
            <Position>
              <LatitudeDegrees>40.75754807330667972564697265625</LatitudeDegrees>
              <LongitudeDegrees>-4.01569764129817485809326171875</LongitudeDegrees>
            </Position>
            <AltitudeMeters>1506.199951171875</AltitudeMeters>
            <DistanceMeters>NAN</DistanceMeters>
          </Trackpoint>
          <Trackpoint>
            <Time>2019-08-01T12:23:52.000Z</Time>
            <Position>
              <LatitudeDegrees>40.75745888985693454742431640625</LatitudeDegrees>
              <LongitudeDegrees>-4.0159161575138568878173828125</LongitudeDegrees>
            </Position>
            <AltitudeMeters>1504.4000244140625</AltitudeMeters>
            <DistanceMeters>NAN</DistanceMeters>
          </Trackpoint>
          <Trackpoint>
            <Time>2019-08-01T12:23:53.000Z</Time>
            <Position>
              <LatitudeDegrees>40.7573922537267208099365234375</LatitudeDegrees>
              <LongitudeDegrees>-4.01614590547978878021240234375</LongitudeDegrees>
            </Position>
            <AltitudeMeters>1502.800048828125</AltitudeMeters>
            <DistanceMeters>NAN</DistanceMeters>
          </Trackpoint>
          <Trackpoint>
            <Time>2019-08-01T12:23:54.000Z</Time>
            <Position>
              <LatitudeDegrees>40.7573439739644527435302734375</LatitudeDegrees>
              <LongitudeDegrees>-4.01638847775757312774658203125</LongitudeDegrees>
            </Position>
            <AltitudeMeters>1500.800048828125</AltitudeMeters>
            <DistanceMeters>NAN</DistanceMeters>
          </Trackpoint>
          <Trackpoint>
            <Time>2019-08-01T12:23:55.000Z</Time>
            <Position>
              <LatitudeDegrees>40.7573070935904979705810546875</LatitudeDegrees>
              <LongitudeDegrees>-4.01663389988243579864501953125</LongitudeDegrees>
            </Position>
            <AltitudeMeters>1498.5999755859375</AltitudeMeters>
            <DistanceMeters>NAN</DistanceMeters>
          </Trackpoint>
          <Trackpoint>
            <Time>2019-08-01T12:23:56.000Z</Time>
            <Position>
              <LatitudeDegrees>40.7572732307016849517822265625</LatitudeDegrees>
              <LongitudeDegrees>-4.01688267476856708526611328125</LongitudeDegrees>
            </Position>
            <AltitudeMeters>1496.199951171875</AltitudeMeters>
            <DistanceMeters>NAN</DistanceMeters>
          </Trackpoint>
          <Trackpoint>
            <Time>2019-08-01T12:23:57.000Z</Time>
            <Position>
              <LatitudeDegrees>40.757235847413539886474609375</LatitudeDegrees>
              <LongitudeDegrees>-4.01713295839726924896240234375</LongitudeDegrees>
            </Position>
            <AltitudeMeters>1494.199951171875</AltitudeMeters>
            <DistanceMeters>NAN</DistanceMeters>
          </Trackpoint>
          <Trackpoint>
            <Time>2019-08-01T12:23:58.000Z</Time>
            <Position>
              <LatitudeDegrees>40.7571892440319061279296875</LatitudeDegrees>
              <LongitudeDegrees>-4.01738491840660572052001953125</LongitudeDegrees>
            </Position>
            <AltitudeMeters>1492.4000244140625</AltitudeMeters>
            <DistanceMeters>NAN</DistanceMeters>
          </Trackpoint>
          <Trackpoint>
            <Time>2019-08-01T12:23:59.000Z</Time>
            <Position>
              <LatitudeDegrees>40.75713031925261020660400390625</LatitudeDegrees>
              <LongitudeDegrees>-4.017628245055675506591796875</LongitudeDegrees>
            </Position>
            <AltitudeMeters>1490</AltitudeMeters>
            <DistanceMeters>NAN</DistanceMeters>
          </Trackpoint>
          <Trackpoint>
            <Time>2019-08-01T12:24:00.000Z</Time>
            <Position>
              <LatitudeDegrees>40.75706108473241329193115234375</LatitudeDegrees>
              <LongitudeDegrees>-4.01786805130541324615478515625</LongitudeDegrees>
            </Position>
            <AltitudeMeters>1487.5999755859375</AltitudeMeters>
            <DistanceMeters>NAN</DistanceMeters>
          </Trackpoint>
          <Trackpoint>
            <Time>2019-08-01T12:24:01.000Z</Time>
            <Position>
              <LatitudeDegrees>40.75698547996580600738525390625</LatitudeDegrees>
              <LongitudeDegrees>-4.01810978539288043975830078125</LongitudeDegrees>
            </Position>
            <AltitudeMeters>1485.5999755859375</AltitudeMeters>
            <DistanceMeters>NAN</DistanceMeters>
          </Trackpoint>
          <Trackpoint>
            <Time>2019-08-01T12:24:02.000Z</Time>
            <Position>
              <LatitudeDegrees>40.75690828263759613037109375</LatitudeDegrees>
              <LongitudeDegrees>-4.0183509327471256256103515625</LongitudeDegrees>
            </Position>
            <AltitudeMeters>1483.5999755859375</AltitudeMeters>
            <DistanceMeters>NAN</DistanceMeters>
          </Trackpoint>
          <Trackpoint>
            <Time>2019-08-01T12:24:03.000Z</Time>
            <Position>
              <LatitudeDegrees>40.75683049857616424560546875</LatitudeDegrees>
              <LongitudeDegrees>-4.01859258301556110382080078125</LongitudeDegrees>
            </Position>
            <AltitudeMeters>1482</AltitudeMeters>
            <DistanceMeters>NAN</DistanceMeters>
          </Trackpoint>
          <Trackpoint>
            <Time>2019-08-01T12:24:04.000Z</Time>
            <Position>
              <LatitudeDegrees>40.7567525468766689300537109375</LatitudeDegrees>
              <LongitudeDegrees>-4.01883264072239398956298828125</LongitudeDegrees>
            </Position>
            <AltitudeMeters>1480.4000244140625</AltitudeMeters>
            <DistanceMeters>NAN</DistanceMeters>
          </Trackpoint>
          <Trackpoint>
            <Time>2019-08-01T12:24:05.000Z</Time>
            <Position>
              <LatitudeDegrees>40.75667090713977813720703125</LatitudeDegrees>
              <LongitudeDegrees>-4.01907219551503658294677734375</LongitudeDegrees>
            </Position>
            <AltitudeMeters>1479.199951171875</AltitudeMeters>
            <DistanceMeters>NAN</DistanceMeters>
          </Trackpoint>
          <Trackpoint>
            <Time>2019-08-01T12:24:06.000Z</Time>
            <Position>
              <LatitudeDegrees>40.75659169815480709075927734375</LatitudeDegrees>
              <LongitudeDegrees>-4.01931594125926494598388671875</LongitudeDegrees>
            </Position>
            <AltitudeMeters>1477.199951171875</AltitudeMeters>
            <DistanceMeters>NAN</DistanceMeters>
          </Trackpoint>
          <Trackpoint>
            <Time>2019-08-01T12:24:07.000Z</Time>
            <Position>
              <LatitudeDegrees>40.75651668012142181396484375</LatitudeDegrees>
              <LongitudeDegrees>-4.01956446468830108642578125</LongitudeDegrees>
            </Position>
            <AltitudeMeters>1475.199951171875</AltitudeMeters>
            <DistanceMeters>NAN</DistanceMeters>
          </Trackpoint>
          <Trackpoint>
            <Time>2019-08-01T12:24:08.000Z</Time>
            <Position>
              <LatitudeDegrees>40.75643830932676792144775390625</LatitudeDegrees>
              <LongitudeDegrees>-4.01980712078511714935302734375</LongitudeDegrees>
            </Position>
            <AltitudeMeters>1473.199951171875</AltitudeMeters>
            <DistanceMeters>NAN</DistanceMeters>
          </Trackpoint>
          <Trackpoint>
            <Time>2019-08-01T12:24:09.000Z</Time>
            <Position>
              <LatitudeDegrees>40.7563539035618305206298828125</LatitudeDegrees>
              <LongitudeDegrees>-4.0200390480458736419677734375</LongitudeDegrees>
            </Position>
            <AltitudeMeters>1471.4000244140625</AltitudeMeters>
            <DistanceMeters>NAN</DistanceMeters>
          </Trackpoint>
          <Trackpoint>
            <Time>2019-08-01T12:24:10.000Z</Time>
            <Position>
              <LatitudeDegrees>40.75625860132277011871337890625</LatitudeDegrees>
              <LongitudeDegrees>-4.0202563069760799407958984375</LongitudeDegrees>
            </Position>
            <AltitudeMeters>1469.199951171875</AltitudeMeters>
            <DistanceMeters>NAN</DistanceMeters>
          </Trackpoint>
          <Trackpoint>
            <Time>2019-08-01T12:24:11.000Z</Time>
            <Position>
              <LatitudeDegrees>40.75625860132277011871337890625</LatitudeDegrees>
              <LongitudeDegrees>-4.0202563069760799407958984375</LongitudeDegrees>
            </Position>
            <AltitudeMeters>1467.199951171875</AltitudeMeters>
            <DistanceMeters>NAN</DistanceMeters>
          </Trackpoint>
          <Trackpoint>
            <Time>2019-08-01T12:24:12.000Z</Time>
            <Position>
              <LatitudeDegrees>40.75603254139423370361328125</LatitudeDegrees>
              <LongitudeDegrees>-4.0206458978354930877685546875</LongitudeDegrees>
            </Position>
            <AltitudeMeters>1463</AltitudeMeters>
            <DistanceMeters>NAN</DistanceMeters>
          </Trackpoint>
          <Trackpoint>
            <Time>2019-08-01T12:24:13.000Z</Time>
            <Position>
              <LatitudeDegrees>40.75590672902762889862060546875</LatitudeDegrees>
              <LongitudeDegrees>-4.02081973850727081298828125</LongitudeDegrees>
            </Position>
            <AltitudeMeters>1460.800048828125</AltitudeMeters>
            <DistanceMeters>NAN</DistanceMeters>
          </Trackpoint>
          <Trackpoint>
            <Time>2019-08-01T12:24:14.000Z</Time>
            <Position>
              <LatitudeDegrees>40.75577680952847003936767578125</LatitudeDegrees>
              <LongitudeDegrees>-4.0209818445146083831787109375</LongitudeDegrees>
            </Position>
            <AltitudeMeters>1458.4000244140625</AltitudeMeters>
            <DistanceMeters>NAN</DistanceMeters>
          </Trackpoint>
          <Trackpoint>
            <Time>2019-08-01T12:24:15.000Z</Time>
            <Position>
              <LatitudeDegrees>40.75564638711512088775634765625</LatitudeDegrees>
              <LongitudeDegrees>-4.0211340598762035369873046875</LongitudeDegrees>
            </Position>
            <AltitudeMeters>1456.199951171875</AltitudeMeters>
            <DistanceMeters>NAN</DistanceMeters>
          </Trackpoint>
          <Trackpoint>
            <Time>2019-08-01T12:24:16.000Z</Time>
            <Position>
              <LatitudeDegrees>40.75551730580627918243408203125</LatitudeDegrees>
              <LongitudeDegrees>-4.02125819586217403411865234375</LongitudeDegrees>
            </Position>
            <AltitudeMeters>1454.5999755859375</AltitudeMeters>
            <DistanceMeters>NAN</DistanceMeters>
          </Trackpoint>
          <Trackpoint>
            <Time>2019-08-01T12:24:17.000Z</Time>
            <Position>
              <LatitudeDegrees>40.755383111536502838134765625</LatitudeDegrees>
              <LongitudeDegrees>-4.02133405208587646484375</LongitudeDegrees>
            </Position>
            <AltitudeMeters>1453.199951171875</AltitudeMeters>
            <DistanceMeters>NAN</DistanceMeters>
          </Trackpoint>
          <Trackpoint>
            <Time>2019-08-01T12:24:18.000Z</Time>
            <Position>
              <LatitudeDegrees>40.75524589978158473968505859375</LatitudeDegrees>
              <LongitudeDegrees>-4.02135056443512439727783203125</LongitudeDegrees>
            </Position>
            <AltitudeMeters>1452.4000244140625</AltitudeMeters>
            <DistanceMeters>NAN</DistanceMeters>
          </Trackpoint>
          <Trackpoint>
            <Time>2019-08-01T12:24:19.000Z</Time>
            <Position>
              <LatitudeDegrees>40.755112208425998687744140625</LatitudeDegrees>
              <LongitudeDegrees>-4.0213058888912200927734375</LongitudeDegrees>
            </Position>
            <AltitudeMeters>1451.5999755859375</AltitudeMeters>
            <DistanceMeters>NAN</DistanceMeters>
          </Trackpoint>
          <Trackpoint>
            <Time>2019-08-01T12:24:20.000Z</Time>
            <Position>
              <LatitudeDegrees>40.754996873438358306884765625</LatitudeDegrees>
              <LongitudeDegrees>-4.02120186947286128997802734375</LongitudeDegrees>
            </Position>
            <AltitudeMeters>1450</AltitudeMeters>
            <DistanceMeters>NAN</DistanceMeters>
          </Trackpoint>
          <Trackpoint>
            <Time>2019-08-01T12:24:21.000Z</Time>
            <Position>
              <LatitudeDegrees>40.75490894727408885955810546875</LatitudeDegrees>
              <LongitudeDegrees>-4.02105686254799365997314453125</LongitudeDegrees>
            </Position>
            <AltitudeMeters>1448.4000244140625</AltitudeMeters>
            <DistanceMeters>NAN</DistanceMeters>
          </Trackpoint>
          <Trackpoint>
            <Time>2019-08-01T12:24:22.000Z</Time>
            <Position>
              <LatitudeDegrees>40.75484692119061946868896484375</LatitudeDegrees>
              <LongitudeDegrees>-4.02088813483715057373046875</LongitudeDegrees>
            </Position>
            <AltitudeMeters>1447.4000244140625</AltitudeMeters>
            <DistanceMeters>NAN</DistanceMeters>
          </Trackpoint>
          <Trackpoint>
            <Time>2019-08-01T12:24:23.000Z</Time>
            <Position>
              <LatitudeDegrees>40.75480300001800060272216796875</LatitudeDegrees>
              <LongitudeDegrees>-4.02070415206253528594970703125</LongitudeDegrees>
            </Position>
            <AltitudeMeters>1447</AltitudeMeters>
            <DistanceMeters>NAN</DistanceMeters>
          </Trackpoint>
          <Trackpoint>
            <Time>2019-08-01T12:24:24.000Z</Time>
            <Position>
              <LatitudeDegrees>40.754770226776599884033203125</LatitudeDegrees>
              <LongitudeDegrees>-4.02052109129726886749267578125</LongitudeDegrees>
            </Position>
            <AltitudeMeters>1446.5999755859375</AltitudeMeters>
            <DistanceMeters>NAN</DistanceMeters>
          </Trackpoint>
          <Trackpoint>
            <Time>2019-08-01T12:24:25.000Z</Time>
            <Position>
              <LatitudeDegrees>40.75473678298294544219970703125</LatitudeDegrees>
              <LongitudeDegrees>-4.0203371085226535797119140625</LongitudeDegrees>
            </Position>
            <AltitudeMeters>1446.199951171875</AltitudeMeters>
            <DistanceMeters>NAN</DistanceMeters>
          </Trackpoint>
          <Trackpoint>
            <Time>2019-08-01T12:24:26.000Z</Time>
            <Position>
              <LatitudeDegrees>40.7546949572861194610595703125</LatitudeDegrees>
              <LongitudeDegrees>-4.0201550535857677459716796875</LongitudeDegrees>
            </Position>
            <AltitudeMeters>1446</AltitudeMeters>
            <DistanceMeters>NAN</DistanceMeters>
          </Trackpoint>
          <Trackpoint>
            <Time>2019-08-01T12:24:27.000Z</Time>
            <Position>
              <LatitudeDegrees>40.7546339370310306549072265625</LatitudeDegrees>
              <LongitudeDegrees>-4.01998464949429035186767578125</LongitudeDegrees>
            </Position>
            <AltitudeMeters>1445.4000244140625</AltitudeMeters>
            <DistanceMeters>NAN</DistanceMeters>
          </Trackpoint>
          <Trackpoint>
            <Time>2019-08-01T12:24:28.000Z</Time>
            <Position>
              <LatitudeDegrees>40.7545534707605838775634765625</LatitudeDegrees>
              <LongitudeDegrees>-4.01983008719980716705322265625</LongitudeDegrees>
            </Position>
            <AltitudeMeters>1445.199951171875</AltitudeMeters>
            <DistanceMeters>NAN</DistanceMeters>
          </Trackpoint>
          <Trackpoint>
            <Time>2019-08-01T12:24:29.000Z</Time>
            <Position>
              <LatitudeDegrees>40.754461102187633514404296875</LatitudeDegrees>
              <LongitudeDegrees>-4.0196911990642547607421875</LongitudeDegrees>
            </Position>
            <AltitudeMeters>1445</AltitudeMeters>
            <DistanceMeters>NAN</DistanceMeters>
          </Trackpoint>
          <Trackpoint>
            <Time>2019-08-01T12:24:30.000Z</Time>
            <Position>
              <LatitudeDegrees>40.75436160899698734283447265625</LatitudeDegrees>
              <LongitudeDegrees>-4.01956438086926937103271484375</LongitudeDegrees>
            </Position>
            <AltitudeMeters>1444.800048828125</AltitudeMeters>
            <DistanceMeters>NAN</DistanceMeters>
          </Trackpoint>
          <Trackpoint>
            <Time>2019-08-01T12:24:31.000Z</Time>
            <Position>
              <LatitudeDegrees>40.75425851158797740936279296875</LatitudeDegrees>
              <LongitudeDegrees>-4.019445441663265228271484375</LongitudeDegrees>
            </Position>
            <AltitudeMeters>1444.199951171875</AltitudeMeters>
            <DistanceMeters>NAN</DistanceMeters>
          </Trackpoint>
          <Trackpoint>
            <Time>2019-08-01T12:24:32.000Z</Time>
            <Position>
              <LatitudeDegrees>40.75415491126477718353271484375</LatitudeDegrees>
              <LongitudeDegrees>-4.019331447780132293701171875</LongitudeDegrees>
            </Position>
            <AltitudeMeters>1443.800048828125</AltitudeMeters>
            <DistanceMeters>NAN</DistanceMeters>
          </Trackpoint>
          <Trackpoint>
            <Time>2019-08-01T12:24:33.000Z</Time>
            <Position>
              <LatitudeDegrees>40.7540475390851497650146484375</LatitudeDegrees>
              <LongitudeDegrees>-4.0192258358001708984375</LongitudeDegrees>
            </Position>
            <AltitudeMeters>1443</AltitudeMeters>
            <DistanceMeters>NAN</DistanceMeters>
          </Trackpoint>
          <Trackpoint>
            <Time>2019-08-01T12:24:34.000Z</Time>
            <Position>
              <LatitudeDegrees>40.75393597595393657684326171875</LatitudeDegrees>
              <LongitudeDegrees>-4.01913690380752086639404296875</LongitudeDegrees>
            </Position>
            <AltitudeMeters>1442</AltitudeMeters>
            <DistanceMeters>NAN</DistanceMeters>
          </Trackpoint>
          <Trackpoint>
            <Time>2019-08-01T12:24:35.000Z</Time>
            <Position>
              <LatitudeDegrees>40.753818713128566741943359375</LatitudeDegrees>
              <LongitudeDegrees>-4.01906616054475307464599609375</LongitudeDegrees>
            </Position>
            <AltitudeMeters>1441.4000244140625</AltitudeMeters>
            <DistanceMeters>NAN</DistanceMeters>
          </Trackpoint>
          <Trackpoint>
            <Time>2019-08-01T12:24:36.000Z</Time>
            <Position>
              <LatitudeDegrees>40.7536961697041988372802734375</LatitudeDegrees>
              <LongitudeDegrees>-4.01899860240519046783447265625</LongitudeDegrees>
            </Position>
            <AltitudeMeters>1440.800048828125</AltitudeMeters>
            <DistanceMeters>NAN</DistanceMeters>
          </Trackpoint>
          <Trackpoint>
            <Time>2019-08-01T12:24:37.000Z</Time>
            <Position>
              <LatitudeDegrees>40.75357287190854549407958984375</LatitudeDegrees>
              <LongitudeDegrees>-4.01892920024693012237548828125</LongitudeDegrees>
            </Position>
            <AltitudeMeters>1439.800048828125</AltitudeMeters>
            <DistanceMeters>NAN</DistanceMeters>
          </Trackpoint>
          <Trackpoint>
            <Time>2019-08-01T12:24:38.000Z</Time>
            <Position>
              <LatitudeDegrees>40.75345200486481189727783203125</LatitudeDegrees>
              <LongitudeDegrees>-4.018868766725063323974609375</LongitudeDegrees>
            </Position>
            <AltitudeMeters>1438.800048828125</AltitudeMeters>
            <DistanceMeters>NAN</DistanceMeters>
          </Trackpoint>
          <Trackpoint>
            <Time>2019-08-01T12:24:39.000Z</Time>
            <Position>
              <LatitudeDegrees>40.7533310540020465850830078125</LatitudeDegrees>
              <LongitudeDegrees>-4.01881084777414798736572265625</LongitudeDegrees>
            </Position>
            <AltitudeMeters>1437.4000244140625</AltitudeMeters>
            <DistanceMeters>NAN</DistanceMeters>
          </Trackpoint>
          <Trackpoint>
            <Time>2019-08-01T12:24:40.000Z</Time>
            <Position>
              <LatitudeDegrees>40.7532088458538055419921875</LatitudeDegrees>
              <LongitudeDegrees>-4.0187556110322475433349609375</LongitudeDegrees>
            </Position>
            <AltitudeMeters>1436.5999755859375</AltitudeMeters>
            <DistanceMeters>NAN</DistanceMeters>
          </Trackpoint>
          <Trackpoint>
            <Time>2019-08-01T12:24:41.000Z</Time>
            <Position>
              <LatitudeDegrees>40.75308118946850299835205078125</LatitudeDegrees>
              <LongitudeDegrees>-4.01870221830904483795166015625</LongitudeDegrees>
            </Position>
            <AltitudeMeters>1435.800048828125</AltitudeMeters>
            <DistanceMeters>NAN</DistanceMeters>
          </Trackpoint>
          <Trackpoint>
            <Time>2019-08-01T12:24:42.000Z</Time>
            <Position>
              <LatitudeDegrees>40.75295780785381793975830078125</LatitudeDegrees>
              <LongitudeDegrees>-4.0186503343284130096435546875</LongitudeDegrees>
            </Position>
            <AltitudeMeters>1435.199951171875</AltitudeMeters>
            <DistanceMeters>NAN</DistanceMeters>
          </Trackpoint>
          <Trackpoint>
            <Time>2019-08-01T12:24:43.000Z</Time>
            <Position>
              <LatitudeDegrees>40.7528348453342914581298828125</LatitudeDegrees>
              <LongitudeDegrees>-4.01859710924327373504638671875</LongitudeDegrees>
            </Position>
            <AltitudeMeters>1434.800048828125</AltitudeMeters>
            <DistanceMeters>NAN</DistanceMeters>
          </Trackpoint>
          <Trackpoint>
            <Time>2019-08-01T12:24:44.000Z</Time>
            <Position>
              <LatitudeDegrees>40.7527111284434795379638671875</LatitudeDegrees>
              <LongitudeDegrees>-4.0185443870723247528076171875</LongitudeDegrees>
            </Position>
            <AltitudeMeters>1434.199951171875</AltitudeMeters>
            <DistanceMeters>NAN</DistanceMeters>
          </Trackpoint>
          <Trackpoint>
            <Time>2019-08-01T12:24:45.000Z</Time>
            <Position>
              <LatitudeDegrees>40.75258749537169933319091796875</LatitudeDegrees>
              <LongitudeDegrees>-4.018490575253963470458984375</LongitudeDegrees>
            </Position>
            <AltitudeMeters>1433.800048828125</AltitudeMeters>
            <DistanceMeters>NAN</DistanceMeters>
          </Trackpoint>
          <Trackpoint>
            <Time>2019-08-01T12:24:46.000Z</Time>
            <Position>
              <LatitudeDegrees>40.7524657063186168670654296875</LatitudeDegrees>
              <LongitudeDegrees>-4.01843081228435039520263671875</LongitudeDegrees>
            </Position>
            <AltitudeMeters>1432.800048828125</AltitudeMeters>
            <DistanceMeters>NAN</DistanceMeters>
          </Trackpoint>
          <Trackpoint>
            <Time>2019-08-01T12:24:47.000Z</Time>
            <Position>
              <LatitudeDegrees>40.752348862588405609130859375</LatitudeDegrees>
              <LongitudeDegrees>-4.018361829221248626708984375</LongitudeDegrees>
            </Position>
            <AltitudeMeters>1432.4000244140625</AltitudeMeters>
            <DistanceMeters>NAN</DistanceMeters>
          </Trackpoint>
          <Trackpoint>
            <Time>2019-08-01T12:24:48.000Z</Time>
            <Position>
              <LatitudeDegrees>40.75224149040877819061279296875</LatitudeDegrees>
              <LongitudeDegrees>-4.01828077621757984161376953125</LongitudeDegrees>
            </Position>
            <AltitudeMeters>1431.4000244140625</AltitudeMeters>
            <DistanceMeters>NAN</DistanceMeters>
          </Trackpoint>
          <Trackpoint>
            <Time>2019-08-01T12:24:49.000Z</Time>
            <Position>
              <LatitudeDegrees>40.75213755480945110321044921875</LatitudeDegrees>
              <LongitudeDegrees>-4.01818312704563140869140625</LongitudeDegrees>
            </Position>
            <AltitudeMeters>1430.5999755859375</AltitudeMeters>
            <DistanceMeters>NAN</DistanceMeters>
          </Trackpoint>
          <Trackpoint>
            <Time>2019-08-01T12:24:50.000Z</Time>
            <Position>
              <LatitudeDegrees>40.7520425878465175628662109375</LatitudeDegrees>
              <LongitudeDegrees>-4.01807944290339946746826171875</LongitudeDegrees>
            </Position>
            <AltitudeMeters>1430.199951171875</AltitudeMeters>
            <DistanceMeters>NAN</DistanceMeters>
          </Trackpoint>
          <Trackpoint>
            <Time>2019-08-01T12:24:51.000Z</Time>
            <Position>
              <LatitudeDegrees>40.7519507221877574920654296875</LatitudeDegrees>
              <LongitudeDegrees>-4.01796360500156879425048828125</LongitudeDegrees>
            </Position>
            <AltitudeMeters>1429.5999755859375</AltitudeMeters>
            <DistanceMeters>NAN</DistanceMeters>
          </Trackpoint>
          <Trackpoint>
            <Time>2019-08-01T12:24:52.000Z</Time>
            <Position>
              <LatitudeDegrees>40.75186363421380519866943359375</LatitudeDegrees>
              <LongitudeDegrees>-4.01784005574882030487060546875</LongitudeDegrees>
            </Position>
            <AltitudeMeters>1429</AltitudeMeters>
            <DistanceMeters>NAN</DistanceMeters>
          </Trackpoint>
          <Trackpoint>
            <Time>2019-08-01T12:24:53.000Z</Time>
            <Position>
              <LatitudeDegrees>40.7517767138779163360595703125</LatitudeDegrees>
              <LongitudeDegrees>-4.01770594529807567596435546875</LongitudeDegrees>
            </Position>
            <AltitudeMeters>1428.5999755859375</AltitudeMeters>
            <DistanceMeters>NAN</DistanceMeters>
          </Trackpoint>
          <Trackpoint>
            <Time>2019-08-01T12:24:54.000Z</Time>
            <Position>
              <LatitudeDegrees>40.751683674752712249755859375</LatitudeDegrees>
              <LongitudeDegrees>-4.01758365333080291748046875</LongitudeDegrees>
            </Position>
            <AltitudeMeters>1428.199951171875</AltitudeMeters>
            <DistanceMeters>NAN</DistanceMeters>
          </Trackpoint>
          <Trackpoint>
            <Time>2019-08-01T12:24:55.000Z</Time>
            <Position>
              <LatitudeDegrees>40.75157395564019680023193359375</LatitudeDegrees>
              <LongitudeDegrees>-4.017490446567535400390625</LongitudeDegrees>
            </Position>
            <AltitudeMeters>1427.800048828125</AltitudeMeters>
            <DistanceMeters>NAN</DistanceMeters>
          </Trackpoint>
          <Trackpoint>
            <Time>2019-08-01T12:24:56.000Z</Time>
            <Position>
              <LatitudeDegrees>40.751450322568416595458984375</LatitudeDegrees>
              <LongitudeDegrees>-4.0174373053014278411865234375</LongitudeDegrees>
            </Position>
            <AltitudeMeters>1427.4000244140625</AltitudeMeters>
            <DistanceMeters>NAN</DistanceMeters>
          </Trackpoint>
          <Trackpoint>
            <Time>2019-08-01T12:24:57.000Z</Time>
            <Position>
              <LatitudeDegrees>40.751317553222179412841796875</LatitudeDegrees>
              <LongitudeDegrees>-4.01741274632513523101806640625</LongitudeDegrees>
            </Position>
            <AltitudeMeters>1426.5999755859375</AltitudeMeters>
            <DistanceMeters>NAN</DistanceMeters>
          </Trackpoint>
          <Trackpoint>
            <Time>2019-08-01T12:24:58.000Z</Time>
            <Position>
              <LatitudeDegrees>40.7511862926185131072998046875</LatitudeDegrees>
              <LongitudeDegrees>-4.01740905828773975372314453125</LongitudeDegrees>
            </Position>
            <AltitudeMeters>1425.5999755859375</AltitudeMeters>
            <DistanceMeters>NAN</DistanceMeters>
          </Trackpoint>
          <Trackpoint>
            <Time>2019-08-01T12:24:59.000Z</Time>
            <Position>
              <LatitudeDegrees>40.75105276890099048614501953125</LatitudeDegrees>
              <LongitudeDegrees>-4.0174141712486743927001953125</LongitudeDegrees>
            </Position>
            <AltitudeMeters>1424.5999755859375</AltitudeMeters>
            <DistanceMeters>NAN</DistanceMeters>
          </Trackpoint>
          <Trackpoint>
            <Time>2019-08-01T12:25:00.000Z</Time>
            <Position>
              <LatitudeDegrees>40.7509204186499118804931640625</LatitudeDegrees>
              <LongitudeDegrees>-4.01742498390376567840576171875</LongitudeDegrees>
            </Position>
            <AltitudeMeters>1424</AltitudeMeters>
            <DistanceMeters>NAN</DistanceMeters>
          </Trackpoint>
          <Trackpoint>
            <Time>2019-08-01T12:25:01.000Z</Time>
            <Position>
              <LatitudeDegrees>40.750786475837230682373046875</LatitudeDegrees>
              <LongitudeDegrees>-4.0174413286149501800537109375</LongitudeDegrees>
            </Position>
            <AltitudeMeters>1423.199951171875</AltitudeMeters>
            <DistanceMeters>NAN</DistanceMeters>
          </Trackpoint>
          <Trackpoint>
            <Time>2019-08-01T12:25:02.000Z</Time>
            <Position>
              <LatitudeDegrees>40.75065110810101032257080078125</LatitudeDegrees>
              <LongitudeDegrees>-4.01745482347905635833740234375</LongitudeDegrees>
            </Position>
            <AltitudeMeters>1422.199951171875</AltitudeMeters>
            <DistanceMeters>NAN</DistanceMeters>
          </Trackpoint>
          <Trackpoint>
            <Time>2019-08-01T12:25:03.000Z</Time>
            <Position>
              <LatitudeDegrees>40.75051532126963138580322265625</LatitudeDegrees>
              <LongitudeDegrees>-4.0174694918096065521240234375</LongitudeDegrees>
            </Position>
            <AltitudeMeters>1421.4000244140625</AltitudeMeters>
            <DistanceMeters>NAN</DistanceMeters>
          </Trackpoint>
          <Trackpoint>
            <Time>2019-08-01T12:25:04.000Z</Time>
            <Position>
              <LatitudeDegrees>40.7503796182572841644287109375</LatitudeDegrees>
              <LongitudeDegrees>-4.01748516596853733062744140625</LongitudeDegrees>
            </Position>
            <AltitudeMeters>1420.5999755859375</AltitudeMeters>
            <DistanceMeters>NAN</DistanceMeters>
          </Trackpoint>
          <Trackpoint>
            <Time>2019-08-01T12:25:05.000Z</Time>
            <Position>
              <LatitudeDegrees>40.7502421550452709197998046875</LatitudeDegrees>
              <LongitudeDegrees>-4.01750209741294384002685546875</LongitudeDegrees>
            </Position>
            <AltitudeMeters>1419.4000244140625</AltitudeMeters>
            <DistanceMeters>NAN</DistanceMeters>
          </Trackpoint>
          <Trackpoint>
            <Time>2019-08-01T12:25:06.000Z</Time>
            <Position>
              <LatitudeDegrees>40.75010460801422595977783203125</LatitudeDegrees>
              <LongitudeDegrees>-4.01753059588372707366943359375</LongitudeDegrees>
            </Position>
            <AltitudeMeters>1417</AltitudeMeters>
            <DistanceMeters>NAN</DistanceMeters>
          </Trackpoint>
          <Trackpoint>
            <Time>2019-08-01T12:25:07.000Z</Time>
            <Position>
              <LatitudeDegrees>40.74997032992541790008544921875</LatitudeDegrees>
              <LongitudeDegrees>-4.01759262196719646453857421875</LongitudeDegrees>
            </Position>
            <AltitudeMeters>1415.5999755859375</AltitudeMeters>
            <DistanceMeters>NAN</DistanceMeters>
          </Trackpoint>
          <Trackpoint>
            <Time>2019-08-01T12:25:08.000Z</Time>
            <Position>
              <LatitudeDegrees>40.74984460137784481048583984375</LatitudeDegrees>
              <LongitudeDegrees>-4.0176890976727008819580078125</LongitudeDegrees>
            </Position>
            <AltitudeMeters>1414.5999755859375</AltitudeMeters>
            <DistanceMeters>NAN</DistanceMeters>
          </Trackpoint>
          <Trackpoint>
            <Time>2019-08-01T12:25:09.000Z</Time>
            <Position>
              <LatitudeDegrees>40.749738402664661407470703125</LatitudeDegrees>
              <LongitudeDegrees>-4.0178121440112590789794921875</LongitudeDegrees>
            </Position>
            <AltitudeMeters>1413.800048828125</AltitudeMeters>
            <DistanceMeters>NAN</DistanceMeters>
          </Trackpoint>
          <Trackpoint>
            <Time>2019-08-01T12:25:10.000Z</Time>
            <Position>
              <LatitudeDegrees>40.74964209459722042083740234375</LatitudeDegrees>
              <LongitudeDegrees>-4.01795304380357265472412109375</LongitudeDegrees>
            </Position>
            <AltitudeMeters>1413</AltitudeMeters>
            <DistanceMeters>NAN</DistanceMeters>
          </Trackpoint>
          <Trackpoint>
            <Time>2019-08-01T12:25:11.000Z</Time>
            <Position>
              <LatitudeDegrees>40.74955207295715808868408203125</LatitudeDegrees>
              <LongitudeDegrees>-4.01810257695615291595458984375</LongitudeDegrees>
            </Position>
            <AltitudeMeters>1412.199951171875</AltitudeMeters>
            <DistanceMeters>NAN</DistanceMeters>
          </Trackpoint>
          <Trackpoint>
            <Time>2019-08-01T12:25:12.000Z</Time>
            <Position>
              <LatitudeDegrees>40.749464817345142364501953125</LatitudeDegrees>
              <LongitudeDegrees>-4.0182553790509700775146484375</LongitudeDegrees>
            </Position>
            <AltitudeMeters>1411.5999755859375</AltitudeMeters>
            <DistanceMeters>NAN</DistanceMeters>
          </Trackpoint>
          <Trackpoint>
            <Time>2019-08-01T12:25:13.000Z</Time>
            <Position>
              <LatitudeDegrees>40.74937806464731693267822265625</LatitudeDegrees>
              <LongitudeDegrees>-4.01840901933610439300537109375</LongitudeDegrees>
            </Position>
            <AltitudeMeters>1410.800048828125</AltitudeMeters>
            <DistanceMeters>NAN</DistanceMeters>
          </Trackpoint>
          <Trackpoint>
            <Time>2019-08-01T12:25:14.000Z</Time>
            <Position>
              <LatitudeDegrees>40.749291479587554931640625</LatitudeDegrees>
              <LongitudeDegrees>-4.018562994897365570068359375</LongitudeDegrees>
            </Position>
            <AltitudeMeters>1410</AltitudeMeters>
            <DistanceMeters>NAN</DistanceMeters>
          </Trackpoint>
          <Trackpoint>
            <Time>2019-08-01T12:25:15.000Z</Time>
            <Position>
              <LatitudeDegrees>40.749203972518444061279296875</LatitudeDegrees>
              <LongitudeDegrees>-4.01871831156313419342041015625</LongitudeDegrees>
            </Position>
            <AltitudeMeters>1408.800048828125</AltitudeMeters>
            <DistanceMeters>NAN</DistanceMeters>
          </Trackpoint>
          <Trackpoint>
            <Time>2019-08-01T12:25:16.000Z</Time>
            <Position>
              <LatitudeDegrees>40.7491146214306354522705078125</LatitudeDegrees>
              <LongitudeDegrees>-4.0188702754676342010498046875</LongitudeDegrees>
            </Position>
            <AltitudeMeters>1408</AltitudeMeters>
            <DistanceMeters>NAN</DistanceMeters>
          </Trackpoint>
          <Trackpoint>
            <Time>2019-08-01T12:25:17.000Z</Time>
            <Position>
              <LatitudeDegrees>40.74902250431478023529052734375</LatitudeDegrees>
              <LongitudeDegrees>-4.0190167911350727081298828125</LongitudeDegrees>
            </Position>
            <AltitudeMeters>1406.800048828125</AltitudeMeters>
            <DistanceMeters>NAN</DistanceMeters>
          </Trackpoint>
          <Trackpoint>
            <Time>2019-08-01T12:25:18.000Z</Time>
            <Position>
              <LatitudeDegrees>40.748926363885402679443359375</LatitudeDegrees>
              <LongitudeDegrees>-4.019158445298671722412109375</LongitudeDegrees>
            </Position>
            <AltitudeMeters>1405.5999755859375</AltitudeMeters>
            <DistanceMeters>NAN</DistanceMeters>
          </Trackpoint>
          <Trackpoint>
            <Time>2019-08-01T12:25:19.000Z</Time>
            <Position>
              <LatitudeDegrees>40.7488261163234710693359375</LatitudeDegrees>
              <LongitudeDegrees>-4.01929632760584354400634765625</LongitudeDegrees>
            </Position>
            <AltitudeMeters>1404</AltitudeMeters>
            <DistanceMeters>NAN</DistanceMeters>
          </Trackpoint>
          <Trackpoint>
            <Time>2019-08-01T12:25:20.000Z</Time>
            <Position>
              <LatitudeDegrees>40.74872176162898540496826171875</LatitudeDegrees>
              <LongitudeDegrees>-4.01943035423755645751953125</LongitudeDegrees>
            </Position>
            <AltitudeMeters>1403.199951171875</AltitudeMeters>
            <DistanceMeters>NAN</DistanceMeters>
          </Trackpoint>
          <Trackpoint>
            <Time>2019-08-01T12:25:21.000Z</Time>
            <Position>
              <LatitudeDegrees>40.7486127130687236785888671875</LatitudeDegrees>
              <LongitudeDegrees>-4.0195629559457302093505859375</LongitudeDegrees>
            </Position>
            <AltitudeMeters>1402.4000244140625</AltitudeMeters>
            <DistanceMeters>NAN</DistanceMeters>
          </Trackpoint>
          <Trackpoint>
            <Time>2019-08-01T12:25:22.000Z</Time>
            <Position>
              <LatitudeDegrees>40.74849897064268589019775390625</LatitudeDegrees>
              <LongitudeDegrees>-4.01969329454004764556884765625</LongitudeDegrees>
            </Position>
            <AltitudeMeters>1401.5999755859375</AltitudeMeters>
            <DistanceMeters>NAN</DistanceMeters>
          </Trackpoint>
          <Trackpoint>
            <Time>2019-08-01T12:25:23.000Z</Time>
            <Position>
              <LatitudeDegrees>40.74838212691247463226318359375</LatitudeDegrees>
              <LongitudeDegrees>-4.01982489041984081268310546875</LongitudeDegrees>
            </Position>
            <AltitudeMeters>1400.4000244140625</AltitudeMeters>
            <DistanceMeters>NAN</DistanceMeters>
          </Trackpoint>
          <Trackpoint>
            <Time>2019-08-01T12:25:24.000Z</Time>
            <Position>
              <LatitudeDegrees>40.74826461263000965118408203125</LatitudeDegrees>
              <LongitudeDegrees>-4.01996218599379062652587890625</LongitudeDegrees>
            </Position>
            <AltitudeMeters>1399</AltitudeMeters>
            <DistanceMeters>NAN</DistanceMeters>
          </Trackpoint>
          <Trackpoint>
            <Time>2019-08-01T12:25:25.000Z</Time>
            <Position>
              <LatitudeDegrees>40.74814994819462299346923828125</LatitudeDegrees>
              <LongitudeDegrees>-4.02010719291865825653076171875</LongitudeDegrees>
            </Position>
            <AltitudeMeters>1397.800048828125</AltitudeMeters>
            <DistanceMeters>NAN</DistanceMeters>
          </Trackpoint>
          <Trackpoint>
            <Time>2019-08-01T12:25:26.000Z</Time>
            <Position>
              <LatitudeDegrees>40.7480393908917903900146484375</LatitudeDegrees>
              <LongitudeDegrees>-4.02026108466088771820068359375</LongitudeDegrees>
            </Position>
            <AltitudeMeters>1396.800048828125</AltitudeMeters>
            <DistanceMeters>NAN</DistanceMeters>
          </Trackpoint>
          <Trackpoint>
            <Time>2019-08-01T12:25:27.000Z</Time>
            <Position>
              <LatitudeDegrees>40.7479327730834484100341796875</LatitudeDegrees>
              <LongitudeDegrees>-4.020423106849193572998046875</LongitudeDegrees>
            </Position>
            <AltitudeMeters>1395.5999755859375</AltitudeMeters>
            <DistanceMeters>NAN</DistanceMeters>
          </Trackpoint>
          <Trackpoint>
            <Time>2019-08-01T12:25:28.000Z</Time>
            <Position>
              <LatitudeDegrees>40.7479327730834484100341796875</LatitudeDegrees>
              <LongitudeDegrees>-4.020423106849193572998046875</LongitudeDegrees>
            </Position>
            <AltitudeMeters>1394.5999755859375</AltitudeMeters>
            <DistanceMeters>NAN</DistanceMeters>
          </Trackpoint>
          <Trackpoint>
            <Time>2019-08-01T12:25:29.000Z</Time>
            <Position>
              <LatitudeDegrees>40.7477192021906375885009765625</LatitudeDegrees>
              <LongitudeDegrees>-4.02075327001512050628662109375</LongitudeDegrees>
            </Position>
            <AltitudeMeters>1393.5999755859375</AltitudeMeters>
            <DistanceMeters>NAN</DistanceMeters>
          </Trackpoint>
          <Trackpoint>
            <Time>2019-08-01T12:25:30.000Z</Time>
            <Position>
              <LatitudeDegrees>40.747601352632045745849609375</LatitudeDegrees>
              <LongitudeDegrees>-4.02090447954833507537841796875</LongitudeDegrees>
            </Position>
            <AltitudeMeters>1392.4000244140625</AltitudeMeters>
            <DistanceMeters>NAN</DistanceMeters>
          </Trackpoint>
          <Trackpoint>
            <Time>2019-08-01T12:25:31.000Z</Time>
            <Position>
              <LatitudeDegrees>40.747601352632045745849609375</LatitudeDegrees>
              <LongitudeDegrees>-4.02090447954833507537841796875</LongitudeDegrees>
            </Position>
            <AltitudeMeters>1391</AltitudeMeters>
            <DistanceMeters>NAN</DistanceMeters>
          </Trackpoint>
          <Trackpoint>
            <Time>2019-08-01T12:25:32.000Z</Time>
            <Position>
              <LatitudeDegrees>40.7473430223762989044189453125</LatitudeDegrees>
              <LongitudeDegrees>-4.02115794830024242401123046875</LongitudeDegrees>
            </Position>
            <AltitudeMeters>1389.800048828125</AltitudeMeters>
            <DistanceMeters>NAN</DistanceMeters>
          </Trackpoint>
          <Trackpoint>
            <Time>2019-08-01T12:25:33.000Z</Time>
            <Position>
              <LatitudeDegrees>40.74721553362905979156494140625</LatitudeDegrees>
              <LongitudeDegrees>-4.0212882868945598602294921875</LongitudeDegrees>
            </Position>
            <AltitudeMeters>1388.4000244140625</AltitudeMeters>
            <DistanceMeters>NAN</DistanceMeters>
          </Trackpoint>
          <Trackpoint>
            <Time>2019-08-01T12:25:34.000Z</Time>
            <Position>
              <LatitudeDegrees>40.7470934092998504638671875</LatitudeDegrees>
              <LongitudeDegrees>-4.0214297734200954437255859375</LongitudeDegrees>
            </Position>
            <AltitudeMeters>1385.5999755859375</AltitudeMeters>
            <DistanceMeters>NAN</DistanceMeters>
          </Trackpoint>
          <Trackpoint>
            <Time>2019-08-01T12:25:35.000Z</Time>
            <Position>
              <LatitudeDegrees>40.7469727098941802978515625</LatitudeDegrees>
              <LongitudeDegrees>-4.0215783007442951202392578125</LongitudeDegrees>
            </Position>
            <AltitudeMeters>1383.5999755859375</AltitudeMeters>
            <DistanceMeters>NAN</DistanceMeters>
          </Trackpoint>
          <Trackpoint>
            <Time>2019-08-01T12:25:36.000Z</Time>
            <Position>
              <LatitudeDegrees>40.74685159139335155487060546875</LatitudeDegrees>
              <LongitudeDegrees>-4.0217298455536365509033203125</LongitudeDegrees>
            </Position>
            <AltitudeMeters>1381.199951171875</AltitudeMeters>
            <DistanceMeters>NAN</DistanceMeters>
          </Trackpoint>
          <Trackpoint>
            <Time>2019-08-01T12:25:37.000Z</Time>
            <Position>
              <LatitudeDegrees>40.74672837741672992706298828125</LatitudeDegrees>
              <LongitudeDegrees>-4.02188323438167572021484375</LongitudeDegrees>
            </Position>
            <AltitudeMeters>1378.5999755859375</AltitudeMeters>
            <DistanceMeters>NAN</DistanceMeters>
          </Trackpoint>
          <Trackpoint>
            <Time>2019-08-01T12:25:38.000Z</Time>
            <Position>
              <LatitudeDegrees>40.74660449288785457611083984375</LatitudeDegrees>
              <LongitudeDegrees>-4.0220369584858417510986328125</LongitudeDegrees>
            </Position>
            <AltitudeMeters>1376.199951171875</AltitudeMeters>
            <DistanceMeters>NAN</DistanceMeters>
          </Trackpoint>
          <Trackpoint>
            <Time>2019-08-01T12:25:39.000Z</Time>
            <Position>
              <LatitudeDegrees>40.746479518711566925048828125</LatitudeDegrees>
              <LongitudeDegrees>-4.022194035351276397705078125</LongitudeDegrees>
            </Position>
            <AltitudeMeters>1374.800048828125</AltitudeMeters>
            <DistanceMeters>NAN</DistanceMeters>
          </Trackpoint>
          <Trackpoint>
            <Time>2019-08-01T12:25:40.000Z</Time>
            <Position>
              <LatitudeDegrees>40.746357478201389312744140625</LatitudeDegrees>
              <LongitudeDegrees>-4.02235019020736217498779296875</LongitudeDegrees>
            </Position>
            <AltitudeMeters>1373.800048828125</AltitudeMeters>
            <DistanceMeters>NAN</DistanceMeters>
          </Trackpoint>
          <Trackpoint>
            <Time>2019-08-01T12:25:41.000Z</Time>
            <Position>
              <LatitudeDegrees>40.74623350985348224639892578125</LatitudeDegrees>
              <LongitudeDegrees>-4.02250860817730426788330078125</LongitudeDegrees>
            </Position>
            <AltitudeMeters>1372.4000244140625</AltitudeMeters>
            <DistanceMeters>NAN</DistanceMeters>
          </Trackpoint>
          <Trackpoint>
            <Time>2019-08-01T12:25:42.000Z</Time>
            <Position>
              <LatitudeDegrees>40.746107362210750579833984375</LatitudeDegrees>
              <LongitudeDegrees>-4.02266736142337322235107421875</LongitudeDegrees>
            </Position>
            <AltitudeMeters>1371.4000244140625</AltitudeMeters>
            <DistanceMeters>NAN</DistanceMeters>
          </Trackpoint>
          <Trackpoint>
            <Time>2019-08-01T12:25:43.000Z</Time>
            <Position>
              <LatitudeDegrees>40.74598037637770175933837890625</LatitudeDegrees>
              <LongitudeDegrees>-4.0228208340704441070556640625</LongitudeDegrees>
            </Position>
            <AltitudeMeters>1370.5999755859375</AltitudeMeters>
            <DistanceMeters>NAN</DistanceMeters>
          </Trackpoint>
          <Trackpoint>
            <Time>2019-08-01T12:25:44.000Z</Time>
            <Position>
              <LatitudeDegrees>40.74584961868822574615478515625</LatitudeDegrees>
              <LongitudeDegrees>-4.022966511547565460205078125</LongitudeDegrees>
            </Position>
            <AltitudeMeters>1369.800048828125</AltitudeMeters>
            <DistanceMeters>NAN</DistanceMeters>
          </Trackpoint>
          <Trackpoint>
            <Time>2019-08-01T12:25:45.000Z</Time>
            <Position>
              <LatitudeDegrees>40.74571131728589534759521484375</LatitudeDegrees>
              <LongitudeDegrees>-4.023105315864086151123046875</LongitudeDegrees>
            </Position>
            <AltitudeMeters>1368.800048828125</AltitudeMeters>
            <DistanceMeters>NAN</DistanceMeters>
          </Trackpoint>
          <Trackpoint>
            <Time>2019-08-01T12:25:46.000Z</Time>
            <Position>
              <LatitudeDegrees>40.74556949548423290252685546875</LatitudeDegrees>
              <LongitudeDegrees>-4.02323816902935504913330078125</LongitudeDegrees>
            </Position>
            <AltitudeMeters>1367.5999755859375</AltitudeMeters>
            <DistanceMeters>NAN</DistanceMeters>
          </Trackpoint>
          <Trackpoint>
            <Time>2019-08-01T12:25:47.000Z</Time>
            <Position>
              <LatitudeDegrees>40.74541711248457431793212890625</LatitudeDegrees>
              <LongitudeDegrees>-4.0233711898326873779296875</LongitudeDegrees>
            </Position>
            <AltitudeMeters>1366.199951171875</AltitudeMeters>
            <DistanceMeters>NAN</DistanceMeters>
          </Trackpoint>
          <Trackpoint>
            <Time>2019-08-01T12:25:48.000Z</Time>
            <Position>
              <LatitudeDegrees>40.74526422657072544097900390625</LatitudeDegrees>
              <LongitudeDegrees>-4.02349029667675495147705078125</LongitudeDegrees>
            </Position>
            <AltitudeMeters>1364.4000244140625</AltitudeMeters>
            <DistanceMeters>NAN</DistanceMeters>
          </Trackpoint>
          <Trackpoint>
            <Time>2019-08-01T12:25:49.000Z</Time>
            <Position>
              <LatitudeDegrees>40.74510647915303707122802734375</LatitudeDegrees>
              <LongitudeDegrees>-4.02359507046639919281005859375</LongitudeDegrees>
            </Position>
            <AltitudeMeters>1362.800048828125</AltitudeMeters>
            <DistanceMeters>NAN</DistanceMeters>
          </Trackpoint>
          <Trackpoint>
            <Time>2019-08-01T12:25:50.000Z</Time>
            <Position>
              <LatitudeDegrees>40.744942612946033477783203125</LatitudeDegrees>
              <LongitudeDegrees>-4.02368593029677867889404296875</LongitudeDegrees>
            </Position>
            <AltitudeMeters>1361.5999755859375</AltitudeMeters>
            <DistanceMeters>NAN</DistanceMeters>
          </Trackpoint>
          <Trackpoint>
            <Time>2019-08-01T12:25:51.000Z</Time>
            <Position>
              <LatitudeDegrees>40.74477254413068294525146484375</LatitudeDegrees>
              <LongitudeDegrees>-4.02376824058592319488525390625</LongitudeDegrees>
            </Position>
            <AltitudeMeters>1360.4000244140625</AltitudeMeters>
            <DistanceMeters>NAN</DistanceMeters>
          </Trackpoint>
          <Trackpoint>
            <Time>2019-08-01T12:25:52.000Z</Time>
            <Position>
              <LatitudeDegrees>40.74459870345890522003173828125</LatitudeDegrees>
              <LongitudeDegrees>-4.0238457731902599334716796875</LongitudeDegrees>
            </Position>
            <AltitudeMeters>1359.199951171875</AltitudeMeters>
            <DistanceMeters>NAN</DistanceMeters>
          </Trackpoint>
          <Trackpoint>
            <Time>2019-08-01T12:25:53.000Z</Time>
            <Position>
              <LatitudeDegrees>40.7444257847964763641357421875</LatitudeDegrees>
              <LongitudeDegrees>-4.023928083479404449462890625</LongitudeDegrees>
            </Position>
            <AltitudeMeters>1358</AltitudeMeters>
            <DistanceMeters>NAN</DistanceMeters>
          </Trackpoint>
          <Trackpoint>
            <Time>2019-08-01T12:25:54.000Z</Time>
            <Position>
              <LatitudeDegrees>40.7442547939717769622802734375</LatitudeDegrees>
              <LongitudeDegrees>-4.0240201167762279510498046875</LongitudeDegrees>
            </Position>
            <AltitudeMeters>1356.800048828125</AltitudeMeters>
            <DistanceMeters>NAN</DistanceMeters>
          </Trackpoint>
          <Trackpoint>
            <Time>2019-08-01T12:25:55.000Z</Time>
            <Position>
              <LatitudeDegrees>40.74408673681318759918212890625</LatitudeDegrees>
              <LongitudeDegrees>-4.02412095107138156890869140625</LongitudeDegrees>
            </Position>
            <AltitudeMeters>1356</AltitudeMeters>
            <DistanceMeters>NAN</DistanceMeters>
          </Trackpoint>
          <Trackpoint>
            <Time>2019-08-01T12:25:56.000Z</Time>
            <Position>
              <LatitudeDegrees>40.7439218647778034210205078125</LatitudeDegrees>
              <LongitudeDegrees>-4.02422555722296237945556640625</LongitudeDegrees>
            </Position>
            <AltitudeMeters>1355</AltitudeMeters>
            <DistanceMeters>NAN</DistanceMeters>
          </Trackpoint>
          <Trackpoint>
            <Time>2019-08-01T12:25:57.000Z</Time>
            <Position>
              <LatitudeDegrees>40.7437552325427532196044921875</LatitudeDegrees>
              <LongitudeDegrees>-4.024321697652339935302734375</LongitudeDegrees>
            </Position>
            <AltitudeMeters>1353.5999755859375</AltitudeMeters>
            <DistanceMeters>NAN</DistanceMeters>
          </Trackpoint>
          <Trackpoint>
            <Time>2019-08-01T12:25:58.000Z</Time>
            <Position>
              <LatitudeDegrees>40.743585415184497833251953125</LatitudeDegrees>
              <LongitudeDegrees>-4.02440157718956470489501953125</LongitudeDegrees>
            </Position>
            <AltitudeMeters>1352.4000244140625</AltitudeMeters>
            <DistanceMeters>NAN</DistanceMeters>
          </Trackpoint>
          <Trackpoint>
            <Time>2019-08-01T12:25:59.000Z</Time>
            <Position>
              <LatitudeDegrees>40.74341149069368839263916015625</LatitudeDegrees>
              <LongitudeDegrees>-4.02447282336652278900146484375</LongitudeDegrees>
            </Position>
            <AltitudeMeters>1350.5999755859375</AltitudeMeters>
            <DistanceMeters>NAN</DistanceMeters>
          </Trackpoint>
          <Trackpoint>
            <Time>2019-08-01T12:26:00.000Z</Time>
            <Position>
              <LatitudeDegrees>40.74323412962257862091064453125</LatitudeDegrees>
              <LongitudeDegrees>-4.02454507537186145782470703125</LongitudeDegrees>
            </Position>
            <AltitudeMeters>1349</AltitudeMeters>
            <DistanceMeters>NAN</DistanceMeters>
          </Trackpoint>
          <Trackpoint>
            <Time>2019-08-01T12:26:01.000Z</Time>
            <Position>
              <LatitudeDegrees>40.74305810965597629547119140625</LatitudeDegrees>
              <LongitudeDegrees>-4.0246172435581684112548828125</LongitudeDegrees>
            </Position>
            <AltitudeMeters>1347.5999755859375</AltitudeMeters>
            <DistanceMeters>NAN</DistanceMeters>
          </Trackpoint>
          <Trackpoint>
            <Time>2019-08-01T12:26:02.000Z</Time>
            <Position>
              <LatitudeDegrees>40.74288443662226200103759765625</LatitudeDegrees>
              <LongitudeDegrees>-4.02470089495182037353515625</LongitudeDegrees>
            </Position>
            <AltitudeMeters>1346.800048828125</AltitudeMeters>
            <DistanceMeters>NAN</DistanceMeters>
          </Trackpoint>
          <Trackpoint>
            <Time>2019-08-01T12:26:03.000Z</Time>
            <Position>
              <LatitudeDegrees>40.74271780438721179962158203125</LatitudeDegrees>
              <LongitudeDegrees>-4.02480474673211574554443359375</LongitudeDegrees>
            </Position>
            <AltitudeMeters>1343.199951171875</AltitudeMeters>
            <DistanceMeters>NAN</DistanceMeters>
          </Trackpoint>
          <Trackpoint>
            <Time>2019-08-01T12:26:04.000Z</Time>
            <Position>
              <LatitudeDegrees>40.7425599731504917144775390625</LatitudeDegrees>
              <LongitudeDegrees>-4.0249287150800228118896484375</LongitudeDegrees>
            </Position>
            <AltitudeMeters>1341.199951171875</AltitudeMeters>
            <DistanceMeters>NAN</DistanceMeters>
          </Trackpoint>
          <Trackpoint>
            <Time>2019-08-01T12:26:05.000Z</Time>
            <Position>
              <LatitudeDegrees>40.74240960180759429931640625</LatitudeDegrees>
              <LongitudeDegrees>-4.0250675193965435028076171875</LongitudeDegrees>
            </Position>
            <AltitudeMeters>1339.800048828125</AltitudeMeters>
            <DistanceMeters>NAN</DistanceMeters>
          </Trackpoint>
          <Trackpoint>
            <Time>2019-08-01T12:26:06.000Z</Time>
            <Position>
              <LatitudeDegrees>40.742264427244663238525390625</LatitudeDegrees>
              <LongitudeDegrees>-4.02521587908267974853515625</LongitudeDegrees>
            </Position>
            <AltitudeMeters>1338.800048828125</AltitudeMeters>
            <DistanceMeters>NAN</DistanceMeters>
          </Trackpoint>
          <Trackpoint>
            <Time>2019-08-01T12:26:07.000Z</Time>
            <Position>
              <LatitudeDegrees>40.7421237789094448089599609375</LatitudeDegrees>
              <LongitudeDegrees>-4.0253689326345920562744140625</LongitudeDegrees>
            </Position>
            <AltitudeMeters>1338</AltitudeMeters>
            <DistanceMeters>NAN</DistanceMeters>
          </Trackpoint>
          <Trackpoint>
            <Time>2019-08-01T12:26:08.000Z</Time>
            <Position>
              <LatitudeDegrees>40.74198639951646327972412109375</LatitudeDegrees>
              <LongitudeDegrees>-4.025526680052280426025390625</LongitudeDegrees>
            </Position>
            <AltitudeMeters>1337</AltitudeMeters>
            <DistanceMeters>NAN</DistanceMeters>
          </Trackpoint>
          <Trackpoint>
            <Time>2019-08-01T12:26:09.000Z</Time>
            <Position>
              <LatitudeDegrees>40.7418488524854183197021484375</LatitudeDegrees>
              <LongitudeDegrees>-4.02568602003157138824462890625</LongitudeDegrees>
            </Position>
            <AltitudeMeters>1335.4000244140625</AltitudeMeters>
            <DistanceMeters>NAN</DistanceMeters>
          </Trackpoint>
          <Trackpoint>
            <Time>2019-08-01T12:26:10.000Z</Time>
            <Position>
              <LatitudeDegrees>40.74171130545437335968017578125</LatitudeDegrees>
              <LongitudeDegrees>-4.02584552764892578125</LongitudeDegrees>
            </Position>
            <AltitudeMeters>1333.5999755859375</AltitudeMeters>
            <DistanceMeters>NAN</DistanceMeters>
          </Trackpoint>
          <Trackpoint>
            <Time>2019-08-01T12:26:11.000Z</Time>
            <Position>
              <LatitudeDegrees>40.74157400988042354583740234375</LatitudeDegrees>
              <LongitudeDegrees>-4.02600268833339214324951171875</LongitudeDegrees>
            </Position>
            <AltitudeMeters>1332.199951171875</AltitudeMeters>
            <DistanceMeters>NAN</DistanceMeters>
          </Trackpoint>
          <Trackpoint>
            <Time>2019-08-01T12:26:12.000Z</Time>
            <Position>
              <LatitudeDegrees>40.74143721722066402435302734375</LatitudeDegrees>
              <LongitudeDegrees>-4.0261588431894779205322265625</LongitudeDegrees>
            </Position>
            <AltitudeMeters>1331.199951171875</AltitudeMeters>
            <DistanceMeters>NAN</DistanceMeters>
          </Trackpoint>
          <Trackpoint>
            <Time>2019-08-01T12:26:13.000Z</Time>
            <Position>
              <LatitudeDegrees>40.74130143038928508758544921875</LatitudeDegrees>
              <LongitudeDegrees>-4.0263097174465656280517578125</LongitudeDegrees>
            </Position>
            <AltitudeMeters>1330.5999755859375</AltitudeMeters>
            <DistanceMeters>NAN</DistanceMeters>
          </Trackpoint>
          <Trackpoint>
            <Time>2019-08-01T12:26:14.000Z</Time>
            <Position>
              <LatitudeDegrees>40.741164050996303558349609375</LatitudeDegrees>
              <LongitudeDegrees>-4.02645044960081577301025390625</LongitudeDegrees>
            </Position>
            <AltitudeMeters>1329.800048828125</AltitudeMeters>
            <DistanceMeters>NAN</DistanceMeters>
          </Trackpoint>
          <Trackpoint>
            <Time>2019-08-01T12:26:15.000Z</Time>
            <Position>
              <LatitudeDegrees>40.74101996608078479766845703125</LatitudeDegrees>
              <LongitudeDegrees>-4.02658171020448207855224609375</LongitudeDegrees>
            </Position>
            <AltitudeMeters>1328.199951171875</AltitudeMeters>
            <DistanceMeters>NAN</DistanceMeters>
          </Trackpoint>
          <Trackpoint>
            <Time>2019-08-01T12:26:16.000Z</Time>
            <Position>
              <LatitudeDegrees>40.74087210930883884429931640625</LatitudeDegrees>
              <LongitudeDegrees>-4.02670760639011859893798828125</LongitudeDegrees>
            </Position>
            <AltitudeMeters>1326.5999755859375</AltitudeMeters>
            <DistanceMeters>NAN</DistanceMeters>
          </Trackpoint>
          <Trackpoint>
            <Time>2019-08-01T12:26:17.000Z</Time>
            <Position>
              <LatitudeDegrees>40.740724168717861175537109375</LatitudeDegrees>
              <LongitudeDegrees>-4.02683048509061336517333984375</LongitudeDegrees>
            </Position>
            <AltitudeMeters>1325.5999755859375</AltitudeMeters>
            <DistanceMeters>NAN</DistanceMeters>
          </Trackpoint>
          <Trackpoint>
            <Time>2019-08-01T12:26:18.000Z</Time>
            <Position>
              <LatitudeDegrees>40.74057773686945438385009765625</LatitudeDegrees>
              <LongitudeDegrees>-4.0269465744495391845703125</LongitudeDegrees>
            </Position>
            <AltitudeMeters>1324</AltitudeMeters>
            <DistanceMeters>NAN</DistanceMeters>
          </Trackpoint>
          <Trackpoint>
            <Time>2019-08-01T12:26:19.000Z</Time>
            <Position>
              <LatitudeDegrees>40.7404256053268909454345703125</LatitudeDegrees>
              <LongitudeDegrees>-4.02705344371497631072998046875</LongitudeDegrees>
            </Position>
            <AltitudeMeters>1321.4000244140625</AltitudeMeters>
            <DistanceMeters>NAN</DistanceMeters>
          </Trackpoint>
          <Trackpoint>
            <Time>2019-08-01T12:26:20.000Z</Time>
            <Position>
              <LatitudeDegrees>40.74027062393724918365478515625</LatitudeDegrees>
              <LongitudeDegrees>-4.02713709510862827301025390625</LongitudeDegrees>
            </Position>
            <AltitudeMeters>1319.199951171875</AltitudeMeters>
            <DistanceMeters>NAN</DistanceMeters>
          </Trackpoint>
          <Trackpoint>
            <Time>2019-08-01T12:26:21.000Z</Time>
            <Position>
              <LatitudeDegrees>40.74011086486279964447021484375</LatitudeDegrees>
              <LongitudeDegrees>-4.02719258330762386322021484375</LongitudeDegrees>
            </Position>
            <AltitudeMeters>1317.5999755859375</AltitudeMeters>
            <DistanceMeters>NAN</DistanceMeters>
          </Trackpoint>
          <Trackpoint>
            <Time>2019-08-01T12:26:22.000Z</Time>
            <Position>
              <LatitudeDegrees>40.73994942940771579742431640625</LatitudeDegrees>
              <LongitudeDegrees>-4.0272243507206439971923828125</LongitudeDegrees>
            </Position>
            <AltitudeMeters>1316.800048828125</AltitudeMeters>
            <DistanceMeters>NAN</DistanceMeters>
          </Trackpoint>
          <Trackpoint>
            <Time>2019-08-01T12:26:23.000Z</Time>
            <Position>
              <LatitudeDegrees>40.73978732340037822723388671875</LatitudeDegrees>
              <LongitudeDegrees>-4.02724362909793853759765625</LongitudeDegrees>
            </Position>
            <AltitudeMeters>1316.4000244140625</AltitudeMeters>
            <DistanceMeters>NAN</DistanceMeters>
          </Trackpoint>
          <Trackpoint>
            <Time>2019-08-01T12:26:24.000Z</Time>
            <Position>
              <LatitudeDegrees>40.73962471447885036468505859375</LatitudeDegrees>
              <LongitudeDegrees>-4.02725636959075927734375</LongitudeDegrees>
            </Position>
            <AltitudeMeters>1316</AltitudeMeters>
            <DistanceMeters>NAN</DistanceMeters>
          </Trackpoint>
          <Trackpoint>
            <Time>2019-08-01T12:26:25.000Z</Time>
            <Position>
              <LatitudeDegrees>40.739464871585369110107421875</LatitudeDegrees>
              <LongitudeDegrees>-4.02724890969693660736083984375</LongitudeDegrees>
            </Position>
            <AltitudeMeters>1315.5999755859375</AltitudeMeters>
            <DistanceMeters>NAN</DistanceMeters>
          </Trackpoint>
          <Trackpoint>
            <Time>2019-08-01T12:26:26.000Z</Time>
            <Position>
              <LatitudeDegrees>40.73930720798671245574951171875</LatitudeDegrees>
              <LongitudeDegrees>-4.0272082574665546417236328125</LongitudeDegrees>
            </Position>
            <AltitudeMeters>1315</AltitudeMeters>
            <DistanceMeters>NAN</DistanceMeters>
          </Trackpoint>
          <Trackpoint>
            <Time>2019-08-01T12:26:27.000Z</Time>
            <Position>
              <LatitudeDegrees>40.739155076444149017333984375</LatitudeDegrees>
              <LongitudeDegrees>-4.0271423757076263427734375</LongitudeDegrees>
            </Position>
            <AltitudeMeters>1314.199951171875</AltitudeMeters>
            <DistanceMeters>NAN</DistanceMeters>
          </Trackpoint>
          <Trackpoint>
            <Time>2019-08-01T12:26:28.000Z</Time>
            <Position>
              <LatitudeDegrees>40.7390083931386470794677734375</LatitudeDegrees>
              <LongitudeDegrees>-4.02706434018909931182861328125</LongitudeDegrees>
            </Position>
            <AltitudeMeters>1313.4000244140625</AltitudeMeters>
            <DistanceMeters>NAN</DistanceMeters>
          </Trackpoint>
          <Trackpoint>
            <Time>2019-08-01T12:26:29.000Z</Time>
            <Position>
              <LatitudeDegrees>40.7388665713369846343994140625</LatitudeDegrees>
              <LongitudeDegrees>-4.02697683311998844146728515625</LongitudeDegrees>
            </Position>
            <AltitudeMeters>1311.800048828125</AltitudeMeters>
            <DistanceMeters>NAN</DistanceMeters>
          </Trackpoint>
          <Trackpoint>
            <Time>2019-08-01T12:26:30.000Z</Time>
            <Position>
              <LatitudeDegrees>40.7387267611920833587646484375</LatitudeDegrees>
              <LongitudeDegrees>-4.02688530273735523223876953125</LongitudeDegrees>
            </Position>
            <AltitudeMeters>1309.800048828125</AltitudeMeters>
            <DistanceMeters>NAN</DistanceMeters>
          </Trackpoint>
          <Trackpoint>
            <Time>2019-08-01T12:26:31.000Z</Time>
            <Position>
              <LatitudeDegrees>40.73858678340911865234375</LatitudeDegrees>
              <LongitudeDegrees>-4.02679167687892913818359375</LongitudeDegrees>
            </Position>
            <AltitudeMeters>1309.199951171875</AltitudeMeters>
            <DistanceMeters>NAN</DistanceMeters>
          </Trackpoint>
          <Trackpoint>
            <Time>2019-08-01T12:26:32.000Z</Time>
            <Position>
              <LatitudeDegrees>40.73844688944518566131591796875</LatitudeDegrees>
              <LongitudeDegrees>-4.026700817048549652099609375</LongitudeDegrees>
            </Position>
            <AltitudeMeters>1308.800048828125</AltitudeMeters>
            <DistanceMeters>NAN</DistanceMeters>
          </Trackpoint>
          <Trackpoint>
            <Time>2019-08-01T12:26:33.000Z</Time>
            <Position>
              <LatitudeDegrees>40.7383076660335063934326171875</LatitudeDegrees>
              <LongitudeDegrees>-4.02661062777042388916015625</LongitudeDegrees>
            </Position>
            <AltitudeMeters>1308.199951171875</AltitudeMeters>
            <DistanceMeters>NAN</DistanceMeters>
          </Trackpoint>
          <Trackpoint>
            <Time>2019-08-01T12:26:34.000Z</Time>
            <Position>
              <LatitudeDegrees>40.73817129246890544891357421875</LatitudeDegrees>
              <LongitudeDegrees>-4.02651599608361721038818359375</LongitudeDegrees>
            </Position>
            <AltitudeMeters>1307</AltitudeMeters>
            <DistanceMeters>NAN</DistanceMeters>
          </Trackpoint>
          <Trackpoint>
            <Time>2019-08-01T12:26:35.000Z</Time>
            <Position>
              <LatitudeDegrees>40.738043300807476043701171875</LatitudeDegrees>
              <LongitudeDegrees>-4.02641558088362216949462890625</LongitudeDegrees>
            </Position>
            <AltitudeMeters>1306</AltitudeMeters>
            <DistanceMeters>NAN</DistanceMeters>
          </Trackpoint>
          <Trackpoint>
            <Time>2019-08-01T12:26:36.000Z</Time>
            <Position>
              <LatitudeDegrees>40.73792000301182270050048828125</LatitudeDegrees>
              <LongitudeDegrees>-4.026303850114345550537109375</LongitudeDegrees>
            </Position>
            <AltitudeMeters>1305</AltitudeMeters>
            <DistanceMeters>NAN</DistanceMeters>
          </Trackpoint>
          <Trackpoint>
            <Time>2019-08-01T12:26:37.000Z</Time>
            <Position>
              <LatitudeDegrees>40.73780299164354801177978515625</LatitudeDegrees>
              <LongitudeDegrees>-4.026179127395153045654296875</LongitudeDegrees>
            </Position>
            <AltitudeMeters>1304</AltitudeMeters>
            <DistanceMeters>NAN</DistanceMeters>
          </Trackpoint>
          <Trackpoint>
            <Time>2019-08-01T12:26:38.000Z</Time>
            <Position>
              <LatitudeDegrees>40.737691931426525115966796875</LatitudeDegrees>
              <LongitudeDegrees>-4.02603839524090290069580078125</LongitudeDegrees>
            </Position>
            <AltitudeMeters>1303</AltitudeMeters>
            <DistanceMeters>NAN</DistanceMeters>
          </Trackpoint>
          <Trackpoint>
            <Time>2019-08-01T12:26:39.000Z</Time>
            <Position>
              <LatitudeDegrees>40.737691931426525115966796875</LatitudeDegrees>
              <LongitudeDegrees>-4.02603839524090290069580078125</LongitudeDegrees>
            </Position>
            <AltitudeMeters>1302.4000244140625</AltitudeMeters>
            <DistanceMeters>NAN</DistanceMeters>
          </Trackpoint>
          <Trackpoint>
            <Time>2019-08-01T12:26:40.000Z</Time>
            <Position>
              <LatitudeDegrees>40.737691931426525115966796875</LatitudeDegrees>
              <LongitudeDegrees>-4.02603839524090290069580078125</LongitudeDegrees>
            </Position>
            <AltitudeMeters>1301.800048828125</AltitudeMeters>
            <DistanceMeters>NAN</DistanceMeters>
          </Trackpoint>
          <Trackpoint>
            <Time>2019-08-01T12:26:41.000Z</Time>
            <Position>
              <LatitudeDegrees>40.73741021566092967987060546875</LatitudeDegrees>
              <LongitudeDegrees>-4.02555258013308048248291015625</LongitudeDegrees>
            </Position>
            <AltitudeMeters>1300.5999755859375</AltitudeMeters>
            <DistanceMeters>NAN</DistanceMeters>
          </Trackpoint>
          <Trackpoint>
            <Time>2019-08-01T12:26:42.000Z</Time>
            <Position>
              <LatitudeDegrees>40.73733662255108356475830078125</LatitudeDegrees>
              <LongitudeDegrees>-4.0253722853958606719970703125</LongitudeDegrees>
            </Position>
            <AltitudeMeters>1299.5999755859375</AltitudeMeters>
            <DistanceMeters>NAN</DistanceMeters>
          </Trackpoint>
          <Trackpoint>
            <Time>2019-08-01T12:26:43.000Z</Time>
            <Position>
              <LatitudeDegrees>40.73727476410567760467529296875</LatitudeDegrees>
              <LongitudeDegrees>-4.0251885540783405303955078125</LongitudeDegrees>
            </Position>
            <AltitudeMeters>1299</AltitudeMeters>
            <DistanceMeters>NAN</DistanceMeters>
          </Trackpoint>
          <Trackpoint>
            <Time>2019-08-01T12:26:44.000Z</Time>
            <Position>
              <LatitudeDegrees>40.73727476410567760467529296875</LatitudeDegrees>
              <LongitudeDegrees>-4.0251885540783405303955078125</LongitudeDegrees>
            </Position>
            <AltitudeMeters>1298.4000244140625</AltitudeMeters>
            <DistanceMeters>NAN</DistanceMeters>
          </Trackpoint>
          <Trackpoint>
            <Time>2019-08-01T12:26:45.000Z</Time>
            <Position>
              <LatitudeDegrees>40.7371958903968334197998046875</LatitudeDegrees>
              <LongitudeDegrees>-4.024815894663333892822265625</LongitudeDegrees>
            </Position>
            <AltitudeMeters>1297.5999755859375</AltitudeMeters>
            <DistanceMeters>NAN</DistanceMeters>
          </Trackpoint>
          <Trackpoint>
            <Time>2019-08-01T12:26:46.000Z</Time>
            <Position>
              <LatitudeDegrees>40.7371772825717926025390625</LatitudeDegrees>
              <LongitudeDegrees>-4.024619758129119873046875</LongitudeDegrees>
            </Position>
            <AltitudeMeters>1296.5999755859375</AltitudeMeters>
            <DistanceMeters>NAN</DistanceMeters>
          </Trackpoint>
          <Trackpoint>
            <Time>2019-08-01T12:26:47.000Z</Time>
            <Position>
              <LatitudeDegrees>40.73716546408832073211669921875</LatitudeDegrees>
              <LongitudeDegrees>-4.02442169375717639923095703125</LongitudeDegrees>
            </Position>
            <AltitudeMeters>1295.199951171875</AltitudeMeters>
            <DistanceMeters>NAN</DistanceMeters>
          </Trackpoint>
          <Trackpoint>
            <Time>2019-08-01T12:26:48.000Z</Time>
            <Position>
              <LatitudeDegrees>40.73715423233807086944580078125</LatitudeDegrees>
              <LongitudeDegrees>-4.024221114814281463623046875</LongitudeDegrees>
            </Position>
            <AltitudeMeters>1294</AltitudeMeters>
            <DistanceMeters>NAN</DistanceMeters>
          </Trackpoint>
          <Trackpoint>
            <Time>2019-08-01T12:26:49.000Z</Time>
            <Position>
              <LatitudeDegrees>40.7371439225971698760986328125</LatitudeDegrees>
              <LongitudeDegrees>-4.02402766048908233642578125</LongitudeDegrees>
            </Position>
            <AltitudeMeters>1292.800048828125</AltitudeMeters>
            <DistanceMeters>NAN</DistanceMeters>
          </Trackpoint>
          <Trackpoint>
            <Time>2019-08-01T12:26:50.000Z</Time>
            <Position>
              <LatitudeDegrees>40.73714040219783782958984375</LatitudeDegrees>
              <LongitudeDegrees>-4.02382791973650455474853515625</LongitudeDegrees>
            </Position>
            <AltitudeMeters>1291.800048828125</AltitudeMeters>
            <DistanceMeters>NAN</DistanceMeters>
          </Trackpoint>
          <Trackpoint>
            <Time>2019-08-01T12:26:51.000Z</Time>
            <Position>
              <LatitudeDegrees>40.737138725817203521728515625</LatitudeDegrees>
              <LongitudeDegrees>-4.02362893335521221160888671875</LongitudeDegrees>
            </Position>
            <AltitudeMeters>1290.5999755859375</AltitudeMeters>
            <DistanceMeters>NAN</DistanceMeters>
          </Trackpoint>
          <Trackpoint>
            <Time>2019-08-01T12:26:52.000Z</Time>
            <Position>
              <LatitudeDegrees>40.73713637888431549072265625</LatitudeDegrees>
              <LongitudeDegrees>-4.02342592366039752960205078125</LongitudeDegrees>
            </Position>
            <AltitudeMeters>1289.4000244140625</AltitudeMeters>
            <DistanceMeters>NAN</DistanceMeters>
          </Trackpoint>
          <Trackpoint>
            <Time>2019-08-01T12:26:53.000Z</Time>
            <Position>
              <LatitudeDegrees>40.7371224649250507354736328125</LatitudeDegrees>
              <LongitudeDegrees>-4.0232218243181705474853515625</LongitudeDegrees>
            </Position>
            <AltitudeMeters>1288.4000244140625</AltitudeMeters>
            <DistanceMeters>NAN</DistanceMeters>
          </Trackpoint>
          <Trackpoint>
            <Time>2019-08-01T12:26:54.000Z</Time>
            <Position>
              <LatitudeDegrees>40.7370887696743011474609375</LatitudeDegrees>
              <LongitudeDegrees>-4.0230225026607513427734375</LongitudeDegrees>
            </Position>
            <AltitudeMeters>1287.800048828125</AltitudeMeters>
            <DistanceMeters>NAN</DistanceMeters>
          </Trackpoint>
          <Trackpoint>
            <Time>2019-08-01T12:26:55.000Z</Time>
            <Position>
              <LatitudeDegrees>40.73702984489500522613525390625</LatitudeDegrees>
              <LongitudeDegrees>-4.02284254319965839385986328125</LongitudeDegrees>
            </Position>
            <AltitudeMeters>1287.5999755859375</AltitudeMeters>
            <DistanceMeters>NAN</DistanceMeters>
          </Trackpoint>
          <Trackpoint>
            <Time>2019-08-01T12:26:56.000Z</Time>
            <Position>
              <LatitudeDegrees>40.7369474507868289947509765625</LatitudeDegrees>
              <LongitudeDegrees>-4.0226827003061771392822265625</LongitudeDegrees>
            </Position>
            <AltitudeMeters>1287.199951171875</AltitudeMeters>
            <DistanceMeters>NAN</DistanceMeters>
          </Trackpoint>
          <Trackpoint>
            <Time>2019-08-01T12:26:57.000Z</Time>
            <Position>
              <LatitudeDegrees>40.73684913106262683868408203125</LatitudeDegrees>
              <LongitudeDegrees>-4.02254750020802021026611328125</LongitudeDegrees>
            </Position>
            <AltitudeMeters>1286.800048828125</AltitudeMeters>
            <DistanceMeters>NAN</DistanceMeters>
          </Trackpoint>
          <Trackpoint>
            <Time>2019-08-01T12:26:58.000Z</Time>
            <Position>
              <LatitudeDegrees>40.736737065017223358154296875</LatitudeDegrees>
              <LongitudeDegrees>-4.02243803255259990692138671875</LongitudeDegrees>
            </Position>
            <AltitudeMeters>1285.800048828125</AltitudeMeters>
            <DistanceMeters>NAN</DistanceMeters>
          </Trackpoint>
          <Trackpoint>
            <Time>2019-08-01T12:26:59.000Z</Time>
            <Position>
              <LatitudeDegrees>40.73661812581121921539306640625</LatitudeDegrees>
              <LongitudeDegrees>-4.02235169894993305206298828125</LongitudeDegrees>
            </Position>
            <AltitudeMeters>1285</AltitudeMeters>
            <DistanceMeters>NAN</DistanceMeters>
          </Trackpoint>
          <Trackpoint>
            <Time>2019-08-01T12:27:00.000Z</Time>
            <Position>
              <LatitudeDegrees>40.73649457655847072601318359375</LatitudeDegrees>
              <LongitudeDegrees>-4.02228196151554584503173828125</LongitudeDegrees>
            </Position>
            <AltitudeMeters>1284.199951171875</AltitudeMeters>
            <DistanceMeters>NAN</DistanceMeters>
          </Trackpoint>
          <Trackpoint>
            <Time>2019-08-01T12:27:01.000Z</Time>
            <Position>
              <LatitudeDegrees>40.73636935092508792877197265625</LatitudeDegrees>
              <LongitudeDegrees>-4.022237956523895263671875</LongitudeDegrees>
            </Position>
            <AltitudeMeters>1283.199951171875</AltitudeMeters>
            <DistanceMeters>NAN</DistanceMeters>
          </Trackpoint>
          <Trackpoint>
            <Time>2019-08-01T12:27:02.000Z</Time>
            <Position>
              <LatitudeDegrees>40.7362430356442928314208984375</LatitudeDegrees>
              <LongitudeDegrees>-4.02222831733524799346923828125</LongitudeDegrees>
            </Position>
            <AltitudeMeters>1282.5999755859375</AltitudeMeters>
            <DistanceMeters>NAN</DistanceMeters>
          </Trackpoint>
          <Trackpoint>
            <Time>2019-08-01T12:27:03.000Z</Time>
            <Position>
              <LatitudeDegrees>40.73612191714346408843994140625</LatitudeDegrees>
              <LongitudeDegrees>-4.022254385054111480712890625</LongitudeDegrees>
            </Position>
            <AltitudeMeters>1281.800048828125</AltitudeMeters>
            <DistanceMeters>NAN</DistanceMeters>
          </Trackpoint>
          <Trackpoint>
            <Time>2019-08-01T12:27:04.000Z</Time>
            <Position>
              <LatitudeDegrees>40.736006833612918853759765625</LatitudeDegrees>
              <LongitudeDegrees>-4.0223041735589504241943359375</LongitudeDegrees>
            </Position>
            <AltitudeMeters>1280.5999755859375</AltitudeMeters>
            <DistanceMeters>NAN</DistanceMeters>
          </Trackpoint>
          <Trackpoint>
            <Time>2019-08-01T12:27:05.000Z</Time>
            <Position>
              <LatitudeDegrees>40.73589384555816650390625</LatitudeDegrees>
              <LongitudeDegrees>-4.0223537944257259368896484375</LongitudeDegrees>
            </Position>
            <AltitudeMeters>1279.199951171875</AltitudeMeters>
            <DistanceMeters>NAN</DistanceMeters>
          </Trackpoint>
          <Trackpoint>
            <Time>2019-08-01T12:27:06.000Z</Time>
            <Position>
              <LatitudeDegrees>40.73577876202762126922607421875</LatitudeDegrees>
              <LongitudeDegrees>-4.0223883278667926788330078125</LongitudeDegrees>
            </Position>
            <AltitudeMeters>1278.199951171875</AltitudeMeters>
            <DistanceMeters>NAN</DistanceMeters>
          </Trackpoint>
          <Trackpoint>
            <Time>2019-08-01T12:27:07.000Z</Time>
            <Position>
              <LatitudeDegrees>40.7356603257358074188232421875</LatitudeDegrees>
              <LongitudeDegrees>-4.02240785770118236541748046875</LongitudeDegrees>
            </Position>
            <AltitudeMeters>1277.5999755859375</AltitudeMeters>
            <DistanceMeters>NAN</DistanceMeters>
          </Trackpoint>
          <Trackpoint>
            <Time>2019-08-01T12:27:08.000Z</Time>
            <Position>
              <LatitudeDegrees>40.73554289527237415313720703125</LatitudeDegrees>
              <LongitudeDegrees>-4.02241489849984645843505859375</LongitudeDegrees>
            </Position>
            <AltitudeMeters>1277.199951171875</AltitudeMeters>
            <DistanceMeters>NAN</DistanceMeters>
          </Trackpoint>
          <Trackpoint>
            <Time>2019-08-01T12:27:09.000Z</Time>
            <Position>
              <LatitudeDegrees>40.73542512953281402587890625</LatitudeDegrees>
              <LongitudeDegrees>-4.022406600415706634521484375</LongitudeDegrees>
            </Position>
            <AltitudeMeters>1276.800048828125</AltitudeMeters>
            <DistanceMeters>NAN</DistanceMeters>
          </Trackpoint>
          <Trackpoint>
            <Time>2019-08-01T12:27:10.000Z</Time>
            <Position>
              <LatitudeDegrees>40.73530686087906360626220703125</LatitudeDegrees>
              <LongitudeDegrees>-4.02237986214458942413330078125</LongitudeDegrees>
            </Position>
            <AltitudeMeters>1276.5999755859375</AltitudeMeters>
            <DistanceMeters>NAN</DistanceMeters>
          </Trackpoint>
          <Trackpoint>
            <Time>2019-08-01T12:27:11.000Z</Time>
            <Position>
              <LatitudeDegrees>40.7351895980536937713623046875</LatitudeDegrees>
              <LongitudeDegrees>-4.02233627624809741973876953125</LongitudeDegrees>
            </Position>
            <AltitudeMeters>1276.5999755859375</AltitudeMeters>
            <DistanceMeters>NAN</DistanceMeters>
          </Trackpoint>
          <Trackpoint>
            <Time>2019-08-01T12:27:12.000Z</Time>
            <Position>
              <LatitudeDegrees>40.73507166467607021331787109375</LatitudeDegrees>
              <LongitudeDegrees>-4.0222850628197193145751953125</LongitudeDegrees>
            </Position>
            <AltitudeMeters>1276.4000244140625</AltitudeMeters>
            <DistanceMeters>NAN</DistanceMeters>
          </Trackpoint>
          <Trackpoint>
            <Time>2019-08-01T12:27:13.000Z</Time>
            <Position>
              <LatitudeDegrees>40.7349518872797489166259765625</LatitudeDegrees>
              <LongitudeDegrees>-4.02223217301070690155029296875</LongitudeDegrees>
            </Position>
            <AltitudeMeters>1276.199951171875</AltitudeMeters>
            <DistanceMeters>NAN</DistanceMeters>
          </Trackpoint>
          <Trackpoint>
            <Time>2019-08-01T12:27:14.000Z</Time>
            <Position>
              <LatitudeDegrees>40.73483102023601531982421875</LatitudeDegrees>
              <LongitudeDegrees>-4.0221834741532802581787109375</LongitudeDegrees>
            </Position>
            <AltitudeMeters>1275.800048828125</AltitudeMeters>
            <DistanceMeters>NAN</DistanceMeters>
          </Trackpoint>
          <Trackpoint>
            <Time>2019-08-01T12:27:15.000Z</Time>
            <Position>
              <LatitudeDegrees>40.734705962240695953369140625</LatitudeDegrees>
              <LongitudeDegrees>-4.02215321548283100128173828125</LongitudeDegrees>
            </Position>
            <AltitudeMeters>1275.4000244140625</AltitudeMeters>
            <DistanceMeters>NAN</DistanceMeters>
          </Trackpoint>
          <Trackpoint>
            <Time>2019-08-01T12:27:16.000Z</Time>
            <Position>
              <LatitudeDegrees>40.7345757074654102325439453125</LatitudeDegrees>
              <LongitudeDegrees>-4.0221499465405941009521484375</LongitudeDegrees>
            </Position>
            <AltitudeMeters>1274.800048828125</AltitudeMeters>
            <DistanceMeters>NAN</DistanceMeters>
          </Trackpoint>
          <Trackpoint>
            <Time>2019-08-01T12:27:17.000Z</Time>
            <Position>
              <LatitudeDegrees>40.7345757074654102325439453125</LatitudeDegrees>
              <LongitudeDegrees>-4.0221499465405941009521484375</LongitudeDegrees>
            </Position>
            <AltitudeMeters>1274.4000244140625</AltitudeMeters>
            <DistanceMeters>NAN</DistanceMeters>
          </Trackpoint>
          <Trackpoint>
            <Time>2019-08-01T12:27:19.000Z</Time>
            <Position>
              <LatitudeDegrees>40.73419659398496150970458984375</LatitudeDegrees>
              <LongitudeDegrees>-4.0222661197185516357421875</LongitudeDegrees>
            </Position>
            <AltitudeMeters>1273.5999755859375</AltitudeMeters>
            <DistanceMeters>NAN</DistanceMeters>
          </Trackpoint>
          <Trackpoint>
            <Time>2019-08-01T12:27:20.000Z</Time>
            <Position>
              <LatitudeDegrees>40.73408444412052631378173828125</LatitudeDegrees>
              <LongitudeDegrees>-4.02234130539000034332275390625</LongitudeDegrees>
            </Position>
            <AltitudeMeters>1272.800048828125</AltitudeMeters>
            <DistanceMeters>NAN</DistanceMeters>
          </Trackpoint>
          <Trackpoint>
            <Time>2019-08-01T12:27:21.000Z</Time>
            <Position>
              <LatitudeDegrees>40.73398268781602382659912109375</LatitudeDegrees>
              <LongitudeDegrees>-4.0224268846213817596435546875</LongitudeDegrees>
            </Position>
            <AltitudeMeters>1271.5999755859375</AltitudeMeters>
            <DistanceMeters>NAN</DistanceMeters>
          </Trackpoint>
          <Trackpoint>
            <Time>2019-08-01T12:27:22.000Z</Time>
            <Position>
              <LatitudeDegrees>40.73389233089983463287353515625</LatitudeDegrees>
              <LongitudeDegrees>-4.02252453379333019256591796875</LongitudeDegrees>
            </Position>
            <AltitudeMeters>1270.4000244140625</AltitudeMeters>
            <DistanceMeters>NAN</DistanceMeters>
          </Trackpoint>
          <Trackpoint>
            <Time>2019-08-01T12:27:23.000Z</Time>
            <Position>
              <LatitudeDegrees>40.73381253518164157867431640625</LatitudeDegrees>
              <LongitudeDegrees>-4.02263064868748188018798828125</LongitudeDegrees>
            </Position>
            <AltitudeMeters>1268.5999755859375</AltitudeMeters>
            <DistanceMeters>NAN</DistanceMeters>
          </Trackpoint>
          <Trackpoint>
            <Time>2019-08-01T12:27:24.000Z</Time>
            <Position>
              <LatitudeDegrees>40.7337438873946666717529296875</LatitudeDegrees>
              <LongitudeDegrees>-4.0227464027702808380126953125</LongitudeDegrees>
            </Position>
            <AltitudeMeters>1267</AltitudeMeters>
            <DistanceMeters>NAN</DistanceMeters>
          </Trackpoint>
          <Trackpoint>
            <Time>2019-08-01T12:27:25.000Z</Time>
            <Position>
              <LatitudeDegrees>40.7336855493485927581787109375</LatitudeDegrees>
              <LongitudeDegrees>-4.0228697843849658966064453125</LongitudeDegrees>
            </Position>
            <AltitudeMeters>1265.800048828125</AltitudeMeters>
            <DistanceMeters>NAN</DistanceMeters>
          </Trackpoint>
          <Trackpoint>
            <Time>2019-08-01T12:27:26.000Z</Time>
            <Position>
              <LatitudeDegrees>40.7336339168250560760498046875</LatitudeDegrees>
              <LongitudeDegrees>-4.0229985304176807403564453125</LongitudeDegrees>
            </Position>
            <AltitudeMeters>1265</AltitudeMeters>
            <DistanceMeters>NAN</DistanceMeters>
          </Trackpoint>
          <Trackpoint>
            <Time>2019-08-01T12:27:27.000Z</Time>
            <Position>
              <LatitudeDegrees>40.73358622379601001739501953125</LatitudeDegrees>
              <LongitudeDegrees>-4.02312912046909332275390625</LongitudeDegrees>
            </Position>
            <AltitudeMeters>1264.5999755859375</AltitudeMeters>
            <DistanceMeters>NAN</DistanceMeters>
          </Trackpoint>
          <Trackpoint>
            <Time>2019-08-01T12:27:28.000Z</Time>
            <Position>
              <LatitudeDegrees>40.73354096151888370513916015625</LatitudeDegrees>
              <LongitudeDegrees>-4.02326398529112339019775390625</LongitudeDegrees>
            </Position>
            <AltitudeMeters>1264.199951171875</AltitudeMeters>
            <DistanceMeters>NAN</DistanceMeters>
          </Trackpoint>
          <Trackpoint>
            <Time>2019-08-01T12:27:29.000Z</Time>
            <Position>
              <LatitudeDegrees>40.73349854908883571624755859375</LatitudeDegrees>
              <LongitudeDegrees>-4.02340278960764408111572265625</LongitudeDegrees>
            </Position>
            <AltitudeMeters>1263.800048828125</AltitudeMeters>
            <DistanceMeters>NAN</DistanceMeters>
          </Trackpoint>
          <Trackpoint>
            <Time>2019-08-01T12:27:30.000Z</Time>
            <Position>
              <LatitudeDegrees>40.7334595732390880584716796875</LatitudeDegrees>
              <LongitudeDegrees>-4.02354427613317966461181640625</LongitudeDegrees>
            </Position>
            <AltitudeMeters>1263.5999755859375</AltitudeMeters>
            <DistanceMeters>NAN</DistanceMeters>
          </Trackpoint>
          <Trackpoint>
            <Time>2019-08-01T12:27:31.000Z</Time>
            <Position>
              <LatitudeDegrees>40.7334213517606258392333984375</LatitudeDegrees>
              <LongitudeDegrees>-4.0236881934106349945068359375</LongitudeDegrees>
            </Position>
            <AltitudeMeters>1263.199951171875</AltitudeMeters>
            <DistanceMeters>NAN</DistanceMeters>
          </Trackpoint>
          <Trackpoint>
            <Time>2019-08-01T12:27:32.000Z</Time>
            <Position>
              <LatitudeDegrees>40.73338321410119533538818359375</LatitudeDegrees>
              <LongitudeDegrees>-4.023830853402614593505859375</LongitudeDegrees>
            </Position>
            <AltitudeMeters>1263</AltitudeMeters>
            <DistanceMeters>NAN</DistanceMeters>
          </Trackpoint>
          <Trackpoint>
            <Time>2019-08-01T12:27:33.000Z</Time>
            <Position>
              <LatitudeDegrees>40.73334507644176483154296875</LatitudeDegrees>
              <LongitudeDegrees>-4.0239728428423404693603515625</LongitudeDegrees>
            </Position>
            <AltitudeMeters>1262.800048828125</AltitudeMeters>
            <DistanceMeters>NAN</DistanceMeters>
          </Trackpoint>
          <Trackpoint>
            <Time>2019-08-01T12:27:34.000Z</Time>
            <Position>
              <LatitudeDegrees>40.73330308310687541961669921875</LatitudeDegrees>
              <LongitudeDegrees>-4.02411508373916149139404296875</LongitudeDegrees>
            </Position>
            <AltitudeMeters>1262.4000244140625</AltitudeMeters>
            <DistanceMeters>NAN</DistanceMeters>
          </Trackpoint>
          <Trackpoint>
            <Time>2019-08-01T12:27:35.000Z</Time>
            <Position>
              <LatitudeDegrees>40.73330308310687541961669921875</LatitudeDegrees>
              <LongitudeDegrees>-4.02411508373916149139404296875</LongitudeDegrees>
            </Position>
            <AltitudeMeters>1262</AltitudeMeters>
            <DistanceMeters>NAN</DistanceMeters>
          </Trackpoint>
          <Trackpoint>
            <Time>2019-08-01T12:27:36.000Z</Time>
            <Position>
              <LatitudeDegrees>40.73320635594427585601806640625</LatitudeDegrees>
              <LongitudeDegrees>-4.024394452571868896484375</LongitudeDegrees>
            </Position>
            <AltitudeMeters>1261.800048828125</AltitudeMeters>
            <DistanceMeters>NAN</DistanceMeters>
          </Trackpoint>
          <Trackpoint>
            <Time>2019-08-01T12:27:37.000Z</Time>
            <Position>
              <LatitudeDegrees>40.7331531308591365814208984375</LatitudeDegrees>
              <LongitudeDegrees>-4.024534933269023895263671875</LongitudeDegrees>
            </Position>
            <AltitudeMeters>1261.199951171875</AltitudeMeters>
            <DistanceMeters>NAN</DistanceMeters>
          </Trackpoint>
          <Trackpoint>
            <Time>2019-08-01T12:27:38.000Z</Time>
            <Position>
              <LatitudeDegrees>40.73310091160237789154052734375</LatitudeDegrees>
              <LongitudeDegrees>-4.02467943727970123291015625</LongitudeDegrees>
            </Position>
            <AltitudeMeters>1260.5999755859375</AltitudeMeters>
            <DistanceMeters>NAN</DistanceMeters>
          </Trackpoint>
          <Trackpoint>
            <Time>2019-08-01T12:27:39.000Z</Time>
            <Position>
              <LatitudeDegrees>40.73304927907884120941162109375</LatitudeDegrees>
              <LongitudeDegrees>-4.02482653968036174774169921875</LongitudeDegrees>
            </Position>
            <AltitudeMeters>1259.800048828125</AltitudeMeters>
            <DistanceMeters>NAN</DistanceMeters>
          </Trackpoint>
          <Trackpoint>
            <Time>2019-08-01T12:27:40.000Z</Time>
            <Position>
              <LatitudeDegrees>40.73299915529787540435791015625</LatitudeDegrees>
              <LongitudeDegrees>-4.02497674338519573211669921875</LongitudeDegrees>
            </Position>
            <AltitudeMeters>1259.199951171875</AltitudeMeters>
            <DistanceMeters>NAN</DistanceMeters>
          </Trackpoint>
          <Trackpoint>
            <Time>2019-08-01T12:27:41.000Z</Time>
            <Position>
              <LatitudeDegrees>40.73295003734529018402099609375</LatitudeDegrees>
              <LongitudeDegrees>-4.0251285396516323089599609375</LongitudeDegrees>
            </Position>
            <AltitudeMeters>1258.5999755859375</AltitudeMeters>
            <DistanceMeters>NAN</DistanceMeters>
          </Trackpoint>
          <Trackpoint>
            <Time>2019-08-01T12:27:42.000Z</Time>
            <Position>
              <LatitudeDegrees>40.732903182506561279296875</LatitudeDegrees>
              <LongitudeDegrees>-4.02528217993676662445068359375</LongitudeDegrees>
            </Position>
            <AltitudeMeters>1258</AltitudeMeters>
            <DistanceMeters>NAN</DistanceMeters>
          </Trackpoint>
          <Trackpoint>
            <Time>2019-08-01T12:27:43.000Z</Time>
            <Position>
              <LatitudeDegrees>40.732864625751972198486328125</LatitudeDegrees>
              <LongitudeDegrees>-4.0254400111734867095947265625</LongitudeDegrees>
            </Position>
            <AltitudeMeters>1257.199951171875</AltitudeMeters>
            <DistanceMeters>NAN</DistanceMeters>
          </Trackpoint>
          <Trackpoint>
            <Time>2019-08-01T12:27:44.000Z</Time>
            <Position>
              <LatitudeDegrees>40.73284023441374301910400390625</LatitudeDegrees>
              <LongitudeDegrees>-4.02560220099985599517822265625</LongitudeDegrees>
            </Position>
            <AltitudeMeters>1256.199951171875</AltitudeMeters>
            <DistanceMeters>NAN</DistanceMeters>
          </Trackpoint>
          <Trackpoint>
            <Time>2019-08-01T12:27:45.000Z</Time>
            <Position>
              <LatitudeDegrees>40.7328321039676666259765625</LatitudeDegrees>
              <LongitudeDegrees>-4.02576531283557415008544921875</LongitudeDegrees>
            </Position>
            <AltitudeMeters>1255</AltitudeMeters>
            <DistanceMeters>NAN</DistanceMeters>
          </Trackpoint>
          <Trackpoint>
            <Time>2019-08-01T12:27:46.000Z</Time>
            <Position>
              <LatitudeDegrees>40.732829086482524871826171875</LatitudeDegrees>
              <LongitudeDegrees>-4.02592607773840427398681640625</LongitudeDegrees>
            </Position>
            <AltitudeMeters>1254.199951171875</AltitudeMeters>
            <DistanceMeters>NAN</DistanceMeters>
          </Trackpoint>
          <Trackpoint>
            <Time>2019-08-01T12:27:47.000Z</Time>
            <Position>
              <LatitudeDegrees>40.732820369303226470947265625</LatitudeDegrees>
              <LongitudeDegrees>-4.026084579527378082275390625</LongitudeDegrees>
            </Position>
            <AltitudeMeters>1253.800048828125</AltitudeMeters>
            <DistanceMeters>NAN</DistanceMeters>
          </Trackpoint>
          <Trackpoint>
            <Time>2019-08-01T12:27:48.000Z</Time>
            <Position>
              <LatitudeDegrees>40.73279648087918758392333984375</LatitudeDegrees>
              <LongitudeDegrees>-4.026242159307003021240234375</LongitudeDegrees>
            </Position>
            <AltitudeMeters>1253</AltitudeMeters>
            <DistanceMeters>NAN</DistanceMeters>
          </Trackpoint>
          <Trackpoint>
            <Time>2019-08-01T12:27:49.000Z</Time>
            <Position>
              <LatitudeDegrees>40.7327554933726787567138671875</LatitudeDegrees>
              <LongitudeDegrees>-4.02639563195407390594482421875</LongitudeDegrees>
            </Position>
            <AltitudeMeters>1252.4000244140625</AltitudeMeters>
            <DistanceMeters>NAN</DistanceMeters>
          </Trackpoint>
          <Trackpoint>
            <Time>2019-08-01T12:27:50.000Z</Time>
            <Position>
              <LatitudeDegrees>40.73270545341074466705322265625</LatitudeDegrees>
              <LongitudeDegrees>-4.0265467576682567596435546875</LongitudeDegrees>
            </Position>
            <AltitudeMeters>1251.5999755859375</AltitudeMeters>
            <DistanceMeters>NAN</DistanceMeters>
          </Trackpoint>
          <Trackpoint>
            <Time>2019-08-01T12:27:51.000Z</Time>
            <Position>
              <LatitudeDegrees>40.73265315033495426177978515625</LatitudeDegrees>
              <LongitudeDegrees>-4.02669788338243961334228515625</LongitudeDegrees>
            </Position>
            <AltitudeMeters>1250.5999755859375</AltitudeMeters>
            <DistanceMeters>NAN</DistanceMeters>
          </Trackpoint>
          <Trackpoint>
            <Time>2019-08-01T12:27:52.000Z</Time>
            <Position>
              <LatitudeDegrees>40.7326005958020687103271484375</LatitudeDegrees>
              <LongitudeDegrees>-4.02685143984854221343994140625</LongitudeDegrees>
            </Position>
            <AltitudeMeters>1249</AltitudeMeters>
            <DistanceMeters>NAN</DistanceMeters>
          </Trackpoint>
          <Trackpoint>
            <Time>2019-08-01T12:27:53.000Z</Time>
            <Position>
              <LatitudeDegrees>40.7325504720211029052734375</LatitudeDegrees>
              <LongitudeDegrees>-4.027006588876247406005859375</LongitudeDegrees>
            </Position>
            <AltitudeMeters>1248.199951171875</AltitudeMeters>
            <DistanceMeters>NAN</DistanceMeters>
          </Trackpoint>
          <Trackpoint>
            <Time>2019-08-01T12:27:54.000Z</Time>
            <Position>
              <LatitudeDegrees>40.73250344954431056976318359375</LatitudeDegrees>
              <LongitudeDegrees>-4.02716341428458690643310546875</LongitudeDegrees>
            </Position>
            <AltitudeMeters>1247.5999755859375</AltitudeMeters>
            <DistanceMeters>NAN</DistanceMeters>
          </Trackpoint>
          <Trackpoint>
            <Time>2019-08-01T12:27:55.000Z</Time>
            <Position>
              <LatitudeDegrees>40.73246304877102375030517578125</LatitudeDegrees>
              <LongitudeDegrees>-4.02732283808290958404541015625</LongitudeDegrees>
            </Position>
            <AltitudeMeters>1246.5999755859375</AltitudeMeters>
            <DistanceMeters>NAN</DistanceMeters>
          </Trackpoint>
          <Trackpoint>
            <Time>2019-08-01T12:27:56.000Z</Time>
            <Position>
              <LatitudeDegrees>40.73243153281509876251220703125</LatitudeDegrees>
              <LongitudeDegrees>-4.027486704289913177490234375</LongitudeDegrees>
            </Position>
            <AltitudeMeters>1246</AltitudeMeters>
            <DistanceMeters>NAN</DistanceMeters>
          </Trackpoint>
          <Trackpoint>
            <Time>2019-08-01T12:27:57.000Z</Time>
            <Position>
              <LatitudeDegrees>40.732414014637470245361328125</LatitudeDegrees>
              <LongitudeDegrees>-4.0276524983346462249755859375</LongitudeDegrees>
            </Position>
            <AltitudeMeters>1245.4000244140625</AltitudeMeters>
            <DistanceMeters>NAN</DistanceMeters>
          </Trackpoint>
          <Trackpoint>
            <Time>2019-08-01T12:27:58.000Z</Time>
            <Position>
              <LatitudeDegrees>40.73240554891526699066162109375</LatitudeDegrees>
              <LongitudeDegrees>-4.02781854383647441864013671875</LongitudeDegrees>
            </Position>
            <AltitudeMeters>1244.4000244140625</AltitudeMeters>
            <DistanceMeters>NAN</DistanceMeters>
          </Trackpoint>
          <Trackpoint>
            <Time>2019-08-01T12:27:59.000Z</Time>
            <Position>
              <LatitudeDegrees>40.73239783756434917449951171875</LatitudeDegrees>
              <LongitudeDegrees>-4.02798484079539775848388671875</LongitudeDegrees>
            </Position>
            <AltitudeMeters>1243.199951171875</AltitudeMeters>
            <DistanceMeters>NAN</DistanceMeters>
          </Trackpoint>
          <Trackpoint>
            <Time>2019-08-01T12:28:00.000Z</Time>
            <Position>
              <LatitudeDegrees>40.73238593526184558868408203125</LatitudeDegrees>
              <LongitudeDegrees>-4.0281497128307819366455078125</LongitudeDegrees>
            </Position>
            <AltitudeMeters>1241.800048828125</AltitudeMeters>
            <DistanceMeters>NAN</DistanceMeters>
          </Trackpoint>
          <Trackpoint>
            <Time>2019-08-01T12:28:01.000Z</Time>
            <Position>
              <LatitudeDegrees>40.7323679141700267791748046875</LatitudeDegrees>
              <LongitudeDegrees>-4.02831307612359523773193359375</LongitudeDegrees>
            </Position>
            <AltitudeMeters>1240</AltitudeMeters>
            <DistanceMeters>NAN</DistanceMeters>
          </Trackpoint>
          <Trackpoint>
            <Time>2019-08-01T12:28:02.000Z</Time>
            <Position>
              <LatitudeDegrees>40.7323417626321315765380859375</LatitudeDegrees>
              <LongitudeDegrees>-4.02847551740705966949462890625</LongitudeDegrees>
            </Position>
            <AltitudeMeters>1238</AltitudeMeters>
            <DistanceMeters>NAN</DistanceMeters>
          </Trackpoint>
          <Trackpoint>
            <Time>2019-08-01T12:28:03.000Z</Time>
            <Position>
              <LatitudeDegrees>40.73230697773396968841552734375</LatitudeDegrees>
              <LongitudeDegrees>-4.02863678522408008575439453125</LongitudeDegrees>
            </Position>
            <AltitudeMeters>1236.800048828125</AltitudeMeters>
            <DistanceMeters>NAN</DistanceMeters>
          </Trackpoint>
          <Trackpoint>
            <Time>2019-08-01T12:28:04.000Z</Time>
            <Position>
              <LatitudeDegrees>40.7322649843990802764892578125</LatitudeDegrees>
              <LongitudeDegrees>-4.02879805304110050201416015625</LongitudeDegrees>
            </Position>
            <AltitudeMeters>1236.199951171875</AltitudeMeters>
            <DistanceMeters>NAN</DistanceMeters>
          </Trackpoint>
          <Trackpoint>
            <Time>2019-08-01T12:28:05.000Z</Time>
            <Position>
              <LatitudeDegrees>40.7322205603122711181640625</LatitudeDegrees>
              <LongitudeDegrees>-4.02896066196262836456298828125</LongitudeDegrees>
            </Position>
            <AltitudeMeters>1235.5999755859375</AltitudeMeters>
            <DistanceMeters>NAN</DistanceMeters>
          </Trackpoint>
          <Trackpoint>
            <Time>2019-08-01T12:28:06.000Z</Time>
            <Position>
              <LatitudeDegrees>40.73217739351093769073486328125</LatitudeDegrees>
              <LongitudeDegrees>-4.0291230194270610809326171875</LongitudeDegrees>
            </Position>
            <AltitudeMeters>1235.199951171875</AltitudeMeters>
            <DistanceMeters>NAN</DistanceMeters>
          </Trackpoint>
          <Trackpoint>
            <Time>2019-08-01T12:28:07.000Z</Time>
            <Position>
              <LatitudeDegrees>40.732136406004428863525390625</LatitudeDegrees>
              <LongitudeDegrees>-4.02928411960601806640625</LongitudeDegrees>
            </Position>
            <AltitudeMeters>1234.800048828125</AltitudeMeters>
            <DistanceMeters>NAN</DistanceMeters>
          </Trackpoint>
          <Trackpoint>
            <Time>2019-08-01T12:28:08.000Z</Time>
            <Position>
              <LatitudeDegrees>40.73209759779274463653564453125</LatitudeDegrees>
              <LongitudeDegrees>-4.02944513596594333648681640625</LongitudeDegrees>
            </Position>
            <AltitudeMeters>1234.199951171875</AltitudeMeters>
            <DistanceMeters>NAN</DistanceMeters>
          </Trackpoint>
          <Trackpoint>
            <Time>2019-08-01T12:28:09.000Z</Time>
            <Position>
              <LatitudeDegrees>40.73205870576202869415283203125</LatitudeDegrees>
              <LongitudeDegrees>-4.02960657142102718353271484375</LongitudeDegrees>
            </Position>
            <AltitudeMeters>1234</AltitudeMeters>
            <DistanceMeters>NAN</DistanceMeters>
          </Trackpoint>
          <Trackpoint>
            <Time>2019-08-01T12:28:10.000Z</Time>
            <Position>
              <LatitudeDegrees>40.732018388807773590087890625</LatitudeDegrees>
              <LongitudeDegrees>-4.02976783923804759979248046875</LongitudeDegrees>
            </Position>
            <AltitudeMeters>1233.800048828125</AltitudeMeters>
            <DistanceMeters>NAN</DistanceMeters>
          </Trackpoint>
          <Trackpoint>
            <Time>2019-08-01T12:28:11.000Z</Time>
            <Position>
              <LatitudeDegrees>40.73197782039642333984375</LatitudeDegrees>
              <LongitudeDegrees>-4.0299300290644168853759765625</LongitudeDegrees>
            </Position>
            <AltitudeMeters>1233.4000244140625</AltitudeMeters>
            <DistanceMeters>NAN</DistanceMeters>
          </Trackpoint>
          <Trackpoint>
            <Time>2019-08-01T12:28:12.000Z</Time>
            <Position>
              <LatitudeDegrees>40.73194085620343685150146484375</LatitudeDegrees>
              <LongitudeDegrees>-4.030094482004642486572265625</LongitudeDegrees>
            </Position>
            <AltitudeMeters>1233</AltitudeMeters>
            <DistanceMeters>NAN</DistanceMeters>
          </Trackpoint>
          <Trackpoint>
            <Time>2019-08-01T12:28:13.000Z</Time>
            <Position>
              <LatitudeDegrees>40.73190967552363872528076171875</LatitudeDegrees>
              <LongitudeDegrees>-4.030261449515819549560546875</LongitudeDegrees>
            </Position>
            <AltitudeMeters>1232.199951171875</AltitudeMeters>
            <DistanceMeters>NAN</DistanceMeters>
          </Trackpoint>
          <Trackpoint>
            <Time>2019-08-01T12:28:14.000Z</Time>
            <Position>
              <LatitudeDegrees>40.7318820990622043609619140625</LatitudeDegrees>
              <LongitudeDegrees>-4.0304305963218212127685546875</LongitudeDegrees>
            </Position>
            <AltitudeMeters>1230.5999755859375</AltitudeMeters>
            <DistanceMeters>NAN</DistanceMeters>
          </Trackpoint>
          <Trackpoint>
            <Time>2019-08-01T12:28:15.000Z</Time>
            <Position>
              <LatitudeDegrees>40.7318820990622043609619140625</LatitudeDegrees>
              <LongitudeDegrees>-4.0304305963218212127685546875</LongitudeDegrees>
            </Position>
            <AltitudeMeters>1229.4000244140625</AltitudeMeters>
            <DistanceMeters>NAN</DistanceMeters>
          </Trackpoint>
          <Trackpoint>
            <Time>2019-08-01T12:28:16.000Z</Time>
            <Position>
              <LatitudeDegrees>40.73182971216738224029541015625</LatitudeDegrees>
              <LongitudeDegrees>-4.03076813556253910064697265625</LongitudeDegrees>
            </Position>
            <AltitudeMeters>1228.800048828125</AltitudeMeters>
            <DistanceMeters>NAN</DistanceMeters>
          </Trackpoint>
          <Trackpoint>
            <Time>2019-08-01T12:28:17.000Z</Time>
            <Position>
              <LatitudeDegrees>40.73180305771529674530029296875</LatitudeDegrees>
              <LongitudeDegrees>-4.03093275614082813262939453125</LongitudeDegrees>
            </Position>
            <AltitudeMeters>1228.199951171875</AltitudeMeters>
            <DistanceMeters>NAN</DistanceMeters>
          </Trackpoint>
          <Trackpoint>
            <Time>2019-08-01T12:28:18.000Z</Time>
            <Position>
              <LatitudeDegrees>40.7317721284925937652587890625</LatitudeDegrees>
              <LongitudeDegrees>-4.0310924313962459564208984375</LongitudeDegrees>
            </Position>
            <AltitudeMeters>1228</AltitudeMeters>
            <DistanceMeters>NAN</DistanceMeters>
          </Trackpoint>
          <Trackpoint>
            <Time>2019-08-01T12:28:19.000Z</Time>
            <Position>
              <LatitudeDegrees>40.73173617012798786163330078125</LatitudeDegrees>
              <LongitudeDegrees>-4.03124858625233173370361328125</LongitudeDegrees>
            </Position>
            <AltitudeMeters>1227.199951171875</AltitudeMeters>
            <DistanceMeters>NAN</DistanceMeters>
          </Trackpoint>
          <Trackpoint>
            <Time>2019-08-01T12:28:20.000Z</Time>
            <Position>
              <LatitudeDegrees>40.73169685900211334228515625</LatitudeDegrees>
              <LongitudeDegrees>-4.031403064727783203125</LongitudeDegrees>
            </Position>
            <AltitudeMeters>1226.199951171875</AltitudeMeters>
            <DistanceMeters>NAN</DistanceMeters>
          </Trackpoint>
          <Trackpoint>
            <Time>2019-08-01T12:28:21.000Z</Time>
            <Position>
              <LatitudeDegrees>40.7316554524004459381103515625</LatitudeDegrees>
              <LongitudeDegrees>-4.03155704028904438018798828125</LongitudeDegrees>
            </Position>
            <AltitudeMeters>1225.199951171875</AltitudeMeters>
            <DistanceMeters>NAN</DistanceMeters>
          </Trackpoint>
          <Trackpoint>
            <Time>2019-08-01T12:28:22.000Z</Time>
            <Position>
              <LatitudeDegrees>40.731612704694271087646484375</LatitudeDegrees>
              <LongitudeDegrees>-4.0317096747457981109619140625</LongitudeDegrees>
            </Position>
            <AltitudeMeters>1223.5999755859375</AltitudeMeters>
            <DistanceMeters>NAN</DistanceMeters>
          </Trackpoint>
          <Trackpoint>
            <Time>2019-08-01T12:28:23.000Z</Time>
            <Position>
              <LatitudeDegrees>40.73156937025487422943115234375</LatitudeDegrees>
              <LongitudeDegrees>-4.0318612195551395416259765625</LongitudeDegrees>
            </Position>
            <AltitudeMeters>1220.5999755859375</AltitudeMeters>
            <DistanceMeters>NAN</DistanceMeters>
          </Trackpoint>
          <Trackpoint>
            <Time>2019-08-01T12:28:24.000Z</Time>
            <Position>
              <LatitudeDegrees>40.73156937025487422943115234375</LatitudeDegrees>
              <LongitudeDegrees>-4.0318612195551395416259765625</LongitudeDegrees>
            </Position>
            <AltitudeMeters>1219.199951171875</AltitudeMeters>
            <DistanceMeters>NAN</DistanceMeters>
          </Trackpoint>
          <Trackpoint>
            <Time>2019-08-01T12:28:25.000Z</Time>
            <Position>
              <LatitudeDegrees>40.73150239884853363037109375</LatitudeDegrees>
              <LongitudeDegrees>-4.032170511782169342041015625</LongitudeDegrees>
            </Position>
            <AltitudeMeters>1218.4000244140625</AltitudeMeters>
            <DistanceMeters>NAN</DistanceMeters>
          </Trackpoint>
          <Trackpoint>
            <Time>2019-08-01T12:28:26.000Z</Time>
            <Position>
              <LatitudeDegrees>40.731483288109302520751953125</LatitudeDegrees>
              <LongitudeDegrees>-4.03232968412339687347412109375</LongitudeDegrees>
            </Position>
            <AltitudeMeters>1218</AltitudeMeters>
            <DistanceMeters>NAN</DistanceMeters>
          </Trackpoint>
          <Trackpoint>
            <Time>2019-08-01T12:28:27.000Z</Time>
            <Position>
              <LatitudeDegrees>40.731483288109302520751953125</LatitudeDegrees>
              <LongitudeDegrees>-4.03232968412339687347412109375</LongitudeDegrees>
            </Position>
            <AltitudeMeters>1217.5999755859375</AltitudeMeters>
            <DistanceMeters>NAN</DistanceMeters>
          </Trackpoint>
          <Trackpoint>
            <Time>2019-08-01T12:28:28.000Z</Time>
            <Position>
              <LatitudeDegrees>40.73146996088325977325439453125</LatitudeDegrees>
              <LongitudeDegrees>-4.0326518006622791290283203125</LongitudeDegrees>
            </Position>
            <AltitudeMeters>1217.199951171875</AltitudeMeters>
            <DistanceMeters>NAN</DistanceMeters>
          </Trackpoint>
          <Trackpoint>
            <Time>2019-08-01T12:28:29.000Z</Time>
            <Position>
              <LatitudeDegrees>40.73146996088325977325439453125</LatitudeDegrees>
              <LongitudeDegrees>-4.0326518006622791290283203125</LongitudeDegrees>
            </Position>
            <AltitudeMeters>1216.800048828125</AltitudeMeters>
            <DistanceMeters>NAN</DistanceMeters>
          </Trackpoint>
          <Trackpoint>
            <Time>2019-08-01T12:28:30.000Z</Time>
            <Position>
              <LatitudeDegrees>40.7314834557473659515380859375</LatitudeDegrees>
              <LongitudeDegrees>-4.0329756774008274078369140625</LongitudeDegrees>
            </Position>
            <AltitudeMeters>1216.5999755859375</AltitudeMeters>
            <DistanceMeters>NAN</DistanceMeters>
          </Trackpoint>
          <Trackpoint>
            <Time>2019-08-01T12:28:31.000Z</Time>
            <Position>
              <LatitudeDegrees>40.73149435222148895263671875</LatitudeDegrees>
              <LongitudeDegrees>-4.03313652612268924713134765625</LongitudeDegrees>
            </Position>
            <AltitudeMeters>1215.800048828125</AltitudeMeters>
            <DistanceMeters>NAN</DistanceMeters>
          </Trackpoint>
          <Trackpoint>
            <Time>2019-08-01T12:28:32.000Z</Time>
            <Position>
              <LatitudeDegrees>40.7315045781433582305908203125</LatitudeDegrees>
              <LongitudeDegrees>-4.03329737484455108642578125</LongitudeDegrees>
            </Position>
            <AltitudeMeters>1214.800048828125</AltitudeMeters>
            <DistanceMeters>NAN</DistanceMeters>
          </Trackpoint>
          <Trackpoint>
            <Time>2019-08-01T12:28:33.000Z</Time>
            <Position>
              <LatitudeDegrees>40.7315132953226566314697265625</LatitudeDegrees>
              <LongitudeDegrees>-4.0334594808518886566162109375</LongitudeDegrees>
            </Position>
            <AltitudeMeters>1214.199951171875</AltitudeMeters>
            <DistanceMeters>NAN</DistanceMeters>
          </Trackpoint>
          <Trackpoint>
            <Time>2019-08-01T12:28:34.000Z</Time>
            <Position>
              <LatitudeDegrees>40.73151958175003528594970703125</LatitudeDegrees>
              <LongitudeDegrees>-4.0336234308779239654541015625</LongitudeDegrees>
            </Position>
            <AltitudeMeters>1213.5999755859375</AltitudeMeters>
            <DistanceMeters>NAN</DistanceMeters>
          </Trackpoint>
          <Trackpoint>
            <Time>2019-08-01T12:28:35.000Z</Time>
            <Position>
              <LatitudeDegrees>40.731516815721988677978515625</LatitudeDegrees>
              <LongitudeDegrees>-4.03378830291330814361572265625</LongitudeDegrees>
            </Position>
            <AltitudeMeters>1212.800048828125</AltitudeMeters>
            <DistanceMeters>NAN</DistanceMeters>
          </Trackpoint>
          <Trackpoint>
            <Time>2019-08-01T12:28:36.000Z</Time>
            <Position>
              <LatitudeDegrees>40.7315005548298358917236328125</LatitudeDegrees>
              <LongitudeDegrees>-4.03395191766321659088134765625</LongitudeDegrees>
            </Position>
            <AltitudeMeters>1212.4000244140625</AltitudeMeters>
            <DistanceMeters>NAN</DistanceMeters>
          </Trackpoint>
          <Trackpoint>
            <Time>2019-08-01T12:28:37.000Z</Time>
            <Position>
              <LatitudeDegrees>40.73147029615938663482666015625</LatitudeDegrees>
              <LongitudeDegrees>-4.03411016799509525299072265625</LongitudeDegrees>
            </Position>
            <AltitudeMeters>1212</AltitudeMeters>
            <DistanceMeters>NAN</DistanceMeters>
          </Trackpoint>
          <Trackpoint>
            <Time>2019-08-01T12:28:38.000Z</Time>
            <Position>
              <LatitudeDegrees>40.731422938406467437744140625</LatitudeDegrees>
              <LongitudeDegrees>-4.03425785712897777557373046875</LongitudeDegrees>
            </Position>
            <AltitudeMeters>1211.5999755859375</AltitudeMeters>
            <DistanceMeters>NAN</DistanceMeters>
          </Trackpoint>
          <Trackpoint>
            <Time>2019-08-01T12:28:39.000Z</Time>
            <Position>
              <LatitudeDegrees>40.73135898448526859283447265625</LatitudeDegrees>
              <LongitudeDegrees>-4.0343932248651981353759765625</LongitudeDegrees>
            </Position>
            <AltitudeMeters>1211.199951171875</AltitudeMeters>
            <DistanceMeters>NAN</DistanceMeters>
          </Trackpoint>
          <Trackpoint>
            <Time>2019-08-01T12:28:40.000Z</Time>
            <Position>
              <LatitudeDegrees>40.73128036223351955413818359375</LatitudeDegrees>
              <LongitudeDegrees>-4.03451518155634403228759765625</LongitudeDegrees>
            </Position>
            <AltitudeMeters>1210.800048828125</AltitudeMeters>
            <DistanceMeters>NAN</DistanceMeters>
          </Trackpoint>
          <Trackpoint>
            <Time>2019-08-01T12:28:41.000Z</Time>
            <Position>
              <LatitudeDegrees>40.73119235225021839141845703125</LatitudeDegrees>
              <LongitudeDegrees>-4.034627415239810943603515625</LongitudeDegrees>
            </Position>
            <AltitudeMeters>1210</AltitudeMeters>
            <DistanceMeters>NAN</DistanceMeters>
          </Trackpoint>
          <Trackpoint>
            <Time>2019-08-01T12:28:42.000Z</Time>
            <Position>
              <LatitudeDegrees>40.73119235225021839141845703125</LatitudeDegrees>
              <LongitudeDegrees>-4.034627415239810943603515625</LongitudeDegrees>
            </Position>
            <AltitudeMeters>1209.199951171875</AltitudeMeters>
            <DistanceMeters>NAN</DistanceMeters>
          </Trackpoint>
          <Trackpoint>
            <Time>2019-08-01T12:28:43.000Z</Time>
            <Position>
              <LatitudeDegrees>40.730998478829860687255859375</LatitudeDegrees>
              <LongitudeDegrees>-4.03483889065682888031005859375</LongitudeDegrees>
            </Position>
            <AltitudeMeters>1208.5999755859375</AltitudeMeters>
            <DistanceMeters>NAN</DistanceMeters>
          </Trackpoint>
          <Trackpoint>
            <Time>2019-08-01T12:28:44.000Z</Time>
            <Position>
              <LatitudeDegrees>40.73089529760181903839111328125</LatitudeDegrees>
              <LongitudeDegrees>-4.03493947349488735198974609375</LongitudeDegrees>
            </Position>
            <AltitudeMeters>1208</AltitudeMeters>
            <DistanceMeters>NAN</DistanceMeters>
          </Trackpoint>
          <Trackpoint>
            <Time>2019-08-01T12:28:45.000Z</Time>
            <Position>
              <LatitudeDegrees>40.730783231556415557861328125</LatitudeDegrees>
              <LongitudeDegrees>-4.0350389666855335235595703125</LongitudeDegrees>
            </Position>
            <AltitudeMeters>1207.199951171875</AltitudeMeters>
            <DistanceMeters>NAN</DistanceMeters>
          </Trackpoint>
          <Trackpoint>
            <Time>2019-08-01T12:28:46.000Z</Time>
            <Position>
              <LatitudeDegrees>40.73067049495875835418701171875</LatitudeDegrees>
              <LongitudeDegrees>-4.03512488119304180145263671875</LongitudeDegrees>
            </Position>
            <AltitudeMeters>1206.199951171875</AltitudeMeters>
            <DistanceMeters>NAN</DistanceMeters>
          </Trackpoint>
          <Trackpoint>
            <Time>2019-08-01T12:28:47.000Z</Time>
            <Position>
              <LatitudeDegrees>40.7305513881146907806396484375</LatitudeDegrees>
              <LongitudeDegrees>-4.03519948013126850128173828125</LongitudeDegrees>
            </Position>
            <AltitudeMeters>1205.5999755859375</AltitudeMeters>
            <DistanceMeters>NAN</DistanceMeters>
          </Trackpoint>
          <Trackpoint>
            <Time>2019-08-01T12:28:48.000Z</Time>
            <Position>
              <LatitudeDegrees>40.73042909614741802215576171875</LatitudeDegrees>
              <LongitudeDegrees>-4.0352632664144039154052734375</LongitudeDegrees>
            </Position>
            <AltitudeMeters>1204.800048828125</AltitudeMeters>
            <DistanceMeters>NAN</DistanceMeters>
          </Trackpoint>
          <Trackpoint>
            <Time>2019-08-01T12:28:49.000Z</Time>
            <Position>
              <LatitudeDegrees>40.73030403815209865570068359375</LatitudeDegrees>
              <LongitudeDegrees>-4.03531573712825775146484375</LongitudeDegrees>
            </Position>
            <AltitudeMeters>1204.199951171875</AltitudeMeters>
            <DistanceMeters>NAN</DistanceMeters>
          </Trackpoint>
          <Trackpoint>
            <Time>2019-08-01T12:28:50.000Z</Time>
            <Position>
              <LatitudeDegrees>40.73017696850001811981201171875</LatitudeDegrees>
              <LongitudeDegrees>-4.0353611670434474945068359375</LongitudeDegrees>
            </Position>
            <AltitudeMeters>1202</AltitudeMeters>
            <DistanceMeters>NAN</DistanceMeters>
          </Trackpoint>
          <Trackpoint>
            <Time>2019-08-01T12:28:51.000Z</Time>
            <Position>
              <LatitudeDegrees>40.7300491444766521453857421875</LatitudeDegrees>
              <LongitudeDegrees>-4.03541036881506443023681640625</LongitudeDegrees>
            </Position>
            <AltitudeMeters>1201.4000244140625</AltitudeMeters>
            <DistanceMeters>NAN</DistanceMeters>
          </Trackpoint>
          <Trackpoint>
            <Time>2019-08-01T12:28:52.000Z</Time>
            <Position>
              <LatitudeDegrees>40.7299260981380939483642578125</LatitudeDegrees>
              <LongitudeDegrees>-4.03547474183142185211181640625</LongitudeDegrees>
            </Position>
            <AltitudeMeters>1200.5999755859375</AltitudeMeters>
            <DistanceMeters>NAN</DistanceMeters>
          </Trackpoint>
          <Trackpoint>
            <Time>2019-08-01T12:28:53.000Z</Time>
            <Position>
              <LatitudeDegrees>40.72981403209269046783447265625</LatitudeDegrees>
              <LongitudeDegrees>-4.03556208126246929168701171875</LongitudeDegrees>
            </Position>
            <AltitudeMeters>1199.800048828125</AltitudeMeters>
            <DistanceMeters>NAN</DistanceMeters>
          </Trackpoint>
          <Trackpoint>
            <Time>2019-08-01T12:28:54.000Z</Time>
            <Position>
              <LatitudeDegrees>40.7297135330736637115478515625</LatitudeDegrees>
              <LongitudeDegrees>-4.0356712974607944488525390625</LongitudeDegrees>
            </Position>
            <AltitudeMeters>1198.800048828125</AltitudeMeters>
            <DistanceMeters>NAN</DistanceMeters>
          </Trackpoint>
          <Trackpoint>
            <Time>2019-08-01T12:28:55.000Z</Time>
            <Position>
              <LatitudeDegrees>40.7296186499297618865966796875</LatitudeDegrees>
              <LongitudeDegrees>-4.035793505609035491943359375</LongitudeDegrees>
            </Position>
            <AltitudeMeters>1198.199951171875</AltitudeMeters>
            <DistanceMeters>NAN</DistanceMeters>
          </Trackpoint>
          <Trackpoint>
            <Time>2019-08-01T12:28:56.000Z</Time>
            <Position>
              <LatitudeDegrees>40.72953072376549243927001953125</LatitudeDegrees>
              <LongitudeDegrees>-4.035927616059780120849609375</LongitudeDegrees>
            </Position>
            <AltitudeMeters>1197.4000244140625</AltitudeMeters>
            <DistanceMeters>NAN</DistanceMeters>
          </Trackpoint>
          <Trackpoint>
            <Time>2019-08-01T12:28:57.000Z</Time>
            <Position>
              <LatitudeDegrees>40.7294614054262638092041015625</LatitudeDegrees>
              <LongitudeDegrees>-4.03607882559299468994140625</LongitudeDegrees>
            </Position>
            <AltitudeMeters>1196.5999755859375</AltitudeMeters>
            <DistanceMeters>NAN</DistanceMeters>
          </Trackpoint>
          <Trackpoint>
            <Time>2019-08-01T12:28:58.000Z</Time>
            <Position>
              <LatitudeDegrees>40.72941807098686695098876953125</LatitudeDegrees>
              <LongitudeDegrees>-4.0362476371228694915771484375</LongitudeDegrees>
            </Position>
            <AltitudeMeters>1196</AltitudeMeters>
            <DistanceMeters>NAN</DistanceMeters>
          </Trackpoint>
          <Trackpoint>
            <Time>2019-08-01T12:28:59.000Z</Time>
            <Position>
              <LatitudeDegrees>40.729400217533111572265625</LatitudeDegrees>
              <LongitudeDegrees>-4.036426842212677001953125</LongitudeDegrees>
            </Position>
            <AltitudeMeters>1195.4000244140625</AltitudeMeters>
            <DistanceMeters>NAN</DistanceMeters>
          </Trackpoint>
          <Trackpoint>
            <Time>2019-08-01T12:29:00.000Z</Time>
            <Position>
              <LatitudeDegrees>40.72940625250339508056640625</LatitudeDegrees>
              <LongitudeDegrees>-4.03660428710281848907470703125</LongitudeDegrees>
            </Position>
            <AltitudeMeters>1195</AltitudeMeters>
            <DistanceMeters>NAN</DistanceMeters>
          </Trackpoint>
          <Trackpoint>
            <Time>2019-08-01T12:29:01.000Z</Time>
            <Position>
              <LatitudeDegrees>40.72942100465297698974609375</LatitudeDegrees>
              <LongitudeDegrees>-4.03678131289780139923095703125</LongitudeDegrees>
            </Position>
            <AltitudeMeters>1194.4000244140625</AltitudeMeters>
            <DistanceMeters>NAN</DistanceMeters>
          </Trackpoint>
          <Trackpoint>
            <Time>2019-08-01T12:29:03.000Z</Time>
            <Position>
              <LatitudeDegrees>40.72945495136082172393798828125</LatitudeDegrees>
              <LongitudeDegrees>-4.03713603504002094268798828125</LongitudeDegrees>
            </Position>
            <AltitudeMeters>1193.199951171875</AltitudeMeters>
            <DistanceMeters>NAN</DistanceMeters>
          </Trackpoint>
          <Trackpoint>
            <Time>2019-08-01T12:29:04.000Z</Time>
            <Position>
              <LatitudeDegrees>40.72947221808135509490966796875</LatitudeDegrees>
              <LongitudeDegrees>-4.037315659224987030029296875</LongitudeDegrees>
            </Position>
            <AltitudeMeters>1192.5999755859375</AltitudeMeters>
            <DistanceMeters>NAN</DistanceMeters>
          </Trackpoint>
          <Trackpoint>
            <Time>2019-08-01T12:29:05.000Z</Time>
            <Position>
              <LatitudeDegrees>40.729488395154476165771484375</LatitudeDegrees>
              <LongitudeDegrees>-4.03749595396220684051513671875</LongitudeDegrees>
            </Position>
            <AltitudeMeters>1191.4000244140625</AltitudeMeters>
            <DistanceMeters>NAN</DistanceMeters>
          </Trackpoint>
          <Trackpoint>
            <Time>2019-08-01T12:29:06.000Z</Time>
            <Position>
              <LatitudeDegrees>40.7294996269047260284423828125</LatitudeDegrees>
              <LongitudeDegrees>-4.03767406940460205078125</LongitudeDegrees>
            </Position>
            <AltitudeMeters>1190</AltitudeMeters>
            <DistanceMeters>NAN</DistanceMeters>
          </Trackpoint>
          <Trackpoint>
            <Time>2019-08-01T12:29:08.000Z</Time>
            <Position>
              <LatitudeDegrees>40.72945813648402690887451171875</LatitudeDegrees>
              <LongitudeDegrees>-4.03801747597754001617431640625</LongitudeDegrees>
            </Position>
            <AltitudeMeters>1188.199951171875</AltitudeMeters>
            <DistanceMeters>NAN</DistanceMeters>
          </Trackpoint>
          <Trackpoint>
            <Time>2019-08-01T12:29:09.000Z</Time>
            <Position>
              <LatitudeDegrees>40.72940566577017307281494140625</LatitudeDegrees>
              <LongitudeDegrees>-4.0381821803748607635498046875</LongitudeDegrees>
            </Position>
            <AltitudeMeters>1187.4000244140625</AltitudeMeters>
            <DistanceMeters>NAN</DistanceMeters>
          </Trackpoint>
          <Trackpoint>
            <Time>2019-08-01T12:29:10.000Z</Time>
            <Position>
              <LatitudeDegrees>40.72934984229505062103271484375</LatitudeDegrees>
              <LongitudeDegrees>-4.038346298038959503173828125</LongitudeDegrees>
            </Position>
            <AltitudeMeters>1186.800048828125</AltitudeMeters>
            <DistanceMeters>NAN</DistanceMeters>
          </Trackpoint>
          <Trackpoint>
            <Time>2019-08-01T12:29:11.000Z</Time>
            <Position>
              <LatitudeDegrees>40.7293004728853702545166015625</LatitudeDegrees>
              <LongitudeDegrees>-4.038517959415912628173828125</LongitudeDegrees>
            </Position>
            <AltitudeMeters>1185.800048828125</AltitudeMeters>
            <DistanceMeters>NAN</DistanceMeters>
          </Trackpoint>
          <Trackpoint>
            <Time>2019-08-01T12:29:12.000Z</Time>
            <Position>
              <LatitudeDegrees>40.7292595691978931427001953125</LatitudeDegrees>
              <LongitudeDegrees>-4.03869288973510265350341796875</LongitudeDegrees>
            </Position>
            <AltitudeMeters>1184.800048828125</AltitudeMeters>
            <DistanceMeters>NAN</DistanceMeters>
          </Trackpoint>
          <Trackpoint>
            <Time>2019-08-01T12:29:13.000Z</Time>
            <Position>
              <LatitudeDegrees>40.72923450730741024017333984375</LatitudeDegrees>
              <LongitudeDegrees>-4.03887578286230564117431640625</LongitudeDegrees>
            </Position>
            <AltitudeMeters>1183.199951171875</AltitudeMeters>
            <DistanceMeters>NAN</DistanceMeters>
          </Trackpoint>
          <Trackpoint>
            <Time>2019-08-01T12:29:14.000Z</Time>
            <Position>
              <LatitudeDegrees>40.72922646068036556243896484375</LatitudeDegrees>
              <LongitudeDegrees>-4.03906085528433322906494140625</LongitudeDegrees>
            </Position>
            <AltitudeMeters>1182</AltitudeMeters>
            <DistanceMeters>NAN</DistanceMeters>
          </Trackpoint>
          <Trackpoint>
            <Time>2019-08-01T12:29:15.000Z</Time>
            <Position>
              <LatitudeDegrees>40.72923501022160053253173828125</LatitudeDegrees>
              <LongitudeDegrees>-4.03924441896378993988037109375</LongitudeDegrees>
            </Position>
            <AltitudeMeters>1181</AltitudeMeters>
            <DistanceMeters>NAN</DistanceMeters>
          </Trackpoint>
          <Trackpoint>
            <Time>2019-08-01T12:29:16.000Z</Time>
            <Position>
              <LatitudeDegrees>40.72925881482660770416259765625</LatitudeDegrees>
              <LongitudeDegrees>-4.03942546807229518890380859375</LongitudeDegrees>
            </Position>
            <AltitudeMeters>1180.4000244140625</AltitudeMeters>
            <DistanceMeters>NAN</DistanceMeters>
          </Trackpoint>
          <Trackpoint>
            <Time>2019-08-01T12:29:17.000Z</Time>
            <Position>
              <LatitudeDegrees>40.729293935000896453857421875</LatitudeDegrees>
              <LongitudeDegrees>-4.039602912962436676025390625</LongitudeDegrees>
            </Position>
            <AltitudeMeters>1179.4000244140625</AltitudeMeters>
            <DistanceMeters>NAN</DistanceMeters>
          </Trackpoint>
          <Trackpoint>
            <Time>2019-08-01T12:29:18.000Z</Time>
            <Position>
              <LatitudeDegrees>40.72933358140289783477783203125</LatitudeDegrees>
              <LongitudeDegrees>-4.03977666981518268585205078125</LongitudeDegrees>
            </Position>
            <AltitudeMeters>1178.800048828125</AltitudeMeters>
            <DistanceMeters>NAN</DistanceMeters>
          </Trackpoint>
          <Trackpoint>
            <Time>2019-08-01T12:29:19.000Z</Time>
            <Position>
              <LatitudeDegrees>40.72936593554913997650146484375</LatitudeDegrees>
              <LongitudeDegrees>-4.0399517677724361419677734375</LongitudeDegrees>
            </Position>
            <AltitudeMeters>1177.5999755859375</AltitudeMeters>
            <DistanceMeters>NAN</DistanceMeters>
          </Trackpoint>
          <Trackpoint>
            <Time>2019-08-01T12:29:20.000Z</Time>
            <Position>
              <LatitudeDegrees>40.7293759100139141082763671875</LatitudeDegrees>
              <LongitudeDegrees>-4.04013507999479770660400390625</LongitudeDegrees>
            </Position>
            <AltitudeMeters>1176.800048828125</AltitudeMeters>
            <DistanceMeters>NAN</DistanceMeters>
          </Trackpoint>
          <Trackpoint>
            <Time>2019-08-01T12:29:21.000Z</Time>
            <Position>
              <LatitudeDegrees>40.72935638017952442169189453125</LatitudeDegrees>
              <LongitudeDegrees>-4.04031269252300262451171875</LongitudeDegrees>
            </Position>
            <AltitudeMeters>1175.5999755859375</AltitudeMeters>
            <DistanceMeters>NAN</DistanceMeters>
          </Trackpoint>
          <Trackpoint>
            <Time>2019-08-01T12:29:22.000Z</Time>
            <Position>
              <LatitudeDegrees>40.72931044735014438629150390625</LatitudeDegrees>
              <LongitudeDegrees>-4.04048292897641658782958984375</LongitudeDegrees>
            </Position>
            <AltitudeMeters>1174.4000244140625</AltitudeMeters>
            <DistanceMeters>NAN</DistanceMeters>
          </Trackpoint>
          <Trackpoint>
            <Time>2019-08-01T12:29:23.000Z</Time>
            <Position>
              <LatitudeDegrees>40.72924691252410411834716796875</LatitudeDegrees>
              <LongitudeDegrees>-4.04064285568892955780029296875</LongitudeDegrees>
            </Position>
            <AltitudeMeters>1173.5999755859375</AltitudeMeters>
            <DistanceMeters>NAN</DistanceMeters>
          </Trackpoint>
          <Trackpoint>
            <Time>2019-08-01T12:29:24.000Z</Time>
            <Position>
              <LatitudeDegrees>40.72917248122394084930419921875</LatitudeDegrees>
              <LongitudeDegrees>-4.0407976694405078887939453125</LongitudeDegrees>
            </Position>
            <AltitudeMeters>1172.5999755859375</AltitudeMeters>
            <DistanceMeters>NAN</DistanceMeters>
          </Trackpoint>
          <Trackpoint>
            <Time>2019-08-01T12:29:25.000Z</Time>
            <Position>
              <LatitudeDegrees>40.7290959544479846954345703125</LatitudeDegrees>
              <LongitudeDegrees>-4.04095181263983249664306640625</LongitudeDegrees>
            </Position>
            <AltitudeMeters>1171.5999755859375</AltitudeMeters>
            <DistanceMeters>NAN</DistanceMeters>
          </Trackpoint>
          <Trackpoint>
            <Time>2019-08-01T12:29:26.000Z</Time>
            <Position>
              <LatitudeDegrees>40.72902210988104343414306640625</LatitudeDegrees>
              <LongitudeDegrees>-4.0411104820668697357177734375</LongitudeDegrees>
            </Position>
            <AltitudeMeters>1170.5999755859375</AltitudeMeters>
            <DistanceMeters>NAN</DistanceMeters>
          </Trackpoint>
          <Trackpoint>
            <Time>2019-08-01T12:29:27.000Z</Time>
            <Position>
              <LatitudeDegrees>40.72895706631243228912353515625</LatitudeDegrees>
              <LongitudeDegrees>-4.04127568937838077545166015625</LongitudeDegrees>
            </Position>
            <AltitudeMeters>1170.199951171875</AltitudeMeters>
            <DistanceMeters>NAN</DistanceMeters>
          </Trackpoint>
          <Trackpoint>
            <Time>2019-08-01T12:29:28.000Z</Time>
            <Position>
              <LatitudeDegrees>40.72890333831310272216796875</LatitudeDegrees>
              <LongitudeDegrees>-4.04144852422177791595458984375</LongitudeDegrees>
            </Position>
            <AltitudeMeters>1169.800048828125</AltitudeMeters>
            <DistanceMeters>NAN</DistanceMeters>
          </Trackpoint>
          <Trackpoint>
            <Time>2019-08-01T12:29:29.000Z</Time>
            <Position>
              <LatitudeDegrees>40.72885639965534210205078125</LatitudeDegrees>
              <LongitudeDegrees>-4.041625298559665679931640625</LongitudeDegrees>
            </Position>
            <AltitudeMeters>1169.199951171875</AltitudeMeters>
            <DistanceMeters>NAN</DistanceMeters>
          </Trackpoint>
          <Trackpoint>
            <Time>2019-08-01T12:29:30.000Z</Time>
            <Position>
              <LatitudeDegrees>40.7288089580833911895751953125</LatitudeDegrees>
              <LongitudeDegrees>-4.04180240817368030548095703125</LongitudeDegrees>
            </Position>
            <AltitudeMeters>1168.199951171875</AltitudeMeters>
            <DistanceMeters>NAN</DistanceMeters>
          </Trackpoint>
          <Trackpoint>
            <Time>2019-08-01T12:29:31.000Z</Time>
            <Position>
              <LatitudeDegrees>40.728753469884395599365234375</LatitudeDegrees>
              <LongitudeDegrees>-4.0419714711606502532958984375</LongitudeDegrees>
            </Position>
            <AltitudeMeters>1167.199951171875</AltitudeMeters>
            <DistanceMeters>NAN</DistanceMeters>
          </Trackpoint>
          <Trackpoint>
            <Time>2019-08-01T12:29:32.000Z</Time>
            <Position>
              <LatitudeDegrees>40.72868716903030872344970703125</LatitudeDegrees>
              <LongitudeDegrees>-4.04213198460638523101806640625</LongitudeDegrees>
            </Position>
            <AltitudeMeters>1165.4000244140625</AltitudeMeters>
            <DistanceMeters>NAN</DistanceMeters>
          </Trackpoint>
          <Trackpoint>
            <Time>2019-08-01T12:29:33.000Z</Time>
            <Position>
              <LatitudeDegrees>40.72861072607338428497314453125</LatitudeDegrees>
              <LongitudeDegrees>-4.04228411614894866943359375</LongitudeDegrees>
            </Position>
            <AltitudeMeters>1164.5999755859375</AltitudeMeters>
            <DistanceMeters>NAN</DistanceMeters>
          </Trackpoint>
          <Trackpoint>
            <Time>2019-08-01T12:29:34.000Z</Time>
            <Position>
              <LatitudeDegrees>40.72852506302297115325927734375</LatitudeDegrees>
              <LongitudeDegrees>-4.04242786578834056854248046875</LongitudeDegrees>
            </Position>
            <AltitudeMeters>1164</AltitudeMeters>
            <DistanceMeters>NAN</DistanceMeters>
          </Trackpoint>
          <Trackpoint>
            <Time>2019-08-01T12:29:35.000Z</Time>
            <Position>
              <LatitudeDegrees>40.72843420319259166717529296875</LatitudeDegrees>
              <LongitudeDegrees>-4.04256650246679782867431640625</LongitudeDegrees>
            </Position>
            <AltitudeMeters>1162.199951171875</AltitudeMeters>
            <DistanceMeters>NAN</DistanceMeters>
          </Trackpoint>
          <Trackpoint>
            <Time>2019-08-01T12:29:36.000Z</Time>
            <Position>
              <LatitudeDegrees>40.728341080248355865478515625</LatitudeDegrees>
              <LongitudeDegrees>-4.0427023731172084808349609375</LongitudeDegrees>
            </Position>
            <AltitudeMeters>1161.199951171875</AltitudeMeters>
            <DistanceMeters>NAN</DistanceMeters>
          </Trackpoint>
          <Trackpoint>
            <Time>2019-08-01T12:29:37.000Z</Time>
            <Position>
              <LatitudeDegrees>40.728341080248355865478515625</LatitudeDegrees>
              <LongitudeDegrees>-4.0427023731172084808349609375</LongitudeDegrees>
            </Position>
            <AltitudeMeters>1160.5999755859375</AltitudeMeters>
            <DistanceMeters>NAN</DistanceMeters>
          </Trackpoint>
          <Trackpoint>
            <Time>2019-08-01T12:29:38.000Z</Time>
            <Position>
              <LatitudeDegrees>40.72814938612282276153564453125</LatitudeDegrees>
              <LongitudeDegrees>-4.04296447522938251495361328125</LongitudeDegrees>
            </Position>
            <AltitudeMeters>1159.800048828125</AltitudeMeters>
            <DistanceMeters>NAN</DistanceMeters>
          </Trackpoint>
          <Trackpoint>
            <Time>2019-08-01T12:29:39.000Z</Time>
            <Position>
              <LatitudeDegrees>40.7280497252941131591796875</LatitudeDegrees>
              <LongitudeDegrees>-4.04308483935892581939697265625</LongitudeDegrees>
            </Position>
            <AltitudeMeters>1159</AltitudeMeters>
            <DistanceMeters>NAN</DistanceMeters>
          </Trackpoint>
          <Trackpoint>
            <Time>2019-08-01T12:29:40.000Z</Time>
            <Position>
              <LatitudeDegrees>40.727937407791614532470703125</LatitudeDegrees>
              <LongitudeDegrees>-4.04320277273654937744140625</LongitudeDegrees>
            </Position>
            <AltitudeMeters>1158.199951171875</AltitudeMeters>
            <DistanceMeters>NAN</DistanceMeters>
          </Trackpoint>
          <Trackpoint>
            <Time>2019-08-01T12:29:41.000Z</Time>
            <Position>
              <LatitudeDegrees>40.72782852686941623687744140625</LatitudeDegrees>
              <LongitudeDegrees>-4.04330913908779621124267578125</LongitudeDegrees>
            </Position>
            <AltitudeMeters>1157.4000244140625</AltitudeMeters>
            <DistanceMeters>NAN</DistanceMeters>
          </Trackpoint>
          <Trackpoint>
            <Time>2019-08-01T12:29:42.000Z</Time>
            <Position>
              <LatitudeDegrees>40.72771905921399593353271484375</LatitudeDegrees>
              <LongitudeDegrees>-4.043412990868091583251953125</LongitudeDegrees>
            </Position>
            <AltitudeMeters>1156.5999755859375</AltitudeMeters>
            <DistanceMeters>NAN</DistanceMeters>
          </Trackpoint>
          <Trackpoint>
            <Time>2019-08-01T12:29:43.000Z</Time>
            <Position>
              <LatitudeDegrees>40.7276098430156707763671875</LatitudeDegrees>
              <LongitudeDegrees>-4.04352002777159214019775390625</LongitudeDegrees>
            </Position>
            <AltitudeMeters>1156.199951171875</AltitudeMeters>
            <DistanceMeters>NAN</DistanceMeters>
          </Trackpoint>
          <Trackpoint>
            <Time>2019-08-01T12:29:44.000Z</Time>
            <Position>
              <LatitudeDegrees>40.7275070808827877044677734375</LatitudeDegrees>
              <LongitudeDegrees>-4.0436398051679134368896484375</LongitudeDegrees>
            </Position>
            <AltitudeMeters>1155</AltitudeMeters>
            <DistanceMeters>NAN</DistanceMeters>
          </Trackpoint>
          <Trackpoint>
            <Time>2019-08-01T12:29:45.000Z</Time>
            <Position>
              <LatitudeDegrees>40.72741664014756679534912109375</LatitudeDegrees>
              <LongitudeDegrees>-4.0437774360179901123046875</LongitudeDegrees>
            </Position>
            <AltitudeMeters>1153.4000244140625</AltitudeMeters>
            <DistanceMeters>NAN</DistanceMeters>
          </Trackpoint>
          <Trackpoint>
            <Time>2019-08-01T12:29:46.000Z</Time>
            <Position>
              <LatitudeDegrees>40.7273572124540805816650390625</LatitudeDegrees>
              <LongitudeDegrees>-4.04393979348242282867431640625</LongitudeDegrees>
            </Position>
            <AltitudeMeters>1152</AltitudeMeters>
            <DistanceMeters>NAN</DistanceMeters>
          </Trackpoint>
          <Trackpoint>
            <Time>2019-08-01T12:29:47.000Z</Time>
            <Position>
              <LatitudeDegrees>40.72731773369014263153076171875</LatitudeDegrees>
              <LongitudeDegrees>-4.044112376868724822998046875</LongitudeDegrees>
            </Position>
            <AltitudeMeters>1151.4000244140625</AltitudeMeters>
            <DistanceMeters>NAN</DistanceMeters>
          </Trackpoint>
          <Trackpoint>
            <Time>2019-08-01T12:29:48.000Z</Time>
            <Position>
              <LatitudeDegrees>40.7272824458777904510498046875</LatitudeDegrees>
              <LongitudeDegrees>-4.04428143985569477081298828125</LongitudeDegrees>
            </Position>
            <AltitudeMeters>1150.800048828125</AltitudeMeters>
            <DistanceMeters>NAN</DistanceMeters>
          </Trackpoint>
          <Trackpoint>
            <Time>2019-08-01T12:29:49.000Z</Time>
            <Position>
              <LatitudeDegrees>40.7272425480186939239501953125</LatitudeDegrees>
              <LongitudeDegrees>-4.04444505460560321807861328125</LongitudeDegrees>
            </Position>
            <AltitudeMeters>1150.199951171875</AltitudeMeters>
            <DistanceMeters>NAN</DistanceMeters>
          </Trackpoint>
          <Trackpoint>
            <Time>2019-08-01T12:29:50.000Z</Time>
            <Position>
              <LatitudeDegrees>40.7271942682564258575439453125</LatitudeDegrees>
              <LongitudeDegrees>-4.0446017123758792877197265625</LongitudeDegrees>
            </Position>
            <AltitudeMeters>1149.4000244140625</AltitudeMeters>
            <DistanceMeters>NAN</DistanceMeters>
          </Trackpoint>
          <Trackpoint>
            <Time>2019-08-01T12:29:51.000Z</Time>
            <Position>
              <LatitudeDegrees>40.7271412946283817291259765625</LatitudeDegrees>
              <LongitudeDegrees>-4.04475384391844272613525390625</LongitudeDegrees>
            </Position>
            <AltitudeMeters>1148.4000244140625</AltitudeMeters>
            <DistanceMeters>NAN</DistanceMeters>
          </Trackpoint>
          <Trackpoint>
            <Time>2019-08-01T12:29:52.000Z</Time>
            <Position>
              <LatitudeDegrees>40.72708354331552982330322265625</LatitudeDegrees>
              <LongitudeDegrees>-4.04490471817553043365478515625</LongitudeDegrees>
            </Position>
            <AltitudeMeters>1147.5999755859375</AltitudeMeters>
            <DistanceMeters>NAN</DistanceMeters>
          </Trackpoint>
          <Trackpoint>
            <Time>2019-08-01T12:29:53.000Z</Time>
            <Position>
              <LatitudeDegrees>40.72702218778431415557861328125</LatitudeDegrees>
              <LongitudeDegrees>-4.04505483806133270263671875</LongitudeDegrees>
            </Position>
            <AltitudeMeters>1146.800048828125</AltitudeMeters>
            <DistanceMeters>NAN</DistanceMeters>
          </Trackpoint>
          <Trackpoint>
            <Time>2019-08-01T12:29:54.000Z</Time>
            <Position>
              <LatitudeDegrees>40.7269635982811450958251953125</LatitudeDegrees>
              <LongitudeDegrees>-4.0452031977474689483642578125</LongitudeDegrees>
            </Position>
            <AltitudeMeters>1146.4000244140625</AltitudeMeters>
            <DistanceMeters>NAN</DistanceMeters>
          </Trackpoint>
          <Trackpoint>
            <Time>2019-08-01T12:29:55.000Z</Time>
            <Position>
              <LatitudeDegrees>40.72690702043473720550537109375</LatitudeDegrees>
              <LongitudeDegrees>-4.04535013251006603240966796875</LongitudeDegrees>
            </Position>
            <AltitudeMeters>1145.800048828125</AltitudeMeters>
            <DistanceMeters>NAN</DistanceMeters>
          </Trackpoint>
          <Trackpoint>
            <Time>2019-08-01T12:29:56.000Z</Time>
            <Position>
              <LatitudeDegrees>40.72685371153056621551513671875</LatitudeDegrees>
              <LongitudeDegrees>-4.0454967319965362548828125</LongitudeDegrees>
            </Position>
            <AltitudeMeters>1144.800048828125</AltitudeMeters>
            <DistanceMeters>NAN</DistanceMeters>
          </Trackpoint>
          <Trackpoint>
            <Time>2019-08-01T12:29:57.000Z</Time>
            <Position>
              <LatitudeDegrees>40.7268009893596172332763671875</LatitudeDegrees>
              <LongitudeDegrees>-4.04564081691205501556396484375</LongitudeDegrees>
            </Position>
            <AltitudeMeters>1144.4000244140625</AltitudeMeters>
            <DistanceMeters>NAN</DistanceMeters>
          </Trackpoint>
          <Trackpoint>
            <Time>2019-08-01T12:29:58.000Z</Time>
            <Position>
              <LatitudeDegrees>40.72674826718866825103759765625</LatitudeDegrees>
              <LongitudeDegrees>-4.04578213579952716827392578125</LongitudeDegrees>
            </Position>
            <AltitudeMeters>1144</AltitudeMeters>
            <DistanceMeters>NAN</DistanceMeters>
          </Trackpoint>
          <Trackpoint>
            <Time>2019-08-01T12:29:59.000Z</Time>
            <Position>
              <LatitudeDegrees>40.7266953773796558380126953125</LatitudeDegrees>
              <LongitudeDegrees>-4.045922197401523590087890625</LongitudeDegrees>
            </Position>
            <AltitudeMeters>1143.5999755859375</AltitudeMeters>
            <DistanceMeters>NAN</DistanceMeters>
          </Trackpoint>
          <Trackpoint>
            <Time>2019-08-01T12:30:00.000Z</Time>
            <Position>
              <LatitudeDegrees>40.7266469299793243408203125</LatitudeDegrees>
              <LongitudeDegrees>-4.04605907388031482696533203125</LongitudeDegrees>
            </Position>
            <AltitudeMeters>1143.4000244140625</AltitudeMeters>
            <DistanceMeters>NAN</DistanceMeters>
          </Trackpoint>
          <Trackpoint>
            <Time>2019-08-01T12:30:01.000Z</Time>
            <Position>
              <LatitudeDegrees>40.7266013324260711669921875</LatitudeDegrees>
              <LongitudeDegrees>-4.0461939387023448944091796875</LongitudeDegrees>
            </Position>
            <AltitudeMeters>1143</AltitudeMeters>
            <DistanceMeters>NAN</DistanceMeters>
          </Trackpoint>
          <Trackpoint>
            <Time>2019-08-01T12:30:02.000Z</Time>
            <Position>
              <LatitudeDegrees>40.7265569083392620086669921875</LatitudeDegrees>
              <LongitudeDegrees>-4.04632561840116977691650390625</LongitudeDegrees>
            </Position>
            <AltitudeMeters>1142.4000244140625</AltitudeMeters>
            <DistanceMeters>NAN</DistanceMeters>
          </Trackpoint>
          <Trackpoint>
            <Time>2019-08-01T12:30:03.000Z</Time>
            <Position>
              <LatitudeDegrees>40.7265155017375946044921875</LatitudeDegrees>
              <LongitudeDegrees>-4.0464531071484088897705078125</LongitudeDegrees>
            </Position>
            <AltitudeMeters>1142</AltitudeMeters>
            <DistanceMeters>NAN</DistanceMeters>
          </Trackpoint>
          <Trackpoint>
            <Time>2019-08-01T12:30:04.000Z</Time>
            <Position>
              <LatitudeDegrees>40.72646881453692913055419921875</LatitudeDegrees>
              <LongitudeDegrees>-4.04657808132469654083251953125</LongitudeDegrees>
            </Position>
            <AltitudeMeters>1141.800048828125</AltitudeMeters>
            <DistanceMeters>NAN</DistanceMeters>
          </Trackpoint>
          <Trackpoint>
            <Time>2019-08-01T12:30:05.000Z</Time>
            <Position>
              <LatitudeDegrees>40.72641952894628047943115234375</LatitudeDegrees>
              <LongitudeDegrees>-4.04670028947293758392333984375</LongitudeDegrees>
            </Position>
            <AltitudeMeters>1141.199951171875</AltitudeMeters>
            <DistanceMeters>NAN</DistanceMeters>
          </Trackpoint>
          <Trackpoint>
            <Time>2019-08-01T12:30:06.000Z</Time>
            <Position>
              <LatitudeDegrees>40.726368315517902374267578125</LatitudeDegrees>
              <LongitudeDegrees>-4.04681964777410030364990234375</LongitudeDegrees>
            </Position>
            <AltitudeMeters>1141</AltitudeMeters>
            <DistanceMeters>NAN</DistanceMeters>
          </Trackpoint>
          <Trackpoint>
            <Time>2019-08-01T12:30:07.000Z</Time>
            <Position>
              <LatitudeDegrees>40.726311989128589630126953125</LatitudeDegrees>
              <LongitudeDegrees>-4.04693774878978729248046875</LongitudeDegrees>
            </Position>
            <AltitudeMeters>1140.800048828125</AltitudeMeters>
            <DistanceMeters>NAN</DistanceMeters>
          </Trackpoint>
          <Trackpoint>
            <Time>2019-08-01T12:30:08.000Z</Time>
            <Position>
              <LatitudeDegrees>40.72625331580638885498046875</LatitudeDegrees>
              <LongitudeDegrees>-4.04705584980547428131103515625</LongitudeDegrees>
            </Position>
            <AltitudeMeters>1140.5999755859375</AltitudeMeters>
            <DistanceMeters>NAN</DistanceMeters>
          </Trackpoint>
          <Trackpoint>
            <Time>2019-08-01T12:30:09.000Z</Time>
            <Position>
              <LatitudeDegrees>40.72619506157934665679931640625</LatitudeDegrees>
              <LongitudeDegrees>-4.047177471220493316650390625</LongitudeDegrees>
            </Position>
            <AltitudeMeters>1140.4000244140625</AltitudeMeters>
            <DistanceMeters>NAN</DistanceMeters>
          </Trackpoint>
          <Trackpoint>
            <Time>2019-08-01T12:30:10.000Z</Time>
            <Position>
              <LatitudeDegrees>40.7261415012180805206298828125</LatitudeDegrees>
              <LongitudeDegrees>-4.047302193939685821533203125</LongitudeDegrees>
            </Position>
            <AltitudeMeters>1140.199951171875</AltitudeMeters>
            <DistanceMeters>NAN</DistanceMeters>
          </Trackpoint>
          <Trackpoint>
            <Time>2019-08-01T12:30:11.000Z</Time>
            <Position>
              <LatitudeDegrees>40.72609506547451019287109375</LatitudeDegrees>
              <LongitudeDegrees>-4.04742700047791004180908203125</LongitudeDegrees>
            </Position>
            <AltitudeMeters>1140.199951171875</AltitudeMeters>
            <DistanceMeters>NAN</DistanceMeters>
          </Trackpoint>
          <Trackpoint>
            <Time>2019-08-01T12:30:12.000Z</Time>
            <Position>
              <LatitudeDegrees>40.72605424560606479644775390625</LatitudeDegrees>
              <LongitudeDegrees>-4.0475497953593730926513671875</LongitudeDegrees>
            </Position>
            <AltitudeMeters>1139.800048828125</AltitudeMeters>
            <DistanceMeters>NAN</DistanceMeters>
          </Trackpoint>
          <Trackpoint>
            <Time>2019-08-01T12:30:13.000Z</Time>
            <Position>
              <LatitudeDegrees>40.72601862251758575439453125</LatitudeDegrees>
              <LongitudeDegrees>-4.04766605235636234283447265625</LongitudeDegrees>
            </Position>
            <AltitudeMeters>1139.5999755859375</AltitudeMeters>
            <DistanceMeters>NAN</DistanceMeters>
          </Trackpoint>
          <Trackpoint>
            <Time>2019-08-01T12:30:14.000Z</Time>
            <Position>
              <LatitudeDegrees>40.72598601691424846649169921875</LatitudeDegrees>
              <LongitudeDegrees>-4.0477730892598628997802734375</LongitudeDegrees>
            </Position>
            <AltitudeMeters>1139.4000244140625</AltitudeMeters>
            <DistanceMeters>NAN</DistanceMeters>
          </Trackpoint>
          <Trackpoint>
            <Time>2019-08-01T12:30:15.000Z</Time>
            <Position>
              <LatitudeDegrees>40.7259473763406276702880859375</LatitudeDegrees>
              <LongitudeDegrees>-4.04787828214466571807861328125</LongitudeDegrees>
            </Position>
            <AltitudeMeters>1139.199951171875</AltitudeMeters>
            <DistanceMeters>NAN</DistanceMeters>
          </Trackpoint>
          <Trackpoint>
            <Time>2019-08-01T12:30:16.000Z</Time>
            <Position>
              <LatitudeDegrees>40.72590605355799198150634765625</LatitudeDegrees>
              <LongitudeDegrees>-4.04797635041177272796630859375</LongitudeDegrees>
            </Position>
            <AltitudeMeters>1139.199951171875</AltitudeMeters>
            <DistanceMeters>NAN</DistanceMeters>
          </Trackpoint>
          <Trackpoint>
            <Time>2019-08-01T12:30:17.000Z</Time>
            <Position>
              <LatitudeDegrees>40.7258622162044048309326171875</LatitudeDegrees>
              <LongitudeDegrees>-4.04807232320308685302734375</LongitudeDegrees>
            </Position>
            <AltitudeMeters>1139.199951171875</AltitudeMeters>
            <DistanceMeters>NAN</DistanceMeters>
          </Trackpoint>
          <Trackpoint>
            <Time>2019-08-01T12:30:18.000Z</Time>
            <Position>
              <LatitudeDegrees>40.725816786289215087890625</LatitudeDegrees>
              <LongitudeDegrees>-4.04816888272762298583984375</LongitudeDegrees>
            </Position>
            <AltitudeMeters>1139.4000244140625</AltitudeMeters>
            <DistanceMeters>NAN</DistanceMeters>
          </Trackpoint>
          <Trackpoint>
            <Time>2019-08-01T12:30:19.000Z</Time>
            <Position>
              <LatitudeDegrees>40.7257706858217716217041015625</LatitudeDegrees>
              <LongitudeDegrees>-4.04826334677636623382568359375</LongitudeDegrees>
            </Position>
            <AltitudeMeters>1139.4000244140625</AltitudeMeters>
            <DistanceMeters>NAN</DistanceMeters>
          </Trackpoint>
          <Trackpoint>
            <Time>2019-08-01T12:30:20.000Z</Time>
            <Position>
              <LatitudeDegrees>40.72572550736367702484130859375</LatitudeDegrees>
              <LongitudeDegrees>-4.048354290425777435302734375</LongitudeDegrees>
            </Position>
            <AltitudeMeters>1139.4000244140625</AltitudeMeters>
            <DistanceMeters>NAN</DistanceMeters>
          </Trackpoint>
          <Trackpoint>
            <Time>2019-08-01T12:30:21.000Z</Time>
            <Position>
              <LatitudeDegrees>40.72568108327686786651611328125</LatitudeDegrees>
              <LongitudeDegrees>-4.04844137839972972869873046875</LongitudeDegrees>
            </Position>
            <AltitudeMeters>1139.5999755859375</AltitudeMeters>
            <DistanceMeters>NAN</DistanceMeters>
          </Trackpoint>
          <Trackpoint>
            <Time>2019-08-01T12:30:22.000Z</Time>
            <Position>
              <LatitudeDegrees>40.72563515044748783111572265625</LatitudeDegrees>
              <LongitudeDegrees>-4.048525281250476837158203125</LongitudeDegrees>
            </Position>
            <AltitudeMeters>1139.5999755859375</AltitudeMeters>
            <DistanceMeters>NAN</DistanceMeters>
          </Trackpoint>
          <Trackpoint>
            <Time>2019-08-01T12:30:23.000Z</Time>
            <Position>
              <LatitudeDegrees>40.72558754123747348785400390625</LatitudeDegrees>
              <LongitudeDegrees>-4.0486069209873676300048828125</LongitudeDegrees>
            </Position>
            <AltitudeMeters>1139.5999755859375</AltitudeMeters>
            <DistanceMeters>NAN</DistanceMeters>
          </Trackpoint>
          <Trackpoint>
            <Time>2019-08-01T12:30:24.000Z</Time>
            <Position>
              <LatitudeDegrees>40.725537501275539398193359375</LatitudeDegrees>
              <LongitudeDegrees>-4.04868646524846553802490234375</LongitudeDegrees>
            </Position>
            <AltitudeMeters>1139.800048828125</AltitudeMeters>
            <DistanceMeters>NAN</DistanceMeters>
          </Trackpoint>
          <Trackpoint>
            <Time>2019-08-01T12:30:25.000Z</Time>
            <Position>
              <LatitudeDegrees>40.7254853658378124237060546875</LatitudeDegrees>
              <LongitudeDegrees>-4.04876357875764369964599609375</LongitudeDegrees>
            </Position>
            <AltitudeMeters>1139.800048828125</AltitudeMeters>
            <DistanceMeters>NAN</DistanceMeters>
          </Trackpoint>
          <Trackpoint>
            <Time>2019-08-01T12:30:26.000Z</Time>
            <Position>
              <LatitudeDegrees>40.7254300452768802642822265625</LatitudeDegrees>
              <LongitudeDegrees>-4.0488385967910289764404296875</LongitudeDegrees>
            </Position>
            <AltitudeMeters>1139.800048828125</AltitudeMeters>
            <DistanceMeters>NAN</DistanceMeters>
          </Trackpoint>
          <Trackpoint>
            <Time>2019-08-01T12:30:27.000Z</Time>
            <Position>
              <LatitudeDegrees>40.7253720425069332122802734375</LatitudeDegrees>
              <LongitudeDegrees>-4.04891042970120906829833984375</LongitudeDegrees>
            </Position>
            <AltitudeMeters>1140</AltitudeMeters>
            <DistanceMeters>NAN</DistanceMeters>
          </Trackpoint>
          <Trackpoint>
            <Time>2019-08-01T12:30:28.000Z</Time>
            <Position>
              <LatitudeDegrees>40.72531077079474925994873046875</LatitudeDegrees>
              <LongitudeDegrees>-4.0489794127643108367919921875</LongitudeDegrees>
            </Position>
            <AltitudeMeters>1140.199951171875</AltitudeMeters>
            <DistanceMeters>NAN</DistanceMeters>
          </Trackpoint>
          <Trackpoint>
            <Time>2019-08-01T12:30:29.000Z</Time>
            <Position>
              <LatitudeDegrees>40.7252459786832332611083984375</LatitudeDegrees>
              <LongitudeDegrees>-4.04904688708484172821044921875</LongitudeDegrees>
            </Position>
            <AltitudeMeters>1140.199951171875</AltitudeMeters>
            <DistanceMeters>NAN</DistanceMeters>
          </Trackpoint>
          <Trackpoint>
            <Time>2019-08-01T12:30:30.000Z</Time>
            <Position>
              <LatitudeDegrees>40.72518068365752696990966796875</LatitudeDegrees>
              <LongitudeDegrees>-4.04911167919635772705078125</LongitudeDegrees>
            </Position>
            <AltitudeMeters>1140.199951171875</AltitudeMeters>
            <DistanceMeters>NAN</DistanceMeters>
          </Trackpoint>
          <Trackpoint>
            <Time>2019-08-01T12:30:31.000Z</Time>
            <Position>
              <LatitudeDegrees>40.7251142151653766632080078125</LatitudeDegrees>
              <LongitudeDegrees>-4.049176387488842010498046875</LongitudeDegrees>
            </Position>
            <AltitudeMeters>1140.199951171875</AltitudeMeters>
            <DistanceMeters>NAN</DistanceMeters>
          </Trackpoint>
          <Trackpoint>
            <Time>2019-08-01T12:30:32.000Z</Time>
            <Position>
              <LatitudeDegrees>40.7250461541116237640380859375</LatitudeDegrees>
              <LongitudeDegrees>-4.04923983849585056304931640625</LongitudeDegrees>
            </Position>
            <AltitudeMeters>1140.199951171875</AltitudeMeters>
            <DistanceMeters>NAN</DistanceMeters>
          </Trackpoint>
          <Trackpoint>
            <Time>2019-08-01T12:30:33.000Z</Time>
            <Position>
              <LatitudeDegrees>40.7249760814011096954345703125</LatitudeDegrees>
              <LongitudeDegrees>-4.0493019483983516693115234375</LongitudeDegrees>
            </Position>
            <AltitudeMeters>1140.199951171875</AltitudeMeters>
            <DistanceMeters>NAN</DistanceMeters>
          </Trackpoint>
          <Trackpoint>
            <Time>2019-08-01T12:30:34.000Z</Time>
            <Position>
              <LatitudeDegrees>40.724904499948024749755859375</LatitudeDegrees>
              <LongitudeDegrees>-4.0493649803102016448974609375</LongitudeDegrees>
            </Position>
            <AltitudeMeters>1140.199951171875</AltitudeMeters>
            <DistanceMeters>NAN</DistanceMeters>
          </Trackpoint>
          <Trackpoint>
            <Time>2019-08-01T12:30:35.000Z</Time>
            <Position>
              <LatitudeDegrees>40.724834091961383819580078125</LatitudeDegrees>
              <LongitudeDegrees>-4.04942725785076618194580078125</LongitudeDegrees>
            </Position>
            <AltitudeMeters>1140.199951171875</AltitudeMeters>
            <DistanceMeters>NAN</DistanceMeters>
          </Trackpoint>
          <Trackpoint>
            <Time>2019-08-01T12:30:36.000Z</Time>
            <Position>
              <LatitudeDegrees>40.72476125322282314300537109375</LatitudeDegrees>
              <LongitudeDegrees>-4.04948911629617214202880859375</LongitudeDegrees>
            </Position>
            <AltitudeMeters>1140.199951171875</AltitudeMeters>
            <DistanceMeters>NAN</DistanceMeters>
          </Trackpoint>
          <Trackpoint>
            <Time>2019-08-01T12:30:37.000Z</Time>
            <Position>
              <LatitudeDegrees>40.72468766011297702789306640625</LatitudeDegrees>
              <LongitudeDegrees>-4.04954980127513408660888671875</LongitudeDegrees>
            </Position>
            <AltitudeMeters>1140.199951171875</AltitudeMeters>
            <DistanceMeters>NAN</DistanceMeters>
          </Trackpoint>
          <Trackpoint>
            <Time>2019-08-01T12:30:38.000Z</Time>
            <Position>
              <LatitudeDegrees>40.7246139831840991973876953125</LatitudeDegrees>
              <LongitudeDegrees>-4.049610234797000885009765625</LongitudeDegrees>
            </Position>
            <AltitudeMeters>1140.199951171875</AltitudeMeters>
            <DistanceMeters>NAN</DistanceMeters>
          </Trackpoint>
          <Trackpoint>
            <Time>2019-08-01T12:30:39.000Z</Time>
            <Position>
              <LatitudeDegrees>40.7245405577123165130615234375</LatitudeDegrees>
              <LongitudeDegrees>-4.04966823756694793701171875</LongitudeDegrees>
            </Position>
            <AltitudeMeters>1140.199951171875</AltitudeMeters>
            <DistanceMeters>NAN</DistanceMeters>
          </Trackpoint>
          <Trackpoint>
            <Time>2019-08-01T12:30:40.000Z</Time>
            <Position>
              <LatitudeDegrees>40.724465958774089813232421875</LatitudeDegrees>
              <LongitudeDegrees>-4.04972414486110210418701171875</LongitudeDegrees>
            </Position>
            <AltitudeMeters>1140</AltitudeMeters>
            <DistanceMeters>NAN</DistanceMeters>
          </Trackpoint>
          <Trackpoint>
            <Time>2019-08-01T12:30:41.000Z</Time>
            <Position>
              <LatitudeDegrees>40.72438892908394336700439453125</LatitudeDegrees>
              <LongitudeDegrees>-4.04977820813655853271484375</LongitudeDegrees>
            </Position>
            <AltitudeMeters>1140</AltitudeMeters>
            <DistanceMeters>NAN</DistanceMeters>
          </Trackpoint>
          <Trackpoint>
            <Time>2019-08-01T12:30:42.000Z</Time>
            <Position>
              <LatitudeDegrees>40.7243092171847820281982421875</LatitudeDegrees>
              <LongitudeDegrees>-4.04982958920300006866455078125</LongitudeDegrees>
            </Position>
            <AltitudeMeters>1139.4000244140625</AltitudeMeters>
            <DistanceMeters>NAN</DistanceMeters>
          </Trackpoint>
          <Trackpoint>
            <Time>2019-08-01T12:30:43.000Z</Time>
            <Position>
              <LatitudeDegrees>40.72422715835273265838623046875</LatitudeDegrees>
              <LongitudeDegrees>-4.04987719841301441192626953125</LongitudeDegrees>
            </Position>
            <AltitudeMeters>1139</AltitudeMeters>
            <DistanceMeters>NAN</DistanceMeters>
          </Trackpoint>
          <Trackpoint>
            <Time>2019-08-01T12:30:44.000Z</Time>
            <Position>
              <LatitudeDegrees>40.72414233349263668060302734375</LatitudeDegrees>
              <LongitudeDegrees>-4.04992028139531612396240234375</LongitudeDegrees>
            </Position>
            <AltitudeMeters>1138.5999755859375</AltitudeMeters>
            <DistanceMeters>NAN</DistanceMeters>
          </Trackpoint>
          <Trackpoint>
            <Time>2019-08-01T12:30:45.000Z</Time>
            <Position>
              <LatitudeDegrees>40.7240534014999866485595703125</LatitudeDegrees>
              <LongitudeDegrees>-4.04995657503604888916015625</LongitudeDegrees>
            </Position>
            <AltitudeMeters>1138.4000244140625</AltitudeMeters>
            <DistanceMeters>NAN</DistanceMeters>
          </Trackpoint>
          <Trackpoint>
            <Time>2019-08-01T12:30:46.000Z</Time>
            <Position>
              <LatitudeDegrees>40.72395960800349712371826171875</LatitudeDegrees>
              <LongitudeDegrees>-4.049985073506832122802734375</LongitudeDegrees>
            </Position>
            <AltitudeMeters>1138.199951171875</AltitudeMeters>
            <DistanceMeters>NAN</DistanceMeters>
          </Trackpoint>
          <Trackpoint>
            <Time>2019-08-01T12:30:47.000Z</Time>
            <Position>
              <LatitudeDegrees>40.72386187501251697540283203125</LatitudeDegrees>
              <LongitudeDegrees>-4.05000560916960239410400390625</LongitudeDegrees>
            </Position>
            <AltitudeMeters>1138</AltitudeMeters>
            <DistanceMeters>NAN</DistanceMeters>
          </Trackpoint>
          <Trackpoint>
            <Time>2019-08-01T12:30:48.000Z</Time>
            <Position>
              <LatitudeDegrees>40.723761878907680511474609375</LatitudeDegrees>
              <LongitudeDegrees>-4.05001834966242313385009765625</LongitudeDegrees>
            </Position>
            <AltitudeMeters>1138</AltitudeMeters>
            <DistanceMeters>NAN</DistanceMeters>
          </Trackpoint>
          <Trackpoint>
            <Time>2019-08-01T12:30:49.000Z</Time>
            <Position>
              <LatitudeDegrees>40.723659954965114593505859375</LatitudeDegrees>
              <LongitudeDegrees>-4.05002622865140438079833984375</LongitudeDegrees>
            </Position>
            <AltitudeMeters>1137.5999755859375</AltitudeMeters>
            <DistanceMeters>NAN</DistanceMeters>
          </Trackpoint>
          <Trackpoint>
            <Time>2019-08-01T12:30:51.000Z</Time>
            <Position>
              <LatitudeDegrees>40.72345216758549213409423828125</LatitudeDegrees>
              <LongitudeDegrees>-4.05002840794622898101806640625</LongitudeDegrees>
            </Position>
            <AltitudeMeters>1136.4000244140625</AltitudeMeters>
            <DistanceMeters>NAN</DistanceMeters>
          </Trackpoint>
          <Trackpoint>
            <Time>2019-08-01T12:30:52.000Z</Time>
            <Position>
              <LatitudeDegrees>40.7233463041484355926513671875</LatitudeDegrees>
              <LongitudeDegrees>-4.05002237297594547271728515625</LongitudeDegrees>
            </Position>
            <AltitudeMeters>1136</AltitudeMeters>
            <DistanceMeters>NAN</DistanceMeters>
          </Trackpoint>
          <Trackpoint>
            <Time>2019-08-01T12:30:53.000Z</Time>
            <Position>
              <LatitudeDegrees>40.7232391834259033203125</LatitudeDegrees>
              <LongitudeDegrees>-4.05001449398696422576904296875</LongitudeDegrees>
            </Position>
            <AltitudeMeters>1135.5999755859375</AltitudeMeters>
            <DistanceMeters>NAN</DistanceMeters>
          </Trackpoint>
          <Trackpoint>
            <Time>2019-08-01T12:30:54.000Z</Time>
            <Position>
              <LatitudeDegrees>40.72313114069402217864990234375</LatitudeDegrees>
              <LongitudeDegrees>-4.05000661499798297882080078125</LongitudeDegrees>
            </Position>
            <AltitudeMeters>1135.4000244140625</AltitudeMeters>
            <DistanceMeters>NAN</DistanceMeters>
          </Trackpoint>
          <Trackpoint>
            <Time>2019-08-01T12:30:55.000Z</Time>
            <Position>
              <LatitudeDegrees>40.72302184067666530609130859375</LatitudeDegrees>
              <LongitudeDegrees>-4.04999722726643085479736328125</LongitudeDegrees>
            </Position>
            <AltitudeMeters>1135</AltitudeMeters>
            <DistanceMeters>NAN</DistanceMeters>
          </Trackpoint>
          <Trackpoint>
            <Time>2019-08-01T12:30:56.000Z</Time>
            <Position>
              <LatitudeDegrees>40.72291203774511814117431640625</LatitudeDegrees>
              <LongitudeDegrees>-4.04998867772519588470458984375</LongitudeDegrees>
            </Position>
            <AltitudeMeters>1134</AltitudeMeters>
            <DistanceMeters>NAN</DistanceMeters>
          </Trackpoint>
          <Trackpoint>
            <Time>2019-08-01T12:30:57.000Z</Time>
            <Position>
              <LatitudeDegrees>40.72280206717550754547119140625</LatitudeDegrees>
              <LongitudeDegrees>-4.0499787032604217529296875</LongitudeDegrees>
            </Position>
            <AltitudeMeters>1133.4000244140625</AltitudeMeters>
            <DistanceMeters>NAN</DistanceMeters>
          </Trackpoint>
          <Trackpoint>
            <Time>2019-08-01T12:30:58.000Z</Time>
            <Position>
              <LatitudeDegrees>40.72269243188202381134033203125</LatitudeDegrees>
              <LongitudeDegrees>-4.049968980252742767333984375</LongitudeDegrees>
            </Position>
            <AltitudeMeters>1133</AltitudeMeters>
            <DistanceMeters>NAN</DistanceMeters>
          </Trackpoint>
          <Trackpoint>
            <Time>2019-08-01T12:30:59.000Z</Time>
            <Position>
              <LatitudeDegrees>40.72258346714079380035400390625</LatitudeDegrees>
              <LongitudeDegrees>-4.04996168799698352813720703125</LongitudeDegrees>
            </Position>
            <AltitudeMeters>1132.5999755859375</AltitudeMeters>
            <DistanceMeters>NAN</DistanceMeters>
          </Trackpoint>
          <Trackpoint>
            <Time>2019-08-01T12:31:00.000Z</Time>
            <Position>
              <LatitudeDegrees>40.7224735803902149200439453125</LatitudeDegrees>
              <LongitudeDegrees>-4.04995716176927089691162109375</LongitudeDegrees>
            </Position>
            <AltitudeMeters>1132.199951171875</AltitudeMeters>
            <DistanceMeters>NAN</DistanceMeters>
          </Trackpoint>
          <Trackpoint>
            <Time>2019-08-01T12:31:01.000Z</Time>
            <Position>
              <LatitudeDegrees>40.72236218489706516265869140625</LatitudeDegrees>
              <LongitudeDegrees>-4.04995783232152462005615234375</LongitudeDegrees>
            </Position>
            <AltitudeMeters>1131.4000244140625</AltitudeMeters>
            <DistanceMeters>NAN</DistanceMeters>
          </Trackpoint>
          <Trackpoint>
            <Time>2019-08-01T12:31:02.000Z</Time>
            <Position>
              <LatitudeDegrees>40.7222499512135982513427734375</LatitudeDegrees>
              <LongitudeDegrees>-4.04997291974723339080810546875</LongitudeDegrees>
            </Position>
            <AltitudeMeters>1130.800048828125</AltitudeMeters>
            <DistanceMeters>NAN</DistanceMeters>
          </Trackpoint>
          <Trackpoint>
            <Time>2019-08-01T12:31:03.000Z</Time>
            <Position>
              <LatitudeDegrees>40.7221416570246219635009765625</LatitudeDegrees>
              <LongitudeDegrees>-4.0500140748918056488037109375</LongitudeDegrees>
            </Position>
            <AltitudeMeters>1130.199951171875</AltitudeMeters>
            <DistanceMeters>NAN</DistanceMeters>
          </Trackpoint>
          <Trackpoint>
            <Time>2019-08-01T12:31:04.000Z</Time>
            <Position>
              <LatitudeDegrees>40.722043924033641815185546875</LatitudeDegrees>
              <LongitudeDegrees>-4.05008708126842975616455078125</LongitudeDegrees>
            </Position>
            <AltitudeMeters>1129.5999755859375</AltitudeMeters>
            <DistanceMeters>NAN</DistanceMeters>
          </Trackpoint>
          <Trackpoint>
            <Time>2019-08-01T12:31:05.000Z</Time>
            <Position>
              <LatitudeDegrees>40.72196052409708499908447265625</LatitudeDegrees>
              <LongitudeDegrees>-4.050185568630695343017578125</LongitudeDegrees>
            </Position>
            <AltitudeMeters>1128.800048828125</AltitudeMeters>
            <DistanceMeters>NAN</DistanceMeters>
          </Trackpoint>
          <Trackpoint>
            <Time>2019-08-01T12:31:06.000Z</Time>
            <Position>
              <LatitudeDegrees>40.72188911028206348419189453125</LatitudeDegrees>
              <LongitudeDegrees>-4.05030283145606517791748046875</LongitudeDegrees>
            </Position>
            <AltitudeMeters>1128.199951171875</AltitudeMeters>
            <DistanceMeters>NAN</DistanceMeters>
          </Trackpoint>
          <Trackpoint>
            <Time>2019-08-01T12:31:07.000Z</Time>
            <Position>
              <LatitudeDegrees>40.72182272560894489288330078125</LatitudeDegrees>
              <LongitudeDegrees>-4.05042638070881366729736328125</LongitudeDegrees>
            </Position>
            <AltitudeMeters>1127.5999755859375</AltitudeMeters>
            <DistanceMeters>NAN</DistanceMeters>
          </Trackpoint>
          <Trackpoint>
            <Time>2019-08-01T12:31:08.000Z</Time>
            <Position>
              <LatitudeDegrees>40.72175600565969944000244140625</LatitudeDegrees>
              <LongitudeDegrees>-4.05055177398025989532470703125</LongitudeDegrees>
            </Position>
            <AltitudeMeters>1127</AltitudeMeters>
            <DistanceMeters>NAN</DistanceMeters>
          </Trackpoint>
          <Trackpoint>
            <Time>2019-08-01T12:31:09.000Z</Time>
            <Position>
              <LatitudeDegrees>40.72169062681496143341064453125</LatitudeDegrees>
              <LongitudeDegrees>-4.05068018473684787750244140625</LongitudeDegrees>
            </Position>
            <AltitudeMeters>1126.5999755859375</AltitudeMeters>
            <DistanceMeters>NAN</DistanceMeters>
          </Trackpoint>
          <Trackpoint>
            <Time>2019-08-01T12:31:10.000Z</Time>
            <Position>
              <LatitudeDegrees>40.7216263376176357269287109375</LatitudeDegrees>
              <LongitudeDegrees>-4.050811193883419036865234375</LongitudeDegrees>
            </Position>
            <AltitudeMeters>1126.4000244140625</AltitudeMeters>
            <DistanceMeters>NAN</DistanceMeters>
          </Trackpoint>
          <Trackpoint>
            <Time>2019-08-01T12:31:11.000Z</Time>
            <Position>
              <LatitudeDegrees>40.72155953384935855865478515625</LatitudeDegrees>
              <LongitudeDegrees>-4.05094019137322902679443359375</LongitudeDegrees>
            </Position>
            <AltitudeMeters>1125.4000244140625</AltitudeMeters>
            <DistanceMeters>NAN</DistanceMeters>
          </Trackpoint>
          <Trackpoint>
            <Time>2019-08-01T12:31:12.000Z</Time>
            <Position>
              <LatitudeDegrees>40.72148577310144901275634765625</LatitudeDegrees>
              <LongitudeDegrees>-4.05106189660727977752685546875</LongitudeDegrees>
            </Position>
            <AltitudeMeters>1124.800048828125</AltitudeMeters>
            <DistanceMeters>NAN</DistanceMeters>
          </Trackpoint>
          <Trackpoint>
            <Time>2019-08-01T12:31:13.000Z</Time>
            <Position>
              <LatitudeDegrees>40.7214020378887653350830078125</LatitudeDegrees>
              <LongitudeDegrees>-4.051173292100429534912109375</LongitudeDegrees>
            </Position>
            <AltitudeMeters>1124.4000244140625</AltitudeMeters>
            <DistanceMeters>NAN</DistanceMeters>
          </Trackpoint>
          <Trackpoint>
            <Time>2019-08-01T12:31:14.000Z</Time>
            <Position>
              <LatitudeDegrees>40.721310675144195556640625</LatitudeDegrees>
              <LongitudeDegrees>-4.0512773953378200531005859375</LongitudeDegrees>
            </Position>
            <AltitudeMeters>1124</AltitudeMeters>
            <DistanceMeters>NAN</DistanceMeters>
          </Trackpoint>
          <Trackpoint>
            <Time>2019-08-01T12:31:15.000Z</Time>
            <Position>
              <LatitudeDegrees>40.72121486999094486236572265625</LatitudeDegrees>
              <LongitudeDegrees>-4.05137948691844940185546875</LongitudeDegrees>
            </Position>
            <AltitudeMeters>1124</AltitudeMeters>
            <DistanceMeters>NAN</DistanceMeters>
          </Trackpoint>
          <Trackpoint>
            <Time>2019-08-01T12:31:16.000Z</Time>
            <Position>
              <LatitudeDegrees>40.72111445479094982147216796875</LatitudeDegrees>
              <LongitudeDegrees>-4.0514802373945713043212890625</LongitudeDegrees>
            </Position>
            <AltitudeMeters>1123.800048828125</AltitudeMeters>
            <DistanceMeters>NAN</DistanceMeters>
          </Trackpoint>
          <Trackpoint>
            <Time>2019-08-01T12:31:17.000Z</Time>
            <Position>
              <LatitudeDegrees>40.7210131175816059112548828125</LatitudeDegrees>
              <LongitudeDegrees>-4.05158241279423236846923828125</LongitudeDegrees>
            </Position>
            <AltitudeMeters>1123.5999755859375</AltitudeMeters>
            <DistanceMeters>NAN</DistanceMeters>
          </Trackpoint>
          <Trackpoint>
            <Time>2019-08-01T12:31:18.000Z</Time>
            <Position>
              <LatitudeDegrees>40.720911361277103424072265625</LatitudeDegrees>
              <LongitudeDegrees>-4.051688611507415771484375</LongitudeDegrees>
            </Position>
            <AltitudeMeters>1123.199951171875</AltitudeMeters>
            <DistanceMeters>NAN</DistanceMeters>
          </Trackpoint>
          <Trackpoint>
            <Time>2019-08-01T12:31:19.000Z</Time>
            <Position>
              <LatitudeDegrees>40.72081245481967926025390625</LatitudeDegrees>
              <LongitudeDegrees>-4.05179598368704319000244140625</LongitudeDegrees>
            </Position>
            <AltitudeMeters>1122.4000244140625</AltitudeMeters>
            <DistanceMeters>NAN</DistanceMeters>
          </Trackpoint>
          <Trackpoint>
            <Time>2019-08-01T12:31:20.000Z</Time>
            <Position>
              <LatitudeDegrees>40.720719583332538604736328125</LatitudeDegrees>
              <LongitudeDegrees>-4.051912240684032440185546875</LongitudeDegrees>
            </Position>
            <AltitudeMeters>1121.199951171875</AltitudeMeters>
            <DistanceMeters>NAN</DistanceMeters>
          </Trackpoint>
          <Trackpoint>
            <Time>2019-08-01T12:31:21.000Z</Time>
            <Position>
              <LatitudeDegrees>40.72063635103404521942138671875</LatitudeDegrees>
              <LongitudeDegrees>-4.05203889124095439910888671875</LongitudeDegrees>
            </Position>
            <AltitudeMeters>1119.800048828125</AltitudeMeters>
            <DistanceMeters>NAN</DistanceMeters>
          </Trackpoint>
          <Trackpoint>
            <Time>2019-08-01T12:31:22.000Z</Time>
            <Position>
              <LatitudeDegrees>40.7205651886761188507080078125</LatitudeDegrees>
              <LongitudeDegrees>-4.052171073853969573974609375</LongitudeDegrees>
            </Position>
            <AltitudeMeters>1118.800048828125</AltitudeMeters>
            <DistanceMeters>NAN</DistanceMeters>
          </Trackpoint>
          <Trackpoint>
            <Time>2019-08-01T12:31:23.000Z</Time>
            <Position>
              <LatitudeDegrees>40.7205034978687763214111328125</LatitudeDegrees>
              <LongitudeDegrees>-4.05230644159018993377685546875</LongitudeDegrees>
            </Position>
            <AltitudeMeters>1117.800048828125</AltitudeMeters>
            <DistanceMeters>NAN</DistanceMeters>
          </Trackpoint>
          <Trackpoint>
            <Time>2019-08-01T12:31:24.000Z</Time>
            <Position>
              <LatitudeDegrees>40.7204481773078441619873046875</LatitudeDegrees>
              <LongitudeDegrees>-4.05244491063058376312255859375</LongitudeDegrees>
            </Position>
            <AltitudeMeters>1116.800048828125</AltitudeMeters>
            <DistanceMeters>NAN</DistanceMeters>
          </Trackpoint>
          <Trackpoint>
            <Time>2019-08-01T12:31:25.000Z</Time>
            <Position>
              <LatitudeDegrees>40.72039595805108547210693359375</LatitudeDegrees>
              <LongitudeDegrees>-4.052587486803531646728515625</LongitudeDegrees>
            </Position>
            <AltitudeMeters>1116.199951171875</AltitudeMeters>
            <DistanceMeters>NAN</DistanceMeters>
          </Trackpoint>
          <Trackpoint>
            <Time>2019-08-01T12:31:26.000Z</Time>
            <Position>
              <LatitudeDegrees>40.72034281678497791290283203125</LatitudeDegrees>
              <LongitudeDegrees>-4.05273391865193843841552734375</LongitudeDegrees>
            </Position>
            <AltitudeMeters>1115.800048828125</AltitudeMeters>
            <DistanceMeters>NAN</DistanceMeters>
          </Trackpoint>
          <Trackpoint>
            <Time>2019-08-01T12:31:27.000Z</Time>
            <Position>
              <LatitudeDegrees>40.72028950788080692291259765625</LatitudeDegrees>
              <LongitudeDegrees>-4.052884541451930999755859375</LongitudeDegrees>
            </Position>
            <AltitudeMeters>1115.5999755859375</AltitudeMeters>
            <DistanceMeters>NAN</DistanceMeters>
          </Trackpoint>
          <Trackpoint>
            <Time>2019-08-01T12:31:28.000Z</Time>
            <Position>
              <LatitudeDegrees>40.7202339358627796173095703125</LatitudeDegrees>
              <LongitudeDegrees>-4.053036086261272430419921875</LongitudeDegrees>
            </Position>
            <AltitudeMeters>1115.199951171875</AltitudeMeters>
            <DistanceMeters>NAN</DistanceMeters>
          </Trackpoint>
          <Trackpoint>
            <Time>2019-08-01T12:31:29.000Z</Time>
            <Position>
              <LatitudeDegrees>40.72017299942672252655029296875</LatitudeDegrees>
              <LongitudeDegrees>-4.053185284137725830078125</LongitudeDegrees>
            </Position>
            <AltitudeMeters>1114.800048828125</AltitudeMeters>
            <DistanceMeters>NAN</DistanceMeters>
          </Trackpoint>
          <Trackpoint>
            <Time>2019-08-01T12:31:30.000Z</Time>
            <Position>
              <LatitudeDegrees>40.720100663602352142333984375</LatitudeDegrees>
              <LongitudeDegrees>-4.0533255971968173980712890625</LongitudeDegrees>
            </Position>
            <AltitudeMeters>1114.800048828125</AltitudeMeters>
            <DistanceMeters>NAN</DistanceMeters>
          </Trackpoint>
          <Trackpoint>
            <Time>2019-08-01T12:31:31.000Z</Time>
            <Position>
              <LatitudeDegrees>40.72001047432422637939453125</LatitudeDegrees>
              <LongitudeDegrees>-4.0534479729831218719482421875</LongitudeDegrees>
            </Position>
            <AltitudeMeters>1114.800048828125</AltitudeMeters>
            <DistanceMeters>NAN</DistanceMeters>
          </Trackpoint>
          <Trackpoint>
            <Time>2019-08-01T12:31:32.000Z</Time>
            <Position>
              <LatitudeDegrees>40.7199057005345821380615234375</LatitudeDegrees>
              <LongitudeDegrees>-4.05355299822986125946044921875</LongitudeDegrees>
            </Position>
            <AltitudeMeters>1114.4000244140625</AltitudeMeters>
            <DistanceMeters>NAN</DistanceMeters>
          </Trackpoint>
          <Trackpoint>
            <Time>2019-08-01T12:31:33.000Z</Time>
            <Position>
              <LatitudeDegrees>40.71979212574660778045654296875</LatitudeDegrees>
              <LongitudeDegrees>-4.0536477975547313690185546875</LongitudeDegrees>
            </Position>
            <AltitudeMeters>1114</AltitudeMeters>
            <DistanceMeters>NAN</DistanceMeters>
          </Trackpoint>
          <Trackpoint>
            <Time>2019-08-01T12:31:34.000Z</Time>
            <Position>
              <LatitudeDegrees>40.71967561729252338409423828125</LatitudeDegrees>
              <LongitudeDegrees>-4.0537383221089839935302734375</LongitudeDegrees>
            </Position>
            <AltitudeMeters>1113.4000244140625</AltitudeMeters>
            <DistanceMeters>NAN</DistanceMeters>
          </Trackpoint>
          <Trackpoint>
            <Time>2019-08-01T12:31:35.000Z</Time>
            <Position>
              <LatitudeDegrees>40.719557516276836395263671875</LatitudeDegrees>
              <LongitudeDegrees>-4.05383144505321979522705078125</LongitudeDegrees>
            </Position>
            <AltitudeMeters>1112.199951171875</AltitudeMeters>
            <DistanceMeters>NAN</DistanceMeters>
          </Trackpoint>
          <Trackpoint>
            <Time>2019-08-01T12:31:36.000Z</Time>
            <Position>
              <LatitudeDegrees>40.71943991817533969879150390625</LatitudeDegrees>
              <LongitudeDegrees>-4.05392465181648731231689453125</LongitudeDegrees>
            </Position>
            <AltitudeMeters>1111.4000244140625</AltitudeMeters>
            <DistanceMeters>NAN</DistanceMeters>
          </Trackpoint>
          <Trackpoint>
            <Time>2019-08-01T12:31:37.000Z</Time>
            <Position>
              <LatitudeDegrees>40.71932290680706501007080078125</LatitudeDegrees>
              <LongitudeDegrees>-4.05401919968426227569580078125</LongitudeDegrees>
            </Position>
            <AltitudeMeters>1110.4000244140625</AltitudeMeters>
            <DistanceMeters>NAN</DistanceMeters>
          </Trackpoint>
          <Trackpoint>
            <Time>2019-08-01T12:31:38.000Z</Time>
            <Position>
              <LatitudeDegrees>40.7192116789519786834716796875</LatitudeDegrees>
              <LongitudeDegrees>-4.05412514694035053253173828125</LongitudeDegrees>
            </Position>
            <AltitudeMeters>1108.4000244140625</AltitudeMeters>
            <DistanceMeters>NAN</DistanceMeters>
          </Trackpoint>
          <Trackpoint>
            <Time>2019-08-01T12:31:39.000Z</Time>
            <Position>
              <LatitudeDegrees>40.7191131077706813812255859375</LatitudeDegrees>
              <LongitudeDegrees>-4.0542502887547016143798828125</LongitudeDegrees>
            </Position>
            <AltitudeMeters>1107.4000244140625</AltitudeMeters>
            <DistanceMeters>NAN</DistanceMeters>
          </Trackpoint>
          <Trackpoint>
            <Time>2019-08-01T12:31:40.000Z</Time>
            <Position>
              <LatitudeDegrees>40.7190309651196002960205078125</LatitudeDegrees>
              <LongitudeDegrees>-4.05439169146120548248291015625</LongitudeDegrees>
            </Position>
            <AltitudeMeters>1106.4000244140625</AltitudeMeters>
            <DistanceMeters>NAN</DistanceMeters>
          </Trackpoint>
          <Trackpoint>
            <Time>2019-08-01T12:31:41.000Z</Time>
            <Position>
              <LatitudeDegrees>40.71896952576935291290283203125</LatitudeDegrees>
              <LongitudeDegrees>-4.0545453317463397979736328125</LongitudeDegrees>
            </Position>
            <AltitudeMeters>1105.5999755859375</AltitudeMeters>
            <DistanceMeters>NAN</DistanceMeters>
          </Trackpoint>
          <Trackpoint>
            <Time>2019-08-01T12:31:42.000Z</Time>
            <Position>
              <LatitudeDegrees>40.71896952576935291290283203125</LatitudeDegrees>
              <LongitudeDegrees>-4.0545453317463397979736328125</LongitudeDegrees>
            </Position>
            <AltitudeMeters>1104.199951171875</AltitudeMeters>
            <DistanceMeters>NAN</DistanceMeters>
          </Trackpoint>
          <Trackpoint>
            <Time>2019-08-01T12:31:43.000Z</Time>
            <Position>
              <LatitudeDegrees>40.71891822852194309234619140625</LatitudeDegrees>
              <LongitudeDegrees>-4.0548678673803806304931640625</LongitudeDegrees>
            </Position>
            <AltitudeMeters>1103.4000244140625</AltitudeMeters>
            <DistanceMeters>NAN</DistanceMeters>
          </Trackpoint>
          <Trackpoint>
            <Time>2019-08-01T12:31:44.000Z</Time>
            <Position>
              <LatitudeDegrees>40.71890984661877155303955078125</LatitudeDegrees>
              <LongitudeDegrees>-4.0550277940928936004638671875</LongitudeDegrees>
            </Position>
            <AltitudeMeters>1102.199951171875</AltitudeMeters>
            <DistanceMeters>NAN</DistanceMeters>
          </Trackpoint>
          <Trackpoint>
            <Time>2019-08-01T12:31:45.000Z</Time>
            <Position>
              <LatitudeDegrees>40.71890984661877155303955078125</LatitudeDegrees>
              <LongitudeDegrees>-4.0550277940928936004638671875</LongitudeDegrees>
            </Position>
            <AltitudeMeters>1101.5999755859375</AltitudeMeters>
            <DistanceMeters>NAN</DistanceMeters>
          </Trackpoint>
          <Trackpoint>
            <Time>2019-08-01T12:31:46.000Z</Time>
            <Position>
              <LatitudeDegrees>40.718895010650157928466796875</LatitudeDegrees>
              <LongitudeDegrees>-4.05533482320606708526611328125</LongitudeDegrees>
            </Position>
            <AltitudeMeters>1101.199951171875</AltitudeMeters>
            <DistanceMeters>NAN</DistanceMeters>
          </Trackpoint>
          <Trackpoint>
            <Time>2019-08-01T12:31:47.000Z</Time>
            <Position>
              <LatitudeDegrees>40.7188881374895572662353515625</LatitudeDegrees>
              <LongitudeDegrees>-4.0554814226925373077392578125</LongitudeDegrees>
            </Position>
            <AltitudeMeters>1101</AltitudeMeters>
            <DistanceMeters>NAN</DistanceMeters>
          </Trackpoint>
          <Trackpoint>
            <Time>2019-08-01T12:31:48.000Z</Time>
            <Position>
              <LatitudeDegrees>40.71887849830090999603271484375</LatitudeDegrees>
              <LongitudeDegrees>-4.05562500469386577606201171875</LongitudeDegrees>
            </Position>
            <AltitudeMeters>1100.800048828125</AltitudeMeters>
            <DistanceMeters>NAN</DistanceMeters>
          </Trackpoint>
          <Trackpoint>
            <Time>2019-08-01T12:31:49.000Z</Time>
            <Position>
              <LatitudeDegrees>40.71886726655066013336181640625</LatitudeDegrees>
              <LongitudeDegrees>-4.05576598830521106719970703125</LongitudeDegrees>
            </Position>
            <AltitudeMeters>1100.800048828125</AltitudeMeters>
            <DistanceMeters>NAN</DistanceMeters>
          </Trackpoint>
          <Trackpoint>
            <Time>2019-08-01T12:31:50.000Z</Time>
            <Position>
              <LatitudeDegrees>40.718852765858173370361328125</LatitudeDegrees>
              <LongitudeDegrees>-4.05590579845011234283447265625</LongitudeDegrees>
            </Position>
            <AltitudeMeters>1100.800048828125</AltitudeMeters>
            <DistanceMeters>NAN</DistanceMeters>
          </Trackpoint>
          <Trackpoint>
            <Time>2019-08-01T12:31:51.000Z</Time>
            <Position>
              <LatitudeDegrees>40.71883340366184711456298828125</LatitudeDegrees>
              <LongitudeDegrees>-4.05604460276663303375244140625</LongitudeDegrees>
            </Position>
            <AltitudeMeters>1100.800048828125</AltitudeMeters>
            <DistanceMeters>NAN</DistanceMeters>
          </Trackpoint>
          <Trackpoint>
            <Time>2019-08-01T12:31:52.000Z</Time>
            <Position>
              <LatitudeDegrees>40.71880892850458621978759765625</LatitudeDegrees>
              <LongitudeDegrees>-4.05618332326412200927734375</LongitudeDegrees>
            </Position>
            <AltitudeMeters>1100.5999755859375</AltitudeMeters>
            <DistanceMeters>NAN</DistanceMeters>
          </Trackpoint>
          <Trackpoint>
            <Time>2019-08-01T12:31:53.000Z</Time>
            <Position>
              <LatitudeDegrees>40.71880892850458621978759765625</LatitudeDegrees>
              <LongitudeDegrees>-4.05618332326412200927734375</LongitudeDegrees>
            </Position>
            <AltitudeMeters>1100.4000244140625</AltitudeMeters>
            <DistanceMeters>NAN</DistanceMeters>
          </Trackpoint>
          <Trackpoint>
            <Time>2019-08-01T12:31:54.000Z</Time>
            <Position>
              <LatitudeDegrees>40.7187469862401485443115234375</LatitudeDegrees>
              <LongitudeDegrees>-4.0564654581248760223388671875</LongitudeDegrees>
            </Position>
            <AltitudeMeters>1100.4000244140625</AltitudeMeters>
            <DistanceMeters>NAN</DistanceMeters>
          </Trackpoint>
          <Trackpoint>
            <Time>2019-08-01T12:31:55.000Z</Time>
            <Position>
              <LatitudeDegrees>40.71871228516101837158203125</LatitudeDegrees>
              <LongitudeDegrees>-4.05661004595458507537841796875</LongitudeDegrees>
            </Position>
            <AltitudeMeters>1100.199951171875</AltitudeMeters>
            <DistanceMeters>NAN</DistanceMeters>
          </Trackpoint>
          <Trackpoint>
            <Time>2019-08-01T12:31:56.000Z</Time>
            <Position>
              <LatitudeDegrees>40.71867766790091991424560546875</LatitudeDegrees>
              <LongitudeDegrees>-4.056756310164928436279296875</LongitudeDegrees>
            </Position>
            <AltitudeMeters>1100.199951171875</AltitudeMeters>
            <DistanceMeters>NAN</DistanceMeters>
          </Trackpoint>
          <Trackpoint>
            <Time>2019-08-01T12:31:57.000Z</Time>
            <Position>
              <LatitudeDegrees>40.71864212863147258758544921875</LatitudeDegrees>
              <LongitudeDegrees>-4.0569039992988109588623046875</LongitudeDegrees>
            </Position>
            <AltitudeMeters>1100</AltitudeMeters>
            <DistanceMeters>NAN</DistanceMeters>
          </Trackpoint>
          <Trackpoint>
            <Time>2019-08-01T12:31:58.000Z</Time>
            <Position>
              <LatitudeDegrees>40.71860541589558124542236328125</LatitudeDegrees>
              <LongitudeDegrees>-4.05705193988978862762451171875</LongitudeDegrees>
            </Position>
            <AltitudeMeters>1100</AltitudeMeters>
            <DistanceMeters>NAN</DistanceMeters>
          </Trackpoint>
          <Trackpoint>
            <Time>2019-08-01T12:31:59.000Z</Time>
            <Position>
              <LatitudeDegrees>40.718573816120624542236328125</LatitudeDegrees>
              <LongitudeDegrees>-4.05719996429979801177978515625</LongitudeDegrees>
            </Position>
            <AltitudeMeters>1100</AltitudeMeters>
            <DistanceMeters>NAN</DistanceMeters>
          </Trackpoint>
          <Trackpoint>
            <Time>2019-08-01T12:32:00.000Z</Time>
            <Position>
              <LatitudeDegrees>40.718545652925968170166015625</LatitudeDegrees>
              <LongitudeDegrees>-4.0573465637862682342529296875</LongitudeDegrees>
            </Position>
            <AltitudeMeters>1100</AltitudeMeters>
            <DistanceMeters>NAN</DistanceMeters>
          </Trackpoint>
          <Trackpoint>
            <Time>2019-08-01T12:32:01.000Z</Time>
            <Position>
              <LatitudeDegrees>40.7185153104364871978759765625</LatitudeDegrees>
              <LongitudeDegrees>-4.05749115161597728729248046875</LongitudeDegrees>
            </Position>
            <AltitudeMeters>1100</AltitudeMeters>
            <DistanceMeters>NAN</DistanceMeters>
          </Trackpoint>
          <Trackpoint>
            <Time>2019-08-01T12:32:03.000Z</Time>
            <Position>
              <LatitudeDegrees>40.71846845559775829315185546875</LatitudeDegrees>
              <LongitudeDegrees>-4.05776976607739925384521484375</LongitudeDegrees>
            </Position>
            <AltitudeMeters>1098</AltitudeMeters>
            <DistanceMeters>NAN</DistanceMeters>
          </Trackpoint>
          <Trackpoint>
            <Time>2019-08-01T12:32:04.000Z</Time>
            <Position>
              <LatitudeDegrees>40.7184500992298126220703125</LatitudeDegrees>
              <LongitudeDegrees>-4.05790538527071475982666015625</LongitudeDegrees>
            </Position>
            <AltitudeMeters>1097</AltitudeMeters>
            <DistanceMeters>NAN</DistanceMeters>
          </Trackpoint>
          <Trackpoint>
            <Time>2019-08-01T12:32:05.000Z</Time>
            <Position>
              <LatitudeDegrees>40.7184371910989284515380859375</LatitudeDegrees>
              <LongitudeDegrees>-4.05804066918790340423583984375</LongitudeDegrees>
            </Position>
            <AltitudeMeters>1096</AltitudeMeters>
            <DistanceMeters>NAN</DistanceMeters>
          </Trackpoint>
          <Trackpoint>
            <Time>2019-08-01T12:32:06.000Z</Time>
            <Position>
              <LatitudeDegrees>40.71842906065285205841064453125</LatitudeDegrees>
              <LongitudeDegrees>-4.0581755340099334716796875</LongitudeDegrees>
            </Position>
            <AltitudeMeters>1094.5999755859375</AltitudeMeters>
            <DistanceMeters>NAN</DistanceMeters>
          </Trackpoint>
          <Trackpoint>
            <Time>2019-08-01T12:32:07.000Z</Time>
            <Position>
              <LatitudeDegrees>40.71842470206320285797119140625</LatitudeDegrees>
              <LongitudeDegrees>-4.05831106938421726226806640625</LongitudeDegrees>
            </Position>
            <AltitudeMeters>1094.199951171875</AltitudeMeters>
            <DistanceMeters>NAN</DistanceMeters>
          </Trackpoint>
          <Trackpoint>
            <Time>2019-08-01T12:32:08.000Z</Time>
            <Position>
              <LatitudeDegrees>40.7184247858822345733642578125</LatitudeDegrees>
              <LongitudeDegrees>-4.058446101844310760498046875</LongitudeDegrees>
            </Position>
            <AltitudeMeters>1094</AltitudeMeters>
            <DistanceMeters>NAN</DistanceMeters>
          </Trackpoint>
          <Trackpoint>
            <Time>2019-08-01T12:32:09.000Z</Time>
            <Position>
              <LatitudeDegrees>40.71842822246253490447998046875</LatitudeDegrees>
              <LongitudeDegrees>-4.0585807152092456817626953125</LongitudeDegrees>
            </Position>
            <AltitudeMeters>1094</AltitudeMeters>
            <DistanceMeters>NAN</DistanceMeters>
          </Trackpoint>
          <Trackpoint>
            <Time>2019-08-01T12:32:10.000Z</Time>
            <Position>
              <LatitudeDegrees>40.718433670699596405029296875</LatitudeDegrees>
              <LongitudeDegrees>-4.05871532857418060302734375</LongitudeDegrees>
            </Position>
            <AltitudeMeters>1094</AltitudeMeters>
            <DistanceMeters>NAN</DistanceMeters>
          </Trackpoint>
          <Trackpoint>
            <Time>2019-08-01T12:32:11.000Z</Time>
            <Position>
              <LatitudeDegrees>40.71844012476503849029541015625</LatitudeDegrees>
              <LongitudeDegrees>-4.05884969048202037811279296875</LongitudeDegrees>
            </Position>
            <AltitudeMeters>1094</AltitudeMeters>
            <DistanceMeters>NAN</DistanceMeters>
          </Trackpoint>
          <Trackpoint>
            <Time>2019-08-01T12:32:12.000Z</Time>
            <Position>
              <LatitudeDegrees>40.7184495963156223297119140625</LatitudeDegrees>
              <LongitudeDegrees>-4.058984220027923583984375</LongitudeDegrees>
            </Position>
            <AltitudeMeters>1094</AltitudeMeters>
            <DistanceMeters>NAN</DistanceMeters>
          </Trackpoint>
          <Trackpoint>
            <Time>2019-08-01T12:32:13.000Z</Time>
            <Position>
              <LatitudeDegrees>40.7184608280658721923828125</LatitudeDegrees>
              <LongitudeDegrees>-4.059119336307048797607421875</LongitudeDegrees>
            </Position>
            <AltitudeMeters>1093.800048828125</AltitudeMeters>
            <DistanceMeters>NAN</DistanceMeters>
          </Trackpoint>
          <Trackpoint>
            <Time>2019-08-01T12:32:14.000Z</Time>
            <Position>
              <LatitudeDegrees>40.71847164072096347808837890625</LatitudeDegrees>
              <LongitudeDegrees>-4.05925520695745944976806640625</LongitudeDegrees>
            </Position>
            <AltitudeMeters>1093.800048828125</AltitudeMeters>
            <DistanceMeters>NAN</DistanceMeters>
          </Trackpoint>
          <Trackpoint>
            <Time>2019-08-01T12:32:15.000Z</Time>
            <Position>
              <LatitudeDegrees>40.71848337538540363311767578125</LatitudeDegrees>
              <LongitudeDegrees>-4.05939300544559955596923828125</LongitudeDegrees>
            </Position>
            <AltitudeMeters>1093.5999755859375</AltitudeMeters>
            <DistanceMeters>NAN</DistanceMeters>
          </Trackpoint>
          <Trackpoint>
            <Time>2019-08-01T12:32:16.000Z</Time>
            <Position>
              <LatitudeDegrees>40.7184955291450023651123046875</LatitudeDegrees>
              <LongitudeDegrees>-4.05953180976212024688720703125</LongitudeDegrees>
            </Position>
            <AltitudeMeters>1093.5999755859375</AltitudeMeters>
            <DistanceMeters>NAN</DistanceMeters>
          </Trackpoint>
          <Trackpoint>
            <Time>2019-08-01T12:32:17.000Z</Time>
            <Position>
              <LatitudeDegrees>40.71850466541945934295654296875</LatitudeDegrees>
              <LongitudeDegrees>-4.0596720390021800994873046875</LongitudeDegrees>
            </Position>
            <AltitudeMeters>1093.5999755859375</AltitudeMeters>
            <DistanceMeters>NAN</DistanceMeters>
          </Trackpoint>
          <Trackpoint>
            <Time>2019-08-01T12:32:18.000Z</Time>
            <Position>
              <LatitudeDegrees>40.71850835345685482025146484375</LatitudeDegrees>
              <LongitudeDegrees>-4.05981503427028656005859375</LongitudeDegrees>
            </Position>
            <AltitudeMeters>1093.5999755859375</AltitudeMeters>
            <DistanceMeters>NAN</DistanceMeters>
          </Trackpoint>
          <Trackpoint>
            <Time>2019-08-01T12:32:19.000Z</Time>
            <Position>
              <LatitudeDegrees>40.71850650943815708160400390625</LatitudeDegrees>
              <LongitudeDegrees>-4.0599597059190273284912109375</LongitudeDegrees>
            </Position>
            <AltitudeMeters>1093.800048828125</AltitudeMeters>
            <DistanceMeters>NAN</DistanceMeters>
          </Trackpoint>
          <Trackpoint>
            <Time>2019-08-01T12:32:20.000Z</Time>
            <Position>
              <LatitudeDegrees>40.71849980391561985015869140625</LatitudeDegrees>
              <LongitudeDegrees>-4.06010513193905353546142578125</LongitudeDegrees>
            </Position>
            <AltitudeMeters>1093.5999755859375</AltitudeMeters>
            <DistanceMeters>NAN</DistanceMeters>
          </Trackpoint>
          <Trackpoint>
            <Time>2019-08-01T12:32:21.000Z</Time>
            <Position>
              <LatitudeDegrees>40.7184881530702114105224609375</LatitudeDegrees>
              <LongitudeDegrees>-4.0602517314255237579345703125</LongitudeDegrees>
            </Position>
            <AltitudeMeters>1093.4000244140625</AltitudeMeters>
            <DistanceMeters>NAN</DistanceMeters>
          </Trackpoint>
          <Trackpoint>
            <Time>2019-08-01T12:32:22.000Z</Time>
            <Position>
              <LatitudeDegrees>40.718468539416790008544921875</LatitudeDegrees>
              <LongitudeDegrees>-4.0603982470929622650146484375</LongitudeDegrees>
            </Position>
            <AltitudeMeters>1093</AltitudeMeters>
            <DistanceMeters>NAN</DistanceMeters>
          </Trackpoint>
          <Trackpoint>
            <Time>2019-08-01T12:32:23.000Z</Time>
            <Position>
              <LatitudeDegrees>40.718441717326641082763671875</LatitudeDegrees>
              <LongitudeDegrees>-4.06054300256073474884033203125</LongitudeDegrees>
            </Position>
            <AltitudeMeters>1092.5999755859375</AltitudeMeters>
            <DistanceMeters>NAN</DistanceMeters>
          </Trackpoint>
          <Trackpoint>
            <Time>2019-08-01T12:32:24.000Z</Time>
            <Position>
              <LatitudeDegrees>40.718408189713954925537109375</LatitudeDegrees>
              <LongitudeDegrees>-4.0606869198381900787353515625</LongitudeDegrees>
            </Position>
            <AltitudeMeters>1092</AltitudeMeters>
            <DistanceMeters>NAN</DistanceMeters>
          </Trackpoint>
          <Trackpoint>
            <Time>2019-08-01T12:32:25.000Z</Time>
            <Position>
              <LatitudeDegrees>40.7183681242167949676513671875</LatitudeDegrees>
              <LongitudeDegrees>-4.06083025038242340087890625</LongitudeDegrees>
            </Position>
            <AltitudeMeters>1091.5999755859375</AltitudeMeters>
            <DistanceMeters>NAN</DistanceMeters>
          </Trackpoint>
          <Trackpoint>
            <Time>2019-08-01T12:32:26.000Z</Time>
            <Position>
              <LatitudeDegrees>40.7183205150067806243896484375</LatitudeDegrees>
              <LongitudeDegrees>-4.06097240746021270751953125</LongitudeDegrees>
            </Position>
            <AltitudeMeters>1091.199951171875</AltitudeMeters>
            <DistanceMeters>NAN</DistanceMeters>
          </Trackpoint>
          <Trackpoint>
            <Time>2019-08-01T12:32:27.000Z</Time>
            <Position>
              <LatitudeDegrees>40.71826376952230930328369140625</LatitudeDegrees>
              <LongitudeDegrees>-4.06111112795770168304443359375</LongitudeDegrees>
            </Position>
            <AltitudeMeters>1090.5999755859375</AltitudeMeters>
            <DistanceMeters>NAN</DistanceMeters>
          </Trackpoint>
          <Trackpoint>
            <Time>2019-08-01T12:32:28.000Z</Time>
            <Position>
              <LatitudeDegrees>40.71819872595369815826416015625</LatitudeDegrees>
              <LongitudeDegrees>-4.06124507077038288116455078125</LongitudeDegrees>
            </Position>
            <AltitudeMeters>1090</AltitudeMeters>
            <DistanceMeters>NAN</DistanceMeters>
          </Trackpoint>
          <Trackpoint>
            <Time>2019-08-01T12:32:29.000Z</Time>
            <Position>
              <LatitudeDegrees>40.718125887215137481689453125</LatitudeDegrees>
              <LongitudeDegrees>-4.061374403536319732666015625</LongitudeDegrees>
            </Position>
            <AltitudeMeters>1089.4000244140625</AltitudeMeters>
            <DistanceMeters>NAN</DistanceMeters>
          </Trackpoint>
          <Trackpoint>
            <Time>2019-08-01T12:32:30.000Z</Time>
            <Position>
              <LatitudeDegrees>40.71804667823016643524169921875</LatitudeDegrees>
              <LongitudeDegrees>-4.06149946153163909912109375</LongitudeDegrees>
            </Position>
            <AltitudeMeters>1088.800048828125</AltitudeMeters>
            <DistanceMeters>NAN</DistanceMeters>
          </Trackpoint>
          <Trackpoint>
            <Time>2019-08-01T12:32:31.000Z</Time>
            <Position>
              <LatitudeDegrees>40.71804667823016643524169921875</LatitudeDegrees>
              <LongitudeDegrees>-4.06149946153163909912109375</LongitudeDegrees>
            </Position>
            <AltitudeMeters>1087.800048828125</AltitudeMeters>
            <DistanceMeters>NAN</DistanceMeters>
          </Trackpoint>
          <Trackpoint>
            <Time>2019-08-01T12:32:32.000Z</Time>
            <Position>
              <LatitudeDegrees>40.71787501685321331024169921875</LatitudeDegrees>
              <LongitudeDegrees>-4.0617383457720279693603515625</LongitudeDegrees>
            </Position>
            <AltitudeMeters>1087</AltitudeMeters>
            <DistanceMeters>NAN</DistanceMeters>
          </Trackpoint>
          <Trackpoint>
            <Time>2019-08-01T12:32:33.000Z</Time>
            <Position>
              <LatitudeDegrees>40.7177840732038021087646484375</LatitudeDegrees>
              <LongitudeDegrees>-4.0618513338267803192138671875</LongitudeDegrees>
            </Position>
            <AltitudeMeters>1085.4000244140625</AltitudeMeters>
            <DistanceMeters>NAN</DistanceMeters>
          </Trackpoint>
          <Trackpoint>
            <Time>2019-08-01T12:32:34.000Z</Time>
            <Position>
              <LatitudeDegrees>40.7177840732038021087646484375</LatitudeDegrees>
              <LongitudeDegrees>-4.0618513338267803192138671875</LongitudeDegrees>
            </Position>
            <AltitudeMeters>1084.5999755859375</AltitudeMeters>
            <DistanceMeters>NAN</DistanceMeters>
          </Trackpoint>
          <Trackpoint>
            <Time>2019-08-01T12:32:35.000Z</Time>
            <Position>
              <LatitudeDegrees>40.71759707294404506683349609375</LatitudeDegrees>
              <LongitudeDegrees>-4.0620759688317775726318359375</LongitudeDegrees>
            </Position>
            <AltitudeMeters>1083.800048828125</AltitudeMeters>
            <DistanceMeters>NAN</DistanceMeters>
          </Trackpoint>
          <Trackpoint>
            <Time>2019-08-01T12:32:36.000Z</Time>
            <Position>
              <LatitudeDegrees>40.71750185452401638031005859375</LatitudeDegrees>
              <LongitudeDegrees>-4.0621872805058956146240234375</LongitudeDegrees>
            </Position>
            <AltitudeMeters>1083.4000244140625</AltitudeMeters>
            <DistanceMeters>NAN</DistanceMeters>
          </Trackpoint>
          <Trackpoint>
            <Time>2019-08-01T12:32:37.000Z</Time>
            <Position>
              <LatitudeDegrees>40.71740613318979740142822265625</LatitudeDegrees>
              <LongitudeDegrees>-4.062299095094203948974609375</LongitudeDegrees>
            </Position>
            <AltitudeMeters>1082.5999755859375</AltitudeMeters>
            <DistanceMeters>NAN</DistanceMeters>
          </Trackpoint>
          <Trackpoint>
            <Time>2019-08-01T12:32:38.000Z</Time>
            <Position>
              <LatitudeDegrees>40.71731041185557842254638671875</LatitudeDegrees>
              <LongitudeDegrees>-4.06241166405379772186279296875</LongitudeDegrees>
            </Position>
            <AltitudeMeters>1081.4000244140625</AltitudeMeters>
            <DistanceMeters>NAN</DistanceMeters>
          </Trackpoint>
          <Trackpoint>
            <Time>2019-08-01T12:32:39.000Z</Time>
            <Position>
              <LatitudeDegrees>40.7172144390642642974853515625</LatitudeDegrees>
              <LongitudeDegrees>-4.06252414919435977935791015625</LongitudeDegrees>
            </Position>
            <AltitudeMeters>1080.5999755859375</AltitudeMeters>
            <DistanceMeters>NAN</DistanceMeters>
          </Trackpoint>
          <Trackpoint>
            <Time>2019-08-01T12:32:40.000Z</Time>
            <Position>
              <LatitudeDegrees>40.71711771190166473388671875</LatitudeDegrees>
              <LongitudeDegrees>-4.06263646669685840606689453125</LongitudeDegrees>
            </Position>
            <AltitudeMeters>1079.5999755859375</AltitudeMeters>
            <DistanceMeters>NAN</DistanceMeters>
          </Trackpoint>
          <Trackpoint>
            <Time>2019-08-01T12:32:41.000Z</Time>
            <Position>
              <LatitudeDegrees>40.71702123619616031646728515625</LatitudeDegrees>
              <LongitudeDegrees>-4.06274861656129360198974609375</LongitudeDegrees>
            </Position>
            <AltitudeMeters>1078.4000244140625</AltitudeMeters>
            <DistanceMeters>NAN</DistanceMeters>
          </Trackpoint>
          <Trackpoint>
            <Time>2019-08-01T12:32:42.000Z</Time>
            <Position>
              <LatitudeDegrees>40.71692417375743389129638671875</LatitudeDegrees>
              <LongitudeDegrees>-4.06286009587347507476806640625</LongitudeDegrees>
            </Position>
            <AltitudeMeters>1077.5999755859375</AltitudeMeters>
            <DistanceMeters>NAN</DistanceMeters>
          </Trackpoint>
          <Trackpoint>
            <Time>2019-08-01T12:32:43.000Z</Time>
            <Position>
              <LatitudeDegrees>40.71682535111904144287109375</LatitudeDegrees>
              <LongitudeDegrees>-4.0629698149859905242919921875</LongitudeDegrees>
            </Position>
            <AltitudeMeters>1077</AltitudeMeters>
            <DistanceMeters>NAN</DistanceMeters>
          </Trackpoint>
          <Trackpoint>
            <Time>2019-08-01T12:32:44.000Z</Time>
            <Position>
              <LatitudeDegrees>40.7167242653667926788330078125</LatitudeDegrees>
              <LongitudeDegrees>-4.063076935708522796630859375</LongitudeDegrees>
            </Position>
            <AltitudeMeters>1076.199951171875</AltitudeMeters>
            <DistanceMeters>NAN</DistanceMeters>
          </Trackpoint>
          <Trackpoint>
            <Time>2019-08-01T12:32:45.000Z</Time>
            <Position>
              <LatitudeDegrees>40.71662175469100475311279296875</LatitudeDegrees>
              <LongitudeDegrees>-4.0631823800504207611083984375</LongitudeDegrees>
            </Position>
            <AltitudeMeters>1075.199951171875</AltitudeMeters>
            <DistanceMeters>NAN</DistanceMeters>
          </Trackpoint>
          <Trackpoint>
            <Time>2019-08-01T12:32:46.000Z</Time>
            <Position>
              <LatitudeDegrees>40.71651765145361423492431640625</LatitudeDegrees>
              <LongitudeDegrees>-4.06328656710684299468994140625</LongitudeDegrees>
            </Position>
            <AltitudeMeters>1074.5999755859375</AltitudeMeters>
            <DistanceMeters>NAN</DistanceMeters>
          </Trackpoint>
          <Trackpoint>
            <Time>2019-08-01T12:32:47.000Z</Time>
            <Position>
              <LatitudeDegrees>40.71641103364527225494384765625</LatitudeDegrees>
              <LongitudeDegrees>-4.0633870661258697509765625</LongitudeDegrees>
            </Position>
            <AltitudeMeters>1074</AltitudeMeters>
            <DistanceMeters>NAN</DistanceMeters>
          </Trackpoint>
          <Trackpoint>
            <Time>2019-08-01T12:32:48.000Z</Time>
            <Position>
              <LatitudeDegrees>40.71630022488534450531005859375</LatitudeDegrees>
              <LongitudeDegrees>-4.0634814463555812835693359375</LongitudeDegrees>
            </Position>
            <AltitudeMeters>1073.199951171875</AltitudeMeters>
            <DistanceMeters>NAN</DistanceMeters>
          </Trackpoint>
          <Trackpoint>
            <Time>2019-08-01T12:32:49.000Z</Time>
            <Position>
              <LatitudeDegrees>40.7161863148212432861328125</LatitudeDegrees>
              <LongitudeDegrees>-4.0635696239769458770751953125</LongitudeDegrees>
            </Position>
            <AltitudeMeters>1072.5999755859375</AltitudeMeters>
            <DistanceMeters>NAN</DistanceMeters>
          </Trackpoint>
          <Trackpoint>
            <Time>2019-08-01T12:32:50.000Z</Time>
            <Position>
              <LatitudeDegrees>40.7160704769194126129150390625</LatitudeDegrees>
              <LongitudeDegrees>-4.06365402974188327789306640625</LongitudeDegrees>
            </Position>
            <AltitudeMeters>1071.800048828125</AltitudeMeters>
            <DistanceMeters>NAN</DistanceMeters>
          </Trackpoint>
          <Trackpoint>
            <Time>2019-08-01T12:32:51.000Z</Time>
            <Position>
              <LatitudeDegrees>40.715952627360820770263671875</LatitudeDegrees>
              <LongitudeDegrees>-4.06373583711683750152587890625</LongitudeDegrees>
            </Position>
            <AltitudeMeters>1071.199951171875</AltitudeMeters>
            <DistanceMeters>NAN</DistanceMeters>
          </Trackpoint>
          <Trackpoint>
            <Time>2019-08-01T12:32:52.000Z</Time>
            <Position>
              <LatitudeDegrees>40.715832598507404327392578125</LatitudeDegrees>
              <LongitudeDegrees>-4.0638143755495548248291015625</LongitudeDegrees>
            </Position>
            <AltitudeMeters>1070.800048828125</AltitudeMeters>
            <DistanceMeters>NAN</DistanceMeters>
          </Trackpoint>
          <Trackpoint>
            <Time>2019-08-01T12:32:53.000Z</Time>
            <Position>
              <LatitudeDegrees>40.71571080945432186126708984375</LatitudeDegrees>
              <LongitudeDegrees>-4.06388872303068637847900390625</LongitudeDegrees>
            </Position>
            <AltitudeMeters>1070</AltitudeMeters>
            <DistanceMeters>NAN</DistanceMeters>
          </Trackpoint>
          <Trackpoint>
            <Time>2019-08-01T12:32:54.000Z</Time>
            <Position>
              <LatitudeDegrees>40.71558751165866851806640625</LatitudeDegrees>
              <LongitudeDegrees>-4.0639595501124858856201171875</LongitudeDegrees>
            </Position>
            <AltitudeMeters>1069.199951171875</AltitudeMeters>
            <DistanceMeters>NAN</DistanceMeters>
          </Trackpoint>
          <Trackpoint>
            <Time>2019-08-01T12:32:55.000Z</Time>
            <Position>
              <LatitudeDegrees>40.7154629565775394439697265625</LatitudeDegrees>
              <LongitudeDegrees>-4.06402400694787502288818359375</LongitudeDegrees>
            </Position>
            <AltitudeMeters>1068.4000244140625</AltitudeMeters>
            <DistanceMeters>NAN</DistanceMeters>
          </Trackpoint>
          <Trackpoint>
            <Time>2019-08-01T12:32:56.000Z</Time>
            <Position>
              <LatitudeDegrees>40.715337730944156646728515625</LatitudeDegrees>
              <LongitudeDegrees>-4.0640819258987903594970703125</LongitudeDegrees>
            </Position>
            <AltitudeMeters>1067.4000244140625</AltitudeMeters>
            <DistanceMeters>NAN</DistanceMeters>
          </Trackpoint>
          <Trackpoint>
            <Time>2019-08-01T12:32:57.000Z</Time>
            <Position>
              <LatitudeDegrees>40.71521334350109100341796875</LatitudeDegrees>
              <LongitudeDegrees>-4.06413431279361248016357421875</LongitudeDegrees>
            </Position>
            <AltitudeMeters>1067</AltitudeMeters>
            <DistanceMeters>NAN</DistanceMeters>
          </Trackpoint>
          <Trackpoint>
            <Time>2019-08-01T12:32:58.000Z</Time>
            <Position>
              <LatitudeDegrees>40.7150897942483425140380859375</LatitudeDegrees>
              <LongitudeDegrees>-4.06418276019394397735595703125</LongitudeDegrees>
            </Position>
            <AltitudeMeters>1066.4000244140625</AltitudeMeters>
            <DistanceMeters>NAN</DistanceMeters>
          </Trackpoint>
          <Trackpoint>
            <Time>2019-08-01T12:32:59.000Z</Time>
            <Position>
              <LatitudeDegrees>40.71496984921395778656005859375</LatitudeDegrees>
              <LongitudeDegrees>-4.06422768719494342803955078125</LongitudeDegrees>
            </Position>
            <AltitudeMeters>1065.5999755859375</AltitudeMeters>
            <DistanceMeters>NAN</DistanceMeters>
          </Trackpoint>
          <Trackpoint>
            <Time>2019-08-01T12:33:00.000Z</Time>
            <Position>
              <LatitudeDegrees>40.71485199965536594390869140625</LatitudeDegrees>
              <LongitudeDegrees>-4.06426490284502506256103515625</LongitudeDegrees>
            </Position>
            <AltitudeMeters>1065</AltitudeMeters>
            <DistanceMeters>NAN</DistanceMeters>
          </Trackpoint>
          <Trackpoint>
            <Time>2019-08-01T12:33:01.000Z</Time>
            <Position>
              <LatitudeDegrees>40.71473649702966213226318359375</LatitudeDegrees>
              <LongitudeDegrees>-4.06429440714418888092041015625</LongitudeDegrees>
            </Position>
            <AltitudeMeters>1064.199951171875</AltitudeMeters>
            <DistanceMeters>NAN</DistanceMeters>
          </Trackpoint>
          <Trackpoint>
            <Time>2019-08-01T12:33:02.000Z</Time>
            <Position>
              <LatitudeDegrees>40.71462267078459262847900390625</LatitudeDegrees>
              <LongitudeDegrees>-4.06432257033884525299072265625</LongitudeDegrees>
            </Position>
            <AltitudeMeters>1063.800048828125</AltitudeMeters>
            <DistanceMeters>NAN</DistanceMeters>
          </Trackpoint>
          <Trackpoint>
            <Time>2019-08-01T12:33:03.000Z</Time>
            <Position>
              <LatitudeDegrees>40.71451035328209400177001953125</LatitudeDegrees>
              <LongitudeDegrees>-4.06434922479093074798583984375</LongitudeDegrees>
            </Position>
            <AltitudeMeters>1063.4000244140625</AltitudeMeters>
            <DistanceMeters>NAN</DistanceMeters>
          </Trackpoint>
          <Trackpoint>
            <Time>2019-08-01T12:33:04.000Z</Time>
            <Position>
              <LatitudeDegrees>40.71439870633184909820556640625</LatitudeDegrees>
              <LongitudeDegrees>-4.06437219120562076568603515625</LongitudeDegrees>
            </Position>
            <AltitudeMeters>1063</AltitudeMeters>
            <DistanceMeters>NAN</DistanceMeters>
          </Trackpoint>
          <Trackpoint>
            <Time>2019-08-01T12:33:05.000Z</Time>
            <Position>
              <LatitudeDegrees>40.7142881490290164947509765625</LatitudeDegrees>
              <LongitudeDegrees>-4.06439214013516902923583984375</LongitudeDegrees>
            </Position>
            <AltitudeMeters>1062.800048828125</AltitudeMeters>
            <DistanceMeters>NAN</DistanceMeters>
          </Trackpoint>
          <Trackpoint>
            <Time>2019-08-01T12:33:06.000Z</Time>
            <Position>
              <LatitudeDegrees>40.71417960338294506072998046875</LatitudeDegrees>
              <LongitudeDegrees>-4.0644098259508609771728515625</LongitudeDegrees>
            </Position>
            <AltitudeMeters>1062.800048828125</AltitudeMeters>
            <DistanceMeters>NAN</DistanceMeters>
          </Trackpoint>
          <Trackpoint>
            <Time>2019-08-01T12:33:07.000Z</Time>
            <Position>
              <LatitudeDegrees>40.71407315321266651153564453125</LatitudeDegrees>
              <LongitudeDegrees>-4.064425416290760040283203125</LongitudeDegrees>
            </Position>
            <AltitudeMeters>1062.5999755859375</AltitudeMeters>
            <DistanceMeters>NAN</DistanceMeters>
          </Trackpoint>
          <Trackpoint>
            <Time>2019-08-01T12:33:08.000Z</Time>
            <Position>
              <LatitudeDegrees>40.7139682956039905548095703125</LatitudeDegrees>
              <LongitudeDegrees>-4.06443857587873935699462890625</LongitudeDegrees>
            </Position>
            <AltitudeMeters>1062.4000244140625</AltitudeMeters>
            <DistanceMeters>NAN</DistanceMeters>
          </Trackpoint>
          <Trackpoint>
            <Time>2019-08-01T12:33:09.000Z</Time>
            <Position>
              <LatitudeDegrees>40.7139682956039905548095703125</LatitudeDegrees>
              <LongitudeDegrees>-4.06443857587873935699462890625</LongitudeDegrees>
            </Position>
            <AltitudeMeters>1062.4000244140625</AltitudeMeters>
            <DistanceMeters>NAN</DistanceMeters>
          </Trackpoint>
          <Trackpoint>
            <Time>2019-08-01T12:33:10.000Z</Time>
            <Position>
              <LatitudeDegrees>40.7137631066143512725830078125</LatitudeDegrees>
              <LongitudeDegrees>-4.06445735134184360504150390625</LongitudeDegrees>
            </Position>
            <AltitudeMeters>1062.4000244140625</AltitudeMeters>
            <DistanceMeters>NAN</DistanceMeters>
          </Trackpoint>
          <Trackpoint>
            <Time>2019-08-01T12:33:11.000Z</Time>
            <Position>
              <LatitudeDegrees>40.7136625237762928009033203125</LatitudeDegrees>
              <LongitudeDegrees>-4.06446523033082485198974609375</LongitudeDegrees>
            </Position>
            <AltitudeMeters>1062.4000244140625</AltitudeMeters>
            <DistanceMeters>NAN</DistanceMeters>
          </Trackpoint>
          <Trackpoint>
            <Time>2019-08-01T12:33:12.000Z</Time>
            <Position>
              <LatitudeDegrees>40.7135629467666149139404296875</LatitudeDegrees>
              <LongitudeDegrees>-4.06447428278625011444091796875</LongitudeDegrees>
            </Position>
            <AltitudeMeters>1062.4000244140625</AltitudeMeters>
            <DistanceMeters>NAN</DistanceMeters>
          </Trackpoint>
          <Trackpoint>
            <Time>2019-08-01T12:33:13.000Z</Time>
            <Position>
              <LatitudeDegrees>40.71346295066177845001220703125</LatitudeDegrees>
              <LongitudeDegrees>-4.06448350287973880767822265625</LongitudeDegrees>
            </Position>
            <AltitudeMeters>1062.4000244140625</AltitudeMeters>
            <DistanceMeters>NAN</DistanceMeters>
          </Trackpoint>
          <Trackpoint>
            <Time>2019-08-01T12:33:14.000Z</Time>
            <Position>
              <LatitudeDegrees>40.71346295066177845001220703125</LatitudeDegrees>
              <LongitudeDegrees>-4.06448350287973880767822265625</LongitudeDegrees>
            </Position>
            <AltitudeMeters>1062.4000244140625</AltitudeMeters>
            <DistanceMeters>NAN</DistanceMeters>
          </Trackpoint>
          <Trackpoint>
            <Time>2019-08-01T12:33:15.000Z</Time>
            <Position>
              <LatitudeDegrees>40.71326580829918384552001953125</LatitudeDegrees>
              <LongitudeDegrees>-4.0645053796470165252685546875</LongitudeDegrees>
            </Position>
            <AltitudeMeters>1062.4000244140625</AltitudeMeters>
            <DistanceMeters>NAN</DistanceMeters>
          </Trackpoint>
          <Trackpoint>
            <Time>2019-08-01T12:33:16.000Z</Time>
            <Position>
              <LatitudeDegrees>40.71316975168883800506591796875</LatitudeDegrees>
              <LongitudeDegrees>-4.0645224787294864654541015625</LongitudeDegrees>
            </Position>
            <AltitudeMeters>1062.5999755859375</AltitudeMeters>
            <DistanceMeters>NAN</DistanceMeters>
          </Trackpoint>
          <Trackpoint>
            <Time>2019-08-01T12:33:17.000Z</Time>
            <Position>
              <LatitudeDegrees>40.7130749523639678955078125</LatitudeDegrees>
              <LongitudeDegrees>-4.06454016454517841339111328125</LongitudeDegrees>
            </Position>
            <AltitudeMeters>1062.5999755859375</AltitudeMeters>
            <DistanceMeters>NAN</DistanceMeters>
          </Trackpoint>
          <Trackpoint>
            <Time>2019-08-01T12:33:18.000Z</Time>
            <Position>
              <LatitudeDegrees>40.7129812426865100860595703125</LatitudeDegrees>
              <LongitudeDegrees>-4.06455625779926776885986328125</LongitudeDegrees>
            </Position>
            <AltitudeMeters>1062.5999755859375</AltitudeMeters>
            <DistanceMeters>NAN</DistanceMeters>
          </Trackpoint>
          <Trackpoint>
            <Time>2019-08-01T12:33:19.000Z</Time>
            <Position>
              <LatitudeDegrees>40.712889544665813446044921875</LatitudeDegrees>
              <LongitudeDegrees>-4.06457100994884967803955078125</LongitudeDegrees>
            </Position>
            <AltitudeMeters>1062.800048828125</AltitudeMeters>
            <DistanceMeters>NAN</DistanceMeters>
          </Trackpoint>
          <Trackpoint>
            <Time>2019-08-01T12:33:20.000Z</Time>
            <Position>
              <LatitudeDegrees>40.71280002593994140625</LatitudeDegrees>
              <LongitudeDegrees>-4.06458676792681217193603515625</LongitudeDegrees>
            </Position>
            <AltitudeMeters>1063</AltitudeMeters>
            <DistanceMeters>NAN</DistanceMeters>
          </Trackpoint>
          <Trackpoint>
            <Time>2019-08-01T12:33:21.000Z</Time>
            <Position>
              <LatitudeDegrees>40.71271218359470367431640625</LatitudeDegrees>
              <LongitudeDegrees>-4.0646009333431720733642578125</LongitudeDegrees>
            </Position>
            <AltitudeMeters>1063</AltitudeMeters>
            <DistanceMeters>NAN</DistanceMeters>
          </Trackpoint>
          <Trackpoint>
            <Time>2019-08-01T12:33:22.000Z</Time>
            <Position>
              <LatitudeDegrees>40.712625682353973388671875</LatitudeDegrees>
              <LongitudeDegrees>-4.0646133385598659515380859375</LongitudeDegrees>
            </Position>
            <AltitudeMeters>1063.199951171875</AltitudeMeters>
            <DistanceMeters>NAN</DistanceMeters>
          </Trackpoint>
          <Trackpoint>
            <Time>2019-08-01T12:33:23.000Z</Time>
            <Position>
              <LatitudeDegrees>40.71254060603678226470947265625</LatitudeDegrees>
              <LongitudeDegrees>-4.06462666578590869903564453125</LongitudeDegrees>
            </Position>
            <AltitudeMeters>1063.199951171875</AltitudeMeters>
            <DistanceMeters>NAN</DistanceMeters>
          </Trackpoint>
          <Trackpoint>
            <Time>2019-08-01T12:33:24.000Z</Time>
            <Position>
              <LatitudeDegrees>40.7124562002718448638916015625</LatitudeDegrees>
              <LongitudeDegrees>-4.06464141793549060821533203125</LongitudeDegrees>
            </Position>
            <AltitudeMeters>1063.199951171875</AltitudeMeters>
            <DistanceMeters>NAN</DistanceMeters>
          </Trackpoint>
          <Trackpoint>
            <Time>2019-08-01T12:33:25.000Z</Time>
            <Position>
              <LatitudeDegrees>40.712373219430446624755859375</LatitudeDegrees>
              <LongitudeDegrees>-4.06466170214116573333740234375</LongitudeDegrees>
            </Position>
            <AltitudeMeters>1063.4000244140625</AltitudeMeters>
            <DistanceMeters>NAN</DistanceMeters>
          </Trackpoint>
          <Trackpoint>
            <Time>2019-08-01T12:33:26.000Z</Time>
            <Position>
              <LatitudeDegrees>40.71229040622711181640625</LatitudeDegrees>
              <LongitudeDegrees>-4.0646877698600292205810546875</LongitudeDegrees>
            </Position>
            <AltitudeMeters>1063.4000244140625</AltitudeMeters>
            <DistanceMeters>NAN</DistanceMeters>
          </Trackpoint>
          <Trackpoint>
            <Time>2019-08-01T12:33:27.000Z</Time>
            <Position>
              <LatitudeDegrees>40.7122060842812061309814453125</LatitudeDegrees>
              <LongitudeDegrees>-4.06471450813114643096923828125</LongitudeDegrees>
            </Position>
            <AltitudeMeters>1063.4000244140625</AltitudeMeters>
            <DistanceMeters>NAN</DistanceMeters>
          </Trackpoint>
          <Trackpoint>
            <Time>2019-08-01T12:33:28.000Z</Time>
            <Position>
              <LatitudeDegrees>40.71211866103112697601318359375</LatitudeDegrees>
              <LongitudeDegrees>-4.06473278068006038665771484375</LongitudeDegrees>
            </Position>
            <AltitudeMeters>1063.800048828125</AltitudeMeters>
            <DistanceMeters>NAN</DistanceMeters>
          </Trackpoint>
          <Trackpoint>
            <Time>2019-08-01T12:33:29.000Z</Time>
            <Position>
              <LatitudeDegrees>40.71202897466719150543212890625</LatitudeDegrees>
              <LongitudeDegrees>-4.0647383965551853179931640625</LongitudeDegrees>
            </Position>
            <AltitudeMeters>1064.199951171875</AltitudeMeters>
            <DistanceMeters>NAN</DistanceMeters>
          </Trackpoint>
          <Trackpoint>
            <Time>2019-08-01T12:33:30.000Z</Time>
            <Position>
              <LatitudeDegrees>40.7119398750364780426025390625</LatitudeDegrees>
              <LongitudeDegrees>-4.0647437609732151031494140625</LongitudeDegrees>
            </Position>
            <AltitudeMeters>1064.199951171875</AltitudeMeters>
            <DistanceMeters>NAN</DistanceMeters>
          </Trackpoint>
          <Trackpoint>
            <Time>2019-08-01T12:33:31.000Z</Time>
            <Position>
              <LatitudeDegrees>40.71185178123414516448974609375</LatitudeDegrees>
              <LongitudeDegrees>-4.06476278789341449737548828125</LongitudeDegrees>
            </Position>
            <AltitudeMeters>1064.199951171875</AltitudeMeters>
            <DistanceMeters>NAN</DistanceMeters>
          </Trackpoint>
          <Trackpoint>
            <Time>2019-08-01T12:33:32.000Z</Time>
            <Position>
              <LatitudeDegrees>40.71176930330693721771240234375</LatitudeDegrees>
              <LongitudeDegrees>-4.06480821780860424041748046875</LongitudeDegrees>
            </Position>
            <AltitudeMeters>1064.199951171875</AltitudeMeters>
            <DistanceMeters>NAN</DistanceMeters>
          </Trackpoint>
          <Trackpoint>
            <Time>2019-08-01T12:33:33.000Z</Time>
            <Position>
              <LatitudeDegrees>40.71169017814099788665771484375</LatitudeDegrees>
              <LongitudeDegrees>-4.06486672349274158477783203125</LongitudeDegrees>
            </Position>
            <AltitudeMeters>1064.199951171875</AltitudeMeters>
            <DistanceMeters>NAN</DistanceMeters>
          </Trackpoint>
          <Trackpoint>
            <Time>2019-08-01T12:33:34.000Z</Time>
            <Position>
              <LatitudeDegrees>40.71169017814099788665771484375</LatitudeDegrees>
              <LongitudeDegrees>-4.06486672349274158477783203125</LongitudeDegrees>
            </Position>
            <AltitudeMeters>1064.199951171875</AltitudeMeters>
            <DistanceMeters>NAN</DistanceMeters>
          </Trackpoint>
          <Trackpoint>
            <Time>2019-08-01T12:33:35.000Z</Time>
            <Position>
              <LatitudeDegrees>40.711531676352024078369140625</LatitudeDegrees>
              <LongitudeDegrees>-4.065002761781215667724609375</LongitudeDegrees>
            </Position>
            <AltitudeMeters>1064.199951171875</AltitudeMeters>
            <DistanceMeters>NAN</DistanceMeters>
          </Trackpoint>
          <Trackpoint>
            <Time>2019-08-01T12:33:36.000Z</Time>
            <Position>
              <LatitudeDegrees>40.71145154535770416259765625</LatitudeDegrees>
              <LongitudeDegrees>-4.0650746785104274749755859375</LongitudeDegrees>
            </Position>
            <AltitudeMeters>1064.4000244140625</AltitudeMeters>
            <DistanceMeters>NAN</DistanceMeters>
          </Trackpoint>
          <Trackpoint>
            <Time>2019-08-01T12:33:37.000Z</Time>
            <Position>
              <LatitudeDegrees>40.7113685645163059234619140625</LatitudeDegrees>
              <LongitudeDegrees>-4.06514726579189300537109375</LongitudeDegrees>
            </Position>
            <AltitudeMeters>1064.4000244140625</AltitudeMeters>
            <DistanceMeters>NAN</DistanceMeters>
          </Trackpoint>
          <Trackpoint>
            <Time>2019-08-01T12:33:38.000Z</Time>
            <Position>
              <LatitudeDegrees>40.711281560361385345458984375</LatitudeDegrees>
              <LongitudeDegrees>-4.06522362492978572845458984375</LongitudeDegrees>
            </Position>
            <AltitudeMeters>1064.4000244140625</AltitudeMeters>
            <DistanceMeters>NAN</DistanceMeters>
          </Trackpoint>
          <Trackpoint>
            <Time>2019-08-01T12:33:39.000Z</Time>
            <Position>
              <LatitudeDegrees>40.711192376911640167236328125</LatitudeDegrees>
              <LongitudeDegrees>-4.065301157534122467041015625</LongitudeDegrees>
            </Position>
            <AltitudeMeters>1064</AltitudeMeters>
            <DistanceMeters>NAN</DistanceMeters>
          </Trackpoint>
          <Trackpoint>
            <Time>2019-08-01T12:33:40.000Z</Time>
            <Position>
              <LatitudeDegrees>40.71110109798610210418701171875</LatitudeDegrees>
              <LongitudeDegrees>-4.0653821267187595367431640625</LongitudeDegrees>
            </Position>
            <AltitudeMeters>1063.800048828125</AltitudeMeters>
            <DistanceMeters>NAN</DistanceMeters>
          </Trackpoint>
          <Trackpoint>
            <Time>2019-08-01T12:33:41.000Z</Time>
            <Position>
              <LatitudeDegrees>40.71110109798610210418701171875</LatitudeDegrees>
              <LongitudeDegrees>-4.0653821267187595367431640625</LongitudeDegrees>
            </Position>
            <AltitudeMeters>1063.4000244140625</AltitudeMeters>
            <DistanceMeters>NAN</DistanceMeters>
          </Trackpoint>
          <Trackpoint>
            <Time>2019-08-01T12:33:42.000Z</Time>
            <Position>
              <LatitudeDegrees>40.71091837249696254730224609375</LatitudeDegrees>
              <LongitudeDegrees>-4.06553962267935276031494140625</LongitudeDegrees>
            </Position>
            <AltitudeMeters>1062.800048828125</AltitudeMeters>
            <DistanceMeters>NAN</DistanceMeters>
          </Trackpoint>
          <Trackpoint>
            <Time>2019-08-01T12:33:43.000Z</Time>
            <Position>
              <LatitudeDegrees>40.71082432754337787628173828125</LatitudeDegrees>
              <LongitudeDegrees>-4.06562025658786296844482421875</LongitudeDegrees>
            </Position>
            <AltitudeMeters>1062.4000244140625</AltitudeMeters>
            <DistanceMeters>NAN</DistanceMeters>
          </Trackpoint>
          <Trackpoint>
            <Time>2019-08-01T12:33:44.000Z</Time>
            <Position>
              <LatitudeDegrees>40.71073313243687152862548828125</LatitudeDegrees>
              <LongitudeDegrees>-4.0656996332108974456787109375</LongitudeDegrees>
            </Position>
            <AltitudeMeters>1062.199951171875</AltitudeMeters>
            <DistanceMeters>NAN</DistanceMeters>
          </Trackpoint>
          <Trackpoint>
            <Time>2019-08-01T12:33:45.000Z</Time>
            <Position>
              <LatitudeDegrees>40.7106426917016506195068359375</LatitudeDegrees>
              <LongitudeDegrees>-4.06577817164361476898193359375</LongitudeDegrees>
            </Position>
            <AltitudeMeters>1061.800048828125</AltitudeMeters>
            <DistanceMeters>NAN</DistanceMeters>
          </Trackpoint>
          <Trackpoint>
            <Time>2019-08-01T12:33:46.000Z</Time>
            <Position>
              <LatitudeDegrees>40.71055233478546142578125</LatitudeDegrees>
              <LongitudeDegrees>-4.0658555366098880767822265625</LongitudeDegrees>
            </Position>
            <AltitudeMeters>1061.199951171875</AltitudeMeters>
            <DistanceMeters>NAN</DistanceMeters>
          </Trackpoint>
          <Trackpoint>
            <Time>2019-08-01T12:33:47.000Z</Time>
            <Position>
              <LatitudeDegrees>40.71046323515474796295166015625</LatitudeDegrees>
              <LongitudeDegrees>-4.065934158861637115478515625</LongitudeDegrees>
            </Position>
            <AltitudeMeters>1060.4000244140625</AltitudeMeters>
            <DistanceMeters>NAN</DistanceMeters>
          </Trackpoint>
          <Trackpoint>
            <Time>2019-08-01T12:33:48.000Z</Time>
            <Position>
              <LatitudeDegrees>40.71037539280951023101806640625</LatitudeDegrees>
              <LongitudeDegrees>-4.0660137869417667388916015625</LongitudeDegrees>
            </Position>
            <AltitudeMeters>1059.800048828125</AltitudeMeters>
            <DistanceMeters>NAN</DistanceMeters>
          </Trackpoint>
          <Trackpoint>
            <Time>2019-08-01T12:33:49.000Z</Time>
            <Position>
              <LatitudeDegrees>40.71028855629265308380126953125</LatitudeDegrees>
              <LongitudeDegrees>-4.06609416939318180084228515625</LongitudeDegrees>
            </Position>
            <AltitudeMeters>1059</AltitudeMeters>
            <DistanceMeters>NAN</DistanceMeters>
          </Trackpoint>
          <Trackpoint>
            <Time>2019-08-01T12:33:50.000Z</Time>
            <Position>
              <LatitudeDegrees>40.71020188741385936737060546875</LatitudeDegrees>
              <LongitudeDegrees>-4.0661720372736454010009765625</LongitudeDegrees>
            </Position>
            <AltitudeMeters>1058.5999755859375</AltitudeMeters>
            <DistanceMeters>NAN</DistanceMeters>
          </Trackpoint>
          <Trackpoint>
            <Time>2019-08-01T12:33:51.000Z</Time>
            <Position>
              <LatitudeDegrees>40.71011471562087535858154296875</LatitudeDegrees>
              <LongitudeDegrees>-4.06624705530703067779541015625</LongitudeDegrees>
            </Position>
            <AltitudeMeters>1058</AltitudeMeters>
            <DistanceMeters>NAN</DistanceMeters>
          </Trackpoint>
          <Trackpoint>
            <Time>2019-08-01T12:33:52.000Z</Time>
            <Position>
              <LatitudeDegrees>40.7100277952849864959716796875</LatitudeDegrees>
              <LongitudeDegrees>-4.06632098369300365447998046875</LongitudeDegrees>
            </Position>
            <AltitudeMeters>1057.800048828125</AltitudeMeters>
            <DistanceMeters>NAN</DistanceMeters>
          </Trackpoint>
          <Trackpoint>
            <Time>2019-08-01T12:33:53.000Z</Time>
            <Position>
              <LatitudeDegrees>40.7099409587681293487548828125</LatitudeDegrees>
              <LongitudeDegrees>-4.066395498812198638916015625</LongitudeDegrees>
            </Position>
            <AltitudeMeters>1057.5999755859375</AltitudeMeters>
            <DistanceMeters>NAN</DistanceMeters>
          </Trackpoint>
          <Trackpoint>
            <Time>2019-08-01T12:33:54.000Z</Time>
            <Position>
              <LatitudeDegrees>40.7098554633557796478271484375</LatitudeDegrees>
              <LongitudeDegrees>-4.06646967865526676177978515625</LongitudeDegrees>
            </Position>
            <AltitudeMeters>1057.4000244140625</AltitudeMeters>
            <DistanceMeters>NAN</DistanceMeters>
          </Trackpoint>
          <Trackpoint>
            <Time>2019-08-01T12:33:55.000Z</Time>
            <Position>
              <LatitudeDegrees>40.70977139286696910858154296875</LatitudeDegrees>
              <LongitudeDegrees>-4.0665441937744617462158203125</LongitudeDegrees>
            </Position>
            <AltitudeMeters>1057.4000244140625</AltitudeMeters>
            <DistanceMeters>NAN</DistanceMeters>
          </Trackpoint>
          <Trackpoint>
            <Time>2019-08-01T12:33:56.000Z</Time>
            <Position>
              <LatitudeDegrees>40.70968841202557086944580078125</LatitudeDegrees>
              <LongitudeDegrees>-4.06661770306527614593505859375</LongitudeDegrees>
            </Position>
            <AltitudeMeters>1057.4000244140625</AltitudeMeters>
            <DistanceMeters>NAN</DistanceMeters>
          </Trackpoint>
          <Trackpoint>
            <Time>2019-08-01T12:33:57.000Z</Time>
            <Position>
              <LatitudeDegrees>40.7096063531935214996337890625</LatitudeDegrees>
              <LongitudeDegrees>-4.0666893683373928070068359375</LongitudeDegrees>
            </Position>
            <AltitudeMeters>1057.199951171875</AltitudeMeters>
            <DistanceMeters>NAN</DistanceMeters>
          </Trackpoint>
          <Trackpoint>
            <Time>2019-08-01T12:33:58.000Z</Time>
            <Position>
              <LatitudeDegrees>40.709525048732757568359375</LatitudeDegrees>
              <LongitudeDegrees>-4.066758938133716583251953125</LongitudeDegrees>
            </Position>
            <AltitudeMeters>1057.199951171875</AltitudeMeters>
            <DistanceMeters>NAN</DistanceMeters>
          </Trackpoint>
          <Trackpoint>
            <Time>2019-08-01T12:33:59.000Z</Time>
            <Position>
              <LatitudeDegrees>40.70944500155746936798095703125</LatitudeDegrees>
              <LongitudeDegrees>-4.0668275021016597747802734375</LongitudeDegrees>
            </Position>
            <AltitudeMeters>1057.199951171875</AltitudeMeters>
            <DistanceMeters>NAN</DistanceMeters>
          </Trackpoint>
          <Trackpoint>
            <Time>2019-08-01T12:34:00.000Z</Time>
            <Position>
              <LatitudeDegrees>40.7093656249344348907470703125</LatitudeDegrees>
              <LongitudeDegrees>-4.06689472496509552001953125</LongitudeDegrees>
            </Position>
            <AltitudeMeters>1056.800048828125</AltitudeMeters>
            <DistanceMeters>NAN</DistanceMeters>
          </Trackpoint>
          <Trackpoint>
            <Time>2019-08-01T12:34:01.000Z</Time>
            <Position>
              <LatitudeDegrees>40.7092876732349395751953125</LatitudeDegrees>
              <LongitudeDegrees>-4.06696178019046783447265625</LongitudeDegrees>
            </Position>
            <AltitudeMeters>1057</AltitudeMeters>
            <DistanceMeters>NAN</DistanceMeters>
          </Trackpoint>
          <Trackpoint>
            <Time>2019-08-01T12:34:02.000Z</Time>
            <Position>
              <LatitudeDegrees>40.70921081118285655975341796875</LatitudeDegrees>
              <LongitudeDegrees>-4.0670286677777767181396484375</LongitudeDegrees>
            </Position>
            <AltitudeMeters>1056.800048828125</AltitudeMeters>
            <DistanceMeters>NAN</DistanceMeters>
          </Trackpoint>
          <Trackpoint>
            <Time>2019-08-01T12:34:03.000Z</Time>
            <Position>
              <LatitudeDegrees>40.70921081118285655975341796875</LatitudeDegrees>
              <LongitudeDegrees>-4.0670286677777767181396484375</LongitudeDegrees>
            </Position>
            <AltitudeMeters>1056.800048828125</AltitudeMeters>
            <DistanceMeters>NAN</DistanceMeters>
          </Trackpoint>
          <Trackpoint>
            <Time>2019-08-01T12:34:04.000Z</Time>
            <Position>
              <LatitudeDegrees>40.7090598531067371368408203125</LatitudeDegrees>
              <LongitudeDegrees>-4.06716219149529933929443359375</LongitudeDegrees>
            </Position>
            <AltitudeMeters>1056.800048828125</AltitudeMeters>
            <DistanceMeters>NAN</DistanceMeters>
          </Trackpoint>
          <Trackpoint>
            <Time>2019-08-01T12:34:05.000Z</Time>
            <Position>
              <LatitudeDegrees>40.708985589444637298583984375</LatitudeDegrees>
              <LongitudeDegrees>-4.0672279894351959228515625</LongitudeDegrees>
            </Position>
            <AltitudeMeters>1056.800048828125</AltitudeMeters>
            <DistanceMeters>NAN</DistanceMeters>
          </Trackpoint>
          <Trackpoint>
            <Time>2019-08-01T12:34:06.000Z</Time>
            <Position>
              <LatitudeDegrees>40.70891082286834716796875</LatitudeDegrees>
              <LongitudeDegrees>-4.06729060225188732147216796875</LongitudeDegrees>
            </Position>
            <AltitudeMeters>1056.800048828125</AltitudeMeters>
            <DistanceMeters>NAN</DistanceMeters>
          </Trackpoint>
          <Trackpoint>
            <Time>2019-08-01T12:34:07.000Z</Time>
            <Position>
              <LatitudeDegrees>40.7088365592062473297119140625</LatitudeDegrees>
              <LongitudeDegrees>-4.06735229305922985076904296875</LongitudeDegrees>
            </Position>
            <AltitudeMeters>1056.800048828125</AltitudeMeters>
            <DistanceMeters>NAN</DistanceMeters>
          </Trackpoint>
          <Trackpoint>
            <Time>2019-08-01T12:34:08.000Z</Time>
            <Position>
              <LatitudeDegrees>40.7087646424770355224609375</LatitudeDegrees>
              <LongitudeDegrees>-4.06741264276206493377685546875</LongitudeDegrees>
            </Position>
            <AltitudeMeters>1056.800048828125</AltitudeMeters>
            <DistanceMeters>NAN</DistanceMeters>
          </Trackpoint>
          <Trackpoint>
            <Time>2019-08-01T12:34:09.000Z</Time>
            <Position>
              <LatitudeDegrees>40.70869482122361660003662109375</LatitudeDegrees>
              <LongitudeDegrees>-4.06746963970363140106201171875</LongitudeDegrees>
            </Position>
            <AltitudeMeters>1056.800048828125</AltitudeMeters>
            <DistanceMeters>NAN</DistanceMeters>
          </Trackpoint>
          <Trackpoint>
            <Time>2019-08-01T12:34:10.000Z</Time>
            <Position>
              <LatitudeDegrees>40.70862625725567340850830078125</LatitudeDegrees>
              <LongitudeDegrees>-4.0675225295126438140869140625</LongitudeDegrees>
            </Position>
            <AltitudeMeters>1056.800048828125</AltitudeMeters>
            <DistanceMeters>NAN</DistanceMeters>
          </Trackpoint>
          <Trackpoint>
            <Time>2019-08-01T12:34:11.000Z</Time>
            <Position>
              <LatitudeDegrees>40.7085586152970790863037109375</LatitudeDegrees>
              <LongitudeDegrees>-4.067573659121990203857421875</LongitudeDegrees>
            </Position>
            <AltitudeMeters>1056.800048828125</AltitudeMeters>
            <DistanceMeters>NAN</DistanceMeters>
          </Trackpoint>
          <Trackpoint>
            <Time>2019-08-01T12:34:12.000Z</Time>
            <Position>
              <LatitudeDegrees>40.708495080471038818359375</LatitudeDegrees>
              <LongitudeDegrees>-4.06762294471263885498046875</LongitudeDegrees>
            </Position>
            <AltitudeMeters>1056.800048828125</AltitudeMeters>
            <DistanceMeters>NAN</DistanceMeters>
          </Trackpoint>
          <Trackpoint>
            <Time>2019-08-01T12:34:13.000Z</Time>
            <Position>
              <LatitudeDegrees>40.708433054387569427490234375</LatitudeDegrees>
              <LongitudeDegrees>-4.06766979955136775970458984375</LongitudeDegrees>
            </Position>
            <AltitudeMeters>1057</AltitudeMeters>
            <DistanceMeters>NAN</DistanceMeters>
          </Trackpoint>
          <Trackpoint>
            <Time>2019-08-01T12:34:14.000Z</Time>
            <Position>
              <LatitudeDegrees>40.70837211795151233673095703125</LatitudeDegrees>
              <LongitudeDegrees>-4.06771145761013031005859375</LongitudeDegrees>
            </Position>
            <AltitudeMeters>1057</AltitudeMeters>
            <DistanceMeters>NAN</DistanceMeters>
          </Trackpoint>
          <Trackpoint>
            <Time>2019-08-01T12:34:15.000Z</Time>
            <Position>
              <LatitudeDegrees>40.70831294171512126922607421875</LatitudeDegrees>
              <LongitudeDegrees>-4.067750684916973114013671875</LongitudeDegrees>
            </Position>
            <AltitudeMeters>1057</AltitudeMeters>
            <DistanceMeters>NAN</DistanceMeters>
          </Trackpoint>
          <Trackpoint>
            <Time>2019-08-01T12:34:16.000Z</Time>
            <Position>
              <LatitudeDegrees>40.708250664174556732177734375</LatitudeDegrees>
              <LongitudeDegrees>-4.06778714619576930999755859375</LongitudeDegrees>
            </Position>
            <AltitudeMeters>1057</AltitudeMeters>
            <DistanceMeters>NAN</DistanceMeters>
          </Trackpoint>
          <Trackpoint>
            <Time>2019-08-01T12:34:17.000Z</Time>
            <Position>
              <LatitudeDegrees>40.7081821002066135406494140625</LatitudeDegrees>
              <LongitudeDegrees>-4.06782117672264575958251953125</LongitudeDegrees>
            </Position>
            <AltitudeMeters>1057</AltitudeMeters>
            <DistanceMeters>NAN</DistanceMeters>
          </Trackpoint>
          <Trackpoint>
            <Time>2019-08-01T12:34:18.000Z</Time>
            <Position>
              <LatitudeDegrees>40.70810758508741855621337890625</LatitudeDegrees>
              <LongitudeDegrees>-4.0678547881543636322021484375</LongitudeDegrees>
            </Position>
            <AltitudeMeters>1057.199951171875</AltitudeMeters>
            <DistanceMeters>NAN</DistanceMeters>
          </Trackpoint>
          <Trackpoint>
            <Time>2019-08-01T12:34:19.000Z</Time>
            <Position>
              <LatitudeDegrees>40.7080278731882572174072265625</LatitudeDegrees>
              <LongitudeDegrees>-4.06788890250027179718017578125</LongitudeDegrees>
            </Position>
            <AltitudeMeters>1057.199951171875</AltitudeMeters>
            <DistanceMeters>NAN</DistanceMeters>
          </Trackpoint>
          <Trackpoint>
            <Time>2019-08-01T12:34:20.000Z</Time>
            <Position>
              <LatitudeDegrees>40.70794397033751010894775390625</LatitudeDegrees>
              <LongitudeDegrees>-4.06792410649359226226806640625</LongitudeDegrees>
            </Position>
            <AltitudeMeters>1057.4000244140625</AltitudeMeters>
            <DistanceMeters>NAN</DistanceMeters>
          </Trackpoint>
          <Trackpoint>
            <Time>2019-08-01T12:34:21.000Z</Time>
            <Position>
              <LatitudeDegrees>40.70785730145871639251708984375</LatitudeDegrees>
              <LongitudeDegrees>-4.06796090304851531982421875</LongitudeDegrees>
            </Position>
            <AltitudeMeters>1057.4000244140625</AltitudeMeters>
            <DistanceMeters>NAN</DistanceMeters>
          </Trackpoint>
          <Trackpoint>
            <Time>2019-08-01T12:34:22.000Z</Time>
            <Position>
              <LatitudeDegrees>40.7077676989138126373291015625</LatitudeDegrees>
              <LongitudeDegrees>-4.0679966099560260772705078125</LongitudeDegrees>
            </Position>
            <AltitudeMeters>1057.4000244140625</AltitudeMeters>
            <DistanceMeters>NAN</DistanceMeters>
          </Trackpoint>
          <Trackpoint>
            <Time>2019-08-01T12:34:23.000Z</Time>
            <Position>
              <LatitudeDegrees>40.70767675526440143585205078125</LatitudeDegrees>
              <LongitudeDegrees>-4.06803131103515625</LongitudeDegrees>
            </Position>
            <AltitudeMeters>1057.4000244140625</AltitudeMeters>
            <DistanceMeters>NAN</DistanceMeters>
          </Trackpoint>
          <Trackpoint>
            <Time>2019-08-01T12:34:24.000Z</Time>
            <Position>
              <LatitudeDegrees>40.707585476338863372802734375</LatitudeDegrees>
              <LongitudeDegrees>-4.0680666826665401458740234375</LongitudeDegrees>
            </Position>
            <AltitudeMeters>1057.4000244140625</AltitudeMeters>
            <DistanceMeters>NAN</DistanceMeters>
          </Trackpoint>
          <Trackpoint>
            <Time>2019-08-01T12:34:25.000Z</Time>
            <Position>
              <LatitudeDegrees>40.7074941135942935943603515625</LatitudeDegrees>
              <LongitudeDegrees>-4.068105407059192657470703125</LongitudeDegrees>
            </Position>
            <AltitudeMeters>1057.199951171875</AltitudeMeters>
            <DistanceMeters>NAN</DistanceMeters>
          </Trackpoint>
          <Trackpoint>
            <Time>2019-08-01T12:34:26.000Z</Time>
            <Position>
              <LatitudeDegrees>40.70740182884037494659423828125</LatitudeDegrees>
              <LongitudeDegrees>-4.06814463436603546142578125</LongitudeDegrees>
            </Position>
            <AltitudeMeters>1057</AltitudeMeters>
            <DistanceMeters>NAN</DistanceMeters>
          </Trackpoint>
          <Trackpoint>
            <Time>2019-08-01T12:34:27.000Z</Time>
            <Position>
              <LatitudeDegrees>40.70740182884037494659423828125</LatitudeDegrees>
              <LongitudeDegrees>-4.06814463436603546142578125</LongitudeDegrees>
            </Position>
            <AltitudeMeters>1057</AltitudeMeters>
            <DistanceMeters>NAN</DistanceMeters>
          </Trackpoint>
          <Trackpoint>
            <Time>2019-08-01T12:34:28.000Z</Time>
            <Position>
              <LatitudeDegrees>40.7072134874761104583740234375</LatitudeDegrees>
              <LongitudeDegrees>-4.06821898184716701507568359375</LongitudeDegrees>
            </Position>
            <AltitudeMeters>1056.5999755859375</AltitudeMeters>
            <DistanceMeters>NAN</DistanceMeters>
          </Trackpoint>
          <Trackpoint>
            <Time>2019-08-01T12:34:29.000Z</Time>
            <Position>
              <LatitudeDegrees>40.707118771970272064208984375</LatitudeDegrees>
              <LongitudeDegrees>-4.068254940211772918701171875</LongitudeDegrees>
            </Position>
            <AltitudeMeters>1056.199951171875</AltitudeMeters>
            <DistanceMeters>NAN</DistanceMeters>
          </Trackpoint>
          <Trackpoint>
            <Time>2019-08-01T12:34:30.000Z</Time>
            <Position>
              <LatitudeDegrees>40.7070253975689411163330078125</LatitudeDegrees>
              <LongitudeDegrees>-4.0682928264141082763671875</LongitudeDegrees>
            </Position>
            <AltitudeMeters>1055.800048828125</AltitudeMeters>
            <DistanceMeters>NAN</DistanceMeters>
          </Trackpoint>
          <Trackpoint>
            <Time>2019-08-01T12:34:31.000Z</Time>
            <Position>
              <LatitudeDegrees>40.70693260990083217620849609375</LatitudeDegrees>
              <LongitudeDegrees>-4.06833079643547534942626953125</LongitudeDegrees>
            </Position>
            <AltitudeMeters>1055.5999755859375</AltitudeMeters>
            <DistanceMeters>NAN</DistanceMeters>
          </Trackpoint>
          <Trackpoint>
            <Time>2019-08-01T12:34:32.000Z</Time>
            <Position>
              <LatitudeDegrees>40.70684074424207210540771484375</LatitudeDegrees>
              <LongitudeDegrees>-4.0683697722852230072021484375</LongitudeDegrees>
            </Position>
            <AltitudeMeters>1055.199951171875</AltitudeMeters>
            <DistanceMeters>NAN</DistanceMeters>
          </Trackpoint>
          <Trackpoint>
            <Time>2019-08-01T12:34:33.000Z</Time>
            <Position>
              <LatitudeDegrees>40.7067501358687877655029296875</LatitudeDegrees>
              <LongitudeDegrees>-4.06840908341109752655029296875</LongitudeDegrees>
            </Position>
            <AltitudeMeters>1054.800048828125</AltitudeMeters>
            <DistanceMeters>NAN</DistanceMeters>
          </Trackpoint>
          <Trackpoint>
            <Time>2019-08-01T12:34:34.000Z</Time>
            <Position>
              <LatitudeDegrees>40.706660114228725433349609375</LatitudeDegrees>
              <LongitudeDegrees>-4.0684485621750354766845703125</LongitudeDegrees>
            </Position>
            <AltitudeMeters>1054.800048828125</AltitudeMeters>
            <DistanceMeters>NAN</DistanceMeters>
          </Trackpoint>
          <Trackpoint>
            <Time>2019-08-01T12:34:35.000Z</Time>
            <Position>
              <LatitudeDegrees>40.70657067932188510894775390625</LatitudeDegrees>
              <LongitudeDegrees>-4.0684861131012439727783203125</LongitudeDegrees>
            </Position>
            <AltitudeMeters>1054.5999755859375</AltitudeMeters>
            <DistanceMeters>NAN</DistanceMeters>
          </Trackpoint>
          <Trackpoint>
            <Time>2019-08-01T12:34:36.000Z</Time>
            <Position>
              <LatitudeDegrees>40.7064819149672985076904296875</LatitudeDegrees>
              <LongitudeDegrees>-4.06852341257035732269287109375</LongitudeDegrees>
            </Position>
            <AltitudeMeters>1054.4000244140625</AltitudeMeters>
            <DistanceMeters>NAN</DistanceMeters>
          </Trackpoint>
          <Trackpoint>
            <Time>2019-08-01T12:34:37.000Z</Time>
            <Position>
              <LatitudeDegrees>40.70639315061271190643310546875</LatitudeDegrees>
              <LongitudeDegrees>-4.06855903565883636474609375</LongitudeDegrees>
            </Position>
            <AltitudeMeters>1054.4000244140625</AltitudeMeters>
            <DistanceMeters>NAN</DistanceMeters>
          </Trackpoint>
          <Trackpoint>
            <Time>2019-08-01T12:34:38.000Z</Time>
            <Position>
              <LatitudeDegrees>40.70630581118166446685791015625</LatitudeDegrees>
              <LongitudeDegrees>-4.068594239652156829833984375</LongitudeDegrees>
            </Position>
            <AltitudeMeters>1054.199951171875</AltitudeMeters>
            <DistanceMeters>NAN</DistanceMeters>
          </Trackpoint>
          <Trackpoint>
            <Time>2019-08-01T12:34:39.000Z</Time>
            <Position>
              <LatitudeDegrees>40.70621947757899761199951171875</LatitudeDegrees>
              <LongitudeDegrees>-4.06862885691225528717041015625</LongitudeDegrees>
            </Position>
            <AltitudeMeters>1054.199951171875</AltitudeMeters>
            <DistanceMeters>NAN</DistanceMeters>
          </Trackpoint>
          <Trackpoint>
            <Time>2019-08-01T12:34:40.000Z</Time>
            <Position>
              <LatitudeDegrees>40.70613414980471134185791015625</LatitudeDegrees>
              <LongitudeDegrees>-4.06866322271525859832763671875</LongitudeDegrees>
            </Position>
            <AltitudeMeters>1053.800048828125</AltitudeMeters>
            <DistanceMeters>NAN</DistanceMeters>
          </Trackpoint>
          <Trackpoint>
            <Time>2019-08-01T12:34:41.000Z</Time>
            <Position>
              <LatitudeDegrees>40.70605066604912281036376953125</LatitudeDegrees>
              <LongitudeDegrees>-4.06869708560407161712646484375</LongitudeDegrees>
            </Position>
            <AltitudeMeters>1053.5999755859375</AltitudeMeters>
            <DistanceMeters>NAN</DistanceMeters>
          </Trackpoint>
          <Trackpoint>
            <Time>2019-08-01T12:34:42.000Z</Time>
            <Position>
              <LatitudeDegrees>40.70596936158835887908935546875</LatitudeDegrees>
              <LongitudeDegrees>-4.06873128376901149749755859375</LongitudeDegrees>
            </Position>
            <AltitudeMeters>1053.5999755859375</AltitudeMeters>
            <DistanceMeters>NAN</DistanceMeters>
          </Trackpoint>
          <Trackpoint>
            <Time>2019-08-01T12:34:43.000Z</Time>
            <Position>
              <LatitudeDegrees>40.70596936158835887908935546875</LatitudeDegrees>
              <LongitudeDegrees>-4.06873128376901149749755859375</LongitudeDegrees>
            </Position>
            <AltitudeMeters>1053.4000244140625</AltitudeMeters>
            <DistanceMeters>NAN</DistanceMeters>
          </Trackpoint>
          <Trackpoint>
            <Time>2019-08-01T12:34:44.000Z</Time>
            <Position>
              <LatitudeDegrees>40.7058123685419559478759765625</LatitudeDegrees>
              <LongitudeDegrees>-4.06880152411758899688720703125</LongitudeDegrees>
            </Position>
            <AltitudeMeters>1053.199951171875</AltitudeMeters>
            <DistanceMeters>NAN</DistanceMeters>
          </Trackpoint>
          <Trackpoint>
            <Time>2019-08-01T12:34:45.000Z</Time>
            <Position>
              <LatitudeDegrees>40.70573332719504833221435546875</LatitudeDegrees>
              <LongitudeDegrees>-4.068834297358989715576171875</LongitudeDegrees>
            </Position>
            <AltitudeMeters>1053.199951171875</AltitudeMeters>
            <DistanceMeters>NAN</DistanceMeters>
          </Trackpoint>
          <Trackpoint>
            <Time>2019-08-01T12:34:46.000Z</Time>
            <Position>
              <LatitudeDegrees>40.70565436966717243194580078125</LatitudeDegrees>
              <LongitudeDegrees>-4.0688669867813587188720703125</LongitudeDegrees>
            </Position>
            <AltitudeMeters>1053</AltitudeMeters>
            <DistanceMeters>NAN</DistanceMeters>
          </Trackpoint>
          <Trackpoint>
            <Time>2019-08-01T12:34:47.000Z</Time>
            <Position>
              <LatitudeDegrees>40.7055759988725185394287109375</LatitudeDegrees>
              <LongitudeDegrees>-4.0688998438417911529541015625</LongitudeDegrees>
            </Position>
            <AltitudeMeters>1053</AltitudeMeters>
            <DistanceMeters>NAN</DistanceMeters>
          </Trackpoint>
          <Trackpoint>
            <Time>2019-08-01T12:34:48.000Z</Time>
            <Position>
              <LatitudeDegrees>40.705498717725276947021484375</LatitudeDegrees>
              <LongitudeDegrees>-4.0689316950738430023193359375</LongitudeDegrees>
            </Position>
            <AltitudeMeters>1052.800048828125</AltitudeMeters>
            <DistanceMeters>NAN</DistanceMeters>
          </Trackpoint>
          <Trackpoint>
            <Time>2019-08-01T12:34:49.000Z</Time>
            <Position>
              <LatitudeDegrees>40.70542202331125736236572265625</LatitudeDegrees>
              <LongitudeDegrees>-4.0689622052013874053955078125</LongitudeDegrees>
            </Position>
            <AltitudeMeters>1052.800048828125</AltitudeMeters>
            <DistanceMeters>NAN</DistanceMeters>
          </Trackpoint>
          <Trackpoint>
            <Time>2019-08-01T12:34:50.000Z</Time>
            <Position>
              <LatitudeDegrees>40.70534524507820606231689453125</LatitudeDegrees>
              <LongitudeDegrees>-4.06899279914796352386474609375</LongitudeDegrees>
            </Position>
            <AltitudeMeters>1052.800048828125</AltitudeMeters>
            <DistanceMeters>NAN</DistanceMeters>
          </Trackpoint>
          <Trackpoint>
            <Time>2019-08-01T12:34:51.000Z</Time>
            <Position>
              <LatitudeDegrees>40.70526905357837677001953125</LatitudeDegrees>
              <LongitudeDegrees>-4.06902263872325420379638671875</LongitudeDegrees>
            </Position>
            <AltitudeMeters>1052.800048828125</AltitudeMeters>
            <DistanceMeters>NAN</DistanceMeters>
          </Trackpoint>
          <Trackpoint>
            <Time>2019-08-01T12:34:52.000Z</Time>
            <Position>
              <LatitudeDegrees>40.705198310315608978271484375</LatitudeDegrees>
              <LongitudeDegrees>-4.0690637938678264617919921875</LongitudeDegrees>
            </Position>
            <AltitudeMeters>1052.800048828125</AltitudeMeters>
            <DistanceMeters>NAN</DistanceMeters>
          </Trackpoint>
          <Trackpoint>
            <Time>2019-08-01T12:34:53.000Z</Time>
            <Position>
              <LatitudeDegrees>40.7051310874521732330322265625</LatitudeDegrees>
              <LongitudeDegrees>-4.0691135823726654052734375</LongitudeDegrees>
            </Position>
            <AltitudeMeters>1052.5999755859375</AltitudeMeters>
            <DistanceMeters>NAN</DistanceMeters>
          </Trackpoint>
          <Trackpoint>
            <Time>2019-08-01T12:34:54.000Z</Time>
            <Position>
              <LatitudeDegrees>40.7050596736371517181396484375</LatitudeDegrees>
              <LongitudeDegrees>-4.0691395662724971771240234375</LongitudeDegrees>
            </Position>
            <AltitudeMeters>1052.800048828125</AltitudeMeters>
            <DistanceMeters>NAN</DistanceMeters>
          </Trackpoint>
          <Trackpoint>
            <Time>2019-08-01T12:34:55.000Z</Time>
            <Position>
              <LatitudeDegrees>40.70499387569725513458251953125</LatitudeDegrees>
              <LongitudeDegrees>-4.06911349855363368988037109375</LongitudeDegrees>
            </Position>
            <AltitudeMeters>1052.5999755859375</AltitudeMeters>
            <DistanceMeters>NAN</DistanceMeters>
          </Trackpoint>
          <Trackpoint>
            <Time>2019-08-01T12:34:56.000Z</Time>
            <Position>
              <LatitudeDegrees>40.70496118627488613128662109375</LatitudeDegrees>
              <LongitudeDegrees>-4.069043509662151336669921875</LongitudeDegrees>
            </Position>
            <AltitudeMeters>1052.5999755859375</AltitudeMeters>
            <DistanceMeters>NAN</DistanceMeters>
          </Trackpoint>
          <Trackpoint>
            <Time>2019-08-01T12:34:57.000Z</Time>
            <Position>
              <LatitudeDegrees>40.7049557380378246307373046875</LatitudeDegrees>
              <LongitudeDegrees>-4.06896580941975116729736328125</LongitudeDegrees>
            </Position>
            <AltitudeMeters>1052.5999755859375</AltitudeMeters>
            <DistanceMeters>NAN</DistanceMeters>
          </Trackpoint>
          <Trackpoint>
            <Time>2019-08-01T12:34:58.000Z</Time>
            <Position>
              <LatitudeDegrees>40.704956240952014923095703125</LatitudeDegrees>
              <LongitudeDegrees>-4.06888534314930438995361328125</LongitudeDegrees>
            </Position>
            <AltitudeMeters>1052.5999755859375</AltitudeMeters>
            <DistanceMeters>NAN</DistanceMeters>
          </Trackpoint>
          <Trackpoint>
            <Time>2019-08-01T12:34:59.000Z</Time>
            <Position>
              <LatitudeDegrees>40.7049451768398284912109375</LatitudeDegrees>
              <LongitudeDegrees>-4.0688066370785236358642578125</LongitudeDegrees>
            </Position>
            <AltitudeMeters>1052.5999755859375</AltitudeMeters>
            <DistanceMeters>NAN</DistanceMeters>
          </Trackpoint>
          <Trackpoint>
            <Time>2019-08-01T12:35:00.000Z</Time>
            <Position>
              <LatitudeDegrees>40.70492095313966274261474609375</LatitudeDegrees>
              <LongitudeDegrees>-4.06873782165348529815673828125</LongitudeDegrees>
            </Position>
            <AltitudeMeters>1052.5999755859375</AltitudeMeters>
            <DistanceMeters>NAN</DistanceMeters>
          </Trackpoint>
          <Trackpoint>
            <Time>2019-08-01T12:35:01.000Z</Time>
            <Position>
              <LatitudeDegrees>40.704886503517627716064453125</LatitudeDegrees>
              <LongitudeDegrees>-4.06867763958871364593505859375</LongitudeDegrees>
            </Position>
            <AltitudeMeters>1052.5999755859375</AltitudeMeters>
            <DistanceMeters>NAN</DistanceMeters>
          </Trackpoint>
          <Trackpoint>
            <Time>2019-08-01T12:35:02.000Z</Time>
            <Position>
              <LatitudeDegrees>40.70484434254467487335205078125</LatitudeDegrees>
              <LongitudeDegrees>-4.0686232410371303558349609375</LongitudeDegrees>
            </Position>
            <AltitudeMeters>1052.800048828125</AltitudeMeters>
            <DistanceMeters>NAN</DistanceMeters>
          </Trackpoint>
          <Trackpoint>
            <Time>2019-08-01T12:35:03.000Z</Time>
            <Position>
              <LatitudeDegrees>40.70479991845786571502685546875</LatitudeDegrees>
              <LongitudeDegrees>-4.06857135705649852752685546875</LongitudeDegrees>
            </Position>
            <AltitudeMeters>1052.800048828125</AltitudeMeters>
            <DistanceMeters>NAN</DistanceMeters>
          </Trackpoint>
          <Trackpoint>
            <Time>2019-08-01T12:35:04.000Z</Time>
            <Position>
              <LatitudeDegrees>40.70475767366588115692138671875</LatitudeDegrees>
              <LongitudeDegrees>-4.06852056272327899932861328125</LongitudeDegrees>
            </Position>
            <AltitudeMeters>1052.800048828125</AltitudeMeters>
            <DistanceMeters>NAN</DistanceMeters>
          </Trackpoint>
          <Trackpoint>
            <Time>2019-08-01T12:35:05.000Z</Time>
            <Position>
              <LatitudeDegrees>40.70471676997840404510498046875</LatitudeDegrees>
              <LongitudeDegrees>-4.0684700198471546173095703125</LongitudeDegrees>
            </Position>
            <AltitudeMeters>1053</AltitudeMeters>
            <DistanceMeters>NAN</DistanceMeters>
          </Trackpoint>
          <Trackpoint>
            <Time>2019-08-01T12:35:06.000Z</Time>
            <Position>
              <LatitudeDegrees>40.70467737503349781036376953125</LatitudeDegrees>
              <LongitudeDegrees>-4.068420231342315673828125</LongitudeDegrees>
            </Position>
            <AltitudeMeters>1053</AltitudeMeters>
            <DistanceMeters>NAN</DistanceMeters>
          </Trackpoint>
          <Trackpoint>
            <Time>2019-08-01T12:35:07.000Z</Time>
            <Position>
              <LatitudeDegrees>40.70464141666889190673828125</LatitudeDegrees>
              <LongitudeDegrees>-4.068368934094905853271484375</LongitudeDegrees>
            </Position>
            <AltitudeMeters>1053.199951171875</AltitudeMeters>
            <DistanceMeters>NAN</DistanceMeters>
          </Trackpoint>
          <Trackpoint>
            <Time>2019-08-01T12:35:08.000Z</Time>
            <Position>
              <LatitudeDegrees>40.70460881106555461883544921875</LatitudeDegrees>
              <LongitudeDegrees>-4.0683154575526714324951171875</LongitudeDegrees>
            </Position>
            <AltitudeMeters>1053.800048828125</AltitudeMeters>
            <DistanceMeters>NAN</DistanceMeters>
          </Trackpoint>
          <Trackpoint>
            <Time>2019-08-01T12:35:09.000Z</Time>
            <Position>
              <LatitudeDegrees>40.70457980968058109283447265625</LatitudeDegrees>
              <LongitudeDegrees>-4.06826089136302471160888671875</LongitudeDegrees>
            </Position>
            <AltitudeMeters>1054.199951171875</AltitudeMeters>
            <DistanceMeters>NAN</DistanceMeters>
          </Trackpoint>
          <Trackpoint>
            <Time>2019-08-01T12:35:10.000Z</Time>
            <Position>
              <LatitudeDegrees>40.70455432869493961334228515625</LatitudeDegrees>
              <LongitudeDegrees>-4.06820707954466342926025390625</LongitudeDegrees>
            </Position>
            <AltitudeMeters>1054.4000244140625</AltitudeMeters>
            <DistanceMeters>NAN</DistanceMeters>
          </Trackpoint>
          <Trackpoint>
            <Time>2019-08-01T12:35:11.000Z</Time>
            <Position>
              <LatitudeDegrees>40.70452968589961528778076171875</LatitudeDegrees>
              <LongitudeDegrees>-4.068155698478221893310546875</LongitudeDegrees>
            </Position>
            <AltitudeMeters>1054.5999755859375</AltitudeMeters>
            <DistanceMeters>NAN</DistanceMeters>
          </Trackpoint>
          <Trackpoint>
            <Time>2019-08-01T12:35:12.000Z</Time>
            <Position>
              <LatitudeDegrees>40.704504288733005523681640625</LatitudeDegrees>
              <LongitudeDegrees>-4.0681042335927486419677734375</LongitudeDegrees>
            </Position>
            <AltitudeMeters>1054.800048828125</AltitudeMeters>
            <DistanceMeters>NAN</DistanceMeters>
          </Trackpoint>
          <Trackpoint>
            <Time>2019-08-01T12:35:13.000Z</Time>
            <Position>
              <LatitudeDegrees>40.704479478299617767333984375</LatitudeDegrees>
              <LongitudeDegrees>-4.06805017031729221343994140625</LongitudeDegrees>
            </Position>
            <AltitudeMeters>1055</AltitudeMeters>
            <DistanceMeters>NAN</DistanceMeters>
          </Trackpoint>
          <Trackpoint>
            <Time>2019-08-01T12:35:14.000Z</Time>
            <Position>
              <LatitudeDegrees>40.70445642806589603424072265625</LatitudeDegrees>
              <LongitudeDegrees>-4.06799443066120147705078125</LongitudeDegrees>
            </Position>
            <AltitudeMeters>1055.199951171875</AltitudeMeters>
            <DistanceMeters>NAN</DistanceMeters>
          </Trackpoint>
          <Trackpoint>
            <Time>2019-08-01T12:35:15.000Z</Time>
            <Position>
              <LatitudeDegrees>40.70443429984152317047119140625</LatitudeDegrees>
              <LongitudeDegrees>-4.0679386071860790252685546875</LongitudeDegrees>
            </Position>
            <AltitudeMeters>1055.800048828125</AltitudeMeters>
            <DistanceMeters>NAN</DistanceMeters>
          </Trackpoint>
          <Trackpoint>
            <Time>2019-08-01T12:35:16.000Z</Time>
            <Position>
              <LatitudeDegrees>40.7044119201600551605224609375</LatitudeDegrees>
              <LongitudeDegrees>-4.0678824484348297119140625</LongitudeDegrees>
            </Position>
            <AltitudeMeters>1056.199951171875</AltitudeMeters>
            <DistanceMeters>NAN</DistanceMeters>
          </Trackpoint>
          <Trackpoint>
            <Time>2019-08-01T12:35:17.000Z</Time>
            <Position>
              <LatitudeDegrees>40.70438920520246028900146484375</LatitudeDegrees>
              <LongitudeDegrees>-4.06782654114067554473876953125</LongitudeDegrees>
            </Position>
            <AltitudeMeters>1056.5999755859375</AltitudeMeters>
            <DistanceMeters>NAN</DistanceMeters>
          </Trackpoint>
          <Trackpoint>
            <Time>2019-08-01T12:35:18.000Z</Time>
            <Position>
              <LatitudeDegrees>40.70436590351164340972900390625</LatitudeDegrees>
              <LongitudeDegrees>-4.06777038238942623138427734375</LongitudeDegrees>
            </Position>
            <AltitudeMeters>1056.800048828125</AltitudeMeters>
            <DistanceMeters>NAN</DistanceMeters>
          </Trackpoint>
          <Trackpoint>
            <Time>2019-08-01T12:35:19.000Z</Time>
            <Position>
              <LatitudeDegrees>40.704342685639858245849609375</LatitudeDegrees>
              <LongitudeDegrees>-4.0677133016288280487060546875</LongitudeDegrees>
            </Position>
            <AltitudeMeters>1057</AltitudeMeters>
            <DistanceMeters>NAN</DistanceMeters>
          </Trackpoint>
          <Trackpoint>
            <Time>2019-08-01T12:35:20.000Z</Time>
            <Position>
              <LatitudeDegrees>40.7043202221393585205078125</LatitudeDegrees>
              <LongitudeDegrees>-4.06765370629727840423583984375</LongitudeDegrees>
            </Position>
            <AltitudeMeters>1057.199951171875</AltitudeMeters>
            <DistanceMeters>NAN</DistanceMeters>
          </Trackpoint>
          <Trackpoint>
            <Time>2019-08-01T12:35:21.000Z</Time>
            <Position>
              <LatitudeDegrees>40.7043202221393585205078125</LatitudeDegrees>
              <LongitudeDegrees>-4.06765370629727840423583984375</LongitudeDegrees>
            </Position>
            <AltitudeMeters>1057.5999755859375</AltitudeMeters>
            <DistanceMeters>NAN</DistanceMeters>
          </Trackpoint>
          <Trackpoint>
            <Time>2019-08-01T12:35:22.000Z</Time>
            <Position>
              <LatitudeDegrees>40.70427571423351764678955078125</LatitudeDegrees>
              <LongitudeDegrees>-4.06753099523484706878662109375</LongitudeDegrees>
            </Position>
            <AltitudeMeters>1058</AltitudeMeters>
            <DistanceMeters>NAN</DistanceMeters>
          </Trackpoint>
          <Trackpoint>
            <Time>2019-08-01T12:35:23.000Z</Time>
            <Position>
              <LatitudeDegrees>40.70427571423351764678955078125</LatitudeDegrees>
              <LongitudeDegrees>-4.06753099523484706878662109375</LongitudeDegrees>
            </Position>
            <AltitudeMeters>1058</AltitudeMeters>
            <DistanceMeters>NAN</DistanceMeters>
          </Trackpoint>
          <Trackpoint>
            <Time>2019-08-01T12:35:24.000Z</Time>
            <Position>
              <LatitudeDegrees>40.70423129014670848846435546875</LatitudeDegrees>
              <LongitudeDegrees>-4.0674041770398616790771484375</LongitudeDegrees>
            </Position>
            <AltitudeMeters>1058.199951171875</AltitudeMeters>
            <DistanceMeters>NAN</DistanceMeters>
          </Trackpoint>
          <Trackpoint>
            <Time>2019-08-01T12:35:25.000Z</Time>
            <Position>
              <LatitudeDegrees>40.70420882664620876312255859375</LatitudeDegrees>
              <LongitudeDegrees>-4.06733921729028224945068359375</LongitudeDegrees>
            </Position>
            <AltitudeMeters>1058.199951171875</AltitudeMeters>
            <DistanceMeters>NAN</DistanceMeters>
          </Trackpoint>
          <Trackpoint>
            <Time>2019-08-01T12:35:26.000Z</Time>
            <Position>
              <LatitudeDegrees>40.70418586023151874542236328125</LatitudeDegrees>
              <LongitudeDegrees>-4.06727400608360767364501953125</LongitudeDegrees>
            </Position>
            <AltitudeMeters>1058.199951171875</AltitudeMeters>
            <DistanceMeters>NAN</DistanceMeters>
          </Trackpoint>
          <Trackpoint>
            <Time>2019-08-01T12:35:27.000Z</Time>
            <Position>
              <LatitudeDegrees>40.70416289381682872772216796875</LatitudeDegrees>
              <LongitudeDegrees>-4.06720762141048908233642578125</LongitudeDegrees>
            </Position>
            <AltitudeMeters>1058.4000244140625</AltitudeMeters>
            <DistanceMeters>NAN</DistanceMeters>
          </Trackpoint>
          <Trackpoint>
            <Time>2019-08-01T12:35:28.000Z</Time>
            <Position>
              <LatitudeDegrees>40.70413992740213871002197265625</LatitudeDegrees>
              <LongitudeDegrees>-4.067140482366085052490234375</LongitudeDegrees>
            </Position>
            <AltitudeMeters>1058.4000244140625</AltitudeMeters>
            <DistanceMeters>NAN</DistanceMeters>
          </Trackpoint>
          <Trackpoint>
            <Time>2019-08-01T12:35:29.000Z</Time>
            <Position>
              <LatitudeDegrees>40.70411696098744869232177734375</LatitudeDegrees>
              <LongitudeDegrees>-4.0670729242265224456787109375</LongitudeDegrees>
            </Position>
            <AltitudeMeters>1058.4000244140625</AltitudeMeters>
            <DistanceMeters>NAN</DistanceMeters>
          </Trackpoint>
          <Trackpoint>
            <Time>2019-08-01T12:35:30.000Z</Time>
            <Position>
              <LatitudeDegrees>40.7040930725634098052978515625</LatitudeDegrees>
              <LongitudeDegrees>-4.06700561754405498504638671875</LongitudeDegrees>
            </Position>
            <AltitudeMeters>1058.4000244140625</AltitudeMeters>
            <DistanceMeters>NAN</DistanceMeters>
          </Trackpoint>
          <Trackpoint>
            <Time>2019-08-01T12:35:31.000Z</Time>
            <Position>
              <LatitudeDegrees>40.7040689326822757720947265625</LatitudeDegrees>
              <LongitudeDegrees>-4.066937975585460662841796875</LongitudeDegrees>
            </Position>
            <AltitudeMeters>1058.4000244140625</AltitudeMeters>
            <DistanceMeters>NAN</DistanceMeters>
          </Trackpoint>
          <Trackpoint>
            <Time>2019-08-01T12:35:32.000Z</Time>
            <Position>
              <LatitudeDegrees>40.70404420606791973114013671875</LatitudeDegrees>
              <LongitudeDegrees>-4.066869579255580902099609375</LongitudeDegrees>
            </Position>
            <AltitudeMeters>1058.4000244140625</AltitudeMeters>
            <DistanceMeters>NAN</DistanceMeters>
          </Trackpoint>
          <Trackpoint>
            <Time>2019-08-01T12:35:33.000Z</Time>
            <Position>
              <LatitudeDegrees>40.7040193118155002593994140625</LatitudeDegrees>
              <LongitudeDegrees>-4.0667990036308765411376953125</LongitudeDegrees>
            </Position>
            <AltitudeMeters>1058.4000244140625</AltitudeMeters>
            <DistanceMeters>NAN</DistanceMeters>
          </Trackpoint>
          <Trackpoint>
            <Time>2019-08-01T12:35:34.000Z</Time>
            <Position>
              <LatitudeDegrees>40.703993998467922210693359375</LatitudeDegrees>
              <LongitudeDegrees>-4.0667269192636013031005859375</LongitudeDegrees>
            </Position>
            <AltitudeMeters>1058.4000244140625</AltitudeMeters>
            <DistanceMeters>NAN</DistanceMeters>
          </Trackpoint>
          <Trackpoint>
            <Time>2019-08-01T12:35:35.000Z</Time>
            <Position>
              <LatitudeDegrees>40.703967176377773284912109375</LatitudeDegrees>
              <LongitudeDegrees>-4.06665391288697719573974609375</LongitudeDegrees>
            </Position>
            <AltitudeMeters>1058.4000244140625</AltitudeMeters>
            <DistanceMeters>NAN</DistanceMeters>
          </Trackpoint>
          <Trackpoint>
            <Time>2019-08-01T12:35:36.000Z</Time>
            <Position>
              <LatitudeDegrees>40.70394001901149749755859375</LatitudeDegrees>
              <LongitudeDegrees>-4.066580235958099365234375</LongitudeDegrees>
            </Position>
            <AltitudeMeters>1058.4000244140625</AltitudeMeters>
            <DistanceMeters>NAN</DistanceMeters>
          </Trackpoint>
          <Trackpoint>
            <Time>2019-08-01T12:35:37.000Z</Time>
            <Position>
              <LatitudeDegrees>40.70391210727393627166748046875</LatitudeDegrees>
              <LongitudeDegrees>-4.066506139934062957763671875</LongitudeDegrees>
            </Position>
            <AltitudeMeters>1058.199951171875</AltitudeMeters>
            <DistanceMeters>NAN</DistanceMeters>
          </Trackpoint>
          <Trackpoint>
            <Time>2019-08-01T12:35:38.000Z</Time>
            <Position>
              <LatitudeDegrees>40.70391210727393627166748046875</LatitudeDegrees>
              <LongitudeDegrees>-4.066506139934062957763671875</LongitudeDegrees>
            </Position>
            <AltitudeMeters>1058.199951171875</AltitudeMeters>
            <DistanceMeters>NAN</DistanceMeters>
          </Trackpoint>
          <Trackpoint>
            <Time>2019-08-01T12:35:39.000Z</Time>
            <Position>
              <LatitudeDegrees>40.703854858875274658203125</LatitudeDegrees>
              <LongitudeDegrees>-4.06635249964892864227294921875</LongitudeDegrees>
            </Position>
            <AltitudeMeters>1058.4000244140625</AltitudeMeters>
            <DistanceMeters>NAN</DistanceMeters>
          </Trackpoint>
          <Trackpoint>
            <Time>2019-08-01T12:35:40.000Z</Time>
            <Position>
              <LatitudeDegrees>40.7038271985948085784912109375</LatitudeDegrees>
              <LongitudeDegrees>-4.06627370975911617279052734375</LongitudeDegrees>
            </Position>
            <AltitudeMeters>1058.199951171875</AltitudeMeters>
            <DistanceMeters>NAN</DistanceMeters>
          </Trackpoint>
          <Trackpoint>
            <Time>2019-08-01T12:35:41.000Z</Time>
            <Position>
              <LatitudeDegrees>40.703798867762088775634765625</LatitudeDegrees>
              <LongitudeDegrees>-4.0661961771547794342041015625</LongitudeDegrees>
            </Position>
            <AltitudeMeters>1057.800048828125</AltitudeMeters>
            <DistanceMeters>NAN</DistanceMeters>
          </Trackpoint>
          <Trackpoint>
            <Time>2019-08-01T12:35:42.000Z</Time>
            <Position>
              <LatitudeDegrees>40.70376877672970294952392578125</LatitudeDegrees>
              <LongitudeDegrees>-4.0661193989217281341552734375</LongitudeDegrees>
            </Position>
            <AltitudeMeters>1057.5999755859375</AltitudeMeters>
            <DistanceMeters>NAN</DistanceMeters>
          </Trackpoint>
          <Trackpoint>
            <Time>2019-08-01T12:35:43.000Z</Time>
            <Position>
              <LatitudeDegrees>40.7037386856973171234130859375</LatitudeDegrees>
              <LongitudeDegrees>-4.06604136340320110321044921875</LongitudeDegrees>
            </Position>
            <AltitudeMeters>1057.4000244140625</AltitudeMeters>
            <DistanceMeters>NAN</DistanceMeters>
          </Trackpoint>
          <Trackpoint>
            <Time>2019-08-01T12:35:44.000Z</Time>
            <Position>
              <LatitudeDegrees>40.70370842702686786651611328125</LatitudeDegrees>
              <LongitudeDegrees>-4.06596140004694461822509765625</LongitudeDegrees>
            </Position>
            <AltitudeMeters>1057.4000244140625</AltitudeMeters>
            <DistanceMeters>NAN</DistanceMeters>
          </Trackpoint>
          <Trackpoint>
            <Time>2019-08-01T12:35:45.000Z</Time>
            <Position>
              <LatitudeDegrees>40.70367724634706974029541015625</LatitudeDegrees>
              <LongitudeDegrees>-4.06587774865329265594482421875</LongitudeDegrees>
            </Position>
            <AltitudeMeters>1057.199951171875</AltitudeMeters>
            <DistanceMeters>NAN</DistanceMeters>
          </Trackpoint>
          <Trackpoint>
            <Time>2019-08-01T12:35:46.000Z</Time>
            <Position>
              <LatitudeDegrees>40.70364573039114475250244140625</LatitudeDegrees>
              <LongitudeDegrees>-4.06579107977449893951416015625</LongitudeDegrees>
            </Position>
            <AltitudeMeters>1057</AltitudeMeters>
            <DistanceMeters>NAN</DistanceMeters>
          </Trackpoint>
          <Trackpoint>
            <Time>2019-08-01T12:35:47.000Z</Time>
            <Position>
              <LatitudeDegrees>40.7036136277019977569580078125</LatitudeDegrees>
              <LongitudeDegrees>-4.065701477229595184326171875</LongitudeDegrees>
            </Position>
            <AltitudeMeters>1057</AltitudeMeters>
            <DistanceMeters>NAN</DistanceMeters>
          </Trackpoint>
          <Trackpoint>
            <Time>2019-08-01T12:35:48.000Z</Time>
            <Position>
              <LatitudeDegrees>40.70358018390834331512451171875</LatitudeDegrees>
              <LongitudeDegrees>-4.0656101144850254058837890625</LongitudeDegrees>
            </Position>
            <AltitudeMeters>1057</AltitudeMeters>
            <DistanceMeters>NAN</DistanceMeters>
          </Trackpoint>
          <Trackpoint>
            <Time>2019-08-01T12:35:49.000Z</Time>
            <Position>
              <LatitudeDegrees>40.70354514755308628082275390625</LatitudeDegrees>
              <LongitudeDegrees>-4.06551699154078960418701171875</LongitudeDegrees>
            </Position>
            <AltitudeMeters>1056.800048828125</AltitudeMeters>
            <DistanceMeters>NAN</DistanceMeters>
          </Trackpoint>
          <Trackpoint>
            <Time>2019-08-01T12:35:50.000Z</Time>
            <Position>
              <LatitudeDegrees>40.70350944064557552337646484375</LatitudeDegrees>
              <LongitudeDegrees>-4.06542227603495121002197265625</LongitudeDegrees>
            </Position>
            <AltitudeMeters>1056.5999755859375</AltitudeMeters>
            <DistanceMeters>NAN</DistanceMeters>
          </Trackpoint>
          <Trackpoint>
            <Time>2019-08-01T12:35:51.000Z</Time>
            <Position>
              <LatitudeDegrees>40.70347205735743045806884765625</LatitudeDegrees>
              <LongitudeDegrees>-4.06532638706266880035400390625</LongitudeDegrees>
            </Position>
            <AltitudeMeters>1056.4000244140625</AltitudeMeters>
            <DistanceMeters>NAN</DistanceMeters>
          </Trackpoint>
          <Trackpoint>
            <Time>2019-08-01T12:35:52.000Z</Time>
            <Position>
              <LatitudeDegrees>40.7034295611083507537841796875</LatitudeDegrees>
              <LongitudeDegrees>-4.065230749547481536865234375</LongitudeDegrees>
            </Position>
            <AltitudeMeters>1056</AltitudeMeters>
            <DistanceMeters>NAN</DistanceMeters>
          </Trackpoint>
          <Trackpoint>
            <Time>2019-08-01T12:35:53.000Z</Time>
            <Position>
              <LatitudeDegrees>40.70338320918381214141845703125</LatitudeDegrees>
              <LongitudeDegrees>-4.065132178366184234619140625</LongitudeDegrees>
            </Position>
            <AltitudeMeters>1055.199951171875</AltitudeMeters>
            <DistanceMeters>NAN</DistanceMeters>
          </Trackpoint>
          <Trackpoint>
            <Time>2019-08-01T12:35:54.000Z</Time>
            <Position>
              <LatitudeDegrees>40.70333241485059261322021484375</LatitudeDegrees>
              <LongitudeDegrees>-4.06503193080425262451171875</LongitudeDegrees>
            </Position>
            <AltitudeMeters>1054.5999755859375</AltitudeMeters>
            <DistanceMeters>NAN</DistanceMeters>
          </Trackpoint>
          <Trackpoint>
            <Time>2019-08-01T12:35:55.000Z</Time>
            <Position>
              <LatitudeDegrees>40.70327793247997760772705078125</LatitudeDegrees>
              <LongitudeDegrees>-4.06493109650909900665283203125</LongitudeDegrees>
            </Position>
            <AltitudeMeters>1054</AltitudeMeters>
            <DistanceMeters>NAN</DistanceMeters>
          </Trackpoint>
          <Trackpoint>
            <Time>2019-08-01T12:35:56.000Z</Time>
            <Position>
              <LatitudeDegrees>40.70322127081453800201416015625</LatitudeDegrees>
              <LongitudeDegrees>-4.06482799910008907318115234375</LongitudeDegrees>
            </Position>
            <AltitudeMeters>1053.4000244140625</AltitudeMeters>
            <DistanceMeters>NAN</DistanceMeters>
          </Trackpoint>
          <Trackpoint>
            <Time>2019-08-01T12:35:57.000Z</Time>
            <Position>
              <LatitudeDegrees>40.7031616754829883575439453125</LatitudeDegrees>
              <LongitudeDegrees>-4.06472347676753997802734375</LongitudeDegrees>
            </Position>
            <AltitudeMeters>1052.800048828125</AltitudeMeters>
            <DistanceMeters>NAN</DistanceMeters>
          </Trackpoint>
          <Trackpoint>
            <Time>2019-08-01T12:35:58.000Z</Time>
            <Position>
              <LatitudeDegrees>40.70309721864759922027587890625</LatitudeDegrees>
              <LongitudeDegrees>-4.06461895443499088287353515625</LongitudeDegrees>
            </Position>
            <AltitudeMeters>1052.199951171875</AltitudeMeters>
            <DistanceMeters>NAN</DistanceMeters>
          </Trackpoint>
          <Trackpoint>
            <Time>2019-08-01T12:35:59.000Z</Time>
            <Position>
              <LatitudeDegrees>40.7030292414128780364990234375</LatitudeDegrees>
              <LongitudeDegrees>-4.0645134262740612030029296875</LongitudeDegrees>
            </Position>
            <AltitudeMeters>1051.5999755859375</AltitudeMeters>
            <DistanceMeters>NAN</DistanceMeters>
          </Trackpoint>
          <Trackpoint>
            <Time>2019-08-01T12:36:00.000Z</Time>
            <Position>
              <LatitudeDegrees>40.7029588334262371063232421875</LatitudeDegrees>
              <LongitudeDegrees>-4.06440571881830692291259765625</LongitudeDegrees>
            </Position>
            <AltitudeMeters>1051.4000244140625</AltitudeMeters>
            <DistanceMeters>NAN</DistanceMeters>
          </Trackpoint>
          <Trackpoint>
            <Time>2019-08-01T12:36:01.000Z</Time>
            <Position>
              <LatitudeDegrees>40.70288850925862789154052734375</LatitudeDegrees>
              <LongitudeDegrees>-4.0642954967916011810302734375</LongitudeDegrees>
            </Position>
            <AltitudeMeters>1051</AltitudeMeters>
            <DistanceMeters>NAN</DistanceMeters>
          </Trackpoint>
          <Trackpoint>
            <Time>2019-08-01T12:36:02.000Z</Time>
            <Position>
              <LatitudeDegrees>40.70281709544360637664794921875</LatitudeDegrees>
              <LongitudeDegrees>-4.06418359838426113128662109375</LongitudeDegrees>
            </Position>
            <AltitudeMeters>1050.199951171875</AltitudeMeters>
            <DistanceMeters>NAN</DistanceMeters>
          </Trackpoint>
          <Trackpoint>
            <Time>2019-08-01T12:36:03.000Z</Time>
            <Position>
              <LatitudeDegrees>40.70274467580020427703857421875</LatitudeDegrees>
              <LongitudeDegrees>-4.0640705265104770660400390625</LongitudeDegrees>
            </Position>
            <AltitudeMeters>1049.4000244140625</AltitudeMeters>
            <DistanceMeters>NAN</DistanceMeters>
          </Trackpoint>
          <Trackpoint>
            <Time>2019-08-01T12:36:04.000Z</Time>
            <Position>
              <LatitudeDegrees>40.70267477072775363922119140625</LatitudeDegrees>
              <LongitudeDegrees>-4.06395326368510723114013671875</LongitudeDegrees>
            </Position>
            <AltitudeMeters>1048.5999755859375</AltitudeMeters>
            <DistanceMeters>NAN</DistanceMeters>
          </Trackpoint>
          <Trackpoint>
            <Time>2019-08-01T12:36:05.000Z</Time>
            <Position>
              <LatitudeDegrees>40.702610649168491363525390625</LatitudeDegrees>
              <LongitudeDegrees>-4.06383809633553028106689453125</LongitudeDegrees>
            </Position>
            <AltitudeMeters>1048.199951171875</AltitudeMeters>
            <DistanceMeters>NAN</DistanceMeters>
          </Trackpoint>
          <Trackpoint>
            <Time>2019-08-01T12:36:06.000Z</Time>
            <Position>
              <LatitudeDegrees>40.70255457423627376556396484375</LatitudeDegrees>
              <LongitudeDegrees>-4.063731729984283447265625</LongitudeDegrees>
            </Position>
            <AltitudeMeters>1046.800048828125</AltitudeMeters>
            <DistanceMeters>NAN</DistanceMeters>
          </Trackpoint>
          <Trackpoint>
            <Time>2019-08-01T12:36:07.000Z</Time>
            <Position>
              <LatitudeDegrees>40.70250771939754486083984375</LatitudeDegrees>
              <LongitudeDegrees>-4.063641540706157684326171875</LongitudeDegrees>
            </Position>
            <AltitudeMeters>1045.800048828125</AltitudeMeters>
            <DistanceMeters>NAN</DistanceMeters>
          </Trackpoint>
          <Trackpoint>
            <Time>2019-08-01T12:36:08.000Z</Time>
            <Position>
              <LatitudeDegrees>40.70247427560389041900634765625</LatitudeDegrees>
              <LongitudeDegrees>-4.06357473693788051605224609375</LongitudeDegrees>
            </Position>
            <AltitudeMeters>1045.199951171875</AltitudeMeters>
            <DistanceMeters>NAN</DistanceMeters>
          </Trackpoint>
          <Trackpoint>
            <Time>2019-08-01T12:36:09.000Z</Time>
            <Position>
              <LatitudeDegrees>40.70245432667434215545654296875</LatitudeDegrees>
              <LongitudeDegrees>-4.06353115104138851165771484375</LongitudeDegrees>
            </Position>
            <AltitudeMeters>1045</AltitudeMeters>
            <DistanceMeters>NAN</DistanceMeters>
          </Trackpoint>
          <Trackpoint>
            <Time>2019-08-01T12:36:10.000Z</Time>
            <Position>
              <LatitudeDegrees>40.7024461962282657623291015625</LatitudeDegrees>
              <LongitudeDegrees>-4.0635008923709392547607421875</LongitudeDegrees>
            </Position>
            <AltitudeMeters>1044.800048828125</AltitudeMeters>
            <DistanceMeters>NAN</DistanceMeters>
          </Trackpoint>
          <Trackpoint>
            <Time>2019-08-01T12:36:11.000Z</Time>
            <Position>
              <LatitudeDegrees>40.70244477130472660064697265625</LatitudeDegrees>
              <LongitudeDegrees>-4.0634861402213573455810546875</LongitudeDegrees>
            </Position>
            <AltitudeMeters>1044.800048828125</AltitudeMeters>
            <DistanceMeters>NAN</DistanceMeters>
          </Trackpoint>
          <Trackpoint>
            <Time>2019-08-01T16:09:05.000Z</Time>
            <Position>
              <LatitudeDegrees>40.7096150703728199005126953125</LatitudeDegrees>
              <LongitudeDegrees>-4.0789661742746829986572265625</LongitudeDegrees>
            </Position>
            <AltitudeMeters>1027.4000244140625</AltitudeMeters>
            <DistanceMeters>NAN</DistanceMeters>
          </Trackpoint>
          <Trackpoint>
            <Time>2019-08-01T16:09:06.000Z</Time>
            <Position>
              <LatitudeDegrees>40.7095939479768276214599609375</LatitudeDegrees>
              <LongitudeDegrees>-4.07898503355681896209716796875</LongitudeDegrees>
            </Position>
            <AltitudeMeters>1027.4000244140625</AltitudeMeters>
            <DistanceMeters>NAN</DistanceMeters>
          </Trackpoint>
          <Trackpoint>
            <Time>2019-08-01T16:09:07.000Z</Time>
            <Position>
              <LatitudeDegrees>40.7095728255808353424072265625</LatitudeDegrees>
              <LongitudeDegrees>-4.079003892838954925537109375</LongitudeDegrees>
            </Position>
            <AltitudeMeters>1027.4000244140625</AltitudeMeters>
            <DistanceMeters>NAN</DistanceMeters>
          </Trackpoint>
          <Trackpoint>
            <Time>2019-08-01T16:09:08.000Z</Time>
            <Position>
              <LatitudeDegrees>40.70955111645162105560302734375</LatitudeDegrees>
              <LongitudeDegrees>-4.07902174629271030426025390625</LongitudeDegrees>
            </Position>
            <AltitudeMeters>1027.4000244140625</AltitudeMeters>
            <DistanceMeters>NAN</DistanceMeters>
          </Trackpoint>
          <Trackpoint>
            <Time>2019-08-01T16:09:09.000Z</Time>
            <Position>
              <LatitudeDegrees>40.70952798239886760711669921875</LatitudeDegrees>
              <LongitudeDegrees>-4.0790385939180850982666015625</LongitudeDegrees>
            </Position>
            <AltitudeMeters>1027.4000244140625</AltitudeMeters>
            <DistanceMeters>NAN</DistanceMeters>
          </Trackpoint>
          <Trackpoint>
            <Time>2019-08-01T16:09:10.000Z</Time>
            <Position>
              <LatitudeDegrees>40.70950484834611415863037109375</LatitudeDegrees>
              <LongitudeDegrees>-4.0790553577244281768798828125</LongitudeDegrees>
            </Position>
            <AltitudeMeters>1027.4000244140625</AltitudeMeters>
            <DistanceMeters>NAN</DistanceMeters>
          </Trackpoint>
          <Trackpoint>
            <Time>2019-08-01T16:09:11.000Z</Time>
            <Position>
              <LatitudeDegrees>40.7094823010265827178955078125</LatitudeDegrees>
              <LongitudeDegrees>-4.0790707804262638092041015625</LongitudeDegrees>
            </Position>
            <AltitudeMeters>1027.199951171875</AltitudeMeters>
            <DistanceMeters>NAN</DistanceMeters>
          </Trackpoint>
          <Trackpoint>
            <Time>2019-08-01T16:09:12.000Z</Time>
            <Position>
              <LatitudeDegrees>40.7094568200409412384033203125</LatitudeDegrees>
              <LongitudeDegrees>-4.079089052975177764892578125</LongitudeDegrees>
            </Position>
            <AltitudeMeters>1027.199951171875</AltitudeMeters>
            <DistanceMeters>NAN</DistanceMeters>
          </Trackpoint>
          <Trackpoint>
            <Time>2019-08-01T16:09:13.000Z</Time>
            <Position>
              <LatitudeDegrees>40.7094306685030460357666015625</LatitudeDegrees>
              <LongitudeDegrees>-4.0791073255240917205810546875</LongitudeDegrees>
            </Position>
            <AltitudeMeters>1027.199951171875</AltitudeMeters>
            <DistanceMeters>NAN</DistanceMeters>
          </Trackpoint>
          <Trackpoint>
            <Time>2019-08-01T16:09:14.000Z</Time>
            <Position>
              <LatitudeDegrees>40.70940225385129451751708984375</LatitudeDegrees>
              <LongitudeDegrees>-4.079127945005893707275390625</LongitudeDegrees>
            </Position>
            <AltitudeMeters>1027.199951171875</AltitudeMeters>
            <DistanceMeters>NAN</DistanceMeters>
          </Trackpoint>
          <Trackpoint>
            <Time>2019-08-01T16:09:15.000Z</Time>
            <Position>
              <LatitudeDegrees>40.7093730010092258453369140625</LatitudeDegrees>
              <LongitudeDegrees>-4.0791477262973785400390625</LongitudeDegrees>
            </Position>
            <AltitudeMeters>1027.199951171875</AltitudeMeters>
            <DistanceMeters>NAN</DistanceMeters>
          </Trackpoint>
          <Trackpoint>
            <Time>2019-08-01T16:09:16.000Z</Time>
            <Position>
              <LatitudeDegrees>40.7093421556055545806884765625</LatitudeDegrees>
              <LongitudeDegrees>-4.07916809432208538055419921875</LongitudeDegrees>
            </Position>
            <AltitudeMeters>1027.199951171875</AltitudeMeters>
            <DistanceMeters>NAN</DistanceMeters>
          </Trackpoint>
          <Trackpoint>
            <Time>2019-08-01T16:09:17.000Z</Time>
            <Position>
              <LatitudeDegrees>40.7093123160302639007568359375</LatitudeDegrees>
              <LongitudeDegrees>-4.07919458113610744476318359375</LongitudeDegrees>
            </Position>
            <AltitudeMeters>1027</AltitudeMeters>
            <DistanceMeters>NAN</DistanceMeters>
          </Trackpoint>
          <Trackpoint>
            <Time>2019-08-01T16:09:18.000Z</Time>
            <Position>
              <LatitudeDegrees>40.7092821411788463592529296875</LatitudeDegrees>
              <LongitudeDegrees>-4.07922525890171527862548828125</LongitudeDegrees>
            </Position>
            <AltitudeMeters>1027</AltitudeMeters>
            <DistanceMeters>NAN</DistanceMeters>
          </Trackpoint>
          <Trackpoint>
            <Time>2019-08-01T16:09:19.000Z</Time>
            <Position>
              <LatitudeDegrees>40.70925003848969936370849609375</LatitudeDegrees>
              <LongitudeDegrees>-4.07925509847700595855712890625</LongitudeDegrees>
            </Position>
            <AltitudeMeters>1027</AltitudeMeters>
            <DistanceMeters>NAN</DistanceMeters>
          </Trackpoint>
          <Trackpoint>
            <Time>2019-08-01T16:09:20.000Z</Time>
            <Position>
              <LatitudeDegrees>40.70921885780990123748779296875</LatitudeDegrees>
              <LongitudeDegrees>-4.07928510569036006927490234375</LongitudeDegrees>
            </Position>
            <AltitudeMeters>1027</AltitudeMeters>
            <DistanceMeters>NAN</DistanceMeters>
          </Trackpoint>
          <Trackpoint>
            <Time>2019-08-01T16:09:21.000Z</Time>
            <Position>
              <LatitudeDegrees>40.709188096225261688232421875</LatitudeDegrees>
              <LongitudeDegrees>-4.07931427471339702606201171875</LongitudeDegrees>
            </Position>
            <AltitudeMeters>1026.800048828125</AltitudeMeters>
            <DistanceMeters>NAN</DistanceMeters>
          </Trackpoint>
          <Trackpoint>
            <Time>2019-08-01T16:09:22.000Z</Time>
            <Position>
              <LatitudeDegrees>40.70915750227868556976318359375</LatitudeDegrees>
              <LongitudeDegrees>-4.07934243790805339813232421875</LongitudeDegrees>
            </Position>
            <AltitudeMeters>1026.800048828125</AltitudeMeters>
            <DistanceMeters>NAN</DistanceMeters>
          </Trackpoint>
          <Trackpoint>
            <Time>2019-08-01T16:09:23.000Z</Time>
            <Position>
              <LatitudeDegrees>40.70912607014179229736328125</LatitudeDegrees>
              <LongitudeDegrees>-4.07936993055045604705810546875</LongitudeDegrees>
            </Position>
            <AltitudeMeters>1026.800048828125</AltitudeMeters>
            <DistanceMeters>NAN</DistanceMeters>
          </Trackpoint>
          <Trackpoint>
            <Time>2019-08-01T16:09:24.000Z</Time>
            <Position>
              <LatitudeDegrees>40.70909346453845500946044921875</LatitudeDegrees>
              <LongitudeDegrees>-4.07939708791673183441162109375</LongitudeDegrees>
            </Position>
            <AltitudeMeters>1026.800048828125</AltitudeMeters>
            <DistanceMeters>NAN</DistanceMeters>
          </Trackpoint>
          <Trackpoint>
            <Time>2019-08-01T16:09:25.000Z</Time>
            <Position>
              <LatitudeDegrees>40.7090622000396251678466796875</LatitudeDegrees>
              <LongitudeDegrees>-4.0794258378446102142333984375</LongitudeDegrees>
            </Position>
            <AltitudeMeters>1027</AltitudeMeters>
            <DistanceMeters>NAN</DistanceMeters>
          </Trackpoint>
          <Trackpoint>
            <Time>2019-08-01T16:09:26.000Z</Time>
            <Position>
              <LatitudeDegrees>40.709031857550144195556640625</LatitudeDegrees>
              <LongitudeDegrees>-4.07945341430604457855224609375</LongitudeDegrees>
            </Position>
            <AltitudeMeters>1027</AltitudeMeters>
            <DistanceMeters>NAN</DistanceMeters>
          </Trackpoint>
          <Trackpoint>
            <Time>2019-08-01T16:09:27.000Z</Time>
            <Position>
              <LatitudeDegrees>40.70900025777518749237060546875</LatitudeDegrees>
              <LongitudeDegrees>-4.0794801525771617889404296875</LongitudeDegrees>
            </Position>
            <AltitudeMeters>1026.800048828125</AltitudeMeters>
            <DistanceMeters>NAN</DistanceMeters>
          </Trackpoint>
          <Trackpoint>
            <Time>2019-08-01T16:09:28.000Z</Time>
            <Position>
              <LatitudeDegrees>40.7089679874479770660400390625</LatitudeDegrees>
              <LongitudeDegrees>-4.07950923778116703033447265625</LongitudeDegrees>
            </Position>
            <AltitudeMeters>1026.800048828125</AltitudeMeters>
            <DistanceMeters>NAN</DistanceMeters>
          </Trackpoint>
          <Trackpoint>
            <Time>2019-08-01T16:09:29.000Z</Time>
            <Position>
              <LatitudeDegrees>40.70893387310206890106201171875</LatitudeDegrees>
              <LongitudeDegrees>-4.07953807152807712554931640625</LongitudeDegrees>
            </Position>
            <AltitudeMeters>1026.800048828125</AltitudeMeters>
            <DistanceMeters>NAN</DistanceMeters>
          </Trackpoint>
          <Trackpoint>
            <Time>2019-08-01T16:09:30.000Z</Time>
            <Position>
              <LatitudeDegrees>40.70889883674681186676025390625</LatitudeDegrees>
              <LongitudeDegrees>-4.07956682145595550537109375</LongitudeDegrees>
            </Position>
            <AltitudeMeters>1026.5999755859375</AltitudeMeters>
            <DistanceMeters>NAN</DistanceMeters>
          </Trackpoint>
          <Trackpoint>
            <Time>2019-08-01T16:09:31.000Z</Time>
            <Position>
              <LatitudeDegrees>40.708864890038967132568359375</LatitudeDegrees>
              <LongitudeDegrees>-4.079594649374485015869140625</LongitudeDegrees>
            </Position>
            <AltitudeMeters>1026.5999755859375</AltitudeMeters>
            <DistanceMeters>NAN</DistanceMeters>
          </Trackpoint>
          <Trackpoint>
            <Time>2019-08-01T16:09:32.000Z</Time>
            <Position>
              <LatitudeDegrees>40.70883396081626415252685546875</LatitudeDegrees>
              <LongitudeDegrees>-4.07962272875010967254638671875</LongitudeDegrees>
            </Position>
            <AltitudeMeters>1026.5999755859375</AltitudeMeters>
            <DistanceMeters>NAN</DistanceMeters>
          </Trackpoint>
          <Trackpoint>
            <Time>2019-08-01T16:09:33.000Z</Time>
            <Position>
              <LatitudeDegrees>40.70880512706935405731201171875</LatitudeDegrees>
              <LongitudeDegrees>-4.07965089194476604461669921875</LongitudeDegrees>
            </Position>
            <AltitudeMeters>1026.5999755859375</AltitudeMeters>
            <DistanceMeters>NAN</DistanceMeters>
          </Trackpoint>
          <Trackpoint>
            <Time>2019-08-01T16:09:34.000Z</Time>
            <Position>
              <LatitudeDegrees>40.7087775506079196929931640625</LatitudeDegrees>
              <LongitudeDegrees>-4.0796769596636295318603515625</LongitudeDegrees>
            </Position>
            <AltitudeMeters>1026.4000244140625</AltitudeMeters>
            <DistanceMeters>NAN</DistanceMeters>
          </Trackpoint>
          <Trackpoint>
            <Time>2019-08-01T16:09:35.000Z</Time>
            <Position>
              <LatitudeDegrees>40.7087540812790393829345703125</LatitudeDegrees>
              <LongitudeDegrees>-4.07970185391604900360107421875</LongitudeDegrees>
            </Position>
            <AltitudeMeters>1026.4000244140625</AltitudeMeters>
            <DistanceMeters>NAN</DistanceMeters>
          </Trackpoint>
          <Trackpoint>
            <Time>2019-08-01T16:09:36.000Z</Time>
            <Position>
              <LatitudeDegrees>40.7087356410920619964599609375</LatitudeDegrees>
              <LongitudeDegrees>-4.0797279216349124908447265625</LongitudeDegrees>
            </Position>
            <AltitudeMeters>1026.4000244140625</AltitudeMeters>
            <DistanceMeters>NAN</DistanceMeters>
          </Trackpoint>
          <Trackpoint>
            <Time>2019-08-01T16:09:37.000Z</Time>
            <Position>
              <LatitudeDegrees>40.7087145186960697174072265625</LatitudeDegrees>
              <LongitudeDegrees>-4.0797564201056957244873046875</LongitudeDegrees>
            </Position>
            <AltitudeMeters>1026.4000244140625</AltitudeMeters>
            <DistanceMeters>NAN</DistanceMeters>
          </Trackpoint>
          <Trackpoint>
            <Time>2019-08-01T16:09:38.000Z</Time>
            <Position>
              <LatitudeDegrees>40.70868995971977710723876953125</LatitudeDegrees>
              <LongitudeDegrees>-4.0797879360616207122802734375</LongitudeDegrees>
            </Position>
            <AltitudeMeters>1026.4000244140625</AltitudeMeters>
            <DistanceMeters>NAN</DistanceMeters>
          </Trackpoint>
          <Trackpoint>
            <Time>2019-08-01T16:09:39.000Z</Time>
            <Position>
              <LatitudeDegrees>40.70866070687770843505859375</LatitudeDegrees>
              <LongitudeDegrees>-4.0798164345324039459228515625</LongitudeDegrees>
            </Position>
            <AltitudeMeters>1026.4000244140625</AltitudeMeters>
            <DistanceMeters>NAN</DistanceMeters>
          </Trackpoint>
          <Trackpoint>
            <Time>2019-08-01T16:09:40.000Z</Time>
            <Position>
              <LatitudeDegrees>40.7086273469030857086181640625</LatitudeDegrees>
              <LongitudeDegrees>-4.07984334044158458709716796875</LongitudeDegrees>
            </Position>
            <AltitudeMeters>1026.5999755859375</AltitudeMeters>
            <DistanceMeters>NAN</DistanceMeters>
          </Trackpoint>
          <Trackpoint>
            <Time>2019-08-01T16:09:41.000Z</Time>
            <Position>
              <LatitudeDegrees>40.7085840962827205657958984375</LatitudeDegrees>
              <LongitudeDegrees>-4.0798652172088623046875</LongitudeDegrees>
            </Position>
            <AltitudeMeters>1026.5999755859375</AltitudeMeters>
            <DistanceMeters>NAN</DistanceMeters>
          </Trackpoint>
          <Trackpoint>
            <Time>2019-08-01T16:09:42.000Z</Time>
            <Position>
              <LatitudeDegrees>40.7085408456623554229736328125</LatitudeDegrees>
              <LongitudeDegrees>-4.07987795770168304443359375</LongitudeDegrees>
            </Position>
            <AltitudeMeters>1026.4000244140625</AltitudeMeters>
            <DistanceMeters>NAN</DistanceMeters>
          </Trackpoint>
          <Trackpoint>
            <Time>2019-08-01T16:09:43.000Z</Time>
            <Position>
              <LatitudeDegrees>40.70849231444299221038818359375</LatitudeDegrees>
              <LongitudeDegrees>-4.07989002764225006103515625</LongitudeDegrees>
            </Position>
            <AltitudeMeters>1026.4000244140625</AltitudeMeters>
            <DistanceMeters>NAN</DistanceMeters>
          </Trackpoint>
          <Trackpoint>
            <Time>2019-08-01T16:09:44.000Z</Time>
            <Position>
              <LatitudeDegrees>40.70844068191945552825927734375</LatitudeDegrees>
              <LongitudeDegrees>-4.07990343868732452392578125</LongitudeDegrees>
            </Position>
            <AltitudeMeters>1026.4000244140625</AltitudeMeters>
            <DistanceMeters>NAN</DistanceMeters>
          </Trackpoint>
          <Trackpoint>
            <Time>2019-08-01T16:09:45.000Z</Time>
            <Position>
              <LatitudeDegrees>40.70838653482496738433837890625</LatitudeDegrees>
              <LongitudeDegrees>-4.07991844229400157928466796875</LongitudeDegrees>
            </Position>
            <AltitudeMeters>1026.4000244140625</AltitudeMeters>
            <DistanceMeters>NAN</DistanceMeters>
          </Trackpoint>
          <Trackpoint>
            <Time>2019-08-01T16:09:46.000Z</Time>
            <Position>
              <LatitudeDegrees>40.70833004079759120941162109375</LatitudeDegrees>
              <LongitudeDegrees>-4.079933948814868927001953125</LongitudeDegrees>
            </Position>
            <AltitudeMeters>1026.199951171875</AltitudeMeters>
            <DistanceMeters>NAN</DistanceMeters>
          </Trackpoint>
          <Trackpoint>
            <Time>2019-08-01T16:09:47.000Z</Time>
            <Position>
              <LatitudeDegrees>40.70827153511345386505126953125</LatitudeDegrees>
              <LongitudeDegrees>-4.07995079644024372100830078125</LongitudeDegrees>
            </Position>
            <AltitudeMeters>1026.199951171875</AltitudeMeters>
            <DistanceMeters>NAN</DistanceMeters>
          </Trackpoint>
          <Trackpoint>
            <Time>2019-08-01T16:09:48.000Z</Time>
            <Position>
              <LatitudeDegrees>40.708211101591587066650390625</LatitudeDegrees>
              <LongitudeDegrees>-4.079967476427555084228515625</LongitudeDegrees>
            </Position>
            <AltitudeMeters>1026.199951171875</AltitudeMeters>
            <DistanceMeters>NAN</DistanceMeters>
          </Trackpoint>
          <Trackpoint>
            <Time>2019-08-01T16:09:49.000Z</Time>
            <Position>
              <LatitudeDegrees>40.70814815349876880645751953125</LatitudeDegrees>
              <LongitudeDegrees>-4.07998465932905673980712890625</LongitudeDegrees>
            </Position>
            <AltitudeMeters>1026.199951171875</AltitudeMeters>
            <DistanceMeters>NAN</DistanceMeters>
          </Trackpoint>
          <Trackpoint>
            <Time>2019-08-01T16:09:50.000Z</Time>
            <Position>
              <LatitudeDegrees>40.70808176882565021514892578125</LatitudeDegrees>
              <LongitudeDegrees>-4.080002009868621826171875</LongitudeDegrees>
            </Position>
            <AltitudeMeters>1026.199951171875</AltitudeMeters>
            <DistanceMeters>NAN</DistanceMeters>
          </Trackpoint>
          <Trackpoint>
            <Time>2019-08-01T16:09:51.000Z</Time>
            <Position>
              <LatitudeDegrees>40.70801387540996074676513671875</LatitudeDegrees>
              <LongitudeDegrees>-4.0800212882459163665771484375</LongitudeDegrees>
            </Position>
            <AltitudeMeters>1026</AltitudeMeters>
            <DistanceMeters>NAN</DistanceMeters>
          </Trackpoint>
          <Trackpoint>
            <Time>2019-08-01T16:09:52.000Z</Time>
            <Position>
              <LatitudeDegrees>40.7079430483281612396240234375</LatitudeDegrees>
              <LongitudeDegrees>-4.08003930933773517608642578125</LongitudeDegrees>
            </Position>
            <AltitudeMeters>1025.800048828125</AltitudeMeters>
            <DistanceMeters>NAN</DistanceMeters>
          </Trackpoint>
          <Trackpoint>
            <Time>2019-08-01T16:09:53.000Z</Time>
            <Position>
              <LatitudeDegrees>40.70787121541798114776611328125</LatitudeDegrees>
              <LongitudeDegrees>-4.0800596773624420166015625</LongitudeDegrees>
            </Position>
            <AltitudeMeters>1025.5999755859375</AltitudeMeters>
            <DistanceMeters>NAN</DistanceMeters>
          </Trackpoint>
          <Trackpoint>
            <Time>2019-08-01T16:09:54.000Z</Time>
            <Position>
              <LatitudeDegrees>40.7077972032129764556884765625</LatitudeDegrees>
              <LongitudeDegrees>-4.080080129206180572509765625</LongitudeDegrees>
            </Position>
            <AltitudeMeters>1025.5999755859375</AltitudeMeters>
            <DistanceMeters>NAN</DistanceMeters>
          </Trackpoint>
          <Trackpoint>
            <Time>2019-08-01T16:09:55.000Z</Time>
            <Position>
              <LatitudeDegrees>40.70772134698927402496337890625</LatitudeDegrees>
              <LongitudeDegrees>-4.08010066486895084381103515625</LongitudeDegrees>
            </Position>
            <AltitudeMeters>1025.199951171875</AltitudeMeters>
            <DistanceMeters>NAN</DistanceMeters>
          </Trackpoint>
          <Trackpoint>
            <Time>2019-08-01T16:09:56.000Z</Time>
            <Position>
              <LatitudeDegrees>40.7076433114707469940185546875</LatitudeDegrees>
              <LongitudeDegrees>-4.08012161962687969207763671875</LongitudeDegrees>
            </Position>
            <AltitudeMeters>1025.199951171875</AltitudeMeters>
            <DistanceMeters>NAN</DistanceMeters>
          </Trackpoint>
          <Trackpoint>
            <Time>2019-08-01T16:09:57.000Z</Time>
            <Position>
              <LatitudeDegrees>40.70756326429545879364013671875</LatitudeDegrees>
              <LongitudeDegrees>-4.0801423229277133941650390625</LongitudeDegrees>
            </Position>
            <AltitudeMeters>1025</AltitudeMeters>
            <DistanceMeters>NAN</DistanceMeters>
          </Trackpoint>
          <Trackpoint>
            <Time>2019-08-01T16:09:58.000Z</Time>
            <Position>
              <LatitudeDegrees>40.7074817083775997161865234375</LatitudeDegrees>
              <LongitudeDegrees>-4.080163277685642242431640625</LongitudeDegrees>
            </Position>
            <AltitudeMeters>1024.800048828125</AltitudeMeters>
            <DistanceMeters>NAN</DistanceMeters>
          </Trackpoint>
          <Trackpoint>
            <Time>2019-08-01T16:09:59.000Z</Time>
            <Position>
              <LatitudeDegrees>40.70739830844104290008544921875</LatitudeDegrees>
              <LongitudeDegrees>-4.0801870822906494140625</LongitudeDegrees>
            </Position>
            <AltitudeMeters>1024.800048828125</AltitudeMeters>
            <DistanceMeters>NAN</DistanceMeters>
          </Trackpoint>
          <Trackpoint>
            <Time>2019-08-01T16:10:00.000Z</Time>
            <Position>
              <LatitudeDegrees>40.70739830844104290008544921875</LatitudeDegrees>
              <LongitudeDegrees>-4.0801870822906494140625</LongitudeDegrees>
            </Position>
            <AltitudeMeters>1024.5999755859375</AltitudeMeters>
            <DistanceMeters>NAN</DistanceMeters>
          </Trackpoint>
          <Trackpoint>
            <Time>2019-08-01T16:10:01.000Z</Time>
            <Position>
              <LatitudeDegrees>40.7072289101779460906982421875</LatitudeDegrees>
              <LongitudeDegrees>-4.08023343421518802642822265625</LongitudeDegrees>
            </Position>
            <AltitudeMeters>1024.5999755859375</AltitudeMeters>
            <DistanceMeters>NAN</DistanceMeters>
          </Trackpoint>
          <Trackpoint>
            <Time>2019-08-01T16:10:02.000Z</Time>
            <Position>
              <LatitudeDegrees>40.7071414031088352203369140625</LatitudeDegrees>
              <LongitudeDegrees>-4.0802559815347194671630859375</LongitudeDegrees>
            </Position>
            <AltitudeMeters>1024.4000244140625</AltitudeMeters>
            <DistanceMeters>NAN</DistanceMeters>
          </Trackpoint>
          <Trackpoint>
            <Time>2019-08-01T16:10:03.000Z</Time>
            <Position>
              <LatitudeDegrees>40.70705297403037548065185546875</LatitudeDegrees>
              <LongitudeDegrees>-4.080280624330043792724609375</LongitudeDegrees>
            </Position>
            <AltitudeMeters>1024</AltitudeMeters>
            <DistanceMeters>NAN</DistanceMeters>
          </Trackpoint>
          <Trackpoint>
            <Time>2019-08-01T16:10:04.000Z</Time>
            <Position>
              <LatitudeDegrees>40.70696345530450344085693359375</LatitudeDegrees>
              <LongitudeDegrees>-4.0803072787821292877197265625</LongitudeDegrees>
            </Position>
            <AltitudeMeters>1023.79998779296875</AltitudeMeters>
            <DistanceMeters>NAN</DistanceMeters>
          </Trackpoint>
          <Trackpoint>
            <Time>2019-08-01T16:10:05.000Z</Time>
            <Position>
              <LatitudeDegrees>40.706873349845409393310546875</LatitudeDegrees>
              <LongitudeDegrees>-4.08033602871000766754150390625</LongitudeDegrees>
            </Position>
            <AltitudeMeters>1023.4000244140625</AltitudeMeters>
            <DistanceMeters>NAN</DistanceMeters>
          </Trackpoint>
          <Trackpoint>
            <Time>2019-08-01T16:10:06.000Z</Time>
            <Position>
              <LatitudeDegrees>40.70678290911018848419189453125</LatitudeDegrees>
              <LongitudeDegrees>-4.08036922104656696319580078125</LongitudeDegrees>
            </Position>
            <AltitudeMeters>1023</AltitudeMeters>
            <DistanceMeters>NAN</DistanceMeters>
          </Trackpoint>
          <Trackpoint>
            <Time>2019-08-01T16:10:07.000Z</Time>
            <Position>
              <LatitudeDegrees>40.7066924683749675750732421875</LatitudeDegrees>
              <LongitudeDegrees>-4.08040693961083889007568359375</LongitudeDegrees>
            </Position>
            <AltitudeMeters>1022.4000244140625</AltitudeMeters>
            <DistanceMeters>NAN</DistanceMeters>
          </Trackpoint>
          <Trackpoint>
            <Time>2019-08-01T16:10:08.000Z</Time>
            <Position>
              <LatitudeDegrees>40.7066002674400806427001953125</LatitudeDegrees>
              <LongitudeDegrees>-4.08044734038412570953369140625</LongitudeDegrees>
            </Position>
            <AltitudeMeters>1021.79998779296875</AltitudeMeters>
            <DistanceMeters>NAN</DistanceMeters>
          </Trackpoint>
          <Trackpoint>
            <Time>2019-08-01T16:10:09.000Z</Time>
            <Position>
              <LatitudeDegrees>40.7065057195723056793212890625</LatitudeDegrees>
              <LongitudeDegrees>-4.08048740588128566741943359375</LongitudeDegrees>
            </Position>
            <AltitudeMeters>1021.5999755859375</AltitudeMeters>
            <DistanceMeters>NAN</DistanceMeters>
          </Trackpoint>
          <Trackpoint>
            <Time>2019-08-01T16:10:10.000Z</Time>
            <Position>
              <LatitudeDegrees>40.706408657133579254150390625</LatitudeDegrees>
              <LongitudeDegrees>-4.0805268846452236175537109375</LongitudeDegrees>
            </Position>
            <AltitudeMeters>1021</AltitudeMeters>
            <DistanceMeters>NAN</DistanceMeters>
          </Trackpoint>
          <Trackpoint>
            <Time>2019-08-01T16:10:11.000Z</Time>
            <Position>
              <LatitudeDegrees>40.70631016977131366729736328125</LatitudeDegrees>
              <LongitudeDegrees>-4.0805674530565738677978515625</LongitudeDegrees>
            </Position>
            <AltitudeMeters>1020.5999755859375</AltitudeMeters>
            <DistanceMeters>NAN</DistanceMeters>
          </Trackpoint>
          <Trackpoint>
            <Time>2019-08-01T16:10:12.000Z</Time>
            <Position>
              <LatitudeDegrees>40.70620925165712833404541015625</LatitudeDegrees>
              <LongitudeDegrees>-4.0806046687066555023193359375</LongitudeDegrees>
            </Position>
            <AltitudeMeters>1020.20001220703125</AltitudeMeters>
            <DistanceMeters>NAN</DistanceMeters>
          </Trackpoint>
          <Trackpoint>
            <Time>2019-08-01T16:10:13.000Z</Time>
            <Position>
              <LatitudeDegrees>40.70610590279102325439453125</LatitudeDegrees>
              <LongitudeDegrees>-4.080635346472263336181640625</LongitudeDegrees>
            </Position>
            <AltitudeMeters>1019.79998779296875</AltitudeMeters>
            <DistanceMeters>NAN</DistanceMeters>
          </Trackpoint>
          <Trackpoint>
            <Time>2019-08-01T16:10:14.000Z</Time>
            <Position>
              <LatitudeDegrees>40.70599936880171298980712890625</LatitudeDegrees>
              <LongitudeDegrees>-4.08066384494304656982421875</LongitudeDegrees>
            </Position>
            <AltitudeMeters>1019.4000244140625</AltitudeMeters>
            <DistanceMeters>NAN</DistanceMeters>
          </Trackpoint>
          <Trackpoint>
            <Time>2019-08-01T16:10:15.000Z</Time>
            <Position>
              <LatitudeDegrees>40.7058919966220855712890625</LatitudeDegrees>
              <LongitudeDegrees>-4.08069360069930553436279296875</LongitudeDegrees>
            </Position>
            <AltitudeMeters>1018.79998779296875</AltitudeMeters>
            <DistanceMeters>NAN</DistanceMeters>
          </Trackpoint>
          <Trackpoint>
            <Time>2019-08-01T16:10:16.000Z</Time>
            <Position>
              <LatitudeDegrees>40.70578378625214099884033203125</LatitudeDegrees>
              <LongitudeDegrees>-4.08072444610297679901123046875</LongitudeDegrees>
            </Position>
            <AltitudeMeters>1018.4000244140625</AltitudeMeters>
            <DistanceMeters>NAN</DistanceMeters>
          </Trackpoint>
          <Trackpoint>
            <Time>2019-08-01T16:10:17.000Z</Time>
            <Position>
              <LatitudeDegrees>40.70567515678703784942626953125</LatitudeDegrees>
              <LongitudeDegrees>-4.08075663261115550994873046875</LongitudeDegrees>
            </Position>
            <AltitudeMeters>1018</AltitudeMeters>
            <DistanceMeters>NAN</DistanceMeters>
          </Trackpoint>
          <Trackpoint>
            <Time>2019-08-01T16:10:18.000Z</Time>
            <Position>
              <LatitudeDegrees>40.70556669495999813079833984375</LatitudeDegrees>
              <LongitudeDegrees>-4.08079099841415882110595703125</LongitudeDegrees>
            </Position>
            <AltitudeMeters>1017.4000244140625</AltitudeMeters>
            <DistanceMeters>NAN</DistanceMeters>
          </Trackpoint>
          <Trackpoint>
            <Time>2019-08-01T16:10:19.000Z</Time>
            <Position>
              <LatitudeDegrees>40.70545722730457782745361328125</LatitudeDegrees>
              <LongitudeDegrees>-4.0808282978832721710205078125</LongitudeDegrees>
            </Position>
            <AltitudeMeters>1017</AltitudeMeters>
            <DistanceMeters>NAN</DistanceMeters>
          </Trackpoint>
          <Trackpoint>
            <Time>2019-08-01T16:10:20.000Z</Time>
            <Position>
              <LatitudeDegrees>40.70534683763980865478515625</LatitudeDegrees>
              <LongitudeDegrees>-4.08086861483752727508544921875</LongitudeDegrees>
            </Position>
            <AltitudeMeters>1016.5999755859375</AltitudeMeters>
            <DistanceMeters>NAN</DistanceMeters>
          </Trackpoint>
          <Trackpoint>
            <Time>2019-08-01T16:10:21.000Z</Time>
            <Position>
              <LatitudeDegrees>40.705236531794071197509765625</LatitudeDegrees>
              <LongitudeDegrees>-4.080912955105304718017578125</LongitudeDegrees>
            </Position>
            <AltitudeMeters>1016</AltitudeMeters>
            <DistanceMeters>NAN</DistanceMeters>
          </Trackpoint>
          <Trackpoint>
            <Time>2019-08-01T16:10:22.000Z</Time>
            <Position>
              <LatitudeDegrees>40.705127231776714324951171875</LatitudeDegrees>
              <LongitudeDegrees>-4.08096198923885822296142578125</LongitudeDegrees>
            </Position>
            <AltitudeMeters>1015.5999755859375</AltitudeMeters>
            <DistanceMeters>NAN</DistanceMeters>
          </Trackpoint>
          <Trackpoint>
            <Time>2019-08-01T16:10:23.000Z</Time>
            <Position>
              <LatitudeDegrees>40.70501826703548431396484375</LatitudeDegrees>
              <LongitudeDegrees>-4.08101378940045833587646484375</LongitudeDegrees>
            </Position>
            <AltitudeMeters>1015</AltitudeMeters>
            <DistanceMeters>NAN</DistanceMeters>
          </Trackpoint>
          <Trackpoint>
            <Time>2019-08-01T16:10:24.000Z</Time>
            <Position>
              <LatitudeDegrees>40.7049101404845714569091796875</LatitudeDegrees>
              <LongitudeDegrees>-4.0810668468475341796875</LongitudeDegrees>
            </Position>
            <AltitudeMeters>1014.4000244140625</AltitudeMeters>
            <DistanceMeters>NAN</DistanceMeters>
          </Trackpoint>
          <Trackpoint>
            <Time>2019-08-01T16:10:25.000Z</Time>
            <Position>
              <LatitudeDegrees>40.7048025168478488922119140625</LatitudeDegrees>
              <LongitudeDegrees>-4.0811203233897686004638671875</LongitudeDegrees>
            </Position>
            <AltitudeMeters>1013.79998779296875</AltitudeMeters>
            <DistanceMeters>NAN</DistanceMeters>
          </Trackpoint>
          <Trackpoint>
            <Time>2019-08-01T16:10:26.000Z</Time>
            <Position>
              <LatitudeDegrees>40.70469631813466548919677734375</LatitudeDegrees>
              <LongitudeDegrees>-4.08117346465587615966796875</LongitudeDegrees>
            </Position>
            <AltitudeMeters>1012.20001220703125</AltitudeMeters>
            <DistanceMeters>NAN</DistanceMeters>
          </Trackpoint>
          <Trackpoint>
            <Time>2019-08-01T16:10:27.000Z</Time>
            <Position>
              <LatitudeDegrees>40.70459104143083095550537109375</LatitudeDegrees>
              <LongitudeDegrees>-4.0812266059219837188720703125</LongitudeDegrees>
            </Position>
            <AltitudeMeters>1011.5999755859375</AltitudeMeters>
            <DistanceMeters>NAN</DistanceMeters>
          </Trackpoint>
          <Trackpoint>
            <Time>2019-08-01T16:10:28.000Z</Time>
            <Position>
              <LatitudeDegrees>40.70448643527925014495849609375</LatitudeDegrees>
              <LongitudeDegrees>-4.0812789089977741241455078125</LongitudeDegrees>
            </Position>
            <AltitudeMeters>1011</AltitudeMeters>
            <DistanceMeters>NAN</DistanceMeters>
          </Trackpoint>
          <Trackpoint>
            <Time>2019-08-01T16:10:29.000Z</Time>
            <Position>
              <LatitudeDegrees>40.704382248222827911376953125</LatitudeDegrees>
              <LongitudeDegrees>-4.08133029006421566009521484375</LongitudeDegrees>
            </Position>
            <AltitudeMeters>1010.5999755859375</AltitudeMeters>
            <DistanceMeters>NAN</DistanceMeters>
          </Trackpoint>
          <Trackpoint>
            <Time>2019-08-01T16:10:30.000Z</Time>
            <Position>
              <LatitudeDegrees>40.70427806116640567779541015625</LatitudeDegrees>
              <LongitudeDegrees>-4.0813811682164669036865234375</LongitudeDegrees>
            </Position>
            <AltitudeMeters>1010</AltitudeMeters>
            <DistanceMeters>NAN</DistanceMeters>
          </Trackpoint>
          <Trackpoint>
            <Time>2019-08-01T16:10:31.000Z</Time>
            <Position>
              <LatitudeDegrees>40.70417345501482486724853515625</LatitudeDegrees>
              <LongitudeDegrees>-4.081427939236164093017578125</LongitudeDegrees>
            </Position>
            <AltitudeMeters>1009.4000244140625</AltitudeMeters>
            <DistanceMeters>NAN</DistanceMeters>
          </Trackpoint>
          <Trackpoint>
            <Time>2019-08-01T16:10:32.000Z</Time>
            <Position>
              <LatitudeDegrees>40.7040689326822757720947265625</LatitudeDegrees>
              <LongitudeDegrees>-4.081470184028148651123046875</LongitudeDegrees>
            </Position>
            <AltitudeMeters>1009.20001220703125</AltitudeMeters>
            <DistanceMeters>NAN</DistanceMeters>
          </Trackpoint>
          <Trackpoint>
            <Time>2019-08-01T16:10:33.000Z</Time>
            <Position>
              <LatitudeDegrees>40.7040689326822757720947265625</LatitudeDegrees>
              <LongitudeDegrees>-4.081470184028148651123046875</LongitudeDegrees>
            </Position>
            <AltitudeMeters>1009</AltitudeMeters>
            <DistanceMeters>NAN</DistanceMeters>
          </Trackpoint>
          <Trackpoint>
            <Time>2019-08-01T16:10:34.000Z</Time>
            <Position>
              <LatitudeDegrees>40.70386223495006561279296875</LatitudeDegrees>
              <LongitudeDegrees>-4.081552661955356597900390625</LongitudeDegrees>
            </Position>
            <AltitudeMeters>1008.79998779296875</AltitudeMeters>
            <DistanceMeters>NAN</DistanceMeters>
          </Trackpoint>
          <Trackpoint>
            <Time>2019-08-01T16:10:35.000Z</Time>
            <Position>
              <LatitudeDegrees>40.703760646283626556396484375</LatitudeDegrees>
              <LongitudeDegrees>-4.08159323036670684814453125</LongitudeDegrees>
            </Position>
            <AltitudeMeters>1008.5999755859375</AltitudeMeters>
            <DistanceMeters>NAN</DistanceMeters>
          </Trackpoint>
          <Trackpoint>
            <Time>2019-08-01T16:10:36.000Z</Time>
            <Position>
              <LatitudeDegrees>40.7036602310836315155029296875</LatitudeDegrees>
              <LongitudeDegrees>-4.0816322900354862213134765625</LongitudeDegrees>
            </Position>
            <AltitudeMeters>1008.5999755859375</AltitudeMeters>
            <DistanceMeters>NAN</DistanceMeters>
          </Trackpoint>
          <Trackpoint>
            <Time>2019-08-01T16:10:37.000Z</Time>
            <Position>
              <LatitudeDegrees>40.70356073789298534393310546875</LatitudeDegrees>
              <LongitudeDegrees>-4.08167026005685329437255859375</LongitudeDegrees>
            </Position>
            <AltitudeMeters>1008.20001220703125</AltitudeMeters>
            <DistanceMeters>NAN</DistanceMeters>
          </Trackpoint>
          <Trackpoint>
            <Time>2019-08-01T16:10:38.000Z</Time>
            <Position>
              <LatitudeDegrees>40.70346283726394176483154296875</LatitudeDegrees>
              <LongitudeDegrees>-4.0817083977162837982177734375</LongitudeDegrees>
            </Position>
            <AltitudeMeters>1008</AltitudeMeters>
            <DistanceMeters>NAN</DistanceMeters>
          </Trackpoint>
          <Trackpoint>
            <Time>2019-08-01T16:10:39.000Z</Time>
            <Position>
              <LatitudeDegrees>40.70336611010134220123291015625</LatitudeDegrees>
              <LongitudeDegrees>-4.0817469544708728790283203125</LongitudeDegrees>
            </Position>
            <AltitudeMeters>1007.79998779296875</AltitudeMeters>
            <DistanceMeters>NAN</DistanceMeters>
          </Trackpoint>
          <Trackpoint>
            <Time>2019-08-01T16:10:40.000Z</Time>
            <Position>
              <LatitudeDegrees>40.703269802033901214599609375</LatitudeDegrees>
              <LongitudeDegrees>-4.08178542740643024444580078125</LongitudeDegrees>
            </Position>
            <AltitudeMeters>1007.5999755859375</AltitudeMeters>
            <DistanceMeters>NAN</DistanceMeters>
          </Trackpoint>
          <Trackpoint>
            <Time>2019-08-01T16:10:41.000Z</Time>
            <Position>
              <LatitudeDegrees>40.70317416451871395111083984375</LatitudeDegrees>
              <LongitudeDegrees>-4.0818257443606853485107421875</LongitudeDegrees>
            </Position>
            <AltitudeMeters>1007.4000244140625</AltitudeMeters>
            <DistanceMeters>NAN</DistanceMeters>
          </Trackpoint>
          <Trackpoint>
            <Time>2019-08-01T16:10:42.000Z</Time>
            <Position>
              <LatitudeDegrees>40.703078694641590118408203125</LatitudeDegrees>
              <LongitudeDegrees>-4.081869162619113922119140625</LongitudeDegrees>
            </Position>
            <AltitudeMeters>1007.20001220703125</AltitudeMeters>
            <DistanceMeters>NAN</DistanceMeters>
          </Trackpoint>
          <Trackpoint>
            <Time>2019-08-01T16:10:43.000Z</Time>
            <Position>
              <LatitudeDegrees>40.70298322476446628570556640625</LatitudeDegrees>
              <LongitudeDegrees>-4.08191467635333538055419921875</LongitudeDegrees>
            </Position>
            <AltitudeMeters>1007</AltitudeMeters>
            <DistanceMeters>NAN</DistanceMeters>
          </Trackpoint>
          <Trackpoint>
            <Time>2019-08-01T16:10:44.000Z</Time>
            <Position>
              <LatitudeDegrees>40.70288750343024730682373046875</LatitudeDegrees>
              <LongitudeDegrees>-4.08196094445884227752685546875</LongitudeDegrees>
            </Position>
            <AltitudeMeters>1006.79998779296875</AltitudeMeters>
            <DistanceMeters>NAN</DistanceMeters>
          </Trackpoint>
          <Trackpoint>
            <Time>2019-08-01T16:10:45.000Z</Time>
            <Position>
              <LatitudeDegrees>40.70279161445796489715576171875</LatitudeDegrees>
              <LongitudeDegrees>-4.08200771547853946685791015625</LongitudeDegrees>
            </Position>
            <AltitudeMeters>1006.79998779296875</AltitudeMeters>
            <DistanceMeters>NAN</DistanceMeters>
          </Trackpoint>
          <Trackpoint>
            <Time>2019-08-01T16:10:46.000Z</Time>
            <Position>
              <LatitudeDegrees>40.70269547402858734130859375</LatitudeDegrees>
              <LongitudeDegrees>-4.082054235041141510009765625</LongitudeDegrees>
            </Position>
            <AltitudeMeters>1006.79998779296875</AltitudeMeters>
            <DistanceMeters>NAN</DistanceMeters>
          </Trackpoint>
          <Trackpoint>
            <Time>2019-08-01T16:10:47.000Z</Time>
            <Position>
              <LatitudeDegrees>40.702599249780178070068359375</LatitudeDegrees>
              <LongitudeDegrees>-4.08210092224180698394775390625</LongitudeDegrees>
            </Position>
            <AltitudeMeters>1006.5999755859375</AltitudeMeters>
            <DistanceMeters>NAN</DistanceMeters>
          </Trackpoint>
          <Trackpoint>
            <Time>2019-08-01T16:10:48.000Z</Time>
            <Position>
              <LatitudeDegrees>40.7025025226175785064697265625</LatitudeDegrees>
              <LongitudeDegrees>-4.0821486152708530426025390625</LongitudeDegrees>
            </Position>
            <AltitudeMeters>1006.5999755859375</AltitudeMeters>
            <DistanceMeters>NAN</DistanceMeters>
          </Trackpoint>
          <Trackpoint>
            <Time>2019-08-01T16:10:49.000Z</Time>
            <Position>
              <LatitudeDegrees>40.70240537635982036590576171875</LatitudeDegrees>
              <LongitudeDegrees>-4.0821965597569942474365234375</LongitudeDegrees>
            </Position>
            <AltitudeMeters>1006.4000244140625</AltitudeMeters>
            <DistanceMeters>NAN</DistanceMeters>
          </Trackpoint>
          <Trackpoint>
            <Time>2019-08-01T16:10:50.000Z</Time>
            <Position>
              <LatitudeDegrees>40.70230789482593536376953125</LatitudeDegrees>
              <LongitudeDegrees>-4.08224374987185001373291015625</LongitudeDegrees>
            </Position>
            <AltitudeMeters>1006.20001220703125</AltitudeMeters>
            <DistanceMeters>NAN</DistanceMeters>
          </Trackpoint>
          <Trackpoint>
            <Time>2019-08-01T16:10:51.000Z</Time>
            <Position>
              <LatitudeDegrees>40.70220957510173320770263671875</LatitudeDegrees>
              <LongitudeDegrees>-4.08229060471057891845703125</LongitudeDegrees>
            </Position>
            <AltitudeMeters>1006</AltitudeMeters>
            <DistanceMeters>NAN</DistanceMeters>
          </Trackpoint>
          <Trackpoint>
            <Time>2019-08-01T16:10:52.000Z</Time>
            <Position>
              <LatitudeDegrees>40.7021112553775310516357421875</LatitudeDegrees>
              <LongitudeDegrees>-4.082337878644466400146484375</LongitudeDegrees>
            </Position>
            <AltitudeMeters>1006</AltitudeMeters>
            <DistanceMeters>NAN</DistanceMeters>
          </Trackpoint>
          <Trackpoint>
            <Time>2019-08-01T16:10:53.000Z</Time>
            <Position>
              <LatitudeDegrees>40.7020120136439800262451171875</LatitudeDegrees>
              <LongitudeDegrees>-4.082384817302227020263671875</LongitudeDegrees>
            </Position>
            <AltitudeMeters>1005.4000244140625</AltitudeMeters>
            <DistanceMeters>NAN</DistanceMeters>
          </Trackpoint>
          <Trackpoint>
            <Time>2019-08-01T16:10:54.000Z</Time>
            <Position>
              <LatitudeDegrees>40.70191252045333385467529296875</LatitudeDegrees>
              <LongitudeDegrees>-4.0824334323406219482421875</LongitudeDegrees>
            </Position>
            <AltitudeMeters>1005.20001220703125</AltitudeMeters>
            <DistanceMeters>NAN</DistanceMeters>
          </Trackpoint>
          <Trackpoint>
            <Time>2019-08-01T16:10:55.000Z</Time>
            <Position>
              <LatitudeDegrees>40.70181294344365596771240234375</LatitudeDegrees>
              <LongitudeDegrees>-4.08248330466449260711669921875</LongitudeDegrees>
            </Position>
            <AltitudeMeters>1005</AltitudeMeters>
            <DistanceMeters>NAN</DistanceMeters>
          </Trackpoint>
          <Trackpoint>
            <Time>2019-08-01T16:10:56.000Z</Time>
            <Position>
              <LatitudeDegrees>40.70171336643397808074951171875</LatitudeDegrees>
              <LongitudeDegrees>-4.0825325064361095428466796875</LongitudeDegrees>
            </Position>
            <AltitudeMeters>1004.79998779296875</AltitudeMeters>
            <DistanceMeters>NAN</DistanceMeters>
          </Trackpoint>
          <Trackpoint>
            <Time>2019-08-01T16:10:57.000Z</Time>
            <Position>
              <LatitudeDegrees>40.70161395706236362457275390625</LatitudeDegrees>
              <LongitudeDegrees>-4.08258036710321903228759765625</LongitudeDegrees>
            </Position>
            <AltitudeMeters>1004.5999755859375</AltitudeMeters>
            <DistanceMeters>NAN</DistanceMeters>
          </Trackpoint>
          <Trackpoint>
            <Time>2019-08-01T16:10:58.000Z</Time>
            <Position>
              <LatitudeDegrees>40.70151555351912975311279296875</LatitudeDegrees>
              <LongitudeDegrees>-4.08262780867516994476318359375</LongitudeDegrees>
            </Position>
            <AltitudeMeters>1004.20001220703125</AltitudeMeters>
            <DistanceMeters>NAN</DistanceMeters>
          </Trackpoint>
          <Trackpoint>
            <Time>2019-08-01T16:10:59.000Z</Time>
            <Position>
              <LatitudeDegrees>40.701417736709117889404296875</LatitudeDegrees>
              <LongitudeDegrees>-4.08267550170421600341796875</LongitudeDegrees>
            </Position>
            <AltitudeMeters>1003.79998779296875</AltitudeMeters>
            <DistanceMeters>NAN</DistanceMeters>
          </Trackpoint>
          <Trackpoint>
            <Time>2019-08-01T16:11:00.000Z</Time>
            <Position>
              <LatitudeDegrees>40.701319836080074310302734375</LatitudeDegrees>
              <LongitudeDegrees>-4.082723446190357208251953125</LongitudeDegrees>
            </Position>
            <AltitudeMeters>1003.5999755859375</AltitudeMeters>
            <DistanceMeters>NAN</DistanceMeters>
          </Trackpoint>
          <Trackpoint>
            <Time>2019-08-01T16:11:01.000Z</Time>
            <Position>
              <LatitudeDegrees>40.70122185163199901580810546875</LatitudeDegrees>
              <LongitudeDegrees>-4.08277130685746669769287109375</LongitudeDegrees>
            </Position>
            <AltitudeMeters>1003.4000244140625</AltitudeMeters>
            <DistanceMeters>NAN</DistanceMeters>
          </Trackpoint>
          <Trackpoint>
            <Time>2019-08-01T16:11:02.000Z</Time>
            <Position>
              <LatitudeDegrees>40.7011242024600505828857421875</LatitudeDegrees>
              <LongitudeDegrees>-4.08281891606748104095458984375</LongitudeDegrees>
            </Position>
            <AltitudeMeters>1003</AltitudeMeters>
            <DistanceMeters>NAN</DistanceMeters>
          </Trackpoint>
          <Trackpoint>
            <Time>2019-08-01T16:11:03.000Z</Time>
            <Position>
              <LatitudeDegrees>40.7010263018310070037841796875</LatitudeDegrees>
              <LongitudeDegrees>-4.08286568708717823028564453125</LongitudeDegrees>
            </Position>
            <AltitudeMeters>1002.79998779296875</AltitudeMeters>
            <DistanceMeters>NAN</DistanceMeters>
          </Trackpoint>
          <Trackpoint>
            <Time>2019-08-01T16:11:06.000Z</Time>
            <Position>
              <LatitudeDegrees>40.7007379643619060516357421875</LatitudeDegrees>
              <LongitudeDegrees>-4.083004407584667205810546875</LongitudeDegrees>
            </Position>
            <AltitudeMeters>1002</AltitudeMeters>
            <DistanceMeters>NAN</DistanceMeters>
          </Trackpoint>
          <Trackpoint>
            <Time>2019-08-01T16:11:08.000Z</Time>
            <Position>
              <LatitudeDegrees>40.7005468569695949554443359375</LatitudeDegrees>
              <LongitudeDegrees>-4.0830930881202220916748046875</LongitudeDegrees>
            </Position>
            <AltitudeMeters>1001.20001220703125</AltitudeMeters>
            <DistanceMeters>NAN</DistanceMeters>
          </Trackpoint>
          <Trackpoint>
            <Time>2019-08-01T16:11:10.000Z</Time>
            <Position>
              <LatitudeDegrees>40.700355581939220428466796875</LatitudeDegrees>
              <LongitudeDegrees>-4.0831839479506015777587890625</LongitudeDegrees>
            </Position>
            <AltitudeMeters>1000.5999755859375</AltitudeMeters>
            <DistanceMeters>NAN</DistanceMeters>
          </Trackpoint>
          <Trackpoint>
            <Time>2019-08-01T16:11:11.000Z</Time>
            <Position>
              <LatitudeDegrees>40.70025960914790630340576171875</LatitudeDegrees>
              <LongitudeDegrees>-4.08323113806545734405517578125</LongitudeDegrees>
            </Position>
            <AltitudeMeters>1000.20001220703125</AltitudeMeters>
            <DistanceMeters>NAN</DistanceMeters>
          </Trackpoint>
          <Trackpoint>
            <Time>2019-08-01T16:11:12.000Z</Time>
            <Position>
              <LatitudeDegrees>40.70016388781368732452392578125</LatitudeDegrees>
              <LongitudeDegrees>-4.0832778252661228179931640625</LongitudeDegrees>
            </Position>
            <AltitudeMeters>999.79998779296875</AltitudeMeters>
            <DistanceMeters>NAN</DistanceMeters>
          </Trackpoint>
          <Trackpoint>
            <Time>2019-08-01T16:11:13.000Z</Time>
            <Position>
              <LatitudeDegrees>40.70006825029850006103515625</LatitudeDegrees>
              <LongitudeDegrees>-4.08332400955259799957275390625</LongitudeDegrees>
            </Position>
            <AltitudeMeters>999.5999755859375</AltitudeMeters>
            <DistanceMeters>NAN</DistanceMeters>
          </Trackpoint>
          <Trackpoint>
            <Time>2019-08-01T16:11:14.000Z</Time>
            <Position>
              <LatitudeDegrees>40.69997311569750308990478515625</LatitudeDegrees>
              <LongitudeDegrees>-4.08336893655359745025634765625</LongitudeDegrees>
            </Position>
            <AltitudeMeters>999.20001220703125</AltitudeMeters>
            <DistanceMeters>NAN</DistanceMeters>
          </Trackpoint>
          <Trackpoint>
            <Time>2019-08-01T16:11:15.000Z</Time>
            <Position>
              <LatitudeDegrees>40.69987940602004528045654296875</LatitudeDegrees>
              <LongitudeDegrees>-4.0834129415452480316162109375</LongitudeDegrees>
            </Position>
            <AltitudeMeters>999</AltitudeMeters>
            <DistanceMeters>NAN</DistanceMeters>
          </Trackpoint>
          <Trackpoint>
            <Time>2019-08-01T16:11:16.000Z</Time>
            <Position>
              <LatitudeDegrees>40.6997891329228878021240234375</LatitudeDegrees>
              <LongitudeDegrees>-4.08345761708915233612060546875</LongitudeDegrees>
            </Position>
            <AltitudeMeters>998.5999755859375</AltitudeMeters>
            <DistanceMeters>NAN</DistanceMeters>
          </Trackpoint>
          <Trackpoint>
            <Time>2019-08-01T16:11:18.000Z</Time>
            <Position>
              <LatitudeDegrees>40.699611939489841461181640625</LatitudeDegrees>
              <LongitudeDegrees>-4.08354445360600948333740234375</LongitudeDegrees>
            </Position>
            <AltitudeMeters>998</AltitudeMeters>
            <DistanceMeters>NAN</DistanceMeters>
          </Trackpoint>
          <Trackpoint>
            <Time>2019-08-01T16:11:20.000Z</Time>
            <Position>
              <LatitudeDegrees>40.699436925351619720458984375</LatitudeDegrees>
              <LongitudeDegrees>-4.08363078720867633819580078125</LongitudeDegrees>
            </Position>
            <AltitudeMeters>997.79998779296875</AltitudeMeters>
            <DistanceMeters>NAN</DistanceMeters>
          </Trackpoint>
          <Trackpoint>
            <Time>2019-08-01T16:11:21.000Z</Time>
            <Position>
              <LatitudeDegrees>40.6993495859205722808837890625</LatitudeDegrees>
              <LongitudeDegrees>-4.083673618733882904052734375</LongitudeDegrees>
            </Position>
            <AltitudeMeters>997.5999755859375</AltitudeMeters>
            <DistanceMeters>NAN</DistanceMeters>
          </Trackpoint>
          <Trackpoint>
            <Time>2019-08-01T16:11:22.000Z</Time>
            <Position>
              <LatitudeDegrees>40.699264593422412872314453125</LatitudeDegrees>
              <LongitudeDegrees>-4.083716534078121185302734375</LongitudeDegrees>
            </Position>
            <AltitudeMeters>997.5999755859375</AltitudeMeters>
            <DistanceMeters>NAN</DistanceMeters>
          </Trackpoint>
          <Trackpoint>
            <Time>2019-08-01T16:11:23.000Z</Time>
            <Position>
              <LatitudeDegrees>40.699182115495204925537109375</LatitudeDegrees>
              <LongitudeDegrees>-4.083756096661090850830078125</LongitudeDegrees>
            </Position>
            <AltitudeMeters>997.4000244140625</AltitudeMeters>
            <DistanceMeters>NAN</DistanceMeters>
          </Trackpoint>
          <Trackpoint>
            <Time>2019-08-01T16:11:24.000Z</Time>
            <Position>
              <LatitudeDegrees>40.69910106249153614044189453125</LatitudeDegrees>
              <LongitudeDegrees>-4.08379373140633106231689453125</LongitudeDegrees>
            </Position>
            <AltitudeMeters>997.4000244140625</AltitudeMeters>
            <DistanceMeters>NAN</DistanceMeters>
          </Trackpoint>
          <Trackpoint>
            <Time>2019-08-01T16:11:25.000Z</Time>
            <Position>
              <LatitudeDegrees>40.699021182954311370849609375</LatitudeDegrees>
              <LongitudeDegrees>-4.08383228816092014312744140625</LongitudeDegrees>
            </Position>
            <AltitudeMeters>997.20001220703125</AltitudeMeters>
            <DistanceMeters>NAN</DistanceMeters>
          </Trackpoint>
          <Trackpoint>
            <Time>2019-08-01T16:11:26.000Z</Time>
            <Position>
              <LatitudeDegrees>40.6989428959786891937255859375</LatitudeDegrees>
              <LongitudeDegrees>-4.0838712640106678009033203125</LongitudeDegrees>
            </Position>
            <AltitudeMeters>997.20001220703125</AltitudeMeters>
            <DistanceMeters>NAN</DistanceMeters>
          </Trackpoint>
          <Trackpoint>
            <Time>2019-08-01T16:11:27.000Z</Time>
            <Position>
              <LatitudeDegrees>40.698863603174686431884765625</LatitudeDegrees>
              <LongitudeDegrees>-4.08390906639397144317626953125</LongitudeDegrees>
            </Position>
            <AltitudeMeters>997</AltitudeMeters>
            <DistanceMeters>NAN</DistanceMeters>
          </Trackpoint>
          <Trackpoint>
            <Time>2019-08-01T16:11:28.000Z</Time>
            <Position>
              <LatitudeDegrees>40.69878347218036651611328125</LatitudeDegrees>
              <LongitudeDegrees>-4.0839461982250213623046875</LongitudeDegrees>
            </Position>
            <AltitudeMeters>997</AltitudeMeters>
            <DistanceMeters>NAN</DistanceMeters>
          </Trackpoint>
          <Trackpoint>
            <Time>2019-08-01T16:11:29.000Z</Time>
            <Position>
              <LatitudeDegrees>40.69870325736701488494873046875</LatitudeDegrees>
              <LongitudeDegrees>-4.08398534171283245086669921875</LongitudeDegrees>
            </Position>
            <AltitudeMeters>996.79998779296875</AltitudeMeters>
            <DistanceMeters>NAN</DistanceMeters>
          </Trackpoint>
          <Trackpoint>
            <Time>2019-08-01T16:11:30.000Z</Time>
            <Position>
              <LatitudeDegrees>40.698622874915599822998046875</LatitudeDegrees>
              <LongitudeDegrees>-4.0840258263051509857177734375</LongitudeDegrees>
            </Position>
            <AltitudeMeters>996.79998779296875</AltitudeMeters>
            <DistanceMeters>NAN</DistanceMeters>
          </Trackpoint>
          <Trackpoint>
            <Time>2019-08-01T16:11:32.000Z</Time>
            <Position>
              <LatitudeDegrees>40.69846403785049915313720703125</LatitudeDegrees>
              <LongitudeDegrees>-4.08410511910915374755859375</LongitudeDegrees>
            </Position>
            <AltitudeMeters>996.5999755859375</AltitudeMeters>
            <DistanceMeters>NAN</DistanceMeters>
          </Trackpoint>
          <Trackpoint>
            <Time>2019-08-01T16:11:33.000Z</Time>
            <Position>
              <LatitudeDegrees>40.6983844935894012451171875</LatitudeDegrees>
              <LongitudeDegrees>-4.084144346415996551513671875</LongitudeDegrees>
            </Position>
            <AltitudeMeters>996.4000244140625</AltitudeMeters>
            <DistanceMeters>NAN</DistanceMeters>
          </Trackpoint>
          <Trackpoint>
            <Time>2019-08-01T16:11:34.000Z</Time>
            <Position>
              <LatitudeDegrees>40.69830478169023990631103515625</LatitudeDegrees>
              <LongitudeDegrees>-4.08418248407542705535888671875</LongitudeDegrees>
            </Position>
            <AltitudeMeters>996.20001220703125</AltitudeMeters>
            <DistanceMeters>NAN</DistanceMeters>
          </Trackpoint>
          <Trackpoint>
            <Time>2019-08-01T16:11:35.000Z</Time>
            <Position>
              <LatitudeDegrees>40.6982247345149517059326171875</LatitudeDegrees>
              <LongitudeDegrees>-4.08421911299228668212890625</LongitudeDegrees>
            </Position>
            <AltitudeMeters>996.20001220703125</AltitudeMeters>
            <DistanceMeters>NAN</DistanceMeters>
          </Trackpoint>
          <Trackpoint>
            <Time>2019-08-01T16:11:36.000Z</Time>
            <Position>
              <LatitudeDegrees>40.6981446035206317901611328125</LatitudeDegrees>
              <LongitudeDegrees>-4.08425666391849517822265625</LongitudeDegrees>
            </Position>
            <AltitudeMeters>996.20001220703125</AltitudeMeters>
            <DistanceMeters>NAN</DistanceMeters>
          </Trackpoint>
          <Trackpoint>
            <Time>2019-08-01T16:11:38.000Z</Time>
            <Position>
              <LatitudeDegrees>40.69798660464584827423095703125</LatitudeDegrees>
              <LongitudeDegrees>-4.08433386124670505523681640625</LongitudeDegrees>
            </Position>
            <AltitudeMeters>995.79998779296875</AltitudeMeters>
            <DistanceMeters>NAN</DistanceMeters>
          </Trackpoint>
          <Trackpoint>
            <Time>2019-08-01T16:11:39.000Z</Time>
            <Position>
              <LatitudeDegrees>40.6979089044034481048583984375</LatitudeDegrees>
              <LongitudeDegrees>-4.08437174744904041290283203125</LongitudeDegrees>
            </Position>
            <AltitudeMeters>995.79998779296875</AltitudeMeters>
            <DistanceMeters>NAN</DistanceMeters>
          </Trackpoint>
          <Trackpoint>
            <Time>2019-08-01T16:11:40.000Z</Time>
            <Position>
              <LatitudeDegrees>40.69783128798007965087890625</LatitudeDegrees>
              <LongitudeDegrees>-4.08440879546105861663818359375</LongitudeDegrees>
            </Position>
            <AltitudeMeters>995.79998779296875</AltitudeMeters>
            <DistanceMeters>NAN</DistanceMeters>
          </Trackpoint>
          <Trackpoint>
            <Time>2019-08-01T16:11:41.000Z</Time>
            <Position>
              <LatitudeDegrees>40.6977533362805843353271484375</LatitudeDegrees>
              <LongitudeDegrees>-4.08444601111114025115966796875</LongitudeDegrees>
            </Position>
            <AltitudeMeters>995.5999755859375</AltitudeMeters>
            <DistanceMeters>NAN</DistanceMeters>
          </Trackpoint>
          <Trackpoint>
            <Time>2019-08-01T16:11:42.000Z</Time>
            <Position>
              <LatitudeDegrees>40.69767395965754985809326171875</LatitudeDegrees>
              <LongitudeDegrees>-4.08448389731347560882568359375</LongitudeDegrees>
            </Position>
            <AltitudeMeters>995.4000244140625</AltitudeMeters>
            <DistanceMeters>NAN</DistanceMeters>
          </Trackpoint>
          <Trackpoint>
            <Time>2019-08-01T16:11:43.000Z</Time>
            <Position>
              <LatitudeDegrees>40.69759265519678592681884765625</LatitudeDegrees>
              <LongitudeDegrees>-4.0845227055251598358154296875</LongitudeDegrees>
            </Position>
            <AltitudeMeters>995.4000244140625</AltitudeMeters>
            <DistanceMeters>NAN</DistanceMeters>
          </Trackpoint>
          <Trackpoint>
            <Time>2019-08-01T16:11:44.000Z</Time>
            <Position>
              <LatitudeDegrees>40.69751051254570484161376953125</LatitudeDegrees>
              <LongitudeDegrees>-4.0845629386603832244873046875</LongitudeDegrees>
            </Position>
            <AltitudeMeters>995.20001220703125</AltitudeMeters>
            <DistanceMeters>NAN</DistanceMeters>
          </Trackpoint>
          <Trackpoint>
            <Time>2019-08-01T16:11:45.000Z</Time>
            <Position>
              <LatitudeDegrees>40.69742736406624317169189453125</LatitudeDegrees>
              <LongitudeDegrees>-4.08460409380495548248291015625</LongitudeDegrees>
            </Position>
            <AltitudeMeters>994.79998779296875</AltitudeMeters>
            <DistanceMeters>NAN</DistanceMeters>
          </Trackpoint>
          <Trackpoint>
            <Time>2019-08-01T16:11:46.000Z</Time>
            <Position>
              <LatitudeDegrees>40.697343461215496063232421875</LatitudeDegrees>
              <LongitudeDegrees>-4.08464550040662288665771484375</LongitudeDegrees>
            </Position>
            <AltitudeMeters>994.4000244140625</AltitudeMeters>
            <DistanceMeters>NAN</DistanceMeters>
          </Trackpoint>
          <Trackpoint>
            <Time>2019-08-01T16:11:47.000Z</Time>
            <Position>
              <LatitudeDegrees>40.6972588039934635162353515625</LatitudeDegrees>
              <LongitudeDegrees>-4.08468690700829029083251953125</LongitudeDegrees>
            </Position>
            <AltitudeMeters>994.20001220703125</AltitudeMeters>
            <DistanceMeters>NAN</DistanceMeters>
          </Trackpoint>
          <Trackpoint>
            <Time>2019-08-01T16:11:48.000Z</Time>
            <Position>
              <LatitudeDegrees>40.69717347621917724609375</LatitudeDegrees>
              <LongitudeDegrees>-4.08472739160060882568359375</LongitudeDegrees>
            </Position>
            <AltitudeMeters>994</AltitudeMeters>
            <DistanceMeters>NAN</DistanceMeters>
          </Trackpoint>
          <Trackpoint>
            <Time>2019-08-01T16:11:49.000Z</Time>
            <Position>
              <LatitudeDegrees>40.69708772934973239898681640625</LatitudeDegrees>
              <LongitudeDegrees>-4.0847677923738956451416015625</LongitudeDegrees>
            </Position>
            <AltitudeMeters>993.79998779296875</AltitudeMeters>
            <DistanceMeters>NAN</DistanceMeters>
          </Trackpoint>
          <Trackpoint>
            <Time>2019-08-01T16:11:50.000Z</Time>
            <Position>
              <LatitudeDegrees>40.697002150118350982666015625</LatitudeDegrees>
              <LongitudeDegrees>-4.08480928279459476470947265625</LongitudeDegrees>
            </Position>
            <AltitudeMeters>993.79998779296875</AltitudeMeters>
            <DistanceMeters>NAN</DistanceMeters>
          </Trackpoint>
          <Trackpoint>
            <Time>2019-08-01T16:11:51.000Z</Time>
            <Position>
              <LatitudeDegrees>40.69691623561084270477294921875</LatitudeDegrees>
              <LongitudeDegrees>-4.084851108491420745849609375</LongitudeDegrees>
            </Position>
            <AltitudeMeters>993.4000244140625</AltitudeMeters>
            <DistanceMeters>NAN</DistanceMeters>
          </Trackpoint>
          <Trackpoint>
            <Time>2019-08-01T16:11:52.000Z</Time>
            <Position>
              <LatitudeDegrees>40.69683040492236614227294921875</LatitudeDegrees>
              <LongitudeDegrees>-4.08489234745502471923828125</LongitudeDegrees>
            </Position>
            <AltitudeMeters>993.20001220703125</AltitudeMeters>
            <DistanceMeters>NAN</DistanceMeters>
          </Trackpoint>
          <Trackpoint>
            <Time>2019-08-01T16:11:53.000Z</Time>
            <Position>
              <LatitudeDegrees>40.69674423895776271820068359375</LatitudeDegrees>
              <LongitudeDegrees>-4.08493467606604099273681640625</LongitudeDegrees>
            </Position>
            <AltitudeMeters>992.79998779296875</AltitudeMeters>
            <DistanceMeters>NAN</DistanceMeters>
          </Trackpoint>
          <Trackpoint>
            <Time>2019-08-01T16:11:54.000Z</Time>
            <Position>
              <LatitudeDegrees>40.6966576538980007171630859375</LatitudeDegrees>
              <LongitudeDegrees>-4.084977172315120697021484375</LongitudeDegrees>
            </Position>
            <AltitudeMeters>992.5999755859375</AltitudeMeters>
            <DistanceMeters>NAN</DistanceMeters>
          </Trackpoint>
          <Trackpoint>
            <Time>2019-08-01T16:11:55.000Z</Time>
            <Position>
              <LatitudeDegrees>40.696570314466953277587890625</LatitudeDegrees>
              <LongitudeDegrees>-4.0850199200212955474853515625</LongitudeDegrees>
            </Position>
            <AltitudeMeters>992.4000244140625</AltitudeMeters>
            <DistanceMeters>NAN</DistanceMeters>
          </Trackpoint>
          <Trackpoint>
            <Time>2019-08-01T16:11:56.000Z</Time>
            <Position>
              <LatitudeDegrees>40.69648272357881069183349609375</LatitudeDegrees>
              <LongitudeDegrees>-4.0850628353655338287353515625</LongitudeDegrees>
            </Position>
            <AltitudeMeters>992.4000244140625</AltitudeMeters>
            <DistanceMeters>NAN</DistanceMeters>
          </Trackpoint>
          <Trackpoint>
            <Time>2019-08-01T16:11:57.000Z</Time>
            <Position>
              <LatitudeDegrees>40.69639538414776325225830078125</LatitudeDegrees>
              <LongitudeDegrees>-4.08510566689074039459228515625</LongitudeDegrees>
            </Position>
            <AltitudeMeters>992.20001220703125</AltitudeMeters>
            <DistanceMeters>NAN</DistanceMeters>
          </Trackpoint>
          <Trackpoint>
            <Time>2019-08-01T16:11:58.000Z</Time>
            <Position>
              <LatitudeDegrees>40.69630854763090610504150390625</LatitudeDegrees>
              <LongitudeDegrees>-4.08514715731143951416015625</LongitudeDegrees>
            </Position>
            <AltitudeMeters>992</AltitudeMeters>
            <DistanceMeters>NAN</DistanceMeters>
          </Trackpoint>
          <Trackpoint>
            <Time>2019-08-01T16:11:59.000Z</Time>
            <Position>
              <LatitudeDegrees>40.69622154347598552703857421875</LatitudeDegrees>
              <LongitudeDegrees>-4.08518931828439235687255859375</LongitudeDegrees>
            </Position>
            <AltitudeMeters>992</AltitudeMeters>
            <DistanceMeters>NAN</DistanceMeters>
          </Trackpoint>
          <Trackpoint>
            <Time>2019-08-01T16:12:00.000Z</Time>
            <Position>
              <LatitudeDegrees>40.6961336173117160797119140625</LatitudeDegrees>
              <LongitudeDegrees>-4.0852328203618526458740234375</LongitudeDegrees>
            </Position>
            <AltitudeMeters>991.5999755859375</AltitudeMeters>
            <DistanceMeters>NAN</DistanceMeters>
          </Trackpoint>
          <Trackpoint>
            <Time>2019-08-01T16:12:01.000Z</Time>
            <Position>
              <LatitudeDegrees>40.69604451768100261688232421875</LatitudeDegrees>
              <LongitudeDegrees>-4.0852764062583446502685546875</LongitudeDegrees>
            </Position>
            <AltitudeMeters>991</AltitudeMeters>
            <DistanceMeters>NAN</DistanceMeters>
          </Trackpoint>
          <Trackpoint>
            <Time>2019-08-01T16:12:02.000Z</Time>
            <Position>
              <LatitudeDegrees>40.69595399312674999237060546875</LatitudeDegrees>
              <LongitudeDegrees>-4.0853199921548366546630859375</LongitudeDegrees>
            </Position>
            <AltitudeMeters>990.79998779296875</AltitudeMeters>
            <DistanceMeters>NAN</DistanceMeters>
          </Trackpoint>
          <Trackpoint>
            <Time>2019-08-01T16:12:03.000Z</Time>
            <Position>
              <LatitudeDegrees>40.6958623789250850677490234375</LatitudeDegrees>
              <LongitudeDegrees>-4.08536466769874095916748046875</LongitudeDegrees>
            </Position>
            <AltitudeMeters>990.4000244140625</AltitudeMeters>
            <DistanceMeters>NAN</DistanceMeters>
          </Trackpoint>
          <Trackpoint>
            <Time>2019-08-01T16:12:04.000Z</Time>
            <Position>
              <LatitudeDegrees>40.69576959125697612762451171875</LatitudeDegrees>
              <LongitudeDegrees>-4.08540976233780384063720703125</LongitudeDegrees>
            </Position>
            <AltitudeMeters>990.4000244140625</AltitudeMeters>
            <DistanceMeters>NAN</DistanceMeters>
          </Trackpoint>
          <Trackpoint>
            <Time>2019-08-01T16:12:06.000Z</Time>
            <Position>
              <LatitudeDegrees>40.695582590997219085693359375</LatitudeDegrees>
              <LongitudeDegrees>-4.08549978397786617279052734375</LongitudeDegrees>
            </Position>
            <AltitudeMeters>989.79998779296875</AltitudeMeters>
            <DistanceMeters>NAN</DistanceMeters>
          </Trackpoint>
          <Trackpoint>
            <Time>2019-08-01T16:12:07.000Z</Time>
            <Position>
              <LatitudeDegrees>40.69548795931041240692138671875</LatitudeDegrees>
              <LongitudeDegrees>-4.08554638735949993133544921875</LongitudeDegrees>
            </Position>
            <AltitudeMeters>989.4000244140625</AltitudeMeters>
            <DistanceMeters>NAN</DistanceMeters>
          </Trackpoint>
          <Trackpoint>
            <Time>2019-08-01T16:12:08.000Z</Time>
            <Position>
              <LatitudeDegrees>40.6953919865190982818603515625</LatitudeDegrees>
              <LongitudeDegrees>-4.08559366129338741302490234375</LongitudeDegrees>
            </Position>
            <AltitudeMeters>989.20001220703125</AltitudeMeters>
            <DistanceMeters>NAN</DistanceMeters>
          </Trackpoint>
          <Trackpoint>
            <Time>2019-08-01T16:12:09.000Z</Time>
            <Position>
              <LatitudeDegrees>40.6952950917184352874755859375</LatitudeDegrees>
              <LongitudeDegrees>-4.0856413543224334716796875</LongitudeDegrees>
            </Position>
            <AltitudeMeters>989.20001220703125</AltitudeMeters>
            <DistanceMeters>NAN</DistanceMeters>
          </Trackpoint>
          <Trackpoint>
            <Time>2019-08-01T16:12:10.000Z</Time>
            <Position>
              <LatitudeDegrees>40.695197694003582000732421875</LatitudeDegrees>
              <LongitudeDegrees>-4.085688292980194091796875</LongitudeDegrees>
            </Position>
            <AltitudeMeters>989</AltitudeMeters>
            <DistanceMeters>NAN</DistanceMeters>
          </Trackpoint>
          <Trackpoint>
            <Time>2019-08-01T16:12:11.000Z</Time>
            <Position>
              <LatitudeDegrees>40.69510004483163356781005859375</LatitudeDegrees>
              <LongitudeDegrees>-4.0857352316379547119140625</LongitudeDegrees>
            </Position>
            <AltitudeMeters>989</AltitudeMeters>
            <DistanceMeters>NAN</DistanceMeters>
          </Trackpoint>
          <Trackpoint>
            <Time>2019-08-01T16:12:12.000Z</Time>
            <Position>
              <LatitudeDegrees>40.695002563297748565673828125</LatitudeDegrees>
              <LongitudeDegrees>-4.08578208647668361663818359375</LongitudeDegrees>
            </Position>
            <AltitudeMeters>988.79998779296875</AltitudeMeters>
            <DistanceMeters>NAN</DistanceMeters>
          </Trackpoint>
          <Trackpoint>
            <Time>2019-08-01T16:12:13.000Z</Time>
            <Position>
              <LatitudeDegrees>40.69490541703999042510986328125</LatitudeDegrees>
              <LongitudeDegrees>-4.08582936041057109832763671875</LongitudeDegrees>
            </Position>
            <AltitudeMeters>988.4000244140625</AltitudeMeters>
            <DistanceMeters>NAN</DistanceMeters>
          </Trackpoint>
          <Trackpoint>
            <Time>2019-08-01T16:12:14.000Z</Time>
            <Position>
              <LatitudeDegrees>40.6948102824389934539794921875</LatitudeDegrees>
              <LongitudeDegrees>-4.08587730489671230316162109375</LongitudeDegrees>
            </Position>
            <AltitudeMeters>988</AltitudeMeters>
            <DistanceMeters>NAN</DistanceMeters>
          </Trackpoint>
          <Trackpoint>
            <Time>2019-08-01T16:12:15.000Z</Time>
            <Position>
              <LatitudeDegrees>40.69471590220928192138671875</LatitudeDegrees>
              <LongitudeDegrees>-4.08592189662158489227294921875</LongitudeDegrees>
            </Position>
            <AltitudeMeters>987.79998779296875</AltitudeMeters>
            <DistanceMeters>NAN</DistanceMeters>
          </Trackpoint>
          <Trackpoint>
            <Time>2019-08-01T16:12:16.000Z</Time>
            <Position>
              <LatitudeDegrees>40.6946231983602046966552734375</LatitudeDegrees>
              <LongitudeDegrees>-4.08596598543226718902587890625</LongitudeDegrees>
            </Position>
            <AltitudeMeters>987</AltitudeMeters>
            <DistanceMeters>NAN</DistanceMeters>
          </Trackpoint>
          <Trackpoint>
            <Time>2019-08-01T16:12:17.000Z</Time>
            <Position>
              <LatitudeDegrees>40.69453191943466663360595703125</LatitudeDegrees>
              <LongitudeDegrees>-4.08601225353777408599853515625</LongitudeDegrees>
            </Position>
            <AltitudeMeters>986.4000244140625</AltitudeMeters>
            <DistanceMeters>NAN</DistanceMeters>
          </Trackpoint>
          <Trackpoint>
            <Time>2019-08-01T16:12:18.000Z</Time>
            <Position>
              <LatitudeDegrees>40.6944408081471920013427734375</LatitudeDegrees>
              <LongitudeDegrees>-4.08606036566197872161865234375</LongitudeDegrees>
            </Position>
            <AltitudeMeters>986.20001220703125</AltitudeMeters>
            <DistanceMeters>NAN</DistanceMeters>
          </Trackpoint>
          <Trackpoint>
            <Time>2019-08-01T16:12:19.000Z</Time>
            <Position>
              <LatitudeDegrees>40.694348104298114776611328125</LatitudeDegrees>
              <LongitudeDegrees>-4.0861088968813419342041015625</LongitudeDegrees>
            </Position>
            <AltitudeMeters>986</AltitudeMeters>
            <DistanceMeters>NAN</DistanceMeters>
          </Trackpoint>
          <Trackpoint>
            <Time>2019-08-01T16:12:20.000Z</Time>
            <Position>
              <LatitudeDegrees>40.69425431080162525177001953125</LatitudeDegrees>
              <LongitudeDegrees>-4.08615835011005401611328125</LongitudeDegrees>
            </Position>
            <AltitudeMeters>985.79998779296875</AltitudeMeters>
            <DistanceMeters>NAN</DistanceMeters>
          </Trackpoint>
          <Trackpoint>
            <Time>2019-08-01T16:12:21.000Z</Time>
            <Position>
              <LatitudeDegrees>40.694161020219326019287109375</LatitudeDegrees>
              <LongitudeDegrees>-4.08620704896748065948486328125</LongitudeDegrees>
            </Position>
            <AltitudeMeters>985.5999755859375</AltitudeMeters>
            <DistanceMeters>NAN</DistanceMeters>
          </Trackpoint>
          <Trackpoint>
            <Time>2019-08-01T16:12:22.000Z</Time>
            <Position>
              <LatitudeDegrees>40.6940688192844390869140625</LatitudeDegrees>
              <LongitudeDegrees>-4.0862564183771610260009765625</LongitudeDegrees>
            </Position>
            <AltitudeMeters>985.5999755859375</AltitudeMeters>
            <DistanceMeters>NAN</DistanceMeters>
          </Trackpoint>
          <Trackpoint>
            <Time>2019-08-01T16:12:23.000Z</Time>
            <Position>
              <LatitudeDegrees>40.693978630006313323974609375</LatitudeDegrees>
              <LongitudeDegrees>-4.086301513016223907470703125</LongitudeDegrees>
            </Position>
            <AltitudeMeters>985.5999755859375</AltitudeMeters>
            <DistanceMeters>NAN</DistanceMeters>
          </Trackpoint>
          <Trackpoint>
            <Time>2019-08-01T16:12:24.000Z</Time>
            <Position>
              <LatitudeDegrees>40.69389053620398044586181640625</LatitudeDegrees>
              <LongitudeDegrees>-4.08634518273174762725830078125</LongitudeDegrees>
            </Position>
            <AltitudeMeters>985.5999755859375</AltitudeMeters>
            <DistanceMeters>NAN</DistanceMeters>
          </Trackpoint>
          <Trackpoint>
            <Time>2019-08-01T16:12:25.000Z</Time>
            <Position>
              <LatitudeDegrees>40.693802945315837860107421875</LatitudeDegrees>
              <LongitudeDegrees>-4.0863918699324131011962890625</LongitudeDegrees>
            </Position>
            <AltitudeMeters>985.4000244140625</AltitudeMeters>
            <DistanceMeters>NAN</DistanceMeters>
          </Trackpoint>
          <Trackpoint>
            <Time>2019-08-01T16:12:26.000Z</Time>
            <Position>
              <LatitudeDegrees>40.69371535442769527435302734375</LatitudeDegrees>
              <LongitudeDegrees>-4.08643855713307857513427734375</LongitudeDegrees>
            </Position>
            <AltitudeMeters>985.4000244140625</AltitudeMeters>
            <DistanceMeters>NAN</DistanceMeters>
          </Trackpoint>
          <Trackpoint>
            <Time>2019-08-01T16:12:27.000Z</Time>
            <Position>
              <LatitudeDegrees>40.693627931177616119384765625</LatitudeDegrees>
              <LongitudeDegrees>-4.08648465760052204132080078125</LongitudeDegrees>
            </Position>
            <AltitudeMeters>985.4000244140625</AltitudeMeters>
            <DistanceMeters>NAN</DistanceMeters>
          </Trackpoint>
          <Trackpoint>
            <Time>2019-08-01T16:12:28.000Z</Time>
            <Position>
              <LatitudeDegrees>40.69354067556560039520263671875</LatitudeDegrees>
              <LongitudeDegrees>-4.08653075806796550750732421875</LongitudeDegrees>
            </Position>
            <AltitudeMeters>985</AltitudeMeters>
            <DistanceMeters>NAN</DistanceMeters>
          </Trackpoint>
          <Trackpoint>
            <Time>2019-08-01T16:12:29.000Z</Time>
            <Position>
              <LatitudeDegrees>40.69345333613455295562744140625</LatitudeDegrees>
              <LongitudeDegrees>-4.086576439440250396728515625</LongitudeDegrees>
            </Position>
            <AltitudeMeters>984.79998779296875</AltitudeMeters>
            <DistanceMeters>NAN</DistanceMeters>
          </Trackpoint>
          <Trackpoint>
            <Time>2019-08-01T16:12:30.000Z</Time>
            <Position>
              <LatitudeDegrees>40.6933659128844738006591796875</LatitudeDegrees>
              <LongitudeDegrees>-4.0866222046315670013427734375</LongitudeDegrees>
            </Position>
            <AltitudeMeters>984.5999755859375</AltitudeMeters>
            <DistanceMeters>NAN</DistanceMeters>
          </Trackpoint>
          <Trackpoint>
            <Time>2019-08-01T16:12:31.000Z</Time>
            <Position>
              <LatitudeDegrees>40.69327848963439464569091796875</LatitudeDegrees>
              <LongitudeDegrees>-4.08666838891804218292236328125</LongitudeDegrees>
            </Position>
            <AltitudeMeters>984.5999755859375</AltitudeMeters>
            <DistanceMeters>NAN</DistanceMeters>
          </Trackpoint>
          <Trackpoint>
            <Time>2019-08-01T16:12:32.000Z</Time>
            <Position>
              <LatitudeDegrees>40.693191401660442352294921875</LatitudeDegrees>
              <LongitudeDegrees>-4.08671432174742221832275390625</LongitudeDegrees>
            </Position>
            <AltitudeMeters>984.4000244140625</AltitudeMeters>
            <DistanceMeters>NAN</DistanceMeters>
          </Trackpoint>
          <Trackpoint>
            <Time>2019-08-01T16:12:33.000Z</Time>
            <Position>
              <LatitudeDegrees>40.69310389459133148193359375</LatitudeDegrees>
              <LongitudeDegrees>-4.0867598354816436767578125</LongitudeDegrees>
            </Position>
            <AltitudeMeters>984.20001220703125</AltitudeMeters>
            <DistanceMeters>NAN</DistanceMeters>
          </Trackpoint>
          <Trackpoint>
            <Time>2019-08-01T16:12:34.000Z</Time>
            <Position>
              <LatitudeDegrees>40.69301580078899860382080078125</LatitudeDegrees>
              <LongitudeDegrees>-4.08680585213005542755126953125</LongitudeDegrees>
            </Position>
            <AltitudeMeters>984</AltitudeMeters>
            <DistanceMeters>NAN</DistanceMeters>
          </Trackpoint>
          <Trackpoint>
            <Time>2019-08-01T16:12:35.000Z</Time>
            <Position>
              <LatitudeDegrees>40.692927539348602294921875</LatitudeDegrees>
              <LongitudeDegrees>-4.086854048073291778564453125</LongitudeDegrees>
            </Position>
            <AltitudeMeters>983.5999755859375</AltitudeMeters>
            <DistanceMeters>NAN</DistanceMeters>
          </Trackpoint>
          <Trackpoint>
            <Time>2019-08-01T16:12:36.000Z</Time>
            <Position>
              <LatitudeDegrees>40.6928391940891742706298828125</LatitudeDegrees>
              <LongitudeDegrees>-4.08690174110233783721923828125</LongitudeDegrees>
            </Position>
            <AltitudeMeters>983.4000244140625</AltitudeMeters>
            <DistanceMeters>NAN</DistanceMeters>
          </Trackpoint>
          <Trackpoint>
            <Time>2019-08-01T16:12:37.000Z</Time>
            <Position>
              <LatitudeDegrees>40.69275126792490482330322265625</LatitudeDegrees>
              <LongitudeDegrees>-4.08694767393171787261962890625</LongitudeDegrees>
            </Position>
            <AltitudeMeters>983.20001220703125</AltitudeMeters>
            <DistanceMeters>NAN</DistanceMeters>
          </Trackpoint>
          <Trackpoint>
            <Time>2019-08-01T16:12:38.000Z</Time>
            <Position>
              <LatitudeDegrees>40.6926633417606353759765625</LatitudeDegrees>
              <LongitudeDegrees>-4.086994193494319915771484375</LongitudeDegrees>
            </Position>
            <AltitudeMeters>983.20001220703125</AltitudeMeters>
            <DistanceMeters>NAN</DistanceMeters>
          </Trackpoint>
          <Trackpoint>
            <Time>2019-08-01T16:12:39.000Z</Time>
            <Position>
              <LatitudeDegrees>40.69257742725312709808349609375</LatitudeDegrees>
              <LongitudeDegrees>-4.0870399586856365203857421875</LongitudeDegrees>
            </Position>
            <AltitudeMeters>983</AltitudeMeters>
            <DistanceMeters>NAN</DistanceMeters>
          </Trackpoint>
          <Trackpoint>
            <Time>2019-08-01T16:12:40.000Z</Time>
            <Position>
              <LatitudeDegrees>40.69249478168785572052001953125</LatitudeDegrees>
              <LongitudeDegrees>-4.08708211965858936309814453125</LongitudeDegrees>
            </Position>
            <AltitudeMeters>983</AltitudeMeters>
            <DistanceMeters>NAN</DistanceMeters>
          </Trackpoint>
          <Trackpoint>
            <Time>2019-08-01T16:12:41.000Z</Time>
            <Position>
              <LatitudeDegrees>40.6924123875796794891357421875</LatitudeDegrees>
              <LongitudeDegrees>-4.08712604083120822906494140625</LongitudeDegrees>
            </Position>
            <AltitudeMeters>982.79998779296875</AltitudeMeters>
            <DistanceMeters>NAN</DistanceMeters>
          </Trackpoint>
          <Trackpoint>
            <Time>2019-08-01T16:12:42.000Z</Time>
            <Position>
              <LatitudeDegrees>40.69233066402375698089599609375</LatitudeDegrees>
              <LongitudeDegrees>-4.087168872356414794921875</LongitudeDegrees>
            </Position>
            <AltitudeMeters>982.79998779296875</AltitudeMeters>
            <DistanceMeters>NAN</DistanceMeters>
          </Trackpoint>
          <Trackpoint>
            <Time>2019-08-01T16:12:43.000Z</Time>
            <Position>
              <LatitudeDegrees>40.69224902428686618804931640625</LatitudeDegrees>
              <LongitudeDegrees>-4.0872109495103359222412109375</LongitudeDegrees>
            </Position>
            <AltitudeMeters>982.5999755859375</AltitudeMeters>
            <DistanceMeters>NAN</DistanceMeters>
          </Trackpoint>
          <Trackpoint>
            <Time>2019-08-01T16:12:44.000Z</Time>
            <Position>
              <LatitudeDegrees>40.6921684741973876953125</LatitudeDegrees>
              <LongitudeDegrees>-4.08725327812135219573974609375</LongitudeDegrees>
            </Position>
            <AltitudeMeters>982.4000244140625</AltitudeMeters>
            <DistanceMeters>NAN</DistanceMeters>
          </Trackpoint>
          <Trackpoint>
            <Time>2019-08-01T16:12:45.000Z</Time>
            <Position>
              <LatitudeDegrees>40.6920881755650043487548828125</LatitudeDegrees>
              <LongitudeDegrees>-4.0872974507510662078857421875</LongitudeDegrees>
            </Position>
            <AltitudeMeters>982.4000244140625</AltitudeMeters>
            <DistanceMeters>NAN</DistanceMeters>
          </Trackpoint>
          <Trackpoint>
            <Time>2019-08-01T16:12:46.000Z</Time>
            <Position>
              <LatitudeDegrees>40.6920073740184307098388671875</LatitudeDegrees>
              <LongitudeDegrees>-4.08734128810465335845947265625</LongitudeDegrees>
            </Position>
            <AltitudeMeters>982.4000244140625</AltitudeMeters>
            <DistanceMeters>NAN</DistanceMeters>
          </Trackpoint>
          <Trackpoint>
            <Time>2019-08-01T16:12:47.000Z</Time>
            <Position>
              <LatitudeDegrees>40.69192707538604736328125</LatitudeDegrees>
              <LongitudeDegrees>-4.08738613128662109375</LongitudeDegrees>
            </Position>
            <AltitudeMeters>982.4000244140625</AltitudeMeters>
            <DistanceMeters>NAN</DistanceMeters>
          </Trackpoint>
          <Trackpoint>
            <Time>2019-08-01T16:12:48.000Z</Time>
            <Position>
              <LatitudeDegrees>40.6918451003730297088623046875</LatitudeDegrees>
              <LongitudeDegrees>-4.08743063919246196746826171875</LongitudeDegrees>
            </Position>
            <AltitudeMeters>982.20001220703125</AltitudeMeters>
            <DistanceMeters>NAN</DistanceMeters>
          </Trackpoint>
          <Trackpoint>
            <Time>2019-08-01T16:12:49.000Z</Time>
            <Position>
              <LatitudeDegrees>40.69176102988421916961669921875</LatitudeDegrees>
              <LongitudeDegrees>-4.08747397363185882568359375</LongitudeDegrees>
            </Position>
            <AltitudeMeters>982</AltitudeMeters>
            <DistanceMeters>NAN</DistanceMeters>
          </Trackpoint>
          <Trackpoint>
            <Time>2019-08-01T16:12:50.000Z</Time>
            <Position>
              <LatitudeDegrees>40.69167687557637691497802734375</LatitudeDegrees>
              <LongitudeDegrees>-4.0875190682709217071533203125</LongitudeDegrees>
            </Position>
            <AltitudeMeters>981.79998779296875</AltitudeMeters>
            <DistanceMeters>NAN</DistanceMeters>
          </Trackpoint>
          <Trackpoint>
            <Time>2019-08-01T16:12:51.000Z</Time>
            <Position>
              <LatitudeDegrees>40.6915919668972492218017578125</LatitudeDegrees>
              <LongitudeDegrees>-4.0875644981861114501953125</LongitudeDegrees>
            </Position>
            <AltitudeMeters>981.5999755859375</AltitudeMeters>
            <DistanceMeters>NAN</DistanceMeters>
          </Trackpoint>
          <Trackpoint>
            <Time>2019-08-01T16:12:52.000Z</Time>
            <Position>
              <LatitudeDegrees>40.691504962742328643798828125</LatitudeDegrees>
              <LongitudeDegrees>-4.08760967664420604705810546875</LongitudeDegrees>
            </Position>
            <AltitudeMeters>981.4000244140625</AltitudeMeters>
            <DistanceMeters>NAN</DistanceMeters>
          </Trackpoint>
          <Trackpoint>
            <Time>2019-08-01T16:12:53.000Z</Time>
            <Position>
              <LatitudeDegrees>40.69141636602580547332763671875</LatitudeDegrees>
              <LongitudeDegrees>-4.0876561962068080902099609375</LongitudeDegrees>
            </Position>
            <AltitudeMeters>981.20001220703125</AltitudeMeters>
            <DistanceMeters>NAN</DistanceMeters>
          </Trackpoint>
          <Trackpoint>
            <Time>2019-08-01T16:12:54.000Z</Time>
            <Position>
              <LatitudeDegrees>40.69132559001445770263671875</LatitudeDegrees>
              <LongitudeDegrees>-4.08770439215004444122314453125</LongitudeDegrees>
            </Position>
            <AltitudeMeters>981</AltitudeMeters>
            <DistanceMeters>NAN</DistanceMeters>
          </Trackpoint>
          <Trackpoint>
            <Time>2019-08-01T16:12:55.000Z</Time>
            <Position>
              <LatitudeDegrees>40.6912322156131267547607421875</LatitudeDegrees>
              <LongitudeDegrees>-4.087752588093280792236328125</LongitudeDegrees>
            </Position>
            <AltitudeMeters>980.79998779296875</AltitudeMeters>
            <DistanceMeters>NAN</DistanceMeters>
          </Trackpoint>
          <Trackpoint>
            <Time>2019-08-01T16:12:56.000Z</Time>
            <Position>
              <LatitudeDegrees>40.69113741628825664520263671875</LatitudeDegrees>
              <LongitudeDegrees>-4.08780162222683429718017578125</LongitudeDegrees>
            </Position>
            <AltitudeMeters>980.4000244140625</AltitudeMeters>
            <DistanceMeters>NAN</DistanceMeters>
          </Trackpoint>
          <Trackpoint>
            <Time>2019-08-01T16:12:58.000Z</Time>
            <Position>
              <LatitudeDegrees>40.690944381058216094970703125</LatitudeDegrees>
              <LongitudeDegrees>-4.08790304325520992279052734375</LongitudeDegrees>
            </Position>
            <AltitudeMeters>980.20001220703125</AltitudeMeters>
            <DistanceMeters>NAN</DistanceMeters>
          </Trackpoint>
          <Trackpoint>
            <Time>2019-08-01T16:12:59.000Z</Time>
            <Position>
              <LatitudeDegrees>40.690847821533679962158203125</LatitudeDegrees>
              <LongitudeDegrees>-4.0879532508552074432373046875</LongitudeDegrees>
            </Position>
            <AltitudeMeters>980</AltitudeMeters>
            <DistanceMeters>NAN</DistanceMeters>
          </Trackpoint>
          <Trackpoint>
            <Time>2019-08-01T16:13:00.000Z</Time>
            <Position>
              <LatitudeDegrees>40.69075218401849269866943359375</LatitudeDegrees>
              <LongitudeDegrees>-4.08800370991230010986328125</LongitudeDegrees>
            </Position>
            <AltitudeMeters>979.5999755859375</AltitudeMeters>
            <DistanceMeters>NAN</DistanceMeters>
          </Trackpoint>
          <Trackpoint>
            <Time>2019-08-01T16:13:01.000Z</Time>
            <Position>
              <LatitudeDegrees>40.69065679796040058135986328125</LatitudeDegrees>
              <LongitudeDegrees>-4.088053666055202484130859375</LongitudeDegrees>
            </Position>
            <AltitudeMeters>979.20001220703125</AltitudeMeters>
            <DistanceMeters>NAN</DistanceMeters>
          </Trackpoint>
          <Trackpoint>
            <Time>2019-08-01T16:13:02.000Z</Time>
            <Position>
              <LatitudeDegrees>40.69056342355906963348388671875</LatitudeDegrees>
              <LongitudeDegrees>-4.0881009399890899658203125</LongitudeDegrees>
            </Position>
            <AltitudeMeters>978.79998779296875</AltitudeMeters>
            <DistanceMeters>NAN</DistanceMeters>
          </Trackpoint>
          <Trackpoint>
            <Time>2019-08-01T16:13:03.000Z</Time>
            <Position>
              <LatitudeDegrees>40.69047239609062671661376953125</LatitudeDegrees>
              <LongitudeDegrees>-4.08814695663750171661376953125</LongitudeDegrees>
            </Position>
            <AltitudeMeters>978.4000244140625</AltitudeMeters>
            <DistanceMeters>NAN</DistanceMeters>
          </Trackpoint>
          <Trackpoint>
            <Time>2019-08-01T16:13:04.000Z</Time>
            <Position>
              <LatitudeDegrees>40.69038279354572296142578125</LatitudeDegrees>
              <LongitudeDegrees>-4.08819221891462802886962890625</LongitudeDegrees>
            </Position>
            <AltitudeMeters>978.4000244140625</AltitudeMeters>
            <DistanceMeters>NAN</DistanceMeters>
          </Trackpoint>
          <Trackpoint>
            <Time>2019-08-01T16:13:05.000Z</Time>
            <Position>
              <LatitudeDegrees>40.69029687903821468353271484375</LatitudeDegrees>
              <LongitudeDegrees>-4.08823848702013492584228515625</LongitudeDegrees>
            </Position>
            <AltitudeMeters>978.20001220703125</AltitudeMeters>
            <DistanceMeters>NAN</DistanceMeters>
          </Trackpoint>
          <Trackpoint>
            <Time>2019-08-01T16:13:06.000Z</Time>
            <Position>
              <LatitudeDegrees>40.690210796892642974853515625</LatitudeDegrees>
              <LongitudeDegrees>-4.08828173764050006866455078125</LongitudeDegrees>
            </Position>
            <AltitudeMeters>978</AltitudeMeters>
            <DistanceMeters>NAN</DistanceMeters>
          </Trackpoint>
          <Trackpoint>
            <Time>2019-08-01T16:13:07.000Z</Time>
            <Position>
              <LatitudeDegrees>40.69012622348964214324951171875</LatitudeDegrees>
              <LongitudeDegrees>-4.0883254073560237884521484375</LongitudeDegrees>
            </Position>
            <AltitudeMeters>978</AltitudeMeters>
            <DistanceMeters>NAN</DistanceMeters>
          </Trackpoint>
          <Trackpoint>
            <Time>2019-08-01T16:13:08.000Z</Time>
            <Position>
              <LatitudeDegrees>40.69004458375275135040283203125</LatitudeDegrees>
              <LongitudeDegrees>-4.08837075345218181610107421875</LongitudeDegrees>
            </Position>
            <AltitudeMeters>977.79998779296875</AltitudeMeters>
            <DistanceMeters>NAN</DistanceMeters>
          </Trackpoint>
          <Trackpoint>
            <Time>2019-08-01T16:13:09.000Z</Time>
            <Position>
              <LatitudeDegrees>40.68996445275843143463134765625</LatitudeDegrees>
              <LongitudeDegrees>-4.088415764272212982177734375</LongitudeDegrees>
            </Position>
            <AltitudeMeters>977.5999755859375</AltitudeMeters>
            <DistanceMeters>NAN</DistanceMeters>
          </Trackpoint>
          <Trackpoint>
            <Time>2019-08-01T16:13:10.000Z</Time>
            <Position>
              <LatitudeDegrees>40.6898833997547626495361328125</LatitudeDegrees>
              <LongitudeDegrees>-4.08845876343548297882080078125</LongitudeDegrees>
            </Position>
            <AltitudeMeters>977.5999755859375</AltitudeMeters>
            <DistanceMeters>NAN</DistanceMeters>
          </Trackpoint>
          <Trackpoint>
            <Time>2019-08-01T16:13:11.000Z</Time>
            <Position>
              <LatitudeDegrees>40.68980268202722072601318359375</LatitudeDegrees>
              <LongitudeDegrees>-4.08850167877972126007080078125</LongitudeDegrees>
            </Position>
            <AltitudeMeters>977.4000244140625</AltitudeMeters>
            <DistanceMeters>NAN</DistanceMeters>
          </Trackpoint>
          <Trackpoint>
            <Time>2019-08-01T16:13:12.000Z</Time>
            <Position>
              <LatitudeDegrees>40.6897197850048542022705078125</LatitudeDegrees>
              <LongitudeDegrees>-4.0885443426668643951416015625</LongitudeDegrees>
            </Position>
            <AltitudeMeters>977.20001220703125</AltitudeMeters>
            <DistanceMeters>NAN</DistanceMeters>
          </Trackpoint>
          <Trackpoint>
            <Time>2019-08-01T16:13:13.000Z</Time>
            <Position>
              <LatitudeDegrees>40.6896346248686313629150390625</LatitudeDegrees>
              <LongitudeDegrees>-4.0885879285633563995361328125</LongitudeDegrees>
            </Position>
            <AltitudeMeters>977.20001220703125</AltitudeMeters>
            <DistanceMeters>NAN</DistanceMeters>
          </Trackpoint>
          <Trackpoint>
            <Time>2019-08-01T16:13:14.000Z</Time>
            <Position>
              <LatitudeDegrees>40.68954770453274250030517578125</LatitudeDegrees>
              <LongitudeDegrees>-4.08863327465951442718505859375</LongitudeDegrees>
            </Position>
            <AltitudeMeters>977.20001220703125</AltitudeMeters>
            <DistanceMeters>NAN</DistanceMeters>
          </Trackpoint>
          <Trackpoint>
            <Time>2019-08-01T16:13:15.000Z</Time>
            <Position>
              <LatitudeDegrees>40.6894596107304096221923828125</LatitudeDegrees>
              <LongitudeDegrees>-4.088679291307926177978515625</LongitudeDegrees>
            </Position>
            <AltitudeMeters>977.20001220703125</AltitudeMeters>
            <DistanceMeters>NAN</DistanceMeters>
          </Trackpoint>
          <Trackpoint>
            <Time>2019-08-01T16:13:16.000Z</Time>
            <Position>
              <LatitudeDegrees>40.689371265470981597900390625</LatitudeDegrees>
              <LongitudeDegrees>-4.0887258946895599365234375</LongitudeDegrees>
            </Position>
            <AltitudeMeters>977</AltitudeMeters>
            <DistanceMeters>NAN</DistanceMeters>
          </Trackpoint>
          <Trackpoint>
            <Time>2019-08-01T16:13:17.000Z</Time>
            <Position>
              <LatitudeDegrees>40.68928233347833156585693359375</LatitudeDegrees>
              <LongitudeDegrees>-4.08877325244247913360595703125</LongitudeDegrees>
            </Position>
            <AltitudeMeters>977</AltitudeMeters>
            <DistanceMeters>NAN</DistanceMeters>
          </Trackpoint>
          <Trackpoint>
            <Time>2019-08-01T16:13:18.000Z</Time>
            <Position>
              <LatitudeDegrees>40.689192898571491241455078125</LatitudeDegrees>
              <LongitudeDegrees>-4.0888202749192714691162109375</LongitudeDegrees>
            </Position>
            <AltitudeMeters>976.79998779296875</AltitudeMeters>
            <DistanceMeters>NAN</DistanceMeters>
          </Trackpoint>
          <Trackpoint>
            <Time>2019-08-01T16:13:19.000Z</Time>
            <Position>
              <LatitudeDegrees>40.6891022063791751861572265625</LatitudeDegrees>
              <LongitudeDegrees>-4.08886738121509552001953125</LongitudeDegrees>
            </Position>
            <AltitudeMeters>976.79998779296875</AltitudeMeters>
            <DistanceMeters>NAN</DistanceMeters>
          </Trackpoint>
          <Trackpoint>
            <Time>2019-08-01T16:13:20.000Z</Time>
            <Position>
              <LatitudeDegrees>40.6890106759965419769287109375</LatitudeDegrees>
              <LongitudeDegrees>-4.0889148227870464324951171875</LongitudeDegrees>
            </Position>
            <AltitudeMeters>976.5999755859375</AltitudeMeters>
            <DistanceMeters>NAN</DistanceMeters>
          </Trackpoint>
          <Trackpoint>
            <Time>2019-08-01T16:13:21.000Z</Time>
            <Position>
              <LatitudeDegrees>40.68891889415681362152099609375</LatitudeDegrees>
              <LongitudeDegrees>-4.0889627672731876373291015625</LongitudeDegrees>
            </Position>
            <AltitudeMeters>976.4000244140625</AltitudeMeters>
            <DistanceMeters>NAN</DistanceMeters>
          </Trackpoint>
          <Trackpoint>
            <Time>2019-08-01T16:13:22.000Z</Time>
            <Position>
              <LatitudeDegrees>40.6888286210596561431884765625</LatitudeDegrees>
              <LongitudeDegrees>-4.08900953829288482666015625</LongitudeDegrees>
            </Position>
            <AltitudeMeters>976.20001220703125</AltitudeMeters>
            <DistanceMeters>NAN</DistanceMeters>
          </Trackpoint>
          <Trackpoint>
            <Time>2019-08-01T16:13:23.000Z</Time>
            <Position>
              <LatitudeDegrees>40.68873952142894268035888671875</LatitudeDegrees>
              <LongitudeDegrees>-4.08905505202710628509521484375</LongitudeDegrees>
            </Position>
            <AltitudeMeters>975.5999755859375</AltitudeMeters>
            <DistanceMeters>NAN</DistanceMeters>
          </Trackpoint>
          <Trackpoint>
            <Time>2019-08-01T16:13:24.000Z</Time>
            <Position>
              <LatitudeDegrees>40.6886509247124195098876953125</LatitudeDegrees>
              <LongitudeDegrees>-4.0891002304852008819580078125</LongitudeDegrees>
            </Position>
            <AltitudeMeters>975</AltitudeMeters>
            <DistanceMeters>NAN</DistanceMeters>
          </Trackpoint>
          <Trackpoint>
            <Time>2019-08-01T16:13:25.000Z</Time>
            <Position>
              <LatitudeDegrees>40.68856182508170604705810546875</LatitudeDegrees>
              <LongitudeDegrees>-4.08914498984813690185546875</LongitudeDegrees>
            </Position>
            <AltitudeMeters>974.79998779296875</AltitudeMeters>
            <DistanceMeters>NAN</DistanceMeters>
          </Trackpoint>
          <Trackpoint>
            <Time>2019-08-01T16:13:26.000Z</Time>
            <Position>
              <LatitudeDegrees>40.68847280927002429962158203125</LatitudeDegrees>
              <LongitudeDegrees>-4.0891904197633266448974609375</LongitudeDegrees>
            </Position>
            <AltitudeMeters>974.4000244140625</AltitudeMeters>
            <DistanceMeters>NAN</DistanceMeters>
          </Trackpoint>
          <Trackpoint>
            <Time>2019-08-01T16:13:27.000Z</Time>
            <Position>
              <LatitudeDegrees>40.68838396109640598297119140625</LatitudeDegrees>
              <LongitudeDegrees>-4.08923593349754810333251953125</LongitudeDegrees>
            </Position>
            <AltitudeMeters>974.20001220703125</AltitudeMeters>
            <DistanceMeters>NAN</DistanceMeters>
          </Trackpoint>
          <Trackpoint>
            <Time>2019-08-01T16:13:28.000Z</Time>
            <Position>
              <LatitudeDegrees>40.6882951967418193817138671875</LatitudeDegrees>
              <LongitudeDegrees>-4.08928119577467441558837890625</LongitudeDegrees>
            </Position>
            <AltitudeMeters>973.79998779296875</AltitudeMeters>
            <DistanceMeters>NAN</DistanceMeters>
          </Trackpoint>
          <Trackpoint>
            <Time>2019-08-01T16:13:29.000Z</Time>
            <Position>
              <LatitudeDegrees>40.6882055103778839111328125</LatitudeDegrees>
              <LongitudeDegrees>-4.0893240272998809814453125</LongitudeDegrees>
            </Position>
            <AltitudeMeters>973.4000244140625</AltitudeMeters>
            <DistanceMeters>NAN</DistanceMeters>
          </Trackpoint>
          <Trackpoint>
            <Time>2019-08-01T16:13:30.000Z</Time>
            <Position>
              <LatitudeDegrees>40.68811557255685329437255859375</LatitudeDegrees>
              <LongitudeDegrees>-4.0893637575209140777587890625</LongitudeDegrees>
            </Position>
            <AltitudeMeters>973.20001220703125</AltitudeMeters>
            <DistanceMeters>NAN</DistanceMeters>
          </Trackpoint>
          <Trackpoint>
            <Time>2019-08-01T16:13:31.000Z</Time>
            <Position>
              <LatitudeDegrees>40.68802521564066410064697265625</LatitudeDegrees>
              <LongitudeDegrees>-4.08940239809453487396240234375</LongitudeDegrees>
            </Position>
            <AltitudeMeters>972.79998779296875</AltitudeMeters>
            <DistanceMeters>NAN</DistanceMeters>
          </Trackpoint>
          <Trackpoint>
            <Time>2019-08-01T16:13:32.000Z</Time>
            <Position>
              <LatitudeDegrees>40.68793418817222118377685546875</LatitudeDegrees>
              <LongitudeDegrees>-4.08943911083042621612548828125</LongitudeDegrees>
            </Position>
            <AltitudeMeters>972.20001220703125</AltitudeMeters>
            <DistanceMeters>NAN</DistanceMeters>
          </Trackpoint>
          <Trackpoint>
            <Time>2019-08-01T16:13:33.000Z</Time>
            <Position>
              <LatitudeDegrees>40.6878422386944293975830078125</LatitudeDegrees>
              <LongitudeDegrees>-4.0894760750234127044677734375</LongitudeDegrees>
            </Position>
            <AltitudeMeters>971.79998779296875</AltitudeMeters>
            <DistanceMeters>NAN</DistanceMeters>
          </Trackpoint>
          <Trackpoint>
            <Time>2019-08-01T16:13:34.000Z</Time>
            <Position>
              <LatitudeDegrees>40.68775020539760589599609375</LatitudeDegrees>
              <LongitudeDegrees>-4.0895112790167331695556640625</LongitudeDegrees>
            </Position>
            <AltitudeMeters>971.5999755859375</AltitudeMeters>
            <DistanceMeters>NAN</DistanceMeters>
          </Trackpoint>
          <Trackpoint>
            <Time>2019-08-01T16:13:35.000Z</Time>
            <Position>
              <LatitudeDegrees>40.68765775300562381744384765625</LatitudeDegrees>
              <LongitudeDegrees>-4.089546985924243927001953125</LongitudeDegrees>
            </Position>
            <AltitudeMeters>971.20001220703125</AltitudeMeters>
            <DistanceMeters>NAN</DistanceMeters>
          </Trackpoint>
          <Trackpoint>
            <Time>2019-08-01T16:13:36.000Z</Time>
            <Position>
              <LatitudeDegrees>40.68756555207073688507080078125</LatitudeDegrees>
              <LongitudeDegrees>-4.0895853750407695770263671875</LongitudeDegrees>
            </Position>
            <AltitudeMeters>971</AltitudeMeters>
            <DistanceMeters>NAN</DistanceMeters>
          </Trackpoint>
          <Trackpoint>
            <Time>2019-08-01T16:13:37.000Z</Time>
            <Position>
              <LatitudeDegrees>40.68747460842132568359375</LatitudeDegrees>
              <LongitudeDegrees>-4.0896215848624706268310546875</LongitudeDegrees>
            </Position>
            <AltitudeMeters>970.79998779296875</AltitudeMeters>
            <DistanceMeters>NAN</DistanceMeters>
          </Trackpoint>
          <Trackpoint>
            <Time>2019-08-01T16:13:38.000Z</Time>
            <Position>
              <LatitudeDegrees>40.68738383240997791290283203125</LatitudeDegrees>
              <LongitudeDegrees>-4.08965595066547393798828125</LongitudeDegrees>
            </Position>
            <AltitudeMeters>970.5999755859375</AltitudeMeters>
            <DistanceMeters>NAN</DistanceMeters>
          </Trackpoint>
          <Trackpoint>
            <Time>2019-08-01T16:13:39.000Z</Time>
            <Position>
              <LatitudeDegrees>40.6872943975031375885009765625</LatitudeDegrees>
              <LongitudeDegrees>-4.089690484106540679931640625</LongitudeDegrees>
            </Position>
            <AltitudeMeters>970.5999755859375</AltitudeMeters>
            <DistanceMeters>NAN</DistanceMeters>
          </Trackpoint>
          <Trackpoint>
            <Time>2019-08-01T16:13:40.000Z</Time>
            <Position>
              <LatitudeDegrees>40.6872055493295192718505859375</LatitudeDegrees>
              <LongitudeDegrees>-4.089726023375988006591796875</LongitudeDegrees>
            </Position>
            <AltitudeMeters>970</AltitudeMeters>
            <DistanceMeters>NAN</DistanceMeters>
          </Trackpoint>
          <Trackpoint>
            <Time>2019-08-01T16:13:41.000Z</Time>
            <Position>
              <LatitudeDegrees>40.687116198241710662841796875</LatitudeDegrees>
              <LongitudeDegrees>-4.08976256847381591796875</LongitudeDegrees>
            </Position>
            <AltitudeMeters>969.5999755859375</AltitudeMeters>
            <DistanceMeters>NAN</DistanceMeters>
          </Trackpoint>
          <Trackpoint>
            <Time>2019-08-01T16:13:42.000Z</Time>
            <Position>
              <LatitudeDegrees>40.68702735006809234619140625</LatitudeDegrees>
              <LongitudeDegrees>-4.089797101914882659912109375</LongitudeDegrees>
            </Position>
            <AltitudeMeters>969.5999755859375</AltitudeMeters>
            <DistanceMeters>NAN</DistanceMeters>
          </Trackpoint>
          <Trackpoint>
            <Time>2019-08-01T16:13:43.000Z</Time>
            <Position>
              <LatitudeDegrees>40.68693858571350574493408203125</LatitudeDegrees>
              <LongitudeDegrees>-4.08983163535594940185546875</LongitudeDegrees>
            </Position>
            <AltitudeMeters>969.4000244140625</AltitudeMeters>
            <DistanceMeters>NAN</DistanceMeters>
          </Trackpoint>
          <Trackpoint>
            <Time>2019-08-01T16:13:44.000Z</Time>
            <Position>
              <LatitudeDegrees>40.68684923462569713592529296875</LatitudeDegrees>
              <LongitudeDegrees>-4.08986776135861873626708984375</LongitudeDegrees>
            </Position>
            <AltitudeMeters>969.20001220703125</AltitudeMeters>
            <DistanceMeters>NAN</DistanceMeters>
          </Trackpoint>
          <Trackpoint>
            <Time>2019-08-01T16:13:45.000Z</Time>
            <Position>
              <LatitudeDegrees>40.68676005117595195770263671875</LatitudeDegrees>
              <LongitudeDegrees>-4.0899032168090343475341796875</LongitudeDegrees>
            </Position>
            <AltitudeMeters>969.20001220703125</AltitudeMeters>
            <DistanceMeters>NAN</DistanceMeters>
          </Trackpoint>
          <Trackpoint>
            <Time>2019-08-01T16:13:46.000Z</Time>
            <Position>
              <LatitudeDegrees>40.68667153827846050262451171875</LatitudeDegrees>
              <LongitudeDegrees>-4.0899364091455936431884765625</LongitudeDegrees>
            </Position>
            <AltitudeMeters>969</AltitudeMeters>
            <DistanceMeters>NAN</DistanceMeters>
          </Trackpoint>
          <Trackpoint>
            <Time>2019-08-01T16:13:47.000Z</Time>
            <Position>
              <LatitudeDegrees>40.68658352829515933990478515625</LatitudeDegrees>
              <LongitudeDegrees>-4.089970104396343231201171875</LongitudeDegrees>
            </Position>
            <AltitudeMeters>968.5999755859375</AltitudeMeters>
            <DistanceMeters>NAN</DistanceMeters>
          </Trackpoint>
          <Trackpoint>
            <Time>2019-08-01T16:13:48.000Z</Time>
            <Position>
              <LatitudeDegrees>40.686495602130889892578125</LatitudeDegrees>
              <LongitudeDegrees>-4.09000522457063198089599609375</LongitudeDegrees>
            </Position>
            <AltitudeMeters>968.5999755859375</AltitudeMeters>
            <DistanceMeters>NAN</DistanceMeters>
          </Trackpoint>
          <Trackpoint>
            <Time>2019-08-01T16:13:49.000Z</Time>
            <Position>
              <LatitudeDegrees>40.68640884943306446075439453125</LatitudeDegrees>
              <LongitudeDegrees>-4.09004093147814273834228515625</LongitudeDegrees>
            </Position>
            <AltitudeMeters>968.4000244140625</AltitudeMeters>
            <DistanceMeters>NAN</DistanceMeters>
          </Trackpoint>
          <Trackpoint>
            <Time>2019-08-01T16:13:50.000Z</Time>
            <Position>
              <LatitudeDegrees>40.68632134236395359039306640625</LatitudeDegrees>
              <LongitudeDegrees>-4.09007571637630462646484375</LongitudeDegrees>
            </Position>
            <AltitudeMeters>968.4000244140625</AltitudeMeters>
            <DistanceMeters>NAN</DistanceMeters>
          </Trackpoint>
          <Trackpoint>
            <Time>2019-08-01T16:13:51.000Z</Time>
            <Position>
              <LatitudeDegrees>40.6862339191138744354248046875</LatitudeDegrees>
              <LongitudeDegrees>-4.09010983072221279144287109375</LongitudeDegrees>
            </Position>
            <AltitudeMeters>968.20001220703125</AltitudeMeters>
            <DistanceMeters>NAN</DistanceMeters>
          </Trackpoint>
          <Trackpoint>
            <Time>2019-08-01T16:13:52.000Z</Time>
            <Position>
              <LatitudeDegrees>40.68614699877798557281494140625</LatitudeDegrees>
              <LongitudeDegrees>-4.0901436097919940948486328125</LongitudeDegrees>
            </Position>
            <AltitudeMeters>968.20001220703125</AltitudeMeters>
            <DistanceMeters>NAN</DistanceMeters>
          </Trackpoint>
          <Trackpoint>
            <Time>2019-08-01T16:13:53.000Z</Time>
            <Position>
              <LatitudeDegrees>40.6860595755279064178466796875</LatitudeDegrees>
              <LongitudeDegrees>-4.09017722122371196746826171875</LongitudeDegrees>
            </Position>
            <AltitudeMeters>968.20001220703125</AltitudeMeters>
            <DistanceMeters>NAN</DistanceMeters>
          </Trackpoint>
          <Trackpoint>
            <Time>2019-08-01T16:13:54.000Z</Time>
            <Position>
              <LatitudeDegrees>40.68597148172557353973388671875</LatitudeDegrees>
              <LongitudeDegrees>-4.09021208994090557098388671875</LongitudeDegrees>
            </Position>
            <AltitudeMeters>968.20001220703125</AltitudeMeters>
            <DistanceMeters>NAN</DistanceMeters>
          </Trackpoint>
          <Trackpoint>
            <Time>2019-08-01T16:13:55.000Z</Time>
            <Position>
              <LatitudeDegrees>40.68588347174227237701416015625</LatitudeDegrees>
              <LongitudeDegrees>-4.0902462042868137359619140625</LongitudeDegrees>
            </Position>
            <AltitudeMeters>968</AltitudeMeters>
            <DistanceMeters>NAN</DistanceMeters>
          </Trackpoint>
          <Trackpoint>
            <Time>2019-08-01T16:13:56.000Z</Time>
            <Position>
              <LatitudeDegrees>40.685795210301876068115234375</LatitudeDegrees>
              <LongitudeDegrees>-4.0902807377278804779052734375</LongitudeDegrees>
            </Position>
            <AltitudeMeters>968</AltitudeMeters>
            <DistanceMeters>NAN</DistanceMeters>
          </Trackpoint>
          <Trackpoint>
            <Time>2019-08-01T16:13:57.000Z</Time>
            <Position>
              <LatitudeDegrees>40.68570661358535289764404296875</LatitudeDegrees>
              <LongitudeDegrees>-4.09031485207378864288330078125</LongitudeDegrees>
            </Position>
            <AltitudeMeters>968</AltitudeMeters>
            <DistanceMeters>NAN</DistanceMeters>
          </Trackpoint>
          <Trackpoint>
            <Time>2019-08-01T16:13:58.000Z</Time>
            <Position>
              <LatitudeDegrees>40.68561860360205173492431640625</LatitudeDegrees>
              <LongitudeDegrees>-4.0903484635055065155029296875</LongitudeDegrees>
            </Position>
            <AltitudeMeters>968</AltitudeMeters>
            <DistanceMeters>NAN</DistanceMeters>
          </Trackpoint>
          <Trackpoint>
            <Time>2019-08-01T16:13:59.000Z</Time>
            <Position>
              <LatitudeDegrees>40.68553143180906772613525390625</LatitudeDegrees>
              <LongitudeDegrees>-4.0903826616704463958740234375</LongitudeDegrees>
            </Position>
            <AltitudeMeters>968</AltitudeMeters>
            <DistanceMeters>NAN</DistanceMeters>
          </Trackpoint>
          <Trackpoint>
            <Time>2019-08-01T16:14:00.000Z</Time>
            <Position>
              <LatitudeDegrees>40.68544509820640087127685546875</LatitudeDegrees>
              <LongitudeDegrees>-4.0904151834547519683837890625</LongitudeDegrees>
            </Position>
            <AltitudeMeters>968.20001220703125</AltitudeMeters>
            <DistanceMeters>NAN</DistanceMeters>
          </Trackpoint>
          <Trackpoint>
            <Time>2019-08-01T16:14:01.000Z</Time>
            <Position>
              <LatitudeDegrees>40.68535960279405117034912109375</LatitudeDegrees>
              <LongitudeDegrees>-4.09044795669615268707275390625</LongitudeDegrees>
            </Position>
            <AltitudeMeters>968.20001220703125</AltitudeMeters>
            <DistanceMeters>NAN</DistanceMeters>
          </Trackpoint>
          <Trackpoint>
            <Time>2019-08-01T16:14:02.000Z</Time>
            <Position>
              <LatitudeDegrees>40.6852756999433040618896484375</LatitudeDegrees>
              <LongitudeDegrees>-4.09048064611852169036865234375</LongitudeDegrees>
            </Position>
            <AltitudeMeters>968</AltitudeMeters>
            <DistanceMeters>NAN</DistanceMeters>
          </Trackpoint>
          <Trackpoint>
            <Time>2019-08-01T16:14:03.000Z</Time>
            <Position>
              <LatitudeDegrees>40.6851933896541595458984375</LatitudeDegrees>
              <LongitudeDegrees>-4.09051333554089069366455078125</LongitudeDegrees>
            </Position>
            <AltitudeMeters>967.79998779296875</AltitudeMeters>
            <DistanceMeters>NAN</DistanceMeters>
          </Trackpoint>
          <Trackpoint>
            <Time>2019-08-01T16:14:04.000Z</Time>
            <Position>
              <LatitudeDegrees>40.6851120851933956146240234375</LatitudeDegrees>
              <LongitudeDegrees>-4.09054636023938655853271484375</LongitudeDegrees>
            </Position>
            <AltitudeMeters>967.79998779296875</AltitudeMeters>
            <DistanceMeters>NAN</DistanceMeters>
          </Trackpoint>
          <Trackpoint>
            <Time>2019-08-01T16:14:05.000Z</Time>
            <Position>
              <LatitudeDegrees>40.68503170274198055267333984375</LatitudeDegrees>
              <LongitudeDegrees>-4.09058131277561187744140625</LongitudeDegrees>
            </Position>
            <AltitudeMeters>967.5999755859375</AltitudeMeters>
            <DistanceMeters>NAN</DistanceMeters>
          </Trackpoint>
          <Trackpoint>
            <Time>2019-08-01T16:14:06.000Z</Time>
            <Position>
              <LatitudeDegrees>40.684950649738311767578125</LatitudeDegrees>
              <LongitudeDegrees>-4.09061643294990062713623046875</LongitudeDegrees>
            </Position>
            <AltitudeMeters>967.5999755859375</AltitudeMeters>
            <DistanceMeters>NAN</DistanceMeters>
          </Trackpoint>
          <Trackpoint>
            <Time>2019-08-01T16:14:07.000Z</Time>
            <Position>
              <LatitudeDegrees>40.6848690100014209747314453125</LatitudeDegrees>
              <LongitudeDegrees>-4.09065079875290393829345703125</LongitudeDegrees>
            </Position>
            <AltitudeMeters>967.4000244140625</AltitudeMeters>
            <DistanceMeters>NAN</DistanceMeters>
          </Trackpoint>
          <Trackpoint>
            <Time>2019-08-01T16:14:08.000Z</Time>
            <Position>
              <LatitudeDegrees>40.68478728644549846649169921875</LatitudeDegrees>
              <LongitudeDegrees>-4.09068348817527294158935546875</LongitudeDegrees>
            </Position>
            <AltitudeMeters>967.4000244140625</AltitudeMeters>
            <DistanceMeters>NAN</DistanceMeters>
          </Trackpoint>
          <Trackpoint>
            <Time>2019-08-01T16:14:09.000Z</Time>
            <Position>
              <LatitudeDegrees>40.68470564670860767364501953125</LatitudeDegrees>
              <LongitudeDegrees>-4.09071584232151508331298828125</LongitudeDegrees>
            </Position>
            <AltitudeMeters>967.4000244140625</AltitudeMeters>
            <DistanceMeters>NAN</DistanceMeters>
          </Trackpoint>
          <Trackpoint>
            <Time>2019-08-01T16:14:10.000Z</Time>
            <Position>
              <LatitudeDegrees>40.68462417460978031158447265625</LatitudeDegrees>
              <LongitudeDegrees>-4.090747945010662078857421875</LongitudeDegrees>
            </Position>
            <AltitudeMeters>967.4000244140625</AltitudeMeters>
            <DistanceMeters>NAN</DistanceMeters>
          </Trackpoint>
          <Trackpoint>
            <Time>2019-08-01T16:14:11.000Z</Time>
            <Position>
              <LatitudeDegrees>40.68454354070127010345458984375</LatitudeDegrees>
              <LongitudeDegrees>-4.09078004769980907440185546875</LongitudeDegrees>
            </Position>
            <AltitudeMeters>967.4000244140625</AltitudeMeters>
            <DistanceMeters>NAN</DistanceMeters>
          </Trackpoint>
          <Trackpoint>
            <Time>2019-08-01T16:14:12.000Z</Time>
            <Position>
              <LatitudeDegrees>40.68446324206888675689697265625</LatitudeDegrees>
              <LongitudeDegrees>-4.090811647474765777587890625</LongitudeDegrees>
            </Position>
            <AltitudeMeters>967.4000244140625</AltitudeMeters>
            <DistanceMeters>NAN</DistanceMeters>
          </Trackpoint>
          <Trackpoint>
            <Time>2019-08-01T16:14:13.000Z</Time>
            <Position>
              <LatitudeDegrees>40.68438411690294742584228515625</LatitudeDegrees>
              <LongitudeDegrees>-4.09084375016391277313232421875</LongitudeDegrees>
            </Position>
            <AltitudeMeters>967.4000244140625</AltitudeMeters>
            <DistanceMeters>NAN</DistanceMeters>
          </Trackpoint>
          <Trackpoint>
            <Time>2019-08-01T16:14:14.000Z</Time>
            <Position>
              <LatitudeDegrees>40.68430616520345211029052734375</LatitudeDegrees>
              <LongitudeDegrees>-4.0908761881291866302490234375</LongitudeDegrees>
            </Position>
            <AltitudeMeters>967.4000244140625</AltitudeMeters>
            <DistanceMeters>NAN</DistanceMeters>
          </Trackpoint>
          <Trackpoint>
            <Time>2019-08-01T16:14:15.000Z</Time>
            <Position>
              <LatitudeDegrees>40.68422846496105194091796875</LatitudeDegrees>
              <LongitudeDegrees>-4.09090678207576274871826171875</LongitudeDegrees>
            </Position>
            <AltitudeMeters>967.4000244140625</AltitudeMeters>
            <DistanceMeters>NAN</DistanceMeters>
          </Trackpoint>
          <Trackpoint>
            <Time>2019-08-01T16:14:16.000Z</Time>
            <Position>
              <LatitudeDegrees>40.68415109999477863311767578125</LatitudeDegrees>
              <LongitudeDegrees>-4.09093662165105342864990234375</LongitudeDegrees>
            </Position>
            <AltitudeMeters>967.4000244140625</AltitudeMeters>
            <DistanceMeters>NAN</DistanceMeters>
          </Trackpoint>
          <Trackpoint>
            <Time>2019-08-01T16:14:17.000Z</Time>
            <Position>
              <LatitudeDegrees>40.68407423794269561767578125</LatitudeDegrees>
              <LongitudeDegrees>-4.09096713177859783172607421875</LongitudeDegrees>
            </Position>
            <AltitudeMeters>967.4000244140625</AltitudeMeters>
            <DistanceMeters>NAN</DistanceMeters>
          </Trackpoint>
          <Trackpoint>
            <Time>2019-08-01T16:14:18.000Z</Time>
            <Position>
              <LatitudeDegrees>40.6839972920715808868408203125</LatitudeDegrees>
              <LongitudeDegrees>-4.0909975580871105194091796875</LongitudeDegrees>
            </Position>
            <AltitudeMeters>967.5999755859375</AltitudeMeters>
            <DistanceMeters>NAN</DistanceMeters>
          </Trackpoint>
          <Trackpoint>
            <Time>2019-08-01T16:14:19.000Z</Time>
            <Position>
              <LatitudeDegrees>40.68391992710530757904052734375</LatitudeDegrees>
              <LongitudeDegrees>-4.0910267271101474761962890625</LongitudeDegrees>
            </Position>
            <AltitudeMeters>967.5999755859375</AltitudeMeters>
            <DistanceMeters>NAN</DistanceMeters>
          </Trackpoint>
          <Trackpoint>
            <Time>2019-08-01T16:14:20.000Z</Time>
            <Position>
              <LatitudeDegrees>40.68384281359612941741943359375</LatitudeDegrees>
              <LongitudeDegrees>-4.091056399047374725341796875</LongitudeDegrees>
            </Position>
            <AltitudeMeters>967.79998779296875</AltitudeMeters>
            <DistanceMeters>NAN</DistanceMeters>
          </Trackpoint>
          <Trackpoint>
            <Time>2019-08-01T16:14:21.000Z</Time>
            <Position>
              <LatitudeDegrees>40.6837656162679195404052734375</LatitudeDegrees>
              <LongitudeDegrees>-4.09108699299395084381103515625</LongitudeDegrees>
            </Position>
            <AltitudeMeters>967.79998779296875</AltitudeMeters>
            <DistanceMeters>NAN</DistanceMeters>
          </Trackpoint>
          <Trackpoint>
            <Time>2019-08-01T16:14:22.000Z</Time>
            <Position>
              <LatitudeDegrees>40.683689005672931671142578125</LatitudeDegrees>
              <LongitudeDegrees>-4.09111700020730495452880859375</LongitudeDegrees>
            </Position>
            <AltitudeMeters>967.79998779296875</AltitudeMeters>
            <DistanceMeters>NAN</DistanceMeters>
          </Trackpoint>
          <Trackpoint>
            <Time>2019-08-01T16:14:23.000Z</Time>
            <Position>
              <LatitudeDegrees>40.6836130656301975250244140625</LatitudeDegrees>
              <LongitudeDegrees>-4.09114583395421504974365234375</LongitudeDegrees>
            </Position>
            <AltitudeMeters>967.79998779296875</AltitudeMeters>
            <DistanceMeters>NAN</DistanceMeters>
          </Trackpoint>
          <Trackpoint>
            <Time>2019-08-01T16:14:24.000Z</Time>
            <Position>
              <LatitudeDegrees>40.68353804759681224822998046875</LatitudeDegrees>
              <LongitudeDegrees>-4.09117315895855426788330078125</LongitudeDegrees>
            </Position>
            <AltitudeMeters>968</AltitudeMeters>
            <DistanceMeters>NAN</DistanceMeters>
          </Trackpoint>
          <Trackpoint>
            <Time>2019-08-01T16:14:25.000Z</Time>
            <Position>
              <LatitudeDegrees>40.68346428684890270233154296875</LatitudeDegrees>
              <LongitudeDegrees>-4.091201238334178924560546875</LongitudeDegrees>
            </Position>
            <AltitudeMeters>967.79998779296875</AltitudeMeters>
            <DistanceMeters>NAN</DistanceMeters>
          </Trackpoint>
          <Trackpoint>
            <Time>2019-08-01T16:14:26.000Z</Time>
            <Position>
              <LatitudeDegrees>40.68339153192937374114990234375</LatitudeDegrees>
              <LongitudeDegrees>-4.09122948534786701202392578125</LongitudeDegrees>
            </Position>
            <AltitudeMeters>967.79998779296875</AltitudeMeters>
            <DistanceMeters>NAN</DistanceMeters>
          </Trackpoint>
          <Trackpoint>
            <Time>2019-08-01T16:14:27.000Z</Time>
            <Position>
              <LatitudeDegrees>40.6833183579146862030029296875</LatitudeDegrees>
              <LongitudeDegrees>-4.09125496633350849151611328125</LongitudeDegrees>
            </Position>
            <AltitudeMeters>967.79998779296875</AltitudeMeters>
            <DistanceMeters>NAN</DistanceMeters>
          </Trackpoint>
          <Trackpoint>
            <Time>2019-08-01T16:14:28.000Z</Time>
            <Position>
              <LatitudeDegrees>40.68324551917612552642822265625</LatitudeDegrees>
              <LongitudeDegrees>-4.09128044731914997100830078125</LongitudeDegrees>
            </Position>
            <AltitudeMeters>967.79998779296875</AltitudeMeters>
            <DistanceMeters>NAN</DistanceMeters>
          </Trackpoint>
          <Trackpoint>
            <Time>2019-08-01T16:14:29.000Z</Time>
            <Position>
              <LatitudeDegrees>40.6831736862659454345703125</LatitudeDegrees>
              <LongitudeDegrees>-4.0913086943328380584716796875</LongitudeDegrees>
            </Position>
            <AltitudeMeters>967.79998779296875</AltitudeMeters>
            <DistanceMeters>NAN</DistanceMeters>
          </Trackpoint>
          <Trackpoint>
            <Time>2019-08-01T16:14:31.000Z</Time>
            <Position>
              <LatitudeDegrees>40.683032535016536712646484375</LatitudeDegrees>
              <LongitudeDegrees>-4.091366194188594818115234375</LongitudeDegrees>
            </Position>
            <AltitudeMeters>967.79998779296875</AltitudeMeters>
            <DistanceMeters>NAN</DistanceMeters>
          </Trackpoint>
          <Trackpoint>
            <Time>2019-08-01T16:14:32.000Z</Time>
            <Position>
              <LatitudeDegrees>40.68296254612505435943603515625</LatitudeDegrees>
              <LongitudeDegrees>-4.09139402210712432861328125</LongitudeDegrees>
            </Position>
            <AltitudeMeters>967.5999755859375</AltitudeMeters>
            <DistanceMeters>NAN</DistanceMeters>
          </Trackpoint>
          <Trackpoint>
            <Time>2019-08-01T16:14:33.000Z</Time>
            <Position>
              <LatitudeDegrees>40.68289381451904773712158203125</LatitudeDegrees>
              <LongitudeDegrees>-4.0914253704249858856201171875</LongitudeDegrees>
            </Position>
            <AltitudeMeters>967.5999755859375</AltitudeMeters>
            <DistanceMeters>NAN</DistanceMeters>
          </Trackpoint>
          <Trackpoint>
            <Time>2019-08-01T16:14:34.000Z</Time>
            <Position>
              <LatitudeDegrees>40.6828238256275653839111328125</LatitudeDegrees>
              <LongitudeDegrees>-4.09145646728575229644775390625</LongitudeDegrees>
            </Position>
            <AltitudeMeters>967.4000244140625</AltitudeMeters>
            <DistanceMeters>NAN</DistanceMeters>
          </Trackpoint>
          <Trackpoint>
            <Time>2019-08-01T16:14:35.000Z</Time>
            <Position>
              <LatitudeDegrees>40.68275098688900470733642578125</LatitudeDegrees>
              <LongitudeDegrees>-4.0914850495755672454833984375</LongitudeDegrees>
            </Position>
            <AltitudeMeters>967.4000244140625</AltitudeMeters>
            <DistanceMeters>NAN</DistanceMeters>
          </Trackpoint>
          <Trackpoint>
            <Time>2019-08-01T16:14:36.000Z</Time>
            <Position>
              <LatitudeDegrees>40.68267672322690486907958984375</LatitudeDegrees>
              <LongitudeDegrees>-4.091514386236667633056640625</LongitudeDegrees>
            </Position>
            <AltitudeMeters>967.20001220703125</AltitudeMeters>
            <DistanceMeters>NAN</DistanceMeters>
          </Trackpoint>
          <Trackpoint>
            <Time>2019-08-01T16:14:37.000Z</Time>
            <Position>
              <LatitudeDegrees>40.68260245956480503082275390625</LatitudeDegrees>
              <LongitudeDegrees>-4.0915453992784023284912109375</LongitudeDegrees>
            </Position>
            <AltitudeMeters>967.20001220703125</AltitudeMeters>
            <DistanceMeters>NAN</DistanceMeters>
          </Trackpoint>
          <Trackpoint>
            <Time>2019-08-01T16:14:38.000Z</Time>
            <Position>
              <LatitudeDegrees>40.68252568133175373077392578125</LatitudeDegrees>
              <LongitudeDegrees>-4.0915755741298198699951171875</LongitudeDegrees>
            </Position>
            <AltitudeMeters>967</AltitudeMeters>
            <DistanceMeters>NAN</DistanceMeters>
          </Trackpoint>
          <Trackpoint>
            <Time>2019-08-01T16:14:39.000Z</Time>
            <Position>
              <LatitudeDegrees>40.6824469752609729766845703125</LatitudeDegrees>
              <LongitudeDegrees>-4.091606251895427703857421875</LongitudeDegrees>
            </Position>
            <AltitudeMeters>966.79998779296875</AltitudeMeters>
            <DistanceMeters>NAN</DistanceMeters>
          </Trackpoint>
          <Trackpoint>
            <Time>2019-08-01T16:14:40.000Z</Time>
            <Position>
              <LatitudeDegrees>40.6823675148189067840576171875</LatitudeDegrees>
              <LongitudeDegrees>-4.09163885749876499176025390625</LongitudeDegrees>
            </Position>
            <AltitudeMeters>966.79998779296875</AltitudeMeters>
            <DistanceMeters>NAN</DistanceMeters>
          </Trackpoint>
          <Trackpoint>
            <Time>2019-08-01T16:14:41.000Z</Time>
            <Position>
              <LatitudeDegrees>40.68228595890104770660400390625</LatitudeDegrees>
              <LongitudeDegrees>-4.0916721336543560028076171875</LongitudeDegrees>
            </Position>
            <AltitudeMeters>966.79998779296875</AltitudeMeters>
            <DistanceMeters>NAN</DistanceMeters>
          </Trackpoint>
          <Trackpoint>
            <Time>2019-08-01T16:14:42.000Z</Time>
            <Position>
              <LatitudeDegrees>40.68220281042158603668212890625</LatitudeDegrees>
              <LongitudeDegrees>-4.0917066670954227447509765625</LongitudeDegrees>
            </Position>
            <AltitudeMeters>966.79998779296875</AltitudeMeters>
            <DistanceMeters>NAN</DistanceMeters>
          </Trackpoint>
          <Trackpoint>
            <Time>2019-08-01T16:14:43.000Z</Time>
            <Position>
              <LatitudeDegrees>40.68211899138987064361572265625</LatitudeDegrees>
              <LongitudeDegrees>-4.091743715107440948486328125</LongitudeDegrees>
            </Position>
            <AltitudeMeters>966.5999755859375</AltitudeMeters>
            <DistanceMeters>NAN</DistanceMeters>
          </Trackpoint>
          <Trackpoint>
            <Time>2019-08-01T16:14:44.000Z</Time>
            <Position>
              <LatitudeDegrees>40.68203332833945751190185546875</LatitudeDegrees>
              <LongitudeDegrees>-4.0917790867388248443603515625</LongitudeDegrees>
            </Position>
            <AltitudeMeters>966</AltitudeMeters>
            <DistanceMeters>NAN</DistanceMeters>
          </Trackpoint>
          <Trackpoint>
            <Time>2019-08-01T16:14:46.000Z</Time>
            <Position>
              <LatitudeDegrees>40.68186401389539241790771484375</LatitudeDegrees>
              <LongitudeDegrees>-4.09184865653514862060546875</LongitudeDegrees>
            </Position>
            <AltitudeMeters>965.5999755859375</AltitudeMeters>
            <DistanceMeters>NAN</DistanceMeters>
          </Trackpoint>
          <Trackpoint>
            <Time>2019-08-01T16:14:47.000Z</Time>
            <Position>
              <LatitudeDegrees>40.68169704638421535491943359375</LatitudeDegrees>
              <LongitudeDegrees>-4.091917388141155242919921875</LongitudeDegrees>
            </Position>
            <AltitudeMeters>965.5999755859375</AltitudeMeters>
            <DistanceMeters>NAN</DistanceMeters>
          </Trackpoint>
          <Trackpoint>
            <Time>2019-08-01T16:14:48.000Z</Time>
            <Position>
              <LatitudeDegrees>40.68169704638421535491943359375</LatitudeDegrees>
              <LongitudeDegrees>-4.091917388141155242919921875</LongitudeDegrees>
            </Position>
            <AltitudeMeters>965.5999755859375</AltitudeMeters>
            <DistanceMeters>NAN</DistanceMeters>
          </Trackpoint>
          <Trackpoint>
            <Time>2019-08-01T16:14:49.000Z</Time>
            <Position>
              <LatitudeDegrees>40.68161523900926113128662109375</LatitudeDegrees>
              <LongitudeDegrees>-4.091950915753841400146484375</LongitudeDegrees>
            </Position>
            <AltitudeMeters>965.5999755859375</AltitudeMeters>
            <DistanceMeters>NAN</DistanceMeters>
          </Trackpoint>
          <Trackpoint>
            <Time>2019-08-01T16:14:50.000Z</Time>
            <Position>
              <LatitudeDegrees>40.6815353594720363616943359375</LatitudeDegrees>
              <LongitudeDegrees>-4.0919832699000835418701171875</LongitudeDegrees>
            </Position>
            <AltitudeMeters>965.4000244140625</AltitudeMeters>
            <DistanceMeters>NAN</DistanceMeters>
          </Trackpoint>
          <Trackpoint>
            <Time>2019-08-01T16:14:51.000Z</Time>
            <Position>
              <LatitudeDegrees>40.68145682103931903839111328125</LatitudeDegrees>
              <LongitudeDegrees>-4.0920154564082622528076171875</LongitudeDegrees>
            </Position>
            <AltitudeMeters>965.4000244140625</AltitudeMeters>
            <DistanceMeters>NAN</DistanceMeters>
          </Trackpoint>
          <Trackpoint>
            <Time>2019-08-01T16:14:52.000Z</Time>
            <Position>
              <LatitudeDegrees>40.6813787855207920074462890625</LatitudeDegrees>
              <LongitudeDegrees>-4.092048145830631256103515625</LongitudeDegrees>
            </Position>
            <AltitudeMeters>965.4000244140625</AltitudeMeters>
            <DistanceMeters>NAN</DistanceMeters>
          </Trackpoint>
          <Trackpoint>
            <Time>2019-08-01T16:14:53.000Z</Time>
            <Position>
              <LatitudeDegrees>40.68130108527839183807373046875</LatitudeDegrees>
              <LongitudeDegrees>-4.09207957796752452850341796875</LongitudeDegrees>
            </Position>
            <AltitudeMeters>965.20001220703125</AltitudeMeters>
            <DistanceMeters>NAN</DistanceMeters>
          </Trackpoint>
          <Trackpoint>
            <Time>2019-08-01T16:14:54.000Z</Time>
            <Position>
              <LatitudeDegrees>40.6812238879501819610595703125</LatitudeDegrees>
              <LongitudeDegrees>-4.0921103395521640777587890625</LongitudeDegrees>
            </Position>
            <AltitudeMeters>965.20001220703125</AltitudeMeters>
            <DistanceMeters>NAN</DistanceMeters>
          </Trackpoint>
          <Trackpoint>
            <Time>2019-08-01T16:14:55.000Z</Time>
            <Position>
              <LatitudeDegrees>40.68114752881228923797607421875</LatitudeDegrees>
              <LongitudeDegrees>-4.092141687870025634765625</LongitudeDegrees>
            </Position>
            <AltitudeMeters>965</AltitudeMeters>
            <DistanceMeters>NAN</DistanceMeters>
          </Trackpoint>
          <Trackpoint>
            <Time>2019-08-01T16:14:56.000Z</Time>
            <Position>
              <LatitudeDegrees>40.68107150495052337646484375</LatitudeDegrees>
              <LongitudeDegrees>-4.09217161126434803009033203125</LongitudeDegrees>
            </Position>
            <AltitudeMeters>965</AltitudeMeters>
            <DistanceMeters>NAN</DistanceMeters>
          </Trackpoint>
          <Trackpoint>
            <Time>2019-08-01T16:14:57.000Z</Time>
            <Position>
              <LatitudeDegrees>40.68099631927907466888427734375</LatitudeDegrees>
              <LongitudeDegrees>-4.092200696468353271484375</LongitudeDegrees>
            </Position>
            <AltitudeMeters>964.79998779296875</AltitudeMeters>
            <DistanceMeters>NAN</DistanceMeters>
          </Trackpoint>
          <Trackpoint>
            <Time>2019-08-01T16:14:58.000Z</Time>
            <Position>
              <LatitudeDegrees>40.6809211336076259613037109375</LatitudeDegrees>
              <LongitudeDegrees>-4.092229194939136505126953125</LongitudeDegrees>
            </Position>
            <AltitudeMeters>964.79998779296875</AltitudeMeters>
            <DistanceMeters>NAN</DistanceMeters>
          </Trackpoint>
          <Trackpoint>
            <Time>2019-08-01T16:14:59.000Z</Time>
            <Position>
              <LatitudeDegrees>40.68084728904068470001220703125</LatitudeDegrees>
              <LongitudeDegrees>-4.09225978888571262359619140625</LongitudeDegrees>
            </Position>
            <AltitudeMeters>964.5999755859375</AltitudeMeters>
            <DistanceMeters>NAN</DistanceMeters>
          </Trackpoint>
          <Trackpoint>
            <Time>2019-08-01T16:15:00.000Z</Time>
            <Position>
              <LatitudeDegrees>40.68077352829277515411376953125</LatitudeDegrees>
              <LongitudeDegrees>-4.09229113720357418060302734375</LongitudeDegrees>
            </Position>
            <AltitudeMeters>964.5999755859375</AltitudeMeters>
            <DistanceMeters>NAN</DistanceMeters>
          </Trackpoint>
          <Trackpoint>
            <Time>2019-08-01T16:15:01.000Z</Time>
            <Position>
              <LatitudeDegrees>40.6806998513638973236083984375</LatitudeDegrees>
              <LongitudeDegrees>-4.09232248552143573760986328125</LongitudeDegrees>
            </Position>
            <AltitudeMeters>964.4000244140625</AltitudeMeters>
            <DistanceMeters>NAN</DistanceMeters>
          </Trackpoint>
          <Trackpoint>
            <Time>2019-08-01T16:15:02.000Z</Time>
            <Position>
              <LatitudeDegrees>40.6806257553398609161376953125</LatitudeDegrees>
              <LongitudeDegrees>-4.09235291182994842529296875</LongitudeDegrees>
            </Position>
            <AltitudeMeters>964.4000244140625</AltitudeMeters>
            <DistanceMeters>NAN</DistanceMeters>
          </Trackpoint>
          <Trackpoint>
            <Time>2019-08-01T16:15:03.000Z</Time>
            <Position>
              <LatitudeDegrees>40.68055040203034877777099609375</LatitudeDegrees>
              <LongitudeDegrees>-4.09238283522427082061767578125</LongitudeDegrees>
            </Position>
            <AltitudeMeters>964.4000244140625</AltitudeMeters>
            <DistanceMeters>NAN</DistanceMeters>
          </Trackpoint>
          <Trackpoint>
            <Time>2019-08-01T16:15:04.000Z</Time>
            <Position>
              <LatitudeDegrees>40.68047379143536090850830078125</LatitudeDegrees>
              <LongitudeDegrees>-4.09241301007568836212158203125</LongitudeDegrees>
            </Position>
            <AltitudeMeters>964.4000244140625</AltitudeMeters>
            <DistanceMeters>NAN</DistanceMeters>
          </Trackpoint>
          <Trackpoint>
            <Time>2019-08-01T16:15:05.000Z</Time>
            <Position>
              <LatitudeDegrees>40.6803964264690876007080078125</LatitudeDegrees>
              <LongitudeDegrees>-4.0924434363842010498046875</LongitudeDegrees>
            </Position>
            <AltitudeMeters>964.4000244140625</AltitudeMeters>
            <DistanceMeters>NAN</DistanceMeters>
          </Trackpoint>
          <Trackpoint>
            <Time>2019-08-01T16:15:06.000Z</Time>
            <Position>
              <LatitudeDegrees>40.6803189776837825775146484375</LatitudeDegrees>
              <LongitudeDegrees>-4.09247386269271373748779296875</LongitudeDegrees>
            </Position>
            <AltitudeMeters>964.4000244140625</AltitudeMeters>
            <DistanceMeters>NAN</DistanceMeters>
          </Trackpoint>
          <Trackpoint>
            <Time>2019-08-01T16:15:07.000Z</Time>
            <Position>
              <LatitudeDegrees>40.6802421994507312774658203125</LatitudeDegrees>
              <LongitudeDegrees>-4.0925051271915435791015625</LongitudeDegrees>
            </Position>
            <AltitudeMeters>964.4000244140625</AltitudeMeters>
            <DistanceMeters>NAN</DistanceMeters>
          </Trackpoint>
          <Trackpoint>
            <Time>2019-08-01T16:15:08.000Z</Time>
            <Position>
              <LatitudeDegrees>40.6801657564938068389892578125</LatitudeDegrees>
              <LongitudeDegrees>-4.0925368107855319976806640625</LongitudeDegrees>
            </Position>
            <AltitudeMeters>964.4000244140625</AltitudeMeters>
            <DistanceMeters>NAN</DistanceMeters>
          </Trackpoint>
          <Trackpoint>
            <Time>2019-08-01T16:15:09.000Z</Time>
            <Position>
              <LatitudeDegrees>40.68009040318429470062255859375</LatitudeDegrees>
              <LongitudeDegrees>-4.09256908111274242401123046875</LongitudeDegrees>
            </Position>
            <AltitudeMeters>964.4000244140625</AltitudeMeters>
            <DistanceMeters>NAN</DistanceMeters>
          </Trackpoint>
          <Trackpoint>
            <Time>2019-08-01T16:15:10.000Z</Time>
            <Position>
              <LatitudeDegrees>40.6800168938934803009033203125</LatitudeDegrees>
              <LongitudeDegrees>-4.09260093234479427337646484375</LongitudeDegrees>
            </Position>
            <AltitudeMeters>964.4000244140625</AltitudeMeters>
            <DistanceMeters>NAN</DistanceMeters>
          </Trackpoint>
          <Trackpoint>
            <Time>2019-08-01T16:15:11.000Z</Time>
            <Position>
              <LatitudeDegrees>40.67994497716426849365234375</LatitudeDegrees>
              <LongitudeDegrees>-4.09263311885297298431396484375</LongitudeDegrees>
            </Position>
            <AltitudeMeters>964.4000244140625</AltitudeMeters>
            <DistanceMeters>NAN</DistanceMeters>
          </Trackpoint>
          <Trackpoint>
            <Time>2019-08-01T16:15:12.000Z</Time>
            <Position>
              <LatitudeDegrees>40.67987582646310329437255859375</LatitudeDegrees>
              <LongitudeDegrees>-4.092667400836944580078125</LongitudeDegrees>
            </Position>
            <AltitudeMeters>964.4000244140625</AltitudeMeters>
            <DistanceMeters>NAN</DistanceMeters>
          </Trackpoint>
          <Trackpoint>
            <Time>2019-08-01T16:15:13.000Z</Time>
            <Position>
              <LatitudeDegrees>40.6798086874186992645263671875</LatitudeDegrees>
              <LongitudeDegrees>-4.09270319156348705291748046875</LongitudeDegrees>
            </Position>
            <AltitudeMeters>964.4000244140625</AltitudeMeters>
            <DistanceMeters>NAN</DistanceMeters>
          </Trackpoint>
          <Trackpoint>
            <Time>2019-08-01T16:15:14.000Z</Time>
            <Position>
              <LatitudeDegrees>40.6797433085739612579345703125</LatitudeDegrees>
              <LongitudeDegrees>-4.09273889847099781036376953125</LongitudeDegrees>
            </Position>
            <AltitudeMeters>964.4000244140625</AltitudeMeters>
            <DistanceMeters>NAN</DistanceMeters>
          </Trackpoint>
          <Trackpoint>
            <Time>2019-08-01T16:15:15.000Z</Time>
            <Position>
              <LatitudeDegrees>40.679679103195667266845703125</LatitudeDegrees>
              <LongitudeDegrees>-4.09277242608368396759033203125</LongitudeDegrees>
            </Position>
            <AltitudeMeters>964.4000244140625</AltitudeMeters>
            <DistanceMeters>NAN</DistanceMeters>
          </Trackpoint>
          <Trackpoint>
            <Time>2019-08-01T16:15:16.000Z</Time>
            <Position>
              <LatitudeDegrees>40.6796152330935001373291015625</LatitudeDegrees>
              <LongitudeDegrees>-4.09280394203960895538330078125</LongitudeDegrees>
            </Position>
            <AltitudeMeters>964.4000244140625</AltitudeMeters>
            <DistanceMeters>NAN</DistanceMeters>
          </Trackpoint>
          <Trackpoint>
            <Time>2019-08-01T16:15:17.000Z</Time>
            <Position>
              <LatitudeDegrees>40.6795515306293964385986328125</LatitudeDegrees>
              <LongitudeDegrees>-4.09283596090972423553466796875</LongitudeDegrees>
            </Position>
            <AltitudeMeters>964.5999755859375</AltitudeMeters>
            <DistanceMeters>NAN</DistanceMeters>
          </Trackpoint>
          <Trackpoint>
            <Time>2019-08-01T16:15:18.000Z</Time>
            <Position>
              <LatitudeDegrees>40.67948606796562671661376953125</LatitudeDegrees>
              <LongitudeDegrees>-4.0928673930466175079345703125</LongitudeDegrees>
            </Position>
            <AltitudeMeters>964.5999755859375</AltitudeMeters>
            <DistanceMeters>NAN</DistanceMeters>
          </Trackpoint>
          <Trackpoint>
            <Time>2019-08-01T16:15:19.000Z</Time>
            <Position>
              <LatitudeDegrees>40.6794214434921741485595703125</LatitudeDegrees>
              <LongitudeDegrees>-4.09289899282157421112060546875</LongitudeDegrees>
            </Position>
            <AltitudeMeters>964.5999755859375</AltitudeMeters>
            <DistanceMeters>NAN</DistanceMeters>
          </Trackpoint>
          <Trackpoint>
            <Time>2019-08-01T16:15:20.000Z</Time>
            <Position>
              <LatitudeDegrees>40.67935698665678501129150390625</LatitudeDegrees>
              <LongitudeDegrees>-4.0929317660629749298095703125</LongitudeDegrees>
            </Position>
            <AltitudeMeters>964.79998779296875</AltitudeMeters>
            <DistanceMeters>NAN</DistanceMeters>
          </Trackpoint>
          <Trackpoint>
            <Time>2019-08-01T16:15:21.000Z</Time>
            <Position>
              <LatitudeDegrees>40.6792926974594593048095703125</LatitudeDegrees>
              <LongitudeDegrees>-4.09296420402824878692626953125</LongitudeDegrees>
            </Position>
            <AltitudeMeters>964.79998779296875</AltitudeMeters>
            <DistanceMeters>NAN</DistanceMeters>
          </Trackpoint>
          <Trackpoint>
            <Time>2019-08-01T16:15:22.000Z</Time>
            <Position>
              <LatitudeDegrees>40.6792286597192287445068359375</LatitudeDegrees>
              <LongitudeDegrees>-4.09299530088901519775390625</LongitudeDegrees>
            </Position>
            <AltitudeMeters>965</AltitudeMeters>
            <DistanceMeters>NAN</DistanceMeters>
          </Trackpoint>
          <Trackpoint>
            <Time>2019-08-01T16:15:23.000Z</Time>
            <Position>
              <LatitudeDegrees>40.67916504107415676116943359375</LatitudeDegrees>
              <LongitudeDegrees>-4.09302572719752788543701171875</LongitudeDegrees>
            </Position>
            <AltitudeMeters>965</AltitudeMeters>
            <DistanceMeters>NAN</DistanceMeters>
          </Trackpoint>
          <Trackpoint>
            <Time>2019-08-01T16:15:24.000Z</Time>
            <Position>
              <LatitudeDegrees>40.6791019253432750701904296875</LatitudeDegrees>
              <LongitudeDegrees>-4.09305556677281856536865234375</LongitudeDegrees>
            </Position>
            <AltitudeMeters>965</AltitudeMeters>
            <DistanceMeters>NAN</DistanceMeters>
          </Trackpoint>
          <Trackpoint>
            <Time>2019-08-01T16:15:25.000Z</Time>
            <Position>
              <LatitudeDegrees>40.6790375523269176483154296875</LatitudeDegrees>
              <LongitudeDegrees>-4.09308641217648983001708984375</LongitudeDegrees>
            </Position>
            <AltitudeMeters>965.20001220703125</AltitudeMeters>
            <DistanceMeters>NAN</DistanceMeters>
          </Trackpoint>
          <Trackpoint>
            <Time>2019-08-01T16:15:26.000Z</Time>
            <Position>
              <LatitudeDegrees>40.6789725087583065032958984375</LatitudeDegrees>
              <LongitudeDegrees>-4.09311876632273197174072265625</LongitudeDegrees>
            </Position>
            <AltitudeMeters>965.4000244140625</AltitudeMeters>
            <DistanceMeters>NAN</DistanceMeters>
          </Trackpoint>
          <Trackpoint>
            <Time>2019-08-01T16:15:27.000Z</Time>
            <Position>
              <LatitudeDegrees>40.67890754900872707366943359375</LatitudeDegrees>
              <LongitudeDegrees>-4.09315112046897411346435546875</LongitudeDegrees>
            </Position>
            <AltitudeMeters>965.4000244140625</AltitudeMeters>
            <DistanceMeters>NAN</DistanceMeters>
          </Trackpoint>
          <Trackpoint>
            <Time>2019-08-01T16:15:28.000Z</Time>
            <Position>
              <LatitudeDegrees>40.6788427568972110748291015625</LatitudeDegrees>
              <LongitudeDegrees>-4.09318330697715282440185546875</LongitudeDegrees>
            </Position>
            <AltitudeMeters>965.4000244140625</AltitudeMeters>
            <DistanceMeters>NAN</DistanceMeters>
          </Trackpoint>
          <Trackpoint>
            <Time>2019-08-01T16:15:29.000Z</Time>
            <Position>
              <LatitudeDegrees>40.67877846769988536834716796875</LatitudeDegrees>
              <LongitudeDegrees>-4.093215577304363250732421875</LongitudeDegrees>
            </Position>
            <AltitudeMeters>965.4000244140625</AltitudeMeters>
            <DistanceMeters>NAN</DistanceMeters>
          </Trackpoint>
          <Trackpoint>
            <Time>2019-08-01T16:15:30.000Z</Time>
            <Position>
              <LatitudeDegrees>40.678713507950305938720703125</LatitudeDegrees>
              <LongitudeDegrees>-4.093246757984161376953125</LongitudeDegrees>
            </Position>
            <AltitudeMeters>965.4000244140625</AltitudeMeters>
            <DistanceMeters>NAN</DistanceMeters>
          </Trackpoint>
          <Trackpoint>
            <Time>2019-08-01T16:15:31.000Z</Time>
            <Position>
              <LatitudeDegrees>40.67864771001040935516357421875</LatitudeDegrees>
              <LongitudeDegrees>-4.093278944492340087890625</LongitudeDegrees>
            </Position>
            <AltitudeMeters>965.5999755859375</AltitudeMeters>
            <DistanceMeters>NAN</DistanceMeters>
          </Trackpoint>
          <Trackpoint>
            <Time>2019-08-01T16:15:32.000Z</Time>
            <Position>
              <LatitudeDegrees>40.67858149297535419464111328125</LatitudeDegrees>
              <LongitudeDegrees>-4.09331238828599452972412109375</LongitudeDegrees>
            </Position>
            <AltitudeMeters>965.5999755859375</AltitudeMeters>
            <DistanceMeters>NAN</DistanceMeters>
          </Trackpoint>
          <Trackpoint>
            <Time>2019-08-01T16:15:33.000Z</Time>
            <Position>
              <LatitudeDegrees>40.678515024483203887939453125</LatitudeDegrees>
              <LongitudeDegrees>-4.09334675408899784088134765625</LongitudeDegrees>
            </Position>
            <AltitudeMeters>965.5999755859375</AltitudeMeters>
            <DistanceMeters>NAN</DistanceMeters>
          </Trackpoint>
          <Trackpoint>
            <Time>2019-08-01T16:15:34.000Z</Time>
            <Position>
              <LatitudeDegrees>40.678449310362339019775390625</LatitudeDegrees>
              <LongitudeDegrees>-4.09338011406362056732177734375</LongitudeDegrees>
            </Position>
            <AltitudeMeters>965.5999755859375</AltitudeMeters>
            <DistanceMeters>NAN</DistanceMeters>
          </Trackpoint>
          <Trackpoint>
            <Time>2019-08-01T16:15:35.000Z</Time>
            <Position>
              <LatitudeDegrees>40.67838485352694988250732421875</LatitudeDegrees>
              <LongitudeDegrees>-4.0934112109243869781494140625</LongitudeDegrees>
            </Position>
            <AltitudeMeters>965.5999755859375</AltitudeMeters>
            <DistanceMeters>NAN</DistanceMeters>
          </Trackpoint>
          <Trackpoint>
            <Time>2019-08-01T16:15:36.000Z</Time>
            <Position>
              <LatitudeDegrees>40.67831997759640216827392578125</LatitudeDegrees>
              <LongitudeDegrees>-4.0934427268803119659423828125</LongitudeDegrees>
            </Position>
            <AltitudeMeters>965.5999755859375</AltitudeMeters>
            <DistanceMeters>NAN</DistanceMeters>
          </Trackpoint>
          <Trackpoint>
            <Time>2019-08-01T16:15:37.000Z</Time>
            <Position>
              <LatitudeDegrees>40.67825384438037872314453125</LatitudeDegrees>
              <LongitudeDegrees>-4.093474410474300384521484375</LongitudeDegrees>
            </Position>
            <AltitudeMeters>965.5999755859375</AltitudeMeters>
            <DistanceMeters>NAN</DistanceMeters>
          </Trackpoint>
          <Trackpoint>
            <Time>2019-08-01T16:15:38.000Z</Time>
            <Position>
              <LatitudeDegrees>40.67818720825016498565673828125</LatitudeDegrees>
              <LongitudeDegrees>-4.09350668080151081085205078125</LongitudeDegrees>
            </Position>
            <AltitudeMeters>965.5999755859375</AltitudeMeters>
            <DistanceMeters>NAN</DistanceMeters>
          </Trackpoint>
          <Trackpoint>
            <Time>2019-08-01T16:15:39.000Z</Time>
            <Position>
              <LatitudeDegrees>40.67812082357704639434814453125</LatitudeDegrees>
              <LongitudeDegrees>-4.09353752620518207550048828125</LongitudeDegrees>
            </Position>
            <AltitudeMeters>965.5999755859375</AltitudeMeters>
            <DistanceMeters>NAN</DistanceMeters>
          </Trackpoint>
          <Trackpoint>
            <Time>2019-08-01T16:15:40.000Z</Time>
            <Position>
              <LatitudeDegrees>40.67805477418005466461181640625</LatitudeDegrees>
              <LongitudeDegrees>-4.09356770105659961700439453125</LongitudeDegrees>
            </Position>
            <AltitudeMeters>965.5999755859375</AltitudeMeters>
            <DistanceMeters>NAN</DistanceMeters>
          </Trackpoint>
          <Trackpoint>
            <Time>2019-08-01T16:15:41.000Z</Time>
            <Position>
              <LatitudeDegrees>40.677990652620792388916015625</LatitudeDegrees>
              <LongitudeDegrees>-4.09359921701252460479736328125</LongitudeDegrees>
            </Position>
            <AltitudeMeters>965.5999755859375</AltitudeMeters>
            <DistanceMeters>NAN</DistanceMeters>
          </Trackpoint>
          <Trackpoint>
            <Time>2019-08-01T16:15:42.000Z</Time>
            <Position>
              <LatitudeDegrees>40.677928291261196136474609375</LatitudeDegrees>
              <LongitudeDegrees>-4.093632996082305908203125</LongitudeDegrees>
            </Position>
            <AltitudeMeters>965.5999755859375</AltitudeMeters>
            <DistanceMeters>NAN</DistanceMeters>
          </Trackpoint>
          <Trackpoint>
            <Time>2019-08-01T16:15:43.000Z</Time>
            <Position>
              <LatitudeDegrees>40.67786316387355327606201171875</LatitudeDegrees>
              <LongitudeDegrees>-4.0936630032956600189208984375</LongitudeDegrees>
            </Position>
            <AltitudeMeters>965.79998779296875</AltitudeMeters>
            <DistanceMeters>NAN</DistanceMeters>
          </Trackpoint>
          <Trackpoint>
            <Time>2019-08-01T16:15:44.000Z</Time>
            <Position>
              <LatitudeDegrees>40.67779862321913242340087890625</LatitudeDegrees>
              <LongitudeDegrees>-4.0936931781470775604248046875</LongitudeDegrees>
            </Position>
            <AltitudeMeters>965.79998779296875</AltitudeMeters>
            <DistanceMeters>NAN</DistanceMeters>
          </Trackpoint>
          <Trackpoint>
            <Time>2019-08-01T16:15:45.000Z</Time>
            <Position>
              <LatitudeDegrees>40.67773425020277500152587890625</LatitudeDegrees>
              <LongitudeDegrees>-4.09372477792203426361083984375</LongitudeDegrees>
            </Position>
            <AltitudeMeters>965.79998779296875</AltitudeMeters>
            <DistanceMeters>NAN</DistanceMeters>
          </Trackpoint>
          <Trackpoint>
            <Time>2019-08-01T16:15:46.000Z</Time>
            <Position>
              <LatitudeDegrees>40.67766987718641757965087890625</LatitudeDegrees>
              <LongitudeDegrees>-4.09375646151602268218994140625</LongitudeDegrees>
            </Position>
            <AltitudeMeters>965.5999755859375</AltitudeMeters>
            <DistanceMeters>NAN</DistanceMeters>
          </Trackpoint>
          <Trackpoint>
            <Time>2019-08-01T16:15:47.000Z</Time>
            <Position>
              <LatitudeDegrees>40.67760583944618701934814453125</LatitudeDegrees>
              <LongitudeDegrees>-4.093788899481296539306640625</LongitudeDegrees>
            </Position>
            <AltitudeMeters>965.79998779296875</AltitudeMeters>
            <DistanceMeters>NAN</DistanceMeters>
          </Trackpoint>
          <Trackpoint>
            <Time>2019-08-01T16:15:48.000Z</Time>
            <Position>
              <LatitudeDegrees>40.677542723715305328369140625</LatitudeDegrees>
              <LongitudeDegrees>-4.0938222594559192657470703125</LongitudeDegrees>
            </Position>
            <AltitudeMeters>966</AltitudeMeters>
            <DistanceMeters>NAN</DistanceMeters>
          </Trackpoint>
          <Trackpoint>
            <Time>2019-08-01T16:15:49.000Z</Time>
            <Position>
              <LatitudeDegrees>40.6774798594415187835693359375</LatitudeDegrees>
              <LongitudeDegrees>-4.09385553561151027679443359375</LongitudeDegrees>
            </Position>
            <AltitudeMeters>966</AltitudeMeters>
            <DistanceMeters>NAN</DistanceMeters>
          </Trackpoint>
          <Trackpoint>
            <Time>2019-08-01T16:15:50.000Z</Time>
            <Position>
              <LatitudeDegrees>40.67741774953901767730712890625</LatitudeDegrees>
              <LongitudeDegrees>-4.093889482319355010986328125</LongitudeDegrees>
            </Position>
            <AltitudeMeters>966</AltitudeMeters>
            <DistanceMeters>NAN</DistanceMeters>
          </Trackpoint>
          <Trackpoint>
            <Time>2019-08-01T16:15:51.000Z</Time>
            <Position>
              <LatitudeDegrees>40.67735471762716770172119140625</LatitudeDegrees>
              <LongitudeDegrees>-4.09392124973237514495849609375</LongitudeDegrees>
            </Position>
            <AltitudeMeters>966</AltitudeMeters>
            <DistanceMeters>NAN</DistanceMeters>
          </Trackpoint>
          <Trackpoint>
            <Time>2019-08-01T16:15:52.000Z</Time>
            <Position>
              <LatitudeDegrees>40.67729067988693714141845703125</LatitudeDegrees>
              <LongitudeDegrees>-4.09395276568830013275146484375</LongitudeDegrees>
            </Position>
            <AltitudeMeters>966</AltitudeMeters>
            <DistanceMeters>NAN</DistanceMeters>
          </Trackpoint>
          <Trackpoint>
            <Time>2019-08-01T16:15:53.000Z</Time>
            <Position>
              <LatitudeDegrees>40.6772253848612308502197265625</LatitudeDegrees>
              <LongitudeDegrees>-4.09398344345390796661376953125</LongitudeDegrees>
            </Position>
            <AltitudeMeters>966.20001220703125</AltitudeMeters>
            <DistanceMeters>NAN</DistanceMeters>
          </Trackpoint>
          <Trackpoint>
            <Time>2019-08-01T16:15:54.000Z</Time>
            <Position>
              <LatitudeDegrees>40.6771600060164928436279296875</LatitudeDegrees>
              <LongitudeDegrees>-4.09401428885757923126220703125</LongitudeDegrees>
            </Position>
            <AltitudeMeters>966.20001220703125</AltitudeMeters>
            <DistanceMeters>NAN</DistanceMeters>
          </Trackpoint>
          <Trackpoint>
            <Time>2019-08-01T16:15:55.000Z</Time>
            <Position>
              <LatitudeDegrees>40.6770949624478816986083984375</LatitudeDegrees>
              <LongitudeDegrees>-4.09404538571834564208984375</LongitudeDegrees>
            </Position>
            <AltitudeMeters>966.20001220703125</AltitudeMeters>
            <DistanceMeters>NAN</DistanceMeters>
          </Trackpoint>
          <Trackpoint>
            <Time>2019-08-01T16:15:56.000Z</Time>
            <Position>
              <LatitudeDegrees>40.67702983506023883819580078125</LatitudeDegrees>
              <LongitudeDegrees>-4.09407623112201690673828125</LongitudeDegrees>
            </Position>
            <AltitudeMeters>966.20001220703125</AltitudeMeters>
            <DistanceMeters>NAN</DistanceMeters>
          </Trackpoint>
          <Trackpoint>
            <Time>2019-08-01T16:15:57.000Z</Time>
            <Position>
              <LatitudeDegrees>40.67696663551032543182373046875</LatitudeDegrees>
              <LongitudeDegrees>-4.0941069088876247406005859375</LongitudeDegrees>
            </Position>
            <AltitudeMeters>966.20001220703125</AltitudeMeters>
            <DistanceMeters>NAN</DistanceMeters>
          </Trackpoint>
          <Trackpoint>
            <Time>2019-08-01T16:15:58.000Z</Time>
            <Position>
              <LatitudeDegrees>40.676904022693634033203125</LatitudeDegrees>
              <LongitudeDegrees>-4.09413792192935943603515625</LongitudeDegrees>
            </Position>
            <AltitudeMeters>966.20001220703125</AltitudeMeters>
            <DistanceMeters>NAN</DistanceMeters>
          </Trackpoint>
          <Trackpoint>
            <Time>2019-08-01T16:15:59.000Z</Time>
            <Position>
              <LatitudeDegrees>40.676842667162418365478515625</LatitudeDegrees>
              <LongitudeDegrees>-4.094168432056903839111328125</LongitudeDegrees>
            </Position>
            <AltitudeMeters>966.4000244140625</AltitudeMeters>
            <DistanceMeters>NAN</DistanceMeters>
          </Trackpoint>
          <Trackpoint>
            <Time>2019-08-01T16:16:00.000Z</Time>
            <Position>
              <LatitudeDegrees>40.6767833232879638671875</LatitudeDegrees>
              <LongitudeDegrees>-4.09419835545122623443603515625</LongitudeDegrees>
            </Position>
            <AltitudeMeters>966.5999755859375</AltitudeMeters>
            <DistanceMeters>NAN</DistanceMeters>
          </Trackpoint>
          <Trackpoint>
            <Time>2019-08-01T16:16:01.000Z</Time>
            <Position>
              <LatitudeDegrees>40.67672221921384334564208984375</LatitudeDegrees>
              <LongitudeDegrees>-4.09422777593135833740234375</LongitudeDegrees>
            </Position>
            <AltitudeMeters>966.79998779296875</AltitudeMeters>
            <DistanceMeters>NAN</DistanceMeters>
          </Trackpoint>
          <Trackpoint>
            <Time>2019-08-01T16:16:02.000Z</Time>
            <Position>
              <LatitudeDegrees>40.67666019313037395477294921875</LatitudeDegrees>
              <LongitudeDegrees>-4.09425937570631504058837890625</LongitudeDegrees>
            </Position>
            <AltitudeMeters>967.20001220703125</AltitudeMeters>
            <DistanceMeters>NAN</DistanceMeters>
          </Trackpoint>
          <Trackpoint>
            <Time>2019-08-01T16:16:03.000Z</Time>
            <Position>
              <LatitudeDegrees>40.6765957362949848175048828125</LatitudeDegrees>
              <LongitudeDegrees>-4.09429214894771575927734375</LongitudeDegrees>
            </Position>
            <AltitudeMeters>967.20001220703125</AltitudeMeters>
            <DistanceMeters>NAN</DistanceMeters>
          </Trackpoint>
          <Trackpoint>
            <Time>2019-08-01T16:16:04.000Z</Time>
            <Position>
              <LatitudeDegrees>40.67653052508831024169921875</LatitudeDegrees>
              <LongitudeDegrees>-4.09432525746524333953857421875</LongitudeDegrees>
            </Position>
            <AltitudeMeters>967.4000244140625</AltitudeMeters>
            <DistanceMeters>NAN</DistanceMeters>
          </Trackpoint>
          <Trackpoint>
            <Time>2019-08-01T16:16:05.000Z</Time>
            <Position>
              <LatitudeDegrees>40.67646271549165248870849609375</LatitudeDegrees>
              <LongitudeDegrees>-4.09435643814504146575927734375</LongitudeDegrees>
            </Position>
            <AltitudeMeters>967.4000244140625</AltitudeMeters>
            <DistanceMeters>NAN</DistanceMeters>
          </Trackpoint>
          <Trackpoint>
            <Time>2019-08-01T16:16:06.000Z</Time>
            <Position>
              <LatitudeDegrees>40.6763935647904872894287109375</LatitudeDegrees>
              <LongitudeDegrees>-4.09438828937709331512451171875</LongitudeDegrees>
            </Position>
            <AltitudeMeters>967.5999755859375</AltitudeMeters>
            <DistanceMeters>NAN</DistanceMeters>
          </Trackpoint>
          <Trackpoint>
            <Time>2019-08-01T16:16:07.000Z</Time>
            <Position>
              <LatitudeDegrees>40.676324330270290374755859375</LatitudeDegrees>
              <LongitudeDegrees>-4.09442097879946231842041015625</LongitudeDegrees>
            </Position>
            <AltitudeMeters>967.5999755859375</AltitudeMeters>
            <DistanceMeters>NAN</DistanceMeters>
          </Trackpoint>
          <Trackpoint>
            <Time>2019-08-01T16:16:08.000Z</Time>
            <Position>
              <LatitudeDegrees>40.676255263388156890869140625</LatitudeDegrees>
              <LongitudeDegrees>-4.09445450641214847564697265625</LongitudeDegrees>
            </Position>
            <AltitudeMeters>967.5999755859375</AltitudeMeters>
            <DistanceMeters>NAN</DistanceMeters>
          </Trackpoint>
          <Trackpoint>
            <Time>2019-08-01T16:16:09.000Z</Time>
            <Position>
              <LatitudeDegrees>40.6761866994202136993408203125</LatitudeDegrees>
              <LongitudeDegrees>-4.0944897942245006561279296875</LongitudeDegrees>
            </Position>
            <AltitudeMeters>967.79998779296875</AltitudeMeters>
            <DistanceMeters>NAN</DistanceMeters>
          </Trackpoint>
          <Trackpoint>
            <Time>2019-08-01T16:16:10.000Z</Time>
            <Position>
              <LatitudeDegrees>40.67611738108098506927490234375</LatitudeDegrees>
              <LongitudeDegrees>-4.0945233218371868133544921875</LongitudeDegrees>
            </Position>
            <AltitudeMeters>968</AltitudeMeters>
            <DistanceMeters>NAN</DistanceMeters>
          </Trackpoint>
          <Trackpoint>
            <Time>2019-08-01T16:16:11.000Z</Time>
            <Position>
              <LatitudeDegrees>40.67604680545628070831298828125</LatitudeDegrees>
              <LongitudeDegrees>-4.0945578552782535552978515625</LongitudeDegrees>
            </Position>
            <AltitudeMeters>968</AltitudeMeters>
            <DistanceMeters>NAN</DistanceMeters>
          </Trackpoint>
          <Trackpoint>
            <Time>2019-08-01T16:16:12.000Z</Time>
            <Position>
              <LatitudeDegrees>40.6759774871170520782470703125</LatitudeDegrees>
              <LongitudeDegrees>-4.0945913828909397125244140625</LongitudeDegrees>
            </Position>
            <AltitudeMeters>968</AltitudeMeters>
            <DistanceMeters>NAN</DistanceMeters>
          </Trackpoint>
          <Trackpoint>
            <Time>2019-08-01T16:16:13.000Z</Time>
            <Position>
              <LatitudeDegrees>40.67590883933007717132568359375</LatitudeDegrees>
              <LongitudeDegrees>-4.0946240723133087158203125</LongitudeDegrees>
            </Position>
            <AltitudeMeters>968</AltitudeMeters>
            <DistanceMeters>NAN</DistanceMeters>
          </Trackpoint>
          <Trackpoint>
            <Time>2019-08-01T16:16:14.000Z</Time>
            <Position>
              <LatitudeDegrees>40.675841867923736572265625</LatitudeDegrees>
              <LongitudeDegrees>-4.09465617500245571136474609375</LongitudeDegrees>
            </Position>
            <AltitudeMeters>968</AltitudeMeters>
            <DistanceMeters>NAN</DistanceMeters>
          </Trackpoint>
          <Trackpoint>
            <Time>2019-08-01T16:16:15.000Z</Time>
            <Position>
              <LatitudeDegrees>40.67577757872641086578369140625</LatitudeDegrees>
              <LongitudeDegrees>-4.0946879424154758453369140625</LongitudeDegrees>
            </Position>
            <AltitudeMeters>968.20001220703125</AltitudeMeters>
            <DistanceMeters>NAN</DistanceMeters>
          </Trackpoint>
          <Trackpoint>
            <Time>2019-08-01T16:16:16.000Z</Time>
            <Position>
              <LatitudeDegrees>40.6757173128426074981689453125</LatitudeDegrees>
              <LongitudeDegrees>-4.0947177819907665252685546875</LongitudeDegrees>
            </Position>
            <AltitudeMeters>968.4000244140625</AltitudeMeters>
            <DistanceMeters>NAN</DistanceMeters>
          </Trackpoint>
          <Trackpoint>
            <Time>2019-08-01T16:16:17.000Z</Time>
            <Position>
              <LatitudeDegrees>40.67565612494945526123046875</LatitudeDegrees>
              <LongitudeDegrees>-4.094733037054538726806640625</LongitudeDegrees>
            </Position>
            <AltitudeMeters>968.5999755859375</AltitudeMeters>
            <DistanceMeters>NAN</DistanceMeters>
          </Trackpoint>
          <Trackpoint>
            <Time>2019-08-01T16:16:18.000Z</Time>
            <Position>
              <LatitudeDegrees>40.6755966134369373321533203125</LatitudeDegrees>
              <LongitudeDegrees>-4.09472138620913028717041015625</LongitudeDegrees>
            </Position>
            <AltitudeMeters>968.5999755859375</AltitudeMeters>
            <DistanceMeters>NAN</DistanceMeters>
          </Trackpoint>
          <Trackpoint>
            <Time>2019-08-01T16:16:19.000Z</Time>
            <Position>
              <LatitudeDegrees>40.67554481327533721923828125</LatitudeDegrees>
              <LongitudeDegrees>-4.094681404531002044677734375</LongitudeDegrees>
            </Position>
            <AltitudeMeters>968.5999755859375</AltitudeMeters>
            <DistanceMeters>NAN</DistanceMeters>
          </Trackpoint>
          <Trackpoint>
            <Time>2019-08-01T16:16:20.000Z</Time>
            <Position>
              <LatitudeDegrees>40.67550382576882839202880859375</LatitudeDegrees>
              <LongitudeDegrees>-4.0946195460855960845947265625</LongitudeDegrees>
            </Position>
            <AltitudeMeters>968.79998779296875</AltitudeMeters>
            <DistanceMeters>NAN</DistanceMeters>
          </Trackpoint>
          <Trackpoint>
            <Time>2019-08-01T16:16:21.000Z</Time>
            <Position>
              <LatitudeDegrees>40.6754725612699985504150390625</LatitudeDegrees>
              <LongitudeDegrees>-4.094544611871242523193359375</LongitudeDegrees>
            </Position>
            <AltitudeMeters>968.79998779296875</AltitudeMeters>
            <DistanceMeters>NAN</DistanceMeters>
          </Trackpoint>
          <Trackpoint>
            <Time>2019-08-01T16:16:22.000Z</Time>
            <Position>
              <LatitudeDegrees>40.675447918474674224853515625</LatitudeDegrees>
              <LongitudeDegrees>-4.094463475048542022705078125</LongitudeDegrees>
            </Position>
            <AltitudeMeters>968.79998779296875</AltitudeMeters>
            <DistanceMeters>NAN</DistanceMeters>
          </Trackpoint>
          <Trackpoint>
            <Time>2019-08-01T16:16:23.000Z</Time>
            <Position>
              <LatitudeDegrees>40.67542520351707935333251953125</LatitudeDegrees>
              <LongitudeDegrees>-4.0943784825503826141357421875</LongitudeDegrees>
            </Position>
            <AltitudeMeters>969</AltitudeMeters>
            <DistanceMeters>NAN</DistanceMeters>
          </Trackpoint>
          <Trackpoint>
            <Time>2019-08-01T16:16:24.000Z</Time>
            <Position>
              <LatitudeDegrees>40.67540206946432590484619140625</LatitudeDegrees>
              <LongitudeDegrees>-4.0942916460335254669189453125</LongitudeDegrees>
            </Position>
            <AltitudeMeters>969</AltitudeMeters>
            <DistanceMeters>NAN</DistanceMeters>
          </Trackpoint>
          <Trackpoint>
            <Time>2019-08-01T16:16:25.000Z</Time>
            <Position>
              <LatitudeDegrees>40.67537692375481128692626953125</LatitudeDegrees>
              <LongitudeDegrees>-4.09420254640281200408935546875</LongitudeDegrees>
            </Position>
            <AltitudeMeters>969</AltitudeMeters>
            <DistanceMeters>NAN</DistanceMeters>
          </Trackpoint>
          <Trackpoint>
            <Time>2019-08-01T16:16:26.000Z</Time>
            <Position>
              <LatitudeDegrees>40.67535110749304294586181640625</LatitudeDegrees>
              <LongitudeDegrees>-4.09411403350532054901123046875</LongitudeDegrees>
            </Position>
            <AltitudeMeters>969</AltitudeMeters>
            <DistanceMeters>NAN</DistanceMeters>
          </Trackpoint>
          <Trackpoint>
            <Time>2019-08-01T16:16:27.000Z</Time>
            <Position>
              <LatitudeDegrees>40.67532621324062347412109375</LatitudeDegrees>
              <LongitudeDegrees>-4.09402417950332164764404296875</LongitudeDegrees>
            </Position>
            <AltitudeMeters>969</AltitudeMeters>
            <DistanceMeters>NAN</DistanceMeters>
          </Trackpoint>
          <Trackpoint>
            <Time>2019-08-01T16:16:28.000Z</Time>
            <Position>
              <LatitudeDegrees>40.67530031315982341766357421875</LatitudeDegrees>
              <LongitudeDegrees>-4.09393432550132274627685546875</LongitudeDegrees>
            </Position>
            <AltitudeMeters>969</AltitudeMeters>
            <DistanceMeters>NAN</DistanceMeters>
          </Trackpoint>
          <Trackpoint>
            <Time>2019-08-01T16:16:29.000Z</Time>
            <Position>
              <LatitudeDegrees>40.67527382634580135345458984375</LatitudeDegrees>
              <LongitudeDegrees>-4.09384547732770442962646484375</LongitudeDegrees>
            </Position>
            <AltitudeMeters>969</AltitudeMeters>
            <DistanceMeters>NAN</DistanceMeters>
          </Trackpoint>
          <Trackpoint>
            <Time>2019-08-01T16:16:30.000Z</Time>
            <Position>
              <LatitudeDegrees>40.6752485968172550201416015625</LatitudeDegrees>
              <LongitudeDegrees>-4.0937555395066738128662109375</LongitudeDegrees>
            </Position>
            <AltitudeMeters>969</AltitudeMeters>
            <DistanceMeters>NAN</DistanceMeters>
          </Trackpoint>
          <Trackpoint>
            <Time>2019-08-01T16:16:31.000Z</Time>
            <Position>
              <LatitudeDegrees>40.675223954021930694580078125</LatitudeDegrees>
              <LongitudeDegrees>-4.09366459585726261138916015625</LongitudeDegrees>
            </Position>
            <AltitudeMeters>969</AltitudeMeters>
            <DistanceMeters>NAN</DistanceMeters>
          </Trackpoint>
          <Trackpoint>
            <Time>2019-08-01T16:16:32.000Z</Time>
            <Position>
              <LatitudeDegrees>40.675197131931781768798828125</LatitudeDegrees>
              <LongitudeDegrees>-4.093575663864612579345703125</LongitudeDegrees>
            </Position>
            <AltitudeMeters>969</AltitudeMeters>
            <DistanceMeters>NAN</DistanceMeters>
          </Trackpoint>
          <Trackpoint>
            <Time>2019-08-01T16:16:33.000Z</Time>
            <Position>
              <LatitudeDegrees>40.67516905255615711212158203125</LatitudeDegrees>
              <LongitudeDegrees>-4.09348790533840656280517578125</LongitudeDegrees>
            </Position>
            <AltitudeMeters>969</AltitudeMeters>
            <DistanceMeters>NAN</DistanceMeters>
          </Trackpoint>
          <Trackpoint>
            <Time>2019-08-01T16:16:34.000Z</Time>
            <Position>
              <LatitudeDegrees>40.675140805542469024658203125</LatitudeDegrees>
              <LongitudeDegrees>-4.09339754842221736907958984375</LongitudeDegrees>
            </Position>
            <AltitudeMeters>968.79998779296875</AltitudeMeters>
            <DistanceMeters>NAN</DistanceMeters>
          </Trackpoint>
          <Trackpoint>
            <Time>2019-08-01T16:16:35.000Z</Time>
            <Position>
              <LatitudeDegrees>40.67511473782360553741455078125</LatitudeDegrees>
              <LongitudeDegrees>-4.09330937080085277557373046875</LongitudeDegrees>
            </Position>
            <AltitudeMeters>968.4000244140625</AltitudeMeters>
            <DistanceMeters>NAN</DistanceMeters>
          </Trackpoint>
          <Trackpoint>
            <Time>2019-08-01T16:16:36.000Z</Time>
            <Position>
              <LatitudeDegrees>40.67509059794247150421142578125</LatitudeDegrees>
              <LongitudeDegrees>-4.09322270192205905914306640625</LongitudeDegrees>
            </Position>
            <AltitudeMeters>968.20001220703125</AltitudeMeters>
            <DistanceMeters>NAN</DistanceMeters>
          </Trackpoint>
          <Trackpoint>
            <Time>2019-08-01T16:16:37.000Z</Time>
            <Position>
              <LatitudeDegrees>40.67506612278521060943603515625</LatitudeDegrees>
              <LongitudeDegrees>-4.093138463795185089111328125</LongitudeDegrees>
            </Position>
            <AltitudeMeters>967.79998779296875</AltitudeMeters>
            <DistanceMeters>NAN</DistanceMeters>
          </Trackpoint>
          <Trackpoint>
            <Time>2019-08-01T16:16:38.000Z</Time>
            <Position>
              <LatitudeDegrees>40.6750412285327911376953125</LatitudeDegrees>
              <LongitudeDegrees>-4.0930571593344211578369140625</LongitudeDegrees>
            </Position>
            <AltitudeMeters>967.5999755859375</AltitudeMeters>
            <DistanceMeters>NAN</DistanceMeters>
          </Trackpoint>
          <Trackpoint>
            <Time>2019-08-01T16:16:39.000Z</Time>
            <Position>
              <LatitudeDegrees>40.6750170886516571044921875</LatitudeDegrees>
              <LongitudeDegrees>-4.0929770283401012420654296875</LongitudeDegrees>
            </Position>
            <AltitudeMeters>967.4000244140625</AltitudeMeters>
            <DistanceMeters>NAN</DistanceMeters>
          </Trackpoint>
          <Trackpoint>
            <Time>2019-08-01T16:16:40.000Z</Time>
            <Position>
              <LatitudeDegrees>40.6749937869608402252197265625</LatitudeDegrees>
              <LongitudeDegrees>-4.092900753021240234375</LongitudeDegrees>
            </Position>
            <AltitudeMeters>967.20001220703125</AltitudeMeters>
            <DistanceMeters>NAN</DistanceMeters>
          </Trackpoint>
          <Trackpoint>
            <Time>2019-08-01T16:16:41.000Z</Time>
            <Position>
              <LatitudeDegrees>40.6749733351171016693115234375</LatitudeDegrees>
              <LongitudeDegrees>-4.0928288362920284271240234375</LongitudeDegrees>
            </Position>
            <AltitudeMeters>967.20001220703125</AltitudeMeters>
            <DistanceMeters>NAN</DistanceMeters>
          </Trackpoint>
          <Trackpoint>
            <Time>2019-08-01T16:16:42.000Z</Time>
            <Position>
              <LatitudeDegrees>40.6749562360346317291259765625</LatitudeDegrees>
              <LongitudeDegrees>-4.09276505000889301300048828125</LongitudeDegrees>
            </Position>
            <AltitudeMeters>967</AltitudeMeters>
            <DistanceMeters>NAN</DistanceMeters>
          </Trackpoint>
          <Trackpoint>
            <Time>2019-08-01T16:16:43.000Z</Time>
            <Position>
              <LatitudeDegrees>40.67494257353246212005615234375</LatitudeDegrees>
              <LongitudeDegrees>-4.09271140582859516143798828125</LongitudeDegrees>
            </Position>
            <AltitudeMeters>967</AltitudeMeters>
            <DistanceMeters>NAN</DistanceMeters>
          </Trackpoint>
          <Trackpoint>
            <Time>2019-08-01T16:16:44.000Z</Time>
            <Position>
              <LatitudeDegrees>40.67493016831576824188232421875</LatitudeDegrees>
              <LongitudeDegrees>-4.09266270697116851806640625</LongitudeDegrees>
            </Position>
            <AltitudeMeters>967</AltitudeMeters>
            <DistanceMeters>NAN</DistanceMeters>
          </Trackpoint>
          <Trackpoint>
            <Time>2019-08-01T16:16:45.000Z</Time>
            <Position>
              <LatitudeDegrees>40.67492078058421611785888671875</LatitudeDegrees>
              <LongitudeDegrees>-4.0926243178546428680419921875</LongitudeDegrees>
            </Position>
            <AltitudeMeters>967</AltitudeMeters>
            <DistanceMeters>NAN</DistanceMeters>
          </Trackpoint>
          <Trackpoint>
            <Time>2019-08-01T16:16:46.000Z</Time>
            <Position>
              <LatitudeDegrees>40.67491256631910800933837890625</LatitudeDegrees>
              <LongitudeDegrees>-4.09259389154613018035888671875</LongitudeDegrees>
            </Position>
            <AltitudeMeters>967</AltitudeMeters>
            <DistanceMeters>NAN</DistanceMeters>
          </Trackpoint>
          <Trackpoint>
            <Time>2019-08-01T16:16:47.000Z</Time>
            <Position>
              <LatitudeDegrees>40.67490334622561931610107421875</LatitudeDegrees>
              <LongitudeDegrees>-4.09256614744663238525390625</LongitudeDegrees>
            </Position>
            <AltitudeMeters>967</AltitudeMeters>
            <DistanceMeters>NAN</DistanceMeters>
          </Trackpoint>
          <Trackpoint>
            <Time>2019-08-01T16:16:48.000Z</Time>
            <Position>
              <LatitudeDegrees>40.674893371760845184326171875</LatitudeDegrees>
              <LongitudeDegrees>-4.09253722988069057464599609375</LongitudeDegrees>
            </Position>
            <AltitudeMeters>966.79998779296875</AltitudeMeters>
            <DistanceMeters>NAN</DistanceMeters>
          </Trackpoint>
          <Trackpoint>
            <Time>2019-08-01T16:16:49.000Z</Time>
            <Position>
              <LatitudeDegrees>40.67488105036318302154541015625</LatitudeDegrees>
              <LongitudeDegrees>-4.092508815228939056396484375</LongitudeDegrees>
            </Position>
            <AltitudeMeters>966.79998779296875</AltitudeMeters>
            <DistanceMeters>NAN</DistanceMeters>
          </Trackpoint>
          <Trackpoint>
            <Time>2019-08-01T16:16:50.000Z</Time>
            <Position>
              <LatitudeDegrees>40.67486629821360111236572265625</LatitudeDegrees>
              <LongitudeDegrees>-4.09247118048369884490966796875</LongitudeDegrees>
            </Position>
            <AltitudeMeters>966.79998779296875</AltitudeMeters>
            <DistanceMeters>NAN</DistanceMeters>
          </Trackpoint>
          <Trackpoint>
            <Time>2019-08-01T16:16:51.000Z</Time>
            <Position>
              <LatitudeDegrees>40.67485238425433635711669921875</LatitudeDegrees>
              <LongitudeDegrees>-4.0924300253391265869140625</LongitudeDegrees>
            </Position>
            <AltitudeMeters>966.5999755859375</AltitudeMeters>
            <DistanceMeters>NAN</DistanceMeters>
          </Trackpoint>
          <Trackpoint>
            <Time>2019-08-01T16:16:52.000Z</Time>
            <Position>
              <LatitudeDegrees>40.674837045371532440185546875</LatitudeDegrees>
              <LongitudeDegrees>-4.0923809073865413665771484375</LongitudeDegrees>
            </Position>
            <AltitudeMeters>966.5999755859375</AltitudeMeters>
            <DistanceMeters>NAN</DistanceMeters>
          </Trackpoint>
          <Trackpoint>
            <Time>2019-08-01T16:16:53.000Z</Time>
            <Position>
              <LatitudeDegrees>40.67482103593647480010986328125</LatitudeDegrees>
              <LongitudeDegrees>-4.0923259221017360687255859375</LongitudeDegrees>
            </Position>
            <AltitudeMeters>966.5999755859375</AltitudeMeters>
            <DistanceMeters>NAN</DistanceMeters>
          </Trackpoint>
          <Trackpoint>
            <Time>2019-08-01T16:16:54.000Z</Time>
            <Position>
              <LatitudeDegrees>40.67480452358722686767578125</LatitudeDegrees>
              <LongitudeDegrees>-4.092264063656330108642578125</LongitudeDegrees>
            </Position>
            <AltitudeMeters>966.5999755859375</AltitudeMeters>
            <DistanceMeters>NAN</DistanceMeters>
          </Trackpoint>
          <Trackpoint>
            <Time>2019-08-01T16:16:55.000Z</Time>
            <Position>
              <LatitudeDegrees>40.67478633485734462738037109375</LatitudeDegrees>
              <LongitudeDegrees>-4.09219793044030666351318359375</LongitudeDegrees>
            </Position>
            <AltitudeMeters>966.5999755859375</AltitudeMeters>
            <DistanceMeters>NAN</DistanceMeters>
          </Trackpoint>
          <Trackpoint>
            <Time>2019-08-01T16:16:56.000Z</Time>
            <Position>
              <LatitudeDegrees>40.67476688884198665618896484375</LatitudeDegrees>
              <LongitudeDegrees>-4.09213137812912464141845703125</LongitudeDegrees>
            </Position>
            <AltitudeMeters>966.5999755859375</AltitudeMeters>
            <DistanceMeters>NAN</DistanceMeters>
          </Trackpoint>
          <Trackpoint>
            <Time>2019-08-01T16:16:57.000Z</Time>
            <Position>
              <LatitudeDegrees>40.674747861921787261962890625</LatitudeDegrees>
              <LongitudeDegrees>-4.0920620597898960113525390625</LongitudeDegrees>
            </Position>
            <AltitudeMeters>966.5999755859375</AltitudeMeters>
            <DistanceMeters>NAN</DistanceMeters>
          </Trackpoint>
          <Trackpoint>
            <Time>2019-08-01T16:16:58.000Z</Time>
            <Position>
              <LatitudeDegrees>40.6747300922870635986328125</LatitudeDegrees>
              <LongitudeDegrees>-4.0919936634600162506103515625</LongitudeDegrees>
            </Position>
            <AltitudeMeters>966.5999755859375</AltitudeMeters>
            <DistanceMeters>NAN</DistanceMeters>
          </Trackpoint>
          <Trackpoint>
            <Time>2019-08-01T16:16:59.000Z</Time>
            <Position>
              <LatitudeDegrees>40.67471089772880077362060546875</LatitudeDegrees>
              <LongitudeDegrees>-4.09192241728305816650390625</LongitudeDegrees>
            </Position>
            <AltitudeMeters>966.4000244140625</AltitudeMeters>
            <DistanceMeters>NAN</DistanceMeters>
          </Trackpoint>
          <Trackpoint>
            <Time>2019-08-01T16:17:00.000Z</Time>
            <Position>
              <LatitudeDegrees>40.674688853323459625244140625</LatitudeDegrees>
              <LongitudeDegrees>-4.0918505005538463592529296875</LongitudeDegrees>
            </Position>
            <AltitudeMeters>966.4000244140625</AltitudeMeters>
            <DistanceMeters>NAN</DistanceMeters>
          </Trackpoint>
          <Trackpoint>
            <Time>2019-08-01T16:17:01.000Z</Time>
            <Position>
              <LatitudeDegrees>40.6746665574610233306884765625</LatitudeDegrees>
              <LongitudeDegrees>-4.09177732653915882110595703125</LongitudeDegrees>
            </Position>
            <AltitudeMeters>966.4000244140625</AltitudeMeters>
            <DistanceMeters>NAN</DistanceMeters>
          </Trackpoint>
          <Trackpoint>
            <Time>2019-08-01T16:17:02.000Z</Time>
            <Position>
              <LatitudeDegrees>40.67464401014149188995361328125</LatitudeDegrees>
              <LongitudeDegrees>-4.09169870428740978240966796875</LongitudeDegrees>
            </Position>
            <AltitudeMeters>966.20001220703125</AltitudeMeters>
            <DistanceMeters>NAN</DistanceMeters>
          </Trackpoint>
          <Trackpoint>
            <Time>2019-08-01T16:17:03.000Z</Time>
            <Position>
              <LatitudeDegrees>40.67462079226970672607421875</LatitudeDegrees>
              <LongitudeDegrees>-4.091621004045009613037109375</LongitudeDegrees>
            </Position>
            <AltitudeMeters>966</AltitudeMeters>
            <DistanceMeters>NAN</DistanceMeters>
          </Trackpoint>
          <Trackpoint>
            <Time>2019-08-01T16:17:04.000Z</Time>
            <Position>
              <LatitudeDegrees>40.67459522746503353118896484375</LatitudeDegrees>
              <LongitudeDegrees>-4.0915450640022754669189453125</LongitudeDegrees>
            </Position>
            <AltitudeMeters>965.79998779296875</AltitudeMeters>
            <DistanceMeters>NAN</DistanceMeters>
          </Trackpoint>
          <Trackpoint>
            <Time>2019-08-01T16:17:05.000Z</Time>
            <Position>
              <LatitudeDegrees>40.67456580698490142822265625</LatitudeDegrees>
              <LongitudeDegrees>-4.0914726443588733673095703125</LongitudeDegrees>
            </Position>
            <AltitudeMeters>965.5999755859375</AltitudeMeters>
            <DistanceMeters>NAN</DistanceMeters>
          </Trackpoint>
          <Trackpoint>
            <Time>2019-08-01T16:17:06.000Z</Time>
            <Position>
              <LatitudeDegrees>40.6745304353535175323486328125</LatitudeDegrees>
              <LongitudeDegrees>-4.09140206873416900634765625</LongitudeDegrees>
            </Position>
            <AltitudeMeters>965.4000244140625</AltitudeMeters>
            <DistanceMeters>NAN</DistanceMeters>
          </Trackpoint>
          <Trackpoint>
            <Time>2019-08-01T16:17:07.000Z</Time>
            <Position>
              <LatitudeDegrees>40.67449011839926242828369140625</LatitudeDegrees>
              <LongitudeDegrees>-4.09133325330913066864013671875</LongitudeDegrees>
            </Position>
            <AltitudeMeters>965.4000244140625</AltitudeMeters>
            <DistanceMeters>NAN</DistanceMeters>
          </Trackpoint>
          <Trackpoint>
            <Time>2019-08-01T16:17:08.000Z</Time>
            <Position>
              <LatitudeDegrees>40.67444368265569210052490234375</LatitudeDegrees>
              <LongitudeDegrees>-4.09126837737858295440673828125</LongitudeDegrees>
            </Position>
            <AltitudeMeters>965.20001220703125</AltitudeMeters>
            <DistanceMeters>NAN</DistanceMeters>
          </Trackpoint>
          <Trackpoint>
            <Time>2019-08-01T16:17:09.000Z</Time>
            <Position>
              <LatitudeDegrees>40.674393139779567718505859375</LatitudeDegrees>
              <LongitudeDegrees>-4.091209955513477325439453125</LongitudeDegrees>
            </Position>
            <AltitudeMeters>965.20001220703125</AltitudeMeters>
            <DistanceMeters>NAN</DistanceMeters>
          </Trackpoint>
          <Trackpoint>
            <Time>2019-08-01T16:17:10.000Z</Time>
            <Position>
              <LatitudeDegrees>40.67433781921863555908203125</LatitudeDegrees>
              <LongitudeDegrees>-4.091157652437686920166015625</LongitudeDegrees>
            </Position>
            <AltitudeMeters>965</AltitudeMeters>
            <DistanceMeters>NAN</DistanceMeters>
          </Trackpoint>
          <Trackpoint>
            <Time>2019-08-01T16:17:11.000Z</Time>
            <Position>
              <LatitudeDegrees>40.67427772097289562225341796875</LatitudeDegrees>
              <LongitudeDegrees>-4.09111632965505123138427734375</LongitudeDegrees>
            </Position>
            <AltitudeMeters>964.79998779296875</AltitudeMeters>
            <DistanceMeters>NAN</DistanceMeters>
          </Trackpoint>
          <Trackpoint>
            <Time>2019-08-01T16:17:12.000Z</Time>
            <Position>
              <LatitudeDegrees>40.67421435378491878509521484375</LatitudeDegrees>
              <LongitudeDegrees>-4.09108246676623821258544921875</LongitudeDegrees>
            </Position>
            <AltitudeMeters>964.5999755859375</AltitudeMeters>
            <DistanceMeters>NAN</DistanceMeters>
          </Trackpoint>
          <Trackpoint>
            <Time>2019-08-01T16:17:13.000Z</Time>
            <Position>
              <LatitudeDegrees>40.67414863966405391693115234375</LatitudeDegrees>
              <LongitudeDegrees>-4.0910555608570575714111328125</LongitudeDegrees>
            </Position>
            <AltitudeMeters>964.5999755859375</AltitudeMeters>
            <DistanceMeters>NAN</DistanceMeters>
          </Trackpoint>
          <Trackpoint>
            <Time>2019-08-01T16:17:14.000Z</Time>
            <Position>
              <LatitudeDegrees>40.67408141680061817169189453125</LatitudeDegrees>
              <LongitudeDegrees>-4.0910324268043041229248046875</LongitudeDegrees>
            </Position>
            <AltitudeMeters>964.4000244140625</AltitudeMeters>
            <DistanceMeters>NAN</DistanceMeters>
          </Trackpoint>
          <Trackpoint>
            <Time>2019-08-01T16:17:15.000Z</Time>
            <Position>
              <LatitudeDegrees>40.6740144453942775726318359375</LatitudeDegrees>
              <LongitudeDegrees>-4.09101155586540699005126953125</LongitudeDegrees>
            </Position>
            <AltitudeMeters>964.20001220703125</AltitudeMeters>
            <DistanceMeters>NAN</DistanceMeters>
          </Trackpoint>
          <Trackpoint>
            <Time>2019-08-01T16:17:16.000Z</Time>
            <Position>
              <LatitudeDegrees>40.673948228359222412109375</LatitudeDegrees>
              <LongitudeDegrees>-4.09099328331649303436279296875</LongitudeDegrees>
            </Position>
            <AltitudeMeters>964</AltitudeMeters>
            <DistanceMeters>NAN</DistanceMeters>
          </Trackpoint>
          <Trackpoint>
            <Time>2019-08-01T16:17:17.000Z</Time>
            <Position>
              <LatitudeDegrees>40.6738830171525478363037109375</LatitudeDegrees>
              <LongitudeDegrees>-4.0909771062433719635009765625</LongitudeDegrees>
            </Position>
            <AltitudeMeters>963.79998779296875</AltitudeMeters>
            <DistanceMeters>NAN</DistanceMeters>
          </Trackpoint>
          <Trackpoint>
            <Time>2019-08-01T16:17:18.000Z</Time>
            <Position>
              <LatitudeDegrees>40.673819817602634429931640625</LatitudeDegrees>
              <LongitudeDegrees>-4.0909606777131557464599609375</LongitudeDegrees>
            </Position>
            <AltitudeMeters>963.4000244140625</AltitudeMeters>
            <DistanceMeters>NAN</DistanceMeters>
          </Trackpoint>
          <Trackpoint>
            <Time>2019-08-01T16:17:19.000Z</Time>
            <Position>
              <LatitudeDegrees>40.673759467899799346923828125</LatitudeDegrees>
              <LongitudeDegrees>-4.09094349481165409088134765625</LongitudeDegrees>
            </Position>
            <AltitudeMeters>963.20001220703125</AltitudeMeters>
            <DistanceMeters>NAN</DistanceMeters>
          </Trackpoint>
          <Trackpoint>
            <Time>2019-08-01T16:17:20.000Z</Time>
            <Position>
              <LatitudeDegrees>40.67370540462434291839599609375</LatitudeDegrees>
              <LongitudeDegrees>-4.09092321060597896575927734375</LongitudeDegrees>
            </Position>
            <AltitudeMeters>963</AltitudeMeters>
            <DistanceMeters>NAN</DistanceMeters>
          </Trackpoint>
          <Trackpoint>
            <Time>2019-08-01T16:17:21.000Z</Time>
            <Position>
              <LatitudeDegrees>40.673658885061740875244140625</LatitudeDegrees>
              <LongitudeDegrees>-4.09090594388544559478759765625</LongitudeDegrees>
            </Position>
            <AltitudeMeters>963.20001220703125</AltitudeMeters>
            <DistanceMeters>NAN</DistanceMeters>
          </Trackpoint>
          <Trackpoint>
            <Time>2019-08-01T16:17:22.000Z</Time>
            <Position>
              <LatitudeDegrees>40.67362007685005664825439453125</LatitudeDegrees>
              <LongitudeDegrees>-4.0908877551555633544921875</LongitudeDegrees>
            </Position>
            <AltitudeMeters>963</AltitudeMeters>
            <DistanceMeters>NAN</DistanceMeters>
          </Trackpoint>
          <Trackpoint>
            <Time>2019-08-01T16:17:23.000Z</Time>
            <Position>
              <LatitudeDegrees>40.6735876388847827911376953125</LatitudeDegrees>
              <LongitudeDegrees>-4.09087325446307659149169921875</LongitudeDegrees>
            </Position>
            <AltitudeMeters>963</AltitudeMeters>
            <DistanceMeters>NAN</DistanceMeters>
          </Trackpoint>
          <Trackpoint>
            <Time>2019-08-01T16:17:24.000Z</Time>
            <Position>
              <LatitudeDegrees>40.67356073297560214996337890625</LatitudeDegrees>
              <LongitudeDegrees>-4.09086118452250957489013671875</LongitudeDegrees>
            </Position>
            <AltitudeMeters>963</AltitudeMeters>
            <DistanceMeters>NAN</DistanceMeters>
          </Trackpoint>
          <Trackpoint>
            <Time>2019-08-01T16:17:25.000Z</Time>
            <Position>
              <LatitudeDegrees>40.67353810183703899383544921875</LatitudeDegrees>
              <LongitudeDegrees>-4.09085079096257686614990234375</LongitudeDegrees>
            </Position>
            <AltitudeMeters>963</AltitudeMeters>
            <DistanceMeters>NAN</DistanceMeters>
          </Trackpoint>
          <Trackpoint>
            <Time>2019-08-01T16:17:26.000Z</Time>
            <Position>
              <LatitudeDegrees>40.6735185720026493072509765625</LatitudeDegrees>
              <LongitudeDegrees>-4.09084240905940532684326171875</LongitudeDegrees>
            </Position>
            <AltitudeMeters>963</AltitudeMeters>
            <DistanceMeters>NAN</DistanceMeters>
          </Trackpoint>
          <Trackpoint>
            <Time>2019-08-01T16:17:27.000Z</Time>
            <Position>
              <LatitudeDegrees>40.6735001318156719207763671875</LatitudeDegrees>
              <LongitudeDegrees>-4.09083520062267780303955078125</LongitudeDegrees>
            </Position>
            <AltitudeMeters>963</AltitudeMeters>
            <DistanceMeters>NAN</DistanceMeters>
          </Trackpoint>
          <Trackpoint>
            <Time>2019-08-01T16:17:28.000Z</Time>
            <Position>
              <LatitudeDegrees>40.6734837032854557037353515625</LatitudeDegrees>
              <LongitudeDegrees>-4.09082765690982341766357421875</LongitudeDegrees>
            </Position>
            <AltitudeMeters>963</AltitudeMeters>
            <DistanceMeters>NAN</DistanceMeters>
          </Trackpoint>
          <Trackpoint>
            <Time>2019-08-01T16:17:29.000Z</Time>
            <Position>
              <LatitudeDegrees>40.67347146570682525634765625</LatitudeDegrees>
              <LongitudeDegrees>-4.0908235497772693634033203125</LongitudeDegrees>
            </Position>
            <AltitudeMeters>963</AltitudeMeters>
            <DistanceMeters>NAN</DistanceMeters>
          </Trackpoint>
          <Trackpoint>
            <Time>2019-08-01T16:17:30.000Z</Time>
            <Position>
              <LatitudeDegrees>40.67346484400331974029541015625</LatitudeDegrees>
              <LongitudeDegrees>-4.0908188559114933013916015625</LongitudeDegrees>
            </Position>
            <AltitudeMeters>963</AltitudeMeters>
            <DistanceMeters>NAN</DistanceMeters>
          </Trackpoint>
          <Trackpoint>
            <Time>2019-08-01T16:17:31.000Z</Time>
            <Position>
              <LatitudeDegrees>40.67345931194722652435302734375</LatitudeDegrees>
              <LongitudeDegrees>-4.09081206656992435455322265625</LongitudeDegrees>
            </Position>
            <AltitudeMeters>963.20001220703125</AltitudeMeters>
            <DistanceMeters>NAN</DistanceMeters>
          </Trackpoint>
          <Trackpoint>
            <Time>2019-08-01T16:17:32.000Z</Time>
            <Position>
              <LatitudeDegrees>40.67345528863370418548583984375</LatitudeDegrees>
              <LongitudeDegrees>-4.09080636687576770782470703125</LongitudeDegrees>
            </Position>
            <AltitudeMeters>963.20001220703125</AltitudeMeters>
            <DistanceMeters>NAN</DistanceMeters>
          </Trackpoint>
          <Trackpoint>
            <Time>2019-08-01T16:17:33.000Z</Time>
            <Position>
              <LatitudeDegrees>40.67345134913921356201171875</LatitudeDegrees>
              <LongitudeDegrees>-4.09080184064805507659912109375</LongitudeDegrees>
            </Position>
            <AltitudeMeters>963.4000244140625</AltitudeMeters>
            <DistanceMeters>NAN</DistanceMeters>
          </Trackpoint>
          <Trackpoint>
            <Time>2019-08-01T16:17:34.000Z</Time>
            <Position>
              <LatitudeDegrees>40.67344740964472293853759765625</LatitudeDegrees>
              <LongitudeDegrees>-4.0907984040677547454833984375</LongitudeDegrees>
            </Position>
            <AltitudeMeters>963.4000244140625</AltitudeMeters>
            <DistanceMeters>NAN</DistanceMeters>
          </Trackpoint>
          <Trackpoint>
            <Time>2019-08-01T16:17:35.000Z</Time>
            <Position>
              <LatitudeDegrees>40.6734438054263591766357421875</LatitudeDegrees>
              <LongitudeDegrees>-4.0907963924109935760498046875</LongitudeDegrees>
            </Position>
            <AltitudeMeters>963.5999755859375</AltitudeMeters>
            <DistanceMeters>NAN</DistanceMeters>
          </Trackpoint>
          <Trackpoint>
            <Time>2019-08-01T16:17:36.000Z</Time>
            <Position>
              <LatitudeDegrees>40.673441626131534576416015625</LatitudeDegrees>
              <LongitudeDegrees>-4.090793542563915252685546875</LongitudeDegrees>
            </Position>
            <AltitudeMeters>963.5999755859375</AltitudeMeters>
            <DistanceMeters>NAN</DistanceMeters>
          </Trackpoint>
          <Trackpoint>
            <Time>2019-08-01T16:17:47.000Z</Time>
            <Position>
              <LatitudeDegrees>40.67341304384171962738037109375</LatitudeDegrees>
              <LongitudeDegrees>-4.09076428972184658050537109375</LongitudeDegrees>
            </Position>
            <AltitudeMeters>963.5999755859375</AltitudeMeters>
            <DistanceMeters>NAN</DistanceMeters>
          </Trackpoint>
          <Trackpoint>
            <Time>2019-08-01T16:17:48.000Z</Time>
            <Position>
              <LatitudeDegrees>40.6733941845595836639404296875</LatitudeDegrees>
              <LongitudeDegrees>-4.0907467715442180633544921875</LongitudeDegrees>
            </Position>
            <AltitudeMeters>963.5999755859375</AltitudeMeters>
            <DistanceMeters>NAN</DistanceMeters>
          </Trackpoint>
          <Trackpoint>
            <Time>2019-08-01T16:17:49.000Z</Time>
            <Position>
              <LatitudeDegrees>40.673368871212005615234375</LatitudeDegrees>
              <LongitudeDegrees>-4.09072439186275005340576171875</LongitudeDegrees>
            </Position>
            <AltitudeMeters>963.5999755859375</AltitudeMeters>
            <DistanceMeters>NAN</DistanceMeters>
          </Trackpoint>
          <Trackpoint>
            <Time>2019-08-01T16:17:50.000Z</Time>
            <Position>
              <LatitudeDegrees>40.6733405403792858123779296875</LatitudeDegrees>
              <LongitudeDegrees>-4.09069639630615711212158203125</LongitudeDegrees>
            </Position>
            <AltitudeMeters>963.5999755859375</AltitudeMeters>
            <DistanceMeters>NAN</DistanceMeters>
          </Trackpoint>
          <Trackpoint>
            <Time>2019-08-01T16:17:51.000Z</Time>
            <Position>
              <LatitudeDegrees>40.67331078462302684783935546875</LatitudeDegrees>
              <LongitudeDegrees>-4.0906656347215175628662109375</LongitudeDegrees>
            </Position>
            <AltitudeMeters>963.5999755859375</AltitudeMeters>
            <DistanceMeters>NAN</DistanceMeters>
          </Trackpoint>
          <Trackpoint>
            <Time>2019-08-01T16:17:52.000Z</Time>
            <Position>
              <LatitudeDegrees>40.67328111268579959869384765625</LatitudeDegrees>
              <LongitudeDegrees>-4.090632610023021697998046875</LongitudeDegrees>
            </Position>
            <AltitudeMeters>963.5999755859375</AltitudeMeters>
            <DistanceMeters>NAN</DistanceMeters>
          </Trackpoint>
          <Trackpoint>
            <Time>2019-08-01T16:17:53.000Z</Time>
            <Position>
              <LatitudeDegrees>40.67325077019631862640380859375</LatitudeDegrees>
              <LongitudeDegrees>-4.090595059096813201904296875</LongitudeDegrees>
            </Position>
            <AltitudeMeters>963.5999755859375</AltitudeMeters>
            <DistanceMeters>NAN</DistanceMeters>
          </Trackpoint>
          <Trackpoint>
            <Time>2019-08-01T16:17:54.000Z</Time>
            <Position>
              <LatitudeDegrees>40.6732184998691082000732421875</LatitudeDegrees>
              <LongitudeDegrees>-4.09055373631417751312255859375</LongitudeDegrees>
            </Position>
            <AltitudeMeters>963.5999755859375</AltitudeMeters>
            <DistanceMeters>NAN</DistanceMeters>
          </Trackpoint>
          <Trackpoint>
            <Time>2019-08-01T16:17:55.000Z</Time>
            <Position>
              <LatitudeDegrees>40.6731853075325489044189453125</LatitudeDegrees>
              <LongitudeDegrees>-4.0905090607702732086181640625</LongitudeDegrees>
            </Position>
            <AltitudeMeters>963.4000244140625</AltitudeMeters>
            <DistanceMeters>NAN</DistanceMeters>
          </Trackpoint>
          <Trackpoint>
            <Time>2019-08-01T16:17:56.000Z</Time>
            <Position>
              <LatitudeDegrees>40.67315161228179931640625</LatitudeDegrees>
              <LongitudeDegrees>-4.0904594399034976959228515625</LongitudeDegrees>
            </Position>
            <AltitudeMeters>963.20001220703125</AltitudeMeters>
            <DistanceMeters>NAN</DistanceMeters>
          </Trackpoint>
          <Trackpoint>
            <Time>2019-08-01T16:17:57.000Z</Time>
            <Position>
              <LatitudeDegrees>40.67311800085008144378662109375</LatitudeDegrees>
              <LongitudeDegrees>-4.0904078073799610137939453125</LongitudeDegrees>
            </Position>
            <AltitudeMeters>963.20001220703125</AltitudeMeters>
            <DistanceMeters>NAN</DistanceMeters>
          </Trackpoint>
          <Trackpoint>
            <Time>2019-08-01T16:17:58.000Z</Time>
            <Position>
              <LatitudeDegrees>40.67308397032320499420166015625</LatitudeDegrees>
              <LongitudeDegrees>-4.09035726450383663177490234375</LongitudeDegrees>
            </Position>
            <AltitudeMeters>963</AltitudeMeters>
            <DistanceMeters>NAN</DistanceMeters>
          </Trackpoint>
          <Trackpoint>
            <Time>2019-08-01T16:18:00.000Z</Time>
            <Position>
              <LatitudeDegrees>40.673013813793659210205078125</LatitudeDegrees>
              <LongitudeDegrees>-4.09025886096060276031494140625</LongitudeDegrees>
            </Position>
            <AltitudeMeters>962.5999755859375</AltitudeMeters>
            <DistanceMeters>NAN</DistanceMeters>
          </Trackpoint>
          <Trackpoint>
            <Time>2019-08-01T16:18:01.000Z</Time>
            <Position>
              <LatitudeDegrees>40.6729791127145290374755859375</LatitudeDegrees>
              <LongitudeDegrees>-4.090208150446414947509765625</LongitudeDegrees>
            </Position>
            <AltitudeMeters>962.4000244140625</AltitudeMeters>
            <DistanceMeters>NAN</DistanceMeters>
          </Trackpoint>
          <Trackpoint>
            <Time>2019-08-01T16:18:03.000Z</Time>
            <Position>
              <LatitudeDegrees>40.6729093752801418304443359375</LatitudeDegrees>
              <LongitudeDegrees>-4.0901050530374050140380859375</LongitudeDegrees>
            </Position>
            <AltitudeMeters>962.4000244140625</AltitudeMeters>
            <DistanceMeters>NAN</DistanceMeters>
          </Trackpoint>
          <Trackpoint>
            <Time>2019-08-01T16:18:04.000Z</Time>
            <Position>
              <LatitudeDegrees>40.67287291400134563446044921875</LatitudeDegrees>
              <LongitudeDegrees>-4.0900510735809803009033203125</LongitudeDegrees>
            </Position>
            <AltitudeMeters>962.20001220703125</AltitudeMeters>
            <DistanceMeters>NAN</DistanceMeters>
          </Trackpoint>
          <Trackpoint>
            <Time>2019-08-01T16:18:05.000Z</Time>
            <Position>
              <LatitudeDegrees>40.6728349439799785614013671875</LatitudeDegrees>
              <LongitudeDegrees>-4.089998267590999603271484375</LongitudeDegrees>
            </Position>
            <AltitudeMeters>962.20001220703125</AltitudeMeters>
            <DistanceMeters>NAN</DistanceMeters>
          </Trackpoint>
          <Trackpoint>
            <Time>2019-08-01T16:18:06.000Z</Time>
            <Position>
              <LatitudeDegrees>40.672796554863452911376953125</LatitudeDegrees>
              <LongitudeDegrees>-4.08994638361036777496337890625</LongitudeDegrees>
            </Position>
            <AltitudeMeters>962.20001220703125</AltitudeMeters>
            <DistanceMeters>NAN</DistanceMeters>
          </Trackpoint>
          <Trackpoint>
            <Time>2019-08-01T16:18:07.000Z</Time>
            <Position>
              <LatitudeDegrees>40.67275975830852985382080078125</LatitudeDegrees>
              <LongitudeDegrees>-4.08989198505878448486328125</LongitudeDegrees>
            </Position>
            <AltitudeMeters>962.20001220703125</AltitudeMeters>
            <DistanceMeters>NAN</DistanceMeters>
          </Trackpoint>
          <Trackpoint>
            <Time>2019-08-01T16:18:08.000Z</Time>
            <Position>
              <LatitudeDegrees>40.672722794115543365478515625</LatitudeDegrees>
              <LongitudeDegrees>-4.08983909524977207183837890625</LongitudeDegrees>
            </Position>
            <AltitudeMeters>962</AltitudeMeters>
            <DistanceMeters>NAN</DistanceMeters>
          </Trackpoint>
          <Trackpoint>
            <Time>2019-08-01T16:18:09.000Z</Time>
            <Position>
              <LatitudeDegrees>40.6726830638945102691650390625</LatitudeDegrees>
              <LongitudeDegrees>-4.08978545106947422027587890625</LongitudeDegrees>
            </Position>
            <AltitudeMeters>962</AltitudeMeters>
            <DistanceMeters>NAN</DistanceMeters>
          </Trackpoint>
          <Trackpoint>
            <Time>2019-08-01T16:18:10.000Z</Time>
            <Position>
              <LatitudeDegrees>40.67264207638800144195556640625</LatitudeDegrees>
              <LongitudeDegrees>-4.08973113633692264556884765625</LongitudeDegrees>
            </Position>
            <AltitudeMeters>962</AltitudeMeters>
            <DistanceMeters>NAN</DistanceMeters>
          </Trackpoint>
          <Trackpoint>
            <Time>2019-08-01T16:18:11.000Z</Time>
            <Position>
              <LatitudeDegrees>40.67260108888149261474609375</LatitudeDegrees>
              <LongitudeDegrees>-4.0896728821098804473876953125</LongitudeDegrees>
            </Position>
            <AltitudeMeters>962</AltitudeMeters>
            <DistanceMeters>NAN</DistanceMeters>
          </Trackpoint>
          <Trackpoint>
            <Time>2019-08-01T16:18:12.000Z</Time>
            <Position>
              <LatitudeDegrees>40.672558508813381195068359375</LatitudeDegrees>
              <LongitudeDegrees>-4.0896148793399333953857421875</LongitudeDegrees>
            </Position>
            <AltitudeMeters>962</AltitudeMeters>
            <DistanceMeters>NAN</DistanceMeters>
          </Trackpoint>
          <Trackpoint>
            <Time>2019-08-01T16:18:13.000Z</Time>
            <Position>
              <LatitudeDegrees>40.67251618020236492156982421875</LatitudeDegrees>
              <LongitudeDegrees>-4.08955536782741546630859375</LongitudeDegrees>
            </Position>
            <AltitudeMeters>962</AltitudeMeters>
            <DistanceMeters>NAN</DistanceMeters>
          </Trackpoint>
          <Trackpoint>
            <Time>2019-08-01T16:18:14.000Z</Time>
            <Position>
              <LatitudeDegrees>40.6724741868674755096435546875</LatitudeDegrees>
              <LongitudeDegrees>-4.08949434757232666015625</LongitudeDegrees>
            </Position>
            <AltitudeMeters>961.79998779296875</AltitudeMeters>
            <DistanceMeters>NAN</DistanceMeters>
          </Trackpoint>
          <Trackpoint>
            <Time>2019-08-01T16:18:15.000Z</Time>
            <Position>
              <LatitudeDegrees>40.67243236117064952850341796875</LatitudeDegrees>
              <LongitudeDegrees>-4.0894311480224132537841796875</LongitudeDegrees>
            </Position>
            <AltitudeMeters>961.79998779296875</AltitudeMeters>
            <DistanceMeters>NAN</DistanceMeters>
          </Trackpoint>
          <Trackpoint>
            <Time>2019-08-01T16:18:16.000Z</Time>
            <Position>
              <LatitudeDegrees>40.67239095456898212432861328125</LatitudeDegrees>
              <LongitudeDegrees>-4.089369289577007293701171875</LongitudeDegrees>
            </Position>
            <AltitudeMeters>961.79998779296875</AltitudeMeters>
            <DistanceMeters>NAN</DistanceMeters>
          </Trackpoint>
          <Trackpoint>
            <Time>2019-08-01T16:18:17.000Z</Time>
            <Position>
              <LatitudeDegrees>40.672349967062473297119140625</LatitudeDegrees>
              <LongitudeDegrees>-4.08930852077901363372802734375</LongitudeDegrees>
            </Position>
            <AltitudeMeters>961.79998779296875</AltitudeMeters>
            <DistanceMeters>NAN</DistanceMeters>
          </Trackpoint>
          <Trackpoint>
            <Time>2019-08-01T16:18:18.000Z</Time>
            <Position>
              <LatitudeDegrees>40.67230814136564731597900390625</LatitudeDegrees>
              <LongitudeDegrees>-4.08924817107617855072021484375</LongitudeDegrees>
            </Position>
            <AltitudeMeters>961.79998779296875</AltitudeMeters>
            <DistanceMeters>NAN</DistanceMeters>
          </Trackpoint>
          <Trackpoint>
            <Time>2019-08-01T16:18:19.000Z</Time>
            <Position>
              <LatitudeDegrees>40.67226656712591648101806640625</LatitudeDegrees>
              <LongitudeDegrees>-4.08918882720172405242919921875</LongitudeDegrees>
            </Position>
            <AltitudeMeters>961.79998779296875</AltitudeMeters>
            <DistanceMeters>NAN</DistanceMeters>
          </Trackpoint>
          <Trackpoint>
            <Time>2019-08-01T16:18:20.000Z</Time>
            <Position>
              <LatitudeDegrees>40.67222465761005878448486328125</LatitudeDegrees>
              <LongitudeDegrees>-4.08913216553628444671630859375</LongitudeDegrees>
            </Position>
            <AltitudeMeters>961.79998779296875</AltitudeMeters>
            <DistanceMeters>NAN</DistanceMeters>
          </Trackpoint>
          <Trackpoint>
            <Time>2019-08-01T16:18:21.000Z</Time>
            <Position>
              <LatitudeDegrees>40.6721828319132328033447265625</LatitudeDegrees>
              <LongitudeDegrees>-4.08907986246049404144287109375</LongitudeDegrees>
            </Position>
            <AltitudeMeters>961.79998779296875</AltitudeMeters>
            <DistanceMeters>NAN</DistanceMeters>
          </Trackpoint>
          <Trackpoint>
            <Time>2019-08-01T16:18:22.000Z</Time>
            <Position>
              <LatitudeDegrees>40.6721375696361064910888671875</LatitudeDegrees>
              <LongitudeDegrees>-4.0890234522521495819091796875</LongitudeDegrees>
            </Position>
            <AltitudeMeters>962</AltitudeMeters>
            <DistanceMeters>NAN</DistanceMeters>
          </Trackpoint>
          <Trackpoint>
            <Time>2019-08-01T16:18:23.000Z</Time>
            <Position>
              <LatitudeDegrees>40.672094486653804779052734375</LatitudeDegrees>
              <LongitudeDegrees>-4.0889684669673442840576171875</LongitudeDegrees>
            </Position>
            <AltitudeMeters>962</AltitudeMeters>
            <DistanceMeters>NAN</DistanceMeters>
          </Trackpoint>
          <Trackpoint>
            <Time>2019-08-01T16:18:24.000Z</Time>
            <Position>
              <LatitudeDegrees>40.67205123603343963623046875</LatitudeDegrees>
              <LongitudeDegrees>-4.088909961283206939697265625</LongitudeDegrees>
            </Position>
            <AltitudeMeters>962</AltitudeMeters>
            <DistanceMeters>NAN</DistanceMeters>
          </Trackpoint>
          <Trackpoint>
            <Time>2019-08-01T16:18:25.000Z</Time>
            <Position>
              <LatitudeDegrees>40.67200840450823307037353515625</LatitudeDegrees>
              <LongitudeDegrees>-4.08884634263813495635986328125</LongitudeDegrees>
            </Position>
            <AltitudeMeters>962</AltitudeMeters>
            <DistanceMeters>NAN</DistanceMeters>
          </Trackpoint>
          <Trackpoint>
            <Time>2019-08-01T16:18:26.000Z</Time>
            <Position>
              <LatitudeDegrees>40.671967081725597381591796875</LatitudeDegrees>
              <LongitudeDegrees>-4.08878230489790439605712890625</LongitudeDegrees>
            </Position>
            <AltitudeMeters>962.20001220703125</AltitudeMeters>
            <DistanceMeters>NAN</DistanceMeters>
          </Trackpoint>
          <Trackpoint>
            <Time>2019-08-01T16:18:27.000Z</Time>
            <Position>
              <LatitudeDegrees>40.671925842761993408203125</LatitudeDegrees>
              <LongitudeDegrees>-4.08871625550091266632080078125</LongitudeDegrees>
            </Position>
            <AltitudeMeters>962.20001220703125</AltitudeMeters>
            <DistanceMeters>NAN</DistanceMeters>
          </Trackpoint>
          <Trackpoint>
            <Time>2019-08-01T16:18:28.000Z</Time>
            <Position>
              <LatitudeDegrees>40.671886615455150604248046875</LatitudeDegrees>
              <LongitudeDegrees>-4.08865339122712612152099609375</LongitudeDegrees>
            </Position>
            <AltitudeMeters>962.20001220703125</AltitudeMeters>
            <DistanceMeters>NAN</DistanceMeters>
          </Trackpoint>
          <Trackpoint>
            <Time>2019-08-01T16:18:29.000Z</Time>
            <Position>
              <LatitudeDegrees>40.67184730432927608489990234375</LatitudeDegrees>
              <LongitudeDegrees>-4.08858767710626125335693359375</LongitudeDegrees>
            </Position>
            <AltitudeMeters>962.20001220703125</AltitudeMeters>
            <DistanceMeters>NAN</DistanceMeters>
          </Trackpoint>
          <Trackpoint>
            <Time>2019-08-01T16:18:30.000Z</Time>
            <Position>
              <LatitudeDegrees>40.67180640064179897308349609375</LatitudeDegrees>
              <LongitudeDegrees>-4.088519699871540069580078125</LongitudeDegrees>
            </Position>
            <AltitudeMeters>962.20001220703125</AltitudeMeters>
            <DistanceMeters>NAN</DistanceMeters>
          </Trackpoint>
          <Trackpoint>
            <Time>2019-08-01T16:18:31.000Z</Time>
            <Position>
              <LatitudeDegrees>40.67176423966884613037109375</LatitudeDegrees>
              <LongitudeDegrees>-4.08845205791294574737548828125</LongitudeDegrees>
            </Position>
            <AltitudeMeters>962.4000244140625</AltitudeMeters>
            <DistanceMeters>NAN</DistanceMeters>
          </Trackpoint>
          <Trackpoint>
            <Time>2019-08-01T16:18:32.000Z</Time>
            <Position>
              <LatitudeDegrees>40.67171989940106868743896484375</LatitudeDegrees>
              <LongitudeDegrees>-4.08838466741144657135009765625</LongitudeDegrees>
            </Position>
            <AltitudeMeters>962.4000244140625</AltitudeMeters>
            <DistanceMeters>NAN</DistanceMeters>
          </Trackpoint>
          <Trackpoint>
            <Time>2019-08-01T16:18:33.000Z</Time>
            <Position>
              <LatitudeDegrees>40.6716745533049106597900390625</LatitudeDegrees>
              <LongitudeDegrees>-4.08831543289124965667724609375</LongitudeDegrees>
            </Position>
            <AltitudeMeters>962.4000244140625</AltitudeMeters>
            <DistanceMeters>NAN</DistanceMeters>
          </Trackpoint>
          <Trackpoint>
            <Time>2019-08-01T16:18:34.000Z</Time>
            <Position>
              <LatitudeDegrees>40.67162811756134033203125</LatitudeDegrees>
              <LongitudeDegrees>-4.08824468962848186492919921875</LongitudeDegrees>
            </Position>
            <AltitudeMeters>962.4000244140625</AltitudeMeters>
            <DistanceMeters>NAN</DistanceMeters>
          </Trackpoint>
          <Trackpoint>
            <Time>2019-08-01T16:18:35.000Z</Time>
            <Position>
              <LatitudeDegrees>40.6715810112655162811279296875</LatitudeDegrees>
              <LongitudeDegrees>-4.08817528747022151947021484375</LongitudeDegrees>
            </Position>
            <AltitudeMeters>962.4000244140625</AltitudeMeters>
            <DistanceMeters>NAN</DistanceMeters>
          </Trackpoint>
          <Trackpoint>
            <Time>2019-08-01T16:18:36.000Z</Time>
            <Position>
              <LatitudeDegrees>40.67153315059840679168701171875</LatitudeDegrees>
              <LongitudeDegrees>-4.088105298578739166259765625</LongitudeDegrees>
            </Position>
            <AltitudeMeters>962.4000244140625</AltitudeMeters>
            <DistanceMeters>NAN</DistanceMeters>
          </Trackpoint>
          <Trackpoint>
            <Time>2019-08-01T16:18:37.000Z</Time>
            <Position>
              <LatitudeDegrees>40.67148394882678985595703125</LatitudeDegrees>
              <LongitudeDegrees>-4.08803346566855907440185546875</LongitudeDegrees>
            </Position>
            <AltitudeMeters>962.4000244140625</AltitudeMeters>
            <DistanceMeters>NAN</DistanceMeters>
          </Trackpoint>
          <Trackpoint>
            <Time>2019-08-01T16:18:38.000Z</Time>
            <Position>
              <LatitudeDegrees>40.67143340595066547393798828125</LatitudeDegrees>
              <LongitudeDegrees>-4.08795886673033237457275390625</LongitudeDegrees>
            </Position>
            <AltitudeMeters>962.4000244140625</AltitudeMeters>
            <DistanceMeters>NAN</DistanceMeters>
          </Trackpoint>
          <Trackpoint>
            <Time>2019-08-01T16:18:39.000Z</Time>
            <Position>
              <LatitudeDegrees>40.67138328216969966888427734375</LatitudeDegrees>
              <LongitudeDegrees>-4.08787923865020275115966796875</LongitudeDegrees>
            </Position>
            <AltitudeMeters>962.4000244140625</AltitudeMeters>
            <DistanceMeters>NAN</DistanceMeters>
          </Trackpoint>
          <Trackpoint>
            <Time>2019-08-01T16:18:40.000Z</Time>
            <Position>
              <LatitudeDegrees>40.67133030854165554046630859375</LatitudeDegrees>
              <LongitudeDegrees>-4.08780078403651714324951171875</LongitudeDegrees>
            </Position>
            <AltitudeMeters>962.4000244140625</AltitudeMeters>
            <DistanceMeters>NAN</DistanceMeters>
          </Trackpoint>
          <Trackpoint>
            <Time>2019-08-01T16:18:41.000Z</Time>
            <Position>
              <LatitudeDegrees>40.67127850838005542755126953125</LatitudeDegrees>
              <LongitudeDegrees>-4.08771411515772342681884765625</LongitudeDegrees>
            </Position>
            <AltitudeMeters>962.4000244140625</AltitudeMeters>
            <DistanceMeters>NAN</DistanceMeters>
          </Trackpoint>
          <Trackpoint>
            <Time>2019-08-01T16:18:42.000Z</Time>
            <Position>
              <LatitudeDegrees>40.6712226010859012603759765625</LatitudeDegrees>
              <LongitudeDegrees>-4.0876317210495471954345703125</LongitudeDegrees>
            </Position>
            <AltitudeMeters>962.20001220703125</AltitudeMeters>
            <DistanceMeters>NAN</DistanceMeters>
          </Trackpoint>
          <Trackpoint>
            <Time>2019-08-01T16:18:43.000Z</Time>
            <Position>
              <LatitudeDegrees>40.67116702906787395477294921875</LatitudeDegrees>
              <LongitudeDegrees>-4.08754832111299037933349609375</LongitudeDegrees>
            </Position>
            <AltitudeMeters>962</AltitudeMeters>
            <DistanceMeters>NAN</DistanceMeters>
          </Trackpoint>
          <Trackpoint>
            <Time>2019-08-01T16:18:44.000Z</Time>
            <Position>
              <LatitudeDegrees>40.67111154086887836456298828125</LatitudeDegrees>
              <LongitudeDegrees>-4.08746550790965557098388671875</LongitudeDegrees>
            </Position>
            <AltitudeMeters>961.79998779296875</AltitudeMeters>
            <DistanceMeters>NAN</DistanceMeters>
          </Trackpoint>
          <Trackpoint>
            <Time>2019-08-01T16:18:45.000Z</Time>
            <Position>
              <LatitudeDegrees>40.67105521447956562042236328125</LatitudeDegrees>
              <LongitudeDegrees>-4.08738302998244762420654296875</LongitudeDegrees>
            </Position>
            <AltitudeMeters>961.5999755859375</AltitudeMeters>
            <DistanceMeters>NAN</DistanceMeters>
          </Trackpoint>
          <Trackpoint>
            <Time>2019-08-01T16:18:46.000Z</Time>
            <Position>
              <LatitudeDegrees>40.67100089974701404571533203125</LatitudeDegrees>
              <LongitudeDegrees>-4.087302982807159423828125</LongitudeDegrees>
            </Position>
            <AltitudeMeters>961.4000244140625</AltitudeMeters>
            <DistanceMeters>NAN</DistanceMeters>
          </Trackpoint>
          <Trackpoint>
            <Time>2019-08-01T16:18:47.000Z</Time>
            <Position>
              <LatitudeDegrees>40.6709486804902553558349609375</LatitudeDegrees>
              <LongitudeDegrees>-4.0872267074882984161376953125</LongitudeDegrees>
            </Position>
            <AltitudeMeters>960.79998779296875</AltitudeMeters>
            <DistanceMeters>NAN</DistanceMeters>
          </Trackpoint>
          <Trackpoint>
            <Time>2019-08-01T16:18:48.000Z</Time>
            <Position>
              <LatitudeDegrees>40.6708997301757335662841796875</LatitudeDegrees>
              <LongitudeDegrees>-4.08715353347361087799072265625</LongitudeDegrees>
            </Position>
            <AltitudeMeters>960.4000244140625</AltitudeMeters>
            <DistanceMeters>NAN</DistanceMeters>
          </Trackpoint>
          <Trackpoint>
            <Time>2019-08-01T16:18:49.000Z</Time>
            <Position>
              <LatitudeDegrees>40.6708537973463535308837890625</LatitudeDegrees>
              <LongitudeDegrees>-4.087084718048572540283203125</LongitudeDegrees>
            </Position>
            <AltitudeMeters>959.79998779296875</AltitudeMeters>
            <DistanceMeters>NAN</DistanceMeters>
          </Trackpoint>
          <Trackpoint>
            <Time>2019-08-01T16:18:51.000Z</Time>
            <Position>
              <LatitudeDegrees>40.67076922394335269927978515625</LatitudeDegrees>
              <LongitudeDegrees>-4.0869517810642719268798828125</LongitudeDegrees>
            </Position>
            <AltitudeMeters>958.79998779296875</AltitudeMeters>
            <DistanceMeters>NAN</DistanceMeters>
          </Trackpoint>
          <Trackpoint>
            <Time>2019-08-01T16:18:52.000Z</Time>
            <Position>
              <LatitudeDegrees>40.6707314215600490570068359375</LatitudeDegrees>
              <LongitudeDegrees>-4.08689084462821483612060546875</LongitudeDegrees>
            </Position>
            <AltitudeMeters>958.4000244140625</AltitudeMeters>
            <DistanceMeters>NAN</DistanceMeters>
          </Trackpoint>
          <Trackpoint>
            <Time>2019-08-01T16:18:53.000Z</Time>
            <Position>
              <LatitudeDegrees>40.67069630138576030731201171875</LatitudeDegrees>
              <LongitudeDegrees>-4.08683669753372669219970703125</LongitudeDegrees>
            </Position>
            <AltitudeMeters>958.20001220703125</AltitudeMeters>
            <DistanceMeters>NAN</DistanceMeters>
          </Trackpoint>
          <Trackpoint>
            <Time>2019-08-01T16:18:54.000Z</Time>
            <Position>
              <LatitudeDegrees>40.670664869248867034912109375</LatitudeDegrees>
              <LongitudeDegrees>-4.08678992651402950286865234375</LongitudeDegrees>
            </Position>
            <AltitudeMeters>957.79998779296875</AltitudeMeters>
            <DistanceMeters>NAN</DistanceMeters>
          </Trackpoint>
          <Trackpoint>
            <Time>2019-08-01T16:18:55.000Z</Time>
            <Position>
              <LatitudeDegrees>40.67063637077808380126953125</LatitudeDegrees>
              <LongitudeDegrees>-4.08675338141620159149169921875</LongitudeDegrees>
            </Position>
            <AltitudeMeters>957.5999755859375</AltitudeMeters>
            <DistanceMeters>NAN</DistanceMeters>
          </Trackpoint>
          <Trackpoint>
            <Time>2019-08-01T16:18:56.000Z</Time>
            <Position>
              <LatitudeDegrees>40.67061248235404491424560546875</LatitudeDegrees>
              <LongitudeDegrees>-4.08672295510768890380859375</LongitudeDegrees>
            </Position>
            <AltitudeMeters>957.4000244140625</AltitudeMeters>
            <DistanceMeters>NAN</DistanceMeters>
          </Trackpoint>
          <Trackpoint>
            <Time>2019-08-01T16:18:57.000Z</Time>
            <Position>
              <LatitudeDegrees>40.67059370689094066619873046875</LatitudeDegrees>
              <LongitudeDegrees>-4.08669722266495227813720703125</LongitudeDegrees>
            </Position>
            <AltitudeMeters>957.20001220703125</AltitudeMeters>
            <DistanceMeters>NAN</DistanceMeters>
          </Trackpoint>
          <Trackpoint>
            <Time>2019-08-01T16:18:58.000Z</Time>
            <Position>
              <LatitudeDegrees>40.67057761363685131072998046875</LatitudeDegrees>
              <LongitudeDegrees>-4.086679033935070037841796875</LongitudeDegrees>
            </Position>
            <AltitudeMeters>957</AltitudeMeters>
            <DistanceMeters>NAN</DistanceMeters>
          </Trackpoint>
          <Trackpoint>
            <Time>2019-08-01T16:18:59.000Z</Time>
            <Position>
              <LatitudeDegrees>40.67056621424853801727294921875</LatitudeDegrees>
              <LongitudeDegrees>-4.08666335977613925933837890625</LongitudeDegrees>
            </Position>
            <AltitudeMeters>957</AltitudeMeters>
            <DistanceMeters>NAN</DistanceMeters>
          </Trackpoint>
          <Trackpoint>
            <Time>2019-08-01T16:19:00.000Z</Time>
            <Position>
              <LatitudeDegrees>40.67055322229862213134765625</LatitudeDegrees>
              <LongitudeDegrees>-4.0866496972739696502685546875</LongitudeDegrees>
            </Position>
            <AltitudeMeters>956.79998779296875</AltitudeMeters>
            <DistanceMeters>NAN</DistanceMeters>
          </Trackpoint>
          <Trackpoint>
            <Time>2019-08-01T16:19:01.000Z</Time>
            <Position>
              <LatitudeDegrees>40.6705409847199916839599609375</LatitudeDegrees>
              <LongitudeDegrees>-4.08663217909634113311767578125</LongitudeDegrees>
            </Position>
            <AltitudeMeters>956.79998779296875</AltitudeMeters>
            <DistanceMeters>NAN</DistanceMeters>
          </Trackpoint>
          <Trackpoint>
            <Time>2019-08-01T16:19:02.000Z</Time>
            <Position>
              <LatitudeDegrees>40.6705279089510440826416015625</LatitudeDegrees>
              <LongitudeDegrees>-4.08661742694675922393798828125</LongitudeDegrees>
            </Position>
            <AltitudeMeters>956.79998779296875</AltitudeMeters>
            <DistanceMeters>NAN</DistanceMeters>
          </Trackpoint>
          <Trackpoint>
            <Time>2019-08-01T16:19:03.000Z</Time>
            <Position>
              <LatitudeDegrees>40.67051433026790618896484375</LatitudeDegrees>
              <LongitudeDegrees>-4.086604602634906768798828125</LongitudeDegrees>
            </Position>
            <AltitudeMeters>956.79998779296875</AltitudeMeters>
            <DistanceMeters>NAN</DistanceMeters>
          </Trackpoint>
          <Trackpoint>
            <Time>2019-08-01T16:19:04.000Z</Time>
            <Position>
              <LatitudeDegrees>40.6704977340996265411376953125</LatitudeDegrees>
              <LongitudeDegrees>-4.086592197418212890625</LongitudeDegrees>
            </Position>
            <AltitudeMeters>956.5999755859375</AltitudeMeters>
            <DistanceMeters>NAN</DistanceMeters>
          </Trackpoint>
          <Trackpoint>
            <Time>2019-08-01T16:19:05.000Z</Time>
            <Position>
              <LatitudeDegrees>40.67047812044620513916015625</LatitudeDegrees>
              <LongitudeDegrees>-4.08658339641988277435302734375</LongitudeDegrees>
            </Position>
            <AltitudeMeters>956.5999755859375</AltitudeMeters>
            <DistanceMeters>NAN</DistanceMeters>
          </Trackpoint>
          <Trackpoint>
            <Time>2019-08-01T16:19:06.000Z</Time>
            <Position>
              <LatitudeDegrees>40.67045154981315135955810546875</LatitudeDegrees>
              <LongitudeDegrees>-4.0865796245634555816650390625</LongitudeDegrees>
            </Position>
            <AltitudeMeters>956.5999755859375</AltitudeMeters>
            <DistanceMeters>NAN</DistanceMeters>
          </Trackpoint>
          <Trackpoint>
            <Time>2019-08-01T16:19:07.000Z</Time>
            <Position>
              <LatitudeDegrees>40.6704196147620677947998046875</LatitudeDegrees>
              <LongitudeDegrees>-4.086581803858280181884765625</LongitudeDegrees>
            </Position>
            <AltitudeMeters>956.5999755859375</AltitudeMeters>
            <DistanceMeters>NAN</DistanceMeters>
          </Trackpoint>
          <Trackpoint>
            <Time>2019-08-01T16:19:08.000Z</Time>
            <Position>
              <LatitudeDegrees>40.6703844107687473297119140625</LatitudeDegrees>
              <LongitudeDegrees>-4.0865881741046905517578125</LongitudeDegrees>
            </Position>
            <AltitudeMeters>956.5999755859375</AltitudeMeters>
            <DistanceMeters>NAN</DistanceMeters>
          </Trackpoint>
          <Trackpoint>
            <Time>2019-08-01T16:19:09.000Z</Time>
            <Position>
              <LatitudeDegrees>40.6703455187380313873291015625</LatitudeDegrees>
              <LongitudeDegrees>-4.086589515209197998046875</LongitudeDegrees>
            </Position>
            <AltitudeMeters>956.4000244140625</AltitudeMeters>
            <DistanceMeters>NAN</DistanceMeters>
          </Trackpoint>
          <Trackpoint>
            <Time>2019-08-01T16:19:10.000Z</Time>
            <Position>
              <LatitudeDegrees>40.67030704580247402191162109375</LatitudeDegrees>
              <LongitudeDegrees>-4.08657853491604328155517578125</LongitudeDegrees>
            </Position>
            <AltitudeMeters>956.4000244140625</AltitudeMeters>
            <DistanceMeters>NAN</DistanceMeters>
          </Trackpoint>
          <Trackpoint>
            <Time>2019-08-01T16:19:11.000Z</Time>
            <Position>
              <LatitudeDegrees>40.6702744401991367340087890625</LatitudeDegrees>
              <LongitudeDegrees>-4.08655657432973384857177734375</LongitudeDegrees>
            </Position>
            <AltitudeMeters>956.20001220703125</AltitudeMeters>
            <DistanceMeters>NAN</DistanceMeters>
          </Trackpoint>
          <Trackpoint>
            <Time>2019-08-01T16:19:12.000Z</Time>
            <Position>
              <LatitudeDegrees>40.67024745047092437744140625</LatitudeDegrees>
              <LongitudeDegrees>-4.0865232981741428375244140625</LongitudeDegrees>
            </Position>
            <AltitudeMeters>956.20001220703125</AltitudeMeters>
            <DistanceMeters>NAN</DistanceMeters>
          </Trackpoint>
          <Trackpoint>
            <Time>2019-08-01T16:19:13.000Z</Time>
            <Position>
              <LatitudeDegrees>40.6702311895787715911865234375</LatitudeDegrees>
              <LongitudeDegrees>-4.08648155629634857177734375</LongitudeDegrees>
            </Position>
            <AltitudeMeters>956.20001220703125</AltitudeMeters>
            <DistanceMeters>NAN</DistanceMeters>
          </Trackpoint>
          <Trackpoint>
            <Time>2019-08-01T16:19:14.000Z</Time>
            <Position>
              <LatitudeDegrees>40.67022641189396381378173828125</LatitudeDegrees>
              <LongitudeDegrees>-4.08643537200987339019775390625</LongitudeDegrees>
            </Position>
            <AltitudeMeters>956</AltitudeMeters>
            <DistanceMeters>NAN</DistanceMeters>
          </Trackpoint>
          <Trackpoint>
            <Time>2019-08-01T16:19:15.000Z</Time>
            <Position>
              <LatitudeDegrees>40.67022993229329586029052734375</LatitudeDegrees>
              <LongitudeDegrees>-4.08639413304626941680908203125</LongitudeDegrees>
            </Position>
            <AltitudeMeters>955.79998779296875</AltitudeMeters>
            <DistanceMeters>NAN</DistanceMeters>
          </Trackpoint>
          <Trackpoint>
            <Time>2019-08-01T16:19:16.000Z</Time>
            <Position>
              <LatitudeDegrees>40.67023747600615024566650390625</LatitudeDegrees>
              <LongitudeDegrees>-4.086355827748775482177734375</LongitudeDegrees>
            </Position>
            <AltitudeMeters>955.5999755859375</AltitudeMeters>
            <DistanceMeters>NAN</DistanceMeters>
          </Trackpoint>
          <Trackpoint>
            <Time>2019-08-01T16:19:17.000Z</Time>
            <Position>
              <LatitudeDegrees>40.67024610936641693115234375</LatitudeDegrees>
              <LongitudeDegrees>-4.0863145887851715087890625</LongitudeDegrees>
            </Position>
            <AltitudeMeters>955.20001220703125</AltitudeMeters>
            <DistanceMeters>NAN</DistanceMeters>
          </Trackpoint>
          <Trackpoint>
            <Time>2019-08-01T16:19:19.000Z</Time>
            <Position>
              <LatitudeDegrees>40.6702513061463832855224609375</LatitudeDegrees>
              <LongitudeDegrees>-4.08621358685195446014404296875</LongitudeDegrees>
            </Position>
            <AltitudeMeters>955</AltitudeMeters>
            <DistanceMeters>NAN</DistanceMeters>
          </Trackpoint>
          <Trackpoint>
            <Time>2019-08-01T16:19:20.000Z</Time>
            <Position>
              <LatitudeDegrees>40.67023529671132564544677734375</LatitudeDegrees>
              <LongitudeDegrees>-4.08615776337683200836181640625</LongitudeDegrees>
            </Position>
            <AltitudeMeters>955</AltitudeMeters>
            <DistanceMeters>NAN</DistanceMeters>
          </Trackpoint>
          <Trackpoint>
            <Time>2019-08-01T16:19:21.000Z</Time>
            <Position>
              <LatitudeDegrees>40.67020780406892299652099609375</LatitudeDegrees>
              <LongitudeDegrees>-4.0861021913588047027587890625</LongitudeDegrees>
            </Position>
            <AltitudeMeters>955</AltitudeMeters>
            <DistanceMeters>NAN</DistanceMeters>
          </Trackpoint>
          <Trackpoint>
            <Time>2019-08-01T16:19:22.000Z</Time>
            <Position>
              <LatitudeDegrees>40.670174024999141693115234375</LatitudeDegrees>
              <LongitudeDegrees>-4.08604494296014308929443359375</LongitudeDegrees>
            </Position>
            <AltitudeMeters>955</AltitudeMeters>
            <DistanceMeters>NAN</DistanceMeters>
          </Trackpoint>
          <Trackpoint>
            <Time>2019-08-01T16:19:23.000Z</Time>
            <Position>
              <LatitudeDegrees>40.67013437859714031219482421875</LatitudeDegrees>
              <LongitudeDegrees>-4.08598601818084716796875</LongitudeDegrees>
            </Position>
            <AltitudeMeters>954.79998779296875</AltitudeMeters>
            <DistanceMeters>NAN</DistanceMeters>
          </Trackpoint>
          <Trackpoint>
            <Time>2019-08-01T16:19:24.000Z</Time>
            <Position>
              <LatitudeDegrees>40.670091211795806884765625</LatitudeDegrees>
              <LongitudeDegrees>-4.08592608757317066192626953125</LongitudeDegrees>
            </Position>
            <AltitudeMeters>954.79998779296875</AltitudeMeters>
            <DistanceMeters>NAN</DistanceMeters>
          </Trackpoint>
          <Trackpoint>
            <Time>2019-08-01T16:19:25.000Z</Time>
            <Position>
              <LatitudeDegrees>40.6700464524328708648681640625</LatitudeDegrees>
              <LongitudeDegrees>-4.0858614630997180938720703125</LongitudeDegrees>
            </Position>
            <AltitudeMeters>954.79998779296875</AltitudeMeters>
            <DistanceMeters>NAN</DistanceMeters>
          </Trackpoint>
          <Trackpoint>
            <Time>2019-08-01T16:19:26.000Z</Time>
            <Position>
              <LatitudeDegrees>40.67000110633671283721923828125</LatitudeDegrees>
              <LongitudeDegrees>-4.08579432405531406402587890625</LongitudeDegrees>
            </Position>
            <AltitudeMeters>954.79998779296875</AltitudeMeters>
            <DistanceMeters>NAN</DistanceMeters>
          </Trackpoint>
          <Trackpoint>
            <Time>2019-08-01T16:19:27.000Z</Time>
            <Position>
              <LatitudeDegrees>40.6699542514979839324951171875</LatitudeDegrees>
              <LongitudeDegrees>-4.08572760410606861114501953125</LongitudeDegrees>
            </Position>
            <AltitudeMeters>954.5999755859375</AltitudeMeters>
            <DistanceMeters>NAN</DistanceMeters>
          </Trackpoint>
          <Trackpoint>
            <Time>2019-08-01T16:19:28.000Z</Time>
            <Position>
              <LatitudeDegrees>40.6699053011834621429443359375</LatitudeDegrees>
              <LongitudeDegrees>-4.0856601297855377197265625</LongitudeDegrees>
            </Position>
            <AltitudeMeters>954.5999755859375</AltitudeMeters>
            <DistanceMeters>NAN</DistanceMeters>
          </Trackpoint>
          <Trackpoint>
            <Time>2019-08-01T16:19:29.000Z</Time>
            <Position>
              <LatitudeDegrees>40.66985676996409893035888671875</LatitudeDegrees>
              <LongitudeDegrees>-4.08558762632310390472412109375</LongitudeDegrees>
            </Position>
            <AltitudeMeters>954.4000244140625</AltitudeMeters>
            <DistanceMeters>NAN</DistanceMeters>
          </Trackpoint>
          <Trackpoint>
            <Time>2019-08-01T16:19:30.000Z</Time>
            <Position>
              <LatitudeDegrees>40.66980798728764057159423828125</LatitudeDegrees>
              <LongitudeDegrees>-4.085514284670352935791015625</LongitudeDegrees>
            </Position>
            <AltitudeMeters>954.4000244140625</AltitudeMeters>
            <DistanceMeters>NAN</DistanceMeters>
          </Trackpoint>
          <Trackpoint>
            <Time>2019-08-01T16:19:31.000Z</Time>
            <Position>
              <LatitudeDegrees>40.6697572767734527587890625</LatitudeDegrees>
              <LongitudeDegrees>-4.085438512265682220458984375</LongitudeDegrees>
            </Position>
            <AltitudeMeters>953.5999755859375</AltitudeMeters>
            <DistanceMeters>NAN</DistanceMeters>
          </Trackpoint>
          <Trackpoint>
            <Time>2019-08-01T16:19:32.000Z</Time>
            <Position>
              <LatitudeDegrees>40.66970690153539180755615234375</LatitudeDegrees>
              <LongitudeDegrees>-4.08536039292812347412109375</LongitudeDegrees>
            </Position>
            <AltitudeMeters>953.20001220703125</AltitudeMeters>
            <DistanceMeters>NAN</DistanceMeters>
          </Trackpoint>
          <Trackpoint>
            <Time>2019-08-01T16:19:33.000Z</Time>
            <Position>
              <LatitudeDegrees>40.66965459845960140228271484375</LatitudeDegrees>
              <LongitudeDegrees>-4.08528235740959644317626953125</LongitudeDegrees>
            </Position>
            <AltitudeMeters>953</AltitudeMeters>
            <DistanceMeters>NAN</DistanceMeters>
          </Trackpoint>
          <Trackpoint>
            <Time>2019-08-01T16:19:34.000Z</Time>
            <Position>
              <LatitudeDegrees>40.669602043926715850830078125</LatitudeDegrees>
              <LongitudeDegrees>-4.08520323224365711212158203125</LongitudeDegrees>
            </Position>
            <AltitudeMeters>952.4000244140625</AltitudeMeters>
            <DistanceMeters>NAN</DistanceMeters>
          </Trackpoint>
          <Trackpoint>
            <Time>2019-08-01T16:19:35.000Z</Time>
            <Position>
              <LatitudeDegrees>40.669549070298671722412109375</LatitudeDegrees>
              <LongitudeDegrees>-4.08512561582028865814208984375</LongitudeDegrees>
            </Position>
            <AltitudeMeters>952</AltitudeMeters>
            <DistanceMeters>NAN</DistanceMeters>
          </Trackpoint>
          <Trackpoint>
            <Time>2019-08-01T16:19:36.000Z</Time>
            <Position>
              <LatitudeDegrees>40.66949550993740558624267578125</LatitudeDegrees>
              <LongitudeDegrees>-4.0850480832159519195556640625</LongitudeDegrees>
            </Position>
            <AltitudeMeters>951.5999755859375</AltitudeMeters>
            <DistanceMeters>NAN</DistanceMeters>
          </Trackpoint>
          <Trackpoint>
            <Time>2019-08-01T16:19:38.000Z</Time>
            <Position>
              <LatitudeDegrees>40.66939040087163448333740234375</LatitudeDegrees>
              <LongitudeDegrees>-4.0848894976079463958740234375</LongitudeDegrees>
            </Position>
            <AltitudeMeters>951</AltitudeMeters>
            <DistanceMeters>NAN</DistanceMeters>
          </Trackpoint>
          <Trackpoint>
            <Time>2019-08-01T16:19:39.000Z</Time>
            <Position>
              <LatitudeDegrees>40.6693375110626220703125</LatitudeDegrees>
              <LongitudeDegrees>-4.08481112681329250335693359375</LongitudeDegrees>
            </Position>
            <AltitudeMeters>951</AltitudeMeters>
            <DistanceMeters>NAN</DistanceMeters>
          </Trackpoint>
          <Trackpoint>
            <Time>2019-08-01T16:19:40.000Z</Time>
            <Position>
              <LatitudeDegrees>40.6692870520055294036865234375</LatitudeDegrees>
              <LongitudeDegrees>-4.08473200164735317230224609375</LongitudeDegrees>
            </Position>
            <AltitudeMeters>950.79998779296875</AltitudeMeters>
            <DistanceMeters>NAN</DistanceMeters>
          </Trackpoint>
          <Trackpoint>
            <Time>2019-08-01T16:19:42.000Z</Time>
            <Position>
              <LatitudeDegrees>40.66918320022523403167724609375</LatitudeDegrees>
              <LongitudeDegrees>-4.08457341603934764862060546875</LongitudeDegrees>
            </Position>
            <AltitudeMeters>950.4000244140625</AltitudeMeters>
            <DistanceMeters>NAN</DistanceMeters>
          </Trackpoint>
          <Trackpoint>
            <Time>2019-08-01T16:19:43.000Z</Time>
            <Position>
              <LatitudeDegrees>40.66912821494042873382568359375</LatitudeDegrees>
              <LongitudeDegrees>-4.08449395559728145599365234375</LongitudeDegrees>
            </Position>
            <AltitudeMeters>950.20001220703125</AltitudeMeters>
            <DistanceMeters>NAN</DistanceMeters>
          </Trackpoint>
          <Trackpoint>
            <Time>2019-08-01T16:19:44.000Z</Time>
            <Position>
              <LatitudeDegrees>40.66907272674143314361572265625</LatitudeDegrees>
              <LongitudeDegrees>-4.084413908421993255615234375</LongitudeDegrees>
            </Position>
            <AltitudeMeters>950</AltitudeMeters>
            <DistanceMeters>NAN</DistanceMeters>
          </Trackpoint>
          <Trackpoint>
            <Time>2019-08-01T16:19:45.000Z</Time>
            <Position>
              <LatitudeDegrees>40.6690161488950252532958984375</LatitudeDegrees>
              <LongitudeDegrees>-4.08433201722800731658935546875</LongitudeDegrees>
            </Position>
            <AltitudeMeters>949.79998779296875</AltitudeMeters>
            <DistanceMeters>NAN</DistanceMeters>
          </Trackpoint>
          <Trackpoint>
            <Time>2019-08-01T16:19:46.000Z</Time>
            <Position>
              <LatitudeDegrees>40.66895789466798305511474609375</LatitudeDegrees>
              <LongitudeDegrees>-4.08424836583435535430908203125</LongitudeDegrees>
            </Position>
            <AltitudeMeters>949.5999755859375</AltitudeMeters>
            <DistanceMeters>NAN</DistanceMeters>
          </Trackpoint>
          <Trackpoint>
            <Time>2019-08-01T16:19:47.000Z</Time>
            <Position>
              <LatitudeDegrees>40.6688998080790042877197265625</LatitudeDegrees>
              <LongitudeDegrees>-4.0841636247932910919189453125</LongitudeDegrees>
            </Position>
            <AltitudeMeters>949.4000244140625</AltitudeMeters>
            <DistanceMeters>NAN</DistanceMeters>
          </Trackpoint>
          <Trackpoint>
            <Time>2019-08-01T16:19:48.000Z</Time>
            <Position>
              <LatitudeDegrees>40.66884172149002552032470703125</LatitudeDegrees>
              <LongitudeDegrees>-4.08407804556190967559814453125</LongitudeDegrees>
            </Position>
            <AltitudeMeters>949.4000244140625</AltitudeMeters>
            <DistanceMeters>NAN</DistanceMeters>
          </Trackpoint>
          <Trackpoint>
            <Time>2019-08-01T16:19:49.000Z</Time>
            <Position>
              <LatitudeDegrees>40.66878304816782474517822265625</LatitudeDegrees>
              <LongitudeDegrees>-4.0839926339685916900634765625</LongitudeDegrees>
            </Position>
            <AltitudeMeters>949</AltitudeMeters>
            <DistanceMeters>NAN</DistanceMeters>
          </Trackpoint>
          <Trackpoint>
            <Time>2019-08-01T16:19:50.000Z</Time>
            <Position>
              <LatitudeDegrees>40.6687247939407825469970703125</LatitudeDegrees>
              <LongitudeDegrees>-4.08390688709914684295654296875</LongitudeDegrees>
            </Position>
            <AltitudeMeters>948.79998779296875</AltitudeMeters>
            <DistanceMeters>NAN</DistanceMeters>
          </Trackpoint>
          <Trackpoint>
            <Time>2019-08-01T16:19:51.000Z</Time>
            <Position>
              <LatitudeDegrees>40.6686661206185817718505859375</LatitudeDegrees>
              <LongitudeDegrees>-4.08382088877260684967041015625</LongitudeDegrees>
            </Position>
            <AltitudeMeters>948.5999755859375</AltitudeMeters>
            <DistanceMeters>NAN</DistanceMeters>
          </Trackpoint>
          <Trackpoint>
            <Time>2019-08-01T16:19:52.000Z</Time>
            <Position>
              <LatitudeDegrees>40.668606944382190704345703125</LatitudeDegrees>
              <LongitudeDegrees>-4.083735309541225433349609375</LongitudeDegrees>
            </Position>
            <AltitudeMeters>948.4000244140625</AltitudeMeters>
            <DistanceMeters>NAN</DistanceMeters>
          </Trackpoint>
          <Trackpoint>
            <Time>2019-08-01T16:19:53.000Z</Time>
            <Position>
              <LatitudeDegrees>40.66854801960289478302001953125</LatitudeDegrees>
              <LongitudeDegrees>-4.083649814128875732421875</LongitudeDegrees>
            </Position>
            <AltitudeMeters>948</AltitudeMeters>
            <DistanceMeters>NAN</DistanceMeters>
          </Trackpoint>
          <Trackpoint>
            <Time>2019-08-01T16:19:55.000Z</Time>
            <Position>
              <LatitudeDegrees>40.668431930243968963623046875</LatitudeDegrees>
              <LongitudeDegrees>-4.083479829132556915283203125</LongitudeDegrees>
            </Position>
            <AltitudeMeters>947.4000244140625</AltitudeMeters>
            <DistanceMeters>NAN</DistanceMeters>
          </Trackpoint>
          <Trackpoint>
            <Time>2019-08-01T16:19:56.000Z</Time>
            <Position>
              <LatitudeDegrees>40.66837384365499019622802734375</LatitudeDegrees>
              <LongitudeDegrees>-4.083395339548587799072265625</LongitudeDegrees>
            </Position>
            <AltitudeMeters>947.20001220703125</AltitudeMeters>
            <DistanceMeters>NAN</DistanceMeters>
          </Trackpoint>
          <Trackpoint>
            <Time>2019-08-01T16:19:57.000Z</Time>
            <Position>
              <LatitudeDegrees>40.66831667907536029815673828125</LatitudeDegrees>
              <LongitudeDegrees>-4.08331160433590412139892578125</LongitudeDegrees>
            </Position>
            <AltitudeMeters>947</AltitudeMeters>
            <DistanceMeters>NAN</DistanceMeters>
          </Trackpoint>
          <Trackpoint>
            <Time>2019-08-01T16:19:58.000Z</Time>
            <Position>
              <LatitudeDegrees>40.66825968213379383087158203125</LatitudeDegrees>
              <LongitudeDegrees>-4.083228372037410736083984375</LongitudeDegrees>
            </Position>
            <AltitudeMeters>946.79998779296875</AltitudeMeters>
            <DistanceMeters>NAN</DistanceMeters>
          </Trackpoint>
          <Trackpoint>
            <Time>2019-08-01T16:19:59.000Z</Time>
            <Position>
              <LatitudeDegrees>40.66820285283029079437255859375</LatitudeDegrees>
              <LongitudeDegrees>-4.08314497210085391998291015625</LongitudeDegrees>
            </Position>
            <AltitudeMeters>946.4000244140625</AltitudeMeters>
            <DistanceMeters>NAN</DistanceMeters>
          </Trackpoint>
          <Trackpoint>
            <Time>2019-08-01T16:20:00.000Z</Time>
            <Position>
              <LatitudeDegrees>40.66814568825066089630126953125</LatitudeDegrees>
              <LongitudeDegrees>-4.0830598957836627960205078125</LongitudeDegrees>
            </Position>
            <AltitudeMeters>946.20001220703125</AltitudeMeters>
            <DistanceMeters>NAN</DistanceMeters>
          </Trackpoint>
          <Trackpoint>
            <Time>2019-08-01T16:20:01.000Z</Time>
            <Position>
              <LatitudeDegrees>40.66808936186134815216064453125</LatitudeDegrees>
              <LongitudeDegrees>-4.082973897457122802734375</LongitudeDegrees>
            </Position>
            <AltitudeMeters>946</AltitudeMeters>
            <DistanceMeters>NAN</DistanceMeters>
          </Trackpoint>
          <Trackpoint>
            <Time>2019-08-01T16:20:02.000Z</Time>
            <Position>
              <LatitudeDegrees>40.668032951653003692626953125</LatitudeDegrees>
              <LongitudeDegrees>-4.08288815058767795562744140625</LongitudeDegrees>
            </Position>
            <AltitudeMeters>945.79998779296875</AltitudeMeters>
            <DistanceMeters>NAN</DistanceMeters>
          </Trackpoint>
          <Trackpoint>
            <Time>2019-08-01T16:20:03.000Z</Time>
            <Position>
              <LatitudeDegrees>40.66797603853046894073486328125</LatitudeDegrees>
              <LongitudeDegrees>-4.0828035771846771240234375</LongitudeDegrees>
            </Position>
            <AltitudeMeters>945.79998779296875</AltitudeMeters>
            <DistanceMeters>NAN</DistanceMeters>
          </Trackpoint>
          <Trackpoint>
            <Time>2019-08-01T16:20:04.000Z</Time>
            <Position>
              <LatitudeDegrees>40.66792004741728305816650390625</LatitudeDegrees>
              <LongitudeDegrees>-4.0827190876007080078125</LongitudeDegrees>
            </Position>
            <AltitudeMeters>945.79998779296875</AltitudeMeters>
            <DistanceMeters>NAN</DistanceMeters>
          </Trackpoint>
          <Trackpoint>
            <Time>2019-08-01T16:20:05.000Z</Time>
            <Position>
              <LatitudeDegrees>40.66786388866603374481201171875</LatitudeDegrees>
              <LongitudeDegrees>-4.08263660967350006103515625</LongitudeDegrees>
            </Position>
            <AltitudeMeters>945.79998779296875</AltitudeMeters>
            <DistanceMeters>NAN</DistanceMeters>
          </Trackpoint>
          <Trackpoint>
            <Time>2019-08-01T16:20:06.000Z</Time>
            <Position>
              <LatitudeDegrees>40.6678071431815624237060546875</LatitudeDegrees>
              <LongitudeDegrees>-4.082553125917911529541015625</LongitudeDegrees>
            </Position>
            <AltitudeMeters>945.5999755859375</AltitudeMeters>
            <DistanceMeters>NAN</DistanceMeters>
          </Trackpoint>
          <Trackpoint>
            <Time>2019-08-01T16:20:07.000Z</Time>
            <Position>
              <LatitudeDegrees>40.6678071431815624237060546875</LatitudeDegrees>
              <LongitudeDegrees>-4.082553125917911529541015625</LongitudeDegrees>
            </Position>
            <AltitudeMeters>945.5999755859375</AltitudeMeters>
            <DistanceMeters>NAN</DistanceMeters>
          </Trackpoint>
          <Trackpoint>
            <Time>2019-08-01T16:20:08.000Z</Time>
            <Position>
              <LatitudeDegrees>40.6676908023655414581298828125</LatitudeDegrees>
              <LongitudeDegrees>-4.082382135093212127685546875</LongitudeDegrees>
            </Position>
            <AltitudeMeters>945.5999755859375</AltitudeMeters>
            <DistanceMeters>NAN</DistanceMeters>
          </Trackpoint>
          <Trackpoint>
            <Time>2019-08-01T16:20:09.000Z</Time>
            <Position>
              <LatitudeDegrees>40.6676321290433406829833984375</LatitudeDegrees>
              <LongitudeDegrees>-4.08229571767151355743408203125</LongitudeDegrees>
            </Position>
            <AltitudeMeters>945.5999755859375</AltitudeMeters>
            <DistanceMeters>NAN</DistanceMeters>
          </Trackpoint>
          <Trackpoint>
            <Time>2019-08-01T16:20:10.000Z</Time>
            <Position>
              <LatitudeDegrees>40.66757353954017162322998046875</LatitudeDegrees>
              <LongitudeDegrees>-4.0822082944214344024658203125</LongitudeDegrees>
            </Position>
            <AltitudeMeters>945.4000244140625</AltitudeMeters>
            <DistanceMeters>NAN</DistanceMeters>
          </Trackpoint>
          <Trackpoint>
            <Time>2019-08-01T16:20:11.000Z</Time>
            <Position>
              <LatitudeDegrees>40.6675141118466854095458984375</LatitudeDegrees>
              <LongitudeDegrees>-4.0821214579045772552490234375</LongitudeDegrees>
            </Position>
            <AltitudeMeters>945.20001220703125</AltitudeMeters>
            <DistanceMeters>NAN</DistanceMeters>
          </Trackpoint>
          <Trackpoint>
            <Time>2019-08-01T16:20:12.000Z</Time>
            <Position>
              <LatitudeDegrees>40.66745418123900890350341796875</LatitudeDegrees>
              <LongitudeDegrees>-4.08203445374965667724609375</LongitudeDegrees>
            </Position>
            <AltitudeMeters>944.79998779296875</AltitudeMeters>
            <DistanceMeters>NAN</DistanceMeters>
          </Trackpoint>
          <Trackpoint>
            <Time>2019-08-01T16:20:13.000Z</Time>
            <Position>
              <LatitudeDegrees>40.6673950888216495513916015625</LatitudeDegrees>
              <LongitudeDegrees>-4.08194887451827526092529296875</LongitudeDegrees>
            </Position>
            <AltitudeMeters>944.5999755859375</AltitudeMeters>
            <DistanceMeters>NAN</DistanceMeters>
          </Trackpoint>
          <Trackpoint>
            <Time>2019-08-01T16:20:14.000Z</Time>
            <Position>
              <LatitudeDegrees>40.667336247861385345458984375</LatitudeDegrees>
              <LongitudeDegrees>-4.08186304382979869842529296875</LongitudeDegrees>
            </Position>
            <AltitudeMeters>944.4000244140625</AltitudeMeters>
            <DistanceMeters>NAN</DistanceMeters>
          </Trackpoint>
          <Trackpoint>
            <Time>2019-08-01T16:20:15.000Z</Time>
            <Position>
              <LatitudeDegrees>40.66727732308208942413330078125</LatitudeDegrees>
              <LongitudeDegrees>-4.08177620731294155120849609375</LongitudeDegrees>
            </Position>
            <AltitudeMeters>944.20001220703125</AltitudeMeters>
            <DistanceMeters>NAN</DistanceMeters>
          </Trackpoint>
          <Trackpoint>
            <Time>2019-08-01T16:20:16.000Z</Time>
            <Position>
              <LatitudeDegrees>40.66721814684569835662841796875</LatitudeDegrees>
              <LongitudeDegrees>-4.0816896222531795501708984375</LongitudeDegrees>
            </Position>
            <AltitudeMeters>944</AltitudeMeters>
            <DistanceMeters>NAN</DistanceMeters>
          </Trackpoint>
          <Trackpoint>
            <Time>2019-08-01T16:20:17.000Z</Time>
            <Position>
              <LatitudeDegrees>40.66715888679027557373046875</LatitudeDegrees>
              <LongitudeDegrees>-4.0816027857363224029541015625</LongitudeDegrees>
            </Position>
            <AltitudeMeters>944</AltitudeMeters>
            <DistanceMeters>NAN</DistanceMeters>
          </Trackpoint>
          <Trackpoint>
            <Time>2019-08-01T16:20:18.000Z</Time>
            <Position>
              <LatitudeDegrees>40.66709979437291622161865234375</LatitudeDegrees>
              <LongitudeDegrees>-4.08151603303849697113037109375</LongitudeDegrees>
            </Position>
            <AltitudeMeters>944</AltitudeMeters>
            <DistanceMeters>NAN</DistanceMeters>
          </Trackpoint>
          <Trackpoint>
            <Time>2019-08-01T16:20:19.000Z</Time>
            <Position>
              <LatitudeDegrees>40.66704011522233486175537109375</LatitudeDegrees>
              <LongitudeDegrees>-4.081428945064544677734375</LongitudeDegrees>
            </Position>
            <AltitudeMeters>943.79998779296875</AltitudeMeters>
            <DistanceMeters>NAN</DistanceMeters>
          </Trackpoint>
          <Trackpoint>
            <Time>2019-08-01T16:20:20.000Z</Time>
            <Position>
              <LatitudeDegrees>40.6669800169765949249267578125</LatitudeDegrees>
              <LongitudeDegrees>-4.08134202472865581512451171875</LongitudeDegrees>
            </Position>
            <AltitudeMeters>943.5999755859375</AltitudeMeters>
            <DistanceMeters>NAN</DistanceMeters>
          </Trackpoint>
          <Trackpoint>
            <Time>2019-08-01T16:20:21.000Z</Time>
            <Position>
              <LatitudeDegrees>40.6669800169765949249267578125</LatitudeDegrees>
              <LongitudeDegrees>-4.08134202472865581512451171875</LongitudeDegrees>
            </Position>
            <AltitudeMeters>943.4000244140625</AltitudeMeters>
            <DistanceMeters>NAN</DistanceMeters>
          </Trackpoint>
          <Trackpoint>
            <Time>2019-08-01T16:20:22.000Z</Time>
            <Position>
              <LatitudeDegrees>40.66686191596090793609619140625</LatitudeDegrees>
              <LongitudeDegrees>-4.08116877079010009765625</LongitudeDegrees>
            </Position>
            <AltitudeMeters>943.20001220703125</AltitudeMeters>
            <DistanceMeters>NAN</DistanceMeters>
          </Trackpoint>
          <Trackpoint>
            <Time>2019-08-01T16:20:23.000Z</Time>
            <Position>
              <LatitudeDegrees>40.66680408082902431488037109375</LatitudeDegrees>
              <LongitudeDegrees>-4.08108285628259181976318359375</LongitudeDegrees>
            </Position>
            <AltitudeMeters>943</AltitudeMeters>
            <DistanceMeters>NAN</DistanceMeters>
          </Trackpoint>
          <Trackpoint>
            <Time>2019-08-01T16:20:24.000Z</Time>
            <Position>
              <LatitudeDegrees>40.66680408082902431488037109375</LatitudeDegrees>
              <LongitudeDegrees>-4.08108285628259181976318359375</LongitudeDegrees>
            </Position>
            <AltitudeMeters>942.79998779296875</AltitudeMeters>
            <DistanceMeters>NAN</DistanceMeters>
          </Trackpoint>
          <Trackpoint>
            <Time>2019-08-01T16:20:25.000Z</Time>
            <Position>
              <LatitudeDegrees>40.6666915118694305419921875</LatitudeDegrees>
              <LongitudeDegrees>-4.080914296209812164306640625</LongitudeDegrees>
            </Position>
            <AltitudeMeters>942.5999755859375</AltitudeMeters>
            <DistanceMeters>NAN</DistanceMeters>
          </Trackpoint>
          <Trackpoint>
            <Time>2019-08-01T16:20:26.000Z</Time>
            <Position>
              <LatitudeDegrees>40.66663853824138641357421875</LatitudeDegrees>
              <LongitudeDegrees>-4.080833829939365386962890625</LongitudeDegrees>
            </Position>
            <AltitudeMeters>942.4000244140625</AltitudeMeters>
            <DistanceMeters>NAN</DistanceMeters>
          </Trackpoint>
          <Trackpoint>
            <Time>2019-08-01T16:20:27.000Z</Time>
            <Position>
              <LatitudeDegrees>40.66658757627010345458984375</LatitudeDegrees>
              <LongitudeDegrees>-4.0807558782398700714111328125</LongitudeDegrees>
            </Position>
            <AltitudeMeters>942.20001220703125</AltitudeMeters>
            <DistanceMeters>NAN</DistanceMeters>
          </Trackpoint>
          <Trackpoint>
            <Time>2019-08-01T16:20:28.000Z</Time>
            <Position>
              <LatitudeDegrees>40.66653803922235965728759765625</LatitudeDegrees>
              <LongitudeDegrees>-4.080678932368755340576171875</LongitudeDegrees>
            </Position>
            <AltitudeMeters>942.20001220703125</AltitudeMeters>
            <DistanceMeters>NAN</DistanceMeters>
          </Trackpoint>
          <Trackpoint>
            <Time>2019-08-01T16:20:29.000Z</Time>
            <Position>
              <LatitudeDegrees>40.66648833453655242919921875</LatitudeDegrees>
              <LongitudeDegrees>-4.0806068480014801025390625</LongitudeDegrees>
            </Position>
            <AltitudeMeters>942</AltitudeMeters>
            <DistanceMeters>NAN</DistanceMeters>
          </Trackpoint>
          <Trackpoint>
            <Time>2019-08-01T16:20:30.000Z</Time>
            <Position>
              <LatitudeDegrees>40.666430331766605377197265625</LatitudeDegrees>
              <LongitudeDegrees>-4.080547504127025604248046875</LongitudeDegrees>
            </Position>
            <AltitudeMeters>942</AltitudeMeters>
            <DistanceMeters>NAN</DistanceMeters>
          </Trackpoint>
          <Trackpoint>
            <Time>2019-08-01T16:20:31.000Z</Time>
            <Position>
              <LatitudeDegrees>40.66636285744607448577880859375</LatitudeDegrees>
              <LongitudeDegrees>-4.08051255159080028533935546875</LongitudeDegrees>
            </Position>
            <AltitudeMeters>942</AltitudeMeters>
            <DistanceMeters>NAN</DistanceMeters>
          </Trackpoint>
          <Trackpoint>
            <Time>2019-08-01T16:20:32.000Z</Time>
            <Position>
              <LatitudeDegrees>40.66629194654524326324462890625</LatitudeDegrees>
              <LongitudeDegrees>-4.08049277029931545257568359375</LongitudeDegrees>
            </Position>
            <AltitudeMeters>942.20001220703125</AltitudeMeters>
            <DistanceMeters>NAN</DistanceMeters>
          </Trackpoint>
          <Trackpoint>
            <Time>2019-08-01T16:20:33.000Z</Time>
            <Position>
              <LatitudeDegrees>40.66622891463339328765869140625</LatitudeDegrees>
              <LongitudeDegrees>-4.08045823685824871063232421875</LongitudeDegrees>
            </Position>
            <AltitudeMeters>942.20001220703125</AltitudeMeters>
            <DistanceMeters>NAN</DistanceMeters>
          </Trackpoint>
          <Trackpoint>
            <Time>2019-08-01T16:20:34.000Z</Time>
            <Position>
              <LatitudeDegrees>40.6661884300410747528076171875</LatitudeDegrees>
              <LongitudeDegrees>-4.0803971327841281890869140625</LongitudeDegrees>
            </Position>
            <AltitudeMeters>942.20001220703125</AltitudeMeters>
            <DistanceMeters>NAN</DistanceMeters>
          </Trackpoint>
          <Trackpoint>
            <Time>2019-08-01T16:20:35.000Z</Time>
            <Position>
              <LatitudeDegrees>40.666178204119205474853515625</LatitudeDegrees>
              <LongitudeDegrees>-4.0803230367600917816162109375</LongitudeDegrees>
            </Position>
            <AltitudeMeters>942.20001220703125</AltitudeMeters>
            <DistanceMeters>NAN</DistanceMeters>
          </Trackpoint>
          <Trackpoint>
            <Time>2019-08-01T16:20:36.000Z</Time>
            <Position>
              <LatitudeDegrees>40.666180215775966644287109375</LatitudeDegrees>
              <LongitudeDegrees>-4.0802445821464061737060546875</LongitudeDegrees>
            </Position>
            <AltitudeMeters>942.20001220703125</AltitudeMeters>
            <DistanceMeters>NAN</DistanceMeters>
          </Trackpoint>
          <Trackpoint>
            <Time>2019-08-01T16:20:37.000Z</Time>
            <Position>
              <LatitudeDegrees>40.66616915166378021240234375</LatitudeDegrees>
              <LongitudeDegrees>-4.08016403205692768096923828125</LongitudeDegrees>
            </Position>
            <AltitudeMeters>942.20001220703125</AltitudeMeters>
            <DistanceMeters>NAN</DistanceMeters>
          </Trackpoint>
          <Trackpoint>
            <Time>2019-08-01T16:20:38.000Z</Time>
            <Position>
              <LatitudeDegrees>40.6661351211369037628173828125</LatitudeDegrees>
              <LongitudeDegrees>-4.0800886787474155426025390625</LongitudeDegrees>
            </Position>
            <AltitudeMeters>942.20001220703125</AltitudeMeters>
            <DistanceMeters>NAN</DistanceMeters>
          </Trackpoint>
          <Trackpoint>
            <Time>2019-08-01T16:20:39.000Z</Time>
            <Position>
              <LatitudeDegrees>40.66609027795493602752685546875</LatitudeDegrees>
              <LongitudeDegrees>-4.0800212882459163665771484375</LongitudeDegrees>
            </Position>
            <AltitudeMeters>942.20001220703125</AltitudeMeters>
            <DistanceMeters>NAN</DistanceMeters>
          </Trackpoint>
          <Trackpoint>
            <Time>2019-08-01T16:20:40.000Z</Time>
            <Position>
              <LatitudeDegrees>40.66604442894458770751953125</LatitudeDegrees>
              <LongitudeDegrees>-4.079953394830226898193359375</LongitudeDegrees>
            </Position>
            <AltitudeMeters>942.20001220703125</AltitudeMeters>
            <DistanceMeters>NAN</DistanceMeters>
          </Trackpoint>
          <Trackpoint>
            <Time>2019-08-01T16:20:41.000Z</Time>
            <Position>
              <LatitudeDegrees>40.66599941812455654144287109375</LatitudeDegrees>
              <LongitudeDegrees>-4.07988198101520538330078125</LongitudeDegrees>
            </Position>
            <AltitudeMeters>942</AltitudeMeters>
            <DistanceMeters>NAN</DistanceMeters>
          </Trackpoint>
          <Trackpoint>
            <Time>2019-08-01T16:20:42.000Z</Time>
            <Position>
              <LatitudeDegrees>40.66595457494258880615234375</LatitudeDegrees>
              <LongitudeDegrees>-4.07980729825794696807861328125</LongitudeDegrees>
            </Position>
            <AltitudeMeters>942</AltitudeMeters>
            <DistanceMeters>NAN</DistanceMeters>
          </Trackpoint>
          <Trackpoint>
            <Time>2019-08-01T16:20:43.000Z</Time>
            <Position>
              <LatitudeDegrees>40.66591023467481136322021484375</LatitudeDegrees>
              <LongitudeDegrees>-4.0797285921871662139892578125</LongitudeDegrees>
            </Position>
            <AltitudeMeters>942</AltitudeMeters>
            <DistanceMeters>NAN</DistanceMeters>
          </Trackpoint>
          <Trackpoint>
            <Time>2019-08-01T16:20:44.000Z</Time>
            <Position>
              <LatitudeDegrees>40.66586849279701709747314453125</LatitudeDegrees>
              <LongitudeDegrees>-4.07964552752673625946044921875</LongitudeDegrees>
            </Position>
            <AltitudeMeters>941.79998779296875</AltitudeMeters>
            <DistanceMeters>NAN</DistanceMeters>
          </Trackpoint>
          <Trackpoint>
            <Time>2019-08-01T16:20:45.000Z</Time>
            <Position>
              <LatitudeDegrees>40.66582909785211086273193359375</LatitudeDegrees>
              <LongitudeDegrees>-4.0795579366385936737060546875</LongitudeDegrees>
            </Position>
            <AltitudeMeters>941.79998779296875</AltitudeMeters>
            <DistanceMeters>NAN</DistanceMeters>
          </Trackpoint>
          <Trackpoint>
            <Time>2019-08-01T16:20:46.000Z</Time>
            <Position>
              <LatitudeDegrees>40.66579204984009265899658203125</LatitudeDegrees>
              <LongitudeDegrees>-4.07946682535111904144287109375</LongitudeDegrees>
            </Position>
            <AltitudeMeters>941.79998779296875</AltitudeMeters>
            <DistanceMeters>NAN</DistanceMeters>
          </Trackpoint>
          <Trackpoint>
            <Time>2019-08-01T16:20:47.000Z</Time>
            <Position>
              <LatitudeDegrees>40.66575868986546993255615234375</LatitudeDegrees>
              <LongitudeDegrees>-4.07937227748334407806396484375</LongitudeDegrees>
            </Position>
            <AltitudeMeters>941.5999755859375</AltitudeMeters>
            <DistanceMeters>NAN</DistanceMeters>
          </Trackpoint>
          <Trackpoint>
            <Time>2019-08-01T16:20:48.000Z</Time>
            <Position>
              <LatitudeDegrees>40.665729604661464691162109375</LatitudeDegrees>
              <LongitudeDegrees>-4.079274795949459075927734375</LongitudeDegrees>
            </Position>
            <AltitudeMeters>941.5999755859375</AltitudeMeters>
            <DistanceMeters>NAN</DistanceMeters>
          </Trackpoint>
          <Trackpoint>
            <Time>2019-08-01T16:20:49.000Z</Time>
            <Position>
              <LatitudeDegrees>40.66570471040904521942138671875</LatitudeDegrees>
              <LongitudeDegrees>-4.07917530275881290435791015625</LongitudeDegrees>
            </Position>
            <AltitudeMeters>941.4000244140625</AltitudeMeters>
            <DistanceMeters>NAN</DistanceMeters>
          </Trackpoint>
          <Trackpoint>
            <Time>2019-08-01T16:20:50.000Z</Time>
            <Position>
              <LatitudeDegrees>40.66568358801305294036865234375</LatitudeDegrees>
              <LongitudeDegrees>-4.07907505519688129425048828125</LongitudeDegrees>
            </Position>
            <AltitudeMeters>941.4000244140625</AltitudeMeters>
            <DistanceMeters>NAN</DistanceMeters>
          </Trackpoint>
          <Trackpoint>
            <Time>2019-08-01T16:20:51.000Z</Time>
            <Position>
              <LatitudeDegrees>40.66566665656864643096923828125</LatitudeDegrees>
              <LongitudeDegrees>-4.078973047435283660888671875</LongitudeDegrees>
            </Position>
            <AltitudeMeters>941.4000244140625</AltitudeMeters>
            <DistanceMeters>NAN</DistanceMeters>
          </Trackpoint>
          <Trackpoint>
            <Time>2019-08-01T16:20:52.000Z</Time>
            <Position>
              <LatitudeDegrees>40.66565391607582569122314453125</LatitudeDegrees>
              <LongitudeDegrees>-4.07886936329305171966552734375</LongitudeDegrees>
            </Position>
            <AltitudeMeters>941.4000244140625</AltitudeMeters>
            <DistanceMeters>NAN</DistanceMeters>
          </Trackpoint>
          <Trackpoint>
            <Time>2019-08-01T16:20:53.000Z</Time>
            <Position>
              <LatitudeDegrees>40.665644444525241851806640625</LatitudeDegrees>
              <LongitudeDegrees>-4.07876458950340747833251953125</LongitudeDegrees>
            </Position>
            <AltitudeMeters>941.4000244140625</AltitudeMeters>
            <DistanceMeters>NAN</DistanceMeters>
          </Trackpoint>
          <Trackpoint>
            <Time>2019-08-01T16:20:54.000Z</Time>
            <Position>
              <LatitudeDegrees>40.665644444525241851806640625</LatitudeDegrees>
              <LongitudeDegrees>-4.07876458950340747833251953125</LongitudeDegrees>
            </Position>
            <AltitudeMeters>941.20001220703125</AltitudeMeters>
            <DistanceMeters>NAN</DistanceMeters>
          </Trackpoint>
          <Trackpoint>
            <Time>2019-08-01T16:20:55.000Z</Time>
            <Position>
              <LatitudeDegrees>40.6656347215175628662109375</LatitudeDegrees>
              <LongitudeDegrees>-4.0785534493625164031982421875</LongitudeDegrees>
            </Position>
            <AltitudeMeters>941.20001220703125</AltitudeMeters>
            <DistanceMeters>NAN</DistanceMeters>
          </Trackpoint>
          <Trackpoint>
            <Time>2019-08-01T16:20:56.000Z</Time>
            <Position>
              <LatitudeDegrees>40.6656358949840068817138671875</LatitudeDegrees>
              <LongitudeDegrees>-4.0784481726586818695068359375</LongitudeDegrees>
            </Position>
            <AltitudeMeters>941.20001220703125</AltitudeMeters>
            <DistanceMeters>NAN</DistanceMeters>
          </Trackpoint>
          <Trackpoint>
            <Time>2019-08-01T16:20:57.000Z</Time>
            <Position>
              <LatitudeDegrees>40.66564016975462436676025390625</LatitudeDegrees>
              <LongitudeDegrees>-4.0783425606787204742431640625</LongitudeDegrees>
            </Position>
            <AltitudeMeters>941</AltitudeMeters>
            <DistanceMeters>NAN</DistanceMeters>
          </Trackpoint>
          <Trackpoint>
            <Time>2019-08-01T16:20:58.000Z</Time>
            <Position>
              <LatitudeDegrees>40.66564704291522502899169921875</LatitudeDegrees>
              <LongitudeDegrees>-4.07823720015585422515869140625</LongitudeDegrees>
            </Position>
            <AltitudeMeters>941</AltitudeMeters>
            <DistanceMeters>NAN</DistanceMeters>
          </Trackpoint>
          <Trackpoint>
            <Time>2019-08-01T16:20:59.000Z</Time>
            <Position>
              <LatitudeDegrees>40.66565592773258686065673828125</LatitudeDegrees>
              <LongitudeDegrees>-4.0781323425471782684326171875</LongitudeDegrees>
            </Position>
            <AltitudeMeters>941</AltitudeMeters>
            <DistanceMeters>NAN</DistanceMeters>
          </Trackpoint>
          <Trackpoint>
            <Time>2019-08-01T16:21:00.000Z</Time>
            <Position>
              <LatitudeDegrees>40.66566682420670986175537109375</LatitudeDegrees>
              <LongitudeDegrees>-4.078027568757534027099609375</LongitudeDegrees>
            </Position>
            <AltitudeMeters>940.79998779296875</AltitudeMeters>
            <DistanceMeters>NAN</DistanceMeters>
          </Trackpoint>
          <Trackpoint>
            <Time>2019-08-01T16:21:01.000Z</Time>
            <Position>
              <LatitudeDegrees>40.665681324899196624755859375</LatitudeDegrees>
              <LongitudeDegrees>-4.07792321406304836273193359375</LongitudeDegrees>
            </Position>
            <AltitudeMeters>940.79998779296875</AltitudeMeters>
            <DistanceMeters>NAN</DistanceMeters>
          </Trackpoint>
          <Trackpoint>
            <Time>2019-08-01T16:21:02.000Z</Time>
            <Position>
              <LatitudeDegrees>40.6656992621719837188720703125</LatitudeDegrees>
              <LongitudeDegrees>-4.07781961373984813690185546875</LongitudeDegrees>
            </Position>
            <AltitudeMeters>940.79998779296875</AltitudeMeters>
            <DistanceMeters>NAN</DistanceMeters>
          </Trackpoint>
          <Trackpoint>
            <Time>2019-08-01T16:21:03.000Z</Time>
            <Position>
              <LatitudeDegrees>40.66572080366313457489013671875</LatitudeDegrees>
              <LongitudeDegrees>-4.077716767787933349609375</LongitudeDegrees>
            </Position>
            <AltitudeMeters>940.5999755859375</AltitudeMeters>
            <DistanceMeters>NAN</DistanceMeters>
          </Trackpoint>
          <Trackpoint>
            <Time>2019-08-01T16:21:04.000Z</Time>
            <Position>
              <LatitudeDegrees>40.665742345154285430908203125</LatitudeDegrees>
              <LongitudeDegrees>-4.07761325128376483917236328125</LongitudeDegrees>
            </Position>
            <AltitudeMeters>940.5999755859375</AltitudeMeters>
            <DistanceMeters>NAN</DistanceMeters>
          </Trackpoint>
          <Trackpoint>
            <Time>2019-08-01T16:21:05.000Z</Time>
            <Position>
              <LatitudeDegrees>40.665742345154285430908203125</LatitudeDegrees>
              <LongitudeDegrees>-4.07761325128376483917236328125</LongitudeDegrees>
            </Position>
            <AltitudeMeters>940.5999755859375</AltitudeMeters>
            <DistanceMeters>NAN</DistanceMeters>
          </Trackpoint>
          <Trackpoint>
            <Time>2019-08-01T16:21:06.000Z</Time>
            <Position>
              <LatitudeDegrees>40.66578333266079425811767578125</LatitudeDegrees>
              <LongitudeDegrees>-4.07740387134253978729248046875</LongitudeDegrees>
            </Position>
            <AltitudeMeters>940.5999755859375</AltitudeMeters>
            <DistanceMeters>NAN</DistanceMeters>
          </Trackpoint>
          <Trackpoint>
            <Time>2019-08-01T16:21:07.000Z</Time>
            <Position>
              <LatitudeDegrees>40.66580126993358135223388671875</LatitudeDegrees>
              <LongitudeDegrees>-4.0772981755435466766357421875</LongitudeDegrees>
            </Position>
            <AltitudeMeters>940.5999755859375</AltitudeMeters>
            <DistanceMeters>NAN</DistanceMeters>
          </Trackpoint>
          <Trackpoint>
            <Time>2019-08-01T16:21:08.000Z</Time>
            <Position>
              <LatitudeDegrees>40.665814764797687530517578125</LatitudeDegrees>
              <LongitudeDegrees>-4.0771905519068241119384765625</LongitudeDegrees>
            </Position>
            <AltitudeMeters>940.4000244140625</AltitudeMeters>
            <DistanceMeters>NAN</DistanceMeters>
          </Trackpoint>
          <Trackpoint>
            <Time>2019-08-01T16:21:09.000Z</Time>
            <Position>
              <LatitudeDegrees>40.66582314670085906982421875</LatitudeDegrees>
              <LongitudeDegrees>-4.077079407870769500732421875</LongitudeDegrees>
            </Position>
            <AltitudeMeters>940.4000244140625</AltitudeMeters>
            <DistanceMeters>NAN</DistanceMeters>
          </Trackpoint>
          <Trackpoint>
            <Time>2019-08-01T16:21:10.000Z</Time>
            <Position>
              <LatitudeDegrees>40.66582641564309597015380859375</LatitudeDegrees>
              <LongitudeDegrees>-4.0769652463495731353759765625</LongitudeDegrees>
            </Position>
            <AltitudeMeters>940.4000244140625</AltitudeMeters>
            <DistanceMeters>NAN</DistanceMeters>
          </Trackpoint>
          <Trackpoint>
            <Time>2019-08-01T16:21:11.000Z</Time>
            <Position>
              <LatitudeDegrees>40.6658256612718105316162109375</LatitudeDegrees>
              <LongitudeDegrees>-4.076848737895488739013671875</LongitudeDegrees>
            </Position>
            <AltitudeMeters>940.20001220703125</AltitudeMeters>
            <DistanceMeters>NAN</DistanceMeters>
          </Trackpoint>
          <Trackpoint>
            <Time>2019-08-01T16:21:12.000Z</Time>
            <Position>
              <LatitudeDegrees>40.6658196263015270233154296875</LatitudeDegrees>
              <LongitudeDegrees>-4.07673046924173831939697265625</LongitudeDegrees>
            </Position>
            <AltitudeMeters>940.20001220703125</AltitudeMeters>
            <DistanceMeters>NAN</DistanceMeters>
          </Trackpoint>
          <Trackpoint>
            <Time>2019-08-01T16:21:13.000Z</Time>
            <Position>
              <LatitudeDegrees>40.66580780781805515289306640625</LatitudeDegrees>
              <LongitudeDegrees>-4.07661127857863903045654296875</LongitudeDegrees>
            </Position>
            <AltitudeMeters>940.20001220703125</AltitudeMeters>
            <DistanceMeters>NAN</DistanceMeters>
          </Trackpoint>
          <Trackpoint>
            <Time>2019-08-01T16:21:14.000Z</Time>
            <Position>
              <LatitudeDegrees>40.665787942707538604736328125</LatitudeDegrees>
              <LongitudeDegrees>-4.07649242319166660308837890625</LongitudeDegrees>
            </Position>
            <AltitudeMeters>939.79998779296875</AltitudeMeters>
            <DistanceMeters>NAN</DistanceMeters>
          </Trackpoint>
          <Trackpoint>
            <Time>2019-08-01T16:21:15.000Z</Time>
            <Position>
              <LatitudeDegrees>40.6657581031322479248046875</LatitudeDegrees>
              <LongitudeDegrees>-4.076375328004360198974609375</LongitudeDegrees>
            </Position>
            <AltitudeMeters>939.4000244140625</AltitudeMeters>
            <DistanceMeters>NAN</DistanceMeters>
          </Trackpoint>
          <Trackpoint>
            <Time>2019-08-01T16:21:16.000Z</Time>
            <Position>
              <LatitudeDegrees>40.665720216929912567138671875</LatitudeDegrees>
              <LongitudeDegrees>-4.07626125030219554901123046875</LongitudeDegrees>
            </Position>
            <AltitudeMeters>939</AltitudeMeters>
            <DistanceMeters>NAN</DistanceMeters>
          </Trackpoint>
          <Trackpoint>
            <Time>2019-08-01T16:21:17.000Z</Time>
            <Position>
              <LatitudeDegrees>40.66567671485245227813720703125</LatitudeDegrees>
              <LongitudeDegrees>-4.07615102827548980712890625</LongitudeDegrees>
            </Position>
            <AltitudeMeters>938.5999755859375</AltitudeMeters>
            <DistanceMeters>NAN</DistanceMeters>
          </Trackpoint>
          <Trackpoint>
            <Time>2019-08-01T16:21:18.000Z</Time>
            <Position>
              <LatitudeDegrees>40.66562709398567676544189453125</LatitudeDegrees>
              <LongitudeDegrees>-4.07604466192424297332763671875</LongitudeDegrees>
            </Position>
            <AltitudeMeters>938.20001220703125</AltitudeMeters>
            <DistanceMeters>NAN</DistanceMeters>
          </Trackpoint>
          <Trackpoint>
            <Time>2019-08-01T16:21:19.000Z</Time>
            <Position>
              <LatitudeDegrees>40.665572695434093475341796875</LatitudeDegrees>
              <LongitudeDegrees>-4.07594307325780391693115234375</LongitudeDegrees>
            </Position>
            <AltitudeMeters>937.5999755859375</AltitudeMeters>
            <DistanceMeters>NAN</DistanceMeters>
          </Trackpoint>
          <Trackpoint>
            <Time>2019-08-01T16:21:20.000Z</Time>
            <Position>
              <LatitudeDegrees>40.665572695434093475341796875</LatitudeDegrees>
              <LongitudeDegrees>-4.07594307325780391693115234375</LongitudeDegrees>
            </Position>
            <AltitudeMeters>937.4000244140625</AltitudeMeters>
            <DistanceMeters>NAN</DistanceMeters>
          </Trackpoint>
          <Trackpoint>
            <Time>2019-08-01T16:21:21.000Z</Time>
            <Position>
              <LatitudeDegrees>40.66545291803777217864990234375</LatitudeDegrees>
              <LongitudeDegrees>-4.07575481571257114410400390625</LongitudeDegrees>
            </Position>
            <AltitudeMeters>936.5999755859375</AltitudeMeters>
            <DistanceMeters>NAN</DistanceMeters>
          </Trackpoint>
          <Trackpoint>
            <Time>2019-08-01T16:21:22.000Z</Time>
            <Position>
              <LatitudeDegrees>40.6653891317546367645263671875</LatitudeDegrees>
              <LongitudeDegrees>-4.07566613517701625823974609375</LongitudeDegrees>
            </Position>
            <AltitudeMeters>936</AltitudeMeters>
            <DistanceMeters>NAN</DistanceMeters>
          </Trackpoint>
          <Trackpoint>
            <Time>2019-08-01T16:21:23.000Z</Time>
            <Position>
              <LatitudeDegrees>40.665323249995708465576171875</LatitudeDegrees>
              <LongitudeDegrees>-4.07557846046984195709228515625</LongitudeDegrees>
            </Position>
            <AltitudeMeters>935.5999755859375</AltitudeMeters>
            <DistanceMeters>NAN</DistanceMeters>
          </Trackpoint>
          <Trackpoint>
            <Time>2019-08-01T16:21:24.000Z</Time>
            <Position>
              <LatitudeDegrees>40.66525678150355815887451171875</LatitudeDegrees>
              <LongitudeDegrees>-4.07549028284847736358642578125</LongitudeDegrees>
            </Position>
            <AltitudeMeters>935.4000244140625</AltitudeMeters>
            <DistanceMeters>NAN</DistanceMeters>
          </Trackpoint>
          <Trackpoint>
            <Time>2019-08-01T16:21:25.000Z</Time>
            <Position>
              <LatitudeDegrees>40.66519081592559814453125</LatitudeDegrees>
              <LongitudeDegrees>-4.0754033625125885009765625</LongitudeDegrees>
            </Position>
            <AltitudeMeters>935.20001220703125</AltitudeMeters>
            <DistanceMeters>NAN</DistanceMeters>
          </Trackpoint>
          <Trackpoint>
            <Time>2019-08-01T16:21:26.000Z</Time>
            <Position>
              <LatitudeDegrees>40.66512501798570156097412109375</LatitudeDegrees>
              <LongitudeDegrees>-4.0753170289099216461181640625</LongitudeDegrees>
            </Position>
            <AltitudeMeters>934.79998779296875</AltitudeMeters>
            <DistanceMeters>NAN</DistanceMeters>
          </Trackpoint>
          <Trackpoint>
            <Time>2019-08-01T16:21:27.000Z</Time>
            <Position>
              <LatitudeDegrees>40.6650598905980587005615234375</LatitudeDegrees>
              <LongitudeDegrees>-4.07523094676434993743896484375</LongitudeDegrees>
            </Position>
            <AltitudeMeters>934.5999755859375</AltitudeMeters>
            <DistanceMeters>NAN</DistanceMeters>
          </Trackpoint>
          <Trackpoint>
            <Time>2019-08-01T16:21:28.000Z</Time>
            <Position>
              <LatitudeDegrees>40.664994679391384124755859375</LatitudeDegrees>
              <LongitudeDegrees>-4.07514511607587337493896484375</LongitudeDegrees>
            </Position>
            <AltitudeMeters>934.4000244140625</AltitudeMeters>
            <DistanceMeters>NAN</DistanceMeters>
          </Trackpoint>
          <Trackpoint>
            <Time>2019-08-01T16:21:29.000Z</Time>
            <Position>
              <LatitudeDegrees>40.664994679391384124755859375</LatitudeDegrees>
              <LongitudeDegrees>-4.07514511607587337493896484375</LongitudeDegrees>
            </Position>
            <AltitudeMeters>934.4000244140625</AltitudeMeters>
            <DistanceMeters>NAN</DistanceMeters>
          </Trackpoint>
          <Trackpoint>
            <Time>2019-08-01T16:21:30.000Z</Time>
            <Position>
              <LatitudeDegrees>40.66486652009189128875732421875</LatitudeDegrees>
              <LongitudeDegrees>-4.0749757178127765655517578125</LongitudeDegrees>
            </Position>
            <AltitudeMeters>934.20001220703125</AltitudeMeters>
            <DistanceMeters>NAN</DistanceMeters>
          </Trackpoint>
          <Trackpoint>
            <Time>2019-08-01T16:21:31.000Z</Time>
            <Position>
              <LatitudeDegrees>40.6648020632565021514892578125</LatitudeDegrees>
              <LongitudeDegrees>-4.0748918987810611724853515625</LongitudeDegrees>
            </Position>
            <AltitudeMeters>934.20001220703125</AltitudeMeters>
            <DistanceMeters>NAN</DistanceMeters>
          </Trackpoint>
          <Trackpoint>
            <Time>2019-08-01T16:21:32.000Z</Time>
            <Position>
              <LatitudeDegrees>40.66473743878304958343505859375</LatitudeDegrees>
              <LongitudeDegrees>-4.07480916939675807952880859375</LongitudeDegrees>
            </Position>
            <AltitudeMeters>934</AltitudeMeters>
            <DistanceMeters>NAN</DistanceMeters>
          </Trackpoint>
          <Trackpoint>
            <Time>2019-08-01T16:21:33.000Z</Time>
            <Position>
              <LatitudeDegrees>40.66467323340475559234619140625</LatitudeDegrees>
              <LongitudeDegrees>-4.0747276134788990020751953125</LongitudeDegrees>
            </Position>
            <AltitudeMeters>934</AltitudeMeters>
            <DistanceMeters>NAN</DistanceMeters>
          </Trackpoint>
          <Trackpoint>
            <Time>2019-08-01T16:21:34.000Z</Time>
            <Position>
              <LatitudeDegrees>40.66460969857871532440185546875</LatitudeDegrees>
              <LongitudeDegrees>-4.07464630901813507080078125</LongitudeDegrees>
            </Position>
            <AltitudeMeters>933.5999755859375</AltitudeMeters>
            <DistanceMeters>NAN</DistanceMeters>
          </Trackpoint>
          <Trackpoint>
            <Time>2019-08-01T16:21:35.000Z</Time>
            <Position>
              <LatitudeDegrees>40.66454649902880191802978515625</LatitudeDegrees>
              <LongitudeDegrees>-4.074564166367053985595703125</LongitudeDegrees>
            </Position>
            <AltitudeMeters>933.20001220703125</AltitudeMeters>
            <DistanceMeters>NAN</DistanceMeters>
          </Trackpoint>
          <Trackpoint>
            <Time>2019-08-01T16:21:36.000Z</Time>
            <Position>
              <LatitudeDegrees>40.66448338329792022705078125</LatitudeDegrees>
              <LongitudeDegrees>-4.074480347335338592529296875</LongitudeDegrees>
            </Position>
            <AltitudeMeters>933</AltitudeMeters>
            <DistanceMeters>NAN</DistanceMeters>
          </Trackpoint>
          <Trackpoint>
            <Time>2019-08-01T16:21:37.000Z</Time>
            <Position>
              <LatitudeDegrees>40.66448338329792022705078125</LatitudeDegrees>
              <LongitudeDegrees>-4.074480347335338592529296875</LongitudeDegrees>
            </Position>
            <AltitudeMeters>933</AltitudeMeters>
            <DistanceMeters>NAN</DistanceMeters>
          </Trackpoint>
          <Trackpoint>
            <Time>2019-08-01T16:21:38.000Z</Time>
            <Position>
              <LatitudeDegrees>40.6643561460077762603759765625</LatitudeDegrees>
              <LongitudeDegrees>-4.0743118710815906524658203125</LongitudeDegrees>
            </Position>
            <AltitudeMeters>933</AltitudeMeters>
            <DistanceMeters>NAN</DistanceMeters>
          </Trackpoint>
          <Trackpoint>
            <Time>2019-08-01T16:21:39.000Z</Time>
            <Position>
              <LatitudeDegrees>40.66429185681045055389404296875</LatitudeDegrees>
              <LongitudeDegrees>-4.07422796823084354400634765625</LongitudeDegrees>
            </Position>
            <AltitudeMeters>933</AltitudeMeters>
            <DistanceMeters>NAN</DistanceMeters>
          </Trackpoint>
          <Trackpoint>
            <Time>2019-08-01T16:21:40.000Z</Time>
            <Position>
              <LatitudeDegrees>40.66422723233699798583984375</LatitudeDegrees>
              <LongitudeDegrees>-4.0741438977420330047607421875</LongitudeDegrees>
            </Position>
            <AltitudeMeters>932.79998779296875</AltitudeMeters>
            <DistanceMeters>NAN</DistanceMeters>
          </Trackpoint>
          <Trackpoint>
            <Time>2019-08-01T16:21:41.000Z</Time>
            <Position>
              <LatitudeDegrees>40.66416227258741855621337890625</LatitudeDegrees>
              <LongitudeDegrees>-4.07406024634838104248046875</LongitudeDegrees>
            </Position>
            <AltitudeMeters>932.79998779296875</AltitudeMeters>
            <DistanceMeters>NAN</DistanceMeters>
          </Trackpoint>
          <Trackpoint>
            <Time>2019-08-01T16:21:42.000Z</Time>
            <Position>
              <LatitudeDegrees>40.66409806720912456512451171875</LatitudeDegrees>
              <LongitudeDegrees>-4.07397651113569736480712890625</LongitudeDegrees>
            </Position>
            <AltitudeMeters>932.79998779296875</AltitudeMeters>
            <DistanceMeters>NAN</DistanceMeters>
          </Trackpoint>
          <Trackpoint>
            <Time>2019-08-01T16:21:43.000Z</Time>
            <Position>
              <LatitudeDegrees>40.6640349514782428741455078125</LatitudeDegrees>
              <LongitudeDegrees>-4.0738934464752674102783203125</LongitudeDegrees>
            </Position>
            <AltitudeMeters>932.79998779296875</AltitudeMeters>
            <DistanceMeters>NAN</DistanceMeters>
          </Trackpoint>
          <Trackpoint>
            <Time>2019-08-01T16:21:44.000Z</Time>
            <Position>
              <LatitudeDegrees>40.66397166810929775238037109375</LatitudeDegrees>
              <LongitudeDegrees>-4.0738101303577423095703125</LongitudeDegrees>
            </Position>
            <AltitudeMeters>932.5999755859375</AltitudeMeters>
            <DistanceMeters>NAN</DistanceMeters>
          </Trackpoint>
          <Trackpoint>
            <Time>2019-08-01T16:21:45.000Z</Time>
            <Position>
              <LatitudeDegrees>40.663908384740352630615234375</LatitudeDegrees>
              <LongitudeDegrees>-4.073727317154407501220703125</LongitudeDegrees>
            </Position>
            <AltitudeMeters>932.4000244140625</AltitudeMeters>
            <DistanceMeters>NAN</DistanceMeters>
          </Trackpoint>
          <Trackpoint>
            <Time>2019-08-01T16:21:46.000Z</Time>
            <Position>
              <LatitudeDegrees>40.66384577192366123199462890625</LatitudeDegrees>
              <LongitudeDegrees>-4.07364316284656524658203125</LongitudeDegrees>
            </Position>
            <AltitudeMeters>932.20001220703125</AltitudeMeters>
            <DistanceMeters>NAN</DistanceMeters>
          </Trackpoint>
          <Trackpoint>
            <Time>2019-08-01T16:21:47.000Z</Time>
            <Position>
              <LatitudeDegrees>40.66378441639244556427001953125</LatitudeDegrees>
              <LongitudeDegrees>-4.07356202602386474609375</LongitudeDegrees>
            </Position>
            <AltitudeMeters>932</AltitudeMeters>
            <DistanceMeters>NAN</DistanceMeters>
          </Trackpoint>
          <Trackpoint>
            <Time>2019-08-01T16:21:48.000Z</Time>
            <Position>
              <LatitudeDegrees>40.6637228094041347503662109375</LatitudeDegrees>
              <LongitudeDegrees>-4.07348181121051311492919921875</LongitudeDegrees>
            </Position>
            <AltitudeMeters>931.79998779296875</AltitudeMeters>
            <DistanceMeters>NAN</DistanceMeters>
          </Trackpoint>
          <Trackpoint>
            <Time>2019-08-01T16:21:49.000Z</Time>
            <Position>
              <LatitudeDegrees>40.663660950958728790283203125</LatitudeDegrees>
              <LongitudeDegrees>-4.0734019316732883453369140625</LongitudeDegrees>
            </Position>
            <AltitudeMeters>931.5999755859375</AltitudeMeters>
            <DistanceMeters>NAN</DistanceMeters>
          </Trackpoint>
          <Trackpoint>
            <Time>2019-08-01T16:21:50.000Z</Time>
            <Position>
              <LatitudeDegrees>40.66359984688460826873779296875</LatitudeDegrees>
              <LongitudeDegrees>-4.07332272268831729888916015625</LongitudeDegrees>
            </Position>
            <AltitudeMeters>931.4000244140625</AltitudeMeters>
            <DistanceMeters>NAN</DistanceMeters>
          </Trackpoint>
          <Trackpoint>
            <Time>2019-08-01T16:21:51.000Z</Time>
            <Position>
              <LatitudeDegrees>40.66353932954370975494384765625</LatitudeDegrees>
              <LongitudeDegrees>-4.0732443518936634063720703125</LongitudeDegrees>
            </Position>
            <AltitudeMeters>931.20001220703125</AltitudeMeters>
            <DistanceMeters>NAN</DistanceMeters>
          </Trackpoint>
          <Trackpoint>
            <Time>2019-08-01T16:21:52.000Z</Time>
            <Position>
              <LatitudeDegrees>40.66347889602184295654296875</LatitudeDegrees>
              <LongitudeDegrees>-4.07316665165126323699951171875</LongitudeDegrees>
            </Position>
            <AltitudeMeters>931</AltitudeMeters>
            <DistanceMeters>NAN</DistanceMeters>
          </Trackpoint>
          <Trackpoint>
            <Time>2019-08-01T16:21:53.000Z</Time>
            <Position>
              <LatitudeDegrees>40.66341913305222988128662109375</LatitudeDegrees>
              <LongitudeDegrees>-4.07308794558048248291015625</LongitudeDegrees>
            </Position>
            <AltitudeMeters>930.79998779296875</AltitudeMeters>
            <DistanceMeters>NAN</DistanceMeters>
          </Trackpoint>
          <Trackpoint>
            <Time>2019-08-01T16:21:54.000Z</Time>
            <Position>
              <LatitudeDegrees>40.6633590348064899444580078125</LatitudeDegrees>
              <LongitudeDegrees>-4.07301041297614574432373046875</LongitudeDegrees>
            </Position>
            <AltitudeMeters>930.79998779296875</AltitudeMeters>
            <DistanceMeters>NAN</DistanceMeters>
          </Trackpoint>
          <Trackpoint>
            <Time>2019-08-01T16:21:55.000Z</Time>
            <Position>
              <LatitudeDegrees>40.663299858570098876953125</LatitudeDegrees>
              <LongitudeDegrees>-4.07293262891471385955810546875</LongitudeDegrees>
            </Position>
            <AltitudeMeters>930.5999755859375</AltitudeMeters>
            <DistanceMeters>NAN</DistanceMeters>
          </Trackpoint>
          <Trackpoint>
            <Time>2019-08-01T16:21:56.000Z</Time>
            <Position>
              <LatitudeDegrees>40.663299858570098876953125</LatitudeDegrees>
              <LongitudeDegrees>-4.07293262891471385955810546875</LongitudeDegrees>
            </Position>
            <AltitudeMeters>930.5999755859375</AltitudeMeters>
            <DistanceMeters>NAN</DistanceMeters>
          </Trackpoint>
          <Trackpoint>
            <Time>2019-08-01T16:21:57.000Z</Time>
            <Position>
              <LatitudeDegrees>40.66318242810666561126708984375</LatitudeDegrees>
              <LongitudeDegrees>-4.0727779828011989593505859375</LongitudeDegrees>
            </Position>
            <AltitudeMeters>930.5999755859375</AltitudeMeters>
            <DistanceMeters>NAN</DistanceMeters>
          </Trackpoint>
          <Trackpoint>
            <Time>2019-08-01T16:21:58.000Z</Time>
            <Position>
              <LatitudeDegrees>40.6631236709654331207275390625</LatitudeDegrees>
              <LongitudeDegrees>-4.0727015398442745208740234375</LongitudeDegrees>
            </Position>
            <AltitudeMeters>930.5999755859375</AltitudeMeters>
            <DistanceMeters>NAN</DistanceMeters>
          </Trackpoint>
          <Trackpoint>
            <Time>2019-08-01T16:21:59.000Z</Time>
            <Position>
              <LatitudeDegrees>40.66306583583354949951171875</LatitudeDegrees>
              <LongitudeDegrees>-4.07262585125863552093505859375</LongitudeDegrees>
            </Position>
            <AltitudeMeters>930.5999755859375</AltitudeMeters>
            <DistanceMeters>NAN</DistanceMeters>
          </Trackpoint>
          <Trackpoint>
            <Time>2019-08-01T16:22:00.000Z</Time>
            <Position>
              <LatitudeDegrees>40.66300841979682445526123046875</LatitudeDegrees>
              <LongitudeDegrees>-4.0725503303110599517822265625</LongitudeDegrees>
            </Position>
            <AltitudeMeters>930.5999755859375</AltitudeMeters>
            <DistanceMeters>NAN</DistanceMeters>
          </Trackpoint>
          <Trackpoint>
            <Time>2019-08-01T16:22:01.000Z</Time>
            <Position>
              <LatitudeDegrees>40.6629510037600994110107421875</LatitudeDegrees>
              <LongitudeDegrees>-4.07247547991573810577392578125</LongitudeDegrees>
            </Position>
            <AltitudeMeters>930.5999755859375</AltitudeMeters>
            <DistanceMeters>NAN</DistanceMeters>
          </Trackpoint>
          <Trackpoint>
            <Time>2019-08-01T16:22:02.000Z</Time>
            <Position>
              <LatitudeDegrees>40.66289417445659637451171875</LatitudeDegrees>
              <LongitudeDegrees>-4.0724001266062259674072265625</LongitudeDegrees>
            </Position>
            <AltitudeMeters>930.5999755859375</AltitudeMeters>
            <DistanceMeters>NAN</DistanceMeters>
          </Trackpoint>
          <Trackpoint>
            <Time>2019-08-01T16:22:03.000Z</Time>
            <Position>
              <LatitudeDegrees>40.6628371775150299072265625</LatitudeDegrees>
              <LongitudeDegrees>-4.07232427038252353668212890625</LongitudeDegrees>
            </Position>
            <AltitudeMeters>930.5999755859375</AltitudeMeters>
            <DistanceMeters>NAN</DistanceMeters>
          </Trackpoint>
          <Trackpoint>
            <Time>2019-08-01T16:22:04.000Z</Time>
            <Position>
              <LatitudeDegrees>40.66277942620217800140380859375</LatitudeDegrees>
              <LongitudeDegrees>-4.0722492523491382598876953125</LongitudeDegrees>
            </Position>
            <AltitudeMeters>930.5999755859375</AltitudeMeters>
            <DistanceMeters>NAN</DistanceMeters>
          </Trackpoint>
          <Trackpoint>
            <Time>2019-08-01T16:22:05.000Z</Time>
            <Position>
              <LatitudeDegrees>40.66272125579416751861572265625</LatitudeDegrees>
              <LongitudeDegrees>-4.07217423431575298309326171875</LongitudeDegrees>
            </Position>
            <AltitudeMeters>930.5999755859375</AltitudeMeters>
            <DistanceMeters>NAN</DistanceMeters>
          </Trackpoint>
          <Trackpoint>
            <Time>2019-08-01T16:22:06.000Z</Time>
            <Position>
              <LatitudeDegrees>40.66266342066228389739990234375</LatitudeDegrees>
              <LongitudeDegrees>-4.0720988810062408447265625</LongitudeDegrees>
            </Position>
            <AltitudeMeters>930.4000244140625</AltitudeMeters>
            <DistanceMeters>NAN</DistanceMeters>
          </Trackpoint>
          <Trackpoint>
            <Time>2019-08-01T16:22:07.000Z</Time>
            <Position>
              <LatitudeDegrees>40.66260592080652713775634765625</LatitudeDegrees>
              <LongitudeDegrees>-4.0720236115157604217529296875</LongitudeDegrees>
            </Position>
            <AltitudeMeters>930.4000244140625</AltitudeMeters>
            <DistanceMeters>NAN</DistanceMeters>
          </Trackpoint>
          <Trackpoint>
            <Time>2019-08-01T16:22:08.000Z</Time>
            <Position>
              <LatitudeDegrees>40.6625493429601192474365234375</LatitudeDegrees>
              <LongitudeDegrees>-4.07194758765399456024169921875</LongitudeDegrees>
            </Position>
            <AltitudeMeters>930.4000244140625</AltitudeMeters>
            <DistanceMeters>NAN</DistanceMeters>
          </Trackpoint>
          <Trackpoint>
            <Time>2019-08-01T16:22:09.000Z</Time>
            <Position>
              <LatitudeDegrees>40.66249326802790164947509765625</LatitudeDegrees>
              <LongitudeDegrees>-4.071872569620609283447265625</LongitudeDegrees>
            </Position>
            <AltitudeMeters>930.20001220703125</AltitudeMeters>
            <DistanceMeters>NAN</DistanceMeters>
          </Trackpoint>
          <Trackpoint>
            <Time>2019-08-01T16:22:10.000Z</Time>
            <Position>
              <LatitudeDegrees>40.66243727691471576690673828125</LatitudeDegrees>
              <LongitudeDegrees>-4.0717983059585094451904296875</LongitudeDegrees>
            </Position>
            <AltitudeMeters>930.20001220703125</AltitudeMeters>
            <DistanceMeters>NAN</DistanceMeters>
          </Trackpoint>
          <Trackpoint>
            <Time>2019-08-01T16:22:11.000Z</Time>
            <Position>
              <LatitudeDegrees>40.662381537258625030517578125</LatitudeDegrees>
              <LongitudeDegrees>-4.0717252157628536224365234375</LongitudeDegrees>
            </Position>
            <AltitudeMeters>930.20001220703125</AltitudeMeters>
            <DistanceMeters>NAN</DistanceMeters>
          </Trackpoint>
          <Trackpoint>
            <Time>2019-08-01T16:22:12.000Z</Time>
            <Position>
              <LatitudeDegrees>40.662325210869312286376953125</LatitudeDegrees>
              <LongitudeDegrees>-4.07165187411010265350341796875</LongitudeDegrees>
            </Position>
            <AltitudeMeters>930</AltitudeMeters>
            <DistanceMeters>NAN</DistanceMeters>
          </Trackpoint>
          <Trackpoint>
            <Time>2019-08-01T16:22:13.000Z</Time>
            <Position>
              <LatitudeDegrees>40.66226796247065067291259765625</LatitudeDegrees>
              <LongitudeDegrees>-4.0715783648192882537841796875</LongitudeDegrees>
            </Position>
            <AltitudeMeters>929.79998779296875</AltitudeMeters>
            <DistanceMeters>NAN</DistanceMeters>
          </Trackpoint>
          <Trackpoint>
            <Time>2019-08-01T16:22:14.000Z</Time>
            <Position>
              <LatitudeDegrees>40.66221046261489391326904296875</LatitudeDegrees>
              <LongitudeDegrees>-4.0715049393475055694580078125</LongitudeDegrees>
            </Position>
            <AltitudeMeters>929.79998779296875</AltitudeMeters>
            <DistanceMeters>NAN</DistanceMeters>
          </Trackpoint>
          <Trackpoint>
            <Time>2019-08-01T16:22:15.000Z</Time>
            <Position>
              <LatitudeDegrees>40.66215262748301029205322265625</LatitudeDegrees>
              <LongitudeDegrees>-4.07143126241862773895263671875</LongitudeDegrees>
            </Position>
            <AltitudeMeters>929.5999755859375</AltitudeMeters>
            <DistanceMeters>NAN</DistanceMeters>
          </Trackpoint>
          <Trackpoint>
            <Time>2019-08-01T16:22:16.000Z</Time>
            <Position>
              <LatitudeDegrees>40.6620933674275875091552734375</LatitudeDegrees>
              <LongitudeDegrees>-4.07135817222297191619873046875</LongitudeDegrees>
            </Position>
            <AltitudeMeters>929.5999755859375</AltitudeMeters>
            <DistanceMeters>NAN</DistanceMeters>
          </Trackpoint>
          <Trackpoint>
            <Time>2019-08-01T16:22:17.000Z</Time>
            <Position>
              <LatitudeDegrees>40.66203326918184757232666015625</LatitudeDegrees>
              <LongitudeDegrees>-4.0712853334844112396240234375</LongitudeDegrees>
            </Position>
            <AltitudeMeters>929.5999755859375</AltitudeMeters>
            <DistanceMeters>NAN</DistanceMeters>
          </Trackpoint>
          <Trackpoint>
            <Time>2019-08-01T16:22:18.000Z</Time>
            <Position>
              <LatitudeDegrees>40.66197107546031475067138671875</LatitudeDegrees>
              <LongitudeDegrees>-4.0712125785648822784423828125</LongitudeDegrees>
            </Position>
            <AltitudeMeters>929.4000244140625</AltitudeMeters>
            <DistanceMeters>NAN</DistanceMeters>
          </Trackpoint>
          <Trackpoint>
            <Time>2019-08-01T16:22:19.000Z</Time>
            <Position>
              <LatitudeDegrees>40.66190837882459163665771484375</LatitudeDegrees>
              <LongitudeDegrees>-4.07114007510244846343994140625</LongitudeDegrees>
            </Position>
            <AltitudeMeters>929.4000244140625</AltitudeMeters>
            <DistanceMeters>NAN</DistanceMeters>
          </Trackpoint>
          <Trackpoint>
            <Time>2019-08-01T16:22:20.000Z</Time>
            <Position>
              <LatitudeDegrees>40.6618452630937099456787109375</LatitudeDegrees>
              <LongitudeDegrees>-4.0710667334496974945068359375</LongitudeDegrees>
            </Position>
            <AltitudeMeters>929.4000244140625</AltitudeMeters>
            <DistanceMeters>NAN</DistanceMeters>
          </Trackpoint>
          <Trackpoint>
            <Time>2019-08-01T16:22:21.000Z</Time>
            <Position>
              <LatitudeDegrees>40.66178130917251110076904296875</LatitudeDegrees>
              <LongitudeDegrees>-4.07099288888275623321533203125</LongitudeDegrees>
            </Position>
            <AltitudeMeters>929.20001220703125</AltitudeMeters>
            <DistanceMeters>NAN</DistanceMeters>
          </Trackpoint>
          <Trackpoint>
            <Time>2019-08-01T16:22:22.000Z</Time>
            <Position>
              <LatitudeDegrees>40.66171693615615367889404296875</LatitudeDegrees>
              <LongitudeDegrees>-4.07091946341097354888916015625</LongitudeDegrees>
            </Position>
            <AltitudeMeters>929</AltitudeMeters>
            <DistanceMeters>NAN</DistanceMeters>
          </Trackpoint>
          <Trackpoint>
            <Time>2019-08-01T16:22:23.000Z</Time>
            <Position>
              <LatitudeDegrees>40.66165239550173282623291015625</LatitudeDegrees>
              <LongitudeDegrees>-4.0708467923104763031005859375</LongitudeDegrees>
            </Position>
            <AltitudeMeters>928.79998779296875</AltitudeMeters>
            <DistanceMeters>NAN</DistanceMeters>
          </Trackpoint>
          <Trackpoint>
            <Time>2019-08-01T16:22:24.000Z</Time>
            <Position>
              <LatitudeDegrees>40.66158751957118511199951171875</LatitudeDegrees>
              <LongitudeDegrees>-4.07077495940029621124267578125</LongitudeDegrees>
            </Position>
            <AltitudeMeters>928.79998779296875</AltitudeMeters>
            <DistanceMeters>NAN</DistanceMeters>
          </Trackpoint>
          <Trackpoint>
            <Time>2019-08-01T16:22:25.000Z</Time>
            <Position>
              <LatitudeDegrees>40.66152163781225681304931640625</LatitudeDegrees>
              <LongitudeDegrees>-4.0707032941281795501708984375</LongitudeDegrees>
            </Position>
            <AltitudeMeters>928.5999755859375</AltitudeMeters>
            <DistanceMeters>NAN</DistanceMeters>
          </Trackpoint>
          <Trackpoint>
            <Time>2019-08-01T16:22:26.000Z</Time>
            <Position>
              <LatitudeDegrees>40.6614553369581699371337890625</LatitudeDegrees>
              <LongitudeDegrees>-4.07063330523669719696044921875</LongitudeDegrees>
            </Position>
            <AltitudeMeters>928.4000244140625</AltitudeMeters>
            <DistanceMeters>NAN</DistanceMeters>
          </Trackpoint>
          <Trackpoint>
            <Time>2019-08-01T16:22:27.000Z</Time>
            <Position>
              <LatitudeDegrees>40.66138752736151218414306640625</LatitudeDegrees>
              <LongitudeDegrees>-4.07056625001132488250732421875</LongitudeDegrees>
            </Position>
            <AltitudeMeters>928.4000244140625</AltitudeMeters>
            <DistanceMeters>NAN</DistanceMeters>
          </Trackpoint>
          <Trackpoint>
            <Time>2019-08-01T16:22:28.000Z</Time>
            <Position>
              <LatitudeDegrees>40.66131896339356899261474609375</LatitudeDegrees>
              <LongitudeDegrees>-4.07050120644271373748779296875</LongitudeDegrees>
            </Position>
            <AltitudeMeters>928.4000244140625</AltitudeMeters>
            <DistanceMeters>NAN</DistanceMeters>
          </Trackpoint>
          <Trackpoint>
            <Time>2019-08-01T16:22:29.000Z</Time>
            <Position>
              <LatitudeDegrees>40.66124989651143550872802734375</LatitudeDegrees>
              <LongitudeDegrees>-4.07043834216892719268798828125</LongitudeDegrees>
            </Position>
            <AltitudeMeters>928.20001220703125</AltitudeMeters>
            <DistanceMeters>NAN</DistanceMeters>
          </Trackpoint>
          <Trackpoint>
            <Time>2019-08-01T16:22:30.000Z</Time>
            <Position>
              <LatitudeDegrees>40.66118024289608001708984375</LatitudeDegrees>
              <LongitudeDegrees>-4.0703757293522357940673828125</LongitudeDegrees>
            </Position>
            <AltitudeMeters>928</AltitudeMeters>
            <DistanceMeters>NAN</DistanceMeters>
          </Trackpoint>
          <Trackpoint>
            <Time>2019-08-01T16:22:31.000Z</Time>
            <Position>
              <LatitudeDegrees>40.66111008636653423309326171875</LatitudeDegrees>
              <LongitudeDegrees>-4.070313870906829833984375</LongitudeDegrees>
            </Position>
            <AltitudeMeters>927.79998779296875</AltitudeMeters>
            <DistanceMeters>NAN</DistanceMeters>
          </Trackpoint>
          <Trackpoint>
            <Time>2019-08-01T16:22:32.000Z</Time>
            <Position>
              <LatitudeDegrees>40.6610389240086078643798828125</LatitudeDegrees>
              <LongitudeDegrees>-4.0702523477375507354736328125</LongitudeDegrees>
            </Position>
            <AltitudeMeters>927.5999755859375</AltitudeMeters>
            <DistanceMeters>NAN</DistanceMeters>
          </Trackpoint>
          <Trackpoint>
            <Time>2019-08-01T16:22:33.000Z</Time>
            <Position>
              <LatitudeDegrees>40.6609676778316497802734375</LatitudeDegrees>
              <LongitudeDegrees>-4.07019090838730335235595703125</LongitudeDegrees>
            </Position>
            <AltitudeMeters>927.5999755859375</AltitudeMeters>
            <DistanceMeters>NAN</DistanceMeters>
          </Trackpoint>
          <Trackpoint>
            <Time>2019-08-01T16:22:34.000Z</Time>
            <Position>
              <LatitudeDegrees>40.6608960963785648345947265625</LatitudeDegrees>
              <LongitudeDegrees>-4.07012904994189739227294921875</LongitudeDegrees>
            </Position>
            <AltitudeMeters>927.5999755859375</AltitudeMeters>
            <DistanceMeters>NAN</DistanceMeters>
          </Trackpoint>
          <Trackpoint>
            <Time>2019-08-01T16:22:35.000Z</Time>
            <Position>
              <LatitudeDegrees>40.6608960963785648345947265625</LatitudeDegrees>
              <LongitudeDegrees>-4.07012904994189739227294921875</LongitudeDegrees>
            </Position>
            <AltitudeMeters>927.4000244140625</AltitudeMeters>
            <DistanceMeters>NAN</DistanceMeters>
          </Trackpoint>
          <Trackpoint>
            <Time>2019-08-01T16:22:36.000Z</Time>
            <Position>
              <LatitudeDegrees>40.66075301729142665863037109375</LatitudeDegrees>
              <LongitudeDegrees>-4.070003740489482879638671875</LongitudeDegrees>
            </Position>
            <AltitudeMeters>927.20001220703125</AltitudeMeters>
            <DistanceMeters>NAN</DistanceMeters>
          </Trackpoint>
          <Trackpoint>
            <Time>2019-08-01T16:22:37.000Z</Time>
            <Position>
              <LatitudeDegrees>40.66068135201930999755859375</LatitudeDegrees>
              <LongitudeDegrees>-4.0699415467679500579833984375</LongitudeDegrees>
            </Position>
            <AltitudeMeters>927</AltitudeMeters>
            <DistanceMeters>NAN</DistanceMeters>
          </Trackpoint>
          <Trackpoint>
            <Time>2019-08-01T16:22:38.000Z</Time>
            <Position>
              <LatitudeDegrees>40.6606101058423519134521484375</LatitudeDegrees>
              <LongitudeDegrees>-4.06987910158932209014892578125</LongitudeDegrees>
            </Position>
            <AltitudeMeters>927</AltitudeMeters>
            <DistanceMeters>NAN</DistanceMeters>
          </Trackpoint>
          <Trackpoint>
            <Time>2019-08-01T16:22:39.000Z</Time>
            <Position>
              <LatitudeDegrees>40.66053978167474269866943359375</LatitudeDegrees>
              <LongitudeDegrees>-4.0698164887726306915283203125</LongitudeDegrees>
            </Position>
            <AltitudeMeters>927</AltitudeMeters>
            <DistanceMeters>NAN</DistanceMeters>
          </Trackpoint>
          <Trackpoint>
            <Time>2019-08-01T16:22:40.000Z</Time>
            <Position>
              <LatitudeDegrees>40.66047037951648235321044921875</LatitudeDegrees>
              <LongitudeDegrees>-4.06975320540368556976318359375</LongitudeDegrees>
            </Position>
            <AltitudeMeters>927</AltitudeMeters>
            <DistanceMeters>NAN</DistanceMeters>
          </Trackpoint>
          <Trackpoint>
            <Time>2019-08-01T16:22:41.000Z</Time>
            <Position>
              <LatitudeDegrees>40.66040181554853916168212890625</LatitudeDegrees>
              <LongitudeDegrees>-4.06968933530151844024658203125</LongitudeDegrees>
            </Position>
            <AltitudeMeters>926.79998779296875</AltitudeMeters>
            <DistanceMeters>NAN</DistanceMeters>
          </Trackpoint>
          <Trackpoint>
            <Time>2019-08-01T16:22:42.000Z</Time>
            <Position>
              <LatitudeDegrees>40.66033408977091312408447265625</LatitudeDegrees>
              <LongitudeDegrees>-4.06962395645678043365478515625</LongitudeDegrees>
            </Position>
            <AltitudeMeters>926.79998779296875</AltitudeMeters>
            <DistanceMeters>NAN</DistanceMeters>
          </Trackpoint>
          <Trackpoint>
            <Time>2019-08-01T16:22:43.000Z</Time>
            <Position>
              <LatitudeDegrees>40.6602676212787628173828125</LatitudeDegrees>
              <LongitudeDegrees>-4.0695569850504398345947265625</LongitudeDegrees>
            </Position>
            <AltitudeMeters>926.5999755859375</AltitudeMeters>
            <DistanceMeters>NAN</DistanceMeters>
          </Trackpoint>
          <Trackpoint>
            <Time>2019-08-01T16:22:44.000Z</Time>
            <Position>
              <LatitudeDegrees>40.6602032482624053955078125</LatitudeDegrees>
              <LongitudeDegrees>-4.06948783434927463531494140625</LongitudeDegrees>
            </Position>
            <AltitudeMeters>926.5999755859375</AltitudeMeters>
            <DistanceMeters>NAN</DistanceMeters>
          </Trackpoint>
          <Trackpoint>
            <Time>2019-08-01T16:22:45.000Z</Time>
            <Position>
              <LatitudeDegrees>40.66014097072184085845947265625</LatitudeDegrees>
              <LongitudeDegrees>-4.06941675581037998199462890625</LongitudeDegrees>
            </Position>
            <AltitudeMeters>926.4000244140625</AltitudeMeters>
            <DistanceMeters>NAN</DistanceMeters>
          </Trackpoint>
          <Trackpoint>
            <Time>2019-08-01T16:22:46.000Z</Time>
            <Position>
              <LatitudeDegrees>40.6600798666477203369140625</LatitudeDegrees>
              <LongitudeDegrees>-4.0693437494337558746337890625</LongitudeDegrees>
            </Position>
            <AltitudeMeters>926.4000244140625</AltitudeMeters>
            <DistanceMeters>NAN</DistanceMeters>
          </Trackpoint>
          <Trackpoint>
            <Time>2019-08-01T16:22:47.000Z</Time>
            <Position>
              <LatitudeDegrees>40.6600200198590755462646484375</LatitudeDegrees>
              <LongitudeDegrees>-4.06926873140037059783935546875</LongitudeDegrees>
            </Position>
            <AltitudeMeters>926.20001220703125</AltitudeMeters>
            <DistanceMeters>NAN</DistanceMeters>
          </Trackpoint>
          <Trackpoint>
            <Time>2019-08-01T16:22:48.000Z</Time>
            <Position>
              <LatitudeDegrees>40.65996126271784305572509765625</LatitudeDegrees>
              <LongitudeDegrees>-4.0691913664340972900390625</LongitudeDegrees>
            </Position>
            <AltitudeMeters>926.20001220703125</AltitudeMeters>
            <DistanceMeters>NAN</DistanceMeters>
          </Trackpoint>
          <Trackpoint>
            <Time>2019-08-01T16:22:49.000Z</Time>
            <Position>
              <LatitudeDegrees>40.6599033437669277191162109375</LatitudeDegrees>
              <LongitudeDegrees>-4.06911131925880908966064453125</LongitudeDegrees>
            </Position>
            <AltitudeMeters>926.20001220703125</AltitudeMeters>
            <DistanceMeters>NAN</DistanceMeters>
          </Trackpoint>
          <Trackpoint>
            <Time>2019-08-01T16:22:50.000Z</Time>
            <Position>
              <LatitudeDegrees>40.6598483584821224212646484375</LatitudeDegrees>
              <LongitudeDegrees>-4.0690299309790134429931640625</LongitudeDegrees>
            </Position>
            <AltitudeMeters>926.20001220703125</AltitudeMeters>
            <DistanceMeters>NAN</DistanceMeters>
          </Trackpoint>
          <Trackpoint>
            <Time>2019-08-01T16:22:51.000Z</Time>
            <Position>
              <LatitudeDegrees>40.6597955524921417236328125</LatitudeDegrees>
              <LongitudeDegrees>-4.06894736923277378082275390625</LongitudeDegrees>
            </Position>
            <AltitudeMeters>926</AltitudeMeters>
            <DistanceMeters>NAN</DistanceMeters>
          </Trackpoint>
          <Trackpoint>
            <Time>2019-08-01T16:22:52.000Z</Time>
            <Position>
              <LatitudeDegrees>40.65974450670182704925537109375</LatitudeDegrees>
              <LongitudeDegrees>-4.0688639692962169647216796875</LongitudeDegrees>
            </Position>
            <AltitudeMeters>926</AltitudeMeters>
            <DistanceMeters>NAN</DistanceMeters>
          </Trackpoint>
          <Trackpoint>
            <Time>2019-08-01T16:22:53.000Z</Time>
            <Position>
              <LatitudeDegrees>40.65974450670182704925537109375</LatitudeDegrees>
              <LongitudeDegrees>-4.0688639692962169647216796875</LongitudeDegrees>
            </Position>
            <AltitudeMeters>926</AltitudeMeters>
            <DistanceMeters>NAN</DistanceMeters>
          </Trackpoint>
          <Trackpoint>
            <Time>2019-08-01T16:22:54.000Z</Time>
            <Position>
              <LatitudeDegrees>40.6596458517014980316162109375</LatitudeDegrees>
              <LongitudeDegrees>-4.0686951577663421630859375</LongitudeDegrees>
            </Position>
            <AltitudeMeters>926</AltitudeMeters>
            <DistanceMeters>NAN</DistanceMeters>
          </Trackpoint>
          <Trackpoint>
            <Time>2019-08-01T16:22:55.000Z</Time>
            <Position>
              <LatitudeDegrees>40.65959866158664226531982421875</LatitudeDegrees>
              <LongitudeDegrees>-4.06860974617302417755126953125</LongitudeDegrees>
            </Position>
            <AltitudeMeters>926</AltitudeMeters>
            <DistanceMeters>NAN</DistanceMeters>
          </Trackpoint>
          <Trackpoint>
            <Time>2019-08-01T16:22:56.000Z</Time>
            <Position>
              <LatitudeDegrees>40.6595529802143573760986328125</LatitudeDegrees>
              <LongitudeDegrees>-4.0685243345797061920166015625</LongitudeDegrees>
            </Position>
            <AltitudeMeters>926.20001220703125</AltitudeMeters>
            <DistanceMeters>NAN</DistanceMeters>
          </Trackpoint>
          <Trackpoint>
            <Time>2019-08-01T16:22:57.000Z</Time>
            <Position>
              <LatitudeDegrees>40.6595080532133579254150390625</LatitudeDegrees>
              <LongitudeDegrees>-4.0684408508241176605224609375</LongitudeDegrees>
            </Position>
            <AltitudeMeters>926.20001220703125</AltitudeMeters>
            <DistanceMeters>NAN</DistanceMeters>
          </Trackpoint>
          <Trackpoint>
            <Time>2019-08-01T16:22:58.000Z</Time>
            <Position>
              <LatitudeDegrees>40.65946388058364391326904296875</LatitudeDegrees>
              <LongitudeDegrees>-4.06835979782044887542724609375</LongitudeDegrees>
            </Position>
            <AltitudeMeters>926.20001220703125</AltitudeMeters>
            <DistanceMeters>NAN</DistanceMeters>
          </Trackpoint>
          <Trackpoint>
            <Time>2019-08-01T16:22:59.000Z</Time>
            <Position>
              <LatitudeDegrees>40.6594205461442470550537109375</LatitudeDegrees>
              <LongitudeDegrees>-4.06828000210225582122802734375</LongitudeDegrees>
            </Position>
            <AltitudeMeters>926.20001220703125</AltitudeMeters>
            <DistanceMeters>NAN</DistanceMeters>
          </Trackpoint>
          <Trackpoint>
            <Time>2019-08-01T16:23:00.000Z</Time>
            <Position>
              <LatitudeDegrees>40.6593793071806430816650390625</LatitudeDegrees>
              <LongitudeDegrees>-4.06820188276469707489013671875</LongitudeDegrees>
            </Position>
            <AltitudeMeters>926.20001220703125</AltitudeMeters>
            <DistanceMeters>NAN</DistanceMeters>
          </Trackpoint>
          <Trackpoint>
            <Time>2019-08-01T16:23:01.000Z</Time>
            <Position>
              <LatitudeDegrees>40.65934016369283199310302734375</LatitudeDegrees>
              <LongitudeDegrees>-4.0681270323693752288818359375</LongitudeDegrees>
            </Position>
            <AltitudeMeters>926.20001220703125</AltitudeMeters>
            <DistanceMeters>NAN</DistanceMeters>
          </Trackpoint>
          <Trackpoint>
            <Time>2019-08-01T16:23:02.000Z</Time>
            <Position>
              <LatitudeDegrees>40.6593018583953380584716796875</LatitudeDegrees>
              <LongitudeDegrees>-4.06805352307856082916259765625</LongitudeDegrees>
            </Position>
            <AltitudeMeters>926.20001220703125</AltitudeMeters>
            <DistanceMeters>NAN</DistanceMeters>
          </Trackpoint>
          <Trackpoint>
            <Time>2019-08-01T16:23:03.000Z</Time>
            <Position>
              <LatitudeDegrees>40.65926380455493927001953125</LatitudeDegrees>
              <LongitudeDegrees>-4.067982695996761322021484375</LongitudeDegrees>
            </Position>
            <AltitudeMeters>926.20001220703125</AltitudeMeters>
            <DistanceMeters>NAN</DistanceMeters>
          </Trackpoint>
          <Trackpoint>
            <Time>2019-08-01T16:23:04.000Z</Time>
            <Position>
              <LatitudeDegrees>40.659225918352603912353515625</LatitudeDegrees>
              <LongitudeDegrees>-4.0679141320288181304931640625</LongitudeDegrees>
            </Position>
            <AltitudeMeters>926.20001220703125</AltitudeMeters>
            <DistanceMeters>NAN</DistanceMeters>
          </Trackpoint>
          <Trackpoint>
            <Time>2019-08-01T16:23:05.000Z</Time>
            <Position>
              <LatitudeDegrees>40.65918878652155399322509765625</LatitudeDegrees>
              <LongitudeDegrees>-4.06784850172698497772216796875</LongitudeDegrees>
            </Position>
            <AltitudeMeters>926.4000244140625</AltitudeMeters>
            <DistanceMeters>NAN</DistanceMeters>
          </Trackpoint>
          <Trackpoint>
            <Time>2019-08-01T16:23:06.000Z</Time>
            <Position>
              <LatitudeDegrees>40.65915274433791637420654296875</LatitudeDegrees>
              <LongitudeDegrees>-4.06778253614902496337890625</LongitudeDegrees>
            </Position>
            <AltitudeMeters>926.5999755859375</AltitudeMeters>
            <DistanceMeters>NAN</DistanceMeters>
          </Trackpoint>
          <Trackpoint>
            <Time>2019-08-01T16:23:07.000Z</Time>
            <Position>
              <LatitudeDegrees>40.65911754034459590911865234375</LatitudeDegrees>
              <LongitudeDegrees>-4.0677176602184772491455078125</LongitudeDegrees>
            </Position>
            <AltitudeMeters>926.79998779296875</AltitudeMeters>
            <DistanceMeters>NAN</DistanceMeters>
          </Trackpoint>
          <Trackpoint>
            <Time>2019-08-01T16:23:08.000Z</Time>
            <Position>
              <LatitudeDegrees>40.6590829230844974517822265625</LatitudeDegrees>
              <LongitudeDegrees>-4.067654795944690704345703125</LongitudeDegrees>
            </Position>
            <AltitudeMeters>927.20001220703125</AltitudeMeters>
            <DistanceMeters>NAN</DistanceMeters>
          </Trackpoint>
          <Trackpoint>
            <Time>2019-08-01T16:23:09.000Z</Time>
            <Position>
              <LatitudeDegrees>40.65904780291020870208740234375</LatitudeDegrees>
              <LongitudeDegrees>-4.06759201548993587493896484375</LongitudeDegrees>
            </Position>
            <AltitudeMeters>927.4000244140625</AltitudeMeters>
            <DistanceMeters>NAN</DistanceMeters>
          </Trackpoint>
          <Trackpoint>
            <Time>2019-08-01T16:23:10.000Z</Time>
            <Position>
              <LatitudeDegrees>40.65904780291020870208740234375</LatitudeDegrees>
              <LongitudeDegrees>-4.06759201548993587493896484375</LongitudeDegrees>
            </Position>
            <AltitudeMeters>927.79998779296875</AltitudeMeters>
            <DistanceMeters>NAN</DistanceMeters>
          </Trackpoint>
          <Trackpoint>
            <Time>2019-08-01T16:23:11.000Z</Time>
            <Position>
              <LatitudeDegrees>40.658976472914218902587890625</LatitudeDegrees>
              <LongitudeDegrees>-4.06746737658977508544921875</LongitudeDegrees>
            </Position>
            <AltitudeMeters>928.20001220703125</AltitudeMeters>
            <DistanceMeters>NAN</DistanceMeters>
          </Trackpoint>
          <Trackpoint>
            <Time>2019-08-01T16:23:12.000Z</Time>
            <Position>
              <LatitudeDegrees>40.65894118510186672210693359375</LatitudeDegrees>
              <LongitudeDegrees>-4.0674061886966228485107421875</LongitudeDegrees>
            </Position>
            <AltitudeMeters>928.79998779296875</AltitudeMeters>
            <DistanceMeters>NAN</DistanceMeters>
          </Trackpoint>
          <Trackpoint>
            <Time>2019-08-01T16:23:13.000Z</Time>
            <Position>
              <LatitudeDegrees>40.65890581347048282623291015625</LatitudeDegrees>
              <LongitudeDegrees>-4.067346341907978057861328125</LongitudeDegrees>
            </Position>
            <AltitudeMeters>929.4000244140625</AltitudeMeters>
            <DistanceMeters>NAN</DistanceMeters>
          </Trackpoint>
          <Trackpoint>
            <Time>2019-08-01T16:23:14.000Z</Time>
            <Position>
              <LatitudeDegrees>40.6588700227439403533935546875</LatitudeDegrees>
              <LongitudeDegrees>-4.06728708185255527496337890625</LongitudeDegrees>
            </Position>
            <AltitudeMeters>929.79998779296875</AltitudeMeters>
            <DistanceMeters>NAN</DistanceMeters>
          </Trackpoint>
          <Trackpoint>
            <Time>2019-08-01T16:23:15.000Z</Time>
            <Position>
              <LatitudeDegrees>40.65883356146514415740966796875</LatitudeDegrees>
              <LongitudeDegrees>-4.06722874380648136138916015625</LongitudeDegrees>
            </Position>
            <AltitudeMeters>930</AltitudeMeters>
            <DistanceMeters>NAN</DistanceMeters>
          </Trackpoint>
          <Trackpoint>
            <Time>2019-08-01T16:23:16.000Z</Time>
            <Position>
              <LatitudeDegrees>40.6587969325482845306396484375</LatitudeDegrees>
              <LongitudeDegrees>-4.06717157922685146331787109375</LongitudeDegrees>
            </Position>
            <AltitudeMeters>930.4000244140625</AltitudeMeters>
            <DistanceMeters>NAN</DistanceMeters>
          </Trackpoint>
          <Trackpoint>
            <Time>2019-08-01T16:23:17.000Z</Time>
            <Position>
              <LatitudeDegrees>40.6587602198123931884765625</LatitudeDegrees>
              <LongitudeDegrees>-4.06711458228528499603271484375</LongitudeDegrees>
            </Position>
            <AltitudeMeters>930.79998779296875</AltitudeMeters>
            <DistanceMeters>NAN</DistanceMeters>
          </Trackpoint>
          <Trackpoint>
            <Time>2019-08-01T16:23:18.000Z</Time>
            <Position>
              <LatitudeDegrees>40.658724009990692138671875</LatitudeDegrees>
              <LongitudeDegrees>-4.0670588426291942596435546875</LongitudeDegrees>
            </Position>
            <AltitudeMeters>931.20001220703125</AltitudeMeters>
            <DistanceMeters>NAN</DistanceMeters>
          </Trackpoint>
          <Trackpoint>
            <Time>2019-08-01T16:23:19.000Z</Time>
            <Position>
              <LatitudeDegrees>40.6586872972548007965087890625</LatitudeDegrees>
              <LongitudeDegrees>-4.06700645573437213897705078125</LongitudeDegrees>
            </Position>
            <AltitudeMeters>931.4000244140625</AltitudeMeters>
            <DistanceMeters>NAN</DistanceMeters>
          </Trackpoint>
          <Trackpoint>
            <Time>2019-08-01T16:23:20.000Z</Time>
            <Position>
              <LatitudeDegrees>40.6586502492427825927734375</LatitudeDegrees>
              <LongitudeDegrees>-4.06695515848696231842041015625</LongitudeDegrees>
            </Position>
            <AltitudeMeters>931.5999755859375</AltitudeMeters>
            <DistanceMeters>NAN</DistanceMeters>
          </Trackpoint>
          <Trackpoint>
            <Time>2019-08-01T16:23:21.000Z</Time>
            <Position>
              <LatitudeDegrees>40.65861378796398639678955078125</LatitudeDegrees>
              <LongitudeDegrees>-4.0669052861630916595458984375</LongitudeDegrees>
            </Position>
            <AltitudeMeters>932</AltitudeMeters>
            <DistanceMeters>NAN</DistanceMeters>
          </Trackpoint>
          <Trackpoint>
            <Time>2019-08-01T16:23:22.000Z</Time>
            <Position>
              <LatitudeDegrees>40.65857673995196819305419921875</LatitudeDegrees>
              <LongitudeDegrees>-4.0668549947440624237060546875</LongitudeDegrees>
            </Position>
            <AltitudeMeters>932.4000244140625</AltitudeMeters>
            <DistanceMeters>NAN</DistanceMeters>
          </Trackpoint>
          <Trackpoint>
            <Time>2019-08-01T16:23:23.000Z</Time>
            <Position>
              <LatitudeDegrees>40.6585384346544742584228515625</LatitudeDegrees>
              <LongitudeDegrees>-4.06680445186793804168701171875</LongitudeDegrees>
            </Position>
            <AltitudeMeters>932.5999755859375</AltitudeMeters>
            <DistanceMeters>NAN</DistanceMeters>
          </Trackpoint>
          <Trackpoint>
            <Time>2019-08-01T16:23:24.000Z</Time>
            <Position>
              <LatitudeDegrees>40.65849803388118743896484375</LatitudeDegrees>
              <LongitudeDegrees>-4.066752232611179351806640625</LongitudeDegrees>
            </Position>
            <AltitudeMeters>933</AltitudeMeters>
            <DistanceMeters>NAN</DistanceMeters>
          </Trackpoint>
          <Trackpoint>
            <Time>2019-08-01T16:23:25.000Z</Time>
            <Position>
              <LatitudeDegrees>40.65845654346048831939697265625</LatitudeDegrees>
              <LongitudeDegrees>-4.06669833697378635406494140625</LongitudeDegrees>
            </Position>
            <AltitudeMeters>933.20001220703125</AltitudeMeters>
            <DistanceMeters>NAN</DistanceMeters>
          </Trackpoint>
          <Trackpoint>
            <Time>2019-08-01T16:23:26.000Z</Time>
            <Position>
              <LatitudeDegrees>40.6584147177636623382568359375</LatitudeDegrees>
              <LongitudeDegrees>-4.066641591489315032958984375</LongitudeDegrees>
            </Position>
            <AltitudeMeters>933.4000244140625</AltitudeMeters>
            <DistanceMeters>NAN</DistanceMeters>
          </Trackpoint>
          <Trackpoint>
            <Time>2019-08-01T16:23:27.000Z</Time>
            <Position>
              <LatitudeDegrees>40.65837197005748748779296875</LatitudeDegrees>
              <LongitudeDegrees>-4.066581912338733673095703125</LongitudeDegrees>
            </Position>
            <AltitudeMeters>933.5999755859375</AltitudeMeters>
            <DistanceMeters>NAN</DistanceMeters>
          </Trackpoint>
          <Trackpoint>
            <Time>2019-08-01T16:23:28.000Z</Time>
            <Position>
              <LatitudeDegrees>40.6583302281796932220458984375</LatitudeDegrees>
              <LongitudeDegrees>-4.066519550979137420654296875</LongitudeDegrees>
            </Position>
            <AltitudeMeters>933.5999755859375</AltitudeMeters>
            <DistanceMeters>NAN</DistanceMeters>
          </Trackpoint>
          <Trackpoint>
            <Time>2019-08-01T16:23:29.000Z</Time>
            <Position>
              <LatitudeDegrees>40.65828924067318439483642578125</LatitudeDegrees>
              <LongitudeDegrees>-4.06645526178181171417236328125</LongitudeDegrees>
            </Position>
            <AltitudeMeters>933.79998779296875</AltitudeMeters>
            <DistanceMeters>NAN</DistanceMeters>
          </Trackpoint>
          <Trackpoint>
            <Time>2019-08-01T16:23:30.000Z</Time>
            <Position>
              <LatitudeDegrees>40.65824917517602443695068359375</LatitudeDegrees>
              <LongitudeDegrees>-4.0663889609277248382568359375</LongitudeDegrees>
            </Position>
            <AltitudeMeters>934</AltitudeMeters>
            <DistanceMeters>NAN</DistanceMeters>
          </Trackpoint>
          <Trackpoint>
            <Time>2019-08-01T16:23:31.000Z</Time>
            <Position>
              <LatitudeDegrees>40.658209361135959625244140625</LatitudeDegrees>
              <LongitudeDegrees>-4.06632215715944766998291015625</LongitudeDegrees>
            </Position>
            <AltitudeMeters>934</AltitudeMeters>
            <DistanceMeters>NAN</DistanceMeters>
          </Trackpoint>
          <Trackpoint>
            <Time>2019-08-01T16:23:32.000Z</Time>
            <Position>
              <LatitudeDegrees>40.6581701338291168212890625</LatitudeDegrees>
              <LongitudeDegrees>-4.06625233590602874755859375</LongitudeDegrees>
            </Position>
            <AltitudeMeters>934.20001220703125</AltitudeMeters>
            <DistanceMeters>NAN</DistanceMeters>
          </Trackpoint>
          <Trackpoint>
            <Time>2019-08-01T16:23:33.000Z</Time>
            <Position>
              <LatitudeDegrees>40.65813316963613033294677734375</LatitudeDegrees>
              <LongitudeDegrees>-4.0661794133484363555908203125</LongitudeDegrees>
            </Position>
            <AltitudeMeters>934.4000244140625</AltitudeMeters>
            <DistanceMeters>NAN</DistanceMeters>
          </Trackpoint>
          <Trackpoint>
            <Time>2019-08-01T16:23:34.000Z</Time>
            <Position>
              <LatitudeDegrees>40.65809838473796844482421875</LatitudeDegrees>
              <LongitudeDegrees>-4.06610406003892421722412109375</LongitudeDegrees>
            </Position>
            <AltitudeMeters>934.79998779296875</AltitudeMeters>
            <DistanceMeters>NAN</DistanceMeters>
          </Trackpoint>
          <Trackpoint>
            <Time>2019-08-01T16:23:35.000Z</Time>
            <Position>
              <LatitudeDegrees>40.6580656953155994415283203125</LatitudeDegrees>
              <LongitudeDegrees>-4.066026695072650909423828125</LongitudeDegrees>
            </Position>
            <AltitudeMeters>935.4000244140625</AltitudeMeters>
            <DistanceMeters>NAN</DistanceMeters>
          </Trackpoint>
          <Trackpoint>
            <Time>2019-08-01T16:23:36.000Z</Time>
            <Position>
              <LatitudeDegrees>40.65803493373095989227294921875</LatitudeDegrees>
              <LongitudeDegrees>-4.06594664789736270904541015625</LongitudeDegrees>
            </Position>
            <AltitudeMeters>935.5999755859375</AltitudeMeters>
            <DistanceMeters>NAN</DistanceMeters>
          </Trackpoint>
          <Trackpoint>
            <Time>2019-08-01T16:23:37.000Z</Time>
            <Position>
              <LatitudeDegrees>40.65803493373095989227294921875</LatitudeDegrees>
              <LongitudeDegrees>-4.06594664789736270904541015625</LongitudeDegrees>
            </Position>
            <AltitudeMeters>935.5999755859375</AltitudeMeters>
            <DistanceMeters>NAN</DistanceMeters>
          </Trackpoint>
          <Trackpoint>
            <Time>2019-08-01T16:23:38.000Z</Time>
            <Position>
              <LatitudeDegrees>40.65797810442745685577392578125</LatitudeDegrees>
              <LongitudeDegrees>-4.06578370369970798492431640625</LongitudeDegrees>
            </Position>
            <AltitudeMeters>935.79998779296875</AltitudeMeters>
            <DistanceMeters>NAN</DistanceMeters>
          </Trackpoint>
          <Trackpoint>
            <Time>2019-08-01T16:23:39.000Z</Time>
            <Position>
              <LatitudeDegrees>40.6579533778131008148193359375</LatitudeDegrees>
              <LongitudeDegrees>-4.06570105813443660736083984375</LongitudeDegrees>
            </Position>
            <AltitudeMeters>935.79998779296875</AltitudeMeters>
            <DistanceMeters>NAN</DistanceMeters>
          </Trackpoint>
          <Trackpoint>
            <Time>2019-08-01T16:23:40.000Z</Time>
            <Position>
              <LatitudeDegrees>40.657931081950664520263671875</LatitudeDegrees>
              <LongitudeDegrees>-4.06561757437884807586669921875</LongitudeDegrees>
            </Position>
            <AltitudeMeters>935.79998779296875</AltitudeMeters>
            <DistanceMeters>NAN</DistanceMeters>
          </Trackpoint>
          <Trackpoint>
            <Time>2019-08-01T16:23:41.000Z</Time>
            <Position>
              <LatitudeDegrees>40.657931081950664520263671875</LatitudeDegrees>
              <LongitudeDegrees>-4.06561757437884807586669921875</LongitudeDegrees>
            </Position>
            <AltitudeMeters>935.79998779296875</AltitudeMeters>
            <DistanceMeters>NAN</DistanceMeters>
          </Trackpoint>
          <Trackpoint>
            <Time>2019-08-01T16:23:42.000Z</Time>
            <Position>
              <LatitudeDegrees>40.65788623876869678497314453125</LatitudeDegrees>
              <LongitudeDegrees>-4.06544775702059268951416015625</LongitudeDegrees>
            </Position>
            <AltitudeMeters>935.79998779296875</AltitudeMeters>
            <DistanceMeters>NAN</DistanceMeters>
          </Trackpoint>
          <Trackpoint>
            <Time>2019-08-01T16:23:43.000Z</Time>
            <Position>
              <LatitudeDegrees>40.65786360763013362884521484375</LatitudeDegrees>
              <LongitudeDegrees>-4.06536008231341838836669921875</LongitudeDegrees>
            </Position>
            <AltitudeMeters>935.79998779296875</AltitudeMeters>
            <DistanceMeters>NAN</DistanceMeters>
          </Trackpoint>
          <Trackpoint>
            <Time>2019-08-01T16:23:44.000Z</Time>
            <Position>
              <LatitudeDegrees>40.65784064121544361114501953125</LatitudeDegrees>
              <LongitudeDegrees>-4.06527064740657806396484375</LongitudeDegrees>
            </Position>
            <AltitudeMeters>935.79998779296875</AltitudeMeters>
            <DistanceMeters>NAN</DistanceMeters>
          </Trackpoint>
          <Trackpoint>
            <Time>2019-08-01T16:23:45.000Z</Time>
            <Position>
              <LatitudeDegrees>40.65781700424849987030029296875</LatitudeDegrees>
              <LongitudeDegrees>-4.06518003903329372406005859375</LongitudeDegrees>
            </Position>
            <AltitudeMeters>935.79998779296875</AltitudeMeters>
            <DistanceMeters>NAN</DistanceMeters>
          </Trackpoint>
          <Trackpoint>
            <Time>2019-08-01T16:23:46.000Z</Time>
            <Position>
              <LatitudeDegrees>40.6577932834625244140625</LatitudeDegrees>
              <LongitudeDegrees>-4.06508917920291423797607421875</LongitudeDegrees>
            </Position>
            <AltitudeMeters>935.79998779296875</AltitudeMeters>
            <DistanceMeters>NAN</DistanceMeters>
          </Trackpoint>
          <Trackpoint>
            <Time>2019-08-01T16:23:47.000Z</Time>
            <Position>
              <LatitudeDegrees>40.657769143581390380859375</LatitudeDegrees>
              <LongitudeDegrees>-4.064998067915439605712890625</LongitudeDegrees>
            </Position>
            <AltitudeMeters>935.79998779296875</AltitudeMeters>
            <DistanceMeters>NAN</DistanceMeters>
          </Trackpoint>
          <Trackpoint>
            <Time>2019-08-01T16:23:48.000Z</Time>
            <Position>
              <LatitudeDegrees>40.657745338976383209228515625</LatitudeDegrees>
              <LongitudeDegrees>-4.06490695662796497344970703125</LongitudeDegrees>
            </Position>
            <AltitudeMeters>935.79998779296875</AltitudeMeters>
            <DistanceMeters>NAN</DistanceMeters>
          </Trackpoint>
          <Trackpoint>
            <Time>2019-08-01T16:23:49.000Z</Time>
            <Position>
              <LatitudeDegrees>40.6577206961810588836669921875</LatitudeDegrees>
              <LongitudeDegrees>-4.0648158453404903411865234375</LongitudeDegrees>
            </Position>
            <AltitudeMeters>935.5999755859375</AltitudeMeters>
            <DistanceMeters>NAN</DistanceMeters>
          </Trackpoint>
          <Trackpoint>
            <Time>2019-08-01T16:23:50.000Z</Time>
            <Position>
              <LatitudeDegrees>40.65769747830927371978759765625</LatitudeDegrees>
              <LongitudeDegrees>-4.06472490169107913970947265625</LongitudeDegrees>
            </Position>
            <AltitudeMeters>935.4000244140625</AltitudeMeters>
            <DistanceMeters>NAN</DistanceMeters>
          </Trackpoint>
          <Trackpoint>
            <Time>2019-08-01T16:23:51.000Z</Time>
            <Position>
              <LatitudeDegrees>40.65767350606620311737060546875</LatitudeDegrees>
              <LongitudeDegrees>-4.06463488005101680755615234375</LongitudeDegrees>
            </Position>
            <AltitudeMeters>935.20001220703125</AltitudeMeters>
            <DistanceMeters>NAN</DistanceMeters>
          </Trackpoint>
          <Trackpoint>
            <Time>2019-08-01T16:23:52.000Z</Time>
            <Position>
              <LatitudeDegrees>40.65764953382313251495361328125</LatitudeDegrees>
              <LongitudeDegrees>-4.06454569660127162933349609375</LongitudeDegrees>
            </Position>
            <AltitudeMeters>935</AltitudeMeters>
            <DistanceMeters>NAN</DistanceMeters>
          </Trackpoint>
          <Trackpoint>
            <Time>2019-08-01T16:23:53.000Z</Time>
            <Position>
              <LatitudeDegrees>40.65762656740844249725341796875</LatitudeDegrees>
              <LongitudeDegrees>-4.0644567646086215972900390625</LongitudeDegrees>
            </Position>
            <AltitudeMeters>935</AltitudeMeters>
            <DistanceMeters>NAN</DistanceMeters>
          </Trackpoint>
          <Trackpoint>
            <Time>2019-08-01T16:23:54.000Z</Time>
            <Position>
              <LatitudeDegrees>40.65760410390794277191162109375</LatitudeDegrees>
              <LongitudeDegrees>-4.0643692575395107269287109375</LongitudeDegrees>
            </Position>
            <AltitudeMeters>935</AltitudeMeters>
            <DistanceMeters>NAN</DistanceMeters>
          </Trackpoint>
          <Trackpoint>
            <Time>2019-08-01T16:23:55.000Z</Time>
            <Position>
              <LatitudeDegrees>40.65758205950260162353515625</LatitudeDegrees>
              <LongitudeDegrees>-4.06428149901330471038818359375</LongitudeDegrees>
            </Position>
            <AltitudeMeters>934.79998779296875</AltitudeMeters>
            <DistanceMeters>NAN</DistanceMeters>
          </Trackpoint>
          <Trackpoint>
            <Time>2019-08-01T16:23:56.000Z</Time>
            <Position>
              <LatitudeDegrees>40.6575597636401653289794921875</LatitudeDegrees>
              <LongitudeDegrees>-4.0641935728490352630615234375</LongitudeDegrees>
            </Position>
            <AltitudeMeters>934.79998779296875</AltitudeMeters>
            <DistanceMeters>NAN</DistanceMeters>
          </Trackpoint>
          <Trackpoint>
            <Time>2019-08-01T16:23:57.000Z</Time>
            <Position>
              <LatitudeDegrees>40.657536797225475311279296875</LatitudeDegrees>
              <LongitudeDegrees>-4.06410531140863895416259765625</LongitudeDegrees>
            </Position>
            <AltitudeMeters>934.5999755859375</AltitudeMeters>
            <DistanceMeters>NAN</DistanceMeters>
          </Trackpoint>
          <Trackpoint>
            <Time>2019-08-01T16:23:58.000Z</Time>
            <Position>
              <LatitudeDegrees>40.65751374699175357818603515625</LatitudeDegrees>
              <LongitudeDegrees>-4.06401679851114749908447265625</LongitudeDegrees>
            </Position>
            <AltitudeMeters>934.5999755859375</AltitudeMeters>
            <DistanceMeters>NAN</DistanceMeters>
          </Trackpoint>
          <Trackpoint>
            <Time>2019-08-01T16:23:59.000Z</Time>
            <Position>
              <LatitudeDegrees>40.65749086439609527587890625</LatitudeDegrees>
              <LongitudeDegrees>-4.06392795033752918243408203125</LongitudeDegrees>
            </Position>
            <AltitudeMeters>934.5999755859375</AltitudeMeters>
            <DistanceMeters>NAN</DistanceMeters>
          </Trackpoint>
          <Trackpoint>
            <Time>2019-08-01T16:24:00.000Z</Time>
            <Position>
              <LatitudeDegrees>40.65746865235269069671630859375</LatitudeDegrees>
              <LongitudeDegrees>-4.06383876688778400421142578125</LongitudeDegrees>
            </Position>
            <AltitudeMeters>934.4000244140625</AltitudeMeters>
            <DistanceMeters>NAN</DistanceMeters>
          </Trackpoint>
          <Trackpoint>
            <Time>2019-08-01T16:24:01.000Z</Time>
            <Position>
              <LatitudeDegrees>40.65744635649025440216064453125</LatitudeDegrees>
              <LongitudeDegrees>-4.06374908052384853363037109375</LongitudeDegrees>
            </Position>
            <AltitudeMeters>934.4000244140625</AltitudeMeters>
            <DistanceMeters>NAN</DistanceMeters>
          </Trackpoint>
          <Trackpoint>
            <Time>2019-08-01T16:24:02.000Z</Time>
            <Position>
              <LatitudeDegrees>40.6574239768087863922119140625</LatitudeDegrees>
              <LongitudeDegrees>-4.063658975064754486083984375</LongitudeDegrees>
            </Position>
            <AltitudeMeters>934.4000244140625</AltitudeMeters>
            <DistanceMeters>NAN</DistanceMeters>
          </Trackpoint>
          <Trackpoint>
            <Time>2019-08-01T16:24:03.000Z</Time>
            <Position>
              <LatitudeDegrees>40.65740243531763553619384765625</LatitudeDegrees>
              <LongitudeDegrees>-4.0635682828724384307861328125</LongitudeDegrees>
            </Position>
            <AltitudeMeters>934.20001220703125</AltitudeMeters>
            <DistanceMeters>NAN</DistanceMeters>
          </Trackpoint>
          <Trackpoint>
            <Time>2019-08-01T16:24:04.000Z</Time>
            <Position>
              <LatitudeDegrees>40.6573820672929286956787109375</LatitudeDegrees>
              <LongitudeDegrees>-4.0634774230420589447021484375</LongitudeDegrees>
            </Position>
            <AltitudeMeters>934.20001220703125</AltitudeMeters>
            <DistanceMeters>NAN</DistanceMeters>
          </Trackpoint>
          <Trackpoint>
            <Time>2019-08-01T16:24:05.000Z</Time>
            <Position>
              <LatitudeDegrees>40.65736136399209499359130859375</LatitudeDegrees>
              <LongitudeDegrees>-4.06338748522102832794189453125</LongitudeDegrees>
            </Position>
            <AltitudeMeters>934.20001220703125</AltitudeMeters>
            <DistanceMeters>NAN</DistanceMeters>
          </Trackpoint>
          <Trackpoint>
            <Time>2019-08-01T16:24:06.000Z</Time>
            <Position>
              <LatitudeDegrees>40.657340995967388153076171875</LatitudeDegrees>
              <LongitudeDegrees>-4.0632980503141880035400390625</LongitudeDegrees>
            </Position>
            <AltitudeMeters>934.20001220703125</AltitudeMeters>
            <DistanceMeters>NAN</DistanceMeters>
          </Trackpoint>
          <Trackpoint>
            <Time>2019-08-01T16:24:07.000Z</Time>
            <Position>
              <LatitudeDegrees>40.65732113085687160491943359375</LatitudeDegrees>
              <LongitudeDegrees>-4.0632085315883159637451171875</LongitudeDegrees>
            </Position>
            <AltitudeMeters>934.20001220703125</AltitudeMeters>
            <DistanceMeters>NAN</DistanceMeters>
          </Trackpoint>
          <Trackpoint>
            <Time>2019-08-01T16:24:08.000Z</Time>
            <Position>
              <LatitudeDegrees>40.65730101428925991058349609375</LatitudeDegrees>
              <LongitudeDegrees>-4.06311842612922191619873046875</LongitudeDegrees>
            </Position>
            <AltitudeMeters>934.20001220703125</AltitudeMeters>
            <DistanceMeters>NAN</DistanceMeters>
          </Trackpoint>
          <Trackpoint>
            <Time>2019-08-01T16:24:09.000Z</Time>
            <Position>
              <LatitudeDegrees>40.6572801433503627777099609375</LatitudeDegrees>
              <LongitudeDegrees>-4.06302739866077899932861328125</LongitudeDegrees>
            </Position>
            <AltitudeMeters>934.20001220703125</AltitudeMeters>
            <DistanceMeters>NAN</DistanceMeters>
          </Trackpoint>
          <Trackpoint>
            <Time>2019-08-01T16:24:10.000Z</Time>
            <Position>
              <LatitudeDegrees>40.65725843422114849090576171875</LatitudeDegrees>
              <LongitudeDegrees>-4.06293687410652637481689453125</LongitudeDegrees>
            </Position>
            <AltitudeMeters>934.20001220703125</AltitudeMeters>
            <DistanceMeters>NAN</DistanceMeters>
          </Trackpoint>
          <Trackpoint>
            <Time>2019-08-01T16:24:11.000Z</Time>
            <Position>
              <LatitudeDegrees>40.65723605453968048095703125</LatitudeDegrees>
              <LongitudeDegrees>-4.06284702010452747344970703125</LongitudeDegrees>
            </Position>
            <AltitudeMeters>934</AltitudeMeters>
            <DistanceMeters>NAN</DistanceMeters>
          </Trackpoint>
          <Trackpoint>
            <Time>2019-08-01T16:24:12.000Z</Time>
            <Position>
              <LatitudeDegrees>40.6572139263153076171875</LatitudeDegrees>
              <LongitudeDegrees>-4.06275766901671886444091796875</LongitudeDegrees>
            </Position>
            <AltitudeMeters>934</AltitudeMeters>
            <DistanceMeters>NAN</DistanceMeters>
          </Trackpoint>
          <Trackpoint>
            <Time>2019-08-01T16:24:13.000Z</Time>
            <Position>
              <LatitudeDegrees>40.65719179809093475341796875</LatitudeDegrees>
              <LongitudeDegrees>-4.0626682341098785400390625</LongitudeDegrees>
            </Position>
            <AltitudeMeters>933.79998779296875</AltitudeMeters>
            <DistanceMeters>NAN</DistanceMeters>
          </Trackpoint>
          <Trackpoint>
            <Time>2019-08-01T16:24:14.000Z</Time>
            <Position>
              <LatitudeDegrees>40.65716891549527645111083984375</LatitudeDegrees>
              <LongitudeDegrees>-4.06257946975529193878173828125</LongitudeDegrees>
            </Position>
            <AltitudeMeters>933.79998779296875</AltitudeMeters>
            <DistanceMeters>NAN</DistanceMeters>
          </Trackpoint>
          <Trackpoint>
            <Time>2019-08-01T16:24:15.000Z</Time>
            <Position>
              <LatitudeDegrees>40.65714620053768157958984375</LatitudeDegrees>
              <LongitudeDegrees>-4.0624907054007053375244140625</LongitudeDegrees>
            </Position>
            <AltitudeMeters>933.79998779296875</AltitudeMeters>
            <DistanceMeters>NAN</DistanceMeters>
          </Trackpoint>
          <Trackpoint>
            <Time>2019-08-01T16:24:16.000Z</Time>
            <Position>
              <LatitudeDegrees>40.6571232341229915618896484375</LatitudeDegrees>
              <LongitudeDegrees>-4.0624031983315944671630859375</LongitudeDegrees>
            </Position>
            <AltitudeMeters>933.5999755859375</AltitudeMeters>
            <DistanceMeters>NAN</DistanceMeters>
          </Trackpoint>
          <Trackpoint>
            <Time>2019-08-01T16:24:17.000Z</Time>
            <Position>
              <LatitudeDegrees>40.657099597156047821044921875</LatitudeDegrees>
              <LongitudeDegrees>-4.062316529452800750732421875</LongitudeDegrees>
            </Position>
            <AltitudeMeters>933.5999755859375</AltitudeMeters>
            <DistanceMeters>NAN</DistanceMeters>
          </Trackpoint>
          <Trackpoint>
            <Time>2019-08-01T16:24:18.000Z</Time>
            <Position>
              <LatitudeDegrees>40.65707587637007236480712890625</LatitudeDegrees>
              <LongitudeDegrees>-4.06222977675497531890869140625</LongitudeDegrees>
            </Position>
            <AltitudeMeters>933.5999755859375</AltitudeMeters>
            <DistanceMeters>NAN</DistanceMeters>
          </Trackpoint>
          <Trackpoint>
            <Time>2019-08-01T16:24:19.000Z</Time>
            <Position>
              <LatitudeDegrees>40.6570528261363506317138671875</LatitudeDegrees>
              <LongitudeDegrees>-4.062143526971340179443359375</LongitudeDegrees>
            </Position>
            <AltitudeMeters>933.5999755859375</AltitudeMeters>
            <DistanceMeters>NAN</DistanceMeters>
          </Trackpoint>
          <Trackpoint>
            <Time>2019-08-01T16:24:20.000Z</Time>
            <Position>
              <LatitudeDegrees>40.6570301949977874755859375</LatitudeDegrees>
              <LongitudeDegrees>-4.06205727718770503997802734375</LongitudeDegrees>
            </Position>
            <AltitudeMeters>933.5999755859375</AltitudeMeters>
            <DistanceMeters>NAN</DistanceMeters>
          </Trackpoint>
          <Trackpoint>
            <Time>2019-08-01T16:24:21.000Z</Time>
            <Position>
              <LatitudeDegrees>40.65700815059244632720947265625</LatitudeDegrees>
              <LongitudeDegrees>-4.0619708597660064697265625</LongitudeDegrees>
            </Position>
            <AltitudeMeters>933.5999755859375</AltitudeMeters>
            <DistanceMeters>NAN</DistanceMeters>
          </Trackpoint>
          <Trackpoint>
            <Time>2019-08-01T16:24:22.000Z</Time>
            <Position>
              <LatitudeDegrees>40.65698535181581974029541015625</LatitudeDegrees>
              <LongitudeDegrees>-4.06188427470624446868896484375</LongitudeDegrees>
            </Position>
            <AltitudeMeters>933.5999755859375</AltitudeMeters>
            <DistanceMeters>NAN</DistanceMeters>
          </Trackpoint>
          <Trackpoint>
            <Time>2019-08-01T16:24:23.000Z</Time>
            <Position>
              <LatitudeDegrees>40.6569619663059711456298828125</LatitudeDegrees>
              <LongitudeDegrees>-4.06179777346551418304443359375</LongitudeDegrees>
            </Position>
            <AltitudeMeters>933.5999755859375</AltitudeMeters>
            <DistanceMeters>NAN</DistanceMeters>
          </Trackpoint>
          <Trackpoint>
            <Time>2019-08-01T16:24:24.000Z</Time>
            <Position>
              <LatitudeDegrees>40.6569388322532176971435546875</LatitudeDegrees>
              <LongitudeDegrees>-4.0617111884057521820068359375</LongitudeDegrees>
            </Position>
            <AltitudeMeters>933.5999755859375</AltitudeMeters>
            <DistanceMeters>NAN</DistanceMeters>
          </Trackpoint>
          <Trackpoint>
            <Time>2019-08-01T16:24:25.000Z</Time>
            <Position>
              <LatitudeDegrees>40.6569388322532176971435546875</LatitudeDegrees>
              <LongitudeDegrees>-4.0617111884057521820068359375</LongitudeDegrees>
            </Position>
            <AltitudeMeters>933.4000244140625</AltitudeMeters>
            <DistanceMeters>NAN</DistanceMeters>
          </Trackpoint>
          <Trackpoint>
            <Time>2019-08-01T16:24:26.000Z</Time>
            <Position>
              <LatitudeDegrees>40.65689432434737682342529296875</LatitudeDegrees>
              <LongitudeDegrees>-4.061539359390735626220703125</LongitudeDegrees>
            </Position>
            <AltitudeMeters>933.5999755859375</AltitudeMeters>
            <DistanceMeters>NAN</DistanceMeters>
          </Trackpoint>
          <Trackpoint>
            <Time>2019-08-01T16:24:27.000Z</Time>
            <Position>
              <LatitudeDegrees>40.65689432434737682342529296875</LatitudeDegrees>
              <LongitudeDegrees>-4.061539359390735626220703125</LongitudeDegrees>
            </Position>
            <AltitudeMeters>933.5999755859375</AltitudeMeters>
            <DistanceMeters>NAN</DistanceMeters>
          </Trackpoint>
          <Trackpoint>
            <Time>2019-08-01T16:24:28.000Z</Time>
            <Position>
              <LatitudeDegrees>40.65684981644153594970703125</LatitudeDegrees>
              <LongitudeDegrees>-4.061371386051177978515625</LongitudeDegrees>
            </Position>
            <AltitudeMeters>933.4000244140625</AltitudeMeters>
            <DistanceMeters>NAN</DistanceMeters>
          </Trackpoint>
          <Trackpoint>
            <Time>2019-08-01T16:24:29.000Z</Time>
            <Position>
              <LatitudeDegrees>40.65682844258844852447509765625</LatitudeDegrees>
              <LongitudeDegrees>-4.06128832139074802398681640625</LongitudeDegrees>
            </Position>
            <AltitudeMeters>933.4000244140625</AltitudeMeters>
            <DistanceMeters>NAN</DistanceMeters>
          </Trackpoint>
          <Trackpoint>
            <Time>2019-08-01T16:24:30.000Z</Time>
            <Position>
              <LatitudeDegrees>40.6568060629069805145263671875</LatitudeDegrees>
              <LongitudeDegrees>-4.061205424368381500244140625</LongitudeDegrees>
            </Position>
            <AltitudeMeters>933.4000244140625</AltitudeMeters>
            <DistanceMeters>NAN</DistanceMeters>
          </Trackpoint>
          <Trackpoint>
            <Time>2019-08-01T16:24:31.000Z</Time>
            <Position>
              <LatitudeDegrees>40.65678385086357593536376953125</LatitudeDegrees>
              <LongitudeDegrees>-4.06111950986087322235107421875</LongitudeDegrees>
            </Position>
            <AltitudeMeters>933.4000244140625</AltitudeMeters>
            <DistanceMeters>NAN</DistanceMeters>
          </Trackpoint>
          <Trackpoint>
            <Time>2019-08-01T16:24:32.000Z</Time>
            <Position>
              <LatitudeDegrees>40.6567611359059810638427734375</LatitudeDegrees>
              <LongitudeDegrees>-4.06103116460144519805908203125</LongitudeDegrees>
            </Position>
            <AltitudeMeters>933.4000244140625</AltitudeMeters>
            <DistanceMeters>NAN</DistanceMeters>
          </Trackpoint>
          <Trackpoint>
            <Time>2019-08-01T16:24:33.000Z</Time>
            <Position>
              <LatitudeDegrees>40.656738169491291046142578125</LatitudeDegrees>
              <LongitudeDegrees>-4.060941226780414581298828125</LongitudeDegrees>
            </Position>
            <AltitudeMeters>933.4000244140625</AltitudeMeters>
            <DistanceMeters>NAN</DistanceMeters>
          </Trackpoint>
          <Trackpoint>
            <Time>2019-08-01T16:24:34.000Z</Time>
            <Position>
              <LatitudeDegrees>40.65671377815306186676025390625</LatitudeDegrees>
              <LongitudeDegrees>-4.060850031673908233642578125</LongitudeDegrees>
            </Position>
            <AltitudeMeters>933.4000244140625</AltitudeMeters>
            <DistanceMeters>NAN</DistanceMeters>
          </Trackpoint>
          <Trackpoint>
            <Time>2019-08-01T16:24:35.000Z</Time>
            <Position>
              <LatitudeDegrees>40.65668913535773754119873046875</LatitudeDegrees>
              <LongitudeDegrees>-4.0607590042054653167724609375</LongitudeDegrees>
            </Position>
            <AltitudeMeters>933.4000244140625</AltitudeMeters>
            <DistanceMeters>NAN</DistanceMeters>
          </Trackpoint>
          <Trackpoint>
            <Time>2019-08-01T16:24:36.000Z</Time>
            <Position>
              <LatitudeDegrees>40.656665079295635223388671875</LatitudeDegrees>
              <LongitudeDegrees>-4.06066822819411754608154296875</LongitudeDegrees>
            </Position>
            <AltitudeMeters>933.5999755859375</AltitudeMeters>
            <DistanceMeters>NAN</DistanceMeters>
          </Trackpoint>
          <Trackpoint>
            <Time>2019-08-01T16:24:37.000Z</Time>
            <Position>
              <LatitudeDegrees>40.65664060413837432861328125</LatitudeDegrees>
              <LongitudeDegrees>-4.06057770363986492156982421875</LongitudeDegrees>
            </Position>
            <AltitudeMeters>933.5999755859375</AltitudeMeters>
            <DistanceMeters>NAN</DistanceMeters>
          </Trackpoint>
          <Trackpoint>
            <Time>2019-08-01T16:24:38.000Z</Time>
            <Position>
              <LatitudeDegrees>40.6566159613430500030517578125</LatitudeDegrees>
              <LongitudeDegrees>-4.0604881010949611663818359375</LongitudeDegrees>
            </Position>
            <AltitudeMeters>933.5999755859375</AltitudeMeters>
            <DistanceMeters>NAN</DistanceMeters>
          </Trackpoint>
          <Trackpoint>
            <Time>2019-08-01T16:24:39.000Z</Time>
            <Position>
              <LatitudeDegrees>40.65659190528094768524169921875</LatitudeDegrees>
              <LongitudeDegrees>-4.06039816327393054962158203125</LongitudeDegrees>
            </Position>
            <AltitudeMeters>933.5999755859375</AltitudeMeters>
            <DistanceMeters>NAN</DistanceMeters>
          </Trackpoint>
          <Trackpoint>
            <Time>2019-08-01T16:24:40.000Z</Time>
            <Position>
              <LatitudeDegrees>40.6565680168569087982177734375</LatitudeDegrees>
              <LongitudeDegrees>-4.06030730344355106353759765625</LongitudeDegrees>
            </Position>
            <AltitudeMeters>933.5999755859375</AltitudeMeters>
            <DistanceMeters>NAN</DistanceMeters>
          </Trackpoint>
          <Trackpoint>
            <Time>2019-08-01T16:24:41.000Z</Time>
            <Position>
              <LatitudeDegrees>40.65654412843286991119384765625</LatitudeDegrees>
              <LongitudeDegrees>-4.06021644361317157745361328125</LongitudeDegrees>
            </Position>
            <AltitudeMeters>933.5999755859375</AltitudeMeters>
            <DistanceMeters>NAN</DistanceMeters>
          </Trackpoint>
          <Trackpoint>
            <Time>2019-08-01T16:24:42.000Z</Time>
            <Position>
              <LatitudeDegrees>40.656520240008831024169921875</LatitudeDegrees>
              <LongitudeDegrees>-4.0601253323256969451904296875</LongitudeDegrees>
            </Position>
            <AltitudeMeters>933.5999755859375</AltitudeMeters>
            <DistanceMeters>NAN</DistanceMeters>
          </Trackpoint>
          <Trackpoint>
            <Time>2019-08-01T16:24:43.000Z</Time>
            <Position>
              <LatitudeDegrees>40.65649601630866527557373046875</LatitudeDegrees>
              <LongitudeDegrees>-4.06003422103822231292724609375</LongitudeDegrees>
            </Position>
            <AltitudeMeters>933.5999755859375</AltitudeMeters>
            <DistanceMeters>NAN</DistanceMeters>
          </Trackpoint>
          <Trackpoint>
            <Time>2019-08-01T16:24:44.000Z</Time>
            <Position>
              <LatitudeDegrees>40.65647187642753124237060546875</LatitudeDegrees>
              <LongitudeDegrees>-4.05994218774139881134033203125</LongitudeDegrees>
            </Position>
            <AltitudeMeters>933.5999755859375</AltitudeMeters>
            <DistanceMeters>NAN</DistanceMeters>
          </Trackpoint>
          <Trackpoint>
            <Time>2019-08-01T16:24:45.000Z</Time>
            <Position>
              <LatitudeDegrees>40.65647187642753124237060546875</LatitudeDegrees>
              <LongitudeDegrees>-4.05994218774139881134033203125</LongitudeDegrees>
            </Position>
            <AltitudeMeters>933.5999755859375</AltitudeMeters>
            <DistanceMeters>NAN</DistanceMeters>
          </Trackpoint>
          <Trackpoint>
            <Time>2019-08-01T16:24:46.000Z</Time>
            <Position>
              <LatitudeDegrees>40.6564221717417240142822265625</LatitudeDegrees>
              <LongitudeDegrees>-4.0597568638622760772705078125</LongitudeDegrees>
            </Position>
            <AltitudeMeters>933.5999755859375</AltitudeMeters>
            <DistanceMeters>NAN</DistanceMeters>
          </Trackpoint>
          <Trackpoint>
            <Time>2019-08-01T16:24:47.000Z</Time>
            <Position>
              <LatitudeDegrees>40.6564221717417240142822265625</LatitudeDegrees>
              <LongitudeDegrees>-4.0597568638622760772705078125</LongitudeDegrees>
            </Position>
            <AltitudeMeters>933.5999755859375</AltitudeMeters>
            <DistanceMeters>NAN</DistanceMeters>
          </Trackpoint>
          <Trackpoint>
            <Time>2019-08-01T16:24:48.000Z</Time>
            <Position>
              <LatitudeDegrees>40.65637296997010707855224609375</LatitudeDegrees>
              <LongitudeDegrees>-4.05957036651670932769775390625</LongitudeDegrees>
            </Position>
            <AltitudeMeters>933.5999755859375</AltitudeMeters>
            <DistanceMeters>NAN</DistanceMeters>
          </Trackpoint>
          <Trackpoint>
            <Time>2019-08-01T16:24:49.000Z</Time>
            <Position>
              <LatitudeDegrees>40.65634832717478275299072265625</LatitudeDegrees>
              <LongitudeDegrees>-4.0594782494008541107177734375</LongitudeDegrees>
            </Position>
            <AltitudeMeters>933.5999755859375</AltitudeMeters>
            <DistanceMeters>NAN</DistanceMeters>
          </Trackpoint>
          <Trackpoint>
            <Time>2019-08-01T16:24:50.000Z</Time>
            <Position>
              <LatitudeDegrees>40.65632401965558528900146484375</LatitudeDegrees>
              <LongitudeDegrees>-4.05938780866563320159912109375</LongitudeDegrees>
            </Position>
            <AltitudeMeters>933.5999755859375</AltitudeMeters>
            <DistanceMeters>NAN</DistanceMeters>
          </Trackpoint>
          <Trackpoint>
            <Time>2019-08-01T16:24:51.000Z</Time>
            <Position>
              <LatitudeDegrees>40.6563001312315464019775390625</LatitudeDegrees>
              <LongitudeDegrees>-4.05929602682590484619140625</LongitudeDegrees>
            </Position>
            <AltitudeMeters>933.5999755859375</AltitudeMeters>
            <DistanceMeters>NAN</DistanceMeters>
          </Trackpoint>
          <Trackpoint>
            <Time>2019-08-01T16:24:52.000Z</Time>
            <Position>
              <LatitudeDegrees>40.656276158988475799560546875</LatitudeDegrees>
              <LongitudeDegrees>-4.05920441262423992156982421875</LongitudeDegrees>
            </Position>
            <AltitudeMeters>933.5999755859375</AltitudeMeters>
            <DistanceMeters>NAN</DistanceMeters>
          </Trackpoint>
          <Trackpoint>
            <Time>2019-08-01T16:24:53.000Z</Time>
            <Position>
              <LatitudeDegrees>40.65625160001218318939208984375</LatitudeDegrees>
              <LongitudeDegrees>-4.0591138042509555816650390625</LongitudeDegrees>
            </Position>
            <AltitudeMeters>933.79998779296875</AltitudeMeters>
            <DistanceMeters>NAN</DistanceMeters>
          </Trackpoint>
          <Trackpoint>
            <Time>2019-08-01T16:24:54.000Z</Time>
            <Position>
              <LatitudeDegrees>40.65622729249298572540283203125</LatitudeDegrees>
              <LongitudeDegrees>-4.05902244150638580322265625</LongitudeDegrees>
            </Position>
            <AltitudeMeters>933.79998779296875</AltitudeMeters>
            <DistanceMeters>NAN</DistanceMeters>
          </Trackpoint>
          <Trackpoint>
            <Time>2019-08-01T16:24:55.000Z</Time>
            <Position>
              <LatitudeDegrees>40.656202733516693115234375</LatitudeDegrees>
              <LongitudeDegrees>-4.0589304082095623016357421875</LongitudeDegrees>
            </Position>
            <AltitudeMeters>933.79998779296875</AltitudeMeters>
            <DistanceMeters>NAN</DistanceMeters>
          </Trackpoint>
          <Trackpoint>
            <Time>2019-08-01T16:24:56.000Z</Time>
            <Position>
              <LatitudeDegrees>40.65617767162621021270751953125</LatitudeDegrees>
              <LongitudeDegrees>-4.05883762054145336151123046875</LongitudeDegrees>
            </Position>
            <AltitudeMeters>934</AltitudeMeters>
            <DistanceMeters>NAN</DistanceMeters>
          </Trackpoint>
          <Trackpoint>
            <Time>2019-08-01T16:24:57.000Z</Time>
            <Position>
              <LatitudeDegrees>40.65615152008831501007080078125</LatitudeDegrees>
              <LongitudeDegrees>-4.05874424614012241363525390625</LongitudeDegrees>
            </Position>
            <AltitudeMeters>934.20001220703125</AltitudeMeters>
            <DistanceMeters>NAN</DistanceMeters>
          </Trackpoint>
          <Trackpoint>
            <Time>2019-08-01T16:24:58.000Z</Time>
            <Position>
              <LatitudeDegrees>40.656123943626880645751953125</LatitudeDegrees>
              <LongitudeDegrees>-4.05865154229104518890380859375</LongitudeDegrees>
            </Position>
            <AltitudeMeters>934.20001220703125</AltitudeMeters>
            <DistanceMeters>NAN</DistanceMeters>
          </Trackpoint>
          <Trackpoint>
            <Time>2019-08-01T16:24:59.000Z</Time>
            <Position>
              <LatitudeDegrees>40.656095109879970550537109375</LatitudeDegrees>
              <LongitudeDegrees>-4.05855967663228511810302734375</LongitudeDegrees>
            </Position>
            <AltitudeMeters>934.20001220703125</AltitudeMeters>
            <DistanceMeters>NAN</DistanceMeters>
          </Trackpoint>
          <Trackpoint>
            <Time>2019-08-01T16:25:00.000Z</Time>
            <Position>
              <LatitudeDegrees>40.6560651026666164398193359375</LatitudeDegrees>
              <LongitudeDegrees>-4.05846881680190563201904296875</LongitudeDegrees>
            </Position>
            <AltitudeMeters>934.20001220703125</AltitudeMeters>
            <DistanceMeters>NAN</DistanceMeters>
          </Trackpoint>
          <Trackpoint>
            <Time>2019-08-01T16:25:01.000Z</Time>
            <Position>
              <LatitudeDegrees>40.65603417344391345977783203125</LatitudeDegrees>
              <LongitudeDegrees>-4.0583782084286212921142578125</LongitudeDegrees>
            </Position>
            <AltitudeMeters>934.20001220703125</AltitudeMeters>
            <DistanceMeters>NAN</DistanceMeters>
          </Trackpoint>
          <Trackpoint>
            <Time>2019-08-01T16:25:02.000Z</Time>
            <Position>
              <LatitudeDegrees>40.65600282512605190277099609375</LatitudeDegrees>
              <LongitudeDegrees>-4.0582881867885589599609375</LongitudeDegrees>
            </Position>
            <AltitudeMeters>934.20001220703125</AltitudeMeters>
            <DistanceMeters>NAN</DistanceMeters>
          </Trackpoint>
          <Trackpoint>
            <Time>2019-08-01T16:25:03.000Z</Time>
            <Position>
              <LatitudeDegrees>40.65597030334174633026123046875</LatitudeDegrees>
              <LongitudeDegrees>-4.05819942243397235870361328125</LongitudeDegrees>
            </Position>
            <AltitudeMeters>934.20001220703125</AltitudeMeters>
            <DistanceMeters>NAN</DistanceMeters>
          </Trackpoint>
          <Trackpoint>
            <Time>2019-08-01T16:25:04.000Z</Time>
            <Position>
              <LatitudeDegrees>40.65597030334174633026123046875</LatitudeDegrees>
              <LongitudeDegrees>-4.05819942243397235870361328125</LongitudeDegrees>
            </Position>
            <AltitudeMeters>934.20001220703125</AltitudeMeters>
            <DistanceMeters>NAN</DistanceMeters>
          </Trackpoint>
          <Trackpoint>
            <Time>2019-08-01T16:25:05.000Z</Time>
            <Position>
              <LatitudeDegrees>40.6559038348495960235595703125</LatitudeDegrees>
              <LongitudeDegrees>-4.0580208040773868560791015625</LongitudeDegrees>
            </Position>
            <AltitudeMeters>934.20001220703125</AltitudeMeters>
            <DistanceMeters>NAN</DistanceMeters>
          </Trackpoint>
          <Trackpoint>
            <Time>2019-08-01T16:25:06.000Z</Time>
            <Position>
              <LatitudeDegrees>40.6558689661324024200439453125</LatitudeDegrees>
              <LongitudeDegrees>-4.05793053098022937774658203125</LongitudeDegrees>
            </Position>
            <AltitudeMeters>934.20001220703125</AltitudeMeters>
            <DistanceMeters>NAN</DistanceMeters>
          </Trackpoint>
          <Trackpoint>
            <Time>2019-08-01T16:25:07.000Z</Time>
            <Position>
              <LatitudeDegrees>40.65583460032939910888671875</LatitudeDegrees>
              <LongitudeDegrees>-4.05783900059759616851806640625</LongitudeDegrees>
            </Position>
            <AltitudeMeters>934.20001220703125</AltitudeMeters>
            <DistanceMeters>NAN</DistanceMeters>
          </Trackpoint>
          <Trackpoint>
            <Time>2019-08-01T16:25:08.000Z</Time>
            <Position>
              <LatitudeDegrees>40.6558005698025226593017578125</LatitudeDegrees>
              <LongitudeDegrees>-4.05774696730077266693115234375</LongitudeDegrees>
            </Position>
            <AltitudeMeters>934.20001220703125</AltitudeMeters>
            <DistanceMeters>NAN</DistanceMeters>
          </Trackpoint>
          <Trackpoint>
            <Time>2019-08-01T16:25:09.000Z</Time>
            <Position>
              <LatitudeDegrees>40.65576695837080478668212890625</LatitudeDegrees>
              <LongitudeDegrees>-4.0576560236513614654541015625</LongitudeDegrees>
            </Position>
            <AltitudeMeters>934</AltitudeMeters>
            <DistanceMeters>NAN</DistanceMeters>
          </Trackpoint>
          <Trackpoint>
            <Time>2019-08-01T16:25:10.000Z</Time>
            <Position>
              <LatitudeDegrees>40.65573393367230892181396484375</LatitudeDegrees>
              <LongitudeDegrees>-4.05756524764001369476318359375</LongitudeDegrees>
            </Position>
            <AltitudeMeters>934</AltitudeMeters>
            <DistanceMeters>NAN</DistanceMeters>
          </Trackpoint>
          <Trackpoint>
            <Time>2019-08-01T16:25:11.000Z</Time>
            <Position>
              <LatitudeDegrees>40.65570007078349590301513671875</LatitudeDegrees>
              <LongitudeDegrees>-4.05747522599995136260986328125</LongitudeDegrees>
            </Position>
            <AltitudeMeters>934</AltitudeMeters>
            <DistanceMeters>NAN</DistanceMeters>
          </Trackpoint>
          <Trackpoint>
            <Time>2019-08-01T16:25:12.000Z</Time>
            <Position>
              <LatitudeDegrees>40.65570007078349590301513671875</LatitudeDegrees>
              <LongitudeDegrees>-4.05747522599995136260986328125</LongitudeDegrees>
            </Position>
            <AltitudeMeters>933.79998779296875</AltitudeMeters>
            <DistanceMeters>NAN</DistanceMeters>
          </Trackpoint>
          <Trackpoint>
            <Time>2019-08-01T16:25:13.000Z</Time>
            <Position>
              <LatitudeDegrees>40.65563133917748928070068359375</LatitudeDegrees>
              <LongitudeDegrees>-4.05729602091014385223388671875</LongitudeDegrees>
            </Position>
            <AltitudeMeters>933.79998779296875</AltitudeMeters>
            <DistanceMeters>NAN</DistanceMeters>
          </Trackpoint>
          <Trackpoint>
            <Time>2019-08-01T16:25:14.000Z</Time>
            <Position>
              <LatitudeDegrees>40.655596219003200531005859375</LatitudeDegrees>
              <LongitudeDegrees>-4.05720599927008152008056640625</LongitudeDegrees>
            </Position>
            <AltitudeMeters>933.79998779296875</AltitudeMeters>
            <DistanceMeters>NAN</DistanceMeters>
          </Trackpoint>
          <Trackpoint>
            <Time>2019-08-01T16:25:15.000Z</Time>
            <Position>
              <LatitudeDegrees>40.655561350286006927490234375</LatitudeDegrees>
              <LongitudeDegrees>-4.0571160614490509033203125</LongitudeDegrees>
            </Position>
            <AltitudeMeters>933.79998779296875</AltitudeMeters>
            <DistanceMeters>NAN</DistanceMeters>
          </Trackpoint>
          <Trackpoint>
            <Time>2019-08-01T16:25:16.000Z</Time>
            <Position>
              <LatitudeDegrees>40.6555276550352573394775390625</LatitudeDegrees>
              <LongitudeDegrees>-4.05702545307576656341552734375</LongitudeDegrees>
            </Position>
            <AltitudeMeters>933.79998779296875</AltitudeMeters>
            <DistanceMeters>NAN</DistanceMeters>
          </Trackpoint>
          <Trackpoint>
            <Time>2019-08-01T16:25:17.000Z</Time>
            <Position>
              <LatitudeDegrees>40.65549395978450775146484375</LatitudeDegrees>
              <LongitudeDegrees>-4.05693434178829193115234375</LongitudeDegrees>
            </Position>
            <AltitudeMeters>933.79998779296875</AltitudeMeters>
            <DistanceMeters>NAN</DistanceMeters>
          </Trackpoint>
          <Trackpoint>
            <Time>2019-08-01T16:25:18.000Z</Time>
            <Position>
              <LatitudeDegrees>40.655460096895694732666015625</LatitudeDegrees>
              <LongitudeDegrees>-4.05684138648211956024169921875</LongitudeDegrees>
            </Position>
            <AltitudeMeters>933.79998779296875</AltitudeMeters>
            <DistanceMeters>NAN</DistanceMeters>
          </Trackpoint>
          <Trackpoint>
            <Time>2019-08-01T16:25:19.000Z</Time>
            <Position>
              <LatitudeDegrees>40.6554260663688182830810546875</LatitudeDegrees>
              <LongitudeDegrees>-4.0567511133849620819091796875</LongitudeDegrees>
            </Position>
            <AltitudeMeters>933.79998779296875</AltitudeMeters>
            <DistanceMeters>NAN</DistanceMeters>
          </Trackpoint>
          <Trackpoint>
            <Time>2019-08-01T16:25:20.000Z</Time>
            <Position>
              <LatitudeDegrees>40.6554260663688182830810546875</LatitudeDegrees>
              <LongitudeDegrees>-4.0567511133849620819091796875</LongitudeDegrees>
            </Position>
            <AltitudeMeters>933.79998779296875</AltitudeMeters>
            <DistanceMeters>NAN</DistanceMeters>
          </Trackpoint>
          <Trackpoint>
            <Time>2019-08-01T16:25:21.000Z</Time>
            <Position>
              <LatitudeDegrees>40.65535850822925567626953125</LatitudeDegrees>
              <LongitudeDegrees>-4.0565714053809642791748046875</LongitudeDegrees>
            </Position>
            <AltitudeMeters>933.79998779296875</AltitudeMeters>
            <DistanceMeters>NAN</DistanceMeters>
          </Trackpoint>
          <Trackpoint>
            <Time>2019-08-01T16:25:22.000Z</Time>
            <Position>
              <LatitudeDegrees>40.6553251482546329498291015625</LatitudeDegrees>
              <LongitudeDegrees>-4.056482054293155670166015625</LongitudeDegrees>
            </Position>
            <AltitudeMeters>933.79998779296875</AltitudeMeters>
            <DistanceMeters>NAN</DistanceMeters>
          </Trackpoint>
          <Trackpoint>
            <Time>2019-08-01T16:25:23.000Z</Time>
            <Position>
              <LatitudeDegrees>40.65529145300388336181640625</LatitudeDegrees>
              <LongitudeDegrees>-4.056392870843410491943359375</LongitudeDegrees>
            </Position>
            <AltitudeMeters>933.79998779296875</AltitudeMeters>
            <DistanceMeters>NAN</DistanceMeters>
          </Trackpoint>
          <Trackpoint>
            <Time>2019-08-01T16:25:24.000Z</Time>
            <Position>
              <LatitudeDegrees>40.65525750629603862762451171875</LatitudeDegrees>
              <LongitudeDegrees>-4.0563051961362361907958984375</LongitudeDegrees>
            </Position>
            <AltitudeMeters>934</AltitudeMeters>
            <DistanceMeters>NAN</DistanceMeters>
          </Trackpoint>
          <Trackpoint>
            <Time>2019-08-01T16:25:25.000Z</Time>
            <Position>
              <LatitudeDegrees>40.65522414632141590118408203125</LatitudeDegrees>
              <LongitudeDegrees>-4.0562176890671253204345703125</LongitudeDegrees>
            </Position>
            <AltitudeMeters>934.20001220703125</AltitudeMeters>
            <DistanceMeters>NAN</DistanceMeters>
          </Trackpoint>
          <Trackpoint>
            <Time>2019-08-01T16:25:26.000Z</Time>
            <Position>
              <LatitudeDegrees>40.65519045107066631317138671875</LatitudeDegrees>
              <LongitudeDegrees>-4.05612959526479244232177734375</LongitudeDegrees>
            </Position>
            <AltitudeMeters>934.20001220703125</AltitudeMeters>
            <DistanceMeters>NAN</DistanceMeters>
          </Trackpoint>
          <Trackpoint>
            <Time>2019-08-01T16:25:27.000Z</Time>
            <Position>
              <LatitudeDegrees>40.65515742637217044830322265625</LatitudeDegrees>
              <LongitudeDegrees>-4.0560413338243961334228515625</LongitudeDegrees>
            </Position>
            <AltitudeMeters>934.4000244140625</AltitudeMeters>
            <DistanceMeters>NAN</DistanceMeters>
          </Trackpoint>
          <Trackpoint>
            <Time>2019-08-01T16:25:28.000Z</Time>
            <Position>
              <LatitudeDegrees>40.655124485492706298828125</LatitudeDegrees>
              <LongitudeDegrees>-4.05595374293625354766845703125</LongitudeDegrees>
            </Position>
            <AltitudeMeters>934.5999755859375</AltitudeMeters>
            <DistanceMeters>NAN</DistanceMeters>
          </Trackpoint>
          <Trackpoint>
            <Time>2019-08-01T16:25:29.000Z</Time>
            <Position>
              <LatitudeDegrees>40.655091293156147003173828125</LatitudeDegrees>
              <LongitudeDegrees>-4.0558666549623012542724609375</LongitudeDegrees>
            </Position>
            <AltitudeMeters>934.5999755859375</AltitudeMeters>
            <DistanceMeters>NAN</DistanceMeters>
          </Trackpoint>
          <Trackpoint>
            <Time>2019-08-01T16:25:30.000Z</Time>
            <Position>
              <LatitudeDegrees>40.65505818463861942291259765625</LatitudeDegrees>
              <LongitudeDegrees>-4.055779315531253814697265625</LongitudeDegrees>
            </Position>
            <AltitudeMeters>934.79998779296875</AltitudeMeters>
            <DistanceMeters>NAN</DistanceMeters>
          </Trackpoint>
          <Trackpoint>
            <Time>2019-08-01T16:25:31.000Z</Time>
            <Position>
              <LatitudeDegrees>40.655024237930774688720703125</LatitudeDegrees>
              <LongitudeDegrees>-4.05569256283342838287353515625</LongitudeDegrees>
            </Position>
            <AltitudeMeters>935.20001220703125</AltitudeMeters>
            <DistanceMeters>NAN</DistanceMeters>
          </Trackpoint>
          <Trackpoint>
            <Time>2019-08-01T16:25:32.000Z</Time>
            <Position>
              <LatitudeDegrees>40.65498895011842250823974609375</LatitudeDegrees>
              <LongitudeDegrees>-4.05560706742107868194580078125</LongitudeDegrees>
            </Position>
            <AltitudeMeters>935.20001220703125</AltitudeMeters>
            <DistanceMeters>NAN</DistanceMeters>
          </Trackpoint>
          <Trackpoint>
            <Time>2019-08-01T16:25:33.000Z</Time>
            <Position>
              <LatitudeDegrees>40.6549523212015628814697265625</LatitudeDegrees>
              <LongitudeDegrees>-4.05552215874195098876953125</LongitudeDegrees>
            </Position>
            <AltitudeMeters>935.4000244140625</AltitudeMeters>
            <DistanceMeters>NAN</DistanceMeters>
          </Trackpoint>
          <Trackpoint>
            <Time>2019-08-01T16:25:34.000Z</Time>
            <Position>
              <LatitudeDegrees>40.65491418354213237762451171875</LatitudeDegrees>
              <LongitudeDegrees>-4.0554398484528064727783203125</LongitudeDegrees>
            </Position>
            <AltitudeMeters>935.4000244140625</AltitudeMeters>
            <DistanceMeters>NAN</DistanceMeters>
          </Trackpoint>
          <Trackpoint>
            <Time>2019-08-01T16:25:35.000Z</Time>
            <Position>
              <LatitudeDegrees>40.65487562678754329681396484375</LatitudeDegrees>
              <LongitudeDegrees>-4.05535980127751827239990234375</LongitudeDegrees>
            </Position>
            <AltitudeMeters>935.4000244140625</AltitudeMeters>
            <DistanceMeters>NAN</DistanceMeters>
          </Trackpoint>
          <Trackpoint>
            <Time>2019-08-01T16:25:36.000Z</Time>
            <Position>
              <LatitudeDegrees>40.654837153851985931396484375</LatitudeDegrees>
              <LongitudeDegrees>-4.05528117902576923370361328125</LongitudeDegrees>
            </Position>
            <AltitudeMeters>935.4000244140625</AltitudeMeters>
            <DistanceMeters>NAN</DistanceMeters>
          </Trackpoint>
          <Trackpoint>
            <Time>2019-08-01T16:25:37.000Z</Time>
            <Position>
              <LatitudeDegrees>40.6547985970973968505859375</LatitudeDegrees>
              <LongitudeDegrees>-4.05520356260240077972412109375</LongitudeDegrees>
            </Position>
            <AltitudeMeters>935.4000244140625</AltitudeMeters>
            <DistanceMeters>NAN</DistanceMeters>
          </Trackpoint>
          <Trackpoint>
            <Time>2019-08-01T16:25:38.000Z</Time>
            <Position>
              <LatitudeDegrees>40.654760040342807769775390625</LatitudeDegrees>
              <LongitudeDegrees>-4.055127538740634918212890625</LongitudeDegrees>
            </Position>
            <AltitudeMeters>935.4000244140625</AltitudeMeters>
            <DistanceMeters>NAN</DistanceMeters>
          </Trackpoint>
          <Trackpoint>
            <Time>2019-08-01T16:25:39.000Z</Time>
            <Position>
              <LatitudeDegrees>40.6547206453979015350341796875</LatitudeDegrees>
              <LongitudeDegrees>-4.05505117960274219512939453125</LongitudeDegrees>
            </Position>
            <AltitudeMeters>935.4000244140625</AltitudeMeters>
            <DistanceMeters>NAN</DistanceMeters>
          </Trackpoint>
          <Trackpoint>
            <Time>2019-08-01T16:25:40.000Z</Time>
            <Position>
              <LatitudeDegrees>40.65467982552945613861083984375</LatitudeDegrees>
              <LongitudeDegrees>-4.05497557483613491058349609375</LongitudeDegrees>
            </Position>
            <AltitudeMeters>935.4000244140625</AltitudeMeters>
            <DistanceMeters>NAN</DistanceMeters>
          </Trackpoint>
          <Trackpoint>
            <Time>2019-08-01T16:25:41.000Z</Time>
            <Position>
              <LatitudeDegrees>40.6546364910900592803955078125</LatitudeDegrees>
              <LongitudeDegrees>-4.0548993833363056182861328125</LongitudeDegrees>
            </Position>
            <AltitudeMeters>935.4000244140625</AltitudeMeters>
            <DistanceMeters>NAN</DistanceMeters>
          </Trackpoint>
          <Trackpoint>
            <Time>2019-08-01T16:25:42.000Z</Time>
            <Position>
              <LatitudeDegrees>40.654591061174869537353515625</LatitudeDegrees>
              <LongitudeDegrees>-4.05482453294098377227783203125</LongitudeDegrees>
            </Position>
            <AltitudeMeters>935.4000244140625</AltitudeMeters>
            <DistanceMeters>NAN</DistanceMeters>
          </Trackpoint>
          <Trackpoint>
            <Time>2019-08-01T16:25:43.000Z</Time>
            <Position>
              <LatitudeDegrees>40.65454219467937946319580078125</LatitudeDegrees>
              <LongitudeDegrees>-4.05475144274532794952392578125</LongitudeDegrees>
            </Position>
            <AltitudeMeters>935.4000244140625</AltitudeMeters>
            <DistanceMeters>NAN</DistanceMeters>
          </Trackpoint>
          <Trackpoint>
            <Time>2019-08-01T16:25:44.000Z</Time>
            <Position>
              <LatitudeDegrees>40.6544903106987476348876953125</LatitudeDegrees>
              <LongitudeDegrees>-4.054682292044162750244140625</LongitudeDegrees>
            </Position>
            <AltitudeMeters>935.4000244140625</AltitudeMeters>
            <DistanceMeters>NAN</DistanceMeters>
          </Trackpoint>
          <Trackpoint>
            <Time>2019-08-01T16:25:45.000Z</Time>
            <Position>
              <LatitudeDegrees>40.65443708561360836029052734375</LatitudeDegrees>
              <LongitudeDegrees>-4.05461783520877361297607421875</LongitudeDegrees>
            </Position>
            <AltitudeMeters>935.4000244140625</AltitudeMeters>
            <DistanceMeters>NAN</DistanceMeters>
          </Trackpoint>
          <Trackpoint>
            <Time>2019-08-01T16:25:46.000Z</Time>
            <Position>
              <LatitudeDegrees>40.654383189976215362548828125</LatitudeDegrees>
              <LongitudeDegrees>-4.05455698259174823760986328125</LongitudeDegrees>
            </Position>
            <AltitudeMeters>935.4000244140625</AltitudeMeters>
            <DistanceMeters>NAN</DistanceMeters>
          </Trackpoint>
          <Trackpoint>
            <Time>2019-08-01T16:25:47.000Z</Time>
            <Position>
              <LatitudeDegrees>40.6543277017772197723388671875</LatitudeDegrees>
              <LongitudeDegrees>-4.0544977225363254547119140625</LongitudeDegrees>
            </Position>
            <AltitudeMeters>935.5999755859375</AltitudeMeters>
            <DistanceMeters>NAN</DistanceMeters>
          </Trackpoint>
          <Trackpoint>
            <Time>2019-08-01T16:25:48.000Z</Time>
            <Position>
              <LatitudeDegrees>40.65427112393081188201904296875</LatitudeDegrees>
              <LongitudeDegrees>-4.05444080941379070281982421875</LongitudeDegrees>
            </Position>
            <AltitudeMeters>935.5999755859375</AltitudeMeters>
            <DistanceMeters>NAN</DistanceMeters>
          </Trackpoint>
          <Trackpoint>
            <Time>2019-08-01T16:25:49.000Z</Time>
            <Position>
              <LatitudeDegrees>40.65421312116086483001708984375</LatitudeDegrees>
              <LongitudeDegrees>-4.05438398011028766632080078125</LongitudeDegrees>
            </Position>
            <AltitudeMeters>935.5999755859375</AltitudeMeters>
            <DistanceMeters>NAN</DistanceMeters>
          </Trackpoint>
          <Trackpoint>
            <Time>2019-08-01T16:25:50.000Z</Time>
            <Position>
              <LatitudeDegrees>40.6541548669338226318359375</LatitudeDegrees>
              <LongitudeDegrees>-4.0543263964354991912841796875</LongitudeDegrees>
            </Position>
            <AltitudeMeters>935.5999755859375</AltitudeMeters>
            <DistanceMeters>NAN</DistanceMeters>
          </Trackpoint>
          <Trackpoint>
            <Time>2019-08-01T16:25:51.000Z</Time>
            <Position>
              <LatitudeDegrees>40.654097534716129302978515625</LatitudeDegrees>
              <LongitudeDegrees>-4.05426931567490100860595703125</LongitudeDegrees>
            </Position>
            <AltitudeMeters>935.5999755859375</AltitudeMeters>
            <DistanceMeters>NAN</DistanceMeters>
          </Trackpoint>
          <Trackpoint>
            <Time>2019-08-01T16:25:52.000Z</Time>
            <Position>
              <LatitudeDegrees>40.6540420465171337127685546875</LatitudeDegrees>
              <LongitudeDegrees>-4.0542110614478588104248046875</LongitudeDegrees>
            </Position>
            <AltitudeMeters>935.79998779296875</AltitudeMeters>
            <DistanceMeters>NAN</DistanceMeters>
          </Trackpoint>
          <Trackpoint>
            <Time>2019-08-01T16:25:53.000Z</Time>
            <Position>
              <LatitudeDegrees>40.65398781560361385345458984375</LatitudeDegrees>
              <LongitudeDegrees>-4.0541510470211505889892578125</LongitudeDegrees>
            </Position>
            <AltitudeMeters>936.20001220703125</AltitudeMeters>
            <DistanceMeters>NAN</DistanceMeters>
          </Trackpoint>
          <Trackpoint>
            <Time>2019-08-01T16:25:54.000Z</Time>
            <Position>
              <LatitudeDegrees>40.65393417142331600189208984375</LatitudeDegrees>
              <LongitudeDegrees>-4.05408776365220546722412109375</LongitudeDegrees>
            </Position>
            <AltitudeMeters>936.5999755859375</AltitudeMeters>
            <DistanceMeters>NAN</DistanceMeters>
          </Trackpoint>
          <Trackpoint>
            <Time>2019-08-01T16:25:55.000Z</Time>
            <Position>
              <LatitudeDegrees>40.65388103015720844268798828125</LatitudeDegrees>
              <LongitudeDegrees>-4.05402121134102344512939453125</LongitudeDegrees>
            </Position>
            <AltitudeMeters>937</AltitudeMeters>
            <DistanceMeters>NAN</DistanceMeters>
          </Trackpoint>
          <Trackpoint>
            <Time>2019-08-01T16:25:56.000Z</Time>
            <Position>
              <LatitudeDegrees>40.65382839180529117584228515625</LatitudeDegrees>
              <LongitudeDegrees>-4.05395231209695339202880859375</LongitudeDegrees>
            </Position>
            <AltitudeMeters>937.20001220703125</AltitudeMeters>
            <DistanceMeters>NAN</DistanceMeters>
          </Trackpoint>
          <Trackpoint>
            <Time>2019-08-01T16:25:57.000Z</Time>
            <Position>
              <LatitudeDegrees>40.65377558581531047821044921875</LatitudeDegrees>
              <LongitudeDegrees>-4.05388064682483673095703125</LongitudeDegrees>
            </Position>
            <AltitudeMeters>937.20001220703125</AltitudeMeters>
            <DistanceMeters>NAN</DistanceMeters>
          </Trackpoint>
          <Trackpoint>
            <Time>2019-08-01T16:25:58.000Z</Time>
            <Position>
              <LatitudeDegrees>40.65372194163501262664794921875</LatitudeDegrees>
              <LongitudeDegrees>-4.05380663461983203887939453125</LongitudeDegrees>
            </Position>
            <AltitudeMeters>937.4000244140625</AltitudeMeters>
            <DistanceMeters>NAN</DistanceMeters>
          </Trackpoint>
          <Trackpoint>
            <Time>2019-08-01T16:25:59.000Z</Time>
            <Position>
              <LatitudeDegrees>40.65366645343601703643798828125</LatitudeDegrees>
              <LongitudeDegrees>-4.0537296049296855926513671875</LongitudeDegrees>
            </Position>
            <AltitudeMeters>937.4000244140625</AltitudeMeters>
            <DistanceMeters>NAN</DistanceMeters>
          </Trackpoint>
          <Trackpoint>
            <Time>2019-08-01T16:26:00.000Z</Time>
            <Position>
              <LatitudeDegrees>40.6536088697612285614013671875</LatitudeDegrees>
              <LongitudeDegrees>-4.053650312125682830810546875</LongitudeDegrees>
            </Position>
            <AltitudeMeters>937.4000244140625</AltitudeMeters>
            <DistanceMeters>NAN</DistanceMeters>
          </Trackpoint>
          <Trackpoint>
            <Time>2019-08-01T16:26:01.000Z</Time>
            <Position>
              <LatitudeDegrees>40.65355044789612293243408203125</LatitudeDegrees>
              <LongitudeDegrees>-4.05356875620782375335693359375</LongitudeDegrees>
            </Position>
            <AltitudeMeters>937.4000244140625</AltitudeMeters>
            <DistanceMeters>NAN</DistanceMeters>
          </Trackpoint>
          <Trackpoint>
            <Time>2019-08-01T16:26:02.000Z</Time>
            <Position>
              <LatitudeDegrees>40.65349076874554157257080078125</LatitudeDegrees>
              <LongitudeDegrees>-4.05348493717610836029052734375</LongitudeDegrees>
            </Position>
            <AltitudeMeters>937.4000244140625</AltitudeMeters>
            <DistanceMeters>NAN</DistanceMeters>
          </Trackpoint>
          <Trackpoint>
            <Time>2019-08-01T16:26:03.000Z</Time>
            <Position>
              <LatitudeDegrees>40.65342865884304046630859375</LatitudeDegrees>
              <LongitudeDegrees>-4.05339919030666351318359375</LongitudeDegrees>
            </Position>
            <AltitudeMeters>937.4000244140625</AltitudeMeters>
            <DistanceMeters>NAN</DistanceMeters>
          </Trackpoint>
          <Trackpoint>
            <Time>2019-08-01T16:26:04.000Z</Time>
            <Position>
              <LatitudeDegrees>40.653363950550556182861328125</LatitudeDegrees>
              <LongitudeDegrees>-4.05331159941852092742919921875</LongitudeDegrees>
            </Position>
            <AltitudeMeters>937.20001220703125</AltitudeMeters>
            <DistanceMeters>NAN</DistanceMeters>
          </Trackpoint>
          <Trackpoint>
            <Time>2019-08-01T16:26:05.000Z</Time>
            <Position>
              <LatitudeDegrees>40.65329815261065959930419921875</LatitudeDegrees>
              <LongitudeDegrees>-4.0532226674258708953857421875</LongitudeDegrees>
            </Position>
            <AltitudeMeters>937</AltitudeMeters>
            <DistanceMeters>NAN</DistanceMeters>
          </Trackpoint>
          <Trackpoint>
            <Time>2019-08-01T16:26:06.000Z</Time>
            <Position>
              <LatitudeDegrees>40.65323210321366786956787109375</LatitudeDegrees>
              <LongitudeDegrees>-4.0531311370432376861572265625</LongitudeDegrees>
            </Position>
            <AltitudeMeters>936.79998779296875</AltitudeMeters>
            <DistanceMeters>NAN</DistanceMeters>
          </Trackpoint>
          <Trackpoint>
            <Time>2019-08-01T16:26:07.000Z</Time>
            <Position>
              <LatitudeDegrees>40.6531652994453907012939453125</LatitudeDegrees>
              <LongitudeDegrees>-4.053038097918033599853515625</LongitudeDegrees>
            </Position>
            <AltitudeMeters>936.4000244140625</AltitudeMeters>
            <DistanceMeters>NAN</DistanceMeters>
          </Trackpoint>
          <Trackpoint>
            <Time>2019-08-01T16:26:08.000Z</Time>
            <Position>
              <LatitudeDegrees>40.6530980765819549560546875</LatitudeDegrees>
              <LongitudeDegrees>-4.05294463969767093658447265625</LongitudeDegrees>
            </Position>
            <AltitudeMeters>936.20001220703125</AltitudeMeters>
            <DistanceMeters>NAN</DistanceMeters>
          </Trackpoint>
          <Trackpoint>
            <Time>2019-08-01T16:26:09.000Z</Time>
            <Position>
              <LatitudeDegrees>40.6530305184423923492431640625</LatitudeDegrees>
              <LongitudeDegrees>-4.052849672734737396240234375</LongitudeDegrees>
            </Position>
            <AltitudeMeters>935.5999755859375</AltitudeMeters>
            <DistanceMeters>NAN</DistanceMeters>
          </Trackpoint>
          <Trackpoint>
            <Time>2019-08-01T16:26:10.000Z</Time>
            <Position>
              <LatitudeDegrees>40.65296287648379802703857421875</LatitudeDegrees>
              <LongitudeDegrees>-4.05275504104793071746826171875</LongitudeDegrees>
            </Position>
            <AltitudeMeters>935</AltitudeMeters>
            <DistanceMeters>NAN</DistanceMeters>
          </Trackpoint>
          <Trackpoint>
            <Time>2019-08-01T16:26:11.000Z</Time>
            <Position>
              <LatitudeDegrees>40.652894563972949981689453125</LatitudeDegrees>
              <LongitudeDegrees>-4.0526600740849971771240234375</LongitudeDegrees>
            </Position>
            <AltitudeMeters>934</AltitudeMeters>
            <DistanceMeters>NAN</DistanceMeters>
          </Trackpoint>
          <Trackpoint>
            <Time>2019-08-01T16:26:12.000Z</Time>
            <Position>
              <LatitudeDegrees>40.6528256647288799285888671875</LatitudeDegrees>
              <LongitudeDegrees>-4.0525641851127147674560546875</LongitudeDegrees>
            </Position>
            <AltitudeMeters>933.4000244140625</AltitudeMeters>
            <DistanceMeters>NAN</DistanceMeters>
          </Trackpoint>
          <Trackpoint>
            <Time>2019-08-01T16:26:13.000Z</Time>
            <Position>
              <LatitudeDegrees>40.65275684930384159088134765625</LatitudeDegrees>
              <LongitudeDegrees>-4.05246821232140064239501953125</LongitudeDegrees>
            </Position>
            <AltitudeMeters>933</AltitudeMeters>
            <DistanceMeters>NAN</DistanceMeters>
          </Trackpoint>
          <Trackpoint>
            <Time>2019-08-01T16:26:14.000Z</Time>
            <Position>
              <LatitudeDegrees>40.65275684930384159088134765625</LatitudeDegrees>
              <LongitudeDegrees>-4.05246821232140064239501953125</LongitudeDegrees>
            </Position>
            <AltitudeMeters>932.79998779296875</AltitudeMeters>
            <DistanceMeters>NAN</DistanceMeters>
          </Trackpoint>
          <Trackpoint>
            <Time>2019-08-01T16:26:15.000Z</Time>
            <Position>
              <LatitudeDegrees>40.652619637548923492431640625</LatitudeDegrees>
              <LongitudeDegrees>-4.0522785298526287078857421875</LongitudeDegrees>
            </Position>
            <AltitudeMeters>932.5999755859375</AltitudeMeters>
            <DistanceMeters>NAN</DistanceMeters>
          </Trackpoint>
          <Trackpoint>
            <Time>2019-08-01T16:26:16.000Z</Time>
            <Position>
              <LatitudeDegrees>40.6525509059429168701171875</LatitudeDegrees>
              <LongitudeDegrees>-4.05218205414712429046630859375</LongitudeDegrees>
            </Position>
            <AltitudeMeters>932.5999755859375</AltitudeMeters>
            <DistanceMeters>NAN</DistanceMeters>
          </Trackpoint>
          <Trackpoint>
            <Time>2019-08-01T16:26:17.000Z</Time>
            <Position>
              <LatitudeDegrees>40.6524811685085296630859375</LatitudeDegrees>
              <LongitudeDegrees>-4.05208582989871501922607421875</LongitudeDegrees>
            </Position>
            <AltitudeMeters>932</AltitudeMeters>
            <DistanceMeters>NAN</DistanceMeters>
          </Trackpoint>
          <Trackpoint>
            <Time>2019-08-01T16:26:18.000Z</Time>
            <Position>
              <LatitudeDegrees>40.65241076052188873291015625</LatitudeDegrees>
              <LongitudeDegrees>-4.05198994092643260955810546875</LongitudeDegrees>
            </Position>
            <AltitudeMeters>931.4000244140625</AltitudeMeters>
            <DistanceMeters>NAN</DistanceMeters>
          </Trackpoint>
          <Trackpoint>
            <Time>2019-08-01T16:26:19.000Z</Time>
            <Position>
              <LatitudeDegrees>40.65233993344008922576904296875</LatitudeDegrees>
              <LongitudeDegrees>-4.05189338140189647674560546875</LongitudeDegrees>
            </Position>
            <AltitudeMeters>930.4000244140625</AltitudeMeters>
            <DistanceMeters>NAN</DistanceMeters>
          </Trackpoint>
          <Trackpoint>
            <Time>2019-08-01T16:26:20.000Z</Time>
            <Position>
              <LatitudeDegrees>40.65226885490119457244873046875</LatitudeDegrees>
              <LongitudeDegrees>-4.05179648660123348236083984375</LongitudeDegrees>
            </Position>
            <AltitudeMeters>929.79998779296875</AltitudeMeters>
            <DistanceMeters>NAN</DistanceMeters>
          </Trackpoint>
          <Trackpoint>
            <Time>2019-08-01T16:26:21.000Z</Time>
            <Position>
              <LatitudeDegrees>40.65219811163842678070068359375</LatitudeDegrees>
              <LongitudeDegrees>-4.0516991727054119110107421875</LongitudeDegrees>
            </Position>
            <AltitudeMeters>929.20001220703125</AltitudeMeters>
            <DistanceMeters>NAN</DistanceMeters>
          </Trackpoint>
          <Trackpoint>
            <Time>2019-08-01T16:26:22.000Z</Time>
            <Position>
              <LatitudeDegrees>40.652128122746944427490234375</LatitudeDegrees>
              <LongitudeDegrees>-4.0516019426286220550537109375</LongitudeDegrees>
            </Position>
            <AltitudeMeters>929</AltitudeMeters>
            <DistanceMeters>NAN</DistanceMeters>
          </Trackpoint>
          <Trackpoint>
            <Time>2019-08-01T16:26:23.000Z</Time>
            <Position>
              <LatitudeDegrees>40.65205796621739864349365234375</LatitudeDegrees>
              <LongitudeDegrees>-4.0515053831040859222412109375</LongitudeDegrees>
            </Position>
            <AltitudeMeters>928.79998779296875</AltitudeMeters>
            <DistanceMeters>NAN</DistanceMeters>
          </Trackpoint>
          <Trackpoint>
            <Time>2019-08-01T16:26:24.000Z</Time>
            <Position>
              <LatitudeDegrees>40.65198772586882114410400390625</LatitudeDegrees>
              <LongitudeDegrees>-4.05140899121761322021484375</LongitudeDegrees>
            </Position>
            <AltitudeMeters>928.4000244140625</AltitudeMeters>
            <DistanceMeters>NAN</DistanceMeters>
          </Trackpoint>
          <Trackpoint>
            <Time>2019-08-01T16:26:25.000Z</Time>
            <Position>
              <LatitudeDegrees>40.65191731788218021392822265625</LatitudeDegrees>
              <LongitudeDegrees>-4.051312096416950225830078125</LongitudeDegrees>
            </Position>
            <AltitudeMeters>928.20001220703125</AltitudeMeters>
            <DistanceMeters>NAN</DistanceMeters>
          </Trackpoint>
          <Trackpoint>
            <Time>2019-08-01T16:26:26.000Z</Time>
            <Position>
              <LatitudeDegrees>40.65184758044779300689697265625</LatitudeDegrees>
              <LongitudeDegrees>-4.05121587216854095458984375</LongitudeDegrees>
            </Position>
            <AltitudeMeters>927.20001220703125</AltitudeMeters>
            <DistanceMeters>NAN</DistanceMeters>
          </Trackpoint>
          <Trackpoint>
            <Time>2019-08-01T16:26:27.000Z</Time>
            <Position>
              <LatitudeDegrees>40.65177775919437408447265625</LatitudeDegrees>
              <LongitudeDegrees>-4.0511194802820682525634765625</LongitudeDegrees>
            </Position>
            <AltitudeMeters>926.5999755859375</AltitudeMeters>
            <DistanceMeters>NAN</DistanceMeters>
          </Trackpoint>
          <Trackpoint>
            <Time>2019-08-01T16:26:28.000Z</Time>
            <Position>
              <LatitudeDegrees>40.6517078541219234466552734375</LatitudeDegrees>
              <LongitudeDegrees>-4.0510229207575321197509765625</LongitudeDegrees>
            </Position>
            <AltitudeMeters>926.20001220703125</AltitudeMeters>
            <DistanceMeters>NAN</DistanceMeters>
          </Trackpoint>
          <Trackpoint>
            <Time>2019-08-01T16:26:29.000Z</Time>
            <Position>
              <LatitudeDegrees>40.6516377814114093780517578125</LatitudeDegrees>
              <LongitudeDegrees>-4.05092753469944000244140625</LongitudeDegrees>
            </Position>
            <AltitudeMeters>925.5999755859375</AltitudeMeters>
            <DistanceMeters>NAN</DistanceMeters>
          </Trackpoint>
          <Trackpoint>
            <Time>2019-08-01T16:26:30.000Z</Time>
            <Position>
              <LatitudeDegrees>40.651567876338958740234375</LatitudeDegrees>
              <LongitudeDegrees>-4.05083206482231616973876953125</LongitudeDegrees>
            </Position>
            <AltitudeMeters>925.20001220703125</AltitudeMeters>
            <DistanceMeters>NAN</DistanceMeters>
          </Trackpoint>
          <Trackpoint>
            <Time>2019-08-01T16:26:31.000Z</Time>
            <Position>
              <LatitudeDegrees>40.651498138904571533203125</LatitudeDegrees>
              <LongitudeDegrees>-4.05073533765971660614013671875</LongitudeDegrees>
            </Position>
            <AltitudeMeters>924.79998779296875</AltitudeMeters>
            <DistanceMeters>NAN</DistanceMeters>
          </Trackpoint>
          <Trackpoint>
            <Time>2019-08-01T16:26:32.000Z</Time>
            <Position>
              <LatitudeDegrees>40.65142882056534290313720703125</LatitudeDegrees>
              <LongitudeDegrees>-4.05063911341130733489990234375</LongitudeDegrees>
            </Position>
            <AltitudeMeters>924.5999755859375</AltitudeMeters>
            <DistanceMeters>NAN</DistanceMeters>
          </Trackpoint>
          <Trackpoint>
            <Time>2019-08-01T16:26:33.000Z</Time>
            <Position>
              <LatitudeDegrees>40.65135925076901912689208984375</LatitudeDegrees>
              <LongitudeDegrees>-4.05054355971515178680419921875</LongitudeDegrees>
            </Position>
            <AltitudeMeters>924</AltitudeMeters>
            <DistanceMeters>NAN</DistanceMeters>
          </Trackpoint>
          <Trackpoint>
            <Time>2019-08-01T16:26:34.000Z</Time>
            <Position>
              <LatitudeDegrees>40.6512897647917270660400390625</LatitudeDegrees>
              <LongitudeDegrees>-4.050448425114154815673828125</LongitudeDegrees>
            </Position>
            <AltitudeMeters>923.4000244140625</AltitudeMeters>
            <DistanceMeters>NAN</DistanceMeters>
          </Trackpoint>
          <Trackpoint>
            <Time>2019-08-01T16:26:35.000Z</Time>
            <Position>
              <LatitudeDegrees>40.65121994353830814361572265625</LatitudeDegrees>
              <LongitudeDegrees>-4.05035345815122127532958984375</LongitudeDegrees>
            </Position>
            <AltitudeMeters>922.79998779296875</AltitudeMeters>
            <DistanceMeters>NAN</DistanceMeters>
          </Trackpoint>
          <Trackpoint>
            <Time>2019-08-01T16:26:36.000Z</Time>
            <Position>
              <LatitudeDegrees>40.65115121193230152130126953125</LatitudeDegrees>
              <LongitudeDegrees>-4.0502568148076534271240234375</LongitudeDegrees>
            </Position>
            <AltitudeMeters>922.4000244140625</AltitudeMeters>
            <DistanceMeters>NAN</DistanceMeters>
          </Trackpoint>
          <Trackpoint>
            <Time>2019-08-01T16:26:37.000Z</Time>
            <Position>
              <LatitudeDegrees>40.65108214505016803741455078125</LatitudeDegrees>
              <LongitudeDegrees>-4.050160758197307586669921875</LongitudeDegrees>
            </Position>
            <AltitudeMeters>922.4000244140625</AltitudeMeters>
            <DistanceMeters>NAN</DistanceMeters>
          </Trackpoint>
          <Trackpoint>
            <Time>2019-08-01T16:26:38.000Z</Time>
            <Position>
              <LatitudeDegrees>40.65101190470159053802490234375</LatitudeDegrees>
              <LongitudeDegrees>-4.05006327666342258453369140625</LongitudeDegrees>
            </Position>
            <AltitudeMeters>922.20001220703125</AltitudeMeters>
            <DistanceMeters>NAN</DistanceMeters>
          </Trackpoint>
          <Trackpoint>
            <Time>2019-08-01T16:26:39.000Z</Time>
            <Position>
              <LatitudeDegrees>40.650939904153347015380859375</LatitudeDegrees>
              <LongitudeDegrees>-4.049964286386966705322265625</LongitudeDegrees>
            </Position>
            <AltitudeMeters>922</AltitudeMeters>
            <DistanceMeters>NAN</DistanceMeters>
          </Trackpoint>
          <Trackpoint>
            <Time>2019-08-01T16:26:40.000Z</Time>
            <Position>
              <LatitudeDegrees>40.65086673013865947723388671875</LatitudeDegrees>
              <LongitudeDegrees>-4.04986345209181308746337890625</LongitudeDegrees>
            </Position>
            <AltitudeMeters>921.79998779296875</AltitudeMeters>
            <DistanceMeters>NAN</DistanceMeters>
          </Trackpoint>
          <Trackpoint>
            <Time>2019-08-01T16:26:41.000Z</Time>
            <Position>
              <LatitudeDegrees>40.6507932208478450775146484375</LatitudeDegrees>
              <LongitudeDegrees>-4.04976136051118373870849609375</LongitudeDegrees>
            </Position>
            <AltitudeMeters>921.4000244140625</AltitudeMeters>
            <DistanceMeters>NAN</DistanceMeters>
          </Trackpoint>
          <Trackpoint>
            <Time>2019-08-01T16:26:42.000Z</Time>
            <Position>
              <LatitudeDegrees>40.65071820281445980072021484375</LatitudeDegrees>
              <LongitudeDegrees>-4.0496590174734592437744140625</LongitudeDegrees>
            </Position>
            <AltitudeMeters>921.20001220703125</AltitudeMeters>
            <DistanceMeters>NAN</DistanceMeters>
          </Trackpoint>
          <Trackpoint>
            <Time>2019-08-01T16:26:43.000Z</Time>
            <Position>
              <LatitudeDegrees>40.65064226277172565460205078125</LatitudeDegrees>
              <LongitudeDegrees>-4.049555920064449310302734375</LongitudeDegrees>
            </Position>
            <AltitudeMeters>920.79998779296875</AltitudeMeters>
            <DistanceMeters>NAN</DistanceMeters>
          </Trackpoint>
          <Trackpoint>
            <Time>2019-08-01T16:26:44.000Z</Time>
            <Position>
              <LatitudeDegrees>40.65064226277172565460205078125</LatitudeDegrees>
              <LongitudeDegrees>-4.049555920064449310302734375</LongitudeDegrees>
            </Position>
            <AltitudeMeters>920.5999755859375</AltitudeMeters>
            <DistanceMeters>NAN</DistanceMeters>
          </Trackpoint>
          <Trackpoint>
            <Time>2019-08-01T16:26:45.000Z</Time>
            <Position>
              <LatitudeDegrees>40.65049205906689167022705078125</LatitudeDegrees>
              <LongitudeDegrees>-4.04934863559901714324951171875</LongitudeDegrees>
            </Position>
            <AltitudeMeters>920.20001220703125</AltitudeMeters>
            <DistanceMeters>NAN</DistanceMeters>
          </Trackpoint>
          <Trackpoint>
            <Time>2019-08-01T16:26:46.000Z</Time>
            <Position>
              <LatitudeDegrees>40.6504173763096332550048828125</LatitudeDegrees>
              <LongitudeDegrees>-4.04924436472356319427490234375</LongitudeDegrees>
            </Position>
            <AltitudeMeters>920.20001220703125</AltitudeMeters>
            <DistanceMeters>NAN</DistanceMeters>
          </Trackpoint>
          <Trackpoint>
            <Time>2019-08-01T16:26:47.000Z</Time>
            <Position>
              <LatitudeDegrees>40.6503439508378505706787109375</LatitudeDegrees>
              <LongitudeDegrees>-4.04913942329585552215576171875</LongitudeDegrees>
            </Position>
            <AltitudeMeters>920</AltitudeMeters>
            <DistanceMeters>NAN</DistanceMeters>
          </Trackpoint>
          <Trackpoint>
            <Time>2019-08-01T16:26:48.000Z</Time>
            <Position>
              <LatitudeDegrees>40.650270022451877593994140625</LatitudeDegrees>
              <LongitudeDegrees>-4.049033224582672119140625</LongitudeDegrees>
            </Position>
            <AltitudeMeters>919.5999755859375</AltitudeMeters>
            <DistanceMeters>NAN</DistanceMeters>
          </Trackpoint>
          <Trackpoint>
            <Time>2019-08-01T16:26:49.000Z</Time>
            <Position>
              <LatitudeDegrees>40.650195591151714324951171875</LatitudeDegrees>
              <LongitudeDegrees>-4.04892518185079097747802734375</LongitudeDegrees>
            </Position>
            <AltitudeMeters>918.79998779296875</AltitudeMeters>
            <DistanceMeters>NAN</DistanceMeters>
          </Trackpoint>
          <Trackpoint>
            <Time>2019-08-01T16:26:50.000Z</Time>
            <Position>
              <LatitudeDegrees>40.65012124367058277130126953125</LatitudeDegrees>
              <LongitudeDegrees>-4.048817642033100128173828125</LongitudeDegrees>
            </Position>
            <AltitudeMeters>918</AltitudeMeters>
            <DistanceMeters>NAN</DistanceMeters>
          </Trackpoint>
          <Trackpoint>
            <Time>2019-08-01T16:26:51.000Z</Time>
            <Position>
              <LatitudeDegrees>40.650046057999134063720703125</LatitudeDegrees>
              <LongitudeDegrees>-4.04870993457734584808349609375</LongitudeDegrees>
            </Position>
            <AltitudeMeters>917</AltitudeMeters>
            <DistanceMeters>NAN</DistanceMeters>
          </Trackpoint>
          <Trackpoint>
            <Time>2019-08-01T16:26:52.000Z</Time>
            <Position>
              <LatitudeDegrees>40.649970285594463348388671875</LatitudeDegrees>
              <LongitudeDegrees>-4.0486032329499721527099609375</LongitudeDegrees>
            </Position>
            <AltitudeMeters>916</AltitudeMeters>
            <DistanceMeters>NAN</DistanceMeters>
          </Trackpoint>
          <Trackpoint>
            <Time>2019-08-01T16:26:53.000Z</Time>
            <Position>
              <LatitudeDegrees>40.649893842637538909912109375</LatitudeDegrees>
              <LongitudeDegrees>-4.04849745333194732666015625</LongitudeDegrees>
            </Position>
            <AltitudeMeters>915.4000244140625</AltitudeMeters>
            <DistanceMeters>NAN</DistanceMeters>
          </Trackpoint>
          <Trackpoint>
            <Time>2019-08-01T16:26:54.000Z</Time>
            <Position>
              <LatitudeDegrees>40.64981798641383647918701171875</LatitudeDegrees>
              <LongitudeDegrees>-4.04839427210390567779541015625</LongitudeDegrees>
            </Position>
            <AltitudeMeters>914.79998779296875</AltitudeMeters>
            <DistanceMeters>NAN</DistanceMeters>
          </Trackpoint>
          <Trackpoint>
            <Time>2019-08-01T16:26:55.000Z</Time>
            <Position>
              <LatitudeDegrees>40.64974288456141948699951171875</LatitudeDegrees>
              <LongitudeDegrees>-4.04829050414264202117919921875</LongitudeDegrees>
            </Position>
            <AltitudeMeters>914.4000244140625</AltitudeMeters>
            <DistanceMeters>NAN</DistanceMeters>
          </Trackpoint>
          <Trackpoint>
            <Time>2019-08-01T16:26:56.000Z</Time>
            <Position>
              <LatitudeDegrees>40.649667866528034210205078125</LatitudeDegrees>
              <LongitudeDegrees>-4.04818623326718807220458984375</LongitudeDegrees>
            </Position>
            <AltitudeMeters>914.20001220703125</AltitudeMeters>
            <DistanceMeters>NAN</DistanceMeters>
          </Trackpoint>
          <Trackpoint>
            <Time>2019-08-01T16:26:57.000Z</Time>
            <Position>
              <LatitudeDegrees>40.6495925970375537872314453125</LatitudeDegrees>
              <LongitudeDegrees>-4.04808305203914642333984375</LongitudeDegrees>
            </Position>
            <AltitudeMeters>913.5999755859375</AltitudeMeters>
            <DistanceMeters>NAN</DistanceMeters>
          </Trackpoint>
          <Trackpoint>
            <Time>2019-08-01T16:26:58.000Z</Time>
            <Position>
              <LatitudeDegrees>40.64951824955642223358154296875</LatitudeDegrees>
              <LongitudeDegrees>-4.047980122268199920654296875</LongitudeDegrees>
            </Position>
            <AltitudeMeters>912.79998779296875</AltitudeMeters>
            <DistanceMeters>NAN</DistanceMeters>
          </Trackpoint>
          <Trackpoint>
            <Time>2019-08-01T16:26:59.000Z</Time>
            <Position>
              <LatitudeDegrees>40.64944691956043243408203125</LatitudeDegrees>
              <LongitudeDegrees>-4.0478812158107757568359375</LongitudeDegrees>
            </Position>
            <AltitudeMeters>912.4000244140625</AltitudeMeters>
            <DistanceMeters>NAN</DistanceMeters>
          </Trackpoint>
          <Trackpoint>
            <Time>2019-08-01T16:27:00.000Z</Time>
            <Position>
              <LatitudeDegrees>40.64944691956043243408203125</LatitudeDegrees>
              <LongitudeDegrees>-4.0478812158107757568359375</LongitudeDegrees>
            </Position>
            <AltitudeMeters>912</AltitudeMeters>
            <DistanceMeters>NAN</DistanceMeters>
          </Trackpoint>
          <Trackpoint>
            <Time>2019-08-01T16:27:01.000Z</Time>
            <Position>
              <LatitudeDegrees>40.649311803281307220458984375</LatitudeDegrees>
              <LongitudeDegrees>-4.047707207500934600830078125</LongitudeDegrees>
            </Position>
            <AltitudeMeters>911.4000244140625</AltitudeMeters>
            <DistanceMeters>NAN</DistanceMeters>
          </Trackpoint>
          <Trackpoint>
            <Time>2019-08-01T16:27:02.000Z</Time>
            <Position>
              <LatitudeDegrees>40.64924181438982486724853515625</LatitudeDegrees>
              <LongitudeDegrees>-4.047636128962039947509765625</LongitudeDegrees>
            </Position>
            <AltitudeMeters>911</AltitudeMeters>
            <DistanceMeters>NAN</DistanceMeters>
          </Trackpoint>
          <Trackpoint>
            <Time>2019-08-01T16:27:03.000Z</Time>
            <Position>
              <LatitudeDegrees>40.64916419796645641326904296875</LatitudeDegrees>
              <LongitudeDegrees>-4.04758910648524761199951171875</LongitudeDegrees>
            </Position>
            <AltitudeMeters>910.5999755859375</AltitudeMeters>
            <DistanceMeters>NAN</DistanceMeters>
          </Trackpoint>
          <Trackpoint>
            <Time>2019-08-01T16:27:04.000Z</Time>
            <Position>
              <LatitudeDegrees>40.6490799598395824432373046875</LatitudeDegrees>
              <LongitudeDegrees>-4.04757301323115825653076171875</LongitudeDegrees>
            </Position>
            <AltitudeMeters>910.20001220703125</AltitudeMeters>
            <DistanceMeters>NAN</DistanceMeters>
          </Trackpoint>
          <Trackpoint>
            <Time>2019-08-01T16:27:05.000Z</Time>
            <Position>
              <LatitudeDegrees>40.64899639226496219635009765625</LatitudeDegrees>
              <LongitudeDegrees>-4.0475692413747310638427734375</LongitudeDegrees>
            </Position>
            <AltitudeMeters>909.79998779296875</AltitudeMeters>
            <DistanceMeters>NAN</DistanceMeters>
          </Trackpoint>
          <Trackpoint>
            <Time>2019-08-01T16:27:06.000Z</Time>
            <Position>
              <LatitudeDegrees>40.64891584217548370361328125</LatitudeDegrees>
              <LongitudeDegrees>-4.0475528128445148468017578125</LongitudeDegrees>
            </Position>
            <AltitudeMeters>909.20001220703125</AltitudeMeters>
            <DistanceMeters>NAN</DistanceMeters>
          </Trackpoint>
          <Trackpoint>
            <Time>2019-08-01T16:27:08.000Z</Time>
            <Position>
              <LatitudeDegrees>40.64877963624894618988037109375</LatitudeDegrees>
              <LongitudeDegrees>-4.047449044883251190185546875</LongitudeDegrees>
            </Position>
            <AltitudeMeters>908.5999755859375</AltitudeMeters>
            <DistanceMeters>NAN</DistanceMeters>
          </Trackpoint>
          <Trackpoint>
            <Time>2019-08-01T16:27:09.000Z</Time>
            <Position>
              <LatitudeDegrees>40.64873739145696163177490234375</LatitudeDegrees>
              <LongitudeDegrees>-4.04735977761447429656982421875</LongitudeDegrees>
            </Position>
            <AltitudeMeters>908.20001220703125</AltitudeMeters>
            <DistanceMeters>NAN</DistanceMeters>
          </Trackpoint>
          <Trackpoint>
            <Time>2019-08-01T16:27:10.000Z</Time>
            <Position>
              <LatitudeDegrees>40.64871895126998424530029296875</LatitudeDegrees>
              <LongitudeDegrees>-4.0472574345767498016357421875</LongitudeDegrees>
            </Position>
            <AltitudeMeters>908</AltitudeMeters>
            <DistanceMeters>NAN</DistanceMeters>
          </Trackpoint>
          <Trackpoint>
            <Time>2019-08-01T16:27:11.000Z</Time>
            <Position>
              <LatitudeDegrees>40.648717693984508514404296875</LatitudeDegrees>
              <LongitudeDegrees>-4.04714905656874179840087890625</LongitudeDegrees>
            </Position>
            <AltitudeMeters>907.79998779296875</AltitudeMeters>
            <DistanceMeters>NAN</DistanceMeters>
          </Trackpoint>
          <Trackpoint>
            <Time>2019-08-01T16:27:12.000Z</Time>
            <Position>
              <LatitudeDegrees>40.648723058402538299560546875</LatitudeDegrees>
              <LongitudeDegrees>-4.04703891836106777191162109375</LongitudeDegrees>
            </Position>
            <AltitudeMeters>907.4000244140625</AltitudeMeters>
            <DistanceMeters>NAN</DistanceMeters>
          </Trackpoint>
          <Trackpoint>
            <Time>2019-08-01T16:27:13.000Z</Time>
            <Position>
              <LatitudeDegrees>40.64872280694544315338134765625</LatitudeDegrees>
              <LongitudeDegrees>-4.04692576266825199127197265625</LongitudeDegrees>
            </Position>
            <AltitudeMeters>907.4000244140625</AltitudeMeters>
            <DistanceMeters>NAN</DistanceMeters>
          </Trackpoint>
          <Trackpoint>
            <Time>2019-08-01T16:27:14.000Z</Time>
            <Position>
              <LatitudeDegrees>40.64870755188167095184326171875</LatitudeDegrees>
              <LongitudeDegrees>-4.04681361280381679534912109375</LongitudeDegrees>
            </Position>
            <AltitudeMeters>907.20001220703125</AltitudeMeters>
            <DistanceMeters>NAN</DistanceMeters>
          </Trackpoint>
          <Trackpoint>
            <Time>2019-08-01T16:27:15.000Z</Time>
            <Position>
              <LatitudeDegrees>40.64867687411606311798095703125</LatitudeDegrees>
              <LongitudeDegrees>-4.046707414090633392333984375</LongitudeDegrees>
            </Position>
            <AltitudeMeters>907.20001220703125</AltitudeMeters>
            <DistanceMeters>NAN</DistanceMeters>
          </Trackpoint>
          <Trackpoint>
            <Time>2019-08-01T16:27:16.000Z</Time>
            <Position>
              <LatitudeDegrees>40.648636557161808013916015625</LatitudeDegrees>
              <LongitudeDegrees>-4.0466083399951457977294921875</LongitudeDegrees>
            </Position>
            <AltitudeMeters>907.20001220703125</AltitudeMeters>
            <DistanceMeters>NAN</DistanceMeters>
          </Trackpoint>
          <Trackpoint>
            <Time>2019-08-01T16:27:17.000Z</Time>
            <Position>
              <LatitudeDegrees>40.64859204925596714019775390625</LatitudeDegrees>
              <LongitudeDegrees>-4.0465147979557514190673828125</LongitudeDegrees>
            </Position>
            <AltitudeMeters>907</AltitudeMeters>
            <DistanceMeters>NAN</DistanceMeters>
          </Trackpoint>
          <Trackpoint>
            <Time>2019-08-01T16:27:18.000Z</Time>
            <Position>
              <LatitudeDegrees>40.64854611642658710479736328125</LatitudeDegrees>
              <LongitudeDegrees>-4.04642502777278423309326171875</LongitudeDegrees>
            </Position>
            <AltitudeMeters>907</AltitudeMeters>
            <DistanceMeters>NAN</DistanceMeters>
          </Trackpoint>
          <Trackpoint>
            <Time>2019-08-01T16:27:19.000Z</Time>
            <Position>
              <LatitudeDegrees>40.6485006026923656463623046875</LatitudeDegrees>
              <LongitudeDegrees>-4.046336598694324493408203125</LongitudeDegrees>
            </Position>
            <AltitudeMeters>906.79998779296875</AltitudeMeters>
            <DistanceMeters>NAN</DistanceMeters>
          </Trackpoint>
          <Trackpoint>
            <Time>2019-08-01T16:27:20.000Z</Time>
            <Position>
              <LatitudeDegrees>40.6484551727771759033203125</LatitudeDegrees>
              <LongitudeDegrees>-4.04625001363456249237060546875</LongitudeDegrees>
            </Position>
            <AltitudeMeters>906.79998779296875</AltitudeMeters>
            <DistanceMeters>NAN</DistanceMeters>
          </Trackpoint>
          <Trackpoint>
            <Time>2019-08-01T16:27:21.000Z</Time>
            <Position>
              <LatitudeDegrees>40.64840898849070072174072265625</LatitudeDegrees>
              <LongitudeDegrees>-4.04616585932672023773193359375</LongitudeDegrees>
            </Position>
            <AltitudeMeters>906.79998779296875</AltitudeMeters>
            <DistanceMeters>NAN</DistanceMeters>
          </Trackpoint>
          <Trackpoint>
            <Time>2019-08-01T16:27:22.000Z</Time>
            <Position>
              <LatitudeDegrees>40.64836489968001842498779296875</LatitudeDegrees>
              <LongitudeDegrees>-4.04608103446662425994873046875</LongitudeDegrees>
            </Position>
            <AltitudeMeters>906.5999755859375</AltitudeMeters>
            <DistanceMeters>NAN</DistanceMeters>
          </Trackpoint>
          <Trackpoint>
            <Time>2019-08-01T16:27:24.000Z</Time>
            <Position>
              <LatitudeDegrees>40.64828552305698394775390625</LatitudeDegrees>
              <LongitudeDegrees>-4.0459076128900051116943359375</LongitudeDegrees>
            </Position>
            <AltitudeMeters>906.5999755859375</AltitudeMeters>
            <DistanceMeters>NAN</DistanceMeters>
          </Trackpoint>
          <Trackpoint>
            <Time>2019-08-01T16:27:25.000Z</Time>
            <Position>
              <LatitudeDegrees>40.64824855886399745941162109375</LatitudeDegrees>
              <LongitudeDegrees>-4.04581566341221332550048828125</LongitudeDegrees>
            </Position>
            <AltitudeMeters>906.4000244140625</AltitudeMeters>
            <DistanceMeters>NAN</DistanceMeters>
          </Trackpoint>
          <Trackpoint>
            <Time>2019-08-01T16:27:26.000Z</Time>
            <Position>
              <LatitudeDegrees>40.648209750652313232421875</LatitudeDegrees>
              <LongitudeDegrees>-4.04572195373475551605224609375</LongitudeDegrees>
            </Position>
            <AltitudeMeters>906.20001220703125</AltitudeMeters>
            <DistanceMeters>NAN</DistanceMeters>
          </Trackpoint>
          <Trackpoint>
            <Time>2019-08-01T16:27:27.000Z</Time>
            <Position>
              <LatitudeDegrees>40.64817018806934356689453125</LatitudeDegrees>
              <LongitudeDegrees>-4.04562656767666339874267578125</LongitudeDegrees>
            </Position>
            <AltitudeMeters>906.20001220703125</AltitudeMeters>
            <DistanceMeters>NAN</DistanceMeters>
          </Trackpoint>
          <Trackpoint>
            <Time>2019-08-01T16:27:28.000Z</Time>
            <Position>
              <LatitudeDegrees>40.6481311284005641937255859375</LatitudeDegrees>
              <LongitudeDegrees>-4.0455294214189052581787109375</LongitudeDegrees>
            </Position>
            <AltitudeMeters>906</AltitudeMeters>
            <DistanceMeters>NAN</DistanceMeters>
          </Trackpoint>
          <Trackpoint>
            <Time>2019-08-01T16:27:29.000Z</Time>
            <Position>
              <LatitudeDegrees>40.64809240400791168212890625</LatitudeDegrees>
              <LongitudeDegrees>-4.0454311855137348175048828125</LongitudeDegrees>
            </Position>
            <AltitudeMeters>905.79998779296875</AltitudeMeters>
            <DistanceMeters>NAN</DistanceMeters>
          </Trackpoint>
          <Trackpoint>
            <Time>2019-08-01T16:27:30.000Z</Time>
            <Position>
              <LatitudeDegrees>40.64805292524397373199462890625</LatitudeDegrees>
              <LongitudeDegrees>-4.045333452522754669189453125</LongitudeDegrees>
            </Position>
            <AltitudeMeters>905.4000244140625</AltitudeMeters>
            <DistanceMeters>NAN</DistanceMeters>
          </Trackpoint>
          <Trackpoint>
            <Time>2019-08-01T16:27:31.000Z</Time>
            <Position>
              <LatitudeDegrees>40.648012943565845489501953125</LatitudeDegrees>
              <LongitudeDegrees>-4.04523513279855251312255859375</LongitudeDegrees>
            </Position>
            <AltitudeMeters>905.20001220703125</AltitudeMeters>
            <DistanceMeters>NAN</DistanceMeters>
          </Trackpoint>
          <Trackpoint>
            <Time>2019-08-01T16:27:32.000Z</Time>
            <Position>
              <LatitudeDegrees>40.64797304570674896240234375</LatitudeDegrees>
              <LongitudeDegrees>-4.045135639607906341552734375</LongitudeDegrees>
            </Position>
            <AltitudeMeters>905</AltitudeMeters>
            <DistanceMeters>NAN</DistanceMeters>
          </Trackpoint>
          <Trackpoint>
            <Time>2019-08-01T16:27:33.000Z</Time>
            <Position>
              <LatitudeDegrees>40.64793339930474758148193359375</LatitudeDegrees>
              <LongitudeDegrees>-4.04503564350306987762451171875</LongitudeDegrees>
            </Position>
            <AltitudeMeters>904.79998779296875</AltitudeMeters>
            <DistanceMeters>NAN</DistanceMeters>
          </Trackpoint>
          <Trackpoint>
            <Time>2019-08-01T16:27:34.000Z</Time>
            <Position>
              <LatitudeDegrees>40.64789392054080963134765625</LatitudeDegrees>
              <LongitudeDegrees>-4.044937156140804290771484375</LongitudeDegrees>
            </Position>
            <AltitudeMeters>904.5999755859375</AltitudeMeters>
            <DistanceMeters>NAN</DistanceMeters>
          </Trackpoint>
          <Trackpoint>
            <Time>2019-08-01T16:27:35.000Z</Time>
            <Position>
              <LatitudeDegrees>40.6478551961481571197509765625</LatitudeDegrees>
              <LongitudeDegrees>-4.044841267168521881103515625</LongitudeDegrees>
            </Position>
            <AltitudeMeters>904.5999755859375</AltitudeMeters>
            <DistanceMeters>NAN</DistanceMeters>
          </Trackpoint>
          <Trackpoint>
            <Time>2019-08-01T16:27:36.000Z</Time>
            <Position>
              <LatitudeDegrees>40.6478173099458217620849609375</LatitudeDegrees>
              <LongitudeDegrees>-4.044746719300746917724609375</LongitudeDegrees>
            </Position>
            <AltitudeMeters>904.20001220703125</AltitudeMeters>
            <DistanceMeters>NAN</DistanceMeters>
          </Trackpoint>
          <Trackpoint>
            <Time>2019-08-01T16:27:37.000Z</Time>
            <Position>
              <LatitudeDegrees>40.64777992665767669677734375</LatitudeDegrees>
              <LongitudeDegrees>-4.04465191997587680816650390625</LongitudeDegrees>
            </Position>
            <AltitudeMeters>904</AltitudeMeters>
            <DistanceMeters>NAN</DistanceMeters>
          </Trackpoint>
          <Trackpoint>
            <Time>2019-08-01T16:27:38.000Z</Time>
            <Position>
              <LatitudeDegrees>40.64774313010275363922119140625</LatitudeDegrees>
              <LongitudeDegrees>-4.0445567853748798370361328125</LongitudeDegrees>
            </Position>
            <AltitudeMeters>903.5999755859375</AltitudeMeters>
            <DistanceMeters>NAN</DistanceMeters>
          </Trackpoint>
          <Trackpoint>
            <Time>2019-08-01T16:27:39.000Z</Time>
            <Position>
              <LatitudeDegrees>40.64770557917654514312744140625</LatitudeDegrees>
              <LongitudeDegrees>-4.04446198605000972747802734375</LongitudeDegrees>
            </Position>
            <AltitudeMeters>903.20001220703125</AltitudeMeters>
            <DistanceMeters>NAN</DistanceMeters>
          </Trackpoint>
          <Trackpoint>
            <Time>2019-08-01T16:27:40.000Z</Time>
            <Position>
              <LatitudeDegrees>40.6476677767932415008544921875</LatitudeDegrees>
              <LongitudeDegrees>-4.04436676762998104095458984375</LongitudeDegrees>
            </Position>
            <AltitudeMeters>903</AltitudeMeters>
            <DistanceMeters>NAN</DistanceMeters>
          </Trackpoint>
          <Trackpoint>
            <Time>2019-08-01T16:27:41.000Z</Time>
            <Position>
              <LatitudeDegrees>40.64762963913381099700927734375</LatitudeDegrees>
              <LongitudeDegrees>-4.044270627200603485107421875</LongitudeDegrees>
            </Position>
            <AltitudeMeters>902.79998779296875</AltitudeMeters>
            <DistanceMeters>NAN</DistanceMeters>
          </Trackpoint>
          <Trackpoint>
            <Time>2019-08-01T16:27:42.000Z</Time>
            <Position>
              <LatitudeDegrees>40.64759141765534877777099609375</LatitudeDegrees>
              <LongitudeDegrees>-4.04417482204735279083251953125</LongitudeDegrees>
            </Position>
            <AltitudeMeters>902.5999755859375</AltitudeMeters>
            <DistanceMeters>NAN</DistanceMeters>
          </Trackpoint>
          <Trackpoint>
            <Time>2019-08-01T16:27:43.000Z</Time>
            <Position>
              <LatitudeDegrees>40.6475527770817279815673828125</LatitudeDegrees>
              <LongitudeDegrees>-4.04407775960862636566162109375</LongitudeDegrees>
            </Position>
            <AltitudeMeters>902.4000244140625</AltitudeMeters>
            <DistanceMeters>NAN</DistanceMeters>
          </Trackpoint>
          <Trackpoint>
            <Time>2019-08-01T16:27:44.000Z</Time>
            <Position>
              <LatitudeDegrees>40.647514052689075469970703125</LatitudeDegrees>
              <LongitudeDegrees>-4.0439801104366779327392578125</LongitudeDegrees>
            </Position>
            <AltitudeMeters>902.20001220703125</AltitudeMeters>
            <DistanceMeters>NAN</DistanceMeters>
          </Trackpoint>
          <Trackpoint>
            <Time>2019-08-01T16:27:45.000Z</Time>
            <Position>
              <LatitudeDegrees>40.6474753282964229583740234375</LatitudeDegrees>
              <LongitudeDegrees>-4.04388137161731719970703125</LongitudeDegrees>
            </Position>
            <AltitudeMeters>902.20001220703125</AltitudeMeters>
            <DistanceMeters>NAN</DistanceMeters>
          </Trackpoint>
          <Trackpoint>
            <Time>2019-08-01T16:27:46.000Z</Time>
            <Position>
              <LatitudeDegrees>40.6474359333515167236328125</LatitudeDegrees>
              <LongitudeDegrees>-4.043782465159893035888671875</LongitudeDegrees>
            </Position>
            <AltitudeMeters>902.20001220703125</AltitudeMeters>
            <DistanceMeters>NAN</DistanceMeters>
          </Trackpoint>
          <Trackpoint>
            <Time>2019-08-01T16:27:47.000Z</Time>
            <Position>
              <LatitudeDegrees>40.64739578403532505035400390625</LatitudeDegrees>
              <LongitudeDegrees>-4.0436830557882785797119140625</LongitudeDegrees>
            </Position>
            <AltitudeMeters>902</AltitudeMeters>
            <DistanceMeters>NAN</DistanceMeters>
          </Trackpoint>
          <Trackpoint>
            <Time>2019-08-01T16:27:48.000Z</Time>
            <Position>
              <LatitudeDegrees>40.64735571853816509246826171875</LatitudeDegrees>
              <LongitudeDegrees>-4.04358406551182270050048828125</LongitudeDegrees>
            </Position>
            <AltitudeMeters>902</AltitudeMeters>
            <DistanceMeters>NAN</DistanceMeters>
          </Trackpoint>
          <Trackpoint>
            <Time>2019-08-01T16:27:49.000Z</Time>
            <Position>
              <LatitudeDegrees>40.64735571853816509246826171875</LatitudeDegrees>
              <LongitudeDegrees>-4.04358406551182270050048828125</LongitudeDegrees>
            </Position>
            <AltitudeMeters>901.79998779296875</AltitudeMeters>
            <DistanceMeters>NAN</DistanceMeters>
          </Trackpoint>
          <Trackpoint>
            <Time>2019-08-01T16:27:50.000Z</Time>
            <Position>
              <LatitudeDegrees>40.6472775153815746307373046875</LatitudeDegrees>
              <LongitudeDegrees>-4.04338574968278408050537109375</LongitudeDegrees>
            </Position>
            <AltitudeMeters>901.5999755859375</AltitudeMeters>
            <DistanceMeters>NAN</DistanceMeters>
          </Trackpoint>
          <Trackpoint>
            <Time>2019-08-01T16:27:51.000Z</Time>
            <Position>
              <LatitudeDegrees>40.64723904244601726531982421875</LatitudeDegrees>
              <LongitudeDegrees>-4.043287597596645355224609375</LongitudeDegrees>
            </Position>
            <AltitudeMeters>901.20001220703125</AltitudeMeters>
            <DistanceMeters>NAN</DistanceMeters>
          </Trackpoint>
          <Trackpoint>
            <Time>2019-08-01T16:27:52.000Z</Time>
            <Position>
              <LatitudeDegrees>40.64720065332949161529541015625</LatitudeDegrees>
              <LongitudeDegrees>-4.04319061897695064544677734375</LongitudeDegrees>
            </Position>
            <AltitudeMeters>900.5999755859375</AltitudeMeters>
            <DistanceMeters>NAN</DistanceMeters>
          </Trackpoint>
          <Trackpoint>
            <Time>2019-08-01T16:27:53.000Z</Time>
            <Position>
              <LatitudeDegrees>40.64716192893683910369873046875</LatitudeDegrees>
              <LongitudeDegrees>-4.04309506528079509735107421875</LongitudeDegrees>
            </Position>
            <AltitudeMeters>900.20001220703125</AltitudeMeters>
            <DistanceMeters>NAN</DistanceMeters>
          </Trackpoint>
          <Trackpoint>
            <Time>2019-08-01T16:27:54.000Z</Time>
            <Position>
              <LatitudeDegrees>40.64712387509644031524658203125</LatitudeDegrees>
              <LongitudeDegrees>-4.04300026595592498779296875</LongitudeDegrees>
            </Position>
            <AltitudeMeters>900</AltitudeMeters>
            <DistanceMeters>NAN</DistanceMeters>
          </Trackpoint>
          <Trackpoint>
            <Time>2019-08-01T16:27:55.000Z</Time>
            <Position>
              <LatitudeDegrees>40.6470867432653903961181640625</LatitudeDegrees>
              <LongitudeDegrees>-4.04290596954524517059326171875</LongitudeDegrees>
            </Position>
            <AltitudeMeters>900</AltitudeMeters>
            <DistanceMeters>NAN</DistanceMeters>
          </Trackpoint>
          <Trackpoint>
            <Time>2019-08-01T16:27:56.000Z</Time>
            <Position>
              <LatitudeDegrees>40.64704877324402332305908203125</LatitudeDegrees>
              <LongitudeDegrees>-4.0428118407726287841796875</LongitudeDegrees>
            </Position>
            <AltitudeMeters>899.79998779296875</AltitudeMeters>
            <DistanceMeters>NAN</DistanceMeters>
          </Trackpoint>
          <Trackpoint>
            <Time>2019-08-01T16:27:57.000Z</Time>
            <Position>
              <LatitudeDegrees>40.64701088704168796539306640625</LatitudeDegrees>
              <LongitudeDegrees>-4.042717628180980682373046875</LongitudeDegrees>
            </Position>
            <AltitudeMeters>899.5999755859375</AltitudeMeters>
            <DistanceMeters>NAN</DistanceMeters>
          </Trackpoint>
          <Trackpoint>
            <Time>2019-08-01T16:27:58.000Z</Time>
            <Position>
              <LatitudeDegrees>40.64697325229644775390625</LatitudeDegrees>
              <LongitudeDegrees>-4.04262232594192028045654296875</LongitudeDegrees>
            </Position>
            <AltitudeMeters>899.20001220703125</AltitudeMeters>
            <DistanceMeters>NAN</DistanceMeters>
          </Trackpoint>
          <Trackpoint>
            <Time>2019-08-01T16:27:59.000Z</Time>
            <Position>
              <LatitudeDegrees>40.64693511463701725006103515625</LatitudeDegrees>
              <LongitudeDegrees>-4.0425280295312404632568359375</LongitudeDegrees>
            </Position>
            <AltitudeMeters>899</AltitudeMeters>
            <DistanceMeters>NAN</DistanceMeters>
          </Trackpoint>
          <Trackpoint>
            <Time>2019-08-01T16:28:00.000Z</Time>
            <Position>
              <LatitudeDegrees>40.64689739607274532318115234375</LatitudeDegrees>
              <LongitudeDegrees>-4.0424344874918460845947265625</LongitudeDegrees>
            </Position>
            <AltitudeMeters>898.5999755859375</AltitudeMeters>
            <DistanceMeters>NAN</DistanceMeters>
          </Trackpoint>
          <Trackpoint>
            <Time>2019-08-01T16:28:01.000Z</Time>
            <Position>
              <LatitudeDegrees>40.64689739607274532318115234375</LatitudeDegrees>
              <LongitudeDegrees>-4.0424344874918460845947265625</LongitudeDegrees>
            </Position>
            <AltitudeMeters>898.4000244140625</AltitudeMeters>
            <DistanceMeters>NAN</DistanceMeters>
          </Trackpoint>
          <Trackpoint>
            <Time>2019-08-01T16:28:02.000Z</Time>
            <Position>
              <LatitudeDegrees>40.64682346768677234649658203125</LatitudeDegrees>
              <LongitudeDegrees>-4.0422467328608036041259765625</LongitudeDegrees>
            </Position>
            <AltitudeMeters>898.20001220703125</AltitudeMeters>
            <DistanceMeters>NAN</DistanceMeters>
          </Trackpoint>
          <Trackpoint>
            <Time>2019-08-01T16:28:03.000Z</Time>
            <Position>
              <LatitudeDegrees>40.6467876769602298736572265625</LatitudeDegrees>
              <LongitudeDegrees>-4.0421541966497898101806640625</LongitudeDegrees>
            </Position>
            <AltitudeMeters>898.20001220703125</AltitudeMeters>
            <DistanceMeters>NAN</DistanceMeters>
          </Trackpoint>
          <Trackpoint>
            <Time>2019-08-01T16:28:04.000Z</Time>
            <Position>
              <LatitudeDegrees>40.6467524729669094085693359375</LatitudeDegrees>
              <LongitudeDegrees>-4.04206375591456890106201171875</LongitudeDegrees>
            </Position>
            <AltitudeMeters>898</AltitudeMeters>
            <DistanceMeters>NAN</DistanceMeters>
          </Trackpoint>
          <Trackpoint>
            <Time>2019-08-01T16:28:05.000Z</Time>
            <Position>
              <LatitudeDegrees>40.646718442440032958984375</LatitudeDegrees>
              <LongitudeDegrees>-4.04197524301707744598388671875</LongitudeDegrees>
            </Position>
            <AltitudeMeters>898</AltitudeMeters>
            <DistanceMeters>NAN</DistanceMeters>
          </Trackpoint>
          <Trackpoint>
            <Time>2019-08-01T16:28:06.000Z</Time>
            <Position>
              <LatitudeDegrees>40.6466850824654102325439453125</LatitudeDegrees>
              <LongitudeDegrees>-4.04188673011958599090576171875</LongitudeDegrees>
            </Position>
            <AltitudeMeters>898</AltitudeMeters>
            <DistanceMeters>NAN</DistanceMeters>
          </Trackpoint>
          <Trackpoint>
            <Time>2019-08-01T16:28:07.000Z</Time>
            <Position>
              <LatitudeDegrees>40.64665230922400951385498046875</LatitudeDegrees>
              <LongitudeDegrees>-4.041795618832111358642578125</LongitudeDegrees>
            </Position>
            <AltitudeMeters>897.79998779296875</AltitudeMeters>
            <DistanceMeters>NAN</DistanceMeters>
          </Trackpoint>
          <Trackpoint>
            <Time>2019-08-01T16:28:08.000Z</Time>
            <Position>
              <LatitudeDegrees>40.64661911688745021820068359375</LatitudeDegrees>
              <LongitudeDegrees>-4.04170232824981212615966796875</LongitudeDegrees>
            </Position>
            <AltitudeMeters>897.79998779296875</AltitudeMeters>
            <DistanceMeters>NAN</DistanceMeters>
          </Trackpoint>
          <Trackpoint>
            <Time>2019-08-01T16:28:09.000Z</Time>
            <Position>
              <LatitudeDegrees>40.64658424817025661468505859375</LatitudeDegrees>
              <LongitudeDegrees>-4.04160928912460803985595703125</LongitudeDegrees>
            </Position>
            <AltitudeMeters>897.79998779296875</AltitudeMeters>
            <DistanceMeters>NAN</DistanceMeters>
          </Trackpoint>
          <Trackpoint>
            <Time>2019-08-01T16:28:10.000Z</Time>
            <Position>
              <LatitudeDegrees>40.6465482898056507110595703125</LatitudeDegrees>
              <LongitudeDegrees>-4.04151658527553081512451171875</LongitudeDegrees>
            </Position>
            <AltitudeMeters>897.5999755859375</AltitudeMeters>
            <DistanceMeters>NAN</DistanceMeters>
          </Trackpoint>
          <Trackpoint>
            <Time>2019-08-01T16:28:11.000Z</Time>
            <Position>
              <LatitudeDegrees>40.64651283435523509979248046875</LatitudeDegrees>
              <LongitudeDegrees>-4.04142455197870731353759765625</LongitudeDegrees>
            </Position>
            <AltitudeMeters>897.5999755859375</AltitudeMeters>
            <DistanceMeters>NAN</DistanceMeters>
          </Trackpoint>
          <Trackpoint>
            <Time>2019-08-01T16:28:12.000Z</Time>
            <Position>
              <LatitudeDegrees>40.646476708352565765380859375</LatitudeDegrees>
              <LongitudeDegrees>-4.0413337759673595428466796875</LongitudeDegrees>
            </Position>
            <AltitudeMeters>897.4000244140625</AltitudeMeters>
            <DistanceMeters>NAN</DistanceMeters>
          </Trackpoint>
          <Trackpoint>
            <Time>2019-08-01T16:28:13.000Z</Time>
            <Position>
              <LatitudeDegrees>40.64643907360732555389404296875</LatitudeDegrees>
              <LongitudeDegrees>-4.04124341905117034912109375</LongitudeDegrees>
            </Position>
            <AltitudeMeters>897.4000244140625</AltitudeMeters>
            <DistanceMeters>NAN</DistanceMeters>
          </Trackpoint>
          <Trackpoint>
            <Time>2019-08-01T16:28:14.000Z</Time>
            <Position>
              <LatitudeDegrees>40.64640135504305362701416015625</LatitudeDegrees>
              <LongitudeDegrees>-4.04115381650626659393310546875</LongitudeDegrees>
            </Position>
            <AltitudeMeters>897.4000244140625</AltitudeMeters>
            <DistanceMeters>NAN</DistanceMeters>
          </Trackpoint>
          <Trackpoint>
            <Time>2019-08-01T16:28:15.000Z</Time>
            <Position>
              <LatitudeDegrees>40.64636548049747943878173828125</LatitudeDegrees>
              <LongitudeDegrees>-4.0410628728568553924560546875</LongitudeDegrees>
            </Position>
            <AltitudeMeters>897.4000244140625</AltitudeMeters>
            <DistanceMeters>NAN</DistanceMeters>
          </Trackpoint>
          <Trackpoint>
            <Time>2019-08-01T16:28:16.000Z</Time>
            <Position>
              <LatitudeDegrees>40.64632960595190525054931640625</LatitudeDegrees>
              <LongitudeDegrees>-4.04097209684550762176513671875</LongitudeDegrees>
            </Position>
            <AltitudeMeters>897.4000244140625</AltitudeMeters>
            <DistanceMeters>NAN</DistanceMeters>
          </Trackpoint>
          <Trackpoint>
            <Time>2019-08-01T16:28:17.000Z</Time>
            <Position>
              <LatitudeDegrees>40.64629339613020420074462890625</LatitudeDegrees>
              <LongitudeDegrees>-4.040881656110286712646484375</LongitudeDegrees>
            </Position>
            <AltitudeMeters>897.20001220703125</AltitudeMeters>
            <DistanceMeters>NAN</DistanceMeters>
          </Trackpoint>
          <Trackpoint>
            <Time>2019-08-01T16:28:18.000Z</Time>
            <Position>
              <LatitudeDegrees>40.64629339613020420074462890625</LatitudeDegrees>
              <LongitudeDegrees>-4.040881656110286712646484375</LongitudeDegrees>
            </Position>
            <AltitudeMeters>897.20001220703125</AltitudeMeters>
            <DistanceMeters>NAN</DistanceMeters>
          </Trackpoint>
          <Trackpoint>
            <Time>2019-08-01T16:28:19.000Z</Time>
            <Position>
              <LatitudeDegrees>40.64622114412486553192138671875</LatitudeDegrees>
              <LongitudeDegrees>-4.04069951735436916351318359375</LongitudeDegrees>
            </Position>
            <AltitudeMeters>897.20001220703125</AltitudeMeters>
            <DistanceMeters>NAN</DistanceMeters>
          </Trackpoint>
          <Trackpoint>
            <Time>2019-08-01T16:28:20.000Z</Time>
            <Position>
              <LatitudeDegrees>40.64618493430316448211669921875</LatitudeDegrees>
              <LongitudeDegrees>-4.04060698114335536956787109375</LongitudeDegrees>
            </Position>
            <AltitudeMeters>897.20001220703125</AltitudeMeters>
            <DistanceMeters>NAN</DistanceMeters>
          </Trackpoint>
          <Trackpoint>
            <Time>2019-08-01T16:28:21.000Z</Time>
            <Position>
              <LatitudeDegrees>40.6461484730243682861328125</LatitudeDegrees>
              <LongitudeDegrees>-4.04051427729427814483642578125</LongitudeDegrees>
            </Position>
            <AltitudeMeters>897</AltitudeMeters>
            <DistanceMeters>NAN</DistanceMeters>
          </Trackpoint>
          <Trackpoint>
            <Time>2019-08-01T16:28:22.000Z</Time>
            <Position>
              <LatitudeDegrees>40.646111927926540374755859375</LatitudeDegrees>
              <LongitudeDegrees>-4.04042123816907405853271484375</LongitudeDegrees>
            </Position>
            <AltitudeMeters>897</AltitudeMeters>
            <DistanceMeters>NAN</DistanceMeters>
          </Trackpoint>
          <Trackpoint>
            <Time>2019-08-01T16:28:23.000Z</Time>
            <Position>
              <LatitudeDegrees>40.646075718104839324951171875</LatitudeDegrees>
              <LongitudeDegrees>-4.0403279475867748260498046875</LongitudeDegrees>
            </Position>
            <AltitudeMeters>896.79998779296875</AltitudeMeters>
            <DistanceMeters>NAN</DistanceMeters>
          </Trackpoint>
          <Trackpoint>
            <Time>2019-08-01T16:28:24.000Z</Time>
            <Position>
              <LatitudeDegrees>40.64603925682604312896728515625</LatitudeDegrees>
              <LongitudeDegrees>-4.0402347408235073089599609375</LongitudeDegrees>
            </Position>
            <AltitudeMeters>896.79998779296875</AltitudeMeters>
            <DistanceMeters>NAN</DistanceMeters>
          </Trackpoint>
          <Trackpoint>
            <Time>2019-08-01T16:28:25.000Z</Time>
            <Position>
              <LatitudeDegrees>40.646001957356929779052734375</LatitudeDegrees>
              <LongitudeDegrees>-4.04014178551733493804931640625</LongitudeDegrees>
            </Position>
            <AltitudeMeters>896.5999755859375</AltitudeMeters>
            <DistanceMeters>NAN</DistanceMeters>
          </Trackpoint>
          <Trackpoint>
            <Time>2019-08-01T16:28:26.000Z</Time>
            <Position>
              <LatitudeDegrees>40.6459645740687847137451171875</LatitudeDegrees>
              <LongitudeDegrees>-4.04004941694438457489013671875</LongitudeDegrees>
            </Position>
            <AltitudeMeters>896.5999755859375</AltitudeMeters>
            <DistanceMeters>NAN</DistanceMeters>
          </Trackpoint>
          <Trackpoint>
            <Time>2019-08-01T16:28:27.000Z</Time>
            <Position>
              <LatitudeDegrees>40.6459263525903224945068359375</LatitudeDegrees>
              <LongitudeDegrees>-4.03995906002819538116455078125</LongitudeDegrees>
            </Position>
            <AltitudeMeters>896.5999755859375</AltitudeMeters>
            <DistanceMeters>NAN</DistanceMeters>
          </Trackpoint>
          <Trackpoint>
            <Time>2019-08-01T16:28:28.000Z</Time>
            <Position>
              <LatitudeDegrees>40.64588821493089199066162109375</LatitudeDegrees>
              <LongitudeDegrees>-4.03987037949264049530029296875</LongitudeDegrees>
            </Position>
            <AltitudeMeters>896.5999755859375</AltitudeMeters>
            <DistanceMeters>NAN</DistanceMeters>
          </Trackpoint>
          <Trackpoint>
            <Time>2019-08-01T16:28:29.000Z</Time>
            <Position>
              <LatitudeDegrees>40.6458509154617786407470703125</LatitudeDegrees>
              <LongitudeDegrees>-4.03978186659514904022216796875</LongitudeDegrees>
            </Position>
            <AltitudeMeters>896.4000244140625</AltitudeMeters>
            <DistanceMeters>NAN</DistanceMeters>
          </Trackpoint>
          <Trackpoint>
            <Time>2019-08-01T16:28:30.000Z</Time>
            <Position>
              <LatitudeDegrees>40.64581478945910930633544921875</LatitudeDegrees>
              <LongitudeDegrees>-4.03969285078346729278564453125</LongitudeDegrees>
            </Position>
            <AltitudeMeters>896.4000244140625</AltitudeMeters>
            <DistanceMeters>NAN</DistanceMeters>
          </Trackpoint>
          <Trackpoint>
            <Time>2019-08-01T16:28:31.000Z</Time>
            <Position>
              <LatitudeDegrees>40.64577841199934482574462890625</LatitudeDegrees>
              <LongitudeDegrees>-4.03960433788597583770751953125</LongitudeDegrees>
            </Position>
            <AltitudeMeters>896.4000244140625</AltitudeMeters>
            <DistanceMeters>NAN</DistanceMeters>
          </Trackpoint>
          <Trackpoint>
            <Time>2019-08-01T16:28:32.000Z</Time>
            <Position>
              <LatitudeDegrees>40.6457426212728023529052734375</LatitudeDegrees>
              <LongitudeDegrees>-4.0395152382552623748779296875</LongitudeDegrees>
            </Position>
            <AltitudeMeters>896.4000244140625</AltitudeMeters>
            <DistanceMeters>NAN</DistanceMeters>
          </Trackpoint>
          <Trackpoint>
            <Time>2019-08-01T16:28:33.000Z</Time>
            <Position>
              <LatitudeDegrees>40.645707584917545318603515625</LatitudeDegrees>
              <LongitudeDegrees>-4.03942488133907318115234375</LongitudeDegrees>
            </Position>
            <AltitudeMeters>896.20001220703125</AltitudeMeters>
            <DistanceMeters>NAN</DistanceMeters>
          </Trackpoint>
          <Trackpoint>
            <Time>2019-08-01T16:28:34.000Z</Time>
            <Position>
              <LatitudeDegrees>40.645707584917545318603515625</LatitudeDegrees>
              <LongitudeDegrees>-4.03942488133907318115234375</LongitudeDegrees>
            </Position>
            <AltitudeMeters>896.20001220703125</AltitudeMeters>
            <DistanceMeters>NAN</DistanceMeters>
          </Trackpoint>
          <Trackpoint>
            <Time>2019-08-01T16:28:35.000Z</Time>
            <Position>
              <LatitudeDegrees>40.6456370092928409576416015625</LatitudeDegrees>
              <LongitudeDegrees>-4.0392426587641239166259765625</LongitudeDegrees>
            </Position>
            <AltitudeMeters>896</AltitudeMeters>
            <DistanceMeters>NAN</DistanceMeters>
          </Trackpoint>
          <Trackpoint>
            <Time>2019-08-01T16:28:36.000Z</Time>
            <Position>
              <LatitudeDegrees>40.645600967109203338623046875</LatitudeDegrees>
              <LongitudeDegrees>-4.039152301847934722900390625</LongitudeDegrees>
            </Position>
            <AltitudeMeters>896</AltitudeMeters>
            <DistanceMeters>NAN</DistanceMeters>
          </Trackpoint>
          <Trackpoint>
            <Time>2019-08-01T16:28:37.000Z</Time>
            <Position>
              <LatitudeDegrees>40.645565427839756011962890625</LatitudeDegrees>
              <LongitudeDegrees>-4.039061106741428375244140625</LongitudeDegrees>
            </Position>
            <AltitudeMeters>895.79998779296875</AltitudeMeters>
            <DistanceMeters>NAN</DistanceMeters>
          </Trackpoint>
          <Trackpoint>
            <Time>2019-08-01T16:28:38.000Z</Time>
            <Position>
              <LatitudeDegrees>40.64552955329418182373046875</LatitudeDegrees>
              <LongitudeDegrees>-4.038968570530414581298828125</LongitudeDegrees>
            </Position>
            <AltitudeMeters>895.5999755859375</AltitudeMeters>
            <DistanceMeters>NAN</DistanceMeters>
          </Trackpoint>
          <Trackpoint>
            <Time>2019-08-01T16:28:39.000Z</Time>
            <Position>
              <LatitudeDegrees>40.64549359492957592010498046875</LatitudeDegrees>
              <LongitudeDegrees>-4.03887494467198848724365234375</LongitudeDegrees>
            </Position>
            <AltitudeMeters>895.4000244140625</AltitudeMeters>
            <DistanceMeters>NAN</DistanceMeters>
          </Trackpoint>
          <Trackpoint>
            <Time>2019-08-01T16:28:40.000Z</Time>
            <Position>
              <LatitudeDegrees>40.64549359492957592010498046875</LatitudeDegrees>
              <LongitudeDegrees>-4.03887494467198848724365234375</LongitudeDegrees>
            </Position>
            <AltitudeMeters>895.20001220703125</AltitudeMeters>
            <DistanceMeters>NAN</DistanceMeters>
          </Trackpoint>
          <Trackpoint>
            <Time>2019-08-01T16:28:41.000Z</Time>
            <Position>
              <LatitudeDegrees>40.645421259105205535888671875</LatitudeDegrees>
              <LongitudeDegrees>-4.03868593275547027587890625</LongitudeDegrees>
            </Position>
            <AltitudeMeters>895</AltitudeMeters>
            <DistanceMeters>NAN</DistanceMeters>
          </Trackpoint>
          <Trackpoint>
            <Time>2019-08-01T16:28:42.000Z</Time>
            <Position>
              <LatitudeDegrees>40.64538446255028247833251953125</LatitudeDegrees>
              <LongitudeDegrees>-4.03859197162091732025146484375</LongitudeDegrees>
            </Position>
            <AltitudeMeters>894.79998779296875</AltitudeMeters>
            <DistanceMeters>NAN</DistanceMeters>
          </Trackpoint>
          <Trackpoint>
            <Time>2019-08-01T16:28:43.000Z</Time>
            <Position>
              <LatitudeDegrees>40.6453480012714862823486328125</LatitudeDegrees>
              <LongitudeDegrees>-4.03849658556282520294189453125</LongitudeDegrees>
            </Position>
            <AltitudeMeters>894.5999755859375</AltitudeMeters>
            <DistanceMeters>NAN</DistanceMeters>
          </Trackpoint>
          <Trackpoint>
            <Time>2019-08-01T16:28:44.000Z</Time>
            <Position>
              <LatitudeDegrees>40.6453101150691509246826171875</LatitudeDegrees>
              <LongitudeDegrees>-4.03840052895247936248779296875</LongitudeDegrees>
            </Position>
            <AltitudeMeters>894.20001220703125</AltitudeMeters>
            <DistanceMeters>NAN</DistanceMeters>
          </Trackpoint>
          <Trackpoint>
            <Time>2019-08-01T16:28:45.000Z</Time>
            <Position>
              <LatitudeDegrees>40.64527164213359355926513671875</LatitudeDegrees>
              <LongitudeDegrees>-4.03830430470407009124755859375</LongitudeDegrees>
            </Position>
            <AltitudeMeters>894.20001220703125</AltitudeMeters>
            <DistanceMeters>NAN</DistanceMeters>
          </Trackpoint>
          <Trackpoint>
            <Time>2019-08-01T16:28:46.000Z</Time>
            <Position>
              <LatitudeDegrees>40.645231492817401885986328125</LatitudeDegrees>
              <LongitudeDegrees>-4.03820925392210483551025390625</LongitudeDegrees>
            </Position>
            <AltitudeMeters>893.79998779296875</AltitudeMeters>
            <DistanceMeters>NAN</DistanceMeters>
          </Trackpoint>
          <Trackpoint>
            <Time>2019-08-01T16:28:47.000Z</Time>
            <Position>
              <LatitudeDegrees>40.6451910920441150665283203125</LatitudeDegrees>
              <LongitudeDegrees>-4.03811470605432987213134765625</LongitudeDegrees>
            </Position>
            <AltitudeMeters>893.79998779296875</AltitudeMeters>
            <DistanceMeters>NAN</DistanceMeters>
          </Trackpoint>
          <Trackpoint>
            <Time>2019-08-01T16:28:48.000Z</Time>
            <Position>
              <LatitudeDegrees>40.64515111036598682403564453125</LatitudeDegrees>
              <LongitudeDegrees>-4.0380202420055866241455078125</LongitudeDegrees>
            </Position>
            <AltitudeMeters>894</AltitudeMeters>
            <DistanceMeters>NAN</DistanceMeters>
          </Trackpoint>
          <Trackpoint>
            <Time>2019-08-01T16:28:49.000Z</Time>
            <Position>
              <LatitudeDegrees>40.64511104486882686614990234375</LatitudeDegrees>
              <LongitudeDegrees>-4.03792577795684337615966796875</LongitudeDegrees>
            </Position>
            <AltitudeMeters>893.79998779296875</AltitudeMeters>
            <DistanceMeters>NAN</DistanceMeters>
          </Trackpoint>
          <Trackpoint>
            <Time>2019-08-01T16:28:50.000Z</Time>
            <Position>
              <LatitudeDegrees>40.64507114700973033905029296875</LatitudeDegrees>
              <LongitudeDegrees>-4.03783039189875125885009765625</LongitudeDegrees>
            </Position>
            <AltitudeMeters>893.5999755859375</AltitudeMeters>
            <DistanceMeters>NAN</DistanceMeters>
          </Trackpoint>
          <Trackpoint>
            <Time>2019-08-01T16:28:51.000Z</Time>
            <Position>
              <LatitudeDegrees>40.64503292553126811981201171875</LatitudeDegrees>
              <LongitudeDegrees>-4.037733413279056549072265625</LongitudeDegrees>
            </Position>
            <AltitudeMeters>893.20001220703125</AltitudeMeters>
            <DistanceMeters>NAN</DistanceMeters>
          </Trackpoint>
          <Trackpoint>
            <Time>2019-08-01T16:28:52.000Z</Time>
            <Position>
              <LatitudeDegrees>40.64499621279537677764892578125</LatitudeDegrees>
              <LongitudeDegrees>-4.03763609938323497772216796875</LongitudeDegrees>
            </Position>
            <AltitudeMeters>893</AltitudeMeters>
            <DistanceMeters>NAN</DistanceMeters>
          </Trackpoint>
          <Trackpoint>
            <Time>2019-08-01T16:28:53.000Z</Time>
            <Position>
              <LatitudeDegrees>40.64495983533561229705810546875</LatitudeDegrees>
              <LongitudeDegrees>-4.0375404618680477142333984375</LongitudeDegrees>
            </Position>
            <AltitudeMeters>892.5999755859375</AltitudeMeters>
            <DistanceMeters>NAN</DistanceMeters>
          </Trackpoint>
          <Trackpoint>
            <Time>2019-08-01T16:28:54.000Z</Time>
            <Position>
              <LatitudeDegrees>40.64492337405681610107421875</LatitudeDegrees>
              <LongitudeDegrees>-4.0374465845525264739990234375</LongitudeDegrees>
            </Position>
            <AltitudeMeters>892.20001220703125</AltitudeMeters>
            <DistanceMeters>NAN</DistanceMeters>
          </Trackpoint>
          <Trackpoint>
            <Time>2019-08-01T16:28:55.000Z</Time>
            <Position>
              <LatitudeDegrees>40.64488640986382961273193359375</LatitudeDegrees>
              <LongitudeDegrees>-4.0373550541698932647705078125</LongitudeDegrees>
            </Position>
            <AltitudeMeters>891.79998779296875</AltitudeMeters>
            <DistanceMeters>NAN</DistanceMeters>
          </Trackpoint>
          <Trackpoint>
            <Time>2019-08-01T16:28:56.000Z</Time>
            <Position>
              <LatitudeDegrees>40.64484969712793827056884765625</LatitudeDegrees>
              <LongitudeDegrees>-4.037263691425323486328125</LongitudeDegrees>
            </Position>
            <AltitudeMeters>891.5999755859375</AltitudeMeters>
            <DistanceMeters>NAN</DistanceMeters>
          </Trackpoint>
          <Trackpoint>
            <Time>2019-08-01T16:28:57.000Z</Time>
            <Position>
              <LatitudeDegrees>40.6448129005730152130126953125</LatitudeDegrees>
              <LongitudeDegrees>-4.037174172699451446533203125</LongitudeDegrees>
            </Position>
            <AltitudeMeters>891.5999755859375</AltitudeMeters>
            <DistanceMeters>NAN</DistanceMeters>
          </Trackpoint>
          <Trackpoint>
            <Time>2019-08-01T16:28:58.000Z</Time>
            <Position>
              <LatitudeDegrees>40.644775517284870147705078125</LatitudeDegrees>
              <LongitudeDegrees>-4.0370864979922771453857421875</LongitudeDegrees>
            </Position>
            <AltitudeMeters>891.4000244140625</AltitudeMeters>
            <DistanceMeters>NAN</DistanceMeters>
          </Trackpoint>
          <Trackpoint>
            <Time>2019-08-01T16:28:59.000Z</Time>
            <Position>
              <LatitudeDegrees>40.644735954701900482177734375</LatitudeDegrees>
              <LongitudeDegrees>-4.03700150549411773681640625</LongitudeDegrees>
            </Position>
            <AltitudeMeters>891.4000244140625</AltitudeMeters>
            <DistanceMeters>NAN</DistanceMeters>
          </Trackpoint>
          <Trackpoint>
            <Time>2019-08-01T16:29:00.000Z</Time>
            <Position>
              <LatitudeDegrees>40.64469228498637676239013671875</LatitudeDegrees>
              <LongitudeDegrees>-4.0369235537946224212646484375</LongitudeDegrees>
            </Position>
            <AltitudeMeters>891.20001220703125</AltitudeMeters>
            <DistanceMeters>NAN</DistanceMeters>
          </Trackpoint>
          <Trackpoint>
            <Time>2019-08-01T16:29:01.000Z</Time>
            <Position>
              <LatitudeDegrees>40.6446405686438083648681640625</LatitudeDegrees>
              <LongitudeDegrees>-4.036857672035694122314453125</LongitudeDegrees>
            </Position>
            <AltitudeMeters>891.20001220703125</AltitudeMeters>
            <DistanceMeters>NAN</DistanceMeters>
          </Trackpoint>
          <Trackpoint>
            <Time>2019-08-01T16:29:02.000Z</Time>
            <Position>
              <LatitudeDegrees>40.64457845874130725860595703125</LatitudeDegrees>
              <LongitudeDegrees>-4.036809392273426055908203125</LongitudeDegrees>
            </Position>
            <AltitudeMeters>890.79998779296875</AltitudeMeters>
            <DistanceMeters>NAN</DistanceMeters>
          </Trackpoint>
          <Trackpoint>
            <Time>2019-08-01T16:29:03.000Z</Time>
            <Position>
              <LatitudeDegrees>40.6445094756782054901123046875</LatitudeDegrees>
              <LongitudeDegrees>-4.0367733500897884368896484375</LongitudeDegrees>
            </Position>
            <AltitudeMeters>890.5999755859375</AltitudeMeters>
            <DistanceMeters>NAN</DistanceMeters>
          </Trackpoint>
          <Trackpoint>
            <Time>2019-08-01T16:29:04.000Z</Time>
            <Position>
              <LatitudeDegrees>40.64444200135767459869384765625</LatitudeDegrees>
              <LongitudeDegrees>-4.03673051856458187103271484375</LongitudeDegrees>
            </Position>
            <AltitudeMeters>890.4000244140625</AltitudeMeters>
            <DistanceMeters>NAN</DistanceMeters>
          </Trackpoint>
          <Trackpoint>
            <Time>2019-08-01T16:29:05.000Z</Time>
            <Position>
              <LatitudeDegrees>40.6443835794925689697265625</LatitudeDegrees>
              <LongitudeDegrees>-4.03667025268077850341796875</LongitudeDegrees>
            </Position>
            <AltitudeMeters>890.4000244140625</AltitudeMeters>
            <DistanceMeters>NAN</DistanceMeters>
          </Trackpoint>
          <Trackpoint>
            <Time>2019-08-01T16:29:06.000Z</Time>
            <Position>
              <LatitudeDegrees>40.6443398259580135345458984375</LatitudeDegrees>
              <LongitudeDegrees>-4.03659456409513950347900390625</LongitudeDegrees>
            </Position>
            <AltitudeMeters>890.20001220703125</AltitudeMeters>
            <DistanceMeters>NAN</DistanceMeters>
          </Trackpoint>
          <Trackpoint>
            <Time>2019-08-01T16:29:07.000Z</Time>
            <Position>
              <LatitudeDegrees>40.644316188991069793701171875</LatitudeDegrees>
              <LongitudeDegrees>-4.0365091525018215179443359375</LongitudeDegrees>
            </Position>
            <AltitudeMeters>890.20001220703125</AltitudeMeters>
            <DistanceMeters>NAN</DistanceMeters>
          </Trackpoint>
          <Trackpoint>
            <Time>2019-08-01T16:29:08.000Z</Time>
            <Position>
              <LatitudeDegrees>40.64430889673531055450439453125</LatitudeDegrees>
              <LongitudeDegrees>-4.03642407618463039398193359375</LongitudeDegrees>
            </Position>
            <AltitudeMeters>890.20001220703125</AltitudeMeters>
            <DistanceMeters>NAN</DistanceMeters>
          </Trackpoint>
          <Trackpoint>
            <Time>2019-08-01T16:29:09.000Z</Time>
            <Position>
              <LatitudeDegrees>40.64430939964950084686279296875</LatitudeDegrees>
              <LongitudeDegrees>-4.03634126298129558563232421875</LongitudeDegrees>
            </Position>
            <AltitudeMeters>890.20001220703125</AltitudeMeters>
            <DistanceMeters>NAN</DistanceMeters>
          </Trackpoint>
          <Trackpoint>
            <Time>2019-08-01T16:29:10.000Z</Time>
            <Position>
              <LatitudeDegrees>40.64430856145918369293212890625</LatitudeDegrees>
              <LongitudeDegrees>-4.03625777922570705413818359375</LongitudeDegrees>
            </Position>
            <AltitudeMeters>890.20001220703125</AltitudeMeters>
            <DistanceMeters>NAN</DistanceMeters>
          </Trackpoint>
          <Trackpoint>
            <Time>2019-08-01T16:29:11.000Z</Time>
            <Position>
              <LatitudeDegrees>40.64429800026118755340576171875</LatitudeDegrees>
              <LongitudeDegrees>-4.03617538511753082275390625</LongitudeDegrees>
            </Position>
            <AltitudeMeters>890.20001220703125</AltitudeMeters>
            <DistanceMeters>NAN</DistanceMeters>
          </Trackpoint>
          <Trackpoint>
            <Time>2019-08-01T16:29:12.000Z</Time>
            <Position>
              <LatitudeDegrees>40.64427704550325870513916015625</LatitudeDegrees>
              <LongitudeDegrees>-4.03609433211386203765869140625</LongitudeDegrees>
            </Position>
            <AltitudeMeters>890</AltitudeMeters>
            <DistanceMeters>NAN</DistanceMeters>
          </Trackpoint>
          <Trackpoint>
            <Time>2019-08-01T16:29:13.000Z</Time>
            <Position>
              <LatitudeDegrees>40.64424670301377773284912109375</LatitudeDegrees>
              <LongitudeDegrees>-4.0360178053379058837890625</LongitudeDegrees>
            </Position>
            <AltitudeMeters>890.20001220703125</AltitudeMeters>
            <DistanceMeters>NAN</DistanceMeters>
          </Trackpoint>
          <Trackpoint>
            <Time>2019-08-01T16:29:14.000Z</Time>
            <Position>
              <LatitudeDegrees>40.64420864917337894439697265625</LatitudeDegrees>
              <LongitudeDegrees>-4.0359479002654552459716796875</LongitudeDegrees>
            </Position>
            <AltitudeMeters>890.20001220703125</AltitudeMeters>
            <DistanceMeters>NAN</DistanceMeters>
          </Trackpoint>
          <Trackpoint>
            <Time>2019-08-01T16:29:15.000Z</Time>
            <Position>
              <LatitudeDegrees>40.64416724257171154022216796875</LatitudeDegrees>
              <LongitudeDegrees>-4.03588092885911464691162109375</LongitudeDegrees>
            </Position>
            <AltitudeMeters>890.20001220703125</AltitudeMeters>
            <DistanceMeters>NAN</DistanceMeters>
          </Trackpoint>
          <Trackpoint>
            <Time>2019-08-01T16:29:16.000Z</Time>
            <Position>
              <LatitudeDegrees>40.64412298612296581268310546875</LatitudeDegrees>
              <LongitudeDegrees>-4.03581672348082065582275390625</LongitudeDegrees>
            </Position>
            <AltitudeMeters>890.20001220703125</AltitudeMeters>
            <DistanceMeters>NAN</DistanceMeters>
          </Trackpoint>
          <Trackpoint>
            <Time>2019-08-01T16:29:17.000Z</Time>
            <Position>
              <LatitudeDegrees>40.64407713711261749267578125</LatitudeDegrees>
              <LongitudeDegrees>-4.035753943026065826416015625</LongitudeDegrees>
            </Position>
            <AltitudeMeters>890.20001220703125</AltitudeMeters>
            <DistanceMeters>NAN</DistanceMeters>
          </Trackpoint>
          <Trackpoint>
            <Time>2019-08-01T16:29:18.000Z</Time>
            <Position>
              <LatitudeDegrees>40.644030869007110595703125</LatitudeDegrees>
              <LongitudeDegrees>-4.035692922770977020263671875</LongitudeDegrees>
            </Position>
            <AltitudeMeters>890.4000244140625</AltitudeMeters>
            <DistanceMeters>NAN</DistanceMeters>
          </Trackpoint>
          <Trackpoint>
            <Time>2019-08-01T16:29:19.000Z</Time>
            <Position>
              <LatitudeDegrees>40.6439839303493499755859375</LatitudeDegrees>
              <LongitudeDegrees>-4.03563483618199825286865234375</LongitudeDegrees>
            </Position>
            <AltitudeMeters>890.4000244140625</AltitudeMeters>
            <DistanceMeters>NAN</DistanceMeters>
          </Trackpoint>
          <Trackpoint>
            <Time>2019-08-01T16:29:20.000Z</Time>
            <Position>
              <LatitudeDegrees>40.64393573440611362457275390625</LatitudeDegrees>
              <LongitudeDegrees>-4.035578258335590362548828125</LongitudeDegrees>
            </Position>
            <AltitudeMeters>890.5999755859375</AltitudeMeters>
            <DistanceMeters>NAN</DistanceMeters>
          </Trackpoint>
          <Trackpoint>
            <Time>2019-08-01T16:29:21.000Z</Time>
            <Position>
              <LatitudeDegrees>40.64388628117740154266357421875</LatitudeDegrees>
              <LongitudeDegrees>-4.0355231054127216339111328125</LongitudeDegrees>
            </Position>
            <AltitudeMeters>890.5999755859375</AltitudeMeters>
            <DistanceMeters>NAN</DistanceMeters>
          </Trackpoint>
          <Trackpoint>
            <Time>2019-08-01T16:29:22.000Z</Time>
            <Position>
              <LatitudeDegrees>40.643835403025150299072265625</LatitudeDegrees>
              <LongitudeDegrees>-4.0354708023369312286376953125</LongitudeDegrees>
            </Position>
            <AltitudeMeters>890.79998779296875</AltitudeMeters>
            <DistanceMeters>NAN</DistanceMeters>
          </Trackpoint>
          <Trackpoint>
            <Time>2019-08-01T16:29:23.000Z</Time>
            <Position>
              <LatitudeDegrees>40.6437825970351696014404296875</LatitudeDegrees>
              <LongitudeDegrees>-4.03542076237499713897705078125</LongitudeDegrees>
            </Position>
            <AltitudeMeters>890.79998779296875</AltitudeMeters>
            <DistanceMeters>NAN</DistanceMeters>
          </Trackpoint>
          <Trackpoint>
            <Time>2019-08-01T16:29:24.000Z</Time>
            <Position>
              <LatitudeDegrees>40.64372970722615718841552734375</LatitudeDegrees>
              <LongitudeDegrees>-4.03537273406982421875</LongitudeDegrees>
            </Position>
            <AltitudeMeters>890.79998779296875</AltitudeMeters>
            <DistanceMeters>NAN</DistanceMeters>
          </Trackpoint>
          <Trackpoint>
            <Time>2019-08-01T16:29:25.000Z</Time>
            <Position>
              <LatitudeDegrees>40.643676817417144775390625</LatitudeDegrees>
              <LongitudeDegrees>-4.03532554395496845245361328125</LongitudeDegrees>
            </Position>
            <AltitudeMeters>890.79998779296875</AltitudeMeters>
            <DistanceMeters>NAN</DistanceMeters>
          </Trackpoint>
          <Trackpoint>
            <Time>2019-08-01T16:29:26.000Z</Time>
            <Position>
              <LatitudeDegrees>40.64362174831330776214599609375</LatitudeDegrees>
              <LongitudeDegrees>-4.03527994640171527862548828125</LongitudeDegrees>
            </Position>
            <AltitudeMeters>891</AltitudeMeters>
            <DistanceMeters>NAN</DistanceMeters>
          </Trackpoint>
          <Trackpoint>
            <Time>2019-08-01T16:29:27.000Z</Time>
            <Position>
              <LatitudeDegrees>40.64356626011431217193603515625</LatitudeDegrees>
              <LongitudeDegrees>-4.0352346003055572509765625</LongitudeDegrees>
            </Position>
            <AltitudeMeters>891</AltitudeMeters>
            <DistanceMeters>NAN</DistanceMeters>
          </Trackpoint>
          <Trackpoint>
            <Time>2019-08-01T16:29:28.000Z</Time>
            <Position>
              <LatitudeDegrees>40.6435118615627288818359375</LatitudeDegrees>
              <LongitudeDegrees>-4.03519260697066783905029296875</LongitudeDegrees>
            </Position>
            <AltitudeMeters>891.20001220703125</AltitudeMeters>
            <DistanceMeters>NAN</DistanceMeters>
          </Trackpoint>
          <Trackpoint>
            <Time>2019-08-01T16:29:29.000Z</Time>
            <Position>
              <LatitudeDegrees>40.6434590555727481842041015625</LatitudeDegrees>
              <LongitudeDegrees>-4.0351532958447933197021484375</LongitudeDegrees>
            </Position>
            <AltitudeMeters>891.4000244140625</AltitudeMeters>
            <DistanceMeters>NAN</DistanceMeters>
          </Trackpoint>
          <Trackpoint>
            <Time>2019-08-01T16:29:30.000Z</Time>
            <Position>
              <LatitudeDegrees>40.643406249582767486572265625</LatitudeDegrees>
              <LongitudeDegrees>-4.03511448763310909271240234375</LongitudeDegrees>
            </Position>
            <AltitudeMeters>891.4000244140625</AltitudeMeters>
            <DistanceMeters>NAN</DistanceMeters>
          </Trackpoint>
          <Trackpoint>
            <Time>2019-08-01T16:29:31.000Z</Time>
            <Position>
              <LatitudeDegrees>40.64335159957408905029296875</LatitudeDegrees>
              <LongitudeDegrees>-4.03507743962109088897705078125</LongitudeDegrees>
            </Position>
            <AltitudeMeters>891.5999755859375</AltitudeMeters>
            <DistanceMeters>NAN</DistanceMeters>
          </Trackpoint>
          <Trackpoint>
            <Time>2019-08-01T16:29:32.000Z</Time>
            <Position>
              <LatitudeDegrees>40.64329619519412517547607421875</LatitudeDegrees>
              <LongitudeDegrees>-4.0350416488945484161376953125</LongitudeDegrees>
            </Position>
            <AltitudeMeters>891.5999755859375</AltitudeMeters>
            <DistanceMeters>NAN</DistanceMeters>
          </Trackpoint>
          <Trackpoint>
            <Time>2019-08-01T16:29:33.000Z</Time>
            <Position>
              <LatitudeDegrees>40.64329619519412517547607421875</LatitudeDegrees>
              <LongitudeDegrees>-4.0350416488945484161376953125</LongitudeDegrees>
            </Position>
            <AltitudeMeters>891.5999755859375</AltitudeMeters>
            <DistanceMeters>NAN</DistanceMeters>
          </Trackpoint>
          <Trackpoint>
            <Time>2019-08-01T16:29:34.000Z</Time>
            <Position>
              <LatitudeDegrees>40.64318723045289516448974609375</LatitudeDegrees>
              <LongitudeDegrees>-4.03497333638370037078857421875</LongitudeDegrees>
            </Position>
            <AltitudeMeters>891.5999755859375</AltitudeMeters>
            <DistanceMeters>NAN</DistanceMeters>
          </Trackpoint>
          <Trackpoint>
            <Time>2019-08-01T16:29:35.000Z</Time>
            <Position>
              <LatitudeDegrees>40.6431341730058193206787109375</LatitudeDegrees>
              <LongitudeDegrees>-4.03493796475231647491455078125</LongitudeDegrees>
            </Position>
            <AltitudeMeters>891.5999755859375</AltitudeMeters>
            <DistanceMeters>NAN</DistanceMeters>
          </Trackpoint>
          <Trackpoint>
            <Time>2019-08-01T16:29:36.000Z</Time>
            <Position>
              <LatitudeDegrees>40.64308128319680690765380859375</LatitudeDegrees>
              <LongitudeDegrees>-4.03490242548286914825439453125</LongitudeDegrees>
            </Position>
            <AltitudeMeters>891.5999755859375</AltitudeMeters>
            <DistanceMeters>NAN</DistanceMeters>
          </Trackpoint>
          <Trackpoint>
            <Time>2019-08-01T16:29:37.000Z</Time>
            <Position>
              <LatitudeDegrees>40.6430285610258579254150390625</LatitudeDegrees>
              <LongitudeDegrees>-4.03486789204180240631103515625</LongitudeDegrees>
            </Position>
            <AltitudeMeters>891.5999755859375</AltitudeMeters>
            <DistanceMeters>NAN</DistanceMeters>
          </Trackpoint>
          <Trackpoint>
            <Time>2019-08-01T16:29:38.000Z</Time>
            <Position>
              <LatitudeDegrees>40.64297550357878208160400390625</LatitudeDegrees>
              <LongitudeDegrees>-4.034831933677196502685546875</LongitudeDegrees>
            </Position>
            <AltitudeMeters>891.79998779296875</AltitudeMeters>
            <DistanceMeters>NAN</DistanceMeters>
          </Trackpoint>
          <Trackpoint>
            <Time>2019-08-01T16:29:39.000Z</Time>
            <Position>
              <LatitudeDegrees>40.64292135648429393768310546875</LatitudeDegrees>
              <LongitudeDegrees>-4.0347955562174320220947265625</LongitudeDegrees>
            </Position>
            <AltitudeMeters>891.79998779296875</AltitudeMeters>
            <DistanceMeters>NAN</DistanceMeters>
          </Trackpoint>
          <Trackpoint>
            <Time>2019-08-01T16:29:40.000Z</Time>
            <Position>
              <LatitudeDegrees>40.6428656168282032012939453125</LatitudeDegrees>
              <LongitudeDegrees>-4.03475783765316009521484375</LongitudeDegrees>
            </Position>
            <AltitudeMeters>891.79998779296875</AltitudeMeters>
            <DistanceMeters>NAN</DistanceMeters>
          </Trackpoint>
          <Trackpoint>
            <Time>2019-08-01T16:29:41.000Z</Time>
            <Position>
              <LatitudeDegrees>40.64280853606760501861572265625</LatitudeDegrees>
              <LongitudeDegrees>-4.03471969999372959136962890625</LongitudeDegrees>
            </Position>
            <AltitudeMeters>891.79998779296875</AltitudeMeters>
            <DistanceMeters>NAN</DistanceMeters>
          </Trackpoint>
          <Trackpoint>
            <Time>2019-08-01T16:29:42.000Z</Time>
            <Position>
              <LatitudeDegrees>40.64280853606760501861572265625</LatitudeDegrees>
              <LongitudeDegrees>-4.03471969999372959136962890625</LongitudeDegrees>
            </Position>
            <AltitudeMeters>891.79998779296875</AltitudeMeters>
            <DistanceMeters>NAN</DistanceMeters>
          </Trackpoint>
          <Trackpoint>
            <Time>2019-08-01T16:29:43.000Z</Time>
            <Position>
              <LatitudeDegrees>40.64269202761352062225341796875</LatitudeDegrees>
              <LongitudeDegrees>-4.03464107774198055267333984375</LongitudeDegrees>
            </Position>
            <AltitudeMeters>891.79998779296875</AltitudeMeters>
            <DistanceMeters>NAN</DistanceMeters>
          </Trackpoint>
          <Trackpoint>
            <Time>2019-08-01T16:29:44.000Z</Time>
            <Position>
              <LatitudeDegrees>40.64263335429131984710693359375</LatitudeDegrees>
              <LongitudeDegrees>-4.03460235334932804107666015625</LongitudeDegrees>
            </Position>
            <AltitudeMeters>892</AltitudeMeters>
            <DistanceMeters>NAN</DistanceMeters>
          </Trackpoint>
          <Trackpoint>
            <Time>2019-08-01T16:29:45.000Z</Time>
            <Position>
              <LatitudeDegrees>40.642575435340404510498046875</LatitudeDegrees>
              <LongitudeDegrees>-4.03456396423280239105224609375</LongitudeDegrees>
            </Position>
            <AltitudeMeters>892</AltitudeMeters>
            <DistanceMeters>NAN</DistanceMeters>
          </Trackpoint>
          <Trackpoint>
            <Time>2019-08-01T16:29:46.000Z</Time>
            <Position>
              <LatitudeDegrees>40.64251768402755260467529296875</LatitudeDegrees>
              <LongitudeDegrees>-4.03452423401176929473876953125</LongitudeDegrees>
            </Position>
            <AltitudeMeters>892.20001220703125</AltitudeMeters>
            <DistanceMeters>NAN</DistanceMeters>
          </Trackpoint>
          <Trackpoint>
            <Time>2019-08-01T16:29:47.000Z</Time>
            <Position>
              <LatitudeDegrees>40.64245968125760555267333984375</LatitudeDegrees>
              <LongitudeDegrees>-4.03448366560041904449462890625</LongitudeDegrees>
            </Position>
            <AltitudeMeters>892</AltitudeMeters>
            <DistanceMeters>NAN</DistanceMeters>
          </Trackpoint>
          <Trackpoint>
            <Time>2019-08-01T16:29:48.000Z</Time>
            <Position>
              <LatitudeDegrees>40.6424015946686267852783203125</LatitudeDegrees>
              <LongitudeDegrees>-4.03444276191294193267822265625</LongitudeDegrees>
            </Position>
            <AltitudeMeters>892.20001220703125</AltitudeMeters>
            <DistanceMeters>NAN</DistanceMeters>
          </Trackpoint>
          <Trackpoint>
            <Time>2019-08-01T16:29:49.000Z</Time>
            <Position>
              <LatitudeDegrees>40.6423435918986797332763671875</LatitudeDegrees>
              <LongitudeDegrees>-4.034402109682559967041015625</LongitudeDegrees>
            </Position>
            <AltitudeMeters>892</AltitudeMeters>
            <DistanceMeters>NAN</DistanceMeters>
          </Trackpoint>
          <Trackpoint>
            <Time>2019-08-01T16:29:50.000Z</Time>
            <Position>
              <LatitudeDegrees>40.64228517003357410430908203125</LatitudeDegrees>
              <LongitudeDegrees>-4.03436078689992427825927734375</LongitudeDegrees>
            </Position>
            <AltitudeMeters>892.4000244140625</AltitudeMeters>
            <DistanceMeters>NAN</DistanceMeters>
          </Trackpoint>
          <Trackpoint>
            <Time>2019-08-01T16:29:51.000Z</Time>
            <Position>
              <LatitudeDegrees>40.642227418720722198486328125</LatitudeDegrees>
              <LongitudeDegrees>-4.03431820683181285858154296875</LongitudeDegrees>
            </Position>
            <AltitudeMeters>892.4000244140625</AltitudeMeters>
            <DistanceMeters>NAN</DistanceMeters>
          </Trackpoint>
          <Trackpoint>
            <Time>2019-08-01T16:29:52.000Z</Time>
            <Position>
              <LatitudeDegrees>40.6421705894172191619873046875</LatitudeDegrees>
              <LongitudeDegrees>-4.0342738665640354156494140625</LongitudeDegrees>
            </Position>
            <AltitudeMeters>892.79998779296875</AltitudeMeters>
            <DistanceMeters>NAN</DistanceMeters>
          </Trackpoint>
          <Trackpoint>
            <Time>2019-08-01T16:29:53.000Z</Time>
            <Position>
              <LatitudeDegrees>40.64211434684693813323974609375</LatitudeDegrees>
              <LongitudeDegrees>-4.03422801755368709564208984375</LongitudeDegrees>
            </Position>
            <AltitudeMeters>892.79998779296875</AltitudeMeters>
            <DistanceMeters>NAN</DistanceMeters>
          </Trackpoint>
          <Trackpoint>
            <Time>2019-08-01T16:29:54.000Z</Time>
            <Position>
              <LatitudeDegrees>40.642057769000530242919921875</LatitudeDegrees>
              <LongitudeDegrees>-4.03417990542948246002197265625</LongitudeDegrees>
            </Position>
            <AltitudeMeters>892.79998779296875</AltitudeMeters>
            <DistanceMeters>NAN</DistanceMeters>
          </Trackpoint>
          <Trackpoint>
            <Time>2019-08-01T16:29:55.000Z</Time>
            <Position>
              <LatitudeDegrees>40.64200253225862979888916015625</LatitudeDegrees>
              <LongitudeDegrees>-4.03412911109626293182373046875</LongitudeDegrees>
            </Position>
            <AltitudeMeters>892.79998779296875</AltitudeMeters>
            <DistanceMeters>NAN</DistanceMeters>
          </Trackpoint>
          <Trackpoint>
            <Time>2019-08-01T16:29:56.000Z</Time>
            <Position>
              <LatitudeDegrees>40.641947798430919647216796875</LatitudeDegrees>
              <LongitudeDegrees>-4.03407462872564792633056640625</LongitudeDegrees>
            </Position>
            <AltitudeMeters>892.79998779296875</AltitudeMeters>
            <DistanceMeters>NAN</DistanceMeters>
          </Trackpoint>
          <Trackpoint>
            <Time>2019-08-01T16:29:57.000Z</Time>
            <Position>
              <LatitudeDegrees>40.64189356751739978790283203125</LatitudeDegrees>
              <LongitudeDegrees>-4.034018218517303466796875</LongitudeDegrees>
            </Position>
            <AltitudeMeters>892.79998779296875</AltitudeMeters>
            <DistanceMeters>NAN</DistanceMeters>
          </Trackpoint>
          <Trackpoint>
            <Time>2019-08-01T16:29:58.000Z</Time>
            <Position>
              <LatitudeDegrees>40.64183942042291164398193359375</LatitudeDegrees>
              <LongitudeDegrees>-4.03396097011864185333251953125</LongitudeDegrees>
            </Position>
            <AltitudeMeters>892.79998779296875</AltitudeMeters>
            <DistanceMeters>NAN</DistanceMeters>
          </Trackpoint>
          <Trackpoint>
            <Time>2019-08-01T16:29:59.000Z</Time>
            <Position>
              <LatitudeDegrees>40.6417860276997089385986328125</LatitudeDegrees>
              <LongitudeDegrees>-4.03390355408191680908203125</LongitudeDegrees>
            </Position>
            <AltitudeMeters>892.79998779296875</AltitudeMeters>
            <DistanceMeters>NAN</DistanceMeters>
          </Trackpoint>
          <Trackpoint>
            <Time>2019-08-01T16:30:00.000Z</Time>
            <Position>
              <LatitudeDegrees>40.641734562814235687255859375</LatitudeDegrees>
              <LongitudeDegrees>-4.033844210207462310791015625</LongitudeDegrees>
            </Position>
            <AltitudeMeters>892.79998779296875</AltitudeMeters>
            <DistanceMeters>NAN</DistanceMeters>
          </Trackpoint>
          <Trackpoint>
            <Time>2019-08-01T16:30:01.000Z</Time>
            <Position>
              <LatitudeDegrees>40.641684941947460174560546875</LatitudeDegrees>
              <LongitudeDegrees>-4.03378427959978580474853515625</LongitudeDegrees>
            </Position>
            <AltitudeMeters>892.79998779296875</AltitudeMeters>
            <DistanceMeters>NAN</DistanceMeters>
          </Trackpoint>
          <Trackpoint>
            <Time>2019-08-01T16:30:02.000Z</Time>
            <Position>
              <LatitudeDegrees>40.64163624309003353118896484375</LatitudeDegrees>
              <LongitudeDegrees>-4.0337223373353481292724609375</LongitudeDegrees>
            </Position>
            <AltitudeMeters>892.79998779296875</AltitudeMeters>
            <DistanceMeters>NAN</DistanceMeters>
          </Trackpoint>
          <Trackpoint>
            <Time>2019-08-01T16:30:03.000Z</Time>
            <Position>
              <LatitudeDegrees>40.64158896915614604949951171875</LatitudeDegrees>
              <LongitudeDegrees>-4.03365754522383213043212890625</LongitudeDegrees>
            </Position>
            <AltitudeMeters>892.5999755859375</AltitudeMeters>
            <DistanceMeters>NAN</DistanceMeters>
          </Trackpoint>
          <Trackpoint>
            <Time>2019-08-01T16:30:04.000Z</Time>
            <Position>
              <LatitudeDegrees>40.64154286868870258331298828125</LatitudeDegrees>
              <LongitudeDegrees>-4.03359048999845981597900390625</LongitudeDegrees>
            </Position>
            <AltitudeMeters>892.5999755859375</AltitudeMeters>
            <DistanceMeters>NAN</DistanceMeters>
          </Trackpoint>
          <Trackpoint>
            <Time>2019-08-01T16:30:05.000Z</Time>
            <Position>
              <LatitudeDegrees>40.6414966844022274017333984375</LatitudeDegrees>
              <LongitudeDegrees>-4.03352133929729461669921875</LongitudeDegrees>
            </Position>
            <AltitudeMeters>892.4000244140625</AltitudeMeters>
            <DistanceMeters>NAN</DistanceMeters>
          </Trackpoint>
          <Trackpoint>
            <Time>2019-08-01T16:30:06.000Z</Time>
            <Position>
              <LatitudeDegrees>40.641450248658657073974609375</LatitudeDegrees>
              <LongitudeDegrees>-4.0334522724151611328125</LongitudeDegrees>
            </Position>
            <AltitudeMeters>892.20001220703125</AltitudeMeters>
            <DistanceMeters>NAN</DistanceMeters>
          </Trackpoint>
          <Trackpoint>
            <Time>2019-08-01T16:30:07.000Z</Time>
            <Position>
              <LatitudeDegrees>40.6414034776389598846435546875</LatitudeDegrees>
              <LongitudeDegrees>-4.03338454663753509521484375</LongitudeDegrees>
            </Position>
            <AltitudeMeters>892</AltitudeMeters>
            <DistanceMeters>NAN</DistanceMeters>
          </Trackpoint>
          <Trackpoint>
            <Time>2019-08-01T16:30:08.000Z</Time>
            <Position>
              <LatitudeDegrees>40.64135444350540637969970703125</LatitudeDegrees>
              <LongitudeDegrees>-4.0333213470876216888427734375</LongitudeDegrees>
            </Position>
            <AltitudeMeters>891.79998779296875</AltitudeMeters>
            <DistanceMeters>NAN</DistanceMeters>
          </Trackpoint>
          <Trackpoint>
            <Time>2019-08-01T16:30:09.000Z</Time>
            <Position>
              <LatitudeDegrees>40.6412995420396327972412109375</LatitudeDegrees>
              <LongitudeDegrees>-4.0332698822021484375</LongitudeDegrees>
            </Position>
            <AltitudeMeters>891.79998779296875</AltitudeMeters>
            <DistanceMeters>NAN</DistanceMeters>
          </Trackpoint>
          <Trackpoint>
            <Time>2019-08-01T16:30:10.000Z</Time>
            <Position>
              <LatitudeDegrees>40.64123667776584625244140625</LatitudeDegrees>
              <LongitudeDegrees>-4.0332417190074920654296875</LongitudeDegrees>
            </Position>
            <AltitudeMeters>891.5999755859375</AltitudeMeters>
            <DistanceMeters>NAN</DistanceMeters>
          </Trackpoint>
          <Trackpoint>
            <Time>2019-08-01T16:30:11.000Z</Time>
            <Position>
              <LatitudeDegrees>40.64117087982594966888427734375</LatitudeDegrees>
              <LongitudeDegrees>-4.0332392044365406036376953125</LongitudeDegrees>
            </Position>
            <AltitudeMeters>891.5999755859375</AltitudeMeters>
            <DistanceMeters>NAN</DistanceMeters>
          </Trackpoint>
          <Trackpoint>
            <Time>2019-08-01T16:30:12.000Z</Time>
            <Position>
              <LatitudeDegrees>40.641107596457004547119140625</LatitudeDegrees>
              <LongitudeDegrees>-4.0332516096532344818115234375</LongitudeDegrees>
            </Position>
            <AltitudeMeters>891.4000244140625</AltitudeMeters>
            <DistanceMeters>NAN</DistanceMeters>
          </Trackpoint>
          <Trackpoint>
            <Time>2019-08-01T16:30:13.000Z</Time>
            <Position>
              <LatitudeDegrees>40.64104632474482059478759765625</LatitudeDegrees>
              <LongitudeDegrees>-4.0332670323550701141357421875</LongitudeDegrees>
            </Position>
            <AltitudeMeters>891.20001220703125</AltitudeMeters>
            <DistanceMeters>NAN</DistanceMeters>
          </Trackpoint>
          <Trackpoint>
            <Time>2019-08-01T16:30:14.000Z</Time>
            <Position>
              <LatitudeDegrees>40.64098563976585865020751953125</LatitudeDegrees>
              <LongitudeDegrees>-4.0332777611911296844482421875</LongitudeDegrees>
            </Position>
            <AltitudeMeters>891.4000244140625</AltitudeMeters>
            <DistanceMeters>NAN</DistanceMeters>
          </Trackpoint>
          <Trackpoint>
            <Time>2019-08-01T16:30:15.000Z</Time>
            <Position>
              <LatitudeDegrees>40.6409243680536746978759765625</LatitudeDegrees>
              <LongitudeDegrees>-4.033279605209827423095703125</LongitudeDegrees>
            </Position>
            <AltitudeMeters>891.4000244140625</AltitudeMeters>
            <DistanceMeters>NAN</DistanceMeters>
          </Trackpoint>
          <Trackpoint>
            <Time>2019-08-01T16:30:16.000Z</Time>
            <Position>
              <LatitudeDegrees>40.6408623419702053070068359375</LatitudeDegrees>
              <LongitudeDegrees>-4.03326912783086299896240234375</LongitudeDegrees>
            </Position>
            <AltitudeMeters>891.4000244140625</AltitudeMeters>
            <DistanceMeters>NAN</DistanceMeters>
          </Trackpoint>
          <Trackpoint>
            <Time>2019-08-01T16:30:17.000Z</Time>
            <Position>
              <LatitudeDegrees>40.64080157317221164703369140625</LatitudeDegrees>
              <LongitudeDegrees>-4.03324507176876068115234375</LongitudeDegrees>
            </Position>
            <AltitudeMeters>891.20001220703125</AltitudeMeters>
            <DistanceMeters>NAN</DistanceMeters>
          </Trackpoint>
          <Trackpoint>
            <Time>2019-08-01T16:30:18.000Z</Time>
            <Position>
              <LatitudeDegrees>40.6407433189451694488525390625</LatitudeDegrees>
              <LongitudeDegrees>-4.03320827521383762359619140625</LongitudeDegrees>
            </Position>
            <AltitudeMeters>891</AltitudeMeters>
            <DistanceMeters>NAN</DistanceMeters>
          </Trackpoint>
          <Trackpoint>
            <Time>2019-08-01T16:30:19.000Z</Time>
            <Position>
              <LatitudeDegrees>40.64068908803164958953857421875</LatitudeDegrees>
              <LongitudeDegrees>-4.03315932489931583404541015625</LongitudeDegrees>
            </Position>
            <AltitudeMeters>891</AltitudeMeters>
            <DistanceMeters>NAN</DistanceMeters>
          </Trackpoint>
          <Trackpoint>
            <Time>2019-08-01T16:30:20.000Z</Time>
            <Position>
              <LatitudeDegrees>40.64068908803164958953857421875</LatitudeDegrees>
              <LongitudeDegrees>-4.03315932489931583404541015625</LongitudeDegrees>
            </Position>
            <AltitudeMeters>890.79998779296875</AltitudeMeters>
            <DistanceMeters>NAN</DistanceMeters>
          </Trackpoint>
          <Trackpoint>
            <Time>2019-08-01T16:30:21.000Z</Time>
            <Position>
              <LatitudeDegrees>40.64058716408908367156982421875</LatitudeDegrees>
              <LongitudeDegrees>-4.03303720057010650634765625</LongitudeDegrees>
            </Position>
            <AltitudeMeters>890.79998779296875</AltitudeMeters>
            <DistanceMeters>NAN</DistanceMeters>
          </Trackpoint>
          <Trackpoint>
            <Time>2019-08-01T16:30:22.000Z</Time>
            <Position>
              <LatitudeDegrees>40.6405372917652130126953125</LatitudeDegrees>
              <LongitudeDegrees>-4.0329708158969879150390625</LongitudeDegrees>
            </Position>
            <AltitudeMeters>890.79998779296875</AltitudeMeters>
            <DistanceMeters>NAN</DistanceMeters>
          </Trackpoint>
          <Trackpoint>
            <Time>2019-08-01T16:30:23.000Z</Time>
            <Position>
              <LatitudeDegrees>40.64048909582197666168212890625</LatitudeDegrees>
              <LongitudeDegrees>-4.03290334157645702362060546875</LongitudeDegrees>
            </Position>
            <AltitudeMeters>890.5999755859375</AltitudeMeters>
            <DistanceMeters>NAN</DistanceMeters>
          </Trackpoint>
          <Trackpoint>
            <Time>2019-08-01T16:30:24.000Z</Time>
            <Position>
              <LatitudeDegrees>40.64048909582197666168212890625</LatitudeDegrees>
              <LongitudeDegrees>-4.03290334157645702362060546875</LongitudeDegrees>
            </Position>
            <AltitudeMeters>890.5999755859375</AltitudeMeters>
            <DistanceMeters>NAN</DistanceMeters>
          </Trackpoint>
          <Trackpoint>
            <Time>2019-08-01T16:30:25.000Z</Time>
            <Position>
              <LatitudeDegrees>40.6403924524784088134765625</LatitudeDegrees>
              <LongitudeDegrees>-4.032776691019535064697265625</LongitudeDegrees>
            </Position>
            <AltitudeMeters>890.5999755859375</AltitudeMeters>
            <DistanceMeters>NAN</DistanceMeters>
          </Trackpoint>
          <Trackpoint>
            <Time>2019-08-01T16:30:26.000Z</Time>
            <Position>
              <LatitudeDegrees>40.64034274779260158538818359375</LatitudeDegrees>
              <LongitudeDegrees>-4.03271843679249286651611328125</LongitudeDegrees>
            </Position>
            <AltitudeMeters>890.5999755859375</AltitudeMeters>
            <DistanceMeters>NAN</DistanceMeters>
          </Trackpoint>
          <Trackpoint>
            <Time>2019-08-01T16:30:27.000Z</Time>
            <Position>
              <LatitudeDegrees>40.64029195345938205718994140625</LatitudeDegrees>
              <LongitudeDegrees>-4.03266244567930698394775390625</LongitudeDegrees>
            </Position>
            <AltitudeMeters>890.4000244140625</AltitudeMeters>
            <DistanceMeters>NAN</DistanceMeters>
          </Trackpoint>
          <Trackpoint>
            <Time>2019-08-01T16:30:28.000Z</Time>
            <Position>
              <LatitudeDegrees>40.64024032093584537506103515625</LatitudeDegrees>
              <LongitudeDegrees>-4.03260863386094570159912109375</LongitudeDegrees>
            </Position>
            <AltitudeMeters>890.4000244140625</AltitudeMeters>
            <DistanceMeters>NAN</DistanceMeters>
          </Trackpoint>
          <Trackpoint>
            <Time>2019-08-01T16:30:29.000Z</Time>
            <Position>
              <LatitudeDegrees>40.6401877664029598236083984375</LatitudeDegrees>
              <LongitudeDegrees>-4.03255716897547245025634765625</LongitudeDegrees>
            </Position>
            <AltitudeMeters>890.4000244140625</AltitudeMeters>
            <DistanceMeters>NAN</DistanceMeters>
          </Trackpoint>
          <Trackpoint>
            <Time>2019-08-01T16:30:30.000Z</Time>
            <Position>
              <LatitudeDegrees>40.6401336193084716796875</LatitudeDegrees>
              <LongitudeDegrees>-4.032508470118045806884765625</LongitudeDegrees>
            </Position>
            <AltitudeMeters>890.4000244140625</AltitudeMeters>
            <DistanceMeters>NAN</DistanceMeters>
          </Trackpoint>
          <Trackpoint>
            <Time>2019-08-01T16:30:31.000Z</Time>
            <Position>
              <LatitudeDegrees>40.64007855020463466644287109375</LatitudeDegrees>
              <LongitudeDegrees>-4.03246060945093631744384765625</LongitudeDegrees>
            </Position>
            <AltitudeMeters>890.4000244140625</AltitudeMeters>
            <DistanceMeters>NAN</DistanceMeters>
          </Trackpoint>
          <Trackpoint>
            <Time>2019-08-01T16:30:32.000Z</Time>
            <Position>
              <LatitudeDegrees>40.64002272672951221466064453125</LatitudeDegrees>
              <LongitudeDegrees>-4.0324124135076999664306640625</LongitudeDegrees>
            </Position>
            <AltitudeMeters>890.4000244140625</AltitudeMeters>
            <DistanceMeters>NAN</DistanceMeters>
          </Trackpoint>
          <Trackpoint>
            <Time>2019-08-01T16:30:33.000Z</Time>
            <Position>
              <LatitudeDegrees>40.6399659812450408935546875</LatitudeDegrees>
              <LongitudeDegrees>-4.0323648042976856231689453125</LongitudeDegrees>
            </Position>
            <AltitudeMeters>890.4000244140625</AltitudeMeters>
            <DistanceMeters>NAN</DistanceMeters>
          </Trackpoint>
          <Trackpoint>
            <Time>2019-08-01T16:30:34.000Z</Time>
            <Position>
              <LatitudeDegrees>40.6399084813892841339111328125</LatitudeDegrees>
              <LongitudeDegrees>-4.0323178656399250030517578125</LongitudeDegrees>
            </Position>
            <AltitudeMeters>890.20001220703125</AltitudeMeters>
            <DistanceMeters>NAN</DistanceMeters>
          </Trackpoint>
          <Trackpoint>
            <Time>2019-08-01T16:30:35.000Z</Time>
            <Position>
              <LatitudeDegrees>40.63985022716224193572998046875</LatitudeDegrees>
              <LongitudeDegrees>-4.03227151371538639068603515625</LongitudeDegrees>
            </Position>
            <AltitudeMeters>890.20001220703125</AltitudeMeters>
            <DistanceMeters>NAN</DistanceMeters>
          </Trackpoint>
          <Trackpoint>
            <Time>2019-08-01T16:30:36.000Z</Time>
            <Position>
              <LatitudeDegrees>40.63979172147810459136962890625</LatitudeDegrees>
              <LongitudeDegrees>-4.0322263352572917938232421875</LongitudeDegrees>
            </Position>
            <AltitudeMeters>890</AltitudeMeters>
            <DistanceMeters>NAN</DistanceMeters>
          </Trackpoint>
          <Trackpoint>
            <Time>2019-08-01T16:30:37.000Z</Time>
            <Position>
              <LatitudeDegrees>40.63973329961299896240234375</LatitudeDegrees>
              <LongitudeDegrees>-4.0321824140846729278564453125</LongitudeDegrees>
            </Position>
            <AltitudeMeters>890</AltitudeMeters>
            <DistanceMeters>NAN</DistanceMeters>
          </Trackpoint>
          <Trackpoint>
            <Time>2019-08-01T16:30:38.000Z</Time>
            <Position>
              <LatitudeDegrees>40.63967521302402019500732421875</LatitudeDegrees>
              <LongitudeDegrees>-4.03214008547365665435791015625</LongitudeDegrees>
            </Position>
            <AltitudeMeters>890</AltitudeMeters>
            <DistanceMeters>NAN</DistanceMeters>
          </Trackpoint>
          <Trackpoint>
            <Time>2019-08-01T16:30:39.000Z</Time>
            <Position>
              <LatitudeDegrees>40.63961653970181941986083984375</LatitudeDegrees>
              <LongitudeDegrees>-4.03209884651005268096923828125</LongitudeDegrees>
            </Position>
            <AltitudeMeters>890</AltitudeMeters>
            <DistanceMeters>NAN</DistanceMeters>
          </Trackpoint>
          <Trackpoint>
            <Time>2019-08-01T16:30:40.000Z</Time>
            <Position>
              <LatitudeDegrees>40.63955761492252349853515625</LatitudeDegrees>
              <LongitudeDegrees>-4.03205878101289272308349609375</LongitudeDegrees>
            </Position>
            <AltitudeMeters>890.20001220703125</AltitudeMeters>
            <DistanceMeters>NAN</DistanceMeters>
          </Trackpoint>
          <Trackpoint>
            <Time>2019-08-01T16:30:41.000Z</Time>
            <Position>
              <LatitudeDegrees>40.63955761492252349853515625</LatitudeDegrees>
              <LongitudeDegrees>-4.03205878101289272308349609375</LongitudeDegrees>
            </Position>
            <AltitudeMeters>890.4000244140625</AltitudeMeters>
            <DistanceMeters>NAN</DistanceMeters>
          </Trackpoint>
          <Trackpoint>
            <Time>2019-08-01T16:30:42.000Z</Time>
            <Position>
              <LatitudeDegrees>40.63955761492252349853515625</LatitudeDegrees>
              <LongitudeDegrees>-4.03205878101289272308349609375</LongitudeDegrees>
            </Position>
            <AltitudeMeters>890.4000244140625</AltitudeMeters>
            <DistanceMeters>NAN</DistanceMeters>
          </Trackpoint>
          <Trackpoint>
            <Time>2019-08-01T16:30:43.000Z</Time>
            <Position>
              <LatitudeDegrees>40.63938327133655548095703125</LatitudeDegrees>
              <LongitudeDegrees>-4.0319450385868549346923828125</LongitudeDegrees>
            </Position>
            <AltitudeMeters>890.5999755859375</AltitudeMeters>
            <DistanceMeters>NAN</DistanceMeters>
          </Trackpoint>
          <Trackpoint>
            <Time>2019-08-01T16:30:44.000Z</Time>
            <Position>
              <LatitudeDegrees>40.639324598014354705810546875</LatitudeDegrees>
              <LongitudeDegrees>-4.03190941549837589263916015625</LongitudeDegrees>
            </Position>
            <AltitudeMeters>890.5999755859375</AltitudeMeters>
            <DistanceMeters>NAN</DistanceMeters>
          </Trackpoint>
          <Trackpoint>
            <Time>2019-08-01T16:30:45.000Z</Time>
            <Position>
              <LatitudeDegrees>40.63926433213055133819580078125</LatitudeDegrees>
              <LongitudeDegrees>-4.0318764746189117431640625</LongitudeDegrees>
            </Position>
            <AltitudeMeters>890.5999755859375</AltitudeMeters>
            <DistanceMeters>NAN</DistanceMeters>
          </Trackpoint>
          <Trackpoint>
            <Time>2019-08-01T16:30:46.000Z</Time>
            <Position>
              <LatitudeDegrees>40.639203228056430816650390625</LatitudeDegrees>
              <LongitudeDegrees>-4.03184554539620876312255859375</LongitudeDegrees>
            </Position>
            <AltitudeMeters>890.5999755859375</AltitudeMeters>
            <DistanceMeters>NAN</DistanceMeters>
          </Trackpoint>
          <Trackpoint>
            <Time>2019-08-01T16:30:47.000Z</Time>
            <Position>
              <LatitudeDegrees>40.639141537249088287353515625</LatitudeDegrees>
              <LongitudeDegrees>-4.03181671164929866790771484375</LongitudeDegrees>
            </Position>
            <AltitudeMeters>890.79998779296875</AltitudeMeters>
            <DistanceMeters>NAN</DistanceMeters>
          </Trackpoint>
          <Trackpoint>
            <Time>2019-08-01T16:30:48.000Z</Time>
            <Position>
              <LatitudeDegrees>40.63907993026077747344970703125</LatitudeDegrees>
              <LongitudeDegrees>-4.03178955428302288055419921875</LongitudeDegrees>
            </Position>
            <AltitudeMeters>890.79998779296875</AltitudeMeters>
            <DistanceMeters>NAN</DistanceMeters>
          </Trackpoint>
          <Trackpoint>
            <Time>2019-08-01T16:30:49.000Z</Time>
            <Position>
              <LatitudeDegrees>40.6390193291008472442626953125</LatitudeDegrees>
              <LongitudeDegrees>-4.03176424093544483184814453125</LongitudeDegrees>
            </Position>
            <AltitudeMeters>890.79998779296875</AltitudeMeters>
            <DistanceMeters>NAN</DistanceMeters>
          </Trackpoint>
          <Trackpoint>
            <Time>2019-08-01T16:30:50.000Z</Time>
            <Position>
              <LatitudeDegrees>40.63895814120769500732421875</LatitudeDegrees>
              <LongitudeDegrees>-4.03174144215881824493408203125</LongitudeDegrees>
            </Position>
            <AltitudeMeters>890.79998779296875</AltitudeMeters>
            <DistanceMeters>NAN</DistanceMeters>
          </Trackpoint>
          <Trackpoint>
            <Time>2019-08-01T16:30:51.000Z</Time>
            <Position>
              <LatitudeDegrees>40.63889603130519390106201171875</LatitudeDegrees>
              <LongitudeDegrees>-4.03172082267701625823974609375</LongitudeDegrees>
            </Position>
            <AltitudeMeters>891</AltitudeMeters>
            <DistanceMeters>NAN</DistanceMeters>
          </Trackpoint>
          <Trackpoint>
            <Time>2019-08-01T16:30:52.000Z</Time>
            <Position>
              <LatitudeDegrees>40.6388335861265659332275390625</LatitudeDegrees>
              <LongitudeDegrees>-4.0317016281187534332275390625</LongitudeDegrees>
            </Position>
            <AltitudeMeters>891.20001220703125</AltitudeMeters>
            <DistanceMeters>NAN</DistanceMeters>
          </Trackpoint>
          <Trackpoint>
            <Time>2019-08-01T16:30:53.000Z</Time>
            <Position>
              <LatitudeDegrees>40.6388335861265659332275390625</LatitudeDegrees>
              <LongitudeDegrees>-4.0317016281187534332275390625</LongitudeDegrees>
            </Position>
            <AltitudeMeters>891.4000244140625</AltitudeMeters>
            <DistanceMeters>NAN</DistanceMeters>
          </Trackpoint>
          <Trackpoint>
            <Time>2019-08-01T16:30:54.000Z</Time>
            <Position>
              <LatitudeDegrees>40.6388335861265659332275390625</LatitudeDegrees>
              <LongitudeDegrees>-4.0317016281187534332275390625</LongitudeDegrees>
            </Position>
            <AltitudeMeters>891.79998779296875</AltitudeMeters>
            <DistanceMeters>NAN</DistanceMeters>
          </Trackpoint>
          <Trackpoint>
            <Time>2019-08-01T16:30:55.000Z</Time>
            <Position>
              <LatitudeDegrees>40.6386448256671428680419921875</LatitudeDegrees>
              <LongitudeDegrees>-4.03165225870907306671142578125</LongitudeDegrees>
            </Position>
            <AltitudeMeters>891.79998779296875</AltitudeMeters>
            <DistanceMeters>NAN</DistanceMeters>
          </Trackpoint>
          <Trackpoint>
            <Time>2019-08-01T16:30:56.000Z</Time>
            <Position>
              <LatitudeDegrees>40.63858120702207088470458984375</LatitudeDegrees>
              <LongitudeDegrees>-4.03163650073111057281494140625</LongitudeDegrees>
            </Position>
            <AltitudeMeters>892</AltitudeMeters>
            <DistanceMeters>NAN</DistanceMeters>
          </Trackpoint>
          <Trackpoint>
            <Time>2019-08-01T16:30:57.000Z</Time>
            <Position>
              <LatitudeDegrees>40.63851683400571346282958984375</LatitudeDegrees>
              <LongitudeDegrees>-4.03162091039121150970458984375</LongitudeDegrees>
            </Position>
            <AltitudeMeters>892</AltitudeMeters>
            <DistanceMeters>NAN</DistanceMeters>
          </Trackpoint>
          <Trackpoint>
            <Time>2019-08-01T16:30:58.000Z</Time>
            <Position>
              <LatitudeDegrees>40.63845145516097545623779296875</LatitudeDegrees>
              <LongitudeDegrees>-4.03160615824162960052490234375</LongitudeDegrees>
            </Position>
            <AltitudeMeters>892.20001220703125</AltitudeMeters>
            <DistanceMeters>NAN</DistanceMeters>
          </Trackpoint>
          <Trackpoint>
            <Time>2019-08-01T16:30:59.000Z</Time>
            <Position>
              <LatitudeDegrees>40.63838641159236431121826171875</LatitudeDegrees>
              <LongitudeDegrees>-4.03159140609204769134521484375</LongitudeDegrees>
            </Position>
            <AltitudeMeters>892.20001220703125</AltitudeMeters>
            <DistanceMeters>NAN</DistanceMeters>
          </Trackpoint>
          <Trackpoint>
            <Time>2019-08-01T16:31:00.000Z</Time>
            <Position>
              <LatitudeDegrees>40.63832153566181659698486328125</LatitudeDegrees>
              <LongitudeDegrees>-4.0315760672092437744140625</LongitudeDegrees>
            </Position>
            <AltitudeMeters>892.4000244140625</AltitudeMeters>
            <DistanceMeters>NAN</DistanceMeters>
          </Trackpoint>
          <Trackpoint>
            <Time>2019-08-01T16:31:01.000Z</Time>
            <Position>
              <LatitudeDegrees>40.6382574141025543212890625</LatitudeDegrees>
              <LongitudeDegrees>-4.03156064450740814208984375</LongitudeDegrees>
            </Position>
            <AltitudeMeters>892.4000244140625</AltitudeMeters>
            <DistanceMeters>NAN</DistanceMeters>
          </Trackpoint>
          <Trackpoint>
            <Time>2019-08-01T16:31:02.000Z</Time>
            <Position>
              <LatitudeDegrees>40.638193376362323760986328125</LatitudeDegrees>
              <LongitudeDegrees>-4.031545221805572509765625</LongitudeDegrees>
            </Position>
            <AltitudeMeters>892.5999755859375</AltitudeMeters>
            <DistanceMeters>NAN</DistanceMeters>
          </Trackpoint>
          <Trackpoint>
            <Time>2019-08-01T16:31:03.000Z</Time>
            <Position>
              <LatitudeDegrees>40.638129673898220062255859375</LatitudeDegrees>
              <LongitudeDegrees>-4.03153005056083202362060546875</LongitudeDegrees>
            </Position>
            <AltitudeMeters>893</AltitudeMeters>
            <DistanceMeters>NAN</DistanceMeters>
          </Trackpoint>
          <Trackpoint>
            <Time>2019-08-01T16:31:04.000Z</Time>
            <Position>
              <LatitudeDegrees>40.63806639052927494049072265625</LatitudeDegrees>
              <LongitudeDegrees>-4.03151429258286952972412109375</LongitudeDegrees>
            </Position>
            <AltitudeMeters>893.20001220703125</AltitudeMeters>
            <DistanceMeters>NAN</DistanceMeters>
          </Trackpoint>
          <Trackpoint>
            <Time>2019-08-01T16:31:05.000Z</Time>
            <Position>
              <LatitudeDegrees>40.63800252042710781097412109375</LatitudeDegrees>
              <LongitudeDegrees>-4.03149870224297046661376953125</LongitudeDegrees>
            </Position>
            <AltitudeMeters>893.20001220703125</AltitudeMeters>
            <DistanceMeters>NAN</DistanceMeters>
          </Trackpoint>
          <Trackpoint>
            <Time>2019-08-01T16:31:06.000Z</Time>
            <Position>
              <LatitudeDegrees>40.63793890178203582763671875</LatitudeDegrees>
              <LongitudeDegrees>-4.03148327954113483428955078125</LongitudeDegrees>
            </Position>
            <AltitudeMeters>893.20001220703125</AltitudeMeters>
            <DistanceMeters>NAN</DistanceMeters>
          </Trackpoint>
          <Trackpoint>
            <Time>2019-08-01T16:31:07.000Z</Time>
            <Position>
              <LatitudeDegrees>40.6378750316798686981201171875</LatitudeDegrees>
              <LongitudeDegrees>-4.031468443572521209716796875</LongitudeDegrees>
            </Position>
            <AltitudeMeters>893.20001220703125</AltitudeMeters>
            <DistanceMeters>NAN</DistanceMeters>
          </Trackpoint>
          <Trackpoint>
            <Time>2019-08-01T16:31:08.000Z</Time>
            <Position>
              <LatitudeDegrees>40.63781149685382843017578125</LatitudeDegrees>
              <LongitudeDegrees>-4.0314538590610027313232421875</LongitudeDegrees>
            </Position>
            <AltitudeMeters>893.4000244140625</AltitudeMeters>
            <DistanceMeters>NAN</DistanceMeters>
          </Trackpoint>
          <Trackpoint>
            <Time>2019-08-01T16:31:09.000Z</Time>
            <Position>
              <LatitudeDegrees>40.63774804584681987762451171875</LatitudeDegrees>
              <LongitudeDegrees>-4.03143919073045253753662109375</LongitudeDegrees>
            </Position>
            <AltitudeMeters>893.4000244140625</AltitudeMeters>
            <DistanceMeters>NAN</DistanceMeters>
          </Trackpoint>
          <Trackpoint>
            <Time>2019-08-01T16:31:10.000Z</Time>
            <Position>
              <LatitudeDegrees>40.63768400810658931732177734375</LatitudeDegrees>
              <LongitudeDegrees>-4.03142393566668033599853515625</LongitudeDegrees>
            </Position>
            <AltitudeMeters>893.4000244140625</AltitudeMeters>
            <DistanceMeters>NAN</DistanceMeters>
          </Trackpoint>
          <Trackpoint>
            <Time>2019-08-01T16:31:11.000Z</Time>
            <Position>
              <LatitudeDegrees>40.6376202218234539031982421875</LatitudeDegrees>
              <LongitudeDegrees>-4.03140842914581298828125</LongitudeDegrees>
            </Position>
            <AltitudeMeters>893.4000244140625</AltitudeMeters>
            <DistanceMeters>NAN</DistanceMeters>
          </Trackpoint>
          <Trackpoint>
            <Time>2019-08-01T16:31:12.000Z</Time>
            <Position>
              <LatitudeDegrees>40.6376202218234539031982421875</LatitudeDegrees>
              <LongitudeDegrees>-4.03140842914581298828125</LongitudeDegrees>
            </Position>
            <AltitudeMeters>893.4000244140625</AltitudeMeters>
            <DistanceMeters>NAN</DistanceMeters>
          </Trackpoint>
          <Trackpoint>
            <Time>2019-08-01T16:31:13.000Z</Time>
            <Position>
              <LatitudeDegrees>40.637495331466197967529296875</LatitudeDegrees>
              <LongitudeDegrees>-4.0313800983130931854248046875</LongitudeDegrees>
            </Position>
            <AltitudeMeters>893.4000244140625</AltitudeMeters>
            <DistanceMeters>NAN</DistanceMeters>
          </Trackpoint>
          <Trackpoint>
            <Time>2019-08-01T16:31:14.000Z</Time>
            <Position>
              <LatitudeDegrees>40.63743422739207744598388671875</LatitudeDegrees>
              <LongitudeDegrees>-4.03136526234447956085205078125</LongitudeDegrees>
            </Position>
            <AltitudeMeters>893.4000244140625</AltitudeMeters>
            <DistanceMeters>NAN</DistanceMeters>
          </Trackpoint>
          <Trackpoint>
            <Time>2019-08-01T16:31:15.000Z</Time>
            <Position>
              <LatitudeDegrees>40.6373751349747180938720703125</LatitudeDegrees>
              <LongitudeDegrees>-4.03135051019489765167236328125</LongitudeDegrees>
            </Position>
            <AltitudeMeters>893.4000244140625</AltitudeMeters>
            <DistanceMeters>NAN</DistanceMeters>
          </Trackpoint>
          <Trackpoint>
            <Time>2019-08-01T16:31:16.000Z</Time>
            <Position>
              <LatitudeDegrees>40.63731662929058074951171875</LatitudeDegrees>
              <LongitudeDegrees>-4.03133743442595005035400390625</LongitudeDegrees>
            </Position>
            <AltitudeMeters>893.5999755859375</AltitudeMeters>
            <DistanceMeters>NAN</DistanceMeters>
          </Trackpoint>
          <Trackpoint>
            <Time>2019-08-01T16:31:17.000Z</Time>
            <Position>
              <LatitudeDegrees>40.6372596323490142822265625</LatitudeDegrees>
              <LongitudeDegrees>-4.03132461011409759521484375</LongitudeDegrees>
            </Position>
            <AltitudeMeters>893.5999755859375</AltitudeMeters>
            <DistanceMeters>NAN</DistanceMeters>
          </Trackpoint>
          <Trackpoint>
            <Time>2019-08-01T16:31:18.000Z</Time>
            <Position>
              <LatitudeDegrees>40.63720255158841609954833984375</LatitudeDegrees>
              <LongitudeDegrees>-4.03131010942161083221435546875</LongitudeDegrees>
            </Position>
            <AltitudeMeters>893.5999755859375</AltitudeMeters>
            <DistanceMeters>NAN</DistanceMeters>
          </Trackpoint>
          <Trackpoint>
            <Time>2019-08-01T16:31:19.000Z</Time>
            <Position>
              <LatitudeDegrees>40.6371454708278179168701171875</LatitudeDegrees>
              <LongitudeDegrees>-4.0312957763671875</LongitudeDegrees>
            </Position>
            <AltitudeMeters>893.5999755859375</AltitudeMeters>
            <DistanceMeters>NAN</DistanceMeters>
          </Trackpoint>
          <Trackpoint>
            <Time>2019-08-01T16:31:20.000Z</Time>
            <Position>
              <LatitudeDegrees>40.63708864152431488037109375</LatitudeDegrees>
              <LongitudeDegrees>-4.03128177858889102935791015625</LongitudeDegrees>
            </Position>
            <AltitudeMeters>893.5999755859375</AltitudeMeters>
            <DistanceMeters>NAN</DistanceMeters>
          </Trackpoint>
          <Trackpoint>
            <Time>2019-08-01T16:31:21.000Z</Time>
            <Position>
              <LatitudeDegrees>40.63703239895403385162353515625</LatitudeDegrees>
              <LongitudeDegrees>-4.0312687866389751434326171875</LongitudeDegrees>
            </Position>
            <AltitudeMeters>893.5999755859375</AltitudeMeters>
            <DistanceMeters>NAN</DistanceMeters>
          </Trackpoint>
          <Trackpoint>
            <Time>2019-08-01T16:31:22.000Z</Time>
            <Position>
              <LatitudeDegrees>40.636976659297943115234375</LatitudeDegrees>
              <LongitudeDegrees>-4.0312553755939006805419921875</LongitudeDegrees>
            </Position>
            <AltitudeMeters>893.5999755859375</AltitudeMeters>
            <DistanceMeters>NAN</DistanceMeters>
          </Trackpoint>
          <Trackpoint>
            <Time>2019-08-01T16:31:23.000Z</Time>
            <Position>
              <LatitudeDegrees>40.63691991381347179412841796875</LatitudeDegrees>
              <LongitudeDegrees>-4.031241796910762786865234375</LongitudeDegrees>
            </Position>
            <AltitudeMeters>893.79998779296875</AltitudeMeters>
            <DistanceMeters>NAN</DistanceMeters>
          </Trackpoint>
          <Trackpoint>
            <Time>2019-08-01T16:31:24.000Z</Time>
            <Position>
              <LatitudeDegrees>40.63686157576739788055419921875</LatitudeDegrees>
              <LongitudeDegrees>-4.0312273800373077392578125</LongitudeDegrees>
            </Position>
            <AltitudeMeters>893.79998779296875</AltitudeMeters>
            <DistanceMeters>NAN</DistanceMeters>
          </Trackpoint>
          <Trackpoint>
            <Time>2019-08-01T16:31:25.000Z</Time>
            <Position>
              <LatitudeDegrees>40.63680223189294338226318359375</LatitudeDegrees>
              <LongitudeDegrees>-4.03121304698288440704345703125</LongitudeDegrees>
            </Position>
            <AltitudeMeters>893.79998779296875</AltitudeMeters>
            <DistanceMeters>NAN</DistanceMeters>
          </Trackpoint>
          <Trackpoint>
            <Time>2019-08-01T16:31:26.000Z</Time>
            <Position>
              <LatitudeDegrees>40.6367414630949497222900390625</LatitudeDegrees>
              <LongitudeDegrees>-4.03119896538555622100830078125</LongitudeDegrees>
            </Position>
            <AltitudeMeters>893.79998779296875</AltitudeMeters>
            <DistanceMeters>NAN</DistanceMeters>
          </Trackpoint>
          <Trackpoint>
            <Time>2019-08-01T16:31:27.000Z</Time>
            <Position>
              <LatitudeDegrees>40.63667952083051204681396484375</LatitudeDegrees>
              <LongitudeDegrees>-4.03118471615016460418701171875</LongitudeDegrees>
            </Position>
            <AltitudeMeters>893.79998779296875</AltitudeMeters>
            <DistanceMeters>NAN</DistanceMeters>
          </Trackpoint>
          <Trackpoint>
            <Time>2019-08-01T16:31:28.000Z</Time>
            <Position>
              <LatitudeDegrees>40.63661665655672550201416015625</LatitudeDegrees>
              <LongitudeDegrees>-4.03116979636251926422119140625</LongitudeDegrees>
            </Position>
            <AltitudeMeters>893.79998779296875</AltitudeMeters>
            <DistanceMeters>NAN</DistanceMeters>
          </Trackpoint>
          <Trackpoint>
            <Time>2019-08-01T16:31:29.000Z</Time>
            <Position>
              <LatitudeDegrees>40.63655228354036808013916015625</LatitudeDegrees>
              <LongitudeDegrees>-4.031153619289398193359375</LongitudeDegrees>
            </Position>
            <AltitudeMeters>893.79998779296875</AltitudeMeters>
            <DistanceMeters>NAN</DistanceMeters>
          </Trackpoint>
          <Trackpoint>
            <Time>2019-08-01T16:31:30.000Z</Time>
            <Position>
              <LatitudeDegrees>40.6364876590669155120849609375</LatitudeDegrees>
              <LongitudeDegrees>-4.0311376936733722686767578125</LongitudeDegrees>
            </Position>
            <AltitudeMeters>893.79998779296875</AltitudeMeters>
            <DistanceMeters>NAN</DistanceMeters>
          </Trackpoint>
          <Trackpoint>
            <Time>2019-08-01T16:31:31.000Z</Time>
            <Position>
              <LatitudeDegrees>40.6364232860505580902099609375</LatitudeDegrees>
              <LongitudeDegrees>-4.03112210333347320556640625</LongitudeDegrees>
            </Position>
            <AltitudeMeters>893.79998779296875</AltitudeMeters>
            <DistanceMeters>NAN</DistanceMeters>
          </Trackpoint>
          <Trackpoint>
            <Time>2019-08-01T16:31:32.000Z</Time>
            <Position>
              <LatitudeDegrees>40.636359415948390960693359375</LatitudeDegrees>
              <LongitudeDegrees>-4.03110642917454242706298828125</LongitudeDegrees>
            </Position>
            <AltitudeMeters>893.79998779296875</AltitudeMeters>
            <DistanceMeters>NAN</DistanceMeters>
          </Trackpoint>
          <Trackpoint>
            <Time>2019-08-01T16:31:33.000Z</Time>
            <Position>
              <LatitudeDegrees>40.63629428856074810028076171875</LatitudeDegrees>
              <LongitudeDegrees>-4.03109050355851650238037109375</LongitudeDegrees>
            </Position>
            <AltitudeMeters>893.79998779296875</AltitudeMeters>
            <DistanceMeters>NAN</DistanceMeters>
          </Trackpoint>
          <Trackpoint>
            <Time>2019-08-01T16:31:34.000Z</Time>
            <Position>
              <LatitudeDegrees>40.63622899353504180908203125</LatitudeDegrees>
              <LongitudeDegrees>-4.03107373975217342376708984375</LongitudeDegrees>
            </Position>
            <AltitudeMeters>893.5999755859375</AltitudeMeters>
            <DistanceMeters>NAN</DistanceMeters>
          </Trackpoint>
          <Trackpoint>
            <Time>2019-08-01T16:31:35.000Z</Time>
            <Position>
              <LatitudeDegrees>40.6361644528806209564208984375</LatitudeDegrees>
              <LongitudeDegrees>-4.03105781413614749908447265625</LongitudeDegrees>
            </Position>
            <AltitudeMeters>893.5999755859375</AltitudeMeters>
            <DistanceMeters>NAN</DistanceMeters>
          </Trackpoint>
          <Trackpoint>
            <Time>2019-08-01T16:31:36.000Z</Time>
            <Position>
              <LatitudeDegrees>40.6361644528806209564208984375</LatitudeDegrees>
              <LongitudeDegrees>-4.03105781413614749908447265625</LongitudeDegrees>
            </Position>
            <AltitudeMeters>893.5999755859375</AltitudeMeters>
            <DistanceMeters>NAN</DistanceMeters>
          </Trackpoint>
          <Trackpoint>
            <Time>2019-08-01T16:31:37.000Z</Time>
            <Position>
              <LatitudeDegrees>40.63603579066693782806396484375</LatitudeDegrees>
              <LongitudeDegrees>-4.03102646581828594207763671875</LongitudeDegrees>
            </Position>
            <AltitudeMeters>893.5999755859375</AltitudeMeters>
            <DistanceMeters>NAN</DistanceMeters>
          </Trackpoint>
          <Trackpoint>
            <Time>2019-08-01T16:31:38.000Z</Time>
            <Position>
              <LatitudeDegrees>40.6359699927270412445068359375</LatitudeDegrees>
              <LongitudeDegrees>-4.0310102887451648712158203125</LongitudeDegrees>
            </Position>
            <AltitudeMeters>893.4000244140625</AltitudeMeters>
            <DistanceMeters>NAN</DistanceMeters>
          </Trackpoint>
          <Trackpoint>
            <Time>2019-08-01T16:31:39.000Z</Time>
            <Position>
              <LatitudeDegrees>40.635903440415859222412109375</LatitudeDegrees>
              <LongitudeDegrees>-4.0309935249388217926025390625</LongitudeDegrees>
            </Position>
            <AltitudeMeters>893.4000244140625</AltitudeMeters>
            <DistanceMeters>NAN</DistanceMeters>
          </Trackpoint>
          <Trackpoint>
            <Time>2019-08-01T16:31:40.000Z</Time>
            <Position>
              <LatitudeDegrees>40.6358358822762966156005859375</LatitudeDegrees>
              <LongitudeDegrees>-4.03097634203732013702392578125</LongitudeDegrees>
            </Position>
            <AltitudeMeters>893.4000244140625</AltitudeMeters>
            <DistanceMeters>NAN</DistanceMeters>
          </Trackpoint>
          <Trackpoint>
            <Time>2019-08-01T16:31:41.000Z</Time>
            <Position>
              <LatitudeDegrees>40.63576824031770229339599609375</LatitudeDegrees>
              <LongitudeDegrees>-4.03095957823097705841064453125</LongitudeDegrees>
            </Position>
            <AltitudeMeters>893.20001220703125</AltitudeMeters>
            <DistanceMeters>NAN</DistanceMeters>
          </Trackpoint>
          <Trackpoint>
            <Time>2019-08-01T16:31:42.000Z</Time>
            <Position>
              <LatitudeDegrees>40.63569967634975910186767578125</LatitudeDegrees>
              <LongitudeDegrees>-4.030942060053348541259765625</LongitudeDegrees>
            </Position>
            <AltitudeMeters>893</AltitudeMeters>
            <DistanceMeters>NAN</DistanceMeters>
          </Trackpoint>
          <Trackpoint>
            <Time>2019-08-01T16:31:43.000Z</Time>
            <Position>
              <LatitudeDegrees>40.63563128001987934112548828125</LatitudeDegrees>
              <LongitudeDegrees>-4.03092521242797374725341796875</LongitudeDegrees>
            </Position>
            <AltitudeMeters>892.79998779296875</AltitudeMeters>
            <DistanceMeters>NAN</DistanceMeters>
          </Trackpoint>
          <Trackpoint>
            <Time>2019-08-01T16:31:44.000Z</Time>
            <Position>
              <LatitudeDegrees>40.63563128001987934112548828125</LatitudeDegrees>
              <LongitudeDegrees>-4.03092521242797374725341796875</LongitudeDegrees>
            </Position>
            <AltitudeMeters>892.79998779296875</AltitudeMeters>
            <DistanceMeters>NAN</DistanceMeters>
          </Trackpoint>
          <Trackpoint>
            <Time>2019-08-01T16:31:45.000Z</Time>
            <Position>
              <LatitudeDegrees>40.63549465499818325042724609375</LatitudeDegrees>
              <LongitudeDegrees>-4.0308969654142856597900390625</LongitudeDegrees>
            </Position>
            <AltitudeMeters>892.5999755859375</AltitudeMeters>
            <DistanceMeters>NAN</DistanceMeters>
          </Trackpoint>
          <Trackpoint>
            <Time>2019-08-01T16:31:46.000Z</Time>
            <Position>
              <LatitudeDegrees>40.635426677763462066650390625</LatitudeDegrees>
              <LongitudeDegrees>-4.0308805368840694427490234375</LongitudeDegrees>
            </Position>
            <AltitudeMeters>892.5999755859375</AltitudeMeters>
            <DistanceMeters>NAN</DistanceMeters>
          </Trackpoint>
          <Trackpoint>
            <Time>2019-08-01T16:31:47.000Z</Time>
            <Position>
              <LatitudeDegrees>40.6353581137955188751220703125</LatitudeDegrees>
              <LongitudeDegrees>-4.03086218051612377166748046875</LongitudeDegrees>
            </Position>
            <AltitudeMeters>892.4000244140625</AltitudeMeters>
            <DistanceMeters>NAN</DistanceMeters>
          </Trackpoint>
          <Trackpoint>
            <Time>2019-08-01T16:31:48.000Z</Time>
            <Position>
              <LatitudeDegrees>40.63528896309435367584228515625</LatitudeDegrees>
              <LongitudeDegrees>-4.03084524907171726226806640625</LongitudeDegrees>
            </Position>
            <AltitudeMeters>892.4000244140625</AltitudeMeters>
            <DistanceMeters>NAN</DistanceMeters>
          </Trackpoint>
          <Trackpoint>
            <Time>2019-08-01T16:31:49.000Z</Time>
            <Position>
              <LatitudeDegrees>40.6352193094789981842041015625</LatitudeDegrees>
              <LongitudeDegrees>-4.0308275632560253143310546875</LongitudeDegrees>
            </Position>
            <AltitudeMeters>892.4000244140625</AltitudeMeters>
            <DistanceMeters>NAN</DistanceMeters>
          </Trackpoint>
          <Trackpoint>
            <Time>2019-08-01T16:31:50.000Z</Time>
            <Position>
              <LatitudeDegrees>40.6351492367684841156005859375</LatitudeDegrees>
              <LongitudeDegrees>-4.03081021271646022796630859375</LongitudeDegrees>
            </Position>
            <AltitudeMeters>892.4000244140625</AltitudeMeters>
            <DistanceMeters>NAN</DistanceMeters>
          </Trackpoint>
          <Trackpoint>
            <Time>2019-08-01T16:31:51.000Z</Time>
            <Position>
              <LatitudeDegrees>40.6350791640579700469970703125</LatitudeDegrees>
              <LongitudeDegrees>-4.030794203281402587890625</LongitudeDegrees>
            </Position>
            <AltitudeMeters>892.4000244140625</AltitudeMeters>
            <DistanceMeters>NAN</DistanceMeters>
          </Trackpoint>
          <Trackpoint>
            <Time>2019-08-01T16:31:52.000Z</Time>
            <Position>
              <LatitudeDegrees>40.63500992953777313232421875</LatitudeDegrees>
              <LongitudeDegrees>-4.03077752329409122467041015625</LongitudeDegrees>
            </Position>
            <AltitudeMeters>892.4000244140625</AltitudeMeters>
            <DistanceMeters>NAN</DistanceMeters>
          </Trackpoint>
          <Trackpoint>
            <Time>2019-08-01T16:31:53.000Z</Time>
            <Position>
              <LatitudeDegrees>40.634940527379512786865234375</LatitudeDegrees>
              <LongitudeDegrees>-4.03075992129743099212646484375</LongitudeDegrees>
            </Position>
            <AltitudeMeters>892.4000244140625</AltitudeMeters>
            <DistanceMeters>NAN</DistanceMeters>
          </Trackpoint>
          <Trackpoint>
            <Time>2019-08-01T16:31:54.000Z</Time>
            <Position>
              <LatitudeDegrees>40.6348706223070621490478515625</LatitudeDegrees>
              <LongitudeDegrees>-4.030742235481739044189453125</LongitudeDegrees>
            </Position>
            <AltitudeMeters>892.4000244140625</AltitudeMeters>
            <DistanceMeters>NAN</DistanceMeters>
          </Trackpoint>
          <Trackpoint>
            <Time>2019-08-01T16:31:55.000Z</Time>
            <Position>
              <LatitudeDegrees>40.6348706223070621490478515625</LatitudeDegrees>
              <LongitudeDegrees>-4.030742235481739044189453125</LongitudeDegrees>
            </Position>
            <AltitudeMeters>892.4000244140625</AltitudeMeters>
            <DistanceMeters>NAN</DistanceMeters>
          </Trackpoint>
          <Trackpoint>
            <Time>2019-08-01T16:31:56.000Z</Time>
            <Position>
              <LatitudeDegrees>40.634729303419589996337890625</LatitudeDegrees>
              <LongitudeDegrees>-4.03070627711713314056396484375</LongitudeDegrees>
            </Position>
            <AltitudeMeters>892.4000244140625</AltitudeMeters>
            <DistanceMeters>NAN</DistanceMeters>
          </Trackpoint>
          <Trackpoint>
            <Time>2019-08-01T16:31:57.000Z</Time>
            <Position>
              <LatitudeDegrees>40.63465847633779048919677734375</LatitudeDegrees>
              <LongitudeDegrees>-4.03068901039659976959228515625</LongitudeDegrees>
            </Position>
            <AltitudeMeters>892.4000244140625</AltitudeMeters>
            <DistanceMeters>NAN</DistanceMeters>
          </Trackpoint>
          <Trackpoint>
            <Time>2019-08-01T16:31:58.000Z</Time>
            <Position>
              <LatitudeDegrees>40.634587816894054412841796875</LatitudeDegrees>
              <LongitudeDegrees>-4.03067124076187610626220703125</LongitudeDegrees>
            </Position>
            <AltitudeMeters>892.4000244140625</AltitudeMeters>
            <DistanceMeters>NAN</DistanceMeters>
          </Trackpoint>
          <Trackpoint>
            <Time>2019-08-01T16:31:59.000Z</Time>
            <Position>
              <LatitudeDegrees>40.634517408907413482666015625</LatitudeDegrees>
              <LongitudeDegrees>-4.0306525491178035736083984375</LongitudeDegrees>
            </Position>
            <AltitudeMeters>892.4000244140625</AltitudeMeters>
            <DistanceMeters>NAN</DistanceMeters>
          </Trackpoint>
          <Trackpoint>
            <Time>2019-08-01T16:32:00.000Z</Time>
            <Position>
              <LatitudeDegrees>40.63444624654948711395263671875</LatitudeDegrees>
              <LongitudeDegrees>-4.03063419274985790252685546875</LongitudeDegrees>
            </Position>
            <AltitudeMeters>892.4000244140625</AltitudeMeters>
            <DistanceMeters>NAN</DistanceMeters>
          </Trackpoint>
          <Trackpoint>
            <Time>2019-08-01T16:32:01.000Z</Time>
            <Position>
              <LatitudeDegrees>40.6343760900199413299560546875</LatitudeDegrees>
              <LongitudeDegrees>-4.03061726130545139312744140625</LongitudeDegrees>
            </Position>
            <AltitudeMeters>892.4000244140625</AltitudeMeters>
            <DistanceMeters>NAN</DistanceMeters>
          </Trackpoint>
          <Trackpoint>
            <Time>2019-08-01T16:32:02.000Z</Time>
            <Position>
              <LatitudeDegrees>40.63430509530007839202880859375</LatitudeDegrees>
              <LongitudeDegrees>-4.030601084232330322265625</LongitudeDegrees>
            </Position>
            <AltitudeMeters>892.20001220703125</AltitudeMeters>
            <DistanceMeters>NAN</DistanceMeters>
          </Trackpoint>
          <Trackpoint>
            <Time>2019-08-01T16:32:03.000Z</Time>
            <Position>
              <LatitudeDegrees>40.6342341005802154541015625</LatitudeDegrees>
              <LongitudeDegrees>-4.030583985149860382080078125</LongitudeDegrees>
            </Position>
            <AltitudeMeters>892.20001220703125</AltitudeMeters>
            <DistanceMeters>NAN</DistanceMeters>
          </Trackpoint>
          <Trackpoint>
            <Time>2019-08-01T16:32:04.000Z</Time>
            <Position>
              <LatitudeDegrees>40.63416310586035251617431640625</LatitudeDegrees>
              <LongitudeDegrees>-4.0305675566196441650390625</LongitudeDegrees>
            </Position>
            <AltitudeMeters>892.20001220703125</AltitudeMeters>
            <DistanceMeters>NAN</DistanceMeters>
          </Trackpoint>
          <Trackpoint>
            <Time>2019-08-01T16:32:05.000Z</Time>
            <Position>
              <LatitudeDegrees>40.634090602397918701171875</LatitudeDegrees>
              <LongitudeDegrees>-4.03055054135620594024658203125</LongitudeDegrees>
            </Position>
            <AltitudeMeters>892.20001220703125</AltitudeMeters>
            <DistanceMeters>NAN</DistanceMeters>
          </Trackpoint>
          <Trackpoint>
            <Time>2019-08-01T16:32:06.000Z</Time>
            <Position>
              <LatitudeDegrees>40.634017847478389739990234375</LatitudeDegrees>
              <LongitudeDegrees>-4.03053226880729198455810546875</LongitudeDegrees>
            </Position>
            <AltitudeMeters>892</AltitudeMeters>
            <DistanceMeters>NAN</DistanceMeters>
          </Trackpoint>
          <Trackpoint>
            <Time>2019-08-01T16:32:07.000Z</Time>
            <Position>
              <LatitudeDegrees>40.63394509255886077880859375</LatitudeDegrees>
              <LongitudeDegrees>-4.03051600791513919830322265625</LongitudeDegrees>
            </Position>
            <AltitudeMeters>891.5999755859375</AltitudeMeters>
            <DistanceMeters>NAN</DistanceMeters>
          </Trackpoint>
          <Trackpoint>
            <Time>2019-08-01T16:32:08.000Z</Time>
            <Position>
              <LatitudeDegrees>40.63387267291545867919921875</LatitudeDegrees>
              <LongitudeDegrees>-4.030497483909130096435546875</LongitudeDegrees>
            </Position>
            <AltitudeMeters>891.20001220703125</AltitudeMeters>
            <DistanceMeters>NAN</DistanceMeters>
          </Trackpoint>
          <Trackpoint>
            <Time>2019-08-01T16:32:09.000Z</Time>
            <Position>
              <LatitudeDegrees>40.633801259100437164306640625</LatitudeDegrees>
              <LongitudeDegrees>-4.0304805524647235870361328125</LongitudeDegrees>
            </Position>
            <AltitudeMeters>891</AltitudeMeters>
            <DistanceMeters>NAN</DistanceMeters>
          </Trackpoint>
          <Trackpoint>
            <Time>2019-08-01T16:32:10.000Z</Time>
            <Position>
              <LatitudeDegrees>40.6337293423712253570556640625</LatitudeDegrees>
              <LongitudeDegrees>-4.0304617770016193389892578125</LongitudeDegrees>
            </Position>
            <AltitudeMeters>891</AltitudeMeters>
            <DistanceMeters>NAN</DistanceMeters>
          </Trackpoint>
          <Trackpoint>
            <Time>2019-08-01T16:32:11.000Z</Time>
            <Position>
              <LatitudeDegrees>40.6336565874516963958740234375</LatitudeDegrees>
              <LongitudeDegrees>-4.03044308535754680633544921875</LongitudeDegrees>
            </Position>
            <AltitudeMeters>890.79998779296875</AltitudeMeters>
            <DistanceMeters>NAN</DistanceMeters>
          </Trackpoint>
          <Trackpoint>
            <Time>2019-08-01T16:32:12.000Z</Time>
            <Position>
              <LatitudeDegrees>40.63358307816088199615478515625</LatitudeDegrees>
              <LongitudeDegrees>-4.0304242260754108428955078125</LongitudeDegrees>
            </Position>
            <AltitudeMeters>890.79998779296875</AltitudeMeters>
            <DistanceMeters>NAN</DistanceMeters>
          </Trackpoint>
          <Trackpoint>
            <Time>2019-08-01T16:32:13.000Z</Time>
            <Position>
              <LatitudeDegrees>40.6335083954036235809326171875</LatitudeDegrees>
              <LongitudeDegrees>-4.0304044447839260101318359375</LongitudeDegrees>
            </Position>
            <AltitudeMeters>890.4000244140625</AltitudeMeters>
            <DistanceMeters>NAN</DistanceMeters>
          </Trackpoint>
          <Trackpoint>
            <Time>2019-08-01T16:32:14.000Z</Time>
            <Position>
              <LatitudeDegrees>40.63343237154185771942138671875</LatitudeDegrees>
              <LongitudeDegrees>-4.0303846634924411773681640625</LongitudeDegrees>
            </Position>
            <AltitudeMeters>890.5999755859375</AltitudeMeters>
            <DistanceMeters>NAN</DistanceMeters>
          </Trackpoint>
          <Trackpoint>
            <Time>2019-08-01T16:32:15.000Z</Time>
            <Position>
              <LatitudeDegrees>40.63335643149912357330322265625</LatitudeDegrees>
              <LongitudeDegrees>-4.03036446310579776763916015625</LongitudeDegrees>
            </Position>
            <AltitudeMeters>890.4000244140625</AltitudeMeters>
            <DistanceMeters>NAN</DistanceMeters>
          </Trackpoint>
          <Trackpoint>
            <Time>2019-08-01T16:32:16.000Z</Time>
            <Position>
              <LatitudeDegrees>40.63327982090413570404052734375</LatitudeDegrees>
              <LongitudeDegrees>-4.0303447656333446502685546875</LongitudeDegrees>
            </Position>
            <AltitudeMeters>890</AltitudeMeters>
            <DistanceMeters>NAN</DistanceMeters>
          </Trackpoint>
          <Trackpoint>
            <Time>2019-08-01T16:32:17.000Z</Time>
            <Position>
              <LatitudeDegrees>40.63320287503302097320556640625</LatitudeDegrees>
              <LongitudeDegrees>-4.03032506816089153289794921875</LongitudeDegrees>
            </Position>
            <AltitudeMeters>890</AltitudeMeters>
            <DistanceMeters>NAN</DistanceMeters>
          </Trackpoint>
          <Trackpoint>
            <Time>2019-08-01T16:32:18.000Z</Time>
            <Position>
              <LatitudeDegrees>40.63320287503302097320556640625</LatitudeDegrees>
              <LongitudeDegrees>-4.03032506816089153289794921875</LongitudeDegrees>
            </Position>
            <AltitudeMeters>889.79998779296875</AltitudeMeters>
            <DistanceMeters>NAN</DistanceMeters>
          </Trackpoint>
          <Trackpoint>
            <Time>2019-08-01T16:32:19.000Z</Time>
            <Position>
              <LatitudeDegrees>40.63304596580564975738525390625</LatitudeDegrees>
              <LongitudeDegrees>-4.03028433211147785186767578125</LongitudeDegrees>
            </Position>
            <AltitudeMeters>889.79998779296875</AltitudeMeters>
            <DistanceMeters>NAN</DistanceMeters>
          </Trackpoint>
          <Trackpoint>
            <Time>2019-08-01T16:32:20.000Z</Time>
            <Position>
              <LatitudeDegrees>40.63296684063971042633056640625</LatitudeDegrees>
              <LongitudeDegrees>-4.03026337735354900360107421875</LongitudeDegrees>
            </Position>
            <AltitudeMeters>889.79998779296875</AltitudeMeters>
            <DistanceMeters>NAN</DistanceMeters>
          </Trackpoint>
          <Trackpoint>
            <Time>2019-08-01T16:32:21.000Z</Time>
            <Position>
              <LatitudeDegrees>40.63296684063971042633056640625</LatitudeDegrees>
              <LongitudeDegrees>-4.03026337735354900360107421875</LongitudeDegrees>
            </Position>
            <AltitudeMeters>889.5999755859375</AltitudeMeters>
            <DistanceMeters>NAN</DistanceMeters>
          </Trackpoint>
          <Trackpoint>
            <Time>2019-08-01T16:32:22.000Z</Time>
            <Position>
              <LatitudeDegrees>40.63280574046075344085693359375</LatitudeDegrees>
              <LongitudeDegrees>-4.0302237309515476226806640625</LongitudeDegrees>
            </Position>
            <AltitudeMeters>889.5999755859375</AltitudeMeters>
            <DistanceMeters>NAN</DistanceMeters>
          </Trackpoint>
          <Trackpoint>
            <Time>2019-08-01T16:32:23.000Z</Time>
            <Position>
              <LatitudeDegrees>40.63272493891417980194091796875</LatitudeDegrees>
              <LongitudeDegrees>-4.03020344674587249755859375</LongitudeDegrees>
            </Position>
            <AltitudeMeters>889.4000244140625</AltitudeMeters>
            <DistanceMeters>NAN</DistanceMeters>
          </Trackpoint>
          <Trackpoint>
            <Time>2019-08-01T16:32:24.000Z</Time>
            <Position>
              <LatitudeDegrees>40.63264422118663787841796875</LatitudeDegrees>
              <LongitudeDegrees>-4.03018224053084850311279296875</LongitudeDegrees>
            </Position>
            <AltitudeMeters>889.20001220703125</AltitudeMeters>
            <DistanceMeters>NAN</DistanceMeters>
          </Trackpoint>
          <Trackpoint>
            <Time>2019-08-01T16:32:25.000Z</Time>
            <Position>
              <LatitudeDegrees>40.6325632520020008087158203125</LatitudeDegrees>
              <LongitudeDegrees>-4.03015994466841220855712890625</LongitudeDegrees>
            </Position>
            <AltitudeMeters>888.79998779296875</AltitudeMeters>
            <DistanceMeters>NAN</DistanceMeters>
          </Trackpoint>
          <Trackpoint>
            <Time>2019-08-01T16:32:26.000Z</Time>
            <Position>
              <LatitudeDegrees>40.6324821151793003082275390625</LatitudeDegrees>
              <LongitudeDegrees>-4.03013848699629306793212890625</LongitudeDegrees>
            </Position>
            <AltitudeMeters>888.5999755859375</AltitudeMeters>
            <DistanceMeters>NAN</DistanceMeters>
          </Trackpoint>
          <Trackpoint>
            <Time>2019-08-01T16:32:27.000Z</Time>
            <Position>
              <LatitudeDegrees>40.6324006430804729461669921875</LatitudeDegrees>
              <LongitudeDegrees>-4.0301169455051422119140625</LongitudeDegrees>
            </Position>
            <AltitudeMeters>888.20001220703125</AltitudeMeters>
            <DistanceMeters>NAN</DistanceMeters>
          </Trackpoint>
          <Trackpoint>
            <Time>2019-08-01T16:32:28.000Z</Time>
            <Position>
              <LatitudeDegrees>40.63231875188648700714111328125</LatitudeDegrees>
              <LongitudeDegrees>-4.03009590692818164825439453125</LongitudeDegrees>
            </Position>
            <AltitudeMeters>887.79998779296875</AltitudeMeters>
            <DistanceMeters>NAN</DistanceMeters>
          </Trackpoint>
          <Trackpoint>
            <Time>2019-08-01T16:32:29.000Z</Time>
            <Position>
              <LatitudeDegrees>40.63223677687346935272216796875</LatitudeDegrees>
              <LongitudeDegrees>-4.030075371265411376953125</LongitudeDegrees>
            </Position>
            <AltitudeMeters>887.5999755859375</AltitudeMeters>
            <DistanceMeters>NAN</DistanceMeters>
          </Trackpoint>
          <Trackpoint>
            <Time>2019-08-01T16:32:30.000Z</Time>
            <Position>
              <LatitudeDegrees>40.63215480186045169830322265625</LatitudeDegrees>
              <LongitudeDegrees>-4.03005458414554595947265625</LongitudeDegrees>
            </Position>
            <AltitudeMeters>887.4000244140625</AltitudeMeters>
            <DistanceMeters>NAN</DistanceMeters>
          </Trackpoint>
          <Trackpoint>
            <Time>2019-08-01T16:32:31.000Z</Time>
            <Position>
              <LatitudeDegrees>40.63207299448549747467041015625</LatitudeDegrees>
              <LongitudeDegrees>-4.03003321029245853424072265625</LongitudeDegrees>
            </Position>
            <AltitudeMeters>887.4000244140625</AltitudeMeters>
            <DistanceMeters>NAN</DistanceMeters>
          </Trackpoint>
          <Trackpoint>
            <Time>2019-08-01T16:32:32.000Z</Time>
            <Position>
              <LatitudeDegrees>40.63199118711054325103759765625</LatitudeDegrees>
              <LongitudeDegrees>-4.0300121717154979705810546875</LongitudeDegrees>
            </Position>
            <AltitudeMeters>887.20001220703125</AltitudeMeters>
            <DistanceMeters>NAN</DistanceMeters>
          </Trackpoint>
          <Trackpoint>
            <Time>2019-08-01T16:32:33.000Z</Time>
            <Position>
              <LatitudeDegrees>40.6319097988307476043701171875</LatitudeDegrees>
              <LongitudeDegrees>-4.02999130077660083770751953125</LongitudeDegrees>
            </Position>
            <AltitudeMeters>887.4000244140625</AltitudeMeters>
            <DistanceMeters>NAN</DistanceMeters>
          </Trackpoint>
          <Trackpoint>
            <Time>2019-08-01T16:32:34.000Z</Time>
            <Position>
              <LatitudeDegrees>40.63182807527482509613037109375</LatitudeDegrees>
              <LongitudeDegrees>-4.02996967546641826629638671875</LongitudeDegrees>
            </Position>
            <AltitudeMeters>887.20001220703125</AltitudeMeters>
            <DistanceMeters>NAN</DistanceMeters>
          </Trackpoint>
          <Trackpoint>
            <Time>2019-08-01T16:32:35.000Z</Time>
            <Position>
              <LatitudeDegrees>40.631746016442775726318359375</LatitudeDegrees>
              <LongitudeDegrees>-4.02994888834655284881591796875</LongitudeDegrees>
            </Position>
            <AltitudeMeters>887</AltitudeMeters>
            <DistanceMeters>NAN</DistanceMeters>
          </Trackpoint>
          <Trackpoint>
            <Time>2019-08-01T16:32:36.000Z</Time>
            <Position>
              <LatitudeDegrees>40.631746016442775726318359375</LatitudeDegrees>
              <LongitudeDegrees>-4.02994888834655284881591796875</LongitudeDegrees>
            </Position>
            <AltitudeMeters>887.20001220703125</AltitudeMeters>
            <DistanceMeters>NAN</DistanceMeters>
          </Trackpoint>
          <Trackpoint>
            <Time>2019-08-01T16:32:37.000Z</Time>
            <Position>
              <LatitudeDegrees>40.63158315606415271759033203125</LatitudeDegrees>
              <LongitudeDegrees>-4.02990798465907573699951171875</LongitudeDegrees>
            </Position>
            <AltitudeMeters>887</AltitudeMeters>
            <DistanceMeters>NAN</DistanceMeters>
          </Trackpoint>
          <Trackpoint>
            <Time>2019-08-01T16:32:38.000Z</Time>
            <Position>
              <LatitudeDegrees>40.6315024383366107940673828125</LatitudeDegrees>
              <LongitudeDegrees>-4.02988669462502002716064453125</LongitudeDegrees>
            </Position>
            <AltitudeMeters>887</AltitudeMeters>
            <DistanceMeters>NAN</DistanceMeters>
          </Trackpoint>
          <Trackpoint>
            <Time>2019-08-01T16:32:39.000Z</Time>
            <Position>
              <LatitudeDegrees>40.6314218044281005859375</LatitudeDegrees>
              <LongitudeDegrees>-4.0298663266003131866455078125</LongitudeDegrees>
            </Position>
            <AltitudeMeters>887</AltitudeMeters>
            <DistanceMeters>NAN</DistanceMeters>
          </Trackpoint>
          <Trackpoint>
            <Time>2019-08-01T16:32:40.000Z</Time>
            <Position>
              <LatitudeDegrees>40.6313418410718441009521484375</LatitudeDegrees>
              <LongitudeDegrees>-4.0298460423946380615234375</LongitudeDegrees>
            </Position>
            <AltitudeMeters>886.79998779296875</AltitudeMeters>
            <DistanceMeters>NAN</DistanceMeters>
          </Trackpoint>
          <Trackpoint>
            <Time>2019-08-01T16:32:41.000Z</Time>
            <Position>
              <LatitudeDegrees>40.631263889372348785400390625</LatitudeDegrees>
              <LongitudeDegrees>-4.0298254229128360748291015625</LongitudeDegrees>
            </Position>
            <AltitudeMeters>886.5999755859375</AltitudeMeters>
            <DistanceMeters>NAN</DistanceMeters>
          </Trackpoint>
          <Trackpoint>
            <Time>2019-08-01T16:32:42.000Z</Time>
            <Position>
              <LatitudeDegrees>40.631187446415424346923828125</LatitudeDegrees>
              <LongitudeDegrees>-4.0298049710690975189208984375</LongitudeDegrees>
            </Position>
            <AltitudeMeters>886.5999755859375</AltitudeMeters>
            <DistanceMeters>NAN</DistanceMeters>
          </Trackpoint>
          <Trackpoint>
            <Time>2019-08-01T16:32:43.000Z</Time>
            <Position>
              <LatitudeDegrees>40.631111003458499908447265625</LatitudeDegrees>
              <LongitudeDegrees>-4.0297858603298664093017578125</LongitudeDegrees>
            </Position>
            <AltitudeMeters>886.20001220703125</AltitudeMeters>
            <DistanceMeters>NAN</DistanceMeters>
          </Trackpoint>
          <Trackpoint>
            <Time>2019-08-01T16:32:44.000Z</Time>
            <Position>
              <LatitudeDegrees>40.63103430904448032379150390625</LatitudeDegrees>
              <LongitudeDegrees>-4.02976767159998416900634765625</LongitudeDegrees>
            </Position>
            <AltitudeMeters>886</AltitudeMeters>
            <DistanceMeters>NAN</DistanceMeters>
          </Trackpoint>
          <Trackpoint>
            <Time>2019-08-01T16:32:45.000Z</Time>
            <Position>
              <LatitudeDegrees>40.63095786608755588531494140625</LatitudeDegrees>
              <LongitudeDegrees>-4.02974923141300678253173828125</LongitudeDegrees>
            </Position>
            <AltitudeMeters>885.79998779296875</AltitudeMeters>
            <DistanceMeters>NAN</DistanceMeters>
          </Trackpoint>
          <Trackpoint>
            <Time>2019-08-01T16:32:46.000Z</Time>
            <Position>
              <LatitudeDegrees>40.63088242895901203155517578125</LatitudeDegrees>
              <LongitudeDegrees>-4.0297302044928073883056640625</LongitudeDegrees>
            </Position>
            <AltitudeMeters>885.79998779296875</AltitudeMeters>
            <DistanceMeters>NAN</DistanceMeters>
          </Trackpoint>
          <Trackpoint>
            <Time>2019-08-01T16:32:47.000Z</Time>
            <Position>
              <LatitudeDegrees>40.6308064050972461700439453125</LatitudeDegrees>
              <LongitudeDegrees>-4.02971352450549602508544921875</LongitudeDegrees>
            </Position>
            <AltitudeMeters>885.5999755859375</AltitudeMeters>
            <DistanceMeters>NAN</DistanceMeters>
          </Trackpoint>
          <Trackpoint>
            <Time>2019-08-01T16:32:48.000Z</Time>
            <Position>
              <LatitudeDegrees>40.63073038123548030853271484375</LatitudeDegrees>
              <LongitudeDegrees>-4.02970028109848499298095703125</LongitudeDegrees>
            </Position>
            <AltitudeMeters>885.5999755859375</AltitudeMeters>
            <DistanceMeters>NAN</DistanceMeters>
          </Trackpoint>
          <Trackpoint>
            <Time>2019-08-01T16:32:49.000Z</Time>
            <Position>
              <LatitudeDegrees>40.63065477646887302398681640625</LatitudeDegrees>
              <LongitudeDegrees>-4.0296893008053302764892578125</LongitudeDegrees>
            </Position>
            <AltitudeMeters>885.5999755859375</AltitudeMeters>
            <DistanceMeters>NAN</DistanceMeters>
          </Trackpoint>
          <Trackpoint>
            <Time>2019-08-01T16:32:50.000Z</Time>
            <Position>
              <LatitudeDegrees>40.63058084808290004730224609375</LatitudeDegrees>
              <LongitudeDegrees>-4.02968100272119045257568359375</LongitudeDegrees>
            </Position>
            <AltitudeMeters>885.5999755859375</AltitudeMeters>
            <DistanceMeters>NAN</DistanceMeters>
          </Trackpoint>
          <Trackpoint>
            <Time>2019-08-01T16:32:51.000Z</Time>
            <Position>
              <LatitudeDegrees>40.63050658442080020904541015625</LatitudeDegrees>
              <LongitudeDegrees>-4.0296748839318752288818359375</LongitudeDegrees>
            </Position>
            <AltitudeMeters>885.5999755859375</AltitudeMeters>
            <DistanceMeters>NAN</DistanceMeters>
          </Trackpoint>
          <Trackpoint>
            <Time>2019-08-01T16:32:52.000Z</Time>
            <Position>
              <LatitudeDegrees>40.63043198548257350921630859375</LatitudeDegrees>
              <LongitudeDegrees>-4.0296701900660991668701171875</LongitudeDegrees>
            </Position>
            <AltitudeMeters>885.4000244140625</AltitudeMeters>
            <DistanceMeters>NAN</DistanceMeters>
          </Trackpoint>
          <Trackpoint>
            <Time>2019-08-01T16:32:53.000Z</Time>
            <Position>
              <LatitudeDegrees>40.6303574703633785247802734375</LatitudeDegrees>
              <LongitudeDegrees>-4.02966792695224285125732421875</LongitudeDegrees>
            </Position>
            <AltitudeMeters>885.4000244140625</AltitudeMeters>
            <DistanceMeters>NAN</DistanceMeters>
          </Trackpoint>
          <Trackpoint>
            <Time>2019-08-01T16:32:54.000Z</Time>
            <Position>
              <LatitudeDegrees>40.63028253614902496337890625</LatitudeDegrees>
              <LongitudeDegrees>-4.029668010771274566650390625</LongitudeDegrees>
            </Position>
            <AltitudeMeters>885.20001220703125</AltitudeMeters>
            <DistanceMeters>NAN</DistanceMeters>
          </Trackpoint>
          <Trackpoint>
            <Time>2019-08-01T16:32:55.000Z</Time>
            <Position>
              <LatitudeDegrees>40.63020919449627399444580078125</LatitudeDegrees>
              <LongitudeDegrees>-4.0296705253422260284423828125</LongitudeDegrees>
            </Position>
            <AltitudeMeters>885.20001220703125</AltitudeMeters>
            <DistanceMeters>NAN</DistanceMeters>
          </Trackpoint>
          <Trackpoint>
            <Time>2019-08-01T16:32:56.000Z</Time>
            <Position>
              <LatitudeDegrees>40.63013543374836444854736328125</LatitudeDegrees>
              <LongitudeDegrees>-4.02967429719865322113037109375</LongitudeDegrees>
            </Position>
            <AltitudeMeters>885</AltitudeMeters>
            <DistanceMeters>NAN</DistanceMeters>
          </Trackpoint>
          <Trackpoint>
            <Time>2019-08-01T16:32:57.000Z</Time>
            <Position>
              <LatitudeDegrees>40.63006049953401088714599609375</LatitudeDegrees>
              <LongitudeDegrees>-4.02967966161668300628662109375</LongitudeDegrees>
            </Position>
            <AltitudeMeters>885</AltitudeMeters>
            <DistanceMeters>NAN</DistanceMeters>
          </Trackpoint>
          <Trackpoint>
            <Time>2019-08-01T16:32:58.000Z</Time>
            <Position>
              <LatitudeDegrees>40.6299846433103084564208984375</LatitudeDegrees>
              <LongitudeDegrees>-4.02968578040599822998046875</LongitudeDegrees>
            </Position>
            <AltitudeMeters>885</AltitudeMeters>
            <DistanceMeters>NAN</DistanceMeters>
          </Trackpoint>
          <Trackpoint>
            <Time>2019-08-01T16:32:59.000Z</Time>
            <Position>
              <LatitudeDegrees>40.62990929000079631805419921875</LatitudeDegrees>
              <LongitudeDegrees>-4.0296956710517406463623046875</LongitudeDegrees>
            </Position>
            <AltitudeMeters>885</AltitudeMeters>
            <DistanceMeters>NAN</DistanceMeters>
          </Trackpoint>
          <Trackpoint>
            <Time>2019-08-01T16:33:00.000Z</Time>
            <Position>
              <LatitudeDegrees>40.629834271967411041259765625</LatitudeDegrees>
              <LongitudeDegrees>-4.02970857918262481689453125</LongitudeDegrees>
            </Position>
            <AltitudeMeters>885</AltitudeMeters>
            <DistanceMeters>NAN</DistanceMeters>
          </Trackpoint>
          <Trackpoint>
            <Time>2019-08-01T16:33:01.000Z</Time>
            <Position>
              <LatitudeDegrees>40.62976084649562835693359375</LatitudeDegrees>
              <LongitudeDegrees>-4.02972509153187274932861328125</LongitudeDegrees>
            </Position>
            <AltitudeMeters>885</AltitudeMeters>
            <DistanceMeters>NAN</DistanceMeters>
          </Trackpoint>
          <Trackpoint>
            <Time>2019-08-01T16:33:02.000Z</Time>
            <Position>
              <LatitudeDegrees>40.62968867830932140350341796875</LatitudeDegrees>
              <LongitudeDegrees>-4.0297429449856281280517578125</LongitudeDegrees>
            </Position>
            <AltitudeMeters>884.79998779296875</AltitudeMeters>
            <DistanceMeters>NAN</DistanceMeters>
          </Trackpoint>
          <Trackpoint>
            <Time>2019-08-01T16:33:03.000Z</Time>
            <Position>
              <LatitudeDegrees>40.62961709685623645782470703125</LatitudeDegrees>
              <LongitudeDegrees>-4.02975820004940032958984375</LongitudeDegrees>
            </Position>
            <AltitudeMeters>884.79998779296875</AltitudeMeters>
            <DistanceMeters>NAN</DistanceMeters>
          </Trackpoint>
          <Trackpoint>
            <Time>2019-08-01T16:33:04.000Z</Time>
            <Position>
              <LatitudeDegrees>40.62954626977443695068359375</LatitudeDegrees>
              <LongitudeDegrees>-4.0297709405422210693359375</LongitudeDegrees>
            </Position>
            <AltitudeMeters>884.79998779296875</AltitudeMeters>
            <DistanceMeters>NAN</DistanceMeters>
          </Trackpoint>
          <Trackpoint>
            <Time>2019-08-01T16:33:05.000Z</Time>
            <Position>
              <LatitudeDegrees>40.6294758617877960205078125</LatitudeDegrees>
              <LongitudeDegrees>-4.02978359721601009368896484375</LongitudeDegrees>
            </Position>
            <AltitudeMeters>884.79998779296875</AltitudeMeters>
            <DistanceMeters>NAN</DistanceMeters>
          </Trackpoint>
          <Trackpoint>
            <Time>2019-08-01T16:33:06.000Z</Time>
            <Position>
              <LatitudeDegrees>40.6294061243534088134765625</LatitudeDegrees>
              <LongitudeDegrees>-4.02979583479464054107666015625</LongitudeDegrees>
            </Position>
            <AltitudeMeters>884.79998779296875</AltitudeMeters>
            <DistanceMeters>NAN</DistanceMeters>
          </Trackpoint>
          <Trackpoint>
            <Time>2019-08-01T16:33:07.000Z</Time>
            <Position>
              <LatitudeDegrees>40.62933781184256076812744140625</LatitudeDegrees>
              <LongitudeDegrees>-4.029807150363922119140625</LongitudeDegrees>
            </Position>
            <AltitudeMeters>884.79998779296875</AltitudeMeters>
            <DistanceMeters>NAN</DistanceMeters>
          </Trackpoint>
          <Trackpoint>
            <Time>2019-08-01T16:33:08.000Z</Time>
            <Position>
              <LatitudeDegrees>40.6292701698839664459228515625</LatitudeDegrees>
              <LongitudeDegrees>-4.0298177115619182586669921875</LongitudeDegrees>
            </Position>
            <AltitudeMeters>884.79998779296875</AltitudeMeters>
            <DistanceMeters>NAN</DistanceMeters>
          </Trackpoint>
          <Trackpoint>
            <Time>2019-08-01T16:33:09.000Z</Time>
            <Position>
              <LatitudeDegrees>40.62920286320149898529052734375</LatitudeDegrees>
              <LongitudeDegrees>-4.029827602207660675048828125</LongitudeDegrees>
            </Position>
            <AltitudeMeters>885</AltitudeMeters>
            <DistanceMeters>NAN</DistanceMeters>
          </Trackpoint>
          <Trackpoint>
            <Time>2019-08-01T16:33:10.000Z</Time>
            <Position>
              <LatitudeDegrees>40.62913589179515838623046875</LatitudeDegrees>
              <LongitudeDegrees>-4.02983824722468852996826171875</LongitudeDegrees>
            </Position>
            <AltitudeMeters>884.79998779296875</AltitudeMeters>
            <DistanceMeters>NAN</DistanceMeters>
          </Trackpoint>
          <Trackpoint>
            <Time>2019-08-01T16:33:11.000Z</Time>
            <Position>
              <LatitudeDegrees>40.62906908802688121795654296875</LatitudeDegrees>
              <LongitudeDegrees>-4.02984880842268466949462890625</LongitudeDegrees>
            </Position>
            <AltitudeMeters>884.79998779296875</AltitudeMeters>
            <DistanceMeters>NAN</DistanceMeters>
          </Trackpoint>
          <Trackpoint>
            <Time>2019-08-01T16:33:12.000Z</Time>
            <Position>
              <LatitudeDegrees>40.62900253571569919586181640625</LatitudeDegrees>
              <LongitudeDegrees>-4.0298596210777759552001953125</LongitudeDegrees>
            </Position>
            <AltitudeMeters>884.79998779296875</AltitudeMeters>
            <DistanceMeters>NAN</DistanceMeters>
          </Trackpoint>
          <Trackpoint>
            <Time>2019-08-01T16:33:13.000Z</Time>
            <Position>
              <LatitudeDegrees>40.62893615104258060455322265625</LatitudeDegrees>
              <LongitudeDegrees>-4.02987085282802581787109375</LongitudeDegrees>
            </Position>
            <AltitudeMeters>884.79998779296875</AltitudeMeters>
            <DistanceMeters>NAN</DistanceMeters>
          </Trackpoint>
          <Trackpoint>
            <Time>2019-08-01T16:33:14.000Z</Time>
            <Position>
              <LatitudeDegrees>40.628870017826557159423828125</LatitudeDegrees>
              <LongitudeDegrees>-4.0298810787498950958251953125</LongitudeDegrees>
            </Position>
            <AltitudeMeters>884.79998779296875</AltitudeMeters>
            <DistanceMeters>NAN</DistanceMeters>
          </Trackpoint>
          <Trackpoint>
            <Time>2019-08-01T16:33:15.000Z</Time>
            <Position>
              <LatitudeDegrees>40.628870017826557159423828125</LatitudeDegrees>
              <LongitudeDegrees>-4.0298810787498950958251953125</LongitudeDegrees>
            </Position>
            <AltitudeMeters>884.79998779296875</AltitudeMeters>
            <DistanceMeters>NAN</DistanceMeters>
          </Trackpoint>
          <Trackpoint>
            <Time>2019-08-01T16:33:16.000Z</Time>
            <Position>
              <LatitudeDegrees>40.62874026596546173095703125</LatitudeDegrees>
              <LongitudeDegrees>-4.02990044094622135162353515625</LongitudeDegrees>
            </Position>
            <AltitudeMeters>884.79998779296875</AltitudeMeters>
            <DistanceMeters>NAN</DistanceMeters>
          </Trackpoint>
          <Trackpoint>
            <Time>2019-08-01T16:33:17.000Z</Time>
            <Position>
              <LatitudeDegrees>40.62867748551070690155029296875</LatitudeDegrees>
              <LongitudeDegrees>-4.02990781702101230621337890625</LongitudeDegrees>
            </Position>
            <AltitudeMeters>884.79998779296875</AltitudeMeters>
            <DistanceMeters>NAN</DistanceMeters>
          </Trackpoint>
          <Trackpoint>
            <Time>2019-08-01T16:33:18.000Z</Time>
            <Position>
              <LatitudeDegrees>40.6286148726940155029296875</LatitudeDegrees>
              <LongitudeDegrees>-4.0299125947058200836181640625</LongitudeDegrees>
            </Position>
            <AltitudeMeters>884.79998779296875</AltitudeMeters>
            <DistanceMeters>NAN</DistanceMeters>
          </Trackpoint>
          <Trackpoint>
            <Time>2019-08-01T16:33:19.000Z</Time>
            <Position>
              <LatitudeDegrees>40.62855108641088008880615234375</LatitudeDegrees>
              <LongitudeDegrees>-4.02991452254354953765869140625</LongitudeDegrees>
            </Position>
            <AltitudeMeters>884.79998779296875</AltitudeMeters>
            <DistanceMeters>NAN</DistanceMeters>
          </Trackpoint>
          <Trackpoint>
            <Time>2019-08-01T16:33:20.000Z</Time>
            <Position>
              <LatitudeDegrees>40.62848788686096668243408203125</LatitudeDegrees>
              <LongitudeDegrees>-4.02991301380097866058349609375</LongitudeDegrees>
            </Position>
            <AltitudeMeters>884.79998779296875</AltitudeMeters>
            <DistanceMeters>NAN</DistanceMeters>
          </Trackpoint>
          <Trackpoint>
            <Time>2019-08-01T16:33:21.000Z</Time>
            <Position>
              <LatitudeDegrees>40.6284229271113872528076171875</LatitudeDegrees>
              <LongitudeDegrees>-4.029905386269092559814453125</LongitudeDegrees>
            </Position>
            <AltitudeMeters>885.20001220703125</AltitudeMeters>
            <DistanceMeters>NAN</DistanceMeters>
          </Trackpoint>
          <Trackpoint>
            <Time>2019-08-01T16:33:22.000Z</Time>
            <Position>
              <LatitudeDegrees>40.62835872173309326171875</LatitudeDegrees>
              <LongitudeDegrees>-4.029895998537540435791015625</LongitudeDegrees>
            </Position>
            <AltitudeMeters>885.4000244140625</AltitudeMeters>
            <DistanceMeters>NAN</DistanceMeters>
          </Trackpoint>
          <Trackpoint>
            <Time>2019-08-01T16:33:23.000Z</Time>
            <Position>
              <LatitudeDegrees>40.628294683992862701416015625</LatitudeDegrees>
              <LongitudeDegrees>-4.0298834256827831268310546875</LongitudeDegrees>
            </Position>
            <AltitudeMeters>885.5999755859375</AltitudeMeters>
            <DistanceMeters>NAN</DistanceMeters>
          </Trackpoint>
          <Trackpoint>
            <Time>2019-08-01T16:33:24.000Z</Time>
            <Position>
              <LatitudeDegrees>40.62823198735713958740234375</LatitudeDegrees>
              <LongitudeDegrees>-4.02986758388578891754150390625</LongitudeDegrees>
            </Position>
            <AltitudeMeters>885.5999755859375</AltitudeMeters>
            <DistanceMeters>NAN</DistanceMeters>
          </Trackpoint>
          <Trackpoint>
            <Time>2019-08-01T16:33:25.000Z</Time>
            <Position>
              <LatitudeDegrees>40.62816970981657505035400390625</LatitudeDegrees>
              <LongitudeDegrees>-4.02984897606074810028076171875</LongitudeDegrees>
            </Position>
            <AltitudeMeters>885.79998779296875</AltitudeMeters>
            <DistanceMeters>NAN</DistanceMeters>
          </Trackpoint>
          <Trackpoint>
            <Time>2019-08-01T16:33:26.000Z</Time>
            <Position>
              <LatitudeDegrees>40.62810835428535938262939453125</LatitudeDegrees>
              <LongitudeDegrees>-4.02982567436993122100830078125</LongitudeDegrees>
            </Position>
            <AltitudeMeters>885.79998779296875</AltitudeMeters>
            <DistanceMeters>NAN</DistanceMeters>
          </Trackpoint>
          <Trackpoint>
            <Time>2019-08-01T16:33:27.000Z</Time>
            <Position>
              <LatitudeDegrees>40.62810835428535938262939453125</LatitudeDegrees>
              <LongitudeDegrees>-4.02982567436993122100830078125</LongitudeDegrees>
            </Position>
            <AltitudeMeters>886</AltitudeMeters>
            <DistanceMeters>NAN</DistanceMeters>
          </Trackpoint>
          <Trackpoint>
            <Time>2019-08-01T16:33:28.000Z</Time>
            <Position>
              <LatitudeDegrees>40.62799084000289440155029296875</LatitudeDegrees>
              <LongitudeDegrees>-4.029769264161586761474609375</LongitudeDegrees>
            </Position>
            <AltitudeMeters>886</AltitudeMeters>
            <DistanceMeters>NAN</DistanceMeters>
          </Trackpoint>
          <Trackpoint>
            <Time>2019-08-01T16:33:29.000Z</Time>
            <Position>
              <LatitudeDegrees>40.627934597432613372802734375</LatitudeDegrees>
              <LongitudeDegrees>-4.02973582036793231964111328125</LongitudeDegrees>
            </Position>
            <AltitudeMeters>886.20001220703125</AltitudeMeters>
            <DistanceMeters>NAN</DistanceMeters>
          </Trackpoint>
          <Trackpoint>
            <Time>2019-08-01T16:33:30.000Z</Time>
            <Position>
              <LatitudeDegrees>40.62787952832877635955810546875</LatitudeDegrees>
              <LongitudeDegrees>-4.02969977818429470062255859375</LongitudeDegrees>
            </Position>
            <AltitudeMeters>886.20001220703125</AltitudeMeters>
            <DistanceMeters>NAN</DistanceMeters>
          </Trackpoint>
          <Trackpoint>
            <Time>2019-08-01T16:33:31.000Z</Time>
            <Position>
              <LatitudeDegrees>40.62782554887235164642333984375</LatitudeDegrees>
              <LongitudeDegrees>-4.02966071851551532745361328125</LongitudeDegrees>
            </Position>
            <AltitudeMeters>886.20001220703125</AltitudeMeters>
            <DistanceMeters>NAN</DistanceMeters>
          </Trackpoint>
          <Trackpoint>
            <Time>2019-08-01T16:33:32.000Z</Time>
            <Position>
              <LatitudeDegrees>40.62777257524430751800537109375</LatitudeDegrees>
              <LongitudeDegrees>-4.029619060456752777099609375</LongitudeDegrees>
            </Position>
            <AltitudeMeters>886.20001220703125</AltitudeMeters>
            <DistanceMeters>NAN</DistanceMeters>
          </Trackpoint>
          <Trackpoint>
            <Time>2019-08-01T16:33:33.000Z</Time>
            <Position>
              <LatitudeDegrees>40.62777257524430751800537109375</LatitudeDegrees>
              <LongitudeDegrees>-4.029619060456752777099609375</LongitudeDegrees>
            </Position>
            <AltitudeMeters>886.20001220703125</AltitudeMeters>
            <DistanceMeters>NAN</DistanceMeters>
          </Trackpoint>
          <Trackpoint>
            <Time>2019-08-01T16:33:34.000Z</Time>
            <Position>
              <LatitudeDegrees>40.6276680529117584228515625</LatitudeDegrees>
              <LongitudeDegrees>-4.02953599579632282257080078125</LongitudeDegrees>
            </Position>
            <AltitudeMeters>886.20001220703125</AltitudeMeters>
            <DistanceMeters>NAN</DistanceMeters>
          </Trackpoint>
          <Trackpoint>
            <Time>2019-08-01T16:33:35.000Z</Time>
            <Position>
              <LatitudeDegrees>40.62761533074080944061279296875</LatitudeDegrees>
              <LongitudeDegrees>-4.02949576266109943389892578125</LongitudeDegrees>
            </Position>
            <AltitudeMeters>886.20001220703125</AltitudeMeters>
            <DistanceMeters>NAN</DistanceMeters>
          </Trackpoint>
          <Trackpoint>
            <Time>2019-08-01T16:33:36.000Z</Time>
            <Position>
              <LatitudeDegrees>40.62756269238889217376708984375</LatitudeDegrees>
              <LongitudeDegrees>-4.0294556133449077606201171875</LongitudeDegrees>
            </Position>
            <AltitudeMeters>886.4000244140625</AltitudeMeters>
            <DistanceMeters>NAN</DistanceMeters>
          </Trackpoint>
          <Trackpoint>
            <Time>2019-08-01T16:33:37.000Z</Time>
            <Position>
              <LatitudeDegrees>40.62750938348472118377685546875</LatitudeDegrees>
              <LongitudeDegrees>-4.0294167213141918182373046875</LongitudeDegrees>
            </Position>
            <AltitudeMeters>886.5999755859375</AltitudeMeters>
            <DistanceMeters>NAN</DistanceMeters>
          </Trackpoint>
          <Trackpoint>
            <Time>2019-08-01T16:33:38.000Z</Time>
            <Position>
              <LatitudeDegrees>40.62745640985667705535888671875</LatitudeDegrees>
              <LongitudeDegrees>-4.0293753147125244140625</LongitudeDegrees>
            </Position>
            <AltitudeMeters>887</AltitudeMeters>
            <DistanceMeters>NAN</DistanceMeters>
          </Trackpoint>
          <Trackpoint>
            <Time>2019-08-01T16:33:39.000Z</Time>
            <Position>
              <LatitudeDegrees>40.62740427441895008087158203125</LatitudeDegrees>
              <LongitudeDegrees>-4.029330722987651824951171875</LongitudeDegrees>
            </Position>
            <AltitudeMeters>887.20001220703125</AltitudeMeters>
            <DistanceMeters>NAN</DistanceMeters>
          </Trackpoint>
          <Trackpoint>
            <Time>2019-08-01T16:33:40.000Z</Time>
            <Position>
              <LatitudeDegrees>40.6273513846099376678466796875</LatitudeDegrees>
              <LongitudeDegrees>-4.02928453870117664337158203125</LongitudeDegrees>
            </Position>
            <AltitudeMeters>887.4000244140625</AltitudeMeters>
            <DistanceMeters>NAN</DistanceMeters>
          </Trackpoint>
          <Trackpoint>
            <Time>2019-08-01T16:33:41.000Z</Time>
            <Position>
              <LatitudeDegrees>40.62729832716286182403564453125</LatitudeDegrees>
              <LongitudeDegrees>-4.02923659421503543853759765625</LongitudeDegrees>
            </Position>
            <AltitudeMeters>887.79998779296875</AltitudeMeters>
            <DistanceMeters>NAN</DistanceMeters>
          </Trackpoint>
          <Trackpoint>
            <Time>2019-08-01T16:33:42.000Z</Time>
            <Position>
              <LatitudeDegrees>40.62724535353481769561767578125</LatitudeDegrees>
              <LongitudeDegrees>-4.0291889011859893798828125</LongitudeDegrees>
            </Position>
            <AltitudeMeters>888</AltitudeMeters>
            <DistanceMeters>NAN</DistanceMeters>
          </Trackpoint>
          <Trackpoint>
            <Time>2019-08-01T16:33:43.000Z</Time>
            <Position>
              <LatitudeDegrees>40.6271914578974246978759765625</LatitudeDegrees>
              <LongitudeDegrees>-4.0291417948901653289794921875</LongitudeDegrees>
            </Position>
            <AltitudeMeters>888.20001220703125</AltitudeMeters>
            <DistanceMeters>NAN</DistanceMeters>
          </Trackpoint>
          <Trackpoint>
            <Time>2019-08-01T16:33:44.000Z</Time>
            <Position>
              <LatitudeDegrees>40.62713756226003170013427734375</LatitudeDegrees>
              <LongitudeDegrees>-4.029093347489833831787109375</LongitudeDegrees>
            </Position>
            <AltitudeMeters>888.5999755859375</AltitudeMeters>
            <DistanceMeters>NAN</DistanceMeters>
          </Trackpoint>
          <Trackpoint>
            <Time>2019-08-01T16:33:45.000Z</Time>
            <Position>
              <LatitudeDegrees>40.62708358280360698699951171875</LatitudeDegrees>
              <LongitudeDegrees>-4.02904464863240718841552734375</LongitudeDegrees>
            </Position>
            <AltitudeMeters>889</AltitudeMeters>
            <DistanceMeters>NAN</DistanceMeters>
          </Trackpoint>
          <Trackpoint>
            <Time>2019-08-01T16:33:46.000Z</Time>
            <Position>
              <LatitudeDegrees>40.62702910043299198150634765625</LatitudeDegrees>
              <LongitudeDegrees>-4.02899519540369510650634765625</LongitudeDegrees>
            </Position>
            <AltitudeMeters>889.20001220703125</AltitudeMeters>
            <DistanceMeters>NAN</DistanceMeters>
          </Trackpoint>
          <Trackpoint>
            <Time>2019-08-01T16:33:47.000Z</Time>
            <Position>
              <LatitudeDegrees>40.62697445042431354522705078125</LatitudeDegrees>
              <LongitudeDegrees>-4.02894708327949047088623046875</LongitudeDegrees>
            </Position>
            <AltitudeMeters>889.4000244140625</AltitudeMeters>
            <DistanceMeters>NAN</DistanceMeters>
          </Trackpoint>
          <Trackpoint>
            <Time>2019-08-01T16:33:48.000Z</Time>
            <Position>
              <LatitudeDegrees>40.62692063860595226287841796875</LatitudeDegrees>
              <LongitudeDegrees>-4.02889930643141269683837890625</LongitudeDegrees>
            </Position>
            <AltitudeMeters>889.4000244140625</AltitudeMeters>
            <DistanceMeters>NAN</DistanceMeters>
          </Trackpoint>
          <Trackpoint>
            <Time>2019-08-01T16:33:49.000Z</Time>
            <Position>
              <LatitudeDegrees>40.62686598859727382659912109375</LatitudeDegrees>
              <LongitudeDegrees>-4.0288509428501129150390625</LongitudeDegrees>
            </Position>
            <AltitudeMeters>889.5999755859375</AltitudeMeters>
            <DistanceMeters>NAN</DistanceMeters>
          </Trackpoint>
          <Trackpoint>
            <Time>2019-08-01T16:33:50.000Z</Time>
            <Position>
              <LatitudeDegrees>40.62681041657924652099609375</LatitudeDegrees>
              <LongitudeDegrees>-4.02880324982106685638427734375</LongitudeDegrees>
            </Position>
            <AltitudeMeters>889.79998779296875</AltitudeMeters>
            <DistanceMeters>NAN</DistanceMeters>
          </Trackpoint>
          <Trackpoint>
            <Time>2019-08-01T16:33:51.000Z</Time>
            <Position>
              <LatitudeDegrees>40.6267534196376800537109375</LatitudeDegrees>
              <LongitudeDegrees>-4.0287545509636402130126953125</LongitudeDegrees>
            </Position>
            <AltitudeMeters>889.79998779296875</AltitudeMeters>
            <DistanceMeters>NAN</DistanceMeters>
          </Trackpoint>
          <Trackpoint>
            <Time>2019-08-01T16:33:52.000Z</Time>
            <Position>
              <LatitudeDegrees>40.6266965903341770172119140625</LatitudeDegrees>
              <LongitudeDegrees>-4.02870585210621356964111328125</LongitudeDegrees>
            </Position>
            <AltitudeMeters>889.79998779296875</AltitudeMeters>
            <DistanceMeters>NAN</DistanceMeters>
          </Trackpoint>
          <Trackpoint>
            <Time>2019-08-01T16:33:53.000Z</Time>
            <Position>
              <LatitudeDegrees>40.62663967721164226531982421875</LatitudeDegrees>
              <LongitudeDegrees>-4.028656817972660064697265625</LongitudeDegrees>
            </Position>
            <AltitudeMeters>889.79998779296875</AltitudeMeters>
            <DistanceMeters>NAN</DistanceMeters>
          </Trackpoint>
          <Trackpoint>
            <Time>2019-08-01T16:33:54.000Z</Time>
            <Position>
              <LatitudeDegrees>40.62658234499394893646240234375</LatitudeDegrees>
              <LongitudeDegrees>-4.02860895730555057525634765625</LongitudeDegrees>
            </Position>
            <AltitudeMeters>889.79998779296875</AltitudeMeters>
            <DistanceMeters>NAN</DistanceMeters>
          </Trackpoint>
          <Trackpoint>
            <Time>2019-08-01T16:33:55.000Z</Time>
            <Position>
              <LatitudeDegrees>40.6265252642333507537841796875</LatitudeDegrees>
              <LongitudeDegrees>-4.02856101281940937042236328125</LongitudeDegrees>
            </Position>
            <AltitudeMeters>889.79998779296875</AltitudeMeters>
            <DistanceMeters>NAN</DistanceMeters>
          </Trackpoint>
          <Trackpoint>
            <Time>2019-08-01T16:33:56.000Z</Time>
            <Position>
              <LatitudeDegrees>40.62646851874887943267822265625</LatitudeDegrees>
              <LongitudeDegrees>-4.028511978685855865478515625</LongitudeDegrees>
            </Position>
            <AltitudeMeters>889.79998779296875</AltitudeMeters>
            <DistanceMeters>NAN</DistanceMeters>
          </Trackpoint>
          <Trackpoint>
            <Time>2019-08-01T16:33:57.000Z</Time>
            <Position>
              <LatitudeDegrees>40.6264109350740909576416015625</LatitudeDegrees>
              <LongitudeDegrees>-4.0284625254571437835693359375</LongitudeDegrees>
            </Position>
            <AltitudeMeters>889.5999755859375</AltitudeMeters>
            <DistanceMeters>NAN</DistanceMeters>
          </Trackpoint>
          <Trackpoint>
            <Time>2019-08-01T16:33:58.000Z</Time>
            <Position>
              <LatitudeDegrees>40.62635318376123905181884765625</LatitudeDegrees>
              <LongitudeDegrees>-4.02841349132359027862548828125</LongitudeDegrees>
            </Position>
            <AltitudeMeters>889.5999755859375</AltitudeMeters>
            <DistanceMeters>NAN</DistanceMeters>
          </Trackpoint>
          <Trackpoint>
            <Time>2019-08-01T16:33:59.000Z</Time>
            <Position>
              <LatitudeDegrees>40.62629543244838714599609375</LatitudeDegrees>
              <LongitudeDegrees>-4.028364457190036773681640625</LongitudeDegrees>
            </Position>
            <AltitudeMeters>889.5999755859375</AltitudeMeters>
            <DistanceMeters>NAN</DistanceMeters>
          </Trackpoint>
          <Trackpoint>
            <Time>2019-08-01T16:34:00.000Z</Time>
            <Position>
              <LatitudeDegrees>40.62623751349747180938720703125</LatitudeDegrees>
              <LongitudeDegrees>-4.02831592597067356109619140625</LongitudeDegrees>
            </Position>
            <AltitudeMeters>889.5999755859375</AltitudeMeters>
            <DistanceMeters>NAN</DistanceMeters>
          </Trackpoint>
          <Trackpoint>
            <Time>2019-08-01T16:34:01.000Z</Time>
            <Position>
              <LatitudeDegrees>40.6261789239943027496337890625</LatitudeDegrees>
              <LongitudeDegrees>-4.0282673947513103485107421875</LongitudeDegrees>
            </Position>
            <AltitudeMeters>889.5999755859375</AltitudeMeters>
            <DistanceMeters>NAN</DistanceMeters>
          </Trackpoint>
          <Trackpoint>
            <Time>2019-08-01T16:34:02.000Z</Time>
            <Position>
              <LatitudeDegrees>40.626120753586292266845703125</LatitudeDegrees>
              <LongitudeDegrees>-4.0282204560935497283935546875</LongitudeDegrees>
            </Position>
            <AltitudeMeters>889.5999755859375</AltitudeMeters>
            <DistanceMeters>NAN</DistanceMeters>
          </Trackpoint>
          <Trackpoint>
            <Time>2019-08-01T16:34:03.000Z</Time>
            <Position>
              <LatitudeDegrees>40.62606283463537693023681640625</LatitudeDegrees>
              <LongitudeDegrees>-4.02817427180707454681396484375</LongitudeDegrees>
            </Position>
            <AltitudeMeters>889.5999755859375</AltitudeMeters>
            <DistanceMeters>NAN</DistanceMeters>
          </Trackpoint>
          <Trackpoint>
            <Time>2019-08-01T16:34:04.000Z</Time>
            <Position>
              <LatitudeDegrees>40.62600499950349330902099609375</LatitudeDegrees>
              <LongitudeDegrees>-4.028127752244472503662109375</LongitudeDegrees>
            </Position>
            <AltitudeMeters>889.5999755859375</AltitudeMeters>
            <DistanceMeters>NAN</DistanceMeters>
          </Trackpoint>
          <Trackpoint>
            <Time>2019-08-01T16:34:05.000Z</Time>
            <Position>
              <LatitudeDegrees>40.62594674527645111083984375</LatitudeDegrees>
              <LongitudeDegrees>-4.02808207087218761444091796875</LongitudeDegrees>
            </Position>
            <AltitudeMeters>889.5999755859375</AltitudeMeters>
            <DistanceMeters>NAN</DistanceMeters>
          </Trackpoint>
          <Trackpoint>
            <Time>2019-08-01T16:34:06.000Z</Time>
            <Position>
              <LatitudeDegrees>40.6258875690400600433349609375</LatitudeDegrees>
              <LongitudeDegrees>-4.0280360542237758636474609375</LongitudeDegrees>
            </Position>
            <AltitudeMeters>889.5999755859375</AltitudeMeters>
            <DistanceMeters>NAN</DistanceMeters>
          </Trackpoint>
          <Trackpoint>
            <Time>2019-08-01T16:34:07.000Z</Time>
            <Position>
              <LatitudeDegrees>40.62582897953689098358154296875</LatitudeDegrees>
              <LongitudeDegrees>-4.02799121104180812835693359375</LongitudeDegrees>
            </Position>
            <AltitudeMeters>889.5999755859375</AltitudeMeters>
            <DistanceMeters>NAN</DistanceMeters>
          </Trackpoint>
          <Trackpoint>
            <Time>2019-08-01T16:34:08.000Z</Time>
            <Position>
              <LatitudeDegrees>40.62577298842370510101318359375</LatitudeDegrees>
              <LongitudeDegrees>-4.0279435180127620697021484375</LongitudeDegrees>
            </Position>
            <AltitudeMeters>889.5999755859375</AltitudeMeters>
            <DistanceMeters>NAN</DistanceMeters>
          </Trackpoint>
          <Trackpoint>
            <Time>2019-08-01T16:34:09.000Z</Time>
            <Position>
              <LatitudeDegrees>40.625719092786312103271484375</LatitudeDegrees>
              <LongitudeDegrees>-4.0278945676982402801513671875</LongitudeDegrees>
            </Position>
            <AltitudeMeters>889.5999755859375</AltitudeMeters>
            <DistanceMeters>NAN</DistanceMeters>
          </Trackpoint>
          <Trackpoint>
            <Time>2019-08-01T16:34:10.000Z</Time>
            <Position>
              <LatitudeDegrees>40.6256649456918239593505859375</LatitudeDegrees>
              <LongitudeDegrees>-4.02784670703113079071044921875</LongitudeDegrees>
            </Position>
            <AltitudeMeters>889.5999755859375</AltitudeMeters>
            <DistanceMeters>NAN</DistanceMeters>
          </Trackpoint>
          <Trackpoint>
            <Time>2019-08-01T16:34:11.000Z</Time>
            <Position>
              <LatitudeDegrees>40.62561012804508209228515625</LatitudeDegrees>
              <LongitudeDegrees>-4.02779859490692615509033203125</LongitudeDegrees>
            </Position>
            <AltitudeMeters>889.5999755859375</AltitudeMeters>
            <DistanceMeters>NAN</DistanceMeters>
          </Trackpoint>
          <Trackpoint>
            <Time>2019-08-01T16:34:12.000Z</Time>
            <Position>
              <LatitudeDegrees>40.625555478036403656005859375</LatitudeDegrees>
              <LongitudeDegrees>-4.02775048278272151947021484375</LongitudeDegrees>
            </Position>
            <AltitudeMeters>889.5999755859375</AltitudeMeters>
            <DistanceMeters>NAN</DistanceMeters>
          </Trackpoint>
          <Trackpoint>
            <Time>2019-08-01T16:34:13.000Z</Time>
            <Position>
              <LatitudeDegrees>40.6255006603896617889404296875</LatitudeDegrees>
              <LongitudeDegrees>-4.027703292667865753173828125</LongitudeDegrees>
            </Position>
            <AltitudeMeters>889.5999755859375</AltitudeMeters>
            <DistanceMeters>NAN</DistanceMeters>
          </Trackpoint>
          <Trackpoint>
            <Time>2019-08-01T16:34:14.000Z</Time>
            <Position>
              <LatitudeDegrees>40.62544592656195163726806640625</LatitudeDegrees>
              <LongitudeDegrees>-4.02765660546720027923583984375</LongitudeDegrees>
            </Position>
            <AltitudeMeters>889.5999755859375</AltitudeMeters>
            <DistanceMeters>NAN</DistanceMeters>
          </Trackpoint>
          <Trackpoint>
            <Time>2019-08-01T16:34:15.000Z</Time>
            <Position>
              <LatitudeDegrees>40.6253916956484317779541015625</LatitudeDegrees>
              <LongitudeDegrees>-4.0276132710278034210205078125</LongitudeDegrees>
            </Position>
            <AltitudeMeters>889.5999755859375</AltitudeMeters>
            <DistanceMeters>NAN</DistanceMeters>
          </Trackpoint>
          <Trackpoint>
            <Time>2019-08-01T16:34:16.000Z</Time>
            <Position>
              <LatitudeDegrees>40.625335872173309326171875</LatitudeDegrees>
              <LongitudeDegrees>-4.027573205530643463134765625</LongitudeDegrees>
            </Position>
            <AltitudeMeters>889.5999755859375</AltitudeMeters>
            <DistanceMeters>NAN</DistanceMeters>
          </Trackpoint>
          <Trackpoint>
            <Time>2019-08-01T16:34:17.000Z</Time>
            <Position>
              <LatitudeDegrees>40.6252790428698062896728515625</LatitudeDegrees>
              <LongitudeDegrees>-4.0275341458618640899658203125</LongitudeDegrees>
            </Position>
            <AltitudeMeters>889.79998779296875</AltitudeMeters>
            <DistanceMeters>NAN</DistanceMeters>
          </Trackpoint>
          <Trackpoint>
            <Time>2019-08-01T16:34:18.000Z</Time>
            <Position>
              <LatitudeDegrees>40.6252790428698062896728515625</LatitudeDegrees>
              <LongitudeDegrees>-4.0275341458618640899658203125</LongitudeDegrees>
            </Position>
            <AltitudeMeters>890</AltitudeMeters>
            <DistanceMeters>NAN</DistanceMeters>
          </Trackpoint>
          <Trackpoint>
            <Time>2019-08-01T16:34:19.000Z</Time>
            <Position>
              <LatitudeDegrees>40.62516597099602222442626953125</LatitudeDegrees>
              <LongitudeDegrees>-4.027451835572719573974609375</LongitudeDegrees>
            </Position>
            <AltitudeMeters>890</AltitudeMeters>
            <DistanceMeters>NAN</DistanceMeters>
          </Trackpoint>
          <Trackpoint>
            <Time>2019-08-01T16:34:20.000Z</Time>
            <Position>
              <LatitudeDegrees>40.62511132098734378814697265625</LatitudeDegrees>
              <LongitudeDegrees>-4.02740766294300556182861328125</LongitudeDegrees>
            </Position>
            <AltitudeMeters>890.20001220703125</AltitudeMeters>
            <DistanceMeters>NAN</DistanceMeters>
          </Trackpoint>
          <Trackpoint>
            <Time>2019-08-01T16:34:21.000Z</Time>
            <Position>
              <LatitudeDegrees>40.6250587664544582366943359375</LatitudeDegrees>
              <LongitudeDegrees>-4.027358628809452056884765625</LongitudeDegrees>
            </Position>
            <AltitudeMeters>890.20001220703125</AltitudeMeters>
            <DistanceMeters>NAN</DistanceMeters>
          </Trackpoint>
          <Trackpoint>
            <Time>2019-08-01T16:34:22.000Z</Time>
            <Position>
              <LatitudeDegrees>40.6250074692070484161376953125</LatitudeDegrees>
              <LongitudeDegrees>-4.0273051522672176361083984375</LongitudeDegrees>
            </Position>
            <AltitudeMeters>890.20001220703125</AltitudeMeters>
            <DistanceMeters>NAN</DistanceMeters>
          </Trackpoint>
          <Trackpoint>
            <Time>2019-08-01T16:34:23.000Z</Time>
            <Position>
              <LatitudeDegrees>40.62495625577867031097412109375</LatitudeDegrees>
              <LongitudeDegrees>-4.02724924497306346893310546875</LongitudeDegrees>
            </Position>
            <AltitudeMeters>890.20001220703125</AltitudeMeters>
            <DistanceMeters>NAN</DistanceMeters>
          </Trackpoint>
          <Trackpoint>
            <Time>2019-08-01T16:34:24.000Z</Time>
            <Position>
              <LatitudeDegrees>40.62495625577867031097412109375</LatitudeDegrees>
              <LongitudeDegrees>-4.02724924497306346893310546875</LongitudeDegrees>
            </Position>
            <AltitudeMeters>890.4000244140625</AltitudeMeters>
            <DistanceMeters>NAN</DistanceMeters>
          </Trackpoint>
          <Trackpoint>
            <Time>2019-08-01T16:34:25.000Z</Time>
            <Position>
              <LatitudeDegrees>40.62484913505613803863525390625</LatitudeDegrees>
              <LongitudeDegrees>-4.027145393192768096923828125</LongitudeDegrees>
            </Position>
            <AltitudeMeters>890.4000244140625</AltitudeMeters>
            <DistanceMeters>NAN</DistanceMeters>
          </Trackpoint>
          <Trackpoint>
            <Time>2019-08-01T16:34:26.000Z</Time>
            <Position>
              <LatitudeDegrees>40.62479431740939617156982421875</LatitudeDegrees>
              <LongitudeDegrees>-4.02710272930562496185302734375</LongitudeDegrees>
            </Position>
            <AltitudeMeters>890.5999755859375</AltitudeMeters>
            <DistanceMeters>NAN</DistanceMeters>
          </Trackpoint>
          <Trackpoint>
            <Time>2019-08-01T16:34:27.000Z</Time>
            <Position>
              <LatitudeDegrees>40.62474151141941547393798828125</LatitudeDegrees>
              <LongitudeDegrees>-4.02706081978976726531982421875</LongitudeDegrees>
            </Position>
            <AltitudeMeters>890.5999755859375</AltitudeMeters>
            <DistanceMeters>NAN</DistanceMeters>
          </Trackpoint>
          <Trackpoint>
            <Time>2019-08-01T16:34:28.000Z</Time>
            <Position>
              <LatitudeDegrees>40.6246908009052276611328125</LatitudeDegrees>
              <LongitudeDegrees>-4.02701471932232379913330078125</LongitudeDegrees>
            </Position>
            <AltitudeMeters>890.5999755859375</AltitudeMeters>
            <DistanceMeters>NAN</DistanceMeters>
          </Trackpoint>
          <Trackpoint>
            <Time>2019-08-01T16:34:29.000Z</Time>
            <Position>
              <LatitudeDegrees>40.62463908456265926361083984375</LatitudeDegrees>
              <LongitudeDegrees>-4.02696928940713405609130859375</LongitudeDegrees>
            </Position>
            <AltitudeMeters>890.5999755859375</AltitudeMeters>
            <DistanceMeters>NAN</DistanceMeters>
          </Trackpoint>
          <Trackpoint>
            <Time>2019-08-01T16:34:30.000Z</Time>
            <Position>
              <LatitudeDegrees>40.62458309344947338104248046875</LatitudeDegrees>
              <LongitudeDegrees>-4.02693274430930614471435546875</LongitudeDegrees>
            </Position>
            <AltitudeMeters>890.5999755859375</AltitudeMeters>
            <DistanceMeters>NAN</DistanceMeters>
          </Trackpoint>
          <Trackpoint>
            <Time>2019-08-01T16:34:31.000Z</Time>
            <Position>
              <LatitudeDegrees>40.62452291138470172882080078125</LatitudeDegrees>
              <LongitudeDegrees>-4.0269034914672374725341796875</LongitudeDegrees>
            </Position>
            <AltitudeMeters>891</AltitudeMeters>
            <DistanceMeters>NAN</DistanceMeters>
          </Trackpoint>
          <Trackpoint>
            <Time>2019-08-01T16:34:32.000Z</Time>
            <Position>
              <LatitudeDegrees>40.62446021474897861480712890625</LatitudeDegrees>
              <LongitudeDegrees>-4.02687960304319858551025390625</LongitudeDegrees>
            </Position>
            <AltitudeMeters>891</AltitudeMeters>
            <DistanceMeters>NAN</DistanceMeters>
          </Trackpoint>
          <Trackpoint>
            <Time>2019-08-01T16:34:33.000Z</Time>
            <Position>
              <LatitudeDegrees>40.62439634464681148529052734375</LatitudeDegrees>
              <LongitudeDegrees>-4.0268582291901111602783203125</LongitudeDegrees>
            </Position>
            <AltitudeMeters>891.20001220703125</AltitudeMeters>
            <DistanceMeters>NAN</DistanceMeters>
          </Trackpoint>
          <Trackpoint>
            <Time>2019-08-01T16:34:34.000Z</Time>
            <Position>
              <LatitudeDegrees>40.6243318878114223480224609375</LatitudeDegrees>
              <LongitudeDegrees>-4.02683752588927745819091796875</LongitudeDegrees>
            </Position>
            <AltitudeMeters>891.20001220703125</AltitudeMeters>
            <DistanceMeters>NAN</DistanceMeters>
          </Trackpoint>
          <Trackpoint>
            <Time>2019-08-01T16:34:35.000Z</Time>
            <Position>
              <LatitudeDegrees>40.6242670118808746337890625</LatitudeDegrees>
              <LongitudeDegrees>-4.0268178284168243408203125</LongitudeDegrees>
            </Position>
            <AltitudeMeters>891.20001220703125</AltitudeMeters>
            <DistanceMeters>NAN</DistanceMeters>
          </Trackpoint>
          <Trackpoint>
            <Time>2019-08-01T16:34:36.000Z</Time>
            <Position>
              <LatitudeDegrees>40.6242670118808746337890625</LatitudeDegrees>
              <LongitudeDegrees>-4.0268178284168243408203125</LongitudeDegrees>
            </Position>
            <AltitudeMeters>891.20001220703125</AltitudeMeters>
            <DistanceMeters>NAN</DistanceMeters>
          </Trackpoint>
          <Trackpoint>
            <Time>2019-08-01T16:34:37.000Z</Time>
            <Position>
              <LatitudeDegrees>40.624135248363018035888671875</LatitudeDegrees>
              <LongitudeDegrees>-4.02677583508193492889404296875</LongitudeDegrees>
            </Position>
            <AltitudeMeters>891.20001220703125</AltitudeMeters>
            <DistanceMeters>NAN</DistanceMeters>
          </Trackpoint>
          <Trackpoint>
            <Time>2019-08-01T16:34:38.000Z</Time>
            <Position>
              <LatitudeDegrees>40.624069534242153167724609375</LatitudeDegrees>
              <LongitudeDegrees>-4.0267532877624034881591796875</LongitudeDegrees>
            </Position>
            <AltitudeMeters>891.20001220703125</AltitudeMeters>
            <DistanceMeters>NAN</DistanceMeters>
          </Trackpoint>
          <Trackpoint>
            <Time>2019-08-01T16:34:39.000Z</Time>
            <Position>
              <LatitudeDegrees>40.6240029819309711456298828125</LatitudeDegrees>
              <LongitudeDegrees>-4.0267314948141574859619140625</LongitudeDegrees>
            </Position>
            <AltitudeMeters>891.20001220703125</AltitudeMeters>
            <DistanceMeters>NAN</DistanceMeters>
          </Trackpoint>
          <Trackpoint>
            <Time>2019-08-01T16:34:40.000Z</Time>
            <Position>
              <LatitudeDegrees>40.62393500469624996185302734375</LatitudeDegrees>
              <LongitudeDegrees>-4.0267090313136577606201171875</LongitudeDegrees>
            </Position>
            <AltitudeMeters>891.20001220703125</AltitudeMeters>
            <DistanceMeters>NAN</DistanceMeters>
          </Trackpoint>
          <Trackpoint>
            <Time>2019-08-01T16:34:41.000Z</Time>
            <Position>
              <LatitudeDegrees>40.62393500469624996185302734375</LatitudeDegrees>
              <LongitudeDegrees>-4.0267090313136577606201171875</LongitudeDegrees>
            </Position>
            <AltitudeMeters>891</AltitudeMeters>
            <DistanceMeters>NAN</DistanceMeters>
          </Trackpoint>
          <Trackpoint>
            <Time>2019-08-01T16:34:42.000Z</Time>
            <Position>
              <LatitudeDegrees>40.623796619474887847900390625</LatitudeDegrees>
              <LongitudeDegrees>-4.02666586451232433319091796875</LongitudeDegrees>
            </Position>
            <AltitudeMeters>890.79998779296875</AltitudeMeters>
            <DistanceMeters>NAN</DistanceMeters>
          </Trackpoint>
          <Trackpoint>
            <Time>2019-08-01T16:34:43.000Z</Time>
            <Position>
              <LatitudeDegrees>40.62372730113565921783447265625</LatitudeDegrees>
              <LongitudeDegrees>-4.0266453288495540618896484375</LongitudeDegrees>
            </Position>
            <AltitudeMeters>890.5999755859375</AltitudeMeters>
            <DistanceMeters>NAN</DistanceMeters>
          </Trackpoint>
          <Trackpoint>
            <Time>2019-08-01T16:34:44.000Z</Time>
            <Position>
              <LatitudeDegrees>40.62365840189158916473388671875</LatitudeDegrees>
              <LongitudeDegrees>-4.02662412263453006744384765625</LongitudeDegrees>
            </Position>
            <AltitudeMeters>890.4000244140625</AltitudeMeters>
            <DistanceMeters>NAN</DistanceMeters>
          </Trackpoint>
          <Trackpoint>
            <Time>2019-08-01T16:34:45.000Z</Time>
            <Position>
              <LatitudeDegrees>40.623589418828487396240234375</LatitudeDegrees>
              <LongitudeDegrees>-4.02660283260047435760498046875</LongitudeDegrees>
            </Position>
            <AltitudeMeters>890.20001220703125</AltitudeMeters>
            <DistanceMeters>NAN</DistanceMeters>
          </Trackpoint>
          <Trackpoint>
            <Time>2019-08-01T16:34:46.000Z</Time>
            <Position>
              <LatitudeDegrees>40.623589418828487396240234375</LatitudeDegrees>
              <LongitudeDegrees>-4.02660283260047435760498046875</LongitudeDegrees>
            </Position>
            <AltitudeMeters>890</AltitudeMeters>
            <DistanceMeters>NAN</DistanceMeters>
          </Trackpoint>
          <Trackpoint>
            <Time>2019-08-01T16:34:47.000Z</Time>
            <Position>
              <LatitudeDegrees>40.6234511174261569976806640625</LatitudeDegrees>
              <LongitudeDegrees>-4.026558659970760345458984375</LongitudeDegrees>
            </Position>
            <AltitudeMeters>890</AltitudeMeters>
            <DistanceMeters>NAN</DistanceMeters>
          </Trackpoint>
          <Trackpoint>
            <Time>2019-08-01T16:34:48.000Z</Time>
            <Position>
              <LatitudeDegrees>40.6233817152678966522216796875</LatitudeDegrees>
              <LongitudeDegrees>-4.02653443627059459686279296875</LongitudeDegrees>
            </Position>
            <AltitudeMeters>890</AltitudeMeters>
            <DistanceMeters>NAN</DistanceMeters>
          </Trackpoint>
          <Trackpoint>
            <Time>2019-08-01T16:34:49.000Z</Time>
            <Position>
              <LatitudeDegrees>40.623311810195446014404296875</LatitudeDegrees>
              <LongitudeDegrees>-4.026510715484619140625</LongitudeDegrees>
            </Position>
            <AltitudeMeters>889.79998779296875</AltitudeMeters>
            <DistanceMeters>NAN</DistanceMeters>
          </Trackpoint>
          <Trackpoint>
            <Time>2019-08-01T16:34:50.000Z</Time>
            <Position>
              <LatitudeDegrees>40.6232415698468685150146484375</LatitudeDegrees>
              <LongitudeDegrees>-4.02648699469864368438720703125</LongitudeDegrees>
            </Position>
            <AltitudeMeters>889.79998779296875</AltitudeMeters>
            <DistanceMeters>NAN</DistanceMeters>
          </Trackpoint>
          <Trackpoint>
            <Time>2019-08-01T16:34:51.000Z</Time>
            <Position>
              <LatitudeDegrees>40.623170323669910430908203125</LatitudeDegrees>
              <LongitudeDegrees>-4.02646235190331935882568359375</LongitudeDegrees>
            </Position>
            <AltitudeMeters>889.5999755859375</AltitudeMeters>
            <DistanceMeters>NAN</DistanceMeters>
          </Trackpoint>
          <Trackpoint>
            <Time>2019-08-01T16:34:52.000Z</Time>
            <Position>
              <LatitudeDegrees>40.623098574578762054443359375</LatitudeDegrees>
              <LongitudeDegrees>-4.026437960565090179443359375</LongitudeDegrees>
            </Position>
            <AltitudeMeters>889.20001220703125</AltitudeMeters>
            <DistanceMeters>NAN</DistanceMeters>
          </Trackpoint>
          <Trackpoint>
            <Time>2019-08-01T16:34:53.000Z</Time>
            <Position>
              <LatitudeDegrees>40.623026154935359954833984375</LatitudeDegrees>
              <LongitudeDegrees>-4.02641390450298786163330078125</LongitudeDegrees>
            </Position>
            <AltitudeMeters>888.79998779296875</AltitudeMeters>
            <DistanceMeters>NAN</DistanceMeters>
          </Trackpoint>
          <Trackpoint>
            <Time>2019-08-01T16:34:54.000Z</Time>
            <Position>
              <LatitudeDegrees>40.622953735291957855224609375</LatitudeDegrees>
              <LongitudeDegrees>-4.02638934552669525146484375</LongitudeDegrees>
            </Position>
            <AltitudeMeters>888.5999755859375</AltitudeMeters>
            <DistanceMeters>NAN</DistanceMeters>
          </Trackpoint>
          <Trackpoint>
            <Time>2019-08-01T16:34:55.000Z</Time>
            <Position>
              <LatitudeDegrees>40.6228816509246826171875</LatitudeDegrees>
              <LongitudeDegrees>-4.02636528946459293365478515625</LongitudeDegrees>
            </Position>
            <AltitudeMeters>888.4000244140625</AltitudeMeters>
            <DistanceMeters>NAN</DistanceMeters>
          </Trackpoint>
          <Trackpoint>
            <Time>2019-08-01T16:34:56.000Z</Time>
            <Position>
              <LatitudeDegrees>40.6228104047477245330810546875</LatitudeDegrees>
              <LongitudeDegrees>-4.02634182013571262359619140625</LongitudeDegrees>
            </Position>
            <AltitudeMeters>888</AltitudeMeters>
            <DistanceMeters>NAN</DistanceMeters>
          </Trackpoint>
          <Trackpoint>
            <Time>2019-08-01T16:34:57.000Z</Time>
            <Position>
              <LatitudeDegrees>40.62274016439914703369140625</LatitudeDegrees>
              <LongitudeDegrees>-4.0263189375400543212890625</LongitudeDegrees>
            </Position>
            <AltitudeMeters>888</AltitudeMeters>
            <DistanceMeters>NAN</DistanceMeters>
          </Trackpoint>
          <Trackpoint>
            <Time>2019-08-01T16:34:58.000Z</Time>
            <Position>
              <LatitudeDegrees>40.6226710975170135498046875</LatitudeDegrees>
              <LongitudeDegrees>-4.02629680931568145751953125</LongitudeDegrees>
            </Position>
            <AltitudeMeters>887.79998779296875</AltitudeMeters>
            <DistanceMeters>NAN</DistanceMeters>
          </Trackpoint>
          <Trackpoint>
            <Time>2019-08-01T16:34:59.000Z</Time>
            <Position>
              <LatitudeDegrees>40.62260345555841922760009765625</LatitudeDegrees>
              <LongitudeDegrees>-4.0262728370726108551025390625</LongitudeDegrees>
            </Position>
            <AltitudeMeters>887.79998779296875</AltitudeMeters>
            <DistanceMeters>NAN</DistanceMeters>
          </Trackpoint>
          <Trackpoint>
            <Time>2019-08-01T16:35:00.000Z</Time>
            <Position>
              <LatitudeDegrees>40.6225354783236980438232421875</LatitudeDegrees>
              <LongitudeDegrees>-4.02624710462987422943115234375</LongitudeDegrees>
            </Position>
            <AltitudeMeters>887.5999755859375</AltitudeMeters>
            <DistanceMeters>NAN</DistanceMeters>
          </Trackpoint>
          <Trackpoint>
            <Time>2019-08-01T16:35:01.000Z</Time>
            <Position>
              <LatitudeDegrees>40.62246683053672313690185546875</LatitudeDegrees>
              <LongitudeDegrees>-4.0262212045490741729736328125</LongitudeDegrees>
            </Position>
            <AltitudeMeters>887.4000244140625</AltitudeMeters>
            <DistanceMeters>NAN</DistanceMeters>
          </Trackpoint>
          <Trackpoint>
            <Time>2019-08-01T16:35:02.000Z</Time>
            <Position>
              <LatitudeDegrees>40.6223970092833042144775390625</LatitudeDegrees>
              <LongitudeDegrees>-4.02619647793471813201904296875</LongitudeDegrees>
            </Position>
            <AltitudeMeters>887.4000244140625</AltitudeMeters>
            <DistanceMeters>NAN</DistanceMeters>
          </Trackpoint>
          <Trackpoint>
            <Time>2019-08-01T16:35:03.000Z</Time>
            <Position>
              <LatitudeDegrees>40.62232852913439273834228515625</LatitudeDegrees>
              <LongitudeDegrees>-4.026173092424869537353515625</LongitudeDegrees>
            </Position>
            <AltitudeMeters>887.4000244140625</AltitudeMeters>
            <DistanceMeters>NAN</DistanceMeters>
          </Trackpoint>
          <Trackpoint>
            <Time>2019-08-01T16:35:04.000Z</Time>
            <Position>
              <LatitudeDegrees>40.6222618930041790008544921875</LatitudeDegrees>
              <LongitudeDegrees>-4.0261499583721160888671875</LongitudeDegrees>
            </Position>
            <AltitudeMeters>887.4000244140625</AltitudeMeters>
            <DistanceMeters>NAN</DistanceMeters>
          </Trackpoint>
          <Trackpoint>
            <Time>2019-08-01T16:35:05.000Z</Time>
            <Position>
              <LatitudeDegrees>40.62219693325459957122802734375</LatitudeDegrees>
              <LongitudeDegrees>-4.02612690813839435577392578125</LongitudeDegrees>
            </Position>
            <AltitudeMeters>887.4000244140625</AltitudeMeters>
            <DistanceMeters>NAN</DistanceMeters>
          </Trackpoint>
          <Trackpoint>
            <Time>2019-08-01T16:35:06.000Z</Time>
            <Position>
              <LatitudeDegrees>40.6221328116953372955322265625</LatitudeDegrees>
              <LongitudeDegrees>-4.02610377408564090728759765625</LongitudeDegrees>
            </Position>
            <AltitudeMeters>887.4000244140625</AltitudeMeters>
            <DistanceMeters>NAN</DistanceMeters>
          </Trackpoint>
          <Trackpoint>
            <Time>2019-08-01T16:35:07.000Z</Time>
            <Position>
              <LatitudeDegrees>40.622068941593170166015625</LatitudeDegrees>
              <LongitudeDegrees>-4.02608181349933147430419921875</LongitudeDegrees>
            </Position>
            <AltitudeMeters>887.4000244140625</AltitudeMeters>
            <DistanceMeters>NAN</DistanceMeters>
          </Trackpoint>
          <Trackpoint>
            <Time>2019-08-01T16:35:08.000Z</Time>
            <Position>
              <LatitudeDegrees>40.6220059096813201904296875</LatitudeDegrees>
              <LongitudeDegrees>-4.02605943381786346435546875</LongitudeDegrees>
            </Position>
            <AltitudeMeters>887.5999755859375</AltitudeMeters>
            <DistanceMeters>NAN</DistanceMeters>
          </Trackpoint>
          <Trackpoint>
            <Time>2019-08-01T16:35:09.000Z</Time>
            <Position>
              <LatitudeDegrees>40.62194413505494594573974609375</LatitudeDegrees>
              <LongitudeDegrees>-4.02603638358414173126220703125</LongitudeDegrees>
            </Position>
            <AltitudeMeters>887.5999755859375</AltitudeMeters>
            <DistanceMeters>NAN</DistanceMeters>
          </Trackpoint>
          <Trackpoint>
            <Time>2019-08-01T16:35:10.000Z</Time>
            <Position>
              <LatitudeDegrees>40.621884204447269439697265625</LatitudeDegrees>
              <LongitudeDegrees>-4.0260150097310543060302734375</LongitudeDegrees>
            </Position>
            <AltitudeMeters>887.5999755859375</AltitudeMeters>
            <DistanceMeters>NAN</DistanceMeters>
          </Trackpoint>
          <Trackpoint>
            <Time>2019-08-01T16:35:11.000Z</Time>
            <Position>
              <LatitudeDegrees>40.6218262016773223876953125</LatitudeDegrees>
              <LongitudeDegrees>-4.025994054973125457763671875</LongitudeDegrees>
            </Position>
            <AltitudeMeters>887.79998779296875</AltitudeMeters>
            <DistanceMeters>NAN</DistanceMeters>
          </Trackpoint>
          <Trackpoint>
            <Time>2019-08-01T16:35:12.000Z</Time>
            <Position>
              <LatitudeDegrees>40.62177113257348537445068359375</LatitudeDegrees>
              <LongitudeDegrees>-4.02597402222454547882080078125</LongitudeDegrees>
            </Position>
            <AltitudeMeters>887.79998779296875</AltitudeMeters>
            <DistanceMeters>NAN</DistanceMeters>
          </Trackpoint>
          <Trackpoint>
            <Time>2019-08-01T16:35:13.000Z</Time>
            <Position>
              <LatitudeDegrees>40.62171765603125095367431640625</LatitudeDegrees>
              <LongitudeDegrees>-4.0259560011327266693115234375</LongitudeDegrees>
            </Position>
            <AltitudeMeters>888</AltitudeMeters>
            <DistanceMeters>NAN</DistanceMeters>
          </Trackpoint>
          <Trackpoint>
            <Time>2019-08-01T16:35:14.000Z</Time>
            <Position>
              <LatitudeDegrees>40.6216647662222385406494140625</LatitudeDegrees>
              <LongitudeDegrees>-4.02593739330768585205078125</LongitudeDegrees>
            </Position>
            <AltitudeMeters>888.4000244140625</AltitudeMeters>
            <DistanceMeters>NAN</DistanceMeters>
          </Trackpoint>
          <Trackpoint>
            <Time>2019-08-01T16:35:15.000Z</Time>
            <Position>
              <LatitudeDegrees>40.62161221168935298919677734375</LatitudeDegrees>
              <LongitudeDegrees>-4.0259187854826450347900390625</LongitudeDegrees>
            </Position>
            <AltitudeMeters>888.5999755859375</AltitudeMeters>
            <DistanceMeters>NAN</DistanceMeters>
          </Trackpoint>
          <Trackpoint>
            <Time>2019-08-01T16:35:16.000Z</Time>
            <Position>
              <LatitudeDegrees>40.6215591542422771453857421875</LatitudeDegrees>
              <LongitudeDegrees>-4.025900177657604217529296875</LongitudeDegrees>
            </Position>
            <AltitudeMeters>889</AltitudeMeters>
            <DistanceMeters>NAN</DistanceMeters>
          </Trackpoint>
          <Trackpoint>
            <Time>2019-08-01T16:35:17.000Z</Time>
            <Position>
              <LatitudeDegrees>40.62150643207132816314697265625</LatitudeDegrees>
              <LongitudeDegrees>-4.02588131837546825408935546875</LongitudeDegrees>
            </Position>
            <AltitudeMeters>889</AltitudeMeters>
            <DistanceMeters>NAN</DistanceMeters>
          </Trackpoint>
          <Trackpoint>
            <Time>2019-08-01T16:35:18.000Z</Time>
            <Position>
              <LatitudeDegrees>40.62145479954779148101806640625</LatitudeDegrees>
              <LongitudeDegrees>-4.02586363255977630615234375</LongitudeDegrees>
            </Position>
            <AltitudeMeters>889.4000244140625</AltitudeMeters>
            <DistanceMeters>NAN</DistanceMeters>
          </Trackpoint>
          <Trackpoint>
            <Time>2019-08-01T16:35:19.000Z</Time>
            <Position>
              <LatitudeDegrees>40.62140417285263538360595703125</LatitudeDegrees>
              <LongitudeDegrees>-4.0258453600108623504638671875</LongitudeDegrees>
            </Position>
            <AltitudeMeters>889.5999755859375</AltitudeMeters>
            <DistanceMeters>NAN</DistanceMeters>
          </Trackpoint>
          <Trackpoint>
            <Time>2019-08-01T16:35:20.000Z</Time>
            <Position>
              <LatitudeDegrees>40.62135371379554271697998046875</LatitudeDegrees>
              <LongitudeDegrees>-4.02582817710936069488525390625</LongitudeDegrees>
            </Position>
            <AltitudeMeters>890</AltitudeMeters>
            <DistanceMeters>NAN</DistanceMeters>
          </Trackpoint>
          <Trackpoint>
            <Time>2019-08-01T16:35:21.000Z</Time>
            <Position>
              <LatitudeDegrees>40.6213046796619892120361328125</LatitudeDegrees>
              <LongitudeDegrees>-4.0258093178272247314453125</LongitudeDegrees>
            </Position>
            <AltitudeMeters>890.4000244140625</AltitudeMeters>
            <DistanceMeters>NAN</DistanceMeters>
          </Trackpoint>
          <Trackpoint>
            <Time>2019-08-01T16:35:22.000Z</Time>
            <Position>
              <LatitudeDegrees>40.6212557293474674224853515625</LatitudeDegrees>
              <LongitudeDegrees>-4.025790207087993621826171875</LongitudeDegrees>
            </Position>
            <AltitudeMeters>890.79998779296875</AltitudeMeters>
            <DistanceMeters>NAN</DistanceMeters>
          </Trackpoint>
          <Trackpoint>
            <Time>2019-08-01T16:35:23.000Z</Time>
            <Position>
              <LatitudeDegrees>40.621206276118755340576171875</LatitudeDegrees>
              <LongitudeDegrees>-4.02577302418649196624755859375</LongitudeDegrees>
            </Position>
            <AltitudeMeters>891.20001220703125</AltitudeMeters>
            <DistanceMeters>NAN</DistanceMeters>
          </Trackpoint>
          <Trackpoint>
            <Time>2019-08-01T16:35:24.000Z</Time>
            <Position>
              <LatitudeDegrees>40.621206276118755340576171875</LatitudeDegrees>
              <LongitudeDegrees>-4.02577302418649196624755859375</LongitudeDegrees>
            </Position>
            <AltitudeMeters>891.5999755859375</AltitudeMeters>
            <DistanceMeters>NAN</DistanceMeters>
          </Trackpoint>
          <Trackpoint>
            <Time>2019-08-01T16:35:25.000Z</Time>
            <Position>
              <LatitudeDegrees>40.621108710765838623046875</LatitudeDegrees>
              <LongitudeDegrees>-4.02573849074542522430419921875</LongitudeDegrees>
            </Position>
            <AltitudeMeters>892</AltitudeMeters>
            <DistanceMeters>NAN</DistanceMeters>
          </Trackpoint>
          <Trackpoint>
            <Time>2019-08-01T16:35:26.000Z</Time>
            <Position>
              <LatitudeDegrees>40.62105867080390453338623046875</LatitudeDegrees>
              <LongitudeDegrees>-4.02572281658649444580078125</LongitudeDegrees>
            </Position>
            <AltitudeMeters>892.4000244140625</AltitudeMeters>
            <DistanceMeters>NAN</DistanceMeters>
          </Trackpoint>
          <Trackpoint>
            <Time>2019-08-01T16:35:27.000Z</Time>
            <Position>
              <LatitudeDegrees>40.62100904993712902069091796875</LatitudeDegrees>
              <LongitudeDegrees>-4.02570563368499279022216796875</LongitudeDegrees>
            </Position>
            <AltitudeMeters>892.79998779296875</AltitudeMeters>
            <DistanceMeters>NAN</DistanceMeters>
          </Trackpoint>
          <Trackpoint>
            <Time>2019-08-01T16:35:28.000Z</Time>
            <Position>
              <LatitudeDegrees>40.6209596805274486541748046875</LatitudeDegrees>
              <LongitudeDegrees>-4.02568903751671314239501953125</LongitudeDegrees>
            </Position>
            <AltitudeMeters>893.20001220703125</AltitudeMeters>
            <DistanceMeters>NAN</DistanceMeters>
          </Trackpoint>
          <Trackpoint>
            <Time>2019-08-01T16:35:29.000Z</Time>
            <Position>
              <LatitudeDegrees>40.6209100596606731414794921875</LatitudeDegrees>
              <LongitudeDegrees>-4.02567160315811634063720703125</LongitudeDegrees>
            </Position>
            <AltitudeMeters>893.5999755859375</AltitudeMeters>
            <DistanceMeters>NAN</DistanceMeters>
          </Trackpoint>
          <Trackpoint>
            <Time>2019-08-01T16:35:30.000Z</Time>
            <Position>
              <LatitudeDegrees>40.620860271155834197998046875</LatitudeDegrees>
              <LongitudeDegrees>-4.025652743875980377197265625</LongitudeDegrees>
            </Position>
            <AltitudeMeters>894.4000244140625</AltitudeMeters>
            <DistanceMeters>NAN</DistanceMeters>
          </Trackpoint>
          <Trackpoint>
            <Time>2019-08-01T16:35:31.000Z</Time>
            <Position>
              <LatitudeDegrees>40.620860271155834197998046875</LatitudeDegrees>
              <LongitudeDegrees>-4.025652743875980377197265625</LongitudeDegrees>
            </Position>
            <AltitudeMeters>894.79998779296875</AltitudeMeters>
            <DistanceMeters>NAN</DistanceMeters>
          </Trackpoint>
          <Trackpoint>
            <Time>2019-08-01T16:35:32.000Z</Time>
            <Position>
              <LatitudeDegrees>40.62075692228972911834716796875</LatitudeDegrees>
              <LongitudeDegrees>-4.02561686933040618896484375</LongitudeDegrees>
            </Position>
            <AltitudeMeters>895.20001220703125</AltitudeMeters>
            <DistanceMeters>NAN</DistanceMeters>
          </Trackpoint>
          <Trackpoint>
            <Time>2019-08-01T16:35:33.000Z</Time>
            <Position>
              <LatitudeDegrees>40.62070227228105068206787109375</LatitudeDegrees>
              <LongitudeDegrees>-4.02559717185795307159423828125</LongitudeDegrees>
            </Position>
            <AltitudeMeters>895.4000244140625</AltitudeMeters>
            <DistanceMeters>NAN</DistanceMeters>
          </Trackpoint>
          <Trackpoint>
            <Time>2019-08-01T16:35:34.000Z</Time>
            <Position>
              <LatitudeDegrees>40.62064678408205509185791015625</LatitudeDegrees>
              <LongitudeDegrees>-4.02557755820453166961669921875</LongitudeDegrees>
            </Position>
            <AltitudeMeters>895.5999755859375</AltitudeMeters>
            <DistanceMeters>NAN</DistanceMeters>
          </Trackpoint>
          <Trackpoint>
            <Time>2019-08-01T16:35:35.000Z</Time>
            <Position>
              <LatitudeDegrees>40.62064678408205509185791015625</LatitudeDegrees>
              <LongitudeDegrees>-4.02557755820453166961669921875</LongitudeDegrees>
            </Position>
            <AltitudeMeters>895.79998779296875</AltitudeMeters>
            <DistanceMeters>NAN</DistanceMeters>
          </Trackpoint>
          <Trackpoint>
            <Time>2019-08-01T16:35:36.000Z</Time>
            <Position>
              <LatitudeDegrees>40.6205387413501739501953125</LatitudeDegrees>
              <LongitudeDegrees>-4.0255402587354183197021484375</LongitudeDegrees>
            </Position>
            <AltitudeMeters>896</AltitudeMeters>
            <DistanceMeters>NAN</DistanceMeters>
          </Trackpoint>
          <Trackpoint>
            <Time>2019-08-01T16:35:37.000Z</Time>
            <Position>
              <LatitudeDegrees>40.620485432446002960205078125</LatitudeDegrees>
              <LongitudeDegrees>-4.02552207000553607940673828125</LongitudeDegrees>
            </Position>
            <AltitudeMeters>896.4000244140625</AltitudeMeters>
            <DistanceMeters>NAN</DistanceMeters>
          </Trackpoint>
          <Trackpoint>
            <Time>2019-08-01T16:35:38.000Z</Time>
            <Position>
              <LatitudeDegrees>40.62043103389441967010498046875</LatitudeDegrees>
              <LongitudeDegrees>-4.02550362981855869293212890625</LongitudeDegrees>
            </Position>
            <AltitudeMeters>896.79998779296875</AltitudeMeters>
            <DistanceMeters>NAN</DistanceMeters>
          </Trackpoint>
          <Trackpoint>
            <Time>2019-08-01T16:35:39.000Z</Time>
            <Position>
              <LatitudeDegrees>40.62037579715251922607421875</LatitudeDegrees>
              <LongitudeDegrees>-4.02548686601221561431884765625</LongitudeDegrees>
            </Position>
            <AltitudeMeters>896.79998779296875</AltitudeMeters>
            <DistanceMeters>NAN</DistanceMeters>
          </Trackpoint>
          <Trackpoint>
            <Time>2019-08-01T16:35:40.000Z</Time>
            <Position>
              <LatitudeDegrees>40.6203193031251430511474609375</LatitudeDegrees>
              <LongitudeDegrees>-4.02547010220587253570556640625</LongitudeDegrees>
            </Position>
            <AltitudeMeters>897</AltitudeMeters>
            <DistanceMeters>NAN</DistanceMeters>
          </Trackpoint>
          <Trackpoint>
            <Time>2019-08-01T16:35:41.000Z</Time>
            <Position>
              <LatitudeDegrees>40.62026155181229114532470703125</LatitudeDegrees>
              <LongitudeDegrees>-4.0254525840282440185546875</LongitudeDegrees>
            </Position>
            <AltitudeMeters>897.4000244140625</AltitudeMeters>
            <DistanceMeters>NAN</DistanceMeters>
          </Trackpoint>
          <Trackpoint>
            <Time>2019-08-01T16:35:42.000Z</Time>
            <Position>
              <LatitudeDegrees>40.62020204029977321624755859375</LatitudeDegrees>
              <LongitudeDegrees>-4.02543406002223491668701171875</LongitudeDegrees>
            </Position>
            <AltitudeMeters>897.4000244140625</AltitudeMeters>
            <DistanceMeters>NAN</DistanceMeters>
          </Trackpoint>
          <Trackpoint>
            <Time>2019-08-01T16:35:43.000Z</Time>
            <Position>
              <LatitudeDegrees>40.6201390922069549560546875</LatitudeDegrees>
              <LongitudeDegrees>-4.0254145301878452301025390625</LongitudeDegrees>
            </Position>
            <AltitudeMeters>897.5999755859375</AltitudeMeters>
            <DistanceMeters>NAN</DistanceMeters>
          </Trackpoint>
          <Trackpoint>
            <Time>2019-08-01T16:35:44.000Z</Time>
            <Position>
              <LatitudeDegrees>40.620072372257709503173828125</LatitudeDegrees>
              <LongitudeDegrees>-4.0253940783441066741943359375</LongitudeDegrees>
            </Position>
            <AltitudeMeters>897.5999755859375</AltitudeMeters>
            <DistanceMeters>NAN</DistanceMeters>
          </Trackpoint>
          <Trackpoint>
            <Time>2019-08-01T16:35:45.000Z</Time>
            <Position>
              <LatitudeDegrees>40.62000221572816371917724609375</LatitudeDegrees>
              <LongitudeDegrees>-4.0253749676048755645751953125</LongitudeDegrees>
            </Position>
            <AltitudeMeters>897.5999755859375</AltitudeMeters>
            <DistanceMeters>NAN</DistanceMeters>
          </Trackpoint>
          <Trackpoint>
            <Time>2019-08-01T16:35:46.000Z</Time>
            <Position>
              <LatitudeDegrees>40.61992895789444446563720703125</LatitudeDegrees>
              <LongitudeDegrees>-4.02535694651305675506591796875</LongitudeDegrees>
            </Position>
            <AltitudeMeters>897.5999755859375</AltitudeMeters>
            <DistanceMeters>NAN</DistanceMeters>
          </Trackpoint>
          <Trackpoint>
            <Time>2019-08-01T16:35:47.000Z</Time>
            <Position>
              <LatitudeDegrees>40.61985251493752002716064453125</LatitudeDegrees>
              <LongitudeDegrees>-4.0253384225070476531982421875</LongitudeDegrees>
            </Position>
            <AltitudeMeters>897.5999755859375</AltitudeMeters>
            <DistanceMeters>NAN</DistanceMeters>
          </Trackpoint>
          <Trackpoint>
            <Time>2019-08-01T16:35:48.000Z</Time>
            <Position>
              <LatitudeDegrees>40.61977188102900981903076171875</LatitudeDegrees>
              <LongitudeDegrees>-4.02531906031072139739990234375</LongitudeDegrees>
            </Position>
            <AltitudeMeters>897.5999755859375</AltitudeMeters>
            <DistanceMeters>NAN</DistanceMeters>
          </Trackpoint>
          <Trackpoint>
            <Time>2019-08-01T16:35:49.000Z</Time>
            <Position>
              <LatitudeDegrees>40.619686804711818695068359375</LatitudeDegrees>
              <LongitudeDegrees>-4.02529944665729999542236328125</LongitudeDegrees>
            </Position>
            <AltitudeMeters>897.4000244140625</AltitudeMeters>
            <DistanceMeters>NAN</DistanceMeters>
          </Trackpoint>
          <Trackpoint>
            <Time>2019-08-01T16:35:50.000Z</Time>
            <Position>
              <LatitudeDegrees>40.6195974536240100860595703125</LatitudeDegrees>
              <LongitudeDegrees>-4.02527815662324428558349609375</LongitudeDegrees>
            </Position>
            <AltitudeMeters>897.20001220703125</AltitudeMeters>
            <DistanceMeters>NAN</DistanceMeters>
          </Trackpoint>
          <Trackpoint>
            <Time>2019-08-01T16:35:51.000Z</Time>
            <Position>
              <LatitudeDegrees>40.6195039115846157073974609375</LatitudeDegrees>
              <LongitudeDegrees>-4.02525519020855426788330078125</LongitudeDegrees>
            </Position>
            <AltitudeMeters>897</AltitudeMeters>
            <DistanceMeters>NAN</DistanceMeters>
          </Trackpoint>
          <Trackpoint>
            <Time>2019-08-01T16:35:52.000Z</Time>
            <Position>
              <LatitudeDegrees>40.6194070167839527130126953125</LatitudeDegrees>
              <LongitudeDegrees>-4.02523222379386425018310546875</LongitudeDegrees>
            </Position>
            <AltitudeMeters>897</AltitudeMeters>
            <DistanceMeters>NAN</DistanceMeters>
          </Trackpoint>
          <Trackpoint>
            <Time>2019-08-01T16:35:53.000Z</Time>
            <Position>
              <LatitudeDegrees>40.619308613240718841552734375</LatitudeDegrees>
              <LongitudeDegrees>-4.025208838284015655517578125</LongitudeDegrees>
            </Position>
            <AltitudeMeters>896.79998779296875</AltitudeMeters>
            <DistanceMeters>NAN</DistanceMeters>
          </Trackpoint>
          <Trackpoint>
            <Time>2019-08-01T16:35:54.000Z</Time>
            <Position>
              <LatitudeDegrees>40.61920962296426296234130859375</LatitudeDegrees>
              <LongitudeDegrees>-4.0251858718693256378173828125</LongitudeDegrees>
            </Position>
            <AltitudeMeters>896</AltitudeMeters>
            <DistanceMeters>NAN</DistanceMeters>
          </Trackpoint>
          <Trackpoint>
            <Time>2019-08-01T16:35:55.000Z</Time>
            <Position>
              <LatitudeDegrees>40.61910920776426792144775390625</LatitudeDegrees>
              <LongitudeDegrees>-4.02516265399754047393798828125</LongitudeDegrees>
            </Position>
            <AltitudeMeters>895.20001220703125</AltitudeMeters>
            <DistanceMeters>NAN</DistanceMeters>
          </Trackpoint>
          <Trackpoint>
            <Time>2019-08-01T16:35:56.000Z</Time>
            <Position>
              <LatitudeDegrees>40.61900787055492401123046875</LatitudeDegrees>
              <LongitudeDegrees>-4.025139771401882171630859375</LongitudeDegrees>
            </Position>
            <AltitudeMeters>894.5999755859375</AltitudeMeters>
            <DistanceMeters>NAN</DistanceMeters>
          </Trackpoint>
          <Trackpoint>
            <Time>2019-08-01T16:35:57.000Z</Time>
            <Position>
              <LatitudeDegrees>40.61890535987913608551025390625</LatitudeDegrees>
              <LongitudeDegrees>-4.025116302073001861572265625</LongitudeDegrees>
            </Position>
            <AltitudeMeters>894.20001220703125</AltitudeMeters>
            <DistanceMeters>NAN</DistanceMeters>
          </Trackpoint>
          <Trackpoint>
            <Time>2019-08-01T16:35:58.000Z</Time>
            <Position>
              <LatitudeDegrees>40.61880243010818958282470703125</LatitudeDegrees>
              <LongitudeDegrees>-4.02509308420121669769287109375</LongitudeDegrees>
            </Position>
            <AltitudeMeters>893.4000244140625</AltitudeMeters>
            <DistanceMeters>NAN</DistanceMeters>
          </Trackpoint>
          <Trackpoint>
            <Time>2019-08-01T16:35:59.000Z</Time>
            <Position>
              <LatitudeDegrees>40.61870075762271881103515625</LatitudeDegrees>
              <LongitudeDegrees>-4.025070369243621826171875</LongitudeDegrees>
            </Position>
            <AltitudeMeters>892.4000244140625</AltitudeMeters>
            <DistanceMeters>NAN</DistanceMeters>
          </Trackpoint>
          <Trackpoint>
            <Time>2019-08-01T16:36:00.000Z</Time>
            <Position>
              <LatitudeDegrees>40.6186008453369140625</LatitudeDegrees>
              <LongitudeDegrees>-4.02504681609570980072021484375</LongitudeDegrees>
            </Position>
            <AltitudeMeters>891.79998779296875</AltitudeMeters>
            <DistanceMeters>NAN</DistanceMeters>
          </Trackpoint>
          <Trackpoint>
            <Time>2019-08-01T16:36:01.000Z</Time>
            <Position>
              <LatitudeDegrees>40.61850361526012420654296875</LatitudeDegrees>
              <LongitudeDegrees>-4.0250232629477977752685546875</LongitudeDegrees>
            </Position>
            <AltitudeMeters>891.20001220703125</AltitudeMeters>
            <DistanceMeters>NAN</DistanceMeters>
          </Trackpoint>
          <Trackpoint>
            <Time>2019-08-01T16:36:02.000Z</Time>
            <Position>
              <LatitudeDegrees>40.61840831302106380462646484375</LatitudeDegrees>
              <LongitudeDegrees>-4.02500038035213947296142578125</LongitudeDegrees>
            </Position>
            <AltitudeMeters>890.79998779296875</AltitudeMeters>
            <DistanceMeters>NAN</DistanceMeters>
          </Trackpoint>
          <Trackpoint>
            <Time>2019-08-01T16:36:03.000Z</Time>
            <Position>
              <LatitudeDegrees>40.61831493861973285675048828125</LatitudeDegrees>
              <LongitudeDegrees>-4.0249780006706714630126953125</LongitudeDegrees>
            </Position>
            <AltitudeMeters>890.20001220703125</AltitudeMeters>
            <DistanceMeters>NAN</DistanceMeters>
          </Trackpoint>
          <Trackpoint>
            <Time>2019-08-01T16:36:04.000Z</Time>
            <Position>
              <LatitudeDegrees>40.6182241626083850860595703125</LatitudeDegrees>
              <LongitudeDegrees>-4.0249562077224254608154296875</LongitudeDegrees>
            </Position>
            <AltitudeMeters>889.5999755859375</AltitudeMeters>
            <DistanceMeters>NAN</DistanceMeters>
          </Trackpoint>
          <Trackpoint>
            <Time>2019-08-01T16:36:05.000Z</Time>
            <Position>
              <LatitudeDegrees>40.61813606880605220794677734375</LatitudeDegrees>
              <LongitudeDegrees>-4.024935252964496612548828125</LongitudeDegrees>
            </Position>
            <AltitudeMeters>888.79998779296875</AltitudeMeters>
            <DistanceMeters>NAN</DistanceMeters>
          </Trackpoint>
          <Trackpoint>
            <Time>2019-08-01T16:36:06.000Z</Time>
            <Position>
              <LatitudeDegrees>40.61805090866982936859130859375</LatitudeDegrees>
              <LongitudeDegrees>-4.02491538785398006439208984375</LongitudeDegrees>
            </Position>
            <AltitudeMeters>888.20001220703125</AltitudeMeters>
            <DistanceMeters>NAN</DistanceMeters>
          </Trackpoint>
          <Trackpoint>
            <Time>2019-08-01T16:36:07.000Z</Time>
            <Position>
              <LatitudeDegrees>40.61796977184712886810302734375</LatitudeDegrees>
              <LongitudeDegrees>-4.024896360933780670166015625</LongitudeDegrees>
            </Position>
            <AltitudeMeters>888</AltitudeMeters>
            <DistanceMeters>NAN</DistanceMeters>
          </Trackpoint>
          <Trackpoint>
            <Time>2019-08-01T16:36:08.000Z</Time>
            <Position>
              <LatitudeDegrees>40.617892742156982421875</LatitudeDegrees>
              <LongitudeDegrees>-4.024877585470676422119140625</LongitudeDegrees>
            </Position>
            <AltitudeMeters>887.79998779296875</AltitudeMeters>
            <DistanceMeters>NAN</DistanceMeters>
          </Trackpoint>
          <Trackpoint>
            <Time>2019-08-01T16:36:09.000Z</Time>
            <Position>
              <LatitudeDegrees>40.617817975580692291259765625</LatitudeDegrees>
              <LongitudeDegrees>-4.0248603187501430511474609375</LongitudeDegrees>
            </Position>
            <AltitudeMeters>887.5999755859375</AltitudeMeters>
            <DistanceMeters>NAN</DistanceMeters>
          </Trackpoint>
          <Trackpoint>
            <Time>2019-08-01T16:36:10.000Z</Time>
            <Position>
              <LatitudeDegrees>40.617744214832782745361328125</LatitudeDegrees>
              <LongitudeDegrees>-4.02484330348670482635498046875</LongitudeDegrees>
            </Position>
            <AltitudeMeters>887.4000244140625</AltitudeMeters>
            <DistanceMeters>NAN</DistanceMeters>
          </Trackpoint>
          <Trackpoint>
            <Time>2019-08-01T16:36:11.000Z</Time>
            <Position>
              <LatitudeDegrees>40.61767154373228549957275390625</LatitudeDegrees>
              <LongitudeDegrees>-4.02482561767101287841796875</LongitudeDegrees>
            </Position>
            <AltitudeMeters>887.4000244140625</AltitudeMeters>
            <DistanceMeters>NAN</DistanceMeters>
          </Trackpoint>
          <Trackpoint>
            <Time>2019-08-01T16:36:12.000Z</Time>
            <Position>
              <LatitudeDegrees>40.617600046098232269287109375</LatitudeDegrees>
              <LongitudeDegrees>-4.02480826713144779205322265625</LongitudeDegrees>
            </Position>
            <AltitudeMeters>887.4000244140625</AltitudeMeters>
            <DistanceMeters>NAN</DistanceMeters>
          </Trackpoint>
          <Trackpoint>
            <Time>2019-08-01T16:36:13.000Z</Time>
            <Position>
              <LatitudeDegrees>40.617529638111591339111328125</LatitudeDegrees>
              <LongitudeDegrees>-4.0247919224202632904052734375</LongitudeDegrees>
            </Position>
            <AltitudeMeters>887.4000244140625</AltitudeMeters>
            <DistanceMeters>NAN</DistanceMeters>
          </Trackpoint>
          <Trackpoint>
            <Time>2019-08-01T16:36:14.000Z</Time>
            <Position>
              <LatitudeDegrees>40.61746132560074329376220703125</LatitudeDegrees>
              <LongitudeDegrees>-4.02477691881358623504638671875</LongitudeDegrees>
            </Position>
            <AltitudeMeters>887.4000244140625</AltitudeMeters>
            <DistanceMeters>NAN</DistanceMeters>
          </Trackpoint>
          <Trackpoint>
            <Time>2019-08-01T16:36:15.000Z</Time>
            <Position>
              <LatitudeDegrees>40.61746132560074329376220703125</LatitudeDegrees>
              <LongitudeDegrees>-4.02477691881358623504638671875</LongitudeDegrees>
            </Position>
            <AltitudeMeters>887.4000244140625</AltitudeMeters>
            <DistanceMeters>NAN</DistanceMeters>
          </Trackpoint>
          <Trackpoint>
            <Time>2019-08-01T16:36:16.000Z</Time>
            <Position>
              <LatitudeDegrees>40.617326460778713226318359375</LatitudeDegrees>
              <LongitudeDegrees>-4.0247449837625026702880859375</LongitudeDegrees>
            </Position>
            <AltitudeMeters>887.4000244140625</AltitudeMeters>
            <DistanceMeters>NAN</DistanceMeters>
          </Trackpoint>
          <Trackpoint>
            <Time>2019-08-01T16:36:17.000Z</Time>
            <Position>
              <LatitudeDegrees>40.61725898645818233489990234375</LatitudeDegrees>
              <LongitudeDegrees>-4.02472964487969875335693359375</LongitudeDegrees>
            </Position>
            <AltitudeMeters>887.4000244140625</AltitudeMeters>
            <DistanceMeters>NAN</DistanceMeters>
          </Trackpoint>
          <Trackpoint>
            <Time>2019-08-01T16:36:18.000Z</Time>
            <Position>
              <LatitudeDegrees>40.61725898645818233489990234375</LatitudeDegrees>
              <LongitudeDegrees>-4.02472964487969875335693359375</LongitudeDegrees>
            </Position>
            <AltitudeMeters>887.4000244140625</AltitudeMeters>
            <DistanceMeters>NAN</DistanceMeters>
          </Trackpoint>
          <Trackpoint>
            <Time>2019-08-01T16:36:19.000Z</Time>
            <Position>
              <LatitudeDegrees>40.6171251274645328521728515625</LatitudeDegrees>
              <LongitudeDegrees>-4.02469796128571033477783203125</LongitudeDegrees>
            </Position>
            <AltitudeMeters>887.4000244140625</AltitudeMeters>
            <DistanceMeters>NAN</DistanceMeters>
          </Trackpoint>
          <Trackpoint>
            <Time>2019-08-01T16:36:20.000Z</Time>
            <Position>
              <LatitudeDegrees>40.6170580722391605377197265625</LatitudeDegrees>
              <LongitudeDegrees>-4.02468077838420867919921875</LongitudeDegrees>
            </Position>
            <AltitudeMeters>887.4000244140625</AltitudeMeters>
            <DistanceMeters>NAN</DistanceMeters>
          </Trackpoint>
          <Trackpoint>
            <Time>2019-08-01T16:36:21.000Z</Time>
            <Position>
              <LatitudeDegrees>40.61699059791862964630126953125</LatitudeDegrees>
              <LongitudeDegrees>-4.024663679301738739013671875</LongitudeDegrees>
            </Position>
            <AltitudeMeters>887.4000244140625</AltitudeMeters>
            <DistanceMeters>NAN</DistanceMeters>
          </Trackpoint>
          <Trackpoint>
            <Time>2019-08-01T16:36:22.000Z</Time>
            <Position>
              <LatitudeDegrees>40.61692236922681331634521484375</LatitudeDegrees>
              <LongitudeDegrees>-4.0246479213237762451171875</LongitudeDegrees>
            </Position>
            <AltitudeMeters>887.4000244140625</AltitudeMeters>
            <DistanceMeters>NAN</DistanceMeters>
          </Trackpoint>
          <Trackpoint>
            <Time>2019-08-01T16:36:23.000Z</Time>
            <Position>
              <LatitudeDegrees>40.6168538890779018402099609375</LatitudeDegrees>
              <LongitudeDegrees>-4.02463207952678203582763671875</LongitudeDegrees>
            </Position>
            <AltitudeMeters>887.4000244140625</AltitudeMeters>
            <DistanceMeters>NAN</DistanceMeters>
          </Trackpoint>
          <Trackpoint>
            <Time>2019-08-01T16:36:24.000Z</Time>
            <Position>
              <LatitudeDegrees>40.6167844869196414947509765625</LatitudeDegrees>
              <LongitudeDegrees>-4.02461598627269268035888671875</LongitudeDegrees>
            </Position>
            <AltitudeMeters>887.4000244140625</AltitudeMeters>
            <DistanceMeters>NAN</DistanceMeters>
          </Trackpoint>
          <Trackpoint>
            <Time>2019-08-01T16:36:25.000Z</Time>
            <Position>
              <LatitudeDegrees>40.61671458184719085693359375</LatitudeDegrees>
              <LongitudeDegrees>-4.02459939010441303253173828125</LongitudeDegrees>
            </Position>
            <AltitudeMeters>887.4000244140625</AltitudeMeters>
            <DistanceMeters>NAN</DistanceMeters>
          </Trackpoint>
          <Trackpoint>
            <Time>2019-08-01T16:36:26.000Z</Time>
            <Position>
              <LatitudeDegrees>40.61664392240345478057861328125</LatitudeDegrees>
              <LongitudeDegrees>-4.02458262629806995391845703125</LongitudeDegrees>
            </Position>
            <AltitudeMeters>887.20001220703125</AltitudeMeters>
            <DistanceMeters>NAN</DistanceMeters>
          </Trackpoint>
          <Trackpoint>
            <Time>2019-08-01T16:36:27.000Z</Time>
            <Position>
              <LatitudeDegrees>40.61657301150262355804443359375</LatitudeDegrees>
              <LongitudeDegrees>-4.02456619776785373687744140625</LongitudeDegrees>
            </Position>
            <AltitudeMeters>887.20001220703125</AltitudeMeters>
            <DistanceMeters>NAN</DistanceMeters>
          </Trackpoint>
          <Trackpoint>
            <Time>2019-08-01T16:36:28.000Z</Time>
            <Position>
              <LatitudeDegrees>40.616501681506633758544921875</LatitudeDegrees>
              <LongitudeDegrees>-4.02454993687570095062255859375</LongitudeDegrees>
            </Position>
            <AltitudeMeters>887.20001220703125</AltitudeMeters>
            <DistanceMeters>NAN</DistanceMeters>
          </Trackpoint>
          <Trackpoint>
            <Time>2019-08-01T16:36:29.000Z</Time>
            <Position>
              <LatitudeDegrees>40.6164307706058025360107421875</LatitudeDegrees>
              <LongitudeDegrees>-4.0245330892503261566162109375</LongitudeDegrees>
            </Position>
            <AltitudeMeters>887</AltitudeMeters>
            <DistanceMeters>NAN</DistanceMeters>
          </Trackpoint>
          <Trackpoint>
            <Time>2019-08-01T16:36:30.000Z</Time>
            <Position>
              <LatitudeDegrees>40.61636061407625675201416015625</LatitudeDegrees>
              <LongitudeDegrees>-4.0245166607201099395751953125</LongitudeDegrees>
            </Position>
            <AltitudeMeters>887</AltitudeMeters>
            <DistanceMeters>NAN</DistanceMeters>
          </Trackpoint>
          <Trackpoint>
            <Time>2019-08-01T16:36:31.000Z</Time>
            <Position>
              <LatitudeDegrees>40.61629070900380611419677734375</LatitudeDegrees>
              <LongitudeDegrees>-4.02449972927570343017578125</LongitudeDegrees>
            </Position>
            <AltitudeMeters>887</AltitudeMeters>
            <DistanceMeters>NAN</DistanceMeters>
          </Trackpoint>
          <Trackpoint>
            <Time>2019-08-01T16:36:32.000Z</Time>
            <Position>
              <LatitudeDegrees>40.61622063629329204559326171875</LatitudeDegrees>
              <LongitudeDegrees>-4.0244829654693603515625</LongitudeDegrees>
            </Position>
            <AltitudeMeters>887</AltitudeMeters>
            <DistanceMeters>NAN</DistanceMeters>
          </Trackpoint>
          <Trackpoint>
            <Time>2019-08-01T16:36:33.000Z</Time>
            <Position>
              <LatitudeDegrees>40.616149641573429107666015625</LatitudeDegrees>
              <LongitudeDegrees>-4.02446611784398555755615234375</LongitudeDegrees>
            </Position>
            <AltitudeMeters>887</AltitudeMeters>
            <DistanceMeters>NAN</DistanceMeters>
          </Trackpoint>
          <Trackpoint>
            <Time>2019-08-01T16:36:34.000Z</Time>
            <Position>
              <LatitudeDegrees>40.61607889831066131591796875</LatitudeDegrees>
              <LongitudeDegrees>-4.024449102580547332763671875</LongitudeDegrees>
            </Position>
            <AltitudeMeters>887</AltitudeMeters>
            <DistanceMeters>NAN</DistanceMeters>
          </Trackpoint>
          <Trackpoint>
            <Time>2019-08-01T16:36:35.000Z</Time>
            <Position>
              <LatitudeDegrees>40.61607889831066131591796875</LatitudeDegrees>
              <LongitudeDegrees>-4.024449102580547332763671875</LongitudeDegrees>
            </Position>
            <AltitudeMeters>887</AltitudeMeters>
            <DistanceMeters>NAN</DistanceMeters>
          </Trackpoint>
          <Trackpoint>
            <Time>2019-08-01T16:36:36.000Z</Time>
            <Position>
              <LatitudeDegrees>40.6159355677664279937744140625</LatitudeDegrees>
              <LongitudeDegrees>-4.02441515587270259857177734375</LongitudeDegrees>
            </Position>
            <AltitudeMeters>887</AltitudeMeters>
            <DistanceMeters>NAN</DistanceMeters>
          </Trackpoint>
          <Trackpoint>
            <Time>2019-08-01T16:36:37.000Z</Time>
            <Position>
              <LatitudeDegrees>40.61586222611367702484130859375</LatitudeDegrees>
              <LongitudeDegrees>-4.024398140609264373779296875</LongitudeDegrees>
            </Position>
            <AltitudeMeters>887</AltitudeMeters>
            <DistanceMeters>NAN</DistanceMeters>
          </Trackpoint>
          <Trackpoint>
            <Time>2019-08-01T16:36:38.000Z</Time>
            <Position>
              <LatitudeDegrees>40.61578813008964061737060546875</LatitudeDegrees>
              <LongitudeDegrees>-4.0243802033364772796630859375</LongitudeDegrees>
            </Position>
            <AltitudeMeters>887.20001220703125</AltitudeMeters>
            <DistanceMeters>NAN</DistanceMeters>
          </Trackpoint>
          <Trackpoint>
            <Time>2019-08-01T16:36:39.000Z</Time>
            <Position>
              <LatitudeDegrees>40.615713782608509063720703125</LatitudeDegrees>
              <LongitudeDegrees>-4.0243627689778804779052734375</LongitudeDegrees>
            </Position>
            <AltitudeMeters>887</AltitudeMeters>
            <DistanceMeters>NAN</DistanceMeters>
          </Trackpoint>
          <Trackpoint>
            <Time>2019-08-01T16:36:40.000Z</Time>
            <Position>
              <LatitudeDegrees>40.6156398542225360870361328125</LatitudeDegrees>
              <LongitudeDegrees>-4.02434525080025196075439453125</LongitudeDegrees>
            </Position>
            <AltitudeMeters>887</AltitudeMeters>
            <DistanceMeters>NAN</DistanceMeters>
          </Trackpoint>
          <Trackpoint>
            <Time>2019-08-01T16:36:41.000Z</Time>
            <Position>
              <LatitudeDegrees>40.615566931664943695068359375</LatitudeDegrees>
              <LongitudeDegrees>-4.02432748116552829742431640625</LongitudeDegrees>
            </Position>
            <AltitudeMeters>887</AltitudeMeters>
            <DistanceMeters>NAN</DistanceMeters>
          </Trackpoint>
          <Trackpoint>
            <Time>2019-08-01T16:36:42.000Z</Time>
            <Position>
              <LatitudeDegrees>40.615566931664943695068359375</LatitudeDegrees>
              <LongitudeDegrees>-4.02432748116552829742431640625</LongitudeDegrees>
            </Position>
            <AltitudeMeters>887</AltitudeMeters>
            <DistanceMeters>NAN</DistanceMeters>
          </Trackpoint>
          <Trackpoint>
            <Time>2019-08-01T16:36:43.000Z</Time>
            <Position>
              <LatitudeDegrees>40.61542536132037639617919921875</LatitudeDegrees>
              <LongitudeDegrees>-4.02429378591477870941162109375</LongitudeDegrees>
            </Position>
            <AltitudeMeters>887</AltitudeMeters>
            <DistanceMeters>NAN</DistanceMeters>
          </Trackpoint>
          <Trackpoint>
            <Time>2019-08-01T16:36:44.000Z</Time>
            <Position>
              <LatitudeDegrees>40.61535646207630634307861328125</LatitudeDegrees>
              <LongitudeDegrees>-4.0242766030132770538330078125</LongitudeDegrees>
            </Position>
            <AltitudeMeters>887</AltitudeMeters>
            <DistanceMeters>NAN</DistanceMeters>
          </Trackpoint>
          <Trackpoint>
            <Time>2019-08-01T16:36:45.000Z</Time>
            <Position>
              <LatitudeDegrees>40.615288317203521728515625</LatitudeDegrees>
              <LongitudeDegrees>-4.02425975538790225982666015625</LongitudeDegrees>
            </Position>
            <AltitudeMeters>887</AltitudeMeters>
            <DistanceMeters>NAN</DistanceMeters>
          </Trackpoint>
          <Trackpoint>
            <Time>2019-08-01T16:36:46.000Z</Time>
            <Position>
              <LatitudeDegrees>40.61522134579718112945556640625</LatitudeDegrees>
              <LongitudeDegrees>-4.02424382977187633514404296875</LongitudeDegrees>
            </Position>
            <AltitudeMeters>887</AltitudeMeters>
            <DistanceMeters>NAN</DistanceMeters>
          </Trackpoint>
          <Trackpoint>
            <Time>2019-08-01T16:36:47.000Z</Time>
            <Position>
              <LatitudeDegrees>40.615154542028903961181640625</LatitudeDegrees>
              <LongitudeDegrees>-4.02422907762229442596435546875</LongitudeDegrees>
            </Position>
            <AltitudeMeters>887</AltitudeMeters>
            <DistanceMeters>NAN</DistanceMeters>
          </Trackpoint>
          <Trackpoint>
            <Time>2019-08-01T16:36:48.000Z</Time>
            <Position>
              <LatitudeDegrees>40.61508807353675365447998046875</LatitudeDegrees>
              <LongitudeDegrees>-4.0242139063775539398193359375</LongitudeDegrees>
            </Position>
            <AltitudeMeters>887</AltitudeMeters>
            <DistanceMeters>NAN</DistanceMeters>
          </Trackpoint>
          <Trackpoint>
            <Time>2019-08-01T16:36:49.000Z</Time>
            <Position>
              <LatitudeDegrees>40.61502152122557163238525390625</LatitudeDegrees>
              <LongitudeDegrees>-4.0241981483995914459228515625</LongitudeDegrees>
            </Position>
            <AltitudeMeters>887</AltitudeMeters>
            <DistanceMeters>NAN</DistanceMeters>
          </Trackpoint>
          <Trackpoint>
            <Time>2019-08-01T16:36:50.000Z</Time>
            <Position>
              <LatitudeDegrees>40.6149545498192310333251953125</LatitudeDegrees>
              <LongitudeDegrees>-4.02418096549808979034423828125</LongitudeDegrees>
            </Position>
            <AltitudeMeters>887.20001220703125</AltitudeMeters>
            <DistanceMeters>NAN</DistanceMeters>
          </Trackpoint>
          <Trackpoint>
            <Time>2019-08-01T16:36:51.000Z</Time>
            <Position>
              <LatitudeDegrees>40.6149545498192310333251953125</LatitudeDegrees>
              <LongitudeDegrees>-4.02418096549808979034423828125</LongitudeDegrees>
            </Position>
            <AltitudeMeters>887.20001220703125</AltitudeMeters>
            <DistanceMeters>NAN</DistanceMeters>
          </Trackpoint>
          <Trackpoint>
            <Time>2019-08-01T16:36:52.000Z</Time>
            <Position>
              <LatitudeDegrees>40.6148187629878520965576171875</LatitudeDegrees>
              <LongitudeDegrees>-4.0241481922566890716552734375</LongitudeDegrees>
            </Position>
            <AltitudeMeters>887.20001220703125</AltitudeMeters>
            <DistanceMeters>NAN</DistanceMeters>
          </Trackpoint>
          <Trackpoint>
            <Time>2019-08-01T16:36:53.000Z</Time>
            <Position>
              <LatitudeDegrees>40.614752210676670074462890625</LatitudeDegrees>
              <LongitudeDegrees>-4.0241331048309803009033203125</LongitudeDegrees>
            </Position>
            <AltitudeMeters>887.20001220703125</AltitudeMeters>
            <DistanceMeters>NAN</DistanceMeters>
          </Trackpoint>
          <Trackpoint>
            <Time>2019-08-01T16:36:54.000Z</Time>
            <Position>
              <LatitudeDegrees>40.6146866641938686370849609375</LatitudeDegrees>
              <LongitudeDegrees>-4.02411793358623981475830078125</LongitudeDegrees>
            </Position>
            <AltitudeMeters>887.20001220703125</AltitudeMeters>
            <DistanceMeters>NAN</DistanceMeters>
          </Trackpoint>
          <Trackpoint>
            <Time>2019-08-01T16:36:55.000Z</Time>
            <Position>
              <LatitudeDegrees>40.6146222911775112152099609375</LatitudeDegrees>
              <LongitudeDegrees>-4.0241015888750553131103515625</LongitudeDegrees>
            </Position>
            <AltitudeMeters>887.4000244140625</AltitudeMeters>
            <DistanceMeters>NAN</DistanceMeters>
          </Trackpoint>
          <Trackpoint>
            <Time>2019-08-01T16:36:56.000Z</Time>
            <Position>
              <LatitudeDegrees>40.61455649323761463165283203125</LatitudeDegrees>
              <LongitudeDegrees>-4.0240851603448390960693359375</LongitudeDegrees>
            </Position>
            <AltitudeMeters>887.4000244140625</AltitudeMeters>
            <DistanceMeters>NAN</DistanceMeters>
          </Trackpoint>
          <Trackpoint>
            <Time>2019-08-01T16:36:57.000Z</Time>
            <Position>
              <LatitudeDegrees>40.6144901923835277557373046875</LatitudeDegrees>
              <LongitudeDegrees>-4.024068899452686309814453125</LongitudeDegrees>
            </Position>
            <AltitudeMeters>887.5999755859375</AltitudeMeters>
            <DistanceMeters>NAN</DistanceMeters>
          </Trackpoint>
          <Trackpoint>
            <Time>2019-08-01T16:36:58.000Z</Time>
            <Position>
              <LatitudeDegrees>40.614422969520092010498046875</LatitudeDegrees>
              <LongitudeDegrees>-4.024052806198596954345703125</LongitudeDegrees>
            </Position>
            <AltitudeMeters>887.5999755859375</AltitudeMeters>
            <DistanceMeters>NAN</DistanceMeters>
          </Trackpoint>
          <Trackpoint>
            <Time>2019-08-01T16:36:59.000Z</Time>
            <Position>
              <LatitudeDegrees>40.6143564172089099884033203125</LatitudeDegrees>
              <LongitudeDegrees>-4.024036712944507598876953125</LongitudeDegrees>
            </Position>
            <AltitudeMeters>887.79998779296875</AltitudeMeters>
            <DistanceMeters>NAN</DistanceMeters>
          </Trackpoint>
          <Trackpoint>
            <Time>2019-08-01T16:37:00.000Z</Time>
            <Position>
              <LatitudeDegrees>40.61428944580256938934326171875</LatitudeDegrees>
              <LongitudeDegrees>-4.02402095496654510498046875</LongitudeDegrees>
            </Position>
            <AltitudeMeters>887.79998779296875</AltitudeMeters>
            <DistanceMeters>NAN</DistanceMeters>
          </Trackpoint>
          <Trackpoint>
            <Time>2019-08-01T16:37:01.000Z</Time>
            <Position>
              <LatitudeDegrees>40.61422306112945079803466796875</LatitudeDegrees>
              <LongitudeDegrees>-4.02400595135986804962158203125</LongitudeDegrees>
            </Position>
            <AltitudeMeters>888</AltitudeMeters>
            <DistanceMeters>NAN</DistanceMeters>
          </Trackpoint>
          <Trackpoint>
            <Time>2019-08-01T16:37:02.000Z</Time>
            <Position>
              <LatitudeDegrees>40.6141569279134273529052734375</LatitudeDegrees>
              <LongitudeDegrees>-4.0239902772009372711181640625</LongitudeDegrees>
            </Position>
            <AltitudeMeters>888</AltitudeMeters>
            <DistanceMeters>NAN</DistanceMeters>
          </Trackpoint>
          <Trackpoint>
            <Time>2019-08-01T16:37:03.000Z</Time>
            <Position>
              <LatitudeDegrees>40.61409045942127704620361328125</LatitudeDegrees>
              <LongitudeDegrees>-4.023973681032657623291015625</LongitudeDegrees>
            </Position>
            <AltitudeMeters>888</AltitudeMeters>
            <DistanceMeters>NAN</DistanceMeters>
          </Trackpoint>
          <Trackpoint>
            <Time>2019-08-01T16:37:04.000Z</Time>
            <Position>
              <LatitudeDegrees>40.614023320376873016357421875</LatitudeDegrees>
              <LongitudeDegrees>-4.023957587778568267822265625</LongitudeDegrees>
            </Position>
            <AltitudeMeters>888</AltitudeMeters>
            <DistanceMeters>NAN</DistanceMeters>
          </Trackpoint>
          <Trackpoint>
            <Time>2019-08-01T16:37:05.000Z</Time>
            <Position>
              <LatitudeDegrees>40.61395592987537384033203125</LatitudeDegrees>
              <LongitudeDegrees>-4.02394208125770092010498046875</LongitudeDegrees>
            </Position>
            <AltitudeMeters>888</AltitudeMeters>
            <DistanceMeters>NAN</DistanceMeters>
          </Trackpoint>
          <Trackpoint>
            <Time>2019-08-01T16:37:06.000Z</Time>
            <Position>
              <LatitudeDegrees>40.613888539373874664306640625</LatitudeDegrees>
              <LongitudeDegrees>-4.0239264070987701416015625</LongitudeDegrees>
            </Position>
            <AltitudeMeters>888</AltitudeMeters>
            <DistanceMeters>NAN</DistanceMeters>
          </Trackpoint>
          <Trackpoint>
            <Time>2019-08-01T16:37:07.000Z</Time>
            <Position>
              <LatitudeDegrees>40.61382207088172435760498046875</LatitudeDegrees>
              <LongitudeDegrees>-4.02391006238758563995361328125</LongitudeDegrees>
            </Position>
            <AltitudeMeters>888</AltitudeMeters>
            <DistanceMeters>NAN</DistanceMeters>
          </Trackpoint>
          <Trackpoint>
            <Time>2019-08-01T16:37:08.000Z</Time>
            <Position>
              <LatitudeDegrees>40.6137554347515106201171875</LatitudeDegrees>
              <LongitudeDegrees>-4.02389329858124256134033203125</LongitudeDegrees>
            </Position>
            <AltitudeMeters>888</AltitudeMeters>
            <DistanceMeters>NAN</DistanceMeters>
          </Trackpoint>
          <Trackpoint>
            <Time>2019-08-01T16:37:09.000Z</Time>
            <Position>
              <LatitudeDegrees>40.6136883795261383056640625</LatitudeDegrees>
              <LongitudeDegrees>-4.02387703768908977508544921875</LongitudeDegrees>
            </Position>
            <AltitudeMeters>888</AltitudeMeters>
            <DistanceMeters>NAN</DistanceMeters>
          </Trackpoint>
          <Trackpoint>
            <Time>2019-08-01T16:37:10.000Z</Time>
            <Position>
              <LatitudeDegrees>40.61362140811979770660400390625</LatitudeDegrees>
              <LongitudeDegrees>-4.02386111207306385040283203125</LongitudeDegrees>
            </Position>
            <AltitudeMeters>888</AltitudeMeters>
            <DistanceMeters>NAN</DistanceMeters>
          </Trackpoint>
          <Trackpoint>
            <Time>2019-08-01T16:37:11.000Z</Time>
            <Position>
              <LatitudeDegrees>40.6135542690753936767578125</LatitudeDegrees>
              <LongitudeDegrees>-4.02384527027606964111328125</LongitudeDegrees>
            </Position>
            <AltitudeMeters>888</AltitudeMeters>
            <DistanceMeters>NAN</DistanceMeters>
          </Trackpoint>
          <Trackpoint>
            <Time>2019-08-01T16:37:12.000Z</Time>
            <Position>
              <LatitudeDegrees>40.6134863756597042083740234375</LatitudeDegrees>
              <LongitudeDegrees>-4.0238285064697265625</LongitudeDegrees>
            </Position>
            <AltitudeMeters>888.20001220703125</AltitudeMeters>
            <DistanceMeters>NAN</DistanceMeters>
          </Trackpoint>
          <Trackpoint>
            <Time>2019-08-01T16:37:13.000Z</Time>
            <Position>
              <LatitudeDegrees>40.61341756023466587066650390625</LatitudeDegrees>
              <LongitudeDegrees>-4.02381132356822490692138671875</LongitudeDegrees>
            </Position>
            <AltitudeMeters>888.20001220703125</AltitudeMeters>
            <DistanceMeters>NAN</DistanceMeters>
          </Trackpoint>
          <Trackpoint>
            <Time>2019-08-01T16:37:14.000Z</Time>
            <Position>
              <LatitudeDegrees>40.613348744809627532958984375</LatitudeDegrees>
              <LongitudeDegrees>-4.02379422448575496673583984375</LongitudeDegrees>
            </Position>
            <AltitudeMeters>888.20001220703125</AltitudeMeters>
            <DistanceMeters>NAN</DistanceMeters>
          </Trackpoint>
          <Trackpoint>
            <Time>2019-08-01T16:37:15.000Z</Time>
            <Position>
              <LatitudeDegrees>40.61327925883233547210693359375</LatitudeDegrees>
              <LongitudeDegrees>-4.02377746067941188812255859375</LongitudeDegrees>
            </Position>
            <AltitudeMeters>888.20001220703125</AltitudeMeters>
            <DistanceMeters>NAN</DistanceMeters>
          </Trackpoint>
          <Trackpoint>
            <Time>2019-08-01T16:37:16.000Z</Time>
            <Position>
              <LatitudeDegrees>40.6132091023027896881103515625</LatitudeDegrees>
              <LongitudeDegrees>-4.02376086451113224029541015625</LongitudeDegrees>
            </Position>
            <AltitudeMeters>888</AltitudeMeters>
            <DistanceMeters>NAN</DistanceMeters>
          </Trackpoint>
          <Trackpoint>
            <Time>2019-08-01T16:37:17.000Z</Time>
            <Position>
              <LatitudeDegrees>40.6131380237638950347900390625</LatitudeDegrees>
              <LongitudeDegrees>-4.02374334633350372314453125</LongitudeDegrees>
            </Position>
            <AltitudeMeters>888</AltitudeMeters>
            <DistanceMeters>NAN</DistanceMeters>
          </Trackpoint>
          <Trackpoint>
            <Time>2019-08-01T16:37:18.000Z</Time>
            <Position>
              <LatitudeDegrees>40.613066442310810089111328125</LatitudeDegrees>
              <LongitudeDegrees>-4.0237252414226531982421875</LongitudeDegrees>
            </Position>
            <AltitudeMeters>888</AltitudeMeters>
            <DistanceMeters>NAN</DistanceMeters>
          </Trackpoint>
          <Trackpoint>
            <Time>2019-08-01T16:37:19.000Z</Time>
            <Position>
              <LatitudeDegrees>40.61299427412450313568115234375</LatitudeDegrees>
              <LongitudeDegrees>-4.02370789088308811187744140625</LongitudeDegrees>
            </Position>
            <AltitudeMeters>888.20001220703125</AltitudeMeters>
            <DistanceMeters>NAN</DistanceMeters>
          </Trackpoint>
          <Trackpoint>
            <Time>2019-08-01T16:37:20.000Z</Time>
            <Position>
              <LatitudeDegrees>40.61292218975722789764404296875</LatitudeDegrees>
              <LongitudeDegrees>-4.02369129471480846405029296875</LongitudeDegrees>
            </Position>
            <AltitudeMeters>888</AltitudeMeters>
            <DistanceMeters>NAN</DistanceMeters>
          </Trackpoint>
          <Trackpoint>
            <Time>2019-08-01T16:37:21.000Z</Time>
            <Position>
              <LatitudeDegrees>40.61284943483769893646240234375</LatitudeDegrees>
              <LongitudeDegrees>-4.0236741118133068084716796875</LongitudeDegrees>
            </Position>
            <AltitudeMeters>888</AltitudeMeters>
            <DistanceMeters>NAN</DistanceMeters>
          </Trackpoint>
          <Trackpoint>
            <Time>2019-08-01T16:37:22.000Z</Time>
            <Position>
              <LatitudeDegrees>40.6127764284610748291015625</LatitudeDegrees>
              <LongitudeDegrees>-4.02365659363567829132080078125</LongitudeDegrees>
            </Position>
            <AltitudeMeters>888</AltitudeMeters>
            <DistanceMeters>NAN</DistanceMeters>
          </Trackpoint>
          <Trackpoint>
            <Time>2019-08-01T16:37:23.000Z</Time>
            <Position>
              <LatitudeDegrees>40.6127025000751018524169921875</LatitudeDegrees>
              <LongitudeDegrees>-4.02363899163901805877685546875</LongitudeDegrees>
            </Position>
            <AltitudeMeters>888</AltitudeMeters>
            <DistanceMeters>NAN</DistanceMeters>
          </Trackpoint>
          <Trackpoint>
            <Time>2019-08-01T16:37:24.000Z</Time>
            <Position>
              <LatitudeDegrees>40.612628571689128875732421875</LatitudeDegrees>
              <LongitudeDegrees>-4.0236211381852626800537109375</LongitudeDegrees>
            </Position>
            <AltitudeMeters>888</AltitudeMeters>
            <DistanceMeters>NAN</DistanceMeters>
          </Trackpoint>
          <Trackpoint>
            <Time>2019-08-01T16:37:25.000Z</Time>
            <Position>
              <LatitudeDegrees>40.6125549785792827606201171875</LatitudeDegrees>
              <LongitudeDegrees>-4.02360345236957073211669921875</LongitudeDegrees>
            </Position>
            <AltitudeMeters>887.79998779296875</AltitudeMeters>
            <DistanceMeters>NAN</DistanceMeters>
          </Trackpoint>
          <Trackpoint>
            <Time>2019-08-01T16:37:26.000Z</Time>
            <Position>
              <LatitudeDegrees>40.61248197220265865325927734375</LatitudeDegrees>
              <LongitudeDegrees>-4.02358601801097393035888671875</LongitudeDegrees>
            </Position>
            <AltitudeMeters>887.79998779296875</AltitudeMeters>
            <DistanceMeters>NAN</DistanceMeters>
          </Trackpoint>
          <Trackpoint>
            <Time>2019-08-01T16:37:27.000Z</Time>
            <Position>
              <LatitudeDegrees>40.61248197220265865325927734375</LatitudeDegrees>
              <LongitudeDegrees>-4.02358601801097393035888671875</LongitudeDegrees>
            </Position>
            <AltitudeMeters>887.79998779296875</AltitudeMeters>
            <DistanceMeters>NAN</DistanceMeters>
          </Trackpoint>
          <Trackpoint>
            <Time>2019-08-01T16:37:28.000Z</Time>
            <Position>
              <LatitudeDegrees>40.61233797110617160797119140625</LatitudeDegrees>
              <LongitudeDegrees>-4.0235510654747486114501953125</LongitudeDegrees>
            </Position>
            <AltitudeMeters>887.79998779296875</AltitudeMeters>
            <DistanceMeters>NAN</DistanceMeters>
          </Trackpoint>
          <Trackpoint>
            <Time>2019-08-01T16:37:29.000Z</Time>
            <Position>
              <LatitudeDegrees>40.61226622201502323150634765625</LatitudeDegrees>
              <LongitudeDegrees>-4.02353413403034210205078125</LongitudeDegrees>
            </Position>
            <AltitudeMeters>887.5999755859375</AltitudeMeters>
            <DistanceMeters>NAN</DistanceMeters>
          </Trackpoint>
          <Trackpoint>
            <Time>2019-08-01T16:37:30.000Z</Time>
            <Position>
              <LatitudeDegrees>40.61219430528581142425537109375</LatitudeDegrees>
              <LongitudeDegrees>-4.02351711876690387725830078125</LongitudeDegrees>
            </Position>
            <AltitudeMeters>887.5999755859375</AltitudeMeters>
            <DistanceMeters>NAN</DistanceMeters>
          </Trackpoint>
          <Trackpoint>
            <Time>2019-08-01T16:37:31.000Z</Time>
            <Position>
              <LatitudeDegrees>40.61212255619466304779052734375</LatitudeDegrees>
              <LongitudeDegrees>-4.0235001035034656524658203125</LongitudeDegrees>
            </Position>
            <AltitudeMeters>887.5999755859375</AltitudeMeters>
            <DistanceMeters>NAN</DistanceMeters>
          </Trackpoint>
          <Trackpoint>
            <Time>2019-08-01T16:37:32.000Z</Time>
            <Position>
              <LatitudeDegrees>40.61205265112221240997314453125</LatitudeDegrees>
              <LongitudeDegrees>-4.02348359115421772003173828125</LongitudeDegrees>
            </Position>
            <AltitudeMeters>887.5999755859375</AltitudeMeters>
            <DistanceMeters>NAN</DistanceMeters>
          </Trackpoint>
          <Trackpoint>
            <Time>2019-08-01T16:37:33.000Z</Time>
            <Position>
              <LatitudeDegrees>40.6119840033352375030517578125</LatitudeDegrees>
              <LongitudeDegrees>-4.0234669111669063568115234375</LongitudeDegrees>
            </Position>
            <AltitudeMeters>887.4000244140625</AltitudeMeters>
            <DistanceMeters>NAN</DistanceMeters>
          </Trackpoint>
          <Trackpoint>
            <Time>2019-08-01T16:37:34.000Z</Time>
            <Position>
              <LatitudeDegrees>40.6119156070053577423095703125</LatitudeDegrees>
              <LongitudeDegrees>-4.02345023117959499359130859375</LongitudeDegrees>
            </Position>
            <AltitudeMeters>887.4000244140625</AltitudeMeters>
            <DistanceMeters>NAN</DistanceMeters>
          </Trackpoint>
          <Trackpoint>
            <Time>2019-08-01T16:37:35.000Z</Time>
            <Position>
              <LatitudeDegrees>40.61184645630419254302978515625</LatitudeDegrees>
              <LongitudeDegrees>-4.02343355119228363037109375</LongitudeDegrees>
            </Position>
            <AltitudeMeters>887.4000244140625</AltitudeMeters>
            <DistanceMeters>NAN</DistanceMeters>
          </Trackpoint>
          <Trackpoint>
            <Time>2019-08-01T16:37:36.000Z</Time>
            <Position>
              <LatitudeDegrees>40.61177655123174190521240234375</LatitudeDegrees>
              <LongitudeDegrees>-4.02341653592884540557861328125</LongitudeDegrees>
            </Position>
            <AltitudeMeters>887.4000244140625</AltitudeMeters>
            <DistanceMeters>NAN</DistanceMeters>
          </Trackpoint>
          <Trackpoint>
            <Time>2019-08-01T16:37:37.000Z</Time>
            <Position>
              <LatitudeDegrees>40.6117067299783229827880859375</LatitudeDegrees>
              <LongitudeDegrees>-4.0233991853892803192138671875</LongitudeDegrees>
            </Position>
            <AltitudeMeters>887.5999755859375</AltitudeMeters>
            <DistanceMeters>NAN</DistanceMeters>
          </Trackpoint>
          <Trackpoint>
            <Time>2019-08-01T16:37:38.000Z</Time>
            <Position>
              <LatitudeDegrees>40.61163707636296749114990234375</LatitudeDegrees>
              <LongitudeDegrees>-4.02338334359228610992431640625</LongitudeDegrees>
            </Position>
            <AltitudeMeters>887.5999755859375</AltitudeMeters>
            <DistanceMeters>NAN</DistanceMeters>
          </Trackpoint>
          <Trackpoint>
            <Time>2019-08-01T16:37:39.000Z</Time>
            <Position>
              <LatitudeDegrees>40.6115672551095485687255859375</LatitudeDegrees>
              <LongitudeDegrees>-4.02336725033819675445556640625</LongitudeDegrees>
            </Position>
            <AltitudeMeters>887.5999755859375</AltitudeMeters>
            <DistanceMeters>NAN</DistanceMeters>
          </Trackpoint>
          <Trackpoint>
            <Time>2019-08-01T16:37:40.000Z</Time>
            <Position>
              <LatitudeDegrees>40.611497350037097930908203125</LatitudeDegrees>
              <LongitudeDegrees>-4.0233509056270122528076171875</LongitudeDegrees>
            </Position>
            <AltitudeMeters>887.5999755859375</AltitudeMeters>
            <DistanceMeters>NAN</DistanceMeters>
          </Trackpoint>
          <Trackpoint>
            <Time>2019-08-01T16:37:41.000Z</Time>
            <Position>
              <LatitudeDegrees>40.61142752878367900848388671875</LatitudeDegrees>
              <LongitudeDegrees>-4.02333405800163745880126953125</LongitudeDegrees>
            </Position>
            <AltitudeMeters>887.79998779296875</AltitudeMeters>
            <DistanceMeters>NAN</DistanceMeters>
          </Trackpoint>
          <Trackpoint>
            <Time>2019-08-01T16:37:42.000Z</Time>
            <Position>
              <LatitudeDegrees>40.61135762371122837066650390625</LatitudeDegrees>
              <LongitudeDegrees>-4.0233175456523895263671875</LongitudeDegrees>
            </Position>
            <AltitudeMeters>887.79998779296875</AltitudeMeters>
            <DistanceMeters>NAN</DistanceMeters>
          </Trackpoint>
          <Trackpoint>
            <Time>2019-08-01T16:37:43.000Z</Time>
            <Position>
              <LatitudeDegrees>40.61128704808652400970458984375</LatitudeDegrees>
              <LongitudeDegrees>-4.02330212295055389404296875</LongitudeDegrees>
            </Position>
            <AltitudeMeters>887.79998779296875</AltitudeMeters>
            <DistanceMeters>NAN</DistanceMeters>
          </Trackpoint>
          <Trackpoint>
            <Time>2019-08-01T16:37:44.000Z</Time>
            <Position>
              <LatitudeDegrees>40.6112165562808513641357421875</LatitudeDegrees>
              <LongitudeDegrees>-4.02328561060130596160888671875</LongitudeDegrees>
            </Position>
            <AltitudeMeters>887.79998779296875</AltitudeMeters>
            <DistanceMeters>NAN</DistanceMeters>
          </Trackpoint>
          <Trackpoint>
            <Time>2019-08-01T16:37:45.000Z</Time>
            <Position>
              <LatitudeDegrees>40.6111461482942104339599609375</LatitudeDegrees>
              <LongitudeDegrees>-4.02326834388077259063720703125</LongitudeDegrees>
            </Position>
            <AltitudeMeters>887.79998779296875</AltitudeMeters>
            <DistanceMeters>NAN</DistanceMeters>
          </Trackpoint>
          <Trackpoint>
            <Time>2019-08-01T16:37:46.000Z</Time>
            <Position>
              <LatitudeDegrees>40.6110759079456329345703125</LatitudeDegrees>
              <LongitudeDegrees>-4.023251496255397796630859375</LongitudeDegrees>
            </Position>
            <AltitudeMeters>887.79998779296875</AltitudeMeters>
            <DistanceMeters>NAN</DistanceMeters>
          </Trackpoint>
          <Trackpoint>
            <Time>2019-08-01T16:37:47.000Z</Time>
            <Position>
              <LatitudeDegrees>40.611005835235118865966796875</LatitudeDegrees>
              <LongitudeDegrees>-4.02323506772518157958984375</LongitudeDegrees>
            </Position>
            <AltitudeMeters>887.79998779296875</AltitudeMeters>
            <DistanceMeters>NAN</DistanceMeters>
          </Trackpoint>
          <Trackpoint>
            <Time>2019-08-01T16:37:48.000Z</Time>
            <Position>
              <LatitudeDegrees>40.61093500815331935882568359375</LatitudeDegrees>
              <LongitudeDegrees>-4.0232171304523944854736328125</LongitudeDegrees>
            </Position>
            <AltitudeMeters>888</AltitudeMeters>
            <DistanceMeters>NAN</DistanceMeters>
          </Trackpoint>
          <Trackpoint>
            <Time>2019-08-01T16:37:49.000Z</Time>
            <Position>
              <LatitudeDegrees>40.6108640134334564208984375</LatitudeDegrees>
              <LongitudeDegrees>-4.02319885790348052978515625</LongitudeDegrees>
            </Position>
            <AltitudeMeters>888</AltitudeMeters>
            <DistanceMeters>NAN</DistanceMeters>
          </Trackpoint>
          <Trackpoint>
            <Time>2019-08-01T16:37:50.000Z</Time>
            <Position>
              <LatitudeDegrees>40.6107931025326251983642578125</LatitudeDegrees>
              <LongitudeDegrees>-4.02318268083035945892333984375</LongitudeDegrees>
            </Position>
            <AltitudeMeters>888</AltitudeMeters>
            <DistanceMeters>NAN</DistanceMeters>
          </Trackpoint>
          <Trackpoint>
            <Time>2019-08-01T16:37:51.000Z</Time>
            <Position>
              <LatitudeDegrees>40.610723197460174560546875</LatitudeDegrees>
              <LongitudeDegrees>-4.02316641993820667266845703125</LongitudeDegrees>
            </Position>
            <AltitudeMeters>888</AltitudeMeters>
            <DistanceMeters>NAN</DistanceMeters>
          </Trackpoint>
          <Trackpoint>
            <Time>2019-08-01T16:37:52.000Z</Time>
            <Position>
              <LatitudeDegrees>40.61065337620675563812255859375</LatitudeDegrees>
              <LongitudeDegrees>-4.0231500752270221710205078125</LongitudeDegrees>
            </Position>
            <AltitudeMeters>888</AltitudeMeters>
            <DistanceMeters>NAN</DistanceMeters>
          </Trackpoint>
          <Trackpoint>
            <Time>2019-08-01T16:37:53.000Z</Time>
            <Position>
              <LatitudeDegrees>40.61058548279106616973876953125</LatitudeDegrees>
              <LongitudeDegrees>-4.0231336466968059539794921875</LongitudeDegrees>
            </Position>
            <AltitudeMeters>888</AltitudeMeters>
            <DistanceMeters>NAN</DistanceMeters>
          </Trackpoint>
          <Trackpoint>
            <Time>2019-08-01T16:37:54.000Z</Time>
            <Position>
              <LatitudeDegrees>40.61051960103213787078857421875</LatitudeDegrees>
              <LongitudeDegrees>-4.023118056356906890869140625</LongitudeDegrees>
            </Position>
            <AltitudeMeters>888</AltitudeMeters>
            <DistanceMeters>NAN</DistanceMeters>
          </Trackpoint>
          <Trackpoint>
            <Time>2019-08-01T16:37:55.000Z</Time>
            <Position>
              <LatitudeDegrees>40.6104534678161144256591796875</LatitudeDegrees>
              <LongitudeDegrees>-4.02310254983603954315185546875</LongitudeDegrees>
            </Position>
            <AltitudeMeters>888</AltitudeMeters>
            <DistanceMeters>NAN</DistanceMeters>
          </Trackpoint>
          <Trackpoint>
            <Time>2019-08-01T16:37:56.000Z</Time>
            <Position>
              <LatitudeDegrees>40.6103880889713764190673828125</LatitudeDegrees>
              <LongitudeDegrees>-4.02308712713420391082763671875</LongitudeDegrees>
            </Position>
            <AltitudeMeters>887.79998779296875</AltitudeMeters>
            <DistanceMeters>NAN</DistanceMeters>
          </Trackpoint>
          <Trackpoint>
            <Time>2019-08-01T16:37:57.000Z</Time>
            <Position>
              <LatitudeDegrees>40.6103880889713764190673828125</LatitudeDegrees>
              <LongitudeDegrees>-4.02308712713420391082763671875</LongitudeDegrees>
            </Position>
            <AltitudeMeters>887.79998779296875</AltitudeMeters>
            <DistanceMeters>NAN</DistanceMeters>
          </Trackpoint>
          <Trackpoint>
            <Time>2019-08-01T16:37:58.000Z</Time>
            <Position>
              <LatitudeDegrees>40.610257498919963836669921875</LatitudeDegrees>
              <LongitudeDegrees>-4.02305577881634235382080078125</LongitudeDegrees>
            </Position>
            <AltitudeMeters>887.79998779296875</AltitudeMeters>
            <DistanceMeters>NAN</DistanceMeters>
          </Trackpoint>
          <Trackpoint>
            <Time>2019-08-01T16:37:59.000Z</Time>
            <Position>
              <LatitudeDegrees>40.6101916171610355377197265625</LatitudeDegrees>
              <LongitudeDegrees>-4.02304203249514102935791015625</LongitudeDegrees>
            </Position>
            <AltitudeMeters>887.5999755859375</AltitudeMeters>
            <DistanceMeters>NAN</DistanceMeters>
          </Trackpoint>
          <Trackpoint>
            <Time>2019-08-01T16:38:00.000Z</Time>
            <Position>
              <LatitudeDegrees>40.6101262383162975311279296875</LatitudeDegrees>
              <LongitudeDegrees>-4.02302719652652740478515625</LongitudeDegrees>
            </Position>
            <AltitudeMeters>887.5999755859375</AltitudeMeters>
            <DistanceMeters>NAN</DistanceMeters>
          </Trackpoint>
          <Trackpoint>
            <Time>2019-08-01T16:38:01.000Z</Time>
            <Position>
              <LatitudeDegrees>40.61006144620478153228759765625</LatitudeDegrees>
              <LongitudeDegrees>-4.02301169000566005706787109375</LongitudeDegrees>
            </Position>
            <AltitudeMeters>887.4000244140625</AltitudeMeters>
            <DistanceMeters>NAN</DistanceMeters>
          </Trackpoint>
          <Trackpoint>
            <Time>2019-08-01T16:38:02.000Z</Time>
            <Position>
              <LatitudeDegrees>40.60999757610261440277099609375</LatitudeDegrees>
              <LongitudeDegrees>-4.02299693785607814788818359375</LongitudeDegrees>
            </Position>
            <AltitudeMeters>887.4000244140625</AltitudeMeters>
            <DistanceMeters>NAN</DistanceMeters>
          </Trackpoint>
          <Trackpoint>
            <Time>2019-08-01T16:38:03.000Z</Time>
            <Position>
              <LatitudeDegrees>40.6099331192672252655029296875</LatitudeDegrees>
              <LongitudeDegrees>-4.022981263697147369384765625</LongitudeDegrees>
            </Position>
            <AltitudeMeters>887.20001220703125</AltitudeMeters>
            <DistanceMeters>NAN</DistanceMeters>
          </Trackpoint>
          <Trackpoint>
            <Time>2019-08-01T16:38:04.000Z</Time>
            <Position>
              <LatitudeDegrees>40.60986824333667755126953125</LatitudeDegrees>
              <LongitudeDegrees>-4.0229650028049945831298828125</LongitudeDegrees>
            </Position>
            <AltitudeMeters>887.20001220703125</AltitudeMeters>
            <DistanceMeters>NAN</DistanceMeters>
          </Trackpoint>
          <Trackpoint>
            <Time>2019-08-01T16:38:05.000Z</Time>
            <Position>
              <LatitudeDegrees>40.609802864491939544677734375</LatitudeDegrees>
              <LongitudeDegrees>-4.022949747741222381591796875</LongitudeDegrees>
            </Position>
            <AltitudeMeters>887.20001220703125</AltitudeMeters>
            <DistanceMeters>NAN</DistanceMeters>
          </Trackpoint>
          <Trackpoint>
            <Time>2019-08-01T16:38:06.000Z</Time>
            <Position>
              <LatitudeDegrees>40.60973756946623325347900390625</LatitudeDegrees>
              <LongitudeDegrees>-4.02293440885841846466064453125</LongitudeDegrees>
            </Position>
            <AltitudeMeters>887.20001220703125</AltitudeMeters>
            <DistanceMeters>NAN</DistanceMeters>
          </Trackpoint>
          <Trackpoint>
            <Time>2019-08-01T16:38:07.000Z</Time>
            <Position>
              <LatitudeDegrees>40.6096722744405269622802734375</LatitudeDegrees>
              <LongitudeDegrees>-4.02291865088045597076416015625</LongitudeDegrees>
            </Position>
            <AltitudeMeters>887.20001220703125</AltitudeMeters>
            <DistanceMeters>NAN</DistanceMeters>
          </Trackpoint>
          <Trackpoint>
            <Time>2019-08-01T16:38:08.000Z</Time>
            <Position>
              <LatitudeDegrees>40.60960647650063037872314453125</LatitudeDegrees>
              <LongitudeDegrees>-4.02290272526443004608154296875</LongitudeDegrees>
            </Position>
            <AltitudeMeters>887.20001220703125</AltitudeMeters>
            <DistanceMeters>NAN</DistanceMeters>
          </Trackpoint>
          <Trackpoint>
            <Time>2019-08-01T16:38:09.000Z</Time>
            <Position>
              <LatitudeDegrees>40.60960647650063037872314453125</LatitudeDegrees>
              <LongitudeDegrees>-4.02290272526443004608154296875</LongitudeDegrees>
            </Position>
            <AltitudeMeters>887.20001220703125</AltitudeMeters>
            <DistanceMeters>NAN</DistanceMeters>
          </Trackpoint>
          <Trackpoint>
            <Time>2019-08-01T16:38:10.000Z</Time>
            <Position>
              <LatitudeDegrees>40.60947337187826633453369140625</LatitudeDegrees>
              <LongitudeDegrees>-4.02286970056593418121337890625</LongitudeDegrees>
            </Position>
            <AltitudeMeters>887.20001220703125</AltitudeMeters>
            <DistanceMeters>NAN</DistanceMeters>
          </Trackpoint>
          <Trackpoint>
            <Time>2019-08-01T16:38:11.000Z</Time>
            <Position>
              <LatitudeDegrees>40.6094053946435451507568359375</LatitudeDegrees>
              <LongitudeDegrees>-4.02285411022603511810302734375</LongitudeDegrees>
            </Position>
            <AltitudeMeters>887.20001220703125</AltitudeMeters>
            <DistanceMeters>NAN</DistanceMeters>
          </Trackpoint>
          <Trackpoint>
            <Time>2019-08-01T16:38:12.000Z</Time>
            <Position>
              <LatitudeDegrees>40.6093373335897922515869140625</LatitudeDegrees>
              <LongitudeDegrees>-4.02283902280032634735107421875</LongitudeDegrees>
            </Position>
            <AltitudeMeters>887.20001220703125</AltitudeMeters>
            <DistanceMeters>NAN</DistanceMeters>
          </Trackpoint>
          <Trackpoint>
            <Time>2019-08-01T16:38:13.000Z</Time>
            <Position>
              <LatitudeDegrees>40.60926918871700763702392578125</LatitudeDegrees>
              <LongitudeDegrees>-4.0228235162794589996337890625</LongitudeDegrees>
            </Position>
            <AltitudeMeters>887.4000244140625</AltitudeMeters>
            <DistanceMeters>NAN</DistanceMeters>
          </Trackpoint>
          <Trackpoint>
            <Time>2019-08-01T16:38:14.000Z</Time>
            <Position>
              <LatitudeDegrees>40.60920246876776218414306640625</LatitudeDegrees>
              <LongitudeDegrees>-4.02280784212052822113037109375</LongitudeDegrees>
            </Position>
            <AltitudeMeters>887.4000244140625</AltitudeMeters>
            <DistanceMeters>NAN</DistanceMeters>
          </Trackpoint>
          <Trackpoint>
            <Time>2019-08-01T16:38:15.000Z</Time>
            <Position>
              <LatitudeDegrees>40.60913608409464359283447265625</LatitudeDegrees>
              <LongitudeDegrees>-4.02279241941869258880615234375</LongitudeDegrees>
            </Position>
            <AltitudeMeters>887.5999755859375</AltitudeMeters>
            <DistanceMeters>NAN</DistanceMeters>
          </Trackpoint>
          <Trackpoint>
            <Time>2019-08-01T16:38:16.000Z</Time>
            <Position>
              <LatitudeDegrees>40.6090697832405567169189453125</LatitudeDegrees>
              <LongitudeDegrees>-4.02277716435492038726806640625</LongitudeDegrees>
            </Position>
            <AltitudeMeters>887.5999755859375</AltitudeMeters>
            <DistanceMeters>NAN</DistanceMeters>
          </Trackpoint>
          <Trackpoint>
            <Time>2019-08-01T16:38:17.000Z</Time>
            <Position>
              <LatitudeDegrees>40.609002895653247833251953125</LatitudeDegrees>
              <LongitudeDegrees>-4.02276073582470417022705078125</LongitudeDegrees>
            </Position>
            <AltitudeMeters>888</AltitudeMeters>
            <DistanceMeters>NAN</DistanceMeters>
          </Trackpoint>
          <Trackpoint>
            <Time>2019-08-01T16:38:18.000Z</Time>
            <Position>
              <LatitudeDegrees>40.609002895653247833251953125</LatitudeDegrees>
              <LongitudeDegrees>-4.02276073582470417022705078125</LongitudeDegrees>
            </Position>
            <AltitudeMeters>888.4000244140625</AltitudeMeters>
            <DistanceMeters>NAN</DistanceMeters>
          </Trackpoint>
          <Trackpoint>
            <Time>2019-08-01T16:38:19.000Z</Time>
            <Position>
              <LatitudeDegrees>40.60886870138347148895263671875</LatitudeDegrees>
              <LongitudeDegrees>-4.0227259509265422821044921875</LongitudeDegrees>
            </Position>
            <AltitudeMeters>888.5999755859375</AltitudeMeters>
            <DistanceMeters>NAN</DistanceMeters>
          </Trackpoint>
          <Trackpoint>
            <Time>2019-08-01T16:38:20.000Z</Time>
            <Position>
              <LatitudeDegrees>40.60880131088197231292724609375</LatitudeDegrees>
              <LongitudeDegrees>-4.0227088518440723419189453125</LongitudeDegrees>
            </Position>
            <AltitudeMeters>889</AltitudeMeters>
            <DistanceMeters>NAN</DistanceMeters>
          </Trackpoint>
          <Trackpoint>
            <Time>2019-08-01T16:38:21.000Z</Time>
            <Position>
              <LatitudeDegrees>40.6087345071136951446533203125</LatitudeDegrees>
              <LongitudeDegrees>-4.0226927585899829864501953125</LongitudeDegrees>
            </Position>
            <AltitudeMeters>889</AltitudeMeters>
            <DistanceMeters>NAN</DistanceMeters>
          </Trackpoint>
          <Trackpoint>
            <Time>2019-08-01T16:38:22.000Z</Time>
            <Position>
              <LatitudeDegrees>40.60866787098348140716552734375</LatitudeDegrees>
              <LongitudeDegrees>-4.02267674915492534637451171875</LongitudeDegrees>
            </Position>
            <AltitudeMeters>889.20001220703125</AltitudeMeters>
            <DistanceMeters>NAN</DistanceMeters>
          </Trackpoint>
          <Trackpoint>
            <Time>2019-08-01T16:38:23.000Z</Time>
            <Position>
              <LatitudeDegrees>40.60860081575810909271240234375</LatitudeDegrees>
              <LongitudeDegrees>-4.0226622484624385833740234375</LongitudeDegrees>
            </Position>
            <AltitudeMeters>889.20001220703125</AltitudeMeters>
            <DistanceMeters>NAN</DistanceMeters>
          </Trackpoint>
          <Trackpoint>
            <Time>2019-08-01T16:38:24.000Z</Time>
            <Position>
              <LatitudeDegrees>40.60853426344692707061767578125</LatitudeDegrees>
              <LongitudeDegrees>-4.022648669779300689697265625</LongitudeDegrees>
            </Position>
            <AltitudeMeters>889.20001220703125</AltitudeMeters>
            <DistanceMeters>NAN</DistanceMeters>
          </Trackpoint>
          <Trackpoint>
            <Time>2019-08-01T16:38:25.000Z</Time>
            <Position>
              <LatitudeDegrees>40.6084688007831573486328125</LatitudeDegrees>
              <LongitudeDegrees>-4.02263534255325794219970703125</LongitudeDegrees>
            </Position>
            <AltitudeMeters>889.4000244140625</AltitudeMeters>
            <DistanceMeters>NAN</DistanceMeters>
          </Trackpoint>
          <Trackpoint>
            <Time>2019-08-01T16:38:26.000Z</Time>
            <Position>
              <LatitudeDegrees>40.60840384103357791900634765625</LatitudeDegrees>
              <LongitudeDegrees>-4.02262218296527862548828125</LongitudeDegrees>
            </Position>
            <AltitudeMeters>889.79998779296875</AltitudeMeters>
            <DistanceMeters>NAN</DistanceMeters>
          </Trackpoint>
          <Trackpoint>
            <Time>2019-08-01T16:38:27.000Z</Time>
            <Position>
              <LatitudeDegrees>40.60833938419818878173828125</LatitudeDegrees>
              <LongitudeDegrees>-4.02260734699666500091552734375</LongitudeDegrees>
            </Position>
            <AltitudeMeters>890.20001220703125</AltitudeMeters>
            <DistanceMeters>NAN</DistanceMeters>
          </Trackpoint>
          <Trackpoint>
            <Time>2019-08-01T16:38:28.000Z</Time>
            <Position>
              <LatitudeDegrees>40.60827475972473621368408203125</LatitudeDegrees>
              <LongitudeDegrees>-4.02259209193289279937744140625</LongitudeDegrees>
            </Position>
            <AltitudeMeters>890.5999755859375</AltitudeMeters>
            <DistanceMeters>NAN</DistanceMeters>
          </Trackpoint>
          <Trackpoint>
            <Time>2019-08-01T16:38:29.000Z</Time>
            <Position>
              <LatitudeDegrees>40.60821021907031536102294921875</LatitudeDegrees>
              <LongitudeDegrees>-4.02257666923105716705322265625</LongitudeDegrees>
            </Position>
            <AltitudeMeters>890.79998779296875</AltitudeMeters>
            <DistanceMeters>NAN</DistanceMeters>
          </Trackpoint>
          <Trackpoint>
            <Time>2019-08-01T16:38:30.000Z</Time>
            <Position>
              <LatitudeDegrees>40.60814752243459224700927734375</LatitudeDegrees>
              <LongitudeDegrees>-4.02256141416728496551513671875</LongitudeDegrees>
            </Position>
            <AltitudeMeters>890.79998779296875</AltitudeMeters>
            <DistanceMeters>NAN</DistanceMeters>
          </Trackpoint>
          <Trackpoint>
            <Time>2019-08-01T16:38:31.000Z</Time>
            <Position>
              <LatitudeDegrees>40.608086921274662017822265625</LatitudeDegrees>
              <LongitudeDegrees>-4.02254615910351276397705078125</LongitudeDegrees>
            </Position>
            <AltitudeMeters>890.79998779296875</AltitudeMeters>
            <DistanceMeters>NAN</DistanceMeters>
          </Trackpoint>
          <Trackpoint>
            <Time>2019-08-01T16:38:32.000Z</Time>
            <Position>
              <LatitudeDegrees>40.608027242124080657958984375</LatitudeDegrees>
              <LongitudeDegrees>-4.0225304849445819854736328125</LongitudeDegrees>
            </Position>
            <AltitudeMeters>891</AltitudeMeters>
            <DistanceMeters>NAN</DistanceMeters>
          </Trackpoint>
          <Trackpoint>
            <Time>2019-08-01T16:38:33.000Z</Time>
            <Position>
              <LatitudeDegrees>40.60796747915446758270263671875</LatitudeDegrees>
              <LongitudeDegrees>-4.02251489460468292236328125</LongitudeDegrees>
            </Position>
            <AltitudeMeters>891.20001220703125</AltitudeMeters>
            <DistanceMeters>NAN</DistanceMeters>
          </Trackpoint>
          <Trackpoint>
            <Time>2019-08-01T16:38:34.000Z</Time>
            <Position>
              <LatitudeDegrees>40.60790712945163249969482421875</LatitudeDegrees>
              <LongitudeDegrees>-4.02249838225543498992919921875</LongitudeDegrees>
            </Position>
            <AltitudeMeters>891.20001220703125</AltitudeMeters>
            <DistanceMeters>NAN</DistanceMeters>
          </Trackpoint>
          <Trackpoint>
            <Time>2019-08-01T16:38:35.000Z</Time>
            <Position>
              <LatitudeDegrees>40.60784661211073398590087890625</LatitudeDegrees>
              <LongitudeDegrees>-4.02248245663940906524658203125</LongitudeDegrees>
            </Position>
            <AltitudeMeters>891.20001220703125</AltitudeMeters>
            <DistanceMeters>NAN</DistanceMeters>
          </Trackpoint>
          <Trackpoint>
            <Time>2019-08-01T16:38:36.000Z</Time>
            <Position>
              <LatitudeDegrees>40.607785172760486602783203125</LatitudeDegrees>
              <LongitudeDegrees>-4.0224651060998439788818359375</LongitudeDegrees>
            </Position>
            <AltitudeMeters>891.4000244140625</AltitudeMeters>
            <DistanceMeters>NAN</DistanceMeters>
          </Trackpoint>
          <Trackpoint>
            <Time>2019-08-01T16:38:37.000Z</Time>
            <Position>
              <LatitudeDegrees>40.6077229790389537811279296875</LatitudeDegrees>
              <LongitudeDegrees>-4.0224480070173740386962890625</LongitudeDegrees>
            </Position>
            <AltitudeMeters>891.4000244140625</AltitudeMeters>
            <DistanceMeters>NAN</DistanceMeters>
          </Trackpoint>
          <Trackpoint>
            <Time>2019-08-01T16:38:38.000Z</Time>
            <Position>
              <LatitudeDegrees>40.60766003094613552093505859375</LatitudeDegrees>
              <LongitudeDegrees>-4.02242948301136493682861328125</LongitudeDegrees>
            </Position>
            <AltitudeMeters>891.4000244140625</AltitudeMeters>
            <DistanceMeters>NAN</DistanceMeters>
          </Trackpoint>
          <Trackpoint>
            <Time>2019-08-01T16:38:39.000Z</Time>
            <Position>
              <LatitudeDegrees>40.60759599320590496063232421875</LatitudeDegrees>
              <LongitudeDegrees>-4.0224097855389118194580078125</LongitudeDegrees>
            </Position>
            <AltitudeMeters>891.5999755859375</AltitudeMeters>
            <DistanceMeters>NAN</DistanceMeters>
          </Trackpoint>
          <Trackpoint>
            <Time>2019-08-01T16:38:40.000Z</Time>
            <Position>
              <LatitudeDegrees>40.60753195546567440032958984375</LatitudeDegrees>
              <LongitudeDegrees>-4.0223900042474269866943359375</LongitudeDegrees>
            </Position>
            <AltitudeMeters>891.5999755859375</AltitudeMeters>
            <DistanceMeters>NAN</DistanceMeters>
          </Trackpoint>
          <Trackpoint>
            <Time>2019-08-01T16:38:41.000Z</Time>
            <Position>
              <LatitudeDegrees>40.6074678339064121246337890625</LatitudeDegrees>
              <LongitudeDegrees>-4.0223695524036884307861328125</LongitudeDegrees>
            </Position>
            <AltitudeMeters>891.5999755859375</AltitudeMeters>
            <DistanceMeters>NAN</DistanceMeters>
          </Trackpoint>
          <Trackpoint>
            <Time>2019-08-01T16:38:42.000Z</Time>
            <Position>
              <LatitudeDegrees>40.60740287415683269500732421875</LatitudeDegrees>
              <LongitudeDegrees>-4.02234935201704502105712890625</LongitudeDegrees>
            </Position>
            <AltitudeMeters>892</AltitudeMeters>
            <DistanceMeters>NAN</DistanceMeters>
          </Trackpoint>
          <Trackpoint>
            <Time>2019-08-01T16:38:43.000Z</Time>
            <Position>
              <LatitudeDegrees>40.60733816586434841156005859375</LatitudeDegrees>
              <LongitudeDegrees>-4.02232982218265533447265625</LongitudeDegrees>
            </Position>
            <AltitudeMeters>892</AltitudeMeters>
            <DistanceMeters>NAN</DistanceMeters>
          </Trackpoint>
          <Trackpoint>
            <Time>2019-08-01T16:38:44.000Z</Time>
            <Position>
              <LatitudeDegrees>40.60727479867637157440185546875</LatitudeDegrees>
              <LongitudeDegrees>-4.02231037616729736328125</LongitudeDegrees>
            </Position>
            <AltitudeMeters>892</AltitudeMeters>
            <DistanceMeters>NAN</DistanceMeters>
          </Trackpoint>
          <Trackpoint>
            <Time>2019-08-01T16:38:45.000Z</Time>
            <Position>
              <LatitudeDegrees>40.60721218585968017578125</LatitudeDegrees>
              <LongitudeDegrees>-4.0222907625138759613037109375</LongitudeDegrees>
            </Position>
            <AltitudeMeters>892</AltitudeMeters>
            <DistanceMeters>NAN</DistanceMeters>
          </Trackpoint>
          <Trackpoint>
            <Time>2019-08-01T16:38:46.000Z</Time>
            <Position>
              <LatitudeDegrees>40.6071503274142742156982421875</LatitudeDegrees>
              <LongitudeDegrees>-4.0222703106701374053955078125</LongitudeDegrees>
            </Position>
            <AltitudeMeters>892</AltitudeMeters>
            <DistanceMeters>NAN</DistanceMeters>
          </Trackpoint>
          <Trackpoint>
            <Time>2019-08-01T16:38:47.000Z</Time>
            <Position>
              <LatitudeDegrees>40.60708838514983654022216796875</LatitudeDegrees>
              <LongitudeDegrees>-4.022249020636081695556640625</LongitudeDegrees>
            </Position>
            <AltitudeMeters>892</AltitudeMeters>
            <DistanceMeters>NAN</DistanceMeters>
          </Trackpoint>
          <Trackpoint>
            <Time>2019-08-01T16:38:48.000Z</Time>
            <Position>
              <LatitudeDegrees>40.60702568851411342620849609375</LatitudeDegrees>
              <LongitudeDegrees>-4.02222680859267711639404296875</LongitudeDegrees>
            </Position>
            <AltitudeMeters>892</AltitudeMeters>
            <DistanceMeters>NAN</DistanceMeters>
          </Trackpoint>
          <Trackpoint>
            <Time>2019-08-01T16:38:49.000Z</Time>
            <Position>
              <LatitudeDegrees>40.606962405145168304443359375</LatitudeDegrees>
              <LongitudeDegrees>-4.0222044289112091064453125</LongitudeDegrees>
            </Position>
            <AltitudeMeters>892</AltitudeMeters>
            <DistanceMeters>NAN</DistanceMeters>
          </Trackpoint>
          <Trackpoint>
            <Time>2019-08-01T16:38:50.000Z</Time>
            <Position>
              <LatitudeDegrees>40.60689878650009632110595703125</LatitudeDegrees>
              <LongitudeDegrees>-4.02218163013458251953125</LongitudeDegrees>
            </Position>
            <AltitudeMeters>892.20001220703125</AltitudeMeters>
            <DistanceMeters>NAN</DistanceMeters>
          </Trackpoint>
          <Trackpoint>
            <Time>2019-08-01T16:38:51.000Z</Time>
            <Position>
              <LatitudeDegrees>40.606833659112453460693359375</LatitudeDegrees>
              <LongitudeDegrees>-4.02215841226279735565185546875</LongitudeDegrees>
            </Position>
            <AltitudeMeters>892.20001220703125</AltitudeMeters>
            <DistanceMeters>NAN</DistanceMeters>
          </Trackpoint>
          <Trackpoint>
            <Time>2019-08-01T16:38:52.000Z</Time>
            <Position>
              <LatitudeDegrees>40.60676769353449344635009765625</LatitudeDegrees>
              <LongitudeDegrees>-4.022135026752948760986328125</LongitudeDegrees>
            </Position>
            <AltitudeMeters>892.20001220703125</AltitudeMeters>
            <DistanceMeters>NAN</DistanceMeters>
          </Trackpoint>
          <Trackpoint>
            <Time>2019-08-01T16:38:53.000Z</Time>
            <Position>
              <LatitudeDegrees>40.606700889766216278076171875</LatitudeDegrees>
              <LongitudeDegrees>-4.02211097069084644317626953125</LongitudeDegrees>
            </Position>
            <AltitudeMeters>892</AltitudeMeters>
            <DistanceMeters>NAN</DistanceMeters>
          </Trackpoint>
          <Trackpoint>
            <Time>2019-08-01T16:38:54.000Z</Time>
            <Position>
              <LatitudeDegrees>40.60663391835987567901611328125</LatitudeDegrees>
              <LongitudeDegrees>-4.0220855735242366790771484375</LongitudeDegrees>
            </Position>
            <AltitudeMeters>892</AltitudeMeters>
            <DistanceMeters>NAN</DistanceMeters>
          </Trackpoint>
          <Trackpoint>
            <Time>2019-08-01T16:38:55.000Z</Time>
            <Position>
              <LatitudeDegrees>40.60663391835987567901611328125</LatitudeDegrees>
              <LongitudeDegrees>-4.0220855735242366790771484375</LongitudeDegrees>
            </Position>
            <AltitudeMeters>892</AltitudeMeters>
            <DistanceMeters>NAN</DistanceMeters>
          </Trackpoint>
          <Trackpoint>
            <Time>2019-08-01T16:38:56.000Z</Time>
            <Position>
              <LatitudeDegrees>40.60649846680462360382080078125</LatitudeDegrees>
              <LongitudeDegrees>-4.02203653939068317413330078125</LongitudeDegrees>
            </Position>
            <AltitudeMeters>892</AltitudeMeters>
            <DistanceMeters>NAN</DistanceMeters>
          </Trackpoint>
          <Trackpoint>
            <Time>2019-08-01T16:38:57.000Z</Time>
            <Position>
              <LatitudeDegrees>40.6064288131892681121826171875</LatitudeDegrees>
              <LongitudeDegrees>-4.02201273478567600250244140625</LongitudeDegrees>
            </Position>
            <AltitudeMeters>891.79998779296875</AltitudeMeters>
            <DistanceMeters>NAN</DistanceMeters>
          </Trackpoint>
          <Trackpoint>
            <Time>2019-08-01T16:38:58.000Z</Time>
            <Position>
              <LatitudeDegrees>40.606358237564563751220703125</LatitudeDegrees>
              <LongitudeDegrees>-4.021987505257129669189453125</LongitudeDegrees>
            </Position>
            <AltitudeMeters>891.79998779296875</AltitudeMeters>
            <DistanceMeters>NAN</DistanceMeters>
          </Trackpoint>
          <Trackpoint>
            <Time>2019-08-01T16:38:59.000Z</Time>
            <Position>
              <LatitudeDegrees>40.60628690756857395172119140625</LatitudeDegrees>
              <LongitudeDegrees>-4.021961688995361328125</LongitudeDegrees>
            </Position>
            <AltitudeMeters>891.5999755859375</AltitudeMeters>
            <DistanceMeters>NAN</DistanceMeters>
          </Trackpoint>
          <Trackpoint>
            <Time>2019-08-01T16:39:00.000Z</Time>
            <Position>
              <LatitudeDegrees>40.6062149070203304290771484375</LatitudeDegrees>
              <LongitudeDegrees>-4.0219357050955295562744140625</LongitudeDegrees>
            </Position>
            <AltitudeMeters>891.5999755859375</AltitudeMeters>
            <DistanceMeters>NAN</DistanceMeters>
          </Trackpoint>
          <Trackpoint>
            <Time>2019-08-01T16:39:01.000Z</Time>
            <Position>
              <LatitudeDegrees>40.6061418168246746063232421875</LatitudeDegrees>
              <LongitudeDegrees>-4.0219095535576343536376953125</LongitudeDegrees>
            </Position>
            <AltitudeMeters>891.5999755859375</AltitudeMeters>
            <DistanceMeters>NAN</DistanceMeters>
          </Trackpoint>
          <Trackpoint>
            <Time>2019-08-01T16:39:02.000Z</Time>
            <Position>
              <LatitudeDegrees>40.6060680560767650604248046875</LatitudeDegrees>
              <LongitudeDegrees>-4.02188281528651714324951171875</LongitudeDegrees>
            </Position>
            <AltitudeMeters>891.4000244140625</AltitudeMeters>
            <DistanceMeters>NAN</DistanceMeters>
          </Trackpoint>
          <Trackpoint>
            <Time>2019-08-01T16:39:03.000Z</Time>
            <Position>
              <LatitudeDegrees>40.60599379241466522216796875</LatitudeDegrees>
              <LongitudeDegrees>-4.02185641229152679443359375</LongitudeDegrees>
            </Position>
            <AltitudeMeters>891.4000244140625</AltitudeMeters>
            <DistanceMeters>NAN</DistanceMeters>
          </Trackpoint>
          <Trackpoint>
            <Time>2019-08-01T16:39:04.000Z</Time>
            <Position>
              <LatitudeDegrees>40.60591894201934337615966796875</LatitudeDegrees>
              <LongitudeDegrees>-4.021830260753631591796875</LongitudeDegrees>
            </Position>
            <AltitudeMeters>891.20001220703125</AltitudeMeters>
            <DistanceMeters>NAN</DistanceMeters>
          </Trackpoint>
          <Trackpoint>
            <Time>2019-08-01T16:39:05.000Z</Time>
            <Position>
              <LatitudeDegrees>40.60584333725273609161376953125</LatitudeDegrees>
              <LongitudeDegrees>-4.02180352248251438140869140625</LongitudeDegrees>
            </Position>
            <AltitudeMeters>891.20001220703125</AltitudeMeters>
            <DistanceMeters>NAN</DistanceMeters>
          </Trackpoint>
          <Trackpoint>
            <Time>2019-08-01T16:39:06.000Z</Time>
            <Position>
              <LatitudeDegrees>40.60576739721000194549560546875</LatitudeDegrees>
              <LongitudeDegrees>-4.02177787385880947113037109375</LongitudeDegrees>
            </Position>
            <AltitudeMeters>891</AltitudeMeters>
            <DistanceMeters>NAN</DistanceMeters>
          </Trackpoint>
          <Trackpoint>
            <Time>2019-08-01T16:39:07.000Z</Time>
            <Position>
              <LatitudeDegrees>40.6056895293295383453369140625</LatitudeDegrees>
              <LongitudeDegrees>-4.02175323106348514556884765625</LongitudeDegrees>
            </Position>
            <AltitudeMeters>890.79998779296875</AltitudeMeters>
            <DistanceMeters>NAN</DistanceMeters>
          </Trackpoint>
          <Trackpoint>
            <Time>2019-08-01T16:39:08.000Z</Time>
            <Position>
              <LatitudeDegrees>40.605611242353916168212890625</LatitudeDegrees>
              <LongitudeDegrees>-4.0217295102775096893310546875</LongitudeDegrees>
            </Position>
            <AltitudeMeters>890.5999755859375</AltitudeMeters>
            <DistanceMeters>NAN</DistanceMeters>
          </Trackpoint>
          <Trackpoint>
            <Time>2019-08-01T16:39:09.000Z</Time>
            <Position>
              <LatitudeDegrees>40.605532117187976837158203125</LatitudeDegrees>
              <LongitudeDegrees>-4.0217063762247562408447265625</LongitudeDegrees>
            </Position>
            <AltitudeMeters>890.4000244140625</AltitudeMeters>
            <DistanceMeters>NAN</DistanceMeters>
          </Trackpoint>
          <Trackpoint>
            <Time>2019-08-01T16:39:10.000Z</Time>
            <Position>
              <LatitudeDegrees>40.60545139946043491363525390625</LatitudeDegrees>
              <LongitudeDegrees>-4.0216839127242565155029296875</LongitudeDegrees>
            </Position>
            <AltitudeMeters>890.4000244140625</AltitudeMeters>
            <DistanceMeters>NAN</DistanceMeters>
          </Trackpoint>
          <Trackpoint>
            <Time>2019-08-01T16:39:11.000Z</Time>
            <Position>
              <LatitudeDegrees>40.60537017881870269775390625</LatitudeDegrees>
              <LongitudeDegrees>-4.0216624550521373748779296875</LongitudeDegrees>
            </Position>
            <AltitudeMeters>890.4000244140625</AltitudeMeters>
            <DistanceMeters>NAN</DistanceMeters>
          </Trackpoint>
          <Trackpoint>
            <Time>2019-08-01T16:39:12.000Z</Time>
            <Position>
              <LatitudeDegrees>40.605289377272129058837890625</LatitudeDegrees>
              <LongitudeDegrees>-4.02163940481841564178466796875</LongitudeDegrees>
            </Position>
            <AltitudeMeters>890.20001220703125</AltitudeMeters>
            <DistanceMeters>NAN</DistanceMeters>
          </Trackpoint>
          <Trackpoint>
            <Time>2019-08-01T16:39:13.000Z</Time>
            <Position>
              <LatitudeDegrees>40.60520916245877742767333984375</LatitudeDegrees>
              <LongitudeDegrees>-4.021615684032440185546875</LongitudeDegrees>
            </Position>
            <AltitudeMeters>890.20001220703125</AltitudeMeters>
            <DistanceMeters>NAN</DistanceMeters>
          </Trackpoint>
          <Trackpoint>
            <Time>2019-08-01T16:39:14.000Z</Time>
            <Position>
              <LatitudeDegrees>40.60512970201671123504638671875</LatitudeDegrees>
              <LongitudeDegrees>-4.0215928852558135986328125</LongitudeDegrees>
            </Position>
            <AltitudeMeters>890</AltitudeMeters>
            <DistanceMeters>NAN</DistanceMeters>
          </Trackpoint>
          <Trackpoint>
            <Time>2019-08-01T16:39:15.000Z</Time>
            <Position>
              <LatitudeDegrees>40.6050511635839939117431640625</LatitudeDegrees>
              <LongitudeDegrees>-4.02156941592693328857421875</LongitudeDegrees>
            </Position>
            <AltitudeMeters>890</AltitudeMeters>
            <DistanceMeters>NAN</DistanceMeters>
          </Trackpoint>
          <Trackpoint>
            <Time>2019-08-01T16:39:16.000Z</Time>
            <Position>
              <LatitudeDegrees>40.604972876608371734619140625</LatitudeDegrees>
              <LongitudeDegrees>-4.02154351584613323211669921875</LongitudeDegrees>
            </Position>
            <AltitudeMeters>889.79998779296875</AltitudeMeters>
            <DistanceMeters>NAN</DistanceMeters>
          </Trackpoint>
          <Trackpoint>
            <Time>2019-08-01T16:39:17.000Z</Time>
            <Position>
              <LatitudeDegrees>40.6048962660133838653564453125</LatitudeDegrees>
              <LongitudeDegrees>-4.02151686139404773712158203125</LongitudeDegrees>
            </Position>
            <AltitudeMeters>889.79998779296875</AltitudeMeters>
            <DistanceMeters>NAN</DistanceMeters>
          </Trackpoint>
          <Trackpoint>
            <Time>2019-08-01T16:39:18.000Z</Time>
            <Position>
              <LatitudeDegrees>40.60482074506580829620361328125</LatitudeDegrees>
              <LongitudeDegrees>-4.0214884467422962188720703125</LongitudeDegrees>
            </Position>
            <AltitudeMeters>889.5999755859375</AltitudeMeters>
            <DistanceMeters>NAN</DistanceMeters>
          </Trackpoint>
          <Trackpoint>
            <Time>2019-08-01T16:39:19.000Z</Time>
            <Position>
              <LatitudeDegrees>40.6047450564801692962646484375</LatitudeDegrees>
              <LongitudeDegrees>-4.02146070264279842376708984375</LongitudeDegrees>
            </Position>
            <AltitudeMeters>889.4000244140625</AltitudeMeters>
            <DistanceMeters>NAN</DistanceMeters>
          </Trackpoint>
          <Trackpoint>
            <Time>2019-08-01T16:39:20.000Z</Time>
            <Position>
              <LatitudeDegrees>40.6046679429709911346435546875</LatitudeDegrees>
              <LongitudeDegrees>-4.02143438346683979034423828125</LongitudeDegrees>
            </Position>
            <AltitudeMeters>889.4000244140625</AltitudeMeters>
            <DistanceMeters>NAN</DistanceMeters>
          </Trackpoint>
          <Trackpoint>
            <Time>2019-08-01T16:39:21.000Z</Time>
            <Position>
              <LatitudeDegrees>40.604591667652130126953125</LatitudeDegrees>
              <LongitudeDegrees>-4.0214113332331180572509765625</LongitudeDegrees>
            </Position>
            <AltitudeMeters>889.4000244140625</AltitudeMeters>
            <DistanceMeters>NAN</DistanceMeters>
          </Trackpoint>
          <Trackpoint>
            <Time>2019-08-01T16:39:22.000Z</Time>
            <Position>
              <LatitudeDegrees>40.6045160628855228424072265625</LatitudeDegrees>
              <LongitudeDegrees>-4.021388702094554901123046875</LongitudeDegrees>
            </Position>
            <AltitudeMeters>889.20001220703125</AltitudeMeters>
            <DistanceMeters>NAN</DistanceMeters>
          </Trackpoint>
          <Trackpoint>
            <Time>2019-08-01T16:39:23.000Z</Time>
            <Position>
              <LatitudeDegrees>40.6044419668614864349365234375</LatitudeDegrees>
              <LongitudeDegrees>-4.0213660709559917449951171875</LongitudeDegrees>
            </Position>
            <AltitudeMeters>888.79998779296875</AltitudeMeters>
            <DistanceMeters>NAN</DistanceMeters>
          </Trackpoint>
          <Trackpoint>
            <Time>2019-08-01T16:39:24.000Z</Time>
            <Position>
              <LatitudeDegrees>40.60436837375164031982421875</LatitudeDegrees>
              <LongitudeDegrees>-4.02134302072227001190185546875</LongitudeDegrees>
            </Position>
            <AltitudeMeters>888.4000244140625</AltitudeMeters>
            <DistanceMeters>NAN</DistanceMeters>
          </Trackpoint>
          <Trackpoint>
            <Time>2019-08-01T16:39:25.000Z</Time>
            <Position>
              <LatitudeDegrees>40.60436837375164031982421875</LatitudeDegrees>
              <LongitudeDegrees>-4.02134302072227001190185546875</LongitudeDegrees>
            </Position>
            <AltitudeMeters>888.20001220703125</AltitudeMeters>
            <DistanceMeters>NAN</DistanceMeters>
          </Trackpoint>
          <Trackpoint>
            <Time>2019-08-01T16:39:26.000Z</Time>
            <Position>
              <LatitudeDegrees>40.60422630049288272857666015625</LatitudeDegrees>
              <LongitudeDegrees>-4.021290130913257598876953125</LongitudeDegrees>
            </Position>
            <AltitudeMeters>888</AltitudeMeters>
            <DistanceMeters>NAN</DistanceMeters>
          </Trackpoint>
          <Trackpoint>
            <Time>2019-08-01T16:39:27.000Z</Time>
            <Position>
              <LatitudeDegrees>40.60415488667786121368408203125</LatitudeDegrees>
              <LongitudeDegrees>-4.0212611295282840728759765625</LongitudeDegrees>
            </Position>
            <AltitudeMeters>888</AltitudeMeters>
            <DistanceMeters>NAN</DistanceMeters>
          </Trackpoint>
          <Trackpoint>
            <Time>2019-08-01T16:39:28.000Z</Time>
            <Position>
              <LatitudeDegrees>40.6040838919579982757568359375</LatitudeDegrees>
              <LongitudeDegrees>-4.021229445934295654296875</LongitudeDegrees>
            </Position>
            <AltitudeMeters>887.79998779296875</AltitudeMeters>
            <DistanceMeters>NAN</DistanceMeters>
          </Trackpoint>
          <Trackpoint>
            <Time>2019-08-01T16:39:29.000Z</Time>
            <Position>
              <LatitudeDegrees>40.60401340015232563018798828125</LatitudeDegrees>
              <LongitudeDegrees>-4.02119784615933895111083984375</LongitudeDegrees>
            </Position>
            <AltitudeMeters>887.79998779296875</AltitudeMeters>
            <DistanceMeters>NAN</DistanceMeters>
          </Trackpoint>
          <Trackpoint>
            <Time>2019-08-01T16:39:30.000Z</Time>
            <Position>
              <LatitudeDegrees>40.60401340015232563018798828125</LatitudeDegrees>
              <LongitudeDegrees>-4.02119784615933895111083984375</LongitudeDegrees>
            </Position>
            <AltitudeMeters>887.5999755859375</AltitudeMeters>
            <DistanceMeters>NAN</DistanceMeters>
          </Trackpoint>
          <Trackpoint>
            <Time>2019-08-01T16:39:31.000Z</Time>
            <Position>
              <LatitudeDegrees>40.60387023724615573883056640625</LatitudeDegrees>
              <LongitudeDegrees>-4.02113330550491809844970703125</LongitudeDegrees>
            </Position>
            <AltitudeMeters>887.5999755859375</AltitudeMeters>
            <DistanceMeters>NAN</DistanceMeters>
          </Trackpoint>
          <Trackpoint>
            <Time>2019-08-01T16:39:32.000Z</Time>
            <Position>
              <LatitudeDegrees>40.603798739612102508544921875</LatitudeDegrees>
              <LongitudeDegrees>-4.02110246010124683380126953125</LongitudeDegrees>
            </Position>
            <AltitudeMeters>887.5999755859375</AltitudeMeters>
            <DistanceMeters>NAN</DistanceMeters>
          </Trackpoint>
          <Trackpoint>
            <Time>2019-08-01T16:39:33.000Z</Time>
            <Position>
              <LatitudeDegrees>40.603798739612102508544921875</LatitudeDegrees>
              <LongitudeDegrees>-4.02110246010124683380126953125</LongitudeDegrees>
            </Position>
            <AltitudeMeters>887.5999755859375</AltitudeMeters>
            <DistanceMeters>NAN</DistanceMeters>
          </Trackpoint>
          <Trackpoint>
            <Time>2019-08-01T16:39:34.000Z</Time>
            <Position>
              <LatitudeDegrees>40.6036557443439960479736328125</LatitudeDegrees>
              <LongitudeDegrees>-4.021041691303253173828125</LongitudeDegrees>
            </Position>
            <AltitudeMeters>887.5999755859375</AltitudeMeters>
            <DistanceMeters>NAN</DistanceMeters>
          </Trackpoint>
          <Trackpoint>
            <Time>2019-08-01T16:39:35.000Z</Time>
            <Position>
              <LatitudeDegrees>40.60358290560543537139892578125</LatitudeDegrees>
              <LongitudeDegrees>-4.02101344428956508636474609375</LongitudeDegrees>
            </Position>
            <AltitudeMeters>887.5999755859375</AltitudeMeters>
            <DistanceMeters>NAN</DistanceMeters>
          </Trackpoint>
          <Trackpoint>
            <Time>2019-08-01T16:39:36.000Z</Time>
            <Position>
              <LatitudeDegrees>40.60350948013365268707275390625</LatitudeDegrees>
              <LongitudeDegrees>-4.0209868736565113067626953125</LongitudeDegrees>
            </Position>
            <AltitudeMeters>887.4000244140625</AltitudeMeters>
            <DistanceMeters>NAN</DistanceMeters>
          </Trackpoint>
          <Trackpoint>
            <Time>2019-08-01T16:39:37.000Z</Time>
            <Position>
              <LatitudeDegrees>40.60343504883348941802978515625</LatitudeDegrees>
              <LongitudeDegrees>-4.02096013538539409637451171875</LongitudeDegrees>
            </Position>
            <AltitudeMeters>887.4000244140625</AltitudeMeters>
            <DistanceMeters>NAN</DistanceMeters>
          </Trackpoint>
          <Trackpoint>
            <Time>2019-08-01T16:39:38.000Z</Time>
            <Position>
              <LatitudeDegrees>40.6033603660762310028076171875</LatitudeDegrees>
              <LongitudeDegrees>-4.02093398384749889373779296875</LongitudeDegrees>
            </Position>
            <AltitudeMeters>887.4000244140625</AltitudeMeters>
            <DistanceMeters>NAN</DistanceMeters>
          </Trackpoint>
          <Trackpoint>
            <Time>2019-08-01T16:39:39.000Z</Time>
            <Position>
              <LatitudeDegrees>40.603285767138004302978515625</LatitudeDegrees>
              <LongitudeDegrees>-4.02090816758573055267333984375</LongitudeDegrees>
            </Position>
            <AltitudeMeters>887.4000244140625</AltitudeMeters>
            <DistanceMeters>NAN</DistanceMeters>
          </Trackpoint>
          <Trackpoint>
            <Time>2019-08-01T16:39:41.000Z</Time>
            <Position>
              <LatitudeDegrees>40.60313497669994831085205078125</LatitudeDegrees>
              <LongitudeDegrees>-4.0208567865192890167236328125</LongitudeDegrees>
            </Position>
            <AltitudeMeters>887.20001220703125</AltitudeMeters>
            <DistanceMeters>NAN</DistanceMeters>
          </Trackpoint>
          <Trackpoint>
            <Time>2019-08-01T16:39:42.000Z</Time>
            <Position>
              <LatitudeDegrees>40.60305987484753131866455078125</LatitudeDegrees>
              <LongitudeDegrees>-4.02083038352429866790771484375</LongitudeDegrees>
            </Position>
            <AltitudeMeters>887.20001220703125</AltitudeMeters>
            <DistanceMeters>NAN</DistanceMeters>
          </Trackpoint>
          <Trackpoint>
            <Time>2019-08-01T16:39:44.000Z</Time>
            <Position>
              <LatitudeDegrees>40.60290950350463390350341796875</LatitudeDegrees>
              <LongitudeDegrees>-4.0207769908010959625244140625</LongitudeDegrees>
            </Position>
            <AltitudeMeters>887</AltitudeMeters>
            <DistanceMeters>NAN</DistanceMeters>
          </Trackpoint>
          <Trackpoint>
            <Time>2019-08-01T16:39:45.000Z</Time>
            <Position>
              <LatitudeDegrees>40.6028346531093120574951171875</LatitudeDegrees>
              <LongitudeDegrees>-4.0207494981586933135986328125</LongitudeDegrees>
            </Position>
            <AltitudeMeters>886.5999755859375</AltitudeMeters>
            <DistanceMeters>NAN</DistanceMeters>
          </Trackpoint>
          <Trackpoint>
            <Time>2019-08-01T16:39:46.000Z</Time>
            <Position>
              <LatitudeDegrees>40.60275879688560962677001953125</LatitudeDegrees>
              <LongitudeDegrees>-4.0207236818969249725341796875</LongitudeDegrees>
            </Position>
            <AltitudeMeters>886.4000244140625</AltitudeMeters>
            <DistanceMeters>NAN</DistanceMeters>
          </Trackpoint>
          <Trackpoint>
            <Time>2019-08-01T16:39:47.000Z</Time>
            <Position>
              <LatitudeDegrees>40.602681599557399749755859375</LatitudeDegrees>
              <LongitudeDegrees>-4.02069627307355403900146484375</LongitudeDegrees>
            </Position>
            <AltitudeMeters>886.20001220703125</AltitudeMeters>
            <DistanceMeters>NAN</DistanceMeters>
          </Trackpoint>
          <Trackpoint>
            <Time>2019-08-01T16:39:48.000Z</Time>
            <Position>
              <LatitudeDegrees>40.60260456986725330352783203125</LatitudeDegrees>
              <LongitudeDegrees>-4.0206690318882465362548828125</LongitudeDegrees>
            </Position>
            <AltitudeMeters>886.20001220703125</AltitudeMeters>
            <DistanceMeters>NAN</DistanceMeters>
          </Trackpoint>
          <Trackpoint>
            <Time>2019-08-01T16:39:49.000Z</Time>
            <Position>
              <LatitudeDegrees>40.60252661816775798797607421875</LatitudeDegrees>
              <LongitudeDegrees>-4.02064229361712932586669921875</LongitudeDegrees>
            </Position>
            <AltitudeMeters>886</AltitudeMeters>
            <DistanceMeters>NAN</DistanceMeters>
          </Trackpoint>
          <Trackpoint>
            <Time>2019-08-01T16:39:50.000Z</Time>
            <Position>
              <LatitudeDegrees>40.602449588477611541748046875</LatitudeDegrees>
              <LongitudeDegrees>-4.02061714790761470794677734375</LongitudeDegrees>
            </Position>
            <AltitudeMeters>885.5999755859375</AltitudeMeters>
            <DistanceMeters>NAN</DistanceMeters>
          </Trackpoint>
          <Trackpoint>
            <Time>2019-08-01T16:39:51.000Z</Time>
            <Position>
              <LatitudeDegrees>40.6023733131587505340576171875</LatitudeDegrees>
              <LongitudeDegrees>-4.0205902419984340667724609375</LongitudeDegrees>
            </Position>
            <AltitudeMeters>885.20001220703125</AltitudeMeters>
            <DistanceMeters>NAN</DistanceMeters>
          </Trackpoint>
          <Trackpoint>
            <Time>2019-08-01T16:39:52.000Z</Time>
            <Position>
              <LatitudeDegrees>40.60229863040149211883544921875</LatitudeDegrees>
              <LongitudeDegrees>-4.020564258098602294921875</LongitudeDegrees>
            </Position>
            <AltitudeMeters>885.20001220703125</AltitudeMeters>
            <DistanceMeters>NAN</DistanceMeters>
          </Trackpoint>
          <Trackpoint>
            <Time>2019-08-01T16:39:53.000Z</Time>
            <Position>
              <LatitudeDegrees>40.6022244505584239959716796875</LatitudeDegrees>
              <LongitudeDegrees>-4.02053953148424625396728515625</LongitudeDegrees>
            </Position>
            <AltitudeMeters>885.20001220703125</AltitudeMeters>
            <DistanceMeters>NAN</DistanceMeters>
          </Trackpoint>
          <Trackpoint>
            <Time>2019-08-01T16:39:54.000Z</Time>
            <Position>
              <LatitudeDegrees>40.6021496839821338653564453125</LatitudeDegrees>
              <LongitudeDegrees>-4.0205121226608753204345703125</LongitudeDegrees>
            </Position>
            <AltitudeMeters>885.20001220703125</AltitudeMeters>
            <DistanceMeters>NAN</DistanceMeters>
          </Trackpoint>
          <Trackpoint>
            <Time>2019-08-01T16:39:55.000Z</Time>
            <Position>
              <LatitudeDegrees>40.60207416303455829620361328125</LatitudeDegrees>
              <LongitudeDegrees>-4.02048580348491668701171875</LongitudeDegrees>
            </Position>
            <AltitudeMeters>885</AltitudeMeters>
            <DistanceMeters>NAN</DistanceMeters>
          </Trackpoint>
          <Trackpoint>
            <Time>2019-08-01T16:39:56.000Z</Time>
            <Position>
              <LatitudeDegrees>40.601998977363109588623046875</LatitudeDegrees>
              <LongitudeDegrees>-4.02045956812798976898193359375</LongitudeDegrees>
            </Position>
            <AltitudeMeters>884.79998779296875</AltitudeMeters>
            <DistanceMeters>NAN</DistanceMeters>
          </Trackpoint>
          <Trackpoint>
            <Time>2019-08-01T16:39:57.000Z</Time>
            <Position>
              <LatitudeDegrees>40.60192462988197803497314453125</LatitudeDegrees>
              <LongitudeDegrees>-4.02043350040912628173828125</LongitudeDegrees>
            </Position>
            <AltitudeMeters>884.5999755859375</AltitudeMeters>
            <DistanceMeters>NAN</DistanceMeters>
          </Trackpoint>
          <Trackpoint>
            <Time>2019-08-01T16:39:58.000Z</Time>
            <Position>
              <LatitudeDegrees>40.60185137204825878143310546875</LatitudeDegrees>
              <LongitudeDegrees>-4.0204073488712310791015625</LongitudeDegrees>
            </Position>
            <AltitudeMeters>884.4000244140625</AltitudeMeters>
            <DistanceMeters>NAN</DistanceMeters>
          </Trackpoint>
          <Trackpoint>
            <Time>2019-08-01T16:39:59.000Z</Time>
            <Position>
              <LatitudeDegrees>40.60177794657647609710693359375</LatitudeDegrees>
              <LongitudeDegrees>-4.0203820355236530303955078125</LongitudeDegrees>
            </Position>
            <AltitudeMeters>884.20001220703125</AltitudeMeters>
            <DistanceMeters>NAN</DistanceMeters>
          </Trackpoint>
          <Trackpoint>
            <Time>2019-08-01T16:40:00.000Z</Time>
            <Position>
              <LatitudeDegrees>40.601703934371471405029296875</LatitudeDegrees>
              <LongitudeDegrees>-4.020356722176074981689453125</LongitudeDegrees>
            </Position>
            <AltitudeMeters>883.79998779296875</AltitudeMeters>
            <DistanceMeters>NAN</DistanceMeters>
          </Trackpoint>
          <Trackpoint>
            <Time>2019-08-01T16:40:01.000Z</Time>
            <Position>
              <LatitudeDegrees>40.60163109563291072845458984375</LatitudeDegrees>
              <LongitudeDegrees>-4.0203322470188140869140625</LongitudeDegrees>
            </Position>
            <AltitudeMeters>883.5999755859375</AltitudeMeters>
            <DistanceMeters>NAN</DistanceMeters>
          </Trackpoint>
          <Trackpoint>
            <Time>2019-08-01T16:40:02.000Z</Time>
            <Position>
              <LatitudeDegrees>40.601558424532413482666015625</LatitudeDegrees>
              <LongitudeDegrees>-4.020306766033172607421875</LongitudeDegrees>
            </Position>
            <AltitudeMeters>883.4000244140625</AltitudeMeters>
            <DistanceMeters>NAN</DistanceMeters>
          </Trackpoint>
          <Trackpoint>
            <Time>2019-08-01T16:40:03.000Z</Time>
            <Position>
              <LatitudeDegrees>40.60148625634610652923583984375</LatitudeDegrees>
              <LongitudeDegrees>-4.02028120122849941253662109375</LongitudeDegrees>
            </Position>
            <AltitudeMeters>883.4000244140625</AltitudeMeters>
            <DistanceMeters>NAN</DistanceMeters>
          </Trackpoint>
          <Trackpoint>
            <Time>2019-08-01T16:40:04.000Z</Time>
            <Position>
              <LatitudeDegrees>40.60141366906464099884033203125</LatitudeDegrees>
              <LongitudeDegrees>-4.02025588788092136383056640625</LongitudeDegrees>
            </Position>
            <AltitudeMeters>883.4000244140625</AltitudeMeters>
            <DistanceMeters>NAN</DistanceMeters>
          </Trackpoint>
          <Trackpoint>
            <Time>2019-08-01T16:40:05.000Z</Time>
            <Position>
              <LatitudeDegrees>40.6013394892215728759765625</LatitudeDegrees>
              <LongitudeDegrees>-4.02023007161915302276611328125</LongitudeDegrees>
            </Position>
            <AltitudeMeters>883.4000244140625</AltitudeMeters>
            <DistanceMeters>NAN</DistanceMeters>
          </Trackpoint>
          <Trackpoint>
            <Time>2019-08-01T16:40:06.000Z</Time>
            <Position>
              <LatitudeDegrees>40.60126631520688533782958984375</LatitudeDegrees>
              <LongitudeDegrees>-4.02020542882382869720458984375</LongitudeDegrees>
            </Position>
            <AltitudeMeters>883.20001220703125</AltitudeMeters>
            <DistanceMeters>NAN</DistanceMeters>
          </Trackpoint>
          <Trackpoint>
            <Time>2019-08-01T16:40:07.000Z</Time>
            <Position>
              <LatitudeDegrees>40.60119330883026123046875</LatitudeDegrees>
              <LongitudeDegrees>-4.0201795287430286407470703125</LongitudeDegrees>
            </Position>
            <AltitudeMeters>883.20001220703125</AltitudeMeters>
            <DistanceMeters>NAN</DistanceMeters>
          </Trackpoint>
          <Trackpoint>
            <Time>2019-08-01T16:40:08.000Z</Time>
            <Position>
              <LatitudeDegrees>40.60112130828201770782470703125</LatitudeDegrees>
              <LongitudeDegrees>-4.020154885947704315185546875</LongitudeDegrees>
            </Position>
            <AltitudeMeters>883.20001220703125</AltitudeMeters>
            <DistanceMeters>NAN</DistanceMeters>
          </Trackpoint>
          <Trackpoint>
            <Time>2019-08-01T16:40:09.000Z</Time>
            <Position>
              <LatitudeDegrees>40.6010486371815204620361328125</LatitudeDegrees>
              <LongitudeDegrees>-4.020129404962062835693359375</LongitudeDegrees>
            </Position>
            <AltitudeMeters>883.20001220703125</AltitudeMeters>
            <DistanceMeters>NAN</DistanceMeters>
          </Trackpoint>
          <Trackpoint>
            <Time>2019-08-01T16:40:10.000Z</Time>
            <Position>
              <LatitudeDegrees>40.60097496025264263153076171875</LatitudeDegrees>
              <LongitudeDegrees>-4.02010015211999416351318359375</LongitudeDegrees>
            </Position>
            <AltitudeMeters>883</AltitudeMeters>
            <DistanceMeters>NAN</DistanceMeters>
          </Trackpoint>
          <Trackpoint>
            <Time>2019-08-01T16:40:11.000Z</Time>
            <Position>
              <LatitudeDegrees>40.60090321116149425506591796875</LatitudeDegrees>
              <LongitudeDegrees>-4.0200702287256717681884765625</LongitudeDegrees>
            </Position>
            <AltitudeMeters>882.79998779296875</AltitudeMeters>
            <DistanceMeters>NAN</DistanceMeters>
          </Trackpoint>
          <Trackpoint>
            <Time>2019-08-01T16:40:12.000Z</Time>
            <Position>
              <LatitudeDegrees>40.60083045624196529388427734375</LatitudeDegrees>
              <LongitudeDegrees>-4.02003896422684192657470703125</LongitudeDegrees>
            </Position>
            <AltitudeMeters>882.79998779296875</AltitudeMeters>
            <DistanceMeters>NAN</DistanceMeters>
          </Trackpoint>
          <Trackpoint>
            <Time>2019-08-01T16:40:13.000Z</Time>
            <Position>
              <LatitudeDegrees>40.600758455693721771240234375</LatitudeDegrees>
              <LongitudeDegrees>-4.020006358623504638671875</LongitudeDegrees>
            </Position>
            <AltitudeMeters>882.79998779296875</AltitudeMeters>
            <DistanceMeters>NAN</DistanceMeters>
          </Trackpoint>
          <Trackpoint>
            <Time>2019-08-01T16:40:14.000Z</Time>
            <Position>
              <LatitudeDegrees>40.60068746097385883331298828125</LatitudeDegrees>
              <LongitudeDegrees>-4.01997341774404048919677734375</LongitudeDegrees>
            </Position>
            <AltitudeMeters>882.5999755859375</AltitudeMeters>
            <DistanceMeters>NAN</DistanceMeters>
          </Trackpoint>
          <Trackpoint>
            <Time>2019-08-01T16:40:15.000Z</Time>
            <Position>
              <LatitudeDegrees>40.60061722062528133392333984375</LatitudeDegrees>
              <LongitudeDegrees>-4.01993569917976856231689453125</LongitudeDegrees>
            </Position>
            <AltitudeMeters>882.5999755859375</AltitudeMeters>
            <DistanceMeters>NAN</DistanceMeters>
          </Trackpoint>
          <Trackpoint>
            <Time>2019-08-01T16:40:16.000Z</Time>
            <Position>
              <LatitudeDegrees>40.60054890811443328857421875</LatitudeDegrees>
              <LongitudeDegrees>-4.01989546604454517364501953125</LongitudeDegrees>
            </Position>
            <AltitudeMeters>882.5999755859375</AltitudeMeters>
            <DistanceMeters>NAN</DistanceMeters>
          </Trackpoint>
          <Trackpoint>
            <Time>2019-08-01T16:40:17.000Z</Time>
            <Position>
              <LatitudeDegrees>40.60048185288906097412109375</LatitudeDegrees>
              <LongitudeDegrees>-4.01985221542418003082275390625</LongitudeDegrees>
            </Position>
            <AltitudeMeters>882.5999755859375</AltitudeMeters>
            <DistanceMeters>NAN</DistanceMeters>
          </Trackpoint>
          <Trackpoint>
            <Time>2019-08-01T16:40:18.000Z</Time>
            <Position>
              <LatitudeDegrees>40.6004163064062595367431640625</LatitudeDegrees>
              <LongitudeDegrees>-4.0198073722422122955322265625</LongitudeDegrees>
            </Position>
            <AltitudeMeters>882.5999755859375</AltitudeMeters>
            <DistanceMeters>NAN</DistanceMeters>
          </Trackpoint>
          <Trackpoint>
            <Time>2019-08-01T16:40:19.000Z</Time>
            <Position>
              <LatitudeDegrees>40.60035168193280696868896484375</LatitudeDegrees>
              <LongitudeDegrees>-4.0197590924799442291259765625</LongitudeDegrees>
            </Position>
            <AltitudeMeters>882.20001220703125</AltitudeMeters>
            <DistanceMeters>NAN</DistanceMeters>
          </Trackpoint>
          <Trackpoint>
            <Time>2019-08-01T16:40:20.000Z</Time>
            <Position>
              <LatitudeDegrees>40.6002889014780521392822265625</LatitudeDegrees>
              <LongitudeDegrees>-4.01970871724188327789306640625</LongitudeDegrees>
            </Position>
            <AltitudeMeters>882.20001220703125</AltitudeMeters>
            <DistanceMeters>NAN</DistanceMeters>
          </Trackpoint>
          <Trackpoint>
            <Time>2019-08-01T16:40:21.000Z</Time>
            <Position>
              <LatitudeDegrees>40.60022796504199504852294921875</LatitudeDegrees>
              <LongitudeDegrees>-4.0196561627089977264404296875</LongitudeDegrees>
            </Position>
            <AltitudeMeters>882</AltitudeMeters>
            <DistanceMeters>NAN</DistanceMeters>
          </Trackpoint>
          <Trackpoint>
            <Time>2019-08-01T16:40:22.000Z</Time>
            <Position>
              <LatitudeDegrees>40.6001688726246356964111328125</LatitudeDegrees>
              <LongitudeDegrees>-4.01960344053804874420166015625</LongitudeDegrees>
            </Position>
            <AltitudeMeters>882</AltitudeMeters>
            <DistanceMeters>NAN</DistanceMeters>
          </Trackpoint>
          <Trackpoint>
            <Time>2019-08-01T16:40:23.000Z</Time>
            <Position>
              <LatitudeDegrees>40.6001105345785617828369140625</LatitudeDegrees>
              <LongitudeDegrees>-4.01955046691000461578369140625</LongitudeDegrees>
            </Position>
            <AltitudeMeters>882.20001220703125</AltitudeMeters>
            <DistanceMeters>NAN</DistanceMeters>
          </Trackpoint>
          <Trackpoint>
            <Time>2019-08-01T16:40:24.000Z</Time>
            <Position>
              <LatitudeDegrees>40.60005362145602703094482421875</LatitudeDegrees>
              <LongitudeDegrees>-4.01949615217745304107666015625</LongitudeDegrees>
            </Position>
            <AltitudeMeters>882.20001220703125</AltitudeMeters>
            <DistanceMeters>NAN</DistanceMeters>
          </Trackpoint>
          <Trackpoint>
            <Time>2019-08-01T16:40:25.000Z</Time>
            <Position>
              <LatitudeDegrees>40.599996708333492279052734375</LatitudeDegrees>
              <LongitudeDegrees>-4.0194402448832988739013671875</LongitudeDegrees>
            </Position>
            <AltitudeMeters>882.20001220703125</AltitudeMeters>
            <DistanceMeters>NAN</DistanceMeters>
          </Trackpoint>
          <Trackpoint>
            <Time>2019-08-01T16:40:26.000Z</Time>
            <Position>
              <LatitudeDegrees>40.59993912465870380401611328125</LatitudeDegrees>
              <LongitudeDegrees>-4.019384421408176422119140625</LongitudeDegrees>
            </Position>
            <AltitudeMeters>882.20001220703125</AltitudeMeters>
            <DistanceMeters>NAN</DistanceMeters>
          </Trackpoint>
          <Trackpoint>
            <Time>2019-08-01T16:40:27.000Z</Time>
            <Position>
              <LatitudeDegrees>40.59988128952682018280029296875</LatitudeDegrees>
              <LongitudeDegrees>-4.01932801119983196258544921875</LongitudeDegrees>
            </Position>
            <AltitudeMeters>882.20001220703125</AltitudeMeters>
            <DistanceMeters>NAN</DistanceMeters>
          </Trackpoint>
          <Trackpoint>
            <Time>2019-08-01T16:40:28.000Z</Time>
            <Position>
              <LatitudeDegrees>40.59982362203299999237060546875</LatitudeDegrees>
              <LongitudeDegrees>-4.01927134953439235687255859375</LongitudeDegrees>
            </Position>
            <AltitudeMeters>882.20001220703125</AltitudeMeters>
            <DistanceMeters>NAN</DistanceMeters>
          </Trackpoint>
          <Trackpoint>
            <Time>2019-08-01T16:40:29.000Z</Time>
            <Position>
              <LatitudeDegrees>40.5997658707201480865478515625</LatitudeDegrees>
              <LongitudeDegrees>-4.0192146040499210357666015625</LongitudeDegrees>
            </Position>
            <AltitudeMeters>882.20001220703125</AltitudeMeters>
            <DistanceMeters>NAN</DistanceMeters>
          </Trackpoint>
          <Trackpoint>
            <Time>2019-08-01T16:40:31.000Z</Time>
            <Position>
              <LatitudeDegrees>40.59965078718960285186767578125</LatitudeDegrees>
              <LongitudeDegrees>-4.01910044252872467041015625</LongitudeDegrees>
            </Position>
            <AltitudeMeters>882.20001220703125</AltitudeMeters>
            <DistanceMeters>NAN</DistanceMeters>
          </Trackpoint>
          <Trackpoint>
            <Time>2019-08-01T16:40:32.000Z</Time>
            <Position>
              <LatitudeDegrees>40.59959311969578266143798828125</LatitudeDegrees>
              <LongitudeDegrees>-4.01904453523457050323486328125</LongitudeDegrees>
            </Position>
            <AltitudeMeters>882.20001220703125</AltitudeMeters>
            <DistanceMeters>NAN</DistanceMeters>
          </Trackpoint>
          <Trackpoint>
            <Time>2019-08-01T16:40:33.000Z</Time>
            <Position>
              <LatitudeDegrees>40.59953511692583560943603515625</LatitudeDegrees>
              <LongitudeDegrees>-4.0189886279404163360595703125</LongitudeDegrees>
            </Position>
            <AltitudeMeters>882.4000244140625</AltitudeMeters>
            <DistanceMeters>NAN</DistanceMeters>
          </Trackpoint>
          <Trackpoint>
            <Time>2019-08-01T16:40:34.000Z</Time>
            <Position>
              <LatitudeDegrees>40.5994771979749202728271484375</LatitudeDegrees>
              <LongitudeDegrees>-4.0189319662749767303466796875</LongitudeDegrees>
            </Position>
            <AltitudeMeters>882.4000244140625</AltitudeMeters>
            <DistanceMeters>NAN</DistanceMeters>
          </Trackpoint>
          <Trackpoint>
            <Time>2019-08-01T16:40:35.000Z</Time>
            <Position>
              <LatitudeDegrees>40.5994190275669097900390625</LatitudeDegrees>
              <LongitudeDegrees>-4.0188758075237274169921875</LongitudeDegrees>
            </Position>
            <AltitudeMeters>882.4000244140625</AltitudeMeters>
            <DistanceMeters>NAN</DistanceMeters>
          </Trackpoint>
          <Trackpoint>
            <Time>2019-08-01T16:40:36.000Z</Time>
            <Position>
              <LatitudeDegrees>40.599362365901470184326171875</LatitudeDegrees>
              <LongitudeDegrees>-4.01882124133408069610595703125</LongitudeDegrees>
            </Position>
            <AltitudeMeters>882.4000244140625</AltitudeMeters>
            <DistanceMeters>NAN</DistanceMeters>
          </Trackpoint>
          <Trackpoint>
            <Time>2019-08-01T16:40:37.000Z</Time>
            <Position>
              <LatitudeDegrees>40.59930427931249141693115234375</LatitudeDegrees>
              <LongitudeDegrees>-4.01876357384026050567626953125</LongitudeDegrees>
            </Position>
            <AltitudeMeters>882.4000244140625</AltitudeMeters>
            <DistanceMeters>NAN</DistanceMeters>
          </Trackpoint>
          <Trackpoint>
            <Time>2019-08-01T16:40:38.000Z</Time>
            <Position>
              <LatitudeDegrees>40.59924610890448093414306640625</LatitudeDegrees>
              <LongitudeDegrees>-4.01870640926063060760498046875</LongitudeDegrees>
            </Position>
            <AltitudeMeters>882.4000244140625</AltitudeMeters>
            <DistanceMeters>NAN</DistanceMeters>
          </Trackpoint>
          <Trackpoint>
            <Time>2019-08-01T16:40:39.000Z</Time>
            <Position>
              <LatitudeDegrees>40.5991871841251850128173828125</LatitudeDegrees>
              <LongitudeDegrees>-4.01864907704293727874755859375</LongitudeDegrees>
            </Position>
            <AltitudeMeters>882.4000244140625</AltitudeMeters>
            <DistanceMeters>NAN</DistanceMeters>
          </Trackpoint>
          <Trackpoint>
            <Time>2019-08-01T16:40:40.000Z</Time>
            <Position>
              <LatitudeDegrees>40.599129013717174530029296875</LatitudeDegrees>
              <LongitudeDegrees>-4.018592499196529388427734375</LongitudeDegrees>
            </Position>
            <AltitudeMeters>882.4000244140625</AltitudeMeters>
            <DistanceMeters>NAN</DistanceMeters>
          </Trackpoint>
          <Trackpoint>
            <Time>2019-08-01T16:40:41.000Z</Time>
            <Position>
              <LatitudeDegrees>40.59907059185206890106201171875</LatitudeDegrees>
              <LongitudeDegrees>-4.0185360051691532135009765625</LongitudeDegrees>
            </Position>
            <AltitudeMeters>882.4000244140625</AltitudeMeters>
            <DistanceMeters>NAN</DistanceMeters>
          </Trackpoint>
          <Trackpoint>
            <Time>2019-08-01T16:40:42.000Z</Time>
            <Position>
              <LatitudeDegrees>40.5990113317966461181640625</LatitudeDegrees>
              <LongitudeDegrees>-4.01847817003726959228515625</LongitudeDegrees>
            </Position>
            <AltitudeMeters>882.4000244140625</AltitudeMeters>
            <DistanceMeters>NAN</DistanceMeters>
          </Trackpoint>
          <Trackpoint>
            <Time>2019-08-01T16:40:44.000Z</Time>
            <Position>
              <LatitudeDegrees>40.59889121912419795989990234375</LatitudeDegrees>
              <LongitudeDegrees>-4.018361158668994903564453125</LongitudeDegrees>
            </Position>
            <AltitudeMeters>882.4000244140625</AltitudeMeters>
            <DistanceMeters>NAN</DistanceMeters>
          </Trackpoint>
          <Trackpoint>
            <Time>2019-08-01T16:40:45.000Z</Time>
            <Position>
              <LatitudeDegrees>40.5988311208784580230712890625</LatitudeDegrees>
              <LongitudeDegrees>-4.01830256916582584381103515625</LongitudeDegrees>
            </Position>
            <AltitudeMeters>882.4000244140625</AltitudeMeters>
            <DistanceMeters>NAN</DistanceMeters>
          </Trackpoint>
          <Trackpoint>
            <Time>2019-08-01T16:40:46.000Z</Time>
            <Position>
              <LatitudeDegrees>40.598771274089813232421875</LatitudeDegrees>
              <LongitudeDegrees>-4.018244482576847076416015625</LongitudeDegrees>
            </Position>
            <AltitudeMeters>882.4000244140625</AltitudeMeters>
            <DistanceMeters>NAN</DistanceMeters>
          </Trackpoint>
          <Trackpoint>
            <Time>2019-08-01T16:40:47.000Z</Time>
            <Position>
              <LatitudeDegrees>40.59871151112020015716552734375</LatitudeDegrees>
              <LongitudeDegrees>-4.018185473978519439697265625</LongitudeDegrees>
            </Position>
            <AltitudeMeters>882.20001220703125</AltitudeMeters>
            <DistanceMeters>NAN</DistanceMeters>
          </Trackpoint>
          <Trackpoint>
            <Time>2019-08-01T16:40:48.000Z</Time>
            <Position>
              <LatitudeDegrees>40.59865116141736507415771484375</LatitudeDegrees>
              <LongitudeDegrees>-4.0181247889995574951171875</LongitudeDegrees>
            </Position>
            <AltitudeMeters>882.20001220703125</AltitudeMeters>
            <DistanceMeters>NAN</DistanceMeters>
          </Trackpoint>
          <Trackpoint>
            <Time>2019-08-01T16:40:49.000Z</Time>
            <Position>
              <LatitudeDegrees>40.59858963824808597564697265625</LatitudeDegrees>
              <LongitudeDegrees>-4.018064774572849273681640625</LongitudeDegrees>
            </Position>
            <AltitudeMeters>882</AltitudeMeters>
            <DistanceMeters>NAN</DistanceMeters>
          </Trackpoint>
          <Trackpoint>
            <Time>2019-08-01T16:40:50.000Z</Time>
            <Position>
              <LatitudeDegrees>40.598528198897838592529296875</LatitudeDegrees>
              <LongitudeDegrees>-4.0180066041648387908935546875</LongitudeDegrees>
            </Position>
            <AltitudeMeters>881.79998779296875</AltitudeMeters>
            <DistanceMeters>NAN</DistanceMeters>
          </Trackpoint>
          <Trackpoint>
            <Time>2019-08-01T16:40:51.000Z</Time>
            <Position>
              <LatitudeDegrees>40.5984668433666229248046875</LatitudeDegrees>
              <LongitudeDegrees>-4.017946757376194000244140625</LongitudeDegrees>
            </Position>
            <AltitudeMeters>881.79998779296875</AltitudeMeters>
            <DistanceMeters>NAN</DistanceMeters>
          </Trackpoint>
          <Trackpoint>
            <Time>2019-08-01T16:40:52.000Z</Time>
            <Position>
              <LatitudeDegrees>40.59840540401637554168701171875</LatitudeDegrees>
              <LongitudeDegrees>-4.01788699440658092498779296875</LongitudeDegrees>
            </Position>
            <AltitudeMeters>881.5999755859375</AltitudeMeters>
            <DistanceMeters>NAN</DistanceMeters>
          </Trackpoint>
          <Trackpoint>
            <Time>2019-08-01T16:40:53.000Z</Time>
            <Position>
              <LatitudeDegrees>40.5983436293900012969970703125</LatitudeDegrees>
              <LongitudeDegrees>-4.01782664470374584197998046875</LongitudeDegrees>
            </Position>
            <AltitudeMeters>881.20001220703125</AltitudeMeters>
            <DistanceMeters>NAN</DistanceMeters>
          </Trackpoint>
          <Trackpoint>
            <Time>2019-08-01T16:40:54.000Z</Time>
            <Position>
              <LatitudeDegrees>40.59828151948750019073486328125</LatitudeDegrees>
              <LongitudeDegrees>-4.017766378819942474365234375</LongitudeDegrees>
            </Position>
            <AltitudeMeters>881</AltitudeMeters>
            <DistanceMeters>NAN</DistanceMeters>
          </Trackpoint>
          <Trackpoint>
            <Time>2019-08-01T16:40:55.000Z</Time>
            <Position>
              <LatitudeDegrees>40.5982199124991893768310546875</LatitudeDegrees>
              <LongitudeDegrees>-4.01770661585032939910888671875</LongitudeDegrees>
            </Position>
            <AltitudeMeters>880.79998779296875</AltitudeMeters>
            <DistanceMeters>NAN</DistanceMeters>
          </Trackpoint>
          <Trackpoint>
            <Time>2019-08-01T16:40:56.000Z</Time>
            <Position>
              <LatitudeDegrees>40.59815905988216400146484375</LatitudeDegrees>
              <LongitudeDegrees>-4.01764693669974803924560546875</LongitudeDegrees>
            </Position>
            <AltitudeMeters>880.5999755859375</AltitudeMeters>
            <DistanceMeters>NAN</DistanceMeters>
          </Trackpoint>
          <Trackpoint>
            <Time>2019-08-01T16:40:57.000Z</Time>
            <Position>
              <LatitudeDegrees>40.5980982072651386260986328125</LatitudeDegrees>
              <LongitudeDegrees>-4.01758759282529354095458984375</LongitudeDegrees>
            </Position>
            <AltitudeMeters>880.5999755859375</AltitudeMeters>
            <DistanceMeters>NAN</DistanceMeters>
          </Trackpoint>
          <Trackpoint>
            <Time>2019-08-01T16:40:58.000Z</Time>
            <Position>
              <LatitudeDegrees>40.59803794138133525848388671875</LatitudeDegrees>
              <LongitudeDegrees>-4.01753059588372707366943359375</LongitudeDegrees>
            </Position>
            <AltitudeMeters>880.5999755859375</AltitudeMeters>
            <DistanceMeters>NAN</DistanceMeters>
          </Trackpoint>
          <Trackpoint>
            <Time>2019-08-01T16:40:59.000Z</Time>
            <Position>
              <LatitudeDegrees>40.5979771725833415985107421875</LatitudeDegrees>
              <LongitudeDegrees>-4.01747209019958972930908203125</LongitudeDegrees>
            </Position>
            <AltitudeMeters>880.4000244140625</AltitudeMeters>
            <DistanceMeters>NAN</DistanceMeters>
          </Trackpoint>
          <Trackpoint>
            <Time>2019-08-01T16:41:00.000Z</Time>
            <Position>
              <LatitudeDegrees>40.59791766107082366943359375</LatitudeDegrees>
              <LongitudeDegrees>-4.01741442270576953887939453125</LongitudeDegrees>
            </Position>
            <AltitudeMeters>880.4000244140625</AltitudeMeters>
            <DistanceMeters>NAN</DistanceMeters>
          </Trackpoint>
          <Trackpoint>
            <Time>2019-08-01T16:41:01.000Z</Time>
            <Position>
              <LatitudeDegrees>40.59785890392959117889404296875</LatitudeDegrees>
              <LongitudeDegrees>-4.01735658757388591766357421875</LongitudeDegrees>
            </Position>
            <AltitudeMeters>880.20001220703125</AltitudeMeters>
            <DistanceMeters>NAN</DistanceMeters>
          </Trackpoint>
          <Trackpoint>
            <Time>2019-08-01T16:41:02.000Z</Time>
            <Position>
              <LatitudeDegrees>40.59779956005513668060302734375</LatitudeDegrees>
              <LongitudeDegrees>-4.01729858480393886566162109375</LongitudeDegrees>
            </Position>
            <AltitudeMeters>880.20001220703125</AltitudeMeters>
            <DistanceMeters>NAN</DistanceMeters>
          </Trackpoint>
          <Trackpoint>
            <Time>2019-08-01T16:41:03.000Z</Time>
            <Position>
              <LatitudeDegrees>40.59774088673293590545654296875</LatitudeDegrees>
              <LongitudeDegrees>-4.01724494062364101409912109375</LongitudeDegrees>
            </Position>
            <AltitudeMeters>880</AltitudeMeters>
            <DistanceMeters>NAN</DistanceMeters>
          </Trackpoint>
          <Trackpoint>
            <Time>2019-08-01T16:41:05.000Z</Time>
            <Position>
              <LatitudeDegrees>40.5976246297359466552734375</LatitudeDegrees>
              <LongitudeDegrees>-4.0171311981976032257080078125</LongitudeDegrees>
            </Position>
            <AltitudeMeters>879.79998779296875</AltitudeMeters>
            <DistanceMeters>NAN</DistanceMeters>
          </Trackpoint>
          <Trackpoint>
            <Time>2019-08-01T16:41:06.000Z</Time>
            <Position>
              <LatitudeDegrees>40.59756637550890445709228515625</LatitudeDegrees>
              <LongitudeDegrees>-4.0170735307037830352783203125</LongitudeDegrees>
            </Position>
            <AltitudeMeters>879.79998779296875</AltitudeMeters>
            <DistanceMeters>NAN</DistanceMeters>
          </Trackpoint>
          <Trackpoint>
            <Time>2019-08-01T16:41:07.000Z</Time>
            <Position>
              <LatitudeDegrees>40.59750770218670368194580078125</LatitudeDegrees>
              <LongitudeDegrees>-4.017018042504787445068359375</LongitudeDegrees>
            </Position>
            <AltitudeMeters>879.79998779296875</AltitudeMeters>
            <DistanceMeters>NAN</DistanceMeters>
          </Trackpoint>
          <Trackpoint>
            <Time>2019-08-01T16:41:08.000Z</Time>
            <Position>
              <LatitudeDegrees>40.5974491126835346221923828125</LatitudeDegrees>
              <LongitudeDegrees>-4.01696138083934783935546875</LongitudeDegrees>
            </Position>
            <AltitudeMeters>879.79998779296875</AltitudeMeters>
            <DistanceMeters>NAN</DistanceMeters>
          </Trackpoint>
          <Trackpoint>
            <Time>2019-08-01T16:41:09.000Z</Time>
            <Position>
              <LatitudeDegrees>40.5973894335329532623291015625</LatitudeDegrees>
              <LongitudeDegrees>-4.01690262369811534881591796875</LongitudeDegrees>
            </Position>
            <AltitudeMeters>879.79998779296875</AltitudeMeters>
            <DistanceMeters>NAN</DistanceMeters>
          </Trackpoint>
          <Trackpoint>
            <Time>2019-08-01T16:41:10.000Z</Time>
            <Position>
              <LatitudeDegrees>40.59732967056334018707275390625</LatitudeDegrees>
              <LongitudeDegrees>-4.01684411801397800445556640625</LongitudeDegrees>
            </Position>
            <AltitudeMeters>879.79998779296875</AltitudeMeters>
            <DistanceMeters>NAN</DistanceMeters>
          </Trackpoint>
          <Trackpoint>
            <Time>2019-08-01T16:41:11.000Z</Time>
            <Position>
              <LatitudeDegrees>40.597269572317600250244140625</LatitudeDegrees>
              <LongitudeDegrees>-4.016786701977252960205078125</LongitudeDegrees>
            </Position>
            <AltitudeMeters>879.5999755859375</AltitudeMeters>
            <DistanceMeters>NAN</DistanceMeters>
          </Trackpoint>
          <Trackpoint>
            <Time>2019-08-01T16:41:12.000Z</Time>
            <Position>
              <LatitudeDegrees>40.59720955789089202880859375</LatitudeDegrees>
              <LongitudeDegrees>-4.01672693900763988494873046875</LongitudeDegrees>
            </Position>
            <AltitudeMeters>879.5999755859375</AltitudeMeters>
            <DistanceMeters>NAN</DistanceMeters>
          </Trackpoint>
          <Trackpoint>
            <Time>2019-08-01T16:41:13.000Z</Time>
            <Position>
              <LatitudeDegrees>40.5971497111022472381591796875</LatitudeDegrees>
              <LongitudeDegrees>-4.0166688524186611175537109375</LongitudeDegrees>
            </Position>
            <AltitudeMeters>879.5999755859375</AltitudeMeters>
            <DistanceMeters>NAN</DistanceMeters>
          </Trackpoint>
          <Trackpoint>
            <Time>2019-08-01T16:41:14.000Z</Time>
            <Position>
              <LatitudeDegrees>40.597089193761348724365234375</LatitudeDegrees>
              <LongitudeDegrees>-4.01660925708711147308349609375</LongitudeDegrees>
            </Position>
            <AltitudeMeters>879.5999755859375</AltitudeMeters>
            <DistanceMeters>NAN</DistanceMeters>
          </Trackpoint>
          <Trackpoint>
            <Time>2019-08-01T16:41:15.000Z</Time>
            <Position>
              <LatitudeDegrees>40.59702825732529163360595703125</LatitudeDegrees>
              <LongitudeDegrees>-4.016549326479434967041015625</LongitudeDegrees>
            </Position>
            <AltitudeMeters>879.5999755859375</AltitudeMeters>
            <DistanceMeters>NAN</DistanceMeters>
          </Trackpoint>
          <Trackpoint>
            <Time>2019-08-01T16:41:16.000Z</Time>
            <Position>
              <LatitudeDegrees>40.59696639887988567352294921875</LatitudeDegrees>
              <LongitudeDegrees>-4.016487300395965576171875</LongitudeDegrees>
            </Position>
            <AltitudeMeters>879.5999755859375</AltitudeMeters>
            <DistanceMeters>NAN</DistanceMeters>
          </Trackpoint>
          <Trackpoint>
            <Time>2019-08-01T16:41:17.000Z</Time>
            <Position>
              <LatitudeDegrees>40.59690386988222599029541015625</LatitudeDegrees>
              <LongitudeDegrees>-4.01642485521733760833740234375</LongitudeDegrees>
            </Position>
            <AltitudeMeters>879.5999755859375</AltitudeMeters>
            <DistanceMeters>NAN</DistanceMeters>
          </Trackpoint>
          <Trackpoint>
            <Time>2019-08-01T16:41:18.000Z</Time>
            <Position>
              <LatitudeDegrees>40.59684016741812229156494140625</LatitudeDegrees>
              <LongitudeDegrees>-4.01636165566742420196533203125</LongitudeDegrees>
            </Position>
            <AltitudeMeters>879.5999755859375</AltitudeMeters>
            <DistanceMeters>NAN</DistanceMeters>
          </Trackpoint>
          <Trackpoint>
            <Time>2019-08-01T16:41:19.000Z</Time>
            <Position>
              <LatitudeDegrees>40.59677512384951114654541015625</LatitudeDegrees>
              <LongitudeDegrees>-4.0162983722984790802001953125</LongitudeDegrees>
            </Position>
            <AltitudeMeters>879.5999755859375</AltitudeMeters>
            <DistanceMeters>NAN</DistanceMeters>
          </Trackpoint>
          <Trackpoint>
            <Time>2019-08-01T16:41:20.000Z</Time>
            <Position>
              <LatitudeDegrees>40.596710331737995147705078125</LatitudeDegrees>
              <LongitudeDegrees>-4.0162343345582485198974609375</LongitudeDegrees>
            </Position>
            <AltitudeMeters>879.5999755859375</AltitudeMeters>
            <DistanceMeters>NAN</DistanceMeters>
          </Trackpoint>
          <Trackpoint>
            <Time>2019-08-01T16:41:21.000Z</Time>
            <Position>
              <LatitudeDegrees>40.59664495289325714111328125</LatitudeDegrees>
              <LongitudeDegrees>-4.0161702968180179595947265625</LongitudeDegrees>
            </Position>
            <AltitudeMeters>879.5999755859375</AltitudeMeters>
            <DistanceMeters>NAN</DistanceMeters>
          </Trackpoint>
          <Trackpoint>
            <Time>2019-08-01T16:41:22.000Z</Time>
            <Position>
              <LatitudeDegrees>40.59657999314367771148681640625</LatitudeDegrees>
              <LongitudeDegrees>-4.0161065943539142608642578125</LongitudeDegrees>
            </Position>
            <AltitudeMeters>879.5999755859375</AltitudeMeters>
            <DistanceMeters>NAN</DistanceMeters>
          </Trackpoint>
          <Trackpoint>
            <Time>2019-08-01T16:41:23.000Z</Time>
            <Position>
              <LatitudeDegrees>40.59651545248925685882568359375</LatitudeDegrees>
              <LongitudeDegrees>-4.01604297570884227752685546875</LongitudeDegrees>
            </Position>
            <AltitudeMeters>879.5999755859375</AltitudeMeters>
            <DistanceMeters>NAN</DistanceMeters>
          </Trackpoint>
          <Trackpoint>
            <Time>2019-08-01T16:41:24.000Z</Time>
            <Position>
              <LatitudeDegrees>40.59645158238708972930908203125</LatitudeDegrees>
              <LongitudeDegrees>-4.01597960852086544036865234375</LongitudeDegrees>
            </Position>
            <AltitudeMeters>879.4000244140625</AltitudeMeters>
            <DistanceMeters>NAN</DistanceMeters>
          </Trackpoint>
          <Trackpoint>
            <Time>2019-08-01T16:41:25.000Z</Time>
            <Position>
              <LatitudeDegrees>40.5963872931897640228271484375</LatitudeDegrees>
              <LongitudeDegrees>-4.01591775007545948028564453125</LongitudeDegrees>
            </Position>
            <AltitudeMeters>879.5999755859375</AltitudeMeters>
            <DistanceMeters>NAN</DistanceMeters>
          </Trackpoint>
          <Trackpoint>
            <Time>2019-08-01T16:41:26.000Z</Time>
            <Position>
              <LatitudeDegrees>40.596323423087596893310546875</LatitudeDegrees>
              <LongitudeDegrees>-4.01585589163005352020263671875</LongitudeDegrees>
            </Position>
            <AltitudeMeters>879.4000244140625</AltitudeMeters>
            <DistanceMeters>NAN</DistanceMeters>
          </Trackpoint>
          <Trackpoint>
            <Time>2019-08-01T16:41:27.000Z</Time>
            <Position>
              <LatitudeDegrees>40.596260726451873779296875</LatitudeDegrees>
              <LongitudeDegrees>-4.01579403318464756011962890625</LongitudeDegrees>
            </Position>
            <AltitudeMeters>879.4000244140625</AltitudeMeters>
            <DistanceMeters>NAN</DistanceMeters>
          </Trackpoint>
          <Trackpoint>
            <Time>2019-08-01T16:41:28.000Z</Time>
            <Position>
              <LatitudeDegrees>40.596198700368404388427734375</LatitudeDegrees>
              <LongitudeDegrees>-4.01573251001536846160888671875</LongitudeDegrees>
            </Position>
            <AltitudeMeters>879.4000244140625</AltitudeMeters>
            <DistanceMeters>NAN</DistanceMeters>
          </Trackpoint>
          <Trackpoint>
            <Time>2019-08-01T16:41:29.000Z</Time>
            <Position>
              <LatitudeDegrees>40.59613659046590328216552734375</LatitudeDegrees>
              <LongitudeDegrees>-4.0156704001128673553466796875</LongitudeDegrees>
            </Position>
            <AltitudeMeters>879.4000244140625</AltitudeMeters>
            <DistanceMeters>NAN</DistanceMeters>
          </Trackpoint>
          <Trackpoint>
            <Time>2019-08-01T16:41:30.000Z</Time>
            <Position>
              <LatitudeDegrees>40.59607372619211673736572265625</LatitudeDegrees>
              <LongitudeDegrees>-4.015608541667461395263671875</LongitudeDegrees>
            </Position>
            <AltitudeMeters>879.4000244140625</AltitudeMeters>
            <DistanceMeters>NAN</DistanceMeters>
          </Trackpoint>
          <Trackpoint>
            <Time>2019-08-01T16:41:31.000Z</Time>
            <Position>
              <LatitudeDegrees>40.596010945737361907958984375</LatitudeDegrees>
              <LongitudeDegrees>-4.01554509066045284271240234375</LongitudeDegrees>
            </Position>
            <AltitudeMeters>879.4000244140625</AltitudeMeters>
            <DistanceMeters>NAN</DistanceMeters>
          </Trackpoint>
          <Trackpoint>
            <Time>2019-08-01T16:41:32.000Z</Time>
            <Position>
              <LatitudeDegrees>40.5959482491016387939453125</LatitudeDegrees>
              <LongitudeDegrees>-4.01548272930085659027099609375</LongitudeDegrees>
            </Position>
            <AltitudeMeters>879.4000244140625</AltitudeMeters>
            <DistanceMeters>NAN</DistanceMeters>
          </Trackpoint>
          <Trackpoint>
            <Time>2019-08-01T16:41:33.000Z</Time>
            <Position>
              <LatitudeDegrees>40.59588513337075710296630859375</LatitudeDegrees>
              <LongitudeDegrees>-4.015420787036418914794921875</LongitudeDegrees>
            </Position>
            <AltitudeMeters>879.4000244140625</AltitudeMeters>
            <DistanceMeters>NAN</DistanceMeters>
          </Trackpoint>
          <Trackpoint>
            <Time>2019-08-01T16:41:34.000Z</Time>
            <Position>
              <LatitudeDegrees>40.59582226909697055816650390625</LatitudeDegrees>
              <LongitudeDegrees>-4.0153575874865055084228515625</LongitudeDegrees>
            </Position>
            <AltitudeMeters>879.4000244140625</AltitudeMeters>
            <DistanceMeters>NAN</DistanceMeters>
          </Trackpoint>
          <Trackpoint>
            <Time>2019-08-01T16:41:35.000Z</Time>
            <Position>
              <LatitudeDegrees>40.59575923718512058258056640625</LatitudeDegrees>
              <LongitudeDegrees>-4.0152942202985286712646484375</LongitudeDegrees>
            </Position>
            <AltitudeMeters>879.4000244140625</AltitudeMeters>
            <DistanceMeters>NAN</DistanceMeters>
          </Trackpoint>
          <Trackpoint>
            <Time>2019-08-01T16:41:36.000Z</Time>
            <Position>
              <LatitudeDegrees>40.59569670818746089935302734375</LatitudeDegrees>
              <LongitudeDegrees>-4.01523177511990070343017578125</LongitudeDegrees>
            </Position>
            <AltitudeMeters>879.4000244140625</AltitudeMeters>
            <DistanceMeters>NAN</DistanceMeters>
          </Trackpoint>
          <Trackpoint>
            <Time>2019-08-01T16:41:38.000Z</Time>
            <Position>
              <LatitudeDegrees>40.5955729074776172637939453125</LatitudeDegrees>
              <LongitudeDegrees>-4.01510822586715221405029296875</LongitudeDegrees>
            </Position>
            <AltitudeMeters>879.4000244140625</AltitudeMeters>
            <DistanceMeters>NAN</DistanceMeters>
          </Trackpoint>
          <Trackpoint>
            <Time>2019-08-01T16:41:39.000Z</Time>
            <Position>
              <LatitudeDegrees>40.595512054860591888427734375</LatitudeDegrees>
              <LongitudeDegrees>-4.015046618878841400146484375</LongitudeDegrees>
            </Position>
            <AltitudeMeters>879.4000244140625</AltitudeMeters>
            <DistanceMeters>NAN</DistanceMeters>
          </Trackpoint>
          <Trackpoint>
            <Time>2019-08-01T16:41:40.000Z</Time>
            <Position>
              <LatitudeDegrees>40.59545145370066165924072265625</LatitudeDegrees>
              <LongitudeDegrees>-4.01498727500438690185546875</LongitudeDegrees>
            </Position>
            <AltitudeMeters>879.4000244140625</AltitudeMeters>
            <DistanceMeters>NAN</DistanceMeters>
          </Trackpoint>
          <Trackpoint>
            <Time>2019-08-01T16:41:41.000Z</Time>
            <Position>
              <LatitudeDegrees>40.59539093635976314544677734375</LatitudeDegrees>
              <LongitudeDegrees>-4.01492818258702754974365234375</LongitudeDegrees>
            </Position>
            <AltitudeMeters>879.4000244140625</AltitudeMeters>
            <DistanceMeters>NAN</DistanceMeters>
          </Trackpoint>
          <Trackpoint>
            <Time>2019-08-01T16:41:42.000Z</Time>
            <Position>
              <LatitudeDegrees>40.5953313410282135009765625</LatitudeDegrees>
              <LongitudeDegrees>-4.0148687548935413360595703125</LongitudeDegrees>
            </Position>
            <AltitudeMeters>879.4000244140625</AltitudeMeters>
            <DistanceMeters>NAN</DistanceMeters>
          </Trackpoint>
          <Trackpoint>
            <Time>2019-08-01T16:41:43.000Z</Time>
            <Position>
              <LatitudeDegrees>40.5952723324298858642578125</LatitudeDegrees>
              <LongitudeDegrees>-4.01480798609554767608642578125</LongitudeDegrees>
            </Position>
            <AltitudeMeters>879.5999755859375</AltitudeMeters>
            <DistanceMeters>NAN</DistanceMeters>
          </Trackpoint>
          <Trackpoint>
            <Time>2019-08-01T16:41:44.000Z</Time>
            <Position>
              <LatitudeDegrees>40.59521290473639965057373046875</LatitudeDegrees>
              <LongitudeDegrees>-4.0147487260401248931884765625</LongitudeDegrees>
            </Position>
            <AltitudeMeters>879.5999755859375</AltitudeMeters>
            <DistanceMeters>NAN</DistanceMeters>
          </Trackpoint>
          <Trackpoint>
            <Time>2019-08-01T16:41:45.000Z</Time>
            <Position>
              <LatitudeDegrees>40.59515221975743770599365234375</LatitudeDegrees>
              <LongitudeDegrees>-4.0146910585463047027587890625</LongitudeDegrees>
            </Position>
            <AltitudeMeters>879.5999755859375</AltitudeMeters>
            <DistanceMeters>NAN</DistanceMeters>
          </Trackpoint>
          <Trackpoint>
            <Time>2019-08-01T16:41:46.000Z</Time>
            <Position>
              <LatitudeDegrees>40.595091283321380615234375</LatitudeDegrees>
              <LongitudeDegrees>-4.0146313793957233428955078125</LongitudeDegrees>
            </Position>
            <AltitudeMeters>879.5999755859375</AltitudeMeters>
            <DistanceMeters>NAN</DistanceMeters>
          </Trackpoint>
          <Trackpoint>
            <Time>2019-08-01T16:41:47.000Z</Time>
            <Position>
              <LatitudeDegrees>40.59502799995243549346923828125</LatitudeDegrees>
              <LongitudeDegrees>-4.01456843130290508270263671875</LongitudeDegrees>
            </Position>
            <AltitudeMeters>879.5999755859375</AltitudeMeters>
            <DistanceMeters>NAN</DistanceMeters>
          </Trackpoint>
          <Trackpoint>
            <Time>2019-08-01T16:41:48.000Z</Time>
            <Position>
              <LatitudeDegrees>40.59496412985026836395263671875</LatitudeDegrees>
              <LongitudeDegrees>-4.01450573466718196868896484375</LongitudeDegrees>
            </Position>
            <AltitudeMeters>879.5999755859375</AltitudeMeters>
            <DistanceMeters>NAN</DistanceMeters>
          </Trackpoint>
          <Trackpoint>
            <Time>2019-08-01T16:41:49.000Z</Time>
            <Position>
              <LatitudeDegrees>40.59490017592906951904296875</LatitudeDegrees>
              <LongitudeDegrees>-4.01444119401276111602783203125</LongitudeDegrees>
            </Position>
            <AltitudeMeters>879.5999755859375</AltitudeMeters>
            <DistanceMeters>NAN</DistanceMeters>
          </Trackpoint>
          <Trackpoint>
            <Time>2019-08-01T16:41:50.000Z</Time>
            <Position>
              <LatitudeDegrees>40.59483437798917293548583984375</LatitudeDegrees>
              <LongitudeDegrees>-4.01437573134899139404296875</LongitudeDegrees>
            </Position>
            <AltitudeMeters>879.5999755859375</AltitudeMeters>
            <DistanceMeters>NAN</DistanceMeters>
          </Trackpoint>
          <Trackpoint>
            <Time>2019-08-01T16:41:51.000Z</Time>
            <Position>
              <LatitudeDegrees>40.59476665221154689788818359375</LatitudeDegrees>
              <LongitudeDegrees>-4.01430792175233364105224609375</LongitudeDegrees>
            </Position>
            <AltitudeMeters>879.4000244140625</AltitudeMeters>
            <DistanceMeters>NAN</DistanceMeters>
          </Trackpoint>
          <Trackpoint>
            <Time>2019-08-01T16:41:52.000Z</Time>
            <Position>
              <LatitudeDegrees>40.59469725005328655242919921875</LatitudeDegrees>
              <LongitudeDegrees>-4.0142394416034221649169921875</LongitudeDegrees>
            </Position>
            <AltitudeMeters>879.5999755859375</AltitudeMeters>
            <DistanceMeters>NAN</DistanceMeters>
          </Trackpoint>
          <Trackpoint>
            <Time>2019-08-01T16:41:53.000Z</Time>
            <Position>
              <LatitudeDegrees>40.59462600387632846832275390625</LatitudeDegrees>
              <LongitudeDegrees>-4.01417230255901813507080078125</LongitudeDegrees>
            </Position>
            <AltitudeMeters>879.20001220703125</AltitudeMeters>
            <DistanceMeters>NAN</DistanceMeters>
          </Trackpoint>
          <Trackpoint>
            <Time>2019-08-01T16:41:54.000Z</Time>
            <Position>
              <LatitudeDegrees>40.59455391950905323028564453125</LatitudeDegrees>
              <LongitudeDegrees>-4.01410507969558238983154296875</LongitudeDegrees>
            </Position>
            <AltitudeMeters>878.79998779296875</AltitudeMeters>
            <DistanceMeters>NAN</DistanceMeters>
          </Trackpoint>
          <Trackpoint>
            <Time>2019-08-01T16:41:55.000Z</Time>
            <Position>
              <LatitudeDegrees>40.59448175132274627685546875</LatitudeDegrees>
              <LongitudeDegrees>-4.014037437736988067626953125</LongitudeDegrees>
            </Position>
            <AltitudeMeters>878.5999755859375</AltitudeMeters>
            <DistanceMeters>NAN</DistanceMeters>
          </Trackpoint>
          <Trackpoint>
            <Time>2019-08-01T16:41:56.000Z</Time>
            <Position>
              <LatitudeDegrees>40.594409666955471038818359375</LatitudeDegrees>
              <LongitudeDegrees>-4.01396929286420345306396484375</LongitudeDegrees>
            </Position>
            <AltitudeMeters>878.4000244140625</AltitudeMeters>
            <DistanceMeters>NAN</DistanceMeters>
          </Trackpoint>
          <Trackpoint>
            <Time>2019-08-01T16:41:57.000Z</Time>
            <Position>
              <LatitudeDegrees>40.594339258968830108642578125</LatitudeDegrees>
              <LongitudeDegrees>-4.0138998068869113922119140625</LongitudeDegrees>
            </Position>
            <AltitudeMeters>878.20001220703125</AltitudeMeters>
            <DistanceMeters>NAN</DistanceMeters>
          </Trackpoint>
          <Trackpoint>
            <Time>2019-08-01T16:41:58.000Z</Time>
            <Position>
              <LatitudeDegrees>40.5942703597247600555419921875</LatitudeDegrees>
              <LongitudeDegrees>-4.01383082382380962371826171875</LongitudeDegrees>
            </Position>
            <AltitudeMeters>878</AltitudeMeters>
            <DistanceMeters>NAN</DistanceMeters>
          </Trackpoint>
          <Trackpoint>
            <Time>2019-08-01T16:41:59.000Z</Time>
            <Position>
              <LatitudeDegrees>40.59420146048069000244140625</LatitudeDegrees>
              <LongitudeDegrees>-4.01376276277005672454833984375</LongitudeDegrees>
            </Position>
            <AltitudeMeters>877.79998779296875</AltitudeMeters>
            <DistanceMeters>NAN</DistanceMeters>
          </Trackpoint>
          <Trackpoint>
            <Time>2019-08-01T16:42:00.000Z</Time>
            <Position>
              <LatitudeDegrees>40.594134069979190826416015625</LatitudeDegrees>
              <LongitudeDegrees>-4.0136969648301601409912109375</LongitudeDegrees>
            </Position>
            <AltitudeMeters>877.5999755859375</AltitudeMeters>
            <DistanceMeters>NAN</DistanceMeters>
          </Trackpoint>
          <Trackpoint>
            <Time>2019-08-01T16:42:01.000Z</Time>
            <Position>
              <LatitudeDegrees>40.5940678529441356658935546875</LatitudeDegrees>
              <LongitudeDegrees>-4.01363267563283443450927734375</LongitudeDegrees>
            </Position>
            <AltitudeMeters>877.5999755859375</AltitudeMeters>
            <DistanceMeters>NAN</DistanceMeters>
          </Trackpoint>
          <Trackpoint>
            <Time>2019-08-01T16:42:02.000Z</Time>
            <Position>
              <LatitudeDegrees>40.594003312289714813232421875</LatitudeDegrees>
              <LongitudeDegrees>-4.0135695599019527435302734375</LongitudeDegrees>
            </Position>
            <AltitudeMeters>877.4000244140625</AltitudeMeters>
            <DistanceMeters>NAN</DistanceMeters>
          </Trackpoint>
          <Trackpoint>
            <Time>2019-08-01T16:42:03.000Z</Time>
            <Position>
              <LatitudeDegrees>40.59394002892076969146728515625</LatitudeDegrees>
              <LongitudeDegrees>-4.0135082043707370758056640625</LongitudeDegrees>
            </Position>
            <AltitudeMeters>877.20001220703125</AltitudeMeters>
            <DistanceMeters>NAN</DistanceMeters>
          </Trackpoint>
          <Trackpoint>
            <Time>2019-08-01T16:42:04.000Z</Time>
            <Position>
              <LatitudeDegrees>40.5938764102756977081298828125</LatitudeDegrees>
              <LongitudeDegrees>-4.01344827376306056976318359375</LongitudeDegrees>
            </Position>
            <AltitudeMeters>877</AltitudeMeters>
            <DistanceMeters>NAN</DistanceMeters>
          </Trackpoint>
          <Trackpoint>
            <Time>2019-08-01T16:42:05.000Z</Time>
            <Position>
              <LatitudeDegrees>40.59381362982094287872314453125</LatitudeDegrees>
              <LongitudeDegrees>-4.0133875049650669097900390625</LongitudeDegrees>
            </Position>
            <AltitudeMeters>876.79998779296875</AltitudeMeters>
            <DistanceMeters>NAN</DistanceMeters>
          </Trackpoint>
          <Trackpoint>
            <Time>2019-08-01T16:42:06.000Z</Time>
            <Position>
              <LatitudeDegrees>40.593751184642314910888671875</LatitudeDegrees>
              <LongitudeDegrees>-4.013326652348041534423828125</LongitudeDegrees>
            </Position>
            <AltitudeMeters>876.79998779296875</AltitudeMeters>
            <DistanceMeters>NAN</DistanceMeters>
          </Trackpoint>
          <Trackpoint>
            <Time>2019-08-01T16:42:07.000Z</Time>
            <Position>
              <LatitudeDegrees>40.5936889909207820892333984375</LatitudeDegrees>
              <LongitudeDegrees>-4.0132671408355236053466796875</LongitudeDegrees>
            </Position>
            <AltitudeMeters>876.79998779296875</AltitudeMeters>
            <DistanceMeters>NAN</DistanceMeters>
          </Trackpoint>
          <Trackpoint>
            <Time>2019-08-01T16:42:08.000Z</Time>
            <Position>
              <LatitudeDegrees>40.5936269648373126983642578125</LatitudeDegrees>
              <LongitudeDegrees>-4.01320620439946651458740234375</LongitudeDegrees>
            </Position>
            <AltitudeMeters>876.79998779296875</AltitudeMeters>
            <DistanceMeters>NAN</DistanceMeters>
          </Trackpoint>
          <Trackpoint>
            <Time>2019-08-01T16:42:09.000Z</Time>
            <Position>
              <LatitudeDegrees>40.5935649387538433074951171875</LatitudeDegrees>
              <LongitudeDegrees>-4.01314602233469486236572265625</LongitudeDegrees>
            </Position>
            <AltitudeMeters>876.79998779296875</AltitudeMeters>
            <DistanceMeters>NAN</DistanceMeters>
          </Trackpoint>
          <Trackpoint>
            <Time>2019-08-01T16:42:10.000Z</Time>
            <Position>
              <LatitudeDegrees>40.59350282885134220123291015625</LatitudeDegrees>
              <LongitudeDegrees>-4.01308550499379634857177734375</LongitudeDegrees>
            </Position>
            <AltitudeMeters>876.5999755859375</AltitudeMeters>
            <DistanceMeters>NAN</DistanceMeters>
          </Trackpoint>
          <Trackpoint>
            <Time>2019-08-01T16:42:11.000Z</Time>
            <Position>
              <LatitudeDegrees>40.59344097040593624114990234375</LatitudeDegrees>
              <LongitudeDegrees>-4.01302565820515155792236328125</LongitudeDegrees>
            </Position>
            <AltitudeMeters>876.5999755859375</AltitudeMeters>
            <DistanceMeters>NAN</DistanceMeters>
          </Trackpoint>
          <Trackpoint>
            <Time>2019-08-01T16:42:12.000Z</Time>
            <Position>
              <LatitudeDegrees>40.59337961487472057342529296875</LatitudeDegrees>
              <LongitudeDegrees>-4.012965895235538482666015625</LongitudeDegrees>
            </Position>
            <AltitudeMeters>876.5999755859375</AltitudeMeters>
            <DistanceMeters>NAN</DistanceMeters>
          </Trackpoint>
          <Trackpoint>
            <Time>2019-08-01T16:42:14.000Z</Time>
            <Position>
              <LatitudeDegrees>40.593256652355194091796875</LatitudeDegrees>
              <LongitudeDegrees>-4.0128443576395511627197265625</LongitudeDegrees>
            </Position>
            <AltitudeMeters>876.5999755859375</AltitudeMeters>
            <DistanceMeters>NAN</DistanceMeters>
          </Trackpoint>
          <Trackpoint>
            <Time>2019-08-01T16:42:15.000Z</Time>
            <Position>
              <LatitudeDegrees>40.59319621883332729339599609375</LatitudeDegrees>
              <LongitudeDegrees>-4.01278409175574779510498046875</LongitudeDegrees>
            </Position>
            <AltitudeMeters>876.4000244140625</AltitudeMeters>
            <DistanceMeters>NAN</DistanceMeters>
          </Trackpoint>
          <Trackpoint>
            <Time>2019-08-01T16:42:16.000Z</Time>
            <Position>
              <LatitudeDegrees>40.5931364558637142181396484375</LatitudeDegrees>
              <LongitudeDegrees>-4.01272508315742015838623046875</LongitudeDegrees>
            </Position>
            <AltitudeMeters>876.4000244140625</AltitudeMeters>
            <DistanceMeters>NAN</DistanceMeters>
          </Trackpoint>
          <Trackpoint>
            <Time>2019-08-01T16:42:17.000Z</Time>
            <Position>
              <LatitudeDegrees>40.59307618997991085052490234375</LatitudeDegrees>
              <LongitudeDegrees>-4.01266540400683879852294921875</LongitudeDegrees>
            </Position>
            <AltitudeMeters>876.4000244140625</AltitudeMeters>
            <DistanceMeters>NAN</DistanceMeters>
          </Trackpoint>
          <Trackpoint>
            <Time>2019-08-01T16:42:18.000Z</Time>
            <Position>
              <LatitudeDegrees>40.59301500208675861358642578125</LatitudeDegrees>
              <LongitudeDegrees>-4.0126049704849720001220703125</LongitudeDegrees>
            </Position>
            <AltitudeMeters>876.20001220703125</AltitudeMeters>
            <DistanceMeters>NAN</DistanceMeters>
          </Trackpoint>
          <Trackpoint>
            <Time>2019-08-01T16:42:19.000Z</Time>
            <Position>
              <LatitudeDegrees>40.59295264072716236114501953125</LatitudeDegrees>
              <LongitudeDegrees>-4.012544788420200347900390625</LongitudeDegrees>
            </Position>
            <AltitudeMeters>876</AltitudeMeters>
            <DistanceMeters>NAN</DistanceMeters>
          </Trackpoint>
          <Trackpoint>
            <Time>2019-08-01T16:42:20.000Z</Time>
            <Position>
              <LatitudeDegrees>40.59289094991981983184814453125</LatitudeDegrees>
              <LongitudeDegrees>-4.0124852769076824188232421875</LongitudeDegrees>
            </Position>
            <AltitudeMeters>876</AltitudeMeters>
            <DistanceMeters>NAN</DistanceMeters>
          </Trackpoint>
          <Trackpoint>
            <Time>2019-08-01T16:42:21.000Z</Time>
            <Position>
              <LatitudeDegrees>40.5928293429315090179443359375</LatitudeDegrees>
              <LongitudeDegrees>-4.012426435947418212890625</LongitudeDegrees>
            </Position>
            <AltitudeMeters>875.79998779296875</AltitudeMeters>
            <DistanceMeters>NAN</DistanceMeters>
          </Trackpoint>
          <Trackpoint>
            <Time>2019-08-01T16:42:23.000Z</Time>
            <Position>
              <LatitudeDegrees>40.59270738624036312103271484375</LatitudeDegrees>
              <LongitudeDegrees>-4.01230582036077976226806640625</LongitudeDegrees>
            </Position>
            <AltitudeMeters>875.5999755859375</AltitudeMeters>
            <DistanceMeters>NAN</DistanceMeters>
          </Trackpoint>
          <Trackpoint>
            <Time>2019-08-01T16:42:24.000Z</Time>
            <Position>
              <LatitudeDegrees>40.592647455632686614990234375</LatitudeDegrees>
              <LongitudeDegrees>-4.0122438780963420867919921875</LongitudeDegrees>
            </Position>
            <AltitudeMeters>875.5999755859375</AltitudeMeters>
            <DistanceMeters>NAN</DistanceMeters>
          </Trackpoint>
          <Trackpoint>
            <Time>2019-08-01T16:42:25.000Z</Time>
            <Position>
              <LatitudeDegrees>40.5925866030156612396240234375</LatitudeDegrees>
              <LongitudeDegrees>-4.01217900216579437255859375</LongitudeDegrees>
            </Position>
            <AltitudeMeters>875.4000244140625</AltitudeMeters>
            <DistanceMeters>NAN</DistanceMeters>
          </Trackpoint>
          <Trackpoint>
            <Time>2019-08-01T16:42:26.000Z</Time>
            <Position>
              <LatitudeDegrees>40.592526756227016448974609375</LatitudeDegrees>
              <LongitudeDegrees>-4.0121144615113735198974609375</LongitudeDegrees>
            </Position>
            <AltitudeMeters>875.20001220703125</AltitudeMeters>
            <DistanceMeters>NAN</DistanceMeters>
          </Trackpoint>
          <Trackpoint>
            <Time>2019-08-01T16:42:27.000Z</Time>
            <Position>
              <LatitudeDegrees>40.5924675799906253814697265625</LatitudeDegrees>
              <LongitudeDegrees>-4.0120500884950160980224609375</LongitudeDegrees>
            </Position>
            <AltitudeMeters>875.20001220703125</AltitudeMeters>
            <DistanceMeters>NAN</DistanceMeters>
          </Trackpoint>
          <Trackpoint>
            <Time>2019-08-01T16:42:28.000Z</Time>
            <Position>
              <LatitudeDegrees>40.59240932576358318328857421875</LatitudeDegrees>
              <LongitudeDegrees>-4.0119850449264049530029296875</LongitudeDegrees>
            </Position>
            <AltitudeMeters>875.20001220703125</AltitudeMeters>
            <DistanceMeters>NAN</DistanceMeters>
          </Trackpoint>
          <Trackpoint>
            <Time>2019-08-01T16:42:29.000Z</Time>
            <Position>
              <LatitudeDegrees>40.5923522450029850006103515625</LatitudeDegrees>
              <LongitudeDegrees>-4.01192025281488895416259765625</LongitudeDegrees>
            </Position>
            <AltitudeMeters>875</AltitudeMeters>
            <DistanceMeters>NAN</DistanceMeters>
          </Trackpoint>
          <Trackpoint>
            <Time>2019-08-01T16:42:30.000Z</Time>
            <Position>
              <LatitudeDegrees>40.592296086251735687255859375</LatitudeDegrees>
              <LongitudeDegrees>-4.01185655035078525543212890625</LongitudeDegrees>
            </Position>
            <AltitudeMeters>875</AltitudeMeters>
            <DistanceMeters>NAN</DistanceMeters>
          </Trackpoint>
          <Trackpoint>
            <Time>2019-08-01T16:42:31.000Z</Time>
            <Position>
              <LatitudeDegrees>40.592241100966930389404296875</LatitudeDegrees>
              <LongitudeDegrees>-4.01179435662925243377685546875</LongitudeDegrees>
            </Position>
            <AltitudeMeters>875</AltitudeMeters>
            <DistanceMeters>NAN</DistanceMeters>
          </Trackpoint>
          <Trackpoint>
            <Time>2019-08-01T16:42:32.000Z</Time>
            <Position>
              <LatitudeDegrees>40.5921859480440616607666015625</LatitudeDegrees>
              <LongitudeDegrees>-4.01173719204962253570556640625</LongitudeDegrees>
            </Position>
            <AltitudeMeters>875</AltitudeMeters>
            <DistanceMeters>NAN</DistanceMeters>
          </Trackpoint>
          <Trackpoint>
            <Time>2019-08-01T16:42:33.000Z</Time>
            <Position>
              <LatitudeDegrees>40.59212484396994113922119140625</LatitudeDegrees>
              <LongitudeDegrees>-4.01169528253376483917236328125</LongitudeDegrees>
            </Position>
            <AltitudeMeters>874.79998779296875</AltitudeMeters>
            <DistanceMeters>NAN</DistanceMeters>
          </Trackpoint>
          <Trackpoint>
            <Time>2019-08-01T16:42:34.000Z</Time>
            <Position>
              <LatitudeDegrees>40.59205611236393451690673828125</LatitudeDegrees>
              <LongitudeDegrees>-4.011671729385852813720703125</LongitudeDegrees>
            </Position>
            <AltitudeMeters>874.79998779296875</AltitudeMeters>
            <DistanceMeters>NAN</DistanceMeters>
          </Trackpoint>
          <Trackpoint>
            <Time>2019-08-01T16:42:35.000Z</Time>
            <Position>
              <LatitudeDegrees>40.5919841118156909942626953125</LatitudeDegrees>
              <LongitudeDegrees>-4.0116578154265880584716796875</LongitudeDegrees>
            </Position>
            <AltitudeMeters>874.79998779296875</AltitudeMeters>
            <DistanceMeters>NAN</DistanceMeters>
          </Trackpoint>
          <Trackpoint>
            <Time>2019-08-01T16:42:36.000Z</Time>
            <Position>
              <LatitudeDegrees>40.59191328473389148712158203125</LatitudeDegrees>
              <LongitudeDegrees>-4.01164297945797443389892578125</LongitudeDegrees>
            </Position>
            <AltitudeMeters>874.5999755859375</AltitudeMeters>
            <DistanceMeters>NAN</DistanceMeters>
          </Trackpoint>
          <Trackpoint>
            <Time>2019-08-01T16:42:37.000Z</Time>
            <Position>
              <LatitudeDegrees>40.5918426252901554107666015625</LatitudeDegrees>
              <LongitudeDegrees>-4.0116112120449542999267578125</LongitudeDegrees>
            </Position>
            <AltitudeMeters>874.5999755859375</AltitudeMeters>
            <DistanceMeters>NAN</DistanceMeters>
          </Trackpoint>
          <Trackpoint>
            <Time>2019-08-01T16:42:38.000Z</Time>
            <Position>
              <LatitudeDegrees>40.59177380986511707305908203125</LatitudeDegrees>
              <LongitudeDegrees>-4.0115716494619846343994140625</LongitudeDegrees>
            </Position>
            <AltitudeMeters>874.4000244140625</AltitudeMeters>
            <DistanceMeters>NAN</DistanceMeters>
          </Trackpoint>
          <Trackpoint>
            <Time>2019-08-01T16:42:39.000Z</Time>
            <Position>
              <LatitudeDegrees>40.59170239605009555816650390625</LatitudeDegrees>
              <LongitudeDegrees>-4.0115381218492984771728515625</LongitudeDegrees>
            </Position>
            <AltitudeMeters>874.4000244140625</AltitudeMeters>
            <DistanceMeters>NAN</DistanceMeters>
          </Trackpoint>
          <Trackpoint>
            <Time>2019-08-01T16:42:40.000Z</Time>
            <Position>
              <LatitudeDegrees>40.59162788093090057373046875</LatitudeDegrees>
              <LongitudeDegrees>-4.01152311824262142181396484375</LongitudeDegrees>
            </Position>
            <AltitudeMeters>874.20001220703125</AltitudeMeters>
            <DistanceMeters>NAN</DistanceMeters>
          </Trackpoint>
          <Trackpoint>
            <Time>2019-08-01T16:42:41.000Z</Time>
            <Position>
              <LatitudeDegrees>40.5915526114404201507568359375</LatitudeDegrees>
              <LongitudeDegrees>-4.0115206874907016754150390625</LongitudeDegrees>
            </Position>
            <AltitudeMeters>874.20001220703125</AltitudeMeters>
            <DistanceMeters>NAN</DistanceMeters>
          </Trackpoint>
          <Trackpoint>
            <Time>2019-08-01T16:42:42.000Z</Time>
            <Position>
              <LatitudeDegrees>40.5914778448641300201416015625</LatitudeDegrees>
              <LongitudeDegrees>-4.0115206874907016754150390625</LongitudeDegrees>
            </Position>
            <AltitudeMeters>874.20001220703125</AltitudeMeters>
            <DistanceMeters>NAN</DistanceMeters>
          </Trackpoint>
          <Trackpoint>
            <Time>2019-08-01T16:42:43.000Z</Time>
            <Position>
              <LatitudeDegrees>40.591403581202030181884765625</LatitudeDegrees>
              <LongitudeDegrees>-4.01151775382459163665771484375</LongitudeDegrees>
            </Position>
            <AltitudeMeters>873.79998779296875</AltitudeMeters>
            <DistanceMeters>NAN</DistanceMeters>
          </Trackpoint>
          <Trackpoint>
            <Time>2019-08-01T16:42:44.000Z</Time>
            <Position>
              <LatitudeDegrees>40.5913303233683109283447265625</LatitudeDegrees>
              <LongitudeDegrees>-4.0115131437778472900390625</LongitudeDegrees>
            </Position>
            <AltitudeMeters>873.5999755859375</AltitudeMeters>
            <DistanceMeters>NAN</DistanceMeters>
          </Trackpoint>
          <Trackpoint>
            <Time>2019-08-01T16:42:45.000Z</Time>
            <Position>
              <LatitudeDegrees>40.591257400810718536376953125</LatitudeDegrees>
              <LongitudeDegrees>-4.01150970719754695892333984375</LongitudeDegrees>
            </Position>
            <AltitudeMeters>873.5999755859375</AltitudeMeters>
            <DistanceMeters>NAN</DistanceMeters>
          </Trackpoint>
          <Trackpoint>
            <Time>2019-08-01T16:42:46.000Z</Time>
            <Position>
              <LatitudeDegrees>40.59118422679603099822998046875</LatitudeDegrees>
              <LongitudeDegrees>-4.01150576770305633544921875</LongitudeDegrees>
            </Position>
            <AltitudeMeters>873.4000244140625</AltitudeMeters>
            <DistanceMeters>NAN</DistanceMeters>
          </Trackpoint>
          <Trackpoint>
            <Time>2019-08-01T16:42:47.000Z</Time>
            <Position>
              <LatitudeDegrees>40.59111046604812145233154296875</LatitudeDegrees>
              <LongitudeDegrees>-4.01150249876081943511962890625</LongitudeDegrees>
            </Position>
            <AltitudeMeters>873.4000244140625</AltitudeMeters>
            <DistanceMeters>NAN</DistanceMeters>
          </Trackpoint>
          <Trackpoint>
            <Time>2019-08-01T16:42:48.000Z</Time>
            <Position>
              <LatitudeDegrees>40.5910372920334339141845703125</LatitudeDegrees>
              <LongitudeDegrees>-4.01150015182793140411376953125</LongitudeDegrees>
            </Position>
            <AltitudeMeters>873.4000244140625</AltitudeMeters>
            <DistanceMeters>NAN</DistanceMeters>
          </Trackpoint>
          <Trackpoint>
            <Time>2019-08-01T16:42:49.000Z</Time>
            <Position>
              <LatitudeDegrees>40.59096403419971466064453125</LatitudeDegrees>
              <LongitudeDegrees>-4.01149780489504337310791015625</LongitudeDegrees>
            </Position>
            <AltitudeMeters>873.20001220703125</AltitudeMeters>
            <DistanceMeters>NAN</DistanceMeters>
          </Trackpoint>
          <Trackpoint>
            <Time>2019-08-01T16:42:50.000Z</Time>
            <Position>
              <LatitudeDegrees>40.59089119546115398406982421875</LatitudeDegrees>
              <LongitudeDegrees>-4.0114955417811870574951171875</LongitudeDegrees>
            </Position>
            <AltitudeMeters>873.20001220703125</AltitudeMeters>
            <DistanceMeters>NAN</DistanceMeters>
          </Trackpoint>
          <Trackpoint>
            <Time>2019-08-01T16:42:51.000Z</Time>
            <Position>
              <LatitudeDegrees>40.590818859636783599853515625</LatitudeDegrees>
              <LongitudeDegrees>-4.0114948712289333343505859375</LongitudeDegrees>
            </Position>
            <AltitudeMeters>873.20001220703125</AltitudeMeters>
            <DistanceMeters>NAN</DistanceMeters>
          </Trackpoint>
          <Trackpoint>
            <Time>2019-08-01T16:42:52.000Z</Time>
            <Position>
              <LatitudeDegrees>40.5907469429075717926025390625</LatitudeDegrees>
              <LongitudeDegrees>-4.011494703590869903564453125</LongitudeDegrees>
            </Position>
            <AltitudeMeters>873.20001220703125</AltitudeMeters>
            <DistanceMeters>NAN</DistanceMeters>
          </Trackpoint>
          <Trackpoint>
            <Time>2019-08-01T16:42:53.000Z</Time>
            <Position>
              <LatitudeDegrees>40.59067594818770885467529296875</LatitudeDegrees>
              <LongitudeDegrees>-4.011496715247631072998046875</LongitudeDegrees>
            </Position>
            <AltitudeMeters>873.20001220703125</AltitudeMeters>
            <DistanceMeters>NAN</DistanceMeters>
          </Trackpoint>
          <Trackpoint>
            <Time>2019-08-01T16:42:54.000Z</Time>
            <Position>
              <LatitudeDegrees>40.59060486964881420135498046875</LatitudeDegrees>
              <LongitudeDegrees>-4.01150166057050228118896484375</LongitudeDegrees>
            </Position>
            <AltitudeMeters>873</AltitudeMeters>
            <DistanceMeters>NAN</DistanceMeters>
          </Trackpoint>
          <Trackpoint>
            <Time>2019-08-01T16:42:55.000Z</Time>
            <Position>
              <LatitudeDegrees>40.590534545481204986572265625</LatitudeDegrees>
              <LongitudeDegrees>-4.0115086175501346588134765625</LongitudeDegrees>
            </Position>
            <AltitudeMeters>873</AltitudeMeters>
            <DistanceMeters>NAN</DistanceMeters>
          </Trackpoint>
          <Trackpoint>
            <Time>2019-08-01T16:42:56.000Z</Time>
            <Position>
              <LatitudeDegrees>40.590465478599071502685546875</LatitudeDegrees>
              <LongitudeDegrees>-4.011519514024257659912109375</LongitudeDegrees>
            </Position>
            <AltitudeMeters>873</AltitudeMeters>
            <DistanceMeters>NAN</DistanceMeters>
          </Trackpoint>
          <Trackpoint>
            <Time>2019-08-01T16:42:57.000Z</Time>
            <Position>
              <LatitudeDegrees>40.590397752821445465087890625</LatitudeDegrees>
              <LongitudeDegrees>-4.01153250597417354583740234375</LongitudeDegrees>
            </Position>
            <AltitudeMeters>873</AltitudeMeters>
            <DistanceMeters>NAN</DistanceMeters>
          </Trackpoint>
          <Trackpoint>
            <Time>2019-08-01T16:42:58.000Z</Time>
            <Position>
              <LatitudeDegrees>40.5903303623199462890625</LatitudeDegrees>
              <LongitudeDegrees>-4.01154340244829654693603515625</LongitudeDegrees>
            </Position>
            <AltitudeMeters>873</AltitudeMeters>
            <DistanceMeters>NAN</DistanceMeters>
          </Trackpoint>
          <Trackpoint>
            <Time>2019-08-01T16:42:59.000Z</Time>
            <Position>
              <LatitudeDegrees>40.59026255272328853607177734375</LatitudeDegrees>
              <LongitudeDegrees>-4.0115528739988803863525390625</LongitudeDegrees>
            </Position>
            <AltitudeMeters>873</AltitudeMeters>
            <DistanceMeters>NAN</DistanceMeters>
          </Trackpoint>
          <Trackpoint>
            <Time>2019-08-01T16:43:00.000Z</Time>
            <Position>
              <LatitudeDegrees>40.59019499458372592926025390625</LatitudeDegrees>
              <LongitudeDegrees>-4.0115629322826862335205078125</LongitudeDegrees>
            </Position>
            <AltitudeMeters>873</AltitudeMeters>
            <DistanceMeters>NAN</DistanceMeters>
          </Trackpoint>
          <Trackpoint>
            <Time>2019-08-01T16:43:01.000Z</Time>
            <Position>
              <LatitudeDegrees>40.59012726880609989166259765625</LatitudeDegrees>
              <LongitudeDegrees>-4.01157273910939693450927734375</LongitudeDegrees>
            </Position>
            <AltitudeMeters>873</AltitudeMeters>
            <DistanceMeters>NAN</DistanceMeters>
          </Trackpoint>
          <Trackpoint>
            <Time>2019-08-01T16:43:03.000Z</Time>
            <Position>
              <LatitudeDegrees>40.58999575674533843994140625</LatitudeDegrees>
              <LongitudeDegrees>-4.01159050874412059783935546875</LongitudeDegrees>
            </Position>
            <AltitudeMeters>873.20001220703125</AltitudeMeters>
            <DistanceMeters>NAN</DistanceMeters>
          </Trackpoint>
          <Trackpoint>
            <Time>2019-08-01T16:43:05.000Z</Time>
            <Position>
              <LatitudeDegrees>40.5898678489029407501220703125</LatitudeDegrees>
              <LongitudeDegrees>-4.011607356369495391845703125</LongitudeDegrees>
            </Position>
            <AltitudeMeters>873.20001220703125</AltitudeMeters>
            <DistanceMeters>NAN</DistanceMeters>
          </Trackpoint>
          <Trackpoint>
            <Time>2019-08-01T16:43:06.000Z</Time>
            <Position>
              <LatitudeDegrees>40.589804984629154205322265625</LatitudeDegrees>
              <LongitudeDegrees>-4.01161682792007923126220703125</LongitudeDegrees>
            </Position>
            <AltitudeMeters>873.20001220703125</AltitudeMeters>
            <DistanceMeters>NAN</DistanceMeters>
          </Trackpoint>
          <Trackpoint>
            <Time>2019-08-01T16:43:07.000Z</Time>
            <Position>
              <LatitudeDegrees>40.589742623269557952880859375</LatitudeDegrees>
              <LongitudeDegrees>-4.0116257965564727783203125</LongitudeDegrees>
            </Position>
            <AltitudeMeters>873.20001220703125</AltitudeMeters>
            <DistanceMeters>NAN</DistanceMeters>
          </Trackpoint>
          <Trackpoint>
            <Time>2019-08-01T16:43:08.000Z</Time>
            <Position>
              <LatitudeDegrees>40.58968001045286655426025390625</LatitudeDegrees>
              <LongitudeDegrees>-4.011635519564151763916015625</LongitudeDegrees>
            </Position>
            <AltitudeMeters>873.20001220703125</AltitudeMeters>
            <DistanceMeters>NAN</DistanceMeters>
          </Trackpoint>
          <Trackpoint>
            <Time>2019-08-01T16:43:09.000Z</Time>
            <Position>
              <LatitudeDegrees>40.589617229998111724853515625</LatitudeDegrees>
              <LongitudeDegrees>-4.01164515875279903411865234375</LongitudeDegrees>
            </Position>
            <AltitudeMeters>873.20001220703125</AltitudeMeters>
            <DistanceMeters>NAN</DistanceMeters>
          </Trackpoint>
          <Trackpoint>
            <Time>2019-08-01T16:43:10.000Z</Time>
            <Position>
              <LatitudeDegrees>40.589554868638515472412109375</LatitudeDegrees>
              <LongitudeDegrees>-4.01165488176047801971435546875</LongitudeDegrees>
            </Position>
            <AltitudeMeters>873.4000244140625</AltitudeMeters>
            <DistanceMeters>NAN</DistanceMeters>
          </Trackpoint>
          <Trackpoint>
            <Time>2019-08-01T16:43:11.000Z</Time>
            <Position>
              <LatitudeDegrees>40.5894921720027923583984375</LatitudeDegrees>
              <LongitudeDegrees>-4.01166426949203014373779296875</LongitudeDegrees>
            </Position>
            <AltitudeMeters>873.79998779296875</AltitudeMeters>
            <DistanceMeters>NAN</DistanceMeters>
          </Trackpoint>
          <Trackpoint>
            <Time>2019-08-01T16:43:12.000Z</Time>
            <Position>
              <LatitudeDegrees>40.58942922390997409820556640625</LatitudeDegrees>
              <LongitudeDegrees>-4.0116749145090579986572265625</LongitudeDegrees>
            </Position>
            <AltitudeMeters>874</AltitudeMeters>
            <DistanceMeters>NAN</DistanceMeters>
          </Trackpoint>
          <Trackpoint>
            <Time>2019-08-01T16:43:13.000Z</Time>
            <Position>
              <LatitudeDegrees>40.58936635963618755340576171875</LatitudeDegrees>
              <LongitudeDegrees>-4.01168555952608585357666015625</LongitudeDegrees>
            </Position>
            <AltitudeMeters>874</AltitudeMeters>
            <DistanceMeters>NAN</DistanceMeters>
          </Trackpoint>
          <Trackpoint>
            <Time>2019-08-01T16:43:14.000Z</Time>
            <Position>
              <LatitudeDegrees>40.5893035791814327239990234375</LatitudeDegrees>
              <LongitudeDegrees>-4.01169486343860626220703125</LongitudeDegrees>
            </Position>
            <AltitudeMeters>874.20001220703125</AltitudeMeters>
            <DistanceMeters>NAN</DistanceMeters>
          </Trackpoint>
          <Trackpoint>
            <Time>2019-08-01T16:43:15.000Z</Time>
            <Position>
              <LatitudeDegrees>40.5892412178218364715576171875</LatitudeDegrees>
              <LongitudeDegrees>-4.0117034129798412322998046875</LongitudeDegrees>
            </Position>
            <AltitudeMeters>874.5999755859375</AltitudeMeters>
            <DistanceMeters>NAN</DistanceMeters>
          </Trackpoint>
          <Trackpoint>
            <Time>2019-08-01T16:43:16.000Z</Time>
            <Position>
              <LatitudeDegrees>40.58917961083352565765380859375</LatitudeDegrees>
              <LongitudeDegrees>-4.011712968349456787109375</LongitudeDegrees>
            </Position>
            <AltitudeMeters>874.79998779296875</AltitudeMeters>
            <DistanceMeters>NAN</DistanceMeters>
          </Trackpoint>
          <Trackpoint>
            <Time>2019-08-01T16:43:17.000Z</Time>
            <Position>
              <LatitudeDegrees>40.5891193449497222900390625</LatitudeDegrees>
              <LongitudeDegrees>-4.0117221884429454803466796875</LongitudeDegrees>
            </Position>
            <AltitudeMeters>875</AltitudeMeters>
            <DistanceMeters>NAN</DistanceMeters>
          </Trackpoint>
          <Trackpoint>
            <Time>2019-08-01T16:43:18.000Z</Time>
            <Position>
              <LatitudeDegrees>40.58906192891299724578857421875</LatitudeDegrees>
              <LongitudeDegrees>-4.01173048652708530426025390625</LongitudeDegrees>
            </Position>
            <AltitudeMeters>875</AltitudeMeters>
            <DistanceMeters>NAN</DistanceMeters>
          </Trackpoint>
          <Trackpoint>
            <Time>2019-08-01T16:43:19.000Z</Time>
            <Position>
              <LatitudeDegrees>40.58900627307593822479248046875</LatitudeDegrees>
              <LongitudeDegrees>-4.011739790439605712890625</LongitudeDegrees>
            </Position>
            <AltitudeMeters>875.20001220703125</AltitudeMeters>
            <DistanceMeters>NAN</DistanceMeters>
          </Trackpoint>
          <Trackpoint>
            <Time>2019-08-01T16:43:20.000Z</Time>
            <Position>
              <LatitudeDegrees>40.58895195834338665008544921875</LatitudeDegrees>
              <LongitudeDegrees>-4.01174942962825298309326171875</LongitudeDegrees>
            </Position>
            <AltitudeMeters>875.4000244140625</AltitudeMeters>
            <DistanceMeters>NAN</DistanceMeters>
          </Trackpoint>
          <Trackpoint>
            <Time>2019-08-01T16:43:21.000Z</Time>
            <Position>
              <LatitudeDegrees>40.588898397982120513916015625</LatitudeDegrees>
              <LongitudeDegrees>-4.01175730861723423004150390625</LongitudeDegrees>
            </Position>
            <AltitudeMeters>875.4000244140625</AltitudeMeters>
            <DistanceMeters>NAN</DistanceMeters>
          </Trackpoint>
          <Trackpoint>
            <Time>2019-08-01T16:43:22.000Z</Time>
            <Position>
              <LatitudeDegrees>40.5888455919921398162841796875</LatitudeDegrees>
              <LongitudeDegrees>-4.01176418177783489227294921875</LongitudeDegrees>
            </Position>
            <AltitudeMeters>875.4000244140625</AltitudeMeters>
            <DistanceMeters>NAN</DistanceMeters>
          </Trackpoint>
          <Trackpoint>
            <Time>2019-08-01T16:43:23.000Z</Time>
            <Position>
              <LatitudeDegrees>40.5887939594686031341552734375</LatitudeDegrees>
              <LongitudeDegrees>-4.01177055202424526214599609375</LongitudeDegrees>
            </Position>
            <AltitudeMeters>875.4000244140625</AltitudeMeters>
            <DistanceMeters>NAN</DistanceMeters>
          </Trackpoint>
          <Trackpoint>
            <Time>2019-08-01T16:43:24.000Z</Time>
            <Position>
              <LatitudeDegrees>40.5887429974973201751708984375</LatitudeDegrees>
              <LongitudeDegrees>-4.011777676641941070556640625</LongitudeDegrees>
            </Position>
            <AltitudeMeters>875.5999755859375</AltitudeMeters>
            <DistanceMeters>NAN</DistanceMeters>
          </Trackpoint>
          <Trackpoint>
            <Time>2019-08-01T16:43:25.000Z</Time>
            <Position>
              <LatitudeDegrees>40.5886910296976566314697265625</LatitudeDegrees>
              <LongitudeDegrees>-4.01178463362157344818115234375</LongitudeDegrees>
            </Position>
            <AltitudeMeters>875.5999755859375</AltitudeMeters>
            <DistanceMeters>NAN</DistanceMeters>
          </Trackpoint>
          <Trackpoint>
            <Time>2019-08-01T16:43:26.000Z</Time>
            <Position>
              <LatitudeDegrees>40.588637553155422210693359375</LatitudeDegrees>
              <LongitudeDegrees>-4.0117909200489521026611328125</LongitudeDegrees>
            </Position>
            <AltitudeMeters>875.5999755859375</AltitudeMeters>
            <DistanceMeters>NAN</DistanceMeters>
          </Trackpoint>
          <Trackpoint>
            <Time>2019-08-01T16:43:27.000Z</Time>
            <Position>
              <LatitudeDegrees>40.58858357369899749755859375</LatitudeDegrees>
              <LongitudeDegrees>-4.01179921813309192657470703125</LongitudeDegrees>
            </Position>
            <AltitudeMeters>875.79998779296875</AltitudeMeters>
            <DistanceMeters>NAN</DistanceMeters>
          </Trackpoint>
          <Trackpoint>
            <Time>2019-08-01T16:43:28.000Z</Time>
            <Position>
              <LatitudeDegrees>40.58852967806160449981689453125</LatitudeDegrees>
              <LongitudeDegrees>-4.0118081867694854736328125</LongitudeDegrees>
            </Position>
            <AltitudeMeters>876</AltitudeMeters>
            <DistanceMeters>NAN</DistanceMeters>
          </Trackpoint>
          <Trackpoint>
            <Time>2019-08-01T16:43:29.000Z</Time>
            <Position>
              <LatitudeDegrees>40.58847536332905292510986328125</LatitudeDegrees>
              <LongitudeDegrees>-4.01181732304394245147705078125</LongitudeDegrees>
            </Position>
            <AltitudeMeters>876.20001220703125</AltitudeMeters>
            <DistanceMeters>NAN</DistanceMeters>
          </Trackpoint>
          <Trackpoint>
            <Time>2019-08-01T16:43:30.000Z</Time>
            <Position>
              <LatitudeDegrees>40.5884207971394062042236328125</LatitudeDegrees>
              <LongitudeDegrees>-4.0118257887661457061767578125</LongitudeDegrees>
            </Position>
            <AltitudeMeters>876.4000244140625</AltitudeMeters>
            <DistanceMeters>NAN</DistanceMeters>
          </Trackpoint>
          <Trackpoint>
            <Time>2019-08-01T16:43:31.000Z</Time>
            <Position>
              <LatitudeDegrees>40.58836572803556919097900390625</LatitudeDegrees>
              <LongitudeDegrees>-4.01183341629803180694580078125</LongitudeDegrees>
            </Position>
            <AltitudeMeters>876.5999755859375</AltitudeMeters>
            <DistanceMeters>NAN</DistanceMeters>
          </Trackpoint>
          <Trackpoint>
            <Time>2019-08-01T16:43:32.000Z</Time>
            <Position>
              <LatitudeDegrees>40.58830990456044673919677734375</LatitudeDegrees>
              <LongitudeDegrees>-4.011840708553791046142578125</LongitudeDegrees>
            </Position>
            <AltitudeMeters>876.79998779296875</AltitudeMeters>
            <DistanceMeters>NAN</DistanceMeters>
          </Trackpoint>
          <Trackpoint>
            <Time>2019-08-01T16:43:33.000Z</Time>
            <Position>
              <LatitudeDegrees>40.5882541649043560028076171875</LatitudeDegrees>
              <LongitudeDegrees>-4.011848755180835723876953125</LongitudeDegrees>
            </Position>
            <AltitudeMeters>877.20001220703125</AltitudeMeters>
            <DistanceMeters>NAN</DistanceMeters>
          </Trackpoint>
          <Trackpoint>
            <Time>2019-08-01T16:43:34.000Z</Time>
            <Position>
              <LatitudeDegrees>40.58819909580051898956298828125</LatitudeDegrees>
              <LongitudeDegrees>-4.0118564665317535400390625</LongitudeDegrees>
            </Position>
            <AltitudeMeters>877.5999755859375</AltitudeMeters>
            <DistanceMeters>NAN</DistanceMeters>
          </Trackpoint>
          <Trackpoint>
            <Time>2019-08-01T16:43:36.000Z</Time>
            <Position>
              <LatitudeDegrees>40.58809063397347927093505859375</LatitudeDegrees>
              <LongitudeDegrees>-4.01186996139585971832275390625</LongitudeDegrees>
            </Position>
            <AltitudeMeters>877.79998779296875</AltitudeMeters>
            <DistanceMeters>NAN</DistanceMeters>
          </Trackpoint>
          <Trackpoint>
            <Time>2019-08-01T16:43:37.000Z</Time>
            <Position>
              <LatitudeDegrees>40.588039420545101165771484375</LatitudeDegrees>
              <LongitudeDegrees>-4.01187515817582607269287109375</LongitudeDegrees>
            </Position>
            <AltitudeMeters>877.79998779296875</AltitudeMeters>
            <DistanceMeters>NAN</DistanceMeters>
          </Trackpoint>
          <Trackpoint>
            <Time>2019-08-01T16:43:38.000Z</Time>
            <Position>
              <LatitudeDegrees>40.58799005113542079925537109375</LatitudeDegrees>
              <LongitudeDegrees>-4.01188152842223644256591796875</LongitudeDegrees>
            </Position>
            <AltitudeMeters>878.20001220703125</AltitudeMeters>
            <DistanceMeters>NAN</DistanceMeters>
          </Trackpoint>
          <Trackpoint>
            <Time>2019-08-01T16:43:39.000Z</Time>
            <Position>
              <LatitudeDegrees>40.5879413522779941558837890625</LatitudeDegrees>
              <LongitudeDegrees>-4.0118894912302494049072265625</LongitudeDegrees>
            </Position>
            <AltitudeMeters>878.4000244140625</AltitudeMeters>
            <DistanceMeters>NAN</DistanceMeters>
          </Trackpoint>
          <Trackpoint>
            <Time>2019-08-01T16:43:40.000Z</Time>
            <Position>
              <LatitudeDegrees>40.58789156377315521240234375</LatitudeDegrees>
              <LongitudeDegrees>-4.01189661584794521331787109375</LongitudeDegrees>
            </Position>
            <AltitudeMeters>878.5999755859375</AltitudeMeters>
            <DistanceMeters>NAN</DistanceMeters>
          </Trackpoint>
          <Trackpoint>
            <Time>2019-08-01T16:43:41.000Z</Time>
            <Position>
              <LatitudeDegrees>40.587841607630252838134765625</LatitudeDegrees>
              <LongitudeDegrees>-4.01190332137048244476318359375</LongitudeDegrees>
            </Position>
            <AltitudeMeters>878.79998779296875</AltitudeMeters>
            <DistanceMeters>NAN</DistanceMeters>
          </Trackpoint>
          <Trackpoint>
            <Time>2019-08-01T16:43:43.000Z</Time>
            <Position>
              <LatitudeDegrees>40.58774295262992382049560546875</LatitudeDegrees>
              <LongitudeDegrees>-4.01191606186330318450927734375</LongitudeDegrees>
            </Position>
            <AltitudeMeters>879.4000244140625</AltitudeMeters>
            <DistanceMeters>NAN</DistanceMeters>
          </Trackpoint>
          <Trackpoint>
            <Time>2019-08-01T16:43:44.000Z</Time>
            <Position>
              <LatitudeDegrees>40.58769534341990947723388671875</LatitudeDegrees>
              <LongitudeDegrees>-4.0119220130145549774169921875</LongitudeDegrees>
            </Position>
            <AltitudeMeters>879.5999755859375</AltitudeMeters>
            <DistanceMeters>NAN</DistanceMeters>
          </Trackpoint>
          <Trackpoint>
            <Time>2019-08-01T16:43:45.000Z</Time>
            <Position>
              <LatitudeDegrees>40.5876489914953708648681640625</LatitudeDegrees>
              <LongitudeDegrees>-4.0119280479848384857177734375</LongitudeDegrees>
            </Position>
            <AltitudeMeters>879.79998779296875</AltitudeMeters>
            <DistanceMeters>NAN</DistanceMeters>
          </Trackpoint>
          <Trackpoint>
            <Time>2019-08-01T16:43:46.000Z</Time>
            <Position>
              <LatitudeDegrees>40.58760331012308597564697265625</LatitudeDegrees>
              <LongitudeDegrees>-4.01193383149802684783935546875</LongitudeDegrees>
            </Position>
            <AltitudeMeters>879.79998779296875</AltitudeMeters>
            <DistanceMeters>NAN</DistanceMeters>
          </Trackpoint>
          <Trackpoint>
            <Time>2019-08-01T16:43:47.000Z</Time>
            <Position>
              <LatitudeDegrees>40.58755754493176937103271484375</LatitudeDegrees>
              <LongitudeDegrees>-4.011938609182834625244140625</LongitudeDegrees>
            </Position>
            <AltitudeMeters>880.4000244140625</AltitudeMeters>
            <DistanceMeters>NAN</DistanceMeters>
          </Trackpoint>
          <Trackpoint>
            <Time>2019-08-01T16:43:48.000Z</Time>
            <Position>
              <LatitudeDegrees>40.58751127682626247406005859375</LatitudeDegrees>
              <LongitudeDegrees>-4.01194321922957897186279296875</LongitudeDegrees>
            </Position>
            <AltitudeMeters>880.79998779296875</AltitudeMeters>
            <DistanceMeters>NAN</DistanceMeters>
          </Trackpoint>
          <Trackpoint>
            <Time>2019-08-01T16:43:49.000Z</Time>
            <Position>
              <LatitudeDegrees>40.58746484108269214630126953125</LatitudeDegrees>
              <LongitudeDegrees>-4.0119474940001964569091796875</LongitudeDegrees>
            </Position>
            <AltitudeMeters>881</AltitudeMeters>
            <DistanceMeters>NAN</DistanceMeters>
          </Trackpoint>
          <Trackpoint>
            <Time>2019-08-01T16:43:50.000Z</Time>
            <Position>
              <LatitudeDegrees>40.58741773478686809539794921875</LatitudeDegrees>
              <LongitudeDegrees>-4.01195059530436992645263671875</LongitudeDegrees>
            </Position>
            <AltitudeMeters>881.20001220703125</AltitudeMeters>
            <DistanceMeters>NAN</DistanceMeters>
          </Trackpoint>
          <Trackpoint>
            <Time>2019-08-01T16:43:52.000Z</Time>
            <Position>
              <LatitudeDegrees>40.5873244442045688629150390625</LatitudeDegrees>
              <LongitudeDegrees>-4.01195411570370197296142578125</LongitudeDegrees>
            </Position>
            <AltitudeMeters>881.79998779296875</AltitudeMeters>
            <DistanceMeters>NAN</DistanceMeters>
          </Trackpoint>
          <Trackpoint>
            <Time>2019-08-01T16:43:53.000Z</Time>
            <Position>
              <LatitudeDegrees>40.587278343737125396728515625</LatitudeDegrees>
              <LongitudeDegrees>-4.01195369660854339599609375</LongitudeDegrees>
            </Position>
            <AltitudeMeters>882</AltitudeMeters>
            <DistanceMeters>NAN</DistanceMeters>
          </Trackpoint>
          <Trackpoint>
            <Time>2019-08-01T16:43:54.000Z</Time>
            <Position>
              <LatitudeDegrees>40.58723174035549163818359375</LatitudeDegrees>
              <LongitudeDegrees>-4.01195361278951168060302734375</LongitudeDegrees>
            </Position>
            <AltitudeMeters>882.4000244140625</AltitudeMeters>
            <DistanceMeters>NAN</DistanceMeters>
          </Trackpoint>
          <Trackpoint>
            <Time>2019-08-01T16:43:55.000Z</Time>
            <Position>
              <LatitudeDegrees>40.58718589134514331817626953125</LatitudeDegrees>
              <LongitudeDegrees>-4.011953361332416534423828125</LongitudeDegrees>
            </Position>
            <AltitudeMeters>882.79998779296875</AltitudeMeters>
            <DistanceMeters>NAN</DistanceMeters>
          </Trackpoint>
          <Trackpoint>
            <Time>2019-08-01T16:43:57.000Z</Time>
            <Position>
              <LatitudeDegrees>40.587092936038970947265625</LatitudeDegrees>
              <LongitudeDegrees>-4.01195076294243335723876953125</LongitudeDegrees>
            </Position>
            <AltitudeMeters>883.4000244140625</AltitudeMeters>
            <DistanceMeters>NAN</DistanceMeters>
          </Trackpoint>
          <Trackpoint>
            <Time>2019-08-01T16:43:58.000Z</Time>
            <Position>
              <LatitudeDegrees>40.58704591356217861175537109375</LatitudeDegrees>
              <LongitudeDegrees>-4.01194690726697444915771484375</LongitudeDegrees>
            </Position>
            <AltitudeMeters>883.79998779296875</AltitudeMeters>
            <DistanceMeters>NAN</DistanceMeters>
          </Trackpoint>
          <Trackpoint>
            <Time>2019-08-01T16:44:00.000Z</Time>
            <Position>
              <LatitudeDegrees>40.58694608509540557861328125</LatitudeDegrees>
              <LongitudeDegrees>-4.0119357593357563018798828125</LongitudeDegrees>
            </Position>
            <AltitudeMeters>884.20001220703125</AltitudeMeters>
            <DistanceMeters>NAN</DistanceMeters>
          </Trackpoint>
          <Trackpoint>
            <Time>2019-08-01T16:44:01.000Z</Time>
            <Position>
              <LatitudeDegrees>40.58689436875283718109130859375</LatitudeDegrees>
              <LongitudeDegrees>-4.01192821562290191650390625</LongitudeDegrees>
            </Position>
            <AltitudeMeters>884.5999755859375</AltitudeMeters>
            <DistanceMeters>NAN</DistanceMeters>
          </Trackpoint>
          <Trackpoint>
            <Time>2019-08-01T16:44:02.000Z</Time>
            <Position>
              <LatitudeDegrees>40.5868433229625225067138671875</LatitudeDegrees>
              <LongitudeDegrees>-4.0119203366339206695556640625</LongitudeDegrees>
            </Position>
            <AltitudeMeters>884.79998779296875</AltitudeMeters>
            <DistanceMeters>NAN</DistanceMeters>
          </Trackpoint>
          <Trackpoint>
            <Time>2019-08-01T16:44:03.000Z</Time>
            <Position>
              <LatitudeDegrees>40.5867937020957469940185546875</LatitudeDegrees>
              <LongitudeDegrees>-4.0119122900068759918212890625</LongitudeDegrees>
            </Position>
            <AltitudeMeters>885</AltitudeMeters>
            <DistanceMeters>NAN</DistanceMeters>
          </Trackpoint>
          <Trackpoint>
            <Time>2019-08-01T16:44:04.000Z</Time>
            <Position>
              <LatitudeDegrees>40.5867447517812252044677734375</LatitudeDegrees>
              <LongitudeDegrees>-4.011904411017894744873046875</LongitudeDegrees>
            </Position>
            <AltitudeMeters>885.20001220703125</AltitudeMeters>
            <DistanceMeters>NAN</DistanceMeters>
          </Trackpoint>
          <Trackpoint>
            <Time>2019-08-01T16:44:05.000Z</Time>
            <Position>
              <LatitudeDegrees>40.586695969104766845703125</LatitudeDegrees>
              <LongitudeDegrees>-4.01189695112407207489013671875</LongitudeDegrees>
            </Position>
            <AltitudeMeters>885.4000244140625</AltitudeMeters>
            <DistanceMeters>NAN</DistanceMeters>
          </Trackpoint>
          <Trackpoint>
            <Time>2019-08-01T16:44:06.000Z</Time>
            <Position>
              <LatitudeDegrees>40.5866468511521816253662109375</LatitudeDegrees>
              <LongitudeDegrees>-4.01188856922090053558349609375</LongitudeDegrees>
            </Position>
            <AltitudeMeters>885.5999755859375</AltitudeMeters>
            <DistanceMeters>NAN</DistanceMeters>
          </Trackpoint>
          <Trackpoint>
            <Time>2019-08-01T16:44:07.000Z</Time>
            <Position>
              <LatitudeDegrees>40.58659647591412067413330078125</LatitudeDegrees>
              <LongitudeDegrees>-4.011880271136760711669921875</LongitudeDegrees>
            </Position>
            <AltitudeMeters>885.79998779296875</AltitudeMeters>
            <DistanceMeters>NAN</DistanceMeters>
          </Trackpoint>
          <Trackpoint>
            <Time>2019-08-01T16:44:08.000Z</Time>
            <Position>
              <LatitudeDegrees>40.58654501102864742279052734375</LatitudeDegrees>
              <LongitudeDegrees>-4.0118727274239063262939453125</LongitudeDegrees>
            </Position>
            <AltitudeMeters>886</AltitudeMeters>
            <DistanceMeters>NAN</DistanceMeters>
          </Trackpoint>
          <Trackpoint>
            <Time>2019-08-01T16:44:09.000Z</Time>
            <Position>
              <LatitudeDegrees>40.586493127048015594482421875</LatitudeDegrees>
              <LongitudeDegrees>-4.0118636749684810638427734375</LongitudeDegrees>
            </Position>
            <AltitudeMeters>886</AltitudeMeters>
            <DistanceMeters>NAN</DistanceMeters>
          </Trackpoint>
          <Trackpoint>
            <Time>2019-08-01T16:44:10.000Z</Time>
            <Position>
              <LatitudeDegrees>40.58644182980060577392578125</LatitudeDegrees>
              <LongitudeDegrees>-4.0118556283414363861083984375</LongitudeDegrees>
            </Position>
            <AltitudeMeters>886</AltitudeMeters>
            <DistanceMeters>NAN</DistanceMeters>
          </Trackpoint>
          <Trackpoint>
            <Time>2019-08-01T16:44:11.000Z</Time>
            <Position>
              <LatitudeDegrees>40.586390532553195953369140625</LatitudeDegrees>
              <LongitudeDegrees>-4.01184774935245513916015625</LongitudeDegrees>
            </Position>
            <AltitudeMeters>886</AltitudeMeters>
            <DistanceMeters>NAN</DistanceMeters>
          </Trackpoint>
          <Trackpoint>
            <Time>2019-08-01T16:44:12.000Z</Time>
            <Position>
              <LatitudeDegrees>40.5863390676677227020263671875</LatitudeDegrees>
              <LongitudeDegrees>-4.01183844543993473052978515625</LongitudeDegrees>
            </Position>
            <AltitudeMeters>886.20001220703125</AltitudeMeters>
            <DistanceMeters>NAN</DistanceMeters>
          </Trackpoint>
          <Trackpoint>
            <Time>2019-08-01T16:44:13.000Z</Time>
            <Position>
              <LatitudeDegrees>40.58628818951547145843505859375</LatitudeDegrees>
              <LongitudeDegrees>-4.01182838715612888336181640625</LongitudeDegrees>
            </Position>
            <AltitudeMeters>886.20001220703125</AltitudeMeters>
            <DistanceMeters>NAN</DistanceMeters>
          </Trackpoint>
          <Trackpoint>
            <Time>2019-08-01T16:44:14.000Z</Time>
            <Position>
              <LatitudeDegrees>40.58623739518225193023681640625</LatitudeDegrees>
              <LongitudeDegrees>-4.01181883178651332855224609375</LongitudeDegrees>
            </Position>
            <AltitudeMeters>886.4000244140625</AltitudeMeters>
            <DistanceMeters>NAN</DistanceMeters>
          </Trackpoint>
          <Trackpoint>
            <Time>2019-08-01T16:44:15.000Z</Time>
            <Position>
              <LatitudeDegrees>40.58618710376322269439697265625</LatitudeDegrees>
              <LongitudeDegrees>-4.01181019842624664306640625</LongitudeDegrees>
            </Position>
            <AltitudeMeters>886.4000244140625</AltitudeMeters>
            <DistanceMeters>NAN</DistanceMeters>
          </Trackpoint>
          <Trackpoint>
            <Time>2019-08-01T16:44:16.000Z</Time>
            <Position>
              <LatitudeDegrees>40.5861375667154788970947265625</LatitudeDegrees>
              <LongitudeDegrees>-4.0118009783327579498291015625</LongitudeDegrees>
            </Position>
            <AltitudeMeters>886.5999755859375</AltitudeMeters>
            <DistanceMeters>NAN</DistanceMeters>
          </Trackpoint>
          <Trackpoint>
            <Time>2019-08-01T16:44:17.000Z</Time>
            <Position>
              <LatitudeDegrees>40.58608735911548137664794921875</LatitudeDegrees>
              <LongitudeDegrees>-4.01179268024861812591552734375</LongitudeDegrees>
            </Position>
            <AltitudeMeters>886.79998779296875</AltitudeMeters>
            <DistanceMeters>NAN</DistanceMeters>
          </Trackpoint>
          <Trackpoint>
            <Time>2019-08-01T16:44:18.000Z</Time>
            <Position>
              <LatitudeDegrees>40.58603790588676929473876953125</LatitudeDegrees>
              <LongitudeDegrees>-4.0117845498025417327880859375</LongitudeDegrees>
            </Position>
            <AltitudeMeters>886.79998779296875</AltitudeMeters>
            <DistanceMeters>NAN</DistanceMeters>
          </Trackpoint>
          <Trackpoint>
            <Time>2019-08-01T16:44:19.000Z</Time>
            <Position>
              <LatitudeDegrees>40.585988871753215789794921875</LatitudeDegrees>
              <LongitudeDegrees>-4.011774994432926177978515625</LongitudeDegrees>
            </Position>
            <AltitudeMeters>887.20001220703125</AltitudeMeters>
            <DistanceMeters>NAN</DistanceMeters>
          </Trackpoint>
          <Trackpoint>
            <Time>2019-08-01T16:44:20.000Z</Time>
            <Position>
              <LatitudeDegrees>40.58594000525772571563720703125</LatitudeDegrees>
              <LongitudeDegrees>-4.01176552288234233856201171875</LongitudeDegrees>
            </Position>
            <AltitudeMeters>887.20001220703125</AltitudeMeters>
            <DistanceMeters>NAN</DistanceMeters>
          </Trackpoint>
          <Trackpoint>
            <Time>2019-08-01T16:44:21.000Z</Time>
            <Position>
              <LatitudeDegrees>40.58589155785739421844482421875</LatitudeDegrees>
              <LongitudeDegrees>-4.0117570571601390838623046875</LongitudeDegrees>
            </Position>
            <AltitudeMeters>887.4000244140625</AltitudeMeters>
            <DistanceMeters>NAN</DistanceMeters>
          </Trackpoint>
          <Trackpoint>
            <Time>2019-08-01T16:44:22.000Z</Time>
            <Position>
              <LatitudeDegrees>40.58584277518093585968017578125</LatitudeDegrees>
              <LongitudeDegrees>-4.01174758560955524444580078125</LongitudeDegrees>
            </Position>
            <AltitudeMeters>887.4000244140625</AltitudeMeters>
            <DistanceMeters>NAN</DistanceMeters>
          </Trackpoint>
          <Trackpoint>
            <Time>2019-08-01T16:44:23.000Z</Time>
            <Position>
              <LatitudeDegrees>40.58579315431416034698486328125</LatitudeDegrees>
              <LongitudeDegrees>-4.01173920370638370513916015625</LongitudeDegrees>
            </Position>
            <AltitudeMeters>887.4000244140625</AltitudeMeters>
            <DistanceMeters>NAN</DistanceMeters>
          </Trackpoint>
          <Trackpoint>
            <Time>2019-08-01T16:44:24.000Z</Time>
            <Position>
              <LatitudeDegrees>40.58574202470481395721435546875</LatitudeDegrees>
              <LongitudeDegrees>-4.01173149235546588897705078125</LongitudeDegrees>
            </Position>
            <AltitudeMeters>887.5999755859375</AltitudeMeters>
            <DistanceMeters>NAN</DistanceMeters>
          </Trackpoint>
          <Trackpoint>
            <Time>2019-08-01T16:44:26.000Z</Time>
            <Position>
              <LatitudeDegrees>40.58563758619129657745361328125</LatitudeDegrees>
              <LongitudeDegrees>-4.01171238161623477935791015625</LongitudeDegrees>
            </Position>
            <AltitudeMeters>887.5999755859375</AltitudeMeters>
            <DistanceMeters>NAN</DistanceMeters>
          </Trackpoint>
          <Trackpoint>
            <Time>2019-08-01T16:44:27.000Z</Time>
            <Position>
              <LatitudeDegrees>40.58558578602969646453857421875</LatitudeDegrees>
              <LongitudeDegrees>-4.01170291006565093994140625</LongitudeDegrees>
            </Position>
            <AltitudeMeters>887.79998779296875</AltitudeMeters>
            <DistanceMeters>NAN</DistanceMeters>
          </Trackpoint>
          <Trackpoint>
            <Time>2019-08-01T16:44:28.000Z</Time>
            <Position>
              <LatitudeDegrees>40.58553549461066722869873046875</LatitudeDegrees>
              <LongitudeDegrees>-4.01169410906732082366943359375</LongitudeDegrees>
            </Position>
            <AltitudeMeters>887.79998779296875</AltitudeMeters>
            <DistanceMeters>NAN</DistanceMeters>
          </Trackpoint>
          <Trackpoint>
            <Time>2019-08-01T16:44:29.000Z</Time>
            <Position>
              <LatitudeDegrees>40.58548587374389171600341796875</LatitudeDegrees>
              <LongitudeDegrees>-4.01168690063059329986572265625</LongitudeDegrees>
            </Position>
            <AltitudeMeters>888</AltitudeMeters>
            <DistanceMeters>NAN</DistanceMeters>
          </Trackpoint>
          <Trackpoint>
            <Time>2019-08-01T16:44:30.000Z</Time>
            <Position>
              <LatitudeDegrees>40.58543608523905277252197265625</LatitudeDegrees>
              <LongitudeDegrees>-4.01168304495513439178466796875</LongitudeDegrees>
            </Position>
            <AltitudeMeters>888.20001220703125</AltitudeMeters>
            <DistanceMeters>NAN</DistanceMeters>
          </Trackpoint>
          <Trackpoint>
            <Time>2019-08-01T16:44:31.000Z</Time>
            <Position>
              <LatitudeDegrees>40.58538646437227725982666015625</LatitudeDegrees>
              <LongitudeDegrees>-4.01168346405029296875</LongitudeDegrees>
            </Position>
            <AltitudeMeters>888.20001220703125</AltitudeMeters>
            <DistanceMeters>NAN</DistanceMeters>
          </Trackpoint>
          <Trackpoint>
            <Time>2019-08-01T16:44:32.000Z</Time>
            <Position>
              <LatitudeDegrees>40.58533751405775547027587890625</LatitudeDegrees>
              <LongitudeDegrees>-4.0116886608302593231201171875</LongitudeDegrees>
            </Position>
            <AltitudeMeters>888.4000244140625</AltitudeMeters>
            <DistanceMeters>NAN</DistanceMeters>
          </Trackpoint>
          <Trackpoint>
            <Time>2019-08-01T16:44:33.000Z</Time>
            <Position>
              <LatitudeDegrees>40.5852909944951534271240234375</LatitudeDegrees>
              <LongitudeDegrees>-4.01169846765697002410888671875</LongitudeDegrees>
            </Position>
            <AltitudeMeters>888.4000244140625</AltitudeMeters>
            <DistanceMeters>NAN</DistanceMeters>
          </Trackpoint>
          <Trackpoint>
            <Time>2019-08-01T16:44:34.000Z</Time>
            <Position>
              <LatitudeDegrees>40.585245899856090545654296875</LatitudeDegrees>
              <LongitudeDegrees>-4.0117141418159008026123046875</LongitudeDegrees>
            </Position>
            <AltitudeMeters>888.5999755859375</AltitudeMeters>
            <DistanceMeters>NAN</DistanceMeters>
          </Trackpoint>
          <Trackpoint>
            <Time>2019-08-01T16:44:35.000Z</Time>
            <Position>
              <LatitudeDegrees>40.58520264923572540283203125</LatitudeDegrees>
              <LongitudeDegrees>-4.0117362700402736663818359375</LongitudeDegrees>
            </Position>
            <AltitudeMeters>888.5999755859375</AltitudeMeters>
            <DistanceMeters>NAN</DistanceMeters>
          </Trackpoint>
          <Trackpoint>
            <Time>2019-08-01T16:44:36.000Z</Time>
            <Position>
              <LatitudeDegrees>40.58516107499599456787109375</LatitudeDegrees>
              <LongitudeDegrees>-4.01176501996815204620361328125</LongitudeDegrees>
            </Position>
            <AltitudeMeters>888.79998779296875</AltitudeMeters>
            <DistanceMeters>NAN</DistanceMeters>
          </Trackpoint>
          <Trackpoint>
            <Time>2019-08-01T16:44:37.000Z</Time>
            <Position>
              <LatitudeDegrees>40.58511975221335887908935546875</LatitudeDegrees>
              <LongitudeDegrees>-4.0117936022579669952392578125</LongitudeDegrees>
            </Position>
            <AltitudeMeters>889</AltitudeMeters>
            <DistanceMeters>NAN</DistanceMeters>
          </Trackpoint>
          <Trackpoint>
            <Time>2019-08-01T16:44:38.000Z</Time>
            <Position>
              <LatitudeDegrees>40.58507801033556461334228515625</LatitudeDegrees>
              <LongitudeDegrees>-4.01181413792073726654052734375</LongitudeDegrees>
            </Position>
            <AltitudeMeters>889</AltitudeMeters>
            <DistanceMeters>NAN</DistanceMeters>
          </Trackpoint>
          <Trackpoint>
            <Time>2019-08-01T16:44:39.000Z</Time>
            <Position>
              <LatitudeDegrees>40.585034675896167755126953125</LatitudeDegrees>
              <LongitudeDegrees>-4.0118234418332576751708984375</LongitudeDegrees>
            </Position>
            <AltitudeMeters>889.20001220703125</AltitudeMeters>
            <DistanceMeters>NAN</DistanceMeters>
          </Trackpoint>
          <Trackpoint>
            <Time>2019-08-01T16:44:40.000Z</Time>
            <Position>
              <LatitudeDegrees>40.584990419447422027587890625</LatitudeDegrees>
              <LongitudeDegrees>-4.01181966997683048248291015625</LongitudeDegrees>
            </Position>
            <AltitudeMeters>889.20001220703125</AltitudeMeters>
            <DistanceMeters>NAN</DistanceMeters>
          </Trackpoint>
          <Trackpoint>
            <Time>2019-08-01T16:44:41.000Z</Time>
            <Position>
              <LatitudeDegrees>40.58494691736996173858642578125</LatitudeDegrees>
              <LongitudeDegrees>-4.01180089451372623443603515625</LongitudeDegrees>
            </Position>
            <AltitudeMeters>889.4000244140625</AltitudeMeters>
            <DistanceMeters>NAN</DistanceMeters>
          </Trackpoint>
          <Trackpoint>
            <Time>2019-08-01T16:44:42.000Z</Time>
            <Position>
              <LatitudeDegrees>40.5849074386060237884521484375</LatitudeDegrees>
              <LongitudeDegrees>-4.01176954619586467742919921875</LongitudeDegrees>
            </Position>
            <AltitudeMeters>889.5999755859375</AltitudeMeters>
            <DistanceMeters>NAN</DistanceMeters>
          </Trackpoint>
          <Trackpoint>
            <Time>2019-08-01T16:44:43.000Z</Time>
            <Position>
              <LatitudeDegrees>40.58487215079367160797119140625</LatitudeDegrees>
              <LongitudeDegrees>-4.01173015125095844268798828125</LongitudeDegrees>
            </Position>
            <AltitudeMeters>889.79998779296875</AltitudeMeters>
            <DistanceMeters>NAN</DistanceMeters>
          </Trackpoint>
          <Trackpoint>
            <Time>2019-08-01T16:44:44.000Z</Time>
            <Position>
              <LatitudeDegrees>40.58483728207647800445556640625</LatitudeDegrees>
              <LongitudeDegrees>-4.011687152087688446044921875</LongitudeDegrees>
            </Position>
            <AltitudeMeters>890</AltitudeMeters>
            <DistanceMeters>NAN</DistanceMeters>
          </Trackpoint>
          <Trackpoint>
            <Time>2019-08-01T16:44:45.000Z</Time>
            <Position>
              <LatitudeDegrees>40.58479889295995235443115234375</LatitudeDegrees>
              <LongitudeDegrees>-4.011644236743450164794921875</LongitudeDegrees>
            </Position>
            <AltitudeMeters>890.20001220703125</AltitudeMeters>
            <DistanceMeters>NAN</DistanceMeters>
          </Trackpoint>
          <Trackpoint>
            <Time>2019-08-01T16:44:46.000Z</Time>
            <Position>
              <LatitudeDegrees>40.58475631289184093475341796875</LatitudeDegrees>
              <LongitudeDegrees>-4.0116061829030513763427734375</LongitudeDegrees>
            </Position>
            <AltitudeMeters>890.20001220703125</AltitudeMeters>
            <DistanceMeters>NAN</DistanceMeters>
          </Trackpoint>
          <Trackpoint>
            <Time>2019-08-01T16:44:47.000Z</Time>
            <Position>
              <LatitudeDegrees>40.5847106315195560455322265625</LatitudeDegrees>
              <LongitudeDegrees>-4.0115760080516338348388671875</LongitudeDegrees>
            </Position>
            <AltitudeMeters>890.4000244140625</AltitudeMeters>
            <DistanceMeters>NAN</DistanceMeters>
          </Trackpoint>
          <Trackpoint>
            <Time>2019-08-01T16:44:48.000Z</Time>
            <Position>
              <LatitudeDegrees>40.584663860499858856201171875</LatitudeDegrees>
              <LongitudeDegrees>-4.0115533769130706787109375</LongitudeDegrees>
            </Position>
            <AltitudeMeters>890.4000244140625</AltitudeMeters>
            <DistanceMeters>NAN</DistanceMeters>
          </Trackpoint>
          <Trackpoint>
            <Time>2019-08-01T16:44:49.000Z</Time>
            <Position>
              <LatitudeDegrees>40.58461524546146392822265625</LatitudeDegrees>
              <LongitudeDegrees>-4.01153753511607646942138671875</LongitudeDegrees>
            </Position>
            <AltitudeMeters>890.5999755859375</AltitudeMeters>
            <DistanceMeters>NAN</DistanceMeters>
          </Trackpoint>
          <Trackpoint>
            <Time>2019-08-01T16:44:50.000Z</Time>
            <Position>
              <LatitudeDegrees>40.58456654660403728485107421875</LatitudeDegrees>
              <LongitudeDegrees>-4.01152722537517547607421875</LongitudeDegrees>
            </Position>
            <AltitudeMeters>890.79998779296875</AltitudeMeters>
            <DistanceMeters>NAN</DistanceMeters>
          </Trackpoint>
          <Trackpoint>
            <Time>2019-08-01T16:44:51.000Z</Time>
            <Position>
              <LatitudeDegrees>40.58451876975595951080322265625</LatitudeDegrees>
              <LongitudeDegrees>-4.0115185081958770751953125</LongitudeDegrees>
            </Position>
            <AltitudeMeters>891</AltitudeMeters>
            <DistanceMeters>NAN</DistanceMeters>
          </Trackpoint>
          <Trackpoint>
            <Time>2019-08-01T16:44:52.000Z</Time>
            <Position>
              <LatitudeDegrees>40.5844722501933574676513671875</LatitudeDegrees>
              <LongitudeDegrees>-4.01151171885430812835693359375</LongitudeDegrees>
            </Position>
            <AltitudeMeters>891.20001220703125</AltitudeMeters>
            <DistanceMeters>NAN</DistanceMeters>
          </Trackpoint>
          <Trackpoint>
            <Time>2019-08-01T16:44:54.000Z</Time>
            <Position>
              <LatitudeDegrees>40.5843817256391048431396484375</LatitudeDegrees>
              <LongitudeDegrees>-4.011495374143123626708984375</LongitudeDegrees>
            </Position>
            <AltitudeMeters>891.4000244140625</AltitudeMeters>
            <DistanceMeters>NAN</DistanceMeters>
          </Trackpoint>
          <Trackpoint>
            <Time>2019-08-01T16:44:55.000Z</Time>
            <Position>
              <LatitudeDegrees>40.58433839119970798492431640625</LatitudeDegrees>
              <LongitudeDegrees>-4.01148824952542781829833984375</LongitudeDegrees>
            </Position>
            <AltitudeMeters>891.4000244140625</AltitudeMeters>
            <DistanceMeters>NAN</DistanceMeters>
          </Trackpoint>
          <Trackpoint>
            <Time>2019-08-01T16:44:56.000Z</Time>
            <Position>
              <LatitudeDegrees>40.58429530821740627288818359375</LatitudeDegrees>
              <LongitudeDegrees>-4.01148154400289058685302734375</LongitudeDegrees>
            </Position>
            <AltitudeMeters>891.4000244140625</AltitudeMeters>
            <DistanceMeters>NAN</DistanceMeters>
          </Trackpoint>
          <Trackpoint>
            <Time>2019-08-01T16:44:57.000Z</Time>
            <Position>
              <LatitudeDegrees>40.58425138704478740692138671875</LatitudeDegrees>
              <LongitudeDegrees>-4.011475257575511932373046875</LongitudeDegrees>
            </Position>
            <AltitudeMeters>891.79998779296875</AltitudeMeters>
            <DistanceMeters>NAN</DistanceMeters>
          </Trackpoint>
          <Trackpoint>
            <Time>2019-08-01T16:44:58.000Z</Time>
            <Position>
              <LatitudeDegrees>40.58420620858669281005859375</LatitudeDegrees>
              <LongitudeDegrees>-4.0114675462245941162109375</LongitudeDegrees>
            </Position>
            <AltitudeMeters>892.4000244140625</AltitudeMeters>
            <DistanceMeters>NAN</DistanceMeters>
          </Trackpoint>
          <Trackpoint>
            <Time>2019-08-01T16:44:59.000Z</Time>
            <Position>
              <LatitudeDegrees>40.58415935374796390533447265625</LatitudeDegrees>
              <LongitudeDegrees>-4.01145975105464458465576171875</LongitudeDegrees>
            </Position>
            <AltitudeMeters>892.79998779296875</AltitudeMeters>
            <DistanceMeters>NAN</DistanceMeters>
          </Trackpoint>
          <Trackpoint>
            <Time>2019-08-01T16:45:00.000Z</Time>
            <Position>
              <LatitudeDegrees>40.5841111578047275543212890625</LatitudeDegrees>
              <LongitudeDegrees>-4.01145212352275848388671875</LongitudeDegrees>
            </Position>
            <AltitudeMeters>893</AltitudeMeters>
            <DistanceMeters>NAN</DistanceMeters>
          </Trackpoint>
          <Trackpoint>
            <Time>2019-08-01T16:45:01.000Z</Time>
            <Position>
              <LatitudeDegrees>40.5840615369379520416259765625</LatitudeDegrees>
              <LongitudeDegrees>-4.0114429034292697906494140625</LongitudeDegrees>
            </Position>
            <AltitudeMeters>893.20001220703125</AltitudeMeters>
            <DistanceMeters>NAN</DistanceMeters>
          </Trackpoint>
          <Trackpoint>
            <Time>2019-08-01T16:45:02.000Z</Time>
            <Position>
              <LatitudeDegrees>40.58401174843311309814453125</LatitudeDegrees>
              <LongitudeDegrees>-4.011433012783527374267578125</LongitudeDegrees>
            </Position>
            <AltitudeMeters>893.5999755859375</AltitudeMeters>
            <DistanceMeters>NAN</DistanceMeters>
          </Trackpoint>
          <Trackpoint>
            <Time>2019-08-01T16:45:03.000Z</Time>
            <Position>
              <LatitudeDegrees>40.58396120555698871612548828125</LatitudeDegrees>
              <LongitudeDegrees>-4.0114244632422924041748046875</LongitudeDegrees>
            </Position>
            <AltitudeMeters>893.79998779296875</AltitudeMeters>
            <DistanceMeters>NAN</DistanceMeters>
          </Trackpoint>
          <Trackpoint>
            <Time>2019-08-01T16:45:04.000Z</Time>
            <Position>
              <LatitudeDegrees>40.5839104950428009033203125</LatitudeDegrees>
              <LongitudeDegrees>-4.0114165842533111572265625</LongitudeDegrees>
            </Position>
            <AltitudeMeters>893.79998779296875</AltitudeMeters>
            <DistanceMeters>NAN</DistanceMeters>
          </Trackpoint>
          <Trackpoint>
            <Time>2019-08-01T16:45:05.000Z</Time>
            <Position>
              <LatitudeDegrees>40.58386079035699367523193359375</LatitudeDegrees>
              <LongitudeDegrees>-4.011409543454647064208984375</LongitudeDegrees>
            </Position>
            <AltitudeMeters>894</AltitudeMeters>
            <DistanceMeters>NAN</DistanceMeters>
          </Trackpoint>
          <Trackpoint>
            <Time>2019-08-01T16:45:06.000Z</Time>
            <Position>
              <LatitudeDegrees>40.5838114209473133087158203125</LatitudeDegrees>
              <LongitudeDegrees>-4.01140141300857067108154296875</LongitudeDegrees>
            </Position>
            <AltitudeMeters>894</AltitudeMeters>
            <DistanceMeters>NAN</DistanceMeters>
          </Trackpoint>
          <Trackpoint>
            <Time>2019-08-01T16:45:07.000Z</Time>
            <Position>
              <LatitudeDegrees>40.58376272208988666534423828125</LatitudeDegrees>
              <LongitudeDegrees>-4.011392779648303985595703125</LongitudeDegrees>
            </Position>
            <AltitudeMeters>894.20001220703125</AltitudeMeters>
            <DistanceMeters>NAN</DistanceMeters>
          </Trackpoint>
          <Trackpoint>
            <Time>2019-08-01T16:45:08.000Z</Time>
            <Position>
              <LatitudeDegrees>40.58371477760374546051025390625</LatitudeDegrees>
              <LongitudeDegrees>-4.0113849006593227386474609375</LongitudeDegrees>
            </Position>
            <AltitudeMeters>894.20001220703125</AltitudeMeters>
            <DistanceMeters>NAN</DistanceMeters>
          </Trackpoint>
          <Trackpoint>
            <Time>2019-08-01T16:45:09.000Z</Time>
            <Position>
              <LatitudeDegrees>40.58366834186017513275146484375</LatitudeDegrees>
              <LongitudeDegrees>-4.01137693785130977630615234375</LongitudeDegrees>
            </Position>
            <AltitudeMeters>894.4000244140625</AltitudeMeters>
            <DistanceMeters>NAN</DistanceMeters>
          </Trackpoint>
          <Trackpoint>
            <Time>2019-08-01T16:45:10.000Z</Time>
            <Position>
              <LatitudeDegrees>40.58362324722111225128173828125</LatitudeDegrees>
              <LongitudeDegrees>-4.0113683044910430908203125</LongitudeDegrees>
            </Position>
            <AltitudeMeters>894.4000244140625</AltitudeMeters>
            <DistanceMeters>NAN</DistanceMeters>
          </Trackpoint>
          <Trackpoint>
            <Time>2019-08-01T16:45:11.000Z</Time>
            <Position>
              <LatitudeDegrees>40.58357764966785907745361328125</LatitudeDegrees>
              <LongitudeDegrees>-4.01136185042560100555419921875</LongitudeDegrees>
            </Position>
            <AltitudeMeters>894.5999755859375</AltitudeMeters>
            <DistanceMeters>NAN</DistanceMeters>
          </Trackpoint>
          <Trackpoint>
            <Time>2019-08-01T16:45:12.000Z</Time>
            <Position>
              <LatitudeDegrees>40.58353029191493988037109375</LatitudeDegrees>
              <LongitudeDegrees>-4.01135380379855632781982421875</LongitudeDegrees>
            </Position>
            <AltitudeMeters>894.5999755859375</AltitudeMeters>
            <DistanceMeters>NAN</DistanceMeters>
          </Trackpoint>
          <Trackpoint>
            <Time>2019-08-01T16:45:13.000Z</Time>
            <Position>
              <LatitudeDegrees>40.58348201215267181396484375</LatitudeDegrees>
              <LongitudeDegrees>-4.01134693063795566558837890625</LongitudeDegrees>
            </Position>
            <AltitudeMeters>894.79998779296875</AltitudeMeters>
            <DistanceMeters>NAN</DistanceMeters>
          </Trackpoint>
          <Trackpoint>
            <Time>2019-08-01T16:45:14.000Z</Time>
            <Position>
              <LatitudeDegrees>40.58343247510492801666259765625</LatitudeDegrees>
              <LongitudeDegrees>-4.01134014129638671875</LongitudeDegrees>
            </Position>
            <AltitudeMeters>895</AltitudeMeters>
            <DistanceMeters>NAN</DistanceMeters>
          </Trackpoint>
          <Trackpoint>
            <Time>2019-08-01T16:45:15.000Z</Time>
            <Position>
              <LatitudeDegrees>40.58338134549558162689208984375</LatitudeDegrees>
              <LongitudeDegrees>-4.011331759393215179443359375</LongitudeDegrees>
            </Position>
            <AltitudeMeters>895</AltitudeMeters>
            <DistanceMeters>NAN</DistanceMeters>
          </Trackpoint>
          <Trackpoint>
            <Time>2019-08-01T16:45:16.000Z</Time>
            <Position>
              <LatitudeDegrees>40.58332912623882293701171875</LatitudeDegrees>
              <LongitudeDegrees>-4.0113238804042339324951171875</LongitudeDegrees>
            </Position>
            <AltitudeMeters>895</AltitudeMeters>
            <DistanceMeters>NAN</DistanceMeters>
          </Trackpoint>
          <Trackpoint>
            <Time>2019-08-01T16:45:17.000Z</Time>
            <Position>
              <LatitudeDegrees>40.58327606879174709320068359375</LatitudeDegrees>
              <LongitudeDegrees>-4.01131692342460155487060546875</LongitudeDegrees>
            </Position>
            <AltitudeMeters>895</AltitudeMeters>
            <DistanceMeters>NAN</DistanceMeters>
          </Trackpoint>
          <Trackpoint>
            <Time>2019-08-01T16:45:18.000Z</Time>
            <Position>
              <LatitudeDegrees>40.58322275988757610321044921875</LatitudeDegrees>
              <LongitudeDegrees>-4.01130904443562030792236328125</LongitudeDegrees>
            </Position>
            <AltitudeMeters>895.20001220703125</AltitudeMeters>
            <DistanceMeters>NAN</DistanceMeters>
          </Trackpoint>
          <Trackpoint>
            <Time>2019-08-01T16:45:19.000Z</Time>
            <Position>
              <LatitudeDegrees>40.58316911570727825164794921875</LatitudeDegrees>
              <LongitudeDegrees>-4.01130057871341705322265625</LongitudeDegrees>
            </Position>
            <AltitudeMeters>895.20001220703125</AltitudeMeters>
            <DistanceMeters>NAN</DistanceMeters>
          </Trackpoint>
          <Trackpoint>
            <Time>2019-08-01T16:45:20.000Z</Time>
            <Position>
              <LatitudeDegrees>40.58311597444117069244384765625</LatitudeDegrees>
              <LongitudeDegrees>-4.0112903527915477752685546875</LongitudeDegrees>
            </Position>
            <AltitudeMeters>895.4000244140625</AltitudeMeters>
            <DistanceMeters>NAN</DistanceMeters>
          </Trackpoint>
          <Trackpoint>
            <Time>2019-08-01T16:45:21.000Z</Time>
            <Position>
              <LatitudeDegrees>40.58306350372731685638427734375</LatitudeDegrees>
              <LongitudeDegrees>-4.01128037832677364349365234375</LongitudeDegrees>
            </Position>
            <AltitudeMeters>895.4000244140625</AltitudeMeters>
            <DistanceMeters>NAN</DistanceMeters>
          </Trackpoint>
          <Trackpoint>
            <Time>2019-08-01T16:45:22.000Z</Time>
            <Position>
              <LatitudeDegrees>40.58301103301346302032470703125</LatitudeDegrees>
              <LongitudeDegrees>-4.01127241551876068115234375</LongitudeDegrees>
            </Position>
            <AltitudeMeters>895.79998779296875</AltitudeMeters>
            <DistanceMeters>NAN</DistanceMeters>
          </Trackpoint>
          <Trackpoint>
            <Time>2019-08-01T16:45:23.000Z</Time>
            <Position>
              <LatitudeDegrees>40.58295889757573604583740234375</LatitudeDegrees>
              <LongitudeDegrees>-4.0112650394439697265625</LongitudeDegrees>
            </Position>
            <AltitudeMeters>895.79998779296875</AltitudeMeters>
            <DistanceMeters>NAN</DistanceMeters>
          </Trackpoint>
          <Trackpoint>
            <Time>2019-08-01T16:45:24.000Z</Time>
            <Position>
              <LatitudeDegrees>40.5829078517854213714599609375</LatitudeDegrees>
              <LongitudeDegrees>-4.01125506497919559478759765625</LongitudeDegrees>
            </Position>
            <AltitudeMeters>895.79998779296875</AltitudeMeters>
            <DistanceMeters>NAN</DistanceMeters>
          </Trackpoint>
          <Trackpoint>
            <Time>2019-08-01T16:45:25.000Z</Time>
            <Position>
              <LatitudeDegrees>40.58285839855670928955078125</LatitudeDegrees>
              <LongitudeDegrees>-4.01124559342861175537109375</LongitudeDegrees>
            </Position>
            <AltitudeMeters>895.79998779296875</AltitudeMeters>
            <DistanceMeters>NAN</DistanceMeters>
          </Trackpoint>
          <Trackpoint>
            <Time>2019-08-01T16:45:26.000Z</Time>
            <Position>
              <LatitudeDegrees>40.582807101309299468994140625</LatitudeDegrees>
              <LongitudeDegrees>-4.01123528368771076202392578125</LongitudeDegrees>
            </Position>
            <AltitudeMeters>895.79998779296875</AltitudeMeters>
            <DistanceMeters>NAN</DistanceMeters>
          </Trackpoint>
          <Trackpoint>
            <Time>2019-08-01T16:45:27.000Z</Time>
            <Position>
              <LatitudeDegrees>40.58275622315704822540283203125</LatitudeDegrees>
              <LongitudeDegrees>-4.0112259797751903533935546875</LongitudeDegrees>
            </Position>
            <AltitudeMeters>895.79998779296875</AltitudeMeters>
            <DistanceMeters>NAN</DistanceMeters>
          </Trackpoint>
          <Trackpoint>
            <Time>2019-08-01T16:45:28.000Z</Time>
            <Position>
              <LatitudeDegrees>40.58270576409995555877685546875</LatitudeDegrees>
              <LongitudeDegrees>-4.0112154185771942138671875</LongitudeDegrees>
            </Position>
            <AltitudeMeters>895.79998779296875</AltitudeMeters>
            <DistanceMeters>NAN</DistanceMeters>
          </Trackpoint>
          <Trackpoint>
            <Time>2019-08-01T16:45:29.000Z</Time>
            <Position>
              <LatitudeDegrees>40.58265346102416515350341796875</LatitudeDegrees>
              <LongitudeDegrees>-4.0112048573791980743408203125</LongitudeDegrees>
            </Position>
            <AltitudeMeters>896</AltitudeMeters>
            <DistanceMeters>NAN</DistanceMeters>
          </Trackpoint>
          <Trackpoint>
            <Time>2019-08-01T16:45:30.000Z</Time>
            <Position>
              <LatitudeDegrees>40.582599900662899017333984375</LatitudeDegrees>
              <LongitudeDegrees>-4.0111966431140899658203125</LongitudeDegrees>
            </Position>
            <AltitudeMeters>896</AltitudeMeters>
            <DistanceMeters>NAN</DistanceMeters>
          </Trackpoint>
          <Trackpoint>
            <Time>2019-08-01T16:45:31.000Z</Time>
            <Position>
              <LatitudeDegrees>40.582545585930347442626953125</LatitudeDegrees>
              <LongitudeDegrees>-4.0111885964870452880859375</LongitudeDegrees>
            </Position>
            <AltitudeMeters>896</AltitudeMeters>
            <DistanceMeters>NAN</DistanceMeters>
          </Trackpoint>
          <Trackpoint>
            <Time>2019-08-01T16:45:32.000Z</Time>
            <Position>
              <LatitudeDegrees>40.58249068446457386016845703125</LatitudeDegrees>
              <LongitudeDegrees>-4.01117895729839801788330078125</LongitudeDegrees>
            </Position>
            <AltitudeMeters>896</AltitudeMeters>
            <DistanceMeters>NAN</DistanceMeters>
          </Trackpoint>
          <Trackpoint>
            <Time>2019-08-01T16:45:33.000Z</Time>
            <Position>
              <LatitudeDegrees>40.58243595063686370849609375</LatitudeDegrees>
              <LongitudeDegrees>-4.011168815195560455322265625</LongitudeDegrees>
            </Position>
            <AltitudeMeters>896</AltitudeMeters>
            <DistanceMeters>NAN</DistanceMeters>
          </Trackpoint>
          <Trackpoint>
            <Time>2019-08-01T16:45:34.000Z</Time>
            <Position>
              <LatitudeDegrees>40.5823821388185024261474609375</LatitudeDegrees>
              <LongitudeDegrees>-4.01115917600691318511962890625</LongitudeDegrees>
            </Position>
            <AltitudeMeters>896</AltitudeMeters>
            <DistanceMeters>NAN</DistanceMeters>
          </Trackpoint>
          <Trackpoint>
            <Time>2019-08-01T16:45:35.000Z</Time>
            <Position>
              <LatitudeDegrees>40.5823288299143314361572265625</LatitudeDegrees>
              <LongitudeDegrees>-4.01115037500858306884765625</LongitudeDegrees>
            </Position>
            <AltitudeMeters>896</AltitudeMeters>
            <DistanceMeters>NAN</DistanceMeters>
          </Trackpoint>
          <Trackpoint>
            <Time>2019-08-01T16:45:36.000Z</Time>
            <Position>
              <LatitudeDegrees>40.5822755210101604461669921875</LatitudeDegrees>
              <LongitudeDegrees>-4.011141993105411529541015625</LongitudeDegrees>
            </Position>
            <AltitudeMeters>896.4000244140625</AltitudeMeters>
            <DistanceMeters>NAN</DistanceMeters>
          </Trackpoint>
          <Trackpoint>
            <Time>2019-08-01T16:45:37.000Z</Time>
            <Position>
              <LatitudeDegrees>40.58222162537276744842529296875</LatitudeDegrees>
              <LongitudeDegrees>-4.0111331082880496978759765625</LongitudeDegrees>
            </Position>
            <AltitudeMeters>896.5999755859375</AltitudeMeters>
            <DistanceMeters>NAN</DistanceMeters>
          </Trackpoint>
          <Trackpoint>
            <Time>2019-08-01T16:45:38.000Z</Time>
            <Position>
              <LatitudeDegrees>40.58216781355440616607666015625</LatitudeDegrees>
              <LongitudeDegrees>-4.01112481020390987396240234375</LongitudeDegrees>
            </Position>
            <AltitudeMeters>896.79998779296875</AltitudeMeters>
            <DistanceMeters>NAN</DistanceMeters>
          </Trackpoint>
          <Trackpoint>
            <Time>2019-08-01T16:45:39.000Z</Time>
            <Position>
              <LatitudeDegrees>40.58211408555507659912109375</LatitudeDegrees>
              <LongitudeDegrees>-4.0111161768436431884765625</LongitudeDegrees>
            </Position>
            <AltitudeMeters>897</AltitudeMeters>
            <DistanceMeters>NAN</DistanceMeters>
          </Trackpoint>
          <Trackpoint>
            <Time>2019-08-01T16:45:40.000Z</Time>
            <Position>
              <LatitudeDegrees>40.58206069283187389373779296875</LatitudeDegrees>
              <LongitudeDegrees>-4.01110745966434478759765625</LongitudeDegrees>
            </Position>
            <AltitudeMeters>897</AltitudeMeters>
            <DistanceMeters>NAN</DistanceMeters>
          </Trackpoint>
          <Trackpoint>
            <Time>2019-08-01T16:45:41.000Z</Time>
            <Position>
              <LatitudeDegrees>40.5820069648325443267822265625</LatitudeDegrees>
              <LongitudeDegrees>-4.01109941303730010986328125</LongitudeDegrees>
            </Position>
            <AltitudeMeters>897</AltitudeMeters>
            <DistanceMeters>NAN</DistanceMeters>
          </Trackpoint>
          <Trackpoint>
            <Time>2019-08-01T16:45:42.000Z</Time>
            <Position>
              <LatitudeDegrees>40.58195315301418304443359375</LatitudeDegrees>
              <LongitudeDegrees>-4.01109145022928714752197265625</LongitudeDegrees>
            </Position>
            <AltitudeMeters>897</AltitudeMeters>
            <DistanceMeters>NAN</DistanceMeters>
          </Trackpoint>
          <Trackpoint>
            <Time>2019-08-01T16:45:43.000Z</Time>
            <Position>
              <LatitudeDegrees>40.58189942501485347747802734375</LatitudeDegrees>
              <LongitudeDegrees>-4.01108290068805217742919921875</LongitudeDegrees>
            </Position>
            <AltitudeMeters>897.20001220703125</AltitudeMeters>
            <DistanceMeters>NAN</DistanceMeters>
          </Trackpoint>
          <Trackpoint>
            <Time>2019-08-01T16:45:44.000Z</Time>
            <Position>
              <LatitudeDegrees>40.58184645138680934906005859375</LatitudeDegrees>
              <LongitudeDegrees>-4.01107401587069034576416015625</LongitudeDegrees>
            </Position>
            <AltitudeMeters>897.20001220703125</AltitudeMeters>
            <DistanceMeters>NAN</DistanceMeters>
          </Trackpoint>
          <Trackpoint>
            <Time>2019-08-01T16:45:45.000Z</Time>
            <Position>
              <LatitudeDegrees>40.58179490268230438232421875</LatitudeDegrees>
              <LongitudeDegrees>-4.01106513105332851409912109375</LongitudeDegrees>
            </Position>
            <AltitudeMeters>897.20001220703125</AltitudeMeters>
            <DistanceMeters>NAN</DistanceMeters>
          </Trackpoint>
          <Trackpoint>
            <Time>2019-08-01T16:45:46.000Z</Time>
            <Position>
              <LatitudeDegrees>40.58174402453005313873291015625</LatitudeDegrees>
              <LongitudeDegrees>-4.01105809025466442108154296875</LongitudeDegrees>
            </Position>
            <AltitudeMeters>897</AltitudeMeters>
            <DistanceMeters>NAN</DistanceMeters>
          </Trackpoint>
          <Trackpoint>
            <Time>2019-08-01T16:45:47.000Z</Time>
            <Position>
              <LatitudeDegrees>40.58169297873973846435546875</LatitudeDegrees>
              <LongitudeDegrees>-4.0110509656369686126708984375</LongitudeDegrees>
            </Position>
            <AltitudeMeters>897.20001220703125</AltitudeMeters>
            <DistanceMeters>NAN</DistanceMeters>
          </Trackpoint>
          <Trackpoint>
            <Time>2019-08-01T16:45:48.000Z</Time>
            <Position>
              <LatitudeDegrees>40.5816411785781383514404296875</LatitudeDegrees>
              <LongitudeDegrees>-4.01104266755282878875732421875</LongitudeDegrees>
            </Position>
            <AltitudeMeters>897.20001220703125</AltitudeMeters>
            <DistanceMeters>NAN</DistanceMeters>
          </Trackpoint>
          <Trackpoint>
            <Time>2019-08-01T16:45:51.000Z</Time>
            <Position>
              <LatitudeDegrees>40.5814856104552745819091796875</LatitudeDegrees>
              <LongitudeDegrees>-4.01101852767169475555419921875</LongitudeDegrees>
            </Position>
            <AltitudeMeters>897.20001220703125</AltitudeMeters>
            <DistanceMeters>NAN</DistanceMeters>
          </Trackpoint>
          <Trackpoint>
            <Time>2019-08-01T16:45:52.000Z</Time>
            <Position>
              <LatitudeDegrees>40.5814349837601184844970703125</LatitudeDegrees>
              <LongitudeDegrees>-4.0110110677778720855712890625</LongitudeDegrees>
            </Position>
            <AltitudeMeters>897.20001220703125</AltitudeMeters>
            <DistanceMeters>NAN</DistanceMeters>
          </Trackpoint>
          <Trackpoint>
            <Time>2019-08-01T16:45:53.000Z</Time>
            <Position>
              <LatitudeDegrees>40.5813846923410892486572265625</LatitudeDegrees>
              <LongitudeDegrees>-4.01100310496985912322998046875</LongitudeDegrees>
            </Position>
            <AltitudeMeters>897.20001220703125</AltitudeMeters>
            <DistanceMeters>NAN</DistanceMeters>
          </Trackpoint>
          <Trackpoint>
            <Time>2019-08-01T16:45:54.000Z</Time>
            <Position>
              <LatitudeDegrees>40.58133398182690143585205078125</LatitudeDegrees>
              <LongitudeDegrees>-4.01099438779056072235107421875</LongitudeDegrees>
            </Position>
            <AltitudeMeters>897.20001220703125</AltitudeMeters>
            <DistanceMeters>NAN</DistanceMeters>
          </Trackpoint>
          <Trackpoint>
            <Time>2019-08-01T16:45:55.000Z</Time>
            <Position>
              <LatitudeDegrees>40.58128301985561847686767578125</LatitudeDegrees>
              <LongitudeDegrees>-4.01098533533513545989990234375</LongitudeDegrees>
            </Position>
            <AltitudeMeters>897.4000244140625</AltitudeMeters>
            <DistanceMeters>NAN</DistanceMeters>
          </Trackpoint>
          <Trackpoint>
            <Time>2019-08-01T16:45:56.000Z</Time>
            <Position>
              <LatitudeDegrees>40.5812331475317478179931640625</LatitudeDegrees>
              <LongitudeDegrees>-4.0109748579561710357666015625</LongitudeDegrees>
            </Position>
            <AltitudeMeters>897.4000244140625</AltitudeMeters>
            <DistanceMeters>NAN</DistanceMeters>
          </Trackpoint>
          <Trackpoint>
            <Time>2019-08-01T16:45:57.000Z</Time>
            <Position>
              <LatitudeDegrees>40.5811825208365917205810546875</LatitudeDegrees>
              <LongitudeDegrees>-4.01096588931977748870849609375</LongitudeDegrees>
            </Position>
            <AltitudeMeters>897.5999755859375</AltitudeMeters>
            <DistanceMeters>NAN</DistanceMeters>
          </Trackpoint>
          <Trackpoint>
            <Time>2019-08-01T16:45:58.000Z</Time>
            <Position>
              <LatitudeDegrees>40.5811312235891819000244140625</LatitudeDegrees>
              <LongitudeDegrees>-4.010956585407257080078125</LongitudeDegrees>
            </Position>
            <AltitudeMeters>897.5999755859375</AltitudeMeters>
            <DistanceMeters>NAN</DistanceMeters>
          </Trackpoint>
          <Trackpoint>
            <Time>2019-08-01T16:45:59.000Z</Time>
            <Position>
              <LatitudeDegrees>40.5810802616178989410400390625</LatitudeDegrees>
              <LongitudeDegrees>-4.01094728149473667144775390625</LongitudeDegrees>
            </Position>
            <AltitudeMeters>897.5999755859375</AltitudeMeters>
            <DistanceMeters>NAN</DistanceMeters>
          </Trackpoint>
          <Trackpoint>
            <Time>2019-08-01T16:46:00.000Z</Time>
            <Position>
              <LatitudeDegrees>40.58102871291339397430419921875</LatitudeDegrees>
              <LongitudeDegrees>-4.0109383128583431243896484375</LongitudeDegrees>
            </Position>
            <AltitudeMeters>897.79998779296875</AltitudeMeters>
            <DistanceMeters>NAN</DistanceMeters>
          </Trackpoint>
          <Trackpoint>
            <Time>2019-08-01T16:46:01.000Z</Time>
            <Position>
              <LatitudeDegrees>40.58097657747566699981689453125</LatitudeDegrees>
              <LongitudeDegrees>-4.010930098593235015869140625</LongitudeDegrees>
            </Position>
            <AltitudeMeters>898</AltitudeMeters>
            <DistanceMeters>NAN</DistanceMeters>
          </Trackpoint>
          <Trackpoint>
            <Time>2019-08-01T16:46:02.000Z</Time>
            <Position>
              <LatitudeDegrees>40.58092662133276462554931640625</LatitudeDegrees>
              <LongitudeDegrees>-4.01092238724231719970703125</LongitudeDegrees>
            </Position>
            <AltitudeMeters>898</AltitudeMeters>
            <DistanceMeters>NAN</DistanceMeters>
          </Trackpoint>
          <Trackpoint>
            <Time>2019-08-01T16:46:03.000Z</Time>
            <Position>
              <LatitudeDegrees>40.5808774195611476898193359375</LatitudeDegrees>
              <LongitudeDegrees>-4.01091475971043109893798828125</LongitudeDegrees>
            </Position>
            <AltitudeMeters>898.4000244140625</AltitudeMeters>
            <DistanceMeters>NAN</DistanceMeters>
          </Trackpoint>
          <Trackpoint>
            <Time>2019-08-01T16:46:04.000Z</Time>
            <Position>
              <LatitudeDegrees>40.5808274634182453155517578125</LatitudeDegrees>
              <LongitudeDegrees>-4.01090570725500583648681640625</LongitudeDegrees>
            </Position>
            <AltitudeMeters>898.4000244140625</AltitudeMeters>
            <DistanceMeters>NAN</DistanceMeters>
          </Trackpoint>
          <Trackpoint>
            <Time>2019-08-01T16:46:05.000Z</Time>
            <Position>
              <LatitudeDegrees>40.5807776749134063720703125</LatitudeDegrees>
              <LongitudeDegrees>-4.0108974091708660125732421875</LongitudeDegrees>
            </Position>
            <AltitudeMeters>898.5999755859375</AltitudeMeters>
            <DistanceMeters>NAN</DistanceMeters>
          </Trackpoint>
          <Trackpoint>
            <Time>2019-08-01T16:46:06.000Z</Time>
            <Position>
              <LatitudeDegrees>40.58072872459888458251953125</LatitudeDegrees>
              <LongitudeDegrees>-4.0108880214393138885498046875</LongitudeDegrees>
            </Position>
            <AltitudeMeters>898.79998779296875</AltitudeMeters>
            <DistanceMeters>NAN</DistanceMeters>
          </Trackpoint>
          <Trackpoint>
            <Time>2019-08-01T16:46:07.000Z</Time>
            <Position>
              <LatitudeDegrees>40.5806811153888702392578125</LatitudeDegrees>
              <LongitudeDegrees>-4.01087947189807891845703125</LongitudeDegrees>
            </Position>
            <AltitudeMeters>899</AltitudeMeters>
            <DistanceMeters>NAN</DistanceMeters>
          </Trackpoint>
          <Trackpoint>
            <Time>2019-08-01T16:46:08.000Z</Time>
            <Position>
              <LatitudeDegrees>40.5806336738169193267822265625</LatitudeDegrees>
              <LongitudeDegrees>-4.01087142527103424072265625</LongitudeDegrees>
            </Position>
            <AltitudeMeters>899.20001220703125</AltitudeMeters>
            <DistanceMeters>NAN</DistanceMeters>
          </Trackpoint>
          <Trackpoint>
            <Time>2019-08-01T16:46:09.000Z</Time>
            <Position>
              <LatitudeDegrees>40.58058799244463443756103515625</LatitudeDegrees>
              <LongitudeDegrees>-4.01086748577654361724853515625</LongitudeDegrees>
            </Position>
            <AltitudeMeters>899.5999755859375</AltitudeMeters>
            <DistanceMeters>NAN</DistanceMeters>
          </Trackpoint>
          <Trackpoint>
            <Time>2019-08-01T16:46:10.000Z</Time>
            <Position>
              <LatitudeDegrees>40.580543316900730133056640625</LatitudeDegrees>
              <LongitudeDegrees>-4.01086178608238697052001953125</LongitudeDegrees>
            </Position>
            <AltitudeMeters>899.79998779296875</AltitudeMeters>
            <DistanceMeters>NAN</DistanceMeters>
          </Trackpoint>
          <Trackpoint>
            <Time>2019-08-01T16:46:11.000Z</Time>
            <Position>
              <LatitudeDegrees>40.58050132356584072113037109375</LatitudeDegrees>
              <LongitudeDegrees>-4.0108533203601837158203125</LongitudeDegrees>
            </Position>
            <AltitudeMeters>899.79998779296875</AltitudeMeters>
            <DistanceMeters>NAN</DistanceMeters>
          </Trackpoint>
          <Trackpoint>
            <Time>2019-08-01T16:46:12.000Z</Time>
            <Position>
              <LatitudeDegrees>40.5804620124399662017822265625</LatitudeDegrees>
              <LongitudeDegrees>-4.01084803976118564605712890625</LongitudeDegrees>
            </Position>
            <AltitudeMeters>900</AltitudeMeters>
            <DistanceMeters>NAN</DistanceMeters>
          </Trackpoint>
          <Trackpoint>
            <Time>2019-08-01T16:46:13.000Z</Time>
            <Position>
              <LatitudeDegrees>40.5804224498569965362548828125</LatitudeDegrees>
              <LongitudeDegrees>-4.01084301061928272247314453125</LongitudeDegrees>
            </Position>
            <AltitudeMeters>900.20001220703125</AltitudeMeters>
            <DistanceMeters>NAN</DistanceMeters>
          </Trackpoint>
          <Trackpoint>
            <Time>2019-08-01T16:46:14.000Z</Time>
            <Position>
              <LatitudeDegrees>40.580379031598567962646484375</LatitudeDegrees>
              <LongitudeDegrees>-4.0108394064009189605712890625</LongitudeDegrees>
            </Position>
            <AltitudeMeters>900.4000244140625</AltitudeMeters>
            <DistanceMeters>NAN</DistanceMeters>
          </Trackpoint>
          <Trackpoint>
            <Time>2019-08-01T16:46:15.000Z</Time>
            <Position>
              <LatitudeDegrees>40.58033167384564876556396484375</LatitudeDegrees>
              <LongitudeDegrees>-4.01083253324031829833984375</LongitudeDegrees>
            </Position>
            <AltitudeMeters>900.5999755859375</AltitudeMeters>
            <DistanceMeters>NAN</DistanceMeters>
          </Trackpoint>
          <Trackpoint>
            <Time>2019-08-01T16:46:16.000Z</Time>
            <Position>
              <LatitudeDegrees>40.5802816338837146759033203125</LatitudeDegrees>
              <LongitudeDegrees>-4.01082306168973445892333984375</LongitudeDegrees>
            </Position>
            <AltitudeMeters>900.79998779296875</AltitudeMeters>
            <DistanceMeters>NAN</DistanceMeters>
          </Trackpoint>
          <Trackpoint>
            <Time>2019-08-01T16:46:17.000Z</Time>
            <Position>
              <LatitudeDegrees>40.58023226447403430938720703125</LatitudeDegrees>
              <LongitudeDegrees>-4.0108172781765460968017578125</LongitudeDegrees>
            </Position>
            <AltitudeMeters>901</AltitudeMeters>
            <DistanceMeters>NAN</DistanceMeters>
          </Trackpoint>
          <Trackpoint>
            <Time>2019-08-01T16:46:18.000Z</Time>
            <Position>
              <LatitudeDegrees>40.58018214069306850433349609375</LatitudeDegrees>
              <LongitudeDegrees>-4.01081233285367488861083984375</LongitudeDegrees>
            </Position>
            <AltitudeMeters>901</AltitudeMeters>
            <DistanceMeters>NAN</DistanceMeters>
          </Trackpoint>
          <Trackpoint>
            <Time>2019-08-01T16:46:19.000Z</Time>
            <Position>
              <LatitudeDegrees>40.58013302274048328399658203125</LatitudeDegrees>
              <LongitudeDegrees>-4.01080613024532794952392578125</LongitudeDegrees>
            </Position>
            <AltitudeMeters>901</AltitudeMeters>
            <DistanceMeters>NAN</DistanceMeters>
          </Trackpoint>
          <Trackpoint>
            <Time>2019-08-01T16:46:20.000Z</Time>
            <Position>
              <LatitudeDegrees>40.5800841562449932098388671875</LatitudeDegrees>
              <LongitudeDegrees>-4.01079858653247356414794921875</LongitudeDegrees>
            </Position>
            <AltitudeMeters>901.4000244140625</AltitudeMeters>
            <DistanceMeters>NAN</DistanceMeters>
          </Trackpoint>
          <Trackpoint>
            <Time>2019-08-01T16:46:21.000Z</Time>
            <Position>
              <LatitudeDegrees>40.58003646321594715118408203125</LatitudeDegrees>
              <LongitudeDegrees>-4.010791964828968048095703125</LongitudeDegrees>
            </Position>
            <AltitudeMeters>901.5999755859375</AltitudeMeters>
            <DistanceMeters>NAN</DistanceMeters>
          </Trackpoint>
          <Trackpoint>
            <Time>2019-08-01T16:46:22.000Z</Time>
            <Position>
              <LatitudeDegrees>40.57999036274850368499755859375</LatitudeDegrees>
              <LongitudeDegrees>-4.01078685186803340911865234375</LongitudeDegrees>
            </Position>
            <AltitudeMeters>901.79998779296875</AltitudeMeters>
            <DistanceMeters>NAN</DistanceMeters>
          </Trackpoint>
          <Trackpoint>
            <Time>2019-08-01T16:46:23.000Z</Time>
            <Position>
              <LatitudeDegrees>40.5799453519284725189208984375</LatitudeDegrees>
              <LongitudeDegrees>-4.01078718714416027069091796875</LongitudeDegrees>
            </Position>
            <AltitudeMeters>901.79998779296875</AltitudeMeters>
            <DistanceMeters>NAN</DistanceMeters>
          </Trackpoint>
          <Trackpoint>
            <Time>2019-08-01T16:46:24.000Z</Time>
            <Position>
              <LatitudeDegrees>40.5799007602035999298095703125</LatitudeDegrees>
              <LongitudeDegrees>-4.01079489849507808685302734375</LongitudeDegrees>
            </Position>
            <AltitudeMeters>902</AltitudeMeters>
            <DistanceMeters>NAN</DistanceMeters>
          </Trackpoint>
          <Trackpoint>
            <Time>2019-08-01T16:46:25.000Z</Time>
            <Position>
              <LatitudeDegrees>40.579856671392917633056640625</LatitudeDegrees>
              <LongitudeDegrees>-4.010811746120452880859375</LongitudeDegrees>
            </Position>
            <AltitudeMeters>902</AltitudeMeters>
            <DistanceMeters>NAN</DistanceMeters>
          </Trackpoint>
          <Trackpoint>
            <Time>2019-08-01T16:46:26.000Z</Time>
            <Position>
              <LatitudeDegrees>40.57981333695352077484130859375</LatitudeDegrees>
              <LongitudeDegrees>-4.01083228178322315216064453125</LongitudeDegrees>
            </Position>
            <AltitudeMeters>902.20001220703125</AltitudeMeters>
            <DistanceMeters>NAN</DistanceMeters>
          </Trackpoint>
          <Trackpoint>
            <Time>2019-08-01T16:46:27.000Z</Time>
            <Position>
              <LatitudeDegrees>40.57976975105702877044677734375</LatitudeDegrees>
              <LongitudeDegrees>-4.01084384880959987640380859375</LongitudeDegrees>
            </Position>
            <AltitudeMeters>902.4000244140625</AltitudeMeters>
            <DistanceMeters>NAN</DistanceMeters>
          </Trackpoint>
          <Trackpoint>
            <Time>2019-08-01T16:46:28.000Z</Time>
            <Position>
              <LatitudeDegrees>40.57972331531345844268798828125</LatitudeDegrees>
              <LongitudeDegrees>-4.0108390711247920989990234375</LongitudeDegrees>
            </Position>
            <AltitudeMeters>902.5999755859375</AltitudeMeters>
            <DistanceMeters>NAN</DistanceMeters>
          </Trackpoint>
          <Trackpoint>
            <Time>2019-08-01T16:46:29.000Z</Time>
            <Position>
              <LatitudeDegrees>40.579679645597934722900390625</LatitudeDegrees>
              <LongitudeDegrees>-4.01081643998622894287109375</LongitudeDegrees>
            </Position>
            <AltitudeMeters>903</AltitudeMeters>
            <DistanceMeters>NAN</DistanceMeters>
          </Trackpoint>
          <Trackpoint>
            <Time>2019-08-01T16:46:30.000Z</Time>
            <Position>
              <LatitudeDegrees>40.57963916100561618804931640625</LatitudeDegrees>
              <LongitudeDegrees>-4.01078551076352596282958984375</LongitudeDegrees>
            </Position>
            <AltitudeMeters>903.4000244140625</AltitudeMeters>
            <DistanceMeters>NAN</DistanceMeters>
          </Trackpoint>
          <Trackpoint>
            <Time>2019-08-01T16:46:31.000Z</Time>
            <Position>
              <LatitudeDegrees>40.57959741912782192230224609375</LatitudeDegrees>
              <LongitudeDegrees>-4.0107539109885692596435546875</LongitudeDegrees>
            </Position>
            <AltitudeMeters>903.4000244140625</AltitudeMeters>
            <DistanceMeters>NAN</DistanceMeters>
          </Trackpoint>
          <Trackpoint>
            <Time>2019-08-01T16:46:32.000Z</Time>
            <Position>
              <LatitudeDegrees>40.5795507319271564483642578125</LatitudeDegrees>
              <LongitudeDegrees>-4.01072784326970577239990234375</LongitudeDegrees>
            </Position>
            <AltitudeMeters>903.5999755859375</AltitudeMeters>
            <DistanceMeters>NAN</DistanceMeters>
          </Trackpoint>
          <Trackpoint>
            <Time>2019-08-01T16:46:33.000Z</Time>
            <Position>
              <LatitudeDegrees>40.5795009434223175048828125</LatitudeDegrees>
              <LongitudeDegrees>-4.01070789434015750885009765625</LongitudeDegrees>
            </Position>
            <AltitudeMeters>903.5999755859375</AltitudeMeters>
            <DistanceMeters>NAN</DistanceMeters>
          </Trackpoint>
          <Trackpoint>
            <Time>2019-08-01T16:46:34.000Z</Time>
            <Position>
              <LatitudeDegrees>40.57945090346038341522216796875</LatitudeDegrees>
              <LongitudeDegrees>-4.010693393647670745849609375</LongitudeDegrees>
            </Position>
            <AltitudeMeters>903.79998779296875</AltitudeMeters>
            <DistanceMeters>NAN</DistanceMeters>
          </Trackpoint>
          <Trackpoint>
            <Time>2019-08-01T16:46:35.000Z</Time>
            <Position>
              <LatitudeDegrees>40.5793988518416881561279296875</LatitudeDegrees>
              <LongitudeDegrees>-4.01068274863064289093017578125</LongitudeDegrees>
            </Position>
            <AltitudeMeters>904</AltitudeMeters>
            <DistanceMeters>NAN</DistanceMeters>
          </Trackpoint>
          <Trackpoint>
            <Time>2019-08-01T16:46:36.000Z</Time>
            <Position>
              <LatitudeDegrees>40.57934562675654888153076171875</LatitudeDegrees>
              <LongitudeDegrees>-4.0106741152703762054443359375</LongitudeDegrees>
            </Position>
            <AltitudeMeters>904.20001220703125</AltitudeMeters>
            <DistanceMeters>NAN</DistanceMeters>
          </Trackpoint>
          <Trackpoint>
            <Time>2019-08-01T16:46:37.000Z</Time>
            <Position>
              <LatitudeDegrees>40.5792917311191558837890625</LatitudeDegrees>
              <LongitudeDegrees>-4.01066699065268039703369140625</LongitudeDegrees>
            </Position>
            <AltitudeMeters>904.20001220703125</AltitudeMeters>
            <DistanceMeters>NAN</DistanceMeters>
          </Trackpoint>
          <Trackpoint>
            <Time>2019-08-01T16:46:38.000Z</Time>
            <Position>
              <LatitudeDegrees>40.579237081110477447509765625</LatitudeDegrees>
              <LongitudeDegrees>-4.01065743528306484222412109375</LongitudeDegrees>
            </Position>
            <AltitudeMeters>904.4000244140625</AltitudeMeters>
            <DistanceMeters>NAN</DistanceMeters>
          </Trackpoint>
          <Trackpoint>
            <Time>2019-08-01T16:46:39.000Z</Time>
            <Position>
              <LatitudeDegrees>40.57918217964470386505126953125</LatitudeDegrees>
              <LongitudeDegrees>-4.01064720936119556427001953125</LongitudeDegrees>
            </Position>
            <AltitudeMeters>904.4000244140625</AltitudeMeters>
            <DistanceMeters>NAN</DistanceMeters>
          </Trackpoint>
          <Trackpoint>
            <Time>2019-08-01T16:46:40.000Z</Time>
            <Position>
              <LatitudeDegrees>40.57912602089345455169677734375</LatitudeDegrees>
              <LongitudeDegrees>-4.01063782162964344024658203125</LongitudeDegrees>
            </Position>
            <AltitudeMeters>904.5999755859375</AltitudeMeters>
            <DistanceMeters>NAN</DistanceMeters>
          </Trackpoint>
          <Trackpoint>
            <Time>2019-08-01T16:46:41.000Z</Time>
            <Position>
              <LatitudeDegrees>40.579069443047046661376953125</LatitudeDegrees>
              <LongitudeDegrees>-4.0106275118887424468994140625</LongitudeDegrees>
            </Position>
            <AltitudeMeters>904.5999755859375</AltitudeMeters>
            <DistanceMeters>NAN</DistanceMeters>
          </Trackpoint>
          <Trackpoint>
            <Time>2019-08-01T16:46:42.000Z</Time>
            <Position>
              <LatitudeDegrees>40.579013116657733917236328125</LatitudeDegrees>
              <LongitudeDegrees>-4.01061736978590488433837890625</LongitudeDegrees>
            </Position>
            <AltitudeMeters>904.5999755859375</AltitudeMeters>
            <DistanceMeters>NAN</DistanceMeters>
          </Trackpoint>
          <Trackpoint>
            <Time>2019-08-01T16:46:43.000Z</Time>
            <Position>
              <LatitudeDegrees>40.57895637117326259613037109375</LatitudeDegrees>
              <LongitudeDegrees>-4.01060865260660648345947265625</LongitudeDegrees>
            </Position>
            <AltitudeMeters>904.5999755859375</AltitudeMeters>
            <DistanceMeters>NAN</DistanceMeters>
          </Trackpoint>
          <Trackpoint>
            <Time>2019-08-01T16:46:44.000Z</Time>
            <Position>
              <LatitudeDegrees>40.5788986198604106903076171875</LatitudeDegrees>
              <LongitudeDegrees>-4.0105998516082763671875</LongitudeDegrees>
            </Position>
            <AltitudeMeters>904.5999755859375</AltitudeMeters>
            <DistanceMeters>NAN</DistanceMeters>
          </Trackpoint>
          <Trackpoint>
            <Time>2019-08-01T16:46:45.000Z</Time>
            <Position>
              <LatitudeDegrees>40.57884053327143192291259765625</LatitudeDegrees>
              <LongitudeDegrees>-4.01059138588607311248779296875</LongitudeDegrees>
            </Position>
            <AltitudeMeters>904.5999755859375</AltitudeMeters>
            <DistanceMeters>NAN</DistanceMeters>
          </Trackpoint>
          <Trackpoint>
            <Time>2019-08-01T16:46:46.000Z</Time>
            <Position>
              <LatitudeDegrees>40.57878336869180202484130859375</LatitudeDegrees>
              <LongitudeDegrees>-4.01058266870677471160888671875</LongitudeDegrees>
            </Position>
            <AltitudeMeters>904.5999755859375</AltitudeMeters>
            <DistanceMeters>NAN</DistanceMeters>
          </Trackpoint>
          <Trackpoint>
            <Time>2019-08-01T16:46:47.000Z</Time>
            <Position>
              <LatitudeDegrees>40.57872670702636241912841796875</LatitudeDegrees>
              <LongitudeDegrees>-4.0105745382606983184814453125</LongitudeDegrees>
            </Position>
            <AltitudeMeters>904.5999755859375</AltitudeMeters>
            <DistanceMeters>NAN</DistanceMeters>
          </Trackpoint>
          <Trackpoint>
            <Time>2019-08-01T16:46:49.000Z</Time>
            <Position>
              <LatitudeDegrees>40.57861380279064178466796875</LatitudeDegrees>
              <LongitudeDegrees>-4.01055668480694293975830078125</LongitudeDegrees>
            </Position>
            <AltitudeMeters>904.5999755859375</AltitudeMeters>
            <DistanceMeters>NAN</DistanceMeters>
          </Trackpoint>
          <Trackpoint>
            <Time>2019-08-01T16:46:50.000Z</Time>
            <Position>
              <LatitudeDegrees>40.57855881750583648681640625</LatitudeDegrees>
              <LongitudeDegrees>-4.01054821908473968505859375</LongitudeDegrees>
            </Position>
            <AltitudeMeters>904.5999755859375</AltitudeMeters>
            <DistanceMeters>NAN</DistanceMeters>
          </Trackpoint>
          <Trackpoint>
            <Time>2019-08-01T16:46:51.000Z</Time>
            <Position>
              <LatitudeDegrees>40.57850358076393604278564453125</LatitudeDegrees>
              <LongitudeDegrees>-4.01053790934383869171142578125</LongitudeDegrees>
            </Position>
            <AltitudeMeters>904.5999755859375</AltitudeMeters>
            <DistanceMeters>NAN</DistanceMeters>
          </Trackpoint>
          <Trackpoint>
            <Time>2019-08-01T16:46:52.000Z</Time>
            <Position>
              <LatitudeDegrees>40.57844884693622589111328125</LatitudeDegrees>
              <LongitudeDegrees>-4.01052885688841342926025390625</LongitudeDegrees>
            </Position>
            <AltitudeMeters>904.79998779296875</AltitudeMeters>
            <DistanceMeters>NAN</DistanceMeters>
          </Trackpoint>
          <Trackpoint>
            <Time>2019-08-01T16:46:53.000Z</Time>
            <Position>
              <LatitudeDegrees>40.578394196927547454833984375</LatitudeDegrees>
              <LongitudeDegrees>-4.0105205588042736053466796875</LongitudeDegrees>
            </Position>
            <AltitudeMeters>904.79998779296875</AltitudeMeters>
            <DistanceMeters>NAN</DistanceMeters>
          </Trackpoint>
          <Trackpoint>
            <Time>2019-08-01T16:46:54.000Z</Time>
            <Position>
              <LatitudeDegrees>40.578338541090488433837890625</LatitudeDegrees>
              <LongitudeDegrees>-4.01051108725368976593017578125</LongitudeDegrees>
            </Position>
            <AltitudeMeters>904.79998779296875</AltitudeMeters>
            <DistanceMeters>NAN</DistanceMeters>
          </Trackpoint>
          <Trackpoint>
            <Time>2019-08-01T16:46:55.000Z</Time>
            <Position>
              <LatitudeDegrees>40.57828548364341259002685546875</LatitudeDegrees>
              <LongitudeDegrees>-4.0105037949979305267333984375</LongitudeDegrees>
            </Position>
            <AltitudeMeters>904.79998779296875</AltitudeMeters>
            <DistanceMeters>NAN</DistanceMeters>
          </Trackpoint>
          <Trackpoint>
            <Time>2019-08-01T16:46:57.000Z</Time>
            <Position>
              <LatitudeDegrees>40.57817651890218257904052734375</LatitudeDegrees>
              <LongitudeDegrees>-4.010484516620635986328125</LongitudeDegrees>
            </Position>
            <AltitudeMeters>904.79998779296875</AltitudeMeters>
            <DistanceMeters>NAN</DistanceMeters>
          </Trackpoint>
          <Trackpoint>
            <Time>2019-08-01T16:46:58.000Z</Time>
            <Position>
              <LatitudeDegrees>40.578123293817043304443359375</LatitudeDegrees>
              <LongitudeDegrees>-4.01047504507005214691162109375</LongitudeDegrees>
            </Position>
            <AltitudeMeters>904.79998779296875</AltitudeMeters>
            <DistanceMeters>NAN</DistanceMeters>
          </Trackpoint>
          <Trackpoint>
            <Time>2019-08-01T16:46:59.000Z</Time>
            <Position>
              <LatitudeDegrees>40.57807006873190402984619140625</LatitudeDegrees>
              <LongitudeDegrees>-4.010466076433658599853515625</LongitudeDegrees>
            </Position>
            <AltitudeMeters>904.79998779296875</AltitudeMeters>
            <DistanceMeters>NAN</DistanceMeters>
          </Trackpoint>
          <Trackpoint>
            <Time>2019-08-01T16:47:00.000Z</Time>
            <Position>
              <LatitudeDegrees>40.578016676008701324462890625</LatitudeDegrees>
              <LongitudeDegrees>-4.0104578621685504913330078125</LongitudeDegrees>
            </Position>
            <AltitudeMeters>905</AltitudeMeters>
            <DistanceMeters>NAN</DistanceMeters>
          </Trackpoint>
          <Trackpoint>
            <Time>2019-08-01T16:47:01.000Z</Time>
            <Position>
              <LatitudeDegrees>40.5779635347425937652587890625</LatitudeDegrees>
              <LongitudeDegrees>-4.0104496479034423828125</LongitudeDegrees>
            </Position>
            <AltitudeMeters>905</AltitudeMeters>
            <DistanceMeters>NAN</DistanceMeters>
          </Trackpoint>
          <Trackpoint>
            <Time>2019-08-01T16:47:02.000Z</Time>
            <Position>
              <LatitudeDegrees>40.57791106402873992919921875</LatitudeDegrees>
              <LongitudeDegrees>-4.01044067926704883575439453125</LongitudeDegrees>
            </Position>
            <AltitudeMeters>905.20001220703125</AltitudeMeters>
            <DistanceMeters>NAN</DistanceMeters>
          </Trackpoint>
          <Trackpoint>
            <Time>2019-08-01T16:47:03.000Z</Time>
            <Position>
              <LatitudeDegrees>40.57785968296229839324951171875</LatitudeDegrees>
              <LongitudeDegrees>-4.01043288409709930419921875</LongitudeDegrees>
            </Position>
            <AltitudeMeters>905.20001220703125</AltitudeMeters>
            <DistanceMeters>NAN</DistanceMeters>
          </Trackpoint>
          <Trackpoint>
            <Time>2019-08-01T16:47:05.000Z</Time>
            <Position>
              <LatitudeDegrees>40.57776094414293766021728515625</LatitudeDegrees>
              <LongitudeDegrees>-4.01041788049042224884033203125</LongitudeDegrees>
            </Position>
            <AltitudeMeters>905.20001220703125</AltitudeMeters>
            <DistanceMeters>NAN</DistanceMeters>
          </Trackpoint>
          <Trackpoint>
            <Time>2019-08-01T16:47:06.000Z</Time>
            <Position>
              <LatitudeDegrees>40.5777134187519550323486328125</LatitudeDegrees>
              <LongitudeDegrees>-4.0104085765779018402099609375</LongitudeDegrees>
            </Position>
            <AltitudeMeters>905.20001220703125</AltitudeMeters>
            <DistanceMeters>NAN</DistanceMeters>
          </Trackpoint>
          <Trackpoint>
            <Time>2019-08-01T16:47:07.000Z</Time>
            <Position>
              <LatitudeDegrees>40.57766170240938663482666015625</LatitudeDegrees>
              <LongitudeDegrees>-4.01040312834084033966064453125</LongitudeDegrees>
            </Position>
            <AltitudeMeters>905.20001220703125</AltitudeMeters>
            <DistanceMeters>NAN</DistanceMeters>
          </Trackpoint>
          <Trackpoint>
            <Time>2019-08-01T16:47:08.000Z</Time>
            <Position>
              <LatitudeDegrees>40.57761057280004024505615234375</LatitudeDegrees>
              <LongitudeDegrees>-4.010396338999271392822265625</LongitudeDegrees>
            </Position>
            <AltitudeMeters>905.4000244140625</AltitudeMeters>
            <DistanceMeters>NAN</DistanceMeters>
          </Trackpoint>
          <Trackpoint>
            <Time>2019-08-01T16:47:09.000Z</Time>
            <Position>
              <LatitudeDegrees>40.5775568448007106781005859375</LatitudeDegrees>
              <LongitudeDegrees>-4.0103866159915924072265625</LongitudeDegrees>
            </Position>
            <AltitudeMeters>905.4000244140625</AltitudeMeters>
            <DistanceMeters>NAN</DistanceMeters>
          </Trackpoint>
          <Trackpoint>
            <Time>2019-08-01T16:47:10.000Z</Time>
            <Position>
              <LatitudeDegrees>40.577503032982349395751953125</LatitudeDegrees>
              <LongitudeDegrees>-4.01037865318357944488525390625</LongitudeDegrees>
            </Position>
            <AltitudeMeters>905.4000244140625</AltitudeMeters>
            <DistanceMeters>NAN</DistanceMeters>
          </Trackpoint>
          <Trackpoint>
            <Time>2019-08-01T16:47:11.000Z</Time>
            <Position>
              <LatitudeDegrees>40.5774519033730030059814453125</LatitudeDegrees>
              <LongitudeDegrees>-4.010368175804615020751953125</LongitudeDegrees>
            </Position>
            <AltitudeMeters>905.4000244140625</AltitudeMeters>
            <DistanceMeters>NAN</DistanceMeters>
          </Trackpoint>
          <Trackpoint>
            <Time>2019-08-01T16:47:12.000Z</Time>
            <Position>
              <LatitudeDegrees>40.57740169577300548553466796875</LatitudeDegrees>
              <LongitudeDegrees>-4.0103535912930965423583984375</LongitudeDegrees>
            </Position>
            <AltitudeMeters>905.4000244140625</AltitudeMeters>
            <DistanceMeters>NAN</DistanceMeters>
          </Trackpoint>
          <Trackpoint>
            <Time>2019-08-01T16:47:13.000Z</Time>
            <Position>
              <LatitudeDegrees>40.5773484706878662109375</LatitudeDegrees>
              <LongitudeDegrees>-4.01034303009510040283203125</LongitudeDegrees>
            </Position>
            <AltitudeMeters>905.4000244140625</AltitudeMeters>
            <DistanceMeters>NAN</DistanceMeters>
          </Trackpoint>
          <Trackpoint>
            <Time>2019-08-01T16:47:15.000Z</Time>
            <Position>
              <LatitudeDegrees>40.5772426910698413848876953125</LatitudeDegrees>
              <LongitudeDegrees>-4.01032567955553531646728515625</LongitudeDegrees>
            </Position>
            <AltitudeMeters>905.5999755859375</AltitudeMeters>
            <DistanceMeters>NAN</DistanceMeters>
          </Trackpoint>
          <Trackpoint>
            <Time>2019-08-01T16:47:17.000Z</Time>
            <Position>
              <LatitudeDegrees>40.57713984511792659759521484375</LatitudeDegrees>
              <LongitudeDegrees>-4.0103032998740673065185546875</LongitudeDegrees>
            </Position>
            <AltitudeMeters>906</AltitudeMeters>
            <DistanceMeters>NAN</DistanceMeters>
          </Trackpoint>
          <Trackpoint>
            <Time>2019-08-01T16:47:18.000Z</Time>
            <Position>
              <LatitudeDegrees>40.577089302241802215576171875</LatitudeDegrees>
              <LongitudeDegrees>-4.0102939121425151824951171875</LongitudeDegrees>
            </Position>
            <AltitudeMeters>906</AltitudeMeters>
            <DistanceMeters>NAN</DistanceMeters>
          </Trackpoint>
          <Trackpoint>
            <Time>2019-08-01T16:47:20.000Z</Time>
            <Position>
              <LatitudeDegrees>40.57698905467987060546875</LatitudeDegrees>
              <LongitudeDegrees>-4.01027689687907695770263671875</LongitudeDegrees>
            </Position>
            <AltitudeMeters>906.20001220703125</AltitudeMeters>
            <DistanceMeters>NAN</DistanceMeters>
          </Trackpoint>
          <Trackpoint>
            <Time>2019-08-01T16:47:21.000Z</Time>
            <Position>
              <LatitudeDegrees>40.5769379250705242156982421875</LatitudeDegrees>
              <LongitudeDegrees>-4.01027170009911060333251953125</LongitudeDegrees>
            </Position>
            <AltitudeMeters>906.20001220703125</AltitudeMeters>
            <DistanceMeters>NAN</DistanceMeters>
          </Trackpoint>
          <Trackpoint>
            <Time>2019-08-01T16:47:22.000Z</Time>
            <Position>
              <LatitudeDegrees>40.57688386179506778717041015625</LatitudeDegrees>
              <LongitudeDegrees>-4.01026197709143161773681640625</LongitudeDegrees>
            </Position>
            <AltitudeMeters>906.20001220703125</AltitudeMeters>
            <DistanceMeters>NAN</DistanceMeters>
          </Trackpoint>
          <Trackpoint>
            <Time>2019-08-01T16:47:23.000Z</Time>
            <Position>
              <LatitudeDegrees>40.5768306367099285125732421875</LatitudeDegrees>
              <LongitudeDegrees>-4.0102530084550380706787109375</LongitudeDegrees>
            </Position>
            <AltitudeMeters>906.4000244140625</AltitudeMeters>
            <DistanceMeters>NAN</DistanceMeters>
          </Trackpoint>
          <Trackpoint>
            <Time>2019-08-01T16:47:24.000Z</Time>
            <Position>
              <LatitudeDegrees>40.57677774690091609954833984375</LatitudeDegrees>
              <LongitudeDegrees>-4.0102402679622173309326171875</LongitudeDegrees>
            </Position>
            <AltitudeMeters>906.4000244140625</AltitudeMeters>
            <DistanceMeters>NAN</DistanceMeters>
          </Trackpoint>
          <Trackpoint>
            <Time>2019-08-01T16:47:25.000Z</Time>
            <Position>
              <LatitudeDegrees>40.5767250247299671173095703125</LatitudeDegrees>
              <LongitudeDegrees>-4.01022962294518947601318359375</LongitudeDegrees>
            </Position>
            <AltitudeMeters>906.4000244140625</AltitudeMeters>
            <DistanceMeters>NAN</DistanceMeters>
          </Trackpoint>
          <Trackpoint>
            <Time>2019-08-01T16:47:26.000Z</Time>
            <Position>
              <LatitudeDegrees>40.57667112909257411956787109375</LatitudeDegrees>
              <LongitudeDegrees>-4.0102218277752399444580078125</LongitudeDegrees>
            </Position>
            <AltitudeMeters>906.4000244140625</AltitudeMeters>
            <DistanceMeters>NAN</DistanceMeters>
          </Trackpoint>
          <Trackpoint>
            <Time>2019-08-01T16:47:27.000Z</Time>
            <Position>
              <LatitudeDegrees>40.576617233455181121826171875</LatitudeDegrees>
              <LongitudeDegrees>-4.010213948786258697509765625</LongitudeDegrees>
            </Position>
            <AltitudeMeters>906.4000244140625</AltitudeMeters>
            <DistanceMeters>NAN</DistanceMeters>
          </Trackpoint>
          <Trackpoint>
            <Time>2019-08-01T16:47:28.000Z</Time>
            <Position>
              <LatitudeDegrees>40.57656333781778812408447265625</LatitudeDegrees>
              <LongitudeDegrees>-4.01020313613116741180419921875</LongitudeDegrees>
            </Position>
            <AltitudeMeters>906.4000244140625</AltitudeMeters>
            <DistanceMeters>NAN</DistanceMeters>
          </Trackpoint>
          <Trackpoint>
            <Time>2019-08-01T16:47:29.000Z</Time>
            <Position>
              <LatitudeDegrees>40.5765087716281414031982421875</LatitudeDegrees>
              <LongitudeDegrees>-4.0101919881999492645263671875</LongitudeDegrees>
            </Position>
            <AltitudeMeters>906.5999755859375</AltitudeMeters>
            <DistanceMeters>NAN</DistanceMeters>
          </Trackpoint>
          <Trackpoint>
            <Time>2019-08-01T16:47:30.000Z</Time>
            <Position>
              <LatitudeDegrees>40.5764557980000972747802734375</LatitudeDegrees>
              <LongitudeDegrees>-4.0101846121251583099365234375</LongitudeDegrees>
            </Position>
            <AltitudeMeters>906.5999755859375</AltitudeMeters>
            <DistanceMeters>NAN</DistanceMeters>
          </Trackpoint>
          <Trackpoint>
            <Time>2019-08-01T16:47:31.000Z</Time>
            <Position>
              <LatitudeDegrees>40.57640290819108486175537109375</LatitudeDegrees>
              <LongitudeDegrees>-4.010176397860050201416015625</LongitudeDegrees>
            </Position>
            <AltitudeMeters>906.5999755859375</AltitudeMeters>
            <DistanceMeters>NAN</DistanceMeters>
          </Trackpoint>
          <Trackpoint>
            <Time>2019-08-01T16:47:32.000Z</Time>
            <Position>
              <LatitudeDegrees>40.57635043747723102569580078125</LatitudeDegrees>
              <LongitudeDegrees>-4.01016843505203723907470703125</LongitudeDegrees>
            </Position>
            <AltitudeMeters>906.5999755859375</AltitudeMeters>
            <DistanceMeters>NAN</DistanceMeters>
          </Trackpoint>
          <Trackpoint>
            <Time>2019-08-01T16:47:33.000Z</Time>
            <Position>
              <LatitudeDegrees>40.576298050582408905029296875</LatitudeDegrees>
              <LongitudeDegrees>-4.01015988551080226898193359375</LongitudeDegrees>
            </Position>
            <AltitudeMeters>906.5999755859375</AltitudeMeters>
            <DistanceMeters>NAN</DistanceMeters>
          </Trackpoint>
          <Trackpoint>
            <Time>2019-08-01T16:47:34.000Z</Time>
            <Position>
              <LatitudeDegrees>40.5762455798685550689697265625</LatitudeDegrees>
              <LongitudeDegrees>-4.01015100069344043731689453125</LongitudeDegrees>
            </Position>
            <AltitudeMeters>906.79998779296875</AltitudeMeters>
            <DistanceMeters>NAN</DistanceMeters>
          </Trackpoint>
          <Trackpoint>
            <Time>2019-08-01T16:47:35.000Z</Time>
            <Position>
              <LatitudeDegrees>40.57619319297373294830322265625</LatitudeDegrees>
              <LongitudeDegrees>-4.01014161296188831329345703125</LongitudeDegrees>
            </Position>
            <AltitudeMeters>906.79998779296875</AltitudeMeters>
            <DistanceMeters>NAN</DistanceMeters>
          </Trackpoint>
          <Trackpoint>
            <Time>2019-08-01T16:47:37.000Z</Time>
            <Position>
              <LatitudeDegrees>40.57608640752732753753662109375</LatitudeDegrees>
              <LongitudeDegrees>-4.01012501679360866546630859375</LongitudeDegrees>
            </Position>
            <AltitudeMeters>907.20001220703125</AltitudeMeters>
            <DistanceMeters>NAN</DistanceMeters>
          </Trackpoint>
          <Trackpoint>
            <Time>2019-08-01T16:47:38.000Z</Time>
            <Position>
              <LatitudeDegrees>40.5760328471660614013671875</LatitudeDegrees>
              <LongitudeDegrees>-4.01011596433818340301513671875</LongitudeDegrees>
            </Position>
            <AltitudeMeters>907.4000244140625</AltitudeMeters>
            <DistanceMeters>NAN</DistanceMeters>
          </Trackpoint>
          <Trackpoint>
            <Time>2019-08-01T16:47:39.000Z</Time>
            <Position>
              <LatitudeDegrees>40.57597978971898555755615234375</LatitudeDegrees>
              <LongitudeDegrees>-4.01010741479694843292236328125</LongitudeDegrees>
            </Position>
            <AltitudeMeters>907.4000244140625</AltitudeMeters>
            <DistanceMeters>NAN</DistanceMeters>
          </Trackpoint>
          <Trackpoint>
            <Time>2019-08-01T16:47:40.000Z</Time>
            <Position>
              <LatitudeDegrees>40.57592782191932201385498046875</LatitudeDegrees>
              <LongitudeDegrees>-4.01009920053184032440185546875</LongitudeDegrees>
            </Position>
            <AltitudeMeters>907.5999755859375</AltitudeMeters>
            <DistanceMeters>NAN</DistanceMeters>
          </Trackpoint>
          <Trackpoint>
            <Time>2019-08-01T16:47:41.000Z</Time>
            <Position>
              <LatitudeDegrees>40.5758774466812610626220703125</LatitudeDegrees>
              <LongitudeDegrees>-4.01009048335254192352294921875</LongitudeDegrees>
            </Position>
            <AltitudeMeters>907.5999755859375</AltitudeMeters>
            <DistanceMeters>NAN</DistanceMeters>
          </Trackpoint>
          <Trackpoint>
            <Time>2019-08-01T16:47:42.000Z</Time>
            <Position>
              <LatitudeDegrees>40.5758295021951198577880859375</LatitudeDegrees>
              <LongitudeDegrees>-4.01008092798292636871337890625</LongitudeDegrees>
            </Position>
            <AltitudeMeters>907.5999755859375</AltitudeMeters>
            <DistanceMeters>NAN</DistanceMeters>
          </Trackpoint>
          <Trackpoint>
            <Time>2019-08-01T16:47:43.000Z</Time>
            <Position>
              <LatitudeDegrees>40.57577929459512233734130859375</LatitudeDegrees>
              <LongitudeDegrees>-4.010071121156215667724609375</LongitudeDegrees>
            </Position>
            <AltitudeMeters>907.5999755859375</AltitudeMeters>
            <DistanceMeters>NAN</DistanceMeters>
          </Trackpoint>
          <Trackpoint>
            <Time>2019-08-01T16:47:44.000Z</Time>
            <Position>
              <LatitudeDegrees>40.5757309310138225555419921875</LatitudeDegrees>
              <LongitudeDegrees>-4.01006164960563182830810546875</LongitudeDegrees>
            </Position>
            <AltitudeMeters>907.79998779296875</AltitudeMeters>
            <DistanceMeters>NAN</DistanceMeters>
          </Trackpoint>
          <Trackpoint>
            <Time>2019-08-01T16:47:45.000Z</Time>
            <Position>
              <LatitudeDegrees>40.5756833218038082122802734375</LatitudeDegrees>
              <LongitudeDegrees>-4.01005259715020656585693359375</LongitudeDegrees>
            </Position>
            <AltitudeMeters>907.79998779296875</AltitudeMeters>
            <DistanceMeters>NAN</DistanceMeters>
          </Trackpoint>
          <Trackpoint>
            <Time>2019-08-01T16:47:46.000Z</Time>
            <Position>
              <LatitudeDegrees>40.57563629932701587677001953125</LatitudeDegrees>
              <LongitudeDegrees>-4.0100424550473690032958984375</LongitudeDegrees>
            </Position>
            <AltitudeMeters>907.79998779296875</AltitudeMeters>
            <DistanceMeters>NAN</DistanceMeters>
          </Trackpoint>
          <Trackpoint>
            <Time>2019-08-01T16:47:47.000Z</Time>
            <Position>
              <LatitudeDegrees>40.57559103704988956451416015625</LatitudeDegrees>
              <LongitudeDegrees>-4.01003365404903888702392578125</LongitudeDegrees>
            </Position>
            <AltitudeMeters>907.79998779296875</AltitudeMeters>
            <DistanceMeters>NAN</DistanceMeters>
          </Trackpoint>
          <Trackpoint>
            <Time>2019-08-01T16:47:48.000Z</Time>
            <Position>
              <LatitudeDegrees>40.57554862461984157562255859375</LatitudeDegrees>
              <LongitudeDegrees>-4.01002728380262851715087890625</LongitudeDegrees>
            </Position>
            <AltitudeMeters>907.79998779296875</AltitudeMeters>
            <DistanceMeters>NAN</DistanceMeters>
          </Trackpoint>
          <Trackpoint>
            <Time>2019-08-01T16:47:49.000Z</Time>
            <Position>
              <LatitudeDegrees>40.57551157660782337188720703125</LatitudeDegrees>
              <LongitudeDegrees>-4.010015465319156646728515625</LongitudeDegrees>
            </Position>
            <AltitudeMeters>908</AltitudeMeters>
            <DistanceMeters>NAN</DistanceMeters>
          </Trackpoint>
          <Trackpoint>
            <Time>2019-08-01T16:47:51.000Z</Time>
            <Position>
              <LatitudeDegrees>40.5754492990672588348388671875</LatitudeDegrees>
              <LongitudeDegrees>-4.00999560020864009857177734375</LongitudeDegrees>
            </Position>
            <AltitudeMeters>908.20001220703125</AltitudeMeters>
            <DistanceMeters>NAN</DistanceMeters>
          </Trackpoint>
          <Trackpoint>
            <Time>2019-08-01T16:47:52.000Z</Time>
            <Position>
              <LatitudeDegrees>40.57541836984455585479736328125</LatitudeDegrees>
              <LongitudeDegrees>-4.00997917167842388153076171875</LongitudeDegrees>
            </Position>
            <AltitudeMeters>908.4000244140625</AltitudeMeters>
            <DistanceMeters>NAN</DistanceMeters>
          </Trackpoint>
          <Trackpoint>
            <Time>2019-08-01T16:47:53.000Z</Time>
            <Position>
              <LatitudeDegrees>40.5753872729837894439697265625</LatitudeDegrees>
              <LongitudeDegrees>-4.0099546127021312713623046875</LongitudeDegrees>
            </Position>
            <AltitudeMeters>908.5999755859375</AltitudeMeters>
            <DistanceMeters>NAN</DistanceMeters>
          </Trackpoint>
          <Trackpoint>
            <Time>2019-08-01T16:47:54.000Z</Time>
            <Position>
              <LatitudeDegrees>40.57535399682819843292236328125</LatitudeDegrees>
              <LongitudeDegrees>-4.00993323884904384613037109375</LongitudeDegrees>
            </Position>
            <AltitudeMeters>908.79998779296875</AltitudeMeters>
            <DistanceMeters>NAN</DistanceMeters>
          </Trackpoint>
          <Trackpoint>
            <Time>2019-08-01T16:47:55.000Z</Time>
            <Position>
              <LatitudeDegrees>40.57532231323421001434326171875</LatitudeDegrees>
              <LongitudeDegrees>-4.00991789996623992919921875</LongitudeDegrees>
            </Position>
            <AltitudeMeters>908.79998779296875</AltitudeMeters>
            <DistanceMeters>NAN</DistanceMeters>
          </Trackpoint>
          <Trackpoint>
            <Time>2019-08-01T16:47:56.000Z</Time>
            <Position>
              <LatitudeDegrees>40.575300939381122589111328125</LatitudeDegrees>
              <LongitudeDegrees>-4.00990289635956287384033203125</LongitudeDegrees>
            </Position>
            <AltitudeMeters>908.79998779296875</AltitudeMeters>
            <DistanceMeters>NAN</DistanceMeters>
          </Trackpoint>
          <Trackpoint>
            <Time>2019-08-01T16:47:57.000Z</Time>
            <Position>
              <LatitudeDegrees>40.5752860195934772491455078125</LatitudeDegrees>
              <LongitudeDegrees>-4.00988764129579067230224609375</LongitudeDegrees>
            </Position>
            <AltitudeMeters>909</AltitudeMeters>
            <DistanceMeters>NAN</DistanceMeters>
          </Trackpoint>
          <Trackpoint>
            <Time>2019-08-01T16:47:58.000Z</Time>
            <Position>
              <LatitudeDegrees>40.5752716027200222015380859375</LatitudeDegrees>
              <LongitudeDegrees>-4.0098774991929531097412109375</LongitudeDegrees>
            </Position>
            <AltitudeMeters>909.20001220703125</AltitudeMeters>
            <DistanceMeters>NAN</DistanceMeters>
          </Trackpoint>
          <Trackpoint>
            <Time>2019-08-01T16:48:00.000Z</Time>
            <Position>
              <LatitudeDegrees>40.57522944174706935882568359375</LatitudeDegrees>
              <LongitudeDegrees>-4.00985889136791229248046875</LongitudeDegrees>
            </Position>
            <AltitudeMeters>909.20001220703125</AltitudeMeters>
            <DistanceMeters>NAN</DistanceMeters>
          </Trackpoint>
          <Trackpoint>
            <Time>2019-08-01T16:48:01.000Z</Time>
            <Position>
              <LatitudeDegrees>40.57521083392202854156494140625</LatitudeDegrees>
              <LongitudeDegrees>-4.009844474494457244873046875</LongitudeDegrees>
            </Position>
            <AltitudeMeters>909.20001220703125</AltitudeMeters>
            <DistanceMeters>NAN</DistanceMeters>
          </Trackpoint>
          <Trackpoint>
            <Time>2019-08-01T16:48:03.000Z</Time>
            <Position>
              <LatitudeDegrees>40.57518132962286472320556640625</LatitudeDegrees>
              <LongitudeDegrees>-4.00981237180531024932861328125</LongitudeDegrees>
            </Position>
            <AltitudeMeters>909.4000244140625</AltitudeMeters>
            <DistanceMeters>NAN</DistanceMeters>
          </Trackpoint>
          <Trackpoint>
            <Time>2019-08-01T16:48:04.000Z</Time>
            <Position>
              <LatitudeDegrees>40.57517278008162975311279296875</LatitudeDegrees>
              <LongitudeDegrees>-4.0097953565418720245361328125</LongitudeDegrees>
            </Position>
            <AltitudeMeters>909.5999755859375</AltitudeMeters>
            <DistanceMeters>NAN</DistanceMeters>
          </Trackpoint>
          <Trackpoint>
            <Time>2019-08-01T16:48:05.000Z</Time>
            <Position>
              <LatitudeDegrees>40.57516909204423427581787109375</LatitudeDegrees>
              <LongitudeDegrees>-4.00977934710681438446044921875</LongitudeDegrees>
            </Position>
            <AltitudeMeters>909.5999755859375</AltitudeMeters>
            <DistanceMeters>NAN</DistanceMeters>
          </Trackpoint>
          <Trackpoint>
            <Time>2019-08-01T16:48:06.000Z</Time>
            <Position>
              <LatitudeDegrees>40.5751639790832996368408203125</LatitudeDegrees>
              <LongitudeDegrees>-4.00975973345339298248291015625</LongitudeDegrees>
            </Position>
            <AltitudeMeters>909.79998779296875</AltitudeMeters>
            <DistanceMeters>NAN</DistanceMeters>
          </Trackpoint>
          <Trackpoint>
            <Time>2019-08-01T16:48:07.000Z</Time>
            <Position>
              <LatitudeDegrees>40.575158782303333282470703125</LatitudeDegrees>
              <LongitudeDegrees>-4.00974464602768421173095703125</LongitudeDegrees>
            </Position>
            <AltitudeMeters>909.79998779296875</AltitudeMeters>
            <DistanceMeters>NAN</DistanceMeters>
          </Trackpoint>
          <Trackpoint>
            <Time>2019-08-01T16:48:08.000Z</Time>
            <Position>
              <LatitudeDegrees>40.57515199296176433563232421875</LatitudeDegrees>
              <LongitudeDegrees>-4.00972570292651653289794921875</LongitudeDegrees>
            </Position>
            <AltitudeMeters>909.79998779296875</AltitudeMeters>
            <DistanceMeters>NAN</DistanceMeters>
          </Trackpoint>
          <Trackpoint>
            <Time>2019-08-01T16:48:09.000Z</Time>
            <Position>
              <LatitudeDegrees>40.5751458741724491119384765625</LatitudeDegrees>
              <LongitudeDegrees>-4.00970038957893848419189453125</LongitudeDegrees>
            </Position>
            <AltitudeMeters>909.79998779296875</AltitudeMeters>
            <DistanceMeters>NAN</DistanceMeters>
          </Trackpoint>
          <Trackpoint>
            <Time>2019-08-01T16:48:10.000Z</Time>
            <Position>
              <LatitudeDegrees>40.57513908483088016510009765625</LatitudeDegrees>
              <LongitudeDegrees>-4.00967289693653583526611328125</LongitudeDegrees>
            </Position>
            <AltitudeMeters>909.79998779296875</AltitudeMeters>
            <DistanceMeters>NAN</DistanceMeters>
          </Trackpoint>
          <Trackpoint>
            <Time>2019-08-01T16:48:11.000Z</Time>
            <Position>
              <LatitudeDegrees>40.57513221167027950286865234375</LatitudeDegrees>
              <LongitudeDegrees>-4.00964657776057720184326171875</LongitudeDegrees>
            </Position>
            <AltitudeMeters>909.79998779296875</AltitudeMeters>
            <DistanceMeters>NAN</DistanceMeters>
          </Trackpoint>
          <Trackpoint>
            <Time>2019-08-01T16:48:12.000Z</Time>
            <Position>
              <LatitudeDegrees>40.57512735016644001007080078125</LatitudeDegrees>
              <LongitudeDegrees>-4.0096250362694263458251953125</LongitudeDegrees>
            </Position>
            <AltitudeMeters>909.79998779296875</AltitudeMeters>
            <DistanceMeters>NAN</DistanceMeters>
          </Trackpoint>
          <Trackpoint>
            <Time>2019-08-01T16:48:13.000Z</Time>
            <Position>
              <LatitudeDegrees>40.5751217342913150787353515625</LatitudeDegrees>
              <LongitudeDegrees>-4.00960818864405155181884765625</LongitudeDegrees>
            </Position>
            <AltitudeMeters>909.79998779296875</AltitudeMeters>
            <DistanceMeters>NAN</DistanceMeters>
          </Trackpoint>
          <Trackpoint>
            <Time>2019-08-01T16:48:14.000Z</Time>
            <Position>
              <LatitudeDegrees>40.57511695660650730133056640625</LatitudeDegrees>
              <LongitudeDegrees>-4.00960081256926059722900390625</LongitudeDegrees>
            </Position>
            <AltitudeMeters>909.79998779296875</AltitudeMeters>
            <DistanceMeters>NAN</DistanceMeters>
          </Trackpoint>
          <Trackpoint>
            <Time>2019-08-01T16:48:15.000Z</Time>
            <Position>
              <LatitudeDegrees>40.57511494494974613189697265625</LatitudeDegrees>
              <LongitudeDegrees>-4.0095988847315311431884765625</LongitudeDegrees>
            </Position>
            <AltitudeMeters>909.79998779296875</AltitudeMeters>
            <DistanceMeters>NAN</DistanceMeters>
          </Trackpoint>
          <Trackpoint>
            <Time>2019-08-01T16:48:21.000Z</Time>
            <Position>
              <LatitudeDegrees>40.57508175261318683624267578125</LatitudeDegrees>
              <LongitudeDegrees>-4.00961204431951045989990234375</LongitudeDegrees>
            </Position>
            <AltitudeMeters>909.79998779296875</AltitudeMeters>
            <DistanceMeters>NAN</DistanceMeters>
          </Trackpoint>
          <Trackpoint>
            <Time>2019-08-01T16:48:22.000Z</Time>
            <Position>
              <LatitudeDegrees>40.575067587196826934814453125</LatitudeDegrees>
              <LongitudeDegrees>-4.00961749255657196044921875</LongitudeDegrees>
            </Position>
            <AltitudeMeters>909.79998779296875</AltitudeMeters>
            <DistanceMeters>NAN</DistanceMeters>
          </Trackpoint>
          <Trackpoint>
            <Time>2019-08-01T16:48:23.000Z</Time>
            <Position>
              <LatitudeDegrees>40.57505342178046703338623046875</LatitudeDegrees>
              <LongitudeDegrees>-4.0096220187842845916748046875</LongitudeDegrees>
            </Position>
            <AltitudeMeters>909.79998779296875</AltitudeMeters>
            <DistanceMeters>NAN</DistanceMeters>
          </Trackpoint>
          <Trackpoint>
            <Time>2019-08-01T16:48:24.000Z</Time>
            <Position>
              <LatitudeDegrees>40.57503984309732913970947265625</LatitudeDegrees>
              <LongitudeDegrees>-4.009626545011997222900390625</LongitudeDegrees>
            </Position>
            <AltitudeMeters>909.79998779296875</AltitudeMeters>
            <DistanceMeters>NAN</DistanceMeters>
          </Trackpoint>
          <Trackpoint>
            <Time>2019-08-01T16:48:25.000Z</Time>
            <Position>
              <LatitudeDegrees>40.57502659969031810760498046875</LatitudeDegrees>
              <LongitudeDegrees>-4.009629897773265838623046875</LongitudeDegrees>
            </Position>
            <AltitudeMeters>909.79998779296875</AltitudeMeters>
            <DistanceMeters>NAN</DistanceMeters>
          </Trackpoint>
          <Trackpoint>
            <Time>2019-08-01T16:48:26.000Z</Time>
            <Position>
              <LatitudeDegrees>40.575017631053924560546875</LatitudeDegrees>
              <LongitudeDegrees>-4.00963685475289821624755859375</LongitudeDegrees>
            </Position>
            <AltitudeMeters>909.79998779296875</AltitudeMeters>
            <DistanceMeters>NAN</DistanceMeters>
          </Trackpoint>
          <Trackpoint>
            <Time>2019-08-01T16:48:27.000Z</Time>
            <Position>
              <LatitudeDegrees>40.57501293718814849853515625</LatitudeDegrees>
              <LongitudeDegrees>-4.00963953696191310882568359375</LongitudeDegrees>
            </Position>
            <AltitudeMeters>909.79998779296875</AltitudeMeters>
            <DistanceMeters>NAN</DistanceMeters>
          </Trackpoint>
          <Trackpoint>
            <Time>2019-08-01T16:48:28.000Z</Time>
            <Position>
              <LatitudeDegrees>40.575009919703006744384765625</LatitudeDegrees>
              <LongitudeDegrees>-4.00963936932384967803955078125</LongitudeDegrees>
            </Position>
            <AltitudeMeters>909.79998779296875</AltitudeMeters>
            <DistanceMeters>NAN</DistanceMeters>
          </Trackpoint>
          <Trackpoint>
            <Time>2019-08-01T16:48:29.000Z</Time>
            <Position>
              <LatitudeDegrees>40.5750040523707866668701171875</LatitudeDegrees>
              <LongitudeDegrees>-4.009636603295803070068359375</LongitudeDegrees>
            </Position>
            <AltitudeMeters>909.79998779296875</AltitudeMeters>
            <DistanceMeters>NAN</DistanceMeters>
          </Trackpoint>
          <Trackpoint>
            <Time>2019-08-01T16:51:23.000Z</Time>
            <Position>
              <LatitudeDegrees>40.57500581257045269012451171875</LatitudeDegrees>
              <LongitudeDegrees>-4.00957197882235050201416015625</LongitudeDegrees>
            </Position>
            <AltitudeMeters>910.5999755859375</AltitudeMeters>
            <DistanceMeters>NAN</DistanceMeters>
          </Trackpoint>
          <Trackpoint>
            <Time>2019-08-01T16:51:24.000Z</Time>
            <Position>
              <LatitudeDegrees>40.57499843649566173553466796875</LatitudeDegrees>
              <LongitudeDegrees>-4.00953912176191806793212890625</LongitudeDegrees>
            </Position>
            <AltitudeMeters>910.5999755859375</AltitudeMeters>
            <DistanceMeters>NAN</DistanceMeters>
          </Trackpoint>
          <Trackpoint>
            <Time>2019-08-01T16:51:25.000Z</Time>
            <Position>
              <LatitudeDegrees>40.574989803135395050048828125</LatitudeDegrees>
              <LongitudeDegrees>-4.009503163397312164306640625</LongitudeDegrees>
            </Position>
            <AltitudeMeters>910.4000244140625</AltitudeMeters>
            <DistanceMeters>NAN</DistanceMeters>
          </Trackpoint>
          <Trackpoint>
            <Time>2019-08-01T16:51:26.000Z</Time>
            <Position>
              <LatitudeDegrees>40.57497915811836719512939453125</LatitudeDegrees>
              <LongitudeDegrees>-4.0094624273478984832763671875</LongitudeDegrees>
            </Position>
            <AltitudeMeters>910.4000244140625</AltitudeMeters>
            <DistanceMeters>NAN</DistanceMeters>
          </Trackpoint>
          <Trackpoint>
            <Time>2019-08-01T16:51:27.000Z</Time>
            <Position>
              <LatitudeDegrees>40.574963986873626708984375</LatitudeDegrees>
              <LongitudeDegrees>-4.00940735824406147003173828125</LongitudeDegrees>
            </Position>
            <AltitudeMeters>910.4000244140625</AltitudeMeters>
            <DistanceMeters>NAN</DistanceMeters>
          </Trackpoint>
          <Trackpoint>
            <Time>2019-08-01T16:51:28.000Z</Time>
            <Position>
              <LatitudeDegrees>40.5749447084963321685791015625</LatitudeDegrees>
              <LongitudeDegrees>-4.0093383751809597015380859375</LongitudeDegrees>
            </Position>
            <AltitudeMeters>910.5999755859375</AltitudeMeters>
            <DistanceMeters>NAN</DistanceMeters>
          </Trackpoint>
          <Trackpoint>
            <Time>2019-08-01T16:51:29.000Z</Time>
            <Position>
              <LatitudeDegrees>40.5749229155480861663818359375</LatitudeDegrees>
              <LongitudeDegrees>-4.0092595852911472320556640625</LongitudeDegrees>
            </Position>
            <AltitudeMeters>910.4000244140625</AltitudeMeters>
            <DistanceMeters>NAN</DistanceMeters>
          </Trackpoint>
          <Trackpoint>
            <Time>2019-08-01T16:51:30.000Z</Time>
            <Position>
              <LatitudeDegrees>40.5749009549617767333984375</LatitudeDegrees>
              <LongitudeDegrees>-4.00917970575392246246337890625</LongitudeDegrees>
            </Position>
            <AltitudeMeters>910.4000244140625</AltitudeMeters>
            <DistanceMeters>NAN</DistanceMeters>
          </Trackpoint>
          <Trackpoint>
            <Time>2019-08-01T16:51:31.000Z</Time>
            <Position>
              <LatitudeDegrees>40.574878156185150146484375</LatitudeDegrees>
              <LongitudeDegrees>-4.00909890420734882354736328125</LongitudeDegrees>
            </Position>
            <AltitudeMeters>910.4000244140625</AltitudeMeters>
            <DistanceMeters>NAN</DistanceMeters>
          </Trackpoint>
          <Trackpoint>
            <Time>2019-08-01T16:51:33.000Z</Time>
            <Position>
              <LatitudeDegrees>40.57483197189867496490478515625</LatitudeDegrees>
              <LongitudeDegrees>-4.00893394835293292999267578125</LongitudeDegrees>
            </Position>
            <AltitudeMeters>910.4000244140625</AltitudeMeters>
            <DistanceMeters>NAN</DistanceMeters>
          </Trackpoint>
          <Trackpoint>
            <Time>2019-08-01T16:51:34.000Z</Time>
            <Position>
              <LatitudeDegrees>40.57480816729366779327392578125</LatitudeDegrees>
              <LongitudeDegrees>-4.00884912349283695220947265625</LongitudeDegrees>
            </Position>
            <AltitudeMeters>910.20001220703125</AltitudeMeters>
            <DistanceMeters>NAN</DistanceMeters>
          </Trackpoint>
          <Trackpoint>
            <Time>2019-08-01T16:51:35.000Z</Time>
            <Position>
              <LatitudeDegrees>40.57478360831737518310546875</LatitudeDegrees>
              <LongitudeDegrees>-4.008762203156948089599609375</LongitudeDegrees>
            </Position>
            <AltitudeMeters>910</AltitudeMeters>
            <DistanceMeters>NAN</DistanceMeters>
          </Trackpoint>
          <Trackpoint>
            <Time>2019-08-01T16:51:36.000Z</Time>
            <Position>
              <LatitudeDegrees>40.57475938461720943450927734375</LatitudeDegrees>
              <LongitudeDegrees>-4.0086748637259006500244140625</LongitudeDegrees>
            </Position>
            <AltitudeMeters>909.5999755859375</AltitudeMeters>
            <DistanceMeters>NAN</DistanceMeters>
          </Trackpoint>
          <Trackpoint>
            <Time>2019-08-01T16:51:37.000Z</Time>
            <Position>
              <LatitudeDegrees>40.57473558001220226287841796875</LatitudeDegrees>
              <LongitudeDegrees>-4.0085873566567897796630859375</LongitudeDegrees>
            </Position>
            <AltitudeMeters>909.4000244140625</AltitudeMeters>
            <DistanceMeters>NAN</DistanceMeters>
          </Trackpoint>
          <Trackpoint>
            <Time>2019-08-01T16:51:38.000Z</Time>
            <Position>
              <LatitudeDegrees>40.5747110210359096527099609375</LatitudeDegrees>
              <LongitudeDegrees>-4.0084981732070446014404296875</LongitudeDegrees>
            </Position>
            <AltitudeMeters>909</AltitudeMeters>
            <DistanceMeters>NAN</DistanceMeters>
          </Trackpoint>
          <Trackpoint>
            <Time>2019-08-01T16:51:39.000Z</Time>
            <Position>
              <LatitudeDegrees>40.57468595914542675018310546875</LatitudeDegrees>
              <LongitudeDegrees>-4.0084076486527919769287109375</LongitudeDegrees>
            </Position>
            <AltitudeMeters>908.79998779296875</AltitudeMeters>
            <DistanceMeters>NAN</DistanceMeters>
          </Trackpoint>
          <Trackpoint>
            <Time>2019-08-01T16:51:40.000Z</Time>
            <Position>
              <LatitudeDegrees>40.57466089725494384765625</LatitudeDegrees>
              <LongitudeDegrees>-4.00831670500338077545166015625</LongitudeDegrees>
            </Position>
            <AltitudeMeters>908.5999755859375</AltitudeMeters>
            <DistanceMeters>NAN</DistanceMeters>
          </Trackpoint>
          <Trackpoint>
            <Time>2019-08-01T16:51:41.000Z</Time>
            <Position>
              <LatitudeDegrees>40.57463566772639751434326171875</LatitudeDegrees>
              <LongitudeDegrees>-4.00822634808719158172607421875</LongitudeDegrees>
            </Position>
            <AltitudeMeters>908.20001220703125</AltitudeMeters>
            <DistanceMeters>NAN</DistanceMeters>
          </Trackpoint>
          <Trackpoint>
            <Time>2019-08-01T16:51:42.000Z</Time>
            <Position>
              <LatitudeDegrees>40.5746101029217243194580078125</LatitudeDegrees>
              <LongitudeDegrees>-4.00813615880906581878662109375</LongitudeDegrees>
            </Position>
            <AltitudeMeters>908</AltitudeMeters>
            <DistanceMeters>NAN</DistanceMeters>
          </Trackpoint>
          <Trackpoint>
            <Time>2019-08-01T16:51:43.000Z</Time>
            <Position>
              <LatitudeDegrees>40.5745846219360828399658203125</LatitudeDegrees>
              <LongitudeDegrees>-4.00804596953094005584716796875</LongitudeDegrees>
            </Position>
            <AltitudeMeters>907.5999755859375</AltitudeMeters>
            <DistanceMeters>NAN</DistanceMeters>
          </Trackpoint>
          <Trackpoint>
            <Time>2019-08-01T16:51:44.000Z</Time>
            <Position>
              <LatitudeDegrees>40.57455964386463165283203125</LatitudeDegrees>
              <LongitudeDegrees>-4.00795443914830684661865234375</LongitudeDegrees>
            </Position>
            <AltitudeMeters>907.4000244140625</AltitudeMeters>
            <DistanceMeters>NAN</DistanceMeters>
          </Trackpoint>
          <Trackpoint>
            <Time>2019-08-01T16:51:45.000Z</Time>
            <Position>
              <LatitudeDegrees>40.57453474961221218109130859375</LatitudeDegrees>
              <LongitudeDegrees>-4.00786307640373706817626953125</LongitudeDegrees>
            </Position>
            <AltitudeMeters>907.20001220703125</AltitudeMeters>
            <DistanceMeters>NAN</DistanceMeters>
          </Trackpoint>
          <Trackpoint>
            <Time>2019-08-01T16:51:46.000Z</Time>
            <Position>
              <LatitudeDegrees>40.57450926862657070159912109375</LatitudeDegrees>
              <LongitudeDegrees>-4.007771797478199005126953125</LongitudeDegrees>
            </Position>
            <AltitudeMeters>907.20001220703125</AltitudeMeters>
            <DistanceMeters>NAN</DistanceMeters>
          </Trackpoint>
          <Trackpoint>
            <Time>2019-08-01T16:51:47.000Z</Time>
            <Position>
              <LatitudeDegrees>40.57448294945061206817626953125</LatitudeDegrees>
              <LongitudeDegrees>-4.0076790936291217803955078125</LongitudeDegrees>
            </Position>
            <AltitudeMeters>907</AltitudeMeters>
            <DistanceMeters>NAN</DistanceMeters>
          </Trackpoint>
          <Trackpoint>
            <Time>2019-08-01T16:51:48.000Z</Time>
            <Position>
              <LatitudeDegrees>40.574456043541431427001953125</LatitudeDegrees>
              <LongitudeDegrees>-4.0075848810374736785888671875</LongitudeDegrees>
            </Position>
            <AltitudeMeters>907</AltitudeMeters>
            <DistanceMeters>NAN</DistanceMeters>
          </Trackpoint>
          <Trackpoint>
            <Time>2019-08-01T16:51:49.000Z</Time>
            <Position>
              <LatitudeDegrees>40.57442964054644107818603515625</LatitudeDegrees>
              <LongitudeDegrees>-4.00748941116034984588623046875</LongitudeDegrees>
            </Position>
            <AltitudeMeters>907</AltitudeMeters>
            <DistanceMeters>NAN</DistanceMeters>
          </Trackpoint>
          <Trackpoint>
            <Time>2019-08-01T16:51:50.000Z</Time>
            <Position>
              <LatitudeDegrees>40.57440298609435558319091796875</LatitudeDegrees>
              <LongitudeDegrees>-4.007394611835479736328125</LongitudeDegrees>
            </Position>
            <AltitudeMeters>907</AltitudeMeters>
            <DistanceMeters>NAN</DistanceMeters>
          </Trackpoint>
          <Trackpoint>
            <Time>2019-08-01T16:51:51.000Z</Time>
            <Position>
              <LatitudeDegrees>40.57437532581388950347900390625</LatitudeDegrees>
              <LongitudeDegrees>-4.007300399243831634521484375</LongitudeDegrees>
            </Position>
            <AltitudeMeters>906.79998779296875</AltitudeMeters>
            <DistanceMeters>NAN</DistanceMeters>
          </Trackpoint>
          <Trackpoint>
            <Time>2019-08-01T16:51:52.000Z</Time>
            <Position>
              <LatitudeDegrees>40.57434867136180400848388671875</LatitudeDegrees>
              <LongitudeDegrees>-4.00720643810927867889404296875</LongitudeDegrees>
            </Position>
            <AltitudeMeters>906</AltitudeMeters>
            <DistanceMeters>NAN</DistanceMeters>
          </Trackpoint>
          <Trackpoint>
            <Time>2019-08-01T16:51:53.000Z</Time>
            <Position>
              <LatitudeDegrees>40.57432201690971851348876953125</LatitudeDegrees>
              <LongitudeDegrees>-4.007111303508281707763671875</LongitudeDegrees>
            </Position>
            <AltitudeMeters>905.79998779296875</AltitudeMeters>
            <DistanceMeters>NAN</DistanceMeters>
          </Trackpoint>
          <Trackpoint>
            <Time>2019-08-01T16:51:54.000Z</Time>
            <Position>
              <LatitudeDegrees>40.57429502718150615692138671875</LatitudeDegrees>
              <LongitudeDegrees>-4.00701616890728473663330078125</LongitudeDegrees>
            </Position>
            <AltitudeMeters>905.4000244140625</AltitudeMeters>
            <DistanceMeters>NAN</DistanceMeters>
          </Trackpoint>
          <Trackpoint>
            <Time>2019-08-01T16:51:55.000Z</Time>
            <Position>
              <LatitudeDegrees>40.57426736690104007720947265625</LatitudeDegrees>
              <LongitudeDegrees>-4.00692061521112918853759765625</LongitudeDegrees>
            </Position>
            <AltitudeMeters>905.20001220703125</AltitudeMeters>
            <DistanceMeters>NAN</DistanceMeters>
          </Trackpoint>
          <Trackpoint>
            <Time>2019-08-01T16:51:56.000Z</Time>
            <Position>
              <LatitudeDegrees>40.57423920370638370513916015625</LatitudeDegrees>
              <LongitudeDegrees>-4.0068258158862590789794921875</LongitudeDegrees>
            </Position>
            <AltitudeMeters>905.20001220703125</AltitudeMeters>
            <DistanceMeters>NAN</DistanceMeters>
          </Trackpoint>
          <Trackpoint>
            <Time>2019-08-01T16:51:57.000Z</Time>
            <Position>
              <LatitudeDegrees>40.5742107890546321868896484375</LatitudeDegrees>
              <LongitudeDegrees>-4.00673386640846729278564453125</LongitudeDegrees>
            </Position>
            <AltitudeMeters>905</AltitudeMeters>
            <DistanceMeters>NAN</DistanceMeters>
          </Trackpoint>
          <Trackpoint>
            <Time>2019-08-01T16:51:58.000Z</Time>
            <Position>
              <LatitudeDegrees>40.57418270967900753021240234375</LatitudeDegrees>
              <LongitudeDegrees>-4.0066424198448657989501953125</LongitudeDegrees>
            </Position>
            <AltitudeMeters>905</AltitudeMeters>
            <DistanceMeters>NAN</DistanceMeters>
          </Trackpoint>
          <Trackpoint>
            <Time>2019-08-01T16:52:00.000Z</Time>
            <Position>
              <LatitudeDegrees>40.574127137660980224609375</LatitudeDegrees>
              <LongitudeDegrees>-4.00646614842116832733154296875</LongitudeDegrees>
            </Position>
            <AltitudeMeters>904.5999755859375</AltitudeMeters>
            <DistanceMeters>NAN</DistanceMeters>
          </Trackpoint>
          <Trackpoint>
            <Time>2019-08-01T16:52:01.000Z</Time>
            <Position>
              <LatitudeDegrees>40.5741041712462902069091796875</LatitudeDegrees>
              <LongitudeDegrees>-4.0063795633614063262939453125</LongitudeDegrees>
            </Position>
            <AltitudeMeters>904.4000244140625</AltitudeMeters>
            <DistanceMeters>NAN</DistanceMeters>
          </Trackpoint>
          <Trackpoint>
            <Time>2019-08-01T16:52:03.000Z</Time>
            <Position>
              <LatitudeDegrees>40.574054382741451263427734375</LatitudeDegrees>
              <LongitudeDegrees>-4.00620999746024608612060546875</LongitudeDegrees>
            </Position>
            <AltitudeMeters>904</AltitudeMeters>
            <DistanceMeters>NAN</DistanceMeters>
          </Trackpoint>
          <Trackpoint>
            <Time>2019-08-01T16:52:04.000Z</Time>
            <Position>
              <LatitudeDegrees>40.574028231203556060791015625</LatitudeDegrees>
              <LongitudeDegrees>-4.00612466968595981597900390625</LongitudeDegrees>
            </Position>
            <AltitudeMeters>903.79998779296875</AltitudeMeters>
            <DistanceMeters>NAN</DistanceMeters>
          </Trackpoint>
          <Trackpoint>
            <Time>2019-08-01T16:52:05.000Z</Time>
            <Position>
              <LatitudeDegrees>40.57400350458920001983642578125</LatitudeDegrees>
              <LongitudeDegrees>-4.0060429461300373077392578125</LongitudeDegrees>
            </Position>
            <AltitudeMeters>903.79998779296875</AltitudeMeters>
            <DistanceMeters>NAN</DistanceMeters>
          </Trackpoint>
          <Trackpoint>
            <Time>2019-08-01T16:52:06.000Z</Time>
            <Position>
              <LatitudeDegrees>40.5739801190793514251708984375</LatitudeDegrees>
              <LongitudeDegrees>-4.005962647497653961181640625</LongitudeDegrees>
            </Position>
            <AltitudeMeters>903.5999755859375</AltitudeMeters>
            <DistanceMeters>NAN</DistanceMeters>
          </Trackpoint>
          <Trackpoint>
            <Time>2019-08-01T16:52:07.000Z</Time>
            <Position>
              <LatitudeDegrees>40.5739532969892024993896484375</LatitudeDegrees>
              <LongitudeDegrees>-4.00588343851268291473388671875</LongitudeDegrees>
            </Position>
            <AltitudeMeters>903.4000244140625</AltitudeMeters>
            <DistanceMeters>NAN</DistanceMeters>
          </Trackpoint>
          <Trackpoint>
            <Time>2019-08-01T16:52:08.000Z</Time>
            <Position>
              <LatitudeDegrees>40.5739190988242626190185546875</LatitudeDegrees>
              <LongitudeDegrees>-4.00580917485058307647705078125</LongitudeDegrees>
            </Position>
            <AltitudeMeters>903.4000244140625</AltitudeMeters>
            <DistanceMeters>NAN</DistanceMeters>
          </Trackpoint>
          <Trackpoint>
            <Time>2019-08-01T16:52:09.000Z</Time>
            <Position>
              <LatitudeDegrees>40.57387224398553371429443359375</LatitudeDegrees>
              <LongitudeDegrees>-4.00574463419616222381591796875</LongitudeDegrees>
            </Position>
            <AltitudeMeters>903.20001220703125</AltitudeMeters>
            <DistanceMeters>NAN</DistanceMeters>
          </Trackpoint>
          <Trackpoint>
            <Time>2019-08-01T16:52:10.000Z</Time>
            <Position>
              <LatitudeDegrees>40.57380854152143001556396484375</LatitudeDegrees>
              <LongitudeDegrees>-4.00571127422153949737548828125</LongitudeDegrees>
            </Position>
            <AltitudeMeters>903.20001220703125</AltitudeMeters>
            <DistanceMeters>NAN</DistanceMeters>
          </Trackpoint>
          <Trackpoint>
            <Time>2019-08-01T16:52:11.000Z</Time>
            <Position>
              <LatitudeDegrees>40.5737494491040706634521484375</LatitudeDegrees>
              <LongitudeDegrees>-4.0057210810482501983642578125</LongitudeDegrees>
            </Position>
            <AltitudeMeters>903.20001220703125</AltitudeMeters>
            <DistanceMeters>NAN</DistanceMeters>
          </Trackpoint>
          <Trackpoint>
            <Time>2019-08-01T16:52:12.000Z</Time>
            <Position>
              <LatitudeDegrees>40.5737004987895488739013671875</LatitudeDegrees>
              <LongitudeDegrees>-4.00575854815542697906494140625</LongitudeDegrees>
            </Position>
            <AltitudeMeters>903.20001220703125</AltitudeMeters>
            <DistanceMeters>NAN</DistanceMeters>
          </Trackpoint>
          <Trackpoint>
            <Time>2019-08-01T16:52:13.000Z</Time>
            <Position>
              <LatitudeDegrees>40.5736617743968963623046875</LatitudeDegrees>
              <LongitudeDegrees>-4.005810432136058807373046875</LongitudeDegrees>
            </Position>
            <AltitudeMeters>903</AltitudeMeters>
            <DistanceMeters>NAN</DistanceMeters>
          </Trackpoint>
          <Trackpoint>
            <Time>2019-08-01T16:52:14.000Z</Time>
            <Position>
              <LatitudeDegrees>40.57362757623195648193359375</LatitudeDegrees>
              <LongitudeDegrees>-4.00587002746760845184326171875</LongitudeDegrees>
            </Position>
            <AltitudeMeters>903</AltitudeMeters>
            <DistanceMeters>NAN</DistanceMeters>
          </Trackpoint>
          <Trackpoint>
            <Time>2019-08-01T16:52:15.000Z</Time>
            <Position>
              <LatitudeDegrees>40.57359664700925350189208984375</LatitudeDegrees>
              <LongitudeDegrees>-4.00593088008463382720947265625</LongitudeDegrees>
            </Position>
            <AltitudeMeters>903</AltitudeMeters>
            <DistanceMeters>NAN</DistanceMeters>
          </Trackpoint>
          <Trackpoint>
            <Time>2019-08-01T16:52:16.000Z</Time>
            <Position>
              <LatitudeDegrees>40.5735625326633453369140625</LatitudeDegrees>
              <LongitudeDegrees>-4.005990810692310333251953125</LongitudeDegrees>
            </Position>
            <AltitudeMeters>903</AltitudeMeters>
            <DistanceMeters>NAN</DistanceMeters>
          </Trackpoint>
          <Trackpoint>
            <Time>2019-08-01T16:52:17.000Z</Time>
            <Position>
              <LatitudeDegrees>40.573532693088054656982421875</LatitudeDegrees>
              <LongitudeDegrees>-4.0060452930629253387451171875</LongitudeDegrees>
            </Position>
            <AltitudeMeters>903</AltitudeMeters>
            <DistanceMeters>NAN</DistanceMeters>
          </Trackpoint>
          <Trackpoint>
            <Time>2019-08-01T16:52:18.000Z</Time>
            <Position>
              <LatitudeDegrees>40.57350209914147853851318359375</LatitudeDegrees>
              <LongitudeDegrees>-4.006096757948398590087890625</LongitudeDegrees>
            </Position>
            <AltitudeMeters>903</AltitudeMeters>
            <DistanceMeters>NAN</DistanceMeters>
          </Trackpoint>
          <Trackpoint>
            <Time>2019-08-01T16:52:19.000Z</Time>
            <Position>
              <LatitudeDegrees>40.57347209192812442779541015625</LatitudeDegrees>
              <LongitudeDegrees>-4.00614671409130096435546875</LongitudeDegrees>
            </Position>
            <AltitudeMeters>903</AltitudeMeters>
            <DistanceMeters>NAN</DistanceMeters>
          </Trackpoint>
          <Trackpoint>
            <Time>2019-08-01T16:52:20.000Z</Time>
            <Position>
              <LatitudeDegrees>40.5734423361718654632568359375</LatitudeDegrees>
              <LongitudeDegrees>-4.00619675405323505401611328125</LongitudeDegrees>
            </Position>
            <AltitudeMeters>903</AltitudeMeters>
            <DistanceMeters>NAN</DistanceMeters>
          </Trackpoint>
          <Trackpoint>
            <Time>2019-08-01T16:52:21.000Z</Time>
            <Position>
              <LatitudeDegrees>40.57341358624398708343505859375</LatitudeDegrees>
              <LongitudeDegrees>-4.0062431059777736663818359375</LongitudeDegrees>
            </Position>
            <AltitudeMeters>903.20001220703125</AltitudeMeters>
            <DistanceMeters>NAN</DistanceMeters>
          </Trackpoint>
          <Trackpoint>
            <Time>2019-08-01T16:52:22.000Z</Time>
            <Position>
              <LatitudeDegrees>40.57338274084031581878662109375</LatitudeDegrees>
              <LongitudeDegrees>-4.00628811679780483245849609375</LongitudeDegrees>
            </Position>
            <AltitudeMeters>903.20001220703125</AltitudeMeters>
            <DistanceMeters>NAN</DistanceMeters>
          </Trackpoint>
          <Trackpoint>
            <Time>2019-08-01T16:52:23.000Z</Time>
            <Position>
              <LatitudeDegrees>40.57335826568305492401123046875</LatitudeDegrees>
              <LongitudeDegrees>-4.00633287616074085235595703125</LongitudeDegrees>
            </Position>
            <AltitudeMeters>903.4000244140625</AltitudeMeters>
            <DistanceMeters>NAN</DistanceMeters>
          </Trackpoint>
          <Trackpoint>
            <Time>2019-08-01T16:52:24.000Z</Time>
            <Position>
              <LatitudeDegrees>40.57333261705935001373291015625</LatitudeDegrees>
              <LongitudeDegrees>-4.00637797079980373382568359375</LongitudeDegrees>
            </Position>
            <AltitudeMeters>903.4000244140625</AltitudeMeters>
            <DistanceMeters>NAN</DistanceMeters>
          </Trackpoint>
          <Trackpoint>
            <Time>2019-08-01T16:52:25.000Z</Time>
            <Position>
              <LatitudeDegrees>40.573303364217281341552734375</LatitudeDegrees>
              <LongitudeDegrees>-4.0064181201159954071044921875</LongitudeDegrees>
            </Position>
            <AltitudeMeters>903.4000244140625</AltitudeMeters>
            <DistanceMeters>NAN</DistanceMeters>
          </Trackpoint>
          <Trackpoint>
            <Time>2019-08-01T16:52:26.000Z</Time>
            <Position>
              <LatitudeDegrees>40.57327712886035442352294921875</LatitudeDegrees>
              <LongitudeDegrees>-4.00645785033702850341796875</LongitudeDegrees>
            </Position>
            <AltitudeMeters>903.4000244140625</AltitudeMeters>
            <DistanceMeters>NAN</DistanceMeters>
          </Trackpoint>
          <Trackpoint>
            <Time>2019-08-01T16:52:27.000Z</Time>
            <Position>
              <LatitudeDegrees>40.5732552520930767059326171875</LatitudeDegrees>
              <LongitudeDegrees>-4.0064948983490467071533203125</LongitudeDegrees>
            </Position>
            <AltitudeMeters>903.79998779296875</AltitudeMeters>
            <DistanceMeters>NAN</DistanceMeters>
          </Trackpoint>
          <Trackpoint>
            <Time>2019-08-01T16:52:28.000Z</Time>
            <Position>
              <LatitudeDegrees>40.573231615126132965087890625</LatitudeDegrees>
              <LongitudeDegrees>-4.00653303600847721099853515625</LongitudeDegrees>
            </Position>
            <AltitudeMeters>904.20001220703125</AltitudeMeters>
            <DistanceMeters>NAN</DistanceMeters>
          </Trackpoint>
          <Trackpoint>
            <Time>2019-08-01T16:52:29.000Z</Time>
            <Position>
              <LatitudeDegrees>40.573206804692745208740234375</LatitudeDegrees>
              <LongitudeDegrees>-4.00657243095338344573974609375</LongitudeDegrees>
            </Position>
            <AltitudeMeters>904.20001220703125</AltitudeMeters>
            <DistanceMeters>NAN</DistanceMeters>
          </Trackpoint>
          <Trackpoint>
            <Time>2019-08-01T16:52:30.000Z</Time>
            <Position>
              <LatitudeDegrees>40.57318140752613544464111328125</LatitudeDegrees>
              <LongitudeDegrees>-4.00661534629762172698974609375</LongitudeDegrees>
            </Position>
            <AltitudeMeters>904.4000244140625</AltitudeMeters>
            <DistanceMeters>NAN</DistanceMeters>
          </Trackpoint>
          <Trackpoint>
            <Time>2019-08-01T16:52:31.000Z</Time>
            <Position>
              <LatitudeDegrees>40.573148466646671295166015625</LatitudeDegrees>
              <LongitudeDegrees>-4.0066595189273357391357421875</LongitudeDegrees>
            </Position>
            <AltitudeMeters>904.5999755859375</AltitudeMeters>
            <DistanceMeters>NAN</DistanceMeters>
          </Trackpoint>
          <Trackpoint>
            <Time>2019-08-01T16:52:32.000Z</Time>
            <Position>
              <LatitudeDegrees>40.57311938144266605377197265625</LatitudeDegrees>
              <LongitudeDegrees>-4.00670587085187435150146484375</LongitudeDegrees>
            </Position>
            <AltitudeMeters>904.79998779296875</AltitudeMeters>
            <DistanceMeters>NAN</DistanceMeters>
          </Trackpoint>
          <Trackpoint>
            <Time>2019-08-01T16:52:33.000Z</Time>
            <Position>
              <LatitudeDegrees>40.5730886198580265045166015625</LatitudeDegrees>
              <LongitudeDegrees>-4.00675280950963497161865234375</LongitudeDegrees>
            </Position>
            <AltitudeMeters>904.79998779296875</AltitudeMeters>
            <DistanceMeters>NAN</DistanceMeters>
          </Trackpoint>
          <Trackpoint>
            <Time>2019-08-01T16:52:34.000Z</Time>
            <Position>
              <LatitudeDegrees>40.573059283196926116943359375</LatitudeDegrees>
              <LongitudeDegrees>-4.0067999996244907379150390625</LongitudeDegrees>
            </Position>
            <AltitudeMeters>905</AltitudeMeters>
            <DistanceMeters>NAN</DistanceMeters>
          </Trackpoint>
          <Trackpoint>
            <Time>2019-08-01T16:52:35.000Z</Time>
            <Position>
              <LatitudeDegrees>40.57302366010844707489013671875</LatitudeDegrees>
              <LongitudeDegrees>-4.00684836320579051971435546875</LongitudeDegrees>
            </Position>
            <AltitudeMeters>905</AltitudeMeters>
            <DistanceMeters>NAN</DistanceMeters>
          </Trackpoint>
          <Trackpoint>
            <Time>2019-08-01T16:52:36.000Z</Time>
            <Position>
              <LatitudeDegrees>40.57298493571579456329345703125</LatitudeDegrees>
              <LongitudeDegrees>-4.00689731352031230926513671875</LongitudeDegrees>
            </Position>
            <AltitudeMeters>905.20001220703125</AltitudeMeters>
            <DistanceMeters>NAN</DistanceMeters>
          </Trackpoint>
          <Trackpoint>
            <Time>2019-08-01T16:52:37.000Z</Time>
            <Position>
              <LatitudeDegrees>40.572949983179569244384765625</LatitudeDegrees>
              <LongitudeDegrees>-4.00694064795970916748046875</LongitudeDegrees>
            </Position>
            <AltitudeMeters>905.20001220703125</AltitudeMeters>
            <DistanceMeters>NAN</DistanceMeters>
          </Trackpoint>
          <Trackpoint>
            <Time>2019-08-01T16:52:38.000Z</Time>
            <Position>
              <LatitudeDegrees>40.57290933094918727874755859375</LatitudeDegrees>
              <LongitudeDegrees>-4.00698381476104259490966796875</LongitudeDegrees>
            </Position>
            <AltitudeMeters>905.4000244140625</AltitudeMeters>
            <DistanceMeters>NAN</DistanceMeters>
          </Trackpoint>
          <Trackpoint>
            <Time>2019-08-01T16:52:39.000Z</Time>
            <Position>
              <LatitudeDegrees>40.57286557741463184356689453125</LatitudeDegrees>
              <LongitudeDegrees>-4.00703812949359416961669921875</LongitudeDegrees>
            </Position>
            <AltitudeMeters>905.79998779296875</AltitudeMeters>
            <DistanceMeters>NAN</DistanceMeters>
          </Trackpoint>
          <Trackpoint>
            <Time>2019-08-01T16:52:40.000Z</Time>
            <Position>
              <LatitudeDegrees>40.57283104397356510162353515625</LatitudeDegrees>
              <LongitudeDegrees>-4.00708548724651336669921875</LongitudeDegrees>
            </Position>
            <AltitudeMeters>906</AltitudeMeters>
            <DistanceMeters>NAN</DistanceMeters>
          </Trackpoint>
          <Trackpoint>
            <Time>2019-08-01T16:52:41.000Z</Time>
            <Position>
              <LatitudeDegrees>40.57279667817056179046630859375</LatitudeDegrees>
              <LongitudeDegrees>-4.00713385082781314849853515625</LongitudeDegrees>
            </Position>
            <AltitudeMeters>906</AltitudeMeters>
            <DistanceMeters>NAN</DistanceMeters>
          </Trackpoint>
          <Trackpoint>
            <Time>2019-08-01T16:52:42.000Z</Time>
            <Position>
              <LatitudeDegrees>40.57279667817056179046630859375</LatitudeDegrees>
              <LongitudeDegrees>-4.00713385082781314849853515625</LongitudeDegrees>
            </Position>
            <AltitudeMeters>906.20001220703125</AltitudeMeters>
            <DistanceMeters>NAN</DistanceMeters>
          </Trackpoint>
          <Trackpoint>
            <Time>2019-08-01T16:52:43.000Z</Time>
            <Position>
              <LatitudeDegrees>40.572728030383586883544921875</LatitudeDegrees>
              <LongitudeDegrees>-4.0072288177907466888427734375</LongitudeDegrees>
            </Position>
            <AltitudeMeters>906.4000244140625</AltitudeMeters>
            <DistanceMeters>NAN</DistanceMeters>
          </Trackpoint>
          <Trackpoint>
            <Time>2019-08-01T16:52:44.000Z</Time>
            <Position>
              <LatitudeDegrees>40.57269626297056674957275390625</LatitudeDegrees>
              <LongitudeDegrees>-4.0072744153439998626708984375</LongitudeDegrees>
            </Position>
            <AltitudeMeters>906.79998779296875</AltitudeMeters>
            <DistanceMeters>NAN</DistanceMeters>
          </Trackpoint>
          <Trackpoint>
            <Time>2019-08-01T16:52:45.000Z</Time>
            <Position>
              <LatitudeDegrees>40.57266675867140293121337890625</LatitudeDegrees>
              <LongitudeDegrees>-4.00732177309691905975341796875</LongitudeDegrees>
            </Position>
            <AltitudeMeters>907</AltitudeMeters>
            <DistanceMeters>NAN</DistanceMeters>
          </Trackpoint>
          <Trackpoint>
            <Time>2019-08-01T16:52:46.000Z</Time>
            <Position>
              <LatitudeDegrees>40.57263524271547794342041015625</LatitudeDegrees>
              <LongitudeDegrees>-4.007368795573711395263671875</LongitudeDegrees>
            </Position>
            <AltitudeMeters>907.4000244140625</AltitudeMeters>
            <DistanceMeters>NAN</DistanceMeters>
          </Trackpoint>
          <Trackpoint>
            <Time>2019-08-01T16:52:47.000Z</Time>
            <Position>
              <LatitudeDegrees>40.5726031400263309478759765625</LatitudeDegrees>
              <LongitudeDegrees>-4.0074152313172817230224609375</LongitudeDegrees>
            </Position>
            <AltitudeMeters>908</AltitudeMeters>
            <DistanceMeters>NAN</DistanceMeters>
          </Trackpoint>
          <Trackpoint>
            <Time>2019-08-01T16:52:48.000Z</Time>
            <Position>
              <LatitudeDegrees>40.5725701153278350830078125</LatitudeDegrees>
              <LongitudeDegrees>-4.007459990680217742919921875</LongitudeDegrees>
            </Position>
            <AltitudeMeters>908.20001220703125</AltitudeMeters>
            <DistanceMeters>NAN</DistanceMeters>
          </Trackpoint>
          <Trackpoint>
            <Time>2019-08-01T16:52:49.000Z</Time>
            <Position>
              <LatitudeDegrees>40.57253583334386348724365234375</LatitudeDegrees>
              <LongitudeDegrees>-4.00750550441443920135498046875</LongitudeDegrees>
            </Position>
            <AltitudeMeters>908.4000244140625</AltitudeMeters>
            <DistanceMeters>NAN</DistanceMeters>
          </Trackpoint>
          <Trackpoint>
            <Time>2019-08-01T16:52:50.000Z</Time>
            <Position>
              <LatitudeDegrees>40.5725028924643993377685546875</LatitudeDegrees>
              <LongitudeDegrees>-4.007550179958343505859375</LongitudeDegrees>
            </Position>
            <AltitudeMeters>908.4000244140625</AltitudeMeters>
            <DistanceMeters>NAN</DistanceMeters>
          </Trackpoint>
          <Trackpoint>
            <Time>2019-08-01T16:52:51.000Z</Time>
            <Position>
              <LatitudeDegrees>40.57246978394687175750732421875</LatitudeDegrees>
              <LongitudeDegrees>-4.0075935982167720794677734375</LongitudeDegrees>
            </Position>
            <AltitudeMeters>908.5999755859375</AltitudeMeters>
            <DistanceMeters>NAN</DistanceMeters>
          </Trackpoint>
          <Trackpoint>
            <Time>2019-08-01T16:52:52.000Z</Time>
            <Position>
              <LatitudeDegrees>40.57243575341999530792236328125</LatitudeDegrees>
              <LongitudeDegrees>-4.00763810612261295318603515625</LongitudeDegrees>
            </Position>
            <AltitudeMeters>908.5999755859375</AltitudeMeters>
            <DistanceMeters>NAN</DistanceMeters>
          </Trackpoint>
          <Trackpoint>
            <Time>2019-08-01T16:52:53.000Z</Time>
            <Position>
              <LatitudeDegrees>40.572402812540531158447265625</LatitudeDegrees>
              <LongitudeDegrees>-4.007683284580707550048828125</LongitudeDegrees>
            </Position>
            <AltitudeMeters>908.79998779296875</AltitudeMeters>
            <DistanceMeters>NAN</DistanceMeters>
          </Trackpoint>
          <Trackpoint>
            <Time>2019-08-01T16:52:54.000Z</Time>
            <Position>
              <LatitudeDegrees>40.572370626032352447509765625</LatitudeDegrees>
              <LongitudeDegrees>-4.0077270381152629852294921875</LongitudeDegrees>
            </Position>
            <AltitudeMeters>908.79998779296875</AltitudeMeters>
            <DistanceMeters>NAN</DistanceMeters>
          </Trackpoint>
          <Trackpoint>
            <Time>2019-08-01T16:52:55.000Z</Time>
            <Position>
              <LatitudeDegrees>40.572370626032352447509765625</LatitudeDegrees>
              <LongitudeDegrees>-4.0077270381152629852294921875</LongitudeDegrees>
            </Position>
            <AltitudeMeters>909</AltitudeMeters>
            <DistanceMeters>NAN</DistanceMeters>
          </Trackpoint>
          <Trackpoint>
            <Time>2019-08-01T16:52:56.000Z</Time>
            <Position>
              <LatitudeDegrees>40.572311617434024810791015625</LatitudeDegrees>
              <LongitudeDegrees>-4.00781571865081787109375</LongitudeDegrees>
            </Position>
            <AltitudeMeters>909.20001220703125</AltitudeMeters>
            <DistanceMeters>NAN</DistanceMeters>
          </Trackpoint>
          <Trackpoint>
            <Time>2019-08-01T16:52:57.000Z</Time>
            <Position>
              <LatitudeDegrees>40.57228454388678073883056640625</LatitudeDegrees>
              <LongitudeDegrees>-4.0078618191182613372802734375</LongitudeDegrees>
            </Position>
            <AltitudeMeters>909.20001220703125</AltitudeMeters>
            <DistanceMeters>NAN</DistanceMeters>
          </Trackpoint>
          <Trackpoint>
            <Time>2019-08-01T16:52:58.000Z</Time>
            <Position>
              <LatitudeDegrees>40.57225990109145641326904296875</LatitudeDegrees>
              <LongitudeDegrees>-4.00790800340473651885986328125</LongitudeDegrees>
            </Position>
            <AltitudeMeters>909.4000244140625</AltitudeMeters>
            <DistanceMeters>NAN</DistanceMeters>
          </Trackpoint>
          <Trackpoint>
            <Time>2019-08-01T16:52:59.000Z</Time>
            <Position>
              <LatitudeDegrees>40.57223425246775150299072265625</LatitudeDegrees>
              <LongitudeDegrees>-4.0079540200531482696533203125</LongitudeDegrees>
            </Position>
            <AltitudeMeters>909.4000244140625</AltitudeMeters>
            <DistanceMeters>NAN</DistanceMeters>
          </Trackpoint>
          <Trackpoint>
            <Time>2019-08-01T16:53:00.000Z</Time>
            <Position>
              <LatitudeDegrees>40.5722078494727611541748046875</LatitudeDegrees>
              <LongitudeDegrees>-4.0079986117780208587646484375</LongitudeDegrees>
            </Position>
            <AltitudeMeters>909.5999755859375</AltitudeMeters>
            <DistanceMeters>NAN</DistanceMeters>
          </Trackpoint>
          <Trackpoint>
            <Time>2019-08-01T16:53:01.000Z</Time>
            <Position>
              <LatitudeDegrees>40.57218144647777080535888671875</LatitudeDegrees>
              <LongitudeDegrees>-4.0080411918461322784423828125</LongitudeDegrees>
            </Position>
            <AltitudeMeters>909.5999755859375</AltitudeMeters>
            <DistanceMeters>NAN</DistanceMeters>
          </Trackpoint>
          <Trackpoint>
            <Time>2019-08-01T16:53:02.000Z</Time>
            <Position>
              <LatitudeDegrees>40.5721543729305267333984375</LatitudeDegrees>
              <LongitudeDegrees>-4.0080825984477996826171875</LongitudeDegrees>
            </Position>
            <AltitudeMeters>909.79998779296875</AltitudeMeters>
            <DistanceMeters>NAN</DistanceMeters>
          </Trackpoint>
          <Trackpoint>
            <Time>2019-08-01T16:53:03.000Z</Time>
            <Position>
              <LatitudeDegrees>40.57212889194488525390625</LatitudeDegrees>
              <LongitudeDegrees>-4.00812140665948390960693359375</LongitudeDegrees>
            </Position>
            <AltitudeMeters>909.79998779296875</AltitudeMeters>
            <DistanceMeters>NAN</DistanceMeters>
          </Trackpoint>
          <Trackpoint>
            <Time>2019-08-01T16:53:04.000Z</Time>
            <Position>
              <LatitudeDegrees>40.57210148312151432037353515625</LatitudeDegrees>
              <LongitudeDegrees>-4.00815996341407299041748046875</LongitudeDegrees>
            </Position>
            <AltitudeMeters>910</AltitudeMeters>
            <DistanceMeters>NAN</DistanceMeters>
          </Trackpoint>
          <Trackpoint>
            <Time>2019-08-01T16:53:05.000Z</Time>
            <Position>
              <LatitudeDegrees>40.5720737390220165252685546875</LatitudeDegrees>
              <LongitudeDegrees>-4.00820103473961353302001953125</LongitudeDegrees>
            </Position>
            <AltitudeMeters>910.20001220703125</AltitudeMeters>
            <DistanceMeters>NAN</DistanceMeters>
          </Trackpoint>
          <Trackpoint>
            <Time>2019-08-01T16:53:06.000Z</Time>
            <Position>
              <LatitudeDegrees>40.5720485933125019073486328125</LatitudeDegrees>
              <LongitudeDegrees>-4.00824177078902721405029296875</LongitudeDegrees>
            </Position>
            <AltitudeMeters>910.20001220703125</AltitudeMeters>
            <DistanceMeters>NAN</DistanceMeters>
          </Trackpoint>
          <Trackpoint>
            <Time>2019-08-01T16:53:07.000Z</Time>
            <Position>
              <LatitudeDegrees>40.57202286086976528167724609375</LatitudeDegrees>
              <LongitudeDegrees>-4.008283428847789764404296875</LongitudeDegrees>
            </Position>
            <AltitudeMeters>910.4000244140625</AltitudeMeters>
            <DistanceMeters>NAN</DistanceMeters>
          </Trackpoint>
          <Trackpoint>
            <Time>2019-08-01T16:53:08.000Z</Time>
            <Position>
              <LatitudeDegrees>40.571997798979282379150390625</LatitudeDegrees>
              <LongitudeDegrees>-4.00832491926848888397216796875</LongitudeDegrees>
            </Position>
            <AltitudeMeters>910.4000244140625</AltitudeMeters>
            <DistanceMeters>NAN</DistanceMeters>
          </Trackpoint>
          <Trackpoint>
            <Time>2019-08-01T16:53:09.000Z</Time>
            <Position>
              <LatitudeDegrees>40.57196971960365772247314453125</LatitudeDegrees>
              <LongitudeDegrees>-4.00836532004177570343017578125</LongitudeDegrees>
            </Position>
            <AltitudeMeters>910.5999755859375</AltitudeMeters>
            <DistanceMeters>NAN</DistanceMeters>
          </Trackpoint>
          <Trackpoint>
            <Time>2019-08-01T16:53:10.000Z</Time>
            <Position>
              <LatitudeDegrees>40.57193434797227382659912109375</LatitudeDegrees>
              <LongitudeDegrees>-4.00840840302407741546630859375</LongitudeDegrees>
            </Position>
            <AltitudeMeters>910.5999755859375</AltitudeMeters>
            <DistanceMeters>NAN</DistanceMeters>
          </Trackpoint>
          <Trackpoint>
            <Time>2019-08-01T16:53:11.000Z</Time>
            <Position>
              <LatitudeDegrees>40.57189897634088993072509765625</LatitudeDegrees>
              <LongitudeDegrees>-4.00845215655863285064697265625</LongitudeDegrees>
            </Position>
            <AltitudeMeters>910.79998779296875</AltitudeMeters>
            <DistanceMeters>NAN</DistanceMeters>
          </Trackpoint>
          <Trackpoint>
            <Time>2019-08-01T16:53:12.000Z</Time>
            <Position>
              <LatitudeDegrees>40.571865029633045196533203125</LatitudeDegrees>
              <LongitudeDegrees>-4.00849306024610996246337890625</LongitudeDegrees>
            </Position>
            <AltitudeMeters>910.79998779296875</AltitudeMeters>
            <DistanceMeters>NAN</DistanceMeters>
          </Trackpoint>
          <Trackpoint>
            <Time>2019-08-01T16:53:13.000Z</Time>
            <Position>
              <LatitudeDegrees>40.57183208875358104705810546875</LatitudeDegrees>
              <LongitudeDegrees>-4.00853262282907962799072265625</LongitudeDegrees>
            </Position>
            <AltitudeMeters>911</AltitudeMeters>
            <DistanceMeters>NAN</DistanceMeters>
          </Trackpoint>
          <Trackpoint>
            <Time>2019-08-01T16:53:14.000Z</Time>
            <Position>
              <LatitudeDegrees>40.571797974407672882080078125</LatitudeDegrees>
              <LongitudeDegrees>-4.0085709281265735626220703125</LongitudeDegrees>
            </Position>
            <AltitudeMeters>911.20001220703125</AltitudeMeters>
            <DistanceMeters>NAN</DistanceMeters>
          </Trackpoint>
          <Trackpoint>
            <Time>2019-08-01T16:53:15.000Z</Time>
            <Position>
              <LatitudeDegrees>40.57176612317562103271484375</LatitudeDegrees>
              <LongitudeDegrees>-4.008611328899860382080078125</LongitudeDegrees>
            </Position>
            <AltitudeMeters>911.5999755859375</AltitudeMeters>
            <DistanceMeters>NAN</DistanceMeters>
          </Trackpoint>
          <Trackpoint>
            <Time>2019-08-01T16:53:16.000Z</Time>
            <Position>
              <LatitudeDegrees>40.57176612317562103271484375</LatitudeDegrees>
              <LongitudeDegrees>-4.008611328899860382080078125</LongitudeDegrees>
            </Position>
            <AltitudeMeters>912.20001220703125</AltitudeMeters>
            <DistanceMeters>NAN</DistanceMeters>
          </Trackpoint>
          <Trackpoint>
            <Time>2019-08-01T16:53:17.000Z</Time>
            <Position>
              <LatitudeDegrees>40.57170233689248561859130859375</LatitudeDegrees>
              <LongitudeDegrees>-4.0086879394948482513427734375</LongitudeDegrees>
            </Position>
            <AltitudeMeters>912.4000244140625</AltitudeMeters>
            <DistanceMeters>NAN</DistanceMeters>
          </Trackpoint>
          <Trackpoint>
            <Time>2019-08-01T16:53:18.000Z</Time>
            <Position>
              <LatitudeDegrees>40.571670569479465484619140625</LatitudeDegrees>
              <LongitudeDegrees>-4.00872725062072277069091796875</LongitudeDegrees>
            </Position>
            <AltitudeMeters>912.79998779296875</AltitudeMeters>
            <DistanceMeters>NAN</DistanceMeters>
          </Trackpoint>
          <Trackpoint>
            <Time>2019-08-01T16:53:19.000Z</Time>
            <Position>
              <LatitudeDegrees>40.57163871824741363525390625</LatitudeDegrees>
              <LongitudeDegrees>-4.00876589119434356689453125</LongitudeDegrees>
            </Position>
            <AltitudeMeters>913</AltitudeMeters>
            <DistanceMeters>NAN</DistanceMeters>
          </Trackpoint>
          <Trackpoint>
            <Time>2019-08-01T16:53:20.000Z</Time>
            <Position>
              <LatitudeDegrees>40.5716066993772983551025390625</LatitudeDegrees>
              <LongitudeDegrees>-4.00880184955894947052001953125</LongitudeDegrees>
            </Position>
            <AltitudeMeters>913.20001220703125</AltitudeMeters>
            <DistanceMeters>NAN</DistanceMeters>
          </Trackpoint>
          <Trackpoint>
            <Time>2019-08-01T16:53:21.000Z</Time>
            <Position>
              <LatitudeDegrees>40.571574680507183074951171875</LatitudeDegrees>
              <LongitudeDegrees>-4.0088344551622867584228515625</LongitudeDegrees>
            </Position>
            <AltitudeMeters>913.4000244140625</AltitudeMeters>
            <DistanceMeters>NAN</DistanceMeters>
          </Trackpoint>
          <Trackpoint>
            <Time>2019-08-01T16:53:22.000Z</Time>
            <Position>
              <LatitudeDegrees>40.57154157198965549468994140625</LatitudeDegrees>
              <LongitudeDegrees>-4.0088658034801483154296875</LongitudeDegrees>
            </Position>
            <AltitudeMeters>913.5999755859375</AltitudeMeters>
            <DistanceMeters>NAN</DistanceMeters>
          </Trackpoint>
          <Trackpoint>
            <Time>2019-08-01T16:53:23.000Z</Time>
            <Position>
              <LatitudeDegrees>40.5715084634721279144287109375</LatitudeDegrees>
              <LongitudeDegrees>-4.00889321230351924896240234375</LongitudeDegrees>
            </Position>
            <AltitudeMeters>913.79998779296875</AltitudeMeters>
            <DistanceMeters>NAN</DistanceMeters>
          </Trackpoint>
          <Trackpoint>
            <Time>2019-08-01T16:53:24.000Z</Time>
            <Position>
              <LatitudeDegrees>40.571473427116870880126953125</LatitudeDegrees>
              <LongitudeDegrees>-4.0089269913733005523681640625</LongitudeDegrees>
            </Position>
            <AltitudeMeters>913.79998779296875</AltitudeMeters>
            <DistanceMeters>NAN</DistanceMeters>
          </Trackpoint>
          <Trackpoint>
            <Time>2019-08-01T16:53:25.000Z</Time>
            <Position>
              <LatitudeDegrees>40.5714360438287258148193359375</LatitudeDegrees>
              <LongitudeDegrees>-4.00895959697663784027099609375</LongitudeDegrees>
            </Position>
            <AltitudeMeters>914</AltitudeMeters>
            <DistanceMeters>NAN</DistanceMeters>
          </Trackpoint>
          <Trackpoint>
            <Time>2019-08-01T16:53:26.000Z</Time>
            <Position>
              <LatitudeDegrees>40.571397654712200164794921875</LatitudeDegrees>
              <LongitudeDegrees>-4.00899798609316349029541015625</LongitudeDegrees>
            </Position>
            <AltitudeMeters>914</AltitudeMeters>
            <DistanceMeters>NAN</DistanceMeters>
          </Trackpoint>
          <Trackpoint>
            <Time>2019-08-01T16:53:27.000Z</Time>
            <Position>
              <LatitudeDegrees>40.57136303745210170745849609375</LatitudeDegrees>
              <LongitudeDegrees>-4.00903084315359592437744140625</LongitudeDegrees>
            </Position>
            <AltitudeMeters>914.20001220703125</AltitudeMeters>
            <DistanceMeters>NAN</DistanceMeters>
          </Trackpoint>
          <Trackpoint>
            <Time>2019-08-01T16:53:28.000Z</Time>
            <Position>
              <LatitudeDegrees>40.571326576173305511474609375</LatitudeDegrees>
              <LongitudeDegrees>-4.00906269438564777374267578125</LongitudeDegrees>
            </Position>
            <AltitudeMeters>914.4000244140625</AltitudeMeters>
            <DistanceMeters>NAN</DistanceMeters>
          </Trackpoint>
          <Trackpoint>
            <Time>2019-08-01T16:53:29.000Z</Time>
            <Position>
              <LatitudeDegrees>40.57129112072288990020751953125</LatitudeDegrees>
              <LongitudeDegrees>-4.00909488089382648468017578125</LongitudeDegrees>
            </Position>
            <AltitudeMeters>914.79998779296875</AltitudeMeters>
            <DistanceMeters>NAN</DistanceMeters>
          </Trackpoint>
          <Trackpoint>
            <Time>2019-08-01T16:53:30.000Z</Time>
            <Position>
              <LatitudeDegrees>40.5712576769292354583740234375</LatitudeDegrees>
              <LongitudeDegrees>-4.00912539102137088775634765625</LongitudeDegrees>
            </Position>
            <AltitudeMeters>915</AltitudeMeters>
            <DistanceMeters>NAN</DistanceMeters>
          </Trackpoint>
          <Trackpoint>
            <Time>2019-08-01T16:53:31.000Z</Time>
            <Position>
              <LatitudeDegrees>40.5712236464023590087890625</LatitudeDegrees>
              <LongitudeDegrees>-4.00915673933923244476318359375</LongitudeDegrees>
            </Position>
            <AltitudeMeters>915.4000244140625</AltitudeMeters>
            <DistanceMeters>NAN</DistanceMeters>
          </Trackpoint>
          <Trackpoint>
            <Time>2019-08-01T16:53:32.000Z</Time>
            <Position>
              <LatitudeDegrees>40.571189783513545989990234375</LatitudeDegrees>
              <LongitudeDegrees>-4.009189344942569732666015625</LongitudeDegrees>
            </Position>
            <AltitudeMeters>915.5999755859375</AltitudeMeters>
            <DistanceMeters>NAN</DistanceMeters>
          </Trackpoint>
          <Trackpoint>
            <Time>2019-08-01T16:53:33.000Z</Time>
            <Position>
              <LatitudeDegrees>40.5711574293673038482666015625</LatitudeDegrees>
              <LongitudeDegrees>-4.009222872555255889892578125</LongitudeDegrees>
            </Position>
            <AltitudeMeters>915.79998779296875</AltitudeMeters>
            <DistanceMeters>NAN</DistanceMeters>
          </Trackpoint>
          <Trackpoint>
            <Time>2019-08-01T16:53:34.000Z</Time>
            <Position>
              <LatitudeDegrees>40.571126751601696014404296875</LatitudeDegrees>
              <LongitudeDegrees>-4.00925648398697376251220703125</LongitudeDegrees>
            </Position>
            <AltitudeMeters>916</AltitudeMeters>
            <DistanceMeters>NAN</DistanceMeters>
          </Trackpoint>
          <Trackpoint>
            <Time>2019-08-01T16:53:35.000Z</Time>
            <Position>
              <LatitudeDegrees>40.57109716348350048065185546875</LatitudeDegrees>
              <LongitudeDegrees>-4.00929001159965991973876953125</LongitudeDegrees>
            </Position>
            <AltitudeMeters>916</AltitudeMeters>
            <DistanceMeters>NAN</DistanceMeters>
          </Trackpoint>
          <Trackpoint>
            <Time>2019-08-01T16:53:36.000Z</Time>
            <Position>
              <LatitudeDegrees>40.57106732390820980072021484375</LatitudeDegrees>
              <LongitudeDegrees>-4.009324796497821807861328125</LongitudeDegrees>
            </Position>
            <AltitudeMeters>916.20001220703125</AltitudeMeters>
            <DistanceMeters>NAN</DistanceMeters>
          </Trackpoint>
          <Trackpoint>
            <Time>2019-08-01T16:53:37.000Z</Time>
            <Position>
              <LatitudeDegrees>40.571037568151950836181640625</LatitudeDegrees>
              <LongitudeDegrees>-4.009361006319522857666015625</LongitudeDegrees>
            </Position>
            <AltitudeMeters>916.20001220703125</AltitudeMeters>
            <DistanceMeters>NAN</DistanceMeters>
          </Trackpoint>
          <Trackpoint>
            <Time>2019-08-01T16:53:38.000Z</Time>
            <Position>
              <LatitudeDegrees>40.57100730948150157928466796875</LatitudeDegrees>
              <LongitudeDegrees>-4.0093987248837947845458984375</LongitudeDegrees>
            </Position>
            <AltitudeMeters>916.20001220703125</AltitudeMeters>
            <DistanceMeters>NAN</DistanceMeters>
          </Trackpoint>
          <Trackpoint>
            <Time>2019-08-01T16:53:39.000Z</Time>
            <Position>
              <LatitudeDegrees>40.5709783919155597686767578125</LatitudeDegrees>
              <LongitudeDegrees>-4.00943870656192302703857421875</LongitudeDegrees>
            </Position>
            <AltitudeMeters>916.5999755859375</AltitudeMeters>
            <DistanceMeters>NAN</DistanceMeters>
          </Trackpoint>
          <Trackpoint>
            <Time>2019-08-01T16:53:40.000Z</Time>
            <Position>
              <LatitudeDegrees>40.5709783919155597686767578125</LatitudeDegrees>
              <LongitudeDegrees>-4.00943870656192302703857421875</LongitudeDegrees>
            </Position>
            <AltitudeMeters>917</AltitudeMeters>
            <DistanceMeters>NAN</DistanceMeters>
          </Trackpoint>
          <Trackpoint>
            <Time>2019-08-01T16:53:41.000Z</Time>
            <Position>
              <LatitudeDegrees>40.5709220655262470245361328125</LatitudeDegrees>
              <LongitudeDegrees>-4.0095247887074947357177734375</LongitudeDegrees>
            </Position>
            <AltitudeMeters>917.20001220703125</AltitudeMeters>
            <DistanceMeters>NAN</DistanceMeters>
          </Trackpoint>
          <Trackpoint>
            <Time>2019-08-01T16:53:42.000Z</Time>
            <Position>
              <LatitudeDegrees>40.57089683599770069122314453125</LatitudeDegrees>
              <LongitudeDegrees>-4.0095720626413822174072265625</LongitudeDegrees>
            </Position>
            <AltitudeMeters>917.5999755859375</AltitudeMeters>
            <DistanceMeters>NAN</DistanceMeters>
          </Trackpoint>
          <Trackpoint>
            <Time>2019-08-01T16:53:43.000Z</Time>
            <Position>
              <LatitudeDegrees>40.57087361812591552734375</LatitudeDegrees>
              <LongitudeDegrees>-4.0096193365752696990966796875</LongitudeDegrees>
            </Position>
            <AltitudeMeters>917.79998779296875</AltitudeMeters>
            <DistanceMeters>NAN</DistanceMeters>
          </Trackpoint>
          <Trackpoint>
            <Time>2019-08-01T16:53:44.000Z</Time>
            <Position>
              <LatitudeDegrees>40.57085459120571613311767578125</LatitudeDegrees>
              <LongitudeDegrees>-4.00966686196625232696533203125</LongitudeDegrees>
            </Position>
            <AltitudeMeters>918.5999755859375</AltitudeMeters>
            <DistanceMeters>NAN</DistanceMeters>
          </Trackpoint>
          <Trackpoint>
            <Time>2019-08-01T16:53:45.000Z</Time>
            <Position>
              <LatitudeDegrees>40.5708379112184047698974609375</LatitudeDegrees>
              <LongitudeDegrees>-4.00971530936658382415771484375</LongitudeDegrees>
            </Position>
            <AltitudeMeters>918.79998779296875</AltitudeMeters>
            <DistanceMeters>NAN</DistanceMeters>
          </Trackpoint>
          <Trackpoint>
            <Time>2019-08-01T16:53:46.000Z</Time>
            <Position>
              <LatitudeDegrees>40.57082391344010829925537109375</LatitudeDegrees>
              <LongitudeDegrees>-4.0097651816904544830322265625</LongitudeDegrees>
            </Position>
            <AltitudeMeters>919</AltitudeMeters>
            <DistanceMeters>NAN</DistanceMeters>
          </Trackpoint>
          <Trackpoint>
            <Time>2019-08-01T16:53:47.000Z</Time>
            <Position>
              <LatitudeDegrees>40.57081016711890697479248046875</LatitudeDegrees>
              <LongitudeDegrees>-4.0098151378333568572998046875</LongitudeDegrees>
            </Position>
            <AltitudeMeters>919.20001220703125</AltitudeMeters>
            <DistanceMeters>NAN</DistanceMeters>
          </Trackpoint>
          <Trackpoint>
            <Time>2019-08-01T16:53:48.000Z</Time>
            <Position>
              <LatitudeDegrees>40.57079608552157878875732421875</LatitudeDegrees>
              <LongitudeDegrees>-4.0098640881478786468505859375</LongitudeDegrees>
            </Position>
            <AltitudeMeters>919.4000244140625</AltitudeMeters>
            <DistanceMeters>NAN</DistanceMeters>
          </Trackpoint>
          <Trackpoint>
            <Time>2019-08-01T16:53:49.000Z</Time>
            <Position>
              <LatitudeDegrees>40.57078334502875804901123046875</LatitudeDegrees>
              <LongitudeDegrees>-4.00991379283368587493896484375</LongitudeDegrees>
            </Position>
            <AltitudeMeters>919.5999755859375</AltitudeMeters>
            <DistanceMeters>NAN</DistanceMeters>
          </Trackpoint>
          <Trackpoint>
            <Time>2019-08-01T16:53:50.000Z</Time>
            <Position>
              <LatitudeDegrees>40.57077026925981044769287109375</LatitudeDegrees>
              <LongitudeDegrees>-4.00996006093919277191162109375</LongitudeDegrees>
            </Position>
            <AltitudeMeters>919.5999755859375</AltitudeMeters>
            <DistanceMeters>NAN</DistanceMeters>
          </Trackpoint>
          <Trackpoint>
            <Time>2019-08-01T16:53:51.000Z</Time>
            <Position>
              <LatitudeDegrees>40.57075568474829196929931640625</LatitudeDegrees>
              <LongitudeDegrees>-4.0100062452256679534912109375</LongitudeDegrees>
            </Position>
            <AltitudeMeters>920</AltitudeMeters>
            <DistanceMeters>NAN</DistanceMeters>
          </Trackpoint>
          <Trackpoint>
            <Time>2019-08-01T16:53:52.000Z</Time>
            <Position>
              <LatitudeDegrees>40.57074017822742462158203125</LatitudeDegrees>
              <LongitudeDegrees>-4.01005008257925510406494140625</LongitudeDegrees>
            </Position>
            <AltitudeMeters>920.20001220703125</AltitudeMeters>
            <DistanceMeters>NAN</DistanceMeters>
          </Trackpoint>
          <Trackpoint>
            <Time>2019-08-01T16:53:53.000Z</Time>
            <Position>
              <LatitudeDegrees>40.57072215713560581207275390625</LatitudeDegrees>
              <LongitudeDegrees>-4.01009215973317623138427734375</LongitudeDegrees>
            </Position>
            <AltitudeMeters>920.5999755859375</AltitudeMeters>
            <DistanceMeters>NAN</DistanceMeters>
          </Trackpoint>
          <Trackpoint>
            <Time>2019-08-01T16:53:54.000Z</Time>
            <Position>
              <LatitudeDegrees>40.57070170529186725616455078125</LatitudeDegrees>
              <LongitudeDegrees>-4.01013314723968505859375</LongitudeDegrees>
            </Position>
            <AltitudeMeters>920.79998779296875</AltitudeMeters>
            <DistanceMeters>NAN</DistanceMeters>
          </Trackpoint>
          <Trackpoint>
            <Time>2019-08-01T16:53:55.000Z</Time>
            <Position>
              <LatitudeDegrees>40.5706779845058917999267578125</LatitudeDegrees>
              <LongitudeDegrees>-4.01017178781330585479736328125</LongitudeDegrees>
            </Position>
            <AltitudeMeters>921.20001220703125</AltitudeMeters>
            <DistanceMeters>NAN</DistanceMeters>
          </Trackpoint>
          <Trackpoint>
            <Time>2019-08-01T16:53:56.000Z</Time>
            <Position>
              <LatitudeDegrees>40.5706504918634891510009765625</LatitudeDegrees>
              <LongitudeDegrees>-4.010209925472736358642578125</LongitudeDegrees>
            </Position>
            <AltitudeMeters>921.5999755859375</AltitudeMeters>
            <DistanceMeters>NAN</DistanceMeters>
          </Trackpoint>
          <Trackpoint>
            <Time>2019-08-01T16:53:57.000Z</Time>
            <Position>
              <LatitudeDegrees>40.57062090374529361724853515625</LatitudeDegrees>
              <LongitudeDegrees>-4.01024856604635715484619140625</LongitudeDegrees>
            </Position>
            <AltitudeMeters>922</AltitudeMeters>
            <DistanceMeters>NAN</DistanceMeters>
          </Trackpoint>
          <Trackpoint>
            <Time>2019-08-01T16:53:58.000Z</Time>
            <Position>
              <LatitudeDegrees>40.5705898068845272064208984375</LatitudeDegrees>
              <LongitudeDegrees>-4.0102841891348361968994140625</LongitudeDegrees>
            </Position>
            <AltitudeMeters>922.4000244140625</AltitudeMeters>
            <DistanceMeters>NAN</DistanceMeters>
          </Trackpoint>
          <Trackpoint>
            <Time>2019-08-01T16:53:59.000Z</Time>
            <Position>
              <LatitudeDegrees>40.5705898068845272064208984375</LatitudeDegrees>
              <LongitudeDegrees>-4.0102841891348361968994140625</LongitudeDegrees>
            </Position>
            <AltitudeMeters>922.5999755859375</AltitudeMeters>
            <DistanceMeters>NAN</DistanceMeters>
          </Trackpoint>
          <Trackpoint>
            <Time>2019-08-01T16:54:00.000Z</Time>
            <Position>
              <LatitudeDegrees>40.57052115909755229949951171875</LatitudeDegrees>
              <LongitudeDegrees>-4.01035065762698650360107421875</LongitudeDegrees>
            </Position>
            <AltitudeMeters>922.79998779296875</AltitudeMeters>
            <DistanceMeters>NAN</DistanceMeters>
          </Trackpoint>
          <Trackpoint>
            <Time>2019-08-01T16:54:01.000Z</Time>
            <Position>
              <LatitudeDegrees>40.57048293761909008026123046875</LatitudeDegrees>
              <LongitudeDegrees>-4.01038083247840404510498046875</LongitudeDegrees>
            </Position>
            <AltitudeMeters>922.79998779296875</AltitudeMeters>
            <DistanceMeters>NAN</DistanceMeters>
          </Trackpoint>
          <Trackpoint>
            <Time>2019-08-01T16:54:02.000Z</Time>
            <Position>
              <LatitudeDegrees>40.570444129407405853271484375</LatitudeDegrees>
              <LongitudeDegrees>-4.010410420596599578857421875</LongitudeDegrees>
            </Position>
            <AltitudeMeters>923</AltitudeMeters>
            <DistanceMeters>NAN</DistanceMeters>
          </Trackpoint>
          <Trackpoint>
            <Time>2019-08-01T16:54:03.000Z</Time>
            <Position>
              <LatitudeDegrees>40.57040465064346790313720703125</LatitudeDegrees>
              <LongitudeDegrees>-4.01044185273349285125732421875</LongitudeDegrees>
            </Position>
            <AltitudeMeters>923.20001220703125</AltitudeMeters>
            <DistanceMeters>NAN</DistanceMeters>
          </Trackpoint>
          <Trackpoint>
            <Time>2019-08-01T16:54:04.000Z</Time>
            <Position>
              <LatitudeDegrees>40.5703645013272762298583984375</LatitudeDegrees>
              <LongitudeDegrees>-4.01047504507005214691162109375</LongitudeDegrees>
            </Position>
            <AltitudeMeters>923.20001220703125</AltitudeMeters>
            <DistanceMeters>NAN</DistanceMeters>
          </Trackpoint>
          <Trackpoint>
            <Time>2019-08-01T16:54:05.000Z</Time>
            <Position>
              <LatitudeDegrees>40.57032217271625995635986328125</LatitudeDegrees>
              <LongitudeDegrees>-4.01050798594951629638671875</LongitudeDegrees>
            </Position>
            <AltitudeMeters>923.4000244140625</AltitudeMeters>
            <DistanceMeters>NAN</DistanceMeters>
          </Trackpoint>
          <Trackpoint>
            <Time>2019-08-01T16:54:06.000Z</Time>
            <Position>
              <LatitudeDegrees>40.570277832448482513427734375</LatitudeDegrees>
              <LongitudeDegrees>-4.01054126210510730743408203125</LongitudeDegrees>
            </Position>
            <AltitudeMeters>923.4000244140625</AltitudeMeters>
            <DistanceMeters>NAN</DistanceMeters>
          </Trackpoint>
          <Trackpoint>
            <Time>2019-08-01T16:54:07.000Z</Time>
            <Position>
              <LatitudeDegrees>40.57023332454264163970947265625</LatitudeDegrees>
              <LongitudeDegrees>-4.01057646609842777252197265625</LongitudeDegrees>
            </Position>
            <AltitudeMeters>923.4000244140625</AltitudeMeters>
            <DistanceMeters>NAN</DistanceMeters>
          </Trackpoint>
          <Trackpoint>
            <Time>2019-08-01T16:54:08.000Z</Time>
            <Position>
              <LatitudeDegrees>40.57018806226551532745361328125</LatitudeDegrees>
              <LongitudeDegrees>-4.01061200536787509918212890625</LongitudeDegrees>
            </Position>
            <AltitudeMeters>923.4000244140625</AltitudeMeters>
            <DistanceMeters>NAN</DistanceMeters>
          </Trackpoint>
          <Trackpoint>
            <Time>2019-08-01T16:54:09.000Z</Time>
            <Position>
              <LatitudeDegrees>40.5701408721506595611572265625</LatitudeDegrees>
              <LongitudeDegrees>-4.01064813137054443359375</LongitudeDegrees>
            </Position>
            <AltitudeMeters>923.4000244140625</AltitudeMeters>
            <DistanceMeters>NAN</DistanceMeters>
          </Trackpoint>
          <Trackpoint>
            <Time>2019-08-01T16:54:10.000Z</Time>
            <Position>
              <LatitudeDegrees>40.57009384967386722564697265625</LatitudeDegrees>
              <LongitudeDegrees>-4.0106855146586894989013671875</LongitudeDegrees>
            </Position>
            <AltitudeMeters>923.4000244140625</AltitudeMeters>
            <DistanceMeters>NAN</DistanceMeters>
          </Trackpoint>
          <Trackpoint>
            <Time>2019-08-01T16:54:11.000Z</Time>
            <Position>
              <LatitudeDegrees>40.5700456537306308746337890625</LatitudeDegrees>
              <LongitudeDegrees>-4.01072390377521514892578125</LongitudeDegrees>
            </Position>
            <AltitudeMeters>923.4000244140625</AltitudeMeters>
            <DistanceMeters>NAN</DistanceMeters>
          </Trackpoint>
          <Trackpoint>
            <Time>2019-08-01T16:54:12.000Z</Time>
            <Position>
              <LatitudeDegrees>40.569997541606426239013671875</LatitudeDegrees>
              <LongitudeDegrees>-4.010763131082057952880859375</LongitudeDegrees>
            </Position>
            <AltitudeMeters>923.20001220703125</AltitudeMeters>
            <DistanceMeters>NAN</DistanceMeters>
          </Trackpoint>
          <Trackpoint>
            <Time>2019-08-01T16:54:13.000Z</Time>
            <Position>
              <LatitudeDegrees>40.5699497647583484649658203125</LatitudeDegrees>
              <LongitudeDegrees>-4.0108050405979156494140625</LongitudeDegrees>
            </Position>
            <AltitudeMeters>923</AltitudeMeters>
            <DistanceMeters>NAN</DistanceMeters>
          </Trackpoint>
          <Trackpoint>
            <Time>2019-08-01T16:54:14.000Z</Time>
            <Position>
              <LatitudeDegrees>40.5699497647583484649658203125</LatitudeDegrees>
              <LongitudeDegrees>-4.0108050405979156494140625</LongitudeDegrees>
            </Position>
            <AltitudeMeters>922.79998779296875</AltitudeMeters>
            <DistanceMeters>NAN</DistanceMeters>
          </Trackpoint>
          <Trackpoint>
            <Time>2019-08-01T16:54:15.000Z</Time>
            <Position>
              <LatitudeDegrees>40.569854043424129486083984375</LatitudeDegrees>
              <LongitudeDegrees>-4.01089481078088283538818359375</LongitudeDegrees>
            </Position>
            <AltitudeMeters>922.4000244140625</AltitudeMeters>
            <DistanceMeters>NAN</DistanceMeters>
          </Trackpoint>
          <Trackpoint>
            <Time>2019-08-01T16:54:16.000Z</Time>
            <Position>
              <LatitudeDegrees>40.569806434214115142822265625</LatitudeDegrees>
              <LongitudeDegrees>-4.01094292290508747100830078125</LongitudeDegrees>
            </Position>
            <AltitudeMeters>922</AltitudeMeters>
            <DistanceMeters>NAN</DistanceMeters>
          </Trackpoint>
          <Trackpoint>
            <Time>2019-08-01T16:54:17.000Z</Time>
            <Position>
              <LatitudeDegrees>40.56975991465151309967041015625</LatitudeDegrees>
              <LongitudeDegrees>-4.01099623180925846099853515625</LongitudeDegrees>
            </Position>
            <AltitudeMeters>921.5999755859375</AltitudeMeters>
            <DistanceMeters>NAN</DistanceMeters>
          </Trackpoint>
          <Trackpoint>
            <Time>2019-08-01T16:54:18.000Z</Time>
            <Position>
              <LatitudeDegrees>40.56975991465151309967041015625</LatitudeDegrees>
              <LongitudeDegrees>-4.01099623180925846099853515625</LongitudeDegrees>
            </Position>
            <AltitudeMeters>921.20001220703125</AltitudeMeters>
            <DistanceMeters>NAN</DistanceMeters>
          </Trackpoint>
          <Trackpoint>
            <Time>2019-08-01T16:54:19.000Z</Time>
            <Position>
              <LatitudeDegrees>40.56967022828757762908935546875</LatitudeDegrees>
              <LongitudeDegrees>-4.01110016740858554840087890625</LongitudeDegrees>
            </Position>
            <AltitudeMeters>921.20001220703125</AltitudeMeters>
            <DistanceMeters>NAN</DistanceMeters>
          </Trackpoint>
          <Trackpoint>
            <Time>2019-08-01T16:54:20.000Z</Time>
            <Position>
              <LatitudeDegrees>40.56962479837238788604736328125</LatitudeDegrees>
              <LongitudeDegrees>-4.01115582324564456939697265625</LongitudeDegrees>
            </Position>
            <AltitudeMeters>921</AltitudeMeters>
            <DistanceMeters>NAN</DistanceMeters>
          </Trackpoint>
          <Trackpoint>
            <Time>2019-08-01T16:54:21.000Z</Time>
            <Position>
              <LatitudeDegrees>40.56958012282848358154296875</LatitudeDegrees>
              <LongitudeDegrees>-4.0112132392823696136474609375</LongitudeDegrees>
            </Position>
            <AltitudeMeters>920.79998779296875</AltitudeMeters>
            <DistanceMeters>NAN</DistanceMeters>
          </Trackpoint>
          <Trackpoint>
            <Time>2019-08-01T16:54:22.000Z</Time>
            <Position>
              <LatitudeDegrees>40.5695356987416744232177734375</LatitudeDegrees>
              <LongitudeDegrees>-4.01127249933779239654541015625</LongitudeDegrees>
            </Position>
            <AltitudeMeters>920.4000244140625</AltitudeMeters>
            <DistanceMeters>NAN</DistanceMeters>
          </Trackpoint>
          <Trackpoint>
            <Time>2019-08-01T16:54:23.000Z</Time>
            <Position>
              <LatitudeDegrees>40.56948901154100894927978515625</LatitudeDegrees>
              <LongitudeDegrees>-4.01133201085031032562255859375</LongitudeDegrees>
            </Position>
            <AltitudeMeters>920.20001220703125</AltitudeMeters>
            <DistanceMeters>NAN</DistanceMeters>
          </Trackpoint>
          <Trackpoint>
            <Time>2019-08-01T16:54:24.000Z</Time>
            <Position>
              <LatitudeDegrees>40.5694408155977725982666015625</LatitudeDegrees>
              <LongitudeDegrees>-4.01139135472476482391357421875</LongitudeDegrees>
            </Position>
            <AltitudeMeters>920</AltitudeMeters>
            <DistanceMeters>NAN</DistanceMeters>
          </Trackpoint>
          <Trackpoint>
            <Time>2019-08-01T16:54:25.000Z</Time>
            <Position>
              <LatitudeDegrees>40.5693925358355045318603515625</LatitudeDegrees>
              <LongitudeDegrees>-4.01145153678953647613525390625</LongitudeDegrees>
            </Position>
            <AltitudeMeters>919.79998779296875</AltitudeMeters>
            <DistanceMeters>NAN</DistanceMeters>
          </Trackpoint>
          <Trackpoint>
            <Time>2019-08-01T16:54:26.000Z</Time>
            <Position>
              <LatitudeDegrees>40.569343753159046173095703125</LatitudeDegrees>
              <LongitudeDegrees>-4.01151305995881557464599609375</LongitudeDegrees>
            </Position>
            <AltitudeMeters>919.79998779296875</AltitudeMeters>
            <DistanceMeters>NAN</DistanceMeters>
          </Trackpoint>
          <Trackpoint>
            <Time>2019-08-01T16:54:27.000Z</Time>
            <Position>
              <LatitudeDegrees>40.56929455138742923736572265625</LatitudeDegrees>
              <LongitudeDegrees>-4.0115753374993801116943359375</LongitudeDegrees>
            </Position>
            <AltitudeMeters>919.5999755859375</AltitudeMeters>
            <DistanceMeters>NAN</DistanceMeters>
          </Trackpoint>
          <Trackpoint>
            <Time>2019-08-01T16:54:28.000Z</Time>
            <Position>
              <LatitudeDegrees>40.56924543343484401702880859375</LatitudeDegrees>
              <LongitudeDegrees>-4.0116380341351032257080078125</LongitudeDegrees>
            </Position>
            <AltitudeMeters>919.5999755859375</AltitudeMeters>
            <DistanceMeters>NAN</DistanceMeters>
          </Trackpoint>
          <Trackpoint>
            <Time>2019-08-01T16:54:29.000Z</Time>
            <Position>
              <LatitudeDegrees>40.569197572767734527587890625</LatitudeDegrees>
              <LongitudeDegrees>-4.0117010660469532012939453125</LongitudeDegrees>
            </Position>
            <AltitudeMeters>919.4000244140625</AltitudeMeters>
            <DistanceMeters>NAN</DistanceMeters>
          </Trackpoint>
          <Trackpoint>
            <Time>2019-08-01T16:54:30.000Z</Time>
            <Position>
              <LatitudeDegrees>40.56915004737675189971923828125</LatitudeDegrees>
              <LongitudeDegrees>-4.01176434941589832305908203125</LongitudeDegrees>
            </Position>
            <AltitudeMeters>919.4000244140625</AltitudeMeters>
            <DistanceMeters>NAN</DistanceMeters>
          </Trackpoint>
          <Trackpoint>
            <Time>2019-08-01T16:54:31.000Z</Time>
            <Position>
              <LatitudeDegrees>40.56910277344286441802978515625</LatitudeDegrees>
              <LongitudeDegrees>-4.01182897388935089111328125</LongitudeDegrees>
            </Position>
            <AltitudeMeters>919.20001220703125</AltitudeMeters>
            <DistanceMeters>NAN</DistanceMeters>
          </Trackpoint>
          <Trackpoint>
            <Time>2019-08-01T16:54:32.000Z</Time>
            <Position>
              <LatitudeDegrees>40.56905147619545459747314453125</LatitudeDegrees>
              <LongitudeDegrees>-4.01189208962023258209228515625</LongitudeDegrees>
            </Position>
            <AltitudeMeters>919.20001220703125</AltitudeMeters>
            <DistanceMeters>NAN</DistanceMeters>
          </Trackpoint>
          <Trackpoint>
            <Time>2019-08-01T16:54:33.000Z</Time>
            <Position>
              <LatitudeDegrees>40.5690016038715839385986328125</LatitudeDegrees>
              <LongitudeDegrees>-4.01195495389401912689208984375</LongitudeDegrees>
            </Position>
            <AltitudeMeters>919.20001220703125</AltitudeMeters>
            <DistanceMeters>NAN</DistanceMeters>
          </Trackpoint>
          <Trackpoint>
            <Time>2019-08-01T16:54:34.000Z</Time>
            <Position>
              <LatitudeDegrees>40.56895173154771327972412109375</LatitudeDegrees>
              <LongitudeDegrees>-4.01201614178717136383056640625</LongitudeDegrees>
            </Position>
            <AltitudeMeters>919</AltitudeMeters>
            <DistanceMeters>NAN</DistanceMeters>
          </Trackpoint>
          <Trackpoint>
            <Time>2019-08-01T16:54:35.000Z</Time>
            <Position>
              <LatitudeDegrees>40.5689003504812717437744140625</LatitudeDegrees>
              <LongitudeDegrees>-4.01207464747130870819091796875</LongitudeDegrees>
            </Position>
            <AltitudeMeters>919</AltitudeMeters>
            <DistanceMeters>NAN</DistanceMeters>
          </Trackpoint>
          <Trackpoint>
            <Time>2019-08-01T16:54:36.000Z</Time>
            <Position>
              <LatitudeDegrees>40.56884846650063991546630859375</LatitudeDegrees>
              <LongitudeDegrees>-4.0121278725564479827880859375</LongitudeDegrees>
            </Position>
            <AltitudeMeters>918.79998779296875</AltitudeMeters>
            <DistanceMeters>NAN</DistanceMeters>
          </Trackpoint>
          <Trackpoint>
            <Time>2019-08-01T16:54:37.000Z</Time>
            <Position>
              <LatitudeDegrees>40.56879448704421520233154296875</LatitudeDegrees>
              <LongitudeDegrees>-4.012173973023891448974609375</LongitudeDegrees>
            </Position>
            <AltitudeMeters>918.79998779296875</AltitudeMeters>
            <DistanceMeters>NAN</DistanceMeters>
          </Trackpoint>
          <Trackpoint>
            <Time>2019-08-01T16:54:38.000Z</Time>
            <Position>
              <LatitudeDegrees>40.56873765774071216583251953125</LatitudeDegrees>
              <LongitudeDegrees>-4.01221387088298797607421875</LongitudeDegrees>
            </Position>
            <AltitudeMeters>918.79998779296875</AltitudeMeters>
            <DistanceMeters>NAN</DistanceMeters>
          </Trackpoint>
          <Trackpoint>
            <Time>2019-08-01T16:54:39.000Z</Time>
            <Position>
              <LatitudeDegrees>40.56867848150432109832763671875</LatitudeDegrees>
              <LongitudeDegrees>-4.012248404324054718017578125</LongitudeDegrees>
            </Position>
            <AltitudeMeters>918.4000244140625</AltitudeMeters>
            <DistanceMeters>NAN</DistanceMeters>
          </Trackpoint>
          <Trackpoint>
            <Time>2019-08-01T16:54:40.000Z</Time>
            <Position>
              <LatitudeDegrees>40.56861695833504199981689453125</LatitudeDegrees>
              <LongitudeDegrees>-4.0122780762612819671630859375</LongitudeDegrees>
            </Position>
            <AltitudeMeters>918</AltitudeMeters>
            <DistanceMeters>NAN</DistanceMeters>
          </Trackpoint>
          <Trackpoint>
            <Time>2019-08-01T16:54:41.000Z</Time>
            <Position>
              <LatitudeDegrees>40.5685533396899700164794921875</LatitudeDegrees>
              <LongitudeDegrees>-4.01230330578982830047607421875</LongitudeDegrees>
            </Position>
            <AltitudeMeters>917.79998779296875</AltitudeMeters>
            <DistanceMeters>NAN</DistanceMeters>
          </Trackpoint>
          <Trackpoint>
            <Time>2019-08-01T16:54:42.000Z</Time>
            <Position>
              <LatitudeDegrees>40.5684879608452320098876953125</LatitudeDegrees>
              <LongitudeDegrees>-4.0123250149190425872802734375</LongitudeDegrees>
            </Position>
            <AltitudeMeters>917.4000244140625</AltitudeMeters>
            <DistanceMeters>NAN</DistanceMeters>
          </Trackpoint>
          <Trackpoint>
            <Time>2019-08-01T16:54:43.000Z</Time>
            <Position>
              <LatitudeDegrees>40.5684205703437328338623046875</LatitudeDegrees>
              <LongitudeDegrees>-4.012344293296337127685546875</LongitudeDegrees>
            </Position>
            <AltitudeMeters>917.20001220703125</AltitudeMeters>
            <DistanceMeters>NAN</DistanceMeters>
          </Trackpoint>
          <Trackpoint>
            <Time>2019-08-01T16:54:44.000Z</Time>
            <Position>
              <LatitudeDegrees>40.5683504976332187652587890625</LatitudeDegrees>
              <LongitudeDegrees>-4.0123625658452510833740234375</LongitudeDegrees>
            </Position>
            <AltitudeMeters>917</AltitudeMeters>
            <DistanceMeters>NAN</DistanceMeters>
          </Trackpoint>
          <Trackpoint>
            <Time>2019-08-01T16:54:45.000Z</Time>
            <Position>
              <LatitudeDegrees>40.5682767368853092193603515625</LatitudeDegrees>
              <LongitudeDegrees>-4.012381844222545623779296875</LongitudeDegrees>
            </Position>
            <AltitudeMeters>917</AltitudeMeters>
            <DistanceMeters>NAN</DistanceMeters>
          </Trackpoint>
          <Trackpoint>
            <Time>2019-08-01T16:54:46.000Z</Time>
            <Position>
              <LatitudeDegrees>40.56819970719516277313232421875</LatitudeDegrees>
              <LongitudeDegrees>-4.0124044753611087799072265625</LongitudeDegrees>
            </Position>
            <AltitudeMeters>916.79998779296875</AltitudeMeters>
            <DistanceMeters>NAN</DistanceMeters>
          </Trackpoint>
          <Trackpoint>
            <Time>2019-08-01T16:54:47.000Z</Time>
            <Position>
              <LatitudeDegrees>40.56812041439116001129150390625</LatitudeDegrees>
              <LongitudeDegrees>-4.012433476746082305908203125</LongitudeDegrees>
            </Position>
            <AltitudeMeters>916.5999755859375</AltitudeMeters>
            <DistanceMeters>NAN</DistanceMeters>
          </Trackpoint>
          <Trackpoint>
            <Time>2019-08-01T16:54:48.000Z</Time>
            <Position>
              <LatitudeDegrees>40.56812041439116001129150390625</LatitudeDegrees>
              <LongitudeDegrees>-4.012433476746082305908203125</LongitudeDegrees>
            </Position>
            <AltitudeMeters>916.20001220703125</AltitudeMeters>
            <DistanceMeters>NAN</DistanceMeters>
          </Trackpoint>
          <Trackpoint>
            <Time>2019-08-01T16:54:49.000Z</Time>
            <Position>
              <LatitudeDegrees>40.56795076467096805572509765625</LatitudeDegrees>
              <LongitudeDegrees>-4.01250430382788181304931640625</LongitudeDegrees>
            </Position>
            <AltitudeMeters>916.20001220703125</AltitudeMeters>
            <DistanceMeters>NAN</DistanceMeters>
          </Trackpoint>
          <Trackpoint>
            <Time>2019-08-01T16:54:50.000Z</Time>
            <Position>
              <LatitudeDegrees>40.56786191649734973907470703125</LatitudeDegrees>
              <LongitudeDegrees>-4.01254302822053432464599609375</LongitudeDegrees>
            </Position>
            <AltitudeMeters>916</AltitudeMeters>
            <DistanceMeters>NAN</DistanceMeters>
          </Trackpoint>
          <Trackpoint>
            <Time>2019-08-01T16:54:51.000Z</Time>
            <Position>
              <LatitudeDegrees>40.5677711404860019683837890625</LatitudeDegrees>
              <LongitudeDegrees>-4.01258259080350399017333984375</LongitudeDegrees>
            </Position>
            <AltitudeMeters>916</AltitudeMeters>
            <DistanceMeters>NAN</DistanceMeters>
          </Trackpoint>
          <Trackpoint>
            <Time>2019-08-01T16:54:52.000Z</Time>
            <Position>
              <LatitudeDegrees>40.56767784990370273590087890625</LatitudeDegrees>
              <LongitudeDegrees>-4.01262349449098110198974609375</LongitudeDegrees>
            </Position>
            <AltitudeMeters>915.79998779296875</AltitudeMeters>
            <DistanceMeters>NAN</DistanceMeters>
          </Trackpoint>
          <Trackpoint>
            <Time>2019-08-01T16:54:53.000Z</Time>
            <Position>
              <LatitudeDegrees>40.5675827153027057647705078125</LatitudeDegrees>
              <LongitudeDegrees>-4.0126659907400608062744140625</LongitudeDegrees>
            </Position>
            <AltitudeMeters>915</AltitudeMeters>
            <DistanceMeters>NAN</DistanceMeters>
          </Trackpoint>
          <Trackpoint>
            <Time>2019-08-01T16:54:54.000Z</Time>
            <Position>
              <LatitudeDegrees>40.56748473085463047027587890625</LatitudeDegrees>
              <LongitudeDegrees>-4.012710750102996826171875</LongitudeDegrees>
            </Position>
            <AltitudeMeters>914.4000244140625</AltitudeMeters>
            <DistanceMeters>NAN</DistanceMeters>
          </Trackpoint>
          <Trackpoint>
            <Time>2019-08-01T16:54:55.000Z</Time>
            <Position>
              <LatitudeDegrees>40.567383728921413421630859375</LatitudeDegrees>
              <LongitudeDegrees>-4.01275626383721828460693359375</LongitudeDegrees>
            </Position>
            <AltitudeMeters>913.79998779296875</AltitudeMeters>
            <DistanceMeters>NAN</DistanceMeters>
          </Trackpoint>
          <Trackpoint>
            <Time>2019-08-01T16:54:56.000Z</Time>
            <Position>
              <LatitudeDegrees>40.56728088296949863433837890625</LatitudeDegrees>
              <LongitudeDegrees>-4.01280404068529605865478515625</LongitudeDegrees>
            </Position>
            <AltitudeMeters>912.5999755859375</AltitudeMeters>
            <DistanceMeters>NAN</DistanceMeters>
          </Trackpoint>
          <Trackpoint>
            <Time>2019-08-01T16:54:57.000Z</Time>
            <Position>
              <LatitudeDegrees>40.5671770311892032623291015625</LatitudeDegrees>
              <LongitudeDegrees>-4.0128554217517375946044921875</LongitudeDegrees>
            </Position>
            <AltitudeMeters>911</AltitudeMeters>
            <DistanceMeters>NAN</DistanceMeters>
          </Trackpoint>
          <Trackpoint>
            <Time>2019-08-01T16:54:58.000Z</Time>
            <Position>
              <LatitudeDegrees>40.567074604332447052001953125</LatitudeDegrees>
              <LongitudeDegrees>-4.0129083953797817230224609375</LongitudeDegrees>
            </Position>
            <AltitudeMeters>909.20001220703125</AltitudeMeters>
            <DistanceMeters>NAN</DistanceMeters>
          </Trackpoint>
          <Trackpoint>
            <Time>2019-08-01T16:54:59.000Z</Time>
            <Position>
              <LatitudeDegrees>40.56697645224630832672119140625</LatitudeDegrees>
              <LongitudeDegrees>-4.01296044699847698211669921875</LongitudeDegrees>
            </Position>
            <AltitudeMeters>907.79998779296875</AltitudeMeters>
            <DistanceMeters>NAN</DistanceMeters>
          </Trackpoint>
          <Trackpoint>
            <Time>2019-08-01T16:55:00.000Z</Time>
            <Position>
              <LatitudeDegrees>40.5668850056827068328857421875</LatitudeDegrees>
              <LongitudeDegrees>-4.01301291771233081817626953125</LongitudeDegrees>
            </Position>
            <AltitudeMeters>907</AltitudeMeters>
            <DistanceMeters>NAN</DistanceMeters>
          </Trackpoint>
          <Trackpoint>
            <Time>2019-08-01T16:55:01.000Z</Time>
            <Position>
              <LatitudeDegrees>40.5668850056827068328857421875</LatitudeDegrees>
              <LongitudeDegrees>-4.01301291771233081817626953125</LongitudeDegrees>
            </Position>
            <AltitudeMeters>906.5999755859375</AltitudeMeters>
            <DistanceMeters>NAN</DistanceMeters>
          </Trackpoint>
          <Trackpoint>
            <Time>2019-08-01T16:55:02.000Z</Time>
            <Position>
              <LatitudeDegrees>40.56671929545700550079345703125</LatitudeDegrees>
              <LongitudeDegrees>-4.0131276659667491912841796875</LongitudeDegrees>
            </Position>
            <AltitudeMeters>905.79998779296875</AltitudeMeters>
            <DistanceMeters>NAN</DistanceMeters>
          </Trackpoint>
          <Trackpoint>
            <Time>2019-08-01T16:55:03.000Z</Time>
            <Position>
              <LatitudeDegrees>40.56664117611944675445556640625</LatitudeDegrees>
              <LongitudeDegrees>-4.0131890214979648590087890625</LongitudeDegrees>
            </Position>
            <AltitudeMeters>905.4000244140625</AltitudeMeters>
            <DistanceMeters>NAN</DistanceMeters>
          </Trackpoint>
          <Trackpoint>
            <Time>2019-08-01T16:55:04.000Z</Time>
            <Position>
              <LatitudeDegrees>40.566564314067363739013671875</LatitudeDegrees>
              <LongitudeDegrees>-4.01324920356273651123046875</LongitudeDegrees>
            </Position>
            <AltitudeMeters>904.79998779296875</AltitudeMeters>
            <DistanceMeters>NAN</DistanceMeters>
          </Trackpoint>
          <Trackpoint>
            <Time>2019-08-01T16:55:05.000Z</Time>
            <Position>
              <LatitudeDegrees>40.56648845784366130828857421875</LatitudeDegrees>
              <LongitudeDegrees>-4.013306535780429840087890625</LongitudeDegrees>
            </Position>
            <AltitudeMeters>904.4000244140625</AltitudeMeters>
            <DistanceMeters>NAN</DistanceMeters>
          </Trackpoint>
          <Trackpoint>
            <Time>2019-08-01T16:55:06.000Z</Time>
            <Position>
              <LatitudeDegrees>40.5664144456386566162109375</LatitudeDegrees>
              <LongitudeDegrees>-4.013366214931011199951171875</LongitudeDegrees>
            </Position>
            <AltitudeMeters>903.5999755859375</AltitudeMeters>
            <DistanceMeters>NAN</DistanceMeters>
          </Trackpoint>
          <Trackpoint>
            <Time>2019-08-01T16:55:07.000Z</Time>
            <Position>
              <LatitudeDegrees>40.56634194217622280120849609375</LatitudeDegrees>
              <LongitudeDegrees>-4.01342228986322879791259765625</LongitudeDegrees>
            </Position>
            <AltitudeMeters>903.20001220703125</AltitudeMeters>
            <DistanceMeters>NAN</DistanceMeters>
          </Trackpoint>
          <Trackpoint>
            <Time>2019-08-01T16:55:08.000Z</Time>
            <Position>
              <LatitudeDegrees>40.5662717856466770172119140625</LatitudeDegrees>
              <LongitudeDegrees>-4.01347450911998748779296875</LongitudeDegrees>
            </Position>
            <AltitudeMeters>902.79998779296875</AltitudeMeters>
            <DistanceMeters>NAN</DistanceMeters>
          </Trackpoint>
          <Trackpoint>
            <Time>2019-08-01T16:55:09.000Z</Time>
            <Position>
              <LatitudeDegrees>40.56620313785970211029052734375</LatitudeDegrees>
              <LongitudeDegrees>-4.01352488435804843902587890625</LongitudeDegrees>
            </Position>
            <AltitudeMeters>902.5999755859375</AltitudeMeters>
            <DistanceMeters>NAN</DistanceMeters>
          </Trackpoint>
          <Trackpoint>
            <Time>2019-08-01T16:55:10.000Z</Time>
            <Position>
              <LatitudeDegrees>40.56613474152982234954833984375</LatitudeDegrees>
              <LongitudeDegrees>-4.0135725773870944976806640625</LongitudeDegrees>
            </Position>
            <AltitudeMeters>902.5999755859375</AltitudeMeters>
            <DistanceMeters>NAN</DistanceMeters>
          </Trackpoint>
          <Trackpoint>
            <Time>2019-08-01T16:55:11.000Z</Time>
            <Position>
              <LatitudeDegrees>40.56606777012348175048828125</LatitudeDegrees>
              <LongitudeDegrees>-4.013612307608127593994140625</LongitudeDegrees>
            </Position>
            <AltitudeMeters>902.4000244140625</AltitudeMeters>
            <DistanceMeters>NAN</DistanceMeters>
          </Trackpoint>
          <Trackpoint>
            <Time>2019-08-01T16:55:12.000Z</Time>
            <Position>
              <LatitudeDegrees>40.5660040676593780517578125</LatitudeDegrees>
              <LongitudeDegrees>-4.01364441029727458953857421875</LongitudeDegrees>
            </Position>
            <AltitudeMeters>902.20001220703125</AltitudeMeters>
            <DistanceMeters>NAN</DistanceMeters>
          </Trackpoint>
          <Trackpoint>
            <Time>2019-08-01T16:55:13.000Z</Time>
            <Position>
              <LatitudeDegrees>40.5659422092139720916748046875</LatitudeDegrees>
              <LongitudeDegrees>-4.01367207057774066925048828125</LongitudeDegrees>
            </Position>
            <AltitudeMeters>902</AltitudeMeters>
            <DistanceMeters>NAN</DistanceMeters>
          </Trackpoint>
          <Trackpoint>
            <Time>2019-08-01T16:55:14.000Z</Time>
            <Position>
              <LatitudeDegrees>40.56587875820696353912353515625</LatitudeDegrees>
              <LongitudeDegrees>-4.0137026645243167877197265625</LongitudeDegrees>
            </Position>
            <AltitudeMeters>902</AltitudeMeters>
            <DistanceMeters>NAN</DistanceMeters>
          </Trackpoint>
          <Trackpoint>
            <Time>2019-08-01T16:55:15.000Z</Time>
            <Position>
              <LatitudeDegrees>40.56581296026706695556640625</LatitudeDegrees>
              <LongitudeDegrees>-4.0137420594692230224609375</LongitudeDegrees>
            </Position>
            <AltitudeMeters>901.5999755859375</AltitudeMeters>
            <DistanceMeters>NAN</DistanceMeters>
          </Trackpoint>
          <Trackpoint>
            <Time>2019-08-01T16:55:16.000Z</Time>
            <Position>
              <LatitudeDegrees>40.565746240317821502685546875</LatitudeDegrees>
              <LongitudeDegrees>-4.01378430426120758056640625</LongitudeDegrees>
            </Position>
            <AltitudeMeters>901.4000244140625</AltitudeMeters>
            <DistanceMeters>NAN</DistanceMeters>
          </Trackpoint>
          <Trackpoint>
            <Time>2019-08-01T16:55:17.000Z</Time>
            <Position>
              <LatitudeDegrees>40.56567273102700710296630859375</LatitudeDegrees>
              <LongitudeDegrees>-4.01381313800811767578125</LongitudeDegrees>
            </Position>
            <AltitudeMeters>901.20001220703125</AltitudeMeters>
            <DistanceMeters>NAN</DistanceMeters>
          </Trackpoint>
          <Trackpoint>
            <Time>2019-08-01T16:55:18.000Z</Time>
            <Position>
              <LatitudeDegrees>40.56559293530881404876708984375</LatitudeDegrees>
              <LongitudeDegrees>-4.01382721960544586181640625</LongitudeDegrees>
            </Position>
            <AltitudeMeters>901</AltitudeMeters>
            <DistanceMeters>NAN</DistanceMeters>
          </Trackpoint>
          <Trackpoint>
            <Time>2019-08-01T16:55:19.000Z</Time>
            <Position>
              <LatitudeDegrees>40.565511547029018402099609375</LatitudeDegrees>
              <LongitudeDegrees>-4.01383602060377597808837890625</LongitudeDegrees>
            </Position>
            <AltitudeMeters>900.4000244140625</AltitudeMeters>
            <DistanceMeters>NAN</DistanceMeters>
          </Trackpoint>
          <Trackpoint>
            <Time>2019-08-01T16:55:20.000Z</Time>
            <Position>
              <LatitudeDegrees>40.56542865000665187835693359375</LatitudeDegrees>
              <LongitudeDegrees>-4.0138431452214717864990234375</LongitudeDegrees>
            </Position>
            <AltitudeMeters>900.20001220703125</AltitudeMeters>
            <DistanceMeters>NAN</DistanceMeters>
          </Trackpoint>
          <Trackpoint>
            <Time>2019-08-01T16:55:21.000Z</Time>
            <Position>
              <LatitudeDegrees>40.5653450824320316314697265625</LatitudeDegrees>
              <LongitudeDegrees>-4.01384859345853328704833984375</LongitudeDegrees>
            </Position>
            <AltitudeMeters>900</AltitudeMeters>
            <DistanceMeters>NAN</DistanceMeters>
          </Trackpoint>
          <Trackpoint>
            <Time>2019-08-01T16:55:22.000Z</Time>
            <Position>
              <LatitudeDegrees>40.56526185013353824615478515625</LatitudeDegrees>
              <LongitudeDegrees>-4.01385479606688022613525390625</LongitudeDegrees>
            </Position>
            <AltitudeMeters>900</AltitudeMeters>
            <DistanceMeters>NAN</DistanceMeters>
          </Trackpoint>
          <Trackpoint>
            <Time>2019-08-01T16:55:23.000Z</Time>
            <Position>
              <LatitudeDegrees>40.565178282558917999267578125</LatitudeDegrees>
              <LongitudeDegrees>-4.0138609148561954498291015625</LongitudeDegrees>
            </Position>
            <AltitudeMeters>899.5999755859375</AltitudeMeters>
            <DistanceMeters>NAN</DistanceMeters>
          </Trackpoint>
          <Trackpoint>
            <Time>2019-08-01T16:55:24.000Z</Time>
            <Position>
              <LatitudeDegrees>40.5650947988033294677734375</LatitudeDegrees>
              <LongitudeDegrees>-4.01386619545519351959228515625</LongitudeDegrees>
            </Position>
            <AltitudeMeters>899</AltitudeMeters>
            <DistanceMeters>NAN</DistanceMeters>
          </Trackpoint>
          <Trackpoint>
            <Time>2019-08-01T16:55:25.000Z</Time>
            <Position>
              <LatitudeDegrees>40.5650947988033294677734375</LatitudeDegrees>
              <LongitudeDegrees>-4.01386619545519351959228515625</LongitudeDegrees>
            </Position>
            <AltitudeMeters>898.5999755859375</AltitudeMeters>
            <DistanceMeters>NAN</DistanceMeters>
          </Trackpoint>
          <Trackpoint>
            <Time>2019-08-01T16:55:26.000Z</Time>
            <Position>
              <LatitudeDegrees>40.5649285018444061279296875</LatitudeDegrees>
              <LongitudeDegrees>-4.013875164091587066650390625</LongitudeDegrees>
            </Position>
            <AltitudeMeters>897.79998779296875</AltitudeMeters>
            <DistanceMeters>NAN</DistanceMeters>
          </Trackpoint>
          <Trackpoint>
            <Time>2019-08-01T16:55:27.000Z</Time>
            <Position>
              <LatitudeDegrees>40.56484468281269073486328125</LatitudeDegrees>
              <LongitudeDegrees>-4.01388044469058513641357421875</LongitudeDegrees>
            </Position>
            <AltitudeMeters>897.4000244140625</AltitudeMeters>
            <DistanceMeters>NAN</DistanceMeters>
          </Trackpoint>
          <Trackpoint>
            <Time>2019-08-01T16:55:28.000Z</Time>
            <Position>
              <LatitudeDegrees>40.5647593550384044647216796875</LatitudeDegrees>
              <LongitudeDegrees>-4.0138857252895832061767578125</LongitudeDegrees>
            </Position>
            <AltitudeMeters>897</AltitudeMeters>
            <DistanceMeters>NAN</DistanceMeters>
          </Trackpoint>
          <Trackpoint>
            <Time>2019-08-01T16:55:29.000Z</Time>
            <Position>
              <LatitudeDegrees>40.56467243470251560211181640625</LatitudeDegrees>
              <LongitudeDegrees>-4.01389100588858127593994140625</LongitudeDegrees>
            </Position>
            <AltitudeMeters>896.79998779296875</AltitudeMeters>
            <DistanceMeters>NAN</DistanceMeters>
          </Trackpoint>
          <Trackpoint>
            <Time>2019-08-01T16:55:30.000Z</Time>
            <Position>
              <LatitudeDegrees>40.5645843409001827239990234375</LatitudeDegrees>
              <LongitudeDegrees>-4.01389536447823047637939453125</LongitudeDegrees>
            </Position>
            <AltitudeMeters>896.4000244140625</AltitudeMeters>
            <DistanceMeters>NAN</DistanceMeters>
          </Trackpoint>
          <Trackpoint>
            <Time>2019-08-01T16:55:31.000Z</Time>
            <Position>
              <LatitudeDegrees>40.5644954927265644073486328125</LatitudeDegrees>
              <LongitudeDegrees>-4.01390089653432369232177734375</LongitudeDegrees>
            </Position>
            <AltitudeMeters>896</AltitudeMeters>
            <DistanceMeters>NAN</DistanceMeters>
          </Trackpoint>
          <Trackpoint>
            <Time>2019-08-01T16:55:32.000Z</Time>
            <Position>
              <LatitudeDegrees>40.564405806362628936767578125</LatitudeDegrees>
              <LongitudeDegrees>-4.01390592567622661590576171875</LongitudeDegrees>
            </Position>
            <AltitudeMeters>895.5999755859375</AltitudeMeters>
            <DistanceMeters>NAN</DistanceMeters>
          </Trackpoint>
          <Trackpoint>
            <Time>2019-08-01T16:55:33.000Z</Time>
            <Position>
              <LatitudeDegrees>40.5643164552748203277587890625</LatitudeDegrees>
              <LongitudeDegrees>-4.013910032808780670166015625</LongitudeDegrees>
            </Position>
            <AltitudeMeters>895.20001220703125</AltitudeMeters>
            <DistanceMeters>NAN</DistanceMeters>
          </Trackpoint>
          <Trackpoint>
            <Time>2019-08-01T16:55:34.000Z</Time>
            <Position>
              <LatitudeDegrees>40.56422777473926544189453125</LatitudeDegrees>
              <LongitudeDegrees>-4.01391548104584217071533203125</LongitudeDegrees>
            </Position>
            <AltitudeMeters>895</AltitudeMeters>
            <DistanceMeters>NAN</DistanceMeters>
          </Trackpoint>
          <Trackpoint>
            <Time>2019-08-01T16:55:35.000Z</Time>
            <Position>
              <LatitudeDegrees>40.56414085440337657928466796875</LatitudeDegrees>
              <LongitudeDegrees>-4.01392109692096710205078125</LongitudeDegrees>
            </Position>
            <AltitudeMeters>894.79998779296875</AltitudeMeters>
            <DistanceMeters>NAN</DistanceMeters>
          </Trackpoint>
          <Trackpoint>
            <Time>2019-08-01T16:55:36.000Z</Time>
            <Position>
              <LatitudeDegrees>40.56405552662909030914306640625</LatitudeDegrees>
              <LongitudeDegrees>-4.01392905972898006439208984375</LongitudeDegrees>
            </Position>
            <AltitudeMeters>894</AltitudeMeters>
            <DistanceMeters>NAN</DistanceMeters>
          </Trackpoint>
          <Trackpoint>
            <Time>2019-08-01T16:55:37.000Z</Time>
            <Position>
              <LatitudeDegrees>40.56397120468318462371826171875</LatitudeDegrees>
              <LongitudeDegrees>-4.0139450691640377044677734375</LongitudeDegrees>
            </Position>
            <AltitudeMeters>893.4000244140625</AltitudeMeters>
            <DistanceMeters>NAN</DistanceMeters>
          </Trackpoint>
          <Trackpoint>
            <Time>2019-08-01T16:55:38.000Z</Time>
            <Position>
              <LatitudeDegrees>40.5638879723846912384033203125</LatitudeDegrees>
              <LongitudeDegrees>-4.013970382511615753173828125</LongitudeDegrees>
            </Position>
            <AltitudeMeters>892.5999755859375</AltitudeMeters>
            <DistanceMeters>NAN</DistanceMeters>
          </Trackpoint>
          <Trackpoint>
            <Time>2019-08-01T16:55:39.000Z</Time>
            <Position>
              <LatitudeDegrees>40.56380624882876873016357421875</LatitudeDegrees>
              <LongitudeDegrees>-4.01400290429592132568359375</LongitudeDegrees>
            </Position>
            <AltitudeMeters>892</AltitudeMeters>
            <DistanceMeters>NAN</DistanceMeters>
          </Trackpoint>
          <Trackpoint>
            <Time>2019-08-01T16:55:40.000Z</Time>
            <Position>
              <LatitudeDegrees>40.56372544728219509124755859375</LatitudeDegrees>
              <LongitudeDegrees>-4.014040790498256683349609375</LongitudeDegrees>
            </Position>
            <AltitudeMeters>891.5999755859375</AltitudeMeters>
            <DistanceMeters>NAN</DistanceMeters>
          </Trackpoint>
          <Trackpoint>
            <Time>2019-08-01T16:55:41.000Z</Time>
            <Position>
              <LatitudeDegrees>40.56364414282143115997314453125</LatitudeDegrees>
              <LongitudeDegrees>-4.0140808559954166412353515625</LongitudeDegrees>
            </Position>
            <AltitudeMeters>891.20001220703125</AltitudeMeters>
            <DistanceMeters>NAN</DistanceMeters>
          </Trackpoint>
          <Trackpoint>
            <Time>2019-08-01T16:55:42.000Z</Time>
            <Position>
              <LatitudeDegrees>40.56356124579906463623046875</LatitudeDegrees>
              <LongitudeDegrees>-4.01412100531160831451416015625</LongitudeDegrees>
            </Position>
            <AltitudeMeters>891</AltitudeMeters>
            <DistanceMeters>NAN</DistanceMeters>
          </Trackpoint>
          <Trackpoint>
            <Time>2019-08-01T16:55:43.000Z</Time>
            <Position>
              <LatitudeDegrees>40.5634772591292858123779296875</LatitudeDegrees>
              <LongitudeDegrees>-4.01416308246552944183349609375</LongitudeDegrees>
            </Position>
            <AltitudeMeters>890.79998779296875</AltitudeMeters>
            <DistanceMeters>NAN</DistanceMeters>
          </Trackpoint>
          <Trackpoint>
            <Time>2019-08-01T16:55:44.000Z</Time>
            <Position>
              <LatitudeDegrees>40.5633917637169361114501953125</LatitudeDegrees>
              <LongitudeDegrees>-4.0142052434384822845458984375</LongitudeDegrees>
            </Position>
            <AltitudeMeters>890.5999755859375</AltitudeMeters>
            <DistanceMeters>NAN</DistanceMeters>
          </Trackpoint>
          <Trackpoint>
            <Time>2019-08-01T16:55:45.000Z</Time>
            <Position>
              <LatitudeDegrees>40.5633082799613475799560546875</LatitudeDegrees>
              <LongitudeDegrees>-4.01424505747854709625244140625</LongitudeDegrees>
            </Position>
            <AltitudeMeters>890.4000244140625</AltitudeMeters>
            <DistanceMeters>NAN</DistanceMeters>
          </Trackpoint>
          <Trackpoint>
            <Time>2019-08-01T16:55:46.000Z</Time>
            <Position>
              <LatitudeDegrees>40.5632301606237888336181640625</LatitudeDegrees>
              <LongitudeDegrees>-4.0142840333282947540283203125</LongitudeDegrees>
            </Position>
            <AltitudeMeters>890.20001220703125</AltitudeMeters>
            <DistanceMeters>NAN</DistanceMeters>
          </Trackpoint>
          <Trackpoint>
            <Time>2019-08-01T16:55:47.000Z</Time>
            <Position>
              <LatitudeDegrees>40.56315648369491100311279296875</LatitudeDegrees>
              <LongitudeDegrees>-4.014321751892566680908203125</LongitudeDegrees>
            </Position>
            <AltitudeMeters>890.20001220703125</AltitudeMeters>
            <DistanceMeters>NAN</DistanceMeters>
          </Trackpoint>
          <Trackpoint>
            <Time>2019-08-01T16:55:48.000Z</Time>
            <Position>
              <LatitudeDegrees>40.5630863271653652191162109375</LatitudeDegrees>
              <LongitudeDegrees>-4.01435703970491886138916015625</LongitudeDegrees>
            </Position>
            <AltitudeMeters>889.79998779296875</AltitudeMeters>
            <DistanceMeters>NAN</DistanceMeters>
          </Trackpoint>
          <Trackpoint>
            <Time>2019-08-01T16:55:49.000Z</Time>
            <Position>
              <LatitudeDegrees>40.5630212835967540740966796875</LatitudeDegrees>
              <LongitudeDegrees>-4.014389477670192718505859375</LongitudeDegrees>
            </Position>
            <AltitudeMeters>889.4000244140625</AltitudeMeters>
            <DistanceMeters>NAN</DistanceMeters>
          </Trackpoint>
          <Trackpoint>
            <Time>2019-08-01T16:55:50.000Z</Time>
            <Position>
              <LatitudeDegrees>40.56296688504517078399658203125</LatitudeDegrees>
              <LongitudeDegrees>-4.01441537775099277496337890625</LongitudeDegrees>
            </Position>
            <AltitudeMeters>889.20001220703125</AltitudeMeters>
            <DistanceMeters>NAN</DistanceMeters>
          </Trackpoint>
          <Trackpoint>
            <Time>2019-08-01T16:55:51.000Z</Time>
            <Position>
              <LatitudeDegrees>40.562920533120632171630859375</LatitudeDegrees>
              <LongitudeDegrees>-4.01443985290825366973876953125</LongitudeDegrees>
            </Position>
            <AltitudeMeters>888.79998779296875</AltitudeMeters>
            <DistanceMeters>NAN</DistanceMeters>
          </Trackpoint>
          <Trackpoint>
            <Time>2019-08-01T16:55:52.000Z</Time>
            <Position>
              <LatitudeDegrees>40.56288239546120166778564453125</LatitudeDegrees>
              <LongitudeDegrees>-4.01447631418704986572265625</LongitudeDegrees>
            </Position>
            <AltitudeMeters>888.4000244140625</AltitudeMeters>
            <DistanceMeters>NAN</DistanceMeters>
          </Trackpoint>
          <Trackpoint>
            <Time>2019-08-01T16:55:53.000Z</Time>
            <Position>
              <LatitudeDegrees>40.5628551542758941650390625</LatitudeDegrees>
              <LongitudeDegrees>-4.01453020982444286346435546875</LongitudeDegrees>
            </Position>
            <AltitudeMeters>888.20001220703125</AltitudeMeters>
            <DistanceMeters>NAN</DistanceMeters>
          </Trackpoint>
          <Trackpoint>
            <Time>2019-08-01T16:55:54.000Z</Time>
            <Position>
              <LatitudeDegrees>40.562836043536663055419921875</LatitudeDegrees>
              <LongitudeDegrees>-4.01459642685949802398681640625</LongitudeDegrees>
            </Position>
            <AltitudeMeters>888.20001220703125</AltitudeMeters>
            <DistanceMeters>NAN</DistanceMeters>
          </Trackpoint>
          <Trackpoint>
            <Time>2019-08-01T16:55:55.000Z</Time>
            <Position>
              <LatitudeDegrees>40.562810562551021575927734375</LatitudeDegrees>
              <LongitudeDegrees>-4.01466096751391887664794921875</LongitudeDegrees>
            </Position>
            <AltitudeMeters>888</AltitudeMeters>
            <DistanceMeters>NAN</DistanceMeters>
          </Trackpoint>
          <Trackpoint>
            <Time>2019-08-01T16:55:56.000Z</Time>
            <Position>
              <LatitudeDegrees>40.562773011624813079833984375</LatitudeDegrees>
              <LongitudeDegrees>-4.0147128514945507049560546875</LongitudeDegrees>
            </Position>
            <AltitudeMeters>887.79998779296875</AltitudeMeters>
            <DistanceMeters>NAN</DistanceMeters>
          </Trackpoint>
          <Trackpoint>
            <Time>2019-08-01T16:55:57.000Z</Time>
            <Position>
              <LatitudeDegrees>40.5627265758812427520751953125</LatitudeDegrees>
              <LongitudeDegrees>-4.0147450380027294158935546875</LongitudeDegrees>
            </Position>
            <AltitudeMeters>887.5999755859375</AltitudeMeters>
            <DistanceMeters>NAN</DistanceMeters>
          </Trackpoint>
          <Trackpoint>
            <Time>2019-08-01T16:55:58.000Z</Time>
            <Position>
              <LatitudeDegrees>40.562675110995769500732421875</LatitudeDegrees>
              <LongitudeDegrees>-4.01476020924746990203857421875</LongitudeDegrees>
            </Position>
            <AltitudeMeters>887.5999755859375</AltitudeMeters>
            <DistanceMeters>NAN</DistanceMeters>
          </Trackpoint>
          <Trackpoint>
            <Time>2019-08-01T16:55:59.000Z</Time>
            <Position>
              <LatitudeDegrees>40.5626191198825836181640625</LatitudeDegrees>
              <LongitudeDegrees>-4.0147691778838634490966796875</LongitudeDegrees>
            </Position>
            <AltitudeMeters>887.5999755859375</AltitudeMeters>
            <DistanceMeters>NAN</DistanceMeters>
          </Trackpoint>
          <Trackpoint>
            <Time>2019-08-01T16:56:00.000Z</Time>
            <Position>
              <LatitudeDegrees>40.56256270967423915863037109375</LatitudeDegrees>
              <LongitudeDegrees>-4.0147854387760162353515625</LongitudeDegrees>
            </Position>
            <AltitudeMeters>887.4000244140625</AltitudeMeters>
            <DistanceMeters>NAN</DistanceMeters>
          </Trackpoint>
          <Trackpoint>
            <Time>2019-08-01T16:56:01.000Z</Time>
            <Position>
              <LatitudeDegrees>40.5625083111226558685302734375</LatitudeDegrees>
              <LongitudeDegrees>-4.014815948903560638427734375</LongitudeDegrees>
            </Position>
            <AltitudeMeters>887</AltitudeMeters>
            <DistanceMeters>NAN</DistanceMeters>
          </Trackpoint>
          <Trackpoint>
            <Time>2019-08-01T16:56:02.000Z</Time>
            <Position>
              <LatitudeDegrees>40.56245751678943634033203125</LatitudeDegrees>
              <LongitudeDegrees>-4.014861881732940673828125</LongitudeDegrees>
            </Position>
            <AltitudeMeters>886.79998779296875</AltitudeMeters>
            <DistanceMeters>NAN</DistanceMeters>
          </Trackpoint>
          <Trackpoint>
            <Time>2019-08-01T16:56:03.000Z</Time>
            <Position>
              <LatitudeDegrees>40.56240915320813655853271484375</LatitudeDegrees>
              <LongitudeDegrees>-4.0149180404841899871826171875</LongitudeDegrees>
            </Position>
            <AltitudeMeters>886.5999755859375</AltitudeMeters>
            <DistanceMeters>NAN</DistanceMeters>
          </Trackpoint>
          <Trackpoint>
            <Time>2019-08-01T16:56:04.000Z</Time>
            <Position>
              <LatitudeDegrees>40.562365315854549407958984375</LatitudeDegrees>
              <LongitudeDegrees>-4.0149837546050548553466796875</LongitudeDegrees>
            </Position>
            <AltitudeMeters>886.4000244140625</AltitudeMeters>
            <DistanceMeters>NAN</DistanceMeters>
          </Trackpoint>
          <Trackpoint>
            <Time>2019-08-01T16:56:05.000Z</Time>
            <Position>
              <LatitudeDegrees>40.56232751347124576568603515625</LatitudeDegrees>
              <LongitudeDegrees>-4.01505944319069385528564453125</LongitudeDegrees>
            </Position>
            <AltitudeMeters>886.20001220703125</AltitudeMeters>
            <DistanceMeters>NAN</DistanceMeters>
          </Trackpoint>
          <Trackpoint>
            <Time>2019-08-01T16:56:06.000Z</Time>
            <Position>
              <LatitudeDegrees>40.5622959136962890625</LatitudeDegrees>
              <LongitudeDegrees>-4.01514259167015552520751953125</LongitudeDegrees>
            </Position>
            <AltitudeMeters>886</AltitudeMeters>
            <DistanceMeters>NAN</DistanceMeters>
          </Trackpoint>
          <Trackpoint>
            <Time>2019-08-01T16:56:07.000Z</Time>
            <Position>
              <LatitudeDegrees>40.5622736178338527679443359375</LatitudeDegrees>
              <LongitudeDegrees>-4.0152342058718204498291015625</LongitudeDegrees>
            </Position>
            <AltitudeMeters>885.79998779296875</AltitudeMeters>
            <DistanceMeters>NAN</DistanceMeters>
          </Trackpoint>
          <Trackpoint>
            <Time>2019-08-01T16:56:08.000Z</Time>
            <Position>
              <LatitudeDegrees>40.5622736178338527679443359375</LatitudeDegrees>
              <LongitudeDegrees>-4.0152342058718204498291015625</LongitudeDegrees>
            </Position>
            <AltitudeMeters>885.4000244140625</AltitudeMeters>
            <DistanceMeters>NAN</DistanceMeters>
          </Trackpoint>
          <Trackpoint>
            <Time>2019-08-01T16:56:09.000Z</Time>
            <Position>
              <LatitudeDegrees>40.56224101223051548004150390625</LatitudeDegrees>
              <LongitudeDegrees>-4.01542221195995807647705078125</LongitudeDegrees>
            </Position>
            <AltitudeMeters>885</AltitudeMeters>
            <DistanceMeters>NAN</DistanceMeters>
          </Trackpoint>
          <Trackpoint>
            <Time>2019-08-01T16:56:10.000Z</Time>
            <Position>
              <LatitudeDegrees>40.56222173385322093963623046875</LatitudeDegrees>
              <LongitudeDegrees>-4.01551340706646442413330078125</LongitudeDegrees>
            </Position>
            <AltitudeMeters>885</AltitudeMeters>
            <DistanceMeters>NAN</DistanceMeters>
          </Trackpoint>
          <Trackpoint>
            <Time>2019-08-01T16:56:11.000Z</Time>
            <Position>
              <LatitudeDegrees>40.56219868361949920654296875</LatitudeDegrees>
              <LongitudeDegrees>-4.01560041122138500213623046875</LongitudeDegrees>
            </Position>
            <AltitudeMeters>884.79998779296875</AltitudeMeters>
            <DistanceMeters>NAN</DistanceMeters>
          </Trackpoint>
          <Trackpoint>
            <Time>2019-08-01T16:56:12.000Z</Time>
            <Position>
              <LatitudeDegrees>40.562169514596462249755859375</LatitudeDegrees>
              <LongitudeDegrees>-4.01568322442471981048583984375</LongitudeDegrees>
            </Position>
            <AltitudeMeters>884.5999755859375</AltitudeMeters>
            <DistanceMeters>NAN</DistanceMeters>
          </Trackpoint>
          <Trackpoint>
            <Time>2019-08-01T16:56:13.000Z</Time>
            <Position>
              <LatitudeDegrees>40.56213472969830036163330078125</LatitudeDegrees>
              <LongitudeDegrees>-4.015766121447086334228515625</LongitudeDegrees>
            </Position>
            <AltitudeMeters>884.4000244140625</AltitudeMeters>
            <DistanceMeters>NAN</DistanceMeters>
          </Trackpoint>
          <Trackpoint>
            <Time>2019-08-01T16:56:14.000Z</Time>
            <Position>
              <LatitudeDegrees>40.5620945803821086883544921875</LatitudeDegrees>
              <LongitudeDegrees>-4.0158444084227085113525390625</LongitudeDegrees>
            </Position>
            <AltitudeMeters>884.20001220703125</AltitudeMeters>
            <DistanceMeters>NAN</DistanceMeters>
          </Trackpoint>
          <Trackpoint>
            <Time>2019-08-01T16:56:15.000Z</Time>
            <Position>
              <LatitudeDegrees>40.56204839609563350677490234375</LatitudeDegrees>
              <LongitudeDegrees>-4.0159134753048419952392578125</LongitudeDegrees>
            </Position>
            <AltitudeMeters>884</AltitudeMeters>
            <DistanceMeters>NAN</DistanceMeters>
          </Trackpoint>
          <Trackpoint>
            <Time>2019-08-01T16:56:16.000Z</Time>
            <Position>
              <LatitudeDegrees>40.56199483573436737060546875</LatitudeDegrees>
              <LongitudeDegrees>-4.0159704722464084625244140625</LongitudeDegrees>
            </Position>
            <AltitudeMeters>883.79998779296875</AltitudeMeters>
            <DistanceMeters>NAN</DistanceMeters>
          </Trackpoint>
          <Trackpoint>
            <Time>2019-08-01T16:56:17.000Z</Time>
            <Position>
              <LatitudeDegrees>40.56193607859313488006591796875</LatitudeDegrees>
              <LongitudeDegrees>-4.01601900346577167510986328125</LongitudeDegrees>
            </Position>
            <AltitudeMeters>883.5999755859375</AltitudeMeters>
            <DistanceMeters>NAN</DistanceMeters>
          </Trackpoint>
          <Trackpoint>
            <Time>2019-08-01T16:56:18.000Z</Time>
            <Position>
              <LatitudeDegrees>40.56187874637544155120849609375</LatitudeDegrees>
              <LongitudeDegrees>-4.01606242172420024871826171875</LongitudeDegrees>
            </Position>
            <AltitudeMeters>883.4000244140625</AltitudeMeters>
            <DistanceMeters>NAN</DistanceMeters>
          </Trackpoint>
          <Trackpoint>
            <Time>2019-08-01T16:56:19.000Z</Time>
            <Position>
              <LatitudeDegrees>40.56182208471000194549560546875</LatitudeDegrees>
              <LongitudeDegrees>-4.0161055885255336761474609375</LongitudeDegrees>
            </Position>
            <AltitudeMeters>883.4000244140625</AltitudeMeters>
            <DistanceMeters>NAN</DistanceMeters>
          </Trackpoint>
          <Trackpoint>
            <Time>2019-08-01T16:56:20.000Z</Time>
            <Position>
              <LatitudeDegrees>40.56176626123487949371337890625</LatitudeDegrees>
              <LongitudeDegrees>-4.0161451511085033416748046875</LongitudeDegrees>
            </Position>
            <AltitudeMeters>883.20001220703125</AltitudeMeters>
            <DistanceMeters>NAN</DistanceMeters>
          </Trackpoint>
          <Trackpoint>
            <Time>2019-08-01T16:56:21.000Z</Time>
            <Position>
              <LatitudeDegrees>40.56171186268329620361328125</LatitudeDegrees>
              <LongitudeDegrees>-4.0161810256540775299072265625</LongitudeDegrees>
            </Position>
            <AltitudeMeters>883</AltitudeMeters>
            <DistanceMeters>NAN</DistanceMeters>
          </Trackpoint>
          <Trackpoint>
            <Time>2019-08-01T16:56:22.000Z</Time>
            <Position>
              <LatitudeDegrees>40.56165779940783977508544921875</LatitudeDegrees>
              <LongitudeDegrees>-4.016218073666095733642578125</LongitudeDegrees>
            </Position>
            <AltitudeMeters>883</AltitudeMeters>
            <DistanceMeters>NAN</DistanceMeters>
          </Trackpoint>
          <Trackpoint>
            <Time>2019-08-01T16:56:23.000Z</Time>
            <Position>
              <LatitudeDegrees>40.56160398758947849273681640625</LatitudeDegrees>
              <LongitudeDegrees>-4.016256965696811676025390625</LongitudeDegrees>
            </Position>
            <AltitudeMeters>883</AltitudeMeters>
            <DistanceMeters>NAN</DistanceMeters>
          </Trackpoint>
          <Trackpoint>
            <Time>2019-08-01T16:56:24.000Z</Time>
            <Position>
              <LatitudeDegrees>40.56155168451368808746337890625</LatitudeDegrees>
              <LongitudeDegrees>-4.016296863555908203125</LongitudeDegrees>
            </Position>
            <AltitudeMeters>883</AltitudeMeters>
            <DistanceMeters>NAN</DistanceMeters>
          </Trackpoint>
          <Trackpoint>
            <Time>2019-08-01T16:56:25.000Z</Time>
            <Position>
              <LatitudeDegrees>40.5615051649510860443115234375</LatitudeDegrees>
              <LongitudeDegrees>-4.0163518488407135009765625</LongitudeDegrees>
            </Position>
            <AltitudeMeters>883</AltitudeMeters>
            <DistanceMeters>NAN</DistanceMeters>
          </Trackpoint>
          <Trackpoint>
            <Time>2019-08-01T16:56:26.000Z</Time>
            <Position>
              <LatitudeDegrees>40.5614656023681163787841796875</LatitudeDegrees>
              <LongitudeDegrees>-4.01642485521733760833740234375</LongitudeDegrees>
            </Position>
            <AltitudeMeters>883</AltitudeMeters>
            <DistanceMeters>NAN</DistanceMeters>
          </Trackpoint>
          <Trackpoint>
            <Time>2019-08-01T16:56:27.000Z</Time>
            <Position>
              <LatitudeDegrees>40.56142779998481273651123046875</LatitudeDegrees>
              <LongitudeDegrees>-4.01651152409613132476806640625</LongitudeDegrees>
            </Position>
            <AltitudeMeters>883</AltitudeMeters>
            <DistanceMeters>NAN</DistanceMeters>
          </Trackpoint>
          <Trackpoint>
            <Time>2019-08-01T16:56:28.000Z</Time>
            <Position>
              <LatitudeDegrees>40.56138060986995697021484375</LatitudeDegrees>
              <LongitudeDegrees>-4.016594588756561279296875</LongitudeDegrees>
            </Position>
            <AltitudeMeters>882.79998779296875</AltitudeMeters>
            <DistanceMeters>NAN</DistanceMeters>
          </Trackpoint>
          <Trackpoint>
            <Time>2019-08-01T16:56:29.000Z</Time>
            <Position>
              <LatitudeDegrees>40.5613231100142002105712890625</LatitudeDegrees>
              <LongitudeDegrees>-4.0166698582470417022705078125</LongitudeDegrees>
            </Position>
            <AltitudeMeters>882.79998779296875</AltitudeMeters>
            <DistanceMeters>NAN</DistanceMeters>
          </Trackpoint>
          <Trackpoint>
            <Time>2019-08-01T16:56:30.000Z</Time>
            <Position>
              <LatitudeDegrees>40.56125831790268421173095703125</LatitudeDegrees>
              <LongitudeDegrees>-4.0167379193007946014404296875</LongitudeDegrees>
            </Position>
            <AltitudeMeters>882.5999755859375</AltitudeMeters>
            <DistanceMeters>NAN</DistanceMeters>
          </Trackpoint>
          <Trackpoint>
            <Time>2019-08-01T16:56:31.000Z</Time>
            <Position>
              <LatitudeDegrees>40.56119126267731189727783203125</LatitudeDegrees>
              <LongitudeDegrees>-4.0167970955371856689453125</LongitudeDegrees>
            </Position>
            <AltitudeMeters>882.4000244140625</AltitudeMeters>
            <DistanceMeters>NAN</DistanceMeters>
          </Trackpoint>
          <Trackpoint>
            <Time>2019-08-01T16:56:32.000Z</Time>
            <Position>
              <LatitudeDegrees>40.56112253107130527496337890625</LatitudeDegrees>
              <LongitudeDegrees>-4.016854427754878997802734375</LongitudeDegrees>
            </Position>
            <AltitudeMeters>882.20001220703125</AltitudeMeters>
            <DistanceMeters>NAN</DistanceMeters>
          </Trackpoint>
          <Trackpoint>
            <Time>2019-08-01T16:56:33.000Z</Time>
            <Position>
              <LatitudeDegrees>40.561053715646266937255859375</LatitudeDegrees>
              <LongitudeDegrees>-4.0169055573642253875732421875</LongitudeDegrees>
            </Position>
            <AltitudeMeters>882.20001220703125</AltitudeMeters>
            <DistanceMeters>NAN</DistanceMeters>
          </Trackpoint>
          <Trackpoint>
            <Time>2019-08-01T16:56:34.000Z</Time>
            <Position>
              <LatitudeDegrees>40.560986660420894622802734375</LatitudeDegrees>
              <LongitudeDegrees>-4.01695668697357177734375</LongitudeDegrees>
            </Position>
            <AltitudeMeters>881.79998779296875</AltitudeMeters>
            <DistanceMeters>NAN</DistanceMeters>
          </Trackpoint>
          <Trackpoint>
            <Time>2019-08-01T16:56:35.000Z</Time>
            <Position>
              <LatitudeDegrees>40.56092371232807636260986328125</LatitudeDegrees>
              <LongitudeDegrees>-4.0170078165829181671142578125</LongitudeDegrees>
            </Position>
            <AltitudeMeters>881</AltitudeMeters>
            <DistanceMeters>NAN</DistanceMeters>
          </Trackpoint>
          <Trackpoint>
            <Time>2019-08-01T16:56:36.000Z</Time>
            <Position>
              <LatitudeDegrees>40.5608622729778289794921875</LatitudeDegrees>
              <LongitudeDegrees>-4.01706992648541927337646484375</LongitudeDegrees>
            </Position>
            <AltitudeMeters>880.20001220703125</AltitudeMeters>
            <DistanceMeters>NAN</DistanceMeters>
          </Trackpoint>
          <Trackpoint>
            <Time>2019-08-01T16:56:37.000Z</Time>
            <Position>
              <LatitudeDegrees>40.56082245893776416778564453125</LatitudeDegrees>
              <LongitudeDegrees>-4.017148129642009735107421875</LongitudeDegrees>
            </Position>
            <AltitudeMeters>879.5999755859375</AltitudeMeters>
            <DistanceMeters>NAN</DistanceMeters>
          </Trackpoint>
          <Trackpoint>
            <Time>2019-08-01T16:56:38.000Z</Time>
            <Position>
              <LatitudeDegrees>40.56080871261656284332275390625</LatitudeDegrees>
              <LongitudeDegrees>-4.0172391571104526519775390625</LongitudeDegrees>
            </Position>
            <AltitudeMeters>879</AltitudeMeters>
            <DistanceMeters>NAN</DistanceMeters>
          </Trackpoint>
          <Trackpoint>
            <Time>2019-08-01T16:56:39.000Z</Time>
            <Position>
              <LatitudeDegrees>40.56080661714076995849609375</LatitudeDegrees>
              <LongitudeDegrees>-4.01733957231044769287109375</LongitudeDegrees>
            </Position>
            <AltitudeMeters>878.5999755859375</AltitudeMeters>
            <DistanceMeters>NAN</DistanceMeters>
          </Trackpoint>
          <Trackpoint>
            <Time>2019-08-01T16:56:40.000Z</Time>
            <Position>
              <LatitudeDegrees>40.56080435402691364288330078125</LatitudeDegrees>
              <LongitudeDegrees>-4.0174503810703754425048828125</LongitudeDegrees>
            </Position>
            <AltitudeMeters>878.4000244140625</AltitudeMeters>
            <DistanceMeters>NAN</DistanceMeters>
          </Trackpoint>
          <Trackpoint>
            <Time>2019-08-01T16:56:41.000Z</Time>
            <Position>
              <LatitudeDegrees>40.5607970617711544036865234375</LatitudeDegrees>
              <LongitudeDegrees>-4.0175640396773815155029296875</LongitudeDegrees>
            </Position>
            <AltitudeMeters>878</AltitudeMeters>
            <DistanceMeters>NAN</DistanceMeters>
          </Trackpoint>
          <Trackpoint>
            <Time>2019-08-01T16:56:42.000Z</Time>
            <Position>
              <LatitudeDegrees>40.56078256107866764068603515625</LatitudeDegrees>
              <LongitudeDegrees>-4.01768021285533905029296875</LongitudeDegrees>
            </Position>
            <AltitudeMeters>878</AltitudeMeters>
            <DistanceMeters>NAN</DistanceMeters>
          </Trackpoint>
          <Trackpoint>
            <Time>2019-08-01T16:56:43.000Z</Time>
            <Position>
              <LatitudeDegrees>40.56076127104461193084716796875</LatitudeDegrees>
              <LongitudeDegrees>-4.01779579930007457733154296875</LongitudeDegrees>
            </Position>
            <AltitudeMeters>877.79998779296875</AltitudeMeters>
            <DistanceMeters>NAN</DistanceMeters>
          </Trackpoint>
          <Trackpoint>
            <Time>2019-08-01T16:56:44.000Z</Time>
            <Position>
              <LatitudeDegrees>40.56076127104461193084716796875</LatitudeDegrees>
              <LongitudeDegrees>-4.01779579930007457733154296875</LongitudeDegrees>
            </Position>
            <AltitudeMeters>877.5999755859375</AltitudeMeters>
            <DistanceMeters>NAN</DistanceMeters>
          </Trackpoint>
          <Trackpoint>
            <Time>2019-08-01T16:56:45.000Z</Time>
            <Position>
              <LatitudeDegrees>40.5607092194259166717529296875</LatitudeDegrees>
              <LongitudeDegrees>-4.018033929169178009033203125</LongitudeDegrees>
            </Position>
            <AltitudeMeters>877.5999755859375</AltitudeMeters>
            <DistanceMeters>NAN</DistanceMeters>
          </Trackpoint>
          <Trackpoint>
            <Time>2019-08-01T16:56:46.000Z</Time>
            <Position>
              <LatitudeDegrees>40.56067979894578456878662109375</LatitudeDegrees>
              <LongitudeDegrees>-4.01815672405064105987548828125</LongitudeDegrees>
            </Position>
            <AltitudeMeters>877.4000244140625</AltitudeMeters>
            <DistanceMeters>NAN</DistanceMeters>
          </Trackpoint>
          <Trackpoint>
            <Time>2019-08-01T16:56:47.000Z</Time>
            <Position>
              <LatitudeDegrees>40.5606508813798427581787109375</LatitudeDegrees>
              <LongitudeDegrees>-4.01828236877918243408203125</LongitudeDegrees>
            </Position>
            <AltitudeMeters>877.20001220703125</AltitudeMeters>
            <DistanceMeters>NAN</DistanceMeters>
          </Trackpoint>
          <Trackpoint>
            <Time>2019-08-01T16:56:48.000Z</Time>
            <Position>
              <LatitudeDegrees>40.5606230534613132476806640625</LatitudeDegrees>
              <LongitudeDegrees>-4.01841304264962673187255859375</LongitudeDegrees>
            </Position>
            <AltitudeMeters>877</AltitudeMeters>
            <DistanceMeters>NAN</DistanceMeters>
          </Trackpoint>
          <Trackpoint>
            <Time>2019-08-01T16:56:49.000Z</Time>
            <Position>
              <LatitudeDegrees>40.5605955608189105987548828125</LatitudeDegrees>
              <LongitudeDegrees>-4.01854413561522960662841796875</LongitudeDegrees>
            </Position>
            <AltitudeMeters>876</AltitudeMeters>
            <DistanceMeters>NAN</DistanceMeters>
          </Trackpoint>
          <Trackpoint>
            <Time>2019-08-01T16:56:50.000Z</Time>
            <Position>
              <LatitudeDegrees>40.5605684034526348114013671875</LatitudeDegrees>
              <LongitudeDegrees>-4.01867933571338653564453125</LongitudeDegrees>
            </Position>
            <AltitudeMeters>874.79998779296875</AltitudeMeters>
            <DistanceMeters>NAN</DistanceMeters>
          </Trackpoint>
          <Trackpoint>
            <Time>2019-08-01T16:56:51.000Z</Time>
            <Position>
              <LatitudeDegrees>40.5605409108102321624755859375</LatitudeDegrees>
              <LongitudeDegrees>-4.0188159607350826263427734375</LongitudeDegrees>
            </Position>
            <AltitudeMeters>873</AltitudeMeters>
            <DistanceMeters>NAN</DistanceMeters>
          </Trackpoint>
          <Trackpoint>
            <Time>2019-08-01T16:56:52.000Z</Time>
            <Position>
              <LatitudeDegrees>40.56051551364362239837646484375</LatitudeDegrees>
              <LongitudeDegrees>-4.01895350776612758636474609375</LongitudeDegrees>
            </Position>
            <AltitudeMeters>872</AltitudeMeters>
            <DistanceMeters>NAN</DistanceMeters>
          </Trackpoint>
          <Trackpoint>
            <Time>2019-08-01T16:56:53.000Z</Time>
            <Position>
              <LatitudeDegrees>40.56048986501991748809814453125</LatitudeDegrees>
              <LongitudeDegrees>-4.0190935693681240081787109375</LongitudeDegrees>
            </Position>
            <AltitudeMeters>871.20001220703125</AltitudeMeters>
            <DistanceMeters>NAN</DistanceMeters>
          </Trackpoint>
          <Trackpoint>
            <Time>2019-08-01T16:56:54.000Z</Time>
            <Position>
              <LatitudeDegrees>40.56046329438686370849609375</LatitudeDegrees>
              <LongitudeDegrees>-4.01923212222754955291748046875</LongitudeDegrees>
            </Position>
            <AltitudeMeters>870.79998779296875</AltitudeMeters>
            <DistanceMeters>NAN</DistanceMeters>
          </Trackpoint>
          <Trackpoint>
            <Time>2019-08-01T16:56:55.000Z</Time>
            <Position>
              <LatitudeDegrees>40.56043538264930248260498046875</LatitudeDegrees>
              <LongitudeDegrees>-4.01936891488730907440185546875</LongitudeDegrees>
            </Position>
            <AltitudeMeters>870.4000244140625</AltitudeMeters>
            <DistanceMeters>NAN</DistanceMeters>
          </Trackpoint>
          <Trackpoint>
            <Time>2019-08-01T16:56:56.000Z</Time>
            <Position>
              <LatitudeDegrees>40.56040537543594837188720703125</LatitudeDegrees>
              <LongitudeDegrees>-4.01950118131935596466064453125</LongitudeDegrees>
            </Position>
            <AltitudeMeters>869.4000244140625</AltitudeMeters>
            <DistanceMeters>NAN</DistanceMeters>
          </Trackpoint>
          <Trackpoint>
            <Time>2019-08-01T16:56:57.000Z</Time>
            <Position>
              <LatitudeDegrees>40.56037503294646739959716796875</LatitudeDegrees>
              <LongitudeDegrees>-4.0196290053427219390869140625</LongitudeDegrees>
            </Position>
            <AltitudeMeters>868.5999755859375</AltitudeMeters>
            <DistanceMeters>NAN</DistanceMeters>
          </Trackpoint>
          <Trackpoint>
            <Time>2019-08-01T16:56:58.000Z</Time>
            <Position>
              <LatitudeDegrees>40.5603437684476375579833984375</LatitudeDegrees>
              <LongitudeDegrees>-4.01975221931934356689453125</LongitudeDegrees>
            </Position>
            <AltitudeMeters>868.20001220703125</AltitudeMeters>
            <DistanceMeters>NAN</DistanceMeters>
          </Trackpoint>
          <Trackpoint>
            <Time>2019-08-01T16:56:59.000Z</Time>
            <Position>
              <LatitudeDegrees>40.5603437684476375579833984375</LatitudeDegrees>
              <LongitudeDegrees>-4.01975221931934356689453125</LongitudeDegrees>
            </Position>
            <AltitudeMeters>868</AltitudeMeters>
            <DistanceMeters>NAN</DistanceMeters>
          </Trackpoint>
          <Trackpoint>
            <Time>2019-08-01T16:57:00.000Z</Time>
            <Position>
              <LatitudeDegrees>40.5602696724236011505126953125</LatitudeDegrees>
              <LongitudeDegrees>-4.01998154819011688232421875</LongitudeDegrees>
            </Position>
            <AltitudeMeters>867.79998779296875</AltitudeMeters>
            <DistanceMeters>NAN</DistanceMeters>
          </Trackpoint>
          <Trackpoint>
            <Time>2019-08-01T16:57:01.000Z</Time>
            <Position>
              <LatitudeDegrees>40.5602260865271091461181640625</LatitudeDegrees>
              <LongitudeDegrees>-4.02008925564587116241455078125</LongitudeDegrees>
            </Position>
            <AltitudeMeters>867.5999755859375</AltitudeMeters>
            <DistanceMeters>NAN</DistanceMeters>
          </Trackpoint>
          <Trackpoint>
            <Time>2019-08-01T16:57:02.000Z</Time>
            <Position>
              <LatitudeDegrees>40.56017990224063396453857421875</LatitudeDegrees>
              <LongitudeDegrees>-4.020193107426166534423828125</LongitudeDegrees>
            </Position>
            <AltitudeMeters>867.4000244140625</AltitudeMeters>
            <DistanceMeters>NAN</DistanceMeters>
          </Trackpoint>
          <Trackpoint>
            <Time>2019-08-01T16:57:03.000Z</Time>
            <Position>
              <LatitudeDegrees>40.56013405323028564453125</LatitudeDegrees>
              <LongitudeDegrees>-4.020296037197113037109375</LongitudeDegrees>
            </Position>
            <AltitudeMeters>867.4000244140625</AltitudeMeters>
            <DistanceMeters>NAN</DistanceMeters>
          </Trackpoint>
          <Trackpoint>
            <Time>2019-08-01T16:57:04.000Z</Time>
            <Position>
              <LatitudeDegrees>40.56008921004831790924072265625</LatitudeDegrees>
              <LongitudeDegrees>-4.02039729058742523193359375</LongitudeDegrees>
            </Position>
            <AltitudeMeters>867.4000244140625</AltitudeMeters>
            <DistanceMeters>NAN</DistanceMeters>
          </Trackpoint>
          <Trackpoint>
            <Time>2019-08-01T16:57:05.000Z</Time>
            <Position>
              <LatitudeDegrees>40.56004310958087444305419921875</LatitudeDegrees>
              <LongitudeDegrees>-4.0204956941306591033935546875</LongitudeDegrees>
            </Position>
            <AltitudeMeters>867.4000244140625</AltitudeMeters>
            <DistanceMeters>NAN</DistanceMeters>
          </Trackpoint>
          <Trackpoint>
            <Time>2019-08-01T16:57:06.000Z</Time>
            <Position>
              <LatitudeDegrees>40.55999734438955783843994140625</LatitudeDegrees>
              <LongitudeDegrees>-4.02059300802648067474365234375</LongitudeDegrees>
            </Position>
            <AltitudeMeters>867.4000244140625</AltitudeMeters>
            <DistanceMeters>NAN</DistanceMeters>
          </Trackpoint>
          <Trackpoint>
            <Time>2019-08-01T16:57:07.000Z</Time>
            <Position>
              <LatitudeDegrees>40.5599568597972393035888671875</LatitudeDegrees>
              <LongitudeDegrees>-4.02069208212196826934814453125</LongitudeDegrees>
            </Position>
            <AltitudeMeters>867.4000244140625</AltitudeMeters>
            <DistanceMeters>NAN</DistanceMeters>
          </Trackpoint>
          <Trackpoint>
            <Time>2019-08-01T16:57:08.000Z</Time>
            <Position>
              <LatitudeDegrees>40.559919811785221099853515625</LatitudeDegrees>
              <LongitudeDegrees>-4.02079115621745586395263671875</LongitudeDegrees>
            </Position>
            <AltitudeMeters>867.4000244140625</AltitudeMeters>
            <DistanceMeters>NAN</DistanceMeters>
          </Trackpoint>
          <Trackpoint>
            <Time>2019-08-01T16:57:09.000Z</Time>
            <Position>
              <LatitudeDegrees>40.5598837696015834808349609375</LatitudeDegrees>
              <LongitudeDegrees>-4.02089073322713375091552734375</LongitudeDegrees>
            </Position>
            <AltitudeMeters>867.4000244140625</AltitudeMeters>
            <DistanceMeters>NAN</DistanceMeters>
          </Trackpoint>
          <Trackpoint>
            <Time>2019-08-01T16:57:10.000Z</Time>
            <Position>
              <LatitudeDegrees>40.5598458833992481231689453125</LatitudeDegrees>
              <LongitudeDegrees>-4.020987711846828460693359375</LongitudeDegrees>
            </Position>
            <AltitudeMeters>867.4000244140625</AltitudeMeters>
            <DistanceMeters>NAN</DistanceMeters>
          </Trackpoint>
          <Trackpoint>
            <Time>2019-08-01T16:57:11.000Z</Time>
            <Position>
              <LatitudeDegrees>40.5598063208162784576416015625</LatitudeDegrees>
              <LongitudeDegrees>-4.021079577505588531494140625</LongitudeDegrees>
            </Position>
            <AltitudeMeters>867.79998779296875</AltitudeMeters>
            <DistanceMeters>NAN</DistanceMeters>
          </Trackpoint>
          <Trackpoint>
            <Time>2019-08-01T16:57:12.000Z</Time>
            <Position>
              <LatitudeDegrees>40.55976801551878452301025390625</LatitudeDegrees>
              <LongitudeDegrees>-4.02117018587887287139892578125</LongitudeDegrees>
            </Position>
            <AltitudeMeters>868</AltitudeMeters>
            <DistanceMeters>NAN</DistanceMeters>
          </Trackpoint>
          <Trackpoint>
            <Time>2019-08-01T16:57:13.000Z</Time>
            <Position>
              <LatitudeDegrees>40.5597282014787197113037109375</LatitudeDegrees>
              <LongitudeDegrees>-4.021260626614093780517578125</LongitudeDegrees>
            </Position>
            <AltitudeMeters>868</AltitudeMeters>
            <DistanceMeters>NAN</DistanceMeters>
          </Trackpoint>
          <Trackpoint>
            <Time>2019-08-01T16:57:14.000Z</Time>
            <Position>
              <LatitudeDegrees>40.55968587286770343780517578125</LatitudeDegrees>
              <LongitudeDegrees>-4.021351151168346405029296875</LongitudeDegrees>
            </Position>
            <AltitudeMeters>868.20001220703125</AltitudeMeters>
            <DistanceMeters>NAN</DistanceMeters>
          </Trackpoint>
          <Trackpoint>
            <Time>2019-08-01T16:57:15.000Z</Time>
            <Position>
              <LatitudeDegrees>40.559641532599925994873046875</LatitudeDegrees>
              <LongitudeDegrees>-4.02144201099872589111328125</LongitudeDegrees>
            </Position>
            <AltitudeMeters>868.20001220703125</AltitudeMeters>
            <DistanceMeters>NAN</DistanceMeters>
          </Trackpoint>
          <Trackpoint>
            <Time>2019-08-01T16:57:16.000Z</Time>
            <Position>
              <LatitudeDegrees>40.55959551595151424407958984375</LatitudeDegrees>
              <LongitudeDegrees>-4.02153429575264453887939453125</LongitudeDegrees>
            </Position>
            <AltitudeMeters>868.20001220703125</AltitudeMeters>
            <DistanceMeters>NAN</DistanceMeters>
          </Trackpoint>
          <Trackpoint>
            <Time>2019-08-01T16:57:17.000Z</Time>
            <Position>
              <LatitudeDegrees>40.5595474876463413238525390625</LatitudeDegrees>
              <LongitudeDegrees>-4.02162683196365833282470703125</LongitudeDegrees>
            </Position>
            <AltitudeMeters>868.20001220703125</AltitudeMeters>
            <DistanceMeters>NAN</DistanceMeters>
          </Trackpoint>
          <Trackpoint>
            <Time>2019-08-01T16:57:18.000Z</Time>
            <Position>
              <LatitudeDegrees>40.55950038135051727294921875</LatitudeDegrees>
              <LongitudeDegrees>-4.02172221802175045013427734375</LongitudeDegrees>
            </Position>
            <AltitudeMeters>868.20001220703125</AltitudeMeters>
            <DistanceMeters>NAN</DistanceMeters>
          </Trackpoint>
          <Trackpoint>
            <Time>2019-08-01T16:57:19.000Z</Time>
            <Position>
              <LatitudeDegrees>40.5594515986740589141845703125</LatitudeDegrees>
              <LongitudeDegrees>-4.02181693352758884429931640625</LongitudeDegrees>
            </Position>
            <AltitudeMeters>868.20001220703125</AltitudeMeters>
            <DistanceMeters>NAN</DistanceMeters>
          </Trackpoint>
          <Trackpoint>
            <Time>2019-08-01T16:57:20.000Z</Time>
            <Position>
              <LatitudeDegrees>40.5594515986740589141845703125</LatitudeDegrees>
              <LongitudeDegrees>-4.02181693352758884429931640625</LongitudeDegrees>
            </Position>
            <AltitudeMeters>868.20001220703125</AltitudeMeters>
            <DistanceMeters>NAN</DistanceMeters>
          </Trackpoint>
          <Trackpoint>
            <Time>2019-08-01T16:57:21.000Z</Time>
            <Position>
              <LatitudeDegrees>40.55934070609509944915771484375</LatitudeDegrees>
              <LongitudeDegrees>-4.0219950489699840545654296875</LongitudeDegrees>
            </Position>
            <AltitudeMeters>868</AltitudeMeters>
            <DistanceMeters>NAN</DistanceMeters>
          </Trackpoint>
          <Trackpoint>
            <Time>2019-08-01T16:57:22.000Z</Time>
            <Position>
              <LatitudeDegrees>40.55927700363099575042724609375</LatitudeDegrees>
              <LongitudeDegrees>-4.02207643724977970123291015625</LongitudeDegrees>
            </Position>
            <AltitudeMeters>867.79998779296875</AltitudeMeters>
            <DistanceMeters>NAN</DistanceMeters>
          </Trackpoint>
          <Trackpoint>
            <Time>2019-08-01T16:57:23.000Z</Time>
            <Position>
              <LatitudeDegrees>40.5592046678066253662109375</LatitudeDegrees>
              <LongitudeDegrees>-4.022147096693515777587890625</LongitudeDegrees>
            </Position>
            <AltitudeMeters>867.5999755859375</AltitudeMeters>
            <DistanceMeters>NAN</DistanceMeters>
          </Trackpoint>
          <Trackpoint>
            <Time>2019-08-01T16:57:24.000Z</Time>
            <Position>
              <LatitudeDegrees>40.55912294425070285797119140625</LatitudeDegrees>
              <LongitudeDegrees>-4.02220509946346282958984375</LongitudeDegrees>
            </Position>
            <AltitudeMeters>867</AltitudeMeters>
            <DistanceMeters>NAN</DistanceMeters>
          </Trackpoint>
          <Trackpoint>
            <Time>2019-08-01T16:57:25.000Z</Time>
            <Position>
              <LatitudeDegrees>40.55903493426740169525146484375</LatitudeDegrees>
              <LongitudeDegrees>-4.022253043949604034423828125</LongitudeDegrees>
            </Position>
            <AltitudeMeters>866.5999755859375</AltitudeMeters>
            <DistanceMeters>NAN</DistanceMeters>
          </Trackpoint>
          <Trackpoint>
            <Time>2019-08-01T16:57:26.000Z</Time>
            <Position>
              <LatitudeDegrees>40.55903493426740169525146484375</LatitudeDegrees>
              <LongitudeDegrees>-4.022253043949604034423828125</LongitudeDegrees>
            </Position>
            <AltitudeMeters>866.20001220703125</AltitudeMeters>
            <DistanceMeters>NAN</DistanceMeters>
          </Trackpoint>
          <Trackpoint>
            <Time>2019-08-01T16:57:27.000Z</Time>
            <Position>
              <LatitudeDegrees>40.558848939836025238037109375</LatitudeDegrees>
              <LongitudeDegrees>-4.02233795262873172760009765625</LongitudeDegrees>
            </Position>
            <AltitudeMeters>865.79998779296875</AltitudeMeters>
            <DistanceMeters>NAN</DistanceMeters>
          </Trackpoint>
          <Trackpoint>
            <Time>2019-08-01T16:57:28.000Z</Time>
            <Position>
              <LatitudeDegrees>40.55875296704471111297607421875</LatitudeDegrees>
              <LongitudeDegrees>-4.022380448877811431884765625</LongitudeDegrees>
            </Position>
            <AltitudeMeters>865</AltitudeMeters>
            <DistanceMeters>NAN</DistanceMeters>
          </Trackpoint>
          <Trackpoint>
            <Time>2019-08-01T16:57:29.000Z</Time>
            <Position>
              <LatitudeDegrees>40.55865523405373096466064453125</LatitudeDegrees>
              <LongitudeDegrees>-4.022422693669795989990234375</LongitudeDegrees>
            </Position>
            <AltitudeMeters>864.4000244140625</AltitudeMeters>
            <DistanceMeters>NAN</DistanceMeters>
          </Trackpoint>
          <Trackpoint>
            <Time>2019-08-01T16:57:30.000Z</Time>
            <Position>
              <LatitudeDegrees>40.55855582468211650848388671875</LatitudeDegrees>
              <LongitudeDegrees>-4.02246552519500255584716796875</LongitudeDegrees>
            </Position>
            <AltitudeMeters>864</AltitudeMeters>
            <DistanceMeters>NAN</DistanceMeters>
          </Trackpoint>
          <Trackpoint>
            <Time>2019-08-01T16:57:31.000Z</Time>
            <Position>
              <LatitudeDegrees>40.5584554933011531829833984375</LatitudeDegrees>
              <LongitudeDegrees>-4.02250994928181171417236328125</LongitudeDegrees>
            </Position>
            <AltitudeMeters>863.5999755859375</AltitudeMeters>
            <DistanceMeters>NAN</DistanceMeters>
          </Trackpoint>
          <Trackpoint>
            <Time>2019-08-01T16:57:32.000Z</Time>
            <Position>
              <LatitudeDegrees>40.558354072272777557373046875</LatitudeDegrees>
              <LongitudeDegrees>-4.02255521155893802642822265625</LongitudeDegrees>
            </Position>
            <AltitudeMeters>863</AltitudeMeters>
            <DistanceMeters>NAN</DistanceMeters>
          </Trackpoint>
          <Trackpoint>
            <Time>2019-08-01T16:57:33.000Z</Time>
            <Position>
              <LatitudeDegrees>40.55825172923505306243896484375</LatitudeDegrees>
              <LongitudeDegrees>-4.02260047383606433868408203125</LongitudeDegrees>
            </Position>
            <AltitudeMeters>862.20001220703125</AltitudeMeters>
            <DistanceMeters>NAN</DistanceMeters>
          </Trackpoint>
          <Trackpoint>
            <Time>2019-08-01T16:57:34.000Z</Time>
            <Position>
              <LatitudeDegrees>40.55814796127378940582275390625</LatitudeDegrees>
              <LongitudeDegrees>-4.0226468257606029510498046875</LongitudeDegrees>
            </Position>
            <AltitudeMeters>861.5999755859375</AltitudeMeters>
            <DistanceMeters>NAN</DistanceMeters>
          </Trackpoint>
          <Trackpoint>
            <Time>2019-08-01T16:57:35.000Z</Time>
            <Position>
              <LatitudeDegrees>40.55804285220801830291748046875</LatitudeDegrees>
              <LongitudeDegrees>-4.0226934291422367095947265625</LongitudeDegrees>
            </Position>
            <AltitudeMeters>860.5999755859375</AltitudeMeters>
            <DistanceMeters>NAN</DistanceMeters>
          </Trackpoint>
          <Trackpoint>
            <Time>2019-08-01T16:57:36.000Z</Time>
            <Position>
              <LatitudeDegrees>40.55793606676161289215087890625</LatitudeDegrees>
              <LongitudeDegrees>-4.022739864885807037353515625</LongitudeDegrees>
            </Position>
            <AltitudeMeters>859.5999755859375</AltitudeMeters>
            <DistanceMeters>NAN</DistanceMeters>
          </Trackpoint>
          <Trackpoint>
            <Time>2019-08-01T16:57:37.000Z</Time>
            <Position>
              <LatitudeDegrees>40.5578278563916683197021484375</LatitudeDegrees>
              <LongitudeDegrees>-4.02278713881969451904296875</LongitudeDegrees>
            </Position>
            <AltitudeMeters>858.79998779296875</AltitudeMeters>
            <DistanceMeters>NAN</DistanceMeters>
          </Trackpoint>
          <Trackpoint>
            <Time>2019-08-01T16:57:38.000Z</Time>
            <Position>
              <LatitudeDegrees>40.557718388736248016357421875</LatitudeDegrees>
              <LongitudeDegrees>-4.02283533476293087005615234375</LongitudeDegrees>
            </Position>
            <AltitudeMeters>858.20001220703125</AltitudeMeters>
            <DistanceMeters>NAN</DistanceMeters>
          </Trackpoint>
          <Trackpoint>
            <Time>2019-08-01T16:57:39.000Z</Time>
            <Position>
              <LatitudeDegrees>40.55760699324309825897216796875</LatitudeDegrees>
              <LongitudeDegrees>-4.0228830277919769287109375</LongitudeDegrees>
            </Position>
            <AltitudeMeters>857.5999755859375</AltitudeMeters>
            <DistanceMeters>NAN</DistanceMeters>
          </Trackpoint>
          <Trackpoint>
            <Time>2019-08-01T16:57:40.000Z</Time>
            <Position>
              <LatitudeDegrees>40.55749434046447277069091796875</LatitudeDegrees>
              <LongitudeDegrees>-4.022928960621356964111328125</LongitudeDegrees>
            </Position>
            <AltitudeMeters>856.79998779296875</AltitudeMeters>
            <DistanceMeters>NAN</DistanceMeters>
          </Trackpoint>
          <Trackpoint>
            <Time>2019-08-01T16:57:41.000Z</Time>
            <Position>
              <LatitudeDegrees>40.5573805980384349822998046875</LatitudeDegrees>
              <LongitudeDegrees>-4.02297363616526126861572265625</LongitudeDegrees>
            </Position>
            <AltitudeMeters>855.79998779296875</AltitudeMeters>
            <DistanceMeters>NAN</DistanceMeters>
          </Trackpoint>
          <Trackpoint>
            <Time>2019-08-01T16:57:42.000Z</Time>
            <Position>
              <LatitudeDegrees>40.55726735852658748626708984375</LatitudeDegrees>
              <LongitudeDegrees>-4.02302007190883159637451171875</LongitudeDegrees>
            </Position>
            <AltitudeMeters>855.20001220703125</AltitudeMeters>
            <DistanceMeters>NAN</DistanceMeters>
          </Trackpoint>
          <Trackpoint>
            <Time>2019-08-01T16:57:43.000Z</Time>
            <Position>
              <LatitudeDegrees>40.55715487338602542877197265625</LatitudeDegrees>
              <LongitudeDegrees>-4.0230709500610828399658203125</LongitudeDegrees>
            </Position>
            <AltitudeMeters>854.5999755859375</AltitudeMeters>
            <DistanceMeters>NAN</DistanceMeters>
          </Trackpoint>
          <Trackpoint>
            <Time>2019-08-01T16:57:44.000Z</Time>
            <Position>
              <LatitudeDegrees>40.55704222060739994049072265625</LatitudeDegrees>
              <LongitudeDegrees>-4.02312585152685642242431640625</LongitudeDegrees>
            </Position>
            <AltitudeMeters>854</AltitudeMeters>
            <DistanceMeters>NAN</DistanceMeters>
          </Trackpoint>
          <Trackpoint>
            <Time>2019-08-01T16:57:45.000Z</Time>
            <Position>
              <LatitudeDegrees>40.55693275295197963714599609375</LatitudeDegrees>
              <LongitudeDegrees>-4.0231916494667530059814453125</LongitudeDegrees>
            </Position>
            <AltitudeMeters>853.4000244140625</AltitudeMeters>
            <DistanceMeters>NAN</DistanceMeters>
          </Trackpoint>
          <Trackpoint>
            <Time>2019-08-01T16:57:46.000Z</Time>
            <Position>
              <LatitudeDegrees>40.55682663805782794952392578125</LatitudeDegrees>
              <LongitudeDegrees>-4.02327136136591434478759765625</LongitudeDegrees>
            </Position>
            <AltitudeMeters>852.79998779296875</AltitudeMeters>
            <DistanceMeters>NAN</DistanceMeters>
          </Trackpoint>
          <Trackpoint>
            <Time>2019-08-01T16:57:47.000Z</Time>
            <Position>
              <LatitudeDegrees>40.5567237921059131622314453125</LatitudeDegrees>
              <LongitudeDegrees>-4.02336138300597667694091796875</LongitudeDegrees>
            </Position>
            <AltitudeMeters>851.79998779296875</AltitudeMeters>
            <DistanceMeters>NAN</DistanceMeters>
          </Trackpoint>
          <Trackpoint>
            <Time>2019-08-01T16:57:48.000Z</Time>
            <Position>
              <LatitudeDegrees>40.5566258914768695831298828125</LatitudeDegrees>
              <LongitudeDegrees>-4.02346112765371799468994140625</LongitudeDegrees>
            </Position>
            <AltitudeMeters>851</AltitudeMeters>
            <DistanceMeters>NAN</DistanceMeters>
          </Trackpoint>
          <Trackpoint>
            <Time>2019-08-01T16:57:49.000Z</Time>
            <Position>
              <LatitudeDegrees>40.55653980933129787445068359375</LatitudeDegrees>
              <LongitudeDegrees>-4.02357780374586582183837890625</LongitudeDegrees>
            </Position>
            <AltitudeMeters>849.4000244140625</AltitudeMeters>
            <DistanceMeters>NAN</DistanceMeters>
          </Trackpoint>
          <Trackpoint>
            <Time>2019-08-01T16:57:50.000Z</Time>
            <Position>
              <LatitudeDegrees>40.55646688677370548248291015625</LatitudeDegrees>
              <LongitudeDegrees>-4.02371023781597614288330078125</LongitudeDegrees>
            </Position>
            <AltitudeMeters>848.4000244140625</AltitudeMeters>
            <DistanceMeters>NAN</DistanceMeters>
          </Trackpoint>
          <Trackpoint>
            <Time>2019-08-01T16:57:51.000Z</Time>
            <Position>
              <LatitudeDegrees>40.55639647878706455230712890625</LatitudeDegrees>
              <LongitudeDegrees>-4.0238459408283233642578125</LongitudeDegrees>
            </Position>
            <AltitudeMeters>847.20001220703125</AltitudeMeters>
            <DistanceMeters>NAN</DistanceMeters>
          </Trackpoint>
          <Trackpoint>
            <Time>2019-08-01T16:57:52.000Z</Time>
            <Position>
              <LatitudeDegrees>40.55632221512496471405029296875</LatitudeDegrees>
              <LongitudeDegrees>-4.02397896163165569305419921875</LongitudeDegrees>
            </Position>
            <AltitudeMeters>845</AltitudeMeters>
            <DistanceMeters>NAN</DistanceMeters>
          </Trackpoint>
          <Trackpoint>
            <Time>2019-08-01T16:57:53.000Z</Time>
            <Position>
              <LatitudeDegrees>40.55632221512496471405029296875</LatitudeDegrees>
              <LongitudeDegrees>-4.02397896163165569305419921875</LongitudeDegrees>
            </Position>
            <AltitudeMeters>844.20001220703125</AltitudeMeters>
            <DistanceMeters>NAN</DistanceMeters>
          </Trackpoint>
          <Trackpoint>
            <Time>2019-08-01T16:57:54.000Z</Time>
            <Position>
              <LatitudeDegrees>40.55616279132664203643798828125</LatitudeDegrees>
              <LongitudeDegrees>-4.0242343582212924957275390625</LongitudeDegrees>
            </Position>
            <AltitudeMeters>843.5999755859375</AltitudeMeters>
            <DistanceMeters>NAN</DistanceMeters>
          </Trackpoint>
          <Trackpoint>
            <Time>2019-08-01T16:57:55.000Z</Time>
            <Position>
              <LatitudeDegrees>40.556080229580402374267578125</LatitudeDegrees>
              <LongitudeDegrees>-4.02436084114015102386474609375</LongitudeDegrees>
            </Position>
            <AltitudeMeters>842.79998779296875</AltitudeMeters>
            <DistanceMeters>NAN</DistanceMeters>
          </Trackpoint>
          <Trackpoint>
            <Time>2019-08-01T16:57:56.000Z</Time>
            <Position>
              <LatitudeDegrees>40.55599599145352840423583984375</LatitudeDegrees>
              <LongitudeDegrees>-4.0244801156222820281982421875</LongitudeDegrees>
            </Position>
            <AltitudeMeters>841.79998779296875</AltitudeMeters>
            <DistanceMeters>NAN</DistanceMeters>
          </Trackpoint>
          <Trackpoint>
            <Time>2019-08-01T16:57:57.000Z</Time>
            <Position>
              <LatitudeDegrees>40.55590647272765636444091796875</LatitudeDegrees>
              <LongitudeDegrees>-4.024587571620941162109375</LongitudeDegrees>
            </Position>
            <AltitudeMeters>840.20001220703125</AltitudeMeters>
            <DistanceMeters>NAN</DistanceMeters>
          </Trackpoint>
          <Trackpoint>
            <Time>2019-08-01T16:57:58.000Z</Time>
            <Position>
              <LatitudeDegrees>40.55581259541213512420654296875</LatitudeDegrees>
              <LongitudeDegrees>-4.02468237094581127166748046875</LongitudeDegrees>
            </Position>
            <AltitudeMeters>839</AltitudeMeters>
            <DistanceMeters>NAN</DistanceMeters>
          </Trackpoint>
          <Trackpoint>
            <Time>2019-08-01T16:57:59.000Z</Time>
            <Position>
              <LatitudeDegrees>40.55571570061147212982177734375</LatitudeDegrees>
              <LongitudeDegrees>-4.0247640945017337799072265625</LongitudeDegrees>
            </Position>
            <AltitudeMeters>837.79998779296875</AltitudeMeters>
            <DistanceMeters>NAN</DistanceMeters>
          </Trackpoint>
          <Trackpoint>
            <Time>2019-08-01T16:58:00.000Z</Time>
            <Position>
              <LatitudeDegrees>40.55561930872499942779541015625</LatitudeDegrees>
              <LongitudeDegrees>-4.0248381905257701873779296875</LongitudeDegrees>
            </Position>
            <AltitudeMeters>837.20001220703125</AltitudeMeters>
            <DistanceMeters>NAN</DistanceMeters>
          </Trackpoint>
          <Trackpoint>
            <Time>2019-08-01T16:58:01.000Z</Time>
            <Position>
              <LatitudeDegrees>40.555524341762065887451171875</LatitudeDegrees>
              <LongitudeDegrees>-4.02490583248436450958251953125</LongitudeDegrees>
            </Position>
            <AltitudeMeters>836.79998779296875</AltitudeMeters>
            <DistanceMeters>NAN</DistanceMeters>
          </Trackpoint>
          <Trackpoint>
            <Time>2019-08-01T16:58:02.000Z</Time>
            <Position>
              <LatitudeDegrees>40.55543239228427410125732421875</LatitudeDegrees>
              <LongitudeDegrees>-4.02497272007167339324951171875</LongitudeDegrees>
            </Position>
            <AltitudeMeters>836.5999755859375</AltitudeMeters>
            <DistanceMeters>NAN</DistanceMeters>
          </Trackpoint>
          <Trackpoint>
            <Time>2019-08-01T16:58:03.000Z</Time>
            <Position>
              <LatitudeDegrees>40.55534429848194122314453125</LatitudeDegrees>
              <LongitudeDegrees>-4.0250373445451259613037109375</LongitudeDegrees>
            </Position>
            <AltitudeMeters>836.20001220703125</AltitudeMeters>
            <DistanceMeters>NAN</DistanceMeters>
          </Trackpoint>
          <Trackpoint>
            <Time>2019-08-01T16:58:04.000Z</Time>
            <Position>
              <LatitudeDegrees>40.55525846779346466064453125</LatitudeDegrees>
              <LongitudeDegrees>-4.02510012499988079071044921875</LongitudeDegrees>
            </Position>
            <AltitudeMeters>836</AltitudeMeters>
            <DistanceMeters>NAN</DistanceMeters>
          </Trackpoint>
          <Trackpoint>
            <Time>2019-08-01T16:58:05.000Z</Time>
            <Position>
              <LatitudeDegrees>40.55517657659947872161865234375</LatitudeDegrees>
              <LongitudeDegrees>-4.025165252387523651123046875</LongitudeDegrees>
            </Position>
            <AltitudeMeters>836</AltitudeMeters>
            <DistanceMeters>NAN</DistanceMeters>
          </Trackpoint>
          <Trackpoint>
            <Time>2019-08-01T16:58:06.000Z</Time>
            <Position>
              <LatitudeDegrees>40.55509845726191997528076171875</LatitudeDegrees>
              <LongitudeDegrees>-4.02523322962224483489990234375</LongitudeDegrees>
            </Position>
            <AltitudeMeters>835.79998779296875</AltitudeMeters>
            <DistanceMeters>NAN</DistanceMeters>
          </Trackpoint>
          <Trackpoint>
            <Time>2019-08-01T16:58:07.000Z</Time>
            <Position>
              <LatitudeDegrees>40.55503022857010364532470703125</LatitudeDegrees>
              <LongitudeDegrees>-4.02530841529369354248046875</LongitudeDegrees>
            </Position>
            <AltitudeMeters>835.79998779296875</AltitudeMeters>
            <DistanceMeters>NAN</DistanceMeters>
          </Trackpoint>
          <Trackpoint>
            <Time>2019-08-01T16:58:08.000Z</Time>
            <Position>
              <LatitudeDegrees>40.554971136152744293212890625</LatitudeDegrees>
              <LongitudeDegrees>-4.02538930065929889678955078125</LongitudeDegrees>
            </Position>
            <AltitudeMeters>835.79998779296875</AltitudeMeters>
            <DistanceMeters>NAN</DistanceMeters>
          </Trackpoint>
          <Trackpoint>
            <Time>2019-08-01T16:58:09.000Z</Time>
            <Position>
              <LatitudeDegrees>40.55492143146693706512451171875</LatitudeDegrees>
              <LongitudeDegrees>-4.02547328732907772064208984375</LongitudeDegrees>
            </Position>
            <AltitudeMeters>835.79998779296875</AltitudeMeters>
            <DistanceMeters>NAN</DistanceMeters>
          </Trackpoint>
          <Trackpoint>
            <Time>2019-08-01T16:58:10.000Z</Time>
            <Position>
              <LatitudeDegrees>40.55487851612269878387451171875</LatitudeDegrees>
              <LongitudeDegrees>-4.0255563519895076751708984375</LongitudeDegrees>
            </Position>
            <AltitudeMeters>835.79998779296875</AltitudeMeters>
            <DistanceMeters>NAN</DistanceMeters>
          </Trackpoint>
          <Trackpoint>
            <Time>2019-08-01T16:58:11.000Z</Time>
            <Position>
              <LatitudeDegrees>40.5548393726348876953125</LatitudeDegrees>
              <LongitudeDegrees>-4.025637991726398468017578125</LongitudeDegrees>
            </Position>
            <AltitudeMeters>835.79998779296875</AltitudeMeters>
            <DistanceMeters>NAN</DistanceMeters>
          </Trackpoint>
          <Trackpoint>
            <Time>2019-08-01T16:58:12.000Z</Time>
            <Position>
              <LatitudeDegrees>40.55480123497545719146728515625</LatitudeDegrees>
              <LongitudeDegrees>-4.0257166139781475067138671875</LongitudeDegrees>
            </Position>
            <AltitudeMeters>835.79998779296875</AltitudeMeters>
            <DistanceMeters>NAN</DistanceMeters>
          </Trackpoint>
          <Trackpoint>
            <Time>2019-08-01T16:58:13.000Z</Time>
            <Position>
              <LatitudeDegrees>40.5547651089727878570556640625</LatitudeDegrees>
              <LongitudeDegrees>-4.02579213492572307586669921875</LongitudeDegrees>
            </Position>
            <AltitudeMeters>836</AltitudeMeters>
            <DistanceMeters>NAN</DistanceMeters>
          </Trackpoint>
          <Trackpoint>
            <Time>2019-08-01T16:58:14.000Z</Time>
            <Position>
              <LatitudeDegrees>40.55473216809332370758056640625</LatitudeDegrees>
              <LongitudeDegrees>-4.02586522512137889862060546875</LongitudeDegrees>
            </Position>
            <AltitudeMeters>836.20001220703125</AltitudeMeters>
            <DistanceMeters>NAN</DistanceMeters>
          </Trackpoint>
          <Trackpoint>
            <Time>2019-08-01T16:58:15.000Z</Time>
            <Position>
              <LatitudeDegrees>40.55470325052738189697265625</LatitudeDegrees>
              <LongitudeDegrees>-4.02593739330768585205078125</LongitudeDegrees>
            </Position>
            <AltitudeMeters>836.4000244140625</AltitudeMeters>
            <DistanceMeters>NAN</DistanceMeters>
          </Trackpoint>
          <Trackpoint>
            <Time>2019-08-01T16:58:16.000Z</Time>
            <Position>
              <LatitudeDegrees>40.5546749196946620941162109375</LatitudeDegrees>
              <LongitudeDegrees>-4.02600444853305816650390625</LongitudeDegrees>
            </Position>
            <AltitudeMeters>836.5999755859375</AltitudeMeters>
            <DistanceMeters>NAN</DistanceMeters>
          </Trackpoint>
          <Trackpoint>
            <Time>2019-08-01T16:58:17.000Z</Time>
            <Position>
              <LatitudeDegrees>40.55464734323322772979736328125</LatitudeDegrees>
              <LongitudeDegrees>-4.0260673128068447113037109375</LongitudeDegrees>
            </Position>
            <AltitudeMeters>838</AltitudeMeters>
            <DistanceMeters>NAN</DistanceMeters>
          </Trackpoint>
          <Trackpoint>
            <Time>2019-08-01T16:58:18.000Z</Time>
            <Position>
              <LatitudeDegrees>40.5546229518949985504150390625</LatitudeDegrees>
              <LongitudeDegrees>-4.0261311829090118408203125</LongitudeDegrees>
            </Position>
            <AltitudeMeters>839.4000244140625</AltitudeMeters>
            <DistanceMeters>NAN</DistanceMeters>
          </Trackpoint>
          <Trackpoint>
            <Time>2019-08-01T16:58:19.000Z</Time>
            <Position>
              <LatitudeDegrees>40.5545954592525959014892578125</LatitudeDegrees>
              <LongitudeDegrees>-4.02619346044957637786865234375</LongitudeDegrees>
            </Position>
            <AltitudeMeters>841.20001220703125</AltitudeMeters>
            <DistanceMeters>NAN</DistanceMeters>
          </Trackpoint>
          <Trackpoint>
            <Time>2019-08-01T16:58:20.000Z</Time>
            <Position>
              <LatitudeDegrees>40.55456754751503467559814453125</LatitudeDegrees>
              <LongitudeDegrees>-4.0262560732662677764892578125</LongitudeDegrees>
            </Position>
            <AltitudeMeters>841.79998779296875</AltitudeMeters>
            <DistanceMeters>NAN</DistanceMeters>
          </Trackpoint>
          <Trackpoint>
            <Time>2019-08-01T16:58:21.000Z</Time>
            <Position>
              <LatitudeDegrees>40.5545401386916637420654296875</LatitudeDegrees>
              <LongitudeDegrees>-4.02631969191133975982666015625</LongitudeDegrees>
            </Position>
            <AltitudeMeters>842.20001220703125</AltitudeMeters>
            <DistanceMeters>NAN</DistanceMeters>
          </Trackpoint>
          <Trackpoint>
            <Time>2019-08-01T16:58:22.000Z</Time>
            <Position>
              <LatitudeDegrees>40.55451189167797565460205078125</LatitudeDegrees>
              <LongitudeDegrees>-4.02638398110866546630859375</LongitudeDegrees>
            </Position>
            <AltitudeMeters>842.5999755859375</AltitudeMeters>
            <DistanceMeters>NAN</DistanceMeters>
          </Trackpoint>
          <Trackpoint>
            <Time>2019-08-01T16:58:23.000Z</Time>
            <Position>
              <LatitudeDegrees>40.5544834770262241363525390625</LatitudeDegrees>
              <LongitudeDegrees>-4.0264525450766086578369140625</LongitudeDegrees>
            </Position>
            <AltitudeMeters>842.79998779296875</AltitudeMeters>
            <DistanceMeters>NAN</DistanceMeters>
          </Trackpoint>
          <Trackpoint>
            <Time>2019-08-01T16:58:24.000Z</Time>
            <Position>
              <LatitudeDegrees>40.554453469812870025634765625</LatitudeDegrees>
              <LongitudeDegrees>-4.02652337215840816497802734375</LongitudeDegrees>
            </Position>
            <AltitudeMeters>843.20001220703125</AltitudeMeters>
            <DistanceMeters>NAN</DistanceMeters>
          </Trackpoint>
          <Trackpoint>
            <Time>2019-08-01T16:58:25.000Z</Time>
            <Position>
              <LatitudeDegrees>40.55442295968532562255859375</LatitudeDegrees>
              <LongitudeDegrees>-4.02659428305923938751220703125</LongitudeDegrees>
            </Position>
            <AltitudeMeters>844</AltitudeMeters>
            <DistanceMeters>NAN</DistanceMeters>
          </Trackpoint>
          <Trackpoint>
            <Time>2019-08-01T16:58:26.000Z</Time>
            <Position>
              <LatitudeDegrees>40.55439353920519351959228515625</LatitudeDegrees>
              <LongitudeDegrees>-4.026664607226848602294921875</LongitudeDegrees>
            </Position>
            <AltitudeMeters>844.5999755859375</AltitudeMeters>
            <DistanceMeters>NAN</DistanceMeters>
          </Trackpoint>
          <Trackpoint>
            <Time>2019-08-01T16:58:27.000Z</Time>
            <Position>
              <LatitudeDegrees>40.55436738766729831695556640625</LatitudeDegrees>
              <LongitudeDegrees>-4.02672789059579372406005859375</LongitudeDegrees>
            </Position>
            <AltitudeMeters>845</AltitudeMeters>
            <DistanceMeters>NAN</DistanceMeters>
          </Trackpoint>
          <Trackpoint>
            <Time>2019-08-01T16:58:28.000Z</Time>
            <Position>
              <LatitudeDegrees>40.554343163967132568359375</LatitudeDegrees>
              <LongitudeDegrees>-4.0267871506512165069580078125</LongitudeDegrees>
            </Position>
            <AltitudeMeters>845.4000244140625</AltitudeMeters>
            <DistanceMeters>NAN</DistanceMeters>
          </Trackpoint>
          <Trackpoint>
            <Time>2019-08-01T16:58:29.000Z</Time>
            <Position>
              <LatitudeDegrees>40.5543191917240619659423828125</LatitudeDegrees>
              <LongitudeDegrees>-4.0268454886972904205322265625</LongitudeDegrees>
            </Position>
            <AltitudeMeters>845.79998779296875</AltitudeMeters>
            <DistanceMeters>NAN</DistanceMeters>
          </Trackpoint>
          <Trackpoint>
            <Time>2019-08-01T16:58:30.000Z</Time>
            <Position>
              <LatitudeDegrees>40.55429312400519847869873046875</LatitudeDegrees>
              <LongitudeDegrees>-4.02689971961081027984619140625</LongitudeDegrees>
            </Position>
            <AltitudeMeters>846</AltitudeMeters>
            <DistanceMeters>NAN</DistanceMeters>
          </Trackpoint>
          <Trackpoint>
            <Time>2019-08-01T16:58:31.000Z</Time>
            <Position>
              <LatitudeDegrees>40.55426831357181072235107421875</LatitudeDegrees>
              <LongitudeDegrees>-4.02695487253367900848388671875</LongitudeDegrees>
            </Position>
            <AltitudeMeters>846.4000244140625</AltitudeMeters>
            <DistanceMeters>NAN</DistanceMeters>
          </Trackpoint>
          <Trackpoint>
            <Time>2019-08-01T16:58:32.000Z</Time>
            <Position>
              <LatitudeDegrees>40.55424300022423267364501953125</LatitudeDegrees>
              <LongitudeDegrees>-4.02701270766556262969970703125</LongitudeDegrees>
            </Position>
            <AltitudeMeters>846.5999755859375</AltitudeMeters>
            <DistanceMeters>NAN</DistanceMeters>
          </Trackpoint>
          <Trackpoint>
            <Time>2019-08-01T16:58:33.000Z</Time>
            <Position>
              <LatitudeDegrees>40.55421617813408374786376953125</LatitudeDegrees>
              <LongitudeDegrees>-4.027071297168731689453125</LongitudeDegrees>
            </Position>
            <AltitudeMeters>847</AltitudeMeters>
            <DistanceMeters>NAN</DistanceMeters>
          </Trackpoint>
          <Trackpoint>
            <Time>2019-08-01T16:58:34.000Z</Time>
            <Position>
              <LatitudeDegrees>40.5541880987584590911865234375</LatitudeDegrees>
              <LongitudeDegrees>-4.0271314792335033416748046875</LongitudeDegrees>
            </Position>
            <AltitudeMeters>847</AltitudeMeters>
            <DistanceMeters>NAN</DistanceMeters>
          </Trackpoint>
          <Trackpoint>
            <Time>2019-08-01T16:58:35.000Z</Time>
            <Position>
              <LatitudeDegrees>40.554160438477993011474609375</LatitudeDegrees>
              <LongitudeDegrees>-4.02719392441213130950927734375</LongitudeDegrees>
            </Position>
            <AltitudeMeters>847.20001220703125</AltitudeMeters>
            <DistanceMeters>NAN</DistanceMeters>
          </Trackpoint>
          <Trackpoint>
            <Time>2019-08-01T16:58:36.000Z</Time>
            <Position>
              <LatitudeDegrees>40.5541314370930194854736328125</LatitudeDegrees>
              <LongitudeDegrees>-4.02725611813366413116455078125</LongitudeDegrees>
            </Position>
            <AltitudeMeters>847.20001220703125</AltitudeMeters>
            <DistanceMeters>NAN</DistanceMeters>
          </Trackpoint>
          <Trackpoint>
            <Time>2019-08-01T16:58:37.000Z</Time>
            <Position>
              <LatitudeDegrees>40.554101765155792236328125</LatitudeDegrees>
              <LongitudeDegrees>-4.02731713838875293731689453125</LongitudeDegrees>
            </Position>
            <AltitudeMeters>847.4000244140625</AltitudeMeters>
            <DistanceMeters>NAN</DistanceMeters>
          </Trackpoint>
          <Trackpoint>
            <Time>2019-08-01T16:58:38.000Z</Time>
            <Position>
              <LatitudeDegrees>40.55407435633242130279541015625</LatitudeDegrees>
              <LongitudeDegrees>-4.02738151140511035919189453125</LongitudeDegrees>
            </Position>
            <AltitudeMeters>847.4000244140625</AltitudeMeters>
            <DistanceMeters>NAN</DistanceMeters>
          </Trackpoint>
          <Trackpoint>
            <Time>2019-08-01T16:58:39.000Z</Time>
            <Position>
              <LatitudeDegrees>40.554047785699367523193359375</LatitudeDegrees>
              <LongitudeDegrees>-4.02744957245886325836181640625</LongitudeDegrees>
            </Position>
            <AltitudeMeters>847.5999755859375</AltitudeMeters>
            <DistanceMeters>NAN</DistanceMeters>
          </Trackpoint>
          <Trackpoint>
            <Time>2019-08-01T16:58:40.000Z</Time>
            <Position>
              <LatitudeDegrees>40.55401786230504512786865234375</LatitudeDegrees>
              <LongitudeDegrees>-4.02751578949391841888427734375</LongitudeDegrees>
            </Position>
            <AltitudeMeters>847.79998779296875</AltitudeMeters>
            <DistanceMeters>NAN</DistanceMeters>
          </Trackpoint>
          <Trackpoint>
            <Time>2019-08-01T16:58:41.000Z</Time>
            <Position>
              <LatitudeDegrees>40.5539855919778347015380859375</LatitudeDegrees>
              <LongitudeDegrees>-4.027579911053180694580078125</LongitudeDegrees>
            </Position>
            <AltitudeMeters>847.79998779296875</AltitudeMeters>
            <DistanceMeters>NAN</DistanceMeters>
          </Trackpoint>
          <Trackpoint>
            <Time>2019-08-01T16:58:42.000Z</Time>
            <Position>
              <LatitudeDegrees>40.55395499803125858306884765625</LatitudeDegrees>
              <LongitudeDegrees>-4.02764461934566497802734375</LongitudeDegrees>
            </Position>
            <AltitudeMeters>848</AltitudeMeters>
            <DistanceMeters>NAN</DistanceMeters>
          </Trackpoint>
          <Trackpoint>
            <Time>2019-08-01T16:58:43.000Z</Time>
            <Position>
              <LatitudeDegrees>40.5539249069988727569580078125</LatitudeDegrees>
              <LongitudeDegrees>-4.02771008200943470001220703125</LongitudeDegrees>
            </Position>
            <AltitudeMeters>848</AltitudeMeters>
            <DistanceMeters>NAN</DistanceMeters>
          </Trackpoint>
          <Trackpoint>
            <Time>2019-08-01T16:58:44.000Z</Time>
            <Position>
              <LatitudeDegrees>40.55389179848134517669677734375</LatitudeDegrees>
              <LongitudeDegrees>-4.0277726948261260986328125</LongitudeDegrees>
            </Position>
            <AltitudeMeters>848</AltitudeMeters>
            <DistanceMeters>NAN</DistanceMeters>
          </Trackpoint>
          <Trackpoint>
            <Time>2019-08-01T16:58:45.000Z</Time>
            <Position>
              <LatitudeDegrees>40.55385491810739040374755859375</LatitudeDegrees>
              <LongitudeDegrees>-4.02783044613897800445556640625</LongitudeDegrees>
            </Position>
            <AltitudeMeters>848</AltitudeMeters>
            <DistanceMeters>NAN</DistanceMeters>
          </Trackpoint>
          <Trackpoint>
            <Time>2019-08-01T16:58:46.000Z</Time>
            <Position>
              <LatitudeDegrees>40.55381384678184986114501953125</LatitudeDegrees>
              <LongitudeDegrees>-4.02788274921476840972900390625</LongitudeDegrees>
            </Position>
            <AltitudeMeters>848</AltitudeMeters>
            <DistanceMeters>NAN</DistanceMeters>
          </Trackpoint>
          <Trackpoint>
            <Time>2019-08-01T16:58:47.000Z</Time>
            <Position>
              <LatitudeDegrees>40.55376925505697727203369140625</LatitudeDegrees>
              <LongitudeDegrees>-4.027929939329624176025390625</LongitudeDegrees>
            </Position>
            <AltitudeMeters>848</AltitudeMeters>
            <DistanceMeters>NAN</DistanceMeters>
          </Trackpoint>
          <Trackpoint>
            <Time>2019-08-01T16:58:48.000Z</Time>
            <Position>
              <LatitudeDegrees>40.553721897304058074951171875</LatitudeDegrees>
              <LongitudeDegrees>-4.02797226794064044952392578125</LongitudeDegrees>
            </Position>
            <AltitudeMeters>848</AltitudeMeters>
            <DistanceMeters>NAN</DistanceMeters>
          </Trackpoint>
          <Trackpoint>
            <Time>2019-08-01T16:58:49.000Z</Time>
            <Position>
              <LatitudeDegrees>40.55367068387567996978759765625</LatitudeDegrees>
              <LongitudeDegrees>-4.02801115997135639190673828125</LongitudeDegrees>
            </Position>
            <AltitudeMeters>848</AltitudeMeters>
            <DistanceMeters>NAN</DistanceMeters>
          </Trackpoint>
          <Trackpoint>
            <Time>2019-08-01T16:58:50.000Z</Time>
            <Position>
              <LatitudeDegrees>40.55361519567668437957763671875</LatitudeDegrees>
              <LongitudeDegrees>-4.02804653160274028778076171875</LongitudeDegrees>
            </Position>
            <AltitudeMeters>848</AltitudeMeters>
            <DistanceMeters>NAN</DistanceMeters>
          </Trackpoint>
          <Trackpoint>
            <Time>2019-08-01T16:58:51.000Z</Time>
            <Position>
              <LatitudeDegrees>40.55355618707835674285888671875</LatitudeDegrees>
              <LongitudeDegrees>-4.0280784666538238525390625</LongitudeDegrees>
            </Position>
            <AltitudeMeters>847.79998779296875</AltitudeMeters>
            <DistanceMeters>NAN</DistanceMeters>
          </Trackpoint>
          <Trackpoint>
            <Time>2019-08-01T16:58:52.000Z</Time>
            <Position>
              <LatitudeDegrees>40.55349349044263362884521484375</LatitudeDegrees>
              <LongitudeDegrees>-4.028109647333621978759765625</LongitudeDegrees>
            </Position>
            <AltitudeMeters>847.79998779296875</AltitudeMeters>
            <DistanceMeters>NAN</DistanceMeters>
          </Trackpoint>
          <Trackpoint>
            <Time>2019-08-01T16:58:54.000Z</Time>
            <Position>
              <LatitudeDegrees>40.553362481296062469482421875</LatitudeDegrees>
              <LongitudeDegrees>-4.028170667588710784912109375</LongitudeDegrees>
            </Position>
            <AltitudeMeters>847.5999755859375</AltitudeMeters>
            <DistanceMeters>NAN</DistanceMeters>
          </Trackpoint>
          <Trackpoint>
            <Time>2019-08-01T16:58:55.000Z</Time>
            <Position>
              <LatitudeDegrees>40.55329601280391216278076171875</LatitudeDegrees>
              <LongitudeDegrees>-4.02820117771625518798828125</LongitudeDegrees>
            </Position>
            <AltitudeMeters>847.5999755859375</AltitudeMeters>
            <DistanceMeters>NAN</DistanceMeters>
          </Trackpoint>
          <Trackpoint>
            <Time>2019-08-01T16:58:56.000Z</Time>
            <Position>
              <LatitudeDegrees>40.55322878994047641754150390625</LatitudeDegrees>
              <LongitudeDegrees>-4.028231017291545867919921875</LongitudeDegrees>
            </Position>
            <AltitudeMeters>847.4000244140625</AltitudeMeters>
            <DistanceMeters>NAN</DistanceMeters>
          </Trackpoint>
          <Trackpoint>
            <Time>2019-08-01T16:58:57.000Z</Time>
            <Position>
              <LatitudeDegrees>40.55316139943897724151611328125</LatitudeDegrees>
              <LongitudeDegrees>-4.0282580070197582244873046875</LongitudeDegrees>
            </Position>
            <AltitudeMeters>847</AltitudeMeters>
            <DistanceMeters>NAN</DistanceMeters>
          </Trackpoint>
          <Trackpoint>
            <Time>2019-08-01T16:58:58.000Z</Time>
            <Position>
              <LatitudeDegrees>40.5530930869281291961669921875</LatitudeDegrees>
              <LongitudeDegrees>-4.0282824821770191192626953125</LongitudeDegrees>
            </Position>
            <AltitudeMeters>846.5999755859375</AltitudeMeters>
            <DistanceMeters>NAN</DistanceMeters>
          </Trackpoint>
          <Trackpoint>
            <Time>2019-08-01T16:59:00.000Z</Time>
            <Position>
              <LatitudeDegrees>40.55295453406870365142822265625</LatitudeDegrees>
              <LongitudeDegrees>-4.02832061983644962310791015625</LongitudeDegrees>
            </Position>
            <AltitudeMeters>846</AltitudeMeters>
            <DistanceMeters>NAN</DistanceMeters>
          </Trackpoint>
          <Trackpoint>
            <Time>2019-08-01T16:59:01.000Z</Time>
            <Position>
              <LatitudeDegrees>40.55288446135818958282470703125</LatitudeDegrees>
              <LongitudeDegrees>-4.02833126485347747802734375</LongitudeDegrees>
            </Position>
            <AltitudeMeters>846</AltitudeMeters>
            <DistanceMeters>NAN</DistanceMeters>
          </Trackpoint>
          <Trackpoint>
            <Time>2019-08-01T16:59:02.000Z</Time>
            <Position>
              <LatitudeDegrees>40.55281388573348522186279296875</LatitudeDegrees>
              <LongitudeDegrees>-4.028338305652141571044921875</LongitudeDegrees>
            </Position>
            <AltitudeMeters>845.5999755859375</AltitudeMeters>
            <DistanceMeters>NAN</DistanceMeters>
          </Trackpoint>
          <Trackpoint>
            <Time>2019-08-01T16:59:03.000Z</Time>
            <Position>
              <LatitudeDegrees>40.5527430586516857147216796875</LatitudeDegrees>
              <LongitudeDegrees>-4.02834274806082248687744140625</LongitudeDegrees>
            </Position>
            <AltitudeMeters>845.20001220703125</AltitudeMeters>
            <DistanceMeters>NAN</DistanceMeters>
          </Trackpoint>
          <Trackpoint>
            <Time>2019-08-01T16:59:04.000Z</Time>
            <Position>
              <LatitudeDegrees>40.5526708066463470458984375</LatitudeDegrees>
              <LongitudeDegrees>-4.02834593318402767181396484375</LongitudeDegrees>
            </Position>
            <AltitudeMeters>844.4000244140625</AltitudeMeters>
            <DistanceMeters>NAN</DistanceMeters>
          </Trackpoint>
          <Trackpoint>
            <Time>2019-08-01T16:59:05.000Z</Time>
            <Position>
              <LatitudeDegrees>40.55259796790778636932373046875</LatitudeDegrees>
              <LongitudeDegrees>-4.02835079468786716461181640625</LongitudeDegrees>
            </Position>
            <AltitudeMeters>844</AltitudeMeters>
            <DistanceMeters>NAN</DistanceMeters>
          </Trackpoint>
          <Trackpoint>
            <Time>2019-08-01T16:59:06.000Z</Time>
            <Position>
              <LatitudeDegrees>40.552524961531162261962890625</LatitudeDegrees>
              <LongitudeDegrees>-4.02835808694362640380859375</LongitudeDegrees>
            </Position>
            <AltitudeMeters>843.5999755859375</AltitudeMeters>
            <DistanceMeters>NAN</DistanceMeters>
          </Trackpoint>
          <Trackpoint>
            <Time>2019-08-01T16:59:07.000Z</Time>
            <Position>
              <LatitudeDegrees>40.55245220661163330078125</LatitudeDegrees>
              <LongitudeDegrees>-4.0283689834177494049072265625</LongitudeDegrees>
            </Position>
            <AltitudeMeters>843.4000244140625</AltitudeMeters>
            <DistanceMeters>NAN</DistanceMeters>
          </Trackpoint>
          <Trackpoint>
            <Time>2019-08-01T16:59:08.000Z</Time>
            <Position>
              <LatitudeDegrees>40.5523802898824214935302734375</LatitudeDegrees>
              <LongitudeDegrees>-4.02838365174829959869384765625</LongitudeDegrees>
            </Position>
            <AltitudeMeters>843.4000244140625</AltitudeMeters>
            <DistanceMeters>NAN</DistanceMeters>
          </Trackpoint>
          <Trackpoint>
            <Time>2019-08-01T16:59:09.000Z</Time>
            <Position>
              <LatitudeDegrees>40.552309714257717132568359375</LatitudeDegrees>
              <LongitudeDegrees>-4.02840360067784786224365234375</LongitudeDegrees>
            </Position>
            <AltitudeMeters>843.20001220703125</AltitudeMeters>
            <DistanceMeters>NAN</DistanceMeters>
          </Trackpoint>
          <Trackpoint>
            <Time>2019-08-01T16:59:10.000Z</Time>
            <Position>
              <LatitudeDegrees>40.5522404797375202178955078125</LatitudeDegrees>
              <LongitudeDegrees>-4.02842916548252105712890625</LongitudeDegrees>
            </Position>
            <AltitudeMeters>843</AltitudeMeters>
            <DistanceMeters>NAN</DistanceMeters>
          </Trackpoint>
          <Trackpoint>
            <Time>2019-08-01T16:59:11.000Z</Time>
            <Position>
              <LatitudeDegrees>40.552172921597957611083984375</LatitudeDegrees>
              <LongitudeDegrees>-4.02845925651490688323974609375</LongitudeDegrees>
            </Position>
            <AltitudeMeters>843</AltitudeMeters>
            <DistanceMeters>NAN</DistanceMeters>
          </Trackpoint>
          <Trackpoint>
            <Time>2019-08-01T16:59:12.000Z</Time>
            <Position>
              <LatitudeDegrees>40.55210812948644161224365234375</LatitudeDegrees>
              <LongitudeDegrees>-4.02849345467984676361083984375</LongitudeDegrees>
            </Position>
            <AltitudeMeters>843</AltitudeMeters>
            <DistanceMeters>NAN</DistanceMeters>
          </Trackpoint>
          <Trackpoint>
            <Time>2019-08-01T16:59:13.000Z</Time>
            <Position>
              <LatitudeDegrees>40.5520456843078136444091796875</LatitudeDegrees>
              <LongitudeDegrees>-4.02852999977767467498779296875</LongitudeDegrees>
            </Position>
            <AltitudeMeters>843</AltitudeMeters>
            <DistanceMeters>NAN</DistanceMeters>
          </Trackpoint>
          <Trackpoint>
            <Time>2019-08-01T16:59:14.000Z</Time>
            <Position>
              <LatitudeDegrees>40.55198541842401027679443359375</LatitudeDegrees>
              <LongitudeDegrees>-4.0285657905042171478271484375</LongitudeDegrees>
            </Position>
            <AltitudeMeters>843</AltitudeMeters>
            <DistanceMeters>NAN</DistanceMeters>
          </Trackpoint>
          <Trackpoint>
            <Time>2019-08-01T16:59:15.000Z</Time>
            <Position>
              <LatitudeDegrees>40.551926828920841217041015625</LatitudeDegrees>
              <LongitudeDegrees>-4.0286009944975376129150390625</LongitudeDegrees>
            </Position>
            <AltitudeMeters>842.79998779296875</AltitudeMeters>
            <DistanceMeters>NAN</DistanceMeters>
          </Trackpoint>
          <Trackpoint>
            <Time>2019-08-01T16:59:16.000Z</Time>
            <Position>
              <LatitudeDegrees>40.55186949670314788818359375</LatitudeDegrees>
              <LongitudeDegrees>-4.02863494120538234710693359375</LongitudeDegrees>
            </Position>
            <AltitudeMeters>843</AltitudeMeters>
            <DistanceMeters>NAN</DistanceMeters>
          </Trackpoint>
          <Trackpoint>
            <Time>2019-08-01T16:59:17.000Z</Time>
            <Position>
              <LatitudeDegrees>40.5518156848847866058349609375</LatitudeDegrees>
              <LongitudeDegrees>-4.02866645716130733489990234375</LongitudeDegrees>
            </Position>
            <AltitudeMeters>843</AltitudeMeters>
            <DistanceMeters>NAN</DistanceMeters>
          </Trackpoint>
          <Trackpoint>
            <Time>2019-08-01T16:59:18.000Z</Time>
            <Position>
              <LatitudeDegrees>40.5517623759806156158447265625</LatitudeDegrees>
              <LongitudeDegrees>-4.02869797311723232269287109375</LongitudeDegrees>
            </Position>
            <AltitudeMeters>843</AltitudeMeters>
            <DistanceMeters>NAN</DistanceMeters>
          </Trackpoint>
          <Trackpoint>
            <Time>2019-08-01T16:59:19.000Z</Time>
            <Position>
              <LatitudeDegrees>40.5517073906958103179931640625</LatitudeDegrees>
              <LongitudeDegrees>-4.02873066253960132598876953125</LongitudeDegrees>
            </Position>
            <AltitudeMeters>843</AltitudeMeters>
            <DistanceMeters>NAN</DistanceMeters>
          </Trackpoint>
          <Trackpoint>
            <Time>2019-08-01T16:59:20.000Z</Time>
            <Position>
              <LatitudeDegrees>40.5516527406871318817138671875</LatitudeDegrees>
              <LongitudeDegrees>-4.0287632681429386138916015625</LongitudeDegrees>
            </Position>
            <AltitudeMeters>843.20001220703125</AltitudeMeters>
            <DistanceMeters>NAN</DistanceMeters>
          </Trackpoint>
          <Trackpoint>
            <Time>2019-08-01T16:59:21.000Z</Time>
            <Position>
              <LatitudeDegrees>40.55159700103104114532470703125</LatitudeDegrees>
              <LongitudeDegrees>-4.028796292841434478759765625</LongitudeDegrees>
            </Position>
            <AltitudeMeters>843.20001220703125</AltitudeMeters>
            <DistanceMeters>NAN</DistanceMeters>
          </Trackpoint>
          <Trackpoint>
            <Time>2019-08-01T16:59:22.000Z</Time>
            <Position>
              <LatitudeDegrees>40.55154025554656982421875</LatitudeDegrees>
              <LongitudeDegrees>-4.02882889844477176666259765625</LongitudeDegrees>
            </Position>
            <AltitudeMeters>843.20001220703125</AltitudeMeters>
            <DistanceMeters>NAN</DistanceMeters>
          </Trackpoint>
          <Trackpoint>
            <Time>2019-08-01T16:59:23.000Z</Time>
            <Position>
              <LatitudeDegrees>40.5514837615191936492919921875</LatitudeDegrees>
              <LongitudeDegrees>-4.02886225841939449310302734375</LongitudeDegrees>
            </Position>
            <AltitudeMeters>843.4000244140625</AltitudeMeters>
            <DistanceMeters>NAN</DistanceMeters>
          </Trackpoint>
          <Trackpoint>
            <Time>2019-08-01T16:59:24.000Z</Time>
            <Position>
              <LatitudeDegrees>40.55142768658697605133056640625</LatitudeDegrees>
              <LongitudeDegrees>-4.02889427728950977325439453125</LongitudeDegrees>
            </Position>
            <AltitudeMeters>843.4000244140625</AltitudeMeters>
            <DistanceMeters>NAN</DistanceMeters>
          </Trackpoint>
          <Trackpoint>
            <Time>2019-08-01T16:59:25.000Z</Time>
            <Position>
              <LatitudeDegrees>40.55137169547379016876220703125</LatitudeDegrees>
              <LongitudeDegrees>-4.02892537415027618408203125</LongitudeDegrees>
            </Position>
            <AltitudeMeters>843.4000244140625</AltitudeMeters>
            <DistanceMeters>NAN</DistanceMeters>
          </Trackpoint>
          <Trackpoint>
            <Time>2019-08-01T16:59:26.000Z</Time>
            <Position>
              <LatitudeDegrees>40.55131603963673114776611328125</LatitudeDegrees>
              <LongitudeDegrees>-4.0289573930203914642333984375</LongitudeDegrees>
            </Position>
            <AltitudeMeters>843.4000244140625</AltitudeMeters>
            <DistanceMeters>NAN</DistanceMeters>
          </Trackpoint>
          <Trackpoint>
            <Time>2019-08-01T16:59:27.000Z</Time>
            <Position>
              <LatitudeDegrees>40.5512599647045135498046875</LatitudeDegrees>
              <LongitudeDegrees>-4.028990082442760467529296875</LongitudeDegrees>
            </Position>
            <AltitudeMeters>843.4000244140625</AltitudeMeters>
            <DistanceMeters>NAN</DistanceMeters>
          </Trackpoint>
          <Trackpoint>
            <Time>2019-08-01T16:59:28.000Z</Time>
            <Position>
              <LatitudeDegrees>40.5512038059532642364501953125</LatitudeDegrees>
              <LongitudeDegrees>-4.02902327477931976318359375</LongitudeDegrees>
            </Position>
            <AltitudeMeters>843.4000244140625</AltitudeMeters>
            <DistanceMeters>NAN</DistanceMeters>
          </Trackpoint>
          <Trackpoint>
            <Time>2019-08-01T16:59:29.000Z</Time>
            <Position>
              <LatitudeDegrees>40.55114756338298320770263671875</LatitudeDegrees>
              <LongitudeDegrees>-4.02905738912522792816162109375</LongitudeDegrees>
            </Position>
            <AltitudeMeters>843.4000244140625</AltitudeMeters>
            <DistanceMeters>NAN</DistanceMeters>
          </Trackpoint>
          <Trackpoint>
            <Time>2019-08-01T16:59:30.000Z</Time>
            <Position>
              <LatitudeDegrees>40.55109157226979732513427734375</LatitudeDegrees>
              <LongitudeDegrees>-4.02909259311854839324951171875</LongitudeDegrees>
            </Position>
            <AltitudeMeters>843.4000244140625</AltitudeMeters>
            <DistanceMeters>NAN</DistanceMeters>
          </Trackpoint>
          <Trackpoint>
            <Time>2019-08-01T16:59:31.000Z</Time>
            <Position>
              <LatitudeDegrees>40.551036335527896881103515625</LatitudeDegrees>
              <LongitudeDegrees>-4.02913056313991546630859375</LongitudeDegrees>
            </Position>
            <AltitudeMeters>843.4000244140625</AltitudeMeters>
            <DistanceMeters>NAN</DistanceMeters>
          </Trackpoint>
          <Trackpoint>
            <Time>2019-08-01T16:59:33.000Z</Time>
            <Position>
              <LatitudeDegrees>40.55093382485210895538330078125</LatitudeDegrees>
              <LongitudeDegrees>-4.0292189083993434906005859375</LongitudeDegrees>
            </Position>
            <AltitudeMeters>843.5999755859375</AltitudeMeters>
            <DistanceMeters>NAN</DistanceMeters>
          </Trackpoint>
          <Trackpoint>
            <Time>2019-08-01T16:59:34.000Z</Time>
            <Position>
              <LatitudeDegrees>40.5508862994611263275146484375</LatitudeDegrees>
              <LongitudeDegrees>-4.02926760725677013397216796875</LongitudeDegrees>
            </Position>
            <AltitudeMeters>843.5999755859375</AltitudeMeters>
            <DistanceMeters>NAN</DistanceMeters>
          </Trackpoint>
          <Trackpoint>
            <Time>2019-08-01T16:59:35.000Z</Time>
            <Position>
              <LatitudeDegrees>40.55084195919334888458251953125</LatitudeDegrees>
              <LongitudeDegrees>-4.02931831777095794677734375</LongitudeDegrees>
            </Position>
            <AltitudeMeters>843.79998779296875</AltitudeMeters>
            <DistanceMeters>NAN</DistanceMeters>
          </Trackpoint>
          <Trackpoint>
            <Time>2019-08-01T16:59:36.000Z</Time>
            <Position>
              <LatitudeDegrees>40.550800301134586334228515625</LatitudeDegrees>
              <LongitudeDegrees>-4.0293691121041774749755859375</LongitudeDegrees>
            </Position>
            <AltitudeMeters>844</AltitudeMeters>
            <DistanceMeters>NAN</DistanceMeters>
          </Trackpoint>
          <Trackpoint>
            <Time>2019-08-01T16:59:37.000Z</Time>
            <Position>
              <LatitudeDegrees>40.550760067999362945556640625</LatitudeDegrees>
              <LongitudeDegrees>-4.02941948734223842620849609375</LongitudeDegrees>
            </Position>
            <AltitudeMeters>844.20001220703125</AltitudeMeters>
            <DistanceMeters>NAN</DistanceMeters>
          </Trackpoint>
          <Trackpoint>
            <Time>2019-08-01T16:59:38.000Z</Time>
            <Position>
              <LatitudeDegrees>40.55071958340704441070556640625</LatitudeDegrees>
              <LongitudeDegrees>-4.029470868408679962158203125</LongitudeDegrees>
            </Position>
            <AltitudeMeters>844.20001220703125</AltitudeMeters>
            <DistanceMeters>NAN</DistanceMeters>
          </Trackpoint>
          <Trackpoint>
            <Time>2019-08-01T16:59:39.000Z</Time>
            <Position>
              <LatitudeDegrees>40.550679266452789306640625</LatitudeDegrees>
              <LongitudeDegrees>-4.029523171484470367431640625</LongitudeDegrees>
            </Position>
            <AltitudeMeters>844.5999755859375</AltitudeMeters>
            <DistanceMeters>NAN</DistanceMeters>
          </Trackpoint>
          <Trackpoint>
            <Time>2019-08-01T16:59:40.000Z</Time>
            <Position>
              <LatitudeDegrees>40.5506385304033756256103515625</LatitudeDegrees>
              <LongitudeDegrees>-4.029576480388641357421875</LongitudeDegrees>
            </Position>
            <AltitudeMeters>844.79998779296875</AltitudeMeters>
            <DistanceMeters>NAN</DistanceMeters>
          </Trackpoint>
          <Trackpoint>
            <Time>2019-08-01T16:59:41.000Z</Time>
            <Position>
              <LatitudeDegrees>40.550598464906215667724609375</LatitudeDegrees>
              <LongitudeDegrees>-4.0296309627592563629150390625</LongitudeDegrees>
            </Position>
            <AltitudeMeters>845.20001220703125</AltitudeMeters>
            <DistanceMeters>NAN</DistanceMeters>
          </Trackpoint>
          <Trackpoint>
            <Time>2019-08-01T16:59:43.000Z</Time>
            <Position>
              <LatitudeDegrees>40.550515986979007720947265625</LatitudeDegrees>
              <LongitudeDegrees>-4.029741100966930389404296875</LongitudeDegrees>
            </Position>
            <AltitudeMeters>845.5999755859375</AltitudeMeters>
            <DistanceMeters>NAN</DistanceMeters>
          </Trackpoint>
          <Trackpoint>
            <Time>2019-08-01T16:59:44.000Z</Time>
            <Position>
              <LatitudeDegrees>40.55047365836799144744873046875</LatitudeDegrees>
              <LongitudeDegrees>-4.029797427356243133544921875</LongitudeDegrees>
            </Position>
            <AltitudeMeters>845.79998779296875</AltitudeMeters>
            <DistanceMeters>NAN</DistanceMeters>
          </Trackpoint>
          <Trackpoint>
            <Time>2019-08-01T16:59:45.000Z</Time>
            <Position>
              <LatitudeDegrees>40.55042940191924571990966796875</LatitudeDegrees>
              <LongitudeDegrees>-4.029854424297809600830078125</LongitudeDegrees>
            </Position>
            <AltitudeMeters>845.79998779296875</AltitudeMeters>
            <DistanceMeters>NAN</DistanceMeters>
          </Trackpoint>
          <Trackpoint>
            <Time>2019-08-01T16:59:47.000Z</Time>
            <Position>
              <LatitudeDegrees>40.55034005083143711090087890625</LatitudeDegrees>
              <LongitudeDegrees>-4.0299705974757671356201171875</LongitudeDegrees>
            </Position>
            <AltitudeMeters>846</AltitudeMeters>
            <DistanceMeters>NAN</DistanceMeters>
          </Trackpoint>
          <Trackpoint>
            <Time>2019-08-01T16:59:48.000Z</Time>
            <Position>
              <LatitudeDegrees>40.550296045839786529541015625</LatitudeDegrees>
              <LongitudeDegrees>-4.03003002516925334930419921875</LongitudeDegrees>
            </Position>
            <AltitudeMeters>846</AltitudeMeters>
            <DistanceMeters>NAN</DistanceMeters>
          </Trackpoint>
          <Trackpoint>
            <Time>2019-08-01T16:59:49.000Z</Time>
            <Position>
              <LatitudeDegrees>40.5502526275813579559326171875</LatitudeDegrees>
              <LongitudeDegrees>-4.0300882793962955474853515625</LongitudeDegrees>
            </Position>
            <AltitudeMeters>846.20001220703125</AltitudeMeters>
            <DistanceMeters>NAN</DistanceMeters>
          </Trackpoint>
          <Trackpoint>
            <Time>2019-08-01T16:59:51.000Z</Time>
            <Position>
              <LatitudeDegrees>40.5501661263406276702880859375</LatitudeDegrees>
              <LongitudeDegrees>-4.03020210564136505126953125</LongitudeDegrees>
            </Position>
            <AltitudeMeters>846.20001220703125</AltitudeMeters>
            <DistanceMeters>NAN</DistanceMeters>
          </Trackpoint>
          <Trackpoint>
            <Time>2019-08-01T16:59:52.000Z</Time>
            <Position>
              <LatitudeDegrees>40.55012329481542110443115234375</LatitudeDegrees>
              <LongitudeDegrees>-4.03025868348777294158935546875</LongitudeDegrees>
            </Position>
            <AltitudeMeters>846.20001220703125</AltitudeMeters>
            <DistanceMeters>NAN</DistanceMeters>
          </Trackpoint>
          <Trackpoint>
            <Time>2019-08-01T16:59:53.000Z</Time>
            <Position>
              <LatitudeDegrees>40.55008037947118282318115234375</LatitudeDegrees>
              <LongitudeDegrees>-4.03031450696289539337158203125</LongitudeDegrees>
            </Position>
            <AltitudeMeters>846.20001220703125</AltitudeMeters>
            <DistanceMeters>NAN</DistanceMeters>
          </Trackpoint>
          <Trackpoint>
            <Time>2019-08-01T16:59:54.000Z</Time>
            <Position>
              <LatitudeDegrees>40.55003729648888111114501953125</LatitudeDegrees>
              <LongitudeDegrees>-4.03037049807608127593994140625</LongitudeDegrees>
            </Position>
            <AltitudeMeters>846.20001220703125</AltitudeMeters>
            <DistanceMeters>NAN</DistanceMeters>
          </Trackpoint>
          <Trackpoint>
            <Time>2019-08-01T16:59:56.000Z</Time>
            <Position>
              <LatitudeDegrees>40.5499522201716899871826171875</LatitudeDegrees>
              <LongitudeDegrees>-4.03048315085470676422119140625</LongitudeDegrees>
            </Position>
            <AltitudeMeters>846.20001220703125</AltitudeMeters>
            <DistanceMeters>NAN</DistanceMeters>
          </Trackpoint>
          <Trackpoint>
            <Time>2019-08-01T16:59:57.000Z</Time>
            <Position>
              <LatitudeDegrees>40.54991022683680057525634765625</LatitudeDegrees>
              <LongitudeDegrees>-4.0305378846824169158935546875</LongitudeDegrees>
            </Position>
            <AltitudeMeters>846.20001220703125</AltitudeMeters>
            <DistanceMeters>NAN</DistanceMeters>
          </Trackpoint>
          <Trackpoint>
            <Time>2019-08-01T16:59:58.000Z</Time>
            <Position>
              <LatitudeDegrees>40.54986781440675258636474609375</LatitudeDegrees>
              <LongitudeDegrees>-4.03059312142431735992431640625</LongitudeDegrees>
            </Position>
            <AltitudeMeters>846.20001220703125</AltitudeMeters>
            <DistanceMeters>NAN</DistanceMeters>
          </Trackpoint>
          <Trackpoint>
            <Time>2019-08-01T16:59:59.000Z</Time>
            <Position>
              <LatitudeDegrees>40.549824647605419158935546875</LatitudeDegrees>
              <LongitudeDegrees>-4.030649028718471527099609375</LongitudeDegrees>
            </Position>
            <AltitudeMeters>846.20001220703125</AltitudeMeters>
            <DistanceMeters>NAN</DistanceMeters>
          </Trackpoint>
          <Trackpoint>
            <Time>2019-08-01T17:00:00.000Z</Time>
            <Position>
              <LatitudeDegrees>40.54978139698505401611328125</LatitudeDegrees>
              <LongitudeDegrees>-4.0307048521935939788818359375</LongitudeDegrees>
            </Position>
            <AltitudeMeters>846.20001220703125</AltitudeMeters>
            <DistanceMeters>NAN</DistanceMeters>
          </Trackpoint>
          <Trackpoint>
            <Time>2019-08-01T17:00:01.000Z</Time>
            <Position>
              <LatitudeDegrees>40.54973923601210117340087890625</LatitudeDegrees>
              <LongitudeDegrees>-4.03076059184968471527099609375</LongitudeDegrees>
            </Position>
            <AltitudeMeters>846.20001220703125</AltitudeMeters>
            <DistanceMeters>NAN</DistanceMeters>
          </Trackpoint>
          <Trackpoint>
            <Time>2019-08-01T17:00:02.000Z</Time>
            <Position>
              <LatitudeDegrees>40.54969715885818004608154296875</LatitudeDegrees>
              <LongitudeDegrees>-4.03081633150577545166015625</LongitudeDegrees>
            </Position>
            <AltitudeMeters>846.20001220703125</AltitudeMeters>
            <DistanceMeters>NAN</DistanceMeters>
          </Trackpoint>
          <Trackpoint>
            <Time>2019-08-01T17:00:03.000Z</Time>
            <Position>
              <LatitudeDegrees>40.54965541698038578033447265625</LatitudeDegrees>
              <LongitudeDegrees>-4.0308724902570247650146484375</LongitudeDegrees>
            </Position>
            <AltitudeMeters>846.4000244140625</AltitudeMeters>
            <DistanceMeters>NAN</DistanceMeters>
          </Trackpoint>
          <Trackpoint>
            <Time>2019-08-01T17:00:04.000Z</Time>
            <Position>
              <LatitudeDegrees>40.54961384274065494537353515625</LatitudeDegrees>
              <LongitudeDegrees>-4.030928313732147216796875</LongitudeDegrees>
            </Position>
            <AltitudeMeters>846.4000244140625</AltitudeMeters>
            <DistanceMeters>NAN</DistanceMeters>
          </Trackpoint>
          <Trackpoint>
            <Time>2019-08-01T17:00:05.000Z</Time>
            <Position>
              <LatitudeDegrees>40.54957327432930469512939453125</LatitudeDegrees>
              <LongitudeDegrees>-4.03098271228373050689697265625</LongitudeDegrees>
            </Position>
            <AltitudeMeters>846.4000244140625</AltitudeMeters>
            <DistanceMeters>NAN</DistanceMeters>
          </Trackpoint>
          <Trackpoint>
            <Time>2019-08-01T17:00:06.000Z</Time>
            <Position>
              <LatitudeDegrees>40.54953454993665218353271484375</LatitudeDegrees>
              <LongitudeDegrees>-4.03103585354983806610107421875</LongitudeDegrees>
            </Position>
            <AltitudeMeters>846.4000244140625</AltitudeMeters>
            <DistanceMeters>NAN</DistanceMeters>
          </Trackpoint>
          <Trackpoint>
            <Time>2019-08-01T17:00:07.000Z</Time>
            <Position>
              <LatitudeDegrees>40.549497418105602264404296875</LatitudeDegrees>
              <LongitudeDegrees>-4.03108765371143817901611328125</LongitudeDegrees>
            </Position>
            <AltitudeMeters>846.5999755859375</AltitudeMeters>
            <DistanceMeters>NAN</DistanceMeters>
          </Trackpoint>
          <Trackpoint>
            <Time>2019-08-01T17:00:08.000Z</Time>
            <Position>
              <LatitudeDegrees>40.549460537731647491455078125</LatitudeDegrees>
              <LongitudeDegrees>-4.03113928623497486114501953125</LongitudeDegrees>
            </Position>
            <AltitudeMeters>846.5999755859375</AltitudeMeters>
            <DistanceMeters>NAN</DistanceMeters>
          </Trackpoint>
          <Trackpoint>
            <Time>2019-08-01T17:00:09.000Z</Time>
            <Position>
              <LatitudeDegrees>40.54942374117672443389892578125</LatitudeDegrees>
              <LongitudeDegrees>-4.031191170215606689453125</LongitudeDegrees>
            </Position>
            <AltitudeMeters>846.5999755859375</AltitudeMeters>
            <DistanceMeters>NAN</DistanceMeters>
          </Trackpoint>
          <Trackpoint>
            <Time>2019-08-01T17:00:10.000Z</Time>
            <Position>
              <LatitudeDegrees>40.54938577115535736083984375</LatitudeDegrees>
              <LongitudeDegrees>-4.0312433056533336639404296875</LongitudeDegrees>
            </Position>
            <AltitudeMeters>846.5999755859375</AltitudeMeters>
            <DistanceMeters>NAN</DistanceMeters>
          </Trackpoint>
          <Trackpoint>
            <Time>2019-08-01T17:00:11.000Z</Time>
            <Position>
              <LatitudeDegrees>40.5493475496768951416015625</LatitudeDegrees>
              <LongitudeDegrees>-4.03129552491009235382080078125</LongitudeDegrees>
            </Position>
            <AltitudeMeters>846.79998779296875</AltitudeMeters>
            <DistanceMeters>NAN</DistanceMeters>
          </Trackpoint>
          <Trackpoint>
            <Time>2019-08-01T17:00:12.000Z</Time>
            <Position>
              <LatitudeDegrees>40.54930890910327434539794921875</LatitudeDegrees>
              <LongitudeDegrees>-4.03134732507169246673583984375</LongitudeDegrees>
            </Position>
            <AltitudeMeters>846.79998779296875</AltitudeMeters>
            <DistanceMeters>NAN</DistanceMeters>
          </Trackpoint>
          <Trackpoint>
            <Time>2019-08-01T17:00:13.000Z</Time>
            <Position>
              <LatitudeDegrees>40.54927018471062183380126953125</LatitudeDegrees>
              <LongitudeDegrees>-4.0314002148807048797607421875</LongitudeDegrees>
            </Position>
            <AltitudeMeters>847</AltitudeMeters>
            <DistanceMeters>NAN</DistanceMeters>
          </Trackpoint>
          <Trackpoint>
            <Time>2019-08-01T17:00:14.000Z</Time>
            <Position>
              <LatitudeDegrees>40.549231208860874176025390625</LatitudeDegrees>
              <LongitudeDegrees>-4.03145260177552700042724609375</LongitudeDegrees>
            </Position>
            <AltitudeMeters>847.20001220703125</AltitudeMeters>
            <DistanceMeters>NAN</DistanceMeters>
          </Trackpoint>
          <Trackpoint>
            <Time>2019-08-01T17:00:15.000Z</Time>
            <Position>
              <LatitudeDegrees>40.549192316830158233642578125</LatitudeDegrees>
              <LongitudeDegrees>-4.0315058268606662750244140625</LongitudeDegrees>
            </Position>
            <AltitudeMeters>847.4000244140625</AltitudeMeters>
            <DistanceMeters>NAN</DistanceMeters>
          </Trackpoint>
          <Trackpoint>
            <Time>2019-08-01T17:00:16.000Z</Time>
            <Position>
              <LatitudeDegrees>40.5491530895233154296875</LatitudeDegrees>
              <LongitudeDegrees>-4.0315604768693447113037109375</LongitudeDegrees>
            </Position>
            <AltitudeMeters>847.4000244140625</AltitudeMeters>
            <DistanceMeters>NAN</DistanceMeters>
          </Trackpoint>
          <Trackpoint>
            <Time>2019-08-01T17:00:17.000Z</Time>
            <Position>
              <LatitudeDegrees>40.549113191664218902587890625</LatitudeDegrees>
              <LongitudeDegrees>-4.03161537833511829376220703125</LongitudeDegrees>
            </Position>
            <AltitudeMeters>847.79998779296875</AltitudeMeters>
            <DistanceMeters>NAN</DistanceMeters>
          </Trackpoint>
          <Trackpoint>
            <Time>2019-08-01T17:00:18.000Z</Time>
            <Position>
              <LatitudeDegrees>40.54907354526221752166748046875</LatitudeDegrees>
              <LongitudeDegrees>-4.03167086653411388397216796875</LongitudeDegrees>
            </Position>
            <AltitudeMeters>848.4000244140625</AltitudeMeters>
            <DistanceMeters>NAN</DistanceMeters>
          </Trackpoint>
          <Trackpoint>
            <Time>2019-08-01T17:00:19.000Z</Time>
            <Position>
              <LatitudeDegrees>40.54903465323150157928466796875</LatitudeDegrees>
              <LongitudeDegrees>-4.03172601945698261260986328125</LongitudeDegrees>
            </Position>
            <AltitudeMeters>848.79998779296875</AltitudeMeters>
            <DistanceMeters>NAN</DistanceMeters>
          </Trackpoint>
          <Trackpoint>
            <Time>2019-08-01T17:00:20.000Z</Time>
            <Position>
              <LatitudeDegrees>40.5489956773817539215087890625</LatitudeDegrees>
              <LongitudeDegrees>-4.03178134001791477203369140625</LongitudeDegrees>
            </Position>
            <AltitudeMeters>849.20001220703125</AltitudeMeters>
            <DistanceMeters>NAN</DistanceMeters>
          </Trackpoint>
          <Trackpoint>
            <Time>2019-08-01T17:00:21.000Z</Time>
            <Position>
              <LatitudeDegrees>40.5489571206271648406982421875</LatitudeDegrees>
              <LongitudeDegrees>-4.031837917864322662353515625</LongitudeDegrees>
            </Position>
            <AltitudeMeters>849.20001220703125</AltitudeMeters>
            <DistanceMeters>NAN</DistanceMeters>
          </Trackpoint>
          <Trackpoint>
            <Time>2019-08-01T17:00:22.000Z</Time>
            <Position>
              <LatitudeDegrees>40.54891881532967090606689453125</LatitudeDegrees>
              <LongitudeDegrees>-4.031894244253635406494140625</LongitudeDegrees>
            </Position>
            <AltitudeMeters>849.4000244140625</AltitudeMeters>
            <DistanceMeters>NAN</DistanceMeters>
          </Trackpoint>
          <Trackpoint>
            <Time>2019-08-01T17:00:23.000Z</Time>
            <Position>
              <LatitudeDegrees>40.5488810129463672637939453125</LatitudeDegrees>
              <LongitudeDegrees>-4.031949229538440704345703125</LongitudeDegrees>
            </Position>
            <AltitudeMeters>849.4000244140625</AltitudeMeters>
            <DistanceMeters>NAN</DistanceMeters>
          </Trackpoint>
          <Trackpoint>
            <Time>2019-08-01T17:00:24.000Z</Time>
            <Position>
              <LatitudeDegrees>40.54884488694369792938232421875</LatitudeDegrees>
              <LongitudeDegrees>-4.03200379572808742523193359375</LongitudeDegrees>
            </Position>
            <AltitudeMeters>849.4000244140625</AltitudeMeters>
            <DistanceMeters>NAN</DistanceMeters>
          </Trackpoint>
          <Trackpoint>
            <Time>2019-08-01T17:00:25.000Z</Time>
            <Position>
              <LatitudeDegrees>40.5488106049597263336181640625</LatitudeDegrees>
              <LongitudeDegrees>-4.03205743990838527679443359375</LongitudeDegrees>
            </Position>
            <AltitudeMeters>849.4000244140625</AltitudeMeters>
            <DistanceMeters>NAN</DistanceMeters>
          </Trackpoint>
          <Trackpoint>
            <Time>2019-08-01T17:00:26.000Z</Time>
            <Position>
              <LatitudeDegrees>40.54877665825188159942626953125</LatitudeDegrees>
              <LongitudeDegrees>-4.03210915625095367431640625</LongitudeDegrees>
            </Position>
            <AltitudeMeters>849.4000244140625</AltitudeMeters>
            <DistanceMeters>NAN</DistanceMeters>
          </Trackpoint>
          <Trackpoint>
            <Time>2019-08-01T17:00:27.000Z</Time>
            <Position>
              <LatitudeDegrees>40.54874279536306858062744140625</LatitudeDegrees>
              <LongitudeDegrees>-4.032159112393856048583984375</LongitudeDegrees>
            </Position>
            <AltitudeMeters>849.4000244140625</AltitudeMeters>
            <DistanceMeters>NAN</DistanceMeters>
          </Trackpoint>
          <Trackpoint>
            <Time>2019-08-01T17:00:28.000Z</Time>
            <Position>
              <LatitudeDegrees>40.5487086810171604156494140625</LatitudeDegrees>
              <LongitudeDegrees>-4.03220948763191699981689453125</LongitudeDegrees>
            </Position>
            <AltitudeMeters>849.5999755859375</AltitudeMeters>
            <DistanceMeters>NAN</DistanceMeters>
          </Trackpoint>
          <Trackpoint>
            <Time>2019-08-01T17:00:29.000Z</Time>
            <Position>
              <LatitudeDegrees>40.54867339320480823516845703125</LatitudeDegrees>
              <LongitudeDegrees>-4.03226212598383426666259765625</LongitudeDegrees>
            </Position>
            <AltitudeMeters>849.79998779296875</AltitudeMeters>
            <DistanceMeters>NAN</DistanceMeters>
          </Trackpoint>
          <Trackpoint>
            <Time>2019-08-01T17:00:30.000Z</Time>
            <Position>
              <LatitudeDegrees>40.54863668046891689300537109375</LatitudeDegrees>
              <LongitudeDegrees>-4.0323161892592906951904296875</LongitudeDegrees>
            </Position>
            <AltitudeMeters>849.5999755859375</AltitudeMeters>
            <DistanceMeters>NAN</DistanceMeters>
          </Trackpoint>
          <Trackpoint>
            <Time>2019-08-01T17:00:32.000Z</Time>
            <Position>
              <LatitudeDegrees>40.54856074042618274688720703125</LatitudeDegrees>
              <LongitudeDegrees>-4.03242607600986957550048828125</LongitudeDegrees>
            </Position>
            <AltitudeMeters>850</AltitudeMeters>
            <DistanceMeters>NAN</DistanceMeters>
          </Trackpoint>
          <Trackpoint>
            <Time>2019-08-01T17:00:33.000Z</Time>
            <Position>
              <LatitudeDegrees>40.5485212616622447967529296875</LatitudeDegrees>
              <LongitudeDegrees>-4.03248307295143604278564453125</LongitudeDegrees>
            </Position>
            <AltitudeMeters>850.20001220703125</AltitudeMeters>
            <DistanceMeters>NAN</DistanceMeters>
          </Trackpoint>
          <Trackpoint>
            <Time>2019-08-01T17:00:34.000Z</Time>
            <Position>
              <LatitudeDegrees>40.548481531441211700439453125</LatitudeDegrees>
              <LongitudeDegrees>-4.03253956697881221771240234375</LongitudeDegrees>
            </Position>
            <AltitudeMeters>850.4000244140625</AltitudeMeters>
            <DistanceMeters>NAN</DistanceMeters>
          </Trackpoint>
          <Trackpoint>
            <Time>2019-08-01T17:00:35.000Z</Time>
            <Position>
              <LatitudeDegrees>40.548439286649227142333984375</LatitudeDegrees>
              <LongitudeDegrees>-4.0325961448252201080322265625</LongitudeDegrees>
            </Position>
            <AltitudeMeters>850.4000244140625</AltitudeMeters>
            <DistanceMeters>NAN</DistanceMeters>
          </Trackpoint>
          <Trackpoint>
            <Time>2019-08-01T17:00:36.000Z</Time>
            <Position>
              <LatitudeDegrees>40.5483945272862911224365234375</LatitudeDegrees>
              <LongitudeDegrees>-4.032649956643581390380859375</LongitudeDegrees>
            </Position>
            <AltitudeMeters>850.4000244140625</AltitudeMeters>
            <DistanceMeters>NAN</DistanceMeters>
          </Trackpoint>
          <Trackpoint>
            <Time>2019-08-01T17:00:37.000Z</Time>
            <Position>
              <LatitudeDegrees>40.54834666661918163299560546875</LatitudeDegrees>
              <LongitudeDegrees>-4.03269882313907146453857421875</LongitudeDegrees>
            </Position>
            <AltitudeMeters>850.5999755859375</AltitudeMeters>
            <DistanceMeters>NAN</DistanceMeters>
          </Trackpoint>
          <Trackpoint>
            <Time>2019-08-01T17:00:38.000Z</Time>
            <Position>
              <LatitudeDegrees>40.5482966266572475433349609375</LatitudeDegrees>
              <LongitudeDegrees>-4.03274358250200748443603515625</LongitudeDegrees>
            </Position>
            <AltitudeMeters>851</AltitudeMeters>
            <DistanceMeters>NAN</DistanceMeters>
          </Trackpoint>
          <Trackpoint>
            <Time>2019-08-01T17:00:39.000Z</Time>
            <Position>
              <LatitudeDegrees>40.5482423119246959686279296875</LatitudeDegrees>
              <LongitudeDegrees>-4.03278130106627941131591796875</LongitudeDegrees>
            </Position>
            <AltitudeMeters>851</AltitudeMeters>
            <DistanceMeters>NAN</DistanceMeters>
          </Trackpoint>
          <Trackpoint>
            <Time>2019-08-01T17:00:40.000Z</Time>
            <Position>
              <LatitudeDegrees>40.54818690754473209381103515625</LatitudeDegrees>
              <LongitudeDegrees>-4.0328140743076801300048828125</LongitudeDegrees>
            </Position>
            <AltitudeMeters>851</AltitudeMeters>
            <DistanceMeters>NAN</DistanceMeters>
          </Trackpoint>
          <Trackpoint>
            <Time>2019-08-01T17:00:41.000Z</Time>
            <Position>
              <LatitudeDegrees>40.54813108406960964202880859375</LatitudeDegrees>
              <LongitudeDegrees>-4.032843410968780517578125</LongitudeDegrees>
            </Position>
            <AltitudeMeters>851</AltitudeMeters>
            <DistanceMeters>NAN</DistanceMeters>
          </Trackpoint>
          <Trackpoint>
            <Time>2019-08-01T17:00:42.000Z</Time>
            <Position>
              <LatitudeDegrees>40.54807475768029689788818359375</LatitudeDegrees>
              <LongitudeDegrees>-4.032869227230548858642578125</LongitudeDegrees>
            </Position>
            <AltitudeMeters>851.20001220703125</AltitudeMeters>
            <DistanceMeters>NAN</DistanceMeters>
          </Trackpoint>
          <Trackpoint>
            <Time>2019-08-01T17:00:43.000Z</Time>
            <Position>
              <LatitudeDegrees>40.548018179833889007568359375</LatitudeDegrees>
              <LongitudeDegrees>-4.03289361856877803802490234375</LongitudeDegrees>
            </Position>
            <AltitudeMeters>851.20001220703125</AltitudeMeters>
            <DistanceMeters>NAN</DistanceMeters>
          </Trackpoint>
          <Trackpoint>
            <Time>2019-08-01T17:00:44.000Z</Time>
            <Position>
              <LatitudeDegrees>40.547962188720703125</LatitudeDegrees>
              <LongitudeDegrees>-4.03291759081184864044189453125</LongitudeDegrees>
            </Position>
            <AltitudeMeters>851.20001220703125</AltitudeMeters>
            <DistanceMeters>NAN</DistanceMeters>
          </Trackpoint>
          <Trackpoint>
            <Time>2019-08-01T17:00:45.000Z</Time>
            <Position>
              <LatitudeDegrees>40.547906197607517242431640625</LatitudeDegrees>
              <LongitudeDegrees>-4.03294064104557037353515625</LongitudeDegrees>
            </Position>
            <AltitudeMeters>851.20001220703125</AltitudeMeters>
            <DistanceMeters>NAN</DistanceMeters>
          </Trackpoint>
          <Trackpoint>
            <Time>2019-08-01T17:00:46.000Z</Time>
            <Position>
              <LatitudeDegrees>40.54785020649433135986328125</LatitudeDegrees>
              <LongitudeDegrees>-4.03296184726059436798095703125</LongitudeDegrees>
            </Position>
            <AltitudeMeters>851.20001220703125</AltitudeMeters>
            <DistanceMeters>NAN</DistanceMeters>
          </Trackpoint>
          <Trackpoint>
            <Time>2019-08-01T17:00:47.000Z</Time>
            <Position>
              <LatitudeDegrees>40.5477940477430820465087890625</LatitudeDegrees>
              <LongitudeDegrees>-4.03298246674239635467529296875</LongitudeDegrees>
            </Position>
            <AltitudeMeters>851.20001220703125</AltitudeMeters>
            <DistanceMeters>NAN</DistanceMeters>
          </Trackpoint>
          <Trackpoint>
            <Time>2019-08-01T17:00:48.000Z</Time>
            <Position>
              <LatitudeDegrees>40.54773864336311817169189453125</LatitudeDegrees>
              <LongitudeDegrees>-4.0330028347671031951904296875</LongitudeDegrees>
            </Position>
            <AltitudeMeters>851</AltitudeMeters>
            <DistanceMeters>NAN</DistanceMeters>
          </Trackpoint>
          <Trackpoint>
            <Time>2019-08-01T17:00:49.000Z</Time>
            <Position>
              <LatitudeDegrees>40.54768449626863002777099609375</LatitudeDegrees>
              <LongitudeDegrees>-4.033022783696651458740234375</LongitudeDegrees>
            </Position>
            <AltitudeMeters>851</AltitudeMeters>
            <DistanceMeters>NAN</DistanceMeters>
          </Trackpoint>
          <Trackpoint>
            <Time>2019-08-01T17:00:50.000Z</Time>
            <Position>
              <LatitudeDegrees>40.547631941735744476318359375</LatitudeDegrees>
              <LongitudeDegrees>-4.0330420620739459991455078125</LongitudeDegrees>
            </Position>
            <AltitudeMeters>851</AltitudeMeters>
            <DistanceMeters>NAN</DistanceMeters>
          </Trackpoint>
          <Trackpoint>
            <Time>2019-08-01T17:00:51.000Z</Time>
            <Position>
              <LatitudeDegrees>40.54757921956479549407958984375</LatitudeDegrees>
              <LongitudeDegrees>-4.03305991552770137786865234375</LongitudeDegrees>
            </Position>
            <AltitudeMeters>851</AltitudeMeters>
            <DistanceMeters>NAN</DistanceMeters>
          </Trackpoint>
          <Trackpoint>
            <Time>2019-08-01T17:00:52.000Z</Time>
            <Position>
              <LatitudeDegrees>40.54752658121287822723388671875</LatitudeDegrees>
              <LongitudeDegrees>-4.033077768981456756591796875</LongitudeDegrees>
            </Position>
            <AltitudeMeters>851</AltitudeMeters>
            <DistanceMeters>NAN</DistanceMeters>
          </Trackpoint>
          <Trackpoint>
            <Time>2019-08-01T17:00:53.000Z</Time>
            <Position>
              <LatitudeDegrees>40.5474738590419292449951171875</LatitudeDegrees>
              <LongitudeDegrees>-4.0330957062542438507080078125</LongitudeDegrees>
            </Position>
            <AltitudeMeters>851</AltitudeMeters>
            <DistanceMeters>NAN</DistanceMeters>
          </Trackpoint>
          <Trackpoint>
            <Time>2019-08-01T17:00:54.000Z</Time>
            <Position>
              <LatitudeDegrees>40.54742197506129741668701171875</LatitudeDegrees>
              <LongitudeDegrees>-4.03311355970799922943115234375</LongitudeDegrees>
            </Position>
            <AltitudeMeters>851</AltitudeMeters>
            <DistanceMeters>NAN</DistanceMeters>
          </Trackpoint>
          <Trackpoint>
            <Time>2019-08-01T17:00:55.000Z</Time>
            <Position>
              <LatitudeDegrees>40.5473705939948558807373046875</LatitudeDegrees>
              <LongitudeDegrees>-4.03313300572335720062255859375</LongitudeDegrees>
            </Position>
            <AltitudeMeters>851</AltitudeMeters>
            <DistanceMeters>NAN</DistanceMeters>
          </Trackpoint>
          <Trackpoint>
            <Time>2019-08-01T17:00:56.000Z</Time>
            <Position>
              <LatitudeDegrees>40.54732122458517551422119140625</LatitudeDegrees>
              <LongitudeDegrees>-4.0331560559570789337158203125</LongitudeDegrees>
            </Position>
            <AltitudeMeters>851</AltitudeMeters>
            <DistanceMeters>NAN</DistanceMeters>
          </Trackpoint>
          <Trackpoint>
            <Time>2019-08-01T17:00:57.000Z</Time>
            <Position>
              <LatitudeDegrees>40.54727344773709774017333984375</LatitudeDegrees>
              <LongitudeDegrees>-4.0331828780472278594970703125</LongitudeDegrees>
            </Position>
            <AltitudeMeters>851</AltitudeMeters>
            <DistanceMeters>NAN</DistanceMeters>
          </Trackpoint>
          <Trackpoint>
            <Time>2019-08-01T17:00:58.000Z</Time>
            <Position>
              <LatitudeDegrees>40.54722785018384456634521484375</LatitudeDegrees>
              <LongitudeDegrees>-4.03321280144155025482177734375</LongitudeDegrees>
            </Position>
            <AltitudeMeters>851</AltitudeMeters>
            <DistanceMeters>NAN</DistanceMeters>
          </Trackpoint>
          <Trackpoint>
            <Time>2019-08-01T17:00:59.000Z</Time>
            <Position>
              <LatitudeDegrees>40.5471838451921939849853515625</LatitudeDegrees>
              <LongitudeDegrees>-4.03324549086391925811767578125</LongitudeDegrees>
            </Position>
            <AltitudeMeters>851.20001220703125</AltitudeMeters>
            <DistanceMeters>NAN</DistanceMeters>
          </Trackpoint>
          <Trackpoint>
            <Time>2019-08-01T17:01:00.000Z</Time>
            <Position>
              <LatitudeDegrees>40.54714319296181201934814453125</LatitudeDegrees>
              <LongitudeDegrees>-4.03328128159046173095703125</LongitudeDegrees>
            </Position>
            <AltitudeMeters>851.20001220703125</AltitudeMeters>
            <DistanceMeters>NAN</DistanceMeters>
          </Trackpoint>
          <Trackpoint>
            <Time>2019-08-01T17:01:02.000Z</Time>
            <Position>
              <LatitudeDegrees>40.54706926457583904266357421875</LatitudeDegrees>
              <LongitudeDegrees>-4.03335445560514926910400390625</LongitudeDegrees>
            </Position>
            <AltitudeMeters>851.4000244140625</AltitudeMeters>
            <DistanceMeters>NAN</DistanceMeters>
          </Trackpoint>
          <Trackpoint>
            <Time>2019-08-01T17:01:03.000Z</Time>
            <Position>
              <LatitudeDegrees>40.54703372530639171600341796875</LatitudeDegrees>
              <LongitudeDegrees>-4.0333914197981357574462890625</LongitudeDegrees>
            </Position>
            <AltitudeMeters>851.4000244140625</AltitudeMeters>
            <DistanceMeters>NAN</DistanceMeters>
          </Trackpoint>
          <Trackpoint>
            <Time>2019-08-01T17:01:04.000Z</Time>
            <Position>
              <LatitudeDegrees>40.54699667729437351226806640625</LatitudeDegrees>
              <LongitudeDegrees>-4.0334294736385345458984375</LongitudeDegrees>
            </Position>
            <AltitudeMeters>851.4000244140625</AltitudeMeters>
            <DistanceMeters>NAN</DistanceMeters>
          </Trackpoint>
          <Trackpoint>
            <Time>2019-08-01T17:01:05.000Z</Time>
            <Position>
              <LatitudeDegrees>40.54696046747267246246337890625</LatitudeDegrees>
              <LongitudeDegrees>-4.033468030393123626708984375</LongitudeDegrees>
            </Position>
            <AltitudeMeters>851.4000244140625</AltitudeMeters>
            <DistanceMeters>NAN</DistanceMeters>
          </Trackpoint>
          <Trackpoint>
            <Time>2019-08-01T17:01:07.000Z</Time>
            <Position>
              <LatitudeDegrees>40.5468867905437946319580078125</LatitudeDegrees>
              <LongitudeDegrees>-4.0335439704358577728271484375</LongitudeDegrees>
            </Position>
            <AltitudeMeters>852.20001220703125</AltitudeMeters>
            <DistanceMeters>NAN</DistanceMeters>
          </Trackpoint>
          <Trackpoint>
            <Time>2019-08-01T17:01:08.000Z</Time>
            <Position>
              <LatitudeDegrees>40.54684982635080814361572265625</LatitudeDegrees>
              <LongitudeDegrees>-4.03358311392366886138916015625</LongitudeDegrees>
            </Position>
            <AltitudeMeters>852.5999755859375</AltitudeMeters>
            <DistanceMeters>NAN</DistanceMeters>
          </Trackpoint>
          <Trackpoint>
            <Time>2019-08-01T17:01:10.000Z</Time>
            <Position>
              <LatitudeDegrees>40.5467764846980571746826171875</LatitudeDegrees>
              <LongitudeDegrees>-4.0336572937667369842529296875</LongitudeDegrees>
            </Position>
            <AltitudeMeters>853.20001220703125</AltitudeMeters>
            <DistanceMeters>NAN</DistanceMeters>
          </Trackpoint>
          <Trackpoint>
            <Time>2019-08-01T17:01:11.000Z</Time>
            <Position>
              <LatitudeDegrees>40.54673935286700725555419921875</LatitudeDegrees>
              <LongitudeDegrees>-4.03369358740746974945068359375</LongitudeDegrees>
            </Position>
            <AltitudeMeters>853.5999755859375</AltitudeMeters>
            <DistanceMeters>NAN</DistanceMeters>
          </Trackpoint>
          <Trackpoint>
            <Time>2019-08-01T17:01:12.000Z</Time>
            <Position>
              <LatitudeDegrees>40.5467013828456401824951171875</LatitudeDegrees>
              <LongitudeDegrees>-4.0337300486862659454345703125</LongitudeDegrees>
            </Position>
            <AltitudeMeters>853.79998779296875</AltitudeMeters>
            <DistanceMeters>NAN</DistanceMeters>
          </Trackpoint>
          <Trackpoint>
            <Time>2019-08-01T17:01:13.000Z</Time>
            <Position>
              <LatitudeDegrees>40.5466638319194316864013671875</LatitudeDegrees>
              <LongitudeDegrees>-4.03376667760312557220458984375</LongitudeDegrees>
            </Position>
            <AltitudeMeters>854</AltitudeMeters>
            <DistanceMeters>NAN</DistanceMeters>
          </Trackpoint>
          <Trackpoint>
            <Time>2019-08-01T17:01:14.000Z</Time>
            <Position>
              <LatitudeDegrees>40.54662577807903289794921875</LatitudeDegrees>
              <LongitudeDegrees>-4.033802635967731475830078125</LongitudeDegrees>
            </Position>
            <AltitudeMeters>854</AltitudeMeters>
            <DistanceMeters>NAN</DistanceMeters>
          </Trackpoint>
          <Trackpoint>
            <Time>2019-08-01T17:01:16.000Z</Time>
            <Position>
              <LatitudeDegrees>40.5465488322079181671142578125</LatitudeDegrees>
              <LongitudeDegrees>-4.0338715352118015289306640625</LongitudeDegrees>
            </Position>
            <AltitudeMeters>854.79998779296875</AltitudeMeters>
            <DistanceMeters>NAN</DistanceMeters>
          </Trackpoint>
          <Trackpoint>
            <Time>2019-08-01T17:01:17.000Z</Time>
            <Position>
              <LatitudeDegrees>40.54651102982461452484130859375</LatitudeDegrees>
              <LongitudeDegrees>-4.03390531428158283233642578125</LongitudeDegrees>
            </Position>
            <AltitudeMeters>855</AltitudeMeters>
            <DistanceMeters>NAN</DistanceMeters>
          </Trackpoint>
          <Trackpoint>
            <Time>2019-08-01T17:01:18.000Z</Time>
            <Position>
              <LatitudeDegrees>40.54647247307002544403076171875</LatitudeDegrees>
              <LongitudeDegrees>-4.033938758075237274169921875</LongitudeDegrees>
            </Position>
            <AltitudeMeters>855.4000244140625</AltitudeMeters>
            <DistanceMeters>NAN</DistanceMeters>
          </Trackpoint>
          <Trackpoint>
            <Time>2019-08-01T17:01:19.000Z</Time>
            <Position>
              <LatitudeDegrees>40.546435005962848663330078125</LatitudeDegrees>
              <LongitudeDegrees>-4.03397153131663799285888671875</LongitudeDegrees>
            </Position>
            <AltitudeMeters>855.4000244140625</AltitudeMeters>
            <DistanceMeters>NAN</DistanceMeters>
          </Trackpoint>
          <Trackpoint>
            <Time>2019-08-01T17:01:20.000Z</Time>
            <Position>
              <LatitudeDegrees>40.54639787413179874420166015625</LatitudeDegrees>
              <LongitudeDegrees>-4.034004472196102142333984375</LongitudeDegrees>
            </Position>
            <AltitudeMeters>855.5999755859375</AltitudeMeters>
            <DistanceMeters>NAN</DistanceMeters>
          </Trackpoint>
          <Trackpoint>
            <Time>2019-08-01T17:01:21.000Z</Time>
            <Position>
              <LatitudeDegrees>40.54636149667203426361083984375</LatitudeDegrees>
              <LongitudeDegrees>-4.0340378321707248687744140625</LongitudeDegrees>
            </Position>
            <AltitudeMeters>855.5999755859375</AltitudeMeters>
            <DistanceMeters>NAN</DistanceMeters>
          </Trackpoint>
          <Trackpoint>
            <Time>2019-08-01T17:01:22.000Z</Time>
            <Position>
              <LatitudeDegrees>40.5463255383074283599853515625</LatitudeDegrees>
              <LongitudeDegrees>-4.03407010249793529510498046875</LongitudeDegrees>
            </Position>
            <AltitudeMeters>855.5999755859375</AltitudeMeters>
            <DistanceMeters>NAN</DistanceMeters>
          </Trackpoint>
          <Trackpoint>
            <Time>2019-08-01T17:01:23.000Z</Time>
            <Position>
              <LatitudeDegrees>40.54628916084766387939453125</LatitudeDegrees>
              <LongitudeDegrees>-4.034102372825145721435546875</LongitudeDegrees>
            </Position>
            <AltitudeMeters>855.79998779296875</AltitudeMeters>
            <DistanceMeters>NAN</DistanceMeters>
          </Trackpoint>
          <Trackpoint>
            <Time>2019-08-01T17:01:24.000Z</Time>
            <Position>
              <LatitudeDegrees>40.54625169374048709869384765625</LatitudeDegrees>
              <LongitudeDegrees>-4.03413615189492702484130859375</LongitudeDegrees>
            </Position>
            <AltitudeMeters>856</AltitudeMeters>
            <DistanceMeters>NAN</DistanceMeters>
          </Trackpoint>
          <Trackpoint>
            <Time>2019-08-01T17:01:25.000Z</Time>
            <Position>
              <LatitudeDegrees>40.54621162824332714080810546875</LatitudeDegrees>
              <LongitudeDegrees>-4.03417185880243778228759765625</LongitudeDegrees>
            </Position>
            <AltitudeMeters>856.20001220703125</AltitudeMeters>
            <DistanceMeters>NAN</DistanceMeters>
          </Trackpoint>
          <Trackpoint>
            <Time>2019-08-01T17:01:27.000Z</Time>
            <Position>
              <LatitudeDegrees>40.54612596519291400909423828125</LatitudeDegrees>
              <LongitudeDegrees>-4.034247882664203643798828125</LongitudeDegrees>
            </Position>
            <AltitudeMeters>856.4000244140625</AltitudeMeters>
            <DistanceMeters>NAN</DistanceMeters>
          </Trackpoint>
          <Trackpoint>
            <Time>2019-08-01T17:01:28.000Z</Time>
            <Position>
              <LatitudeDegrees>40.5460797809064388275146484375</LatitudeDegrees>
              <LongitudeDegrees>-4.03428685851395130157470703125</LongitudeDegrees>
            </Position>
            <AltitudeMeters>856.4000244140625</AltitudeMeters>
            <DistanceMeters>NAN</DistanceMeters>
          </Trackpoint>
          <Trackpoint>
            <Time>2019-08-01T17:01:30.000Z</Time>
            <Position>
              <LatitudeDegrees>40.5459815450012683868408203125</LatitudeDegrees>
              <LongitudeDegrees>-4.03436782769858837127685546875</LongitudeDegrees>
            </Position>
            <AltitudeMeters>856.5999755859375</AltitudeMeters>
            <DistanceMeters>NAN</DistanceMeters>
          </Trackpoint>
          <Trackpoint>
            <Time>2019-08-01T17:01:31.000Z</Time>
            <Position>
              <LatitudeDegrees>40.54592907428741455078125</LatitudeDegrees>
              <LongitudeDegrees>-4.03440873138606548309326171875</LongitudeDegrees>
            </Position>
            <AltitudeMeters>856.5999755859375</AltitudeMeters>
            <DistanceMeters>NAN</DistanceMeters>
          </Trackpoint>
          <Trackpoint>
            <Time>2019-08-01T17:01:32.000Z</Time>
            <Position>
              <LatitudeDegrees>40.54587450809776782989501953125</LatitudeDegrees>
              <LongitudeDegrees>-4.0344482101500034332275390625</LongitudeDegrees>
            </Position>
            <AltitudeMeters>856.79998779296875</AltitudeMeters>
            <DistanceMeters>NAN</DistanceMeters>
          </Trackpoint>
          <Trackpoint>
            <Time>2019-08-01T17:01:34.000Z</Time>
            <Position>
              <LatitudeDegrees>40.54576386697590351104736328125</LatitudeDegrees>
              <LongitudeDegrees>-4.03452490456402301788330078125</LongitudeDegrees>
            </Position>
            <AltitudeMeters>856.79998779296875</AltitudeMeters>
            <DistanceMeters>NAN</DistanceMeters>
          </Trackpoint>
          <Trackpoint>
            <Time>2019-08-01T17:01:36.000Z</Time>
            <Position>
              <LatitudeDegrees>40.5456526391208171844482421875</LatitudeDegrees>
              <LongitudeDegrees>-4.0346024371683597564697265625</LongitudeDegrees>
            </Position>
            <AltitudeMeters>856.79998779296875</AltitudeMeters>
            <DistanceMeters>NAN</DistanceMeters>
          </Trackpoint>
          <Trackpoint>
            <Time>2019-08-01T17:01:37.000Z</Time>
            <Position>
              <LatitudeDegrees>40.54559606127440929412841796875</LatitudeDegrees>
              <LongitudeDegrees>-4.03464107774198055267333984375</LongitudeDegrees>
            </Position>
            <AltitudeMeters>856.5999755859375</AltitudeMeters>
            <DistanceMeters>NAN</DistanceMeters>
          </Trackpoint>
          <Trackpoint>
            <Time>2019-08-01T17:01:38.000Z</Time>
            <Position>
              <LatitudeDegrees>40.5455383099615573883056640625</LatitudeDegrees>
              <LongitudeDegrees>-4.0346795506775379180908203125</LongitudeDegrees>
            </Position>
            <AltitudeMeters>856.4000244140625</AltitudeMeters>
            <DistanceMeters>NAN</DistanceMeters>
          </Trackpoint>
          <Trackpoint>
            <Time>2019-08-01T17:01:39.000Z</Time>
            <Position>
              <LatitudeDegrees>40.54548072628676891326904296875</LatitudeDegrees>
              <LongitudeDegrees>-4.03471886180341243743896484375</LongitudeDegrees>
            </Position>
            <AltitudeMeters>856.20001220703125</AltitudeMeters>
            <DistanceMeters>NAN</DistanceMeters>
          </Trackpoint>
          <Trackpoint>
            <Time>2019-08-01T17:01:40.000Z</Time>
            <Position>
              <LatitudeDegrees>40.54542322643101215362548828125</LatitudeDegrees>
              <LongitudeDegrees>-4.034758843481540679931640625</LongitudeDegrees>
            </Position>
            <AltitudeMeters>856.20001220703125</AltitudeMeters>
            <DistanceMeters>NAN</DistanceMeters>
          </Trackpoint>
          <Trackpoint>
            <Time>2019-08-01T17:01:41.000Z</Time>
            <Position>
              <LatitudeDegrees>40.5453653074800968170166015625</LatitudeDegrees>
              <LongitudeDegrees>-4.0347979031503200531005859375</LongitudeDegrees>
            </Position>
            <AltitudeMeters>856.20001220703125</AltitudeMeters>
            <DistanceMeters>NAN</DistanceMeters>
          </Trackpoint>
          <Trackpoint>
            <Time>2019-08-01T17:01:42.000Z</Time>
            <Position>
              <LatitudeDegrees>40.5453073047101497650146484375</LatitudeDegrees>
              <LongitudeDegrees>-4.0348361246287822723388671875</LongitudeDegrees>
            </Position>
            <AltitudeMeters>856</AltitudeMeters>
            <DistanceMeters>NAN</DistanceMeters>
          </Trackpoint>
          <Trackpoint>
            <Time>2019-08-01T17:01:43.000Z</Time>
            <Position>
              <LatitudeDegrees>40.54524921812117099761962890625</LatitudeDegrees>
              <LongitudeDegrees>-4.034874849021434783935546875</LongitudeDegrees>
            </Position>
            <AltitudeMeters>856</AltitudeMeters>
            <DistanceMeters>NAN</DistanceMeters>
          </Trackpoint>
          <Trackpoint>
            <Time>2019-08-01T17:01:44.000Z</Time>
            <Position>
              <LatitudeDegrees>40.5451906286180019378662109375</LatitudeDegrees>
              <LongitudeDegrees>-4.0349142439663410186767578125</LongitudeDegrees>
            </Position>
            <AltitudeMeters>856</AltitudeMeters>
            <DistanceMeters>NAN</DistanceMeters>
          </Trackpoint>
          <Trackpoint>
            <Time>2019-08-01T17:01:45.000Z</Time>
            <Position>
              <LatitudeDegrees>40.5451309494674205780029296875</LatitudeDegrees>
              <LongitudeDegrees>-4.03495372273027896881103515625</LongitudeDegrees>
            </Position>
            <AltitudeMeters>855.79998779296875</AltitudeMeters>
            <DistanceMeters>NAN</DistanceMeters>
          </Trackpoint>
          <Trackpoint>
            <Time>2019-08-01T17:01:46.000Z</Time>
            <Position>
              <LatitudeDegrees>40.54507068358361721038818359375</LatitudeDegrees>
              <LongitudeDegrees>-4.03499278239905834197998046875</LongitudeDegrees>
            </Position>
            <AltitudeMeters>855.4000244140625</AltitudeMeters>
            <DistanceMeters>NAN</DistanceMeters>
          </Trackpoint>
          <Trackpoint>
            <Time>2019-08-01T17:01:47.000Z</Time>
            <Position>
              <LatitudeDegrees>40.54500983096659183502197265625</LatitudeDegrees>
              <LongitudeDegrees>-4.03503133915364742279052734375</LongitudeDegrees>
            </Position>
            <AltitudeMeters>855</AltitudeMeters>
            <DistanceMeters>NAN</DistanceMeters>
          </Trackpoint>
          <Trackpoint>
            <Time>2019-08-01T17:01:48.000Z</Time>
            <Position>
              <LatitudeDegrees>40.54494914598762989044189453125</LatitudeDegrees>
              <LongitudeDegrees>-4.0350718237459659576416015625</LongitudeDegrees>
            </Position>
            <AltitudeMeters>854.5999755859375</AltitudeMeters>
            <DistanceMeters>NAN</DistanceMeters>
          </Trackpoint>
          <Trackpoint>
            <Time>2019-08-01T17:01:49.000Z</Time>
            <Position>
              <LatitudeDegrees>40.54488779045641422271728515625</LatitudeDegrees>
              <LongitudeDegrees>-4.03511281125247478485107421875</LongitudeDegrees>
            </Position>
            <AltitudeMeters>854.4000244140625</AltitudeMeters>
            <DistanceMeters>NAN</DistanceMeters>
          </Trackpoint>
          <Trackpoint>
            <Time>2019-08-01T17:01:50.000Z</Time>
            <Position>
              <LatitudeDegrees>40.54482601583003997802734375</LatitudeDegrees>
              <LongitudeDegrees>-4.03515203855931758880615234375</LongitudeDegrees>
            </Position>
            <AltitudeMeters>854.20001220703125</AltitudeMeters>
            <DistanceMeters>NAN</DistanceMeters>
          </Trackpoint>
          <Trackpoint>
            <Time>2019-08-01T17:01:51.000Z</Time>
            <Position>
              <LatitudeDegrees>40.5447638221085071563720703125</LatitudeDegrees>
              <LongitudeDegrees>-4.03519109822809696197509765625</LongitudeDegrees>
            </Position>
            <AltitudeMeters>854.20001220703125</AltitudeMeters>
            <DistanceMeters>NAN</DistanceMeters>
          </Trackpoint>
          <Trackpoint>
            <Time>2019-08-01T17:01:52.000Z</Time>
            <Position>
              <LatitudeDegrees>40.5447019636631011962890625</LatitudeDegrees>
              <LongitudeDegrees>-4.03523099608719348907470703125</LongitudeDegrees>
            </Position>
            <AltitudeMeters>854</AltitudeMeters>
            <DistanceMeters>NAN</DistanceMeters>
          </Trackpoint>
          <Trackpoint>
            <Time>2019-08-01T17:01:54.000Z</Time>
            <Position>
              <LatitudeDegrees>40.5445784144103527069091796875</LatitudeDegrees>
              <LongitudeDegrees>-4.0353118814527988433837890625</LongitudeDegrees>
            </Position>
            <AltitudeMeters>853.5999755859375</AltitudeMeters>
            <DistanceMeters>NAN</DistanceMeters>
          </Trackpoint>
          <Trackpoint>
            <Time>2019-08-01T17:01:55.000Z</Time>
            <Position>
              <LatitudeDegrees>40.54451663978397846221923828125</LatitudeDegrees>
              <LongitudeDegrees>-4.03535194694995880126953125</LongitudeDegrees>
            </Position>
            <AltitudeMeters>853.4000244140625</AltitudeMeters>
            <DistanceMeters>NAN</DistanceMeters>
          </Trackpoint>
          <Trackpoint>
            <Time>2019-08-01T17:01:56.000Z</Time>
            <Position>
              <LatitudeDegrees>40.5444550327956676483154296875</LatitudeDegrees>
              <LongitudeDegrees>-4.035391174256801605224609375</LongitudeDegrees>
            </Position>
            <AltitudeMeters>853.4000244140625</AltitudeMeters>
            <DistanceMeters>NAN</DistanceMeters>
          </Trackpoint>
          <Trackpoint>
            <Time>2019-08-01T17:01:57.000Z</Time>
            <Position>
              <LatitudeDegrees>40.54439443163573741912841796875</LatitudeDegrees>
              <LongitudeDegrees>-4.0354305692017078399658203125</LongitudeDegrees>
            </Position>
            <AltitudeMeters>853.20001220703125</AltitudeMeters>
            <DistanceMeters>NAN</DistanceMeters>
          </Trackpoint>
          <Trackpoint>
            <Time>2019-08-01T17:01:58.000Z</Time>
            <Position>
              <LatitudeDegrees>40.5443345010280609130859375</LatitudeDegrees>
              <LongitudeDegrees>-4.03547138907015323638916015625</LongitudeDegrees>
            </Position>
            <AltitudeMeters>853</AltitudeMeters>
            <DistanceMeters>NAN</DistanceMeters>
          </Trackpoint>
          <Trackpoint>
            <Time>2019-08-01T17:01:59.000Z</Time>
            <Position>
              <LatitudeDegrees>40.54427591152489185333251953125</LatitudeDegrees>
              <LongitudeDegrees>-4.03551556169986724853515625</LongitudeDegrees>
            </Position>
            <AltitudeMeters>853</AltitudeMeters>
            <DistanceMeters>NAN</DistanceMeters>
          </Trackpoint>
          <Trackpoint>
            <Time>2019-08-01T17:02:00.000Z</Time>
            <Position>
              <LatitudeDegrees>40.5442191660404205322265625</LatitudeDegrees>
              <LongitudeDegrees>-4.0355660207569599151611328125</LongitudeDegrees>
            </Position>
            <AltitudeMeters>852.79998779296875</AltitudeMeters>
            <DistanceMeters>NAN</DistanceMeters>
          </Trackpoint>
          <Trackpoint>
            <Time>2019-08-01T17:02:01.000Z</Time>
            <Position>
              <LatitudeDegrees>40.54416560567915439605712890625</LatitudeDegrees>
              <LongitudeDegrees>-4.03562528081238269805908203125</LongitudeDegrees>
            </Position>
            <AltitudeMeters>852.79998779296875</AltitudeMeters>
            <DistanceMeters>NAN</DistanceMeters>
          </Trackpoint>
          <Trackpoint>
            <Time>2019-08-01T17:02:02.000Z</Time>
            <Position>
              <LatitudeDegrees>40.54411632008850574493408203125</LatitudeDegrees>
              <LongitudeDegrees>-4.0356930904090404510498046875</LongitudeDegrees>
            </Position>
            <AltitudeMeters>852.5999755859375</AltitudeMeters>
            <DistanceMeters>NAN</DistanceMeters>
          </Trackpoint>
          <Trackpoint>
            <Time>2019-08-01T17:02:03.000Z</Time>
            <Position>
              <LatitudeDegrees>40.54407441057264804840087890625</LatitudeDegrees>
              <LongitudeDegrees>-4.03576777316629886627197265625</LongitudeDegrees>
            </Position>
            <AltitudeMeters>852.5999755859375</AltitudeMeters>
            <DistanceMeters>NAN</DistanceMeters>
          </Trackpoint>
          <Trackpoint>
            <Time>2019-08-01T17:02:04.000Z</Time>
            <Position>
              <LatitudeDegrees>40.54404281079769134521484375</LatitudeDegrees>
              <LongitudeDegrees>-4.0358489938080310821533203125</LongitudeDegrees>
            </Position>
            <AltitudeMeters>852.4000244140625</AltitudeMeters>
            <DistanceMeters>NAN</DistanceMeters>
          </Trackpoint>
          <Trackpoint>
            <Time>2019-08-01T17:02:05.000Z</Time>
            <Position>
              <LatitudeDegrees>40.54402110166847705841064453125</LatitudeDegrees>
              <LongitudeDegrees>-4.035934992134571075439453125</LongitudeDegrees>
            </Position>
            <AltitudeMeters>852.4000244140625</AltitudeMeters>
            <DistanceMeters>NAN</DistanceMeters>
          </Trackpoint>
          <Trackpoint>
            <Time>2019-08-01T17:02:06.000Z</Time>
            <Position>
              <LatitudeDegrees>40.54400551132857799530029296875</LatitudeDegrees>
              <LongitudeDegrees>-4.03602241538465023040771484375</LongitudeDegrees>
            </Position>
            <AltitudeMeters>852.4000244140625</AltitudeMeters>
            <DistanceMeters>NAN</DistanceMeters>
          </Trackpoint>
          <Trackpoint>
            <Time>2019-08-01T17:02:07.000Z</Time>
            <Position>
              <LatitudeDegrees>40.5439913459122180938720703125</LatitudeDegrees>
              <LongitudeDegrees>-4.0361095033586025238037109375</LongitudeDegrees>
            </Position>
            <AltitudeMeters>852.4000244140625</AltitudeMeters>
            <DistanceMeters>NAN</DistanceMeters>
          </Trackpoint>
          <Trackpoint>
            <Time>2019-08-01T17:02:09.000Z</Time>
            <Position>
              <LatitudeDegrees>40.54396712221205234527587890625</LatitudeDegrees>
              <LongitudeDegrees>-4.03628292493522167205810546875</LongitudeDegrees>
            </Position>
            <AltitudeMeters>852.4000244140625</AltitudeMeters>
            <DistanceMeters>NAN</DistanceMeters>
          </Trackpoint>
          <Trackpoint>
            <Time>2019-08-01T17:02:10.000Z</Time>
            <Position>
              <LatitudeDegrees>40.54395572282373905181884765625</LatitudeDegrees>
              <LongitudeDegrees>-4.03636791743338108062744140625</LongitudeDegrees>
            </Position>
            <AltitudeMeters>852.20001220703125</AltitudeMeters>
            <DistanceMeters>NAN</DistanceMeters>
          </Trackpoint>
          <Trackpoint>
            <Time>2019-08-01T17:02:11.000Z</Time>
            <Position>
              <LatitudeDegrees>40.5439430661499500274658203125</LatitudeDegrees>
              <LongitudeDegrees>-4.0364523231983184814453125</LongitudeDegrees>
            </Position>
            <AltitudeMeters>852.20001220703125</AltitudeMeters>
            <DistanceMeters>NAN</DistanceMeters>
          </Trackpoint>
          <Trackpoint>
            <Time>2019-08-01T17:02:12.000Z</Time>
            <Position>
              <LatitudeDegrees>40.54393024183809757232666015625</LatitudeDegrees>
              <LongitudeDegrees>-4.03653589077293872833251953125</LongitudeDegrees>
            </Position>
            <AltitudeMeters>852.20001220703125</AltitudeMeters>
            <DistanceMeters>NAN</DistanceMeters>
          </Trackpoint>
          <Trackpoint>
            <Time>2019-08-01T17:02:13.000Z</Time>
            <Position>
              <LatitudeDegrees>40.5439189262688159942626953125</LatitudeDegrees>
              <LongitudeDegrees>-4.03661929070949554443359375</LongitudeDegrees>
            </Position>
            <AltitudeMeters>852.20001220703125</AltitudeMeters>
            <DistanceMeters>NAN</DistanceMeters>
          </Trackpoint>
          <Trackpoint>
            <Time>2019-08-01T17:02:15.000Z</Time>
            <Position>
              <LatitudeDegrees>40.54389839060604572296142578125</LatitudeDegrees>
              <LongitudeDegrees>-4.03678332455456256866455078125</LongitudeDegrees>
            </Position>
            <AltitudeMeters>852</AltitudeMeters>
            <DistanceMeters>NAN</DistanceMeters>
          </Trackpoint>
          <Trackpoint>
            <Time>2019-08-01T17:02:16.000Z</Time>
            <Position>
              <LatitudeDegrees>40.543887913227081298828125</LatitudeDegrees>
              <LongitudeDegrees>-4.03686244972050189971923828125</LongitudeDegrees>
            </Position>
            <AltitudeMeters>852</AltitudeMeters>
            <DistanceMeters>NAN</DistanceMeters>
          </Trackpoint>
          <Trackpoint>
            <Time>2019-08-01T17:02:17.000Z</Time>
            <Position>
              <LatitudeDegrees>40.543877519667148590087890625</LatitudeDegrees>
              <LongitudeDegrees>-4.03694023378193378448486328125</LongitudeDegrees>
            </Position>
            <AltitudeMeters>852</AltitudeMeters>
            <DistanceMeters>NAN</DistanceMeters>
          </Trackpoint>
          <Trackpoint>
            <Time>2019-08-01T17:02:18.000Z</Time>
            <Position>
              <LatitudeDegrees>40.54386670701205730438232421875</LatitudeDegrees>
              <LongitudeDegrees>-4.03701634146273136138916015625</LongitudeDegrees>
            </Position>
            <AltitudeMeters>852</AltitudeMeters>
            <DistanceMeters>NAN</DistanceMeters>
          </Trackpoint>
          <Trackpoint>
            <Time>2019-08-01T17:02:19.000Z</Time>
            <Position>
              <LatitudeDegrees>40.54385631345212459564208984375</LatitudeDegrees>
              <LongitudeDegrees>-4.0370911918580532073974609375</LongitudeDegrees>
            </Position>
            <AltitudeMeters>852</AltitudeMeters>
            <DistanceMeters>NAN</DistanceMeters>
          </Trackpoint>
          <Trackpoint>
            <Time>2019-08-01T17:02:20.000Z</Time>
            <Position>
              <LatitudeDegrees>40.5438461713492870330810546875</LatitudeDegrees>
              <LongitudeDegrees>-4.037165455520153045654296875</LongitudeDegrees>
            </Position>
            <AltitudeMeters>852</AltitudeMeters>
            <DistanceMeters>NAN</DistanceMeters>
          </Trackpoint>
          <Trackpoint>
            <Time>2019-08-01T17:02:21.000Z</Time>
            <Position>
              <LatitudeDegrees>40.5438356101512908935546875</LatitudeDegrees>
              <LongitudeDegrees>-4.03723913244903087615966796875</LongitudeDegrees>
            </Position>
            <AltitudeMeters>852</AltitudeMeters>
            <DistanceMeters>NAN</DistanceMeters>
          </Trackpoint>
          <Trackpoint>
            <Time>2019-08-01T17:02:22.000Z</Time>
            <Position>
              <LatitudeDegrees>40.5438253842294216156005859375</LatitudeDegrees>
              <LongitudeDegrees>-4.0373131446540355682373046875</LongitudeDegrees>
            </Position>
            <AltitudeMeters>851.79998779296875</AltitudeMeters>
            <DistanceMeters>NAN</DistanceMeters>
          </Trackpoint>
          <Trackpoint>
            <Time>2019-08-01T17:02:23.000Z</Time>
            <Position>
              <LatitudeDegrees>40.5438149906694889068603515625</LatitudeDegrees>
              <LongitudeDegrees>-4.03738765977323055267333984375</LongitudeDegrees>
            </Position>
            <AltitudeMeters>851.79998779296875</AltitudeMeters>
            <DistanceMeters>NAN</DistanceMeters>
          </Trackpoint>
          <Trackpoint>
            <Time>2019-08-01T17:02:24.000Z</Time>
            <Position>
              <LatitudeDegrees>40.543805100023746490478515625</LatitudeDegrees>
              <LongitudeDegrees>-4.0374626778066158294677734375</LongitudeDegrees>
            </Position>
            <AltitudeMeters>851.79998779296875</AltitudeMeters>
            <DistanceMeters>NAN</DistanceMeters>
          </Trackpoint>
          <Trackpoint>
            <Time>2019-08-01T17:02:25.000Z</Time>
            <Position>
              <LatitudeDegrees>40.5437958799302577972412109375</LatitudeDegrees>
              <LongitudeDegrees>-4.03753769584000110626220703125</LongitudeDegrees>
            </Position>
            <AltitudeMeters>851.79998779296875</AltitudeMeters>
            <DistanceMeters>NAN</DistanceMeters>
          </Trackpoint>
          <Trackpoint>
            <Time>2019-08-01T17:02:26.000Z</Time>
            <Position>
              <LatitudeDegrees>40.54378573782742023468017578125</LatitudeDegrees>
              <LongitudeDegrees>-4.037612713873386383056640625</LongitudeDegrees>
            </Position>
            <AltitudeMeters>851.79998779296875</AltitudeMeters>
            <DistanceMeters>NAN</DistanceMeters>
          </Trackpoint>
          <Trackpoint>
            <Time>2019-08-01T17:02:27.000Z</Time>
            <Position>
              <LatitudeDegrees>40.54377517662942409515380859375</LatitudeDegrees>
              <LongitudeDegrees>-4.0376879833638668060302734375</LongitudeDegrees>
            </Position>
            <AltitudeMeters>851.79998779296875</AltitudeMeters>
            <DistanceMeters>NAN</DistanceMeters>
          </Trackpoint>
          <Trackpoint>
            <Time>2019-08-01T17:02:28.000Z</Time>
            <Position>
              <LatitudeDegrees>40.54376520216464996337890625</LatitudeDegrees>
              <LongitudeDegrees>-4.0377637557685375213623046875</LongitudeDegrees>
            </Position>
            <AltitudeMeters>851.79998779296875</AltitudeMeters>
            <DistanceMeters>NAN</DistanceMeters>
          </Trackpoint>
          <Trackpoint>
            <Time>2019-08-01T17:02:30.000Z</Time>
            <Position>
              <LatitudeDegrees>40.54374416358768939971923828125</LatitudeDegrees>
              <LongitudeDegrees>-4.0379168093204498291015625</LongitudeDegrees>
            </Position>
            <AltitudeMeters>851.79998779296875</AltitudeMeters>
            <DistanceMeters>NAN</DistanceMeters>
          </Trackpoint>
          <Trackpoint>
            <Time>2019-08-01T17:02:31.000Z</Time>
            <Position>
              <LatitudeDegrees>40.5437328480184078216552734375</LatitudeDegrees>
              <LongitudeDegrees>-4.03799585066735744476318359375</LongitudeDegrees>
            </Position>
            <AltitudeMeters>851.79998779296875</AltitudeMeters>
            <DistanceMeters>NAN</DistanceMeters>
          </Trackpoint>
          <Trackpoint>
            <Time>2019-08-01T17:02:32.000Z</Time>
            <Position>
              <LatitudeDegrees>40.5437211133539676666259765625</LatitudeDegrees>
              <LongitudeDegrees>-4.03807598166167736053466796875</LongitudeDegrees>
            </Position>
            <AltitudeMeters>851.5999755859375</AltitudeMeters>
            <DistanceMeters>NAN</DistanceMeters>
          </Trackpoint>
          <Trackpoint>
            <Time>2019-08-01T17:02:33.000Z</Time>
            <Position>
              <LatitudeDegrees>40.54370979778468608856201171875</LatitudeDegrees>
              <LongitudeDegrees>-4.03815678320825099945068359375</LongitudeDegrees>
            </Position>
            <AltitudeMeters>851.5999755859375</AltitudeMeters>
            <DistanceMeters>NAN</DistanceMeters>
          </Trackpoint>
          <Trackpoint>
            <Time>2019-08-01T17:02:34.000Z</Time>
            <Position>
              <LatitudeDegrees>40.54369906894862651824951171875</LatitudeDegrees>
              <LongitudeDegrees>-4.03823691420257091522216796875</LongitudeDegrees>
            </Position>
            <AltitudeMeters>851.4000244140625</AltitudeMeters>
            <DistanceMeters>NAN</DistanceMeters>
          </Trackpoint>
          <Trackpoint>
            <Time>2019-08-01T17:02:35.000Z</Time>
            <Position>
              <LatitudeDegrees>40.54368834011256694793701171875</LatitudeDegrees>
              <LongitudeDegrees>-4.03831712901592254638671875</LongitudeDegrees>
            </Position>
            <AltitudeMeters>851.4000244140625</AltitudeMeters>
            <DistanceMeters>NAN</DistanceMeters>
          </Trackpoint>
          <Trackpoint>
            <Time>2019-08-01T17:02:36.000Z</Time>
            <Position>
              <LatitudeDegrees>40.543677024543285369873046875</LatitudeDegrees>
              <LongitudeDegrees>-4.038398265838623046875</LongitudeDegrees>
            </Position>
            <AltitudeMeters>851.5999755859375</AltitudeMeters>
            <DistanceMeters>NAN</DistanceMeters>
          </Trackpoint>
          <Trackpoint>
            <Time>2019-08-01T17:02:37.000Z</Time>
            <Position>
              <LatitudeDegrees>40.54366503842175006866455078125</LatitudeDegrees>
              <LongitudeDegrees>-4.03847982175648212432861328125</LongitudeDegrees>
            </Position>
            <AltitudeMeters>851.4000244140625</AltitudeMeters>
            <DistanceMeters>NAN</DistanceMeters>
          </Trackpoint>
          <Trackpoint>
            <Time>2019-08-01T17:02:38.000Z</Time>
            <Position>
              <LatitudeDegrees>40.5436527170240879058837890625</LatitudeDegrees>
              <LongitudeDegrees>-4.0385620482265949249267578125</LongitudeDegrees>
            </Position>
            <AltitudeMeters>851.4000244140625</AltitudeMeters>
            <DistanceMeters>NAN</DistanceMeters>
          </Trackpoint>
          <Trackpoint>
            <Time>2019-08-01T17:02:39.000Z</Time>
            <Position>
              <LatitudeDegrees>40.54364089854061603546142578125</LatitudeDegrees>
              <LongitudeDegrees>-4.038645364344120025634765625</LongitudeDegrees>
            </Position>
            <AltitudeMeters>851.20001220703125</AltitudeMeters>
            <DistanceMeters>NAN</DistanceMeters>
          </Trackpoint>
          <Trackpoint>
            <Time>2019-08-01T17:02:41.000Z</Time>
            <Position>
              <LatitudeDegrees>40.54361592046916484832763671875</LatitudeDegrees>
              <LongitudeDegrees>-4.03881124220788478851318359375</LongitudeDegrees>
            </Position>
            <AltitudeMeters>851</AltitudeMeters>
            <DistanceMeters>NAN</DistanceMeters>
          </Trackpoint>
          <Trackpoint>
            <Time>2019-08-01T17:02:42.000Z</Time>
            <Position>
              <LatitudeDegrees>40.54360368289053440093994140625</LatitudeDegrees>
              <LongitudeDegrees>-4.03889422304928302764892578125</LongitudeDegrees>
            </Position>
            <AltitudeMeters>850.79998779296875</AltitudeMeters>
            <DistanceMeters>NAN</DistanceMeters>
          </Trackpoint>
          <Trackpoint>
            <Time>2019-08-01T17:02:43.000Z</Time>
            <Position>
              <LatitudeDegrees>40.54359178058803081512451171875</LatitudeDegrees>
              <LongitudeDegrees>-4.038977287709712982177734375</LongitudeDegrees>
            </Position>
            <AltitudeMeters>850.79998779296875</AltitudeMeters>
            <DistanceMeters>NAN</DistanceMeters>
          </Trackpoint>
          <Trackpoint>
            <Time>2019-08-01T17:02:44.000Z</Time>
            <Position>
              <LatitudeDegrees>40.54358038119971752166748046875</LatitudeDegrees>
              <LongitudeDegrees>-4.03906010091304779052734375</LongitudeDegrees>
            </Position>
            <AltitudeMeters>850.79998779296875</AltitudeMeters>
            <DistanceMeters>NAN</DistanceMeters>
          </Trackpoint>
          <Trackpoint>
            <Time>2019-08-01T17:02:46.000Z</Time>
            <Position>
              <LatitudeDegrees>40.54355733096599578857421875</LatitudeDegrees>
              <LongitudeDegrees>-4.03922245837748050689697265625</LongitudeDegrees>
            </Position>
            <AltitudeMeters>850.79998779296875</AltitudeMeters>
            <DistanceMeters>NAN</DistanceMeters>
          </Trackpoint>
          <Trackpoint>
            <Time>2019-08-01T17:02:47.000Z</Time>
            <Position>
              <LatitudeDegrees>40.54354635067284107208251953125</LatitudeDegrees>
              <LongitudeDegrees>-4.03930242173373699188232421875</LongitudeDegrees>
            </Position>
            <AltitudeMeters>850.79998779296875</AltitudeMeters>
            <DistanceMeters>NAN</DistanceMeters>
          </Trackpoint>
          <Trackpoint>
            <Time>2019-08-01T17:02:48.000Z</Time>
            <Position>
              <LatitudeDegrees>40.5435352027416229248046875</LatitudeDegrees>
              <LongitudeDegrees>-4.03938154689967632293701171875</LongitudeDegrees>
            </Position>
            <AltitudeMeters>850.79998779296875</AltitudeMeters>
            <DistanceMeters>NAN</DistanceMeters>
          </Trackpoint>
          <Trackpoint>
            <Time>2019-08-01T17:02:49.000Z</Time>
            <Position>
              <LatitudeDegrees>40.54352405481040477752685546875</LatitudeDegrees>
              <LongitudeDegrees>-4.0394602529704570770263671875</LongitudeDegrees>
            </Position>
            <AltitudeMeters>850.79998779296875</AltitudeMeters>
            <DistanceMeters>NAN</DistanceMeters>
          </Trackpoint>
          <Trackpoint>
            <Time>2019-08-01T17:02:50.000Z</Time>
            <Position>
              <LatitudeDegrees>40.543512739241123199462890625</LatitudeDegrees>
              <LongitudeDegrees>-4.03953962959349155426025390625</LongitudeDegrees>
            </Position>
            <AltitudeMeters>851</AltitudeMeters>
            <DistanceMeters>NAN</DistanceMeters>
          </Trackpoint>
          <Trackpoint>
            <Time>2019-08-01T17:02:51.000Z</Time>
            <Position>
              <LatitudeDegrees>40.5435008369386196136474609375</LatitudeDegrees>
              <LongitudeDegrees>-4.03961892239749431610107421875</LongitudeDegrees>
            </Position>
            <AltitudeMeters>851</AltitudeMeters>
            <DistanceMeters>NAN</DistanceMeters>
          </Trackpoint>
          <Trackpoint>
            <Time>2019-08-01T17:02:52.000Z</Time>
            <Position>
              <LatitudeDegrees>40.54348952136933803558349609375</LatitudeDegrees>
              <LongitudeDegrees>-4.03969972394406795501708984375</LongitudeDegrees>
            </Position>
            <AltitudeMeters>851.20001220703125</AltitudeMeters>
            <DistanceMeters>NAN</DistanceMeters>
          </Trackpoint>
          <Trackpoint>
            <Time>2019-08-01T17:02:53.000Z</Time>
            <Position>
              <LatitudeDegrees>40.54347845725715160369873046875</LatitudeDegrees>
              <LongitudeDegrees>-4.03978287242352962493896484375</LongitudeDegrees>
            </Position>
            <AltitudeMeters>851.20001220703125</AltitudeMeters>
            <DistanceMeters>NAN</DistanceMeters>
          </Trackpoint>
          <Trackpoint>
            <Time>2019-08-01T17:02:54.000Z</Time>
            <Position>
              <LatitudeDegrees>40.54346672259271144866943359375</LatitudeDegrees>
              <LongitudeDegrees>-4.039867781102657318115234375</LongitudeDegrees>
            </Position>
            <AltitudeMeters>851.20001220703125</AltitudeMeters>
            <DistanceMeters>NAN</DistanceMeters>
          </Trackpoint>
          <Trackpoint>
            <Time>2019-08-01T17:02:55.000Z</Time>
            <Position>
              <LatitudeDegrees>40.54345515556633472442626953125</LatitudeDegrees>
              <LongitudeDegrees>-4.03995403088629245758056640625</LongitudeDegrees>
            </Position>
            <AltitudeMeters>851.4000244140625</AltitudeMeters>
            <DistanceMeters>NAN</DistanceMeters>
          </Trackpoint>
          <Trackpoint>
            <Time>2019-08-01T17:02:56.000Z</Time>
            <Position>
              <LatitudeDegrees>40.54344342090189456939697265625</LatitudeDegrees>
              <LongitudeDegrees>-4.04004178941249847412109375</LongitudeDegrees>
            </Position>
            <AltitudeMeters>851.4000244140625</AltitudeMeters>
            <DistanceMeters>NAN</DistanceMeters>
          </Trackpoint>
          <Trackpoint>
            <Time>2019-08-01T17:02:57.000Z</Time>
            <Position>
              <LatitudeDegrees>40.54343084804713726043701171875</LatitudeDegrees>
              <LongitudeDegrees>-4.04013005085289478302001953125</LongitudeDegrees>
            </Position>
            <AltitudeMeters>851.4000244140625</AltitudeMeters>
            <DistanceMeters>NAN</DistanceMeters>
          </Trackpoint>
          <Trackpoint>
            <Time>2019-08-01T17:02:58.000Z</Time>
            <Position>
              <LatitudeDegrees>40.5434186942875385284423828125</LatitudeDegrees>
              <LongitudeDegrees>-4.04021747410297393798828125</LongitudeDegrees>
            </Position>
            <AltitudeMeters>851.4000244140625</AltitudeMeters>
            <DistanceMeters>NAN</DistanceMeters>
          </Trackpoint>
          <Trackpoint>
            <Time>2019-08-01T17:02:59.000Z</Time>
            <Position>
              <LatitudeDegrees>40.54340704344213008880615234375</LatitudeDegrees>
              <LongitudeDegrees>-4.04030330479145050048828125</LongitudeDegrees>
            </Position>
            <AltitudeMeters>851.4000244140625</AltitudeMeters>
            <DistanceMeters>NAN</DistanceMeters>
          </Trackpoint>
          <Trackpoint>
            <Time>2019-08-01T17:03:00.000Z</Time>
            <Position>
              <LatitudeDegrees>40.54339581169188022613525390625</LatitudeDegrees>
              <LongitudeDegrees>-4.04038704000413417816162109375</LongitudeDegrees>
            </Position>
            <AltitudeMeters>851.4000244140625</AltitudeMeters>
            <DistanceMeters>NAN</DistanceMeters>
          </Trackpoint>
          <Trackpoint>
            <Time>2019-08-01T17:03:01.000Z</Time>
            <Position>
              <LatitudeDegrees>40.543383993208408355712890625</LatitudeDegrees>
              <LongitudeDegrees>-4.0404680930078029632568359375</LongitudeDegrees>
            </Position>
            <AltitudeMeters>851.5999755859375</AltitudeMeters>
            <DistanceMeters>NAN</DistanceMeters>
          </Trackpoint>
          <Trackpoint>
            <Time>2019-08-01T17:03:02.000Z</Time>
            <Position>
              <LatitudeDegrees>40.5433727614581584930419921875</LatitudeDegrees>
              <LongitudeDegrees>-4.04054738581180572509765625</LongitudeDegrees>
            </Position>
            <AltitudeMeters>851.5999755859375</AltitudeMeters>
            <DistanceMeters>NAN</DistanceMeters>
          </Trackpoint>
          <Trackpoint>
            <Time>2019-08-01T17:03:03.000Z</Time>
            <Position>
              <LatitudeDegrees>40.54336077533662319183349609375</LatitudeDegrees>
              <LongitudeDegrees>-4.04062525369226932525634765625</LongitudeDegrees>
            </Position>
            <AltitudeMeters>851.5999755859375</AltitudeMeters>
            <DistanceMeters>NAN</DistanceMeters>
          </Trackpoint>
          <Trackpoint>
            <Time>2019-08-01T17:03:04.000Z</Time>
            <Position>
              <LatitudeDegrees>40.5433459393680095672607421875</LatitudeDegrees>
              <LongitudeDegrees>-4.040699936449527740478515625</LongitudeDegrees>
            </Position>
            <AltitudeMeters>851.5999755859375</AltitudeMeters>
            <DistanceMeters>NAN</DistanceMeters>
          </Trackpoint>
          <Trackpoint>
            <Time>2019-08-01T17:03:05.000Z</Time>
            <Position>
              <LatitudeDegrees>40.5433268286287784576416015625</LatitudeDegrees>
              <LongitudeDegrees>-4.04077093116939067840576171875</LongitudeDegrees>
            </Position>
            <AltitudeMeters>851.5999755859375</AltitudeMeters>
            <DistanceMeters>NAN</DistanceMeters>
          </Trackpoint>
          <Trackpoint>
            <Time>2019-08-01T17:03:06.000Z</Time>
            <Position>
              <LatitudeDegrees>40.543303191661834716796875</LatitudeDegrees>
              <LongitudeDegrees>-4.04083907604217529296875</LongitudeDegrees>
            </Position>
            <AltitudeMeters>851.5999755859375</AltitudeMeters>
            <DistanceMeters>NAN</DistanceMeters>
          </Trackpoint>
          <Trackpoint>
            <Time>2019-08-01T17:03:07.000Z</Time>
            <Position>
              <LatitudeDegrees>40.5432748608291149139404296875</LatitudeDegrees>
              <LongitudeDegrees>-4.0409049578011035919189453125</LongitudeDegrees>
            </Position>
            <AltitudeMeters>851.79998779296875</AltitudeMeters>
            <DistanceMeters>NAN</DistanceMeters>
          </Trackpoint>
          <Trackpoint>
            <Time>2019-08-01T17:03:08.000Z</Time>
            <Position>
              <LatitudeDegrees>40.5432420037686824798583984375</LatitudeDegrees>
              <LongitudeDegrees>-4.04096974991261959075927734375</LongitudeDegrees>
            </Position>
            <AltitudeMeters>851.79998779296875</AltitudeMeters>
            <DistanceMeters>NAN</DistanceMeters>
          </Trackpoint>
          <Trackpoint>
            <Time>2019-08-01T17:03:09.000Z</Time>
            <Position>
              <LatitudeDegrees>40.54320327937602996826171875</LatitudeDegrees>
              <LongitudeDegrees>-4.041031859815120697021484375</LongitudeDegrees>
            </Position>
            <AltitudeMeters>851.79998779296875</AltitudeMeters>
            <DistanceMeters>NAN</DistanceMeters>
          </Trackpoint>
          <Trackpoint>
            <Time>2019-08-01T17:03:10.000Z</Time>
            <Position>
              <LatitudeDegrees>40.54315994493663311004638671875</LatitudeDegrees>
              <LongitudeDegrees>-4.04109162278473377227783203125</LongitudeDegrees>
            </Position>
            <AltitudeMeters>852</AltitudeMeters>
            <DistanceMeters>NAN</DistanceMeters>
          </Trackpoint>
          <Trackpoint>
            <Time>2019-08-01T17:03:11.000Z</Time>
            <Position>
              <LatitudeDegrees>40.54311602376401424407958984375</LatitudeDegrees>
              <LongitudeDegrees>-4.04115046374499797821044921875</LongitudeDegrees>
            </Position>
            <AltitudeMeters>852.20001220703125</AltitudeMeters>
            <DistanceMeters>NAN</DistanceMeters>
          </Trackpoint>
          <Trackpoint>
            <Time>2019-08-01T17:03:12.000Z</Time>
            <Position>
              <LatitudeDegrees>40.5430720187723636627197265625</LatitudeDegrees>
              <LongitudeDegrees>-4.04120863415300846099853515625</LongitudeDegrees>
            </Position>
            <AltitudeMeters>852.4000244140625</AltitudeMeters>
            <DistanceMeters>NAN</DistanceMeters>
          </Trackpoint>
          <Trackpoint>
            <Time>2019-08-01T17:03:13.000Z</Time>
            <Position>
              <LatitudeDegrees>40.54302868433296680450439453125</LatitudeDegrees>
              <LongitudeDegrees>-4.0412660501897335052490234375</LongitudeDegrees>
            </Position>
            <AltitudeMeters>852.4000244140625</AltitudeMeters>
            <DistanceMeters>NAN</DistanceMeters>
          </Trackpoint>
          <Trackpoint>
            <Time>2019-08-01T17:03:15.000Z</Time>
            <Position>
              <LatitudeDegrees>40.54294352419674396514892578125</LatitudeDegrees>
              <LongitudeDegrees>-4.0413768589496612548828125</LongitudeDegrees>
            </Position>
            <AltitudeMeters>852.79998779296875</AltitudeMeters>
            <DistanceMeters>NAN</DistanceMeters>
          </Trackpoint>
          <Trackpoint>
            <Time>2019-08-01T17:03:17.000Z</Time>
            <Position>
              <LatitudeDegrees>40.5428592860698699951171875</LatitudeDegrees>
              <LongitudeDegrees>-4.0414921939373016357421875</LongitudeDegrees>
            </Position>
            <AltitudeMeters>853</AltitudeMeters>
            <DistanceMeters>NAN</DistanceMeters>
          </Trackpoint>
          <Trackpoint>
            <Time>2019-08-01T17:03:18.000Z</Time>
            <Position>
              <LatitudeDegrees>40.5428162030875682830810546875</LatitudeDegrees>
              <LongitudeDegrees>-4.04155480675399303436279296875</LongitudeDegrees>
            </Position>
            <AltitudeMeters>853</AltitudeMeters>
            <DistanceMeters>NAN</DistanceMeters>
          </Trackpoint>
          <Trackpoint>
            <Time>2019-08-01T17:03:19.000Z</Time>
            <Position>
              <LatitudeDegrees>40.54277278482913970947265625</LatitudeDegrees>
              <LongitudeDegrees>-4.0416201017796993255615234375</LongitudeDegrees>
            </Position>
            <AltitudeMeters>853</AltitudeMeters>
            <DistanceMeters>NAN</DistanceMeters>
          </Trackpoint>
          <Trackpoint>
            <Time>2019-08-01T17:03:20.000Z</Time>
            <Position>
              <LatitudeDegrees>40.54273196496069431304931640625</LatitudeDegrees>
              <LongitudeDegrees>-4.04168942011892795562744140625</LongitudeDegrees>
            </Position>
            <AltitudeMeters>853.20001220703125</AltitudeMeters>
            <DistanceMeters>NAN</DistanceMeters>
          </Trackpoint>
          <Trackpoint>
            <Time>2019-08-01T17:03:21.000Z</Time>
            <Position>
              <LatitudeDegrees>40.5426941625773906707763671875</LatitudeDegrees>
              <LongitudeDegrees>-4.041764102876186370849609375</LongitudeDegrees>
            </Position>
            <AltitudeMeters>853.20001220703125</AltitudeMeters>
            <DistanceMeters>NAN</DistanceMeters>
          </Trackpoint>
          <Trackpoint>
            <Time>2019-08-01T17:03:22.000Z</Time>
            <Position>
              <LatitudeDegrees>40.5426606349647045135498046875</LatitudeDegrees>
              <LongitudeDegrees>-4.0418435633182525634765625</LongitudeDegrees>
            </Position>
            <AltitudeMeters>853.20001220703125</AltitudeMeters>
            <DistanceMeters>NAN</DistanceMeters>
          </Trackpoint>
          <Trackpoint>
            <Time>2019-08-01T17:03:23.000Z</Time>
            <Position>
              <LatitudeDegrees>40.54263071157038211822509765625</LatitudeDegrees>
              <LongitudeDegrees>-4.0419268794357776641845703125</LongitudeDegrees>
            </Position>
            <AltitudeMeters>853</AltitudeMeters>
            <DistanceMeters>NAN</DistanceMeters>
          </Trackpoint>
          <Trackpoint>
            <Time>2019-08-01T17:03:24.000Z</Time>
            <Position>
              <LatitudeDegrees>40.54260355420410633087158203125</LatitudeDegrees>
              <LongitudeDegrees>-4.04201329685747623443603515625</LongitudeDegrees>
            </Position>
            <AltitudeMeters>853</AltitudeMeters>
            <DistanceMeters>NAN</DistanceMeters>
          </Trackpoint>
          <Trackpoint>
            <Time>2019-08-01T17:03:25.000Z</Time>
            <Position>
              <LatitudeDegrees>40.54257773794233798980712890625</LatitudeDegrees>
              <LongitudeDegrees>-4.04210147447884082794189453125</LongitudeDegrees>
            </Position>
            <AltitudeMeters>853.20001220703125</AltitudeMeters>
            <DistanceMeters>NAN</DistanceMeters>
          </Trackpoint>
          <Trackpoint>
            <Time>2019-08-01T17:03:26.000Z</Time>
            <Position>
              <LatitudeDegrees>40.54255074821412563323974609375</LatitudeDegrees>
              <LongitudeDegrees>-4.04219099320471286773681640625</LongitudeDegrees>
            </Position>
            <AltitudeMeters>852.79998779296875</AltitudeMeters>
            <DistanceMeters>NAN</DistanceMeters>
          </Trackpoint>
          <Trackpoint>
            <Time>2019-08-01T17:03:27.000Z</Time>
            <Position>
              <LatitudeDegrees>40.5425238423049449920654296875</LatitudeDegrees>
              <LongitudeDegrees>-4.0422822721302509307861328125</LongitudeDegrees>
            </Position>
            <AltitudeMeters>852.79998779296875</AltitudeMeters>
            <DistanceMeters>NAN</DistanceMeters>
          </Trackpoint>
          <Trackpoint>
            <Time>2019-08-01T17:03:28.000Z</Time>
            <Position>
              <LatitudeDegrees>40.54249651730060577392578125</LatitudeDegrees>
              <LongitudeDegrees>-4.04237589798867702484130859375</LongitudeDegrees>
            </Position>
            <AltitudeMeters>852.79998779296875</AltitudeMeters>
            <DistanceMeters>NAN</DistanceMeters>
          </Trackpoint>
          <Trackpoint>
            <Time>2019-08-01T17:03:29.000Z</Time>
            <Position>
              <LatitudeDegrees>40.54246726445853710174560546875</LatitudeDegrees>
              <LongitudeDegrees>-4.04247128404676914215087890625</LongitudeDegrees>
            </Position>
            <AltitudeMeters>852.79998779296875</AltitudeMeters>
            <DistanceMeters>NAN</DistanceMeters>
          </Trackpoint>
          <Trackpoint>
            <Time>2019-08-01T17:03:30.000Z</Time>
            <Position>
              <LatitudeDegrees>40.542436502873897552490234375</LatitudeDegrees>
              <LongitudeDegrees>-4.04256843030452728271484375</LongitudeDegrees>
            </Position>
            <AltitudeMeters>852.79998779296875</AltitudeMeters>
            <DistanceMeters>NAN</DistanceMeters>
          </Trackpoint>
          <Trackpoint>
            <Time>2019-08-01T17:03:32.000Z</Time>
            <Position>
              <LatitudeDegrees>40.5423684418201446533203125</LatitudeDegrees>
              <LongitudeDegrees>-4.04276833869516849517822265625</LongitudeDegrees>
            </Position>
            <AltitudeMeters>852.79998779296875</AltitudeMeters>
            <DistanceMeters>NAN</DistanceMeters>
          </Trackpoint>
          <Trackpoint>
            <Time>2019-08-01T17:03:33.000Z</Time>
            <Position>
              <LatitudeDegrees>40.54233290255069732666015625</LatitudeDegrees>
              <LongitudeDegrees>-4.04287294484674930572509765625</LongitudeDegrees>
            </Position>
            <AltitudeMeters>852.5999755859375</AltitudeMeters>
            <DistanceMeters>NAN</DistanceMeters>
          </Trackpoint>
          <Trackpoint>
            <Time>2019-08-01T17:03:34.000Z</Time>
            <Position>
              <LatitudeDegrees>40.54229526780545711517333984375</LatitudeDegrees>
              <LongitudeDegrees>-4.04298040084540843963623046875</LongitudeDegrees>
            </Position>
            <AltitudeMeters>852.4000244140625</AltitudeMeters>
            <DistanceMeters>NAN</DistanceMeters>
          </Trackpoint>
          <Trackpoint>
            <Time>2019-08-01T17:03:35.000Z</Time>
            <Position>
              <LatitudeDegrees>40.54225620813667774200439453125</LatitudeDegrees>
              <LongitudeDegrees>-4.043089114129543304443359375</LongitudeDegrees>
            </Position>
            <AltitudeMeters>852.20001220703125</AltitudeMeters>
            <DistanceMeters>NAN</DistanceMeters>
          </Trackpoint>
          <Trackpoint>
            <Time>2019-08-01T17:03:37.000Z</Time>
            <Position>
              <LatitudeDegrees>40.542176999151706695556640625</LatitudeDegrees>
              <LongitudeDegrees>-4.04331232421100139617919921875</LongitudeDegrees>
            </Position>
            <AltitudeMeters>851.5999755859375</AltitudeMeters>
            <DistanceMeters>NAN</DistanceMeters>
          </Trackpoint>
          <Trackpoint>
            <Time>2019-08-01T17:03:38.000Z</Time>
            <Position>
              <LatitudeDegrees>40.54213752038776874542236328125</LatitudeDegrees>
              <LongitudeDegrees>-4.04342279769480228424072265625</LongitudeDegrees>
            </Position>
            <AltitudeMeters>851</AltitudeMeters>
            <DistanceMeters>NAN</DistanceMeters>
          </Trackpoint>
          <Trackpoint>
            <Time>2019-08-01T17:03:39.000Z</Time>
            <Position>
              <LatitudeDegrees>40.54209829308092594146728515625</LatitudeDegrees>
              <LongitudeDegrees>-4.04353134334087371826171875</LongitudeDegrees>
            </Position>
            <AltitudeMeters>850.4000244140625</AltitudeMeters>
            <DistanceMeters>NAN</DistanceMeters>
          </Trackpoint>
          <Trackpoint>
            <Time>2019-08-01T17:03:40.000Z</Time>
            <Position>
              <LatitudeDegrees>40.54205940105020999908447265625</LatitudeDegrees>
              <LongitudeDegrees>-4.0436377935111522674560546875</LongitudeDegrees>
            </Position>
            <AltitudeMeters>849.5999755859375</AltitudeMeters>
            <DistanceMeters>NAN</DistanceMeters>
          </Trackpoint>
          <Trackpoint>
            <Time>2019-08-01T17:03:41.000Z</Time>
            <Position>
              <LatitudeDegrees>40.54202117957174777984619140625</LatitudeDegrees>
              <LongitudeDegrees>-4.04374265111982822418212890625</LongitudeDegrees>
            </Position>
            <AltitudeMeters>849</AltitudeMeters>
            <DistanceMeters>NAN</DistanceMeters>
          </Trackpoint>
          <Trackpoint>
            <Time>2019-08-01T17:03:42.000Z</Time>
            <Position>
              <LatitudeDegrees>40.5419827066361904144287109375</LatitudeDegrees>
              <LongitudeDegrees>-4.0438463352620601654052734375</LongitudeDegrees>
            </Position>
            <AltitudeMeters>848.79998779296875</AltitudeMeters>
            <DistanceMeters>NAN</DistanceMeters>
          </Trackpoint>
          <Trackpoint>
            <Time>2019-08-01T17:03:43.000Z</Time>
            <Position>
              <LatitudeDegrees>40.54194532334804534912109375</LatitudeDegrees>
              <LongitudeDegrees>-4.04394901357591152191162109375</LongitudeDegrees>
            </Position>
            <AltitudeMeters>848.5999755859375</AltitudeMeters>
            <DistanceMeters>NAN</DistanceMeters>
          </Trackpoint>
          <Trackpoint>
            <Time>2019-08-01T17:03:44.000Z</Time>
            <Position>
              <LatitudeDegrees>40.54190886206924915313720703125</LatitudeDegrees>
              <LongitudeDegrees>-4.04405093751847743988037109375</LongitudeDegrees>
            </Position>
            <AltitudeMeters>848.4000244140625</AltitudeMeters>
            <DistanceMeters>NAN</DistanceMeters>
          </Trackpoint>
          <Trackpoint>
            <Time>2019-08-01T17:03:45.000Z</Time>
            <Position>
              <LatitudeDegrees>40.5418734066188335418701171875</LatitudeDegrees>
              <LongitudeDegrees>-4.044151268899440765380859375</LongitudeDegrees>
            </Position>
            <AltitudeMeters>848</AltitudeMeters>
            <DistanceMeters>NAN</DistanceMeters>
          </Trackpoint>
          <Trackpoint>
            <Time>2019-08-01T17:03:47.000Z</Time>
            <Position>
              <LatitudeDegrees>40.54180408827960491180419921875</LatitudeDegrees>
              <LongitudeDegrees>-4.0443465672433376312255859375</LongitudeDegrees>
            </Position>
            <AltitudeMeters>847.5999755859375</AltitudeMeters>
            <DistanceMeters>NAN</DistanceMeters>
          </Trackpoint>
          <Trackpoint>
            <Time>2019-08-01T17:03:48.000Z</Time>
            <Position>
              <LatitudeDegrees>40.541770644485950469970703125</LatitudeDegrees>
              <LongitudeDegrees>-4.04444170184433460235595703125</LongitudeDegrees>
            </Position>
            <AltitudeMeters>847.4000244140625</AltitudeMeters>
            <DistanceMeters>NAN</DistanceMeters>
          </Trackpoint>
          <Trackpoint>
            <Time>2019-08-01T17:03:49.000Z</Time>
            <Position>
              <LatitudeDegrees>40.54173745214939117431640625</LatitudeDegrees>
              <LongitudeDegrees>-4.04453507624566555023193359375</LongitudeDegrees>
            </Position>
            <AltitudeMeters>847.20001220703125</AltitudeMeters>
            <DistanceMeters>NAN</DistanceMeters>
          </Trackpoint>
          <Trackpoint>
            <Time>2019-08-01T17:03:51.000Z</Time>
            <Position>
              <LatitudeDegrees>40.54167215712368488311767578125</LatitudeDegrees>
              <LongitudeDegrees>-4.044718556106090545654296875</LongitudeDegrees>
            </Position>
            <AltitudeMeters>847</AltitudeMeters>
            <DistanceMeters>NAN</DistanceMeters>
          </Trackpoint>
          <Trackpoint>
            <Time>2019-08-01T17:03:52.000Z</Time>
            <Position>
              <LatitudeDegrees>40.54163829423487186431884765625</LatitudeDegrees>
              <LongitudeDegrees>-4.044810421764850616455078125</LongitudeDegrees>
            </Position>
            <AltitudeMeters>847</AltitudeMeters>
            <DistanceMeters>NAN</DistanceMeters>
          </Trackpoint>
          <Trackpoint>
            <Time>2019-08-01T17:03:53.000Z</Time>
            <Position>
              <LatitudeDegrees>40.5416040122509002685546875</LatitudeDegrees>
              <LongitudeDegrees>-4.044902622699737548828125</LongitudeDegrees>
            </Position>
            <AltitudeMeters>847</AltitudeMeters>
            <DistanceMeters>NAN</DistanceMeters>
          </Trackpoint>
          <Trackpoint>
            <Time>2019-08-01T17:03:54.000Z</Time>
            <Position>
              <LatitudeDegrees>40.5415699817240238189697265625</LatitudeDegrees>
              <LongitudeDegrees>-4.04499708674848079681396484375</LongitudeDegrees>
            </Position>
            <AltitudeMeters>846.79998779296875</AltitudeMeters>
            <DistanceMeters>NAN</DistanceMeters>
          </Trackpoint>
          <Trackpoint>
            <Time>2019-08-01T17:03:55.000Z</Time>
            <Position>
              <LatitudeDegrees>40.5415351130068302154541015625</LatitudeDegrees>
              <LongitudeDegrees>-4.0450928919017314910888671875</LongitudeDegrees>
            </Position>
            <AltitudeMeters>846.5999755859375</AltitudeMeters>
            <DistanceMeters>NAN</DistanceMeters>
          </Trackpoint>
          <Trackpoint>
            <Time>2019-08-01T17:03:57.000Z</Time>
            <Position>
              <LatitudeDegrees>40.5414640344679355621337890625</LatitudeDegrees>
              <LongitudeDegrees>-4.0452883578836917877197265625</LongitudeDegrees>
            </Position>
            <AltitudeMeters>846.4000244140625</AltitudeMeters>
            <DistanceMeters>NAN</DistanceMeters>
          </Trackpoint>
          <Trackpoint>
            <Time>2019-08-01T17:03:58.000Z</Time>
            <Position>
              <LatitudeDegrees>40.541431009769439697265625</LatitudeDegrees>
              <LongitudeDegrees>-4.04538600705564022064208984375</LongitudeDegrees>
            </Position>
            <AltitudeMeters>846.20001220703125</AltitudeMeters>
            <DistanceMeters>NAN</DistanceMeters>
          </Trackpoint>
          <Trackpoint>
            <Time>2019-08-01T17:03:59.000Z</Time>
            <Position>
              <LatitudeDegrees>40.54139873944222927093505859375</LatitudeDegrees>
              <LongitudeDegrees>-4.04548122547566890716552734375</LongitudeDegrees>
            </Position>
            <AltitudeMeters>846</AltitudeMeters>
            <DistanceMeters>NAN</DistanceMeters>
          </Trackpoint>
          <Trackpoint>
            <Time>2019-08-01T17:04:00.000Z</Time>
            <Position>
              <LatitudeDegrees>40.541365630924701690673828125</LatitudeDegrees>
              <LongitudeDegrees>-4.04557250440120697021484375</LongitudeDegrees>
            </Position>
            <AltitudeMeters>846</AltitudeMeters>
            <DistanceMeters>NAN</DistanceMeters>
          </Trackpoint>
          <Trackpoint>
            <Time>2019-08-01T17:04:02.000Z</Time>
            <Position>
              <LatitudeDegrees>40.54129899479448795318603515625</LatitudeDegrees>
              <LongitudeDegrees>-4.0457517094910144805908203125</LongitudeDegrees>
            </Position>
            <AltitudeMeters>845.79998779296875</AltitudeMeters>
            <DistanceMeters>NAN</DistanceMeters>
          </Trackpoint>
          <Trackpoint>
            <Time>2019-08-01T17:04:03.000Z</Time>
            <Position>
              <LatitudeDegrees>40.54126697592437267303466796875</LatitudeDegrees>
              <LongitudeDegrees>-4.04584030620753765106201171875</LongitudeDegrees>
            </Position>
            <AltitudeMeters>845.4000244140625</AltitudeMeters>
            <DistanceMeters>NAN</DistanceMeters>
          </Trackpoint>
          <Trackpoint>
            <Time>2019-08-01T17:04:05.000Z</Time>
            <Position>
              <LatitudeDegrees>40.54120595566928386688232421875</LatitudeDegrees>
              <LongitudeDegrees>-4.04601381160318851470947265625</LongitudeDegrees>
            </Position>
            <AltitudeMeters>845</AltitudeMeters>
            <DistanceMeters>NAN</DistanceMeters>
          </Trackpoint>
          <Trackpoint>
            <Time>2019-08-01T17:04:07.000Z</Time>
            <Position>
              <LatitudeDegrees>40.54114736616611480712890625</LatitudeDegrees>
              <LongitudeDegrees>-4.046181701123714447021484375</LongitudeDegrees>
            </Position>
            <AltitudeMeters>844.79998779296875</AltitudeMeters>
            <DistanceMeters>NAN</DistanceMeters>
          </Trackpoint>
          <Trackpoint>
            <Time>2019-08-01T17:04:08.000Z</Time>
            <Position>
              <LatitudeDegrees>40.54111920297145843505859375</LatitudeDegrees>
              <LongitudeDegrees>-4.04626375995576381683349609375</LongitudeDegrees>
            </Position>
            <AltitudeMeters>844.79998779296875</AltitudeMeters>
            <DistanceMeters>NAN</DistanceMeters>
          </Trackpoint>
          <Trackpoint>
            <Time>2019-08-01T17:04:09.000Z</Time>
            <Position>
              <LatitudeDegrees>40.54109028540551662445068359375</LatitudeDegrees>
              <LongitudeDegrees>-4.04634422622621059417724609375</LongitudeDegrees>
            </Position>
            <AltitudeMeters>844.79998779296875</AltitudeMeters>
            <DistanceMeters>NAN</DistanceMeters>
          </Trackpoint>
          <Trackpoint>
            <Time>2019-08-01T17:04:10.000Z</Time>
            <Position>
              <LatitudeDegrees>40.54105944000184535980224609375</LatitudeDegrees>
              <LongitudeDegrees>-4.04642268083989620208740234375</LongitudeDegrees>
            </Position>
            <AltitudeMeters>844.5999755859375</AltitudeMeters>
            <DistanceMeters>NAN</DistanceMeters>
          </Trackpoint>
          <Trackpoint>
            <Time>2019-08-01T17:04:11.000Z</Time>
            <Position>
              <LatitudeDegrees>40.54102272726595401763916015625</LatitudeDegrees>
              <LongitudeDegrees>-4.04649895615875720977783203125</LongitudeDegrees>
            </Position>
            <AltitudeMeters>844.5999755859375</AltitudeMeters>
            <DistanceMeters>NAN</DistanceMeters>
          </Trackpoint>
          <Trackpoint>
            <Time>2019-08-01T17:04:12.000Z</Time>
            <Position>
              <LatitudeDegrees>40.54098115302622318267822265625</LatitudeDegrees>
              <LongitudeDegrees>-4.0465721301734447479248046875</LongitudeDegrees>
            </Position>
            <AltitudeMeters>844.5999755859375</AltitudeMeters>
            <DistanceMeters>NAN</DistanceMeters>
          </Trackpoint>
          <Trackpoint>
            <Time>2019-08-01T17:04:13.000Z</Time>
            <Position>
              <LatitudeDegrees>40.54093689657747745513916015625</LatitudeDegrees>
              <LongitudeDegrees>-4.0466422028839588165283203125</LongitudeDegrees>
            </Position>
            <AltitudeMeters>844.5999755859375</AltitudeMeters>
            <DistanceMeters>NAN</DistanceMeters>
          </Trackpoint>
          <Trackpoint>
            <Time>2019-08-01T17:04:14.000Z</Time>
            <Position>
              <LatitudeDegrees>40.54089029319584369659423828125</LatitudeDegrees>
              <LongitudeDegrees>-4.046708084642887115478515625</LongitudeDegrees>
            </Position>
            <AltitudeMeters>844.5999755859375</AltitudeMeters>
            <DistanceMeters>NAN</DistanceMeters>
          </Trackpoint>
          <Trackpoint>
            <Time>2019-08-01T17:04:17.000Z</Time>
            <Position>
              <LatitudeDegrees>40.5407324619591236114501953125</LatitudeDegrees>
              <LongitudeDegrees>-4.04686524532735347747802734375</LongitudeDegrees>
            </Position>
            <AltitudeMeters>844.5999755859375</AltitudeMeters>
            <DistanceMeters>NAN</DistanceMeters>
          </Trackpoint>
          <Trackpoint>
            <Time>2019-08-01T17:04:18.000Z</Time>
            <Position>
              <LatitudeDegrees>40.54067437537014484405517578125</LatitudeDegrees>
              <LongitudeDegrees>-4.046907909214496612548828125</LongitudeDegrees>
            </Position>
            <AltitudeMeters>844.5999755859375</AltitudeMeters>
            <DistanceMeters>NAN</DistanceMeters>
          </Trackpoint>
          <Trackpoint>
            <Time>2019-08-01T17:04:19.000Z</Time>
            <Position>
              <LatitudeDegrees>40.540613941848278045654296875</LatitudeDegrees>
              <LongitudeDegrees>-4.04694554395973682403564453125</LongitudeDegrees>
            </Position>
            <AltitudeMeters>844.5999755859375</AltitudeMeters>
            <DistanceMeters>NAN</DistanceMeters>
          </Trackpoint>
          <Trackpoint>
            <Time>2019-08-01T17:04:20.000Z</Time>
            <Position>
              <LatitudeDegrees>40.54055132903158664703369140625</LatitudeDegrees>
              <LongitudeDegrees>-4.046976976096630096435546875</LongitudeDegrees>
            </Position>
            <AltitudeMeters>844.5999755859375</AltitudeMeters>
            <DistanceMeters>NAN</DistanceMeters>
          </Trackpoint>
          <Trackpoint>
            <Time>2019-08-01T17:04:21.000Z</Time>
            <Position>
              <LatitudeDegrees>40.54048695601522922515869140625</LatitudeDegrees>
              <LongitudeDegrees>-4.04700254090130329132080078125</LongitudeDegrees>
            </Position>
            <AltitudeMeters>844.5999755859375</AltitudeMeters>
            <DistanceMeters>NAN</DistanceMeters>
          </Trackpoint>
          <Trackpoint>
            <Time>2019-08-01T17:04:22.000Z</Time>
            <Position>
              <LatitudeDegrees>40.54042124189436435699462890625</LatitudeDegrees>
              <LongitudeDegrees>-4.04702282510697841644287109375</LongitudeDegrees>
            </Position>
            <AltitudeMeters>844.4000244140625</AltitudeMeters>
            <DistanceMeters>NAN</DistanceMeters>
          </Trackpoint>
          <Trackpoint>
            <Time>2019-08-01T17:04:23.000Z</Time>
            <Position>
              <LatitudeDegrees>40.54035519249737262725830078125</LatitudeDegrees>
              <LongitudeDegrees>-4.04703690670430660247802734375</LongitudeDegrees>
            </Position>
            <AltitudeMeters>844.4000244140625</AltitudeMeters>
            <DistanceMeters>NAN</DistanceMeters>
          </Trackpoint>
          <Trackpoint>
            <Time>2019-08-01T17:04:24.000Z</Time>
            <Position>
              <LatitudeDegrees>40.54028947837650775909423828125</LatitudeDegrees>
              <LongitudeDegrees>-4.04704369604587554931640625</LongitudeDegrees>
            </Position>
            <AltitudeMeters>844.4000244140625</AltitudeMeters>
            <DistanceMeters>NAN</DistanceMeters>
          </Trackpoint>
          <Trackpoint>
            <Time>2019-08-01T17:04:25.000Z</Time>
            <Position>
              <LatitudeDegrees>40.540224015712738037109375</LatitudeDegrees>
              <LongitudeDegrees>-4.047046713531017303466796875</LongitudeDegrees>
            </Position>
            <AltitudeMeters>844.4000244140625</AltitudeMeters>
            <DistanceMeters>NAN</DistanceMeters>
          </Trackpoint>
          <Trackpoint>
            <Time>2019-08-01T17:04:27.000Z</Time>
            <Position>
              <LatitudeDegrees>40.5400920845568180084228515625</LatitudeDegrees>
              <LongitudeDegrees>-4.04705434106290340423583984375</LongitudeDegrees>
            </Position>
            <AltitudeMeters>844.20001220703125</AltitudeMeters>
            <DistanceMeters>NAN</DistanceMeters>
          </Trackpoint>
          <Trackpoint>
            <Time>2019-08-01T17:04:28.000Z</Time>
            <Position>
              <LatitudeDegrees>40.54002578370273113250732421875</LatitudeDegrees>
              <LongitudeDegrees>-4.0470577776432037353515625</LongitudeDegrees>
            </Position>
            <AltitudeMeters>844.20001220703125</AltitudeMeters>
            <DistanceMeters>NAN</DistanceMeters>
          </Trackpoint>
          <Trackpoint>
            <Time>2019-08-01T17:04:29.000Z</Time>
            <Position>
              <LatitudeDegrees>40.539959482848644256591796875</LatitudeDegrees>
              <LongitudeDegrees>-4.047062136232852935791015625</LongitudeDegrees>
            </Position>
            <AltitudeMeters>844</AltitudeMeters>
            <DistanceMeters>NAN</DistanceMeters>
          </Trackpoint>
          <Trackpoint>
            <Time>2019-08-01T17:04:30.000Z</Time>
            <Position>
              <LatitudeDegrees>40.53989402018487453460693359375</LatitudeDegrees>
              <LongitudeDegrees>-4.04706557281315326690673828125</LongitudeDegrees>
            </Position>
            <AltitudeMeters>844</AltitudeMeters>
            <DistanceMeters>NAN</DistanceMeters>
          </Trackpoint>
          <Trackpoint>
            <Time>2019-08-01T17:04:31.000Z</Time>
            <Position>
              <LatitudeDegrees>40.539830066263675689697265625</LatitudeDegrees>
              <LongitudeDegrees>-4.0470686741173267364501953125</LongitudeDegrees>
            </Position>
            <AltitudeMeters>844</AltitudeMeters>
            <DistanceMeters>NAN</DistanceMeters>
          </Trackpoint>
          <Trackpoint>
            <Time>2019-08-01T17:04:32.000Z</Time>
            <Position>
              <LatitudeDegrees>40.53976661525666713714599609375</LatitudeDegrees>
              <LongitudeDegrees>-4.04707278124988079071044921875</LongitudeDegrees>
            </Position>
            <AltitudeMeters>844</AltitudeMeters>
            <DistanceMeters>NAN</DistanceMeters>
          </Trackpoint>
          <Trackpoint>
            <Time>2019-08-01T17:04:33.000Z</Time>
            <Position>
              <LatitudeDegrees>40.53970308043062686920166015625</LatitudeDegrees>
              <LongitudeDegrees>-4.04707663692533969879150390625</LongitudeDegrees>
            </Position>
            <AltitudeMeters>844</AltitudeMeters>
            <DistanceMeters>NAN</DistanceMeters>
          </Trackpoint>
          <Trackpoint>
            <Time>2019-08-01T17:04:34.000Z</Time>
            <Position>
              <LatitudeDegrees>40.5396401323378086090087890625</LatitudeDegrees>
              <LongitudeDegrees>-4.04708032496273517608642578125</LongitudeDegrees>
            </Position>
            <AltitudeMeters>844</AltitudeMeters>
            <DistanceMeters>NAN</DistanceMeters>
          </Trackpoint>
          <Trackpoint>
            <Time>2019-08-01T17:04:35.000Z</Time>
            <Position>
              <LatitudeDegrees>40.5395777709782123565673828125</LatitudeDegrees>
              <LongitudeDegrees>-4.0470840968191623687744140625</LongitudeDegrees>
            </Position>
            <AltitudeMeters>844</AltitudeMeters>
            <DistanceMeters>NAN</DistanceMeters>
          </Trackpoint>
          <Trackpoint>
            <Time>2019-08-01T17:04:36.000Z</Time>
            <Position>
              <LatitudeDegrees>40.53951532579958438873291015625</LatitudeDegrees>
              <LongitudeDegrees>-4.047088623046875</LongitudeDegrees>
            </Position>
            <AltitudeMeters>844</AltitudeMeters>
            <DistanceMeters>NAN</DistanceMeters>
          </Trackpoint>
          <Trackpoint>
            <Time>2019-08-01T17:04:37.000Z</Time>
            <Position>
              <LatitudeDegrees>40.5394530482590198516845703125</LatitudeDegrees>
              <LongitudeDegrees>-4.04709373600780963897705078125</LongitudeDegrees>
            </Position>
            <AltitudeMeters>844</AltitudeMeters>
            <DistanceMeters>NAN</DistanceMeters>
          </Trackpoint>
          <Trackpoint>
            <Time>2019-08-01T17:04:38.000Z</Time>
            <Position>
              <LatitudeDegrees>40.53939043544232845306396484375</LatitudeDegrees>
              <LongitudeDegrees>-4.0470981784164905548095703125</LongitudeDegrees>
            </Position>
            <AltitudeMeters>844</AltitudeMeters>
            <DistanceMeters>NAN</DistanceMeters>
          </Trackpoint>
          <Trackpoint>
            <Time>2019-08-01T17:04:39.000Z</Time>
            <Position>
              <LatitudeDegrees>40.53932748734951019287109375</LatitudeDegrees>
              <LongitudeDegrees>-4.0471018664538860321044921875</LongitudeDegrees>
            </Position>
            <AltitudeMeters>844</AltitudeMeters>
            <DistanceMeters>NAN</DistanceMeters>
          </Trackpoint>
          <Trackpoint>
            <Time>2019-08-01T17:04:40.000Z</Time>
            <Position>
              <LatitudeDegrees>40.53926370106637477874755859375</LatitudeDegrees>
              <LongitudeDegrees>-4.047105722129344940185546875</LongitudeDegrees>
            </Position>
            <AltitudeMeters>843.79998779296875</AltitudeMeters>
            <DistanceMeters>NAN</DistanceMeters>
          </Trackpoint>
          <Trackpoint>
            <Time>2019-08-01T17:04:41.000Z</Time>
            <Position>
              <LatitudeDegrees>40.539199411869049072265625</LatitudeDegrees>
              <LongitudeDegrees>-4.04711016453802585601806640625</LongitudeDegrees>
            </Position>
            <AltitudeMeters>843.79998779296875</AltitudeMeters>
            <DistanceMeters>NAN</DistanceMeters>
          </Trackpoint>
          <Trackpoint>
            <Time>2019-08-01T17:04:42.000Z</Time>
            <Position>
              <LatitudeDegrees>40.5391365475952625274658203125</LatitudeDegrees>
              <LongitudeDegrees>-4.0471149422228336334228515625</LongitudeDegrees>
            </Position>
            <AltitudeMeters>843.79998779296875</AltitudeMeters>
            <DistanceMeters>NAN</DistanceMeters>
          </Trackpoint>
          <Trackpoint>
            <Time>2019-08-01T17:04:43.000Z</Time>
            <Position>
              <LatitudeDegrees>40.53907477296888828277587890625</LatitudeDegrees>
              <LongitudeDegrees>-4.04711921699345111846923828125</LongitudeDegrees>
            </Position>
            <AltitudeMeters>843.5999755859375</AltitudeMeters>
            <DistanceMeters>NAN</DistanceMeters>
          </Trackpoint>
          <Trackpoint>
            <Time>2019-08-01T17:04:44.000Z</Time>
            <Position>
              <LatitudeDegrees>40.53901207633316516876220703125</LatitudeDegrees>
              <LongitudeDegrees>-4.04712290503084659576416015625</LongitudeDegrees>
            </Position>
            <AltitudeMeters>843.5999755859375</AltitudeMeters>
            <DistanceMeters>NAN</DistanceMeters>
          </Trackpoint>
          <Trackpoint>
            <Time>2019-08-01T17:04:45.000Z</Time>
            <Position>
              <LatitudeDegrees>40.53894854150712490081787109375</LatitudeDegrees>
              <LongitudeDegrees>-4.04712659306824207305908203125</LongitudeDegrees>
            </Position>
            <AltitudeMeters>843.5999755859375</AltitudeMeters>
            <DistanceMeters>NAN</DistanceMeters>
          </Trackpoint>
          <Trackpoint>
            <Time>2019-08-01T17:04:46.000Z</Time>
            <Position>
              <LatitudeDegrees>40.538884587585926055908203125</LatitudeDegrees>
              <LongitudeDegrees>-4.04713086783885955810546875</LongitudeDegrees>
            </Position>
            <AltitudeMeters>843.5999755859375</AltitudeMeters>
            <DistanceMeters>NAN</DistanceMeters>
          </Trackpoint>
          <Trackpoint>
            <Time>2019-08-01T17:04:47.000Z</Time>
            <Position>
              <LatitudeDegrees>40.53881946019828319549560546875</LatitudeDegrees>
              <LongitudeDegrees>-4.0471355617046356201171875</LongitudeDegrees>
            </Position>
            <AltitudeMeters>843.5999755859375</AltitudeMeters>
            <DistanceMeters>NAN</DistanceMeters>
          </Trackpoint>
          <Trackpoint>
            <Time>2019-08-01T17:04:48.000Z</Time>
            <Position>
              <LatitudeDegrees>40.5387550033628940582275390625</LatitudeDegrees>
              <LongitudeDegrees>-4.0471409261226654052734375</LongitudeDegrees>
            </Position>
            <AltitudeMeters>843.5999755859375</AltitudeMeters>
            <DistanceMeters>NAN</DistanceMeters>
          </Trackpoint>
          <Trackpoint>
            <Time>2019-08-01T17:04:49.000Z</Time>
            <Position>
              <LatitudeDegrees>40.53869222290813922882080078125</LatitudeDegrees>
              <LongitudeDegrees>-4.04714587144553661346435546875</LongitudeDegrees>
            </Position>
            <AltitudeMeters>843.5999755859375</AltitudeMeters>
            <DistanceMeters>NAN</DistanceMeters>
          </Trackpoint>
          <Trackpoint>
            <Time>2019-08-01T17:04:50.000Z</Time>
            <Position>
              <LatitudeDegrees>40.53863002918660640716552734375</LatitudeDegrees>
              <LongitudeDegrees>-4.0471504814922809600830078125</LongitudeDegrees>
            </Position>
            <AltitudeMeters>843.5999755859375</AltitudeMeters>
            <DistanceMeters>NAN</DistanceMeters>
          </Trackpoint>
          <Trackpoint>
            <Time>2019-08-01T17:04:51.000Z</Time>
            <Position>
              <LatitudeDegrees>40.53856783546507358551025390625</LatitudeDegrees>
              <LongitudeDegrees>-4.04715442098677158355712890625</LongitudeDegrees>
            </Position>
            <AltitudeMeters>843.5999755859375</AltitudeMeters>
            <DistanceMeters>NAN</DistanceMeters>
          </Trackpoint>
          <Trackpoint>
            <Time>2019-08-01T17:04:52.000Z</Time>
            <Position>
              <LatitudeDegrees>40.53850539028644561767578125</LatitudeDegrees>
              <LongitudeDegrees>-4.04715810902416706085205078125</LongitudeDegrees>
            </Position>
            <AltitudeMeters>843.79998779296875</AltitudeMeters>
            <DistanceMeters>NAN</DistanceMeters>
          </Trackpoint>
          <Trackpoint>
            <Time>2019-08-01T17:04:53.000Z</Time>
            <Position>
              <LatitudeDegrees>40.538442693650722503662109375</LatitudeDegrees>
              <LongitudeDegrees>-4.0471623837947845458984375</LongitudeDegrees>
            </Position>
            <AltitudeMeters>843.5999755859375</AltitudeMeters>
            <DistanceMeters>NAN</DistanceMeters>
          </Trackpoint>
          <Trackpoint>
            <Time>2019-08-01T17:04:54.000Z</Time>
            <Position>
              <LatitudeDegrees>40.5383804999291896820068359375</LatitudeDegrees>
              <LongitudeDegrees>-4.04716749675571918487548828125</LongitudeDegrees>
            </Position>
            <AltitudeMeters>843.5999755859375</AltitudeMeters>
            <DistanceMeters>NAN</DistanceMeters>
          </Trackpoint>
          <Trackpoint>
            <Time>2019-08-01T17:04:55.000Z</Time>
            <Position>
              <LatitudeDegrees>40.5383194796741008758544921875</LatitudeDegrees>
              <LongitudeDegrees>-4.0471722744405269622802734375</LongitudeDegrees>
            </Position>
            <AltitudeMeters>843.5999755859375</AltitudeMeters>
            <DistanceMeters>NAN</DistanceMeters>
          </Trackpoint>
          <Trackpoint>
            <Time>2019-08-01T17:04:56.000Z</Time>
            <Position>
              <LatitudeDegrees>40.53825862705707550048828125</LatitudeDegrees>
              <LongitudeDegrees>-4.04717587865889072418212890625</LongitudeDegrees>
            </Position>
            <AltitudeMeters>843.5999755859375</AltitudeMeters>
            <DistanceMeters>NAN</DistanceMeters>
          </Trackpoint>
          <Trackpoint>
            <Time>2019-08-01T17:04:57.000Z</Time>
            <Position>
              <LatitudeDegrees>40.5381974391639232635498046875</LatitudeDegrees>
              <LongitudeDegrees>-4.04717872850596904754638671875</LongitudeDegrees>
            </Position>
            <AltitudeMeters>843.5999755859375</AltitudeMeters>
            <DistanceMeters>NAN</DistanceMeters>
          </Trackpoint>
          <Trackpoint>
            <Time>2019-08-01T17:04:58.000Z</Time>
            <Position>
              <LatitudeDegrees>40.53813566453754901885986328125</LatitudeDegrees>
              <LongitudeDegrees>-4.047182835638523101806640625</LongitudeDegrees>
            </Position>
            <AltitudeMeters>843.5999755859375</AltitudeMeters>
            <DistanceMeters>NAN</DistanceMeters>
          </Trackpoint>
          <Trackpoint>
            <Time>2019-08-01T17:04:59.000Z</Time>
            <Position>
              <LatitudeDegrees>40.53807313553988933563232421875</LatitudeDegrees>
              <LongitudeDegrees>-4.04718727804720401763916015625</LongitudeDegrees>
            </Position>
            <AltitudeMeters>843.5999755859375</AltitudeMeters>
            <DistanceMeters>NAN</DistanceMeters>
          </Trackpoint>
          <Trackpoint>
            <Time>2019-08-01T17:05:00.000Z</Time>
            <Position>
              <LatitudeDegrees>40.5380098521709442138671875</LatitudeDegrees>
              <LongitudeDegrees>-4.0471917204558849334716796875</LongitudeDegrees>
            </Position>
            <AltitudeMeters>843.5999755859375</AltitudeMeters>
            <DistanceMeters>NAN</DistanceMeters>
          </Trackpoint>
          <Trackpoint>
            <Time>2019-08-01T17:05:01.000Z</Time>
            <Position>
              <LatitudeDegrees>40.53794556297361850738525390625</LatitudeDegrees>
              <LongitudeDegrees>-4.04719633050262928009033203125</LongitudeDegrees>
            </Position>
            <AltitudeMeters>843.5999755859375</AltitudeMeters>
            <DistanceMeters>NAN</DistanceMeters>
          </Trackpoint>
          <Trackpoint>
            <Time>2019-08-01T17:05:02.000Z</Time>
            <Position>
              <LatitudeDegrees>40.53788043558597564697265625</LatitudeDegrees>
              <LongitudeDegrees>-4.0472001023590564727783203125</LongitudeDegrees>
            </Position>
            <AltitudeMeters>843.5999755859375</AltitudeMeters>
            <DistanceMeters>NAN</DistanceMeters>
          </Trackpoint>
          <Trackpoint>
            <Time>2019-08-01T17:05:03.000Z</Time>
            <Position>
              <LatitudeDegrees>40.53781463764607906341552734375</LatitudeDegrees>
              <LongitudeDegrees>-4.0472034551203250885009765625</LongitudeDegrees>
            </Position>
            <AltitudeMeters>843.5999755859375</AltitudeMeters>
            <DistanceMeters>NAN</DistanceMeters>
          </Trackpoint>
          <Trackpoint>
            <Time>2019-08-01T17:05:04.000Z</Time>
            <Position>
              <LatitudeDegrees>40.53774976171553134918212890625</LatitudeDegrees>
              <LongitudeDegrees>-4.04720789752900600433349609375</LongitudeDegrees>
            </Position>
            <AltitudeMeters>843.5999755859375</AltitudeMeters>
            <DistanceMeters>NAN</DistanceMeters>
          </Trackpoint>
          <Trackpoint>
            <Time>2019-08-01T17:05:05.000Z</Time>
            <Position>
              <LatitudeDegrees>40.53768605925142765045166015625</LatitudeDegrees>
              <LongitudeDegrees>-4.04721292667090892791748046875</LongitudeDegrees>
            </Position>
            <AltitudeMeters>843.5999755859375</AltitudeMeters>
            <DistanceMeters>NAN</DistanceMeters>
          </Trackpoint>
          <Trackpoint>
            <Time>2019-08-01T17:05:06.000Z</Time>
            <Position>
              <LatitudeDegrees>40.537622272968292236328125</LatitudeDegrees>
              <LongitudeDegrees>-4.04721728526055812835693359375</LongitudeDegrees>
            </Position>
            <AltitudeMeters>843.5999755859375</AltitudeMeters>
            <DistanceMeters>NAN</DistanceMeters>
          </Trackpoint>
          <Trackpoint>
            <Time>2019-08-01T17:05:07.000Z</Time>
            <Position>
              <LatitudeDegrees>40.5375584028661251068115234375</LatitudeDegrees>
              <LongitudeDegrees>-4.04722063802182674407958984375</LongitudeDegrees>
            </Position>
            <AltitudeMeters>843.5999755859375</AltitudeMeters>
            <DistanceMeters>NAN</DistanceMeters>
          </Trackpoint>
          <Trackpoint>
            <Time>2019-08-01T17:05:08.000Z</Time>
            <Position>
              <LatitudeDegrees>40.53749478422105312347412109375</LatitudeDegrees>
              <LongitudeDegrees>-4.04722449369728565216064453125</LongitudeDegrees>
            </Position>
            <AltitudeMeters>843.4000244140625</AltitudeMeters>
            <DistanceMeters>NAN</DistanceMeters>
          </Trackpoint>
          <Trackpoint>
            <Time>2019-08-01T17:05:10.000Z</Time>
            <Position>
              <LatitudeDegrees>40.5373703129589557647705078125</LatitudeDegrees>
              <LongitudeDegrees>-4.0472316183149814605712890625</LongitudeDegrees>
            </Position>
            <AltitudeMeters>843.5999755859375</AltitudeMeters>
            <DistanceMeters>NAN</DistanceMeters>
          </Trackpoint>
          <Trackpoint>
            <Time>2019-08-01T17:05:12.000Z</Time>
            <Position>
              <LatitudeDegrees>40.53724416531622409820556640625</LatitudeDegrees>
              <LongitudeDegrees>-4.04724108986556529998779296875</LongitudeDegrees>
            </Position>
            <AltitudeMeters>843.4000244140625</AltitudeMeters>
            <DistanceMeters>NAN</DistanceMeters>
          </Trackpoint>
          <Trackpoint>
            <Time>2019-08-01T17:05:13.000Z</Time>
            <Position>
              <LatitudeDegrees>40.537181384861469268798828125</LatitudeDegrees>
              <LongitudeDegrees>-4.047245867550373077392578125</LongitudeDegrees>
            </Position>
            <AltitudeMeters>843.4000244140625</AltitudeMeters>
            <DistanceMeters>NAN</DistanceMeters>
          </Trackpoint>
          <Trackpoint>
            <Time>2019-08-01T17:05:14.000Z</Time>
            <Position>
              <LatitudeDegrees>40.53711868822574615478515625</LatitudeDegrees>
              <LongitudeDegrees>-4.047249220311641693115234375</LongitudeDegrees>
            </Position>
            <AltitudeMeters>843.5999755859375</AltitudeMeters>
            <DistanceMeters>NAN</DistanceMeters>
          </Trackpoint>
          <Trackpoint>
            <Time>2019-08-01T17:05:15.000Z</Time>
            <Position>
              <LatitudeDegrees>40.53705557249486446380615234375</LatitudeDegrees>
              <LongitudeDegrees>-4.047252573072910308837890625</LongitudeDegrees>
            </Position>
            <AltitudeMeters>843.5999755859375</AltitudeMeters>
            <DistanceMeters>NAN</DistanceMeters>
          </Trackpoint>
          <Trackpoint>
            <Time>2019-08-01T17:05:16.000Z</Time>
            <Position>
              <LatitudeDegrees>40.536992959678173065185546875</LatitudeDegrees>
              <LongitudeDegrees>-4.04725735075771808624267578125</LongitudeDegrees>
            </Position>
            <AltitudeMeters>843.5999755859375</AltitudeMeters>
            <DistanceMeters>NAN</DistanceMeters>
          </Trackpoint>
          <Trackpoint>
            <Time>2019-08-01T17:05:17.000Z</Time>
            <Position>
              <LatitudeDegrees>40.53693135268986225128173828125</LatitudeDegrees>
              <LongitudeDegrees>-4.047261290252208709716796875</LongitudeDegrees>
            </Position>
            <AltitudeMeters>843.4000244140625</AltitudeMeters>
            <DistanceMeters>NAN</DistanceMeters>
          </Trackpoint>
          <Trackpoint>
            <Time>2019-08-01T17:05:18.000Z</Time>
            <Position>
              <LatitudeDegrees>40.5368687398731708526611328125</LatitudeDegrees>
              <LongitudeDegrees>-4.04726506210863590240478515625</LongitudeDegrees>
            </Position>
            <AltitudeMeters>843.4000244140625</AltitudeMeters>
            <DistanceMeters>NAN</DistanceMeters>
          </Trackpoint>
          <Trackpoint>
            <Time>2019-08-01T17:05:19.000Z</Time>
            <Position>
              <LatitudeDegrees>40.5368050374090671539306640625</LatitudeDegrees>
              <LongitudeDegrees>-4.04727009125053882598876953125</LongitudeDegrees>
            </Position>
            <AltitudeMeters>843.4000244140625</AltitudeMeters>
            <DistanceMeters>NAN</DistanceMeters>
          </Trackpoint>
          <Trackpoint>
            <Time>2019-08-01T17:05:20.000Z</Time>
            <Position>
              <LatitudeDegrees>40.536740832030773162841796875</LatitudeDegrees>
              <LongitudeDegrees>-4.0472748689353466033935546875</LongitudeDegrees>
            </Position>
            <AltitudeMeters>843.4000244140625</AltitudeMeters>
            <DistanceMeters>NAN</DistanceMeters>
          </Trackpoint>
          <Trackpoint>
            <Time>2019-08-01T17:05:21.000Z</Time>
            <Position>
              <LatitudeDegrees>40.53667637519538402557373046875</LatitudeDegrees>
              <LongitudeDegrees>-4.04727897606790065765380859375</LongitudeDegrees>
            </Position>
            <AltitudeMeters>843.20001220703125</AltitudeMeters>
            <DistanceMeters>NAN</DistanceMeters>
          </Trackpoint>
          <Trackpoint>
            <Time>2019-08-01T17:05:22.000Z</Time>
            <Position>
              <LatitudeDegrees>40.536611080169677734375</LatitudeDegrees>
              <LongitudeDegrees>-4.0472832508385181427001953125</LongitudeDegrees>
            </Position>
            <AltitudeMeters>843.20001220703125</AltitudeMeters>
            <DistanceMeters>NAN</DistanceMeters>
          </Trackpoint>
          <Trackpoint>
            <Time>2019-08-01T17:05:23.000Z</Time>
            <Position>
              <LatitudeDegrees>40.5365462042391300201416015625</LatitudeDegrees>
              <LongitudeDegrees>-4.04728786088526248931884765625</LongitudeDegrees>
            </Position>
            <AltitudeMeters>843.20001220703125</AltitudeMeters>
            <DistanceMeters>NAN</DistanceMeters>
          </Trackpoint>
          <Trackpoint>
            <Time>2019-08-01T17:05:24.000Z</Time>
            <Position>
              <LatitudeDegrees>40.53648225031793117523193359375</LatitudeDegrees>
              <LongitudeDegrees>-4.047292135655879974365234375</LongitudeDegrees>
            </Position>
            <AltitudeMeters>843.20001220703125</AltitudeMeters>
            <DistanceMeters>NAN</DistanceMeters>
          </Trackpoint>
          <Trackpoint>
            <Time>2019-08-01T17:05:25.000Z</Time>
            <Position>
              <LatitudeDegrees>40.53641796112060546875</LatitudeDegrees>
              <LongitudeDegrees>-4.0472959913313388824462890625</LongitudeDegrees>
            </Position>
            <AltitudeMeters>843.20001220703125</AltitudeMeters>
            <DistanceMeters>NAN</DistanceMeters>
          </Trackpoint>
          <Trackpoint>
            <Time>2019-08-01T17:05:26.000Z</Time>
            <Position>
              <LatitudeDegrees>40.53635350428521633148193359375</LatitudeDegrees>
              <LongitudeDegrees>-4.047299511730670928955078125</LongitudeDegrees>
            </Position>
            <AltitudeMeters>843.4000244140625</AltitudeMeters>
            <DistanceMeters>NAN</DistanceMeters>
          </Trackpoint>
          <Trackpoint>
            <Time>2019-08-01T17:05:27.000Z</Time>
            <Position>
              <LatitudeDegrees>40.53628846071660518646240234375</LatitudeDegrees>
              <LongitudeDegrees>-4.047303535044193267822265625</LongitudeDegrees>
            </Position>
            <AltitudeMeters>843.4000244140625</AltitudeMeters>
            <DistanceMeters>NAN</DistanceMeters>
          </Trackpoint>
          <Trackpoint>
            <Time>2019-08-01T17:05:28.000Z</Time>
            <Position>
              <LatitudeDegrees>40.5362236686050891876220703125</LatitudeDegrees>
              <LongitudeDegrees>-4.047308228909969329833984375</LongitudeDegrees>
            </Position>
            <AltitudeMeters>843.20001220703125</AltitudeMeters>
            <DistanceMeters>NAN</DistanceMeters>
          </Trackpoint>
          <Trackpoint>
            <Time>2019-08-01T17:05:29.000Z</Time>
            <Position>
              <LatitudeDegrees>40.5361591279506683349609375</LatitudeDegrees>
              <LongitudeDegrees>-4.04731250368058681488037109375</LongitudeDegrees>
            </Position>
            <AltitudeMeters>843.20001220703125</AltitudeMeters>
            <DistanceMeters>NAN</DistanceMeters>
          </Trackpoint>
          <Trackpoint>
            <Time>2019-08-01T17:05:30.000Z</Time>
            <Position>
              <LatitudeDegrees>40.536095090210437774658203125</LatitudeDegrees>
              <LongitudeDegrees>-4.04731820337474346160888671875</LongitudeDegrees>
            </Position>
            <AltitudeMeters>843.20001220703125</AltitudeMeters>
            <DistanceMeters>NAN</DistanceMeters>
          </Trackpoint>
          <Trackpoint>
            <Time>2019-08-01T17:05:31.000Z</Time>
            <Position>
              <LatitudeDegrees>40.536032058298587799072265625</LatitudeDegrees>
              <LongitudeDegrees>-4.0473233163356781005859375</LongitudeDegrees>
            </Position>
            <AltitudeMeters>843.20001220703125</AltitudeMeters>
            <DistanceMeters>NAN</DistanceMeters>
          </Trackpoint>
          <Trackpoint>
            <Time>2019-08-01T17:05:32.000Z</Time>
            <Position>
              <LatitudeDegrees>40.53596944548189640045166015625</LatitudeDegrees>
              <LongitudeDegrees>-4.04732775874435901641845703125</LongitudeDegrees>
            </Position>
            <AltitudeMeters>843.20001220703125</AltitudeMeters>
            <DistanceMeters>NAN</DistanceMeters>
          </Trackpoint>
          <Trackpoint>
            <Time>2019-08-01T17:05:33.000Z</Time>
            <Position>
              <LatitudeDegrees>40.535906665027141571044921875</LatitudeDegrees>
              <LongitudeDegrees>-4.0473325364291667938232421875</LongitudeDegrees>
            </Position>
            <AltitudeMeters>843.4000244140625</AltitudeMeters>
            <DistanceMeters>NAN</DistanceMeters>
          </Trackpoint>
          <Trackpoint>
            <Time>2019-08-01T17:05:34.000Z</Time>
            <Position>
              <LatitudeDegrees>40.5358441360294818878173828125</LatitudeDegrees>
              <LongitudeDegrees>-4.04733781702816486358642578125</LongitudeDegrees>
            </Position>
            <AltitudeMeters>843.4000244140625</AltitudeMeters>
            <DistanceMeters>NAN</DistanceMeters>
          </Trackpoint>
          <Trackpoint>
            <Time>2019-08-01T17:05:35.000Z</Time>
            <Position>
              <LatitudeDegrees>40.5357817746698856353759765625</LatitudeDegrees>
              <LongitudeDegrees>-4.0473420917987823486328125</LongitudeDegrees>
            </Position>
            <AltitudeMeters>843.4000244140625</AltitudeMeters>
            <DistanceMeters>NAN</DistanceMeters>
          </Trackpoint>
          <Trackpoint>
            <Time>2019-08-01T17:05:36.000Z</Time>
            <Position>
              <LatitudeDegrees>40.53571949712932109832763671875</LatitudeDegrees>
              <LongitudeDegrees>-4.0473469533026218414306640625</LongitudeDegrees>
            </Position>
            <AltitudeMeters>843.4000244140625</AltitudeMeters>
            <DistanceMeters>NAN</DistanceMeters>
          </Trackpoint>
          <Trackpoint>
            <Time>2019-08-01T17:05:37.000Z</Time>
            <Position>
              <LatitudeDegrees>40.5356575548648834228515625</LatitudeDegrees>
              <LongitudeDegrees>-4.04735173098742961883544921875</LongitudeDegrees>
            </Position>
            <AltitudeMeters>843.4000244140625</AltitudeMeters>
            <DistanceMeters>NAN</DistanceMeters>
          </Trackpoint>
          <Trackpoint>
            <Time>2019-08-01T17:05:38.000Z</Time>
            <Position>
              <LatitudeDegrees>40.53559544496238231658935546875</LatitudeDegrees>
              <LongitudeDegrees>-4.04735608957707881927490234375</LongitudeDegrees>
            </Position>
            <AltitudeMeters>843.4000244140625</AltitudeMeters>
            <DistanceMeters>NAN</DistanceMeters>
          </Trackpoint>
          <Trackpoint>
            <Time>2019-08-01T17:05:39.000Z</Time>
            <Position>
              <LatitudeDegrees>40.53553375415503978729248046875</LatitudeDegrees>
              <LongitudeDegrees>-4.04736019670963287353515625</LongitudeDegrees>
            </Position>
            <AltitudeMeters>843.4000244140625</AltitudeMeters>
            <DistanceMeters>NAN</DistanceMeters>
          </Trackpoint>
          <Trackpoint>
            <Time>2019-08-01T17:05:40.000Z</Time>
            <Position>
              <LatitudeDegrees>40.5354716442525386810302734375</LatitudeDegrees>
              <LongitudeDegrees>-4.0473647229373455047607421875</LongitudeDegrees>
            </Position>
            <AltitudeMeters>843.5999755859375</AltitudeMeters>
            <DistanceMeters>NAN</DistanceMeters>
          </Trackpoint>
          <Trackpoint>
            <Time>2019-08-01T17:05:42.000Z</Time>
            <Position>
              <LatitudeDegrees>40.53535002283751964569091796875</LatitudeDegrees>
              <LongitudeDegrees>-4.04737385921180248260498046875</LongitudeDegrees>
            </Position>
            <AltitudeMeters>843.5999755859375</AltitudeMeters>
            <DistanceMeters>NAN</DistanceMeters>
          </Trackpoint>
          <Trackpoint>
            <Time>2019-08-01T17:05:43.000Z</Time>
            <Position>
              <LatitudeDegrees>40.53528950549662113189697265625</LatitudeDegrees>
              <LongitudeDegrees>-4.04737771488726139068603515625</LongitudeDegrees>
            </Position>
            <AltitudeMeters>843.5999755859375</AltitudeMeters>
            <DistanceMeters>NAN</DistanceMeters>
          </Trackpoint>
          <Trackpoint>
            <Time>2019-08-01T17:05:44.000Z</Time>
            <Position>
              <LatitudeDegrees>40.535229407250881195068359375</LatitudeDegrees>
              <LongitudeDegrees>-4.04738190583884716033935546875</LongitudeDegrees>
            </Position>
            <AltitudeMeters>843.5999755859375</AltitudeMeters>
            <DistanceMeters>NAN</DistanceMeters>
          </Trackpoint>
          <Trackpoint>
            <Time>2019-08-01T17:05:45.000Z</Time>
            <Position>
              <LatitudeDegrees>40.5351702310144901275634765625</LatitudeDegrees>
              <LongitudeDegrees>-4.047386348247528076171875</LongitudeDegrees>
            </Position>
            <AltitudeMeters>843.5999755859375</AltitudeMeters>
            <DistanceMeters>NAN</DistanceMeters>
          </Trackpoint>
          <Trackpoint>
            <Time>2019-08-01T17:05:46.000Z</Time>
            <Position>
              <LatitudeDegrees>40.535111390054225921630859375</LatitudeDegrees>
              <LongitudeDegrees>-4.0473908744752407073974609375</LongitudeDegrees>
            </Position>
            <AltitudeMeters>843.5999755859375</AltitudeMeters>
            <DistanceMeters>NAN</DistanceMeters>
          </Trackpoint>
          <Trackpoint>
            <Time>2019-08-01T17:05:47.000Z</Time>
            <Position>
              <LatitudeDegrees>40.53505212999880313873291015625</LatitudeDegrees>
              <LongitudeDegrees>-4.04739548452198505401611328125</LongitudeDegrees>
            </Position>
            <AltitudeMeters>843.5999755859375</AltitudeMeters>
            <DistanceMeters>NAN</DistanceMeters>
          </Trackpoint>
          <Trackpoint>
            <Time>2019-08-01T17:05:48.000Z</Time>
            <Position>
              <LatitudeDegrees>40.534992702305316925048828125</LatitudeDegrees>
              <LongitudeDegrees>-4.04740001074969768524169921875</LongitudeDegrees>
            </Position>
            <AltitudeMeters>843.5999755859375</AltitudeMeters>
            <DistanceMeters>NAN</DistanceMeters>
          </Trackpoint>
          <Trackpoint>
            <Time>2019-08-01T17:05:49.000Z</Time>
            <Position>
              <LatitudeDegrees>40.5349341966211795806884765625</LatitudeDegrees>
              <LongitudeDegrees>-4.04740403406322002410888671875</LongitudeDegrees>
            </Position>
            <AltitudeMeters>843.5999755859375</AltitudeMeters>
            <DistanceMeters>NAN</DistanceMeters>
          </Trackpoint>
          <Trackpoint>
            <Time>2019-08-01T17:05:50.000Z</Time>
            <Position>
              <LatitudeDegrees>40.53487560711801052093505859375</LatitudeDegrees>
              <LongitudeDegrees>-4.04740839265286922454833984375</LongitudeDegrees>
            </Position>
            <AltitudeMeters>843.4000244140625</AltitudeMeters>
            <DistanceMeters>NAN</DistanceMeters>
          </Trackpoint>
          <Trackpoint>
            <Time>2019-08-01T17:05:51.000Z</Time>
            <Position>
              <LatitudeDegrees>40.53481735289096832275390625</LatitudeDegrees>
              <LongitudeDegrees>-4.047412835061550140380859375</LongitudeDegrees>
            </Position>
            <AltitudeMeters>843.4000244140625</AltitudeMeters>
            <DistanceMeters>NAN</DistanceMeters>
          </Trackpoint>
          <Trackpoint>
            <Time>2019-08-01T17:05:52.000Z</Time>
            <Position>
              <LatitudeDegrees>40.534759350121021270751953125</LatitudeDegrees>
              <LongitudeDegrees>-4.047416858375072479248046875</LongitudeDegrees>
            </Position>
            <AltitudeMeters>843.4000244140625</AltitudeMeters>
            <DistanceMeters>NAN</DistanceMeters>
          </Trackpoint>
          <Trackpoint>
            <Time>2019-08-01T17:05:53.000Z</Time>
            <Position>
              <LatitudeDegrees>40.53470243699848651885986328125</LatitudeDegrees>
              <LongitudeDegrees>-4.0474210493266582489013671875</LongitudeDegrees>
            </Position>
            <AltitudeMeters>843.4000244140625</AltitudeMeters>
            <DistanceMeters>NAN</DistanceMeters>
          </Trackpoint>
          <Trackpoint>
            <Time>2019-08-01T17:05:54.000Z</Time>
            <Position>
              <LatitudeDegrees>40.53464560769498348236083984375</LatitudeDegrees>
              <LongitudeDegrees>-4.0474250726401805877685546875</LongitudeDegrees>
            </Position>
            <AltitudeMeters>843.20001220703125</AltitudeMeters>
            <DistanceMeters>NAN</DistanceMeters>
          </Trackpoint>
          <Trackpoint>
            <Time>2019-08-01T17:05:55.000Z</Time>
            <Position>
              <LatitudeDegrees>40.53458861075341701507568359375</LatitudeDegrees>
              <LongitudeDegrees>-4.04742867685854434967041015625</LongitudeDegrees>
            </Position>
            <AltitudeMeters>843.20001220703125</AltitudeMeters>
            <DistanceMeters>NAN</DistanceMeters>
          </Trackpoint>
          <Trackpoint>
            <Time>2019-08-01T17:05:56.000Z</Time>
            <Position>
              <LatitudeDegrees>40.53453060798346996307373046875</LatitudeDegrees>
              <LongitudeDegrees>-4.04743253253400325775146484375</LongitudeDegrees>
            </Position>
            <AltitudeMeters>843.20001220703125</AltitudeMeters>
            <DistanceMeters>NAN</DistanceMeters>
          </Trackpoint>
          <Trackpoint>
            <Time>2019-08-01T17:05:57.000Z</Time>
            <Position>
              <LatitudeDegrees>40.53447260521352291107177734375</LatitudeDegrees>
              <LongitudeDegrees>-4.047436304390430450439453125</LongitudeDegrees>
            </Position>
            <AltitudeMeters>843</AltitudeMeters>
            <DistanceMeters>NAN</DistanceMeters>
          </Trackpoint>
          <Trackpoint>
            <Time>2019-08-01T17:05:58.000Z</Time>
            <Position>
              <LatitudeDegrees>40.53441544063389301300048828125</LatitudeDegrees>
              <LongitudeDegrees>-4.04744057916104793548583984375</LongitudeDegrees>
            </Position>
            <AltitudeMeters>843</AltitudeMeters>
            <DistanceMeters>NAN</DistanceMeters>
          </Trackpoint>
          <Trackpoint>
            <Time>2019-08-01T17:05:59.000Z</Time>
            <Position>
              <LatitudeDegrees>40.53435911424458026885986328125</LatitudeDegrees>
              <LongitudeDegrees>-4.04744510538876056671142578125</LongitudeDegrees>
            </Position>
            <AltitudeMeters>843</AltitudeMeters>
            <DistanceMeters>NAN</DistanceMeters>
          </Trackpoint>
          <Trackpoint>
            <Time>2019-08-01T17:06:00.000Z</Time>
            <Position>
              <LatitudeDegrees>40.5343025363981723785400390625</LatitudeDegrees>
              <LongitudeDegrees>-4.0474488772451877593994140625</LongitudeDegrees>
            </Position>
            <AltitudeMeters>843</AltitudeMeters>
            <DistanceMeters>NAN</DistanceMeters>
          </Trackpoint>
          <Trackpoint>
            <Time>2019-08-01T17:06:01.000Z</Time>
            <Position>
              <LatitudeDegrees>40.534245036542415618896484375</LatitudeDegrees>
              <LongitudeDegrees>-4.04745264910161495208740234375</LongitudeDegrees>
            </Position>
            <AltitudeMeters>843</AltitudeMeters>
            <DistanceMeters>NAN</DistanceMeters>
          </Trackpoint>
          <Trackpoint>
            <Time>2019-08-01T17:06:02.000Z</Time>
            <Position>
              <LatitudeDegrees>40.534187369048595428466796875</LatitudeDegrees>
              <LongitudeDegrees>-4.047456420958042144775390625</LongitudeDegrees>
            </Position>
            <AltitudeMeters>843</AltitudeMeters>
            <DistanceMeters>NAN</DistanceMeters>
          </Trackpoint>
          <Trackpoint>
            <Time>2019-08-01T17:06:03.000Z</Time>
            <Position>
              <LatitudeDegrees>40.534129701554775238037109375</LatitudeDegrees>
              <LongitudeDegrees>-4.04746002517640590667724609375</LongitudeDegrees>
            </Position>
            <AltitudeMeters>843</AltitudeMeters>
            <DistanceMeters>NAN</DistanceMeters>
          </Trackpoint>
          <Trackpoint>
            <Time>2019-08-01T17:06:04.000Z</Time>
            <Position>
              <LatitudeDegrees>40.53407195024192333221435546875</LatitudeDegrees>
              <LongitudeDegrees>-4.047463797032833099365234375</LongitudeDegrees>
            </Position>
            <AltitudeMeters>843</AltitudeMeters>
            <DistanceMeters>NAN</DistanceMeters>
          </Trackpoint>
          <Trackpoint>
            <Time>2019-08-01T17:06:05.000Z</Time>
            <Position>
              <LatitudeDegrees>40.5340128578245639801025390625</LatitudeDegrees>
              <LongitudeDegrees>-4.04746823944151401519775390625</LongitudeDegrees>
            </Position>
            <AltitudeMeters>843</AltitudeMeters>
            <DistanceMeters>NAN</DistanceMeters>
          </Trackpoint>
          <Trackpoint>
            <Time>2019-08-01T17:06:06.000Z</Time>
            <Position>
              <LatitudeDegrees>40.53395359776914119720458984375</LatitudeDegrees>
              <LongitudeDegrees>-4.047472178936004638671875</LongitudeDegrees>
            </Position>
            <AltitudeMeters>843</AltitudeMeters>
            <DistanceMeters>NAN</DistanceMeters>
          </Trackpoint>
          <Trackpoint>
            <Time>2019-08-01T17:06:07.000Z</Time>
            <Position>
              <LatitudeDegrees>40.53389425389468669891357421875</LatitudeDegrees>
              <LongitudeDegrees>-4.047475866973400115966796875</LongitudeDegrees>
            </Position>
            <AltitudeMeters>843</AltitudeMeters>
            <DistanceMeters>NAN</DistanceMeters>
          </Trackpoint>
          <Trackpoint>
            <Time>2019-08-01T17:06:08.000Z</Time>
            <Position>
              <LatitudeDegrees>40.53383457474410533905029296875</LatitudeDegrees>
              <LongitudeDegrees>-4.04748014174401760101318359375</LongitudeDegrees>
            </Position>
            <AltitudeMeters>843</AltitudeMeters>
            <DistanceMeters>NAN</DistanceMeters>
          </Trackpoint>
          <Trackpoint>
            <Time>2019-08-01T17:06:09.000Z</Time>
            <Position>
              <LatitudeDegrees>40.5337744764983654022216796875</LatitudeDegrees>
              <LongitudeDegrees>-4.0474844165146350860595703125</LongitudeDegrees>
            </Position>
            <AltitudeMeters>842.79998779296875</AltitudeMeters>
            <DistanceMeters>NAN</DistanceMeters>
          </Trackpoint>
          <Trackpoint>
            <Time>2019-08-01T17:06:11.000Z</Time>
            <Position>
              <LatitudeDegrees>40.5336534418165683746337890625</LatitudeDegrees>
              <LongitudeDegrees>-4.04749321751296520233154296875</LongitudeDegrees>
            </Position>
            <AltitudeMeters>843.20001220703125</AltitudeMeters>
            <DistanceMeters>NAN</DistanceMeters>
          </Trackpoint>
          <Trackpoint>
            <Time>2019-08-01T17:06:12.000Z</Time>
            <Position>
              <LatitudeDegrees>40.533591918647289276123046875</LatitudeDegrees>
              <LongitudeDegrees>-4.04749807901680469512939453125</LongitudeDegrees>
            </Position>
            <AltitudeMeters>843.20001220703125</AltitudeMeters>
            <DistanceMeters>NAN</DistanceMeters>
          </Trackpoint>
          <Trackpoint>
            <Time>2019-08-01T17:06:13.000Z</Time>
            <Position>
              <LatitudeDegrees>40.53353031165897846221923828125</LatitudeDegrees>
              <LongitudeDegrees>-4.04750310815870761871337890625</LongitudeDegrees>
            </Position>
            <AltitudeMeters>843.4000244140625</AltitudeMeters>
            <DistanceMeters>NAN</DistanceMeters>
          </Trackpoint>
          <Trackpoint>
            <Time>2019-08-01T17:06:14.000Z</Time>
            <Position>
              <LatitudeDegrees>40.53346761502325534820556640625</LatitudeDegrees>
              <LongitudeDegrees>-4.04750796966254711151123046875</LongitudeDegrees>
            </Position>
            <AltitudeMeters>843.4000244140625</AltitudeMeters>
            <DistanceMeters>NAN</DistanceMeters>
          </Trackpoint>
          <Trackpoint>
            <Time>2019-08-01T17:06:15.000Z</Time>
            <Position>
              <LatitudeDegrees>40.533405840396881103515625</LatitudeDegrees>
              <LongitudeDegrees>-4.0475132502615451812744140625</LongitudeDegrees>
            </Position>
            <AltitudeMeters>843.4000244140625</AltitudeMeters>
            <DistanceMeters>NAN</DistanceMeters>
          </Trackpoint>
          <Trackpoint>
            <Time>2019-08-01T17:06:16.000Z</Time>
            <Position>
              <LatitudeDegrees>40.5333453230559825897216796875</LatitudeDegrees>
              <LongitudeDegrees>-4.0475186146795749664306640625</LongitudeDegrees>
            </Position>
            <AltitudeMeters>843.4000244140625</AltitudeMeters>
            <DistanceMeters>NAN</DistanceMeters>
          </Trackpoint>
          <Trackpoint>
            <Time>2019-08-01T17:06:17.000Z</Time>
            <Position>
              <LatitudeDegrees>40.53328488953411579132080078125</LatitudeDegrees>
              <LongitudeDegrees>-4.04752339236438274383544921875</LongitudeDegrees>
            </Position>
            <AltitudeMeters>843.4000244140625</AltitudeMeters>
            <DistanceMeters>NAN</DistanceMeters>
          </Trackpoint>
          <Trackpoint>
            <Time>2019-08-01T17:06:18.000Z</Time>
            <Position>
              <LatitudeDegrees>40.53322453983128070831298828125</LatitudeDegrees>
              <LongitudeDegrees>-4.04752791859209537506103515625</LongitudeDegrees>
            </Position>
            <AltitudeMeters>843.4000244140625</AltitudeMeters>
            <DistanceMeters>NAN</DistanceMeters>
          </Trackpoint>
          <Trackpoint>
            <Time>2019-08-01T17:06:19.000Z</Time>
            <Position>
              <LatitudeDegrees>40.53316351957619190216064453125</LatitudeDegrees>
              <LongitudeDegrees>-4.04753194190561771392822265625</LongitudeDegrees>
            </Position>
            <AltitudeMeters>843.5999755859375</AltitudeMeters>
            <DistanceMeters>NAN</DistanceMeters>
          </Trackpoint>
          <Trackpoint>
            <Time>2019-08-01T17:06:20.000Z</Time>
            <Position>
              <LatitudeDegrees>40.5331022478640079498291015625</LatitudeDegrees>
              <LongitudeDegrees>-4.04753588140010833740234375</LongitudeDegrees>
            </Position>
            <AltitudeMeters>843.5999755859375</AltitudeMeters>
            <DistanceMeters>NAN</DistanceMeters>
          </Trackpoint>
          <Trackpoint>
            <Time>2019-08-01T17:06:21.000Z</Time>
            <Position>
              <LatitudeDegrees>40.5330408923327922821044921875</LatitudeDegrees>
              <LongitudeDegrees>-4.04754099436104297637939453125</LongitudeDegrees>
            </Position>
            <AltitudeMeters>843.5999755859375</AltitudeMeters>
            <DistanceMeters>NAN</DistanceMeters>
          </Trackpoint>
          <Trackpoint>
            <Time>2019-08-01T17:06:22.000Z</Time>
            <Position>
              <LatitudeDegrees>40.53297978825867176055908203125</LatitudeDegrees>
              <LongitudeDegrees>-4.04754702933132648468017578125</LongitudeDegrees>
            </Position>
            <AltitudeMeters>843.5999755859375</AltitudeMeters>
            <DistanceMeters>NAN</DistanceMeters>
          </Trackpoint>
          <Trackpoint>
            <Time>2019-08-01T17:06:23.000Z</Time>
            <Position>
              <LatitudeDegrees>40.5329191870987415313720703125</LatitudeDegrees>
              <LongitudeDegrees>-4.047551639378070831298828125</LongitudeDegrees>
            </Position>
            <AltitudeMeters>843.5999755859375</AltitudeMeters>
            <DistanceMeters>NAN</DistanceMeters>
          </Trackpoint>
          <Trackpoint>
            <Time>2019-08-01T17:06:24.000Z</Time>
            <Position>
              <LatitudeDegrees>40.532859675586223602294921875</LatitudeDegrees>
              <LongitudeDegrees>-4.0475565008819103240966796875</LongitudeDegrees>
            </Position>
            <AltitudeMeters>843.5999755859375</AltitudeMeters>
            <DistanceMeters>NAN</DistanceMeters>
          </Trackpoint>
          <Trackpoint>
            <Time>2019-08-01T17:06:25.000Z</Time>
            <Position>
              <LatitudeDegrees>40.53280033171176910400390625</LatitudeDegrees>
              <LongitudeDegrees>-4.04756060801446437835693359375</LongitudeDegrees>
            </Position>
            <AltitudeMeters>843.5999755859375</AltitudeMeters>
            <DistanceMeters>NAN</DistanceMeters>
          </Trackpoint>
          <Trackpoint>
            <Time>2019-08-01T17:06:26.000Z</Time>
            <Position>
              <LatitudeDegrees>40.53274174220860004425048828125</LatitudeDegrees>
              <LongitudeDegrees>-4.04756463132798671722412109375</LongitudeDegrees>
            </Position>
            <AltitudeMeters>843.5999755859375</AltitudeMeters>
            <DistanceMeters>NAN</DistanceMeters>
          </Trackpoint>
          <Trackpoint>
            <Time>2019-08-01T17:06:27.000Z</Time>
            <Position>
              <LatitudeDegrees>40.532683320343494415283203125</LatitudeDegrees>
              <LongitudeDegrees>-4.0475682355463504791259765625</LongitudeDegrees>
            </Position>
            <AltitudeMeters>843.5999755859375</AltitudeMeters>
            <DistanceMeters>NAN</DistanceMeters>
          </Trackpoint>
          <Trackpoint>
            <Time>2019-08-01T17:06:29.000Z</Time>
            <Position>
              <LatitudeDegrees>40.53256739862263202667236328125</LatitudeDegrees>
              <LongitudeDegrees>-4.04757670126855373382568359375</LongitudeDegrees>
            </Position>
            <AltitudeMeters>843.5999755859375</AltitudeMeters>
            <DistanceMeters>NAN</DistanceMeters>
          </Trackpoint>
          <Trackpoint>
            <Time>2019-08-01T17:06:30.000Z</Time>
            <Position>
              <LatitudeDegrees>40.532509647309780120849609375</LatitudeDegrees>
              <LongitudeDegrees>-4.04758089222013950347900390625</LongitudeDegrees>
            </Position>
            <AltitudeMeters>843.5999755859375</AltitudeMeters>
            <DistanceMeters>NAN</DistanceMeters>
          </Trackpoint>
          <Trackpoint>
            <Time>2019-08-01T17:06:31.000Z</Time>
            <Position>
              <LatitudeDegrees>40.53245105780661106109619140625</LatitudeDegrees>
              <LongitudeDegrees>-4.0475846640765666961669921875</LongitudeDegrees>
            </Position>
            <AltitudeMeters>843.5999755859375</AltitudeMeters>
            <DistanceMeters>NAN</DistanceMeters>
          </Trackpoint>
          <Trackpoint>
            <Time>2019-08-01T17:06:32.000Z</Time>
            <Position>
              <LatitudeDegrees>40.532391965389251708984375</LatitudeDegrees>
              <LongitudeDegrees>-4.04758793301880359649658203125</LongitudeDegrees>
            </Position>
            <AltitudeMeters>843.79998779296875</AltitudeMeters>
            <DistanceMeters>NAN</DistanceMeters>
          </Trackpoint>
          <Trackpoint>
            <Time>2019-08-01T17:06:34.000Z</Time>
            <Position>
              <LatitudeDegrees>40.5322737805545330047607421875</LatitudeDegrees>
              <LongitudeDegrees>-4.04759782366454601287841796875</LongitudeDegrees>
            </Position>
            <AltitudeMeters>843.79998779296875</AltitudeMeters>
            <DistanceMeters>NAN</DistanceMeters>
          </Trackpoint>
          <Trackpoint>
            <Time>2019-08-01T17:06:35.000Z</Time>
            <Position>
              <LatitudeDegrees>40.53221561014652252197265625</LatitudeDegrees>
              <LongitudeDegrees>-4.04760352335870265960693359375</LongitudeDegrees>
            </Position>
            <AltitudeMeters>843.79998779296875</AltitudeMeters>
            <DistanceMeters>NAN</DistanceMeters>
          </Trackpoint>
          <Trackpoint>
            <Time>2019-08-01T17:06:36.000Z</Time>
            <Position>
              <LatitudeDegrees>40.53215785883367061614990234375</LatitudeDegrees>
              <LongitudeDegrees>-4.04760771431028842926025390625</LongitudeDegrees>
            </Position>
            <AltitudeMeters>843.79998779296875</AltitudeMeters>
            <DistanceMeters>NAN</DistanceMeters>
          </Trackpoint>
          <Trackpoint>
            <Time>2019-08-01T17:06:37.000Z</Time>
            <Position>
              <LatitudeDegrees>40.53210027515888214111328125</LatitudeDegrees>
              <LongitudeDegrees>-4.047611318528652191162109375</LongitudeDegrees>
            </Position>
            <AltitudeMeters>844</AltitudeMeters>
            <DistanceMeters>NAN</DistanceMeters>
          </Trackpoint>
          <Trackpoint>
            <Time>2019-08-01T17:06:39.000Z</Time>
            <Position>
              <LatitudeDegrees>40.53198586218059062957763671875</LatitudeDegrees>
              <LongitudeDegrees>-4.04762037098407745361328125</LongitudeDegrees>
            </Position>
            <AltitudeMeters>843.79998779296875</AltitudeMeters>
            <DistanceMeters>NAN</DistanceMeters>
          </Trackpoint>
          <Trackpoint>
            <Time>2019-08-01T17:06:40.000Z</Time>
            <Position>
              <LatitudeDegrees>40.5319277755916118621826171875</LatitudeDegrees>
              <LongitudeDegrees>-4.047624729573726654052734375</LongitudeDegrees>
            </Position>
            <AltitudeMeters>843.79998779296875</AltitudeMeters>
            <DistanceMeters>NAN</DistanceMeters>
          </Trackpoint>
          <Trackpoint>
            <Time>2019-08-01T17:06:41.000Z</Time>
            <Position>
              <LatitudeDegrees>40.53186868317425251007080078125</LatitudeDegrees>
              <LongitudeDegrees>-4.04762975871562957763671875</LongitudeDegrees>
            </Position>
            <AltitudeMeters>843.79998779296875</AltitudeMeters>
            <DistanceMeters>NAN</DistanceMeters>
          </Trackpoint>
          <Trackpoint>
            <Time>2019-08-01T17:06:43.000Z</Time>
            <Position>
              <LatitudeDegrees>40.5317504145205020904541015625</LatitudeDegrees>
              <LongitudeDegrees>-4.0476357936859130859375</LongitudeDegrees>
            </Position>
            <AltitudeMeters>844</AltitudeMeters>
            <DistanceMeters>NAN</DistanceMeters>
          </Trackpoint>
          <Trackpoint>
            <Time>2019-08-01T17:06:44.000Z</Time>
            <Position>
              <LatitudeDegrees>40.53169216029345989227294921875</LatitudeDegrees>
              <LongitudeDegrees>-4.04763587750494480133056640625</LongitudeDegrees>
            </Position>
            <AltitudeMeters>844.20001220703125</AltitudeMeters>
            <DistanceMeters>NAN</DistanceMeters>
          </Trackpoint>
          <Trackpoint>
            <Time>2019-08-01T17:06:45.000Z</Time>
            <Position>
              <LatitudeDegrees>40.53163533098995685577392578125</LatitudeDegrees>
              <LongitudeDegrees>-4.04763118363916873931884765625</LongitudeDegrees>
            </Position>
            <AltitudeMeters>844.4000244140625</AltitudeMeters>
            <DistanceMeters>NAN</DistanceMeters>
          </Trackpoint>
          <Trackpoint>
            <Time>2019-08-01T17:06:46.000Z</Time>
            <Position>
              <LatitudeDegrees>40.53157900460064411163330078125</LatitudeDegrees>
              <LongitudeDegrees>-4.04761978425085544586181640625</LongitudeDegrees>
            </Position>
            <AltitudeMeters>844.5999755859375</AltitudeMeters>
            <DistanceMeters>NAN</DistanceMeters>
          </Trackpoint>
          <Trackpoint>
            <Time>2019-08-01T17:06:47.000Z</Time>
            <Position>
              <LatitudeDegrees>40.531521253287792205810546875</LatitudeDegrees>
              <LongitudeDegrees>-4.04760553501546382904052734375</LongitudeDegrees>
            </Position>
            <AltitudeMeters>844.5999755859375</AltitudeMeters>
            <DistanceMeters>NAN</DistanceMeters>
          </Trackpoint>
          <Trackpoint>
            <Time>2019-08-01T17:06:48.000Z</Time>
            <Position>
              <LatitudeDegrees>40.53146065212786197662353515625</LatitudeDegrees>
              <LongitudeDegrees>-4.0475927107036113739013671875</LongitudeDegrees>
            </Position>
            <AltitudeMeters>844.5999755859375</AltitudeMeters>
            <DistanceMeters>NAN</DistanceMeters>
          </Trackpoint>
          <Trackpoint>
            <Time>2019-08-01T17:06:49.000Z</Time>
            <Position>
              <LatitudeDegrees>40.53139845840632915496826171875</LatitudeDegrees>
              <LongitudeDegrees>-4.04757938347756862640380859375</LongitudeDegrees>
            </Position>
            <AltitudeMeters>844.5999755859375</AltitudeMeters>
            <DistanceMeters>NAN</DistanceMeters>
          </Trackpoint>
          <Trackpoint>
            <Time>2019-08-01T17:06:50.000Z</Time>
            <Position>
              <LatitudeDegrees>40.531335510313510894775390625</LatitudeDegrees>
              <LongitudeDegrees>-4.04756412841379642486572265625</LongitudeDegrees>
            </Position>
            <AltitudeMeters>844.79998779296875</AltitudeMeters>
            <DistanceMeters>NAN</DistanceMeters>
          </Trackpoint>
          <Trackpoint>
            <Time>2019-08-01T17:06:51.000Z</Time>
            <Position>
              <LatitudeDegrees>40.53127256222069263458251953125</LatitudeDegrees>
              <LongitudeDegrees>-4.0475481189787387847900390625</LongitudeDegrees>
            </Position>
            <AltitudeMeters>844.79998779296875</AltitudeMeters>
            <DistanceMeters>NAN</DistanceMeters>
          </Trackpoint>
          <Trackpoint>
            <Time>2019-08-01T17:06:52.000Z</Time>
            <Position>
              <LatitudeDegrees>40.53120978176593780517578125</LatitudeDegrees>
              <LongitudeDegrees>-4.04753177426755428314208984375</LongitudeDegrees>
            </Position>
            <AltitudeMeters>844.79998779296875</AltitudeMeters>
            <DistanceMeters>NAN</DistanceMeters>
          </Trackpoint>
          <Trackpoint>
            <Time>2019-08-01T17:06:54.000Z</Time>
            <Position>
              <LatitudeDegrees>40.53108665160834789276123046875</LatitudeDegrees>
              <LongitudeDegrees>-4.0474981628358364105224609375</LongitudeDegrees>
            </Position>
            <AltitudeMeters>845</AltitudeMeters>
            <DistanceMeters>NAN</DistanceMeters>
          </Trackpoint>
          <Trackpoint>
            <Time>2019-08-01T17:06:55.000Z</Time>
            <Position>
              <LatitudeDegrees>40.5310255475342273712158203125</LatitudeDegrees>
              <LongitudeDegrees>-4.04748232103884220123291015625</LongitudeDegrees>
            </Position>
            <AltitudeMeters>845</AltitudeMeters>
            <DistanceMeters>NAN</DistanceMeters>
          </Trackpoint>
          <Trackpoint>
            <Time>2019-08-01T17:06:56.000Z</Time>
            <Position>
              <LatitudeDegrees>40.53096528165042400360107421875</LatitudeDegrees>
              <LongitudeDegrees>-4.047467149794101715087890625</LongitudeDegrees>
            </Position>
            <AltitudeMeters>845</AltitudeMeters>
            <DistanceMeters>NAN</DistanceMeters>
          </Trackpoint>
          <Trackpoint>
            <Time>2019-08-01T17:06:57.000Z</Time>
            <Position>
              <LatitudeDegrees>40.5309065245091915130615234375</LatitudeDegrees>
              <LongitudeDegrees>-4.04745147563517093658447265625</LongitudeDegrees>
            </Position>
            <AltitudeMeters>845</AltitudeMeters>
            <DistanceMeters>NAN</DistanceMeters>
          </Trackpoint>
          <Trackpoint>
            <Time>2019-08-01T17:06:58.000Z</Time>
            <Position>
              <LatitudeDegrees>40.5308498628437519073486328125</LatitudeDegrees>
              <LongitudeDegrees>-4.04743504710495471954345703125</LongitudeDegrees>
            </Position>
            <AltitudeMeters>845</AltitudeMeters>
            <DistanceMeters>NAN</DistanceMeters>
          </Trackpoint>
          <Trackpoint>
            <Time>2019-08-01T17:06:59.000Z</Time>
            <Position>
              <LatitudeDegrees>40.53079362027347087860107421875</LatitudeDegrees>
              <LongitudeDegrees>-4.047417528927326202392578125</LongitudeDegrees>
            </Position>
            <AltitudeMeters>845</AltitudeMeters>
            <DistanceMeters>NAN</DistanceMeters>
          </Trackpoint>
          <Trackpoint>
            <Time>2019-08-01T17:07:01.000Z</Time>
            <Position>
              <LatitudeDegrees>40.530685074627399444580078125</LatitudeDegrees>
              <LongitudeDegrees>-4.04738861136138439178466796875</LongitudeDegrees>
            </Position>
            <AltitudeMeters>845</AltitudeMeters>
            <DistanceMeters>NAN</DistanceMeters>
          </Trackpoint>
          <Trackpoint>
            <Time>2019-08-01T17:07:02.000Z</Time>
            <Position>
              <LatitudeDegrees>40.53062975406646728515625</LatitudeDegrees>
              <LongitudeDegrees>-4.04737620614469051361083984375</LongitudeDegrees>
            </Position>
            <AltitudeMeters>845</AltitudeMeters>
            <DistanceMeters>NAN</DistanceMeters>
          </Trackpoint>
          <Trackpoint>
            <Time>2019-08-01T17:07:03.000Z</Time>
            <Position>
              <LatitudeDegrees>40.530573427677154541015625</LatitudeDegrees>
              <LongitudeDegrees>-4.04736329801380634307861328125</LongitudeDegrees>
            </Position>
            <AltitudeMeters>845</AltitudeMeters>
            <DistanceMeters>NAN</DistanceMeters>
          </Trackpoint>
          <Trackpoint>
            <Time>2019-08-01T17:07:04.000Z</Time>
            <Position>
              <LatitudeDegrees>40.53051718510687351226806640625</LatitudeDegrees>
              <LongitudeDegrees>-4.04734971933066844940185546875</LongitudeDegrees>
            </Position>
            <AltitudeMeters>845</AltitudeMeters>
            <DistanceMeters>NAN</DistanceMeters>
          </Trackpoint>
          <Trackpoint>
            <Time>2019-08-01T17:07:05.000Z</Time>
            <Position>
              <LatitudeDegrees>40.53046002052724361419677734375</LatitudeDegrees>
              <LongitudeDegrees>-4.0473345480859279632568359375</LongitudeDegrees>
            </Position>
            <AltitudeMeters>845.20001220703125</AltitudeMeters>
            <DistanceMeters>NAN</DistanceMeters>
          </Trackpoint>
          <Trackpoint>
            <Time>2019-08-01T17:07:06.000Z</Time>
            <Position>
              <LatitudeDegrees>40.530404113233089447021484375</LatitudeDegrees>
              <LongitudeDegrees>-4.0473179519176483154296875</LongitudeDegrees>
            </Position>
            <AltitudeMeters>845.4000244140625</AltitudeMeters>
            <DistanceMeters>NAN</DistanceMeters>
          </Trackpoint>
          <Trackpoint>
            <Time>2019-08-01T17:07:07.000Z</Time>
            <Position>
              <LatitudeDegrees>40.530349798500537872314453125</LatitudeDegrees>
              <LongitudeDegrees>-4.04729959554970264434814453125</LongitudeDegrees>
            </Position>
            <AltitudeMeters>845.4000244140625</AltitudeMeters>
            <DistanceMeters>NAN</DistanceMeters>
          </Trackpoint>
          <Trackpoint>
            <Time>2019-08-01T17:07:08.000Z</Time>
            <Position>
              <LatitudeDegrees>40.5302983336150646209716796875</LatitudeDegrees>
              <LongitudeDegrees>-4.04727838933467864990234375</LongitudeDegrees>
            </Position>
            <AltitudeMeters>845.5999755859375</AltitudeMeters>
            <DistanceMeters>NAN</DistanceMeters>
          </Trackpoint>
          <Trackpoint>
            <Time>2019-08-01T17:07:09.000Z</Time>
            <Position>
              <LatitudeDegrees>40.53025080822408199310302734375</LatitudeDegrees>
              <LongitudeDegrees>-4.0472560934722423553466796875</LongitudeDegrees>
            </Position>
            <AltitudeMeters>845.5999755859375</AltitudeMeters>
            <DistanceMeters>NAN</DistanceMeters>
          </Trackpoint>
          <Trackpoint>
            <Time>2019-08-01T17:07:10.000Z</Time>
            <Position>
              <LatitudeDegrees>40.53020454011857509613037109375</LatitudeDegrees>
              <LongitudeDegrees>-4.0472348034381866455078125</LongitudeDegrees>
            </Position>
            <AltitudeMeters>845.5999755859375</AltitudeMeters>
            <DistanceMeters>NAN</DistanceMeters>
          </Trackpoint>
          <Trackpoint>
            <Time>2019-08-01T17:07:11.000Z</Time>
            <Position>
              <LatitudeDegrees>40.5301591940224170684814453125</LatitudeDegrees>
              <LongitudeDegrees>-4.0472131781280040740966796875</LongitudeDegrees>
            </Position>
            <AltitudeMeters>845.79998779296875</AltitudeMeters>
            <DistanceMeters>NAN</DistanceMeters>
          </Trackpoint>
          <Trackpoint>
            <Time>2019-08-01T17:07:12.000Z</Time>
            <Position>
              <LatitudeDegrees>40.53011468611657619476318359375</LatitudeDegrees>
              <LongitudeDegrees>-4.04719029553234577178955078125</LongitudeDegrees>
            </Position>
            <AltitudeMeters>846.20001220703125</AltitudeMeters>
            <DistanceMeters>NAN</DistanceMeters>
          </Trackpoint>
          <Trackpoint>
            <Time>2019-08-01T17:07:13.000Z</Time>
            <Position>
              <LatitudeDegrees>40.53006825037300586700439453125</LatitudeDegrees>
              <LongitudeDegrees>-4.0471672452986240386962890625</LongitudeDegrees>
            </Position>
            <AltitudeMeters>846.4000244140625</AltitudeMeters>
            <DistanceMeters>NAN</DistanceMeters>
          </Trackpoint>
          <Trackpoint>
            <Time>2019-08-01T17:07:14.000Z</Time>
            <Position>
              <LatitudeDegrees>40.53002022206783294677734375</LatitudeDegrees>
              <LongitudeDegrees>-4.04714419506490230560302734375</LongitudeDegrees>
            </Position>
            <AltitudeMeters>846.4000244140625</AltitudeMeters>
            <DistanceMeters>NAN</DistanceMeters>
          </Trackpoint>
          <Trackpoint>
            <Time>2019-08-01T17:07:15.000Z</Time>
            <Position>
              <LatitudeDegrees>40.52997252903878688812255859375</LatitudeDegrees>
              <LongitudeDegrees>-4.0471199713647365570068359375</LongitudeDegrees>
            </Position>
            <AltitudeMeters>846.5999755859375</AltitudeMeters>
            <DistanceMeters>NAN</DistanceMeters>
          </Trackpoint>
          <Trackpoint>
            <Time>2019-08-01T17:07:16.000Z</Time>
            <Position>
              <LatitudeDegrees>40.529926680028438568115234375</LatitudeDegrees>
              <LongitudeDegrees>-4.047096334397792816162109375</LongitudeDegrees>
            </Position>
            <AltitudeMeters>846.5999755859375</AltitudeMeters>
            <DistanceMeters>NAN</DistanceMeters>
          </Trackpoint>
          <Trackpoint>
            <Time>2019-08-01T17:07:17.000Z</Time>
            <Position>
              <LatitudeDegrees>40.52988133393228054046630859375</LatitudeDegrees>
              <LongitudeDegrees>-4.0470730327069759368896484375</LongitudeDegrees>
            </Position>
            <AltitudeMeters>846.79998779296875</AltitudeMeters>
            <DistanceMeters>NAN</DistanceMeters>
          </Trackpoint>
          <Trackpoint>
            <Time>2019-08-01T17:07:18.000Z</Time>
            <Position>
              <LatitudeDegrees>40.52983640693128108978271484375</LatitudeDegrees>
              <LongitudeDegrees>-4.04704813845455646514892578125</LongitudeDegrees>
            </Position>
            <AltitudeMeters>846.79998779296875</AltitudeMeters>
            <DistanceMeters>NAN</DistanceMeters>
          </Trackpoint>
          <Trackpoint>
            <Time>2019-08-01T17:07:19.000Z</Time>
            <Position>
              <LatitudeDegrees>40.52979089319705963134765625</LatitudeDegrees>
              <LongitudeDegrees>-4.0470229089260101318359375</LongitudeDegrees>
            </Position>
            <AltitudeMeters>847</AltitudeMeters>
            <DistanceMeters>NAN</DistanceMeters>
          </Trackpoint>
          <Trackpoint>
            <Time>2019-08-01T17:07:20.000Z</Time>
            <Position>
              <LatitudeDegrees>40.529745630919933319091796875</LatitudeDegrees>
              <LongitudeDegrees>-4.046997763216495513916015625</LongitudeDegrees>
            </Position>
            <AltitudeMeters>847.20001220703125</AltitudeMeters>
            <DistanceMeters>NAN</DistanceMeters>
          </Trackpoint>
          <Trackpoint>
            <Time>2019-08-01T17:07:21.000Z</Time>
            <Position>
              <LatitudeDegrees>40.5297025479376316070556640625</LatitudeDegrees>
              <LongitudeDegrees>-4.04697303660213947296142578125</LongitudeDegrees>
            </Position>
            <AltitudeMeters>847.4000244140625</AltitudeMeters>
            <DistanceMeters>NAN</DistanceMeters>
          </Trackpoint>
          <Trackpoint>
            <Time>2019-08-01T17:07:22.000Z</Time>
            <Position>
              <LatitudeDegrees>40.52966088987886905670166015625</LatitudeDegrees>
              <LongitudeDegrees>-4.0469491481781005859375</LongitudeDegrees>
            </Position>
            <AltitudeMeters>848</AltitudeMeters>
            <DistanceMeters>NAN</DistanceMeters>
          </Trackpoint>
          <Trackpoint>
            <Time>2019-08-01T17:07:23.000Z</Time>
            <Position>
              <LatitudeDegrees>40.5296200700104236602783203125</LatitudeDegrees>
              <LongitudeDegrees>-4.0469241701066493988037109375</LongitudeDegrees>
            </Position>
            <AltitudeMeters>848.20001220703125</AltitudeMeters>
            <DistanceMeters>NAN</DistanceMeters>
          </Trackpoint>
          <Trackpoint>
            <Time>2019-08-01T17:07:25.000Z</Time>
            <Position>
              <LatitudeDegrees>40.5295409448444843292236328125</LatitudeDegrees>
              <LongitudeDegrees>-4.0468768961727619171142578125</LongitudeDegrees>
            </Position>
            <AltitudeMeters>848.79998779296875</AltitudeMeters>
            <DistanceMeters>NAN</DistanceMeters>
          </Trackpoint>
          <Trackpoint>
            <Time>2019-08-01T17:07:26.000Z</Time>
            <Position>
              <LatitudeDegrees>40.52950113080441951751708984375</LatitudeDegrees>
              <LongitudeDegrees>-4.04685468412935733795166015625</LongitudeDegrees>
            </Position>
            <AltitudeMeters>848.79998779296875</AltitudeMeters>
            <DistanceMeters>NAN</DistanceMeters>
          </Trackpoint>
          <Trackpoint>
            <Time>2019-08-01T17:07:27.000Z</Time>
            <Position>
              <LatitudeDegrees>40.5294594727456569671630859375</LatitudeDegrees>
              <LongitudeDegrees>-4.04683356173336505889892578125</LongitudeDegrees>
            </Position>
            <AltitudeMeters>849</AltitudeMeters>
            <DistanceMeters>NAN</DistanceMeters>
          </Trackpoint>
          <Trackpoint>
            <Time>2019-08-01T17:07:28.000Z</Time>
            <Position>
              <LatitudeDegrees>40.5294187366962432861328125</LatitudeDegrees>
              <LongitudeDegrees>-4.04681378044188022613525390625</LongitudeDegrees>
            </Position>
            <AltitudeMeters>849</AltitudeMeters>
            <DistanceMeters>NAN</DistanceMeters>
          </Trackpoint>
          <Trackpoint>
            <Time>2019-08-01T17:07:29.000Z</Time>
            <Position>
              <LatitudeDegrees>40.52937976084649562835693359375</LatitudeDegrees>
              <LongitudeDegrees>-4.0467927418649196624755859375</LongitudeDegrees>
            </Position>
            <AltitudeMeters>849.20001220703125</AltitudeMeters>
            <DistanceMeters>NAN</DistanceMeters>
          </Trackpoint>
          <Trackpoint>
            <Time>2019-08-01T17:07:31.000Z</Time>
            <Position>
              <LatitudeDegrees>40.5293055810034275054931640625</LatitudeDegrees>
              <LongitudeDegrees>-4.04675359837710857391357421875</LongitudeDegrees>
            </Position>
            <AltitudeMeters>850</AltitudeMeters>
            <DistanceMeters>NAN</DistanceMeters>
          </Trackpoint>
          <Trackpoint>
            <Time>2019-08-01T17:07:32.000Z</Time>
            <Position>
              <LatitudeDegrees>40.5292683653533458709716796875</LatitudeDegrees>
              <LongitudeDegrees>-4.0467364154756069183349609375</LongitudeDegrees>
            </Position>
            <AltitudeMeters>850.20001220703125</AltitudeMeters>
            <DistanceMeters>NAN</DistanceMeters>
          </Trackpoint>
          <Trackpoint>
            <Time>2019-08-01T17:07:33.000Z</Time>
            <Position>
              <LatitudeDegrees>40.5292301438748836517333984375</LatitudeDegrees>
              <LongitudeDegrees>-4.04671839438378810882568359375</LongitudeDegrees>
            </Position>
            <AltitudeMeters>850.4000244140625</AltitudeMeters>
            <DistanceMeters>NAN</DistanceMeters>
          </Trackpoint>
          <Trackpoint>
            <Time>2019-08-01T17:07:34.000Z</Time>
            <Position>
              <LatitudeDegrees>40.52919016219675540924072265625</LatitudeDegrees>
              <LongitudeDegrees>-4.04670238494873046875</LongitudeDegrees>
            </Position>
            <AltitudeMeters>850.79998779296875</AltitudeMeters>
            <DistanceMeters>NAN</DistanceMeters>
          </Trackpoint>
          <Trackpoint>
            <Time>2019-08-01T17:07:35.000Z</Time>
            <Position>
              <LatitudeDegrees>40.529149509966373443603515625</LatitudeDegrees>
              <LongitudeDegrees>-4.0466898120939731597900390625</LongitudeDegrees>
            </Position>
            <AltitudeMeters>851</AltitudeMeters>
            <DistanceMeters>NAN</DistanceMeters>
          </Trackpoint>
          <Trackpoint>
            <Time>2019-08-01T17:07:36.000Z</Time>
            <Position>
              <LatitudeDegrees>40.52910835482180118560791015625</LatitudeDegrees>
              <LongitudeDegrees>-4.04667950235307216644287109375</LongitudeDegrees>
            </Position>
            <AltitudeMeters>851.4000244140625</AltitudeMeters>
            <DistanceMeters>NAN</DistanceMeters>
          </Trackpoint>
          <Trackpoint>
            <Time>2019-08-01T17:07:37.000Z</Time>
            <Position>
              <LatitudeDegrees>40.52906669676303863525390625</LatitudeDegrees>
              <LongitudeDegrees>-4.046671874821186065673828125</LongitudeDegrees>
            </Position>
            <AltitudeMeters>851.4000244140625</AltitudeMeters>
            <DistanceMeters>NAN</DistanceMeters>
          </Trackpoint>
          <Trackpoint>
            <Time>2019-08-01T17:07:39.000Z</Time>
            <Position>
              <LatitudeDegrees>40.5289847217500209808349609375</LatitudeDegrees>
              <LongitudeDegrees>-4.04666223563253879547119140625</LongitudeDegrees>
            </Position>
            <AltitudeMeters>851.79998779296875</AltitudeMeters>
            <DistanceMeters>NAN</DistanceMeters>
          </Trackpoint>
          <Trackpoint>
            <Time>2019-08-01T17:07:40.000Z</Time>
            <Position>
              <LatitudeDegrees>40.528943650424480438232421875</LatitudeDegrees>
              <LongitudeDegrees>-4.04666273854672908782958984375</LongitudeDegrees>
            </Position>
            <AltitudeMeters>852.20001220703125</AltitudeMeters>
            <DistanceMeters>NAN</DistanceMeters>
          </Trackpoint>
          <Trackpoint>
            <Time>2019-08-01T17:07:41.000Z</Time>
            <Position>
              <LatitudeDegrees>40.52890350110828876495361328125</LatitudeDegrees>
              <LongitudeDegrees>-4.0466670133173465728759765625</LongitudeDegrees>
            </Position>
            <AltitudeMeters>852.4000244140625</AltitudeMeters>
            <DistanceMeters>NAN</DistanceMeters>
          </Trackpoint>
          <Trackpoint>
            <Time>2019-08-01T17:07:42.000Z</Time>
            <Position>
              <LatitudeDegrees>40.528864525258541107177734375</LatitudeDegrees>
              <LongitudeDegrees>-4.0466730482876300811767578125</LongitudeDegrees>
            </Position>
            <AltitudeMeters>852.5999755859375</AltitudeMeters>
            <DistanceMeters>NAN</DistanceMeters>
          </Trackpoint>
          <Trackpoint>
            <Time>2019-08-01T17:07:43.000Z</Time>
            <Position>
              <LatitudeDegrees>40.52882529795169830322265625</LatitudeDegrees>
              <LongitudeDegrees>-4.04668117873370647430419921875</LongitudeDegrees>
            </Position>
            <AltitudeMeters>852.79998779296875</AltitudeMeters>
            <DistanceMeters>NAN</DistanceMeters>
          </Trackpoint>
          <Trackpoint>
            <Time>2019-08-01T17:07:44.000Z</Time>
            <Position>
              <LatitudeDegrees>40.5287855677306652069091796875</LatitudeDegrees>
              <LongitudeDegrees>-4.0466916561126708984375</LongitudeDegrees>
            </Position>
            <AltitudeMeters>853</AltitudeMeters>
            <DistanceMeters>NAN</DistanceMeters>
          </Trackpoint>
          <Trackpoint>
            <Time>2019-08-01T17:07:45.000Z</Time>
            <Position>
              <LatitudeDegrees>40.52874483168125152587890625</LatitudeDegrees>
              <LongitudeDegrees>-4.04670238494873046875</LongitudeDegrees>
            </Position>
            <AltitudeMeters>853</AltitudeMeters>
            <DistanceMeters>NAN</DistanceMeters>
          </Trackpoint>
          <Trackpoint>
            <Time>2019-08-01T17:07:46.000Z</Time>
            <Position>
              <LatitudeDegrees>40.528702251613140106201171875</LatitudeDegrees>
              <LongitudeDegrees>-4.0467139519751071929931640625</LongitudeDegrees>
            </Position>
            <AltitudeMeters>853.20001220703125</AltitudeMeters>
            <DistanceMeters>NAN</DistanceMeters>
          </Trackpoint>
          <Trackpoint>
            <Time>2019-08-01T17:07:47.000Z</Time>
            <Position>
              <LatitudeDegrees>40.528657995164394378662109375</LatitudeDegrees>
              <LongitudeDegrees>-4.0467253513634204864501953125</LongitudeDegrees>
            </Position>
            <AltitudeMeters>853.4000244140625</AltitudeMeters>
            <DistanceMeters>NAN</DistanceMeters>
          </Trackpoint>
          <Trackpoint>
            <Time>2019-08-01T17:07:48.000Z</Time>
            <Position>
              <LatitudeDegrees>40.52861315198242664337158203125</LatitudeDegrees>
              <LongitudeDegrees>-4.04673733748495578765869140625</LongitudeDegrees>
            </Position>
            <AltitudeMeters>853.79998779296875</AltitudeMeters>
            <DistanceMeters>NAN</DistanceMeters>
          </Trackpoint>
          <Trackpoint>
            <Time>2019-08-01T17:07:49.000Z</Time>
            <Position>
              <LatitudeDegrees>40.52856738679111003875732421875</LatitudeDegrees>
              <LongitudeDegrees>-4.04675066471099853515625</LongitudeDegrees>
            </Position>
            <AltitudeMeters>854</AltitudeMeters>
            <DistanceMeters>NAN</DistanceMeters>
          </Trackpoint>
          <Trackpoint>
            <Time>2019-08-01T17:07:50.000Z</Time>
            <Position>
              <LatitudeDegrees>40.52852044813334941864013671875</LatitudeDegrees>
              <LongitudeDegrees>-4.0467642433941364288330078125</LongitudeDegrees>
            </Position>
            <AltitudeMeters>854.20001220703125</AltitudeMeters>
            <DistanceMeters>NAN</DistanceMeters>
          </Trackpoint>
          <Trackpoint>
            <Time>2019-08-01T17:07:51.000Z</Time>
            <Position>
              <LatitudeDegrees>40.52847300656139850616455078125</LatitudeDegrees>
              <LongitudeDegrees>-4.04677815735340118408203125</LongitudeDegrees>
            </Position>
            <AltitudeMeters>854.4000244140625</AltitudeMeters>
            <DistanceMeters>NAN</DistanceMeters>
          </Trackpoint>
          <Trackpoint>
            <Time>2019-08-01T17:07:52.000Z</Time>
            <Position>
              <LatitudeDegrees>40.5284261517226696014404296875</LatitudeDegrees>
              <LongitudeDegrees>-4.04679181985557079315185546875</LongitudeDegrees>
            </Position>
            <AltitudeMeters>854.5999755859375</AltitudeMeters>
            <DistanceMeters>NAN</DistanceMeters>
          </Trackpoint>
          <Trackpoint>
            <Time>2019-08-01T17:07:53.000Z</Time>
            <Position>
              <LatitudeDegrees>40.52837996743619441986083984375</LatitudeDegrees>
              <LongitudeDegrees>-4.0468051470816135406494140625</LongitudeDegrees>
            </Position>
            <AltitudeMeters>854.79998779296875</AltitudeMeters>
            <DistanceMeters>NAN</DistanceMeters>
          </Trackpoint>
          <Trackpoint>
            <Time>2019-08-01T17:07:54.000Z</Time>
            <Position>
              <LatitudeDegrees>40.5283342860639095306396484375</LatitudeDegrees>
              <LongitudeDegrees>-4.04681763611733913421630859375</LongitudeDegrees>
            </Position>
            <AltitudeMeters>855</AltitudeMeters>
            <DistanceMeters>NAN</DistanceMeters>
          </Trackpoint>
          <Trackpoint>
            <Time>2019-08-01T17:07:55.000Z</Time>
            <Position>
              <LatitudeDegrees>40.52828994579613208770751953125</LatitudeDegrees>
              <LongitudeDegrees>-4.04682953841984272003173828125</LongitudeDegrees>
            </Position>
            <AltitudeMeters>855</AltitudeMeters>
            <DistanceMeters>NAN</DistanceMeters>
          </Trackpoint>
          <Trackpoint>
            <Time>2019-08-01T17:07:56.000Z</Time>
            <Position>
              <LatitudeDegrees>40.5282454378902912139892578125</LatitudeDegrees>
              <LongitudeDegrees>-4.04684118926525115966796875</LongitudeDegrees>
            </Position>
            <AltitudeMeters>855.20001220703125</AltitudeMeters>
            <DistanceMeters>NAN</DistanceMeters>
          </Trackpoint>
          <Trackpoint>
            <Time>2019-08-01T17:07:57.000Z</Time>
            <Position>
              <LatitudeDegrees>40.528200678527355194091796875</LatitudeDegrees>
              <LongitudeDegrees>-4.04685325920581817626953125</LongitudeDegrees>
            </Position>
            <AltitudeMeters>855.4000244140625</AltitudeMeters>
            <DistanceMeters>NAN</DistanceMeters>
          </Trackpoint>
          <Trackpoint>
            <Time>2019-08-01T17:07:59.000Z</Time>
            <Position>
              <LatitudeDegrees>40.5281126685440540313720703125</LatitudeDegrees>
              <LongitudeDegrees>-4.04687480069696903228759765625</LongitudeDegrees>
            </Position>
            <AltitudeMeters>855.79998779296875</AltitudeMeters>
            <DistanceMeters>NAN</DistanceMeters>
          </Trackpoint>
          <Trackpoint>
            <Time>2019-08-01T17:08:00.000Z</Time>
            <Position>
              <LatitudeDegrees>40.52806765772402286529541015625</LatitudeDegrees>
              <LongitudeDegrees>-4.04688703827559947967529296875</LongitudeDegrees>
            </Position>
            <AltitudeMeters>855.79998779296875</AltitudeMeters>
            <DistanceMeters>NAN</DistanceMeters>
          </Trackpoint>
          <Trackpoint>
            <Time>2019-08-01T17:08:01.000Z</Time>
            <Position>
              <LatitudeDegrees>40.528021641075611114501953125</LatitudeDegrees>
              <LongitudeDegrees>-4.04689877294003963470458984375</LongitudeDegrees>
            </Position>
            <AltitudeMeters>855.79998779296875</AltitudeMeters>
            <DistanceMeters>NAN</DistanceMeters>
          </Trackpoint>
          <Trackpoint>
            <Time>2019-08-01T17:08:02.000Z</Time>
            <Position>
              <LatitudeDegrees>40.5279755406081676483154296875</LatitudeDegrees>
              <LongitudeDegrees>-4.0469090826809406280517578125</LongitudeDegrees>
            </Position>
            <AltitudeMeters>855.79998779296875</AltitudeMeters>
            <DistanceMeters>NAN</DistanceMeters>
          </Trackpoint>
          <Trackpoint>
            <Time>2019-08-01T17:08:03.000Z</Time>
            <Position>
              <LatitudeDegrees>40.52792935632169246673583984375</LatitudeDegrees>
              <LongitudeDegrees>-4.0469184704124927520751953125</LongitudeDegrees>
            </Position>
            <AltitudeMeters>856</AltitudeMeters>
            <DistanceMeters>NAN</DistanceMeters>
          </Trackpoint>
          <Trackpoint>
            <Time>2019-08-01T17:08:04.000Z</Time>
            <Position>
              <LatitudeDegrees>40.5278826691210269927978515625</LatitudeDegrees>
              <LongitudeDegrees>-4.04692542739212512969970703125</LongitudeDegrees>
            </Position>
            <AltitudeMeters>856</AltitudeMeters>
            <DistanceMeters>NAN</DistanceMeters>
          </Trackpoint>
          <Trackpoint>
            <Time>2019-08-01T17:08:05.000Z</Time>
            <Position>
              <LatitudeDegrees>40.5278357304632663726806640625</LatitudeDegrees>
              <LongitudeDegrees>-4.04692978598177433013916015625</LongitudeDegrees>
            </Position>
            <AltitudeMeters>856.20001220703125</AltitudeMeters>
            <DistanceMeters>NAN</DistanceMeters>
          </Trackpoint>
          <Trackpoint>
            <Time>2019-08-01T17:08:06.000Z</Time>
            <Position>
              <LatitudeDegrees>40.5277877859771251678466796875</LatitudeDegrees>
              <LongitudeDegrees>-4.0469305403530597686767578125</LongitudeDegrees>
            </Position>
            <AltitudeMeters>856.4000244140625</AltitudeMeters>
            <DistanceMeters>NAN</DistanceMeters>
          </Trackpoint>
          <Trackpoint>
            <Time>2019-08-01T17:08:07.000Z</Time>
            <Position>
              <LatitudeDegrees>40.52773992531001567840576171875</LatitudeDegrees>
              <LongitudeDegrees>-4.0469290316104888916015625</LongitudeDegrees>
            </Position>
            <AltitudeMeters>856.4000244140625</AltitudeMeters>
            <DistanceMeters>NAN</DistanceMeters>
          </Trackpoint>
          <Trackpoint>
            <Time>2019-08-01T17:08:08.000Z</Time>
            <Position>
              <LatitudeDegrees>40.5276915617287158966064453125</LatitudeDegrees>
              <LongitudeDegrees>-4.0469265170395374298095703125</LongitudeDegrees>
            </Position>
            <AltitudeMeters>856.4000244140625</AltitudeMeters>
            <DistanceMeters>NAN</DistanceMeters>
          </Trackpoint>
          <Trackpoint>
            <Time>2019-08-01T17:08:09.000Z</Time>
            <Position>
              <LatitudeDegrees>40.52764219231903553009033203125</LatitudeDegrees>
              <LongitudeDegrees>-4.0469218231737613677978515625</LongitudeDegrees>
            </Position>
            <AltitudeMeters>856.5999755859375</AltitudeMeters>
            <DistanceMeters>NAN</DistanceMeters>
          </Trackpoint>
          <Trackpoint>
            <Time>2019-08-01T17:08:10.000Z</Time>
            <Position>
              <LatitudeDegrees>40.527593158185482025146484375</LatitudeDegrees>
              <LongitudeDegrees>-4.04691369272768497467041015625</LongitudeDegrees>
            </Position>
            <AltitudeMeters>856.79998779296875</AltitudeMeters>
            <DistanceMeters>NAN</DistanceMeters>
          </Trackpoint>
          <Trackpoint>
            <Time>2019-08-01T17:08:11.000Z</Time>
            <Position>
              <LatitudeDegrees>40.52754454314708709716796875</LatitudeDegrees>
              <LongitudeDegrees>-4.046904556453227996826171875</LongitudeDegrees>
            </Position>
            <AltitudeMeters>857.20001220703125</AltitudeMeters>
            <DistanceMeters>NAN</DistanceMeters>
          </Trackpoint>
          <Trackpoint>
            <Time>2019-08-01T17:08:12.000Z</Time>
            <Position>
              <LatitudeDegrees>40.5274957604706287384033203125</LatitudeDegrees>
              <LongitudeDegrees>-4.04689441435039043426513671875</LongitudeDegrees>
            </Position>
            <AltitudeMeters>857.4000244140625</AltitudeMeters>
            <DistanceMeters>NAN</DistanceMeters>
          </Trackpoint>
          <Trackpoint>
            <Time>2019-08-01T17:08:13.000Z</Time>
            <Position>
              <LatitudeDegrees>40.527446977794170379638671875</LatitudeDegrees>
              <LongitudeDegrees>-4.0468815900385379791259765625</LongitudeDegrees>
            </Position>
            <AltitudeMeters>857.5999755859375</AltitudeMeters>
            <DistanceMeters>NAN</DistanceMeters>
          </Trackpoint>
          <Trackpoint>
            <Time>2019-08-01T17:08:14.000Z</Time>
            <Position>
              <LatitudeDegrees>40.52739811129868030548095703125</LatitudeDegrees>
              <LongitudeDegrees>-4.046865999698638916015625</LongitudeDegrees>
            </Position>
            <AltitudeMeters>857.5999755859375</AltitudeMeters>
            <DistanceMeters>NAN</DistanceMeters>
          </Trackpoint>
          <Trackpoint>
            <Time>2019-08-01T17:08:15.000Z</Time>
            <Position>
              <LatitudeDegrees>40.52734983153641223907470703125</LatitudeDegrees>
              <LongitudeDegrees>-4.046849906444549560546875</LongitudeDegrees>
            </Position>
            <AltitudeMeters>857.5999755859375</AltitudeMeters>
            <DistanceMeters>NAN</DistanceMeters>
          </Trackpoint>
          <Trackpoint>
            <Time>2019-08-01T17:08:16.000Z</Time>
            <Position>
              <LatitudeDegrees>40.52730188705027103424072265625</LatitudeDegrees>
              <LongitudeDegrees>-4.046833813190460205078125</LongitudeDegrees>
            </Position>
            <AltitudeMeters>857.79998779296875</AltitudeMeters>
            <DistanceMeters>NAN</DistanceMeters>
          </Trackpoint>
          <Trackpoint>
            <Time>2019-08-01T17:08:17.000Z</Time>
            <Position>
              <LatitudeDegrees>40.5272540263831615447998046875</LatitudeDegrees>
              <LongitudeDegrees>-4.04681830666959285736083984375</LongitudeDegrees>
            </Position>
            <AltitudeMeters>857.79998779296875</AltitudeMeters>
            <DistanceMeters>NAN</DistanceMeters>
          </Trackpoint>
          <Trackpoint>
            <Time>2019-08-01T17:08:18.000Z</Time>
            <Position>
              <LatitudeDegrees>40.52720599807798862457275390625</LatitudeDegrees>
              <LongitudeDegrees>-4.04680456034839153289794921875</LongitudeDegrees>
            </Position>
            <AltitudeMeters>857.79998779296875</AltitudeMeters>
            <DistanceMeters>NAN</DistanceMeters>
          </Trackpoint>
          <Trackpoint>
            <Time>2019-08-01T17:08:19.000Z</Time>
            <Position>
              <LatitudeDegrees>40.527157299220561981201171875</LatitudeDegrees>
              <LongitudeDegrees>-4.04679114930331707000732421875</LongitudeDegrees>
            </Position>
            <AltitudeMeters>858</AltitudeMeters>
            <DistanceMeters>NAN</DistanceMeters>
          </Trackpoint>
          <Trackpoint>
            <Time>2019-08-01T17:08:21.000Z</Time>
            <Position>
              <LatitudeDegrees>40.52705797366797924041748046875</LatitudeDegrees>
              <LongitudeDegrees>-4.04675963334739208221435546875</LongitudeDegrees>
            </Position>
            <AltitudeMeters>858</AltitudeMeters>
            <DistanceMeters>NAN</DistanceMeters>
          </Trackpoint>
          <Trackpoint>
            <Time>2019-08-01T17:08:22.000Z</Time>
            <Position>
              <LatitudeDegrees>40.52700751461088657379150390625</LatitudeDegrees>
              <LongitudeDegrees>-4.04674370773136615753173828125</LongitudeDegrees>
            </Position>
            <AltitudeMeters>858</AltitudeMeters>
            <DistanceMeters>NAN</DistanceMeters>
          </Trackpoint>
          <Trackpoint>
            <Time>2019-08-01T17:08:23.000Z</Time>
            <Position>
              <LatitudeDegrees>40.526957474648952484130859375</LatitudeDegrees>
              <LongitudeDegrees>-4.04672828502953052520751953125</LongitudeDegrees>
            </Position>
            <AltitudeMeters>858</AltitudeMeters>
            <DistanceMeters>NAN</DistanceMeters>
          </Trackpoint>
          <Trackpoint>
            <Time>2019-08-01T17:08:24.000Z</Time>
            <Position>
              <LatitudeDegrees>40.52690793760120868682861328125</LatitudeDegrees>
              <LongitudeDegrees>-4.0467132814228534698486328125</LongitudeDegrees>
            </Position>
            <AltitudeMeters>858.20001220703125</AltitudeMeters>
            <DistanceMeters>NAN</DistanceMeters>
          </Trackpoint>
          <Trackpoint>
            <Time>2019-08-01T17:08:25.000Z</Time>
            <Position>
              <LatitudeDegrees>40.52685865201056003570556640625</LatitudeDegrees>
              <LongitudeDegrees>-4.04669769108295440673828125</LongitudeDegrees>
            </Position>
            <AltitudeMeters>858.20001220703125</AltitudeMeters>
            <DistanceMeters>NAN</DistanceMeters>
          </Trackpoint>
          <Trackpoint>
            <Time>2019-08-01T17:08:26.000Z</Time>
            <Position>
              <LatitudeDegrees>40.5268091149628162384033203125</LatitudeDegrees>
              <LongitudeDegrees>-4.046681262552738189697265625</LongitudeDegrees>
            </Position>
            <AltitudeMeters>858.4000244140625</AltitudeMeters>
            <DistanceMeters>NAN</DistanceMeters>
          </Trackpoint>
          <Trackpoint>
            <Time>2019-08-01T17:08:27.000Z</Time>
            <Position>
              <LatitudeDegrees>40.52675957791507244110107421875</LatitudeDegrees>
              <LongitudeDegrees>-4.04666424728929996490478515625</LongitudeDegrees>
            </Position>
            <AltitudeMeters>858.5999755859375</AltitudeMeters>
            <DistanceMeters>NAN</DistanceMeters>
          </Trackpoint>
          <Trackpoint>
            <Time>2019-08-01T17:08:28.000Z</Time>
            <Position>
              <LatitudeDegrees>40.526710040867328643798828125</LatitudeDegrees>
              <LongitudeDegrees>-4.0466487407684326171875</LongitudeDegrees>
            </Position>
            <AltitudeMeters>859.20001220703125</AltitudeMeters>
            <DistanceMeters>NAN</DistanceMeters>
          </Trackpoint>
          <Trackpoint>
            <Time>2019-08-01T17:08:30.000Z</Time>
            <Position>
              <LatitudeDegrees>40.5266113020479679107666015625</LatitudeDegrees>
              <LongitudeDegrees>-4.046620242297649383544921875</LongitudeDegrees>
            </Position>
            <AltitudeMeters>859.5999755859375</AltitudeMeters>
            <DistanceMeters>NAN</DistanceMeters>
          </Trackpoint>
          <Trackpoint>
            <Time>2019-08-01T17:08:31.000Z</Time>
            <Position>
              <LatitudeDegrees>40.52656193263828754425048828125</LatitudeDegrees>
              <LongitudeDegrees>-4.04660473577678203582763671875</LongitudeDegrees>
            </Position>
            <AltitudeMeters>860</AltitudeMeters>
            <DistanceMeters>NAN</DistanceMeters>
          </Trackpoint>
          <Trackpoint>
            <Time>2019-08-01T17:08:32.000Z</Time>
            <Position>
              <LatitudeDegrees>40.52651348523795604705810546875</LatitudeDegrees>
              <LongitudeDegrees>-4.04658847488462924957275390625</LongitudeDegrees>
            </Position>
            <AltitudeMeters>860</AltitudeMeters>
            <DistanceMeters>NAN</DistanceMeters>
          </Trackpoint>
          <Trackpoint>
            <Time>2019-08-01T17:08:33.000Z</Time>
            <Position>
              <LatitudeDegrees>40.52646570838987827301025390625</LatitudeDegrees>
              <LongitudeDegrees>-4.046571962535381317138671875</LongitudeDegrees>
            </Position>
            <AltitudeMeters>860</AltitudeMeters>
            <DistanceMeters>NAN</DistanceMeters>
          </Trackpoint>
          <Trackpoint>
            <Time>2019-08-01T17:08:34.000Z</Time>
            <Position>
              <LatitudeDegrees>40.52641742862761020660400390625</LatitudeDegrees>
              <LongitudeDegrees>-4.04655545018613338470458984375</LongitudeDegrees>
            </Position>
            <AltitudeMeters>860.20001220703125</AltitudeMeters>
            <DistanceMeters>NAN</DistanceMeters>
          </Trackpoint>
          <Trackpoint>
            <Time>2019-08-01T17:08:35.000Z</Time>
            <Position>
              <LatitudeDegrees>40.52636881358921527862548828125</LatitudeDegrees>
              <LongitudeDegrees>-4.04654103331267833709716796875</LongitudeDegrees>
            </Position>
            <AltitudeMeters>860.20001220703125</AltitudeMeters>
            <DistanceMeters>NAN</DistanceMeters>
          </Trackpoint>
          <Trackpoint>
            <Time>2019-08-01T17:08:36.000Z</Time>
            <Position>
              <LatitudeDegrees>40.5263202823698520660400390625</LatitudeDegrees>
              <LongitudeDegrees>-4.0465261973440647125244140625</LongitudeDegrees>
            </Position>
            <AltitudeMeters>860.20001220703125</AltitudeMeters>
            <DistanceMeters>NAN</DistanceMeters>
          </Trackpoint>
          <Trackpoint>
            <Time>2019-08-01T17:08:37.000Z</Time>
            <Position>
              <LatitudeDegrees>40.52627191878855228424072265625</LatitudeDegrees>
              <LongitudeDegrees>-4.0465101040899753570556640625</LongitudeDegrees>
            </Position>
            <AltitudeMeters>860.20001220703125</AltitudeMeters>
            <DistanceMeters>NAN</DistanceMeters>
          </Trackpoint>
          <Trackpoint>
            <Time>2019-08-01T17:08:38.000Z</Time>
            <Position>
              <LatitudeDegrees>40.52622347138822078704833984375</LatitudeDegrees>
              <LongitudeDegrees>-4.04649459756910800933837890625</LongitudeDegrees>
            </Position>
            <AltitudeMeters>860.5999755859375</AltitudeMeters>
            <DistanceMeters>NAN</DistanceMeters>
          </Trackpoint>
          <Trackpoint>
            <Time>2019-08-01T17:08:39.000Z</Time>
            <Position>
              <LatitudeDegrees>40.52617569454014301300048828125</LatitudeDegrees>
              <LongitudeDegrees>-4.04647909104824066162109375</LongitudeDegrees>
            </Position>
            <AltitudeMeters>860.5999755859375</AltitudeMeters>
            <DistanceMeters>NAN</DistanceMeters>
          </Trackpoint>
          <Trackpoint>
            <Time>2019-08-01T17:08:40.000Z</Time>
            <Position>
              <LatitudeDegrees>40.52612842060625553131103515625</LatitudeDegrees>
              <LongitudeDegrees>-4.04646433889865875244140625</LongitudeDegrees>
            </Position>
            <AltitudeMeters>860.79998779296875</AltitudeMeters>
            <DistanceMeters>NAN</DistanceMeters>
          </Trackpoint>
          <Trackpoint>
            <Time>2019-08-01T17:08:41.000Z</Time>
            <Position>
              <LatitudeDegrees>40.5260815657675266265869140625</LatitudeDegrees>
              <LongitudeDegrees>-4.04644983820617198944091796875</LongitudeDegrees>
            </Position>
            <AltitudeMeters>860.79998779296875</AltitudeMeters>
            <DistanceMeters>NAN</DistanceMeters>
          </Trackpoint>
          <Trackpoint>
            <Time>2019-08-01T17:08:42.000Z</Time>
            <Position>
              <LatitudeDegrees>40.526034794747829437255859375</LatitudeDegrees>
              <LongitudeDegrees>-4.0464336611330509185791015625</LongitudeDegrees>
            </Position>
            <AltitudeMeters>860.79998779296875</AltitudeMeters>
            <DistanceMeters>NAN</DistanceMeters>
          </Trackpoint>
          <Trackpoint>
            <Time>2019-08-01T17:08:43.000Z</Time>
            <Position>
              <LatitudeDegrees>40.52598760463297367095947265625</LatitudeDegrees>
              <LongitudeDegrees>-4.04641740024089813232421875</LongitudeDegrees>
            </Position>
            <AltitudeMeters>860.79998779296875</AltitudeMeters>
            <DistanceMeters>NAN</DistanceMeters>
          </Trackpoint>
          <Trackpoint>
            <Time>2019-08-01T17:08:44.000Z</Time>
            <Position>
              <LatitudeDegrees>40.525940246880054473876953125</LatitudeDegrees>
              <LongitudeDegrees>-4.0464028157293796539306640625</LongitudeDegrees>
            </Position>
            <AltitudeMeters>861</AltitudeMeters>
            <DistanceMeters>NAN</DistanceMeters>
          </Trackpoint>
          <Trackpoint>
            <Time>2019-08-01T17:08:45.000Z</Time>
            <Position>
              <LatitudeDegrees>40.52589154802262783050537109375</LatitudeDegrees>
              <LongitudeDegrees>-4.046388901770114898681640625</LongitudeDegrees>
            </Position>
            <AltitudeMeters>861</AltitudeMeters>
            <DistanceMeters>NAN</DistanceMeters>
          </Trackpoint>
          <Trackpoint>
            <Time>2019-08-01T17:08:46.000Z</Time>
            <Position>
              <LatitudeDegrees>40.525843016803264617919921875</LatitudeDegrees>
              <LongitudeDegrees>-4.04637356288731098175048828125</LongitudeDegrees>
            </Position>
            <AltitudeMeters>861</AltitudeMeters>
            <DistanceMeters>NAN</DistanceMeters>
          </Trackpoint>
          <Trackpoint>
            <Time>2019-08-01T17:08:47.000Z</Time>
            <Position>
              <LatitudeDegrees>40.52579515613615512847900390625</LatitudeDegrees>
              <LongitudeDegrees>-4.0463582240045070648193359375</LongitudeDegrees>
            </Position>
            <AltitudeMeters>861.20001220703125</AltitudeMeters>
            <DistanceMeters>NAN</DistanceMeters>
          </Trackpoint>
          <Trackpoint>
            <Time>2019-08-01T17:08:48.000Z</Time>
            <Position>
              <LatitudeDegrees>40.52574754692614078521728515625</LatitudeDegrees>
              <LongitudeDegrees>-4.04634305275976657867431640625</LongitudeDegrees>
            </Position>
            <AltitudeMeters>861.20001220703125</AltitudeMeters>
            <DistanceMeters>NAN</DistanceMeters>
          </Trackpoint>
          <Trackpoint>
            <Time>2019-08-01T17:08:49.000Z</Time>
            <Position>
              <LatitudeDegrees>40.52569977007806301116943359375</LatitudeDegrees>
              <LongitudeDegrees>-4.0463280491530895233154296875</LongitudeDegrees>
            </Position>
            <AltitudeMeters>861.4000244140625</AltitudeMeters>
            <DistanceMeters>NAN</DistanceMeters>
          </Trackpoint>
          <Trackpoint>
            <Time>2019-08-01T17:08:50.000Z</Time>
            <Position>
              <LatitudeDegrees>40.525651909410953521728515625</LatitudeDegrees>
              <LongitudeDegrees>-4.0463126264512538909912109375</LongitudeDegrees>
            </Position>
            <AltitudeMeters>861.4000244140625</AltitudeMeters>
            <DistanceMeters>NAN</DistanceMeters>
          </Trackpoint>
          <Trackpoint>
            <Time>2019-08-01T17:08:51.000Z</Time>
            <Position>
              <LatitudeDegrees>40.5256041325628757476806640625</LatitudeDegrees>
              <LongitudeDegrees>-4.04629779048264026641845703125</LongitudeDegrees>
            </Position>
            <AltitudeMeters>861.4000244140625</AltitudeMeters>
            <DistanceMeters>NAN</DistanceMeters>
          </Trackpoint>
          <Trackpoint>
            <Time>2019-08-01T17:08:52.000Z</Time>
            <Position>
              <LatitudeDegrees>40.5255565233528614044189453125</LatitudeDegrees>
              <LongitudeDegrees>-4.046282283961772918701171875</LongitudeDegrees>
            </Position>
            <AltitudeMeters>861.4000244140625</AltitudeMeters>
            <DistanceMeters>NAN</DistanceMeters>
          </Trackpoint>
          <Trackpoint>
            <Time>2019-08-01T17:08:53.000Z</Time>
            <Position>
              <LatitudeDegrees>40.525509081780910491943359375</LatitudeDegrees>
              <LongitudeDegrees>-4.046265520155429840087890625</LongitudeDegrees>
            </Position>
            <AltitudeMeters>861.5999755859375</AltitudeMeters>
            <DistanceMeters>NAN</DistanceMeters>
          </Trackpoint>
          <Trackpoint>
            <Time>2019-08-01T17:08:54.000Z</Time>
            <Position>
              <LatitudeDegrees>40.5254613049328327178955078125</LatitudeDegrees>
              <LongitudeDegrees>-4.04624951072037220001220703125</LongitudeDegrees>
            </Position>
            <AltitudeMeters>861.5999755859375</AltitudeMeters>
            <DistanceMeters>NAN</DistanceMeters>
          </Trackpoint>
          <Trackpoint>
            <Time>2019-08-01T17:08:55.000Z</Time>
            <Position>
              <LatitudeDegrees>40.5254130251705646514892578125</LatitudeDegrees>
              <LongitudeDegrees>-4.04623358510434627532958984375</LongitudeDegrees>
            </Position>
            <AltitudeMeters>861.79998779296875</AltitudeMeters>
            <DistanceMeters>NAN</DistanceMeters>
          </Trackpoint>
          <Trackpoint>
            <Time>2019-08-01T17:08:56.000Z</Time>
            <Position>
              <LatitudeDegrees>40.52536499686539173126220703125</LatitudeDegrees>
              <LongitudeDegrees>-4.046216905117034912109375</LongitudeDegrees>
            </Position>
            <AltitudeMeters>862</AltitudeMeters>
            <DistanceMeters>NAN</DistanceMeters>
          </Trackpoint>
          <Trackpoint>
            <Time>2019-08-01T17:08:57.000Z</Time>
            <Position>
              <LatitudeDegrees>40.5253174714744091033935546875</LatitudeDegrees>
              <LongitudeDegrees>-4.04619938693940639495849609375</LongitudeDegrees>
            </Position>
            <AltitudeMeters>862.20001220703125</AltitudeMeters>
            <DistanceMeters>NAN</DistanceMeters>
          </Trackpoint>
          <Trackpoint>
            <Time>2019-08-01T17:08:58.000Z</Time>
            <Position>
              <LatitudeDegrees>40.52526994608342647552490234375</LatitudeDegrees>
              <LongitudeDegrees>-4.046181701123714447021484375</LongitudeDegrees>
            </Position>
            <AltitudeMeters>862.20001220703125</AltitudeMeters>
            <DistanceMeters>NAN</DistanceMeters>
          </Trackpoint>
          <Trackpoint>
            <Time>2019-08-01T17:08:59.000Z</Time>
            <Position>
              <LatitudeDegrees>40.52522309124469757080078125</LatitudeDegrees>
              <LongitudeDegrees>-4.04616217128932476043701171875</LongitudeDegrees>
            </Position>
            <AltitudeMeters>862.4000244140625</AltitudeMeters>
            <DistanceMeters>NAN</DistanceMeters>
          </Trackpoint>
          <Trackpoint>
            <Time>2019-08-01T17:09:00.000Z</Time>
            <Position>
              <LatitudeDegrees>40.52517740987241268157958984375</LatitudeDegrees>
              <LongitudeDegrees>-4.0461389534175395965576171875</LongitudeDegrees>
            </Position>
            <AltitudeMeters>862.4000244140625</AltitudeMeters>
            <DistanceMeters>NAN</DistanceMeters>
          </Trackpoint>
          <Trackpoint>
            <Time>2019-08-01T17:09:01.000Z</Time>
            <Position>
              <LatitudeDegrees>40.525131560862064361572265625</LatitudeDegrees>
              <LongitudeDegrees>-4.04611322097480297088623046875</LongitudeDegrees>
            </Position>
            <AltitudeMeters>862.4000244140625</AltitudeMeters>
            <DistanceMeters>NAN</DistanceMeters>
          </Trackpoint>
          <Trackpoint>
            <Time>2019-08-01T17:09:02.000Z</Time>
            <Position>
              <LatitudeDegrees>40.52508755587041378021240234375</LatitudeDegrees>
              <LongitudeDegrees>-4.04608656652271747589111328125</LongitudeDegrees>
            </Position>
            <AltitudeMeters>862.5999755859375</AltitudeMeters>
            <DistanceMeters>NAN</DistanceMeters>
          </Trackpoint>
          <Trackpoint>
            <Time>2019-08-01T17:09:04.000Z</Time>
            <Position>
              <LatitudeDegrees>40.5250013060867786407470703125</LatitudeDegrees>
              <LongitudeDegrees>-4.04602906666696071624755859375</LongitudeDegrees>
            </Position>
            <AltitudeMeters>862.5999755859375</AltitudeMeters>
            <DistanceMeters>NAN</DistanceMeters>
          </Trackpoint>
          <Trackpoint>
            <Time>2019-08-01T17:09:05.000Z</Time>
            <Position>
              <LatitudeDegrees>40.52495998330414295196533203125</LatitudeDegrees>
              <LongitudeDegrees>-4.04599788598716259002685546875</LongitudeDegrees>
            </Position>
            <AltitudeMeters>862.5999755859375</AltitudeMeters>
            <DistanceMeters>NAN</DistanceMeters>
          </Trackpoint>
          <Trackpoint>
            <Time>2019-08-01T17:09:06.000Z</Time>
            <Position>
              <LatitudeDegrees>40.5249198339879512786865234375</LatitudeDegrees>
              <LongitudeDegrees>-4.04596544802188873291015625</LongitudeDegrees>
            </Position>
            <AltitudeMeters>862.5999755859375</AltitudeMeters>
            <DistanceMeters>NAN</DistanceMeters>
          </Trackpoint>
          <Trackpoint>
            <Time>2019-08-01T17:09:07.000Z</Time>
            <Position>
              <LatitudeDegrees>40.52488052286207675933837890625</LatitudeDegrees>
              <LongitudeDegrees>-4.04593250714242458343505859375</LongitudeDegrees>
            </Position>
            <AltitudeMeters>862.79998779296875</AltitudeMeters>
            <DistanceMeters>NAN</DistanceMeters>
          </Trackpoint>
          <Trackpoint>
            <Time>2019-08-01T17:09:08.000Z</Time>
            <Position>
              <LatitudeDegrees>40.52484012208878993988037109375</LatitudeDegrees>
              <LongitudeDegrees>-4.04589973390102386474609375</LongitudeDegrees>
            </Position>
            <AltitudeMeters>862.79998779296875</AltitudeMeters>
            <DistanceMeters>NAN</DistanceMeters>
          </Trackpoint>
          <Trackpoint>
            <Time>2019-08-01T17:09:09.000Z</Time>
            <Position>
              <LatitudeDegrees>40.52480039186775684356689453125</LatitudeDegrees>
              <LongitudeDegrees>-4.045866541564464569091796875</LongitudeDegrees>
            </Position>
            <AltitudeMeters>862.79998779296875</AltitudeMeters>
            <DistanceMeters>NAN</DistanceMeters>
          </Trackpoint>
          <Trackpoint>
            <Time>2019-08-01T17:09:10.000Z</Time>
            <Position>
              <LatitudeDegrees>40.52476049400866031646728515625</LatitudeDegrees>
              <LongitudeDegrees>-4.04583091847598552703857421875</LongitudeDegrees>
            </Position>
            <AltitudeMeters>863</AltitudeMeters>
            <DistanceMeters>NAN</DistanceMeters>
          </Trackpoint>
          <Trackpoint>
            <Time>2019-08-01T17:09:11.000Z</Time>
            <Position>
              <LatitudeDegrees>40.524720847606658935546875</LatitudeDegrees>
              <LongitudeDegrees>-4.045794121921062469482421875</LongitudeDegrees>
            </Position>
            <AltitudeMeters>863.20001220703125</AltitudeMeters>
            <DistanceMeters>NAN</DistanceMeters>
          </Trackpoint>
          <Trackpoint>
            <Time>2019-08-01T17:09:12.000Z</Time>
            <Position>
              <LatitudeDegrees>40.52468153648078441619873046875</LatitudeDegrees>
              <LongitudeDegrees>-4.0457570739090442657470703125</LongitudeDegrees>
            </Position>
            <AltitudeMeters>863.4000244140625</AltitudeMeters>
            <DistanceMeters>NAN</DistanceMeters>
          </Trackpoint>
          <Trackpoint>
            <Time>2019-08-01T17:09:13.000Z</Time>
            <Position>
              <LatitudeDegrees>40.5246418900787830352783203125</LatitudeDegrees>
              <LongitudeDegrees>-4.0457211993634700775146484375</LongitudeDegrees>
            </Position>
            <AltitudeMeters>863.79998779296875</AltitudeMeters>
            <DistanceMeters>NAN</DistanceMeters>
          </Trackpoint>
          <Trackpoint>
            <Time>2019-08-01T17:09:14.000Z</Time>
            <Position>
              <LatitudeDegrees>40.52460358478128910064697265625</LatitudeDegrees>
              <LongitudeDegrees>-4.04568515717983245849609375</LongitudeDegrees>
            </Position>
            <AltitudeMeters>864</AltitudeMeters>
            <DistanceMeters>NAN</DistanceMeters>
          </Trackpoint>
          <Trackpoint>
            <Time>2019-08-01T17:09:15.000Z</Time>
            <Position>
              <LatitudeDegrees>40.52456595003604888916015625</LatitudeDegrees>
              <LongitudeDegrees>-4.0456497855484485626220703125</LongitudeDegrees>
            </Position>
            <AltitudeMeters>864.20001220703125</AltitudeMeters>
            <DistanceMeters>NAN</DistanceMeters>
          </Trackpoint>
          <Trackpoint>
            <Time>2019-08-01T17:09:16.000Z</Time>
            <Position>
              <LatitudeDegrees>40.52452982403337955474853515625</LatitudeDegrees>
              <LongitudeDegrees>-4.045615084469318389892578125</LongitudeDegrees>
            </Position>
            <AltitudeMeters>864.4000244140625</AltitudeMeters>
            <DistanceMeters>NAN</DistanceMeters>
          </Trackpoint>
          <Trackpoint>
            <Time>2019-08-01T17:09:17.000Z</Time>
            <Position>
              <LatitudeDegrees>40.52449361421167850494384765625</LatitudeDegrees>
              <LongitudeDegrees>-4.04557996429502964019775390625</LongitudeDegrees>
            </Position>
            <AltitudeMeters>864.4000244140625</AltitudeMeters>
            <DistanceMeters>NAN</DistanceMeters>
          </Trackpoint>
          <Trackpoint>
            <Time>2019-08-01T17:09:18.000Z</Time>
            <Position>
              <LatitudeDegrees>40.52445706911385059356689453125</LatitudeDegrees>
              <LongitudeDegrees>-4.04554459266364574432373046875</LongitudeDegrees>
            </Position>
            <AltitudeMeters>864.5999755859375</AltitudeMeters>
            <DistanceMeters>NAN</DistanceMeters>
          </Trackpoint>
          <Trackpoint>
            <Time>2019-08-01T17:09:19.000Z</Time>
            <Position>
              <LatitudeDegrees>40.52441976964473724365234375</LatitudeDegrees>
              <LongitudeDegrees>-4.045509807765483856201171875</LongitudeDegrees>
            </Position>
            <AltitudeMeters>864.5999755859375</AltitudeMeters>
            <DistanceMeters>NAN</DistanceMeters>
          </Trackpoint>
          <Trackpoint>
            <Time>2019-08-01T17:09:20.000Z</Time>
            <Position>
              <LatitudeDegrees>40.52438163198530673980712890625</LatitudeDegrees>
              <LongitudeDegrees>-4.0454757772386074066162109375</LongitudeDegrees>
            </Position>
            <AltitudeMeters>864.79998779296875</AltitudeMeters>
            <DistanceMeters>NAN</DistanceMeters>
          </Trackpoint>
          <Trackpoint>
            <Time>2019-08-01T17:09:22.000Z</Time>
            <Position>
              <LatitudeDegrees>40.52430284209549427032470703125</LatitudeDegrees>
              <LongitudeDegrees>-4.045410566031932830810546875</LongitudeDegrees>
            </Position>
            <AltitudeMeters>865</AltitudeMeters>
            <DistanceMeters>NAN</DistanceMeters>
          </Trackpoint>
          <Trackpoint>
            <Time>2019-08-01T17:09:23.000Z</Time>
            <Position>
              <LatitudeDegrees>40.5242633633315563201904296875</LatitudeDegrees>
              <LongitudeDegrees>-4.04537980444729328155517578125</LongitudeDegrees>
            </Position>
            <AltitudeMeters>865.20001220703125</AltitudeMeters>
            <DistanceMeters>NAN</DistanceMeters>
          </Trackpoint>
          <Trackpoint>
            <Time>2019-08-01T17:09:25.000Z</Time>
            <Position>
              <LatitudeDegrees>40.52418499253690242767333984375</LatitudeDegrees>
              <LongitudeDegrees>-4.0453222207725048065185546875</LongitudeDegrees>
            </Position>
            <AltitudeMeters>866.20001220703125</AltitudeMeters>
            <DistanceMeters>NAN</DistanceMeters>
          </Trackpoint>
          <Trackpoint>
            <Time>2019-08-01T17:09:26.000Z</Time>
            <Position>
              <LatitudeDegrees>40.52414459176361560821533203125</LatitudeDegrees>
              <LongitudeDegrees>-4.04529799707233905792236328125</LongitudeDegrees>
            </Position>
            <AltitudeMeters>866.5999755859375</AltitudeMeters>
            <DistanceMeters>NAN</DistanceMeters>
          </Trackpoint>
          <Trackpoint>
            <Time>2019-08-01T17:09:27.000Z</Time>
            <Position>
              <LatitudeDegrees>40.5241037718951702117919921875</LatitudeDegrees>
              <LongitudeDegrees>-4.04527871869504451751708984375</LongitudeDegrees>
            </Position>
            <AltitudeMeters>867</AltitudeMeters>
            <DistanceMeters>NAN</DistanceMeters>
          </Trackpoint>
          <Trackpoint>
            <Time>2019-08-01T17:09:28.000Z</Time>
            <Position>
              <LatitudeDegrees>40.524062700569629669189453125</LatitudeDegrees>
              <LongitudeDegrees>-4.0452638827264308929443359375</LongitudeDegrees>
            </Position>
            <AltitudeMeters>867.20001220703125</AltitudeMeters>
            <DistanceMeters>NAN</DistanceMeters>
          </Trackpoint>
          <Trackpoint>
            <Time>2019-08-01T17:09:30.000Z</Time>
            <Position>
              <LatitudeDegrees>40.52397410385310649871826171875</LatitudeDegrees>
              <LongitudeDegrees>-4.04524602927267551422119140625</LongitudeDegrees>
            </Position>
            <AltitudeMeters>867.79998779296875</AltitudeMeters>
            <DistanceMeters>NAN</DistanceMeters>
          </Trackpoint>
          <Trackpoint>
            <Time>2019-08-01T17:09:31.000Z</Time>
            <Position>
              <LatitudeDegrees>40.52392951212823390960693359375</LatitudeDegrees>
              <LongitudeDegrees>-4.04524301178753376007080078125</LongitudeDegrees>
            </Position>
            <AltitudeMeters>868</AltitudeMeters>
            <DistanceMeters>NAN</DistanceMeters>
          </Trackpoint>
          <Trackpoint>
            <Time>2019-08-01T17:09:32.000Z</Time>
            <Position>
              <LatitudeDegrees>40.52388592623174190521240234375</LatitudeDegrees>
              <LongitudeDegrees>-4.0452461130917072296142578125</LongitudeDegrees>
            </Position>
            <AltitudeMeters>868.4000244140625</AltitudeMeters>
            <DistanceMeters>NAN</DistanceMeters>
          </Trackpoint>
          <Trackpoint>
            <Time>2019-08-01T17:09:33.000Z</Time>
            <Position>
              <LatitudeDegrees>40.52384267561137676239013671875</LatitudeDegrees>
              <LongitudeDegrees>-4.04525424353778362274169921875</LongitudeDegrees>
            </Position>
            <AltitudeMeters>868.79998779296875</AltitudeMeters>
            <DistanceMeters>NAN</DistanceMeters>
          </Trackpoint>
          <Trackpoint>
            <Time>2019-08-01T17:09:34.000Z</Time>
            <Position>
              <LatitudeDegrees>40.5237976647913455963134765625</LatitudeDegrees>
              <LongitudeDegrees>-4.04526296071708202362060546875</LongitudeDegrees>
            </Position>
            <AltitudeMeters>869</AltitudeMeters>
            <DistanceMeters>NAN</DistanceMeters>
          </Trackpoint>
          <Trackpoint>
            <Time>2019-08-01T17:09:35.000Z</Time>
            <Position>
              <LatitudeDegrees>40.52375567145645618438720703125</LatitudeDegrees>
              <LongitudeDegrees>-4.045273102819919586181640625</LongitudeDegrees>
            </Position>
            <AltitudeMeters>869.20001220703125</AltitudeMeters>
            <DistanceMeters>NAN</DistanceMeters>
          </Trackpoint>
          <Trackpoint>
            <Time>2019-08-01T17:09:36.000Z</Time>
            <Position>
              <LatitudeDegrees>40.52371543832123279571533203125</LatitudeDegrees>
              <LongitudeDegrees>-4.04528710059821605682373046875</LongitudeDegrees>
            </Position>
            <AltitudeMeters>869.20001220703125</AltitudeMeters>
            <DistanceMeters>NAN</DistanceMeters>
          </Trackpoint>
          <Trackpoint>
            <Time>2019-08-01T17:09:37.000Z</Time>
            <Position>
              <LatitudeDegrees>40.523677803575992584228515625</LatitudeDegrees>
              <LongitudeDegrees>-4.04530369676649570465087890625</LongitudeDegrees>
            </Position>
            <AltitudeMeters>869.4000244140625</AltitudeMeters>
            <DistanceMeters>NAN</DistanceMeters>
          </Trackpoint>
          <Trackpoint>
            <Time>2019-08-01T17:09:38.000Z</Time>
            <Position>
              <LatitudeDegrees>40.52363949827849864959716796875</LatitudeDegrees>
              <LongitudeDegrees>-4.04532381333410739898681640625</LongitudeDegrees>
            </Position>
            <AltitudeMeters>869.4000244140625</AltitudeMeters>
            <DistanceMeters>NAN</DistanceMeters>
          </Trackpoint>
          <Trackpoint>
            <Time>2019-08-01T17:09:39.000Z</Time>
            <Position>
              <LatitudeDegrees>40.523599684238433837890625</LatitudeDegrees>
              <LongitudeDegrees>-4.0453477017581462860107421875</LongitudeDegrees>
            </Position>
            <AltitudeMeters>869.5999755859375</AltitudeMeters>
            <DistanceMeters>NAN</DistanceMeters>
          </Trackpoint>
          <Trackpoint>
            <Time>2019-08-01T17:09:40.000Z</Time>
            <Position>
              <LatitudeDegrees>40.523559115827083587646484375</LatitudeDegrees>
              <LongitudeDegrees>-4.04537376947700977325439453125</LongitudeDegrees>
            </Position>
            <AltitudeMeters>869.79998779296875</AltitudeMeters>
            <DistanceMeters>NAN</DistanceMeters>
          </Trackpoint>
          <Trackpoint>
            <Time>2019-08-01T17:09:41.000Z</Time>
            <Position>
              <LatitudeDegrees>40.52351863123476505279541015625</LatitudeDegrees>
              <LongitudeDegrees>-4.04540352523326873779296875</LongitudeDegrees>
            </Position>
            <AltitudeMeters>870.20001220703125</AltitudeMeters>
            <DistanceMeters>NAN</DistanceMeters>
          </Trackpoint>
          <Trackpoint>
            <Time>2019-08-01T17:09:42.000Z</Time>
            <Position>
              <LatitudeDegrees>40.523478649556636810302734375</LatitudeDegrees>
              <LongitudeDegrees>-4.04543529264628887176513671875</LongitudeDegrees>
            </Position>
            <AltitudeMeters>870.4000244140625</AltitudeMeters>
            <DistanceMeters>NAN</DistanceMeters>
          </Trackpoint>
          <Trackpoint>
            <Time>2019-08-01T17:09:43.000Z</Time>
            <Position>
              <LatitudeDegrees>40.5234416015446186065673828125</LatitudeDegrees>
              <LongitudeDegrees>-4.0454672276973724365234375</LongitudeDegrees>
            </Position>
            <AltitudeMeters>870.4000244140625</AltitudeMeters>
            <DistanceMeters>NAN</DistanceMeters>
          </Trackpoint>
          <Trackpoint>
            <Time>2019-08-01T17:09:44.000Z</Time>
            <Position>
              <LatitudeDegrees>40.52340748719871044158935546875</LatitudeDegrees>
              <LongitudeDegrees>-4.045497067272663116455078125</LongitudeDegrees>
            </Position>
            <AltitudeMeters>870.5999755859375</AltitudeMeters>
            <DistanceMeters>NAN</DistanceMeters>
          </Trackpoint>
          <Trackpoint>
            <Time>2019-08-01T17:09:45.000Z</Time>
            <Position>
              <LatitudeDegrees>40.5233745463192462921142578125</LatitudeDegrees>
              <LongitudeDegrees>-4.0455270744860172271728515625</LongitudeDegrees>
            </Position>
            <AltitudeMeters>870.79998779296875</AltitudeMeters>
            <DistanceMeters>NAN</DistanceMeters>
          </Trackpoint>
          <Trackpoint>
            <Time>2019-08-01T17:09:46.000Z</Time>
            <Position>
              <LatitudeDegrees>40.5233423598110675811767578125</LatitudeDegrees>
              <LongitudeDegrees>-4.04555783607065677642822265625</LongitudeDegrees>
            </Position>
            <AltitudeMeters>871</AltitudeMeters>
            <DistanceMeters>NAN</DistanceMeters>
          </Trackpoint>
          <Trackpoint>
            <Time>2019-08-01T17:09:47.000Z</Time>
            <Position>
              <LatitudeDegrees>40.52331025712192058563232421875</LatitudeDegrees>
              <LongitudeDegrees>-4.0455884300172328948974609375</LongitudeDegrees>
            </Position>
            <AltitudeMeters>871.20001220703125</AltitudeMeters>
            <DistanceMeters>NAN</DistanceMeters>
          </Trackpoint>
          <Trackpoint>
            <Time>2019-08-01T17:09:48.000Z</Time>
            <Position>
              <LatitudeDegrees>40.52327723242342472076416015625</LatitudeDegrees>
              <LongitudeDegrees>-4.04561969451606273651123046875</LongitudeDegrees>
            </Position>
            <AltitudeMeters>871.20001220703125</AltitudeMeters>
            <DistanceMeters>NAN</DistanceMeters>
          </Trackpoint>
          <Trackpoint>
            <Time>2019-08-01T17:09:50.000Z</Time>
            <Position>
              <LatitudeDegrees>40.52321000955998897552490234375</LatitudeDegrees>
              <LongitudeDegrees>-4.04568105004727840423583984375</LongitudeDegrees>
            </Position>
            <AltitudeMeters>871.4000244140625</AltitudeMeters>
            <DistanceMeters>NAN</DistanceMeters>
          </Trackpoint>
          <Trackpoint>
            <Time>2019-08-01T17:09:52.000Z</Time>
            <Position>
              <LatitudeDegrees>40.52314437925815582275390625</LatitudeDegrees>
              <LongitudeDegrees>-4.04574559070169925689697265625</LongitudeDegrees>
            </Position>
            <AltitudeMeters>871.5999755859375</AltitudeMeters>
            <DistanceMeters>NAN</DistanceMeters>
          </Trackpoint>
          <Trackpoint>
            <Time>2019-08-01T17:09:53.000Z</Time>
            <Position>
              <LatitudeDegrees>40.523111186921596527099609375</LatitudeDegrees>
              <LongitudeDegrees>-4.04577844776213169097900390625</LongitudeDegrees>
            </Position>
            <AltitudeMeters>871.79998779296875</AltitudeMeters>
            <DistanceMeters>NAN</DistanceMeters>
          </Trackpoint>
          <Trackpoint>
            <Time>2019-08-01T17:09:54.000Z</Time>
            <Position>
              <LatitudeDegrees>40.52307757548987865447998046875</LatitudeDegrees>
              <LongitudeDegrees>-4.04581013135612010955810546875</LongitudeDegrees>
            </Position>
            <AltitudeMeters>872.20001220703125</AltitudeMeters>
            <DistanceMeters>NAN</DistanceMeters>
          </Trackpoint>
          <Trackpoint>
            <Time>2019-08-01T17:09:55.000Z</Time>
            <Position>
              <LatitudeDegrees>40.52304320968687534332275390625</LatitudeDegrees>
              <LongitudeDegrees>-4.04584080912172794342041015625</LongitudeDegrees>
            </Position>
            <AltitudeMeters>872.4000244140625</AltitudeMeters>
            <DistanceMeters>NAN</DistanceMeters>
          </Trackpoint>
          <Trackpoint>
            <Time>2019-08-01T17:09:56.000Z</Time>
            <Position>
              <LatitudeDegrees>40.52300951443612575531005859375</LatitudeDegrees>
              <LongitudeDegrees>-4.04587131924927234649658203125</LongitudeDegrees>
            </Position>
            <AltitudeMeters>873</AltitudeMeters>
            <DistanceMeters>NAN</DistanceMeters>
          </Trackpoint>
          <Trackpoint>
            <Time>2019-08-01T17:09:57.000Z</Time>
            <Position>
              <LatitudeDegrees>40.52297615446150302886962890625</LatitudeDegrees>
              <LongitudeDegrees>-4.045900739729404449462890625</LongitudeDegrees>
            </Position>
            <AltitudeMeters>873.20001220703125</AltitudeMeters>
            <DistanceMeters>NAN</DistanceMeters>
          </Trackpoint>
          <Trackpoint>
            <Time>2019-08-01T17:09:58.000Z</Time>
            <Position>
              <LatitudeDegrees>40.52294346503913402557373046875</LatitudeDegrees>
              <LongitudeDegrees>-4.0459304116666316986083984375</LongitudeDegrees>
            </Position>
            <AltitudeMeters>873.20001220703125</AltitudeMeters>
            <DistanceMeters>NAN</DistanceMeters>
          </Trackpoint>
          <Trackpoint>
            <Time>2019-08-01T17:09:59.000Z</Time>
            <Position>
              <LatitudeDegrees>40.52291127853095531463623046875</LatitudeDegrees>
              <LongitudeDegrees>-4.0459612570703029632568359375</LongitudeDegrees>
            </Position>
            <AltitudeMeters>873.4000244140625</AltitudeMeters>
            <DistanceMeters>NAN</DistanceMeters>
          </Trackpoint>
          <Trackpoint>
            <Time>2019-08-01T17:10:00.000Z</Time>
            <Position>
              <LatitudeDegrees>40.522878170013427734375</LatitudeDegrees>
              <LongitudeDegrees>-4.0459917671978473663330078125</LongitudeDegrees>
            </Position>
            <AltitudeMeters>873.5999755859375</AltitudeMeters>
            <DistanceMeters>NAN</DistanceMeters>
          </Trackpoint>
          <Trackpoint>
            <Time>2019-08-01T17:10:01.000Z</Time>
            <Position>
              <LatitudeDegrees>40.52284472621977329254150390625</LatitudeDegrees>
              <LongitudeDegrees>-4.046020098030567169189453125</LongitudeDegrees>
            </Position>
            <AltitudeMeters>873.79998779296875</AltitudeMeters>
            <DistanceMeters>NAN</DistanceMeters>
          </Trackpoint>
          <Trackpoint>
            <Time>2019-08-01T17:10:02.000Z</Time>
            <Position>
              <LatitudeDegrees>40.52281253971159458160400390625</LatitudeDegrees>
              <LongitudeDegrees>-4.0460487641394138336181640625</LongitudeDegrees>
            </Position>
            <AltitudeMeters>874</AltitudeMeters>
            <DistanceMeters>NAN</DistanceMeters>
          </Trackpoint>
          <Trackpoint>
            <Time>2019-08-01T17:10:03.000Z</Time>
            <Position>
              <LatitudeDegrees>40.5227824486792087554931640625</LatitudeDegrees>
              <LongitudeDegrees>-4.0460787713527679443359375</LongitudeDegrees>
            </Position>
            <AltitudeMeters>874</AltitudeMeters>
            <DistanceMeters>NAN</DistanceMeters>
          </Trackpoint>
          <Trackpoint>
            <Time>2019-08-01T17:10:04.000Z</Time>
            <Position>
              <LatitudeDegrees>40.52275353111326694488525390625</LatitudeDegrees>
              <LongitudeDegrees>-4.04610903002321720123291015625</LongitudeDegrees>
            </Position>
            <AltitudeMeters>874.20001220703125</AltitudeMeters>
            <DistanceMeters>NAN</DistanceMeters>
          </Trackpoint>
          <Trackpoint>
            <Time>2019-08-01T17:10:05.000Z</Time>
            <Position>
              <LatitudeDegrees>40.52272385917603969573974609375</LatitudeDegrees>
              <LongitudeDegrees>-4.0461402945220470428466796875</LongitudeDegrees>
            </Position>
            <AltitudeMeters>874.4000244140625</AltitudeMeters>
            <DistanceMeters>NAN</DistanceMeters>
          </Trackpoint>
          <Trackpoint>
            <Time>2019-08-01T17:10:06.000Z</Time>
            <Position>
              <LatitudeDegrees>40.522692091763019561767578125</LatitudeDegrees>
              <LongitudeDegrees>-4.046172983944416046142578125</LongitudeDegrees>
            </Position>
            <AltitudeMeters>874.5999755859375</AltitudeMeters>
            <DistanceMeters>NAN</DistanceMeters>
          </Trackpoint>
          <Trackpoint>
            <Time>2019-08-01T17:10:07.000Z</Time>
            <Position>
              <LatitudeDegrees>40.522657223045825958251953125</LatitudeDegrees>
              <LongitudeDegrees>-4.04620525427162647247314453125</LongitudeDegrees>
            </Position>
            <AltitudeMeters>874.79998779296875</AltitudeMeters>
            <DistanceMeters>NAN</DistanceMeters>
          </Trackpoint>
          <Trackpoint>
            <Time>2019-08-01T17:10:08.000Z</Time>
            <Position>
              <LatitudeDegrees>40.52262159995734691619873046875</LatitudeDegrees>
              <LongitudeDegrees>-4.046238698065280914306640625</LongitudeDegrees>
            </Position>
            <AltitudeMeters>875</AltitudeMeters>
            <DistanceMeters>NAN</DistanceMeters>
          </Trackpoint>
          <Trackpoint>
            <Time>2019-08-01T17:10:09.000Z</Time>
            <Position>
              <LatitudeDegrees>40.52258656360208988189697265625</LatitudeDegrees>
              <LongitudeDegrees>-4.04627214185893535614013671875</LongitudeDegrees>
            </Position>
            <AltitudeMeters>875.20001220703125</AltitudeMeters>
            <DistanceMeters>NAN</DistanceMeters>
          </Trackpoint>
          <Trackpoint>
            <Time>2019-08-01T17:10:10.000Z</Time>
            <Position>
              <LatitudeDegrees>40.52255152724683284759521484375</LatitudeDegrees>
              <LongitudeDegrees>-4.04630483128130435943603515625</LongitudeDegrees>
            </Position>
            <AltitudeMeters>875.4000244140625</AltitudeMeters>
            <DistanceMeters>NAN</DistanceMeters>
          </Trackpoint>
          <Trackpoint>
            <Time>2019-08-01T17:10:11.000Z</Time>
            <Position>
              <LatitudeDegrees>40.52251682616770267486572265625</LatitudeDegrees>
              <LongitudeDegrees>-4.04633668251335620880126953125</LongitudeDegrees>
            </Position>
            <AltitudeMeters>875.79998779296875</AltitudeMeters>
            <DistanceMeters>NAN</DistanceMeters>
          </Trackpoint>
          <Trackpoint>
            <Time>2019-08-01T17:10:12.000Z</Time>
            <Position>
              <LatitudeDegrees>40.52248279564082622528076171875</LatitudeDegrees>
              <LongitudeDegrees>-4.04636886902153491973876953125</LongitudeDegrees>
            </Position>
            <AltitudeMeters>876</AltitudeMeters>
            <DistanceMeters>NAN</DistanceMeters>
          </Trackpoint>
          <Trackpoint>
            <Time>2019-08-01T17:10:13.000Z</Time>
            <Position>
              <LatitudeDegrees>40.52244910039007663726806640625</LatitudeDegrees>
              <LongitudeDegrees>-4.0464008040726184844970703125</LongitudeDegrees>
            </Position>
            <AltitudeMeters>876.20001220703125</AltitudeMeters>
            <DistanceMeters>NAN</DistanceMeters>
          </Trackpoint>
          <Trackpoint>
            <Time>2019-08-01T17:10:14.000Z</Time>
            <Position>
              <LatitudeDegrees>40.5224149860441684722900390625</LatitudeDegrees>
              <LongitudeDegrees>-4.0464323200285434722900390625</LongitudeDegrees>
            </Position>
            <AltitudeMeters>876.4000244140625</AltitudeMeters>
            <DistanceMeters>NAN</DistanceMeters>
          </Trackpoint>
          <Trackpoint>
            <Time>2019-08-01T17:10:15.000Z</Time>
            <Position>
              <LatitudeDegrees>40.52238003350794315338134765625</LatitudeDegrees>
              <LongitudeDegrees>-4.04646391980350017547607421875</LongitudeDegrees>
            </Position>
            <AltitudeMeters>876.5999755859375</AltitudeMeters>
            <DistanceMeters>NAN</DistanceMeters>
          </Trackpoint>
          <Trackpoint>
            <Time>2019-08-01T17:10:16.000Z</Time>
            <Position>
              <LatitudeDegrees>40.52234516479074954986572265625</LatitudeDegrees>
              <LongitudeDegrees>-4.04649560339748859405517578125</LongitudeDegrees>
            </Position>
            <AltitudeMeters>876.5999755859375</AltitudeMeters>
            <DistanceMeters>NAN</DistanceMeters>
          </Trackpoint>
          <Trackpoint>
            <Time>2019-08-01T17:10:17.000Z</Time>
            <Position>
              <LatitudeDegrees>40.5223103798925876617431640625</LatitudeDegrees>
              <LongitudeDegrees>-4.04652795754373073577880859375</LongitudeDegrees>
            </Position>
            <AltitudeMeters>876.79998779296875</AltitudeMeters>
            <DistanceMeters>NAN</DistanceMeters>
          </Trackpoint>
          <Trackpoint>
            <Time>2019-08-01T17:10:18.000Z</Time>
            <Position>
              <LatitudeDegrees>40.52227534353733062744140625</LatitudeDegrees>
              <LongitudeDegrees>-4.046561233699321746826171875</LongitudeDegrees>
            </Position>
            <AltitudeMeters>877</AltitudeMeters>
            <DistanceMeters>NAN</DistanceMeters>
          </Trackpoint>
          <Trackpoint>
            <Time>2019-08-01T17:10:19.000Z</Time>
            <Position>
              <LatitudeDegrees>40.52223938517272472381591796875</LatitudeDegrees>
              <LongitudeDegrees>-4.04659442603588104248046875</LongitudeDegrees>
            </Position>
            <AltitudeMeters>877.20001220703125</AltitudeMeters>
            <DistanceMeters>NAN</DistanceMeters>
          </Trackpoint>
          <Trackpoint>
            <Time>2019-08-01T17:10:20.000Z</Time>
            <Position>
              <LatitudeDegrees>40.52220233716070652008056640625</LatitudeDegrees>
              <LongitudeDegrees>-4.0466271154582500457763671875</LongitudeDegrees>
            </Position>
            <AltitudeMeters>877.4000244140625</AltitudeMeters>
            <DistanceMeters>NAN</DistanceMeters>
          </Trackpoint>
          <Trackpoint>
            <Time>2019-08-01T17:10:21.000Z</Time>
            <Position>
              <LatitudeDegrees>40.5221652053296566009521484375</LatitudeDegrees>
              <LongitudeDegrees>-4.04665879905223846435546875</LongitudeDegrees>
            </Position>
            <AltitudeMeters>877.79998779296875</AltitudeMeters>
            <DistanceMeters>NAN</DistanceMeters>
          </Trackpoint>
          <Trackpoint>
            <Time>2019-08-01T17:10:22.000Z</Time>
            <Position>
              <LatitudeDegrees>40.52212840877473354339599609375</LatitudeDegrees>
              <LongitudeDegrees>-4.04668889008462429046630859375</LongitudeDegrees>
            </Position>
            <AltitudeMeters>877.79998779296875</AltitudeMeters>
            <DistanceMeters>NAN</DistanceMeters>
          </Trackpoint>
          <Trackpoint>
            <Time>2019-08-01T17:10:23.000Z</Time>
            <Position>
              <LatitudeDegrees>40.52209219895303249359130859375</LatitudeDegrees>
              <LongitudeDegrees>-4.04671805910766124725341796875</LongitudeDegrees>
            </Position>
            <AltitudeMeters>877.79998779296875</AltitudeMeters>
            <DistanceMeters>NAN</DistanceMeters>
          </Trackpoint>
          <Trackpoint>
            <Time>2019-08-01T17:10:24.000Z</Time>
            <Position>
              <LatitudeDegrees>40.522056408226490020751953125</LatitudeDegrees>
              <LongitudeDegrees>-4.04674789868295192718505859375</LongitudeDegrees>
            </Position>
            <AltitudeMeters>878</AltitudeMeters>
            <DistanceMeters>NAN</DistanceMeters>
          </Trackpoint>
          <Trackpoint>
            <Time>2019-08-01T17:10:25.000Z</Time>
            <Position>
              <LatitudeDegrees>40.52202061749994754791259765625</LatitudeDegrees>
              <LongitudeDegrees>-4.04677681624889373779296875</LongitudeDegrees>
            </Position>
            <AltitudeMeters>878</AltitudeMeters>
            <DistanceMeters>NAN</DistanceMeters>
          </Trackpoint>
          <Trackpoint>
            <Time>2019-08-01T17:10:26.000Z</Time>
            <Position>
              <LatitudeDegrees>40.5219848267734050750732421875</LatitudeDegrees>
              <LongitudeDegrees>-4.0468054823577404022216796875</LongitudeDegrees>
            </Position>
            <AltitudeMeters>878.20001220703125</AltitudeMeters>
            <DistanceMeters>NAN</DistanceMeters>
          </Trackpoint>
          <Trackpoint>
            <Time>2019-08-01T17:10:27.000Z</Time>
            <Position>
              <LatitudeDegrees>40.52195020951330661773681640625</LatitudeDegrees>
              <LongitudeDegrees>-4.046834148466587066650390625</LongitudeDegrees>
            </Position>
            <AltitudeMeters>878.20001220703125</AltitudeMeters>
            <DistanceMeters>NAN</DistanceMeters>
          </Trackpoint>
          <Trackpoint>
            <Time>2019-08-01T17:10:28.000Z</Time>
            <Position>
              <LatitudeDegrees>40.521916262805461883544921875</LatitudeDegrees>
              <LongitudeDegrees>-4.046861641108989715576171875</LongitudeDegrees>
            </Position>
            <AltitudeMeters>878.20001220703125</AltitudeMeters>
            <DistanceMeters>NAN</DistanceMeters>
          </Trackpoint>
          <Trackpoint>
            <Time>2019-08-01T17:10:30.000Z</Time>
            <Position>
              <LatitudeDegrees>40.52184283733367919921875</LatitudeDegrees>
              <LongitudeDegrees>-4.046917296946048736572265625</LongitudeDegrees>
            </Position>
            <AltitudeMeters>878.20001220703125</AltitudeMeters>
            <DistanceMeters>NAN</DistanceMeters>
          </Trackpoint>
          <Trackpoint>
            <Time>2019-08-01T17:10:31.000Z</Time>
            <Position>
              <LatitudeDegrees>40.52180335856974124908447265625</LatitudeDegrees>
              <LongitudeDegrees>-4.0469466336071491241455078125</LongitudeDegrees>
            </Position>
            <AltitudeMeters>878.20001220703125</AltitudeMeters>
            <DistanceMeters>NAN</DistanceMeters>
          </Trackpoint>
          <Trackpoint>
            <Time>2019-08-01T17:10:32.000Z</Time>
            <Position>
              <LatitudeDegrees>40.52176228724420070648193359375</LatitudeDegrees>
              <LongitudeDegrees>-4.04697529971599578857421875</LongitudeDegrees>
            </Position>
            <AltitudeMeters>878.20001220703125</AltitudeMeters>
            <DistanceMeters>NAN</DistanceMeters>
          </Trackpoint>
          <Trackpoint>
            <Time>2019-08-01T17:10:33.000Z</Time>
            <Position>
              <LatitudeDegrees>40.52172104828059673309326171875</LatitudeDegrees>
              <LongitudeDegrees>-4.047004468739032745361328125</LongitudeDegrees>
            </Position>
            <AltitudeMeters>878.4000244140625</AltitudeMeters>
            <DistanceMeters>NAN</DistanceMeters>
          </Trackpoint>
          <Trackpoint>
            <Time>2019-08-01T17:10:34.000Z</Time>
            <Position>
              <LatitudeDegrees>40.52167930640280246734619140625</LatitudeDegrees>
              <LongitudeDegrees>-4.0470338054001331329345703125</LongitudeDegrees>
            </Position>
            <AltitudeMeters>878.79998779296875</AltitudeMeters>
            <DistanceMeters>NAN</DistanceMeters>
          </Trackpoint>
          <Trackpoint>
            <Time>2019-08-01T17:10:35.000Z</Time>
            <Position>
              <LatitudeDegrees>40.52163672633469104766845703125</LatitudeDegrees>
              <LongitudeDegrees>-4.047064147889614105224609375</LongitudeDegrees>
            </Position>
            <AltitudeMeters>879</AltitudeMeters>
            <DistanceMeters>NAN</DistanceMeters>
          </Trackpoint>
          <Trackpoint>
            <Time>2019-08-01T17:10:36.000Z</Time>
            <Position>
              <LatitudeDegrees>40.52159406244754791259765625</LatitudeDegrees>
              <LongitudeDegrees>-4.04709407128393650054931640625</LongitudeDegrees>
            </Position>
            <AltitudeMeters>879.4000244140625</AltitudeMeters>
            <DistanceMeters>NAN</DistanceMeters>
          </Trackpoint>
          <Trackpoint>
            <Time>2019-08-01T17:10:37.000Z</Time>
            <Position>
              <LatitudeDegrees>40.52155123092234134674072265625</LatitudeDegrees>
              <LongitudeDegrees>-4.0471223182976245880126953125</LongitudeDegrees>
            </Position>
            <AltitudeMeters>879.5999755859375</AltitudeMeters>
            <DistanceMeters>NAN</DistanceMeters>
          </Trackpoint>
          <Trackpoint>
            <Time>2019-08-01T17:10:38.000Z</Time>
            <Position>
              <LatitudeDegrees>40.521509237587451934814453125</LatitudeDegrees>
              <LongitudeDegrees>-4.0471494756639003753662109375</LongitudeDegrees>
            </Position>
            <AltitudeMeters>879.5999755859375</AltitudeMeters>
            <DistanceMeters>NAN</DistanceMeters>
          </Trackpoint>
          <Trackpoint>
            <Time>2019-08-01T17:10:39.000Z</Time>
            <Position>
              <LatitudeDegrees>40.52146841771900653839111328125</LatitudeDegrees>
              <LongitudeDegrees>-4.04717571102082729339599609375</LongitudeDegrees>
            </Position>
            <AltitudeMeters>879.5999755859375</AltitudeMeters>
            <DistanceMeters>NAN</DistanceMeters>
          </Trackpoint>
          <Trackpoint>
            <Time>2019-08-01T17:10:40.000Z</Time>
            <Position>
              <LatitudeDegrees>40.52142818458378314971923828125</LatitudeDegrees>
              <LongitudeDegrees>-4.0472021140158176422119140625</LongitudeDegrees>
            </Position>
            <AltitudeMeters>879.5999755859375</AltitudeMeters>
            <DistanceMeters>NAN</DistanceMeters>
          </Trackpoint>
          <Trackpoint>
            <Time>2019-08-01T17:10:41.000Z</Time>
            <Position>
              <LatitudeDegrees>40.52138895727694034576416015625</LatitudeDegrees>
              <LongitudeDegrees>-4.0472294390201568603515625</LongitudeDegrees>
            </Position>
            <AltitudeMeters>879.5999755859375</AltitudeMeters>
            <DistanceMeters>NAN</DistanceMeters>
          </Trackpoint>
          <Trackpoint>
            <Time>2019-08-01T17:10:42.000Z</Time>
            <Position>
              <LatitudeDegrees>40.5213491432368755340576171875</LatitudeDegrees>
              <LongitudeDegrees>-4.04725735075771808624267578125</LongitudeDegrees>
            </Position>
            <AltitudeMeters>879.5999755859375</AltitudeMeters>
            <DistanceMeters>NAN</DistanceMeters>
          </Trackpoint>
          <Trackpoint>
            <Time>2019-08-01T17:10:43.000Z</Time>
            <Position>
              <LatitudeDegrees>40.52130932919681072235107421875</LatitudeDegrees>
              <LongitudeDegrees>-4.047285430133342742919921875</LongitudeDegrees>
            </Position>
            <AltitudeMeters>879.5999755859375</AltitudeMeters>
            <DistanceMeters>NAN</DistanceMeters>
          </Trackpoint>
          <Trackpoint>
            <Time>2019-08-01T17:10:44.000Z</Time>
            <Position>
              <LatitudeDegrees>40.52126926369965076446533203125</LatitudeDegrees>
              <LongitudeDegrees>-4.0473134256899356842041015625</LongitudeDegrees>
            </Position>
            <AltitudeMeters>879.5999755859375</AltitudeMeters>
            <DistanceMeters>NAN</DistanceMeters>
          </Trackpoint>
          <Trackpoint>
            <Time>2019-08-01T17:10:45.000Z</Time>
            <Position>
              <LatitudeDegrees>40.52122852765023708343505859375</LatitudeDegrees>
              <LongitudeDegrees>-4.0473419241607189178466796875</LongitudeDegrees>
            </Position>
            <AltitudeMeters>879.5999755859375</AltitudeMeters>
            <DistanceMeters>NAN</DistanceMeters>
          </Trackpoint>
          <Trackpoint>
            <Time>2019-08-01T17:10:46.000Z</Time>
            <Position>
              <LatitudeDegrees>40.5211865343153476715087890625</LatitudeDegrees>
              <LongitudeDegrees>-4.04737100936472415924072265625</LongitudeDegrees>
            </Position>
            <AltitudeMeters>879.5999755859375</AltitudeMeters>
            <DistanceMeters>NAN</DistanceMeters>
          </Trackpoint>
          <Trackpoint>
            <Time>2019-08-01T17:10:47.000Z</Time>
            <Position>
              <LatitudeDegrees>40.52114303223788738250732421875</LatitudeDegrees>
              <LongitudeDegrees>-4.0474002622067928314208984375</LongitudeDegrees>
            </Position>
            <AltitudeMeters>879.5999755859375</AltitudeMeters>
            <DistanceMeters>NAN</DistanceMeters>
          </Trackpoint>
          <Trackpoint>
            <Time>2019-08-01T17:10:49.000Z</Time>
            <Position>
              <LatitudeDegrees>40.52105435170233249664306640625</LatitudeDegrees>
              <LongitudeDegrees>-4.04746270738542079925537109375</LongitudeDegrees>
            </Position>
            <AltitudeMeters>879.5999755859375</AltitudeMeters>
            <DistanceMeters>NAN</DistanceMeters>
          </Trackpoint>
          <Trackpoint>
            <Time>2019-08-01T17:10:50.000Z</Time>
            <Position>
              <LatitudeDegrees>40.521009676158428192138671875</LatitudeDegrees>
              <LongitudeDegrees>-4.04749430716037750244140625</LongitudeDegrees>
            </Position>
            <AltitudeMeters>879.5999755859375</AltitudeMeters>
            <DistanceMeters>NAN</DistanceMeters>
          </Trackpoint>
          <Trackpoint>
            <Time>2019-08-01T17:10:51.000Z</Time>
            <Position>
              <LatitudeDegrees>40.520965754985809326171875</LatitudeDegrees>
              <LongitudeDegrees>-4.04752691276371479034423828125</LongitudeDegrees>
            </Position>
            <AltitudeMeters>879.4000244140625</AltitudeMeters>
            <DistanceMeters>NAN</DistanceMeters>
          </Trackpoint>
          <Trackpoint>
            <Time>2019-08-01T17:10:52.000Z</Time>
            <Position>
              <LatitudeDegrees>40.52092158235609531402587890625</LatitudeDegrees>
              <LongitudeDegrees>-4.0475575067102909088134765625</LongitudeDegrees>
            </Position>
            <AltitudeMeters>879.4000244140625</AltitudeMeters>
            <DistanceMeters>NAN</DistanceMeters>
          </Trackpoint>
          <Trackpoint>
            <Time>2019-08-01T17:10:53.000Z</Time>
            <Position>
              <LatitudeDegrees>40.52087665535509586334228515625</LatitudeDegrees>
              <LongitudeDegrees>-4.04758709482848644256591796875</LongitudeDegrees>
            </Position>
            <AltitudeMeters>879.20001220703125</AltitudeMeters>
            <DistanceMeters>NAN</DistanceMeters>
          </Trackpoint>
          <Trackpoint>
            <Time>2019-08-01T17:10:54.000Z</Time>
            <Position>
              <LatitudeDegrees>40.52083172835409641265869140625</LatitudeDegrees>
              <LongitudeDegrees>-4.0476175211369991302490234375</LongitudeDegrees>
            </Position>
            <AltitudeMeters>879.20001220703125</AltitudeMeters>
            <DistanceMeters>NAN</DistanceMeters>
          </Trackpoint>
          <Trackpoint>
            <Time>2019-08-01T17:10:55.000Z</Time>
            <Position>
              <LatitudeDegrees>40.5207873880863189697265625</LatitudeDegrees>
              <LongitudeDegrees>-4.04764861799776554107666015625</LongitudeDegrees>
            </Position>
            <AltitudeMeters>879</AltitudeMeters>
            <DistanceMeters>NAN</DistanceMeters>
          </Trackpoint>
          <Trackpoint>
            <Time>2019-08-01T17:10:56.000Z</Time>
            <Position>
              <LatitudeDegrees>40.52074380218982696533203125</LatitudeDegrees>
              <LongitudeDegrees>-4.04767979867756366729736328125</LongitudeDegrees>
            </Position>
            <AltitudeMeters>879</AltitudeMeters>
            <DistanceMeters>NAN</DistanceMeters>
          </Trackpoint>
          <Trackpoint>
            <Time>2019-08-01T17:10:57.000Z</Time>
            <Position>
              <LatitudeDegrees>40.5206993781030178070068359375</LatitudeDegrees>
              <LongitudeDegrees>-4.04771114699542522430419921875</LongitudeDegrees>
            </Position>
            <AltitudeMeters>878.79998779296875</AltitudeMeters>
            <DistanceMeters>NAN</DistanceMeters>
          </Trackpoint>
          <Trackpoint>
            <Time>2019-08-01T17:10:58.000Z</Time>
            <Position>
              <LatitudeDegrees>40.52065453492105007171630859375</LatitudeDegrees>
              <LongitudeDegrees>-4.0477429144084453582763671875</LongitudeDegrees>
            </Position>
            <AltitudeMeters>878.79998779296875</AltitudeMeters>
            <DistanceMeters>NAN</DistanceMeters>
          </Trackpoint>
          <Trackpoint>
            <Time>2019-08-01T17:10:59.000Z</Time>
            <Position>
              <LatitudeDegrees>40.52060910500586032867431640625</LatitudeDegrees>
              <LongitudeDegrees>-4.047775603830814361572265625</LongitudeDegrees>
            </Position>
            <AltitudeMeters>878.79998779296875</AltitudeMeters>
            <DistanceMeters>NAN</DistanceMeters>
          </Trackpoint>
          <Trackpoint>
            <Time>2019-08-01T17:11:00.000Z</Time>
            <Position>
              <LatitudeDegrees>40.520563088357448577880859375</LatitudeDegrees>
              <LongitudeDegrees>-4.04780904762446880340576171875</LongitudeDegrees>
            </Position>
            <AltitudeMeters>878.79998779296875</AltitudeMeters>
            <DistanceMeters>NAN</DistanceMeters>
          </Trackpoint>
          <Trackpoint>
            <Time>2019-08-01T17:11:01.000Z</Time>
            <Position>
              <LatitudeDegrees>40.52051656879484653472900390625</LatitudeDegrees>
              <LongitudeDegrees>-4.0478421561419963836669921875</LongitudeDegrees>
            </Position>
            <AltitudeMeters>878.79998779296875</AltitudeMeters>
            <DistanceMeters>NAN</DistanceMeters>
          </Trackpoint>
          <Trackpoint>
            <Time>2019-08-01T17:11:02.000Z</Time>
            <Position>
              <LatitudeDegrees>40.5204700492322444915771484375</LatitudeDegrees>
              <LongitudeDegrees>-4.04787559993565082550048828125</LongitudeDegrees>
            </Position>
            <AltitudeMeters>878.79998779296875</AltitudeMeters>
            <DistanceMeters>NAN</DistanceMeters>
          </Trackpoint>
          <Trackpoint>
            <Time>2019-08-01T17:11:03.000Z</Time>
            <Position>
              <LatitudeDegrees>40.52042420022189617156982421875</LatitudeDegrees>
              <LongitudeDegrees>-4.04790946282446384429931640625</LongitudeDegrees>
            </Position>
            <AltitudeMeters>878.79998779296875</AltitudeMeters>
            <DistanceMeters>NAN</DistanceMeters>
          </Trackpoint>
          <Trackpoint>
            <Time>2019-08-01T17:11:04.000Z</Time>
            <Position>
              <LatitudeDegrees>40.5203791894018650054931640625</LatitudeDegrees>
              <LongitudeDegrees>-4.04794416390359401702880859375</LongitudeDegrees>
            </Position>
            <AltitudeMeters>879</AltitudeMeters>
            <DistanceMeters>NAN</DistanceMeters>
          </Trackpoint>
          <Trackpoint>
            <Time>2019-08-01T17:11:05.000Z</Time>
            <Position>
              <LatitudeDegrees>40.52033518441021442413330078125</LatitudeDegrees>
              <LongitudeDegrees>-4.0479789488017559051513671875</LongitudeDegrees>
            </Position>
            <AltitudeMeters>878.79998779296875</AltitudeMeters>
            <DistanceMeters>NAN</DistanceMeters>
          </Trackpoint>
          <Trackpoint>
            <Time>2019-08-01T17:11:06.000Z</Time>
            <Position>
              <LatitudeDegrees>40.5202920176088809967041015625</LatitudeDegrees>
              <LongitudeDegrees>-4.04801331460475921630859375</LongitudeDegrees>
            </Position>
            <AltitudeMeters>878.79998779296875</AltitudeMeters>
            <DistanceMeters>NAN</DistanceMeters>
          </Trackpoint>
          <Trackpoint>
            <Time>2019-08-01T17:11:07.000Z</Time>
            <Position>
              <LatitudeDegrees>40.5202511139214038848876953125</LatitudeDegrees>
              <LongitudeDegrees>-4.04804893769323825836181640625</LongitudeDegrees>
            </Position>
            <AltitudeMeters>878.79998779296875</AltitudeMeters>
            <DistanceMeters>NAN</DistanceMeters>
          </Trackpoint>
          <Trackpoint>
            <Time>2019-08-01T17:11:08.000Z</Time>
            <Position>
              <LatitudeDegrees>40.5202115513384342193603515625</LatitudeDegrees>
              <LongitudeDegrees>-4.0480859018862247467041015625</LongitudeDegrees>
            </Position>
            <AltitudeMeters>878.5999755859375</AltitudeMeters>
            <DistanceMeters>NAN</DistanceMeters>
          </Trackpoint>
          <Trackpoint>
            <Time>2019-08-01T17:11:09.000Z</Time>
            <Position>
              <LatitudeDegrees>40.52017173729836940765380859375</LatitudeDegrees>
              <LongitudeDegrees>-4.04812370426952838897705078125</LongitudeDegrees>
            </Position>
            <AltitudeMeters>878.5999755859375</AltitudeMeters>
            <DistanceMeters>NAN</DistanceMeters>
          </Trackpoint>
          <Trackpoint>
            <Time>2019-08-01T17:11:10.000Z</Time>
            <Position>
              <LatitudeDegrees>40.5201324261724948883056640625</LatitudeDegrees>
              <LongitudeDegrees>-4.0481633506715297698974609375</LongitudeDegrees>
            </Position>
            <AltitudeMeters>878.5999755859375</AltitudeMeters>
            <DistanceMeters>NAN</DistanceMeters>
          </Trackpoint>
          <Trackpoint>
            <Time>2019-08-01T17:11:11.000Z</Time>
            <Position>
              <LatitudeDegrees>40.52009345032274723052978515625</LatitudeDegrees>
              <LongitudeDegrees>-4.04820509254932403564453125</LongitudeDegrees>
            </Position>
            <AltitudeMeters>878.79998779296875</AltitudeMeters>
            <DistanceMeters>NAN</DistanceMeters>
          </Trackpoint>
          <Trackpoint>
            <Time>2019-08-01T17:11:12.000Z</Time>
            <Position>
              <LatitudeDegrees>40.52005522884428501129150390625</LatitudeDegrees>
              <LongitudeDegrees>-4.0482488460838794708251953125</LongitudeDegrees>
            </Position>
            <AltitudeMeters>878.79998779296875</AltitudeMeters>
            <DistanceMeters>NAN</DistanceMeters>
          </Trackpoint>
          <Trackpoint>
            <Time>2019-08-01T17:11:13.000Z</Time>
            <Position>
              <LatitudeDegrees>40.52001952193677425384521484375</LatitudeDegrees>
              <LongitudeDegrees>-4.04829553328454494476318359375</LongitudeDegrees>
            </Position>
            <AltitudeMeters>878.79998779296875</AltitudeMeters>
            <DistanceMeters>NAN</DistanceMeters>
          </Trackpoint>
          <Trackpoint>
            <Time>2019-08-01T17:11:14.000Z</Time>
            <Position>
              <LatitudeDegrees>40.51998632960021495819091796875</LatitudeDegrees>
              <LongitudeDegrees>-4.0483450703322887420654296875</LongitudeDegrees>
            </Position>
            <AltitudeMeters>878.79998779296875</AltitudeMeters>
            <DistanceMeters>NAN</DistanceMeters>
          </Trackpoint>
          <Trackpoint>
            <Time>2019-08-01T17:11:15.000Z</Time>
            <Position>
              <LatitudeDegrees>40.51995531655848026275634765625</LatitudeDegrees>
              <LongitudeDegrees>-4.04839829541742801666259765625</LongitudeDegrees>
            </Position>
            <AltitudeMeters>878.79998779296875</AltitudeMeters>
            <DistanceMeters>NAN</DistanceMeters>
          </Trackpoint>
          <Trackpoint>
            <Time>2019-08-01T17:11:16.000Z</Time>
            <Position>
              <LatitudeDegrees>40.51992572844028472900390625</LatitudeDegrees>
              <LongitudeDegrees>-4.0484560467302799224853515625</LongitudeDegrees>
            </Position>
            <AltitudeMeters>878.79998779296875</AltitudeMeters>
            <DistanceMeters>NAN</DistanceMeters>
          </Trackpoint>
          <Trackpoint>
            <Time>2019-08-01T17:11:17.000Z</Time>
            <Position>
              <LatitudeDegrees>40.5198968946933746337890625</LatitudeDegrees>
              <LongitudeDegrees>-4.0485187433660030364990234375</LongitudeDegrees>
            </Position>
            <AltitudeMeters>878.79998779296875</AltitudeMeters>
            <DistanceMeters>NAN</DistanceMeters>
          </Trackpoint>
          <Trackpoint>
            <Time>2019-08-01T17:11:18.000Z</Time>
            <Position>
              <LatitudeDegrees>40.519867725670337677001953125</LatitudeDegrees>
              <LongitudeDegrees>-4.048585630953311920166015625</LongitudeDegrees>
            </Position>
            <AltitudeMeters>878.79998779296875</AltitudeMeters>
            <DistanceMeters>NAN</DistanceMeters>
          </Trackpoint>
          <Trackpoint>
            <Time>2019-08-01T17:11:19.000Z</Time>
            <Position>
              <LatitudeDegrees>40.51983830519020557403564453125</LatitudeDegrees>
              <LongitudeDegrees>-4.048656038939952850341796875</LongitudeDegrees>
            </Position>
            <AltitudeMeters>878.79998779296875</AltitudeMeters>
            <DistanceMeters>NAN</DistanceMeters>
          </Trackpoint>
          <Trackpoint>
            <Time>2019-08-01T17:11:20.000Z</Time>
            <Position>
              <LatitudeDegrees>40.51980829797685146331787109375</LatitudeDegrees>
              <LongitudeDegrees>-4.0487299673259258270263671875</LongitudeDegrees>
            </Position>
            <AltitudeMeters>878.5999755859375</AltitudeMeters>
            <DistanceMeters>NAN</DistanceMeters>
          </Trackpoint>
          <Trackpoint>
            <Time>2019-08-01T17:11:21.000Z</Time>
            <Position>
              <LatitudeDegrees>40.5197763629257678985595703125</LatitudeDegrees>
              <LongitudeDegrees>-4.048806242644786834716796875</LongitudeDegrees>
            </Position>
            <AltitudeMeters>878.5999755859375</AltitudeMeters>
            <DistanceMeters>NAN</DistanceMeters>
          </Trackpoint>
          <Trackpoint>
            <Time>2019-08-01T17:11:22.000Z</Time>
            <Position>
              <LatitudeDegrees>40.5197431705892086029052734375</LatitudeDegrees>
              <LongitudeDegrees>-4.04888595454394817352294921875</LongitudeDegrees>
            </Position>
            <AltitudeMeters>878.4000244140625</AltitudeMeters>
            <DistanceMeters>NAN</DistanceMeters>
          </Trackpoint>
          <Trackpoint>
            <Time>2019-08-01T17:11:24.000Z</Time>
            <Position>
              <LatitudeDegrees>40.51967469044029712677001953125</LatitudeDegrees>
              <LongitudeDegrees>-4.0490538440644741058349609375</LongitudeDegrees>
            </Position>
            <AltitudeMeters>878.4000244140625</AltitudeMeters>
            <DistanceMeters>NAN</DistanceMeters>
          </Trackpoint>
          <Trackpoint>
            <Time>2019-08-01T17:11:25.000Z</Time>
            <Position>
              <LatitudeDegrees>40.519637726247310638427734375</LatitudeDegrees>
              <LongitudeDegrees>-4.04914252460002899169921875</LongitudeDegrees>
            </Position>
            <AltitudeMeters>878.4000244140625</AltitudeMeters>
            <DistanceMeters>NAN</DistanceMeters>
          </Trackpoint>
          <Trackpoint>
            <Time>2019-08-01T17:11:26.000Z</Time>
            <Position>
              <LatitudeDegrees>40.5196000076830387115478515625</LatitudeDegrees>
              <LongitudeDegrees>-4.04923581518232822418212890625</LongitudeDegrees>
            </Position>
            <AltitudeMeters>878.4000244140625</AltitudeMeters>
            <DistanceMeters>NAN</DistanceMeters>
          </Trackpoint>
          <Trackpoint>
            <Time>2019-08-01T17:11:27.000Z</Time>
            <Position>
              <LatitudeDegrees>40.5195601098239421844482421875</LatitudeDegrees>
              <LongitudeDegrees>-4.049333631992340087890625</LongitudeDegrees>
            </Position>
            <AltitudeMeters>878.4000244140625</AltitudeMeters>
            <DistanceMeters>NAN</DistanceMeters>
          </Trackpoint>
          <Trackpoint>
            <Time>2019-08-01T17:11:28.000Z</Time>
            <Position>
              <LatitudeDegrees>40.51951778121292591094970703125</LatitudeDegrees>
              <LongitudeDegrees>-4.049434550106525421142578125</LongitudeDegrees>
            </Position>
            <AltitudeMeters>878.20001220703125</AltitudeMeters>
            <DistanceMeters>NAN</DistanceMeters>
          </Trackpoint>
          <Trackpoint>
            <Time>2019-08-01T17:11:29.000Z</Time>
            <Position>
              <LatitudeDegrees>40.5194742791354656219482421875</LatitudeDegrees>
              <LongitudeDegrees>-4.0495389886200428009033203125</LongitudeDegrees>
            </Position>
            <AltitudeMeters>878</AltitudeMeters>
            <DistanceMeters>NAN</DistanceMeters>
          </Trackpoint>
          <Trackpoint>
            <Time>2019-08-01T17:11:32.000Z</Time>
            <Position>
              <LatitudeDegrees>40.51933824084699153900146484375</LatitudeDegrees>
              <LongitudeDegrees>-4.0498729236423969268798828125</LongitudeDegrees>
            </Position>
            <AltitudeMeters>876.4000244140625</AltitudeMeters>
            <DistanceMeters>NAN</DistanceMeters>
          </Trackpoint>
          <Trackpoint>
            <Time>2019-08-01T17:11:33.000Z</Time>
            <Position>
              <LatitudeDegrees>40.5192912183701992034912109375</LatitudeDegrees>
              <LongitudeDegrees>-4.04998800717294216156005859375</LongitudeDegrees>
            </Position>
            <AltitudeMeters>875.79998779296875</AltitudeMeters>
            <DistanceMeters>NAN</DistanceMeters>
          </Trackpoint>
          <Trackpoint>
            <Time>2019-08-01T17:11:34.000Z</Time>
            <Position>
              <LatitudeDegrees>40.5192429386079311370849609375</LatitudeDegrees>
              <LongitudeDegrees>-4.05010367743670940399169921875</LongitudeDegrees>
            </Position>
            <AltitudeMeters>875.5999755859375</AltitudeMeters>
            <DistanceMeters>NAN</DistanceMeters>
          </Trackpoint>
          <Trackpoint>
            <Time>2019-08-01T17:11:35.000Z</Time>
            <Position>
              <LatitudeDegrees>40.51919457502663135528564453125</LatitudeDegrees>
              <LongitudeDegrees>-4.05021968297660350799560546875</LongitudeDegrees>
            </Position>
            <AltitudeMeters>874.4000244140625</AltitudeMeters>
            <DistanceMeters>NAN</DistanceMeters>
          </Trackpoint>
          <Trackpoint>
            <Time>2019-08-01T17:11:36.000Z</Time>
            <Position>
              <LatitudeDegrees>40.5191470496356487274169921875</LatitudeDegrees>
              <LongitudeDegrees>-4.0503369458019733428955078125</LongitudeDegrees>
            </Position>
            <AltitudeMeters>873.5999755859375</AltitudeMeters>
            <DistanceMeters>NAN</DistanceMeters>
          </Trackpoint>
          <Trackpoint>
            <Time>2019-08-01T17:11:37.000Z</Time>
            <Position>
              <LatitudeDegrees>40.51909885369241237640380859375</LatitudeDegrees>
              <LongitudeDegrees>-4.050454795360565185546875</LongitudeDegrees>
            </Position>
            <AltitudeMeters>873.20001220703125</AltitudeMeters>
            <DistanceMeters>NAN</DistanceMeters>
          </Trackpoint>
          <Trackpoint>
            <Time>2019-08-01T17:11:38.000Z</Time>
            <Position>
              <LatitudeDegrees>40.51905040629208087921142578125</LatitudeDegrees>
              <LongitudeDegrees>-4.050573147833347320556640625</LongitudeDegrees>
            </Position>
            <AltitudeMeters>872.79998779296875</AltitudeMeters>
            <DistanceMeters>NAN</DistanceMeters>
          </Trackpoint>
          <Trackpoint>
            <Time>2019-08-01T17:11:39.000Z</Time>
            <Position>
              <LatitudeDegrees>40.519002713263034820556640625</LatitudeDegrees>
              <LongitudeDegrees>-4.05069258995354175567626953125</LongitudeDegrees>
            </Position>
            <AltitudeMeters>871.20001220703125</AltitudeMeters>
            <DistanceMeters>NAN</DistanceMeters>
          </Trackpoint>
          <Trackpoint>
            <Time>2019-08-01T17:11:40.000Z</Time>
            <Position>
              <LatitudeDegrees>40.518959462642669677734375</LatitudeDegrees>
              <LongitudeDegrees>-4.050814546644687652587890625</LongitudeDegrees>
            </Position>
            <AltitudeMeters>870</AltitudeMeters>
            <DistanceMeters>NAN</DistanceMeters>
          </Trackpoint>
          <Trackpoint>
            <Time>2019-08-01T17:11:41.000Z</Time>
            <Position>
              <LatitudeDegrees>40.51892233081161975860595703125</LatitudeDegrees>
              <LongitudeDegrees>-4.05093985609710216522216796875</LongitudeDegrees>
            </Position>
            <AltitudeMeters>869.4000244140625</AltitudeMeters>
            <DistanceMeters>NAN</DistanceMeters>
          </Trackpoint>
          <Trackpoint>
            <Time>2019-08-01T17:11:42.000Z</Time>
            <Position>
              <LatitudeDegrees>40.518891401588916778564453125</LatitudeDegrees>
              <LongitudeDegrees>-4.05106826685369014739990234375</LongitudeDegrees>
            </Position>
            <AltitudeMeters>869</AltitudeMeters>
            <DistanceMeters>NAN</DistanceMeters>
          </Trackpoint>
          <Trackpoint>
            <Time>2019-08-01T17:11:43.000Z</Time>
            <Position>
              <LatitudeDegrees>40.51886734552681446075439453125</LatitudeDegrees>
              <LongitudeDegrees>-4.05119902454316616058349609375</LongitudeDegrees>
            </Position>
            <AltitudeMeters>868.79998779296875</AltitudeMeters>
            <DistanceMeters>NAN</DistanceMeters>
          </Trackpoint>
          <Trackpoint>
            <Time>2019-08-01T17:11:44.000Z</Time>
            <Position>
              <LatitudeDegrees>40.51885007880628108978271484375</LatitudeDegrees>
              <LongitudeDegrees>-4.05133078806102275848388671875</LongitudeDegrees>
            </Position>
            <AltitudeMeters>868.4000244140625</AltitudeMeters>
            <DistanceMeters>NAN</DistanceMeters>
          </Trackpoint>
          <Trackpoint>
            <Time>2019-08-01T17:11:45.000Z</Time>
            <Position>
              <LatitudeDegrees>40.5188355781137943267822265625</LatitudeDegrees>
              <LongitudeDegrees>-4.051462300121784210205078125</LongitudeDegrees>
            </Position>
            <AltitudeMeters>868.4000244140625</AltitudeMeters>
            <DistanceMeters>NAN</DistanceMeters>
          </Trackpoint>
          <Trackpoint>
            <Time>2019-08-01T17:11:46.000Z</Time>
            <Position>
              <LatitudeDegrees>40.5188208259642124176025390625</LatitudeDegrees>
              <LongitudeDegrees>-4.05159314163029193878173828125</LongitudeDegrees>
            </Position>
            <AltitudeMeters>868.20001220703125</AltitudeMeters>
            <DistanceMeters>NAN</DistanceMeters>
          </Trackpoint>
          <Trackpoint>
            <Time>2019-08-01T17:11:47.000Z</Time>
            <Position>
              <LatitudeDegrees>40.51880590617656707763671875</LatitudeDegrees>
              <LongitudeDegrees>-4.0517236478626728057861328125</LongitudeDegrees>
            </Position>
            <AltitudeMeters>867.79998779296875</AltitudeMeters>
            <DistanceMeters>NAN</DistanceMeters>
          </Trackpoint>
          <Trackpoint>
            <Time>2019-08-01T17:11:48.000Z</Time>
            <Position>
              <LatitudeDegrees>40.5187904834747314453125</LatitudeDegrees>
              <LongitudeDegrees>-4.05185130424797534942626953125</LongitudeDegrees>
            </Position>
            <AltitudeMeters>867.79998779296875</AltitudeMeters>
            <DistanceMeters>NAN</DistanceMeters>
          </Trackpoint>
          <Trackpoint>
            <Time>2019-08-01T17:11:49.000Z</Time>
            <Position>
              <LatitudeDegrees>40.5187735520303249359130859375</LatitudeDegrees>
              <LongitudeDegrees>-4.05197535641491413116455078125</LongitudeDegrees>
            </Position>
            <AltitudeMeters>867.5999755859375</AltitudeMeters>
            <DistanceMeters>NAN</DistanceMeters>
          </Trackpoint>
          <Trackpoint>
            <Time>2019-08-01T17:11:50.000Z</Time>
            <Position>
              <LatitudeDegrees>40.518750585615634918212890625</LatitudeDegrees>
              <LongitudeDegrees>-4.052093960344791412353515625</LongitudeDegrees>
            </Position>
            <AltitudeMeters>867.4000244140625</AltitudeMeters>
            <DistanceMeters>NAN</DistanceMeters>
          </Trackpoint>
          <Trackpoint>
            <Time>2019-08-01T17:11:51.000Z</Time>
            <Position>
              <LatitudeDegrees>40.518720410764217376708984375</LatitudeDegrees>
              <LongitudeDegrees>-4.052207954227924346923828125</LongitudeDegrees>
            </Position>
            <AltitudeMeters>867.20001220703125</AltitudeMeters>
            <DistanceMeters>NAN</DistanceMeters>
          </Trackpoint>
          <Trackpoint>
            <Time>2019-08-01T17:11:52.000Z</Time>
            <Position>
              <LatitudeDegrees>40.5186843685805797576904296875</LatitudeDegrees>
              <LongitudeDegrees>-4.05231691896915435791015625</LongitudeDegrees>
            </Position>
            <AltitudeMeters>867</AltitudeMeters>
            <DistanceMeters>NAN</DistanceMeters>
          </Trackpoint>
          <Trackpoint>
            <Time>2019-08-01T17:11:53.000Z</Time>
            <Position>
              <LatitudeDegrees>40.51864120177924633026123046875</LatitudeDegrees>
              <LongitudeDegrees>-4.05241959728300571441650390625</LongitudeDegrees>
            </Position>
            <AltitudeMeters>866.5999755859375</AltitudeMeters>
            <DistanceMeters>NAN</DistanceMeters>
          </Trackpoint>
          <Trackpoint>
            <Time>2019-08-01T17:11:54.000Z</Time>
            <Position>
              <LatitudeDegrees>40.5185911618173122406005859375</LatitudeDegrees>
              <LongitudeDegrees>-4.0525145642459392547607421875</LongitudeDegrees>
            </Position>
            <AltitudeMeters>866.20001220703125</AltitudeMeters>
            <DistanceMeters>NAN</DistanceMeters>
          </Trackpoint>
          <Trackpoint>
            <Time>2019-08-01T17:11:55.000Z</Time>
            <Position>
              <LatitudeDegrees>40.51853257231414318084716796875</LatitudeDegrees>
              <LongitudeDegrees>-4.05260131694376468658447265625</LongitudeDegrees>
            </Position>
            <AltitudeMeters>865.79998779296875</AltitudeMeters>
            <DistanceMeters>NAN</DistanceMeters>
          </Trackpoint>
          <Trackpoint>
            <Time>2019-08-01T17:11:56.000Z</Time>
            <Position>
              <LatitudeDegrees>40.518468283116817474365234375</LatitudeDegrees>
              <LongitudeDegrees>-4.0526808612048625946044921875</LongitudeDegrees>
            </Position>
            <AltitudeMeters>865.5999755859375</AltitudeMeters>
            <DistanceMeters>NAN</DistanceMeters>
          </Trackpoint>
          <Trackpoint>
            <Time>2019-08-01T17:11:57.000Z</Time>
            <Position>
              <LatitudeDegrees>40.51839955151081085205078125</LatitudeDegrees>
              <LongitudeDegrees>-4.05275386758148670196533203125</LongitudeDegrees>
            </Position>
            <AltitudeMeters>865.5999755859375</AltitudeMeters>
            <DistanceMeters>NAN</DistanceMeters>
          </Trackpoint>
          <Trackpoint>
            <Time>2019-08-01T17:11:58.000Z</Time>
            <Position>
              <LatitudeDegrees>40.5183276347815990447998046875</LatitudeDegrees>
              <LongitudeDegrees>-4.052822850644588470458984375</LongitudeDegrees>
            </Position>
            <AltitudeMeters>865.4000244140625</AltitudeMeters>
            <DistanceMeters>NAN</DistanceMeters>
          </Trackpoint>
          <Trackpoint>
            <Time>2019-08-01T17:11:59.000Z</Time>
            <Position>
              <LatitudeDegrees>40.518254376947879791259765625</LatitudeDegrees>
              <LongitudeDegrees>-4.0528904087841510772705078125</LongitudeDegrees>
            </Position>
            <AltitudeMeters>864.79998779296875</AltitudeMeters>
            <DistanceMeters>NAN</DistanceMeters>
          </Trackpoint>
          <Trackpoint>
            <Time>2019-08-01T17:12:00.000Z</Time>
            <Position>
              <LatitudeDegrees>40.518180616199970245361328125</LatitudeDegrees>
              <LongitudeDegrees>-4.0529577992856502532958984375</LongitudeDegrees>
            </Position>
            <AltitudeMeters>864.4000244140625</AltitudeMeters>
            <DistanceMeters>NAN</DistanceMeters>
          </Trackpoint>
          <Trackpoint>
            <Time>2019-08-01T17:12:01.000Z</Time>
            <Position>
              <LatitudeDegrees>40.5181056819856166839599609375</LatitudeDegrees>
              <LongitudeDegrees>-4.05302493833005428314208984375</LongitudeDegrees>
            </Position>
            <AltitudeMeters>864</AltitudeMeters>
            <DistanceMeters>NAN</DistanceMeters>
          </Trackpoint>
          <Trackpoint>
            <Time>2019-08-01T17:12:02.000Z</Time>
            <Position>
              <LatitudeDegrees>40.5180302448570728302001953125</LatitudeDegrees>
              <LongitudeDegrees>-4.0530925802886486053466796875</LongitudeDegrees>
            </Position>
            <AltitudeMeters>863.79998779296875</AltitudeMeters>
            <DistanceMeters>NAN</DistanceMeters>
          </Trackpoint>
          <Trackpoint>
            <Time>2019-08-01T17:12:03.000Z</Time>
            <Position>
              <LatitudeDegrees>40.51795455627143383026123046875</LatitudeDegrees>
              <LongitudeDegrees>-4.05316307209432125091552734375</LongitudeDegrees>
            </Position>
            <AltitudeMeters>863.4000244140625</AltitudeMeters>
            <DistanceMeters>NAN</DistanceMeters>
          </Trackpoint>
          <Trackpoint>
            <Time>2019-08-01T17:12:04.000Z</Time>
            <Position>
              <LatitudeDegrees>40.51787962205708026885986328125</LatitudeDegrees>
              <LongitudeDegrees>-4.0532354079186916351318359375</LongitudeDegrees>
            </Position>
            <AltitudeMeters>863.4000244140625</AltitudeMeters>
            <DistanceMeters>NAN</DistanceMeters>
          </Trackpoint>
          <Trackpoint>
            <Time>2019-08-01T17:12:05.000Z</Time>
            <Position>
              <LatitudeDegrees>40.51780669949948787689208984375</LatitudeDegrees>
              <LongitudeDegrees>-4.05331042595207691192626953125</LongitudeDegrees>
            </Position>
            <AltitudeMeters>863.20001220703125</AltitudeMeters>
            <DistanceMeters>NAN</DistanceMeters>
          </Trackpoint>
          <Trackpoint>
            <Time>2019-08-01T17:12:06.000Z</Time>
            <Position>
              <LatitudeDegrees>40.51773679442703723907470703125</LatitudeDegrees>
              <LongitudeDegrees>-4.05338871292769908905029296875</LongitudeDegrees>
            </Position>
            <AltitudeMeters>863</AltitudeMeters>
            <DistanceMeters>NAN</DistanceMeters>
          </Trackpoint>
          <Trackpoint>
            <Time>2019-08-01T17:12:07.000Z</Time>
            <Position>
              <LatitudeDegrees>40.51766890101134777069091796875</LatitudeDegrees>
              <LongitudeDegrees>-4.0534684248268604278564453125</LongitudeDegrees>
            </Position>
            <AltitudeMeters>863</AltitudeMeters>
            <DistanceMeters>NAN</DistanceMeters>
          </Trackpoint>
          <Trackpoint>
            <Time>2019-08-01T17:12:08.000Z</Time>
            <Position>
              <LatitudeDegrees>40.5176027677953243255615234375</LatitudeDegrees>
              <LongitudeDegrees>-4.05354947783052921295166015625</LongitudeDegrees>
            </Position>
            <AltitudeMeters>862.79998779296875</AltitudeMeters>
            <DistanceMeters>NAN</DistanceMeters>
          </Trackpoint>
          <Trackpoint>
            <Time>2019-08-01T17:12:09.000Z</Time>
            <Position>
              <LatitudeDegrees>40.5175383947789669036865234375</LatitudeDegrees>
              <LongitudeDegrees>-4.05363262630999088287353515625</LongitudeDegrees>
            </Position>
            <AltitudeMeters>862.5999755859375</AltitudeMeters>
            <DistanceMeters>NAN</DistanceMeters>
          </Trackpoint>
          <Trackpoint>
            <Time>2019-08-01T17:12:10.000Z</Time>
            <Position>
              <LatitudeDegrees>40.5174743570387363433837890625</LatitudeDegrees>
              <LongitudeDegrees>-4.05371527187526226043701171875</LongitudeDegrees>
            </Position>
            <AltitudeMeters>862.4000244140625</AltitudeMeters>
            <DistanceMeters>NAN</DistanceMeters>
          </Trackpoint>
          <Trackpoint>
            <Time>2019-08-01T17:12:11.000Z</Time>
            <Position>
              <LatitudeDegrees>40.51741023547947406768798828125</LatitudeDegrees>
              <LongitudeDegrees>-4.05379691161215305328369140625</LongitudeDegrees>
            </Position>
            <AltitudeMeters>862</AltitudeMeters>
            <DistanceMeters>NAN</DistanceMeters>
          </Trackpoint>
          <Trackpoint>
            <Time>2019-08-01T17:12:12.000Z</Time>
            <Position>
              <LatitudeDegrees>40.517346449196338653564453125</LatitudeDegrees>
              <LongitudeDegrees>-4.05387804843485355377197265625</LongitudeDegrees>
            </Position>
            <AltitudeMeters>861.79998779296875</AltitudeMeters>
            <DistanceMeters>NAN</DistanceMeters>
          </Trackpoint>
          <Trackpoint>
            <Time>2019-08-01T17:12:13.000Z</Time>
            <Position>
              <LatitudeDegrees>40.51728450693190097808837890625</LatitudeDegrees>
              <LongitudeDegrees>-4.05395935289561748504638671875</LongitudeDegrees>
            </Position>
            <AltitudeMeters>861.5999755859375</AltitudeMeters>
            <DistanceMeters>NAN</DistanceMeters>
          </Trackpoint>
          <Trackpoint>
            <Time>2019-08-01T17:12:14.000Z</Time>
            <Position>
              <LatitudeDegrees>40.51722315140068531036376953125</LatitudeDegrees>
              <LongitudeDegrees>-4.0540400706231594085693359375</LongitudeDegrees>
            </Position>
            <AltitudeMeters>861.5999755859375</AltitudeMeters>
            <DistanceMeters>NAN</DistanceMeters>
          </Trackpoint>
          <Trackpoint>
            <Time>2019-08-01T17:12:15.000Z</Time>
            <Position>
              <LatitudeDegrees>40.517163388431072235107421875</LatitudeDegrees>
              <LongitudeDegrees>-4.05411793850362300872802734375</LongitudeDegrees>
            </Position>
            <AltitudeMeters>860.79998779296875</AltitudeMeters>
            <DistanceMeters>NAN</DistanceMeters>
          </Trackpoint>
          <Trackpoint>
            <Time>2019-08-01T17:12:16.000Z</Time>
            <Position>
              <LatitudeDegrees>40.51710429601371288299560546875</LatitudeDegrees>
              <LongitudeDegrees>-4.05419421382248401641845703125</LongitudeDegrees>
            </Position>
            <AltitudeMeters>860.4000244140625</AltitudeMeters>
            <DistanceMeters>NAN</DistanceMeters>
          </Trackpoint>
          <Trackpoint>
            <Time>2019-08-01T17:12:17.000Z</Time>
            <Position>
              <LatitudeDegrees>40.5170458741486072540283203125</LatitudeDegrees>
              <LongitudeDegrees>-4.05426881276071071624755859375</LongitudeDegrees>
            </Position>
            <AltitudeMeters>860.20001220703125</AltitudeMeters>
            <DistanceMeters>NAN</DistanceMeters>
          </Trackpoint>
          <Trackpoint>
            <Time>2019-08-01T17:12:18.000Z</Time>
            <Position>
              <LatitudeDegrees>40.51699013449251651763916015625</LatitudeDegrees>
              <LongitudeDegrees>-4.05434357933700084686279296875</LongitudeDegrees>
            </Position>
            <AltitudeMeters>860.20001220703125</AltitudeMeters>
            <DistanceMeters>NAN</DistanceMeters>
          </Trackpoint>
          <Trackpoint>
            <Time>2019-08-01T17:12:19.000Z</Time>
            <Position>
              <LatitudeDegrees>40.51693615503609180450439453125</LatitudeDegrees>
              <LongitudeDegrees>-4.05441968701779842376708984375</LongitudeDegrees>
            </Position>
            <AltitudeMeters>860</AltitudeMeters>
            <DistanceMeters>NAN</DistanceMeters>
          </Trackpoint>
          <Trackpoint>
            <Time>2019-08-01T17:12:20.000Z</Time>
            <Position>
              <LatitudeDegrees>40.516883768141269683837890625</LatitudeDegrees>
              <LongitudeDegrees>-4.054498560726642608642578125</LongitudeDegrees>
            </Position>
            <AltitudeMeters>859.79998779296875</AltitudeMeters>
            <DistanceMeters>NAN</DistanceMeters>
          </Trackpoint>
          <Trackpoint>
            <Time>2019-08-01T17:12:21.000Z</Time>
            <Position>
              <LatitudeDegrees>40.5168329738080501556396484375</LatitudeDegrees>
              <LongitudeDegrees>-4.05458011664450168609619140625</LongitudeDegrees>
            </Position>
            <AltitudeMeters>859.79998779296875</AltitudeMeters>
            <DistanceMeters>NAN</DistanceMeters>
          </Trackpoint>
          <Trackpoint>
            <Time>2019-08-01T17:12:22.000Z</Time>
            <Position>
              <LatitudeDegrees>40.51678352057933807373046875</LatitudeDegrees>
              <LongitudeDegrees>-4.05466209165751934051513671875</LongitudeDegrees>
            </Position>
            <AltitudeMeters>859.5999755859375</AltitudeMeters>
            <DistanceMeters>NAN</DistanceMeters>
          </Trackpoint>
          <Trackpoint>
            <Time>2019-08-01T17:12:23.000Z</Time>
            <Position>
              <LatitudeDegrees>40.51673515699803829193115234375</LatitudeDegrees>
              <LongitudeDegrees>-4.05474306084215641021728515625</LongitudeDegrees>
            </Position>
            <AltitudeMeters>859.5999755859375</AltitudeMeters>
            <DistanceMeters>NAN</DistanceMeters>
          </Trackpoint>
          <Trackpoint>
            <Time>2019-08-01T17:12:24.000Z</Time>
            <Position>
              <LatitudeDegrees>40.51668855361640453338623046875</LatitudeDegrees>
              <LongitudeDegrees>-4.05482352711260318756103515625</LongitudeDegrees>
            </Position>
            <AltitudeMeters>859.4000244140625</AltitudeMeters>
            <DistanceMeters>NAN</DistanceMeters>
          </Trackpoint>
          <Trackpoint>
            <Time>2019-08-01T17:12:25.000Z</Time>
            <Position>
              <LatitudeDegrees>40.5166428722441196441650390625</LatitudeDegrees>
              <LongitudeDegrees>-4.054901897907257080078125</LongitudeDegrees>
            </Position>
            <AltitudeMeters>859.20001220703125</AltitudeMeters>
            <DistanceMeters>NAN</DistanceMeters>
          </Trackpoint>
          <Trackpoint>
            <Time>2019-08-01T17:12:26.000Z</Time>
            <Position>
              <LatitudeDegrees>40.516597442328929901123046875</LatitudeDegrees>
              <LongitudeDegrees>-4.054976999759674072265625</LongitudeDegrees>
            </Position>
            <AltitudeMeters>859.20001220703125</AltitudeMeters>
            <DistanceMeters>NAN</DistanceMeters>
          </Trackpoint>
          <Trackpoint>
            <Time>2019-08-01T17:12:27.000Z</Time>
            <Position>
              <LatitudeDegrees>40.51655360497534275054931640625</LatitudeDegrees>
              <LongitudeDegrees>-4.05504816211760044097900390625</LongitudeDegrees>
            </Position>
            <AltitudeMeters>859</AltitudeMeters>
            <DistanceMeters>NAN</DistanceMeters>
          </Trackpoint>
          <Trackpoint>
            <Time>2019-08-01T17:12:28.000Z</Time>
            <Position>
              <LatitudeDegrees>40.51651068963110446929931640625</LatitudeDegrees>
              <LongitudeDegrees>-4.0551159717142581939697265625</LongitudeDegrees>
            </Position>
            <AltitudeMeters>858.79998779296875</AltitudeMeters>
            <DistanceMeters>NAN</DistanceMeters>
          </Trackpoint>
          <Trackpoint>
            <Time>2019-08-01T17:12:29.000Z</Time>
            <Position>
              <LatitudeDegrees>40.5164690315723419189453125</LatitudeDegrees>
              <LongitudeDegrees>-4.05518176965415477752685546875</LongitudeDegrees>
            </Position>
            <AltitudeMeters>858.5999755859375</AltitudeMeters>
            <DistanceMeters>NAN</DistanceMeters>
          </Trackpoint>
          <Trackpoint>
            <Time>2019-08-01T17:12:30.000Z</Time>
            <Position>
              <LatitudeDegrees>40.5164272896945476531982421875</LatitudeDegrees>
              <LongitudeDegrees>-4.0552457235753536224365234375</LongitudeDegrees>
            </Position>
            <AltitudeMeters>858.5999755859375</AltitudeMeters>
            <DistanceMeters>NAN</DistanceMeters>
          </Trackpoint>
          <Trackpoint>
            <Time>2019-08-01T17:12:31.000Z</Time>
            <Position>
              <LatitudeDegrees>40.51638445816934108734130859375</LatitudeDegrees>
              <LongitudeDegrees>-4.055306911468505859375</LongitudeDegrees>
            </Position>
            <AltitudeMeters>858.5999755859375</AltitudeMeters>
            <DistanceMeters>NAN</DistanceMeters>
          </Trackpoint>
          <Trackpoint>
            <Time>2019-08-01T17:12:32.000Z</Time>
            <Position>
              <LatitudeDegrees>40.5163431353867053985595703125</LatitudeDegrees>
              <LongitudeDegrees>-4.055368937551975250244140625</LongitudeDegrees>
            </Position>
            <AltitudeMeters>858.5999755859375</AltitudeMeters>
            <DistanceMeters>NAN</DistanceMeters>
          </Trackpoint>
          <Trackpoint>
            <Time>2019-08-01T17:12:33.000Z</Time>
            <Position>
              <LatitudeDegrees>40.5163079313933849334716796875</LatitudeDegrees>
              <LongitudeDegrees>-4.05543657951056957244873046875</LongitudeDegrees>
            </Position>
            <AltitudeMeters>858.5999755859375</AltitudeMeters>
            <DistanceMeters>NAN</DistanceMeters>
          </Trackpoint>
          <Trackpoint>
            <Time>2019-08-01T17:12:34.000Z</Time>
            <Position>
              <LatitudeDegrees>40.5162824504077434539794921875</LatitudeDegrees>
              <LongitudeDegrees>-4.055509753525257110595703125</LongitudeDegrees>
            </Position>
            <AltitudeMeters>858.5999755859375</AltitudeMeters>
            <DistanceMeters>NAN</DistanceMeters>
          </Trackpoint>
          <Trackpoint>
            <Time>2019-08-01T17:12:35.000Z</Time>
            <Position>
              <LatitudeDegrees>40.516260154545307159423828125</LatitudeDegrees>
              <LongitudeDegrees>-4.05558393336832523345947265625</LongitudeDegrees>
            </Position>
            <AltitudeMeters>858.5999755859375</AltitudeMeters>
            <DistanceMeters>NAN</DistanceMeters>
          </Trackpoint>
          <Trackpoint>
            <Time>2019-08-01T17:12:36.000Z</Time>
            <Position>
              <LatitudeDegrees>40.5162356793880462646484375</LatitudeDegrees>
              <LongitudeDegrees>-4.0556571073830127716064453125</LongitudeDegrees>
            </Position>
            <AltitudeMeters>858.5999755859375</AltitudeMeters>
            <DistanceMeters>NAN</DistanceMeters>
          </Trackpoint>
          <Trackpoint>
            <Time>2019-08-01T17:12:37.000Z</Time>
            <Position>
              <LatitudeDegrees>40.51620592363178730010986328125</LatitudeDegrees>
              <LongitudeDegrees>-4.05572575516998767852783203125</LongitudeDegrees>
            </Position>
            <AltitudeMeters>858.5999755859375</AltitudeMeters>
            <DistanceMeters>NAN</DistanceMeters>
          </Trackpoint>
          <Trackpoint>
            <Time>2019-08-01T17:12:38.000Z</Time>
            <Position>
              <LatitudeDegrees>40.51616619341075420379638671875</LatitudeDegrees>
              <LongitudeDegrees>-4.055783338844776153564453125</LongitudeDegrees>
            </Position>
            <AltitudeMeters>858.79998779296875</AltitudeMeters>
            <DistanceMeters>NAN</DistanceMeters>
          </Trackpoint>
          <Trackpoint>
            <Time>2019-08-01T17:12:39.000Z</Time>
            <Position>
              <LatitudeDegrees>40.51616619341075420379638671875</LatitudeDegrees>
              <LongitudeDegrees>-4.055783338844776153564453125</LongitudeDegrees>
            </Position>
            <AltitudeMeters>859</AltitudeMeters>
            <DistanceMeters>NAN</DistanceMeters>
          </Trackpoint>
          <Trackpoint>
            <Time>2019-08-01T17:12:40.000Z</Time>
            <Position>
              <LatitudeDegrees>40.51606074906885623931884765625</LatitudeDegrees>
              <LongitudeDegrees>-4.0558420121669769287109375</LongitudeDegrees>
            </Position>
            <AltitudeMeters>859.20001220703125</AltitudeMeters>
            <DistanceMeters>NAN</DistanceMeters>
          </Trackpoint>
          <Trackpoint>
            <Time>2019-08-01T17:12:41.000Z</Time>
            <Position>
              <LatitudeDegrees>40.51600727252662181854248046875</LatitudeDegrees>
              <LongitudeDegrees>-4.05583907850086688995361328125</LongitudeDegrees>
            </Position>
            <AltitudeMeters>859.4000244140625</AltitudeMeters>
            <DistanceMeters>NAN</DistanceMeters>
          </Trackpoint>
          <Trackpoint>
            <Time>2019-08-01T17:12:42.000Z</Time>
            <Position>
              <LatitudeDegrees>40.515954382717609405517578125</LatitudeDegrees>
              <LongitudeDegrees>-4.055818207561969757080078125</LongitudeDegrees>
            </Position>
            <AltitudeMeters>859.79998779296875</AltitudeMeters>
            <DistanceMeters>NAN</DistanceMeters>
          </Trackpoint>
          <Trackpoint>
            <Time>2019-08-01T17:12:43.000Z</Time>
            <Position>
              <LatitudeDegrees>40.5159049294888973236083984375</LatitudeDegrees>
              <LongitudeDegrees>-4.05578409321606159210205078125</LongitudeDegrees>
            </Position>
            <AltitudeMeters>860</AltitudeMeters>
            <DistanceMeters>NAN</DistanceMeters>
          </Trackpoint>
          <Trackpoint>
            <Time>2019-08-01T17:12:44.000Z</Time>
            <Position>
              <LatitudeDegrees>40.51586159504950046539306640625</LatitudeDegrees>
              <LongitudeDegrees>-4.05573799274861812591552734375</LongitudeDegrees>
            </Position>
            <AltitudeMeters>860.4000244140625</AltitudeMeters>
            <DistanceMeters>NAN</DistanceMeters>
          </Trackpoint>
          <Trackpoint>
            <Time>2019-08-01T17:12:45.000Z</Time>
            <Position>
              <LatitudeDegrees>40.5158226191997528076171875</LatitudeDegrees>
              <LongitudeDegrees>-4.05568367801606655120849609375</LongitudeDegrees>
            </Position>
            <AltitudeMeters>860.5999755859375</AltitudeMeters>
            <DistanceMeters>NAN</DistanceMeters>
          </Trackpoint>
          <Trackpoint>
            <Time>2019-08-01T17:12:46.000Z</Time>
            <Position>
              <LatitudeDegrees>40.51578330807387828826904296875</LatitudeDegrees>
              <LongitudeDegrees>-4.05562902800738811492919921875</LongitudeDegrees>
            </Position>
            <AltitudeMeters>860.5999755859375</AltitudeMeters>
            <DistanceMeters>NAN</DistanceMeters>
          </Trackpoint>
          <Trackpoint>
            <Time>2019-08-01T17:12:47.000Z</Time>
            <Position>
              <LatitudeDegrees>40.5157409794628620147705078125</LatitudeDegrees>
              <LongitudeDegrees>-4.05557840131223201751708984375</LongitudeDegrees>
            </Position>
            <AltitudeMeters>861</AltitudeMeters>
            <DistanceMeters>NAN</DistanceMeters>
          </Trackpoint>
          <Trackpoint>
            <Time>2019-08-01T17:12:48.000Z</Time>
            <Position>
              <LatitudeDegrees>40.515692532062530517578125</LatitudeDegrees>
              <LongitudeDegrees>-4.05553716234862804412841796875</LongitudeDegrees>
            </Position>
            <AltitudeMeters>861.20001220703125</AltitudeMeters>
            <DistanceMeters>NAN</DistanceMeters>
          </Trackpoint>
          <Trackpoint>
            <Time>2019-08-01T17:12:49.000Z</Time>
            <Position>
              <LatitudeDegrees>40.5156397260725498199462890625</LatitudeDegrees>
              <LongitudeDegrees>-4.0555058978497982025146484375</LongitudeDegrees>
            </Position>
            <AltitudeMeters>861.4000244140625</AltitudeMeters>
            <DistanceMeters>NAN</DistanceMeters>
          </Trackpoint>
          <Trackpoint>
            <Time>2019-08-01T17:12:50.000Z</Time>
            <Position>
              <LatitudeDegrees>40.515585578978061676025390625</LatitudeDegrees>
              <LongitudeDegrees>-4.0554825961589813232421875</LongitudeDegrees>
            </Position>
            <AltitudeMeters>861.5999755859375</AltitudeMeters>
            <DistanceMeters>NAN</DistanceMeters>
          </Trackpoint>
          <Trackpoint>
            <Time>2019-08-01T17:12:51.000Z</Time>
            <Position>
              <LatitudeDegrees>40.51553168334066867828369140625</LatitudeDegrees>
              <LongitudeDegrees>-4.0554639883339405059814453125</LongitudeDegrees>
            </Position>
            <AltitudeMeters>862</AltitudeMeters>
            <DistanceMeters>NAN</DistanceMeters>
          </Trackpoint>
          <Trackpoint>
            <Time>2019-08-01T17:12:52.000Z</Time>
            <Position>
              <LatitudeDegrees>40.5154777877032756805419921875</LatitudeDegrees>
              <LongitudeDegrees>-4.05544705688953399658203125</LongitudeDegrees>
            </Position>
            <AltitudeMeters>862</AltitudeMeters>
            <DistanceMeters>NAN</DistanceMeters>
          </Trackpoint>
          <Trackpoint>
            <Time>2019-08-01T17:12:53.000Z</Time>
            <Position>
              <LatitudeDegrees>40.51542364060878753662109375</LatitudeDegrees>
              <LongitudeDegrees>-4.05543071217834949493408203125</LongitudeDegrees>
            </Position>
            <AltitudeMeters>862.20001220703125</AltitudeMeters>
            <DistanceMeters>NAN</DistanceMeters>
          </Trackpoint>
          <Trackpoint>
            <Time>2019-08-01T17:12:54.000Z</Time>
            <Position>
              <LatitudeDegrees>40.5153704993426799774169921875</LatitudeDegrees>
              <LongitudeDegrees>-4.05541327781975269317626953125</LongitudeDegrees>
            </Position>
            <AltitudeMeters>862.5999755859375</AltitudeMeters>
            <DistanceMeters>NAN</DistanceMeters>
          </Trackpoint>
          <Trackpoint>
            <Time>2019-08-01T17:12:55.000Z</Time>
            <Position>
              <LatitudeDegrees>40.51531677134335041046142578125</LatitudeDegrees>
              <LongitudeDegrees>-4.05539684928953647613525390625</LongitudeDegrees>
            </Position>
            <AltitudeMeters>862.79998779296875</AltitudeMeters>
            <DistanceMeters>NAN</DistanceMeters>
          </Trackpoint>
          <Trackpoint>
            <Time>2019-08-01T17:12:56.000Z</Time>
            <Position>
              <LatitudeDegrees>40.5152625404298305511474609375</LatitudeDegrees>
              <LongitudeDegrees>-4.0553828515112400054931640625</LongitudeDegrees>
            </Position>
            <AltitudeMeters>862.79998779296875</AltitudeMeters>
            <DistanceMeters>NAN</DistanceMeters>
          </Trackpoint>
          <Trackpoint>
            <Time>2019-08-01T17:12:57.000Z</Time>
            <Position>
              <LatitudeDegrees>40.51520906388759613037109375</LatitudeDegrees>
              <LongitudeDegrees>-4.05537128448486328125</LongitudeDegrees>
            </Position>
            <AltitudeMeters>863.20001220703125</AltitudeMeters>
            <DistanceMeters>NAN</DistanceMeters>
          </Trackpoint>
          <Trackpoint>
            <Time>2019-08-01T17:12:58.000Z</Time>
            <Position>
              <LatitudeDegrees>40.51515516825020313262939453125</LatitudeDegrees>
              <LongitudeDegrees>-4.05535988509654998779296875</LongitudeDegrees>
            </Position>
            <AltitudeMeters>863.20001220703125</AltitudeMeters>
            <DistanceMeters>NAN</DistanceMeters>
          </Trackpoint>
          <Trackpoint>
            <Time>2019-08-01T17:12:59.000Z</Time>
            <Position>
              <LatitudeDegrees>40.515102781355381011962890625</LatitudeDegrees>
              <LongitudeDegrees>-4.055346138775348663330078125</LongitudeDegrees>
            </Position>
            <AltitudeMeters>863.4000244140625</AltitudeMeters>
            <DistanceMeters>NAN</DistanceMeters>
          </Trackpoint>
          <Trackpoint>
            <Time>2019-08-01T17:13:00.000Z</Time>
            <Position>
              <LatitudeDegrees>40.51505207084119319915771484375</LatitudeDegrees>
              <LongitudeDegrees>-4.0553328953683376312255859375</LongitudeDegrees>
            </Position>
            <AltitudeMeters>863.4000244140625</AltitudeMeters>
            <DistanceMeters>NAN</DistanceMeters>
          </Trackpoint>
          <Trackpoint>
            <Time>2019-08-01T17:13:01.000Z</Time>
            <Position>
              <LatitudeDegrees>40.51500119268894195556640625</LatitudeDegrees>
              <LongitudeDegrees>-4.055324681103229522705078125</LongitudeDegrees>
            </Position>
            <AltitudeMeters>863.5999755859375</AltitudeMeters>
            <DistanceMeters>NAN</DistanceMeters>
          </Trackpoint>
          <Trackpoint>
            <Time>2019-08-01T17:13:02.000Z</Time>
            <Position>
              <LatitudeDegrees>40.51495023071765899658203125</LatitudeDegrees>
              <LongitudeDegrees>-4.05532090924680233001708984375</LongitudeDegrees>
            </Position>
            <AltitudeMeters>863.79998779296875</AltitudeMeters>
            <DistanceMeters>NAN</DistanceMeters>
          </Trackpoint>
          <Trackpoint>
            <Time>2019-08-01T17:13:03.000Z</Time>
            <Position>
              <LatitudeDegrees>40.51489901728928089141845703125</LatitudeDegrees>
              <LongitudeDegrees>-4.055317975580692291259765625</LongitudeDegrees>
            </Position>
            <AltitudeMeters>864</AltitudeMeters>
            <DistanceMeters>NAN</DistanceMeters>
          </Trackpoint>
          <Trackpoint>
            <Time>2019-08-01T17:13:04.000Z</Time>
            <Position>
              <LatitudeDegrees>40.51484788767993450164794921875</LatitudeDegrees>
              <LongitudeDegrees>-4.05531403608620166778564453125</LongitudeDegrees>
            </Position>
            <AltitudeMeters>864.20001220703125</AltitudeMeters>
            <DistanceMeters>NAN</DistanceMeters>
          </Trackpoint>
          <Trackpoint>
            <Time>2019-08-01T17:13:05.000Z</Time>
            <Position>
              <LatitudeDegrees>40.5147968418896198272705078125</LatitudeDegrees>
              <LongitudeDegrees>-4.055309928953647613525390625</LongitudeDegrees>
            </Position>
            <AltitudeMeters>864.20001220703125</AltitudeMeters>
            <DistanceMeters>NAN</DistanceMeters>
          </Trackpoint>
          <Trackpoint>
            <Time>2019-08-01T17:13:06.000Z</Time>
            <Position>
              <LatitudeDegrees>40.51474629901349544525146484375</LatitudeDegrees>
              <LongitudeDegrees>-4.055305905640125274658203125</LongitudeDegrees>
            </Position>
            <AltitudeMeters>864.4000244140625</AltitudeMeters>
            <DistanceMeters>NAN</DistanceMeters>
          </Trackpoint>
          <Trackpoint>
            <Time>2019-08-01T17:13:07.000Z</Time>
            <Position>
              <LatitudeDegrees>40.514696426689624786376953125</LatitudeDegrees>
              <LongitudeDegrees>-4.0553013794124126434326171875</LongitudeDegrees>
            </Position>
            <AltitudeMeters>864.5999755859375</AltitudeMeters>
            <DistanceMeters>NAN</DistanceMeters>
          </Trackpoint>
          <Trackpoint>
            <Time>2019-08-01T17:13:08.000Z</Time>
            <Position>
              <LatitudeDegrees>40.5146463029086589813232421875</LatitudeDegrees>
              <LongitudeDegrees>-4.055295847356319427490234375</LongitudeDegrees>
            </Position>
            <AltitudeMeters>864.5999755859375</AltitudeMeters>
            <DistanceMeters>NAN</DistanceMeters>
          </Trackpoint>
          <Trackpoint>
            <Time>2019-08-01T17:13:09.000Z</Time>
            <Position>
              <LatitudeDegrees>40.514595843851566314697265625</LatitudeDegrees>
              <LongitudeDegrees>-4.055288471281528472900390625</LongitudeDegrees>
            </Position>
            <AltitudeMeters>864.79998779296875</AltitudeMeters>
            <DistanceMeters>NAN</DistanceMeters>
          </Trackpoint>
          <Trackpoint>
            <Time>2019-08-01T17:13:10.000Z</Time>
            <Position>
              <LatitudeDegrees>40.514546222984790802001953125</LatitudeDegrees>
              <LongitudeDegrees>-4.05528034083545207977294921875</LongitudeDegrees>
            </Position>
            <AltitudeMeters>865.20001220703125</AltitudeMeters>
            <DistanceMeters>NAN</DistanceMeters>
          </Trackpoint>
          <Trackpoint>
            <Time>2019-08-01T17:13:11.000Z</Time>
            <Position>
              <LatitudeDegrees>40.51449752412736415863037109375</LatitudeDegrees>
              <LongitudeDegrees>-4.0552733838558197021484375</LongitudeDegrees>
            </Position>
            <AltitudeMeters>865.4000244140625</AltitudeMeters>
            <DistanceMeters>NAN</DistanceMeters>
          </Trackpoint>
          <Trackpoint>
            <Time>2019-08-01T17:13:12.000Z</Time>
            <Position>
              <LatitudeDegrees>40.51444924436509609222412109375</LatitudeDegrees>
              <LongitudeDegrees>-4.0552675165235996246337890625</LongitudeDegrees>
            </Position>
            <AltitudeMeters>865.4000244140625</AltitudeMeters>
            <DistanceMeters>NAN</DistanceMeters>
          </Trackpoint>
          <Trackpoint>
            <Time>2019-08-01T17:13:13.000Z</Time>
            <Position>
              <LatitudeDegrees>40.51440163515508174896240234375</LatitudeDegrees>
              <LongitudeDegrees>-4.055261649191379547119140625</LongitudeDegrees>
            </Position>
            <AltitudeMeters>865.5999755859375</AltitudeMeters>
            <DistanceMeters>NAN</DistanceMeters>
          </Trackpoint>
          <Trackpoint>
            <Time>2019-08-01T17:13:14.000Z</Time>
            <Position>
              <LatitudeDegrees>40.51435469649732112884521484375</LatitudeDegrees>
              <LongitudeDegrees>-4.0552561171352863311767578125</LongitudeDegrees>
            </Position>
            <AltitudeMeters>865.5999755859375</AltitudeMeters>
            <DistanceMeters>NAN</DistanceMeters>
          </Trackpoint>
          <Trackpoint>
            <Time>2019-08-01T17:13:15.000Z</Time>
            <Position>
              <LatitudeDegrees>40.5143076740205287933349609375</LatitudeDegrees>
              <LongitudeDegrees>-4.05525066889822483062744140625</LongitudeDegrees>
            </Position>
            <AltitudeMeters>865.5999755859375</AltitudeMeters>
            <DistanceMeters>NAN</DistanceMeters>
          </Trackpoint>
          <Trackpoint>
            <Time>2019-08-01T17:13:16.000Z</Time>
            <Position>
              <LatitudeDegrees>40.5142604000866413116455078125</LatitudeDegrees>
              <LongitudeDegrees>-4.055244214832782745361328125</LongitudeDegrees>
            </Position>
            <AltitudeMeters>865.79998779296875</AltitudeMeters>
            <DistanceMeters>NAN</DistanceMeters>
          </Trackpoint>
          <Trackpoint>
            <Time>2019-08-01T17:13:17.000Z</Time>
            <Position>
              <LatitudeDegrees>40.51421253941953182220458984375</LatitudeDegrees>
              <LongitudeDegrees>-4.0552363358438014984130859375</LongitudeDegrees>
            </Position>
            <AltitudeMeters>865.79998779296875</AltitudeMeters>
            <DistanceMeters>NAN</DistanceMeters>
          </Trackpoint>
          <Trackpoint>
            <Time>2019-08-01T17:13:18.000Z</Time>
            <Position>
              <LatitudeDegrees>40.514164678752422332763671875</LatitudeDegrees>
              <LongitudeDegrees>-4.055230133235454559326171875</LongitudeDegrees>
            </Position>
            <AltitudeMeters>865.79998779296875</AltitudeMeters>
            <DistanceMeters>NAN</DistanceMeters>
          </Trackpoint>
          <Trackpoint>
            <Time>2019-08-01T17:13:20.000Z</Time>
            <Position>
              <LatitudeDegrees>40.5140702985227108001708984375</LatitudeDegrees>
              <LongitudeDegrees>-4.0552192367613315582275390625</LongitudeDegrees>
            </Position>
            <AltitudeMeters>866</AltitudeMeters>
            <DistanceMeters>NAN</DistanceMeters>
          </Trackpoint>
          <Trackpoint>
            <Time>2019-08-01T17:13:21.000Z</Time>
            <Position>
              <LatitudeDegrees>40.5140233598649501800537109375</LatitudeDegrees>
              <LongitudeDegrees>-4.05521211214363574981689453125</LongitudeDegrees>
            </Position>
            <AltitudeMeters>866.20001220703125</AltitudeMeters>
            <DistanceMeters>NAN</DistanceMeters>
          </Trackpoint>
          <Trackpoint>
            <Time>2019-08-01T17:13:22.000Z</Time>
            <Position>
              <LatitudeDegrees>40.5139777623116970062255859375</LatitudeDegrees>
              <LongitudeDegrees>-4.0552058257162570953369140625</LongitudeDegrees>
            </Position>
            <AltitudeMeters>866.4000244140625</AltitudeMeters>
            <DistanceMeters>NAN</DistanceMeters>
          </Trackpoint>
          <Trackpoint>
            <Time>2019-08-01T17:13:23.000Z</Time>
            <Position>
              <LatitudeDegrees>40.51393233239650726318359375</LatitudeDegrees>
              <LongitudeDegrees>-4.05519920401275157928466796875</LongitudeDegrees>
            </Position>
            <AltitudeMeters>866.5999755859375</AltitudeMeters>
            <DistanceMeters>NAN</DistanceMeters>
          </Trackpoint>
          <Trackpoint>
            <Time>2019-08-01T17:13:24.000Z</Time>
            <Position>
              <LatitudeDegrees>40.5138872377574443817138671875</LatitudeDegrees>
              <LongitudeDegrees>-4.05519149266183376312255859375</LongitudeDegrees>
            </Position>
            <AltitudeMeters>866.79998779296875</AltitudeMeters>
            <DistanceMeters>NAN</DistanceMeters>
          </Trackpoint>
          <Trackpoint>
            <Time>2019-08-01T17:13:25.000Z</Time>
            <Position>
              <LatitudeDegrees>40.51384189166128635406494140625</LatitudeDegrees>
              <LongitudeDegrees>-4.05518420040607452392578125</LongitudeDegrees>
            </Position>
            <AltitudeMeters>866.79998779296875</AltitudeMeters>
            <DistanceMeters>NAN</DistanceMeters>
          </Trackpoint>
          <Trackpoint>
            <Time>2019-08-01T17:13:26.000Z</Time>
            <Position>
              <LatitudeDegrees>40.513795204460620880126953125</LatitudeDegrees>
              <LongitudeDegrees>-4.0551786683499813079833984375</LongitudeDegrees>
            </Position>
            <AltitudeMeters>867</AltitudeMeters>
            <DistanceMeters>NAN</DistanceMeters>
          </Trackpoint>
          <Trackpoint>
            <Time>2019-08-01T17:13:27.000Z</Time>
            <Position>
              <LatitudeDegrees>40.51374667324125766754150390625</LatitudeDegrees>
              <LongitudeDegrees>-4.0551729686558246612548828125</LongitudeDegrees>
            </Position>
            <AltitudeMeters>867</AltitudeMeters>
            <DistanceMeters>NAN</DistanceMeters>
          </Trackpoint>
          <Trackpoint>
            <Time>2019-08-01T17:13:28.000Z</Time>
            <Position>
              <LatitudeDegrees>40.51369763910770416259765625</LatitudeDegrees>
              <LongitudeDegrees>-4.0551655925810337066650390625</LongitudeDegrees>
            </Position>
            <AltitudeMeters>867.20001220703125</AltitudeMeters>
            <DistanceMeters>NAN</DistanceMeters>
          </Trackpoint>
          <Trackpoint>
            <Time>2019-08-01T17:13:29.000Z</Time>
            <Position>
              <LatitudeDegrees>40.51364860497415065765380859375</LatitudeDegrees>
              <LongitudeDegrees>-4.0551592223346233367919921875</LongitudeDegrees>
            </Position>
            <AltitudeMeters>867.4000244140625</AltitudeMeters>
            <DistanceMeters>NAN</DistanceMeters>
          </Trackpoint>
          <Trackpoint>
            <Time>2019-08-01T17:13:30.000Z</Time>
            <Position>
              <LatitudeDegrees>40.51359973847866058349609375</LatitudeDegrees>
              <LongitudeDegrees>-4.055151678621768951416015625</LongitudeDegrees>
            </Position>
            <AltitudeMeters>867.5999755859375</AltitudeMeters>
            <DistanceMeters>NAN</DistanceMeters>
          </Trackpoint>
          <Trackpoint>
            <Time>2019-08-01T17:13:31.000Z</Time>
            <Position>
              <LatitudeDegrees>40.5135509558022022247314453125</LatitudeDegrees>
              <LongitudeDegrees>-4.05514488928020000457763671875</LongitudeDegrees>
            </Position>
            <AltitudeMeters>867.79998779296875</AltitudeMeters>
            <DistanceMeters>NAN</DistanceMeters>
          </Trackpoint>
          <Trackpoint>
            <Time>2019-08-01T17:13:32.000Z</Time>
            <Position>
              <LatitudeDegrees>40.5135023407638072967529296875</LatitudeDegrees>
              <LongitudeDegrees>-4.0551397763192653656005859375</LongitudeDegrees>
            </Position>
            <AltitudeMeters>868</AltitudeMeters>
            <DistanceMeters>NAN</DistanceMeters>
          </Trackpoint>
          <Trackpoint>
            <Time>2019-08-01T17:13:33.000Z</Time>
            <Position>
              <LatitudeDegrees>40.51345355808734893798828125</LatitudeDegrees>
              <LongitudeDegrees>-4.0551330707967281341552734375</LongitudeDegrees>
            </Position>
            <AltitudeMeters>868</AltitudeMeters>
            <DistanceMeters>NAN</DistanceMeters>
          </Trackpoint>
          <Trackpoint>
            <Time>2019-08-01T17:13:34.000Z</Time>
            <Position>
              <LatitudeDegrees>40.51340393722057342529296875</LatitudeDegrees>
              <LongitudeDegrees>-4.0551260299980640411376953125</LongitudeDegrees>
            </Position>
            <AltitudeMeters>868.20001220703125</AltitudeMeters>
            <DistanceMeters>NAN</DistanceMeters>
          </Trackpoint>
          <Trackpoint>
            <Time>2019-08-01T17:13:35.000Z</Time>
            <Position>
              <LatitudeDegrees>40.513353981077671051025390625</LatitudeDegrees>
              <LongitudeDegrees>-4.05511957593262195587158203125</LongitudeDegrees>
            </Position>
            <AltitudeMeters>868.4000244140625</AltitudeMeters>
            <DistanceMeters>NAN</DistanceMeters>
          </Trackpoint>
          <Trackpoint>
            <Time>2019-08-01T17:13:37.000Z</Time>
            <Position>
              <LatitudeDegrees>40.51325566135346889495849609375</LatitudeDegrees>
              <LongitudeDegrees>-4.05510717071592807769775390625</LongitudeDegrees>
            </Position>
            <AltitudeMeters>868.5999755859375</AltitudeMeters>
            <DistanceMeters>NAN</DistanceMeters>
          </Trackpoint>
          <Trackpoint>
            <Time>2019-08-01T17:13:38.000Z</Time>
            <Position>
              <LatitudeDegrees>40.51320771686732769012451171875</LatitudeDegrees>
              <LongitudeDegrees>-4.05510046519339084625244140625</LongitudeDegrees>
            </Position>
            <AltitudeMeters>868.5999755859375</AltitudeMeters>
            <DistanceMeters>NAN</DistanceMeters>
          </Trackpoint>
          <Trackpoint>
            <Time>2019-08-01T17:13:39.000Z</Time>
            <Position>
              <LatitudeDegrees>40.51315994001924991607666015625</LatitudeDegrees>
              <LongitudeDegrees>-4.05509426258504390716552734375</LongitudeDegrees>
            </Position>
            <AltitudeMeters>869</AltitudeMeters>
            <DistanceMeters>NAN</DistanceMeters>
          </Trackpoint>
          <Trackpoint>
            <Time>2019-08-01T17:13:40.000Z</Time>
            <Position>
              <LatitudeDegrees>40.51311157643795013427734375</LatitudeDegrees>
              <LongitudeDegrees>-4.05508789233863353729248046875</LongitudeDegrees>
            </Position>
            <AltitudeMeters>869</AltitudeMeters>
            <DistanceMeters>NAN</DistanceMeters>
          </Trackpoint>
          <Trackpoint>
            <Time>2019-08-01T17:13:41.000Z</Time>
            <Position>
              <LatitudeDegrees>40.51306153647601604461669921875</LatitudeDegrees>
              <LongitudeDegrees>-4.055081941187381744384765625</LongitudeDegrees>
            </Position>
            <AltitudeMeters>869.20001220703125</AltitudeMeters>
            <DistanceMeters>NAN</DistanceMeters>
          </Trackpoint>
          <Trackpoint>
            <Time>2019-08-01T17:13:42.000Z</Time>
            <Position>
              <LatitudeDegrees>40.51300873048603534698486328125</LatitudeDegrees>
              <LongitudeDegrees>-4.055074565112590789794921875</LongitudeDegrees>
            </Position>
            <AltitudeMeters>869.20001220703125</AltitudeMeters>
            <DistanceMeters>NAN</DistanceMeters>
          </Trackpoint>
          <Trackpoint>
            <Time>2019-08-01T17:13:43.000Z</Time>
            <Position>
              <LatitudeDegrees>40.51295290701091289520263671875</LatitudeDegrees>
              <LongitudeDegrees>-4.0550663508474826812744140625</LongitudeDegrees>
            </Position>
            <AltitudeMeters>869.20001220703125</AltitudeMeters>
            <DistanceMeters>NAN</DistanceMeters>
          </Trackpoint>
          <Trackpoint>
            <Time>2019-08-01T17:13:44.000Z</Time>
            <Position>
              <LatitudeDegrees>40.51289456896483898162841796875</LatitudeDegrees>
              <LongitudeDegrees>-4.0550588071346282958984375</LongitudeDegrees>
            </Position>
            <AltitudeMeters>869.20001220703125</AltitudeMeters>
            <DistanceMeters>NAN</DistanceMeters>
          </Trackpoint>
          <Trackpoint>
            <Time>2019-08-01T17:13:45.000Z</Time>
            <Position>
              <LatitudeDegrees>40.51283405162394046783447265625</LatitudeDegrees>
              <LongitudeDegrees>-4.05505050905048847198486328125</LongitudeDegrees>
            </Position>
            <AltitudeMeters>869.4000244140625</AltitudeMeters>
            <DistanceMeters>NAN</DistanceMeters>
          </Trackpoint>
          <Trackpoint>
            <Time>2019-08-01T17:13:46.000Z</Time>
            <Position>
              <LatitudeDegrees>40.51277169026434421539306640625</LatitudeDegrees>
              <LongitudeDegrees>-4.05504162423312664031982421875</LongitudeDegrees>
            </Position>
            <AltitudeMeters>869.4000244140625</AltitudeMeters>
            <DistanceMeters>NAN</DistanceMeters>
          </Trackpoint>
          <Trackpoint>
            <Time>2019-08-01T17:13:47.000Z</Time>
            <Position>
              <LatitudeDegrees>40.5127077363431453704833984375</LatitudeDegrees>
              <LongitudeDegrees>-4.05503240413963794708251953125</LongitudeDegrees>
            </Position>
            <AltitudeMeters>869.5999755859375</AltitudeMeters>
            <DistanceMeters>NAN</DistanceMeters>
          </Trackpoint>
          <Trackpoint>
            <Time>2019-08-01T17:13:48.000Z</Time>
            <Position>
              <LatitudeDegrees>40.51264227367937564849853515625</LatitudeDegrees>
              <LongitudeDegrees>-4.0550239384174346923828125</LongitudeDegrees>
            </Position>
            <AltitudeMeters>869.5999755859375</AltitudeMeters>
            <DistanceMeters>NAN</DistanceMeters>
          </Trackpoint>
          <Trackpoint>
            <Time>2019-08-01T17:13:49.000Z</Time>
            <Position>
              <LatitudeDegrees>40.512576140463352203369140625</LatitudeDegrees>
              <LongitudeDegrees>-4.05501547269523143768310546875</LongitudeDegrees>
            </Position>
            <AltitudeMeters>869.5999755859375</AltitudeMeters>
            <DistanceMeters>NAN</DistanceMeters>
          </Trackpoint>
          <Trackpoint>
            <Time>2019-08-01T17:13:50.000Z</Time>
            <Position>
              <LatitudeDegrees>40.5125074088573455810546875</LatitudeDegrees>
              <LongitudeDegrees>-4.05500608496367931365966796875</LongitudeDegrees>
            </Position>
            <AltitudeMeters>869.20001220703125</AltitudeMeters>
            <DistanceMeters>NAN</DistanceMeters>
          </Trackpoint>
          <Trackpoint>
            <Time>2019-08-01T17:13:51.000Z</Time>
            <Position>
              <LatitudeDegrees>40.51244010217487812042236328125</LatitudeDegrees>
              <LongitudeDegrees>-4.05499636195600032806396484375</LongitudeDegrees>
            </Position>
            <AltitudeMeters>869.20001220703125</AltitudeMeters>
            <DistanceMeters>NAN</DistanceMeters>
          </Trackpoint>
          <Trackpoint>
            <Time>2019-08-01T17:13:52.000Z</Time>
            <Position>
              <LatitudeDegrees>40.51237086765468120574951171875</LatitudeDegrees>
              <LongitudeDegrees>-4.05498563311994075775146484375</LongitudeDegrees>
            </Position>
            <AltitudeMeters>869.20001220703125</AltitudeMeters>
            <DistanceMeters>NAN</DistanceMeters>
          </Trackpoint>
          <Trackpoint>
            <Time>2019-08-01T17:13:53.000Z</Time>
            <Position>
              <LatitudeDegrees>40.51230129785835742950439453125</LatitudeDegrees>
              <LongitudeDegrees>-4.05497557483613491058349609375</LongitudeDegrees>
            </Position>
            <AltitudeMeters>869.20001220703125</AltitudeMeters>
            <DistanceMeters>NAN</DistanceMeters>
          </Trackpoint>
          <Trackpoint>
            <Time>2019-08-01T17:13:54.000Z</Time>
            <Position>
              <LatitudeDegrees>40.5122309736907482147216796875</LatitudeDegrees>
              <LongitudeDegrees>-4.05496585182845592498779296875</LongitudeDegrees>
            </Position>
            <AltitudeMeters>869</AltitudeMeters>
            <DistanceMeters>NAN</DistanceMeters>
          </Trackpoint>
          <Trackpoint>
            <Time>2019-08-01T17:13:55.000Z</Time>
            <Position>
              <LatitudeDegrees>40.51216014660894870758056640625</LatitudeDegrees>
              <LongitudeDegrees>-4.05495679937303066253662109375</LongitudeDegrees>
            </Position>
            <AltitudeMeters>868.79998779296875</AltitudeMeters>
            <DistanceMeters>NAN</DistanceMeters>
          </Trackpoint>
          <Trackpoint>
            <Time>2019-08-01T17:13:56.000Z</Time>
            <Position>
              <LatitudeDegrees>40.51208957098424434661865234375</LatitudeDegrees>
              <LongitudeDegrees>-4.05495193786919116973876953125</LongitudeDegrees>
            </Position>
            <AltitudeMeters>868.5999755859375</AltitudeMeters>
            <DistanceMeters>NAN</DistanceMeters>
          </Trackpoint>
          <Trackpoint>
            <Time>2019-08-01T17:13:57.000Z</Time>
            <Position>
              <LatitudeDegrees>40.512017570436000823974609375</LatitudeDegrees>
              <LongitudeDegrees>-4.0549496747553348541259765625</LongitudeDegrees>
            </Position>
            <AltitudeMeters>868.4000244140625</AltitudeMeters>
            <DistanceMeters>NAN</DistanceMeters>
          </Trackpoint>
          <Trackpoint>
            <Time>2019-08-01T17:13:58.000Z</Time>
            <Position>
              <LatitudeDegrees>40.51194389350712299346923828125</LatitudeDegrees>
              <LongitudeDegrees>-4.05494975857436656951904296875</LongitudeDegrees>
            </Position>
            <AltitudeMeters>868.20001220703125</AltitudeMeters>
            <DistanceMeters>NAN</DistanceMeters>
          </Trackpoint>
          <Trackpoint>
            <Time>2019-08-01T17:13:59.000Z</Time>
            <Position>
              <LatitudeDegrees>40.51186862401664257049560546875</LatitudeDegrees>
              <LongitudeDegrees>-4.0549526922404766082763671875</LongitudeDegrees>
            </Position>
            <AltitudeMeters>868</AltitudeMeters>
            <DistanceMeters>NAN</DistanceMeters>
          </Trackpoint>
          <Trackpoint>
            <Time>2019-08-01T17:14:00.000Z</Time>
            <Position>
              <LatitudeDegrees>40.511792600154876708984375</LatitudeDegrees>
              <LongitudeDegrees>-4.0549593977630138397216796875</LongitudeDegrees>
            </Position>
            <AltitudeMeters>867.79998779296875</AltitudeMeters>
            <DistanceMeters>NAN</DistanceMeters>
          </Trackpoint>
          <Trackpoint>
            <Time>2019-08-01T17:14:01.000Z</Time>
            <Position>
              <LatitudeDegrees>40.511717163026332855224609375</LatitudeDegrees>
              <LongitudeDegrees>-4.05497071333229541778564453125</LongitudeDegrees>
            </Position>
            <AltitudeMeters>867.4000244140625</AltitudeMeters>
            <DistanceMeters>NAN</DistanceMeters>
          </Trackpoint>
          <Trackpoint>
            <Time>2019-08-01T17:14:02.000Z</Time>
            <Position>
              <LatitudeDegrees>40.5116425640881061553955078125</LatitudeDegrees>
              <LongitudeDegrees>-4.054985381662845611572265625</LongitudeDegrees>
            </Position>
            <AltitudeMeters>867.20001220703125</AltitudeMeters>
            <DistanceMeters>NAN</DistanceMeters>
          </Trackpoint>
          <Trackpoint>
            <Time>2019-08-01T17:14:04.000Z</Time>
            <Position>
              <LatitudeDegrees>40.51149864681065082550048828125</LatitudeDegrees>
              <LongitudeDegrees>-4.055018238723278045654296875</LongitudeDegrees>
            </Position>
            <AltitudeMeters>866.5999755859375</AltitudeMeters>
            <DistanceMeters>NAN</DistanceMeters>
          </Trackpoint>
          <Trackpoint>
            <Time>2019-08-01T17:14:05.000Z</Time>
            <Position>
              <LatitudeDegrees>40.5114279873669147491455078125</LatitudeDegrees>
              <LongitudeDegrees>-4.05503558926284313201904296875</LongitudeDegrees>
            </Position>
            <AltitudeMeters>865.79998779296875</AltitudeMeters>
            <DistanceMeters>NAN</DistanceMeters>
          </Trackpoint>
          <Trackpoint>
            <Time>2019-08-01T17:14:07.000Z</Time>
            <Position>
              <LatitudeDegrees>40.51128792576491832733154296875</LatitudeDegrees>
              <LongitudeDegrees>-4.055069200694561004638671875</LongitudeDegrees>
            </Position>
            <AltitudeMeters>865.4000244140625</AltitudeMeters>
            <DistanceMeters>NAN</DistanceMeters>
          </Trackpoint>
          <Trackpoint>
            <Time>2019-08-01T17:14:08.000Z</Time>
            <Position>
              <LatitudeDegrees>40.5112199485301971435546875</LatitudeDegrees>
              <LongitudeDegrees>-4.05508487485349178314208984375</LongitudeDegrees>
            </Position>
            <AltitudeMeters>865.20001220703125</AltitudeMeters>
            <DistanceMeters>NAN</DistanceMeters>
          </Trackpoint>
          <Trackpoint>
            <Time>2019-08-01T17:14:09.000Z</Time>
            <Position>
              <LatitudeDegrees>40.51115146838128566741943359375</LatitudeDegrees>
              <LongitudeDegrees>-4.05510096810758113861083984375</LongitudeDegrees>
            </Position>
            <AltitudeMeters>865.20001220703125</AltitudeMeters>
            <DistanceMeters>NAN</DistanceMeters>
          </Trackpoint>
          <Trackpoint>
            <Time>2019-08-01T17:14:10.000Z</Time>
            <Position>
              <LatitudeDegrees>40.5110836587846279144287109375</LatitudeDegrees>
              <LongitudeDegrees>-4.05511689372360706329345703125</LongitudeDegrees>
            </Position>
            <AltitudeMeters>865</AltitudeMeters>
            <DistanceMeters>NAN</DistanceMeters>
          </Trackpoint>
          <Trackpoint>
            <Time>2019-08-01T17:14:11.000Z</Time>
            <Position>
              <LatitudeDegrees>40.51101501099765300750732421875</LatitudeDegrees>
              <LongitudeDegrees>-4.0551327355206012725830078125</LongitudeDegrees>
            </Position>
            <AltitudeMeters>864.79998779296875</AltitudeMeters>
            <DistanceMeters>NAN</DistanceMeters>
          </Trackpoint>
          <Trackpoint>
            <Time>2019-08-01T17:14:12.000Z</Time>
            <Position>
              <LatitudeDegrees>40.5109465308487415313720703125</LatitudeDegrees>
              <LongitudeDegrees>-4.05514824204146862030029296875</LongitudeDegrees>
            </Position>
            <AltitudeMeters>864.20001220703125</AltitudeMeters>
            <DistanceMeters>NAN</DistanceMeters>
          </Trackpoint>
          <Trackpoint>
            <Time>2019-08-01T17:14:13.000Z</Time>
            <Position>
              <LatitudeDegrees>40.51087821833789348602294921875</LatitudeDegrees>
              <LongitudeDegrees>-4.0551634132862091064453125</LongitudeDegrees>
            </Position>
            <AltitudeMeters>863.79998779296875</AltitudeMeters>
            <DistanceMeters>NAN</DistanceMeters>
          </Trackpoint>
          <Trackpoint>
            <Time>2019-08-01T17:14:14.000Z</Time>
            <Position>
              <LatitudeDegrees>40.51081032492220401763916015625</LatitudeDegrees>
              <LongitudeDegrees>-4.0551786683499813079833984375</LongitudeDegrees>
            </Position>
            <AltitudeMeters>863.4000244140625</AltitudeMeters>
            <DistanceMeters>NAN</DistanceMeters>
          </Trackpoint>
          <Trackpoint>
            <Time>2019-08-01T17:14:15.000Z</Time>
            <Position>
              <LatitudeDegrees>40.5107425153255462646484375</LatitudeDegrees>
              <LongitudeDegrees>-4.0551947616040706634521484375</LongitudeDegrees>
            </Position>
            <AltitudeMeters>863.20001220703125</AltitudeMeters>
            <DistanceMeters>NAN</DistanceMeters>
          </Trackpoint>
          <Trackpoint>
            <Time>2019-08-01T17:14:16.000Z</Time>
            <Position>
              <LatitudeDegrees>40.51067613065242767333984375</LatitudeDegrees>
              <LongitudeDegrees>-4.05521160922944545745849609375</LongitudeDegrees>
            </Position>
            <AltitudeMeters>863.20001220703125</AltitudeMeters>
            <DistanceMeters>NAN</DistanceMeters>
          </Trackpoint>
          <Trackpoint>
            <Time>2019-08-01T17:14:17.000Z</Time>
            <Position>
              <LatitudeDegrees>40.5106102488934993743896484375</LatitudeDegrees>
              <LongitudeDegrees>-4.05522711575031280517578125</LongitudeDegrees>
            </Position>
            <AltitudeMeters>863</AltitudeMeters>
            <DistanceMeters>NAN</DistanceMeters>
          </Trackpoint>
          <Trackpoint>
            <Time>2019-08-01T17:14:18.000Z</Time>
            <Position>
              <LatitudeDegrees>40.51054470241069793701171875</LatitudeDegrees>
              <LongitudeDegrees>-4.05524186789989471435546875</LongitudeDegrees>
            </Position>
            <AltitudeMeters>862.79998779296875</AltitudeMeters>
            <DistanceMeters>NAN</DistanceMeters>
          </Trackpoint>
          <Trackpoint>
            <Time>2019-08-01T17:14:19.000Z</Time>
            <Position>
              <LatitudeDegrees>40.5104791559278964996337890625</LatitudeDegrees>
              <LongitudeDegrees>-4.05525737442076206207275390625</LongitudeDegrees>
            </Position>
            <AltitudeMeters>862.5999755859375</AltitudeMeters>
            <DistanceMeters>NAN</DistanceMeters>
          </Trackpoint>
          <Trackpoint>
            <Time>2019-08-01T17:14:20.000Z</Time>
            <Position>
              <LatitudeDegrees>40.51041335798799991607666015625</LatitudeDegrees>
              <LongitudeDegrees>-4.0552725456655025482177734375</LongitudeDegrees>
            </Position>
            <AltitudeMeters>862.5999755859375</AltitudeMeters>
            <DistanceMeters>NAN</DistanceMeters>
          </Trackpoint>
          <Trackpoint>
            <Time>2019-08-01T17:14:22.000Z</Time>
            <Position>
              <LatitudeDegrees>40.5102873779833316802978515625</LatitudeDegrees>
              <LongitudeDegrees>-4.05530548654496669769287109375</LongitudeDegrees>
            </Position>
            <AltitudeMeters>862</AltitudeMeters>
            <DistanceMeters>NAN</DistanceMeters>
          </Trackpoint>
          <Trackpoint>
            <Time>2019-08-01T17:14:23.000Z</Time>
            <Position>
              <LatitudeDegrees>40.510225184261798858642578125</LatitudeDegrees>
              <LongitudeDegrees>-4.0553218312561511993408203125</LongitudeDegrees>
            </Position>
            <AltitudeMeters>861.79998779296875</AltitudeMeters>
            <DistanceMeters>NAN</DistanceMeters>
          </Trackpoint>
          <Trackpoint>
            <Time>2019-08-01T17:14:24.000Z</Time>
            <Position>
              <LatitudeDegrees>40.51016273908317089080810546875</LatitudeDegrees>
              <LongitudeDegrees>-4.0553372539579868316650390625</LongitudeDegrees>
            </Position>
            <AltitudeMeters>861.79998779296875</AltitudeMeters>
            <DistanceMeters>NAN</DistanceMeters>
          </Trackpoint>
          <Trackpoint>
            <Time>2019-08-01T17:14:25.000Z</Time>
            <Position>
              <LatitudeDegrees>40.51009886898100376129150390625</LatitudeDegrees>
              <LongitudeDegrees>-4.055352844297885894775390625</LongitudeDegrees>
            </Position>
            <AltitudeMeters>861.79998779296875</AltitudeMeters>
            <DistanceMeters>NAN</DistanceMeters>
          </Trackpoint>
          <Trackpoint>
            <Time>2019-08-01T17:14:26.000Z</Time>
            <Position>
              <LatitudeDegrees>40.51003466360270977020263671875</LatitudeDegrees>
              <LongitudeDegrees>-4.05536835081875324249267578125</LongitudeDegrees>
            </Position>
            <AltitudeMeters>861.79998779296875</AltitudeMeters>
            <DistanceMeters>NAN</DistanceMeters>
          </Trackpoint>
          <Trackpoint>
            <Time>2019-08-01T17:14:27.000Z</Time>
            <Position>
              <LatitudeDegrees>40.5099718831479549407958984375</LatitudeDegrees>
              <LongitudeDegrees>-4.0553838573396205902099609375</LongitudeDegrees>
            </Position>
            <AltitudeMeters>861.79998779296875</AltitudeMeters>
            <DistanceMeters>NAN</DistanceMeters>
          </Trackpoint>
          <Trackpoint>
            <Time>2019-08-01T17:14:28.000Z</Time>
            <Position>
              <LatitudeDegrees>40.50991044379770755767822265625</LatitudeDegrees>
              <LongitudeDegrees>-4.05539936386048793792724609375</LongitudeDegrees>
            </Position>
            <AltitudeMeters>861.79998779296875</AltitudeMeters>
            <DistanceMeters>NAN</DistanceMeters>
          </Trackpoint>
          <Trackpoint>
            <Time>2019-08-01T17:14:29.000Z</Time>
            <Position>
              <LatitudeDegrees>40.50984959118068218231201171875</LatitudeDegrees>
              <LongitudeDegrees>-4.0554133616387844085693359375</LongitudeDegrees>
            </Position>
            <AltitudeMeters>861.79998779296875</AltitudeMeters>
            <DistanceMeters>NAN</DistanceMeters>
          </Trackpoint>
          <Trackpoint>
            <Time>2019-08-01T17:14:30.000Z</Time>
            <Position>
              <LatitudeDegrees>40.50979041494429111480712890625</LatitudeDegrees>
              <LongitudeDegrees>-4.055429287254810333251953125</LongitudeDegrees>
            </Position>
            <AltitudeMeters>861.79998779296875</AltitudeMeters>
            <DistanceMeters>NAN</DistanceMeters>
          </Trackpoint>
          <Trackpoint>
            <Time>2019-08-01T17:14:31.000Z</Time>
            <Position>
              <LatitudeDegrees>40.50973065197467803955078125</LatitudeDegrees>
              <LongitudeDegrees>-4.05544647015631198883056640625</LongitudeDegrees>
            </Position>
            <AltitudeMeters>861.79998779296875</AltitudeMeters>
            <DistanceMeters>NAN</DistanceMeters>
          </Trackpoint>
          <Trackpoint>
            <Time>2019-08-01T17:14:32.000Z</Time>
            <Position>
              <LatitudeDegrees>40.5096669495105743408203125</LatitudeDegrees>
              <LongitudeDegrees>-4.05546256341040134429931640625</LongitudeDegrees>
            </Position>
            <AltitudeMeters>861.79998779296875</AltitudeMeters>
            <DistanceMeters>NAN</DistanceMeters>
          </Trackpoint>
          <Trackpoint>
            <Time>2019-08-01T17:14:33.000Z</Time>
            <Position>
              <LatitudeDegrees>40.50960551016032695770263671875</LatitudeDegrees>
              <LongitudeDegrees>-4.055478908121585845947265625</LongitudeDegrees>
            </Position>
            <AltitudeMeters>861.79998779296875</AltitudeMeters>
            <DistanceMeters>NAN</DistanceMeters>
          </Trackpoint>
          <Trackpoint>
            <Time>2019-08-01T17:14:34.000Z</Time>
            <Position>
              <LatitudeDegrees>40.509543903172016143798828125</LatitudeDegrees>
              <LongitudeDegrees>-4.055497013032436370849609375</LongitudeDegrees>
            </Position>
            <AltitudeMeters>861.79998779296875</AltitudeMeters>
            <DistanceMeters>NAN</DistanceMeters>
          </Trackpoint>
          <Trackpoint>
            <Time>2019-08-01T17:14:35.000Z</Time>
            <Position>
              <LatitudeDegrees>40.5094823800027370452880859375</LatitudeDegrees>
              <LongitudeDegrees>-4.0555162914097309112548828125</LongitudeDegrees>
            </Position>
            <AltitudeMeters>861.79998779296875</AltitudeMeters>
            <DistanceMeters>NAN</DistanceMeters>
          </Trackpoint>
          <Trackpoint>
            <Time>2019-08-01T17:14:36.000Z</Time>
            <Position>
              <LatitudeDegrees>40.50942077301442623138427734375</LatitudeDegrees>
              <LongitudeDegrees>-4.0555350668728351593017578125</LongitudeDegrees>
            </Position>
            <AltitudeMeters>861.79998779296875</AltitudeMeters>
            <DistanceMeters>NAN</DistanceMeters>
          </Trackpoint>
          <Trackpoint>
            <Time>2019-08-01T17:14:37.000Z</Time>
            <Position>
              <LatitudeDegrees>40.50935908220708370208740234375</LatitudeDegrees>
              <LongitudeDegrees>-4.05555568635463714599609375</LongitudeDegrees>
            </Position>
            <AltitudeMeters>861.79998779296875</AltitudeMeters>
            <DistanceMeters>NAN</DistanceMeters>
          </Trackpoint>
          <Trackpoint>
            <Time>2019-08-01T17:14:38.000Z</Time>
            <Position>
              <LatitudeDegrees>40.50929772667586803436279296875</LatitudeDegrees>
              <LongitudeDegrees>-4.05557856895029544830322265625</LongitudeDegrees>
            </Position>
            <AltitudeMeters>861.79998779296875</AltitudeMeters>
            <DistanceMeters>NAN</DistanceMeters>
          </Trackpoint>
          <Trackpoint>
            <Time>2019-08-01T17:14:39.000Z</Time>
            <Position>
              <LatitudeDegrees>40.5092359520494937896728515625</LatitudeDegrees>
              <LongitudeDegrees>-4.05560136772692203521728515625</LongitudeDegrees>
            </Position>
            <AltitudeMeters>861.79998779296875</AltitudeMeters>
            <DistanceMeters>NAN</DistanceMeters>
          </Trackpoint>
          <Trackpoint>
            <Time>2019-08-01T17:14:40.000Z</Time>
            <Position>
              <LatitudeDegrees>40.5091739259660243988037109375</LatitudeDegrees>
              <LongitudeDegrees>-4.0556249208748340606689453125</LongitudeDegrees>
            </Position>
            <AltitudeMeters>861.79998779296875</AltitudeMeters>
            <DistanceMeters>NAN</DistanceMeters>
          </Trackpoint>
          <Trackpoint>
            <Time>2019-08-01T17:14:41.000Z</Time>
            <Position>
              <LatitudeDegrees>40.50911081023514270782470703125</LatitudeDegrees>
              <LongitudeDegrees>-4.055649228394031524658203125</LongitudeDegrees>
            </Position>
            <AltitudeMeters>861.5999755859375</AltitudeMeters>
            <DistanceMeters>NAN</DistanceMeters>
          </Trackpoint>
          <Trackpoint>
            <Time>2019-08-01T17:14:42.000Z</Time>
            <Position>
              <LatitudeDegrees>40.5090481974184513092041015625</LatitudeDegrees>
              <LongitudeDegrees>-4.0556762181222438812255859375</LongitudeDegrees>
            </Position>
            <AltitudeMeters>861.5999755859375</AltitudeMeters>
            <DistanceMeters>NAN</DistanceMeters>
          </Trackpoint>
          <Trackpoint>
            <Time>2019-08-01T17:14:43.000Z</Time>
            <Position>
              <LatitudeDegrees>40.508987009525299072265625</LatitudeDegrees>
              <LongitudeDegrees>-4.055704213678836822509765625</LongitudeDegrees>
            </Position>
            <AltitudeMeters>861.4000244140625</AltitudeMeters>
            <DistanceMeters>NAN</DistanceMeters>
          </Trackpoint>
          <Trackpoint>
            <Time>2019-08-01T17:14:44.000Z</Time>
            <Position>
              <LatitudeDegrees>40.50892758183181285858154296875</LatitudeDegrees>
              <LongitudeDegrees>-4.05573447234928607940673828125</LongitudeDegrees>
            </Position>
            <AltitudeMeters>861</AltitudeMeters>
            <DistanceMeters>NAN</DistanceMeters>
          </Trackpoint>
          <Trackpoint>
            <Time>2019-08-01T17:14:45.000Z</Time>
            <Position>
              <LatitudeDegrees>40.5088674835860729217529296875</LatitudeDegrees>
              <LongitudeDegrees>-4.0557680837810039520263671875</LongitudeDegrees>
            </Position>
            <AltitudeMeters>860.5999755859375</AltitudeMeters>
            <DistanceMeters>NAN</DistanceMeters>
          </Trackpoint>
          <Trackpoint>
            <Time>2019-08-01T17:14:46.000Z</Time>
            <Position>
              <LatitudeDegrees>40.5088084749877452850341796875</LatitudeDegrees>
              <LongitudeDegrees>-4.05580488033592700958251953125</LongitudeDegrees>
            </Position>
            <AltitudeMeters>860.4000244140625</AltitudeMeters>
            <DistanceMeters>NAN</DistanceMeters>
          </Trackpoint>
          <Trackpoint>
            <Time>2019-08-01T17:14:47.000Z</Time>
            <Position>
              <LatitudeDegrees>40.50875030457973480224609375</LatitudeDegrees>
              <LongitudeDegrees>-4.055841676890850067138671875</LongitudeDegrees>
            </Position>
            <AltitudeMeters>860.20001220703125</AltitudeMeters>
            <DistanceMeters>NAN</DistanceMeters>
          </Trackpoint>
          <Trackpoint>
            <Time>2019-08-01T17:14:48.000Z</Time>
            <Position>
              <LatitudeDegrees>40.50869607366621494293212890625</LatitudeDegrees>
              <LongitudeDegrees>-4.05587914399802684783935546875</LongitudeDegrees>
            </Position>
            <AltitudeMeters>860.20001220703125</AltitudeMeters>
            <DistanceMeters>NAN</DistanceMeters>
          </Trackpoint>
          <Trackpoint>
            <Time>2019-08-01T17:14:49.000Z</Time>
            <Position>
              <LatitudeDegrees>40.50864611752331256866455078125</LatitudeDegrees>
              <LongitudeDegrees>-4.05591652728617191314697265625</LongitudeDegrees>
            </Position>
            <AltitudeMeters>860</AltitudeMeters>
            <DistanceMeters>NAN</DistanceMeters>
          </Trackpoint>
          <Trackpoint>
            <Time>2019-08-01T17:14:50.000Z</Time>
            <Position>
              <LatitudeDegrees>40.50860068760812282562255859375</LatitudeDegrees>
              <LongitudeDegrees>-4.05595558695495128631591796875</LongitudeDegrees>
            </Position>
            <AltitudeMeters>860</AltitudeMeters>
            <DistanceMeters>NAN</DistanceMeters>
          </Trackpoint>
          <Trackpoint>
            <Time>2019-08-01T17:14:51.000Z</Time>
            <Position>
              <LatitudeDegrees>40.508558191359043121337890625</LatitudeDegrees>
              <LongitudeDegrees>-4.0560027770698070526123046875</LongitudeDegrees>
            </Position>
            <AltitudeMeters>860</AltitudeMeters>
            <DistanceMeters>NAN</DistanceMeters>
          </Trackpoint>
          <Trackpoint>
            <Time>2019-08-01T17:14:52.000Z</Time>
            <Position>
              <LatitudeDegrees>40.50852240063250064849853515625</LatitudeDegrees>
              <LongitudeDegrees>-4.0560631267726421356201171875</LongitudeDegrees>
            </Position>
            <AltitudeMeters>859.79998779296875</AltitudeMeters>
            <DistanceMeters>NAN</DistanceMeters>
          </Trackpoint>
          <Trackpoint>
            <Time>2019-08-01T17:14:53.000Z</Time>
            <Position>
              <LatitudeDegrees>40.50849440507590770721435546875</LatitudeDegrees>
              <LongitudeDegrees>-4.0561316907405853271484375</LongitudeDegrees>
            </Position>
            <AltitudeMeters>859.79998779296875</AltitudeMeters>
            <DistanceMeters>NAN</DistanceMeters>
          </Trackpoint>
          <Trackpoint>
            <Time>2019-08-01T17:14:54.000Z</Time>
            <Position>
              <LatitudeDegrees>40.50846842117607593536376953125</LatitudeDegrees>
              <LongitudeDegrees>-4.05620000325143337249755859375</LongitudeDegrees>
            </Position>
            <AltitudeMeters>859.79998779296875</AltitudeMeters>
            <DistanceMeters>NAN</DistanceMeters>
          </Trackpoint>
          <Trackpoint>
            <Time>2019-08-01T17:14:55.000Z</Time>
            <Position>
              <LatitudeDegrees>40.50843941979110240936279296875</LatitudeDegrees>
              <LongitudeDegrees>-4.05626236461102962493896484375</LongitudeDegrees>
            </Position>
            <AltitudeMeters>859.79998779296875</AltitudeMeters>
            <DistanceMeters>NAN</DistanceMeters>
          </Trackpoint>
          <Trackpoint>
            <Time>2019-08-01T17:14:56.000Z</Time>
            <Position>
              <LatitudeDegrees>40.508406646549701690673828125</LatitudeDegrees>
              <LongitudeDegrees>-4.0563176013529300689697265625</LongitudeDegrees>
            </Position>
            <AltitudeMeters>859.79998779296875</AltitudeMeters>
            <DistanceMeters>NAN</DistanceMeters>
          </Trackpoint>
          <Trackpoint>
            <Time>2019-08-01T17:14:57.000Z</Time>
            <Position>
              <LatitudeDegrees>40.50836951471865177154541015625</LatitudeDegrees>
              <LongitudeDegrees>-4.05636780895292758941650390625</LongitudeDegrees>
            </Position>
            <AltitudeMeters>859.79998779296875</AltitudeMeters>
            <DistanceMeters>NAN</DistanceMeters>
          </Trackpoint>
          <Trackpoint>
            <Time>2019-08-01T17:14:58.000Z</Time>
            <Position>
              <LatitudeDegrees>40.50832643173635005950927734375</LatitudeDegrees>
              <LongitudeDegrees>-4.05641223303973674774169921875</LongitudeDegrees>
            </Position>
            <AltitudeMeters>859.79998779296875</AltitudeMeters>
            <DistanceMeters>NAN</DistanceMeters>
          </Trackpoint>
          <Trackpoint>
            <Time>2019-08-01T17:14:59.000Z</Time>
            <Position>
              <LatitudeDegrees>40.50827932544052600860595703125</LatitudeDegrees>
              <LongitudeDegrees>-4.0564500354230403900146484375</LongitudeDegrees>
            </Position>
            <AltitudeMeters>859.79998779296875</AltitudeMeters>
            <DistanceMeters>NAN</DistanceMeters>
          </Trackpoint>
          <Trackpoint>
            <Time>2019-08-01T17:15:00.000Z</Time>
            <Position>
              <LatitudeDegrees>40.50822593271732330322265625</LatitudeDegrees>
              <LongitudeDegrees>-4.056480713188648223876953125</LongitudeDegrees>
            </Position>
            <AltitudeMeters>859.79998779296875</AltitudeMeters>
            <DistanceMeters>NAN</DistanceMeters>
          </Trackpoint>
          <Trackpoint>
            <Time>2019-08-01T17:15:01.000Z</Time>
            <Position>
              <LatitudeDegrees>40.5081667564809322357177734375</LatitudeDegrees>
              <LongitudeDegrees>-4.05650250613689422607421875</LongitudeDegrees>
            </Position>
            <AltitudeMeters>859.79998779296875</AltitudeMeters>
            <DistanceMeters>NAN</DistanceMeters>
          </Trackpoint>
          <Trackpoint>
            <Time>2019-08-01T17:15:02.000Z</Time>
            <Position>
              <LatitudeDegrees>40.50810229964554309844970703125</LatitudeDegrees>
              <LongitudeDegrees>-4.0565127320587635040283203125</LongitudeDegrees>
            </Position>
            <AltitudeMeters>859.79998779296875</AltitudeMeters>
            <DistanceMeters>NAN</DistanceMeters>
          </Trackpoint>
          <Trackpoint>
            <Time>2019-08-01T17:15:03.000Z</Time>
            <Position>
              <LatitudeDegrees>40.50803440622985363006591796875</LatitudeDegrees>
              <LongitudeDegrees>-4.0565090440213680267333984375</LongitudeDegrees>
            </Position>
            <AltitudeMeters>859.79998779296875</AltitudeMeters>
            <DistanceMeters>NAN</DistanceMeters>
          </Trackpoint>
          <Trackpoint>
            <Time>2019-08-01T17:15:04.000Z</Time>
            <Position>
              <LatitudeDegrees>40.50796584226191043853759765625</LatitudeDegrees>
              <LongitudeDegrees>-4.05648632906377315521240234375</LongitudeDegrees>
            </Position>
            <AltitudeMeters>859.79998779296875</AltitudeMeters>
            <DistanceMeters>NAN</DistanceMeters>
          </Trackpoint>
          <Trackpoint>
            <Time>2019-08-01T17:15:05.000Z</Time>
            <Position>
              <LatitudeDegrees>40.5078998766839504241943359375</LatitudeDegrees>
              <LongitudeDegrees>-4.05644341371953487396240234375</LongitudeDegrees>
            </Position>
            <AltitudeMeters>859.79998779296875</AltitudeMeters>
            <DistanceMeters>NAN</DistanceMeters>
          </Trackpoint>
          <Trackpoint>
            <Time>2019-08-01T17:15:06.000Z</Time>
            <Position>
              <LatitudeDegrees>40.50783776678144931793212890625</LatitudeDegrees>
              <LongitudeDegrees>-4.05638172291219234466552734375</LongitudeDegrees>
            </Position>
            <AltitudeMeters>859.79998779296875</AltitudeMeters>
            <DistanceMeters>NAN</DistanceMeters>
          </Trackpoint>
          <Trackpoint>
            <Time>2019-08-01T17:15:07.000Z</Time>
            <Position>
              <LatitudeDegrees>40.50778227858245372772216796875</LatitudeDegrees>
              <LongitudeDegrees>-4.0563025139272212982177734375</LongitudeDegrees>
            </Position>
            <AltitudeMeters>859.79998779296875</AltitudeMeters>
            <DistanceMeters>NAN</DistanceMeters>
          </Trackpoint>
          <Trackpoint>
            <Time>2019-08-01T17:15:08.000Z</Time>
            <Position>
              <LatitudeDegrees>40.50773684866726398468017578125</LatitudeDegrees>
              <LongitudeDegrees>-4.0562076307833194732666015625</LongitudeDegrees>
            </Position>
            <AltitudeMeters>859.4000244140625</AltitudeMeters>
            <DistanceMeters>NAN</DistanceMeters>
          </Trackpoint>
          <Trackpoint>
            <Time>2019-08-01T17:15:09.000Z</Time>
            <Position>
              <LatitudeDegrees>40.507710278034210205078125</LatitudeDegrees>
              <LongitudeDegrees>-4.0560995042324066162109375</LongitudeDegrees>
            </Position>
            <AltitudeMeters>859.20001220703125</AltitudeMeters>
            <DistanceMeters>NAN</DistanceMeters>
          </Trackpoint>
          <Trackpoint>
            <Time>2019-08-01T17:15:10.000Z</Time>
            <Position>
              <LatitudeDegrees>40.50770550034940242767333984375</LatitudeDegrees>
              <LongitudeDegrees>-4.05598349869251251220703125</LongitudeDegrees>
            </Position>
            <AltitudeMeters>858.79998779296875</AltitudeMeters>
            <DistanceMeters>NAN</DistanceMeters>
          </Trackpoint>
          <Trackpoint>
            <Time>2019-08-01T17:15:11.000Z</Time>
            <Position>
              <LatitudeDegrees>40.5077168159186840057373046875</LatitudeDegrees>
              <LongitudeDegrees>-4.0558653138577938079833984375</LongitudeDegrees>
            </Position>
            <AltitudeMeters>858.5999755859375</AltitudeMeters>
            <DistanceMeters>NAN</DistanceMeters>
          </Trackpoint>
          <Trackpoint>
            <Time>2019-08-01T17:15:12.000Z</Time>
            <Position>
              <LatitudeDegrees>40.5077335797250270843505859375</LatitudeDegrees>
              <LongitudeDegrees>-4.05574704520404338836669921875</LongitudeDegrees>
            </Position>
            <AltitudeMeters>858.20001220703125</AltitudeMeters>
            <DistanceMeters>NAN</DistanceMeters>
          </Trackpoint>
          <Trackpoint>
            <Time>2019-08-01T17:15:13.000Z</Time>
            <Position>
              <LatitudeDegrees>40.5077438056468963623046875</LatitudeDegrees>
              <LongitudeDegrees>-4.05562852509319782257080078125</LongitudeDegrees>
            </Position>
            <AltitudeMeters>857.79998779296875</AltitudeMeters>
            <DistanceMeters>NAN</DistanceMeters>
          </Trackpoint>
          <Trackpoint>
            <Time>2019-08-01T17:15:14.000Z</Time>
            <Position>
              <LatitudeDegrees>40.50774070434272289276123046875</LatitudeDegrees>
              <LongitudeDegrees>-4.05550765804946422576904296875</LongitudeDegrees>
            </Position>
            <AltitudeMeters>857.5999755859375</AltitudeMeters>
            <DistanceMeters>NAN</DistanceMeters>
          </Trackpoint>
          <Trackpoint>
            <Time>2019-08-01T17:15:15.000Z</Time>
            <Position>
              <LatitudeDegrees>40.507720001041889190673828125</LatitudeDegrees>
              <LongitudeDegrees>-4.0553868748247623443603515625</LongitudeDegrees>
            </Position>
            <AltitudeMeters>857.5999755859375</AltitudeMeters>
            <DistanceMeters>NAN</DistanceMeters>
          </Trackpoint>
          <Trackpoint>
            <Time>2019-08-01T17:15:16.000Z</Time>
            <Position>
              <LatitudeDegrees>40.50768010318279266357421875</LatitudeDegrees>
              <LongitudeDegrees>-4.0552701987326145172119140625</LongitudeDegrees>
            </Position>
            <AltitudeMeters>857.20001220703125</AltitudeMeters>
            <DistanceMeters>NAN</DistanceMeters>
          </Trackpoint>
          <Trackpoint>
            <Time>2019-08-01T17:15:17.000Z</Time>
            <Position>
              <LatitudeDegrees>40.50762620754539966583251953125</LatitudeDegrees>
              <LongitudeDegrees>-4.05515947379171848297119140625</LongitudeDegrees>
            </Position>
            <AltitudeMeters>857.20001220703125</AltitudeMeters>
            <DistanceMeters>NAN</DistanceMeters>
          </Trackpoint>
          <Trackpoint>
            <Time>2019-08-01T17:15:18.000Z</Time>
            <Position>
              <LatitudeDegrees>40.50756535492837429046630859375</LatitudeDegrees>
              <LongitudeDegrees>-4.055054448544979095458984375</LongitudeDegrees>
            </Position>
            <AltitudeMeters>857</AltitudeMeters>
            <DistanceMeters>NAN</DistanceMeters>
          </Trackpoint>
          <Trackpoint>
            <Time>2019-08-01T17:15:19.000Z</Time>
            <Position>
              <LatitudeDegrees>40.50750064663589000701904296875</LatitudeDegrees>
              <LongitudeDegrees>-4.05495394952595233917236328125</LongitudeDegrees>
            </Position>
            <AltitudeMeters>856.79998779296875</AltitudeMeters>
            <DistanceMeters>NAN</DistanceMeters>
          </Trackpoint>
          <Trackpoint>
            <Time>2019-08-01T17:15:20.000Z</Time>
            <Position>
              <LatitudeDegrees>40.50743023864924907684326171875</LatitudeDegrees>
              <LongitudeDegrees>-4.054862000048160552978515625</LongitudeDegrees>
            </Position>
            <AltitudeMeters>856.5999755859375</AltitudeMeters>
            <DistanceMeters>NAN</DistanceMeters>
          </Trackpoint>
          <Trackpoint>
            <Time>2019-08-01T17:15:21.000Z</Time>
            <Position>
              <LatitudeDegrees>40.50735413096845149993896484375</LatitudeDegrees>
              <LongitudeDegrees>-4.05477927066385746002197265625</LongitudeDegrees>
            </Position>
            <AltitudeMeters>856.4000244140625</AltitudeMeters>
            <DistanceMeters>NAN</DistanceMeters>
          </Trackpoint>
          <Trackpoint>
            <Time>2019-08-01T17:15:22.000Z</Time>
            <Position>
              <LatitudeDegrees>40.5072735808789730072021484375</LatitudeDegrees>
              <LongitudeDegrees>-4.0547019056975841522216796875</LongitudeDegrees>
            </Position>
            <AltitudeMeters>856.4000244140625</AltitudeMeters>
            <DistanceMeters>NAN</DistanceMeters>
          </Trackpoint>
          <Trackpoint>
            <Time>2019-08-01T17:15:23.000Z</Time>
            <Position>
              <LatitudeDegrees>40.50719068385660648345947265625</LatitudeDegrees>
              <LongitudeDegrees>-4.0546268038451671600341796875</LongitudeDegrees>
            </Position>
            <AltitudeMeters>856</AltitudeMeters>
            <DistanceMeters>NAN</DistanceMeters>
          </Trackpoint>
          <Trackpoint>
            <Time>2019-08-01T17:15:24.000Z</Time>
            <Position>
              <LatitudeDegrees>40.507105775177478790283203125</LatitudeDegrees>
              <LongitudeDegrees>-4.054556228220462799072265625</LongitudeDegrees>
            </Position>
            <AltitudeMeters>855.20001220703125</AltitudeMeters>
            <DistanceMeters>NAN</DistanceMeters>
          </Trackpoint>
          <Trackpoint>
            <Time>2019-08-01T17:15:25.000Z</Time>
            <Position>
              <LatitudeDegrees>40.50701751373708248138427734375</LatitudeDegrees>
              <LongitudeDegrees>-4.054495878517627716064453125</LongitudeDegrees>
            </Position>
            <AltitudeMeters>854.4000244140625</AltitudeMeters>
            <DistanceMeters>NAN</DistanceMeters>
          </Trackpoint>
          <Trackpoint>
            <Time>2019-08-01T17:15:26.000Z</Time>
            <Position>
              <LatitudeDegrees>40.50692648626863956451416015625</LatitudeDegrees>
              <LongitudeDegrees>-4.054442904889583587646484375</LongitudeDegrees>
            </Position>
            <AltitudeMeters>853.4000244140625</AltitudeMeters>
            <DistanceMeters>NAN</DistanceMeters>
          </Trackpoint>
          <Trackpoint>
            <Time>2019-08-01T17:15:27.000Z</Time>
            <Position>
              <LatitudeDegrees>40.506834201514720916748046875</LatitudeDegrees>
              <LongitudeDegrees>-4.0543954633176326751708984375</LongitudeDegrees>
            </Position>
            <AltitudeMeters>852.4000244140625</AltitudeMeters>
            <DistanceMeters>NAN</DistanceMeters>
          </Trackpoint>
          <Trackpoint>
            <Time>2019-08-01T17:15:28.000Z</Time>
            <Position>
              <LatitudeDegrees>40.50674091093242168426513671875</LatitudeDegrees>
              <LongitudeDegrees>-4.05435313470661640167236328125</LongitudeDegrees>
            </Position>
            <AltitudeMeters>851</AltitudeMeters>
            <DistanceMeters>NAN</DistanceMeters>
          </Trackpoint>
          <Trackpoint>
            <Time>2019-08-01T17:15:29.000Z</Time>
            <Position>
              <LatitudeDegrees>40.50664686597883701324462890625</LatitudeDegrees>
              <LongitudeDegrees>-4.0543136559426784515380859375</LongitudeDegrees>
            </Position>
            <AltitudeMeters>850.79998779296875</AltitudeMeters>
            <DistanceMeters>NAN</DistanceMeters>
          </Trackpoint>
          <Trackpoint>
            <Time>2019-08-01T17:15:30.000Z</Time>
            <Position>
              <LatitudeDegrees>40.50655215047299861907958984375</LatitudeDegrees>
              <LongitudeDegrees>-4.054276607930660247802734375</LongitudeDegrees>
            </Position>
            <AltitudeMeters>850.20001220703125</AltitudeMeters>
            <DistanceMeters>NAN</DistanceMeters>
          </Trackpoint>
          <Trackpoint>
            <Time>2019-08-01T17:15:31.000Z</Time>
            <Position>
              <LatitudeDegrees>40.506456680595874786376953125</LatitudeDegrees>
              <LongitudeDegrees>-4.05424098484218120574951171875</LongitudeDegrees>
            </Position>
            <AltitudeMeters>849.4000244140625</AltitudeMeters>
            <DistanceMeters>NAN</DistanceMeters>
          </Trackpoint>
          <Trackpoint>
            <Time>2019-08-01T17:15:32.000Z</Time>
            <Position>
              <LatitudeDegrees>40.5063609592616558074951171875</LatitudeDegrees>
              <LongitudeDegrees>-4.054206199944019317626953125</LongitudeDegrees>
            </Position>
            <AltitudeMeters>849</AltitudeMeters>
            <DistanceMeters>NAN</DistanceMeters>
          </Trackpoint>
          <Trackpoint>
            <Time>2019-08-01T17:15:33.000Z</Time>
            <Position>
              <LatitudeDegrees>40.506264232099056243896484375</LatitudeDegrees>
              <LongitudeDegrees>-4.0541709959506988525390625</LongitudeDegrees>
            </Position>
            <AltitudeMeters>848.4000244140625</AltitudeMeters>
            <DistanceMeters>NAN</DistanceMeters>
          </Trackpoint>
          <Trackpoint>
            <Time>2019-08-01T17:15:34.000Z</Time>
            <Position>
              <LatitudeDegrees>40.5061675049364566802978515625</LatitudeDegrees>
              <LongitudeDegrees>-4.05413537286221981048583984375</LongitudeDegrees>
            </Position>
            <AltitudeMeters>848.20001220703125</AltitudeMeters>
            <DistanceMeters>NAN</DistanceMeters>
          </Trackpoint>
          <Trackpoint>
            <Time>2019-08-01T17:15:35.000Z</Time>
            <Position>
              <LatitudeDegrees>40.5060702748596668243408203125</LatitudeDegrees>
              <LongitudeDegrees>-4.05410067178308963775634765625</LongitudeDegrees>
            </Position>
            <AltitudeMeters>848</AltitudeMeters>
            <DistanceMeters>NAN</DistanceMeters>
          </Trackpoint>
          <Trackpoint>
            <Time>2019-08-01T17:15:36.000Z</Time>
            <Position>
              <LatitudeDegrees>40.505972541868686676025390625</LatitudeDegrees>
              <LongitudeDegrees>-4.0540675632655620574951171875</LongitudeDegrees>
            </Position>
            <AltitudeMeters>847.79998779296875</AltitudeMeters>
            <DistanceMeters>NAN</DistanceMeters>
          </Trackpoint>
          <Trackpoint>
            <Time>2019-08-01T17:15:37.000Z</Time>
            <Position>
              <LatitudeDegrees>40.5058741383254528045654296875</LatitudeDegrees>
              <LongitudeDegrees>-4.05403344891965389251708984375</LongitudeDegrees>
            </Position>
            <AltitudeMeters>847.4000244140625</AltitudeMeters>
            <DistanceMeters>NAN</DistanceMeters>
          </Trackpoint>
          <Trackpoint>
            <Time>2019-08-01T17:15:38.000Z</Time>
            <Position>
              <LatitudeDegrees>40.50577464513480663299560546875</LatitudeDegrees>
              <LongitudeDegrees>-4.0539981611073017120361328125</LongitudeDegrees>
            </Position>
            <AltitudeMeters>847.20001220703125</AltitudeMeters>
            <DistanceMeters>NAN</DistanceMeters>
          </Trackpoint>
          <Trackpoint>
            <Time>2019-08-01T17:15:39.000Z</Time>
            <Position>
              <LatitudeDegrees>40.50567389465868473052978515625</LatitudeDegrees>
              <LongitudeDegrees>-4.05396220274269580841064453125</LongitudeDegrees>
            </Position>
            <AltitudeMeters>846.79998779296875</AltitudeMeters>
            <DistanceMeters>NAN</DistanceMeters>
          </Trackpoint>
          <Trackpoint>
            <Time>2019-08-01T17:15:40.000Z</Time>
            <Position>
              <LatitudeDegrees>40.50567389465868473052978515625</LatitudeDegrees>
              <LongitudeDegrees>-4.05396220274269580841064453125</LongitudeDegrees>
            </Position>
            <AltitudeMeters>846</AltitudeMeters>
            <DistanceMeters>NAN</DistanceMeters>
          </Trackpoint>
          <Trackpoint>
            <Time>2019-08-01T17:15:41.000Z</Time>
            <Position>
              <LatitudeDegrees>40.5054708011448383331298828125</LatitudeDegrees>
              <LongitudeDegrees>-4.05388810671865940093994140625</LongitudeDegrees>
            </Position>
            <AltitudeMeters>845.20001220703125</AltitudeMeters>
            <DistanceMeters>NAN</DistanceMeters>
          </Trackpoint>
          <Trackpoint>
            <Time>2019-08-01T17:15:42.000Z</Time>
            <Position>
              <LatitudeDegrees>40.50536778755486011505126953125</LatitudeDegrees>
              <LongitudeDegrees>-4.0538509748876094818115234375</LongitudeDegrees>
            </Position>
            <AltitudeMeters>844.5999755859375</AltitudeMeters>
            <DistanceMeters>NAN</DistanceMeters>
          </Trackpoint>
          <Trackpoint>
            <Time>2019-08-01T17:15:43.000Z</Time>
            <Position>
              <LatitudeDegrees>40.50526435486972332000732421875</LatitudeDegrees>
              <LongitudeDegrees>-4.05381384305655956268310546875</LongitudeDegrees>
            </Position>
            <AltitudeMeters>844.4000244140625</AltitudeMeters>
            <DistanceMeters>NAN</DistanceMeters>
          </Trackpoint>
          <Trackpoint>
            <Time>2019-08-01T17:15:44.000Z</Time>
            <Position>
              <LatitudeDegrees>40.5051603354513645172119140625</LatitudeDegrees>
              <LongitudeDegrees>-4.05377645976841449737548828125</LongitudeDegrees>
            </Position>
            <AltitudeMeters>844</AltitudeMeters>
            <DistanceMeters>NAN</DistanceMeters>
          </Trackpoint>
          <Trackpoint>
            <Time>2019-08-01T17:15:45.000Z</Time>
            <Position>
              <LatitudeDegrees>40.5050547234714031219482421875</LatitudeDegrees>
              <LongitudeDegrees>-4.05373848974704742431640625</LongitudeDegrees>
            </Position>
            <AltitudeMeters>844</AltitudeMeters>
            <DistanceMeters>NAN</DistanceMeters>
          </Trackpoint>
          <Trackpoint>
            <Time>2019-08-01T17:15:46.000Z</Time>
            <Position>
              <LatitudeDegrees>40.504949279129505157470703125</LatitudeDegrees>
              <LongitudeDegrees>-4.05370135791599750518798828125</LongitudeDegrees>
            </Position>
            <AltitudeMeters>843.79998779296875</AltitudeMeters>
            <DistanceMeters>NAN</DistanceMeters>
          </Trackpoint>
          <Trackpoint>
            <Time>2019-08-01T17:15:47.000Z</Time>
            <Position>
              <LatitudeDegrees>40.50484358333051204681396484375</LatitudeDegrees>
              <LongitudeDegrees>-4.05366430990397930145263671875</LongitudeDegrees>
            </Position>
            <AltitudeMeters>843.5999755859375</AltitudeMeters>
            <DistanceMeters>NAN</DistanceMeters>
          </Trackpoint>
          <Trackpoint>
            <Time>2019-08-01T17:15:48.000Z</Time>
            <Position>
              <LatitudeDegrees>40.5047378875315189361572265625</LatitudeDegrees>
              <LongitudeDegrees>-4.0536270104348659515380859375</LongitudeDegrees>
            </Position>
            <AltitudeMeters>843.20001220703125</AltitudeMeters>
            <DistanceMeters>NAN</DistanceMeters>
          </Trackpoint>
          <Trackpoint>
            <Time>2019-08-01T17:15:49.000Z</Time>
            <Position>
              <LatitudeDegrees>40.50463202409446239471435546875</LatitudeDegrees>
              <LongitudeDegrees>-4.053588621318340301513671875</LongitudeDegrees>
            </Position>
            <AltitudeMeters>842.79998779296875</AltitudeMeters>
            <DistanceMeters>NAN</DistanceMeters>
          </Trackpoint>
          <Trackpoint>
            <Time>2019-08-01T17:15:50.000Z</Time>
            <Position>
              <LatitudeDegrees>40.5045251548290252685546875</LatitudeDegrees>
              <LongitudeDegrees>-4.05354998074471950531005859375</LongitudeDegrees>
            </Position>
            <AltitudeMeters>842.4000244140625</AltitudeMeters>
            <DistanceMeters>NAN</DistanceMeters>
          </Trackpoint>
          <Trackpoint>
            <Time>2019-08-01T17:15:51.000Z</Time>
            <Position>
              <LatitudeDegrees>40.5044173635542392730712890625</LatitudeDegrees>
              <LongitudeDegrees>-4.05351025052368640899658203125</LongitudeDegrees>
            </Position>
            <AltitudeMeters>842</AltitudeMeters>
            <DistanceMeters>NAN</DistanceMeters>
          </Trackpoint>
          <Trackpoint>
            <Time>2019-08-01T17:15:52.000Z</Time>
            <Position>
              <LatitudeDegrees>40.50430948846042156219482421875</LatitudeDegrees>
              <LongitudeDegrees>-4.05346968211233615875244140625</LongitudeDegrees>
            </Position>
            <AltitudeMeters>841.79998779296875</AltitudeMeters>
            <DistanceMeters>NAN</DistanceMeters>
          </Trackpoint>
          <Trackpoint>
            <Time>2019-08-01T17:15:53.000Z</Time>
            <Position>
              <LatitudeDegrees>40.50420127809047698974609375</LatitudeDegrees>
              <LongitudeDegrees>-4.05342961661517620086669921875</LongitudeDegrees>
            </Position>
            <AltitudeMeters>841.20001220703125</AltitudeMeters>
            <DistanceMeters>NAN</DistanceMeters>
          </Trackpoint>
          <Trackpoint>
            <Time>2019-08-01T17:15:54.000Z</Time>
            <Position>
              <LatitudeDegrees>40.50409323535859584808349609375</LatitudeDegrees>
              <LongitudeDegrees>-4.0533896349370479583740234375</LongitudeDegrees>
            </Position>
            <AltitudeMeters>840.20001220703125</AltitudeMeters>
            <DistanceMeters>NAN</DistanceMeters>
          </Trackpoint>
          <Trackpoint>
            <Time>2019-08-01T17:15:55.000Z</Time>
            <Position>
              <LatitudeDegrees>40.50398510880768299102783203125</LatitudeDegrees>
              <LongitudeDegrees>-4.0533483959734439849853515625</LongitudeDegrees>
            </Position>
            <AltitudeMeters>839.5999755859375</AltitudeMeters>
            <DistanceMeters>NAN</DistanceMeters>
          </Trackpoint>
          <Trackpoint>
            <Time>2019-08-01T17:15:56.000Z</Time>
            <Position>
              <LatitudeDegrees>40.50387673079967498779296875</LatitudeDegrees>
              <LongitudeDegrees>-4.0533064864575862884521484375</LongitudeDegrees>
            </Position>
            <AltitudeMeters>839.20001220703125</AltitudeMeters>
            <DistanceMeters>NAN</DistanceMeters>
          </Trackpoint>
          <Trackpoint>
            <Time>2019-08-01T17:15:57.000Z</Time>
            <Position>
              <LatitudeDegrees>40.503768436610698699951171875</LatitudeDegrees>
              <LongitudeDegrees>-4.0532635711133480072021484375</LongitudeDegrees>
            </Position>
            <AltitudeMeters>838.20001220703125</AltitudeMeters>
            <DistanceMeters>NAN</DistanceMeters>
          </Trackpoint>
          <Trackpoint>
            <Time>2019-08-01T17:15:58.000Z</Time>
            <Position>
              <LatitudeDegrees>40.503659807145595550537109375</LatitudeDegrees>
              <LongitudeDegrees>-4.0532189793884754180908203125</LongitudeDegrees>
            </Position>
            <AltitudeMeters>837.79998779296875</AltitudeMeters>
            <DistanceMeters>NAN</DistanceMeters>
          </Trackpoint>
          <Trackpoint>
            <Time>2019-08-01T17:15:59.000Z</Time>
            <Position>
              <LatitudeDegrees>40.503551848232746124267578125</LatitudeDegrees>
              <LongitudeDegrees>-4.05317128635942935943603515625</LongitudeDegrees>
            </Position>
            <AltitudeMeters>837.5999755859375</AltitudeMeters>
            <DistanceMeters>NAN</DistanceMeters>
          </Trackpoint>
          <Trackpoint>
            <Time>2019-08-01T17:16:00.000Z</Time>
            <Position>
              <LatitudeDegrees>40.50344531424343585968017578125</LatitudeDegrees>
              <LongitudeDegrees>-4.0531204082071781158447265625</LongitudeDegrees>
            </Position>
            <AltitudeMeters>837.20001220703125</AltitudeMeters>
            <DistanceMeters>NAN</DistanceMeters>
          </Trackpoint>
          <Trackpoint>
            <Time>2019-08-01T17:16:01.000Z</Time>
            <Position>
              <LatitudeDegrees>40.5033396184444427490234375</LatitudeDegrees>
              <LongitudeDegrees>-4.0530686080455780029296875</LongitudeDegrees>
            </Position>
            <AltitudeMeters>836.79998779296875</AltitudeMeters>
            <DistanceMeters>NAN</DistanceMeters>
          </Trackpoint>
          <Trackpoint>
            <Time>2019-08-01T17:16:02.000Z</Time>
            <Position>
              <LatitudeDegrees>40.5032336711883544921875</LatitudeDegrees>
              <LongitudeDegrees>-4.05301370657980442047119140625</LongitudeDegrees>
            </Position>
            <AltitudeMeters>836.5999755859375</AltitudeMeters>
            <DistanceMeters>NAN</DistanceMeters>
          </Trackpoint>
          <Trackpoint>
            <Time>2019-08-01T17:16:03.000Z</Time>
            <Position>
              <LatitudeDegrees>40.5031285621225833892822265625</LatitudeDegrees>
              <LongitudeDegrees>-4.052956290543079376220703125</LongitudeDegrees>
            </Position>
            <AltitudeMeters>836.4000244140625</AltitudeMeters>
            <DistanceMeters>NAN</DistanceMeters>
          </Trackpoint>
          <Trackpoint>
            <Time>2019-08-01T17:16:04.000Z</Time>
            <Position>
              <LatitudeDegrees>40.5030242912471294403076171875</LatitudeDegrees>
              <LongitudeDegrees>-4.05289937742054462432861328125</LongitudeDegrees>
            </Position>
            <AltitudeMeters>836.20001220703125</AltitudeMeters>
            <DistanceMeters>NAN</DistanceMeters>
          </Trackpoint>
          <Trackpoint>
            <Time>2019-08-01T17:16:05.000Z</Time>
            <Position>
              <LatitudeDegrees>40.502920858561992645263671875</LatitudeDegrees>
              <LongitudeDegrees>-4.05284103937447071075439453125</LongitudeDegrees>
            </Position>
            <AltitudeMeters>836</AltitudeMeters>
            <DistanceMeters>NAN</DistanceMeters>
          </Trackpoint>
          <Trackpoint>
            <Time>2019-08-01T17:16:06.000Z</Time>
            <Position>
              <LatitudeDegrees>40.50281918607652187347412109375</LatitudeDegrees>
              <LongitudeDegrees>-4.0527821145951747894287109375</LongitudeDegrees>
            </Position>
            <AltitudeMeters>835.5999755859375</AltitudeMeters>
            <DistanceMeters>NAN</DistanceMeters>
          </Trackpoint>
          <Trackpoint>
            <Time>2019-08-01T17:16:07.000Z</Time>
            <Position>
              <LatitudeDegrees>40.5027181841433048248291015625</LatitudeDegrees>
              <LongitudeDegrees>-4.0527221001684665679931640625</LongitudeDegrees>
            </Position>
            <AltitudeMeters>835</AltitudeMeters>
            <DistanceMeters>NAN</DistanceMeters>
          </Trackpoint>
          <Trackpoint>
            <Time>2019-08-01T17:16:08.000Z</Time>
            <Position>
              <LatitudeDegrees>40.50261768512427806854248046875</LatitudeDegrees>
              <LongitudeDegrees>-4.05266317538917064666748046875</LongitudeDegrees>
            </Position>
            <AltitudeMeters>834.5999755859375</AltitudeMeters>
            <DistanceMeters>NAN</DistanceMeters>
          </Trackpoint>
          <Trackpoint>
            <Time>2019-08-01T17:16:09.000Z</Time>
            <Position>
              <LatitudeDegrees>40.50251743756234645843505859375</LatitudeDegrees>
              <LongitudeDegrees>-4.05260433442890644073486328125</LongitudeDegrees>
            </Position>
            <AltitudeMeters>834.4000244140625</AltitudeMeters>
            <DistanceMeters>NAN</DistanceMeters>
          </Trackpoint>
          <Trackpoint>
            <Time>2019-08-01T17:16:10.000Z</Time>
            <Position>
              <LatitudeDegrees>40.50241685472428798675537109375</LatitudeDegrees>
              <LongitudeDegrees>-4.0525455772876739501953125</LongitudeDegrees>
            </Position>
            <AltitudeMeters>834.20001220703125</AltitudeMeters>
            <DistanceMeters>NAN</DistanceMeters>
          </Trackpoint>
          <Trackpoint>
            <Time>2019-08-01T17:16:11.000Z</Time>
            <Position>
              <LatitudeDegrees>40.50231610424816608428955078125</LatitudeDegrees>
              <LongitudeDegrees>-4.05248832888901233673095703125</LongitudeDegrees>
            </Position>
            <AltitudeMeters>833.79998779296875</AltitudeMeters>
            <DistanceMeters>NAN</DistanceMeters>
          </Trackpoint>
          <Trackpoint>
            <Time>2019-08-01T17:16:12.000Z</Time>
            <Position>
              <LatitudeDegrees>40.5022162757813930511474609375</LatitudeDegrees>
              <LongitudeDegrees>-4.0524307452142238616943359375</LongitudeDegrees>
            </Position>
            <AltitudeMeters>833.20001220703125</AltitudeMeters>
            <DistanceMeters>NAN</DistanceMeters>
          </Trackpoint>
          <Trackpoint>
            <Time>2019-08-01T17:16:13.000Z</Time>
            <Position>
              <LatitudeDegrees>40.50211695022881031036376953125</LatitudeDegrees>
              <LongitudeDegrees>-4.05237232334911823272705078125</LongitudeDegrees>
            </Position>
            <AltitudeMeters>833</AltitudeMeters>
            <DistanceMeters>NAN</DistanceMeters>
          </Trackpoint>
          <Trackpoint>
            <Time>2019-08-01T17:16:14.000Z</Time>
            <Position>
              <LatitudeDegrees>40.50211695022881031036376953125</LatitudeDegrees>
              <LongitudeDegrees>-4.05237232334911823272705078125</LongitudeDegrees>
            </Position>
            <AltitudeMeters>832.4000244140625</AltitudeMeters>
            <DistanceMeters>NAN</DistanceMeters>
          </Trackpoint>
          <Trackpoint>
            <Time>2019-08-01T17:16:15.000Z</Time>
            <Position>
              <LatitudeDegrees>40.501919053494930267333984375</LatitudeDegrees>
              <LongitudeDegrees>-4.05225522816181182861328125</LongitudeDegrees>
            </Position>
            <AltitudeMeters>832.20001220703125</AltitudeMeters>
            <DistanceMeters>NAN</DistanceMeters>
          </Trackpoint>
          <Trackpoint>
            <Time>2019-08-01T17:16:16.000Z</Time>
            <Position>
              <LatitudeDegrees>40.501820147037506103515625</LatitudeDegrees>
              <LongitudeDegrees>-4.05219730921089649200439453125</LongitudeDegrees>
            </Position>
            <AltitudeMeters>831.79998779296875</AltitudeMeters>
            <DistanceMeters>NAN</DistanceMeters>
          </Trackpoint>
          <Trackpoint>
            <Time>2019-08-01T17:16:17.000Z</Time>
            <Position>
              <LatitudeDegrees>40.5017204023897647857666015625</LatitudeDegrees>
              <LongitudeDegrees>-4.05214047990739345550537109375</LongitudeDegrees>
            </Position>
            <AltitudeMeters>831.79998779296875</AltitudeMeters>
            <DistanceMeters>NAN</DistanceMeters>
          </Trackpoint>
          <Trackpoint>
            <Time>2019-08-01T17:16:18.000Z</Time>
            <Position>
              <LatitudeDegrees>40.501620657742023468017578125</LatitudeDegrees>
              <LongitudeDegrees>-4.05208356678485870361328125</LongitudeDegrees>
            </Position>
            <AltitudeMeters>831.5999755859375</AltitudeMeters>
            <DistanceMeters>NAN</DistanceMeters>
          </Trackpoint>
          <Trackpoint>
            <Time>2019-08-01T17:16:19.000Z</Time>
            <Position>
              <LatitudeDegrees>40.50152082927525043487548828125</LatitudeDegrees>
              <LongitudeDegrees>-4.05202724039554595947265625</LongitudeDegrees>
            </Position>
            <AltitudeMeters>831.4000244140625</AltitudeMeters>
            <DistanceMeters>NAN</DistanceMeters>
          </Trackpoint>
          <Trackpoint>
            <Time>2019-08-01T17:16:20.000Z</Time>
            <Position>
              <LatitudeDegrees>40.50141991116106510162353515625</LatitudeDegrees>
              <LongitudeDegrees>-4.05197300948202610015869140625</LongitudeDegrees>
            </Position>
            <AltitudeMeters>831.4000244140625</AltitudeMeters>
            <DistanceMeters>NAN</DistanceMeters>
          </Trackpoint>
          <Trackpoint>
            <Time>2019-08-01T17:16:21.000Z</Time>
            <Position>
              <LatitudeDegrees>40.50131865777075290679931640625</LatitudeDegrees>
              <LongitudeDegrees>-4.0519228018820285797119140625</LongitudeDegrees>
            </Position>
            <AltitudeMeters>831.20001220703125</AltitudeMeters>
            <DistanceMeters>NAN</DistanceMeters>
          </Trackpoint>
          <Trackpoint>
            <Time>2019-08-01T17:16:22.000Z</Time>
            <Position>
              <LatitudeDegrees>40.50121606327593326568603515625</LatitudeDegrees>
              <LongitudeDegrees>-4.05187678523361682891845703125</LongitudeDegrees>
            </Position>
            <AltitudeMeters>831</AltitudeMeters>
            <DistanceMeters>NAN</DistanceMeters>
          </Trackpoint>
          <Trackpoint>
            <Time>2019-08-01T17:16:23.000Z</Time>
            <Position>
              <LatitudeDegrees>40.5011125467717647552490234375</LatitudeDegrees>
              <LongitudeDegrees>-4.05183412134647369384765625</LongitudeDegrees>
            </Position>
            <AltitudeMeters>831</AltitudeMeters>
            <DistanceMeters>NAN</DistanceMeters>
          </Trackpoint>
          <Trackpoint>
            <Time>2019-08-01T17:16:24.000Z</Time>
            <Position>
              <LatitudeDegrees>40.50100852735340595245361328125</LatitudeDegrees>
              <LongitudeDegrees>-4.0517957322299480438232421875</LongitudeDegrees>
            </Position>
            <AltitudeMeters>830.5999755859375</AltitudeMeters>
            <DistanceMeters>NAN</DistanceMeters>
          </Trackpoint>
          <Trackpoint>
            <Time>2019-08-01T17:16:25.000Z</Time>
            <Position>
              <LatitudeDegrees>40.50090392120182514190673828125</LatitudeDegrees>
              <LongitudeDegrees>-4.05176295898854732513427734375</LongitudeDegrees>
            </Position>
            <AltitudeMeters>830.4000244140625</AltitudeMeters>
            <DistanceMeters>NAN</DistanceMeters>
          </Trackpoint>
          <Trackpoint>
            <Time>2019-08-01T17:16:26.000Z</Time>
            <Position>
              <LatitudeDegrees>40.50079931505024433135986328125</LatitudeDegrees>
              <LongitudeDegrees>-4.05173596926033496856689453125</LongitudeDegrees>
            </Position>
            <AltitudeMeters>830.20001220703125</AltitudeMeters>
            <DistanceMeters>NAN</DistanceMeters>
          </Trackpoint>
          <Trackpoint>
            <Time>2019-08-01T17:16:27.000Z</Time>
            <Position>
              <LatitudeDegrees>40.500694625079631805419921875</LatitudeDegrees>
              <LongitudeDegrees>-4.051714427769184112548828125</LongitudeDegrees>
            </Position>
            <AltitudeMeters>830</AltitudeMeters>
            <DistanceMeters>NAN</DistanceMeters>
          </Trackpoint>
          <Trackpoint>
            <Time>2019-08-01T17:16:28.000Z</Time>
            <Position>
              <LatitudeDegrees>40.500590018928050994873046875</LatitudeDegrees>
              <LongitudeDegrees>-4.0516981668770313262939453125</LongitudeDegrees>
            </Position>
            <AltitudeMeters>829.79998779296875</AltitudeMeters>
            <DistanceMeters>NAN</DistanceMeters>
          </Trackpoint>
          <Trackpoint>
            <Time>2019-08-01T17:16:29.000Z</Time>
            <Position>
              <LatitudeDegrees>40.5004855804145336151123046875</LatitudeDegrees>
              <LongitudeDegrees>-4.0516877733170986175537109375</LongitudeDegrees>
            </Position>
            <AltitudeMeters>829.79998779296875</AltitudeMeters>
            <DistanceMeters>NAN</DistanceMeters>
          </Trackpoint>
          <Trackpoint>
            <Time>2019-08-01T17:16:30.000Z</Time>
            <Position>
              <LatitudeDegrees>40.50038156099617481231689453125</LatitudeDegrees>
              <LongitudeDegrees>-4.05168416909873485565185546875</LongitudeDegrees>
            </Position>
            <AltitudeMeters>829.4000244140625</AltitudeMeters>
            <DistanceMeters>NAN</DistanceMeters>
          </Trackpoint>
          <Trackpoint>
            <Time>2019-08-01T17:16:31.000Z</Time>
            <Position>
              <LatitudeDegrees>40.50027729012072086334228515625</LatitudeDegrees>
              <LongitudeDegrees>-4.0516830794513225555419921875</LongitudeDegrees>
            </Position>
            <AltitudeMeters>829</AltitudeMeters>
            <DistanceMeters>NAN</DistanceMeters>
          </Trackpoint>
          <Trackpoint>
            <Time>2019-08-01T17:16:32.000Z</Time>
            <Position>
              <LatitudeDegrees>40.500172935426235198974609375</LatitudeDegrees>
              <LongitudeDegrees>-4.051683247089385986328125</LongitudeDegrees>
            </Position>
            <AltitudeMeters>829</AltitudeMeters>
            <DistanceMeters>NAN</DistanceMeters>
          </Trackpoint>
          <Trackpoint>
            <Time>2019-08-01T17:16:33.000Z</Time>
            <Position>
              <LatitudeDegrees>40.50006858073174953460693359375</LatitudeDegrees>
              <LongitudeDegrees>-4.0516864322125911712646484375</LongitudeDegrees>
            </Position>
            <AltitudeMeters>829</AltitudeMeters>
            <DistanceMeters>NAN</DistanceMeters>
          </Trackpoint>
          <Trackpoint>
            <Time>2019-08-01T17:16:34.000Z</Time>
            <Position>
              <LatitudeDegrees>40.4999645613133907318115234375</LatitudeDegrees>
              <LongitudeDegrees>-4.0516897849738597869873046875</LongitudeDegrees>
            </Position>
            <AltitudeMeters>829</AltitudeMeters>
            <DistanceMeters>NAN</DistanceMeters>
          </Trackpoint>
          <Trackpoint>
            <Time>2019-08-01T17:16:35.000Z</Time>
            <Position>
              <LatitudeDegrees>40.49986012279987335205078125</LatitudeDegrees>
              <LongitudeDegrees>-4.05169255100190639495849609375</LongitudeDegrees>
            </Position>
            <AltitudeMeters>828.5999755859375</AltitudeMeters>
            <DistanceMeters>NAN</DistanceMeters>
          </Trackpoint>
          <Trackpoint>
            <Time>2019-08-01T17:16:36.000Z</Time>
            <Position>
              <LatitudeDegrees>40.4997560195624828338623046875</LatitudeDegrees>
              <LongitudeDegrees>-4.05169422738254070281982421875</LongitudeDegrees>
            </Position>
            <AltitudeMeters>828.5999755859375</AltitudeMeters>
            <DistanceMeters>NAN</DistanceMeters>
          </Trackpoint>
          <Trackpoint>
            <Time>2019-08-01T17:16:37.000Z</Time>
            <Position>
              <LatitudeDegrees>40.49965216778218746185302734375</LatitudeDegrees>
              <LongitudeDegrees>-4.05169305391609668731689453125</LongitudeDegrees>
            </Position>
            <AltitudeMeters>828.5999755859375</AltitudeMeters>
            <DistanceMeters>NAN</DistanceMeters>
          </Trackpoint>
          <Trackpoint>
            <Time>2019-08-01T17:16:38.000Z</Time>
            <Position>
              <LatitudeDegrees>40.4995488189160823822021484375</LatitudeDegrees>
              <LongitudeDegrees>-4.051689617335796356201171875</LongitudeDegrees>
            </Position>
            <AltitudeMeters>828.5999755859375</AltitudeMeters>
            <DistanceMeters>NAN</DistanceMeters>
          </Trackpoint>
          <Trackpoint>
            <Time>2019-08-01T17:16:39.000Z</Time>
            <Position>
              <LatitudeDegrees>40.49944614060223102569580078125</LatitudeDegrees>
              <LongitudeDegrees>-4.05168400146067142486572265625</LongitudeDegrees>
            </Position>
            <AltitudeMeters>828.4000244140625</AltitudeMeters>
            <DistanceMeters>NAN</DistanceMeters>
          </Trackpoint>
          <Trackpoint>
            <Time>2019-08-01T17:16:40.000Z</Time>
            <Position>
              <LatitudeDegrees>40.4993443004786968231201171875</LatitudeDegrees>
              <LongitudeDegrees>-4.051675535738468170166015625</LongitudeDegrees>
            </Position>
            <AltitudeMeters>828.4000244140625</AltitudeMeters>
            <DistanceMeters>NAN</DistanceMeters>
          </Trackpoint>
          <Trackpoint>
            <Time>2019-08-01T17:16:41.000Z</Time>
            <Position>
              <LatitudeDegrees>40.49924346618354320526123046875</LatitudeDegrees>
              <LongitudeDegrees>-4.0516646392643451690673828125</LongitudeDegrees>
            </Position>
            <AltitudeMeters>828.5999755859375</AltitudeMeters>
            <DistanceMeters>NAN</DistanceMeters>
          </Trackpoint>
          <Trackpoint>
            <Time>2019-08-01T17:16:42.000Z</Time>
            <Position>
              <LatitudeDegrees>40.4991438053548336029052734375</LatitudeDegrees>
              <LongitudeDegrees>-4.05165231786668300628662109375</LongitudeDegrees>
            </Position>
            <AltitudeMeters>828.4000244140625</AltitudeMeters>
            <DistanceMeters>NAN</DistanceMeters>
          </Trackpoint>
          <Trackpoint>
            <Time>2019-08-01T17:16:43.000Z</Time>
            <Position>
              <LatitudeDegrees>40.4991438053548336029052734375</LatitudeDegrees>
              <LongitudeDegrees>-4.05165231786668300628662109375</LongitudeDegrees>
            </Position>
            <AltitudeMeters>828.4000244140625</AltitudeMeters>
            <DistanceMeters>NAN</DistanceMeters>
          </Trackpoint>
          <Trackpoint>
            <Time>2019-08-01T17:16:44.000Z</Time>
            <Position>
              <LatitudeDegrees>40.4989463277161121368408203125</LatitudeDegrees>
              <LongitudeDegrees>-4.0516203828155994415283203125</LongitudeDegrees>
            </Position>
            <AltitudeMeters>828</AltitudeMeters>
            <DistanceMeters>NAN</DistanceMeters>
          </Trackpoint>
          <Trackpoint>
            <Time>2019-08-01T17:16:45.000Z</Time>
            <Position>
              <LatitudeDegrees>40.49884758889675140380859375</LatitudeDegrees>
              <LongitudeDegrees>-4.05160135589540004730224609375</LongitudeDegrees>
            </Position>
            <AltitudeMeters>827.79998779296875</AltitudeMeters>
            <DistanceMeters>NAN</DistanceMeters>
          </Trackpoint>
          <Trackpoint>
            <Time>2019-08-01T17:16:46.000Z</Time>
            <Position>
              <LatitudeDegrees>40.4987495206296443939208984375</LatitudeDegrees>
              <LongitudeDegrees>-4.0515826642513275146484375</LongitudeDegrees>
            </Position>
            <AltitudeMeters>827.4000244140625</AltitudeMeters>
            <DistanceMeters>NAN</DistanceMeters>
          </Trackpoint>
          <Trackpoint>
            <Time>2019-08-01T17:16:47.000Z</Time>
            <Position>
              <LatitudeDegrees>40.49865254200994968414306640625</LatitudeDegrees>
              <LongitudeDegrees>-4.05156414024531841278076171875</LongitudeDegrees>
            </Position>
            <AltitudeMeters>827</AltitudeMeters>
            <DistanceMeters>NAN</DistanceMeters>
          </Trackpoint>
          <Trackpoint>
            <Time>2019-08-01T17:16:48.000Z</Time>
            <Position>
              <LatitudeDegrees>40.49865254200994968414306640625</LatitudeDegrees>
              <LongitudeDegrees>-4.05156414024531841278076171875</LongitudeDegrees>
            </Position>
            <AltitudeMeters>826.79998779296875</AltitudeMeters>
            <DistanceMeters>NAN</DistanceMeters>
          </Trackpoint>
          <Trackpoint>
            <Time>2019-08-01T17:16:49.000Z</Time>
            <Position>
              <LatitudeDegrees>40.49846512265503406524658203125</LatitudeDegrees>
              <LongitudeDegrees>-4.0515275113284587860107421875</LongitudeDegrees>
            </Position>
            <AltitudeMeters>826.20001220703125</AltitudeMeters>
            <DistanceMeters>NAN</DistanceMeters>
          </Trackpoint>
          <Trackpoint>
            <Time>2019-08-01T17:16:50.000Z</Time>
            <Position>
              <LatitudeDegrees>40.49837493337690830230712890625</LatitudeDegrees>
              <LongitudeDegrees>-4.05150932259857654571533203125</LongitudeDegrees>
            </Position>
            <AltitudeMeters>826</AltitudeMeters>
            <DistanceMeters>NAN</DistanceMeters>
          </Trackpoint>
          <Trackpoint>
            <Time>2019-08-01T17:16:51.000Z</Time>
            <Position>
              <LatitudeDegrees>40.49828608520328998565673828125</LatitudeDegrees>
              <LongitudeDegrees>-4.05149138532578945159912109375</LongitudeDegrees>
            </Position>
            <AltitudeMeters>825.79998779296875</AltitudeMeters>
            <DistanceMeters>NAN</DistanceMeters>
          </Trackpoint>
          <Trackpoint>
            <Time>2019-08-01T17:16:52.000Z</Time>
            <Position>
              <LatitudeDegrees>40.49828608520328998565673828125</LatitudeDegrees>
              <LongitudeDegrees>-4.05149138532578945159912109375</LongitudeDegrees>
            </Position>
            <AltitudeMeters>825.5999755859375</AltitudeMeters>
            <DistanceMeters>NAN</DistanceMeters>
          </Trackpoint>
          <Trackpoint>
            <Time>2019-08-01T17:16:53.000Z</Time>
            <Position>
              <LatitudeDegrees>40.49810889177024364471435546875</LatitudeDegrees>
              <LongitudeDegrees>-4.051452912390232086181640625</LongitudeDegrees>
            </Position>
            <AltitudeMeters>825.4000244140625</AltitudeMeters>
            <DistanceMeters>NAN</DistanceMeters>
          </Trackpoint>
          <Trackpoint>
            <Time>2019-08-01T17:16:54.000Z</Time>
            <Position>
              <LatitudeDegrees>40.498019121587276458740234375</LatitudeDegrees>
              <LongitudeDegrees>-4.05143438838422298431396484375</LongitudeDegrees>
            </Position>
            <AltitudeMeters>825.4000244140625</AltitudeMeters>
            <DistanceMeters>NAN</DistanceMeters>
          </Trackpoint>
          <Trackpoint>
            <Time>2019-08-01T17:16:55.000Z</Time>
            <Position>
              <LatitudeDegrees>40.4979290999472141265869140625</LatitudeDegrees>
              <LongitudeDegrees>-4.05141645111143589019775390625</LongitudeDegrees>
            </Position>
            <AltitudeMeters>825.20001220703125</AltitudeMeters>
            <DistanceMeters>NAN</DistanceMeters>
          </Trackpoint>
          <Trackpoint>
            <Time>2019-08-01T17:16:56.000Z</Time>
            <Position>
              <LatitudeDegrees>40.4978389106690883636474609375</LatitudeDegrees>
              <LongitudeDegrees>-4.0513984300196170806884765625</LongitudeDegrees>
            </Position>
            <AltitudeMeters>825.20001220703125</AltitudeMeters>
            <DistanceMeters>NAN</DistanceMeters>
          </Trackpoint>
          <Trackpoint>
            <Time>2019-08-01T17:16:57.000Z</Time>
            <Position>
              <LatitudeDegrees>40.4977483861148357391357421875</LatitudeDegrees>
              <LongitudeDegrees>-4.051380157470703125</LongitudeDegrees>
            </Position>
            <AltitudeMeters>825</AltitudeMeters>
            <DistanceMeters>NAN</DistanceMeters>
          </Trackpoint>
          <Trackpoint>
            <Time>2019-08-01T17:16:58.000Z</Time>
            <Position>
              <LatitudeDegrees>40.49765794537961483001708984375</LatitudeDegrees>
              <LongitudeDegrees>-4.0513622201979160308837890625</LongitudeDegrees>
            </Position>
            <AltitudeMeters>824.79998779296875</AltitudeMeters>
            <DistanceMeters>NAN</DistanceMeters>
          </Trackpoint>
          <Trackpoint>
            <Time>2019-08-01T17:16:59.000Z</Time>
            <Position>
              <LatitudeDegrees>40.49756675027310848236083984375</LatitudeDegrees>
              <LongitudeDegrees>-4.0513457916676998138427734375</LongitudeDegrees>
            </Position>
            <AltitudeMeters>824.5999755859375</AltitudeMeters>
            <DistanceMeters>NAN</DistanceMeters>
          </Trackpoint>
          <Trackpoint>
            <Time>2019-08-01T17:17:00.000Z</Time>
            <Position>
              <LatitudeDegrees>40.49756675027310848236083984375</LatitudeDegrees>
              <LongitudeDegrees>-4.0513457916676998138427734375</LongitudeDegrees>
            </Position>
            <AltitudeMeters>824.5999755859375</AltitudeMeters>
            <DistanceMeters>NAN</DistanceMeters>
          </Trackpoint>
          <Trackpoint>
            <Time>2019-08-01T17:17:01.000Z</Time>
            <Position>
              <LatitudeDegrees>40.49738109111785888671875</LatitudeDegrees>
              <LongitudeDegrees>-4.051310084760189056396484375</LongitudeDegrees>
            </Position>
            <AltitudeMeters>824.4000244140625</AltitudeMeters>
            <DistanceMeters>NAN</DistanceMeters>
          </Trackpoint>
          <Trackpoint>
            <Time>2019-08-01T17:17:02.000Z</Time>
            <Position>
              <LatitudeDegrees>40.49728629179298877716064453125</LatitudeDegrees>
              <LongitudeDegrees>-4.05129038728773593902587890625</LongitudeDegrees>
            </Position>
            <AltitudeMeters>824.20001220703125</AltitudeMeters>
            <DistanceMeters>NAN</DistanceMeters>
          </Trackpoint>
          <Trackpoint>
            <Time>2019-08-01T17:17:03.000Z</Time>
            <Position>
              <LatitudeDegrees>40.4971914924681186676025390625</LatitudeDegrees>
              <LongitudeDegrees>-4.05127043835818767547607421875</LongitudeDegrees>
            </Position>
            <AltitudeMeters>824.20001220703125</AltitudeMeters>
            <DistanceMeters>NAN</DistanceMeters>
          </Trackpoint>
          <Trackpoint>
            <Time>2019-08-01T17:17:04.000Z</Time>
            <Position>
              <LatitudeDegrees>40.49709585495293140411376953125</LatitudeDegrees>
              <LongitudeDegrees>-4.05125082470476627349853515625</LongitudeDegrees>
            </Position>
            <AltitudeMeters>824</AltitudeMeters>
            <DistanceMeters>NAN</DistanceMeters>
          </Trackpoint>
          <Trackpoint>
            <Time>2019-08-01T17:17:05.000Z</Time>
            <Position>
              <LatitudeDegrees>40.4969997145235538482666015625</LatitudeDegrees>
              <LongitudeDegrees>-4.0512324683368206024169921875</LongitudeDegrees>
            </Position>
            <AltitudeMeters>824</AltitudeMeters>
            <DistanceMeters>NAN</DistanceMeters>
          </Trackpoint>
          <Trackpoint>
            <Time>2019-08-01T17:17:06.000Z</Time>
            <Position>
              <LatitudeDegrees>40.496903322637081146240234375</LatitudeDegrees>
              <LongitudeDegrees>-4.05121587216854095458984375</LongitudeDegrees>
            </Position>
            <AltitudeMeters>823.79998779296875</AltitudeMeters>
            <DistanceMeters>NAN</DistanceMeters>
          </Trackpoint>
          <Trackpoint>
            <Time>2019-08-01T17:17:07.000Z</Time>
            <Position>
              <LatitudeDegrees>40.49680617637932300567626953125</LatitudeDegrees>
              <LongitudeDegrees>-4.0511972643435001373291015625</LongitudeDegrees>
            </Position>
            <AltitudeMeters>823.79998779296875</AltitudeMeters>
            <DistanceMeters>NAN</DistanceMeters>
          </Trackpoint>
          <Trackpoint>
            <Time>2019-08-01T17:17:08.000Z</Time>
            <Position>
              <LatitudeDegrees>40.496708862483501434326171875</LatitudeDegrees>
              <LongitudeDegrees>-4.05117806978523731231689453125</LongitudeDegrees>
            </Position>
            <AltitudeMeters>823.5999755859375</AltitudeMeters>
            <DistanceMeters>NAN</DistanceMeters>
          </Trackpoint>
          <Trackpoint>
            <Time>2019-08-01T17:17:09.000Z</Time>
            <Position>
              <LatitudeDegrees>40.496611632406711578369140625</LatitudeDegrees>
              <LongitudeDegrees>-4.0511588752269744873046875</LongitudeDegrees>
            </Position>
            <AltitudeMeters>823.5999755859375</AltitudeMeters>
            <DistanceMeters>NAN</DistanceMeters>
          </Trackpoint>
          <Trackpoint>
            <Time>2019-08-01T17:17:10.000Z</Time>
            <Position>
              <LatitudeDegrees>40.4965145699679851531982421875</LatitudeDegrees>
              <LongitudeDegrees>-4.0511399321258068084716796875</LongitudeDegrees>
            </Position>
            <AltitudeMeters>823.4000244140625</AltitudeMeters>
            <DistanceMeters>NAN</DistanceMeters>
          </Trackpoint>
          <Trackpoint>
            <Time>2019-08-01T17:17:11.000Z</Time>
            <Position>
              <LatitudeDegrees>40.49641826190054416656494140625</LatitudeDegrees>
              <LongitudeDegrees>-4.05112006701529026031494140625</LongitudeDegrees>
            </Position>
            <AltitudeMeters>823.4000244140625</AltitudeMeters>
            <DistanceMeters>NAN</DistanceMeters>
          </Trackpoint>
          <Trackpoint>
            <Time>2019-08-01T17:17:12.000Z</Time>
            <Position>
              <LatitudeDegrees>40.4963221214711666107177734375</LatitudeDegrees>
              <LongitudeDegrees>-4.05110028572380542755126953125</LongitudeDegrees>
            </Position>
            <AltitudeMeters>823.4000244140625</AltitudeMeters>
            <DistanceMeters>NAN</DistanceMeters>
          </Trackpoint>
          <Trackpoint>
            <Time>2019-08-01T17:17:13.000Z</Time>
            <Position>
              <LatitudeDegrees>40.49622564576566219329833984375</LatitudeDegrees>
              <LongitudeDegrees>-4.05108083970844745635986328125</LongitudeDegrees>
            </Position>
            <AltitudeMeters>823.20001220703125</AltitudeMeters>
            <DistanceMeters>NAN</DistanceMeters>
          </Trackpoint>
          <Trackpoint>
            <Time>2019-08-01T17:17:14.000Z</Time>
            <Position>
              <LatitudeDegrees>40.49612975679337978363037109375</LatitudeDegrees>
              <LongitudeDegrees>-4.05106139369308948516845703125</LongitudeDegrees>
            </Position>
            <AltitudeMeters>823.20001220703125</AltitudeMeters>
            <DistanceMeters>NAN</DistanceMeters>
          </Trackpoint>
          <Trackpoint>
            <Time>2019-08-01T17:17:15.000Z</Time>
            <Position>
              <LatitudeDegrees>40.49603453837335109710693359375</LatitudeDegrees>
              <LongitudeDegrees>-4.05104178003966808319091796875</LongitudeDegrees>
            </Position>
            <AltitudeMeters>822.79998779296875</AltitudeMeters>
            <DistanceMeters>NAN</DistanceMeters>
          </Trackpoint>
          <Trackpoint>
            <Time>2019-08-01T17:17:16.000Z</Time>
            <Position>
              <LatitudeDegrees>40.4959395714104175567626953125</LatitudeDegrees>
              <LongitudeDegrees>-4.051022417843341827392578125</LongitudeDegrees>
            </Position>
            <AltitudeMeters>822.20001220703125</AltitudeMeters>
            <DistanceMeters>NAN</DistanceMeters>
          </Trackpoint>
          <Trackpoint>
            <Time>2019-08-01T17:17:17.000Z</Time>
            <Position>
              <LatitudeDegrees>40.4959395714104175567626953125</LatitudeDegrees>
              <LongitudeDegrees>-4.051022417843341827392578125</LongitudeDegrees>
            </Position>
            <AltitudeMeters>821.79998779296875</AltitudeMeters>
            <DistanceMeters>NAN</DistanceMeters>
          </Trackpoint>
          <Trackpoint>
            <Time>2019-08-01T17:17:18.000Z</Time>
            <Position>
              <LatitudeDegrees>40.49575190059840679168701171875</LatitudeDegrees>
              <LongitudeDegrees>-4.05098394490778446197509765625</LongitudeDegrees>
            </Position>
            <AltitudeMeters>821.5999755859375</AltitudeMeters>
            <DistanceMeters>NAN</DistanceMeters>
          </Trackpoint>
          <Trackpoint>
            <Time>2019-08-01T17:17:19.000Z</Time>
            <Position>
              <LatitudeDegrees>40.49575190059840679168701171875</LatitudeDegrees>
              <LongitudeDegrees>-4.05098394490778446197509765625</LongitudeDegrees>
            </Position>
            <AltitudeMeters>821.5999755859375</AltitudeMeters>
            <DistanceMeters>NAN</DistanceMeters>
          </Trackpoint>
          <Trackpoint>
            <Time>2019-08-01T17:17:20.000Z</Time>
            <Position>
              <LatitudeDegrees>40.49556984566152095794677734375</LatitudeDegrees>
              <LongitudeDegrees>-4.05094672925770282745361328125</LongitudeDegrees>
            </Position>
            <AltitudeMeters>821.4000244140625</AltitudeMeters>
            <DistanceMeters>NAN</DistanceMeters>
          </Trackpoint>
          <Trackpoint>
            <Time>2019-08-01T17:17:21.000Z</Time>
            <Position>
              <LatitudeDegrees>40.4954809136688709259033203125</LatitudeDegrees>
              <LongitudeDegrees>-4.0509287081658840179443359375</LongitudeDegrees>
            </Position>
            <AltitudeMeters>821.4000244140625</AltitudeMeters>
            <DistanceMeters>NAN</DistanceMeters>
          </Trackpoint>
          <Trackpoint>
            <Time>2019-08-01T17:17:22.000Z</Time>
            <Position>
              <LatitudeDegrees>40.49539399333298206329345703125</LatitudeDegrees>
              <LongitudeDegrees>-4.050910770893096923828125</LongitudeDegrees>
            </Position>
            <AltitudeMeters>821.4000244140625</AltitudeMeters>
            <DistanceMeters>NAN</DistanceMeters>
          </Trackpoint>
          <Trackpoint>
            <Time>2019-08-01T17:17:23.000Z</Time>
            <Position>
              <LatitudeDegrees>40.4953085817396640777587890625</LatitudeDegrees>
              <LongitudeDegrees>-4.050893001258373260498046875</LongitudeDegrees>
            </Position>
            <AltitudeMeters>821.4000244140625</AltitudeMeters>
            <DistanceMeters>NAN</DistanceMeters>
          </Trackpoint>
          <Trackpoint>
            <Time>2019-08-01T17:17:24.000Z</Time>
            <Position>
              <LatitudeDegrees>40.4953085817396640777587890625</LatitudeDegrees>
              <LongitudeDegrees>-4.050893001258373260498046875</LongitudeDegrees>
            </Position>
            <AltitudeMeters>821.4000244140625</AltitudeMeters>
            <DistanceMeters>NAN</DistanceMeters>
          </Trackpoint>
          <Trackpoint>
            <Time>2019-08-01T17:17:25.000Z</Time>
            <Position>
              <LatitudeDegrees>40.49514069221913814544677734375</LatitudeDegrees>
              <LongitudeDegrees>-4.0508579649031162261962890625</LongitudeDegrees>
            </Position>
            <AltitudeMeters>821.5999755859375</AltitudeMeters>
            <DistanceMeters>NAN</DistanceMeters>
          </Trackpoint>
          <Trackpoint>
            <Time>2019-08-01T17:17:26.000Z</Time>
            <Position>
              <LatitudeDegrees>40.4950588010251522064208984375</LatitudeDegrees>
              <LongitudeDegrees>-4.0508415363729000091552734375</LongitudeDegrees>
            </Position>
            <AltitudeMeters>821.5999755859375</AltitudeMeters>
            <DistanceMeters>NAN</DistanceMeters>
          </Trackpoint>
          <Trackpoint>
            <Time>2019-08-01T17:17:27.000Z</Time>
            <Position>
              <LatitudeDegrees>40.4950588010251522064208984375</LatitudeDegrees>
              <LongitudeDegrees>-4.0508415363729000091552734375</LongitudeDegrees>
            </Position>
            <AltitudeMeters>822</AltitudeMeters>
            <DistanceMeters>NAN</DistanceMeters>
          </Trackpoint>
          <Trackpoint>
            <Time>2019-08-01T17:17:28.000Z</Time>
            <Position>
              <LatitudeDegrees>40.49489828757941722869873046875</LatitudeDegrees>
              <LongitudeDegrees>-4.050808846950531005859375</LongitudeDegrees>
            </Position>
            <AltitudeMeters>822.20001220703125</AltitudeMeters>
            <DistanceMeters>NAN</DistanceMeters>
          </Trackpoint>
          <Trackpoint>
            <Time>2019-08-01T17:17:29.000Z</Time>
            <Position>
              <LatitudeDegrees>40.49489828757941722869873046875</LatitudeDegrees>
              <LongitudeDegrees>-4.050808846950531005859375</LongitudeDegrees>
            </Position>
            <AltitudeMeters>822.4000244140625</AltitudeMeters>
            <DistanceMeters>NAN</DistanceMeters>
          </Trackpoint>
          <Trackpoint>
            <Time>2019-08-01T17:17:30.000Z</Time>
            <Position>
              <LatitudeDegrees>40.49474523402750492095947265625</LatitudeDegrees>
              <LongitudeDegrees>-4.05077305622398853302001953125</LongitudeDegrees>
            </Position>
            <AltitudeMeters>822.5999755859375</AltitudeMeters>
            <DistanceMeters>NAN</DistanceMeters>
          </Trackpoint>
          <Trackpoint>
            <Time>2019-08-01T17:17:31.000Z</Time>
            <Position>
              <LatitudeDegrees>40.4946707189083099365234375</LatitudeDegrees>
              <LongitudeDegrees>-4.050753526389598846435546875</LongitudeDegrees>
            </Position>
            <AltitudeMeters>823</AltitudeMeters>
            <DistanceMeters>NAN</DistanceMeters>
          </Trackpoint>
          <Trackpoint>
            <Time>2019-08-01T17:17:32.000Z</Time>
            <Position>
              <LatitudeDegrees>40.49459653906524181365966796875</LatitudeDegrees>
              <LongitudeDegrees>-4.05073198489844799041748046875</LongitudeDegrees>
            </Position>
            <AltitudeMeters>823</AltitudeMeters>
            <DistanceMeters>NAN</DistanceMeters>
          </Trackpoint>
          <Trackpoint>
            <Time>2019-08-01T17:17:33.000Z</Time>
            <Position>
              <LatitudeDegrees>40.49452194012701511383056640625</LatitudeDegrees>
              <LongitudeDegrees>-4.05071069486439228057861328125</LongitudeDegrees>
            </Position>
            <AltitudeMeters>823.20001220703125</AltitudeMeters>
            <DistanceMeters>NAN</DistanceMeters>
          </Trackpoint>
          <Trackpoint>
            <Time>2019-08-01T17:17:34.000Z</Time>
            <Position>
              <LatitudeDegrees>40.49444583244621753692626953125</LatitudeDegrees>
              <LongitudeDegrees>-4.0506886504590511322021484375</LongitudeDegrees>
            </Position>
            <AltitudeMeters>823.4000244140625</AltitudeMeters>
            <DistanceMeters>NAN</DistanceMeters>
          </Trackpoint>
          <Trackpoint>
            <Time>2019-08-01T17:17:35.000Z</Time>
            <Position>
              <LatitudeDegrees>40.49436838366091251373291015625</LatitudeDegrees>
              <LongitudeDegrees>-4.05066643841564655303955078125</LongitudeDegrees>
            </Position>
            <AltitudeMeters>823.4000244140625</AltitudeMeters>
            <DistanceMeters>NAN</DistanceMeters>
          </Trackpoint>
          <Trackpoint>
            <Time>2019-08-01T17:17:36.000Z</Time>
            <Position>
              <LatitudeDegrees>40.4942893423140048980712890625</LatitudeDegrees>
              <LongitudeDegrees>-4.05064330436289310455322265625</LongitudeDegrees>
            </Position>
            <AltitudeMeters>823.5999755859375</AltitudeMeters>
            <DistanceMeters>NAN</DistanceMeters>
          </Trackpoint>
          <Trackpoint>
            <Time>2019-08-01T17:17:37.000Z</Time>
            <Position>
              <LatitudeDegrees>40.49420828931033611297607421875</LatitudeDegrees>
              <LongitudeDegrees>-4.05062000267207622528076171875</LongitudeDegrees>
            </Position>
            <AltitudeMeters>823.5999755859375</AltitudeMeters>
            <DistanceMeters>NAN</DistanceMeters>
          </Trackpoint>
          <Trackpoint>
            <Time>2019-08-01T17:17:38.000Z</Time>
            <Position>
              <LatitudeDegrees>40.49420828931033611297607421875</LatitudeDegrees>
              <LongitudeDegrees>-4.05062000267207622528076171875</LongitudeDegrees>
            </Position>
            <AltitudeMeters>823.5999755859375</AltitudeMeters>
            <DistanceMeters>NAN</DistanceMeters>
          </Trackpoint>
          <Trackpoint>
            <Time>2019-08-01T17:17:39.000Z</Time>
            <Position>
              <LatitudeDegrees>40.49404375255107879638671875</LatitudeDegrees>
              <LongitudeDegrees>-4.050571806728839874267578125</LongitudeDegrees>
            </Position>
            <AltitudeMeters>823.5999755859375</AltitudeMeters>
            <DistanceMeters>NAN</DistanceMeters>
          </Trackpoint>
          <Trackpoint>
            <Time>2019-08-01T17:17:40.000Z</Time>
            <Position>
              <LatitudeDegrees>40.4939607717096805572509765625</LatitudeDegrees>
              <LongitudeDegrees>-4.05054490081965923309326171875</LongitudeDegrees>
            </Position>
            <AltitudeMeters>823.5999755859375</AltitudeMeters>
            <DistanceMeters>NAN</DistanceMeters>
          </Trackpoint>
          <Trackpoint>
            <Time>2019-08-01T17:17:41.000Z</Time>
            <Position>
              <LatitudeDegrees>40.49387619830667972564697265625</LatitudeDegrees>
              <LongitudeDegrees>-4.05051824636757373809814453125</LongitudeDegrees>
            </Position>
            <AltitudeMeters>823.5999755859375</AltitudeMeters>
            <DistanceMeters>NAN</DistanceMeters>
          </Trackpoint>
          <Trackpoint>
            <Time>2019-08-01T17:17:42.000Z</Time>
            <Position>
              <LatitudeDegrees>40.493789948523044586181640625</LatitudeDegrees>
              <LongitudeDegrees>-4.05049293301999568939208984375</LongitudeDegrees>
            </Position>
            <AltitudeMeters>823.5999755859375</AltitudeMeters>
            <DistanceMeters>NAN</DistanceMeters>
          </Trackpoint>
          <Trackpoint>
            <Time>2019-08-01T17:17:43.000Z</Time>
            <Position>
              <LatitudeDegrees>40.493789948523044586181640625</LatitudeDegrees>
              <LongitudeDegrees>-4.05049293301999568939208984375</LongitudeDegrees>
            </Position>
            <AltitudeMeters>823.5999755859375</AltitudeMeters>
            <DistanceMeters>NAN</DistanceMeters>
          </Trackpoint>
          <Trackpoint>
            <Time>2019-08-01T17:17:44.000Z</Time>
            <Position>
              <LatitudeDegrees>40.49361552111804485321044921875</LatitudeDegrees>
              <LongitudeDegrees>-4.05044213868677616119384765625</LongitudeDegrees>
            </Position>
            <AltitudeMeters>823.4000244140625</AltitudeMeters>
            <DistanceMeters>NAN</DistanceMeters>
          </Trackpoint>
          <Trackpoint>
            <Time>2019-08-01T17:17:45.000Z</Time>
            <Position>
              <LatitudeDegrees>40.49352767877280712127685546875</LatitudeDegrees>
              <LongitudeDegrees>-4.0504164062440395355224609375</LongitudeDegrees>
            </Position>
            <AltitudeMeters>823.4000244140625</AltitudeMeters>
            <DistanceMeters>NAN</DistanceMeters>
          </Trackpoint>
          <Trackpoint>
            <Time>2019-08-01T17:17:46.000Z</Time>
            <Position>
              <LatitudeDegrees>40.49344084225594997406005859375</LatitudeDegrees>
              <LongitudeDegrees>-4.050390087068080902099609375</LongitudeDegrees>
            </Position>
            <AltitudeMeters>823.20001220703125</AltitudeMeters>
            <DistanceMeters>NAN</DistanceMeters>
          </Trackpoint>
          <Trackpoint>
            <Time>2019-08-01T17:17:47.000Z</Time>
            <Position>
              <LatitudeDegrees>40.4933549277484416961669921875</LatitudeDegrees>
              <LongitudeDegrees>-4.050363935530185699462890625</LongitudeDegrees>
            </Position>
            <AltitudeMeters>822.79998779296875</AltitudeMeters>
            <DistanceMeters>NAN</DistanceMeters>
          </Trackpoint>
          <Trackpoint>
            <Time>2019-08-01T17:17:48.000Z</Time>
            <Position>
              <LatitudeDegrees>40.49326951615512371063232421875</LatitudeDegrees>
              <LongitudeDegrees>-4.05033837072551250457763671875</LongitudeDegrees>
            </Position>
            <AltitudeMeters>822.5999755859375</AltitudeMeters>
            <DistanceMeters>NAN</DistanceMeters>
          </Trackpoint>
          <Trackpoint>
            <Time>2019-08-01T17:17:49.000Z</Time>
            <Position>
              <LatitudeDegrees>40.49318351782858371734619140625</LatitudeDegrees>
              <LongitudeDegrees>-4.05031255446374416351318359375</LongitudeDegrees>
            </Position>
            <AltitudeMeters>822.5999755859375</AltitudeMeters>
            <DistanceMeters>NAN</DistanceMeters>
          </Trackpoint>
          <Trackpoint>
            <Time>2019-08-01T17:17:50.000Z</Time>
            <Position>
              <LatitudeDegrees>40.49309684894979000091552734375</LatitudeDegrees>
              <LongitudeDegrees>-4.050286822021007537841796875</LongitudeDegrees>
            </Position>
            <AltitudeMeters>822.4000244140625</AltitudeMeters>
            <DistanceMeters>NAN</DistanceMeters>
          </Trackpoint>
          <Trackpoint>
            <Time>2019-08-01T17:17:51.000Z</Time>
            <Position>
              <LatitudeDegrees>40.493009425699710845947265625</LatitudeDegrees>
              <LongitudeDegrees>-4.05026058666408061981201171875</LongitudeDegrees>
            </Position>
            <AltitudeMeters>821.79998779296875</AltitudeMeters>
            <DistanceMeters>NAN</DistanceMeters>
          </Trackpoint>
          <Trackpoint>
            <Time>2019-08-01T17:17:52.000Z</Time>
            <Position>
              <LatitudeDegrees>40.4929214157164096832275390625</LatitudeDegrees>
              <LongitudeDegrees>-4.0502350218594074249267578125</LongitudeDegrees>
            </Position>
            <AltitudeMeters>820.79998779296875</AltitudeMeters>
            <DistanceMeters>NAN</DistanceMeters>
          </Trackpoint>
          <Trackpoint>
            <Time>2019-08-01T17:17:53.000Z</Time>
            <Position>
              <LatitudeDegrees>40.49283315427601337432861328125</LatitudeDegrees>
              <LongitudeDegrees>-4.050209708511829376220703125</LongitudeDegrees>
            </Position>
            <AltitudeMeters>820</AltitudeMeters>
            <DistanceMeters>NAN</DistanceMeters>
          </Trackpoint>
          <Trackpoint>
            <Time>2019-08-01T17:17:54.000Z</Time>
            <Position>
              <LatitudeDegrees>40.4927453957498073577880859375</LatitudeDegrees>
              <LongitudeDegrees>-4.05018414370715618133544921875</LongitudeDegrees>
            </Position>
            <AltitudeMeters>819.5999755859375</AltitudeMeters>
            <DistanceMeters>NAN</DistanceMeters>
          </Trackpoint>
          <Trackpoint>
            <Time>2019-08-01T17:17:55.000Z</Time>
            <Position>
              <LatitudeDegrees>40.49265814013779163360595703125</LatitudeDegrees>
              <LongitudeDegrees>-4.05015765689313411712646484375</LongitudeDegrees>
            </Position>
            <AltitudeMeters>819.4000244140625</AltitudeMeters>
            <DistanceMeters>NAN</DistanceMeters>
          </Trackpoint>
          <Trackpoint>
            <Time>2019-08-01T17:17:56.000Z</Time>
            <Position>
              <LatitudeDegrees>40.49257147125899791717529296875</LatitudeDegrees>
              <LongitudeDegrees>-4.05013133771717548370361328125</LongitudeDegrees>
            </Position>
            <AltitudeMeters>819.20001220703125</AltitudeMeters>
            <DistanceMeters>NAN</DistanceMeters>
          </Trackpoint>
          <Trackpoint>
            <Time>2019-08-01T17:17:57.000Z</Time>
            <Position>
              <LatitudeDegrees>40.49248538911342620849609375</LatitudeDegrees>
              <LongitudeDegrees>-4.0501056052744388580322265625</LongitudeDegrees>
            </Position>
            <AltitudeMeters>819</AltitudeMeters>
            <DistanceMeters>NAN</DistanceMeters>
          </Trackpoint>
          <Trackpoint>
            <Time>2019-08-01T17:17:58.000Z</Time>
            <Position>
              <LatitudeDegrees>40.49240014515817165374755859375</LatitudeDegrees>
              <LongitudeDegrees>-4.050079621374607086181640625</LongitudeDegrees>
            </Position>
            <AltitudeMeters>818.79998779296875</AltitudeMeters>
            <DistanceMeters>NAN</DistanceMeters>
          </Trackpoint>
          <Trackpoint>
            <Time>2019-08-01T17:17:59.000Z</Time>
            <Position>
              <LatitudeDegrees>40.4923149012029170989990234375</LatitudeDegrees>
              <LongitudeDegrees>-4.0500533021986484527587890625</LongitudeDegrees>
            </Position>
            <AltitudeMeters>818.5999755859375</AltitudeMeters>
            <DistanceMeters>NAN</DistanceMeters>
          </Trackpoint>
          <Trackpoint>
            <Time>2019-08-01T17:18:00.000Z</Time>
            <Position>
              <LatitudeDegrees>40.492230914533138275146484375</LatitudeDegrees>
              <LongitudeDegrees>-4.0500278212130069732666015625</LongitudeDegrees>
            </Position>
            <AltitudeMeters>818.4000244140625</AltitudeMeters>
            <DistanceMeters>NAN</DistanceMeters>
          </Trackpoint>
          <Trackpoint>
            <Time>2019-08-01T17:18:01.000Z</Time>
            <Position>
              <LatitudeDegrees>40.49214784987270832061767578125</LatitudeDegrees>
              <LongitudeDegrees>-4.050001837313175201416015625</LongitudeDegrees>
            </Position>
            <AltitudeMeters>818.4000244140625</AltitudeMeters>
            <DistanceMeters>NAN</DistanceMeters>
          </Trackpoint>
          <Trackpoint>
            <Time>2019-08-01T17:18:02.000Z</Time>
            <Position>
              <LatitudeDegrees>40.4920671321451663970947265625</LatitudeDegrees>
              <LongitudeDegrees>-4.0499745123088359832763671875</LongitudeDegrees>
            </Position>
            <AltitudeMeters>818.4000244140625</AltitudeMeters>
            <DistanceMeters>NAN</DistanceMeters>
          </Trackpoint>
          <Trackpoint>
            <Time>2019-08-01T17:18:03.000Z</Time>
            <Position>
              <LatitudeDegrees>40.4920671321451663970947265625</LatitudeDegrees>
              <LongitudeDegrees>-4.0499745123088359832763671875</LongitudeDegrees>
            </Position>
            <AltitudeMeters>818.4000244140625</AltitudeMeters>
            <DistanceMeters>NAN</DistanceMeters>
          </Trackpoint>
          <Trackpoint>
            <Time>2019-08-01T17:18:04.000Z</Time>
            <Position>
              <LatitudeDegrees>40.491913743317127227783203125</LatitudeDegrees>
              <LongitudeDegrees>-4.04991625808179378509521484375</LongitudeDegrees>
            </Position>
            <AltitudeMeters>818.4000244140625</AltitudeMeters>
            <DistanceMeters>NAN</DistanceMeters>
          </Trackpoint>
          <Trackpoint>
            <Time>2019-08-01T17:18:05.000Z</Time>
            <Position>
              <LatitudeDegrees>40.49184191040694713592529296875</LatitudeDegrees>
              <LongitudeDegrees>-4.04988490976393222808837890625</LongitudeDegrees>
            </Position>
            <AltitudeMeters>818.4000244140625</AltitudeMeters>
            <DistanceMeters>NAN</DistanceMeters>
          </Trackpoint>
          <Trackpoint>
            <Time>2019-08-01T17:18:06.000Z</Time>
            <Position>
              <LatitudeDegrees>40.4917710833251476287841796875</LatitudeDegrees>
              <LongitudeDegrees>-4.0498531423509120941162109375</LongitudeDegrees>
            </Position>
            <AltitudeMeters>818.4000244140625</AltitudeMeters>
            <DistanceMeters>NAN</DistanceMeters>
          </Trackpoint>
          <Trackpoint>
            <Time>2019-08-01T17:18:07.000Z</Time>
            <Position>
              <LatitudeDegrees>40.4917000047862529754638671875</LatitudeDegrees>
              <LongitudeDegrees>-4.049820788204669952392578125</LongitudeDegrees>
            </Position>
            <AltitudeMeters>818.4000244140625</AltitudeMeters>
            <DistanceMeters>NAN</DistanceMeters>
          </Trackpoint>
          <Trackpoint>
            <Time>2019-08-01T17:18:08.000Z</Time>
            <Position>
              <LatitudeDegrees>40.49162984825670719146728515625</LatitudeDegrees>
              <LongitudeDegrees>-4.04978633858263492584228515625</LongitudeDegrees>
            </Position>
            <AltitudeMeters>818.4000244140625</AltitudeMeters>
            <DistanceMeters>NAN</DistanceMeters>
          </Trackpoint>
          <Trackpoint>
            <Time>2019-08-01T17:18:09.000Z</Time>
            <Position>
              <LatitudeDegrees>40.49156044609844684600830078125</LatitudeDegrees>
              <LongitudeDegrees>-4.049751721322536468505859375</LongitudeDegrees>
            </Position>
            <AltitudeMeters>818.4000244140625</AltitudeMeters>
            <DistanceMeters>NAN</DistanceMeters>
          </Trackpoint>
          <Trackpoint>
            <Time>2019-08-01T17:18:10.000Z</Time>
            <Position>
              <LatitudeDegrees>40.49149096012115478515625</LatitudeDegrees>
              <LongitudeDegrees>-4.0497170202434062957763671875</LongitudeDegrees>
            </Position>
            <AltitudeMeters>818.4000244140625</AltitudeMeters>
            <DistanceMeters>NAN</DistanceMeters>
          </Trackpoint>
          <Trackpoint>
            <Time>2019-08-01T17:18:11.000Z</Time>
            <Position>
              <LatitudeDegrees>40.49142197705805301666259765625</LatitudeDegrees>
              <LongitudeDegrees>-4.04968106187880039215087890625</LongitudeDegrees>
            </Position>
            <AltitudeMeters>818.4000244140625</AltitudeMeters>
            <DistanceMeters>NAN</DistanceMeters>
          </Trackpoint>
          <Trackpoint>
            <Time>2019-08-01T17:18:12.000Z</Time>
            <Position>
              <LatitudeDegrees>40.49135349690914154052734375</LatitudeDegrees>
              <LongitudeDegrees>-4.04964409768581390380859375</LongitudeDegrees>
            </Position>
            <AltitudeMeters>818.4000244140625</AltitudeMeters>
            <DistanceMeters>NAN</DistanceMeters>
          </Trackpoint>
          <Trackpoint>
            <Time>2019-08-01T17:18:13.000Z</Time>
            <Position>
              <LatitudeDegrees>40.4912852682173252105712890625</LatitudeDegrees>
              <LongitudeDegrees>-4.04960663057863712310791015625</LongitudeDegrees>
            </Position>
            <AltitudeMeters>818.4000244140625</AltitudeMeters>
            <DistanceMeters>NAN</DistanceMeters>
          </Trackpoint>
          <Trackpoint>
            <Time>2019-08-01T17:18:14.000Z</Time>
            <Position>
              <LatitudeDegrees>40.49121670424938201904296875</LatitudeDegrees>
              <LongitudeDegrees>-4.04956891201436519622802734375</LongitudeDegrees>
            </Position>
            <AltitudeMeters>819.20001220703125</AltitudeMeters>
            <DistanceMeters>NAN</DistanceMeters>
          </Trackpoint>
          <Trackpoint>
            <Time>2019-08-01T17:18:15.000Z</Time>
            <Position>
              <LatitudeDegrees>40.49114830791950225830078125</LatitudeDegrees>
              <LongitudeDegrees>-4.04952834360301494598388671875</LongitudeDegrees>
            </Position>
            <AltitudeMeters>819.79998779296875</AltitudeMeters>
            <DistanceMeters>NAN</DistanceMeters>
          </Trackpoint>
          <Trackpoint>
            <Time>2019-08-01T17:18:16.000Z</Time>
            <Position>
              <LatitudeDegrees>40.4910800792276859283447265625</LatitudeDegrees>
              <LongitudeDegrees>-4.049486182630062103271484375</LongitudeDegrees>
            </Position>
            <AltitudeMeters>819.79998779296875</AltitudeMeters>
            <DistanceMeters>NAN</DistanceMeters>
          </Trackpoint>
          <Trackpoint>
            <Time>2019-08-01T17:18:17.000Z</Time>
            <Position>
              <LatitudeDegrees>40.49101092852652072906494140625</LatitudeDegrees>
              <LongitudeDegrees>-4.04944452457129955291748046875</LongitudeDegrees>
            </Position>
            <AltitudeMeters>820</AltitudeMeters>
            <DistanceMeters>NAN</DistanceMeters>
          </Trackpoint>
          <Trackpoint>
            <Time>2019-08-01T17:18:18.000Z</Time>
            <Position>
              <LatitudeDegrees>40.49094119109213352203369140625</LatitudeDegrees>
              <LongitudeDegrees>-4.04940395615994930267333984375</LongitudeDegrees>
            </Position>
            <AltitudeMeters>820</AltitudeMeters>
            <DistanceMeters>NAN</DistanceMeters>
          </Trackpoint>
          <Trackpoint>
            <Time>2019-08-01T17:18:19.000Z</Time>
            <Position>
              <LatitudeDegrees>40.490871034562587738037109375</LatitudeDegrees>
              <LongitudeDegrees>-4.04936338774859905242919921875</LongitudeDegrees>
            </Position>
            <AltitudeMeters>820</AltitudeMeters>
            <DistanceMeters>NAN</DistanceMeters>
          </Trackpoint>
          <Trackpoint>
            <Time>2019-08-01T17:18:20.000Z</Time>
            <Position>
              <LatitudeDegrees>40.49080104567110538482666015625</LatitudeDegrees>
              <LongitudeDegrees>-4.0493217296898365020751953125</LongitudeDegrees>
            </Position>
            <AltitudeMeters>820</AltitudeMeters>
            <DistanceMeters>NAN</DistanceMeters>
          </Trackpoint>
          <Trackpoint>
            <Time>2019-08-01T17:18:21.000Z</Time>
            <Position>
              <LatitudeDegrees>40.490731894969940185546875</LatitudeDegrees>
              <LongitudeDegrees>-4.04927956871688365936279296875</LongitudeDegrees>
            </Position>
            <AltitudeMeters>820</AltitudeMeters>
            <DistanceMeters>NAN</DistanceMeters>
          </Trackpoint>
          <Trackpoint>
            <Time>2019-08-01T17:18:22.000Z</Time>
            <Position>
              <LatitudeDegrees>40.4906629957258701324462890625</LatitudeDegrees>
              <LongitudeDegrees>-4.049238748848438262939453125</LongitudeDegrees>
            </Position>
            <AltitudeMeters>820</AltitudeMeters>
            <DistanceMeters>NAN</DistanceMeters>
          </Trackpoint>
          <Trackpoint>
            <Time>2019-08-01T17:18:23.000Z</Time>
            <Position>
              <LatitudeDegrees>40.49059443175792694091796875</LatitudeDegrees>
              <LongitudeDegrees>-4.04919893480837345123291015625</LongitudeDegrees>
            </Position>
            <AltitudeMeters>820</AltitudeMeters>
            <DistanceMeters>NAN</DistanceMeters>
          </Trackpoint>
          <Trackpoint>
            <Time>2019-08-01T17:18:24.000Z</Time>
            <Position>
              <LatitudeDegrees>40.49052603542804718017578125</LatitudeDegrees>
              <LongitudeDegrees>-4.049160294234752655029296875</LongitudeDegrees>
            </Position>
            <AltitudeMeters>819.79998779296875</AltitudeMeters>
            <DistanceMeters>NAN</DistanceMeters>
          </Trackpoint>
          <Trackpoint>
            <Time>2019-08-01T17:18:25.000Z</Time>
            <Position>
              <LatitudeDegrees>40.4904571361839771270751953125</LatitudeDegrees>
              <LongitudeDegrees>-4.0491230785846710205078125</LongitudeDegrees>
            </Position>
            <AltitudeMeters>819.79998779296875</AltitudeMeters>
            <DistanceMeters>NAN</DistanceMeters>
          </Trackpoint>
          <Trackpoint>
            <Time>2019-08-01T17:18:26.000Z</Time>
            <Position>
              <LatitudeDegrees>40.4903880693018436431884765625</LatitudeDegrees>
              <LongitudeDegrees>-4.04908628202974796295166015625</LongitudeDegrees>
            </Position>
            <AltitudeMeters>819.79998779296875</AltitudeMeters>
            <DistanceMeters>NAN</DistanceMeters>
          </Trackpoint>
          <Trackpoint>
            <Time>2019-08-01T17:18:27.000Z</Time>
            <Position>
              <LatitudeDegrees>40.490319170057773590087890625</LatitudeDegrees>
              <LongitudeDegrees>-4.04904655180871486663818359375</LongitudeDegrees>
            </Position>
            <AltitudeMeters>819.79998779296875</AltitudeMeters>
            <DistanceMeters>NAN</DistanceMeters>
          </Trackpoint>
          <Trackpoint>
            <Time>2019-08-01T17:18:28.000Z</Time>
            <Position>
              <LatitudeDegrees>40.49025119282305240631103515625</LatitudeDegrees>
              <LongitudeDegrees>-4.04900782741606235504150390625</LongitudeDegrees>
            </Position>
            <AltitudeMeters>819.5999755859375</AltitudeMeters>
            <DistanceMeters>NAN</DistanceMeters>
          </Trackpoint>
          <Trackpoint>
            <Time>2019-08-01T17:18:29.000Z</Time>
            <Position>
              <LatitudeDegrees>40.4901828803122043609619140625</LatitudeDegrees>
              <LongitudeDegrees>-4.048971869051456451416015625</LongitudeDegrees>
            </Position>
            <AltitudeMeters>819.5999755859375</AltitudeMeters>
            <DistanceMeters>NAN</DistanceMeters>
          </Trackpoint>
          <Trackpoint>
            <Time>2019-08-01T17:18:30.000Z</Time>
            <Position>
              <LatitudeDegrees>40.4901144839823246002197265625</LatitudeDegrees>
              <LongitudeDegrees>-4.048934988677501678466796875</LongitudeDegrees>
            </Position>
            <AltitudeMeters>819.4000244140625</AltitudeMeters>
            <DistanceMeters>NAN</DistanceMeters>
          </Trackpoint>
          <Trackpoint>
            <Time>2019-08-01T17:18:31.000Z</Time>
            <Position>
              <LatitudeDegrees>40.4900460876524448394775390625</LatitudeDegrees>
              <LongitudeDegrees>-4.04889718629419803619384765625</LongitudeDegrees>
            </Position>
            <AltitudeMeters>819.4000244140625</AltitudeMeters>
            <DistanceMeters>NAN</DistanceMeters>
          </Trackpoint>
          <Trackpoint>
            <Time>2019-08-01T17:18:32.000Z</Time>
            <Position>
              <LatitudeDegrees>40.489977188408374786376953125</LatitudeDegrees>
              <LongitudeDegrees>-4.0488587133586406707763671875</LongitudeDegrees>
            </Position>
            <AltitudeMeters>819.4000244140625</AltitudeMeters>
            <DistanceMeters>NAN</DistanceMeters>
          </Trackpoint>
          <Trackpoint>
            <Time>2019-08-01T17:18:33.000Z</Time>
            <Position>
              <LatitudeDegrees>40.4899082891643047332763671875</LatitudeDegrees>
              <LongitudeDegrees>-4.04881839640438556671142578125</LongitudeDegrees>
            </Position>
            <AltitudeMeters>819.4000244140625</AltitudeMeters>
            <DistanceMeters>NAN</DistanceMeters>
          </Trackpoint>
          <Trackpoint>
            <Time>2019-08-01T17:18:34.000Z</Time>
            <Position>
              <LatitudeDegrees>40.489839725196361541748046875</LatitudeDegrees>
              <LongitudeDegrees>-4.04877581633627414703369140625</LongitudeDegrees>
            </Position>
            <AltitudeMeters>819.4000244140625</AltitudeMeters>
            <DistanceMeters>NAN</DistanceMeters>
          </Trackpoint>
          <Trackpoint>
            <Time>2019-08-01T17:18:35.000Z</Time>
            <Position>
              <LatitudeDegrees>40.48977107740938663482666015625</LatitudeDegrees>
              <LongitudeDegrees>-4.048732481896877288818359375</LongitudeDegrees>
            </Position>
            <AltitudeMeters>819.20001220703125</AltitudeMeters>
            <DistanceMeters>NAN</DistanceMeters>
          </Trackpoint>
          <Trackpoint>
            <Time>2019-08-01T17:18:36.000Z</Time>
            <Position>
              <LatitudeDegrees>40.48970184288918972015380859375</LatitudeDegrees>
              <LongitudeDegrees>-4.0486893989145755767822265625</LongitudeDegrees>
            </Position>
            <AltitudeMeters>819</AltitudeMeters>
            <DistanceMeters>NAN</DistanceMeters>
          </Trackpoint>
          <Trackpoint>
            <Time>2019-08-01T17:18:37.000Z</Time>
            <Position>
              <LatitudeDegrees>40.48963227309286594390869140625</LatitudeDegrees>
              <LongitudeDegrees>-4.04864790849387645721435546875</LongitudeDegrees>
            </Position>
            <AltitudeMeters>818.79998779296875</AltitudeMeters>
            <DistanceMeters>NAN</DistanceMeters>
          </Trackpoint>
          <Trackpoint>
            <Time>2019-08-01T17:18:38.000Z</Time>
            <Position>
              <LatitudeDegrees>40.48956236802041530609130859375</LatitudeDegrees>
              <LongitudeDegrees>-4.04860767535865306854248046875</LongitudeDegrees>
            </Position>
            <AltitudeMeters>818.79998779296875</AltitudeMeters>
            <DistanceMeters>NAN</DistanceMeters>
          </Trackpoint>
          <Trackpoint>
            <Time>2019-08-01T17:18:39.000Z</Time>
            <Position>
              <LatitudeDegrees>40.48949263058602809906005859375</LatitudeDegrees>
              <LongitudeDegrees>-4.0485678613185882568359375</LongitudeDegrees>
            </Position>
            <AltitudeMeters>818.5999755859375</AltitudeMeters>
            <DistanceMeters>NAN</DistanceMeters>
          </Trackpoint>
          <Trackpoint>
            <Time>2019-08-01T17:18:40.000Z</Time>
            <Position>
              <LatitudeDegrees>40.48942364752292633056640625</LatitudeDegrees>
              <LongitudeDegrees>-4.04852754436433315277099609375</LongitudeDegrees>
            </Position>
            <AltitudeMeters>818.5999755859375</AltitudeMeters>
            <DistanceMeters>NAN</DistanceMeters>
          </Trackpoint>
          <Trackpoint>
            <Time>2019-08-01T17:18:41.000Z</Time>
            <Position>
              <LatitudeDegrees>40.48935525119304656982421875</LatitudeDegrees>
              <LongitudeDegrees>-4.04848513193428516387939453125</LongitudeDegrees>
            </Position>
            <AltitudeMeters>818.5999755859375</AltitudeMeters>
            <DistanceMeters>NAN</DistanceMeters>
          </Trackpoint>
          <Trackpoint>
            <Time>2019-08-01T17:18:42.000Z</Time>
            <Position>
              <LatitudeDegrees>40.48928677104413509368896484375</LatitudeDegrees>
              <LongitudeDegrees>-4.04844070784747600555419921875</LongitudeDegrees>
            </Position>
            <AltitudeMeters>818.5999755859375</AltitudeMeters>
            <DistanceMeters>NAN</DistanceMeters>
          </Trackpoint>
          <Trackpoint>
            <Time>2019-08-01T17:18:43.000Z</Time>
            <Position>
              <LatitudeDegrees>40.48921753652393817901611328125</LatitudeDegrees>
              <LongitudeDegrees>-4.04839511029422283172607421875</LongitudeDegrees>
            </Position>
            <AltitudeMeters>818.4000244140625</AltitudeMeters>
            <DistanceMeters>NAN</DistanceMeters>
          </Trackpoint>
          <Trackpoint>
            <Time>2019-08-01T17:18:44.000Z</Time>
            <Position>
              <LatitudeDegrees>40.48914729617536067962646484375</LatitudeDegrees>
              <LongitudeDegrees>-4.048350267112255096435546875</LongitudeDegrees>
            </Position>
            <AltitudeMeters>818.4000244140625</AltitudeMeters>
            <DistanceMeters>NAN</DistanceMeters>
          </Trackpoint>
          <Trackpoint>
            <Time>2019-08-01T17:18:45.000Z</Time>
            <Position>
              <LatitudeDegrees>40.4890761338174343109130859375</LatitudeDegrees>
              <LongitudeDegrees>-4.04830676503479480743408203125</LongitudeDegrees>
            </Position>
            <AltitudeMeters>818.4000244140625</AltitudeMeters>
            <DistanceMeters>NAN</DistanceMeters>
          </Trackpoint>
          <Trackpoint>
            <Time>2019-08-01T17:18:46.000Z</Time>
            <Position>
              <LatitudeDegrees>40.4890047200024127960205078125</LatitudeDegrees>
              <LongitudeDegrees>-4.04826343059539794921875</LongitudeDegrees>
            </Position>
            <AltitudeMeters>818.4000244140625</AltitudeMeters>
            <DistanceMeters>NAN</DistanceMeters>
          </Trackpoint>
          <Trackpoint>
            <Time>2019-08-01T17:18:47.000Z</Time>
            <Position>
              <LatitudeDegrees>40.48893255181610584259033203125</LatitudeDegrees>
              <LongitudeDegrees>-4.04821892268955707550048828125</LongitudeDegrees>
            </Position>
            <AltitudeMeters>818.4000244140625</AltitudeMeters>
            <DistanceMeters>NAN</DistanceMeters>
          </Trackpoint>
          <Trackpoint>
            <Time>2019-08-01T17:18:48.000Z</Time>
            <Position>
              <LatitudeDegrees>40.488860048353672027587890625</LatitudeDegrees>
              <LongitudeDegrees>-4.0481740795075893402099609375</LongitudeDegrees>
            </Position>
            <AltitudeMeters>818.4000244140625</AltitudeMeters>
            <DistanceMeters>NAN</DistanceMeters>
          </Trackpoint>
          <Trackpoint>
            <Time>2019-08-01T17:18:49.000Z</Time>
            <Position>
              <LatitudeDegrees>40.48878653906285762786865234375</LatitudeDegrees>
              <LongitudeDegrees>-4.04812856577336788177490234375</LongitudeDegrees>
            </Position>
            <AltitudeMeters>818.4000244140625</AltitudeMeters>
            <DistanceMeters>NAN</DistanceMeters>
          </Trackpoint>
          <Trackpoint>
            <Time>2019-08-01T17:18:50.000Z</Time>
            <Position>
              <LatitudeDegrees>40.48871244303882122039794921875</LatitudeDegrees>
              <LongitudeDegrees>-4.0480832196772098541259765625</LongitudeDegrees>
            </Position>
            <AltitudeMeters>818.4000244140625</AltitudeMeters>
            <DistanceMeters>NAN</DistanceMeters>
          </Trackpoint>
          <Trackpoint>
            <Time>2019-08-01T17:18:51.000Z</Time>
            <Position>
              <LatitudeDegrees>40.48871244303882122039794921875</LatitudeDegrees>
              <LongitudeDegrees>-4.0480832196772098541259765625</LongitudeDegrees>
            </Position>
            <AltitudeMeters>818.4000244140625</AltitudeMeters>
            <DistanceMeters>NAN</DistanceMeters>
          </Trackpoint>
          <Trackpoint>
            <Time>2019-08-01T17:18:52.000Z</Time>
            <Position>
              <LatitudeDegrees>40.488562993705272674560546875</LatitudeDegrees>
              <LongitudeDegrees>-4.0479937009513378143310546875</LongitudeDegrees>
            </Position>
            <AltitudeMeters>818.20001220703125</AltitudeMeters>
            <DistanceMeters>NAN</DistanceMeters>
          </Trackpoint>
          <Trackpoint>
            <Time>2019-08-01T17:18:53.000Z</Time>
            <Position>
              <LatitudeDegrees>40.4884883947670459747314453125</LatitudeDegrees>
              <LongitudeDegrees>-4.04794617556035518646240234375</LongitudeDegrees>
            </Position>
            <AltitudeMeters>818.20001220703125</AltitudeMeters>
            <DistanceMeters>NAN</DistanceMeters>
          </Trackpoint>
          <Trackpoint>
            <Time>2019-08-01T17:18:54.000Z</Time>
            <Position>
              <LatitudeDegrees>40.48841371200978755950927734375</LatitudeDegrees>
              <LongitudeDegrees>-4.04789797961711883544921875</LongitudeDegrees>
            </Position>
            <AltitudeMeters>818.20001220703125</AltitudeMeters>
            <DistanceMeters>NAN</DistanceMeters>
          </Trackpoint>
          <Trackpoint>
            <Time>2019-08-01T17:18:55.000Z</Time>
            <Position>
              <LatitudeDegrees>40.48841371200978755950927734375</LatitudeDegrees>
              <LongitudeDegrees>-4.04789797961711883544921875</LongitudeDegrees>
            </Position>
            <AltitudeMeters>818.20001220703125</AltitudeMeters>
            <DistanceMeters>NAN</DistanceMeters>
          </Trackpoint>
          <Trackpoint>
            <Time>2019-08-01T17:18:56.000Z</Time>
            <Position>
              <LatitudeDegrees>40.48826619051396846771240234375</LatitudeDegrees>
              <LongitudeDegrees>-4.04779664240777492523193359375</LongitudeDegrees>
            </Position>
            <AltitudeMeters>818.20001220703125</AltitudeMeters>
            <DistanceMeters>NAN</DistanceMeters>
          </Trackpoint>
          <Trackpoint>
            <Time>2019-08-01T17:18:57.000Z</Time>
            <Position>
              <LatitudeDegrees>40.48819460906088352203369140625</LatitudeDegrees>
              <LongitudeDegrees>-4.0477429144084453582763671875</LongitudeDegrees>
            </Position>
            <AltitudeMeters>818.20001220703125</AltitudeMeters>
            <DistanceMeters>NAN</DistanceMeters>
          </Trackpoint>
          <Trackpoint>
            <Time>2019-08-01T17:18:58.000Z</Time>
            <Position>
              <LatitudeDegrees>40.48812420107424259185791015625</LatitudeDegrees>
              <LongitudeDegrees>-4.04768784530460834503173828125</LongitudeDegrees>
            </Position>
            <AltitudeMeters>818.20001220703125</AltitudeMeters>
            <DistanceMeters>NAN</DistanceMeters>
          </Trackpoint>
          <Trackpoint>
            <Time>2019-08-01T17:18:59.000Z</Time>
            <Position>
              <LatitudeDegrees>40.48805546946823596954345703125</LatitudeDegrees>
              <LongitudeDegrees>-4.0476317703723907470703125</LongitudeDegrees>
            </Position>
            <AltitudeMeters>818.20001220703125</AltitudeMeters>
            <DistanceMeters>NAN</DistanceMeters>
          </Trackpoint>
          <Trackpoint>
            <Time>2019-08-01T17:19:00.000Z</Time>
            <Position>
              <LatitudeDegrees>40.48798824660480022430419921875</LatitudeDegrees>
              <LongitudeDegrees>-4.0475725941359996795654296875</LongitudeDegrees>
            </Position>
            <AltitudeMeters>818.20001220703125</AltitudeMeters>
            <DistanceMeters>NAN</DistanceMeters>
          </Trackpoint>
          <Trackpoint>
            <Time>2019-08-01T17:19:01.000Z</Time>
            <Position>
              <LatitudeDegrees>40.48792353831231594085693359375</LatitudeDegrees>
              <LongitudeDegrees>-4.04750914312899112701416015625</LongitudeDegrees>
            </Position>
            <AltitudeMeters>818.20001220703125</AltitudeMeters>
            <DistanceMeters>NAN</DistanceMeters>
          </Trackpoint>
          <Trackpoint>
            <Time>2019-08-01T17:19:02.000Z</Time>
            <Position>
              <LatitudeDegrees>40.48786117695271968841552734375</LatitudeDegrees>
              <LongitudeDegrees>-4.04744242317974567413330078125</LongitudeDegrees>
            </Position>
            <AltitudeMeters>818.20001220703125</AltitudeMeters>
            <DistanceMeters>NAN</DistanceMeters>
          </Trackpoint>
          <Trackpoint>
            <Time>2019-08-01T17:19:03.000Z</Time>
            <Position>
              <LatitudeDegrees>40.48780024051666259765625</LatitudeDegrees>
              <LongitudeDegrees>-4.0473731048405170440673828125</LongitudeDegrees>
            </Position>
            <AltitudeMeters>818.20001220703125</AltitudeMeters>
            <DistanceMeters>NAN</DistanceMeters>
          </Trackpoint>
          <Trackpoint>
            <Time>2019-08-01T17:19:04.000Z</Time>
            <Position>
              <LatitudeDegrees>40.48774030990898609161376953125</LatitudeDegrees>
              <LongitudeDegrees>-4.0473020263016223907470703125</LongitudeDegrees>
            </Position>
            <AltitudeMeters>817.79998779296875</AltitudeMeters>
            <DistanceMeters>NAN</DistanceMeters>
          </Trackpoint>
          <Trackpoint>
            <Time>2019-08-01T17:19:05.000Z</Time>
            <Position>
              <LatitudeDegrees>40.48768163658678531646728515625</LatitudeDegrees>
              <LongitudeDegrees>-4.04722952283918857574462890625</LongitudeDegrees>
            </Position>
            <AltitudeMeters>817.5999755859375</AltitudeMeters>
            <DistanceMeters>NAN</DistanceMeters>
          </Trackpoint>
          <Trackpoint>
            <Time>2019-08-01T17:19:06.000Z</Time>
            <Position>
              <LatitudeDegrees>40.487624220550060272216796875</LatitudeDegrees>
              <LongitudeDegrees>-4.04715425334870815277099609375</LongitudeDegrees>
            </Position>
            <AltitudeMeters>817.5999755859375</AltitudeMeters>
            <DistanceMeters>NAN</DistanceMeters>
          </Trackpoint>
          <Trackpoint>
            <Time>2019-08-01T17:19:07.000Z</Time>
            <Position>
              <LatitudeDegrees>40.48756998963654041290283203125</LatitudeDegrees>
              <LongitudeDegrees>-4.04707252979278564453125</LongitudeDegrees>
            </Position>
            <AltitudeMeters>817.4000244140625</AltitudeMeters>
            <DistanceMeters>NAN</DistanceMeters>
          </Trackpoint>
          <Trackpoint>
            <Time>2019-08-01T17:19:08.000Z</Time>
            <Position>
              <LatitudeDegrees>40.48751852475106716156005859375</LatitudeDegrees>
              <LongitudeDegrees>-4.0469853579998016357421875</LongitudeDegrees>
            </Position>
            <AltitudeMeters>817.4000244140625</AltitudeMeters>
            <DistanceMeters>NAN</DistanceMeters>
          </Trackpoint>
          <Trackpoint>
            <Time>2019-08-01T17:19:09.000Z</Time>
            <Position>
              <LatitudeDegrees>40.487467981874942779541015625</LatitudeDegrees>
              <LongitudeDegrees>-4.04689441435039043426513671875</LongitudeDegrees>
            </Position>
            <AltitudeMeters>817.4000244140625</AltitudeMeters>
            <DistanceMeters>NAN</DistanceMeters>
          </Trackpoint>
          <Trackpoint>
            <Time>2019-08-01T17:19:10.000Z</Time>
            <Position>
              <LatitudeDegrees>40.48741869628429412841796875</LatitudeDegrees>
              <LongitudeDegrees>-4.0467991121113300323486328125</LongitudeDegrees>
            </Position>
            <AltitudeMeters>817.20001220703125</AltitudeMeters>
            <DistanceMeters>NAN</DistanceMeters>
          </Trackpoint>
          <Trackpoint>
            <Time>2019-08-01T17:19:11.000Z</Time>
            <Position>
              <LatitudeDegrees>40.48736907541751861572265625</LatitudeDegrees>
              <LongitudeDegrees>-4.04670037329196929931640625</LongitudeDegrees>
            </Position>
            <AltitudeMeters>817.20001220703125</AltitudeMeters>
            <DistanceMeters>NAN</DistanceMeters>
          </Trackpoint>
          <Trackpoint>
            <Time>2019-08-01T17:19:12.000Z</Time>
            <Position>
              <LatitudeDegrees>40.48732079565525054931640625</LatitudeDegrees>
              <LongitudeDegrees>-4.046597778797149658203125</LongitudeDegrees>
            </Position>
            <AltitudeMeters>817</AltitudeMeters>
            <DistanceMeters>NAN</DistanceMeters>
          </Trackpoint>
          <Trackpoint>
            <Time>2019-08-01T17:19:13.000Z</Time>
            <Position>
              <LatitudeDegrees>40.48727511428296566009521484375</LatitudeDegrees>
              <LongitudeDegrees>-4.04648940078914165496826171875</LongitudeDegrees>
            </Position>
            <AltitudeMeters>817</AltitudeMeters>
            <DistanceMeters>NAN</DistanceMeters>
          </Trackpoint>
          <Trackpoint>
            <Time>2019-08-01T17:19:14.000Z</Time>
            <Position>
              <LatitudeDegrees>40.48727511428296566009521484375</LatitudeDegrees>
              <LongitudeDegrees>-4.04648940078914165496826171875</LongitudeDegrees>
            </Position>
            <AltitudeMeters>817</AltitudeMeters>
            <DistanceMeters>NAN</DistanceMeters>
          </Trackpoint>
          <Trackpoint>
            <Time>2019-08-01T17:19:15.000Z</Time>
            <Position>
              <LatitudeDegrees>40.4871918819844722747802734375</LatitudeDegrees>
              <LongitudeDegrees>-4.0462579764425754547119140625</LongitudeDegrees>
            </Position>
            <AltitudeMeters>816.79998779296875</AltitudeMeters>
            <DistanceMeters>NAN</DistanceMeters>
          </Trackpoint>
          <Trackpoint>
            <Time>2019-08-01T17:19:16.000Z</Time>
            <Position>
              <LatitudeDegrees>40.48715223558247089385986328125</LatitudeDegrees>
              <LongitudeDegrees>-4.046137444674968719482421875</LongitudeDegrees>
            </Position>
            <AltitudeMeters>816.79998779296875</AltitudeMeters>
            <DistanceMeters>NAN</DistanceMeters>
          </Trackpoint>
          <Trackpoint>
            <Time>2019-08-01T17:19:17.000Z</Time>
            <Position>
              <LatitudeDegrees>40.48711166717112064361572265625</LatitudeDegrees>
              <LongitudeDegrees>-4.0460162423551082611083984375</LongitudeDegrees>
            </Position>
            <AltitudeMeters>816.5999755859375</AltitudeMeters>
            <DistanceMeters>NAN</DistanceMeters>
          </Trackpoint>
          <Trackpoint>
            <Time>2019-08-01T17:19:18.000Z</Time>
            <Position>
              <LatitudeDegrees>40.48707076348364353179931640625</LatitudeDegrees>
              <LongitudeDegrees>-4.04589327983558177947998046875</LongitudeDegrees>
            </Position>
            <AltitudeMeters>816.4000244140625</AltitudeMeters>
            <DistanceMeters>NAN</DistanceMeters>
          </Trackpoint>
          <Trackpoint>
            <Time>2019-08-01T17:19:19.000Z</Time>
            <Position>
              <LatitudeDegrees>40.4870299436151981353759765625</LatitudeDegrees>
              <LongitudeDegrees>-4.04576973058283329010009765625</LongitudeDegrees>
            </Position>
            <AltitudeMeters>816</AltitudeMeters>
            <DistanceMeters>NAN</DistanceMeters>
          </Trackpoint>
          <Trackpoint>
            <Time>2019-08-01T17:19:20.000Z</Time>
            <Position>
              <LatitudeDegrees>40.4869897104799747467041015625</LatitudeDegrees>
              <LongitudeDegrees>-4.04564626514911651611328125</LongitudeDegrees>
            </Position>
            <AltitudeMeters>815.4000244140625</AltitudeMeters>
            <DistanceMeters>NAN</DistanceMeters>
          </Trackpoint>
          <Trackpoint>
            <Time>2019-08-01T17:19:21.000Z</Time>
            <Position>
              <LatitudeDegrees>40.48694989643990993499755859375</LatitudeDegrees>
              <LongitudeDegrees>-4.0455233864486217498779296875</LongitudeDegrees>
            </Position>
            <AltitudeMeters>815</AltitudeMeters>
            <DistanceMeters>NAN</DistanceMeters>
          </Trackpoint>
          <Trackpoint>
            <Time>2019-08-01T17:19:22.000Z</Time>
            <Position>
              <LatitudeDegrees>40.4869095794856548309326171875</LatitudeDegrees>
              <LongitudeDegrees>-4.04540176503360271453857421875</LongitudeDegrees>
            </Position>
            <AltitudeMeters>814.4000244140625</AltitudeMeters>
            <DistanceMeters>NAN</DistanceMeters>
          </Trackpoint>
          <Trackpoint>
            <Time>2019-08-01T17:19:23.000Z</Time>
            <Position>
              <LatitudeDegrees>40.4868686757981777191162109375</LatitudeDegrees>
              <LongitudeDegrees>-4.04528014361858367919921875</LongitudeDegrees>
            </Position>
            <AltitudeMeters>813.5999755859375</AltitudeMeters>
            <DistanceMeters>NAN</DistanceMeters>
          </Trackpoint>
          <Trackpoint>
            <Time>2019-08-01T17:19:24.000Z</Time>
            <Position>
              <LatitudeDegrees>40.48682718537747859954833984375</LatitudeDegrees>
              <LongitudeDegrees>-4.04515852220356464385986328125</LongitudeDegrees>
            </Position>
            <AltitudeMeters>812.79998779296875</AltitudeMeters>
            <DistanceMeters>NAN</DistanceMeters>
          </Trackpoint>
          <Trackpoint>
            <Time>2019-08-01T17:19:25.000Z</Time>
            <Position>
              <LatitudeDegrees>40.48678594641387462615966796875</LatitudeDegrees>
              <LongitudeDegrees>-4.04503497295081615447998046875</LongitudeDegrees>
            </Position>
            <AltitudeMeters>812.20001220703125</AltitudeMeters>
            <DistanceMeters>NAN</DistanceMeters>
          </Trackpoint>
          <Trackpoint>
            <Time>2019-08-01T17:19:26.000Z</Time>
            <Position>
              <LatitudeDegrees>40.48674588091671466827392578125</LatitudeDegrees>
              <LongitudeDegrees>-4.04490890912711620330810546875</LongitudeDegrees>
            </Position>
            <AltitudeMeters>812</AltitudeMeters>
            <DistanceMeters>NAN</DistanceMeters>
          </Trackpoint>
          <Trackpoint>
            <Time>2019-08-01T17:19:27.000Z</Time>
            <Position>
              <LatitudeDegrees>40.48670514486730098724365234375</LatitudeDegrees>
              <LongitudeDegrees>-4.04478100128471851348876953125</LongitudeDegrees>
            </Position>
            <AltitudeMeters>811.79998779296875</AltitudeMeters>
            <DistanceMeters>NAN</DistanceMeters>
          </Trackpoint>
          <Trackpoint>
            <Time>2019-08-01T17:19:28.000Z</Time>
            <Position>
              <LatitudeDegrees>40.48666365444660186767578125</LatitudeDegrees>
              <LongitudeDegrees>-4.0446523390710353851318359375</LongitudeDegrees>
            </Position>
            <AltitudeMeters>811</AltitudeMeters>
            <DistanceMeters>NAN</DistanceMeters>
          </Trackpoint>
          <Trackpoint>
            <Time>2019-08-01T17:19:29.000Z</Time>
            <Position>
              <LatitudeDegrees>40.48662208020687103271484375</LatitudeDegrees>
              <LongitudeDegrees>-4.04452241957187652587890625</LongitudeDegrees>
            </Position>
            <AltitudeMeters>810.5999755859375</AltitudeMeters>
            <DistanceMeters>NAN</DistanceMeters>
          </Trackpoint>
          <Trackpoint>
            <Time>2019-08-01T17:19:30.000Z</Time>
            <Position>
              <LatitudeDegrees>40.4865803383290767669677734375</LatitudeDegrees>
              <LongitudeDegrees>-4.0443911589682102203369140625</LongitudeDegrees>
            </Position>
            <AltitudeMeters>810.20001220703125</AltitudeMeters>
            <DistanceMeters>NAN</DistanceMeters>
          </Trackpoint>
          <Trackpoint>
            <Time>2019-08-01T17:19:31.000Z</Time>
            <Position>
              <LatitudeDegrees>40.4865384288132190704345703125</LatitudeDegrees>
              <LongitudeDegrees>-4.04425880871713161468505859375</LongitudeDegrees>
            </Position>
            <AltitudeMeters>810</AltitudeMeters>
            <DistanceMeters>NAN</DistanceMeters>
          </Trackpoint>
          <Trackpoint>
            <Time>2019-08-01T17:19:32.000Z</Time>
            <Position>
              <LatitudeDegrees>40.4864953458309173583984375</LatitudeDegrees>
              <LongitudeDegrees>-4.04412486590445041656494140625</LongitudeDegrees>
            </Position>
            <AltitudeMeters>809.79998779296875</AltitudeMeters>
            <DistanceMeters>NAN</DistanceMeters>
          </Trackpoint>
          <Trackpoint>
            <Time>2019-08-01T17:19:33.000Z</Time>
            <Position>
              <LatitudeDegrees>40.4864519275724887847900390625</LatitudeDegrees>
              <LongitudeDegrees>-4.04398874379694461822509765625</LongitudeDegrees>
            </Position>
            <AltitudeMeters>809.79998779296875</AltitudeMeters>
            <DistanceMeters>NAN</DistanceMeters>
          </Trackpoint>
          <Trackpoint>
            <Time>2019-08-01T17:19:34.000Z</Time>
            <Position>
              <LatitudeDegrees>40.48640708439052104949951171875</LatitudeDegrees>
              <LongitudeDegrees>-4.04385111294686794281005859375</LongitudeDegrees>
            </Position>
            <AltitudeMeters>810</AltitudeMeters>
            <DistanceMeters>NAN</DistanceMeters>
          </Trackpoint>
          <Trackpoint>
            <Time>2019-08-01T17:19:35.000Z</Time>
            <Position>
              <LatitudeDegrees>40.48636232502758502960205078125</LatitudeDegrees>
              <LongitudeDegrees>-4.043712727725505828857421875</LongitudeDegrees>
            </Position>
            <AltitudeMeters>809.79998779296875</AltitudeMeters>
            <DistanceMeters>NAN</DistanceMeters>
          </Trackpoint>
          <Trackpoint>
            <Time>2019-08-01T17:19:36.000Z</Time>
            <Position>
              <LatitudeDegrees>40.48631706275045871734619140625</LatitudeDegrees>
              <LongitudeDegrees>-4.04357333667576313018798828125</LongitudeDegrees>
            </Position>
            <AltitudeMeters>809.5999755859375</AltitudeMeters>
            <DistanceMeters>NAN</DistanceMeters>
          </Trackpoint>
          <Trackpoint>
            <Time>2019-08-01T17:19:37.000Z</Time>
            <Position>
              <LatitudeDegrees>40.4862718842923641204833984375</LatitudeDegrees>
              <LongitudeDegrees>-4.0434332750737667083740234375</LongitudeDegrees>
            </Position>
            <AltitudeMeters>809.20001220703125</AltitudeMeters>
            <DistanceMeters>NAN</DistanceMeters>
          </Trackpoint>
          <Trackpoint>
            <Time>2019-08-01T17:19:38.000Z</Time>
            <Position>
              <LatitudeDegrees>40.48622645437717437744140625</LatitudeDegrees>
              <LongitudeDegrees>-4.043292291462421417236328125</LongitudeDegrees>
            </Position>
            <AltitudeMeters>808</AltitudeMeters>
            <DistanceMeters>NAN</DistanceMeters>
          </Trackpoint>
          <Trackpoint>
            <Time>2019-08-01T17:19:39.000Z</Time>
            <Position>
              <LatitudeDegrees>40.48617951571941375732421875</LatitudeDegrees>
              <LongitudeDegrees>-4.04315038584172725677490234375</LongitudeDegrees>
            </Position>
            <AltitudeMeters>807.79998779296875</AltitudeMeters>
            <DistanceMeters>NAN</DistanceMeters>
          </Trackpoint>
          <Trackpoint>
            <Time>2019-08-01T17:19:40.000Z</Time>
            <Position>
              <LatitudeDegrees>40.48613031394779682159423828125</LatitudeDegrees>
              <LongitudeDegrees>-4.0430088154971599578857421875</LongitudeDegrees>
            </Position>
            <AltitudeMeters>807.4000244140625</AltitudeMeters>
            <DistanceMeters>NAN</DistanceMeters>
          </Trackpoint>
          <Trackpoint>
            <Time>2019-08-01T17:19:41.000Z</Time>
            <Position>
              <LatitudeDegrees>40.4860764183104038238525390625</LatitudeDegrees>
              <LongitudeDegrees>-4.04286883771419525146484375</LongitudeDegrees>
            </Position>
            <AltitudeMeters>807.20001220703125</AltitudeMeters>
            <DistanceMeters>NAN</DistanceMeters>
          </Trackpoint>
          <Trackpoint>
            <Time>2019-08-01T17:19:42.000Z</Time>
            <Position>
              <LatitudeDegrees>40.48601682297885417938232421875</LatitudeDegrees>
              <LongitudeDegrees>-4.04273229651153087615966796875</LongitudeDegrees>
            </Position>
            <AltitudeMeters>806.5999755859375</AltitudeMeters>
            <DistanceMeters>NAN</DistanceMeters>
          </Trackpoint>
          <Trackpoint>
            <Time>2019-08-01T17:19:43.000Z</Time>
            <Position>
              <LatitudeDegrees>40.48601682297885417938232421875</LatitudeDegrees>
              <LongitudeDegrees>-4.04273229651153087615966796875</LongitudeDegrees>
            </Position>
            <AltitudeMeters>805.5999755859375</AltitudeMeters>
            <DistanceMeters>NAN</DistanceMeters>
          </Trackpoint>
          <Trackpoint>
            <Time>2019-08-01T17:19:44.000Z</Time>
            <Position>
              <LatitudeDegrees>40.48587466590106487274169921875</LatitudeDegrees>
              <LongitudeDegrees>-4.04247413389384746551513671875</LongitudeDegrees>
            </Position>
            <AltitudeMeters>805</AltitudeMeters>
            <DistanceMeters>NAN</DistanceMeters>
          </Trackpoint>
          <Trackpoint>
            <Time>2019-08-01T17:19:45.000Z</Time>
            <Position>
              <LatitudeDegrees>40.48579319380223751068115234375</LatitudeDegrees>
              <LongitudeDegrees>-4.0423526801168918609619140625</LongitudeDegrees>
            </Position>
            <AltitudeMeters>804.5999755859375</AltitudeMeters>
            <DistanceMeters>NAN</DistanceMeters>
          </Trackpoint>
          <Trackpoint>
            <Time>2019-08-01T17:19:46.000Z</Time>
            <Position>
              <LatitudeDegrees>40.48570417799055576324462890625</LatitudeDegrees>
              <LongitudeDegrees>-4.042239524424076080322265625</LongitudeDegrees>
            </Position>
            <AltitudeMeters>804</AltitudeMeters>
            <DistanceMeters>NAN</DistanceMeters>
          </Trackpoint>
          <Trackpoint>
            <Time>2019-08-01T17:19:47.000Z</Time>
            <Position>
              <LatitudeDegrees>40.485605187714099884033203125</LatitudeDegrees>
              <LongitudeDegrees>-4.04213927686214447021484375</LongitudeDegrees>
            </Position>
            <AltitudeMeters>803.79998779296875</AltitudeMeters>
            <DistanceMeters>NAN</DistanceMeters>
          </Trackpoint>
          <Trackpoint>
            <Time>2019-08-01T17:19:49.000Z</Time>
            <Position>
              <LatitudeDegrees>40.48538348637521266937255859375</LatitudeDegrees>
              <LongitudeDegrees>-4.0419691242277622222900390625</LongitudeDegrees>
            </Position>
            <AltitudeMeters>802.20001220703125</AltitudeMeters>
            <DistanceMeters>NAN</DistanceMeters>
          </Trackpoint>
          <Trackpoint>
            <Time>2019-08-01T17:19:50.000Z</Time>
            <Position>
              <LatitudeDegrees>40.4852615296840667724609375</LatitudeDegrees>
              <LongitudeDegrees>-4.0419007278978824615478515625</LongitudeDegrees>
            </Position>
            <AltitudeMeters>801.79998779296875</AltitudeMeters>
            <DistanceMeters>NAN</DistanceMeters>
          </Trackpoint>
          <Trackpoint>
            <Time>2019-08-01T17:19:51.000Z</Time>
            <Position>
              <LatitudeDegrees>40.48513303510844707489013671875</LatitudeDegrees>
              <LongitudeDegrees>-4.0418467484414577484130859375</LongitudeDegrees>
            </Position>
            <AltitudeMeters>801.4000244140625</AltitudeMeters>
            <DistanceMeters>NAN</DistanceMeters>
          </Trackpoint>
          <Trackpoint>
            <Time>2019-08-01T17:19:52.000Z</Time>
            <Position>
              <LatitudeDegrees>40.48499976284801959991455078125</LatitudeDegrees>
              <LongitudeDegrees>-4.0418085269629955291748046875</LongitudeDegrees>
            </Position>
            <AltitudeMeters>801.20001220703125</AltitudeMeters>
            <DistanceMeters>NAN</DistanceMeters>
          </Trackpoint>
          <Trackpoint>
            <Time>2019-08-01T17:19:53.000Z</Time>
            <Position>
              <LatitudeDegrees>40.48486431129276752471923828125</LatitudeDegrees>
              <LongitudeDegrees>-4.04178648255765438079833984375</LongitudeDegrees>
            </Position>
            <AltitudeMeters>800.20001220703125</AltitudeMeters>
            <DistanceMeters>NAN</DistanceMeters>
          </Trackpoint>
          <Trackpoint>
            <Time>2019-08-01T17:19:54.000Z</Time>
            <Position>
              <LatitudeDegrees>40.48472936265170574188232421875</LatitudeDegrees>
              <LongitudeDegrees>-4.04178011231124401092529296875</LongitudeDegrees>
            </Position>
            <AltitudeMeters>799.20001220703125</AltitudeMeters>
            <DistanceMeters>NAN</DistanceMeters>
          </Trackpoint>
          <Trackpoint>
            <Time>2019-08-01T17:19:55.000Z</Time>
            <Position>
              <LatitudeDegrees>40.48459609039127826690673828125</LatitudeDegrees>
              <LongitudeDegrees>-4.04178815893828868865966796875</LongitudeDegrees>
            </Position>
            <AltitudeMeters>798.5999755859375</AltitudeMeters>
            <DistanceMeters>NAN</DistanceMeters>
          </Trackpoint>
          <Trackpoint>
            <Time>2019-08-01T17:19:56.000Z</Time>
            <Position>
              <LatitudeDegrees>40.48446248285472393035888671875</LatitudeDegrees>
              <LongitudeDegrees>-4.0418081916868686676025390625</LongitudeDegrees>
            </Position>
            <AltitudeMeters>798.20001220703125</AltitudeMeters>
            <DistanceMeters>NAN</DistanceMeters>
          </Trackpoint>
          <Trackpoint>
            <Time>2019-08-01T17:19:57.000Z</Time>
            <Position>
              <LatitudeDegrees>40.4843292944133281707763671875</LatitudeDegrees>
              <LongitudeDegrees>-4.04183878563344478607177734375</LongitudeDegrees>
            </Position>
            <AltitudeMeters>797.4000244140625</AltitudeMeters>
            <DistanceMeters>NAN</DistanceMeters>
          </Trackpoint>
          <Trackpoint>
            <Time>2019-08-01T17:19:58.000Z</Time>
            <Position>
              <LatitudeDegrees>40.48419535160064697265625</LatitudeDegrees>
              <LongitudeDegrees>-4.04187533073127269744873046875</LongitudeDegrees>
            </Position>
            <AltitudeMeters>796.20001220703125</AltitudeMeters>
            <DistanceMeters>NAN</DistanceMeters>
          </Trackpoint>
          <Trackpoint>
            <Time>2019-08-01T17:19:59.000Z</Time>
            <Position>
              <LatitudeDegrees>40.48405864275991916656494140625</LatitudeDegrees>
              <LongitudeDegrees>-4.04191506095230579376220703125</LongitudeDegrees>
            </Position>
            <AltitudeMeters>794.5999755859375</AltitudeMeters>
            <DistanceMeters>NAN</DistanceMeters>
          </Trackpoint>
          <Trackpoint>
            <Time>2019-08-01T17:20:00.000Z</Time>
            <Position>
              <LatitudeDegrees>40.48392151482403278350830078125</LatitudeDegrees>
              <LongitudeDegrees>-4.04195328243076801300048828125</LongitudeDegrees>
            </Position>
            <AltitudeMeters>793</AltitudeMeters>
            <DistanceMeters>NAN</DistanceMeters>
          </Trackpoint>
          <Trackpoint>
            <Time>2019-08-01T17:20:01.000Z</Time>
            <Position>
              <LatitudeDegrees>40.4837831296026706695556640625</LatitudeDegrees>
              <LongitudeDegrees>-4.041991420090198516845703125</LongitudeDegrees>
            </Position>
            <AltitudeMeters>791.4000244140625</AltitudeMeters>
            <DistanceMeters>NAN</DistanceMeters>
          </Trackpoint>
          <Trackpoint>
            <Time>2019-08-01T17:20:02.000Z</Time>
            <Position>
              <LatitudeDegrees>40.48364021815359592437744140625</LatitudeDegrees>
              <LongitudeDegrees>-4.04202318750321865081787109375</LongitudeDegrees>
            </Position>
            <AltitudeMeters>790</AltitudeMeters>
            <DistanceMeters>NAN</DistanceMeters>
          </Trackpoint>
          <Trackpoint>
            <Time>2019-08-01T17:20:03.000Z</Time>
            <Position>
              <LatitudeDegrees>40.483496971428394317626953125</LatitudeDegrees>
              <LongitudeDegrees>-4.0420405380427837371826171875</LongitudeDegrees>
            </Position>
            <AltitudeMeters>788</AltitudeMeters>
            <DistanceMeters>NAN</DistanceMeters>
          </Trackpoint>
          <Trackpoint>
            <Time>2019-08-01T17:20:04.000Z</Time>
            <Position>
              <LatitudeDegrees>40.4833536408841609954833984375</LatitudeDegrees>
              <LongitudeDegrees>-4.042043387889862060546875</LongitudeDegrees>
            </Position>
            <AltitudeMeters>786.5999755859375</AltitudeMeters>
            <DistanceMeters>NAN</DistanceMeters>
          </Trackpoint>
          <Trackpoint>
            <Time>2019-08-01T17:20:05.000Z</Time>
            <Position>
              <LatitudeDegrees>40.48320989124476909637451171875</LatitudeDegrees>
              <LongitudeDegrees>-4.0420304797589778900146484375</LongitudeDegrees>
            </Position>
            <AltitudeMeters>785.79998779296875</AltitudeMeters>
            <DistanceMeters>NAN</DistanceMeters>
          </Trackpoint>
          <Trackpoint>
            <Time>2019-08-01T17:20:06.000Z</Time>
            <Position>
              <LatitudeDegrees>40.483068488538265228271484375</LatitudeDegrees>
              <LongitudeDegrees>-4.042000472545623779296875</LongitudeDegrees>
            </Position>
            <AltitudeMeters>784.4000244140625</AltitudeMeters>
            <DistanceMeters>NAN</DistanceMeters>
          </Trackpoint>
          <Trackpoint>
            <Time>2019-08-01T17:20:07.000Z</Time>
            <Position>
              <LatitudeDegrees>40.48292758874595165252685546875</LatitudeDegrees>
              <LongitudeDegrees>-4.0419523604214191436767578125</LongitudeDegrees>
            </Position>
            <AltitudeMeters>783.5999755859375</AltitudeMeters>
            <DistanceMeters>NAN</DistanceMeters>
          </Trackpoint>
          <Trackpoint>
            <Time>2019-08-01T17:20:08.000Z</Time>
            <Position>
              <LatitudeDegrees>40.48278761096298694610595703125</LatitudeDegrees>
              <LongitudeDegrees>-4.0418886579573154449462890625</LongitudeDegrees>
            </Position>
            <AltitudeMeters>783.20001220703125</AltitudeMeters>
            <DistanceMeters>NAN</DistanceMeters>
          </Trackpoint>
          <Trackpoint>
            <Time>2019-08-01T17:20:09.000Z</Time>
            <Position>
              <LatitudeDegrees>40.4826519079506397247314453125</LatitudeDegrees>
              <LongitudeDegrees>-4.0418075211346149444580078125</LongitudeDegrees>
            </Position>
            <AltitudeMeters>782.20001220703125</AltitudeMeters>
            <DistanceMeters>NAN</DistanceMeters>
          </Trackpoint>
          <Trackpoint>
            <Time>2019-08-01T17:20:10.000Z</Time>
            <Position>
              <LatitudeDegrees>40.482521988451480865478515625</LatitudeDegrees>
              <LongitudeDegrees>-4.04170534573495388031005859375</LongitudeDegrees>
            </Position>
            <AltitudeMeters>780.79998779296875</AltitudeMeters>
            <DistanceMeters>NAN</DistanceMeters>
          </Trackpoint>
          <Trackpoint>
            <Time>2019-08-01T17:20:11.000Z</Time>
            <Position>
              <LatitudeDegrees>40.4823991097509860992431640625</LatitudeDegrees>
              <LongitudeDegrees>-4.041585065424442291259765625</LongitudeDegrees>
            </Position>
            <AltitudeMeters>779.4000244140625</AltitudeMeters>
            <DistanceMeters>NAN</DistanceMeters>
          </Trackpoint>
          <Trackpoint>
            <Time>2019-08-01T17:20:12.000Z</Time>
            <Position>
              <LatitudeDegrees>40.48228419385850429534912109375</LatitudeDegrees>
              <LongitudeDegrees>-4.0414477698504924774169921875</LongitudeDegrees>
            </Position>
            <AltitudeMeters>778</AltitudeMeters>
            <DistanceMeters>NAN</DistanceMeters>
          </Trackpoint>
          <Trackpoint>
            <Time>2019-08-01T17:20:13.000Z</Time>
            <Position>
              <LatitudeDegrees>40.48217975534498691558837890625</LatitudeDegrees>
              <LongitudeDegrees>-4.04129505157470703125</LongitudeDegrees>
            </Position>
            <AltitudeMeters>776.79998779296875</AltitudeMeters>
            <DistanceMeters>NAN</DistanceMeters>
          </Trackpoint>
          <Trackpoint>
            <Time>2019-08-01T17:20:14.000Z</Time>
            <Position>
              <LatitudeDegrees>40.482086800038814544677734375</LatitudeDegrees>
              <LongitudeDegrees>-4.04112800024449825286865234375</LongitudeDegrees>
            </Position>
            <AltitudeMeters>775.79998779296875</AltitudeMeters>
            <DistanceMeters>NAN</DistanceMeters>
          </Trackpoint>
          <Trackpoint>
            <Time>2019-08-01T17:20:15.000Z</Time>
            <Position>
              <LatitudeDegrees>40.4820065014064311981201171875</LatitudeDegrees>
              <LongitudeDegrees>-4.04094971716403961181640625</LongitudeDegrees>
            </Position>
            <AltitudeMeters>775</AltitudeMeters>
            <DistanceMeters>NAN</DistanceMeters>
          </Trackpoint>
          <Trackpoint>
            <Time>2019-08-01T17:20:16.000Z</Time>
            <Position>
              <LatitudeDegrees>40.48193802125751972198486328125</LatitudeDegrees>
              <LongitudeDegrees>-4.04076187871396541595458984375</LongitudeDegrees>
            </Position>
            <AltitudeMeters>774.5999755859375</AltitudeMeters>
            <DistanceMeters>NAN</DistanceMeters>
          </Trackpoint>
          <Trackpoint>
            <Time>2019-08-01T17:20:17.000Z</Time>
            <Position>
              <LatitudeDegrees>40.4818787612020969390869140625</LatitudeDegrees>
              <LongitudeDegrees>-4.04056674800813198089599609375</LongitudeDegrees>
            </Position>
            <AltitudeMeters>774.4000244140625</AltitudeMeters>
            <DistanceMeters>NAN</DistanceMeters>
          </Trackpoint>
          <Trackpoint>
            <Time>2019-08-01T17:20:18.000Z</Time>
            <Position>
              <LatitudeDegrees>40.481828637421131134033203125</LatitudeDegrees>
              <LongitudeDegrees>-4.04036440886557102203369140625</LongitudeDegrees>
            </Position>
            <AltitudeMeters>774</AltitudeMeters>
            <DistanceMeters>NAN</DistanceMeters>
          </Trackpoint>
          <Trackpoint>
            <Time>2019-08-01T17:20:19.000Z</Time>
            <Position>
              <LatitudeDegrees>40.481782369315624237060546875</LatitudeDegrees>
              <LongitudeDegrees>-4.04015846550464630126953125</LongitudeDegrees>
            </Position>
            <AltitudeMeters>772.5999755859375</AltitudeMeters>
            <DistanceMeters>NAN</DistanceMeters>
          </Trackpoint>
          <Trackpoint>
            <Time>2019-08-01T17:20:20.000Z</Time>
            <Position>
              <LatitudeDegrees>40.48173509538173675537109375</LatitudeDegrees>
              <LongitudeDegrees>-4.03995151631534099578857421875</LongitudeDegrees>
            </Position>
            <AltitudeMeters>771.20001220703125</AltitudeMeters>
            <DistanceMeters>NAN</DistanceMeters>
          </Trackpoint>
          <Trackpoint>
            <Time>2019-08-01T17:20:21.000Z</Time>
            <Position>
              <LatitudeDegrees>40.4816809482872486114501953125</LatitudeDegrees>
              <LongitudeDegrees>-4.0397462435066699981689453125</LongitudeDegrees>
            </Position>
            <AltitudeMeters>769.79998779296875</AltitudeMeters>
            <DistanceMeters>NAN</DistanceMeters>
          </Trackpoint>
          <Trackpoint>
            <Time>2019-08-01T17:20:22.000Z</Time>
            <Position>
              <LatitudeDegrees>40.481615401804447174072265625</LatitudeDegrees>
              <LongitudeDegrees>-4.0395427308976650238037109375</LongitudeDegrees>
            </Position>
            <AltitudeMeters>768.4000244140625</AltitudeMeters>
            <DistanceMeters>NAN</DistanceMeters>
          </Trackpoint>
          <Trackpoint>
            <Time>2019-08-01T17:20:23.000Z</Time>
            <Position>
              <LatitudeDegrees>40.48153619281947612762451171875</LatitudeDegrees>
              <LongitudeDegrees>-4.0393405593931674957275390625</LongitudeDegrees>
            </Position>
            <AltitudeMeters>767.5999755859375</AltitudeMeters>
            <DistanceMeters>NAN</DistanceMeters>
          </Trackpoint>
          <Trackpoint>
            <Time>2019-08-01T17:20:24.000Z</Time>
            <Position>
              <LatitudeDegrees>40.4814398847520351409912109375</LatitudeDegrees>
              <LongitudeDegrees>-4.03915154747664928436279296875</LongitudeDegrees>
            </Position>
            <AltitudeMeters>767</AltitudeMeters>
            <DistanceMeters>NAN</DistanceMeters>
          </Trackpoint>
          <Trackpoint>
            <Time>2019-08-01T17:20:25.000Z</Time>
            <Position>
              <LatitudeDegrees>40.48132882453501224517822265625</LatitudeDegrees>
              <LongitudeDegrees>-4.0389875136315822601318359375</LongitudeDegrees>
            </Position>
            <AltitudeMeters>766</AltitudeMeters>
            <DistanceMeters>NAN</DistanceMeters>
          </Trackpoint>
          <Trackpoint>
            <Time>2019-08-01T17:20:26.000Z</Time>
            <Position>
              <LatitudeDegrees>40.481207706034183502197265625</LatitudeDegrees>
              <LongitudeDegrees>-4.03883571736514568328857421875</LongitudeDegrees>
            </Position>
            <AltitudeMeters>765</AltitudeMeters>
            <DistanceMeters>NAN</DistanceMeters>
          </Trackpoint>
          <Trackpoint>
            <Time>2019-08-01T17:20:27.000Z</Time>
            <Position>
              <LatitudeDegrees>40.48108139075338840484619140625</LatitudeDegrees>
              <LongitudeDegrees>-4.038692303001880645751953125</LongitudeDegrees>
            </Position>
            <AltitudeMeters>763.79998779296875</AltitudeMeters>
            <DistanceMeters>NAN</DistanceMeters>
          </Trackpoint>
          <Trackpoint>
            <Time>2019-08-01T17:20:28.000Z</Time>
            <Position>
              <LatitudeDegrees>40.48095448873937129974365234375</LatitudeDegrees>
              <LongitudeDegrees>-4.0385499782860279083251953125</LongitudeDegrees>
            </Position>
            <AltitudeMeters>762.4000244140625</AltitudeMeters>
            <DistanceMeters>NAN</DistanceMeters>
          </Trackpoint>
          <Trackpoint>
            <Time>2019-08-01T17:20:29.000Z</Time>
            <Position>
              <LatitudeDegrees>40.48082976602017879486083984375</LatitudeDegrees>
              <LongitudeDegrees>-4.0384044684469699859619140625</LongitudeDegrees>
            </Position>
            <AltitudeMeters>761.4000244140625</AltitudeMeters>
            <DistanceMeters>NAN</DistanceMeters>
          </Trackpoint>
          <Trackpoint>
            <Time>2019-08-01T17:20:30.000Z</Time>
            <Position>
              <LatitudeDegrees>40.48071007244288921356201171875</LatitudeDegrees>
              <LongitudeDegrees>-4.03825434856116771697998046875</LongitudeDegrees>
            </Position>
            <AltitudeMeters>760</AltitudeMeters>
            <DistanceMeters>NAN</DistanceMeters>
          </Trackpoint>
          <Trackpoint>
            <Time>2019-08-01T17:20:31.000Z</Time>
            <Position>
              <LatitudeDegrees>40.48059775494039058685302734375</LatitudeDegrees>
              <LongitudeDegrees>-4.03809224255383014678955078125</LongitudeDegrees>
            </Position>
            <AltitudeMeters>757.79998779296875</AltitudeMeters>
            <DistanceMeters>NAN</DistanceMeters>
          </Trackpoint>
          <Trackpoint>
            <Time>2019-08-01T17:20:32.000Z</Time>
            <Position>
              <LatitudeDegrees>40.48049851320683956146240234375</LatitudeDegrees>
              <LongitudeDegrees>-4.03791035525500774383544921875</LongitudeDegrees>
            </Position>
            <AltitudeMeters>755.20001220703125</AltitudeMeters>
            <DistanceMeters>NAN</DistanceMeters>
          </Trackpoint>
          <Trackpoint>
            <Time>2019-08-01T17:20:33.000Z</Time>
            <Position>
              <LatitudeDegrees>40.48041720874607563018798828125</LatitudeDegrees>
              <LongitudeDegrees>-4.03771606273949146270751953125</LongitudeDegrees>
            </Position>
            <AltitudeMeters>753.4000244140625</AltitudeMeters>
            <DistanceMeters>NAN</DistanceMeters>
          </Trackpoint>
          <Trackpoint>
            <Time>2019-08-01T17:20:34.000Z</Time>
            <Position>
              <LatitudeDegrees>40.48034898005425930023193359375</LatitudeDegrees>
              <LongitudeDegrees>-4.03751405887305736541748046875</LongitudeDegrees>
            </Position>
            <AltitudeMeters>751.79998779296875</AltitudeMeters>
            <DistanceMeters>NAN</DistanceMeters>
          </Trackpoint>
          <Trackpoint>
            <Time>2019-08-01T17:20:35.000Z</Time>
            <Position>
              <LatitudeDegrees>40.480289049446582794189453125</LatitudeDegrees>
              <LongitudeDegrees>-4.03730451129376888275146484375</LongitudeDegrees>
            </Position>
            <AltitudeMeters>751.20001220703125</AltitudeMeters>
            <DistanceMeters>NAN</DistanceMeters>
          </Trackpoint>
          <Trackpoint>
            <Time>2019-08-01T17:20:36.000Z</Time>
            <Position>
              <LatitudeDegrees>40.480235405266284942626953125</LatitudeDegrees>
              <LongitudeDegrees>-4.0370942093431949615478515625</LongitudeDegrees>
            </Position>
            <AltitudeMeters>750.20001220703125</AltitudeMeters>
            <DistanceMeters>NAN</DistanceMeters>
          </Trackpoint>
          <Trackpoint>
            <Time>2019-08-01T17:20:37.000Z</Time>
            <Position>
              <LatitudeDegrees>40.48018218018114566802978515625</LatitudeDegrees>
              <LongitudeDegrees>-4.03688290156424045562744140625</LongitudeDegrees>
            </Position>
            <AltitudeMeters>749</AltitudeMeters>
            <DistanceMeters>NAN</DistanceMeters>
          </Trackpoint>
          <Trackpoint>
            <Time>2019-08-01T17:20:38.000Z</Time>
            <Position>
              <LatitudeDegrees>40.48012400977313518524169921875</LatitudeDegrees>
              <LongitudeDegrees>-4.036671258509159088134765625</LongitudeDegrees>
            </Position>
            <AltitudeMeters>748</AltitudeMeters>
            <DistanceMeters>NAN</DistanceMeters>
          </Trackpoint>
          <Trackpoint>
            <Time>2019-08-01T17:20:39.000Z</Time>
            <Position>
              <LatitudeDegrees>40.48005695454776287078857421875</LatitudeDegrees>
              <LongitudeDegrees>-4.03646347112953662872314453125</LongitudeDegrees>
            </Position>
            <AltitudeMeters>746.79998779296875</AltitudeMeters>
            <DistanceMeters>NAN</DistanceMeters>
          </Trackpoint>
          <Trackpoint>
            <Time>2019-08-01T17:20:40.000Z</Time>
            <Position>
              <LatitudeDegrees>40.47997917048633098602294921875</LatitudeDegrees>
              <LongitudeDegrees>-4.03625987470149993896484375</LongitudeDegrees>
            </Position>
            <AltitudeMeters>746</AltitudeMeters>
            <DistanceMeters>NAN</DistanceMeters>
          </Trackpoint>
          <Trackpoint>
            <Time>2019-08-01T17:20:41.000Z</Time>
            <Position>
              <LatitudeDegrees>40.47989107668399810791015625</LatitudeDegrees>
              <LongitudeDegrees>-4.03606449253857135772705078125</LongitudeDegrees>
            </Position>
            <AltitudeMeters>745.20001220703125</AltitudeMeters>
            <DistanceMeters>NAN</DistanceMeters>
          </Trackpoint>
          <Trackpoint>
            <Time>2019-08-01T17:20:42.000Z</Time>
            <Position>
              <LatitudeDegrees>40.47979074530303478240966796875</LatitudeDegrees>
              <LongitudeDegrees>-4.0358771570026874542236328125</LongitudeDegrees>
            </Position>
            <AltitudeMeters>744.4000244140625</AltitudeMeters>
            <DistanceMeters>NAN</DistanceMeters>
          </Trackpoint>
          <Trackpoint>
            <Time>2019-08-01T17:20:43.000Z</Time>
            <Position>
              <LatitudeDegrees>40.47967918217182159423828125</LatitudeDegrees>
              <LongitudeDegrees>-4.03569920919835567474365234375</LongitudeDegrees>
            </Position>
            <AltitudeMeters>743.79998779296875</AltitudeMeters>
            <DistanceMeters>NAN</DistanceMeters>
          </Trackpoint>
          <Trackpoint>
            <Time>2019-08-01T17:20:44.000Z</Time>
            <Position>
              <LatitudeDegrees>40.4795636795461177825927734375</LatitudeDegrees>
              <LongitudeDegrees>-4.0355254523456096649169921875</LongitudeDegrees>
            </Position>
            <AltitudeMeters>742.20001220703125</AltitudeMeters>
            <DistanceMeters>NAN</DistanceMeters>
          </Trackpoint>
          <Trackpoint>
            <Time>2019-08-01T17:20:45.000Z</Time>
            <Position>
              <LatitudeDegrees>40.479448176920413970947265625</LatitudeDegrees>
              <LongitudeDegrees>-4.0353514440357685089111328125</LongitudeDegrees>
            </Position>
            <AltitudeMeters>740.79998779296875</AltitudeMeters>
            <DistanceMeters>NAN</DistanceMeters>
          </Trackpoint>
          <Trackpoint>
            <Time>2019-08-01T17:20:46.000Z</Time>
            <Position>
              <LatitudeDegrees>40.47933225519955158233642578125</LatitudeDegrees>
              <LongitudeDegrees>-4.03517835773527622222900390625</LongitudeDegrees>
            </Position>
            <AltitudeMeters>739.5999755859375</AltitudeMeters>
            <DistanceMeters>NAN</DistanceMeters>
          </Trackpoint>
          <Trackpoint>
            <Time>2019-08-01T17:20:47.000Z</Time>
            <Position>
              <LatitudeDegrees>40.47921490855515003204345703125</LatitudeDegrees>
              <LongitudeDegrees>-4.03500669635832309722900390625</LongitudeDegrees>
            </Position>
            <AltitudeMeters>738</AltitudeMeters>
            <DistanceMeters>NAN</DistanceMeters>
          </Trackpoint>
          <Trackpoint>
            <Time>2019-08-01T17:20:49.000Z</Time>
            <Position>
              <LatitudeDegrees>40.4789756052196025848388671875</LatitudeDegrees>
              <LongitudeDegrees>-4.03466924093663692474365234375</LongitudeDegrees>
            </Position>
            <AltitudeMeters>736.5999755859375</AltitudeMeters>
            <DistanceMeters>NAN</DistanceMeters>
          </Trackpoint>
          <Trackpoint>
            <Time>2019-08-01T17:20:50.000Z</Time>
            <Position>
              <LatitudeDegrees>40.4788525588810443878173828125</LatitudeDegrees>
              <LongitudeDegrees>-4.03450478799641132354736328125</LongitudeDegrees>
            </Position>
            <AltitudeMeters>736</AltitudeMeters>
            <DistanceMeters>NAN</DistanceMeters>
          </Trackpoint>
          <Trackpoint>
            <Time>2019-08-01T17:20:51.000Z</Time>
            <Position>
              <LatitudeDegrees>40.47872657887637615203857421875</LatitudeDegrees>
              <LongitudeDegrees>-4.0343436039984226226806640625</LongitudeDegrees>
            </Position>
            <AltitudeMeters>735.20001220703125</AltitudeMeters>
            <DistanceMeters>NAN</DistanceMeters>
          </Trackpoint>
          <Trackpoint>
            <Time>2019-08-01T17:20:52.000Z</Time>
            <Position>
              <LatitudeDegrees>40.47859448008239269256591796875</LatitudeDegrees>
              <LongitudeDegrees>-4.0341890417039394378662109375</LongitudeDegrees>
            </Position>
            <AltitudeMeters>733.79998779296875</AltitudeMeters>
            <DistanceMeters>NAN</DistanceMeters>
          </Trackpoint>
          <Trackpoint>
            <Time>2019-08-01T17:20:53.000Z</Time>
            <Position>
              <LatitudeDegrees>40.47845567576587200164794921875</LatitudeDegrees>
              <LongitudeDegrees>-4.03404562734067440032958984375</LongitudeDegrees>
            </Position>
            <AltitudeMeters>732</AltitudeMeters>
            <DistanceMeters>NAN</DistanceMeters>
          </Trackpoint>
          <Trackpoint>
            <Time>2019-08-01T17:20:54.000Z</Time>
            <Position>
              <LatitudeDegrees>40.47831284813582897186279296875</LatitudeDegrees>
              <LongitudeDegrees>-4.033911265432834625244140625</LongitudeDegrees>
            </Position>
            <AltitudeMeters>730.79998779296875</AltitudeMeters>
            <DistanceMeters>NAN</DistanceMeters>
          </Trackpoint>
          <Trackpoint>
            <Time>2019-08-01T17:20:55.000Z</Time>
            <Position>
              <LatitudeDegrees>40.47816909849643707275390625</LatitudeDegrees>
              <LongitudeDegrees>-4.0337796695530414581298828125</LongitudeDegrees>
            </Position>
            <AltitudeMeters>729.20001220703125</AltitudeMeters>
            <DistanceMeters>NAN</DistanceMeters>
          </Trackpoint>
          <Trackpoint>
            <Time>2019-08-01T17:20:57.000Z</Time>
            <Position>
              <LatitudeDegrees>40.47789425589144229888916015625</LatitudeDegrees>
              <LongitudeDegrees>-4.03350197710096836090087890625</LongitudeDegrees>
            </Position>
            <AltitudeMeters>726.4000244140625</AltitudeMeters>
            <DistanceMeters>NAN</DistanceMeters>
          </Trackpoint>
          <Trackpoint>
            <Time>2019-08-01T17:20:58.000Z</Time>
            <Position>
              <LatitudeDegrees>40.4777716286480426788330078125</LatitudeDegrees>
              <LongitudeDegrees>-4.03334288857877254486083984375</LongitudeDegrees>
            </Position>
            <AltitudeMeters>725</AltitudeMeters>
            <DistanceMeters>NAN</DistanceMeters>
          </Trackpoint>
          <Trackpoint>
            <Time>2019-08-01T17:20:59.000Z</Time>
            <Position>
              <LatitudeDegrees>40.47766693867743015289306640625</LatitudeDegrees>
              <LongitudeDegrees>-4.033165276050567626953125</LongitudeDegrees>
            </Position>
            <AltitudeMeters>723.5999755859375</AltitudeMeters>
            <DistanceMeters>NAN</DistanceMeters>
          </Trackpoint>
          <Trackpoint>
            <Time>2019-08-01T17:21:00.000Z</Time>
            <Position>
              <LatitudeDegrees>40.477578677237033843994140625</LatitudeDegrees>
              <LongitudeDegrees>-4.0329723246395587921142578125</LongitudeDegrees>
            </Position>
            <AltitudeMeters>722.4000244140625</AltitudeMeters>
            <DistanceMeters>NAN</DistanceMeters>
          </Trackpoint>
          <Trackpoint>
            <Time>2019-08-01T17:21:01.000Z</Time>
            <Position>
              <LatitudeDegrees>40.477506928145885467529296875</LatitudeDegrees>
              <LongitudeDegrees>-4.03276319615542888641357421875</LongitudeDegrees>
            </Position>
            <AltitudeMeters>721.4000244140625</AltitudeMeters>
            <DistanceMeters>NAN</DistanceMeters>
          </Trackpoint>
          <Trackpoint>
            <Time>2019-08-01T17:21:02.000Z</Time>
            <Position>
              <LatitudeDegrees>40.47745705582201480865478515625</LatitudeDegrees>
              <LongitudeDegrees>-4.03254660777747631072998046875</LongitudeDegrees>
            </Position>
            <AltitudeMeters>719</AltitudeMeters>
            <DistanceMeters>NAN</DistanceMeters>
          </Trackpoint>
          <Trackpoint>
            <Time>2019-08-01T17:21:03.000Z</Time>
            <Position>
              <LatitudeDegrees>40.47742906026542186737060546875</LatitudeDegrees>
              <LongitudeDegrees>-4.03232297860085964202880859375</LongitudeDegrees>
            </Position>
            <AltitudeMeters>717.20001220703125</AltitudeMeters>
            <DistanceMeters>NAN</DistanceMeters>
          </Trackpoint>
          <Trackpoint>
            <Time>2019-08-01T17:21:04.000Z</Time>
            <Position>
              <LatitudeDegrees>40.47742520458996295928955078125</LatitudeDegrees>
              <LongitudeDegrees>-4.03209499083459377288818359375</LongitudeDegrees>
            </Position>
            <AltitudeMeters>715.5999755859375</AltitudeMeters>
            <DistanceMeters>NAN</DistanceMeters>
          </Trackpoint>
          <Trackpoint>
            <Time>2019-08-01T17:21:05.000Z</Time>
            <Position>
              <LatitudeDegrees>40.47743995673954486846923828125</LatitudeDegrees>
              <LongitudeDegrees>-4.03186532668769359588623046875</LongitudeDegrees>
            </Position>
            <AltitudeMeters>714.4000244140625</AltitudeMeters>
            <DistanceMeters>NAN</DistanceMeters>
          </Trackpoint>
          <Trackpoint>
            <Time>2019-08-01T17:21:06.000Z</Time>
            <Position>
              <LatitudeDegrees>40.47746770083904266357421875</LatitudeDegrees>
              <LongitudeDegrees>-4.03163700364530086517333984375</LongitudeDegrees>
            </Position>
            <AltitudeMeters>713.79998779296875</AltitudeMeters>
            <DistanceMeters>NAN</DistanceMeters>
          </Trackpoint>
          <Trackpoint>
            <Time>2019-08-01T17:21:07.000Z</Time>
            <Position>
              <LatitudeDegrees>40.47750298865139484405517578125</LatitudeDegrees>
              <LongitudeDegrees>-4.03140868060290813446044921875</LongitudeDegrees>
            </Position>
            <AltitudeMeters>712.79998779296875</AltitudeMeters>
            <DistanceMeters>NAN</DistanceMeters>
          </Trackpoint>
          <Trackpoint>
            <Time>2019-08-01T17:21:08.000Z</Time>
            <Position>
              <LatitudeDegrees>40.47753903083503246307373046875</LatitudeDegrees>
              <LongitudeDegrees>-4.03117985464632511138916015625</LongitudeDegrees>
            </Position>
            <AltitudeMeters>712</AltitudeMeters>
            <DistanceMeters>NAN</DistanceMeters>
          </Trackpoint>
          <Trackpoint>
            <Time>2019-08-01T17:21:09.000Z</Time>
            <Position>
              <LatitudeDegrees>40.47757138498127460479736328125</LatitudeDegrees>
              <LongitudeDegrees>-4.03094985522329807281494140625</LongitudeDegrees>
            </Position>
            <AltitudeMeters>711.20001220703125</AltitudeMeters>
            <DistanceMeters>NAN</DistanceMeters>
          </Trackpoint>
          <Trackpoint>
            <Time>2019-08-01T17:21:10.000Z</Time>
            <Position>
              <LatitudeDegrees>40.4776009730994701385498046875</LatitudeDegrees>
              <LongitudeDegrees>-4.03072102926671504974365234375</LongitudeDegrees>
            </Position>
            <AltitudeMeters>710.5999755859375</AltitudeMeters>
            <DistanceMeters>NAN</DistanceMeters>
          </Trackpoint>
          <Trackpoint>
            <Time>2019-08-01T17:21:11.000Z</Time>
            <Position>
              <LatitudeDegrees>40.47762536443769931793212890625</LatitudeDegrees>
              <LongitudeDegrees>-4.030490107834339141845703125</LongitudeDegrees>
            </Position>
            <AltitudeMeters>710</AltitudeMeters>
            <DistanceMeters>NAN</DistanceMeters>
          </Trackpoint>
          <Trackpoint>
            <Time>2019-08-01T17:21:12.000Z</Time>
            <Position>
              <LatitudeDegrees>40.477641038596630096435546875</LatitudeDegrees>
              <LongitudeDegrees>-4.03025650419294834136962890625</LongitudeDegrees>
            </Position>
            <AltitudeMeters>709.4000244140625</AltitudeMeters>
            <DistanceMeters>NAN</DistanceMeters>
          </Trackpoint>
          <Trackpoint>
            <Time>2019-08-01T17:21:13.000Z</Time>
            <Position>
              <LatitudeDegrees>40.47764481045305728912353515625</LatitudeDegrees>
              <LongitudeDegrees>-4.03002298437058925628662109375</LongitudeDegrees>
            </Position>
            <AltitudeMeters>708.79998779296875</AltitudeMeters>
            <DistanceMeters>NAN</DistanceMeters>
          </Trackpoint>
          <Trackpoint>
            <Time>2019-08-01T17:21:14.000Z</Time>
            <Position>
              <LatitudeDegrees>40.477637685835361480712890625</LatitudeDegrees>
              <LongitudeDegrees>-4.02978879399597644805908203125</LongitudeDegrees>
            </Position>
            <AltitudeMeters>708</AltitudeMeters>
            <DistanceMeters>NAN</DistanceMeters>
          </Trackpoint>
          <Trackpoint>
            <Time>2019-08-01T17:21:15.000Z</Time>
            <Position>
              <LatitudeDegrees>40.477625615894794464111328125</LatitudeDegrees>
              <LongitudeDegrees>-4.02955292724072933197021484375</LongitudeDegrees>
            </Position>
            <AltitudeMeters>706.79998779296875</AltitudeMeters>
            <DistanceMeters>NAN</DistanceMeters>
          </Trackpoint>
          <Trackpoint>
            <Time>2019-08-01T17:21:16.000Z</Time>
            <Position>
              <LatitudeDegrees>40.4776110313832759857177734375</LatitudeDegrees>
              <LongitudeDegrees>-4.02931504882872104644775390625</LongitudeDegrees>
            </Position>
            <AltitudeMeters>705.20001220703125</AltitudeMeters>
            <DistanceMeters>NAN</DistanceMeters>
          </Trackpoint>
          <Trackpoint>
            <Time>2019-08-01T17:21:17.000Z</Time>
            <Position>
              <LatitudeDegrees>40.47759644687175750732421875</LatitudeDegrees>
              <LongitudeDegrees>-4.0290760807693004608154296875</LongitudeDegrees>
            </Position>
            <AltitudeMeters>703.79998779296875</AltitudeMeters>
            <DistanceMeters>NAN</DistanceMeters>
          </Trackpoint>
          <Trackpoint>
            <Time>2019-08-01T17:21:18.000Z</Time>
            <Position>
              <LatitudeDegrees>40.47758379019796848297119140625</LatitudeDegrees>
              <LongitudeDegrees>-4.02883593924343585968017578125</LongitudeDegrees>
            </Position>
            <AltitudeMeters>702.20001220703125</AltitudeMeters>
            <DistanceMeters>NAN</DistanceMeters>
          </Trackpoint>
          <Trackpoint>
            <Time>2019-08-01T17:21:19.000Z</Time>
            <Position>
              <LatitudeDegrees>40.4775768332183361053466796875</LatitudeDegrees>
              <LongitudeDegrees>-4.02859269641339778900146484375</LongitudeDegrees>
            </Position>
            <AltitudeMeters>701.4000244140625</AltitudeMeters>
            <DistanceMeters>NAN</DistanceMeters>
          </Trackpoint>
          <Trackpoint>
            <Time>2019-08-01T17:21:21.000Z</Time>
            <Position>
              <LatitudeDegrees>40.4775922559201717376708984375</LatitudeDegrees>
              <LongitudeDegrees>-4.0281024388968944549560546875</LongitudeDegrees>
            </Position>
            <AltitudeMeters>698.79998779296875</AltitudeMeters>
            <DistanceMeters>NAN</DistanceMeters>
          </Trackpoint>
          <Trackpoint>
            <Time>2019-08-01T17:21:22.000Z</Time>
            <Position>
              <LatitudeDegrees>40.4776147194206714630126953125</LatitudeDegrees>
              <LongitudeDegrees>-4.0278590284287929534912109375</LongitudeDegrees>
            </Position>
            <AltitudeMeters>697.20001220703125</AltitudeMeters>
            <DistanceMeters>NAN</DistanceMeters>
          </Trackpoint>
          <Trackpoint>
            <Time>2019-08-01T17:21:23.000Z</Time>
            <Position>
              <LatitudeDegrees>40.4776413738727569580078125</LatitudeDegrees>
              <LongitudeDegrees>-4.0276152826845645904541015625</LongitudeDegrees>
            </Position>
            <AltitudeMeters>696.4000244140625</AltitudeMeters>
            <DistanceMeters>NAN</DistanceMeters>
          </Trackpoint>
          <Trackpoint>
            <Time>2019-08-01T17:21:24.000Z</Time>
            <Position>
              <LatitudeDegrees>40.4776735603809356689453125</LatitudeDegrees>
              <LongitudeDegrees>-4.02737564407289028167724609375</LongitudeDegrees>
            </Position>
            <AltitudeMeters>695.79998779296875</AltitudeMeters>
            <DistanceMeters>NAN</DistanceMeters>
          </Trackpoint>
          <Trackpoint>
            <Time>2019-08-01T17:21:25.000Z</Time>
            <Position>
              <LatitudeDegrees>40.477707423269748687744140625</LatitudeDegrees>
              <LongitudeDegrees>-4.02713768184185028076171875</LongitudeDegrees>
            </Position>
            <AltitudeMeters>695.20001220703125</AltitudeMeters>
            <DistanceMeters>NAN</DistanceMeters>
          </Trackpoint>
          <Trackpoint>
            <Time>2019-08-01T17:21:26.000Z</Time>
            <Position>
              <LatitudeDegrees>40.47774128615856170654296875</LatitudeDegrees>
              <LongitudeDegrees>-4.02690173126757144927978515625</LongitudeDegrees>
            </Position>
            <AltitudeMeters>694.20001220703125</AltitudeMeters>
            <DistanceMeters>NAN</DistanceMeters>
          </Trackpoint>
          <Trackpoint>
            <Time>2019-08-01T17:21:27.000Z</Time>
            <Position>
              <LatitudeDegrees>40.47777238301932811737060546875</LatitudeDegrees>
              <LongitudeDegrees>-4.02666904963552951812744140625</LongitudeDegrees>
            </Position>
            <AltitudeMeters>693</AltitudeMeters>
            <DistanceMeters>NAN</DistanceMeters>
          </Trackpoint>
          <Trackpoint>
            <Time>2019-08-01T17:21:28.000Z</Time>
            <Position>
              <LatitudeDegrees>40.47779895365238189697265625</LatitudeDegrees>
              <LongitudeDegrees>-4.02644106186926364898681640625</LongitudeDegrees>
            </Position>
            <AltitudeMeters>691.79998779296875</AltitudeMeters>
            <DistanceMeters>NAN</DistanceMeters>
          </Trackpoint>
          <Trackpoint>
            <Time>2019-08-01T17:21:29.000Z</Time>
            <Position>
              <LatitudeDegrees>40.47782049514353275299072265625</LatitudeDegrees>
              <LongitudeDegrees>-4.0262196958065032958984375</LongitudeDegrees>
            </Position>
            <AltitudeMeters>688.79998779296875</AltitudeMeters>
            <DistanceMeters>NAN</DistanceMeters>
          </Trackpoint>
          <Trackpoint>
            <Time>2019-08-01T17:21:30.000Z</Time>
            <Position>
              <LatitudeDegrees>40.47783759422600269317626953125</LatitudeDegrees>
              <LongitudeDegrees>-4.0260056219995021820068359375</LongitudeDegrees>
            </Position>
            <AltitudeMeters>686.4000244140625</AltitudeMeters>
            <DistanceMeters>NAN</DistanceMeters>
          </Trackpoint>
          <Trackpoint>
            <Time>2019-08-01T17:21:31.000Z</Time>
            <Position>
              <LatitudeDegrees>40.47784765250980854034423828125</LatitudeDegrees>
              <LongitudeDegrees>-4.02579615823924541473388671875</LongitudeDegrees>
            </Position>
            <AltitudeMeters>685.20001220703125</AltitudeMeters>
            <DistanceMeters>NAN</DistanceMeters>
          </Trackpoint>
          <Trackpoint>
            <Time>2019-08-01T17:21:33.000Z</Time>
            <Position>
              <LatitudeDegrees>40.477854274213314056396484375</LatitudeDegrees>
              <LongitudeDegrees>-4.02539265342056751251220703125</LongitudeDegrees>
            </Position>
            <AltitudeMeters>684</AltitudeMeters>
            <DistanceMeters>NAN</DistanceMeters>
          </Trackpoint>
          <Trackpoint>
            <Time>2019-08-01T17:21:34.000Z</Time>
            <Position>
              <LatitudeDegrees>40.47785259783267974853515625</LatitudeDegrees>
              <LongitudeDegrees>-4.0251955948770046234130859375</LongitudeDegrees>
            </Position>
            <AltitudeMeters>683.5999755859375</AltitudeMeters>
            <DistanceMeters>NAN</DistanceMeters>
          </Trackpoint>
          <Trackpoint>
            <Time>2019-08-01T17:21:35.000Z</Time>
            <Position>
              <LatitudeDegrees>40.47784631140530109405517578125</LatitudeDegrees>
              <LongitudeDegrees>-4.025003649294376373291015625</LongitudeDegrees>
            </Position>
            <AltitudeMeters>683.5999755859375</AltitudeMeters>
            <DistanceMeters>NAN</DistanceMeters>
          </Trackpoint>
          <Trackpoint>
            <Time>2019-08-01T17:21:36.000Z</Time>
            <Position>
              <LatitudeDegrees>40.47783541493117809295654296875</LatitudeDegrees>
              <LongitudeDegrees>-4.02481622993946075439453125</LongitudeDegrees>
            </Position>
            <AltitudeMeters>683.5999755859375</AltitudeMeters>
            <DistanceMeters>NAN</DistanceMeters>
          </Trackpoint>
          <Trackpoint>
            <Time>2019-08-01T17:21:37.000Z</Time>
            <Position>
              <LatitudeDegrees>40.47782083041965961456298828125</LatitudeDegrees>
              <LongitudeDegrees>-4.0246333368122577667236328125</LongitudeDegrees>
            </Position>
            <AltitudeMeters>683.4000244140625</AltitudeMeters>
            <DistanceMeters>NAN</DistanceMeters>
          </Trackpoint>
          <Trackpoint>
            <Time>2019-08-01T17:21:38.000Z</Time>
            <Position>
              <LatitudeDegrees>40.477803982794284820556640625</LatitudeDegrees>
              <LongitudeDegrees>-4.0244559757411479949951171875</LongitudeDegrees>
            </Position>
            <AltitudeMeters>683.20001220703125</AltitudeMeters>
            <DistanceMeters>NAN</DistanceMeters>
          </Trackpoint>
          <Trackpoint>
            <Time>2019-08-01T17:21:39.000Z</Time>
            <Position>
              <LatitudeDegrees>40.47778420150279998779296875</LatitudeDegrees>
              <LongitudeDegrees>-4.02428238652646541595458984375</LongitudeDegrees>
            </Position>
            <AltitudeMeters>683.20001220703125</AltitudeMeters>
            <DistanceMeters>NAN</DistanceMeters>
          </Trackpoint>
          <Trackpoint>
            <Time>2019-08-01T17:21:40.000Z</Time>
            <Position>
              <LatitudeDegrees>40.47776131890714168548583984375</LatitudeDegrees>
              <LongitudeDegrees>-4.0241126529872417449951171875</LongitudeDegrees>
            </Position>
            <AltitudeMeters>683</AltitudeMeters>
            <DistanceMeters>NAN</DistanceMeters>
          </Trackpoint>
          <Trackpoint>
            <Time>2019-08-01T17:21:41.000Z</Time>
            <Position>
              <LatitudeDegrees>40.4777354188263416290283203125</LatitudeDegrees>
              <LongitudeDegrees>-4.02394451200962066650390625</LongitudeDegrees>
            </Position>
            <AltitudeMeters>683.20001220703125</AltitudeMeters>
            <DistanceMeters>NAN</DistanceMeters>
          </Trackpoint>
          <Trackpoint>
            <Time>2019-08-01T17:21:42.000Z</Time>
            <Position>
              <LatitudeDegrees>40.4777055792510509490966796875</LatitudeDegrees>
              <LongitudeDegrees>-4.0237787179648876190185546875</LongitudeDegrees>
            </Position>
            <AltitudeMeters>683</AltitudeMeters>
            <DistanceMeters>NAN</DistanceMeters>
          </Trackpoint>
          <Trackpoint>
            <Time>2019-08-01T17:21:43.000Z</Time>
            <Position>
              <LatitudeDegrees>40.47767280600965023040771484375</LatitudeDegrees>
              <LongitudeDegrees>-4.02361585758626461029052734375</LongitudeDegrees>
            </Position>
            <AltitudeMeters>682.79998779296875</AltitudeMeters>
            <DistanceMeters>NAN</DistanceMeters>
          </Trackpoint>
          <Trackpoint>
            <Time>2019-08-01T17:21:44.000Z</Time>
            <Position>
              <LatitudeDegrees>40.47763760201632976531982421875</LatitudeDegrees>
              <LongitudeDegrees>-4.02345576323568820953369140625</LongitudeDegrees>
            </Position>
            <AltitudeMeters>682.79998779296875</AltitudeMeters>
            <DistanceMeters>NAN</DistanceMeters>
          </Trackpoint>
          <Trackpoint>
            <Time>2019-08-01T17:21:45.000Z</Time>
            <Position>
              <LatitudeDegrees>40.4775996319949626922607421875</LatitudeDegrees>
              <LongitudeDegrees>-4.02329717762768268585205078125</LongitudeDegrees>
            </Position>
            <AltitudeMeters>682.79998779296875</AltitudeMeters>
            <DistanceMeters>NAN</DistanceMeters>
          </Trackpoint>
          <Trackpoint>
            <Time>2019-08-01T17:21:46.000Z</Time>
            <Position>
              <LatitudeDegrees>40.47755914740264415740966796875</LatitudeDegrees>
              <LongitudeDegrees>-4.02314077131450176239013671875</LongitudeDegrees>
            </Position>
            <AltitudeMeters>682.79998779296875</AltitudeMeters>
            <DistanceMeters>NAN</DistanceMeters>
          </Trackpoint>
          <Trackpoint>
            <Time>2019-08-01T17:21:47.000Z</Time>
            <Position>
              <LatitudeDegrees>40.477516315877437591552734375</LatitudeDegrees>
              <LongitudeDegrees>-4.02298755012452602386474609375</LongitudeDegrees>
            </Position>
            <AltitudeMeters>682.79998779296875</AltitudeMeters>
            <DistanceMeters>NAN</DistanceMeters>
          </Trackpoint>
          <Trackpoint>
            <Time>2019-08-01T17:21:48.000Z</Time>
            <Position>
              <LatitudeDegrees>40.47747172415256500244140625</LatitudeDegrees>
              <LongitudeDegrees>-4.02283650822937488555908203125</LongitudeDegrees>
            </Position>
            <AltitudeMeters>682.5999755859375</AltitudeMeters>
            <DistanceMeters>NAN</DistanceMeters>
          </Trackpoint>
          <Trackpoint>
            <Time>2019-08-01T17:21:50.000Z</Time>
            <Position>
              <LatitudeDegrees>40.47737457789480686187744140625</LatitudeDegrees>
              <LongitudeDegrees>-4.02254230342805385589599609375</LongitudeDegrees>
            </Position>
            <AltitudeMeters>682.4000244140625</AltitudeMeters>
            <DistanceMeters>NAN</DistanceMeters>
          </Trackpoint>
          <Trackpoint>
            <Time>2019-08-01T17:21:51.000Z</Time>
            <Position>
              <LatitudeDegrees>40.4773233644664287567138671875</LatitudeDegrees>
              <LongitudeDegrees>-4.02239955961704254150390625</LongitudeDegrees>
            </Position>
            <AltitudeMeters>682.20001220703125</AltitudeMeters>
            <DistanceMeters>NAN</DistanceMeters>
          </Trackpoint>
          <Trackpoint>
            <Time>2019-08-01T17:21:52.000Z</Time>
            <Position>
              <LatitudeDegrees>40.4772712290287017822265625</LatitudeDegrees>
              <LongitudeDegrees>-4.0222602523863315582275390625</LongitudeDegrees>
            </Position>
            <AltitudeMeters>682.20001220703125</AltitudeMeters>
            <DistanceMeters>NAN</DistanceMeters>
          </Trackpoint>
          <Trackpoint>
            <Time>2019-08-01T17:21:53.000Z</Time>
            <Position>
              <LatitudeDegrees>40.47721817158162593841552734375</LatitudeDegrees>
              <LongitudeDegrees>-4.02212404645979404449462890625</LongitudeDegrees>
            </Position>
            <AltitudeMeters>682</AltitudeMeters>
            <DistanceMeters>NAN</DistanceMeters>
          </Trackpoint>
          <Trackpoint>
            <Time>2019-08-01T17:21:54.000Z</Time>
            <Position>
              <LatitudeDegrees>40.47716301865875720977783203125</LatitudeDegrees>
              <LongitudeDegrees>-4.02198976837098598480224609375</LongitudeDegrees>
            </Position>
            <AltitudeMeters>682</AltitudeMeters>
            <DistanceMeters>NAN</DistanceMeters>
          </Trackpoint>
          <Trackpoint>
            <Time>2019-08-01T17:21:55.000Z</Time>
            <Position>
              <LatitudeDegrees>40.47710568644106388092041015625</LatitudeDegrees>
              <LongitudeDegrees>-4.02186202816665172576904296875</LongitudeDegrees>
            </Position>
            <AltitudeMeters>682</AltitudeMeters>
            <DistanceMeters>NAN</DistanceMeters>
          </Trackpoint>
          <Trackpoint>
            <Time>2019-08-01T17:21:56.000Z</Time>
            <Position>
              <LatitudeDegrees>40.4770477674901485443115234375</LatitudeDegrees>
              <LongitudeDegrees>-4.02173973619937896728515625</LongitudeDegrees>
            </Position>
            <AltitudeMeters>682</AltitudeMeters>
            <DistanceMeters>NAN</DistanceMeters>
          </Trackpoint>
          <Trackpoint>
            <Time>2019-08-01T17:21:57.000Z</Time>
            <Position>
              <LatitudeDegrees>40.47698892652988433837890625</LatitudeDegrees>
              <LongitudeDegrees>-4.02162230573594570159912109375</LongitudeDegrees>
            </Position>
            <AltitudeMeters>682</AltitudeMeters>
            <DistanceMeters>NAN</DistanceMeters>
          </Trackpoint>
          <Trackpoint>
            <Time>2019-08-01T17:21:58.000Z</Time>
            <Position>
              <LatitudeDegrees>40.47693050466477870941162109375</LatitudeDegrees>
              <LongitudeDegrees>-4.0215088985860347747802734375</LongitudeDegrees>
            </Position>
            <AltitudeMeters>682</AltitudeMeters>
            <DistanceMeters>NAN</DistanceMeters>
          </Trackpoint>
          <Trackpoint>
            <Time>2019-08-01T17:21:59.000Z</Time>
            <Position>
              <LatitudeDegrees>40.4768724180757999420166015625</LatitudeDegrees>
              <LongitudeDegrees>-4.02139901183545589447021484375</LongitudeDegrees>
            </Position>
            <AltitudeMeters>682</AltitudeMeters>
            <DistanceMeters>NAN</DistanceMeters>
          </Trackpoint>
          <Trackpoint>
            <Time>2019-08-01T17:22:00.000Z</Time>
            <Position>
              <LatitudeDegrees>40.47681382857263088226318359375</LatitudeDegrees>
              <LongitudeDegrees>-4.021292813122272491455078125</LongitudeDegrees>
            </Position>
            <AltitudeMeters>682</AltitudeMeters>
            <DistanceMeters>NAN</DistanceMeters>
          </Trackpoint>
          <Trackpoint>
            <Time>2019-08-01T17:22:01.000Z</Time>
            <Position>
              <LatitudeDegrees>40.47681382857263088226318359375</LatitudeDegrees>
              <LongitudeDegrees>-4.021292813122272491455078125</LongitudeDegrees>
            </Position>
            <AltitudeMeters>682</AltitudeMeters>
            <DistanceMeters>NAN</DistanceMeters>
          </Trackpoint>
          <Trackpoint>
            <Time>2019-08-01T17:22:02.000Z</Time>
            <Position>
              <LatitudeDegrees>40.47669530846178531646728515625</LatitudeDegrees>
              <LongitudeDegrees>-4.02108888141810894012451171875</LongitudeDegrees>
            </Position>
            <AltitudeMeters>682.20001220703125</AltitudeMeters>
            <DistanceMeters>NAN</DistanceMeters>
          </Trackpoint>
          <Trackpoint>
            <Time>2019-08-01T17:22:03.000Z</Time>
            <Position>
              <LatitudeDegrees>40.4766343720257282257080078125</LatitudeDegrees>
              <LongitudeDegrees>-4.02099148370325565338134765625</LongitudeDegrees>
            </Position>
            <AltitudeMeters>682.20001220703125</AltitudeMeters>
            <DistanceMeters>NAN</DistanceMeters>
          </Trackpoint>
          <Trackpoint>
            <Time>2019-08-01T17:22:04.000Z</Time>
            <Position>
              <LatitudeDegrees>40.4765730164945125579833984375</LatitudeDegrees>
              <LongitudeDegrees>-4.02089618146419525146484375</LongitudeDegrees>
            </Position>
            <AltitudeMeters>682.4000244140625</AltitudeMeters>
            <DistanceMeters>NAN</DistanceMeters>
          </Trackpoint>
          <Trackpoint>
            <Time>2019-08-01T17:22:05.000Z</Time>
            <Position>
              <LatitudeDegrees>40.4765113256871700286865234375</LatitudeDegrees>
              <LongitudeDegrees>-4.020801968872547149658203125</LongitudeDegrees>
            </Position>
            <AltitudeMeters>682.5999755859375</AltitudeMeters>
            <DistanceMeters>NAN</DistanceMeters>
          </Trackpoint>
          <Trackpoint>
            <Time>2019-08-01T17:22:06.000Z</Time>
            <Position>
              <LatitudeDegrees>40.47644955106079578399658203125</LatitudeDegrees>
              <LongitudeDegrees>-4.0207085944712162017822265625</LongitudeDegrees>
            </Position>
            <AltitudeMeters>682.79998779296875</AltitudeMeters>
            <DistanceMeters>NAN</DistanceMeters>
          </Trackpoint>
          <Trackpoint>
            <Time>2019-08-01T17:22:07.000Z</Time>
            <Position>
              <LatitudeDegrees>40.47638635151088237762451171875</LatitudeDegrees>
              <LongitudeDegrees>-4.02061647735536098480224609375</LongitudeDegrees>
            </Position>
            <AltitudeMeters>682.79998779296875</AltitudeMeters>
            <DistanceMeters>NAN</DistanceMeters>
          </Trackpoint>
          <Trackpoint>
            <Time>2019-08-01T17:22:08.000Z</Time>
            <Position>
              <LatitudeDegrees>40.47632264904677867889404296875</LatitudeDegrees>
              <LongitudeDegrees>-4.02052444405853748321533203125</LongitudeDegrees>
            </Position>
            <AltitudeMeters>683</AltitudeMeters>
            <DistanceMeters>NAN</DistanceMeters>
          </Trackpoint>
          <Trackpoint>
            <Time>2019-08-01T17:22:09.000Z</Time>
            <Position>
              <LatitudeDegrees>40.47625877894461154937744140625</LatitudeDegrees>
              <LongitudeDegrees>-4.02043174020946025848388671875</LongitudeDegrees>
            </Position>
            <AltitudeMeters>683.20001220703125</AltitudeMeters>
            <DistanceMeters>NAN</DistanceMeters>
          </Trackpoint>
          <Trackpoint>
            <Time>2019-08-01T17:22:10.000Z</Time>
            <Position>
              <LatitudeDegrees>40.47619365155696868896484375</LatitudeDegrees>
              <LongitudeDegrees>-4.0203391201794147491455078125</LongitudeDegrees>
            </Position>
            <AltitudeMeters>683.4000244140625</AltitudeMeters>
            <DistanceMeters>NAN</DistanceMeters>
          </Trackpoint>
          <Trackpoint>
            <Time>2019-08-01T17:22:11.000Z</Time>
            <Position>
              <LatitudeDegrees>40.4761270992457866668701171875</LatitudeDegrees>
              <LongitudeDegrees>-4.02024717070162296295166015625</LongitudeDegrees>
            </Position>
            <AltitudeMeters>683.4000244140625</AltitudeMeters>
            <DistanceMeters>NAN</DistanceMeters>
          </Trackpoint>
          <Trackpoint>
            <Time>2019-08-01T17:22:12.000Z</Time>
            <Position>
              <LatitudeDegrees>40.47605962492525577545166015625</LatitudeDegrees>
              <LongitudeDegrees>-4.02015396393835544586181640625</LongitudeDegrees>
            </Position>
            <AltitudeMeters>683.4000244140625</AltitudeMeters>
            <DistanceMeters>NAN</DistanceMeters>
          </Trackpoint>
          <Trackpoint>
            <Time>2019-08-01T17:22:13.000Z</Time>
            <Position>
              <LatitudeDegrees>40.47599106095731258392333984375</LatitudeDegrees>
              <LongitudeDegrees>-4.02006008662283420562744140625</LongitudeDegrees>
            </Position>
            <AltitudeMeters>683.4000244140625</AltitudeMeters>
            <DistanceMeters>NAN</DistanceMeters>
          </Trackpoint>
          <Trackpoint>
            <Time>2019-08-01T17:22:14.000Z</Time>
            <Position>
              <LatitudeDegrees>40.47592082060873508453369140625</LatitudeDegrees>
              <LongitudeDegrees>-4.01996612548828125</LongitudeDegrees>
            </Position>
            <AltitudeMeters>683.4000244140625</AltitudeMeters>
            <DistanceMeters>NAN</DistanceMeters>
          </Trackpoint>
          <Trackpoint>
            <Time>2019-08-01T17:22:15.000Z</Time>
            <Position>
              <LatitudeDegrees>40.47592082060873508453369140625</LatitudeDegrees>
              <LongitudeDegrees>-4.01996612548828125</LongitudeDegrees>
            </Position>
            <AltitudeMeters>683.4000244140625</AltitudeMeters>
            <DistanceMeters>NAN</DistanceMeters>
          </Trackpoint>
          <Trackpoint>
            <Time>2019-08-01T17:22:16.000Z</Time>
            <Position>
              <LatitudeDegrees>40.47592082060873508453369140625</LatitudeDegrees>
              <LongitudeDegrees>-4.01996612548828125</LongitudeDegrees>
            </Position>
            <AltitudeMeters>683.4000244140625</AltitudeMeters>
            <DistanceMeters>NAN</DistanceMeters>
          </Trackpoint>
          <Trackpoint>
            <Time>2019-08-01T17:22:17.000Z</Time>
            <Position>
              <LatitudeDegrees>40.47570389695465564727783203125</LatitudeDegrees>
              <LongitudeDegrees>-4.01968424208462238311767578125</LongitudeDegrees>
            </Position>
            <AltitudeMeters>683.4000244140625</AltitudeMeters>
            <DistanceMeters>NAN</DistanceMeters>
          </Trackpoint>
          <Trackpoint>
            <Time>2019-08-01T17:22:18.000Z</Time>
            <Position>
              <LatitudeDegrees>40.47562963329255580902099609375</LatitudeDegrees>
              <LongitudeDegrees>-4.01959103532135486602783203125</LongitudeDegrees>
            </Position>
            <AltitudeMeters>683.4000244140625</AltitudeMeters>
            <DistanceMeters>NAN</DistanceMeters>
          </Trackpoint>
          <Trackpoint>
            <Time>2019-08-01T17:22:19.000Z</Time>
            <Position>
              <LatitudeDegrees>40.47555419616401195526123046875</LatitudeDegrees>
              <LongitudeDegrees>-4.0194972418248653411865234375</LongitudeDegrees>
            </Position>
            <AltitudeMeters>683.4000244140625</AltitudeMeters>
            <DistanceMeters>NAN</DistanceMeters>
          </Trackpoint>
          <Trackpoint>
            <Time>2019-08-01T17:22:20.000Z</Time>
            <Position>
              <LatitudeDegrees>40.47555419616401195526123046875</LatitudeDegrees>
              <LongitudeDegrees>-4.0194972418248653411865234375</LongitudeDegrees>
            </Position>
            <AltitudeMeters>683.4000244140625</AltitudeMeters>
            <DistanceMeters>NAN</DistanceMeters>
          </Trackpoint>
          <Trackpoint>
            <Time>2019-08-01T17:22:21.000Z</Time>
            <Position>
              <LatitudeDegrees>40.47540147788822650909423828125</LatitudeDegrees>
              <LongitudeDegrees>-4.01930831372737884521484375</LongitudeDegrees>
            </Position>
            <AltitudeMeters>683.4000244140625</AltitudeMeters>
            <DistanceMeters>NAN</DistanceMeters>
          </Trackpoint>
          <Trackpoint>
            <Time>2019-08-01T17:22:22.000Z</Time>
            <Position>
              <LatitudeDegrees>40.4753234423696994781494140625</LatitudeDegrees>
              <LongitudeDegrees>-4.01921502314507961273193359375</LongitudeDegrees>
            </Position>
            <AltitudeMeters>683</AltitudeMeters>
            <DistanceMeters>NAN</DistanceMeters>
          </Trackpoint>
          <Trackpoint>
            <Time>2019-08-01T17:22:23.000Z</Time>
            <Position>
              <LatitudeDegrees>40.4752439819276332855224609375</LatitudeDegrees>
              <LongitudeDegrees>-4.019122235476970672607421875</LongitudeDegrees>
            </Position>
            <AltitudeMeters>682.5999755859375</AltitudeMeters>
            <DistanceMeters>NAN</DistanceMeters>
          </Trackpoint>
          <Trackpoint>
            <Time>2019-08-01T17:22:24.000Z</Time>
            <Position>
              <LatitudeDegrees>40.47516376711428165435791015625</LatitudeDegrees>
              <LongitudeDegrees>-4.01902995072305202484130859375</LongitudeDegrees>
            </Position>
            <AltitudeMeters>682.20001220703125</AltitudeMeters>
            <DistanceMeters>NAN</DistanceMeters>
          </Trackpoint>
          <Trackpoint>
            <Time>2019-08-01T17:22:25.000Z</Time>
            <Position>
              <LatitudeDegrees>40.47508296556770801544189453125</LatitudeDegrees>
              <LongitudeDegrees>-4.0189386717975139617919921875</LongitudeDegrees>
            </Position>
            <AltitudeMeters>681.4000244140625</AltitudeMeters>
            <DistanceMeters>NAN</DistanceMeters>
          </Trackpoint>
          <Trackpoint>
            <Time>2019-08-01T17:22:26.000Z</Time>
            <Position>
              <LatitudeDegrees>40.475001744925975799560546875</LatitudeDegrees>
              <LongitudeDegrees>-4.01884756051003932952880859375</LongitudeDegrees>
            </Position>
            <AltitudeMeters>681</AltitudeMeters>
            <DistanceMeters>NAN</DistanceMeters>
          </Trackpoint>
          <Trackpoint>
            <Time>2019-08-01T17:22:27.000Z</Time>
            <Position>
              <LatitudeDegrees>40.47492052428424358367919921875</LatitudeDegrees>
              <LongitudeDegrees>-4.01875619776546955108642578125</LongitudeDegrees>
            </Position>
            <AltitudeMeters>680.5999755859375</AltitudeMeters>
            <DistanceMeters>NAN</DistanceMeters>
          </Trackpoint>
          <Trackpoint>
            <Time>2019-08-01T17:22:28.000Z</Time>
            <Position>
              <LatitudeDegrees>40.47483938746154308319091796875</LatitudeDegrees>
              <LongitudeDegrees>-4.01866617612540721893310546875</LongitudeDegrees>
            </Position>
            <AltitudeMeters>680.20001220703125</AltitudeMeters>
            <DistanceMeters>NAN</DistanceMeters>
          </Trackpoint>
          <Trackpoint>
            <Time>2019-08-01T17:22:29.000Z</Time>
            <Position>
              <LatitudeDegrees>40.47475774772465229034423828125</LatitudeDegrees>
              <LongitudeDegrees>-4.01857816614210605621337890625</LongitudeDegrees>
            </Position>
            <AltitudeMeters>679.79998779296875</AltitudeMeters>
            <DistanceMeters>NAN</DistanceMeters>
          </Trackpoint>
          <Trackpoint>
            <Time>2019-08-01T17:22:30.000Z</Time>
            <Position>
              <LatitudeDegrees>40.47467644326388835906982421875</LatitudeDegrees>
              <LongitudeDegrees>-4.01849350892007350921630859375</LongitudeDegrees>
            </Position>
            <AltitudeMeters>679.20001220703125</AltitudeMeters>
            <DistanceMeters>NAN</DistanceMeters>
          </Trackpoint>
          <Trackpoint>
            <Time>2019-08-01T17:22:31.000Z</Time>
            <Position>
              <LatitudeDegrees>40.474596060812473297119140625</LatitudeDegrees>
              <LongitudeDegrees>-4.01841111481189727783203125</LongitudeDegrees>
            </Position>
            <AltitudeMeters>678.79998779296875</AltitudeMeters>
            <DistanceMeters>NAN</DistanceMeters>
          </Trackpoint>
          <Trackpoint>
            <Time>2019-08-01T17:22:32.000Z</Time>
            <Position>
              <LatitudeDegrees>40.4745164327323436737060546875</LatitudeDegrees>
              <LongitudeDegrees>-4.01833039708435535430908203125</LongitudeDegrees>
            </Position>
            <AltitudeMeters>678.4000244140625</AltitudeMeters>
            <DistanceMeters>NAN</DistanceMeters>
          </Trackpoint>
          <Trackpoint>
            <Time>2019-08-01T17:22:33.000Z</Time>
            <Position>
              <LatitudeDegrees>40.474437810480594635009765625</LatitudeDegrees>
              <LongitudeDegrees>-4.0182508528232574462890625</LongitudeDegrees>
            </Position>
            <AltitudeMeters>678</AltitudeMeters>
            <DistanceMeters>NAN</DistanceMeters>
          </Trackpoint>
          <Trackpoint>
            <Time>2019-08-01T17:22:34.000Z</Time>
            <Position>
              <LatitudeDegrees>40.47435910440981388092041015625</LatitudeDegrees>
              <LongitudeDegrees>-4.01817332021892070770263671875</LongitudeDegrees>
            </Position>
            <AltitudeMeters>677.79998779296875</AltitudeMeters>
            <DistanceMeters>NAN</DistanceMeters>
          </Trackpoint>
          <Trackpoint>
            <Time>2019-08-01T17:22:35.000Z</Time>
            <Position>
              <LatitudeDegrees>40.47428064979612827301025390625</LatitudeDegrees>
              <LongitudeDegrees>-4.01809771545231342315673828125</LongitudeDegrees>
            </Position>
            <AltitudeMeters>677.5999755859375</AltitudeMeters>
            <DistanceMeters>NAN</DistanceMeters>
          </Trackpoint>
          <Trackpoint>
            <Time>2019-08-01T17:22:36.000Z</Time>
            <Position>
              <LatitudeDegrees>40.474202446639537811279296875</LatitudeDegrees>
              <LongitudeDegrees>-4.01802219450473785400390625</LongitudeDegrees>
            </Position>
            <AltitudeMeters>677.5999755859375</AltitudeMeters>
            <DistanceMeters>NAN</DistanceMeters>
          </Trackpoint>
          <Trackpoint>
            <Time>2019-08-01T17:22:37.000Z</Time>
            <Position>
              <LatitudeDegrees>40.47412432730197906494140625</LatitudeDegrees>
              <LongitudeDegrees>-4.01794843375682830810546875</LongitudeDegrees>
            </Position>
            <AltitudeMeters>677.4000244140625</AltitudeMeters>
            <DistanceMeters>NAN</DistanceMeters>
          </Trackpoint>
          <Trackpoint>
            <Time>2019-08-01T17:22:38.000Z</Time>
            <Position>
              <LatitudeDegrees>40.47404788434505462646484375</LatitudeDegrees>
              <LongitudeDegrees>-4.0178765170276165008544921875</LongitudeDegrees>
            </Position>
            <AltitudeMeters>677.4000244140625</AltitudeMeters>
            <DistanceMeters>NAN</DistanceMeters>
          </Trackpoint>
          <Trackpoint>
            <Time>2019-08-01T17:22:39.000Z</Time>
            <Position>
              <LatitudeDegrees>40.47397236339747905731201171875</LatitudeDegrees>
              <LongitudeDegrees>-4.0178064443171024322509765625</LongitudeDegrees>
            </Position>
            <AltitudeMeters>677.4000244140625</AltitudeMeters>
            <DistanceMeters>NAN</DistanceMeters>
          </Trackpoint>
          <Trackpoint>
            <Time>2019-08-01T17:22:40.000Z</Time>
            <Position>
              <LatitudeDegrees>40.47389709390699863433837890625</LatitudeDegrees>
              <LongitudeDegrees>-4.01773989200592041015625</LongitudeDegrees>
            </Position>
            <AltitudeMeters>677.20001220703125</AltitudeMeters>
            <DistanceMeters>NAN</DistanceMeters>
          </Trackpoint>
          <Trackpoint>
            <Time>2019-08-01T17:22:41.000Z</Time>
            <Position>
              <LatitudeDegrees>40.47382232733070850372314453125</LatitudeDegrees>
              <LongitudeDegrees>-4.01767577044665813446044921875</LongitudeDegrees>
            </Position>
            <AltitudeMeters>677.4000244140625</AltitudeMeters>
            <DistanceMeters>NAN</DistanceMeters>
          </Trackpoint>
          <Trackpoint>
            <Time>2019-08-01T17:22:42.000Z</Time>
            <Position>
              <LatitudeDegrees>40.47374940477311611175537109375</LatitudeDegrees>
              <LongitudeDegrees>-4.01761181652545928955078125</LongitudeDegrees>
            </Position>
            <AltitudeMeters>677.4000244140625</AltitudeMeters>
            <DistanceMeters>NAN</DistanceMeters>
          </Trackpoint>
          <Trackpoint>
            <Time>2019-08-01T17:22:43.000Z</Time>
            <Position>
              <LatitudeDegrees>40.47367773950099945068359375</LatitudeDegrees>
              <LongitudeDegrees>-4.01754870079457759857177734375</LongitudeDegrees>
            </Position>
            <AltitudeMeters>677.4000244140625</AltitudeMeters>
            <DistanceMeters>NAN</DistanceMeters>
          </Trackpoint>
          <Trackpoint>
            <Time>2019-08-01T17:22:44.000Z</Time>
            <Position>
              <LatitudeDegrees>40.4736073315143585205078125</LatitudeDegrees>
              <LongitudeDegrees>-4.0174882672727108001708984375</LongitudeDegrees>
            </Position>
            <AltitudeMeters>677.4000244140625</AltitudeMeters>
            <DistanceMeters>NAN</DistanceMeters>
          </Trackpoint>
          <Trackpoint>
            <Time>2019-08-01T17:22:45.000Z</Time>
            <Position>
              <LatitudeDegrees>40.47353885136544704437255859375</LatitudeDegrees>
              <LongitudeDegrees>-4.01743034832179546356201171875</LongitudeDegrees>
            </Position>
            <AltitudeMeters>677.4000244140625</AltitudeMeters>
            <DistanceMeters>NAN</DistanceMeters>
          </Trackpoint>
          <Trackpoint>
            <Time>2019-08-01T17:22:46.000Z</Time>
            <Position>
              <LatitudeDegrees>40.473472215235233306884765625</LatitudeDegrees>
              <LongitudeDegrees>-4.01737402193248271942138671875</LongitudeDegrees>
            </Position>
            <AltitudeMeters>677.20001220703125</AltitudeMeters>
            <DistanceMeters>NAN</DistanceMeters>
          </Trackpoint>
          <Trackpoint>
            <Time>2019-08-01T17:22:47.000Z</Time>
            <Position>
              <LatitudeDegrees>40.47340683639049530029296875</LatitudeDegrees>
              <LongitudeDegrees>-4.017320461571216583251953125</LongitudeDegrees>
            </Position>
            <AltitudeMeters>677.20001220703125</AltitudeMeters>
            <DistanceMeters>NAN</DistanceMeters>
          </Trackpoint>
          <Trackpoint>
            <Time>2019-08-01T17:22:48.000Z</Time>
            <Position>
              <LatitudeDegrees>40.47334305010735988616943359375</LatitudeDegrees>
              <LongitudeDegrees>-4.0172700025141239166259765625</LongitudeDegrees>
            </Position>
            <AltitudeMeters>677.4000244140625</AltitudeMeters>
            <DistanceMeters>NAN</DistanceMeters>
          </Trackpoint>
          <Trackpoint>
            <Time>2019-08-01T17:22:49.000Z</Time>
            <Position>
              <LatitudeDegrees>40.47328102402389049530029296875</LatitudeDegrees>
              <LongitudeDegrees>-4.0172213874757289886474609375</LongitudeDegrees>
            </Position>
            <AltitudeMeters>677.4000244140625</AltitudeMeters>
            <DistanceMeters>NAN</DistanceMeters>
          </Trackpoint>
          <Trackpoint>
            <Time>2019-08-01T17:22:50.000Z</Time>
            <Position>
              <LatitudeDegrees>40.4732202552258968353271484375</LatitudeDegrees>
              <LongitudeDegrees>-4.0171741135418415069580078125</LongitudeDegrees>
            </Position>
            <AltitudeMeters>677.4000244140625</AltitudeMeters>
            <DistanceMeters>NAN</DistanceMeters>
          </Trackpoint>
          <Trackpoint>
            <Time>2019-08-01T17:22:51.000Z</Time>
            <Position>
              <LatitudeDegrees>40.4731609113514423370361328125</LatitudeDegrees>
              <LongitudeDegrees>-4.0171265043318271636962890625</LongitudeDegrees>
            </Position>
            <AltitudeMeters>677.79998779296875</AltitudeMeters>
            <DistanceMeters>NAN</DistanceMeters>
          </Trackpoint>
          <Trackpoint>
            <Time>2019-08-01T17:22:52.000Z</Time>
            <Position>
              <LatitudeDegrees>40.4731019027531147003173828125</LatitudeDegrees>
              <LongitudeDegrees>-4.01707981713116168975830078125</LongitudeDegrees>
            </Position>
            <AltitudeMeters>678.20001220703125</AltitudeMeters>
            <DistanceMeters>NAN</DistanceMeters>
          </Trackpoint>
          <Trackpoint>
            <Time>2019-08-01T17:22:53.000Z</Time>
            <Position>
              <LatitudeDegrees>40.4730435647070407867431640625</LatitudeDegrees>
              <LongitudeDegrees>-4.01703421957790851593017578125</LongitudeDegrees>
            </Position>
            <AltitudeMeters>678.5999755859375</AltitudeMeters>
            <DistanceMeters>NAN</DistanceMeters>
          </Trackpoint>
          <Trackpoint>
            <Time>2019-08-01T17:22:54.000Z</Time>
            <Position>
              <LatitudeDegrees>40.472986400127410888671875</LatitudeDegrees>
              <LongitudeDegrees>-4.01698820292949676513671875</LongitudeDegrees>
            </Position>
            <AltitudeMeters>679</AltitudeMeters>
            <DistanceMeters>NAN</DistanceMeters>
          </Trackpoint>
          <Trackpoint>
            <Time>2019-08-01T17:22:55.000Z</Time>
            <Position>
              <LatitudeDegrees>40.472930409014225006103515625</LatitudeDegrees>
              <LongitudeDegrees>-4.01694151572883129119873046875</LongitudeDegrees>
            </Position>
            <AltitudeMeters>679.20001220703125</AltitudeMeters>
            <DistanceMeters>NAN</DistanceMeters>
          </Trackpoint>
          <Trackpoint>
            <Time>2019-08-01T17:22:56.000Z</Time>
            <Position>
              <LatitudeDegrees>40.47287533991038799285888671875</LatitudeDegrees>
              <LongitudeDegrees>-4.01689742691814899444580078125</LongitudeDegrees>
            </Position>
            <AltitudeMeters>679.79998779296875</AltitudeMeters>
            <DistanceMeters>NAN</DistanceMeters>
          </Trackpoint>
          <Trackpoint>
            <Time>2019-08-01T17:22:57.000Z</Time>
            <Position>
              <LatitudeDegrees>40.47282211482524871826171875</LatitudeDegrees>
              <LongitudeDegrees>-4.016854427754878997802734375</LongitudeDegrees>
            </Position>
            <AltitudeMeters>680.20001220703125</AltitudeMeters>
            <DistanceMeters>NAN</DistanceMeters>
          </Trackpoint>
          <Trackpoint>
            <Time>2019-08-01T17:22:58.000Z</Time>
            <Position>
              <LatitudeDegrees>40.47277056612074375152587890625</LatitudeDegrees>
              <LongitudeDegrees>-4.0168120153248310089111328125</LongitudeDegrees>
            </Position>
            <AltitudeMeters>680.4000244140625</AltitudeMeters>
            <DistanceMeters>NAN</DistanceMeters>
          </Trackpoint>
          <Trackpoint>
            <Time>2019-08-01T17:22:59.000Z</Time>
            <Position>
              <LatitudeDegrees>40.47272019088268280029296875</LatitudeDegrees>
              <LongitudeDegrees>-4.01676868088543415069580078125</LongitudeDegrees>
            </Position>
            <AltitudeMeters>680.4000244140625</AltitudeMeters>
            <DistanceMeters>NAN</DistanceMeters>
          </Trackpoint>
          <Trackpoint>
            <Time>2019-08-01T17:23:00.000Z</Time>
            <Position>
              <LatitudeDegrees>40.47267057001590728759765625</LatitudeDegrees>
              <LongitudeDegrees>-4.0167211554944515228271484375</LongitudeDegrees>
            </Position>
            <AltitudeMeters>680.5999755859375</AltitudeMeters>
            <DistanceMeters>NAN</DistanceMeters>
          </Trackpoint>
          <Trackpoint>
            <Time>2019-08-01T17:23:01.000Z</Time>
            <Position>
              <LatitudeDegrees>40.47262254171073436737060546875</LatitudeDegrees>
              <LongitudeDegrees>-4.01667094789445400238037109375</LongitudeDegrees>
            </Position>
            <AltitudeMeters>680.79998779296875</AltitudeMeters>
            <DistanceMeters>NAN</DistanceMeters>
          </Trackpoint>
          <Trackpoint>
            <Time>2019-08-01T17:23:02.000Z</Time>
            <Position>
              <LatitudeDegrees>40.47262254171073436737060546875</LatitudeDegrees>
              <LongitudeDegrees>-4.01667094789445400238037109375</LongitudeDegrees>
            </Position>
            <AltitudeMeters>680.79998779296875</AltitudeMeters>
            <DistanceMeters>NAN</DistanceMeters>
          </Trackpoint>
          <Trackpoint>
            <Time>2019-08-01T17:23:03.000Z</Time>
            <Position>
              <LatitudeDegrees>40.4725289158523082733154296875</LatitudeDegrees>
              <LongitudeDegrees>-4.0165639109909534454345703125</LongitudeDegrees>
            </Position>
            <AltitudeMeters>681.20001220703125</AltitudeMeters>
            <DistanceMeters>NAN</DistanceMeters>
          </Trackpoint>
          <Trackpoint>
            <Time>2019-08-01T17:23:04.000Z</Time>
            <Position>
              <LatitudeDegrees>40.472481139004230499267578125</LatitudeDegrees>
              <LongitudeDegrees>-4.0165092609822750091552734375</LongitudeDegrees>
            </Position>
            <AltitudeMeters>681.20001220703125</AltitudeMeters>
            <DistanceMeters>NAN</DistanceMeters>
          </Trackpoint>
          <Trackpoint>
            <Time>2019-08-01T17:23:05.000Z</Time>
            <Position>
              <LatitudeDegrees>40.4724326916038990020751953125</LatitudeDegrees>
              <LongitudeDegrees>-4.0164537727832794189453125</LongitudeDegrees>
            </Position>
            <AltitudeMeters>681.4000244140625</AltitudeMeters>
            <DistanceMeters>NAN</DistanceMeters>
          </Trackpoint>
          <Trackpoint>
            <Time>2019-08-01T17:23:06.000Z</Time>
            <Position>
              <LatitudeDegrees>40.4724326916038990020751953125</LatitudeDegrees>
              <LongitudeDegrees>-4.0164537727832794189453125</LongitudeDegrees>
            </Position>
            <AltitudeMeters>682</AltitudeMeters>
            <DistanceMeters>NAN</DistanceMeters>
          </Trackpoint>
          <Trackpoint>
            <Time>2019-08-01T17:23:07.000Z</Time>
            <Position>
              <LatitudeDegrees>40.4723384790122509002685546875</LatitudeDegrees>
              <LongitudeDegrees>-4.0163330733776092529296875</LongitudeDegrees>
            </Position>
            <AltitudeMeters>682.79998779296875</AltitudeMeters>
            <DistanceMeters>NAN</DistanceMeters>
          </Trackpoint>
          <Trackpoint>
            <Time>2019-08-01T17:23:08.000Z</Time>
            <Position>
              <LatitudeDegrees>40.47229145653545856475830078125</LatitudeDegrees>
              <LongitudeDegrees>-4.01626945473253726959228515625</LongitudeDegrees>
            </Position>
            <AltitudeMeters>683.20001220703125</AltitudeMeters>
            <DistanceMeters>NAN</DistanceMeters>
          </Trackpoint>
          <Trackpoint>
            <Time>2019-08-01T17:23:09.000Z</Time>
            <Position>
              <LatitudeDegrees>40.47224468551576137542724609375</LatitudeDegrees>
              <LongitudeDegrees>-4.01620365679264068603515625</LongitudeDegrees>
            </Position>
            <AltitudeMeters>683.79998779296875</AltitudeMeters>
            <DistanceMeters>NAN</DistanceMeters>
          </Trackpoint>
          <Trackpoint>
            <Time>2019-08-01T17:23:10.000Z</Time>
            <Position>
              <LatitudeDegrees>40.472197830677032470703125</LatitudeDegrees>
              <LongitudeDegrees>-4.01613526046276092529296875</LongitudeDegrees>
            </Position>
            <AltitudeMeters>683.79998779296875</AltitudeMeters>
            <DistanceMeters>NAN</DistanceMeters>
          </Trackpoint>
          <Trackpoint>
            <Time>2019-08-01T17:23:11.000Z</Time>
            <Position>
              <LatitudeDegrees>40.47215156257152557373046875</LatitudeDegrees>
              <LongitudeDegrees>-4.01606543920934200286865234375</LongitudeDegrees>
            </Position>
            <AltitudeMeters>684</AltitudeMeters>
            <DistanceMeters>NAN</DistanceMeters>
          </Trackpoint>
          <Trackpoint>
            <Time>2019-08-01T17:23:12.000Z</Time>
            <Position>
              <LatitudeDegrees>40.47210395336151123046875</LatitudeDegrees>
              <LongitudeDegrees>-4.01599553413689136505126953125</LongitudeDegrees>
            </Position>
            <AltitudeMeters>684</AltitudeMeters>
            <DistanceMeters>NAN</DistanceMeters>
          </Trackpoint>
          <Trackpoint>
            <Time>2019-08-01T17:23:13.000Z</Time>
            <Position>
              <LatitudeDegrees>40.47205542214214801788330078125</LatitudeDegrees>
              <LongitudeDegrees>-4.015926383435726165771484375</LongitudeDegrees>
            </Position>
            <AltitudeMeters>684.4000244140625</AltitudeMeters>
            <DistanceMeters>NAN</DistanceMeters>
          </Trackpoint>
          <Trackpoint>
            <Time>2019-08-01T17:23:14.000Z</Time>
            <Position>
              <LatitudeDegrees>40.472006388008594512939453125</LatitudeDegrees>
              <LongitudeDegrees>-4.0158561430871486663818359375</LongitudeDegrees>
            </Position>
            <AltitudeMeters>684.4000244140625</AltitudeMeters>
            <DistanceMeters>NAN</DistanceMeters>
          </Trackpoint>
          <Trackpoint>
            <Time>2019-08-01T17:23:15.000Z</Time>
            <Position>
              <LatitudeDegrees>40.4719576053321361541748046875</LatitudeDegrees>
              <LongitudeDegrees>-4.01578531600534915924072265625</LongitudeDegrees>
            </Position>
            <AltitudeMeters>684.4000244140625</AltitudeMeters>
            <DistanceMeters>NAN</DistanceMeters>
          </Trackpoint>
          <Trackpoint>
            <Time>2019-08-01T17:23:16.000Z</Time>
            <Position>
              <LatitudeDegrees>40.47190806828439235687255859375</LatitudeDegrees>
              <LongitudeDegrees>-4.015713818371295928955078125</LongitudeDegrees>
            </Position>
            <AltitudeMeters>684.4000244140625</AltitudeMeters>
            <DistanceMeters>NAN</DistanceMeters>
          </Trackpoint>
          <Trackpoint>
            <Time>2019-08-01T17:23:17.000Z</Time>
            <Position>
              <LatitudeDegrees>40.4718566872179508209228515625</LatitudeDegrees>
              <LongitudeDegrees>-4.015644751489162445068359375</LongitudeDegrees>
            </Position>
            <AltitudeMeters>684.4000244140625</AltitudeMeters>
            <DistanceMeters>NAN</DistanceMeters>
          </Trackpoint>
          <Trackpoint>
            <Time>2019-08-01T17:23:18.000Z</Time>
            <Position>
              <LatitudeDegrees>40.47180346213281154632568359375</LatitudeDegrees>
              <LongitudeDegrees>-4.01557828299701213836669921875</LongitudeDegrees>
            </Position>
            <AltitudeMeters>684.4000244140625</AltitudeMeters>
            <DistanceMeters>NAN</DistanceMeters>
          </Trackpoint>
          <Trackpoint>
            <Time>2019-08-01T17:23:19.000Z</Time>
            <Position>
              <LatitudeDegrees>40.47175048850476741790771484375</LatitudeDegrees>
              <LongitudeDegrees>-4.01551139540970325469970703125</LongitudeDegrees>
            </Position>
            <AltitudeMeters>684.4000244140625</AltitudeMeters>
            <DistanceMeters>NAN</DistanceMeters>
          </Trackpoint>
          <Trackpoint>
            <Time>2019-08-01T17:23:20.000Z</Time>
            <Position>
              <LatitudeDegrees>40.471697263419628143310546875</LatitudeDegrees>
              <LongitudeDegrees>-4.01544551365077495574951171875</LongitudeDegrees>
            </Position>
            <AltitudeMeters>684.4000244140625</AltitudeMeters>
            <DistanceMeters>NAN</DistanceMeters>
          </Trackpoint>
          <Trackpoint>
            <Time>2019-08-01T17:23:21.000Z</Time>
            <Position>
              <LatitudeDegrees>40.471697263419628143310546875</LatitudeDegrees>
              <LongitudeDegrees>-4.01544551365077495574951171875</LongitudeDegrees>
            </Position>
            <AltitudeMeters>684.4000244140625</AltitudeMeters>
            <DistanceMeters>NAN</DistanceMeters>
          </Trackpoint>
          <Trackpoint>
            <Time>2019-08-01T17:23:22.000Z</Time>
            <Position>
              <LatitudeDegrees>40.471589304506778717041015625</LatitudeDegrees>
              <LongitudeDegrees>-4.0153176896274089813232421875</LongitudeDegrees>
            </Position>
            <AltitudeMeters>684.4000244140625</AltitudeMeters>
            <DistanceMeters>NAN</DistanceMeters>
          </Trackpoint>
          <Trackpoint>
            <Time>2019-08-01T17:23:23.000Z</Time>
            <Position>
              <LatitudeDegrees>40.47153306193649768829345703125</LatitudeDegrees>
              <LongitudeDegrees>-4.01525926776230335235595703125</LongitudeDegrees>
            </Position>
            <AltitudeMeters>684.4000244140625</AltitudeMeters>
            <DistanceMeters>NAN</DistanceMeters>
          </Trackpoint>
          <Trackpoint>
            <Time>2019-08-01T17:23:24.000Z</Time>
            <Position>
              <LatitudeDegrees>40.47147321514785289764404296875</LatitudeDegrees>
              <LongitudeDegrees>-4.01520864106714725494384765625</LongitudeDegrees>
            </Position>
            <AltitudeMeters>684.4000244140625</AltitudeMeters>
            <DistanceMeters>NAN</DistanceMeters>
          </Trackpoint>
          <Trackpoint>
            <Time>2019-08-01T17:23:25.000Z</Time>
            <Position>
              <LatitudeDegrees>40.4714097641408443450927734375</LatitudeDegrees>
              <LongitudeDegrees>-4.015169329941272735595703125</LongitudeDegrees>
            </Position>
            <AltitudeMeters>684.4000244140625</AltitudeMeters>
            <DistanceMeters>NAN</DistanceMeters>
          </Trackpoint>
          <Trackpoint>
            <Time>2019-08-01T17:23:26.000Z</Time>
            <Position>
              <LatitudeDegrees>40.47134312801063060760498046875</LatitudeDegrees>
              <LongitudeDegrees>-4.01514175347983837127685546875</LongitudeDegrees>
            </Position>
            <AltitudeMeters>684.20001220703125</AltitudeMeters>
            <DistanceMeters>NAN</DistanceMeters>
          </Trackpoint>
          <Trackpoint>
            <Time>2019-08-01T17:23:27.000Z</Time>
            <Position>
              <LatitudeDegrees>40.47127506695687770843505859375</LatitudeDegrees>
              <LongitudeDegrees>-4.01512968353927135467529296875</LongitudeDegrees>
            </Position>
            <AltitudeMeters>684.20001220703125</AltitudeMeters>
            <DistanceMeters>NAN</DistanceMeters>
          </Trackpoint>
          <Trackpoint>
            <Time>2019-08-01T17:23:28.000Z</Time>
            <Position>
              <LatitudeDegrees>40.47120742499828338623046875</LatitudeDegrees>
              <LongitudeDegrees>-4.01513689197599887847900390625</LongitudeDegrees>
            </Position>
            <AltitudeMeters>684.20001220703125</AltitudeMeters>
            <DistanceMeters>NAN</DistanceMeters>
          </Trackpoint>
          <Trackpoint>
            <Time>2019-08-01T17:23:29.000Z</Time>
            <Position>
              <LatitudeDegrees>40.4711412079632282257080078125</LatitudeDegrees>
              <LongitudeDegrees>-4.015150554478168487548828125</LongitudeDegrees>
            </Position>
            <AltitudeMeters>684</AltitudeMeters>
            <DistanceMeters>NAN</DistanceMeters>
          </Trackpoint>
          <Trackpoint>
            <Time>2019-08-01T17:23:30.000Z</Time>
            <Position>
              <LatitudeDegrees>40.471075661480426788330078125</LatitudeDegrees>
              <LongitudeDegrees>-4.01515633799135684967041015625</LongitudeDegrees>
            </Position>
            <AltitudeMeters>684</AltitudeMeters>
            <DistanceMeters>NAN</DistanceMeters>
          </Trackpoint>
          <Trackpoint>
            <Time>2019-08-01T17:23:31.000Z</Time>
            <Position>
              <LatitudeDegrees>40.47101162374019622802734375</LatitudeDegrees>
              <LongitudeDegrees>-4.01514963246881961822509765625</LongitudeDegrees>
            </Position>
            <AltitudeMeters>684</AltitudeMeters>
            <DistanceMeters>NAN</DistanceMeters>
          </Trackpoint>
          <Trackpoint>
            <Time>2019-08-01T17:23:32.000Z</Time>
            <Position>
              <LatitudeDegrees>40.4709492623805999755859375</LatitudeDegrees>
              <LongitudeDegrees>-4.01513119228184223175048828125</LongitudeDegrees>
            </Position>
            <AltitudeMeters>683.79998779296875</AltitudeMeters>
            <DistanceMeters>NAN</DistanceMeters>
          </Trackpoint>
          <Trackpoint>
            <Time>2019-08-01T17:23:33.000Z</Time>
            <Position>
              <LatitudeDegrees>40.4708875715732574462890625</LatitudeDegrees>
              <LongitudeDegrees>-4.01510688476264476776123046875</LongitudeDegrees>
            </Position>
            <AltitudeMeters>683.79998779296875</AltitudeMeters>
            <DistanceMeters>NAN</DistanceMeters>
          </Trackpoint>
          <Trackpoint>
            <Time>2019-08-01T17:23:34.000Z</Time>
            <Position>
              <LatitudeDegrees>40.47082562930881977081298828125</LatitudeDegrees>
              <LongitudeDegrees>-4.0150840021669864654541015625</LongitudeDegrees>
            </Position>
            <AltitudeMeters>683.79998779296875</AltitudeMeters>
            <DistanceMeters>NAN</DistanceMeters>
          </Trackpoint>
          <Trackpoint>
            <Time>2019-08-01T17:23:35.000Z</Time>
            <Position>
              <LatitudeDegrees>40.4707626812160015106201171875</LatitudeDegrees>
              <LongitudeDegrees>-4.0150702558457851409912109375</LongitudeDegrees>
            </Position>
            <AltitudeMeters>683.79998779296875</AltitudeMeters>
            <DistanceMeters>NAN</DistanceMeters>
          </Trackpoint>
          <Trackpoint>
            <Time>2019-08-01T17:23:36.000Z</Time>
            <Position>
              <LatitudeDegrees>40.47069822438061237335205078125</LatitudeDegrees>
              <LongitudeDegrees>-4.01506614871323108673095703125</LongitudeDegrees>
            </Position>
            <AltitudeMeters>683.79998779296875</AltitudeMeters>
            <DistanceMeters>NAN</DistanceMeters>
          </Trackpoint>
          <Trackpoint>
            <Time>2019-08-01T17:23:37.000Z</Time>
            <Position>
              <LatitudeDegrees>40.47063301317393779754638671875</LatitudeDegrees>
              <LongitudeDegrees>-4.01507084257900714874267578125</LongitudeDegrees>
            </Position>
            <AltitudeMeters>683.79998779296875</AltitudeMeters>
            <DistanceMeters>NAN</DistanceMeters>
          </Trackpoint>
          <Trackpoint>
            <Time>2019-08-01T17:23:38.000Z</Time>
            <Position>
              <LatitudeDegrees>40.47056813724339008331298828125</LatitudeDegrees>
              <LongitudeDegrees>-4.0150866843760013580322265625</LongitudeDegrees>
            </Position>
            <AltitudeMeters>683.79998779296875</AltitudeMeters>
            <DistanceMeters>NAN</DistanceMeters>
          </Trackpoint>
          <Trackpoint>
            <Time>2019-08-01T17:23:39.000Z</Time>
            <Position>
              <LatitudeDegrees>40.47050460241734981536865234375</LatitudeDegrees>
              <LongitudeDegrees>-4.01511208154261112213134765625</LongitudeDegrees>
            </Position>
            <AltitudeMeters>683.79998779296875</AltitudeMeters>
            <DistanceMeters>NAN</DistanceMeters>
          </Trackpoint>
          <Trackpoint>
            <Time>2019-08-01T17:23:40.000Z</Time>
            <Position>
              <LatitudeDegrees>40.470441989600658416748046875</LatitudeDegrees>
              <LongitudeDegrees>-4.015140496194362640380859375</LongitudeDegrees>
            </Position>
            <AltitudeMeters>683.5999755859375</AltitudeMeters>
            <DistanceMeters>NAN</DistanceMeters>
          </Trackpoint>
          <Trackpoint>
            <Time>2019-08-01T17:23:41.000Z</Time>
            <Position>
              <LatitudeDegrees>40.470441989600658416748046875</LatitudeDegrees>
              <LongitudeDegrees>-4.015140496194362640380859375</LongitudeDegrees>
            </Position>
            <AltitudeMeters>683.4000244140625</AltitudeMeters>
            <DistanceMeters>NAN</DistanceMeters>
          </Trackpoint>
          <Trackpoint>
            <Time>2019-08-01T17:23:42.000Z</Time>
            <Position>
              <LatitudeDegrees>40.47031450085341930389404296875</LatitudeDegrees>
              <LongitudeDegrees>-4.01518835686147212982177734375</LongitudeDegrees>
            </Position>
            <AltitudeMeters>683.20001220703125</AltitudeMeters>
            <DistanceMeters>NAN</DistanceMeters>
          </Trackpoint>
          <Trackpoint>
            <Time>2019-08-01T17:23:43.000Z</Time>
            <Position>
              <LatitudeDegrees>40.4702492058277130126953125</LatitudeDegrees>
              <LongitudeDegrees>-4.01520453393459320068359375</LongitudeDegrees>
            </Position>
            <AltitudeMeters>683.20001220703125</AltitudeMeters>
            <DistanceMeters>NAN</DistanceMeters>
          </Trackpoint>
          <Trackpoint>
            <Time>2019-08-01T17:23:44.000Z</Time>
            <Position>
              <LatitudeDegrees>40.47018324024975299835205078125</LatitudeDegrees>
              <LongitudeDegrees>-4.01521526277065277099609375</LongitudeDegrees>
            </Position>
            <AltitudeMeters>683</AltitudeMeters>
            <DistanceMeters>NAN</DistanceMeters>
          </Trackpoint>
          <Trackpoint>
            <Time>2019-08-01T17:23:45.000Z</Time>
            <Position>
              <LatitudeDegrees>40.470116436481475830078125</LatitudeDegrees>
              <LongitudeDegrees>-4.0152201242744922637939453125</LongitudeDegrees>
            </Position>
            <AltitudeMeters>683</AltitudeMeters>
            <DistanceMeters>NAN</DistanceMeters>
          </Trackpoint>
          <Trackpoint>
            <Time>2019-08-01T17:23:46.000Z</Time>
            <Position>
              <LatitudeDegrees>40.47004946507513523101806640625</LatitudeDegrees>
              <LongitudeDegrees>-4.015218950808048248291015625</LongitudeDegrees>
            </Position>
            <AltitudeMeters>683</AltitudeMeters>
            <DistanceMeters>NAN</DistanceMeters>
          </Trackpoint>
          <Trackpoint>
            <Time>2019-08-01T17:23:47.000Z</Time>
            <Position>
              <LatitudeDegrees>40.46998207457363605499267578125</LatitudeDegrees>
              <LongitudeDegrees>-4.01521258056163787841796875</LongitudeDegrees>
            </Position>
            <AltitudeMeters>683.20001220703125</AltitudeMeters>
            <DistanceMeters>NAN</DistanceMeters>
          </Trackpoint>
          <Trackpoint>
            <Time>2019-08-01T17:23:48.000Z</Time>
            <Position>
              <LatitudeDegrees>40.46991460025310516357421875</LatitudeDegrees>
              <LongitudeDegrees>-4.0152023546397686004638671875</LongitudeDegrees>
            </Position>
            <AltitudeMeters>683.4000244140625</AltitudeMeters>
            <DistanceMeters>NAN</DistanceMeters>
          </Trackpoint>
          <Trackpoint>
            <Time>2019-08-01T17:23:49.000Z</Time>
            <Position>
              <LatitudeDegrees>40.46984662301838397979736328125</LatitudeDegrees>
              <LongitudeDegrees>-4.0151906199753284454345703125</LongitudeDegrees>
            </Position>
            <AltitudeMeters>683.4000244140625</AltitudeMeters>
            <DistanceMeters>NAN</DistanceMeters>
          </Trackpoint>
          <Trackpoint>
            <Time>2019-08-01T17:23:50.000Z</Time>
            <Position>
              <LatitudeDegrees>40.4697783105075359344482421875</LatitudeDegrees>
              <LongitudeDegrees>-4.01517880149185657501220703125</LongitudeDegrees>
            </Position>
            <AltitudeMeters>683.4000244140625</AltitudeMeters>
            <DistanceMeters>NAN</DistanceMeters>
          </Trackpoint>
          <Trackpoint>
            <Time>2019-08-01T17:23:51.000Z</Time>
            <Position>
              <LatitudeDegrees>40.4697783105075359344482421875</LatitudeDegrees>
              <LongitudeDegrees>-4.01517880149185657501220703125</LongitudeDegrees>
            </Position>
            <AltitudeMeters>683.4000244140625</AltitudeMeters>
            <DistanceMeters>NAN</DistanceMeters>
          </Trackpoint>
          <Trackpoint>
            <Time>2019-08-01T17:23:52.000Z</Time>
            <Position>
              <LatitudeDegrees>40.4696425236761569976806640625</LatitudeDegrees>
              <LongitudeDegrees>-4.0151529014110565185546875</LongitudeDegrees>
            </Position>
            <AltitudeMeters>683.4000244140625</AltitudeMeters>
            <DistanceMeters>NAN</DistanceMeters>
          </Trackpoint>
          <Trackpoint>
            <Time>2019-08-01T17:23:53.000Z</Time>
            <Position>
              <LatitudeDegrees>40.46957521699368953704833984375</LatitudeDegrees>
              <LongitudeDegrees>-4.01513856835663318634033203125</LongitudeDegrees>
            </Position>
            <AltitudeMeters>683.4000244140625</AltitudeMeters>
            <DistanceMeters>NAN</DistanceMeters>
          </Trackpoint>
          <Trackpoint>
            <Time>2019-08-01T17:23:54.000Z</Time>
            <Position>
              <LatitudeDegrees>40.46950715593993663787841796875</LatitudeDegrees>
              <LongitudeDegrees>-4.01512398384511470794677734375</LongitudeDegrees>
            </Position>
            <AltitudeMeters>683.4000244140625</AltitudeMeters>
            <DistanceMeters>NAN</DistanceMeters>
          </Trackpoint>
          <Trackpoint>
            <Time>2019-08-01T17:23:55.000Z</Time>
            <Position>
              <LatitudeDegrees>40.4694383405148983001708984375</LatitudeDegrees>
              <LongitudeDegrees>-4.01511057280004024505615234375</LongitudeDegrees>
            </Position>
            <AltitudeMeters>683.4000244140625</AltitudeMeters>
            <DistanceMeters>NAN</DistanceMeters>
          </Trackpoint>
          <Trackpoint>
            <Time>2019-08-01T17:23:56.000Z</Time>
            <Position>
              <LatitudeDegrees>40.4693686030805110931396484375</LatitudeDegrees>
              <LongitudeDegrees>-4.015097580850124359130859375</LongitudeDegrees>
            </Position>
            <AltitudeMeters>683.4000244140625</AltitudeMeters>
            <DistanceMeters>NAN</DistanceMeters>
          </Trackpoint>
          <Trackpoint>
            <Time>2019-08-01T17:23:57.000Z</Time>
            <Position>
              <LatitudeDegrees>40.4692970216274261474609375</LatitudeDegrees>
              <LongitudeDegrees>-4.0150840021669864654541015625</LongitudeDegrees>
            </Position>
            <AltitudeMeters>683.4000244140625</AltitudeMeters>
            <DistanceMeters>NAN</DistanceMeters>
          </Trackpoint>
          <Trackpoint>
            <Time>2019-08-01T17:23:58.000Z</Time>
            <Position>
              <LatitudeDegrees>40.46922401525080204010009765625</LatitudeDegrees>
              <LongitudeDegrees>-4.0150692500174045562744140625</LongitudeDegrees>
            </Position>
            <AltitudeMeters>683.4000244140625</AltitudeMeters>
            <DistanceMeters>NAN</DistanceMeters>
          </Trackpoint>
          <Trackpoint>
            <Time>2019-08-01T17:23:59.000Z</Time>
            <Position>
              <LatitudeDegrees>40.4691500030457973480224609375</LatitudeDegrees>
              <LongitudeDegrees>-4.01505374349653720855712890625</LongitudeDegrees>
            </Position>
            <AltitudeMeters>683.4000244140625</AltitudeMeters>
            <DistanceMeters>NAN</DistanceMeters>
          </Trackpoint>
          <Trackpoint>
            <Time>2019-08-01T17:24:00.000Z</Time>
            <Position>
              <LatitudeDegrees>40.4691500030457973480224609375</LatitudeDegrees>
              <LongitudeDegrees>-4.01505374349653720855712890625</LongitudeDegrees>
            </Position>
            <AltitudeMeters>683.4000244140625</AltitudeMeters>
            <DistanceMeters>NAN</DistanceMeters>
          </Trackpoint>
          <Trackpoint>
            <Time>2019-08-01T17:24:01.000Z</Time>
            <Position>
              <LatitudeDegrees>40.4689991287887096405029296875</LatitudeDegrees>
              <LongitudeDegrees>-4.015024490654468536376953125</LongitudeDegrees>
            </Position>
            <AltitudeMeters>683.4000244140625</AltitudeMeters>
            <DistanceMeters>NAN</DistanceMeters>
          </Trackpoint>
          <Trackpoint>
            <Time>2019-08-01T17:24:02.000Z</Time>
            <Position>
              <LatitudeDegrees>40.4689230211079120635986328125</LatitudeDegrees>
              <LongitudeDegrees>-4.0150092355906963348388671875</LongitudeDegrees>
            </Position>
            <AltitudeMeters>683.4000244140625</AltitudeMeters>
            <DistanceMeters>NAN</DistanceMeters>
          </Trackpoint>
          <Trackpoint>
            <Time>2019-08-01T17:24:03.000Z</Time>
            <Position>
              <LatitudeDegrees>40.4688462428748607635498046875</LatitudeDegrees>
              <LongitudeDegrees>-4.0149924717843532562255859375</LongitudeDegrees>
            </Position>
            <AltitudeMeters>683.5999755859375</AltitudeMeters>
            <DistanceMeters>NAN</DistanceMeters>
          </Trackpoint>
          <Trackpoint>
            <Time>2019-08-01T17:24:04.000Z</Time>
            <Position>
              <LatitudeDegrees>40.468768291175365447998046875</LatitudeDegrees>
              <LongitudeDegrees>-4.0149750374257564544677734375</LongitudeDegrees>
            </Position>
            <AltitudeMeters>683.4000244140625</AltitudeMeters>
            <DistanceMeters>NAN</DistanceMeters>
          </Trackpoint>
          <Trackpoint>
            <Time>2019-08-01T17:24:05.000Z</Time>
            <Position>
              <LatitudeDegrees>40.468768291175365447998046875</LatitudeDegrees>
              <LongitudeDegrees>-4.0149750374257564544677734375</LongitudeDegrees>
            </Position>
            <AltitudeMeters>683.4000244140625</AltitudeMeters>
            <DistanceMeters>NAN</DistanceMeters>
          </Trackpoint>
          <Trackpoint>
            <Time>2019-08-01T17:24:06.000Z</Time>
            <Position>
              <LatitudeDegrees>40.46860878355801105499267578125</LatitudeDegrees>
              <LongitudeDegrees>-4.0149418450891971588134765625</LongitudeDegrees>
            </Position>
            <AltitudeMeters>683.20001220703125</AltitudeMeters>
            <DistanceMeters>NAN</DistanceMeters>
          </Trackpoint>
          <Trackpoint>
            <Time>2019-08-01T17:24:07.000Z</Time>
            <Position>
              <LatitudeDegrees>40.468528233468532562255859375</LatitudeDegrees>
              <LongitudeDegrees>-4.0149257518351078033447265625</LongitudeDegrees>
            </Position>
            <AltitudeMeters>682.79998779296875</AltitudeMeters>
            <DistanceMeters>NAN</DistanceMeters>
          </Trackpoint>
          <Trackpoint>
            <Time>2019-08-01T17:24:08.000Z</Time>
            <Position>
              <LatitudeDegrees>40.46844734810292720794677734375</LatitudeDegrees>
              <LongitudeDegrees>-4.0149099938571453094482421875</LongitudeDegrees>
            </Position>
            <AltitudeMeters>682.20001220703125</AltitudeMeters>
            <DistanceMeters>NAN</DistanceMeters>
          </Trackpoint>
          <Trackpoint>
            <Time>2019-08-01T17:24:09.000Z</Time>
            <Position>
              <LatitudeDegrees>40.46844734810292720794677734375</LatitudeDegrees>
              <LongitudeDegrees>-4.0149099938571453094482421875</LongitudeDegrees>
            </Position>
            <AltitudeMeters>681.5999755859375</AltitudeMeters>
            <DistanceMeters>NAN</DistanceMeters>
          </Trackpoint>
          <Trackpoint>
            <Time>2019-08-01T17:24:10.000Z</Time>
            <Position>
              <LatitudeDegrees>40.46828448772430419921875</LatitudeDegrees>
              <LongitudeDegrees>-4.0148761309683322906494140625</LongitudeDegrees>
            </Position>
            <AltitudeMeters>681.4000244140625</AltitudeMeters>
            <DistanceMeters>NAN</DistanceMeters>
          </Trackpoint>
          <Trackpoint>
            <Time>2019-08-01T17:24:11.000Z</Time>
            <Position>
              <LatitudeDegrees>40.46820209361612796783447265625</LatitudeDegrees>
              <LongitudeDegrees>-4.0148607082664966583251953125</LongitudeDegrees>
            </Position>
            <AltitudeMeters>681.20001220703125</AltitudeMeters>
            <DistanceMeters>NAN</DistanceMeters>
          </Trackpoint>
          <Trackpoint>
            <Time>2019-08-01T17:24:12.000Z</Time>
            <Position>
              <LatitudeDegrees>40.46811877749860286712646484375</LatitudeDegrees>
              <LongitudeDegrees>-4.01484469883143901824951171875</LongitudeDegrees>
            </Position>
            <AltitudeMeters>681</AltitudeMeters>
            <DistanceMeters>NAN</DistanceMeters>
          </Trackpoint>
          <Trackpoint>
            <Time>2019-08-01T17:24:13.000Z</Time>
            <Position>
              <LatitudeDegrees>40.46803462319076061248779296875</LatitudeDegrees>
              <LongitudeDegrees>-4.0148265101015567779541015625</LongitudeDegrees>
            </Position>
            <AltitudeMeters>680.79998779296875</AltitudeMeters>
            <DistanceMeters>NAN</DistanceMeters>
          </Trackpoint>
          <Trackpoint>
            <Time>2019-08-01T17:24:14.000Z</Time>
            <Position>
              <LatitudeDegrees>40.46794979833066463470458984375</LatitudeDegrees>
              <LongitudeDegrees>-4.0148077346384525299072265625</LongitudeDegrees>
            </Position>
            <AltitudeMeters>680.5999755859375</AltitudeMeters>
            <DistanceMeters>NAN</DistanceMeters>
          </Trackpoint>
          <Trackpoint>
            <Time>2019-08-01T17:24:15.000Z</Time>
            <Position>
              <LatitudeDegrees>40.46786463819444179534912109375</LatitudeDegrees>
              <LongitudeDegrees>-4.01478971354663372039794921875</LongitudeDegrees>
            </Position>
            <AltitudeMeters>680</AltitudeMeters>
            <DistanceMeters>NAN</DistanceMeters>
          </Trackpoint>
          <Trackpoint>
            <Time>2019-08-01T17:24:16.000Z</Time>
            <Position>
              <LatitudeDegrees>40.4677790589630603790283203125</LatitudeDegrees>
              <LongitudeDegrees>-4.01477227918803691864013671875</LongitudeDegrees>
            </Position>
            <AltitudeMeters>679.20001220703125</AltitudeMeters>
            <DistanceMeters>NAN</DistanceMeters>
          </Trackpoint>
          <Trackpoint>
            <Time>2019-08-01T17:24:17.000Z</Time>
            <Position>
              <LatitudeDegrees>40.46769373118877410888671875</LatitudeDegrees>
              <LongitudeDegrees>-4.014754258096218109130859375</LongitudeDegrees>
            </Position>
            <AltitudeMeters>678.79998779296875</AltitudeMeters>
            <DistanceMeters>NAN</DistanceMeters>
          </Trackpoint>
          <Trackpoint>
            <Time>2019-08-01T17:24:18.000Z</Time>
            <Position>
              <LatitudeDegrees>40.46760857105255126953125</LatitudeDegrees>
              <LongitudeDegrees>-4.01473523117601871490478515625</LongitudeDegrees>
            </Position>
            <AltitudeMeters>678.5999755859375</AltitudeMeters>
            <DistanceMeters>NAN</DistanceMeters>
          </Trackpoint>
          <Trackpoint>
            <Time>2019-08-01T17:24:19.000Z</Time>
            <Position>
              <LatitudeDegrees>40.46752332709729671478271484375</LatitudeDegrees>
              <LongitudeDegrees>-4.01471494697034358978271484375</LongitudeDegrees>
            </Position>
            <AltitudeMeters>678.4000244140625</AltitudeMeters>
            <DistanceMeters>NAN</DistanceMeters>
          </Trackpoint>
          <Trackpoint>
            <Time>2019-08-01T17:24:20.000Z</Time>
            <Position>
              <LatitudeDegrees>40.467437915503978729248046875</LatitudeDegrees>
              <LongitudeDegrees>-4.0146947465837001800537109375</LongitudeDegrees>
            </Position>
            <AltitudeMeters>678.20001220703125</AltitudeMeters>
            <DistanceMeters>NAN</DistanceMeters>
          </Trackpoint>
          <Trackpoint>
            <Time>2019-08-01T17:24:21.000Z</Time>
            <Position>
              <LatitudeDegrees>40.46735149808228015899658203125</LatitudeDegrees>
              <LongitudeDegrees>-4.01467320509254932403564453125</LongitudeDegrees>
            </Position>
            <AltitudeMeters>677.4000244140625</AltitudeMeters>
            <DistanceMeters>NAN</DistanceMeters>
          </Trackpoint>
          <Trackpoint>
            <Time>2019-08-01T17:24:22.000Z</Time>
            <Position>
              <LatitudeDegrees>40.46726449392735958099365234375</LatitudeDegrees>
              <LongitudeDegrees>-4.01464956812560558319091796875</LongitudeDegrees>
            </Position>
            <AltitudeMeters>677</AltitudeMeters>
            <DistanceMeters>NAN</DistanceMeters>
          </Trackpoint>
          <Trackpoint>
            <Time>2019-08-01T17:24:23.000Z</Time>
            <Position>
              <LatitudeDegrees>40.46717715449631214141845703125</LatitudeDegrees>
              <LongitudeDegrees>-4.01462375186383724212646484375</LongitudeDegrees>
            </Position>
            <AltitudeMeters>676.5999755859375</AltitudeMeters>
            <DistanceMeters>NAN</DistanceMeters>
          </Trackpoint>
          <Trackpoint>
            <Time>2019-08-01T17:24:24.000Z</Time>
            <Position>
              <LatitudeDegrees>40.467089898884296417236328125</LatitudeDegrees>
              <LongitudeDegrees>-4.0145950019359588623046875</LongitudeDegrees>
            </Position>
            <AltitudeMeters>676.20001220703125</AltitudeMeters>
            <DistanceMeters>NAN</DistanceMeters>
          </Trackpoint>
          <Trackpoint>
            <Time>2019-08-01T17:24:25.000Z</Time>
            <Position>
              <LatitudeDegrees>40.4670032300055027008056640625</LatitudeDegrees>
              <LongitudeDegrees>-4.01456373743712902069091796875</LongitudeDegrees>
            </Position>
            <AltitudeMeters>675.79998779296875</AltitudeMeters>
            <DistanceMeters>NAN</DistanceMeters>
          </Trackpoint>
          <Trackpoint>
            <Time>2019-08-01T17:24:26.000Z</Time>
            <Position>
              <LatitudeDegrees>40.466917566955089569091796875</LatitudeDegrees>
              <LongitudeDegrees>-4.0145304612815380096435546875</LongitudeDegrees>
            </Position>
            <AltitudeMeters>675.5999755859375</AltitudeMeters>
            <DistanceMeters>NAN</DistanceMeters>
          </Trackpoint>
          <Trackpoint>
            <Time>2019-08-01T17:24:27.000Z</Time>
            <Position>
              <LatitudeDegrees>40.466833412647247314453125</LatitudeDegrees>
              <LongitudeDegrees>-4.01449450291693210601806640625</LongitudeDegrees>
            </Position>
            <AltitudeMeters>675.4000244140625</AltitudeMeters>
            <DistanceMeters>NAN</DistanceMeters>
          </Trackpoint>
          <Trackpoint>
            <Time>2019-08-01T17:24:28.000Z</Time>
            <Position>
              <LatitudeDegrees>40.466833412647247314453125</LatitudeDegrees>
              <LongitudeDegrees>-4.01449450291693210601806640625</LongitudeDegrees>
            </Position>
            <AltitudeMeters>675.4000244140625</AltitudeMeters>
            <DistanceMeters>NAN</DistanceMeters>
          </Trackpoint>
          <Trackpoint>
            <Time>2019-08-01T17:24:29.000Z</Time>
            <Position>
              <LatitudeDegrees>40.4666666127741336822509765625</LatitudeDegrees>
              <LongitudeDegrees>-4.01441738940775394439697265625</LongitudeDegrees>
            </Position>
            <AltitudeMeters>675</AltitudeMeters>
            <DistanceMeters>NAN</DistanceMeters>
          </Trackpoint>
          <Trackpoint>
            <Time>2019-08-01T17:24:30.000Z</Time>
            <Position>
              <LatitudeDegrees>40.4666666127741336822509765625</LatitudeDegrees>
              <LongitudeDegrees>-4.01441738940775394439697265625</LongitudeDegrees>
            </Position>
            <AltitudeMeters>675</AltitudeMeters>
            <DistanceMeters>NAN</DistanceMeters>
          </Trackpoint>
          <Trackpoint>
            <Time>2019-08-01T17:24:31.000Z</Time>
            <Position>
              <LatitudeDegrees>40.466501154005527496337890625</LatitudeDegrees>
              <LongitudeDegrees>-4.01433994062244892120361328125</LongitudeDegrees>
            </Position>
            <AltitudeMeters>674.79998779296875</AltitudeMeters>
            <DistanceMeters>NAN</DistanceMeters>
          </Trackpoint>
          <Trackpoint>
            <Time>2019-08-01T17:24:32.000Z</Time>
            <Position>
              <LatitudeDegrees>40.46641943044960498809814453125</LatitudeDegrees>
              <LongitudeDegrees>-4.0143007971346378326416015625</LongitudeDegrees>
            </Position>
            <AltitudeMeters>674.4000244140625</AltitudeMeters>
            <DistanceMeters>NAN</DistanceMeters>
          </Trackpoint>
          <Trackpoint>
            <Time>2019-08-01T17:24:33.000Z</Time>
            <Position>
              <LatitudeDegrees>40.466338209807872772216796875</LatitudeDegrees>
              <LongitudeDegrees>-4.0142619051039218902587890625</LongitudeDegrees>
            </Position>
            <AltitudeMeters>674.20001220703125</AltitudeMeters>
            <DistanceMeters>NAN</DistanceMeters>
          </Trackpoint>
          <Trackpoint>
            <Time>2019-08-01T17:24:34.000Z</Time>
            <Position>
              <LatitudeDegrees>40.4662572406232357025146484375</LatitudeDegrees>
              <LongitudeDegrees>-4.01422259397804737091064453125</LongitudeDegrees>
            </Position>
            <AltitudeMeters>674.20001220703125</AltitudeMeters>
            <DistanceMeters>NAN</DistanceMeters>
          </Trackpoint>
          <Trackpoint>
            <Time>2019-08-01T17:24:35.000Z</Time>
            <Position>
              <LatitudeDegrees>40.4662572406232357025146484375</LatitudeDegrees>
              <LongitudeDegrees>-4.01422259397804737091064453125</LongitudeDegrees>
            </Position>
            <AltitudeMeters>674</AltitudeMeters>
            <DistanceMeters>NAN</DistanceMeters>
          </Trackpoint>
          <Trackpoint>
            <Time>2019-08-01T17:24:36.000Z</Time>
            <Position>
              <LatitudeDegrees>40.46609387733042240142822265625</LatitudeDegrees>
              <LongitudeDegrees>-4.01414162479341030120849609375</LongitudeDegrees>
            </Position>
            <AltitudeMeters>674</AltitudeMeters>
            <DistanceMeters>NAN</DistanceMeters>
          </Trackpoint>
          <Trackpoint>
            <Time>2019-08-01T17:24:37.000Z</Time>
            <Position>
              <LatitudeDegrees>40.4660114832222461700439453125</LatitudeDegrees>
              <LongitudeDegrees>-4.01410105638206005096435546875</LongitudeDegrees>
            </Position>
            <AltitudeMeters>673.79998779296875</AltitudeMeters>
            <DistanceMeters>NAN</DistanceMeters>
          </Trackpoint>
          <Trackpoint>
            <Time>2019-08-01T17:24:38.000Z</Time>
            <Position>
              <LatitudeDegrees>40.46592892147600650787353515625</LatitudeDegrees>
              <LongitudeDegrees>-4.01406057178974151611328125</LongitudeDegrees>
            </Position>
            <AltitudeMeters>673.5999755859375</AltitudeMeters>
            <DistanceMeters>NAN</DistanceMeters>
          </Trackpoint>
          <Trackpoint>
            <Time>2019-08-01T17:24:39.000Z</Time>
            <Position>
              <LatitudeDegrees>40.46584627591073513031005859375</LatitudeDegrees>
              <LongitudeDegrees>-4.01402025483548641204833984375</LongitudeDegrees>
            </Position>
            <AltitudeMeters>673.5999755859375</AltitudeMeters>
            <DistanceMeters>NAN</DistanceMeters>
          </Trackpoint>
          <Trackpoint>
            <Time>2019-08-01T17:24:40.000Z</Time>
            <Position>
              <LatitudeDegrees>40.4657637141644954681396484375</LatitudeDegrees>
              <LongitudeDegrees>-4.013979099690914154052734375</LongitudeDegrees>
            </Position>
            <AltitudeMeters>673.5999755859375</AltitudeMeters>
            <DistanceMeters>NAN</DistanceMeters>
          </Trackpoint>
          <Trackpoint>
            <Time>2019-08-01T17:24:41.000Z</Time>
            <Position>
              <LatitudeDegrees>40.46568182297050952911376953125</LatitudeDegrees>
              <LongitudeDegrees>-4.01393777690827846527099609375</LongitudeDegrees>
            </Position>
            <AltitudeMeters>673.5999755859375</AltitudeMeters>
            <DistanceMeters>NAN</DistanceMeters>
          </Trackpoint>
          <Trackpoint>
            <Time>2019-08-01T17:24:42.000Z</Time>
            <Position>
              <LatitudeDegrees>40.46560085378587245941162109375</LatitudeDegrees>
              <LongitudeDegrees>-4.01389787904918193817138671875</LongitudeDegrees>
            </Position>
            <AltitudeMeters>673.4000244140625</AltitudeMeters>
            <DistanceMeters>NAN</DistanceMeters>
          </Trackpoint>
          <Trackpoint>
            <Time>2019-08-01T17:24:43.000Z</Time>
            <Position>
              <LatitudeDegrees>40.46552089042961597442626953125</LatitudeDegrees>
              <LongitudeDegrees>-4.01385932229459285736083984375</LongitudeDegrees>
            </Position>
            <AltitudeMeters>673.4000244140625</AltitudeMeters>
            <DistanceMeters>NAN</DistanceMeters>
          </Trackpoint>
          <Trackpoint>
            <Time>2019-08-01T17:24:44.000Z</Time>
            <Position>
              <LatitudeDegrees>40.4654418490827083587646484375</LatitudeDegrees>
              <LongitudeDegrees>-4.0138196758925914764404296875</LongitudeDegrees>
            </Position>
            <AltitudeMeters>673.4000244140625</AltitudeMeters>
            <DistanceMeters>NAN</DistanceMeters>
          </Trackpoint>
          <Trackpoint>
            <Time>2019-08-01T17:24:45.000Z</Time>
            <Position>
              <LatitudeDegrees>40.46536431647837162017822265625</LatitudeDegrees>
              <LongitudeDegrees>-4.013780616223812103271484375</LongitudeDegrees>
            </Position>
            <AltitudeMeters>673.4000244140625</AltitudeMeters>
            <DistanceMeters>NAN</DistanceMeters>
          </Trackpoint>
          <Trackpoint>
            <Time>2019-08-01T17:24:46.000Z</Time>
            <Position>
              <LatitudeDegrees>40.46528820879757404327392578125</LatitudeDegrees>
              <LongitudeDegrees>-4.01374298147857189178466796875</LongitudeDegrees>
            </Position>
            <AltitudeMeters>673</AltitudeMeters>
            <DistanceMeters>NAN</DistanceMeters>
          </Trackpoint>
          <Trackpoint>
            <Time>2019-08-01T17:24:47.000Z</Time>
            <Position>
              <LatitudeDegrees>40.46521243639290332794189453125</LatitudeDegrees>
              <LongitudeDegrees>-4.013705514371395111083984375</LongitudeDegrees>
            </Position>
            <AltitudeMeters>673</AltitudeMeters>
            <DistanceMeters>NAN</DistanceMeters>
          </Trackpoint>
          <Trackpoint>
            <Time>2019-08-01T17:24:48.000Z</Time>
            <Position>
              <LatitudeDegrees>40.46513750217854976654052734375</LatitudeDegrees>
              <LongitudeDegrees>-4.013668633997440338134765625</LongitudeDegrees>
            </Position>
            <AltitudeMeters>672.79998779296875</AltitudeMeters>
            <DistanceMeters>NAN</DistanceMeters>
          </Trackpoint>
          <Trackpoint>
            <Time>2019-08-01T17:24:49.000Z</Time>
            <Position>
              <LatitudeDegrees>40.46506273560225963592529296875</LatitudeDegrees>
              <LongitudeDegrees>-4.0136319212615489959716796875</LongitudeDegrees>
            </Position>
            <AltitudeMeters>672.79998779296875</AltitudeMeters>
            <DistanceMeters>NAN</DistanceMeters>
          </Trackpoint>
          <Trackpoint>
            <Time>2019-08-01T17:24:50.000Z</Time>
            <Position>
              <LatitudeDegrees>40.4649882204830646514892578125</LatitudeDegrees>
              <LongitudeDegrees>-4.013593532145023345947265625</LongitudeDegrees>
            </Position>
            <AltitudeMeters>672.5999755859375</AltitudeMeters>
            <DistanceMeters>NAN</DistanceMeters>
          </Trackpoint>
          <Trackpoint>
            <Time>2019-08-01T17:24:51.000Z</Time>
            <Position>
              <LatitudeDegrees>40.46491362154483795166015625</LatitudeDegrees>
              <LongitudeDegrees>-4.01355489157140254974365234375</LongitudeDegrees>
            </Position>
            <AltitudeMeters>672.5999755859375</AltitudeMeters>
            <DistanceMeters>NAN</DistanceMeters>
          </Trackpoint>
          <Trackpoint>
            <Time>2019-08-01T17:24:52.000Z</Time>
            <Position>
              <LatitudeDegrees>40.46491362154483795166015625</LatitudeDegrees>
              <LongitudeDegrees>-4.01355489157140254974365234375</LongitudeDegrees>
            </Position>
            <AltitudeMeters>672.4000244140625</AltitudeMeters>
            <DistanceMeters>NAN</DistanceMeters>
          </Trackpoint>
          <Trackpoint>
            <Time>2019-08-01T17:24:53.000Z</Time>
            <Position>
              <LatitudeDegrees>40.464763753116130828857421875</LatitudeDegrees>
              <LongitudeDegrees>-4.01348121464252471923828125</LongitudeDegrees>
            </Position>
            <AltitudeMeters>672.4000244140625</AltitudeMeters>
            <DistanceMeters>NAN</DistanceMeters>
          </Trackpoint>
          <Trackpoint>
            <Time>2019-08-01T17:24:54.000Z</Time>
            <Position>
              <LatitudeDegrees>40.4646894894540309906005859375</LatitudeDegrees>
              <LongitudeDegrees>-4.013443998992443084716796875</LongitudeDegrees>
            </Position>
            <AltitudeMeters>672.4000244140625</AltitudeMeters>
            <DistanceMeters>NAN</DistanceMeters>
          </Trackpoint>
          <Trackpoint>
            <Time>2019-08-01T17:24:55.000Z</Time>
            <Position>
              <LatitudeDegrees>40.46461497433483600616455078125</LatitudeDegrees>
              <LongitudeDegrees>-4.01340669952332973480224609375</LongitudeDegrees>
            </Position>
            <AltitudeMeters>672.20001220703125</AltitudeMeters>
            <DistanceMeters>NAN</DistanceMeters>
          </Trackpoint>
          <Trackpoint>
            <Time>2019-08-01T17:24:56.000Z</Time>
            <Position>
              <LatitudeDegrees>40.46454012393951416015625</LatitudeDegrees>
              <LongitudeDegrees>-4.01337015442550182342529296875</LongitudeDegrees>
            </Position>
            <AltitudeMeters>672.20001220703125</AltitudeMeters>
            <DistanceMeters>NAN</DistanceMeters>
          </Trackpoint>
          <Trackpoint>
            <Time>2019-08-01T17:24:57.000Z</Time>
            <Position>
              <LatitudeDegrees>40.46454012393951416015625</LatitudeDegrees>
              <LongitudeDegrees>-4.01337015442550182342529296875</LongitudeDegrees>
            </Position>
            <AltitudeMeters>672</AltitudeMeters>
            <DistanceMeters>NAN</DistanceMeters>
          </Trackpoint>
          <Trackpoint>
            <Time>2019-08-01T17:24:58.000Z</Time>
            <Position>
              <LatitudeDegrees>40.4643904231488704681396484375</LatitudeDegrees>
              <LongitudeDegrees>-4.01329522021114826202392578125</LongitudeDegrees>
            </Position>
            <AltitudeMeters>672</AltitudeMeters>
            <DistanceMeters>NAN</DistanceMeters>
          </Trackpoint>
          <Trackpoint>
            <Time>2019-08-01T17:24:59.000Z</Time>
            <Position>
              <LatitudeDegrees>40.46431574039161205291748046875</LatitudeDegrees>
              <LongitudeDegrees>-4.01325817219913005828857421875</LongitudeDegrees>
            </Position>
            <AltitudeMeters>672</AltitudeMeters>
            <DistanceMeters>NAN</DistanceMeters>
          </Trackpoint>
          <Trackpoint>
            <Time>2019-08-01T17:25:00.000Z</Time>
            <Position>
              <LatitudeDegrees>40.4642410576343536376953125</LatitudeDegrees>
              <LongitudeDegrees>-4.01322179473936557769775390625</LongitudeDegrees>
            </Position>
            <AltitudeMeters>672</AltitudeMeters>
            <DistanceMeters>NAN</DistanceMeters>
          </Trackpoint>
          <Trackpoint>
            <Time>2019-08-01T17:25:01.000Z</Time>
            <Position>
              <LatitudeDegrees>40.46416671015322208404541015625</LatitudeDegrees>
              <LongitudeDegrees>-4.01318617165088653564453125</LongitudeDegrees>
            </Position>
            <AltitudeMeters>672</AltitudeMeters>
            <DistanceMeters>NAN</DistanceMeters>
          </Trackpoint>
          <Trackpoint>
            <Time>2019-08-01T17:25:02.000Z</Time>
            <Position>
              <LatitudeDegrees>40.4640920273959636688232421875</LatitudeDegrees>
              <LongitudeDegrees>-4.01315373368561267852783203125</LongitudeDegrees>
            </Position>
            <AltitudeMeters>672</AltitudeMeters>
            <DistanceMeters>NAN</DistanceMeters>
          </Trackpoint>
          <Trackpoint>
            <Time>2019-08-01T17:25:03.000Z</Time>
            <Position>
              <LatitudeDegrees>40.4640920273959636688232421875</LatitudeDegrees>
              <LongitudeDegrees>-4.01315373368561267852783203125</LongitudeDegrees>
            </Position>
            <AltitudeMeters>671.79998779296875</AltitudeMeters>
            <DistanceMeters>NAN</DistanceMeters>
          </Trackpoint>
          <Trackpoint>
            <Time>2019-08-01T17:25:04.000Z</Time>
            <Position>
              <LatitudeDegrees>40.46394173987209796905517578125</LatitudeDegrees>
              <LongitudeDegrees>-4.013096652925014495849609375</LongitudeDegrees>
            </Position>
            <AltitudeMeters>671.79998779296875</AltitudeMeters>
            <DistanceMeters>NAN</DistanceMeters>
          </Trackpoint>
          <Trackpoint>
            <Time>2019-08-01T17:25:05.000Z</Time>
            <Position>
              <LatitudeDegrees>40.46386563219130039215087890625</LatitudeDegrees>
              <LongitudeDegrees>-4.01307008229196071624755859375</LongitudeDegrees>
            </Position>
            <AltitudeMeters>671.79998779296875</AltitudeMeters>
            <DistanceMeters>NAN</DistanceMeters>
          </Trackpoint>
          <Trackpoint>
            <Time>2019-08-01T17:25:06.000Z</Time>
            <Position>
              <LatitudeDegrees>40.46378985978662967681884765625</LatitudeDegrees>
              <LongitudeDegrees>-4.01304778642952442169189453125</LongitudeDegrees>
            </Position>
            <AltitudeMeters>671.79998779296875</AltitudeMeters>
            <DistanceMeters>NAN</DistanceMeters>
          </Trackpoint>
          <Trackpoint>
            <Time>2019-08-01T17:25:07.000Z</Time>
            <Position>
              <LatitudeDegrees>40.46371358446776866912841796875</LatitudeDegrees>
              <LongitudeDegrees>-4.01303957216441631317138671875</LongitudeDegrees>
            </Position>
            <AltitudeMeters>671.79998779296875</AltitudeMeters>
            <DistanceMeters>NAN</DistanceMeters>
          </Trackpoint>
          <Trackpoint>
            <Time>2019-08-01T17:25:08.000Z</Time>
            <Position>
              <LatitudeDegrees>40.46363881789147853851318359375</LatitudeDegrees>
              <LongitudeDegrees>-4.0130527317523956298828125</LongitudeDegrees>
            </Position>
            <AltitudeMeters>671.79998779296875</AltitudeMeters>
            <DistanceMeters>NAN</DistanceMeters>
          </Trackpoint>
          <Trackpoint>
            <Time>2019-08-01T17:25:09.000Z</Time>
            <Position>
              <LatitudeDegrees>40.4635673202574253082275390625</LatitudeDegrees>
              <LongitudeDegrees>-4.01308131404221057891845703125</LongitudeDegrees>
            </Position>
            <AltitudeMeters>671.79998779296875</AltitudeMeters>
            <DistanceMeters>NAN</DistanceMeters>
          </Trackpoint>
          <Trackpoint>
            <Time>2019-08-01T17:25:10.000Z</Time>
            <Position>
              <LatitudeDegrees>40.463497079908847808837890625</LatitudeDegrees>
              <LongitudeDegrees>-4.013111405074596405029296875</LongitudeDegrees>
            </Position>
            <AltitudeMeters>671.79998779296875</AltitudeMeters>
            <DistanceMeters>NAN</DistanceMeters>
          </Trackpoint>
          <Trackpoint>
            <Time>2019-08-01T17:25:11.000Z</Time>
            <Position>
              <LatitudeDegrees>40.46342591755092144012451171875</LatitudeDegrees>
              <LongitudeDegrees>-4.0131278336048126220703125</LongitudeDegrees>
            </Position>
            <AltitudeMeters>671.5999755859375</AltitudeMeters>
            <DistanceMeters>NAN</DistanceMeters>
          </Trackpoint>
          <Trackpoint>
            <Time>2019-08-01T17:25:12.000Z</Time>
            <Position>
              <LatitudeDegrees>40.46335567720234394073486328125</LatitudeDegrees>
              <LongitudeDegrees>-4.013122133910655975341796875</LongitudeDegrees>
            </Position>
            <AltitudeMeters>671.5999755859375</AltitudeMeters>
            <DistanceMeters>NAN</DistanceMeters>
          </Trackpoint>
          <Trackpoint>
            <Time>2019-08-01T17:25:13.000Z</Time>
            <Position>
              <LatitudeDegrees>40.46328946016728878021240234375</LatitudeDegrees>
              <LongitudeDegrees>-4.0130938030779361724853515625</LongitudeDegrees>
            </Position>
            <AltitudeMeters>671.5999755859375</AltitudeMeters>
            <DistanceMeters>NAN</DistanceMeters>
          </Trackpoint>
          <Trackpoint>
            <Time>2019-08-01T17:25:14.000Z</Time>
            <Position>
              <LatitudeDegrees>40.46323120594024658203125</LatitudeDegrees>
              <LongitudeDegrees>-4.0130441822111606597900390625</LongitudeDegrees>
            </Position>
            <AltitudeMeters>671.5999755859375</AltitudeMeters>
            <DistanceMeters>NAN</DistanceMeters>
          </Trackpoint>
          <Trackpoint>
            <Time>2019-08-01T17:25:15.000Z</Time>
            <Position>
              <LatitudeDegrees>40.4631820879876613616943359375</LatitudeDegrees>
              <LongitudeDegrees>-4.012978635728359222412109375</LongitudeDegrees>
            </Position>
            <AltitudeMeters>671.5999755859375</AltitudeMeters>
            <DistanceMeters>NAN</DistanceMeters>
          </Trackpoint>
          <Trackpoint>
            <Time>2019-08-01T17:25:16.000Z</Time>
            <Position>
              <LatitudeDegrees>40.46314076520502567291259765625</LatitudeDegrees>
              <LongitudeDegrees>-4.01290210895240306854248046875</LongitudeDegrees>
            </Position>
            <AltitudeMeters>671.5999755859375</AltitudeMeters>
            <DistanceMeters>NAN</DistanceMeters>
          </Trackpoint>
          <Trackpoint>
            <Time>2019-08-01T17:25:17.000Z</Time>
            <Position>
              <LatitudeDegrees>40.46310245990753173828125</LatitudeDegrees>
              <LongitudeDegrees>-4.0128215588629245758056640625</LongitudeDegrees>
            </Position>
            <AltitudeMeters>671.79998779296875</AltitudeMeters>
            <DistanceMeters>NAN</DistanceMeters>
          </Trackpoint>
          <Trackpoint>
            <Time>2019-08-01T17:25:18.000Z</Time>
            <Position>
              <LatitudeDegrees>40.46306281350553035736083984375</LatitudeDegrees>
              <LongitudeDegrees>-4.01274025440216064453125</LongitudeDegrees>
            </Position>
            <AltitudeMeters>671.79998779296875</AltitudeMeters>
            <DistanceMeters>NAN</DistanceMeters>
          </Trackpoint>
          <Trackpoint>
            <Time>2019-08-01T17:25:19.000Z</Time>
            <Position>
              <LatitudeDegrees>40.46301595866680145263671875</LatitudeDegrees>
              <LongitudeDegrees>-4.01266691274940967559814453125</LongitudeDegrees>
            </Position>
            <AltitudeMeters>672</AltitudeMeters>
            <DistanceMeters>NAN</DistanceMeters>
          </Trackpoint>
          <Trackpoint>
            <Time>2019-08-01T17:25:20.000Z</Time>
            <Position>
              <LatitudeDegrees>40.462957955896854400634765625</LatitudeDegrees>
              <LongitudeDegrees>-4.01260815560817718505859375</LongitudeDegrees>
            </Position>
            <AltitudeMeters>672</AltitudeMeters>
            <DistanceMeters>NAN</DistanceMeters>
          </Trackpoint>
          <Trackpoint>
            <Time>2019-08-01T17:25:21.000Z</Time>
            <Position>
              <LatitudeDegrees>40.46289349906146526336669921875</LatitudeDegrees>
              <LongitudeDegrees>-4.01256063021719455718994140625</LongitudeDegrees>
            </Position>
            <AltitudeMeters>672.20001220703125</AltitudeMeters>
            <DistanceMeters>NAN</DistanceMeters>
          </Trackpoint>
          <Trackpoint>
            <Time>2019-08-01T17:25:22.000Z</Time>
            <Position>
              <LatitudeDegrees>40.46282577328383922576904296875</LatitudeDegrees>
              <LongitudeDegrees>-4.01251955889165401458740234375</LongitudeDegrees>
            </Position>
            <AltitudeMeters>672.4000244140625</AltitudeMeters>
            <DistanceMeters>NAN</DistanceMeters>
          </Trackpoint>
          <Trackpoint>
            <Time>2019-08-01T17:25:23.000Z</Time>
            <Position>
              <LatitudeDegrees>40.46275637112557888031005859375</LatitudeDegrees>
              <LongitudeDegrees>-4.01248217560350894927978515625</LongitudeDegrees>
            </Position>
            <AltitudeMeters>672.4000244140625</AltitudeMeters>
            <DistanceMeters>NAN</DistanceMeters>
          </Trackpoint>
          <Trackpoint>
            <Time>2019-08-01T17:25:24.000Z</Time>
            <Position>
              <LatitudeDegrees>40.462686382234096527099609375</LatitudeDegrees>
              <LongitudeDegrees>-4.01244630105793476104736328125</LongitudeDegrees>
            </Position>
            <AltitudeMeters>672.4000244140625</AltitudeMeters>
            <DistanceMeters>NAN</DistanceMeters>
          </Trackpoint>
          <Trackpoint>
            <Time>2019-08-01T17:25:25.000Z</Time>
            <Position>
              <LatitudeDegrees>40.4626164771616458892822265625</LatitudeDegrees>
              <LongitudeDegrees>-4.0124101750552654266357421875</LongitudeDegrees>
            </Position>
            <AltitudeMeters>672.4000244140625</AltitudeMeters>
            <DistanceMeters>NAN</DistanceMeters>
          </Trackpoint>
          <Trackpoint>
            <Time>2019-08-01T17:25:26.000Z</Time>
            <Position>
              <LatitudeDegrees>40.4625464044511318206787109375</LatitudeDegrees>
              <LongitudeDegrees>-4.01237539015710353851318359375</LongitudeDegrees>
            </Position>
            <AltitudeMeters>672.4000244140625</AltitudeMeters>
            <DistanceMeters>NAN</DistanceMeters>
          </Trackpoint>
          <Trackpoint>
            <Time>2019-08-01T17:25:27.000Z</Time>
            <Position>
              <LatitudeDegrees>40.46247524209320545196533203125</LatitudeDegrees>
              <LongitudeDegrees>-4.01234186254441738128662109375</LongitudeDegrees>
            </Position>
            <AltitudeMeters>672.4000244140625</AltitudeMeters>
            <DistanceMeters>NAN</DistanceMeters>
          </Trackpoint>
          <Trackpoint>
            <Time>2019-08-01T17:25:28.000Z</Time>
            <Position>
              <LatitudeDegrees>40.46240382827818393707275390625</LatitudeDegrees>
              <LongitudeDegrees>-4.01230732910335063934326171875</LongitudeDegrees>
            </Position>
            <AltitudeMeters>672.4000244140625</AltitudeMeters>
            <DistanceMeters>NAN</DistanceMeters>
          </Trackpoint>
          <Trackpoint>
            <Time>2019-08-01T17:25:29.000Z</Time>
            <Position>
              <LatitudeDegrees>40.46240382827818393707275390625</LatitudeDegrees>
              <LongitudeDegrees>-4.01230732910335063934326171875</LongitudeDegrees>
            </Position>
            <AltitudeMeters>672.4000244140625</AltitudeMeters>
            <DistanceMeters>NAN</DistanceMeters>
          </Trackpoint>
          <Trackpoint>
            <Time>2019-08-01T17:25:30.000Z</Time>
            <Position>
              <LatitudeDegrees>40.46226250939071178436279296875</LatitudeDegrees>
              <LongitudeDegrees>-4.0122348256409168243408203125</LongitudeDegrees>
            </Position>
            <AltitudeMeters>672.4000244140625</AltitudeMeters>
            <DistanceMeters>NAN</DistanceMeters>
          </Trackpoint>
          <Trackpoint>
            <Time>2019-08-01T17:25:31.000Z</Time>
            <Position>
              <LatitudeDegrees>40.46219143085181713104248046875</LatitudeDegrees>
              <LongitudeDegrees>-4.01219903491437435150146484375</LongitudeDegrees>
            </Position>
            <AltitudeMeters>672.5999755859375</AltitudeMeters>
            <DistanceMeters>NAN</DistanceMeters>
          </Trackpoint>
          <Trackpoint>
            <Time>2019-08-01T17:25:32.000Z</Time>
            <Position>
              <LatitudeDegrees>40.4621202684938907623291015625</LatitudeDegrees>
              <LongitudeDegrees>-4.012163914740085601806640625</LongitudeDegrees>
            </Position>
            <AltitudeMeters>672.5999755859375</AltitudeMeters>
            <DistanceMeters>NAN</DistanceMeters>
          </Trackpoint>
          <Trackpoint>
            <Time>2019-08-01T17:25:33.000Z</Time>
            <Position>
              <LatitudeDegrees>40.46204860322177410125732421875</LatitudeDegrees>
              <LongitudeDegrees>-4.012129046022891998291015625</LongitudeDegrees>
            </Position>
            <AltitudeMeters>672.5999755859375</AltitudeMeters>
            <DistanceMeters>NAN</DistanceMeters>
          </Trackpoint>
          <Trackpoint>
            <Time>2019-08-01T17:25:34.000Z</Time>
            <Position>
              <LatitudeDegrees>40.4619767703115940093994140625</LatitudeDegrees>
              <LongitudeDegrees>-4.012093506753444671630859375</LongitudeDegrees>
            </Position>
            <AltitudeMeters>672.5999755859375</AltitudeMeters>
            <DistanceMeters>NAN</DistanceMeters>
          </Trackpoint>
          <Trackpoint>
            <Time>2019-08-01T17:25:35.000Z</Time>
            <Position>
              <LatitudeDegrees>40.46190493740141391754150390625</LatitudeDegrees>
              <LongitudeDegrees>-4.01205687783658504486083984375</LongitudeDegrees>
            </Position>
            <AltitudeMeters>672.5999755859375</AltitudeMeters>
            <DistanceMeters>NAN</DistanceMeters>
          </Trackpoint>
          <Trackpoint>
            <Time>2019-08-01T17:25:36.000Z</Time>
            <Position>
              <LatitudeDegrees>40.4618322663009166717529296875</LatitudeDegrees>
              <LongitudeDegrees>-4.0120192430913448333740234375</LongitudeDegrees>
            </Position>
            <AltitudeMeters>672.5999755859375</AltitudeMeters>
            <DistanceMeters>NAN</DistanceMeters>
          </Trackpoint>
          <Trackpoint>
            <Time>2019-08-01T17:25:37.000Z</Time>
            <Position>
              <LatitudeDegrees>40.46175875701010227203369140625</LatitudeDegrees>
              <LongitudeDegrees>-4.0119816921651363372802734375</LongitudeDegrees>
            </Position>
            <AltitudeMeters>672.5999755859375</AltitudeMeters>
            <DistanceMeters>NAN</DistanceMeters>
          </Trackpoint>
          <Trackpoint>
            <Time>2019-08-01T17:25:38.000Z</Time>
            <Position>
              <LatitudeDegrees>40.46168449334800243377685546875</LatitudeDegrees>
              <LongitudeDegrees>-4.01194556616246700286865234375</LongitudeDegrees>
            </Position>
            <AltitudeMeters>672.5999755859375</AltitudeMeters>
            <DistanceMeters>NAN</DistanceMeters>
          </Trackpoint>
          <Trackpoint>
            <Time>2019-08-01T17:25:39.000Z</Time>
            <Position>
              <LatitudeDegrees>40.461609475314617156982421875</LatitudeDegrees>
              <LongitudeDegrees>-4.01190935634076595306396484375</LongitudeDegrees>
            </Position>
            <AltitudeMeters>672.4000244140625</AltitudeMeters>
            <DistanceMeters>NAN</DistanceMeters>
          </Trackpoint>
          <Trackpoint>
            <Time>2019-08-01T17:25:40.000Z</Time>
            <Position>
              <LatitudeDegrees>40.46153378672897815704345703125</LatitudeDegrees>
              <LongitudeDegrees>-4.011871553957462310791015625</LongitudeDegrees>
            </Position>
            <AltitudeMeters>672.4000244140625</AltitudeMeters>
            <DistanceMeters>NAN</DistanceMeters>
          </Trackpoint>
          <Trackpoint>
            <Time>2019-08-01T17:25:41.000Z</Time>
            <Position>
              <LatitudeDegrees>40.4614577628672122955322265625</LatitudeDegrees>
              <LongitudeDegrees>-4.01183433830738067626953125</LongitudeDegrees>
            </Position>
            <AltitudeMeters>672.4000244140625</AltitudeMeters>
            <DistanceMeters>NAN</DistanceMeters>
          </Trackpoint>
          <Trackpoint>
            <Time>2019-08-01T17:25:42.000Z</Time>
            <Position>
              <LatitudeDegrees>40.4613818228244781494140625</LatitudeDegrees>
              <LongitudeDegrees>-4.01179687120020389556884765625</LongitudeDegrees>
            </Position>
            <AltitudeMeters>672.4000244140625</AltitudeMeters>
            <DistanceMeters>NAN</DistanceMeters>
          </Trackpoint>
          <Trackpoint>
            <Time>2019-08-01T17:25:43.000Z</Time>
            <Position>
              <LatitudeDegrees>40.46130613423883914947509765625</LatitudeDegrees>
              <LongitudeDegrees>-4.0117590688169002532958984375</LongitudeDegrees>
            </Position>
            <AltitudeMeters>672.4000244140625</AltitudeMeters>
            <DistanceMeters>NAN</DistanceMeters>
          </Trackpoint>
          <Trackpoint>
            <Time>2019-08-01T17:25:44.000Z</Time>
            <Position>
              <LatitudeDegrees>40.46123019419610500335693359375</LatitudeDegrees>
              <LongitudeDegrees>-4.01172143407166004180908203125</LongitudeDegrees>
            </Position>
            <AltitudeMeters>672.4000244140625</AltitudeMeters>
            <DistanceMeters>NAN</DistanceMeters>
          </Trackpoint>
          <Trackpoint>
            <Time>2019-08-01T17:25:45.000Z</Time>
            <Position>
              <LatitudeDegrees>40.4611538350582122802734375</LatitudeDegrees>
              <LongitudeDegrees>-4.01168388314545154571533203125</LongitudeDegrees>
            </Position>
            <AltitudeMeters>672.4000244140625</AltitudeMeters>
            <DistanceMeters>NAN</DistanceMeters>
          </Trackpoint>
          <Trackpoint>
            <Time>2019-08-01T17:25:46.000Z</Time>
            <Position>
              <LatitudeDegrees>40.46107714064419269561767578125</LatitudeDegrees>
              <LongitudeDegrees>-4.0116460807621479034423828125</LongitudeDegrees>
            </Position>
            <AltitudeMeters>672.4000244140625</AltitudeMeters>
            <DistanceMeters>NAN</DistanceMeters>
          </Trackpoint>
          <Trackpoint>
            <Time>2019-08-01T17:25:47.000Z</Time>
            <Position>
              <LatitudeDegrees>40.4610007815062999725341796875</LatitudeDegrees>
              <LongitudeDegrees>-4.01160660199820995330810546875</LongitudeDegrees>
            </Position>
            <AltitudeMeters>672.4000244140625</AltitudeMeters>
            <DistanceMeters>NAN</DistanceMeters>
          </Trackpoint>
          <Trackpoint>
            <Time>2019-08-01T17:25:48.000Z</Time>
            <Position>
              <LatitudeDegrees>40.4610007815062999725341796875</LatitudeDegrees>
              <LongitudeDegrees>-4.01160660199820995330810546875</LongitudeDegrees>
            </Position>
            <AltitudeMeters>672.20001220703125</AltitudeMeters>
            <DistanceMeters>NAN</DistanceMeters>
          </Trackpoint>
          <Trackpoint>
            <Time>2019-08-01T17:25:49.000Z</Time>
            <Position>
              <LatitudeDegrees>40.46084848232567310333251953125</LatitudeDegrees>
              <LongitudeDegrees>-4.01153166778385639190673828125</LongitudeDegrees>
            </Position>
            <AltitudeMeters>672.4000244140625</AltitudeMeters>
            <DistanceMeters>NAN</DistanceMeters>
          </Trackpoint>
          <Trackpoint>
            <Time>2019-08-01T17:25:50.000Z</Time>
            <Position>
              <LatitudeDegrees>40.46077287755906581878662109375</LatitudeDegrees>
              <LongitudeDegrees>-4.01149411685764789581298828125</LongitudeDegrees>
            </Position>
            <AltitudeMeters>672</AltitudeMeters>
            <DistanceMeters>NAN</DistanceMeters>
          </Trackpoint>
          <Trackpoint>
            <Time>2019-08-01T17:25:51.000Z</Time>
            <Position>
              <LatitudeDegrees>40.460697524249553680419921875</LatitudeDegrees>
              <LongitudeDegrees>-4.01145656593143939971923828125</LongitudeDegrees>
            </Position>
            <AltitudeMeters>671.79998779296875</AltitudeMeters>
            <DistanceMeters>NAN</DistanceMeters>
          </Trackpoint>
          <Trackpoint>
            <Time>2019-08-01T17:25:52.000Z</Time>
            <Position>
              <LatitudeDegrees>40.46062233857810497283935546875</LatitudeDegrees>
              <LongitudeDegrees>-4.0114184282720088958740234375</LongitudeDegrees>
            </Position>
            <AltitudeMeters>671.5999755859375</AltitudeMeters>
            <DistanceMeters>NAN</DistanceMeters>
          </Trackpoint>
          <Trackpoint>
            <Time>2019-08-01T17:25:53.000Z</Time>
            <Position>
              <LatitudeDegrees>40.46054773963987827301025390625</LatitudeDegrees>
              <LongitudeDegrees>-4.011379368603229522705078125</LongitudeDegrees>
            </Position>
            <AltitudeMeters>671.5999755859375</AltitudeMeters>
            <DistanceMeters>NAN</DistanceMeters>
          </Trackpoint>
          <Trackpoint>
            <Time>2019-08-01T17:25:54.000Z</Time>
            <Position>
              <LatitudeDegrees>40.46047247014939785003662109375</LatitudeDegrees>
              <LongitudeDegrees>-4.01134072802960872650146484375</LongitudeDegrees>
            </Position>
            <AltitudeMeters>671.4000244140625</AltitudeMeters>
            <DistanceMeters>NAN</DistanceMeters>
          </Trackpoint>
          <Trackpoint>
            <Time>2019-08-01T17:25:55.000Z</Time>
            <Position>
              <LatitudeDegrees>40.4603966139256954193115234375</LatitudeDegrees>
              <LongitudeDegrees>-4.01130317710340023040771484375</LongitudeDegrees>
            </Position>
            <AltitudeMeters>671.20001220703125</AltitudeMeters>
            <DistanceMeters>NAN</DistanceMeters>
          </Trackpoint>
          <Trackpoint>
            <Time>2019-08-01T17:25:56.000Z</Time>
            <Position>
              <LatitudeDegrees>40.460320673882961273193359375</LatitudeDegrees>
              <LongitudeDegrees>-4.011266045272350311279296875</LongitudeDegrees>
            </Position>
            <AltitudeMeters>671.20001220703125</AltitudeMeters>
            <DistanceMeters>NAN</DistanceMeters>
          </Trackpoint>
          <Trackpoint>
            <Time>2019-08-01T17:25:57.000Z</Time>
            <Position>
              <LatitudeDegrees>40.4602447338402271270751953125</LatitudeDegrees>
              <LongitudeDegrees>-4.0112288296222686767578125</LongitudeDegrees>
            </Position>
            <AltitudeMeters>671</AltitudeMeters>
            <DistanceMeters>NAN</DistanceMeters>
          </Trackpoint>
          <Trackpoint>
            <Time>2019-08-01T17:25:58.000Z</Time>
            <Position>
              <LatitudeDegrees>40.4601686261594295501708984375</LatitudeDegrees>
              <LongitudeDegrees>-4.01119102723896503448486328125</LongitudeDegrees>
            </Position>
            <AltitudeMeters>671</AltitudeMeters>
            <DistanceMeters>NAN</DistanceMeters>
          </Trackpoint>
          <Trackpoint>
            <Time>2019-08-01T17:25:59.000Z</Time>
            <Position>
              <LatitudeDegrees>40.46009235084056854248046875</LatitudeDegrees>
              <LongitudeDegrees>-4.01115280576050281524658203125</LongitudeDegrees>
            </Position>
            <AltitudeMeters>670.79998779296875</AltitudeMeters>
            <DistanceMeters>NAN</DistanceMeters>
          </Trackpoint>
          <Trackpoint>
            <Time>2019-08-01T17:26:00.000Z</Time>
            <Position>
              <LatitudeDegrees>40.46001590788364410400390625</LatitudeDegrees>
              <LongitudeDegrees>-4.01111408136785030364990234375</LongitudeDegrees>
            </Position>
            <AltitudeMeters>670.79998779296875</AltitudeMeters>
            <DistanceMeters>NAN</DistanceMeters>
          </Trackpoint>
          <Trackpoint>
            <Time>2019-08-01T17:26:01.000Z</Time>
            <Position>
              <LatitudeDegrees>40.45993971638381481170654296875</LatitudeDegrees>
              <LongitudeDegrees>-4.01107535697519779205322265625</LongitudeDegrees>
            </Position>
            <AltitudeMeters>670.5999755859375</AltitudeMeters>
            <DistanceMeters>NAN</DistanceMeters>
          </Trackpoint>
          <Trackpoint>
            <Time>2019-08-01T17:26:02.000Z</Time>
            <Position>
              <LatitudeDegrees>40.45986360870301723480224609375</LatitudeDegrees>
              <LongitudeDegrees>-4.0110378898680210113525390625</LongitudeDegrees>
            </Position>
            <AltitudeMeters>670.5999755859375</AltitudeMeters>
            <DistanceMeters>NAN</DistanceMeters>
          </Trackpoint>
          <Trackpoint>
            <Time>2019-08-01T17:26:03.000Z</Time>
            <Position>
              <LatitudeDegrees>40.45978766866028308868408203125</LatitudeDegrees>
              <LongitudeDegrees>-4.011001177132129669189453125</LongitudeDegrees>
            </Position>
            <AltitudeMeters>670.5999755859375</AltitudeMeters>
            <DistanceMeters>NAN</DistanceMeters>
          </Trackpoint>
          <Trackpoint>
            <Time>2019-08-01T17:26:04.000Z</Time>
            <Position>
              <LatitudeDegrees>40.45978766866028308868408203125</LatitudeDegrees>
              <LongitudeDegrees>-4.011001177132129669189453125</LongitudeDegrees>
            </Position>
            <AltitudeMeters>670.4000244140625</AltitudeMeters>
            <DistanceMeters>NAN</DistanceMeters>
          </Trackpoint>
          <Trackpoint>
            <Time>2019-08-01T17:26:05.000Z</Time>
            <Position>
              <LatitudeDegrees>40.459636040031909942626953125</LatitudeDegrees>
              <LongitudeDegrees>-4.01092682965099811553955078125</LongitudeDegrees>
            </Position>
            <AltitudeMeters>670.20001220703125</AltitudeMeters>
            <DistanceMeters>NAN</DistanceMeters>
          </Trackpoint>
          <Trackpoint>
            <Time>2019-08-01T17:26:06.000Z</Time>
            <Position>
              <LatitudeDegrees>40.45956085436046123504638671875</LatitudeDegrees>
              <LongitudeDegrees>-4.0108890272676944732666015625</LongitudeDegrees>
            </Position>
            <AltitudeMeters>670</AltitudeMeters>
            <DistanceMeters>NAN</DistanceMeters>
          </Trackpoint>
          <Trackpoint>
            <Time>2019-08-01T17:26:07.000Z</Time>
            <Position>
              <LatitudeDegrees>40.45948558486998081207275390625</LatitudeDegrees>
              <LongitudeDegrees>-4.01085021905601024627685546875</LongitudeDegrees>
            </Position>
            <AltitudeMeters>670</AltitudeMeters>
            <DistanceMeters>NAN</DistanceMeters>
          </Trackpoint>
          <Trackpoint>
            <Time>2019-08-01T17:26:08.000Z</Time>
            <Position>
              <LatitudeDegrees>40.45940947718918323516845703125</LatitudeDegrees>
              <LongitudeDegrees>-4.01081300340592861175537109375</LongitudeDegrees>
            </Position>
            <AltitudeMeters>669.79998779296875</AltitudeMeters>
            <DistanceMeters>NAN</DistanceMeters>
          </Trackpoint>
          <Trackpoint>
            <Time>2019-08-01T17:26:09.000Z</Time>
            <Position>
              <LatitudeDegrees>40.45933353714644908905029296875</LatitudeDegrees>
              <LongitudeDegrees>-4.01077620685100555419921875</LongitudeDegrees>
            </Position>
            <AltitudeMeters>669.79998779296875</AltitudeMeters>
            <DistanceMeters>NAN</DistanceMeters>
          </Trackpoint>
          <Trackpoint>
            <Time>2019-08-01T17:26:10.000Z</Time>
            <Position>
              <LatitudeDegrees>40.45925826765596866607666015625</LatitudeDegrees>
              <LongitudeDegrees>-4.01073840446770191192626953125</LongitudeDegrees>
            </Position>
            <AltitudeMeters>669.5999755859375</AltitudeMeters>
            <DistanceMeters>NAN</DistanceMeters>
          </Trackpoint>
          <Trackpoint>
            <Time>2019-08-01T17:26:11.000Z</Time>
            <Position>
              <LatitudeDegrees>40.459183417260646820068359375</LatitudeDegrees>
              <LongitudeDegrees>-4.01069951243698596954345703125</LongitudeDegrees>
            </Position>
            <AltitudeMeters>669.4000244140625</AltitudeMeters>
            <DistanceMeters>NAN</DistanceMeters>
          </Trackpoint>
          <Trackpoint>
            <Time>2019-08-01T17:26:12.000Z</Time>
            <Position>
              <LatitudeDegrees>40.4591084830462932586669921875</LatitudeDegrees>
              <LongitudeDegrees>-4.01066246442496776580810546875</LongitudeDegrees>
            </Position>
            <AltitudeMeters>669.4000244140625</AltitudeMeters>
            <DistanceMeters>NAN</DistanceMeters>
          </Trackpoint>
          <Trackpoint>
            <Time>2019-08-01T17:26:13.000Z</Time>
            <Position>
              <LatitudeDegrees>40.4590340517461299896240234375</LatitudeDegrees>
              <LongitudeDegrees>-4.010626338422298431396484375</LongitudeDegrees>
            </Position>
            <AltitudeMeters>669.4000244140625</AltitudeMeters>
            <DistanceMeters>NAN</DistanceMeters>
          </Trackpoint>
          <Trackpoint>
            <Time>2019-08-01T17:26:14.000Z</Time>
            <Position>
              <LatitudeDegrees>40.4590340517461299896240234375</LatitudeDegrees>
              <LongitudeDegrees>-4.010626338422298431396484375</LongitudeDegrees>
            </Position>
            <AltitudeMeters>669.4000244140625</AltitudeMeters>
            <DistanceMeters>NAN</DistanceMeters>
          </Trackpoint>
          <Trackpoint>
            <Time>2019-08-01T17:26:15.000Z</Time>
            <Position>
              <LatitudeDegrees>40.45888661406934261322021484375</LatitudeDegrees>
              <LongitudeDegrees>-4.010552577674388885498046875</LongitudeDegrees>
            </Position>
            <AltitudeMeters>669.4000244140625</AltitudeMeters>
            <DistanceMeters>NAN</DistanceMeters>
          </Trackpoint>
          <Trackpoint>
            <Time>2019-08-01T17:26:16.000Z</Time>
            <Position>
              <LatitudeDegrees>40.4588131047785282135009765625</LatitudeDegrees>
              <LongitudeDegrees>-4.0105165354907512664794921875</LongitudeDegrees>
            </Position>
            <AltitudeMeters>669.4000244140625</AltitudeMeters>
            <DistanceMeters>NAN</DistanceMeters>
          </Trackpoint>
          <Trackpoint>
            <Time>2019-08-01T17:26:17.000Z</Time>
            <Position>
              <LatitudeDegrees>40.4587393440306186676025390625</LatitudeDegrees>
              <LongitudeDegrees>-4.01048091240227222442626953125</LongitudeDegrees>
            </Position>
            <AltitudeMeters>669.4000244140625</AltitudeMeters>
            <DistanceMeters>NAN</DistanceMeters>
          </Trackpoint>
          <Trackpoint>
            <Time>2019-08-01T17:26:18.000Z</Time>
            <Position>
              <LatitudeDegrees>40.45866600237786769866943359375</LatitudeDegrees>
              <LongitudeDegrees>-4.01044369675219058990478515625</LongitudeDegrees>
            </Position>
            <AltitudeMeters>669.4000244140625</AltitudeMeters>
            <DistanceMeters>NAN</DistanceMeters>
          </Trackpoint>
          <Trackpoint>
            <Time>2019-08-01T17:26:19.000Z</Time>
            <Position>
              <LatitudeDegrees>40.45859299600124359130859375</LatitudeDegrees>
              <LongitudeDegrees>-4.01040614582598209381103515625</LongitudeDegrees>
            </Position>
            <AltitudeMeters>669.4000244140625</AltitudeMeters>
            <DistanceMeters>NAN</DistanceMeters>
          </Trackpoint>
          <Trackpoint>
            <Time>2019-08-01T17:26:20.000Z</Time>
            <Position>
              <LatitudeDegrees>40.45851948671042919158935546875</LatitudeDegrees>
              <LongitudeDegrees>-4.01037010364234447479248046875</LongitudeDegrees>
            </Position>
            <AltitudeMeters>669.4000244140625</AltitudeMeters>
            <DistanceMeters>NAN</DistanceMeters>
          </Trackpoint>
          <Trackpoint>
            <Time>2019-08-01T17:26:21.000Z</Time>
            <Position>
              <LatitudeDegrees>40.45844555832445621490478515625</LatitudeDegrees>
              <LongitudeDegrees>-4.01033364236354827880859375</LongitudeDegrees>
            </Position>
            <AltitudeMeters>669.4000244140625</AltitudeMeters>
            <DistanceMeters>NAN</DistanceMeters>
          </Trackpoint>
          <Trackpoint>
            <Time>2019-08-01T17:26:22.000Z</Time>
            <Position>
              <LatitudeDegrees>40.4583718813955783843994140625</LatitudeDegrees>
              <LongitudeDegrees>-4.01029684580862522125244140625</LongitudeDegrees>
            </Position>
            <AltitudeMeters>669.5999755859375</AltitudeMeters>
            <DistanceMeters>NAN</DistanceMeters>
          </Trackpoint>
          <Trackpoint>
            <Time>2019-08-01T17:26:23.000Z</Time>
            <Position>
              <LatitudeDegrees>40.45829795300960540771484375</LatitudeDegrees>
              <LongitudeDegrees>-4.01025979779660701751708984375</LongitudeDegrees>
            </Position>
            <AltitudeMeters>669.5999755859375</AltitudeMeters>
            <DistanceMeters>NAN</DistanceMeters>
          </Trackpoint>
          <Trackpoint>
            <Time>2019-08-01T17:26:24.000Z</Time>
            <Position>
              <LatitudeDegrees>40.4582233540713787078857421875</LatitudeDegrees>
              <LongitudeDegrees>-4.01022241450846195220947265625</LongitudeDegrees>
            </Position>
            <AltitudeMeters>669.5999755859375</AltitudeMeters>
            <DistanceMeters>NAN</DistanceMeters>
          </Trackpoint>
          <Trackpoint>
            <Time>2019-08-01T17:26:25.000Z</Time>
            <Position>
              <LatitudeDegrees>40.45814883895218372344970703125</LatitudeDegrees>
              <LongitudeDegrees>-4.01018653996288776397705078125</LongitudeDegrees>
            </Position>
            <AltitudeMeters>669.79998779296875</AltitudeMeters>
            <DistanceMeters>NAN</DistanceMeters>
          </Trackpoint>
          <Trackpoint>
            <Time>2019-08-01T17:26:26.000Z</Time>
            <Position>
              <LatitudeDegrees>40.4580746591091156005859375</LatitudeDegrees>
              <LongitudeDegrees>-4.0101510845124721527099609375</LongitudeDegrees>
            </Position>
            <AltitudeMeters>669.79998779296875</AltitudeMeters>
            <DistanceMeters>NAN</DistanceMeters>
          </Trackpoint>
          <Trackpoint>
            <Time>2019-08-01T17:26:27.000Z</Time>
            <Position>
              <LatitudeDegrees>40.4580746591091156005859375</LatitudeDegrees>
              <LongitudeDegrees>-4.0101510845124721527099609375</LongitudeDegrees>
            </Position>
            <AltitudeMeters>669.79998779296875</AltitudeMeters>
            <DistanceMeters>NAN</DistanceMeters>
          </Trackpoint>
          <Trackpoint>
            <Time>2019-08-01T17:26:28.000Z</Time>
            <Position>
              <LatitudeDegrees>40.4579271376132965087890625</LatitudeDegrees>
              <LongitudeDegrees>-4.01007791049778461456298828125</LongitudeDegrees>
            </Position>
            <AltitudeMeters>669.79998779296875</AltitudeMeters>
            <DistanceMeters>NAN</DistanceMeters>
          </Trackpoint>
          <Trackpoint>
            <Time>2019-08-01T17:26:29.000Z</Time>
            <Position>
              <LatitudeDegrees>40.4578538797795772552490234375</LatitudeDegrees>
              <LongitudeDegrees>-4.0100407786667346954345703125</LongitudeDegrees>
            </Position>
            <AltitudeMeters>669.79998779296875</AltitudeMeters>
            <DistanceMeters>NAN</DistanceMeters>
          </Trackpoint>
          <Trackpoint>
            <Time>2019-08-01T17:26:30.000Z</Time>
            <Position>
              <LatitudeDegrees>40.4577807895839214324951171875</LatitudeDegrees>
              <LongitudeDegrees>-4.0100045688450336456298828125</LongitudeDegrees>
            </Position>
            <AltitudeMeters>669.79998779296875</AltitudeMeters>
            <DistanceMeters>NAN</DistanceMeters>
          </Trackpoint>
          <Trackpoint>
            <Time>2019-08-01T17:26:31.000Z</Time>
            <Position>
              <LatitudeDegrees>40.457708202302455902099609375</LatitudeDegrees>
              <LongitudeDegrees>-4.009969532489776611328125</LongitudeDegrees>
            </Position>
            <AltitudeMeters>669.79998779296875</AltitudeMeters>
            <DistanceMeters>NAN</DistanceMeters>
          </Trackpoint>
          <Trackpoint>
            <Time>2019-08-01T17:26:32.000Z</Time>
            <Position>
              <LatitudeDegrees>40.45763670466840267181396484375</LatitudeDegrees>
              <LongitudeDegrees>-4.00993491522967815399169921875</LongitudeDegrees>
            </Position>
            <AltitudeMeters>669.79998779296875</AltitudeMeters>
            <DistanceMeters>NAN</DistanceMeters>
          </Trackpoint>
          <Trackpoint>
            <Time>2019-08-01T17:26:33.000Z</Time>
            <Position>
              <LatitudeDegrees>40.4575658775866031646728515625</LatitudeDegrees>
              <LongitudeDegrees>-4.00989853776991367340087890625</LongitudeDegrees>
            </Position>
            <AltitudeMeters>669.79998779296875</AltitudeMeters>
            <DistanceMeters>NAN</DistanceMeters>
          </Trackpoint>
          <Trackpoint>
            <Time>2019-08-01T17:26:34.000Z</Time>
            <Position>
              <LatitudeDegrees>40.45749605633318424224853515625</LatitudeDegrees>
              <LongitudeDegrees>-4.00986283086240291595458984375</LongitudeDegrees>
            </Position>
            <AltitudeMeters>669.79998779296875</AltitudeMeters>
            <DistanceMeters>NAN</DistanceMeters>
          </Trackpoint>
          <Trackpoint>
            <Time>2019-08-01T17:26:35.000Z</Time>
            <Position>
              <LatitudeDegrees>40.45742648653686046600341796875</LatitudeDegrees>
              <LongitudeDegrees>-4.009827710688114166259765625</LongitudeDegrees>
            </Position>
            <AltitudeMeters>670</AltitudeMeters>
            <DistanceMeters>NAN</DistanceMeters>
          </Trackpoint>
          <Trackpoint>
            <Time>2019-08-01T17:26:36.000Z</Time>
            <Position>
              <LatitudeDegrees>40.45735783874988555908203125</LatitudeDegrees>
              <LongitudeDegrees>-4.00979342870414257049560546875</LongitudeDegrees>
            </Position>
            <AltitudeMeters>670</AltitudeMeters>
            <DistanceMeters>NAN</DistanceMeters>
          </Trackpoint>
          <Trackpoint>
            <Time>2019-08-01T17:26:37.000Z</Time>
            <Position>
              <LatitudeDegrees>40.45728919096291065216064453125</LatitudeDegrees>
              <LongitudeDegrees>-4.00975889526307582855224609375</LongitudeDegrees>
            </Position>
            <AltitudeMeters>670</AltitudeMeters>
            <DistanceMeters>NAN</DistanceMeters>
          </Trackpoint>
          <Trackpoint>
            <Time>2019-08-01T17:26:38.000Z</Time>
            <Position>
              <LatitudeDegrees>40.4572208784520626068115234375</LatitudeDegrees>
              <LongitudeDegrees>-4.009724445641040802001953125</LongitudeDegrees>
            </Position>
            <AltitudeMeters>670.20001220703125</AltitudeMeters>
            <DistanceMeters>NAN</DistanceMeters>
          </Trackpoint>
          <Trackpoint>
            <Time>2019-08-01T17:26:39.000Z</Time>
            <Position>
              <LatitudeDegrees>40.45715273357927799224853515625</LatitudeDegrees>
              <LongitudeDegrees>-4.0096907503902912139892578125</LongitudeDegrees>
            </Position>
            <AltitudeMeters>670.20001220703125</AltitudeMeters>
            <DistanceMeters>NAN</DistanceMeters>
          </Trackpoint>
          <Trackpoint>
            <Time>2019-08-01T17:26:40.000Z</Time>
            <Position>
              <LatitudeDegrees>40.45708400197327136993408203125</LatitudeDegrees>
              <LongitudeDegrees>-4.00965747423470020294189453125</LongitudeDegrees>
            </Position>
            <AltitudeMeters>670.20001220703125</AltitudeMeters>
            <DistanceMeters>NAN</DistanceMeters>
          </Trackpoint>
          <Trackpoint>
            <Time>2019-08-01T17:26:41.000Z</Time>
            <Position>
              <LatitudeDegrees>40.4570151865482330322265625</LatitudeDegrees>
              <LongitudeDegrees>-4.00962310843169689178466796875</LongitudeDegrees>
            </Position>
            <AltitudeMeters>670.4000244140625</AltitudeMeters>
            <DistanceMeters>NAN</DistanceMeters>
          </Trackpoint>
          <Trackpoint>
            <Time>2019-08-01T17:26:42.000Z</Time>
            <Position>
              <LatitudeDegrees>40.45694670639932155609130859375</LatitudeDegrees>
              <LongitudeDegrees>-4.00958932936191558837890625</LongitudeDegrees>
            </Position>
            <AltitudeMeters>670.4000244140625</AltitudeMeters>
            <DistanceMeters>NAN</DistanceMeters>
          </Trackpoint>
          <Trackpoint>
            <Time>2019-08-01T17:26:43.000Z</Time>
            <Position>
              <LatitudeDegrees>40.45687881298363208770751953125</LatitudeDegrees>
              <LongitudeDegrees>-4.009554795920848846435546875</LongitudeDegrees>
            </Position>
            <AltitudeMeters>670.4000244140625</AltitudeMeters>
            <DistanceMeters>NAN</DistanceMeters>
          </Trackpoint>
          <Trackpoint>
            <Time>2019-08-01T17:26:44.000Z</Time>
            <Position>
              <LatitudeDegrees>40.45681041665375232696533203125</LatitudeDegrees>
              <LongitudeDegrees>-4.00951959192752838134765625</LongitudeDegrees>
            </Position>
            <AltitudeMeters>670.4000244140625</AltitudeMeters>
            <DistanceMeters>NAN</DistanceMeters>
          </Trackpoint>
          <Trackpoint>
            <Time>2019-08-01T17:26:45.000Z</Time>
            <Position>
              <LatitudeDegrees>40.45674202032387256622314453125</LatitudeDegrees>
              <LongitudeDegrees>-4.0094848908483982086181640625</LongitudeDegrees>
            </Position>
            <AltitudeMeters>670.5999755859375</AltitudeMeters>
            <DistanceMeters>NAN</DistanceMeters>
          </Trackpoint>
          <Trackpoint>
            <Time>2019-08-01T17:26:46.000Z</Time>
            <Position>
              <LatitudeDegrees>40.45667387545108795166015625</LatitudeDegrees>
              <LongitudeDegrees>-4.009451530873775482177734375</LongitudeDegrees>
            </Position>
            <AltitudeMeters>670.5999755859375</AltitudeMeters>
            <DistanceMeters>NAN</DistanceMeters>
          </Trackpoint>
          <Trackpoint>
            <Time>2019-08-01T17:26:47.000Z</Time>
            <Position>
              <LatitudeDegrees>40.45660556294023990631103515625</LatitudeDegrees>
              <LongitudeDegrees>-4.00941825471818447113037109375</LongitudeDegrees>
            </Position>
            <AltitudeMeters>670.79998779296875</AltitudeMeters>
            <DistanceMeters>NAN</DistanceMeters>
          </Trackpoint>
          <Trackpoint>
            <Time>2019-08-01T17:26:48.000Z</Time>
            <Position>
              <LatitudeDegrees>40.45653817243874073028564453125</LatitudeDegrees>
              <LongitudeDegrees>-4.0093833021819591522216796875</LongitudeDegrees>
            </Position>
            <AltitudeMeters>670.79998779296875</AltitudeMeters>
            <DistanceMeters>NAN</DistanceMeters>
          </Trackpoint>
          <Trackpoint>
            <Time>2019-08-01T17:26:49.000Z</Time>
            <Position>
              <LatitudeDegrees>40.45647111721336841583251953125</LatitudeDegrees>
              <LongitudeDegrees>-4.0093474276363849639892578125</LongitudeDegrees>
            </Position>
            <AltitudeMeters>670.79998779296875</AltitudeMeters>
            <DistanceMeters>NAN</DistanceMeters>
          </Trackpoint>
          <Trackpoint>
            <Time>2019-08-01T17:26:50.000Z</Time>
            <Position>
              <LatitudeDegrees>40.45640372671186923980712890625</LatitudeDegrees>
              <LongitudeDegrees>-4.0093142352998256683349609375</LongitudeDegrees>
            </Position>
            <AltitudeMeters>671</AltitudeMeters>
            <DistanceMeters>NAN</DistanceMeters>
          </Trackpoint>
          <Trackpoint>
            <Time>2019-08-01T17:26:51.000Z</Time>
            <Position>
              <LatitudeDegrees>40.45633600093424320220947265625</LatitudeDegrees>
              <LongitudeDegrees>-4.0092817135155200958251953125</LongitudeDegrees>
            </Position>
            <AltitudeMeters>671.20001220703125</AltitudeMeters>
            <DistanceMeters>NAN</DistanceMeters>
          </Trackpoint>
          <Trackpoint>
            <Time>2019-08-01T17:26:52.000Z</Time>
            <Position>
              <LatitudeDegrees>40.45626827515661716461181640625</LatitudeDegrees>
              <LongitudeDegrees>-4.009248353540897369384765625</LongitudeDegrees>
            </Position>
            <AltitudeMeters>671.20001220703125</AltitudeMeters>
            <DistanceMeters>NAN</DistanceMeters>
          </Trackpoint>
          <Trackpoint>
            <Time>2019-08-01T17:26:53.000Z</Time>
            <Position>
              <LatitudeDegrees>40.45620004646480083465576171875</LatitudeDegrees>
              <LongitudeDegrees>-4.0092143230140209197998046875</LongitudeDegrees>
            </Position>
            <AltitudeMeters>671.4000244140625</AltitudeMeters>
            <DistanceMeters>NAN</DistanceMeters>
          </Trackpoint>
          <Trackpoint>
            <Time>2019-08-01T17:26:54.000Z</Time>
            <Position>
              <LatitudeDegrees>40.45613148249685764312744140625</LatitudeDegrees>
              <LongitudeDegrees>-4.00917970575392246246337890625</LongitudeDegrees>
            </Position>
            <AltitudeMeters>671.4000244140625</AltitudeMeters>
            <DistanceMeters>NAN</DistanceMeters>
          </Trackpoint>
          <Trackpoint>
            <Time>2019-08-01T17:26:55.000Z</Time>
            <Position>
              <LatitudeDegrees>40.45606224797666072845458984375</LatitudeDegrees>
              <LongitudeDegrees>-4.0091449208557605743408203125</LongitudeDegrees>
            </Position>
            <AltitudeMeters>671.5999755859375</AltitudeMeters>
            <DistanceMeters>NAN</DistanceMeters>
          </Trackpoint>
          <Trackpoint>
            <Time>2019-08-01T17:26:56.000Z</Time>
            <Position>
              <LatitudeDegrees>40.45599251054227352142333984375</LatitudeDegrees>
              <LongitudeDegrees>-4.00910996831953525543212890625</LongitudeDegrees>
            </Position>
            <AltitudeMeters>671.5999755859375</AltitudeMeters>
            <DistanceMeters>NAN</DistanceMeters>
          </Trackpoint>
          <Trackpoint>
            <Time>2019-08-01T17:26:57.000Z</Time>
            <Position>
              <LatitudeDegrees>40.4559223540127277374267578125</LatitudeDegrees>
              <LongitudeDegrees>-4.0090750157833099365234375</LongitudeDegrees>
            </Position>
            <AltitudeMeters>671.79998779296875</AltitudeMeters>
            <DistanceMeters>NAN</DistanceMeters>
          </Trackpoint>
          <Trackpoint>
            <Time>2019-08-01T17:26:58.000Z</Time>
            <Position>
              <LatitudeDegrees>40.455851443111896514892578125</LatitudeDegrees>
              <LongitudeDegrees>-4.009039811789989471435546875</LongitudeDegrees>
            </Position>
            <AltitudeMeters>671.79998779296875</AltitudeMeters>
            <DistanceMeters>NAN</DistanceMeters>
          </Trackpoint>
          <Trackpoint>
            <Time>2019-08-01T17:26:59.000Z</Time>
            <Position>
              <LatitudeDegrees>40.45578061603009700775146484375</LatitudeDegrees>
              <LongitudeDegrees>-4.00900460779666900634765625</LongitudeDegrees>
            </Position>
            <AltitudeMeters>671.79998779296875</AltitudeMeters>
            <DistanceMeters>NAN</DistanceMeters>
          </Trackpoint>
          <Trackpoint>
            <Time>2019-08-01T17:27:00.000Z</Time>
            <Position>
              <LatitudeDegrees>40.45570987276732921600341796875</LatitudeDegrees>
              <LongitudeDegrees>-4.0089689008891582489013671875</LongitudeDegrees>
            </Position>
            <AltitudeMeters>672</AltitudeMeters>
            <DistanceMeters>NAN</DistanceMeters>
          </Trackpoint>
          <Trackpoint>
            <Time>2019-08-01T17:27:01.000Z</Time>
            <Position>
              <LatitudeDegrees>40.45563929714262485504150390625</LatitudeDegrees>
              <LongitudeDegrees>-4.00893327780067920684814453125</LongitudeDegrees>
            </Position>
            <AltitudeMeters>672</AltitudeMeters>
            <DistanceMeters>NAN</DistanceMeters>
          </Trackpoint>
          <Trackpoint>
            <Time>2019-08-01T17:27:02.000Z</Time>
            <Position>
              <LatitudeDegrees>40.455568470060825347900390625</LatitudeDegrees>
              <LongitudeDegrees>-4.008897654712200164794921875</LongitudeDegrees>
            </Position>
            <AltitudeMeters>672</AltitudeMeters>
            <DistanceMeters>NAN</DistanceMeters>
          </Trackpoint>
          <Trackpoint>
            <Time>2019-08-01T17:27:03.000Z</Time>
            <Position>
              <LatitudeDegrees>40.4554975591599941253662109375</LatitudeDegrees>
              <LongitudeDegrees>-4.00886253453791141510009765625</LongitudeDegrees>
            </Position>
            <AltitudeMeters>672</AltitudeMeters>
            <DistanceMeters>NAN</DistanceMeters>
          </Trackpoint>
          <Trackpoint>
            <Time>2019-08-01T17:27:04.000Z</Time>
            <Position>
              <LatitudeDegrees>40.45542656444013118743896484375</LatitudeDegrees>
              <LongitudeDegrees>-4.00882783345878124237060546875</LongitudeDegrees>
            </Position>
            <AltitudeMeters>671.79998779296875</AltitudeMeters>
            <DistanceMeters>NAN</DistanceMeters>
          </Trackpoint>
          <Trackpoint>
            <Time>2019-08-01T17:27:05.000Z</Time>
            <Position>
              <LatitudeDegrees>40.45535624027252197265625</LatitudeDegrees>
              <LongitudeDegrees>-4.0087922103703022003173828125</LongitudeDegrees>
            </Position>
            <AltitudeMeters>671.79998779296875</AltitudeMeters>
            <DistanceMeters>NAN</DistanceMeters>
          </Trackpoint>
          <Trackpoint>
            <Time>2019-08-01T17:27:06.000Z</Time>
            <Position>
              <LatitudeDegrees>40.455286167562007904052734375</LatitudeDegrees>
              <LongitudeDegrees>-4.00875516235828399658203125</LongitudeDegrees>
            </Position>
            <AltitudeMeters>672</AltitudeMeters>
            <DistanceMeters>NAN</DistanceMeters>
          </Trackpoint>
          <Trackpoint>
            <Time>2019-08-01T17:27:07.000Z</Time>
            <Position>
              <LatitudeDegrees>40.45521550811827182769775390625</LatitudeDegrees>
              <LongitudeDegrees>-4.00871937163174152374267578125</LongitudeDegrees>
            </Position>
            <AltitudeMeters>671.79998779296875</AltitudeMeters>
            <DistanceMeters>NAN</DistanceMeters>
          </Trackpoint>
          <Trackpoint>
            <Time>2019-08-01T17:27:08.000Z</Time>
            <Position>
              <LatitudeDegrees>40.45514442957937717437744140625</LatitudeDegrees>
              <LongitudeDegrees>-4.00868400000035762786865234375</LongitudeDegrees>
            </Position>
            <AltitudeMeters>671.79998779296875</AltitudeMeters>
            <DistanceMeters>NAN</DistanceMeters>
          </Trackpoint>
          <Trackpoint>
            <Time>2019-08-01T17:27:09.000Z</Time>
            <Position>
              <LatitudeDegrees>40.455073602497577667236328125</LatitudeDegrees>
              <LongitudeDegrees>-4.008648209273815155029296875</LongitudeDegrees>
            </Position>
            <AltitudeMeters>671.5999755859375</AltitudeMeters>
            <DistanceMeters>NAN</DistanceMeters>
          </Trackpoint>
          <Trackpoint>
            <Time>2019-08-01T17:27:10.000Z</Time>
            <Position>
              <LatitudeDegrees>40.455002523958683013916015625</LatitudeDegrees>
              <LongitudeDegrees>-4.00861434638500213623046875</LongitudeDegrees>
            </Position>
            <AltitudeMeters>671.5999755859375</AltitudeMeters>
            <DistanceMeters>NAN</DistanceMeters>
          </Trackpoint>
          <Trackpoint>
            <Time>2019-08-01T17:27:11.000Z</Time>
            <Position>
              <LatitudeDegrees>40.45493069104850292205810546875</LatitudeDegrees>
              <LongitudeDegrees>-4.00858350098133087158203125</LongitudeDegrees>
            </Position>
            <AltitudeMeters>671.5999755859375</AltitudeMeters>
            <DistanceMeters>NAN</DistanceMeters>
          </Trackpoint>
          <Trackpoint>
            <Time>2019-08-01T17:27:12.000Z</Time>
            <Position>
              <LatitudeDegrees>40.4548591934144496917724609375</LatitudeDegrees>
              <LongitudeDegrees>-4.0085548348724842071533203125</LongitudeDegrees>
            </Position>
            <AltitudeMeters>671.5999755859375</AltitudeMeters>
            <DistanceMeters>NAN</DistanceMeters>
          </Trackpoint>
          <Trackpoint>
            <Time>2019-08-01T17:27:13.000Z</Time>
            <Position>
              <LatitudeDegrees>40.45478761196136474609375</LatitudeDegrees>
              <LongitudeDegrees>-4.00852985680103302001953125</LongitudeDegrees>
            </Position>
            <AltitudeMeters>671.4000244140625</AltitudeMeters>
            <DistanceMeters>NAN</DistanceMeters>
          </Trackpoint>
          <Trackpoint>
            <Time>2019-08-01T17:27:14.000Z</Time>
            <Position>
              <LatitudeDegrees>40.454715527594089508056640625</LatitudeDegrees>
              <LongitudeDegrees>-4.00850764475762844085693359375</LongitudeDegrees>
            </Position>
            <AltitudeMeters>671.4000244140625</AltitudeMeters>
            <DistanceMeters>NAN</DistanceMeters>
          </Trackpoint>
          <Trackpoint>
            <Time>2019-08-01T17:27:15.000Z</Time>
            <Position>
              <LatitudeDegrees>40.4546432755887508392333984375</LatitudeDegrees>
              <LongitudeDegrees>-4.00848836638033390045166015625</LongitudeDegrees>
            </Position>
            <AltitudeMeters>671.4000244140625</AltitudeMeters>
            <DistanceMeters>NAN</DistanceMeters>
          </Trackpoint>
          <Trackpoint>
            <Time>2019-08-01T17:27:16.000Z</Time>
            <Position>
              <LatitudeDegrees>40.45457093976438045501708984375</LatitudeDegrees>
              <LongitudeDegrees>-4.00847227312624454498291015625</LongitudeDegrees>
            </Position>
            <AltitudeMeters>671.4000244140625</AltitudeMeters>
            <DistanceMeters>NAN</DistanceMeters>
          </Trackpoint>
          <Trackpoint>
            <Time>2019-08-01T17:27:17.000Z</Time>
            <Position>
              <LatitudeDegrees>40.4544987715780735015869140625</LatitudeDegrees>
              <LongitudeDegrees>-4.008460454642772674560546875</LongitudeDegrees>
            </Position>
            <AltitudeMeters>671.4000244140625</AltitudeMeters>
            <DistanceMeters>NAN</DistanceMeters>
          </Trackpoint>
          <Trackpoint>
            <Time>2019-08-01T17:27:18.000Z</Time>
            <Position>
              <LatitudeDegrees>40.4544268548488616943359375</LatitudeDegrees>
              <LongitudeDegrees>-4.0084592811763286590576171875</LongitudeDegrees>
            </Position>
            <AltitudeMeters>671.4000244140625</AltitudeMeters>
            <DistanceMeters>NAN</DistanceMeters>
          </Trackpoint>
          <Trackpoint>
            <Time>2019-08-01T17:27:19.000Z</Time>
            <Position>
              <LatitudeDegrees>40.4543566145002841949462890625</LatitudeDegrees>
              <LongitudeDegrees>-4.008477218449115753173828125</LongitudeDegrees>
            </Position>
            <AltitudeMeters>671.4000244140625</AltitudeMeters>
            <DistanceMeters>NAN</DistanceMeters>
          </Trackpoint>
          <Trackpoint>
            <Time>2019-08-01T17:27:20.000Z</Time>
            <Position>
              <LatitudeDegrees>40.454290397465229034423828125</LatitudeDegrees>
              <LongitudeDegrees>-4.00851644575595855712890625</LongitudeDegrees>
            </Position>
            <AltitudeMeters>671.4000244140625</AltitudeMeters>
            <DistanceMeters>NAN</DistanceMeters>
          </Trackpoint>
          <Trackpoint>
            <Time>2019-08-01T17:27:21.000Z</Time>
            <Position>
              <LatitudeDegrees>40.4542282037436962127685546875</LatitudeDegrees>
              <LongitudeDegrees>-4.00856547988951206207275390625</LongitudeDegrees>
            </Position>
            <AltitudeMeters>671.20001220703125</AltitudeMeters>
            <DistanceMeters>NAN</DistanceMeters>
          </Trackpoint>
          <Trackpoint>
            <Time>2019-08-01T17:27:22.000Z</Time>
            <Position>
              <LatitudeDegrees>40.45416332781314849853515625</LatitudeDegrees>
              <LongitudeDegrees>-4.00860629975795745849609375</LongitudeDegrees>
            </Position>
            <AltitudeMeters>671.20001220703125</AltitudeMeters>
            <DistanceMeters>NAN</DistanceMeters>
          </Trackpoint>
          <Trackpoint>
            <Time>2019-08-01T17:27:23.000Z</Time>
            <Position>
              <LatitudeDegrees>40.45409359037876129150390625</LatitudeDegrees>
              <LongitudeDegrees>-4.0086255781352519989013671875</LongitudeDegrees>
            </Position>
            <AltitudeMeters>671.20001220703125</AltitudeMeters>
            <DistanceMeters>NAN</DistanceMeters>
          </Trackpoint>
          <Trackpoint>
            <Time>2019-08-01T17:27:24.000Z</Time>
            <Position>
              <LatitudeDegrees>40.45402309857308864593505859375</LatitudeDegrees>
              <LongitudeDegrees>-4.00861945934593677520751953125</LongitudeDegrees>
            </Position>
            <AltitudeMeters>671</AltitudeMeters>
            <DistanceMeters>NAN</DistanceMeters>
          </Trackpoint>
          <Trackpoint>
            <Time>2019-08-01T17:27:25.000Z</Time>
            <Position>
              <LatitudeDegrees>40.4539569653570652008056640625</LatitudeDegrees>
              <LongitudeDegrees>-4.00858777575194835662841796875</LongitudeDegrees>
            </Position>
            <AltitudeMeters>671</AltitudeMeters>
            <DistanceMeters>NAN</DistanceMeters>
          </Trackpoint>
          <Trackpoint>
            <Time>2019-08-01T17:27:26.000Z</Time>
            <Position>
              <LatitudeDegrees>40.4539569653570652008056640625</LatitudeDegrees>
              <LongitudeDegrees>-4.00858777575194835662841796875</LongitudeDegrees>
            </Position>
            <AltitudeMeters>671</AltitudeMeters>
            <DistanceMeters>NAN</DistanceMeters>
          </Trackpoint>
          <Trackpoint>
            <Time>2019-08-01T17:27:27.000Z</Time>
            <Position>
              <LatitudeDegrees>40.4538543708622455596923828125</LatitudeDegrees>
              <LongitudeDegrees>-4.008461795747280120849609375</LongitudeDegrees>
            </Position>
            <AltitudeMeters>671</AltitudeMeters>
            <DistanceMeters>NAN</DistanceMeters>
          </Trackpoint>
          <Trackpoint>
            <Time>2019-08-01T17:27:28.000Z</Time>
            <Position>
              <LatitudeDegrees>40.4538258723914623260498046875</LatitudeDegrees>
              <LongitudeDegrees>-4.00837638415396213531494140625</LongitudeDegrees>
            </Position>
            <AltitudeMeters>671</AltitudeMeters>
            <DistanceMeters>NAN</DistanceMeters>
          </Trackpoint>
          <Trackpoint>
            <Time>2019-08-01T17:27:29.000Z</Time>
            <Position>
              <LatitudeDegrees>40.45381137169897556304931640625</LatitudeDegrees>
              <LongitudeDegrees>-4.008282758295536041259765625</LongitudeDegrees>
            </Position>
            <AltitudeMeters>671.20001220703125</AltitudeMeters>
            <DistanceMeters>NAN</DistanceMeters>
          </Trackpoint>
          <Trackpoint>
            <Time>2019-08-01T17:27:30.000Z</Time>
            <Position>
              <LatitudeDegrees>40.45381137169897556304931640625</LatitudeDegrees>
              <LongitudeDegrees>-4.008282758295536041259765625</LongitudeDegrees>
            </Position>
            <AltitudeMeters>671.20001220703125</AltitudeMeters>
            <DistanceMeters>NAN</DistanceMeters>
          </Trackpoint>
          <Trackpoint>
            <Time>2019-08-01T17:27:31.000Z</Time>
            <Position>
              <LatitudeDegrees>40.4537638463079929351806640625</LatitudeDegrees>
              <LongitudeDegrees>-4.00809994898736476898193359375</LongitudeDegrees>
            </Position>
            <AltitudeMeters>671.20001220703125</AltitudeMeters>
            <DistanceMeters>NAN</DistanceMeters>
          </Trackpoint>
          <Trackpoint>
            <Time>2019-08-01T17:27:32.000Z</Time>
            <Position>
              <LatitudeDegrees>40.4537135548889636993408203125</LatitudeDegrees>
              <LongitudeDegrees>-4.00803037919104099273681640625</LongitudeDegrees>
            </Position>
            <AltitudeMeters>671.20001220703125</AltitudeMeters>
            <DistanceMeters>NAN</DistanceMeters>
          </Trackpoint>
          <Trackpoint>
            <Time>2019-08-01T17:27:33.000Z</Time>
            <Position>
              <LatitudeDegrees>40.4536538757383823394775390625</LatitudeDegrees>
              <LongitudeDegrees>-4.00797707028687000274658203125</LongitudeDegrees>
            </Position>
            <AltitudeMeters>671.4000244140625</AltitudeMeters>
            <DistanceMeters>NAN</DistanceMeters>
          </Trackpoint>
          <Trackpoint>
            <Time>2019-08-01T17:27:34.000Z</Time>
            <Position>
              <LatitudeDegrees>40.45359059236943721771240234375</LatitudeDegrees>
              <LongitudeDegrees>-4.0079322271049022674560546875</LongitudeDegrees>
            </Position>
            <AltitudeMeters>671.5999755859375</AltitudeMeters>
            <DistanceMeters>NAN</DistanceMeters>
          </Trackpoint>
          <Trackpoint>
            <Time>2019-08-01T17:27:35.000Z</Time>
            <Position>
              <LatitudeDegrees>40.45352571643888950347900390625</LatitudeDegrees>
              <LongitudeDegrees>-4.0078903175890445709228515625</LongitudeDegrees>
            </Position>
            <AltitudeMeters>671.5999755859375</AltitudeMeters>
            <DistanceMeters>NAN</DistanceMeters>
          </Trackpoint>
          <Trackpoint>
            <Time>2019-08-01T17:27:36.000Z</Time>
            <Position>
              <LatitudeDegrees>40.4534585773944854736328125</LatitudeDegrees>
              <LongitudeDegrees>-4.00784949772059917449951171875</LongitudeDegrees>
            </Position>
            <AltitudeMeters>671.5999755859375</AltitudeMeters>
            <DistanceMeters>NAN</DistanceMeters>
          </Trackpoint>
          <Trackpoint>
            <Time>2019-08-01T17:27:37.000Z</Time>
            <Position>
              <LatitudeDegrees>40.4534585773944854736328125</LatitudeDegrees>
              <LongitudeDegrees>-4.00784949772059917449951171875</LongitudeDegrees>
            </Position>
            <AltitudeMeters>671.5999755859375</AltitudeMeters>
            <DistanceMeters>NAN</DistanceMeters>
          </Trackpoint>
          <Trackpoint>
            <Time>2019-08-01T17:27:38.000Z</Time>
            <Position>
              <LatitudeDegrees>40.45332035981118679046630859375</LatitudeDegrees>
              <LongitudeDegrees>-4.00777841918170452117919921875</LongitudeDegrees>
            </Position>
            <AltitudeMeters>671.5999755859375</AltitudeMeters>
            <DistanceMeters>NAN</DistanceMeters>
          </Trackpoint>
          <Trackpoint>
            <Time>2019-08-01T17:27:39.000Z</Time>
            <Position>
              <LatitudeDegrees>40.453250370919704437255859375</LatitudeDegrees>
              <LongitudeDegrees>-4.007749669253826141357421875</LongitudeDegrees>
            </Position>
            <AltitudeMeters>671.5999755859375</AltitudeMeters>
            <DistanceMeters>NAN</DistanceMeters>
          </Trackpoint>
          <Trackpoint>
            <Time>2019-08-01T17:27:40.000Z</Time>
            <Position>
              <LatitudeDegrees>40.4531801305711269378662109375</LatitudeDegrees>
              <LongitudeDegrees>-4.00772259570658206939697265625</LongitudeDegrees>
            </Position>
            <AltitudeMeters>671.5999755859375</AltitudeMeters>
            <DistanceMeters>NAN</DistanceMeters>
          </Trackpoint>
          <Trackpoint>
            <Time>2019-08-01T17:27:41.000Z</Time>
            <Position>
              <LatitudeDegrees>40.45310913585126399993896484375</LatitudeDegrees>
              <LongitudeDegrees>-4.00769434869289398193359375</LongitudeDegrees>
            </Position>
            <AltitudeMeters>671.5999755859375</AltitudeMeters>
            <DistanceMeters>NAN</DistanceMeters>
          </Trackpoint>
          <Trackpoint>
            <Time>2019-08-01T17:27:42.000Z</Time>
            <Position>
              <LatitudeDegrees>40.45303738676011562347412109375</LatitudeDegrees>
              <LongitudeDegrees>-4.0076640062034130096435546875</LongitudeDegrees>
            </Position>
            <AltitudeMeters>671.5999755859375</AltitudeMeters>
            <DistanceMeters>NAN</DistanceMeters>
          </Trackpoint>
          <Trackpoint>
            <Time>2019-08-01T17:27:43.000Z</Time>
            <Position>
              <LatitudeDegrees>40.45296530239284038543701171875</LatitudeDegrees>
              <LongitudeDegrees>-4.00763425044715404510498046875</LongitudeDegrees>
            </Position>
            <AltitudeMeters>671.5999755859375</AltitudeMeters>
            <DistanceMeters>NAN</DistanceMeters>
          </Trackpoint>
          <Trackpoint>
            <Time>2019-08-01T17:27:44.000Z</Time>
            <Position>
              <LatitudeDegrees>40.45296530239284038543701171875</LatitudeDegrees>
              <LongitudeDegrees>-4.00763425044715404510498046875</LongitudeDegrees>
            </Position>
            <AltitudeMeters>671.4000244140625</AltitudeMeters>
            <DistanceMeters>NAN</DistanceMeters>
          </Trackpoint>
          <Trackpoint>
            <Time>2019-08-01T17:27:45.000Z</Time>
            <Position>
              <LatitudeDegrees>40.45282088220119476318359375</LatitudeDegrees>
              <LongitudeDegrees>-4.0075731463730335235595703125</LongitudeDegrees>
            </Position>
            <AltitudeMeters>671.4000244140625</AltitudeMeters>
            <DistanceMeters>NAN</DistanceMeters>
          </Trackpoint>
          <Trackpoint>
            <Time>2019-08-01T17:27:46.000Z</Time>
            <Position>
              <LatitudeDegrees>40.452750809490680694580078125</LatitudeDegrees>
              <LongitudeDegrees>-4.007550179958343505859375</LongitudeDegrees>
            </Position>
            <AltitudeMeters>671.20001220703125</AltitudeMeters>
            <DistanceMeters>NAN</DistanceMeters>
          </Trackpoint>
          <Trackpoint>
            <Time>2019-08-01T17:27:47.000Z</Time>
            <Position>
              <LatitudeDegrees>40.45267964713275432586669921875</LatitudeDegrees>
              <LongitudeDegrees>-4.00751992128789424896240234375</LongitudeDegrees>
            </Position>
            <AltitudeMeters>671.20001220703125</AltitudeMeters>
            <DistanceMeters>NAN</DistanceMeters>
          </Trackpoint>
          <Trackpoint>
            <Time>2019-08-01T17:27:48.000Z</Time>
            <Position>
              <LatitudeDegrees>40.45260789804160594940185546875</LatitudeDegrees>
              <LongitudeDegrees>-4.00748840533196926116943359375</LongitudeDegrees>
            </Position>
            <AltitudeMeters>671.20001220703125</AltitudeMeters>
            <DistanceMeters>NAN</DistanceMeters>
          </Trackpoint>
          <Trackpoint>
            <Time>2019-08-01T17:27:49.000Z</Time>
            <Position>
              <LatitudeDegrees>40.45253648422658443450927734375</LatitudeDegrees>
              <LongitudeDegrees>-4.00745621882379055023193359375</LongitudeDegrees>
            </Position>
            <AltitudeMeters>671.20001220703125</AltitudeMeters>
            <DistanceMeters>NAN</DistanceMeters>
          </Trackpoint>
          <Trackpoint>
            <Time>2019-08-01T17:27:50.000Z</Time>
            <Position>
              <LatitudeDegrees>40.452463813126087188720703125</LatitudeDegrees>
              <LongitudeDegrees>-4.00741581805050373077392578125</LongitudeDegrees>
            </Position>
            <AltitudeMeters>671.20001220703125</AltitudeMeters>
            <DistanceMeters>NAN</DistanceMeters>
          </Trackpoint>
          <Trackpoint>
            <Time>2019-08-01T17:27:51.000Z</Time>
            <Position>
              <LatitudeDegrees>40.4523910582065582275390625</LatitudeDegrees>
              <LongitudeDegrees>-4.00738027878105640411376953125</LongitudeDegrees>
            </Position>
            <AltitudeMeters>671.20001220703125</AltitudeMeters>
            <DistanceMeters>NAN</DistanceMeters>
          </Trackpoint>
          <Trackpoint>
            <Time>2019-08-01T17:27:52.000Z</Time>
            <Position>
              <LatitudeDegrees>40.4523186385631561279296875</LatitudeDegrees>
              <LongitudeDegrees>-4.00734432041645050048828125</LongitudeDegrees>
            </Position>
            <AltitudeMeters>671.20001220703125</AltitudeMeters>
            <DistanceMeters>NAN</DistanceMeters>
          </Trackpoint>
          <Trackpoint>
            <Time>2019-08-01T17:27:53.000Z</Time>
            <Position>
              <LatitudeDegrees>40.45224663801491260528564453125</LatitudeDegrees>
              <LongitudeDegrees>-4.007307104766368865966796875</LongitudeDegrees>
            </Position>
            <AltitudeMeters>671.20001220703125</AltitudeMeters>
            <DistanceMeters>NAN</DistanceMeters>
          </Trackpoint>
          <Trackpoint>
            <Time>2019-08-01T17:27:54.000Z</Time>
            <Position>
              <LatitudeDegrees>40.4521737992763519287109375</LatitudeDegrees>
              <LongitudeDegrees>-4.00726796127855777740478515625</LongitudeDegrees>
            </Position>
            <AltitudeMeters>671.20001220703125</AltitudeMeters>
            <DistanceMeters>NAN</DistanceMeters>
          </Trackpoint>
          <Trackpoint>
            <Time>2019-08-01T17:27:55.000Z</Time>
            <Position>
              <LatitudeDegrees>40.45210163109004497528076171875</LatitudeDegrees>
              <LongitudeDegrees>-4.00723175145685672760009765625</LongitudeDegrees>
            </Position>
            <AltitudeMeters>671.20001220703125</AltitudeMeters>
            <DistanceMeters>NAN</DistanceMeters>
          </Trackpoint>
          <Trackpoint>
            <Time>2019-08-01T17:27:56.000Z</Time>
            <Position>
              <LatitudeDegrees>40.4520294629037380218505859375</LatitudeDegrees>
              <LongitudeDegrees>-4.00719285942614078521728515625</LongitudeDegrees>
            </Position>
            <AltitudeMeters>671.20001220703125</AltitudeMeters>
            <DistanceMeters>NAN</DistanceMeters>
          </Trackpoint>
          <Trackpoint>
            <Time>2019-08-01T17:27:57.000Z</Time>
            <Position>
              <LatitudeDegrees>40.4519567079842090606689453125</LatitudeDegrees>
              <LongitudeDegrees>-4.00715497322380542755126953125</LongitudeDegrees>
            </Position>
            <AltitudeMeters>671.5999755859375</AltitudeMeters>
            <DistanceMeters>NAN</DistanceMeters>
          </Trackpoint>
          <Trackpoint>
            <Time>2019-08-01T17:27:58.000Z</Time>
            <Position>
              <LatitudeDegrees>40.45188370160758495330810546875</LatitudeDegrees>
              <LongitudeDegrees>-4.007118679583072662353515625</LongitudeDegrees>
            </Position>
            <AltitudeMeters>671.5999755859375</AltitudeMeters>
            <DistanceMeters>NAN</DistanceMeters>
          </Trackpoint>
          <Trackpoint>
            <Time>2019-08-01T17:27:59.000Z</Time>
            <Position>
              <LatitudeDegrees>40.45181077904999256134033203125</LatitudeDegrees>
              <LongitudeDegrees>-4.00708389468491077423095703125</LongitudeDegrees>
            </Position>
            <AltitudeMeters>671.79998779296875</AltitudeMeters>
            <DistanceMeters>NAN</DistanceMeters>
          </Trackpoint>
          <Trackpoint>
            <Time>2019-08-01T17:28:00.000Z</Time>
            <Position>
              <LatitudeDegrees>40.4517384432256221771240234375</LatitudeDegrees>
              <LongitudeDegrees>-4.0070511214435100555419921875</LongitudeDegrees>
            </Position>
            <AltitudeMeters>671.79998779296875</AltitudeMeters>
            <DistanceMeters>NAN</DistanceMeters>
          </Trackpoint>
          <Trackpoint>
            <Time>2019-08-01T17:28:01.000Z</Time>
            <Position>
              <LatitudeDegrees>40.45166677795350551605224609375</LatitudeDegrees>
              <LongitudeDegrees>-4.00701440870761871337890625</LongitudeDegrees>
            </Position>
            <AltitudeMeters>671.79998779296875</AltitudeMeters>
            <DistanceMeters>NAN</DistanceMeters>
          </Trackpoint>
          <Trackpoint>
            <Time>2019-08-01T17:28:02.000Z</Time>
            <Position>
              <LatitudeDegrees>40.45159804634749889373779296875</LatitudeDegrees>
              <LongitudeDegrees>-4.00698213838040828704833984375</LongitudeDegrees>
            </Position>
            <AltitudeMeters>671.79998779296875</AltitudeMeters>
            <DistanceMeters>NAN</DistanceMeters>
          </Trackpoint>
          <Trackpoint>
            <Time>2019-08-01T17:28:03.000Z</Time>
            <Position>
              <LatitudeDegrees>40.451531745493412017822265625</LatitudeDegrees>
              <LongitudeDegrees>-4.0069498680531978607177734375</LongitudeDegrees>
            </Position>
            <AltitudeMeters>671.79998779296875</AltitudeMeters>
            <DistanceMeters>NAN</DistanceMeters>
          </Trackpoint>
          <Trackpoint>
            <Time>2019-08-01T17:28:04.000Z</Time>
            <Position>
              <LatitudeDegrees>40.4514668695628643035888671875</LatitudeDegrees>
              <LongitudeDegrees>-4.00691709481179714202880859375</LongitudeDegrees>
            </Position>
            <AltitudeMeters>671.79998779296875</AltitudeMeters>
            <DistanceMeters>NAN</DistanceMeters>
          </Trackpoint>
          <Trackpoint>
            <Time>2019-08-01T17:28:05.000Z</Time>
            <Position>
              <LatitudeDegrees>40.45140157453715801239013671875</LatitudeDegrees>
              <LongitudeDegrees>-4.00688557885587215423583984375</LongitudeDegrees>
            </Position>
            <AltitudeMeters>671.79998779296875</AltitudeMeters>
            <DistanceMeters>NAN</DistanceMeters>
          </Trackpoint>
          <Trackpoint>
            <Time>2019-08-01T17:28:06.000Z</Time>
            <Position>
              <LatitudeDegrees>40.45133669860661029815673828125</LatitudeDegrees>
              <LongitudeDegrees>-4.00685506872832775115966796875</LongitudeDegrees>
            </Position>
            <AltitudeMeters>672</AltitudeMeters>
            <DistanceMeters>NAN</DistanceMeters>
          </Trackpoint>
          <Trackpoint>
            <Time>2019-08-01T17:28:07.000Z</Time>
            <Position>
              <LatitudeDegrees>40.45127131976187229156494140625</LatitudeDegrees>
              <LongitudeDegrees>-4.00682271458208560943603515625</LongitudeDegrees>
            </Position>
            <AltitudeMeters>672.20001220703125</AltitudeMeters>
            <DistanceMeters>NAN</DistanceMeters>
          </Trackpoint>
          <Trackpoint>
            <Time>2019-08-01T17:28:08.000Z</Time>
            <Position>
              <LatitudeDegrees>40.45120493508875370025634765625</LatitudeDegrees>
              <LongitudeDegrees>-4.006791450083255767822265625</LongitudeDegrees>
            </Position>
            <AltitudeMeters>672.20001220703125</AltitudeMeters>
            <DistanceMeters>NAN</DistanceMeters>
          </Trackpoint>
          <Trackpoint>
            <Time>2019-08-01T17:28:09.000Z</Time>
            <Position>
              <LatitudeDegrees>40.45113838277757167816162109375</LatitudeDegrees>
              <LongitudeDegrees>-4.00675867684185504913330078125</LongitudeDegrees>
            </Position>
            <AltitudeMeters>672.4000244140625</AltitudeMeters>
            <DistanceMeters>NAN</DistanceMeters>
          </Trackpoint>
          <Trackpoint>
            <Time>2019-08-01T17:28:10.000Z</Time>
            <Position>
              <LatitudeDegrees>40.45107208192348480224609375</LatitudeDegrees>
              <LongitudeDegrees>-4.006724059581756591796875</LongitudeDegrees>
            </Position>
            <AltitudeMeters>672.4000244140625</AltitudeMeters>
            <DistanceMeters>NAN</DistanceMeters>
          </Trackpoint>
          <Trackpoint>
            <Time>2019-08-01T17:28:11.000Z</Time>
            <Position>
              <LatitudeDegrees>40.45100527815520763397216796875</LatitudeDegrees>
              <LongitudeDegrees>-4.00669078342616558074951171875</LongitudeDegrees>
            </Position>
            <AltitudeMeters>672.5999755859375</AltitudeMeters>
            <DistanceMeters>NAN</DistanceMeters>
          </Trackpoint>
          <Trackpoint>
            <Time>2019-08-01T17:28:12.000Z</Time>
            <Position>
              <LatitudeDegrees>40.45093855820596218109130859375</LatitudeDegrees>
              <LongitudeDegrees>-4.00665423832833766937255859375</LongitudeDegrees>
            </Position>
            <AltitudeMeters>672.5999755859375</AltitudeMeters>
            <DistanceMeters>NAN</DistanceMeters>
          </Trackpoint>
          <Trackpoint>
            <Time>2019-08-01T17:28:13.000Z</Time>
            <Position>
              <LatitudeDegrees>40.45087183825671672821044921875</LatitudeDegrees>
              <LongitudeDegrees>-4.00661869905889034271240234375</LongitudeDegrees>
            </Position>
            <AltitudeMeters>672.5999755859375</AltitudeMeters>
            <DistanceMeters>NAN</DistanceMeters>
          </Trackpoint>
          <Trackpoint>
            <Time>2019-08-01T17:28:14.000Z</Time>
            <Position>
              <LatitudeDegrees>40.45080511830747127532958984375</LatitudeDegrees>
              <LongitudeDegrees>-4.0065850876271724700927734375</LongitudeDegrees>
            </Position>
            <AltitudeMeters>672.79998779296875</AltitudeMeters>
            <DistanceMeters>NAN</DistanceMeters>
          </Trackpoint>
          <Trackpoint>
            <Time>2019-08-01T17:28:15.000Z</Time>
            <Position>
              <LatitudeDegrees>40.4507383145391941070556640625</LatitudeDegrees>
              <LongitudeDegrees>-4.00655214674770832061767578125</LongitudeDegrees>
            </Position>
            <AltitudeMeters>673</AltitudeMeters>
            <DistanceMeters>NAN</DistanceMeters>
          </Trackpoint>
          <Trackpoint>
            <Time>2019-08-01T17:28:16.000Z</Time>
            <Position>
              <LatitudeDegrees>40.4506719298660755157470703125</LatitudeDegrees>
              <LongitudeDegrees>-4.00651820003986358642578125</LongitudeDegrees>
            </Position>
            <AltitudeMeters>673.20001220703125</AltitudeMeters>
            <DistanceMeters>NAN</DistanceMeters>
          </Trackpoint>
          <Trackpoint>
            <Time>2019-08-01T17:28:17.000Z</Time>
            <Position>
              <LatitudeDegrees>40.4506045393645763397216796875</LatitudeDegrees>
              <LongitudeDegrees>-4.00648777373135089874267578125</LongitudeDegrees>
            </Position>
            <AltitudeMeters>673.4000244140625</AltitudeMeters>
            <DistanceMeters>NAN</DistanceMeters>
          </Trackpoint>
          <Trackpoint>
            <Time>2019-08-01T17:28:18.000Z</Time>
            <Position>
              <LatitudeDegrees>40.4505374841392040252685546875</LatitudeDegrees>
              <LongitudeDegrees>-4.006459526717662811279296875</LongitudeDegrees>
            </Position>
            <AltitudeMeters>673.5999755859375</AltitudeMeters>
            <DistanceMeters>NAN</DistanceMeters>
          </Trackpoint>
          <Trackpoint>
            <Time>2019-08-01T17:28:19.000Z</Time>
            <Position>
              <LatitudeDegrees>40.45047000981867313385009765625</LatitudeDegrees>
              <LongitudeDegrees>-4.0064315311610698699951171875</LongitudeDegrees>
            </Position>
            <AltitudeMeters>673.5999755859375</AltitudeMeters>
            <DistanceMeters>NAN</DistanceMeters>
          </Trackpoint>
          <Trackpoint>
            <Time>2019-08-01T17:28:20.000Z</Time>
            <Position>
              <LatitudeDegrees>40.45040278695523738861083984375</LatitudeDegrees>
              <LongitudeDegrees>-4.0064073912799358367919921875</LongitudeDegrees>
            </Position>
            <AltitudeMeters>673.79998779296875</AltitudeMeters>
            <DistanceMeters>NAN</DistanceMeters>
          </Trackpoint>
          <Trackpoint>
            <Time>2019-08-01T17:28:21.000Z</Time>
            <Position>
              <LatitudeDegrees>40.45033740811049938201904296875</LatitudeDegrees>
              <LongitudeDegrees>-4.0063835866749286651611328125</LongitudeDegrees>
            </Position>
            <AltitudeMeters>673.79998779296875</AltitudeMeters>
            <DistanceMeters>NAN</DistanceMeters>
          </Trackpoint>
          <Trackpoint>
            <Time>2019-08-01T17:28:22.000Z</Time>
            <Position>
              <LatitudeDegrees>40.45033740811049938201904296875</LatitudeDegrees>
              <LongitudeDegrees>-4.0063835866749286651611328125</LongitudeDegrees>
            </Position>
            <AltitudeMeters>673.79998779296875</AltitudeMeters>
            <DistanceMeters>NAN</DistanceMeters>
          </Trackpoint>
          <Trackpoint>
            <Time>2019-08-01T17:28:23.000Z</Time>
            <Position>
              <LatitudeDegrees>40.450214445590972900390625</LatitudeDegrees>
              <LongitudeDegrees>-4.0063286013901233673095703125</LongitudeDegrees>
            </Position>
            <AltitudeMeters>673.79998779296875</AltitudeMeters>
            <DistanceMeters>NAN</DistanceMeters>
          </Trackpoint>
          <Trackpoint>
            <Time>2019-08-01T17:28:24.000Z</Time>
            <Position>
              <LatitudeDegrees>40.450214445590972900390625</LatitudeDegrees>
              <LongitudeDegrees>-4.0063286013901233673095703125</LongitudeDegrees>
            </Position>
            <AltitudeMeters>674</AltitudeMeters>
            <DistanceMeters>NAN</DistanceMeters>
          </Trackpoint>
          <Trackpoint>
            <Time>2019-08-01T17:28:25.000Z</Time>
            <Position>
              <LatitudeDegrees>40.45008695684373378753662109375</LatitudeDegrees>
              <LongitudeDegrees>-4.00626531802117824554443359375</LongitudeDegrees>
            </Position>
            <AltitudeMeters>674</AltitudeMeters>
            <DistanceMeters>NAN</DistanceMeters>
          </Trackpoint>
          <Trackpoint>
            <Time>2019-08-01T17:28:26.000Z</Time>
            <Position>
              <LatitudeDegrees>40.45008695684373378753662109375</LatitudeDegrees>
              <LongitudeDegrees>-4.00626531802117824554443359375</LongitudeDegrees>
            </Position>
            <AltitudeMeters>674</AltitudeMeters>
            <DistanceMeters>NAN</DistanceMeters>
          </Trackpoint>
          <Trackpoint>
            <Time>2019-08-01T17:28:27.000Z</Time>
            <Position>
              <LatitudeDegrees>40.449953936040401458740234375</LatitudeDegrees>
              <LongitudeDegrees>-4.00619524531066417694091796875</LongitudeDegrees>
            </Position>
            <AltitudeMeters>674</AltitudeMeters>
            <DistanceMeters>NAN</DistanceMeters>
          </Trackpoint>
          <Trackpoint>
            <Time>2019-08-01T17:28:28.000Z</Time>
            <Position>
              <LatitudeDegrees>40.44988830573856830596923828125</LatitudeDegrees>
              <LongitudeDegrees>-4.0061626397073268890380859375</LongitudeDegrees>
            </Position>
            <AltitudeMeters>674</AltitudeMeters>
            <DistanceMeters>NAN</DistanceMeters>
          </Trackpoint>
          <Trackpoint>
            <Time>2019-08-01T17:28:29.000Z</Time>
            <Position>
              <LatitudeDegrees>40.44982242397964000701904296875</LatitudeDegrees>
              <LongitudeDegrees>-4.00612852536141872406005859375</LongitudeDegrees>
            </Position>
            <AltitudeMeters>674</AltitudeMeters>
            <DistanceMeters>NAN</DistanceMeters>
          </Trackpoint>
          <Trackpoint>
            <Time>2019-08-01T17:28:30.000Z</Time>
            <Position>
              <LatitudeDegrees>40.44975771568715572357177734375</LatitudeDegrees>
              <LongitudeDegrees>-4.00609550066292285919189453125</LongitudeDegrees>
            </Position>
            <AltitudeMeters>674</AltitudeMeters>
            <DistanceMeters>NAN</DistanceMeters>
          </Trackpoint>
          <Trackpoint>
            <Time>2019-08-01T17:28:31.000Z</Time>
            <Position>
              <LatitudeDegrees>40.44969300739467144012451171875</LatitudeDegrees>
              <LongitudeDegrees>-4.0060644038021564483642578125</LongitudeDegrees>
            </Position>
            <AltitudeMeters>674</AltitudeMeters>
            <DistanceMeters>NAN</DistanceMeters>
          </Trackpoint>
          <Trackpoint>
            <Time>2019-08-01T17:28:32.000Z</Time>
            <Position>
              <LatitudeDegrees>40.4496268741786479949951171875</LatitudeDegrees>
              <LongitudeDegrees>-4.0060318820178508758544921875</LongitudeDegrees>
            </Position>
            <AltitudeMeters>674</AltitudeMeters>
            <DistanceMeters>NAN</DistanceMeters>
          </Trackpoint>
          <Trackpoint>
            <Time>2019-08-01T17:28:33.000Z</Time>
            <Position>
              <LatitudeDegrees>40.4496268741786479949951171875</LatitudeDegrees>
              <LongitudeDegrees>-4.0060318820178508758544921875</LongitudeDegrees>
            </Position>
            <AltitudeMeters>674</AltitudeMeters>
            <DistanceMeters>NAN</DistanceMeters>
          </Trackpoint>
          <Trackpoint>
            <Time>2019-08-01T17:28:34.000Z</Time>
            <Position>
              <LatitudeDegrees>40.4494927637279033660888671875</LatitudeDegrees>
              <LongitudeDegrees>-4.005963318049907684326171875</LongitudeDegrees>
            </Position>
            <AltitudeMeters>674</AltitudeMeters>
            <DistanceMeters>NAN</DistanceMeters>
          </Trackpoint>
          <Trackpoint>
            <Time>2019-08-01T17:28:35.000Z</Time>
            <Position>
              <LatitudeDegrees>40.4494226910173892974853515625</LatitudeDegrees>
              <LongitudeDegrees>-4.0059276111423969268798828125</LongitudeDegrees>
            </Position>
            <AltitudeMeters>674.4000244140625</AltitudeMeters>
            <DistanceMeters>NAN</DistanceMeters>
          </Trackpoint>
          <Trackpoint>
            <Time>2019-08-01T17:28:36.000Z</Time>
            <Position>
              <LatitudeDegrees>40.44935169629752635955810546875</LatitudeDegrees>
              <LongitudeDegrees>-4.0058944188058376312255859375</LongitudeDegrees>
            </Position>
            <AltitudeMeters>674.4000244140625</AltitudeMeters>
            <DistanceMeters>NAN</DistanceMeters>
          </Trackpoint>
          <Trackpoint>
            <Time>2019-08-01T17:28:37.000Z</Time>
            <Position>
              <LatitudeDegrees>40.449281372129917144775390625</LatitudeDegrees>
              <LongitudeDegrees>-4.00586231611669063568115234375</LongitudeDegrees>
            </Position>
            <AltitudeMeters>674.4000244140625</AltitudeMeters>
            <DistanceMeters>NAN</DistanceMeters>
          </Trackpoint>
          <Trackpoint>
            <Time>2019-08-01T17:28:38.000Z</Time>
            <Position>
              <LatitudeDegrees>40.449210964143276214599609375</LatitudeDegrees>
              <LongitudeDegrees>-4.005829207599163055419921875</LongitudeDegrees>
            </Position>
            <AltitudeMeters>674.20001220703125</AltitudeMeters>
            <DistanceMeters>NAN</DistanceMeters>
          </Trackpoint>
          <Trackpoint>
            <Time>2019-08-01T17:28:39.000Z</Time>
            <Position>
              <LatitudeDegrees>40.4491407237946987152099609375</LatitudeDegrees>
              <LongitudeDegrees>-4.005796015262603759765625</LongitudeDegrees>
            </Position>
            <AltitudeMeters>674.20001220703125</AltitudeMeters>
            <DistanceMeters>NAN</DistanceMeters>
          </Trackpoint>
          <Trackpoint>
            <Time>2019-08-01T17:28:40.000Z</Time>
            <Position>
              <LatitudeDegrees>40.44907207600772380828857421875</LatitudeDegrees>
              <LongitudeDegrees>-4.00576290674507617950439453125</LongitudeDegrees>
            </Position>
            <AltitudeMeters>674.20001220703125</AltitudeMeters>
            <DistanceMeters>NAN</DistanceMeters>
          </Trackpoint>
          <Trackpoint>
            <Time>2019-08-01T17:28:41.000Z</Time>
            <Position>
              <LatitudeDegrees>40.44900250621140003204345703125</LatitudeDegrees>
              <LongitudeDegrees>-4.00572921149432659149169921875</LongitudeDegrees>
            </Position>
            <AltitudeMeters>674</AltitudeMeters>
            <DistanceMeters>NAN</DistanceMeters>
          </Trackpoint>
          <Trackpoint>
            <Time>2019-08-01T17:28:42.000Z</Time>
            <Position>
              <LatitudeDegrees>40.44900250621140003204345703125</LatitudeDegrees>
              <LongitudeDegrees>-4.00572921149432659149169921875</LongitudeDegrees>
            </Position>
            <AltitudeMeters>674</AltitudeMeters>
            <DistanceMeters>NAN</DistanceMeters>
          </Trackpoint>
          <Trackpoint>
            <Time>2019-08-01T17:28:43.000Z</Time>
            <Position>
              <LatitudeDegrees>40.44886370189487934112548828125</LatitudeDegrees>
              <LongitudeDegrees>-4.00566249154508113861083984375</LongitudeDegrees>
            </Position>
            <AltitudeMeters>673.79998779296875</AltitudeMeters>
            <DistanceMeters>NAN</DistanceMeters>
          </Trackpoint>
          <Trackpoint>
            <Time>2019-08-01T17:28:44.000Z</Time>
            <Position>
              <LatitudeDegrees>40.4487970657646656036376953125</LatitudeDegrees>
              <LongitudeDegrees>-4.0056308917701244354248046875</LongitudeDegrees>
            </Position>
            <AltitudeMeters>673.79998779296875</AltitudeMeters>
            <DistanceMeters>NAN</DistanceMeters>
          </Trackpoint>
          <Trackpoint>
            <Time>2019-08-01T17:28:45.000Z</Time>
            <Position>
              <LatitudeDegrees>40.4487303458154201507568359375</LatitudeDegrees>
              <LongitudeDegrees>-4.00559945963323116302490234375</LongitudeDegrees>
            </Position>
            <AltitudeMeters>673.79998779296875</AltitudeMeters>
            <DistanceMeters>NAN</DistanceMeters>
          </Trackpoint>
          <Trackpoint>
            <Time>2019-08-01T17:28:46.000Z</Time>
            <Position>
              <LatitudeDegrees>40.44866605661809444427490234375</LatitudeDegrees>
              <LongitudeDegrees>-4.0055705420672893524169921875</LongitudeDegrees>
            </Position>
            <AltitudeMeters>674</AltitudeMeters>
            <DistanceMeters>NAN</DistanceMeters>
          </Trackpoint>
          <Trackpoint>
            <Time>2019-08-01T17:28:47.000Z</Time>
            <Position>
              <LatitudeDegrees>40.44860151596367359161376953125</LatitudeDegrees>
              <LongitudeDegrees>-4.00554112158715724945068359375</LongitudeDegrees>
            </Position>
            <AltitudeMeters>674</AltitudeMeters>
            <DistanceMeters>NAN</DistanceMeters>
          </Trackpoint>
          <Trackpoint>
            <Time>2019-08-01T17:28:48.000Z</Time>
            <Position>
              <LatitudeDegrees>40.4485372267663478851318359375</LatitudeDegrees>
              <LongitudeDegrees>-4.00551530532538890838623046875</LongitudeDegrees>
            </Position>
            <AltitudeMeters>673.79998779296875</AltitudeMeters>
            <DistanceMeters>NAN</DistanceMeters>
          </Trackpoint>
          <Trackpoint>
            <Time>2019-08-01T17:28:49.000Z</Time>
            <Position>
              <LatitudeDegrees>40.448472686111927032470703125</LatitudeDegrees>
              <LongitudeDegrees>-4.00549032725393772125244140625</LongitudeDegrees>
            </Position>
            <AltitudeMeters>673.79998779296875</AltitudeMeters>
            <DistanceMeters>NAN</DistanceMeters>
          </Trackpoint>
          <Trackpoint>
            <Time>2019-08-01T17:28:50.000Z</Time>
            <Position>
              <LatitudeDegrees>40.44840739108622074127197265625</LatitudeDegrees>
              <LongitudeDegrees>-4.00546199642121791839599609375</LongitudeDegrees>
            </Position>
            <AltitudeMeters>673.5999755859375</AltitudeMeters>
            <DistanceMeters>NAN</DistanceMeters>
          </Trackpoint>
          <Trackpoint>
            <Time>2019-08-01T17:28:51.000Z</Time>
            <Position>
              <LatitudeDegrees>40.44840739108622074127197265625</LatitudeDegrees>
              <LongitudeDegrees>-4.00546199642121791839599609375</LongitudeDegrees>
            </Position>
            <AltitudeMeters>673.5999755859375</AltitudeMeters>
            <DistanceMeters>NAN</DistanceMeters>
          </Trackpoint>
          <Trackpoint>
            <Time>2019-08-01T17:28:52.000Z</Time>
            <Position>
              <LatitudeDegrees>40.44827562756836414337158203125</LatitudeDegrees>
              <LongitudeDegrees>-4.00540550239384174346923828125</LongitudeDegrees>
            </Position>
            <AltitudeMeters>673.4000244140625</AltitudeMeters>
            <DistanceMeters>NAN</DistanceMeters>
          </Trackpoint>
          <Trackpoint>
            <Time>2019-08-01T17:28:53.000Z</Time>
            <Position>
              <LatitudeDegrees>40.44820907525718212127685546875</LatitudeDegrees>
              <LongitudeDegrees>-4.0053750760853290557861328125</LongitudeDegrees>
            </Position>
            <AltitudeMeters>673.4000244140625</AltitudeMeters>
            <DistanceMeters>NAN</DistanceMeters>
          </Trackpoint>
          <Trackpoint>
            <Time>2019-08-01T17:28:54.000Z</Time>
            <Position>
              <LatitudeDegrees>40.4481419362127780914306640625</LatitudeDegrees>
              <LongitudeDegrees>-4.0053489245474338531494140625</LongitudeDegrees>
            </Position>
            <AltitudeMeters>673.4000244140625</AltitudeMeters>
            <DistanceMeters>NAN</DistanceMeters>
          </Trackpoint>
          <Trackpoint>
            <Time>2019-08-01T17:28:55.000Z</Time>
            <Position>
              <LatitudeDegrees>40.44807597063481807708740234375</LatitudeDegrees>
              <LongitudeDegrees>-4.00532905943691730499267578125</LongitudeDegrees>
            </Position>
            <AltitudeMeters>673.20001220703125</AltitudeMeters>
            <DistanceMeters>NAN</DistanceMeters>
          </Trackpoint>
          <Trackpoint>
            <Time>2019-08-01T17:28:56.000Z</Time>
            <Position>
              <LatitudeDegrees>40.4480145312845706939697265625</LatitudeDegrees>
              <LongitudeDegrees>-4.00530718266963958740234375</LongitudeDegrees>
            </Position>
            <AltitudeMeters>673.4000244140625</AltitudeMeters>
            <DistanceMeters>NAN</DistanceMeters>
          </Trackpoint>
          <Trackpoint>
            <Time>2019-08-01T17:28:57.000Z</Time>
            <Position>
              <LatitudeDegrees>40.4479682631790637969970703125</LatitudeDegrees>
              <LongitudeDegrees>-4.00526284240186214447021484375</LongitudeDegrees>
            </Position>
            <AltitudeMeters>673.4000244140625</AltitudeMeters>
            <DistanceMeters>NAN</DistanceMeters>
          </Trackpoint>
          <Trackpoint>
            <Time>2019-08-01T17:28:58.000Z</Time>
            <Position>
              <LatitudeDegrees>40.4479521699249744415283203125</LatitudeDegrees>
              <LongitudeDegrees>-4.0052019059658050537109375</LongitudeDegrees>
            </Position>
            <AltitudeMeters>673.4000244140625</AltitudeMeters>
            <DistanceMeters>NAN</DistanceMeters>
          </Trackpoint>
          <Trackpoint>
            <Time>2019-08-01T17:28:59.000Z</Time>
            <Position>
              <LatitudeDegrees>40.44797270558774471282958984375</LatitudeDegrees>
              <LongitudeDegrees>-4.00513040833175182342529296875</LongitudeDegrees>
            </Position>
            <AltitudeMeters>673.4000244140625</AltitudeMeters>
            <DistanceMeters>NAN</DistanceMeters>
          </Trackpoint>
          <Trackpoint>
            <Time>2019-08-01T17:29:00.000Z</Time>
            <Position>
              <LatitudeDegrees>40.44800338335335254669189453125</LatitudeDegrees>
              <LongitudeDegrees>-4.00505748577415943145751953125</LongitudeDegrees>
            </Position>
            <AltitudeMeters>673.4000244140625</AltitudeMeters>
            <DistanceMeters>NAN</DistanceMeters>
          </Trackpoint>
          <Trackpoint>
            <Time>2019-08-01T17:29:01.000Z</Time>
            <Position>
              <LatitudeDegrees>40.44803657568991184234619140625</LatitudeDegrees>
              <LongitudeDegrees>-4.00497668422758579254150390625</LongitudeDegrees>
            </Position>
            <AltitudeMeters>673.4000244140625</AltitudeMeters>
            <DistanceMeters>NAN</DistanceMeters>
          </Trackpoint>
          <Trackpoint>
            <Time>2019-08-01T17:29:02.000Z</Time>
            <Position>
              <LatitudeDegrees>40.4480685107409954071044921875</LatitudeDegrees>
              <LongitudeDegrees>-4.00488884188234806060791015625</LongitudeDegrees>
            </Position>
            <AltitudeMeters>673.4000244140625</AltitudeMeters>
            <DistanceMeters>NAN</DistanceMeters>
          </Trackpoint>
          <Trackpoint>
            <Time>2019-08-01T17:29:03.000Z</Time>
            <Position>
              <LatitudeDegrees>40.4480976797640323638916015625</LatitudeDegrees>
              <LongitudeDegrees>-4.00479043833911418914794921875</LongitudeDegrees>
            </Position>
            <AltitudeMeters>673.20001220703125</AltitudeMeters>
            <DistanceMeters>NAN</DistanceMeters>
          </Trackpoint>
          <Trackpoint>
            <Time>2019-08-01T17:29:04.000Z</Time>
            <Position>
              <LatitudeDegrees>40.44812726788222789764404296875</LatitudeDegrees>
              <LongitudeDegrees>-4.00469429790973663330078125</LongitudeDegrees>
            </Position>
            <AltitudeMeters>673.20001220703125</AltitudeMeters>
            <DistanceMeters>NAN</DistanceMeters>
          </Trackpoint>
          <Trackpoint>
            <Time>2019-08-01T17:29:05.000Z</Time>
            <Position>
              <LatitudeDegrees>40.4481543414294719696044921875</LatitudeDegrees>
              <LongitudeDegrees>-4.00459212251007556915283203125</LongitudeDegrees>
            </Position>
            <AltitudeMeters>673.20001220703125</AltitudeMeters>
            <DistanceMeters>NAN</DistanceMeters>
          </Trackpoint>
          <Trackpoint>
            <Time>2019-08-01T17:29:06.000Z</Time>
            <Position>
              <LatitudeDegrees>40.4481804929673671722412109375</LatitudeDegrees>
              <LongitudeDegrees>-4.00449103675782680511474609375</LongitudeDegrees>
            </Position>
            <AltitudeMeters>673</AltitudeMeters>
            <DistanceMeters>NAN</DistanceMeters>
          </Trackpoint>
          <Trackpoint>
            <Time>2019-08-01T17:29:07.000Z</Time>
            <Position>
              <LatitudeDegrees>40.44820337556302547454833984375</LatitudeDegrees>
              <LongitudeDegrees>-4.0043886937201023101806640625</LongitudeDegrees>
            </Position>
            <AltitudeMeters>673</AltitudeMeters>
            <DistanceMeters>NAN</DistanceMeters>
          </Trackpoint>
          <Trackpoint>
            <Time>2019-08-01T17:29:08.000Z</Time>
            <Position>
              <LatitudeDegrees>40.44821930117905139923095703125</LatitudeDegrees>
              <LongitudeDegrees>-4.00428081862628459930419921875</LongitudeDegrees>
            </Position>
            <AltitudeMeters>673</AltitudeMeters>
            <DistanceMeters>NAN</DistanceMeters>
          </Trackpoint>
          <Trackpoint>
            <Time>2019-08-01T17:29:09.000Z</Time>
            <Position>
              <LatitudeDegrees>40.44822349213063716888427734375</LatitudeDegrees>
              <LongitudeDegrees>-4.0041667409241199493408203125</LongitudeDegrees>
            </Position>
            <AltitudeMeters>673</AltitudeMeters>
            <DistanceMeters>NAN</DistanceMeters>
          </Trackpoint>
          <Trackpoint>
            <Time>2019-08-01T17:29:10.000Z</Time>
            <Position>
              <LatitudeDegrees>40.4482187144458293914794921875</LatitudeDegrees>
              <LongitudeDegrees>-4.00405903346836566925048828125</LongitudeDegrees>
            </Position>
            <AltitudeMeters>673</AltitudeMeters>
            <DistanceMeters>NAN</DistanceMeters>
          </Trackpoint>
          <Trackpoint>
            <Time>2019-08-01T17:29:11.000Z</Time>
            <Position>
              <LatitudeDegrees>40.44820957817137241363525390625</LatitudeDegrees>
              <LongitudeDegrees>-4.00395627133548259735107421875</LongitudeDegrees>
            </Position>
            <AltitudeMeters>673</AltitudeMeters>
            <DistanceMeters>NAN</DistanceMeters>
          </Trackpoint>
          <Trackpoint>
            <Time>2019-08-01T17:29:12.000Z</Time>
            <Position>
              <LatitudeDegrees>40.44819667004048824310302734375</LatitudeDegrees>
              <LongitudeDegrees>-4.00384982116520404815673828125</LongitudeDegrees>
            </Position>
            <AltitudeMeters>673</AltitudeMeters>
            <DistanceMeters>NAN</DistanceMeters>
          </Trackpoint>
          <Trackpoint>
            <Time>2019-08-01T17:29:13.000Z</Time>
            <Position>
              <LatitudeDegrees>40.448186695575714111328125</LatitudeDegrees>
              <LongitudeDegrees>-4.003737755119800567626953125</LongitudeDegrees>
            </Position>
            <AltitudeMeters>672.79998779296875</AltitudeMeters>
            <DistanceMeters>NAN</DistanceMeters>
          </Trackpoint>
          <Trackpoint>
            <Time>2019-08-01T17:29:14.000Z</Time>
            <Position>
              <LatitudeDegrees>40.44818141497671604156494140625</LatitudeDegrees>
              <LongitudeDegrees>-4.00362434796988964080810546875</LongitudeDegrees>
            </Position>
            <AltitudeMeters>672.5999755859375</AltitudeMeters>
            <DistanceMeters>NAN</DistanceMeters>
          </Trackpoint>
          <Trackpoint>
            <Time>2019-08-01T17:29:15.000Z</Time>
            <Position>
              <LatitudeDegrees>40.4481741227209568023681640625</LatitudeDegrees>
              <LongitudeDegrees>-4.0035156346857547760009765625</LongitudeDegrees>
            </Position>
            <AltitudeMeters>672.5999755859375</AltitudeMeters>
            <DistanceMeters>NAN</DistanceMeters>
          </Trackpoint>
          <Trackpoint>
            <Time>2019-08-01T17:29:16.000Z</Time>
            <Position>
              <LatitudeDegrees>40.44816884212195873260498046875</LatitudeDegrees>
              <LongitudeDegrees>-4.00341278873383998870849609375</LongitudeDegrees>
            </Position>
            <AltitudeMeters>672.4000244140625</AltitudeMeters>
            <DistanceMeters>NAN</DistanceMeters>
          </Trackpoint>
          <Trackpoint>
            <Time>2019-08-01T17:29:17.000Z</Time>
            <Position>
              <LatitudeDegrees>40.44816699810326099395751953125</LatitudeDegrees>
              <LongitudeDegrees>-4.0033158101141452789306640625</LongitudeDegrees>
            </Position>
            <AltitudeMeters>672.4000244140625</AltitudeMeters>
            <DistanceMeters>NAN</DistanceMeters>
          </Trackpoint>
          <Trackpoint>
            <Time>2019-08-01T17:29:18.000Z</Time>
            <Position>
              <LatitudeDegrees>40.44816649518907070159912109375</LatitudeDegrees>
              <LongitudeDegrees>-4.00322704575955867767333984375</LongitudeDegrees>
            </Position>
            <AltitudeMeters>672.4000244140625</AltitudeMeters>
            <DistanceMeters>NAN</DistanceMeters>
          </Trackpoint>
          <Trackpoint>
            <Time>2019-08-01T17:29:19.000Z</Time>
            <Position>
              <LatitudeDegrees>40.44816699810326099395751953125</LatitudeDegrees>
              <LongitudeDegrees>-4.00314205326139926910400390625</LongitudeDegrees>
            </Position>
            <AltitudeMeters>672.4000244140625</AltitudeMeters>
            <DistanceMeters>NAN</DistanceMeters>
          </Trackpoint>
          <Trackpoint>
            <Time>2019-08-01T17:29:20.000Z</Time>
            <Position>
              <LatitudeDegrees>40.4481674171984195709228515625</LatitudeDegrees>
              <LongitudeDegrees>-4.00305991061031818389892578125</LongitudeDegrees>
            </Position>
            <AltitudeMeters>672.4000244140625</AltitudeMeters>
            <DistanceMeters>NAN</DistanceMeters>
          </Trackpoint>
          <Trackpoint>
            <Time>2019-08-01T17:29:21.000Z</Time>
            <Position>
              <LatitudeDegrees>40.44816590845584869384765625</LatitudeDegrees>
              <LongitudeDegrees>-4.0029734931886196136474609375</LongitudeDegrees>
            </Position>
            <AltitudeMeters>672.4000244140625</AltitudeMeters>
            <DistanceMeters>NAN</DistanceMeters>
          </Trackpoint>
          <Trackpoint>
            <Time>2019-08-01T17:29:22.000Z</Time>
            <Position>
              <LatitudeDegrees>40.44816724956035614013671875</LatitudeDegrees>
              <LongitudeDegrees>-4.002888835966587066650390625</LongitudeDegrees>
            </Position>
            <AltitudeMeters>672.4000244140625</AltitudeMeters>
            <DistanceMeters>NAN</DistanceMeters>
          </Trackpoint>
          <Trackpoint>
            <Time>2019-08-01T17:29:23.000Z</Time>
            <Position>
              <LatitudeDegrees>40.4481717757880687713623046875</LatitudeDegrees>
              <LongitudeDegrees>-4.00279990397393703460693359375</LongitudeDegrees>
            </Position>
            <AltitudeMeters>672.5999755859375</AltitudeMeters>
            <DistanceMeters>NAN</DistanceMeters>
          </Trackpoint>
          <Trackpoint>
            <Time>2019-08-01T17:29:24.000Z</Time>
            <Position>
              <LatitudeDegrees>40.44817588292062282562255859375</LatitudeDegrees>
              <LongitudeDegrees>-4.00271214544773101806640625</LongitudeDegrees>
            </Position>
            <AltitudeMeters>672.5999755859375</AltitudeMeters>
            <DistanceMeters>NAN</DistanceMeters>
          </Trackpoint>
          <Trackpoint>
            <Time>2019-08-01T17:29:25.000Z</Time>
            <Position>
              <LatitudeDegrees>40.4481773078441619873046875</LatitudeDegrees>
              <LongitudeDegrees>-4.0026244707405567169189453125</LongitudeDegrees>
            </Position>
            <AltitudeMeters>673</AltitudeMeters>
            <DistanceMeters>NAN</DistanceMeters>
          </Trackpoint>
          <Trackpoint>
            <Time>2019-08-01T17:29:26.000Z</Time>
            <Position>
              <LatitudeDegrees>40.44817940331995487213134765625</LatitudeDegrees>
              <LongitudeDegrees>-4.0025429986417293548583984375</LongitudeDegrees>
            </Position>
            <AltitudeMeters>673.20001220703125</AltitudeMeters>
            <DistanceMeters>NAN</DistanceMeters>
          </Trackpoint>
          <Trackpoint>
            <Time>2019-08-01T17:29:27.000Z</Time>
            <Position>
              <LatitudeDegrees>40.44818225316703319549560546875</LatitudeDegrees>
              <LongitudeDegrees>-4.0024625323712825775146484375</LongitudeDegrees>
            </Position>
            <AltitudeMeters>673.4000244140625</AltitudeMeters>
            <DistanceMeters>NAN</DistanceMeters>
          </Trackpoint>
          <Trackpoint>
            <Time>2019-08-01T17:29:28.000Z</Time>
            <Position>
              <LatitudeDegrees>40.44817621819674968719482421875</LatitudeDegrees>
              <LongitudeDegrees>-4.00238801725208759307861328125</LongitudeDegrees>
            </Position>
            <AltitudeMeters>673.79998779296875</AltitudeMeters>
            <DistanceMeters>NAN</DistanceMeters>
          </Trackpoint>
          <Trackpoint>
            <Time>2019-08-01T17:29:29.000Z</Time>
            <Position>
              <LatitudeDegrees>40.44817621819674968719482421875</LatitudeDegrees>
              <LongitudeDegrees>-4.00238801725208759307861328125</LongitudeDegrees>
            </Position>
            <AltitudeMeters>674</AltitudeMeters>
            <DistanceMeters>NAN</DistanceMeters>
          </Trackpoint>
          <Trackpoint>
            <Time>2019-08-01T17:29:30.000Z</Time>
            <Position>
              <LatitudeDegrees>40.448119975626468658447265625</LatitudeDegrees>
              <LongitudeDegrees>-4.00226362980902194976806640625</LongitudeDegrees>
            </Position>
            <AltitudeMeters>674.20001220703125</AltitudeMeters>
            <DistanceMeters>NAN</DistanceMeters>
          </Trackpoint>
          <Trackpoint>
            <Time>2019-08-01T17:29:31.000Z</Time>
            <Position>
              <LatitudeDegrees>40.448063649237155914306640625</LatitudeDegrees>
              <LongitudeDegrees>-4.002232365310192108154296875</LongitudeDegrees>
            </Position>
            <AltitudeMeters>674.4000244140625</AltitudeMeters>
            <DistanceMeters>NAN</DistanceMeters>
          </Trackpoint>
          <Trackpoint>
            <Time>2019-08-01T17:29:32.000Z</Time>
            <Position>
              <LatitudeDegrees>40.44800187461078166961669921875</LatitudeDegrees>
              <LongitudeDegrees>-4.00222188793122768402099609375</LongitudeDegrees>
            </Position>
            <AltitudeMeters>674.79998779296875</AltitudeMeters>
            <DistanceMeters>NAN</DistanceMeters>
          </Trackpoint>
          <Trackpoint>
            <Time>2019-08-01T17:29:33.000Z</Time>
            <Position>
              <LatitudeDegrees>40.44793800450861454010009765625</LatitudeDegrees>
              <LongitudeDegrees>-4.00221325457096099853515625</LongitudeDegrees>
            </Position>
            <AltitudeMeters>675</AltitudeMeters>
            <DistanceMeters>NAN</DistanceMeters>
          </Trackpoint>
          <Trackpoint>
            <Time>2019-08-01T17:29:34.000Z</Time>
            <Position>
              <LatitudeDegrees>40.44787220656871795654296875</LatitudeDegrees>
              <LongitudeDegrees>-4.002206213772296905517578125</LongitudeDegrees>
            </Position>
            <AltitudeMeters>675.20001220703125</AltitudeMeters>
            <DistanceMeters>NAN</DistanceMeters>
          </Trackpoint>
          <Trackpoint>
            <Time>2019-08-01T17:29:35.000Z</Time>
            <Position>
              <LatitudeDegrees>40.44780506752431392669677734375</LatitudeDegrees>
              <LongitudeDegrees>-4.00220160372555255889892578125</LongitudeDegrees>
            </Position>
            <AltitudeMeters>675.20001220703125</AltitudeMeters>
            <DistanceMeters>NAN</DistanceMeters>
          </Trackpoint>
          <Trackpoint>
            <Time>2019-08-01T17:29:36.000Z</Time>
            <Position>
              <LatitudeDegrees>40.44773533008992671966552734375</LatitudeDegrees>
              <LongitudeDegrees>-4.00220093317329883575439453125</LongitudeDegrees>
            </Position>
            <AltitudeMeters>675.20001220703125</AltitudeMeters>
            <DistanceMeters>NAN</DistanceMeters>
          </Trackpoint>
          <Trackpoint>
            <Time>2019-08-01T17:29:37.000Z</Time>
            <Position>
              <LatitudeDegrees>40.44766366481781005859375</LatitudeDegrees>
              <LongitudeDegrees>-4.0021978318691253662109375</LongitudeDegrees>
            </Position>
            <AltitudeMeters>675.4000244140625</AltitudeMeters>
            <DistanceMeters>NAN</DistanceMeters>
          </Trackpoint>
          <Trackpoint>
            <Time>2019-08-01T17:29:38.000Z</Time>
            <Position>
              <LatitudeDegrees>40.4475967772305011749267578125</LatitudeDegrees>
              <LongitudeDegrees>-4.0021979995071887969970703125</LongitudeDegrees>
            </Position>
            <AltitudeMeters>675.4000244140625</AltitudeMeters>
            <DistanceMeters>NAN</DistanceMeters>
          </Trackpoint>
          <Trackpoint>
            <Time>2019-08-01T17:29:39.000Z</Time>
            <Position>
              <LatitudeDegrees>40.44753382913768291473388671875</LatitudeDegrees>
              <LongitudeDegrees>-4.0021951496601104736328125</LongitudeDegrees>
            </Position>
            <AltitudeMeters>675.4000244140625</AltitudeMeters>
            <DistanceMeters>NAN</DistanceMeters>
          </Trackpoint>
          <Trackpoint>
            <Time>2019-08-01T17:29:40.000Z</Time>
            <Position>
              <LatitudeDegrees>40.447470210492610931396484375</LatitudeDegrees>
              <LongitudeDegrees>-4.00218098424375057220458984375</LongitudeDegrees>
            </Position>
            <AltitudeMeters>675.4000244140625</AltitudeMeters>
            <DistanceMeters>NAN</DistanceMeters>
          </Trackpoint>
          <Trackpoint>
            <Time>2019-08-01T17:29:41.000Z</Time>
            <Position>
              <LatitudeDegrees>40.44740407727658748626708984375</LatitudeDegrees>
              <LongitudeDegrees>-4.00217327289283275604248046875</LongitudeDegrees>
            </Position>
            <AltitudeMeters>675.4000244140625</AltitudeMeters>
            <DistanceMeters>NAN</DistanceMeters>
          </Trackpoint>
          <Trackpoint>
            <Time>2019-08-01T17:29:42.000Z</Time>
            <Position>
              <LatitudeDegrees>40.4473339207470417022705078125</LatitudeDegrees>
              <LongitudeDegrees>-4.00216002948582172393798828125</LongitudeDegrees>
            </Position>
            <AltitudeMeters>675.20001220703125</AltitudeMeters>
            <DistanceMeters>NAN</DistanceMeters>
          </Trackpoint>
          <Trackpoint>
            <Time>2019-08-01T17:29:43.000Z</Time>
            <Position>
              <LatitudeDegrees>40.4472641833126544952392578125</LatitudeDegrees>
              <LongitudeDegrees>-4.0021480433642864227294921875</LongitudeDegrees>
            </Position>
            <AltitudeMeters>675.4000244140625</AltitudeMeters>
            <DistanceMeters>NAN</DistanceMeters>
          </Trackpoint>
          <Trackpoint>
            <Time>2019-08-01T17:29:44.000Z</Time>
            <Position>
              <LatitudeDegrees>40.4472641833126544952392578125</LatitudeDegrees>
              <LongitudeDegrees>-4.0021480433642864227294921875</LongitudeDegrees>
            </Position>
            <AltitudeMeters>675.4000244140625</AltitudeMeters>
            <DistanceMeters>NAN</DistanceMeters>
          </Trackpoint>
          <Trackpoint>
            <Time>2019-08-01T17:29:45.000Z</Time>
            <Position>
              <LatitudeDegrees>40.44713795185089111328125</LatitudeDegrees>
              <LongitudeDegrees>-4.002135135233402252197265625</LongitudeDegrees>
            </Position>
            <AltitudeMeters>675.4000244140625</AltitudeMeters>
            <DistanceMeters>NAN</DistanceMeters>
          </Trackpoint>
          <Trackpoint>
            <Time>2019-08-01T17:29:46.000Z</Time>
            <Position>
              <LatitudeDegrees>40.44707424938678741455078125</LatitudeDegrees>
              <LongitudeDegrees>-4.00212868116796016693115234375</LongitudeDegrees>
            </Position>
            <AltitudeMeters>675.4000244140625</AltitudeMeters>
            <DistanceMeters>NAN</DistanceMeters>
          </Trackpoint>
          <Trackpoint>
            <Time>2019-08-01T17:29:47.000Z</Time>
            <Position>
              <LatitudeDegrees>40.4470097087323665618896484375</LatitudeDegrees>
              <LongitudeDegrees>-4.002119041979312896728515625</LongitudeDegrees>
            </Position>
            <AltitudeMeters>675.4000244140625</AltitudeMeters>
            <DistanceMeters>NAN</DistanceMeters>
          </Trackpoint>
          <Trackpoint>
            <Time>2019-08-01T17:29:48.000Z</Time>
            <Position>
              <LatitudeDegrees>40.44694541953504085540771484375</LatitudeDegrees>
              <LongitudeDegrees>-4.00210957042872905731201171875</LongitudeDegrees>
            </Position>
            <AltitudeMeters>675.4000244140625</AltitudeMeters>
            <DistanceMeters>NAN</DistanceMeters>
          </Trackpoint>
          <Trackpoint>
            <Time>2019-08-01T17:29:49.000Z</Time>
            <Position>
              <LatitudeDegrees>40.44688339345157146453857421875</LatitudeDegrees>
              <LongitudeDegrees>-4.0021057985723018646240234375</LongitudeDegrees>
            </Position>
            <AltitudeMeters>675.4000244140625</AltitudeMeters>
            <DistanceMeters>NAN</DistanceMeters>
          </Trackpoint>
          <Trackpoint>
            <Time>2019-08-01T17:29:50.000Z</Time>
            <Position>
              <LatitudeDegrees>40.44681985862553119659423828125</LatitudeDegrees>
              <LongitudeDegrees>-4.00209817104041576385498046875</LongitudeDegrees>
            </Position>
            <AltitudeMeters>675.4000244140625</AltitudeMeters>
            <DistanceMeters>NAN</DistanceMeters>
          </Trackpoint>
          <Trackpoint>
            <Time>2019-08-01T17:29:51.000Z</Time>
            <Position>
              <LatitudeDegrees>40.44675649143755435943603515625</LatitudeDegrees>
              <LongitudeDegrees>-4.002089202404022216796875</LongitudeDegrees>
            </Position>
            <AltitudeMeters>675.4000244140625</AltitudeMeters>
            <DistanceMeters>NAN</DistanceMeters>
          </Trackpoint>
          <Trackpoint>
            <Time>2019-08-01T17:29:52.000Z</Time>
            <Position>
              <LatitudeDegrees>40.44670050032436847686767578125</LatitudeDegrees>
              <LongitudeDegrees>-4.0020719356834888458251953125</LongitudeDegrees>
            </Position>
            <AltitudeMeters>675.79998779296875</AltitudeMeters>
            <DistanceMeters>NAN</DistanceMeters>
          </Trackpoint>
          <Trackpoint>
            <Time>2019-08-01T17:29:53.000Z</Time>
            <Position>
              <LatitudeDegrees>40.4466618597507476806640625</LatitudeDegrees>
              <LongitudeDegrees>-4.0020337142050266265869140625</LongitudeDegrees>
            </Position>
            <AltitudeMeters>676.20001220703125</AltitudeMeters>
            <DistanceMeters>NAN</DistanceMeters>
          </Trackpoint>
          <Trackpoint>
            <Time>2019-08-01T17:29:54.000Z</Time>
            <Position>
              <LatitudeDegrees>40.44664316810667514801025390625</LatitudeDegrees>
              <LongitudeDegrees>-4.00198149494826793670654296875</LongitudeDegrees>
            </Position>
            <AltitudeMeters>676.4000244140625</AltitudeMeters>
            <DistanceMeters>NAN</DistanceMeters>
          </Trackpoint>
          <Trackpoint>
            <Time>2019-08-01T17:29:55.000Z</Time>
            <Position>
              <LatitudeDegrees>40.4466348700225353240966796875</LatitudeDegrees>
              <LongitudeDegrees>-4.0019079856574535369873046875</LongitudeDegrees>
            </Position>
            <AltitudeMeters>676.5999755859375</AltitudeMeters>
            <DistanceMeters>NAN</DistanceMeters>
          </Trackpoint>
          <Trackpoint>
            <Time>2019-08-01T17:29:56.000Z</Time>
            <Position>
              <LatitudeDegrees>40.446632020175457000732421875</LatitudeDegrees>
              <LongitudeDegrees>-4.00182642973959445953369140625</LongitudeDegrees>
            </Position>
            <AltitudeMeters>676.79998779296875</AltitudeMeters>
            <DistanceMeters>NAN</DistanceMeters>
          </Trackpoint>
          <Trackpoint>
            <Time>2019-08-01T17:29:57.000Z</Time>
            <Position>
              <LatitudeDegrees>40.44663193635642528533935546875</LatitudeDegrees>
              <LongitudeDegrees>-4.00173992849886417388916015625</LongitudeDegrees>
            </Position>
            <AltitudeMeters>676.79998779296875</AltitudeMeters>
            <DistanceMeters>NAN</DistanceMeters>
          </Trackpoint>
        </Track>
      </Lap>
    </Activity>
  </Activities>
</TrainingCenterDatabase>
